<?xml version="1.0" encoding="UTF-8"?>
<gpx version="1.1" creator="https://www.youtrack.es" xsi:schemaLocation="http://www.topografix.com/GPX/1/1 http://www.topografix.com/GPX/1/1/gpx.xsd http://www.garmin.com/xmlschemas/GpxExtensions/v3 http://www.garmin.com/xmlschemas/GpxExtensionsv3.xsd http://www.garmin.com/xmlschemas/TrackPointExtension/v1 http://www.garmin.com/xmlschemas/TrackPointExtensionv1.xsd" xmlns:gpxtpx="http://www.garmin.com/xmlschemas/TrackPointExtension/v1" xmlns:gpxx="http://www.garmin.com/xmlschemas/GpxExtensions/v3" xmlns:xsi="http://www.w3.org/2001/XMLSchema-instance">
  <metadata>
    <link href="https://www.youtrack.es">
      <text>YouTrack.es</text>
    </link>
    <time>2026-05-08T20:37:16Z</time>
  </metadata>
  <trk>
    <src>https://www.youtrack.es</src>
    <link href="https://www.youtrack.es/ruta/24598-veleta-mulhacen">
      <text>YouTrack.es</text>
    </link>
    <trkseg>
      <trkpt lat="37.09362" lon="-3.38629">
        <ele>2511.6</ele>
        <time>2021-08-05 11:17:03</time>
      </trkpt>
      <trkpt lat="37.09362" lon="-3.38628">
        <ele>2511.6</ele>
        <time>2021-08-05 11:17:04</time>
      </trkpt>
      <trkpt lat="37.09361" lon="-3.38627">
        <ele>2511.6</ele>
        <time>2021-08-05 11:17:05</time>
      </trkpt>
      <trkpt lat="37.09359" lon="-3.38625">
        <ele>2511.6</ele>
        <time>2021-08-05 11:17:06</time>
      </trkpt>
      <trkpt lat="37.09358" lon="-3.38625">
        <ele>2511.6</ele>
        <time>2021-08-05 11:17:07</time>
      </trkpt>
      <trkpt lat="37.09358" lon="-3.38624">
        <ele>2511.6</ele>
        <time>2021-08-05 11:17:08</time>
      </trkpt>
      <trkpt lat="37.09357" lon="-3.38626">
        <ele>2511.6</ele>
        <time>2021-08-05 11:17:09</time>
      </trkpt>
      <trkpt lat="37.09357" lon="-3.38625">
        <ele>2512</ele>
        <time>2021-08-05 11:17:10</time>
      </trkpt>
      <trkpt lat="37.09357" lon="-3.38625">
        <ele>2511.8</ele>
        <time>2021-08-05 11:17:11</time>
      </trkpt>
      <trkpt lat="37.09356" lon="-3.38624">
        <ele>2512</ele>
        <time>2021-08-05 11:17:12</time>
      </trkpt>
      <trkpt lat="37.09355" lon="-3.38624">
        <ele>2512</ele>
        <time>2021-08-05 11:17:13</time>
      </trkpt>
      <trkpt lat="37.09354" lon="-3.38623">
        <ele>2512.2</ele>
        <time>2021-08-05 11:17:14</time>
      </trkpt>
      <trkpt lat="37.09353" lon="-3.38623">
        <ele>2512.2</ele>
        <time>2021-08-05 11:17:15</time>
      </trkpt>
      <trkpt lat="37.09352" lon="-3.38622">
        <ele>2512.2</ele>
        <time>2021-08-05 11:17:16</time>
      </trkpt>
      <trkpt lat="37.09351" lon="-3.38622">
        <ele>2512.2</ele>
        <time>2021-08-05 11:17:17</time>
      </trkpt>
      <trkpt lat="37.0935" lon="-3.38622">
        <ele>2512.2</ele>
        <time>2021-08-05 11:17:18</time>
      </trkpt>
      <trkpt lat="37.09349" lon="-3.38621">
        <ele>2512.4</ele>
        <time>2021-08-05 11:17:19</time>
      </trkpt>
      <trkpt lat="37.09348" lon="-3.38621">
        <ele>2512.6</ele>
        <time>2021-08-05 11:17:20</time>
      </trkpt>
      <trkpt lat="37.09347" lon="-3.3862">
        <ele>2512.6</ele>
        <time>2021-08-05 11:17:21</time>
      </trkpt>
      <trkpt lat="37.09346" lon="-3.38618">
        <ele>2512.6</ele>
        <time>2021-08-05 11:17:22</time>
      </trkpt>
      <trkpt lat="37.09345" lon="-3.38617">
        <ele>2512.6</ele>
        <time>2021-08-05 11:17:23</time>
      </trkpt>
      <trkpt lat="37.09345" lon="-3.38616">
        <ele>2512.6</ele>
        <time>2021-08-05 11:17:24</time>
      </trkpt>
      <trkpt lat="37.09345" lon="-3.38616">
        <ele>2512.8</ele>
        <time>2021-08-05 11:17:25</time>
      </trkpt>
      <trkpt lat="37.09346" lon="-3.38616">
        <ele>2512.8</ele>
        <time>2021-08-05 11:17:26</time>
      </trkpt>
      <trkpt lat="37.09346" lon="-3.38616">
        <ele>2513</ele>
        <time>2021-08-05 11:17:27</time>
      </trkpt>
      <trkpt lat="37.09346" lon="-3.38616">
        <ele>2513</ele>
        <time>2021-08-05 11:17:28</time>
      </trkpt>
      <trkpt lat="37.09347" lon="-3.38616">
        <ele>2513</ele>
        <time>2021-08-05 11:17:29</time>
      </trkpt>
      <trkpt lat="37.09347" lon="-3.38616">
        <ele>2513.2</ele>
        <time>2021-08-05 11:17:30</time>
      </trkpt>
      <trkpt lat="37.09347" lon="-3.38616">
        <ele>2513</ele>
        <time>2021-08-05 11:17:31</time>
      </trkpt>
      <trkpt lat="37.09347" lon="-3.38616">
        <ele>2513</ele>
        <time>2021-08-05 11:17:32</time>
      </trkpt>
      <trkpt lat="37.09346" lon="-3.38616">
        <ele>2513.2</ele>
        <time>2021-08-05 11:17:33</time>
      </trkpt>
      <trkpt lat="37.09346" lon="-3.38616">
        <ele>2513.2</ele>
        <time>2021-08-05 11:17:34</time>
      </trkpt>
      <trkpt lat="37.09346" lon="-3.38615">
        <ele>2513.2</ele>
        <time>2021-08-05 11:17:35</time>
      </trkpt>
      <trkpt lat="37.09345" lon="-3.38615">
        <ele>2513.4</ele>
        <time>2021-08-05 11:17:36</time>
      </trkpt>
      <trkpt lat="37.09344" lon="-3.38615">
        <ele>2513.4</ele>
        <time>2021-08-05 11:17:37</time>
      </trkpt>
      <trkpt lat="37.09344" lon="-3.38615">
        <ele>2513.6</ele>
        <time>2021-08-05 11:17:38</time>
      </trkpt>
      <trkpt lat="37.09343" lon="-3.38614">
        <ele>2513.6</ele>
        <time>2021-08-05 11:17:39</time>
      </trkpt>
      <trkpt lat="37.09342" lon="-3.38613">
        <ele>2513.6</ele>
        <time>2021-08-05 11:17:40</time>
      </trkpt>
      <trkpt lat="37.09341" lon="-3.38612">
        <ele>2513.6</ele>
        <time>2021-08-05 11:17:41</time>
      </trkpt>
      <trkpt lat="37.0934" lon="-3.38611">
        <ele>2513.6</ele>
        <time>2021-08-05 11:17:42</time>
      </trkpt>
      <trkpt lat="37.09339" lon="-3.3861">
        <ele>2513.8</ele>
        <time>2021-08-05 11:17:43</time>
      </trkpt>
      <trkpt lat="37.09339" lon="-3.3861">
        <ele>2513.8</ele>
        <time>2021-08-05 11:17:44</time>
      </trkpt>
      <trkpt lat="37.09338" lon="-3.38609">
        <ele>2513.8</ele>
        <time>2021-08-05 11:17:45</time>
      </trkpt>
      <trkpt lat="37.09338" lon="-3.38608">
        <ele>2514</ele>
        <time>2021-08-05 11:17:46</time>
      </trkpt>
      <trkpt lat="37.09337" lon="-3.38608">
        <ele>2514</ele>
        <time>2021-08-05 11:17:47</time>
      </trkpt>
      <trkpt lat="37.09336" lon="-3.38607">
        <ele>2514.2</ele>
        <time>2021-08-05 11:17:48</time>
      </trkpt>
      <trkpt lat="37.09336" lon="-3.38606">
        <ele>2514.4</ele>
        <time>2021-08-05 11:17:49</time>
      </trkpt>
      <trkpt lat="37.09335" lon="-3.38606">
        <ele>2514.6</ele>
        <time>2021-08-05 11:17:50</time>
      </trkpt>
      <trkpt lat="37.09334" lon="-3.38605">
        <ele>2514.6</ele>
        <time>2021-08-05 11:17:51</time>
      </trkpt>
      <trkpt lat="37.09334" lon="-3.38604">
        <ele>2514.8</ele>
        <time>2021-08-05 11:17:52</time>
      </trkpt>
      <trkpt lat="37.09333" lon="-3.38603">
        <ele>2514.8</ele>
        <time>2021-08-05 11:17:53</time>
      </trkpt>
      <trkpt lat="37.09333" lon="-3.38603">
        <ele>2514.8</ele>
        <time>2021-08-05 11:17:54</time>
      </trkpt>
      <trkpt lat="37.09332" lon="-3.38602">
        <ele>2514.8</ele>
        <time>2021-08-05 11:17:55</time>
      </trkpt>
      <trkpt lat="37.09332" lon="-3.38601">
        <ele>2515</ele>
        <time>2021-08-05 11:17:56</time>
      </trkpt>
      <trkpt lat="37.09332" lon="-3.386">
        <ele>2515.2</ele>
        <time>2021-08-05 11:17:57</time>
      </trkpt>
      <trkpt lat="37.09331" lon="-3.38599">
        <ele>2515.2</ele>
        <time>2021-08-05 11:17:58</time>
      </trkpt>
      <trkpt lat="37.09331" lon="-3.38599">
        <ele>2515.4</ele>
        <time>2021-08-05 11:17:59</time>
      </trkpt>
      <trkpt lat="37.0933" lon="-3.38598">
        <ele>2515.4</ele>
        <time>2021-08-05 11:18:00</time>
      </trkpt>
      <trkpt lat="37.09329" lon="-3.38597">
        <ele>2515.6</ele>
        <time>2021-08-05 11:18:01</time>
      </trkpt>
      <trkpt lat="37.09329" lon="-3.38596">
        <ele>2515.6</ele>
        <time>2021-08-05 11:18:02</time>
      </trkpt>
      <trkpt lat="37.09328" lon="-3.38596">
        <ele>2515.6</ele>
        <time>2021-08-05 11:18:03</time>
      </trkpt>
      <trkpt lat="37.09328" lon="-3.38595">
        <ele>2515.6</ele>
        <time>2021-08-05 11:18:04</time>
      </trkpt>
      <trkpt lat="37.09327" lon="-3.38595">
        <ele>2515.8</ele>
        <time>2021-08-05 11:18:05</time>
      </trkpt>
      <trkpt lat="37.09327" lon="-3.38594">
        <ele>2515.8</ele>
        <time>2021-08-05 11:18:06</time>
      </trkpt>
      <trkpt lat="37.09326" lon="-3.38593">
        <ele>2515.8</ele>
        <time>2021-08-05 11:18:07</time>
      </trkpt>
      <trkpt lat="37.09326" lon="-3.38593">
        <ele>2516</ele>
        <time>2021-08-05 11:18:08</time>
      </trkpt>
      <trkpt lat="37.09325" lon="-3.38592">
        <ele>2516</ele>
        <time>2021-08-05 11:18:09</time>
      </trkpt>
      <trkpt lat="37.09324" lon="-3.38592">
        <ele>2516.2</ele>
        <time>2021-08-05 11:18:10</time>
      </trkpt>
      <trkpt lat="37.09324" lon="-3.38592">
        <ele>2516.4</ele>
        <time>2021-08-05 11:18:11</time>
      </trkpt>
      <trkpt lat="37.09323" lon="-3.38592">
        <ele>2516.4</ele>
        <time>2021-08-05 11:18:12</time>
      </trkpt>
      <trkpt lat="37.09322" lon="-3.38592">
        <ele>2516.4</ele>
        <time>2021-08-05 11:18:13</time>
      </trkpt>
      <trkpt lat="37.09322" lon="-3.38592">
        <ele>2516.6</ele>
        <time>2021-08-05 11:18:14</time>
      </trkpt>
      <trkpt lat="37.09321" lon="-3.38592">
        <ele>2516.6</ele>
        <time>2021-08-05 11:18:15</time>
      </trkpt>
      <trkpt lat="37.09321" lon="-3.38591">
        <ele>2517</ele>
        <time>2021-08-05 11:18:16</time>
      </trkpt>
      <trkpt lat="37.0932" lon="-3.3859">
        <ele>2517.2</ele>
        <time>2021-08-05 11:18:17</time>
      </trkpt>
      <trkpt lat="37.0932" lon="-3.38589">
        <ele>2517.4</ele>
        <time>2021-08-05 11:18:18</time>
      </trkpt>
      <trkpt lat="37.09319" lon="-3.38588">
        <ele>2517.6</ele>
        <time>2021-08-05 11:18:19</time>
      </trkpt>
      <trkpt lat="37.09319" lon="-3.38587">
        <ele>2517.6</ele>
        <time>2021-08-05 11:18:20</time>
      </trkpt>
      <trkpt lat="37.09318" lon="-3.38587">
        <ele>2517.6</ele>
        <time>2021-08-05 11:18:21</time>
      </trkpt>
      <trkpt lat="37.09318" lon="-3.38587">
        <ele>2518</ele>
        <time>2021-08-05 11:18:22</time>
      </trkpt>
      <trkpt lat="37.09317" lon="-3.38587">
        <ele>2518.2</ele>
        <time>2021-08-05 11:18:23</time>
      </trkpt>
      <trkpt lat="37.09317" lon="-3.38587">
        <ele>2518.2</ele>
        <time>2021-08-05 11:18:24</time>
      </trkpt>
      <trkpt lat="37.09316" lon="-3.38587">
        <ele>2518.4</ele>
        <time>2021-08-05 11:18:25</time>
      </trkpt>
      <trkpt lat="37.09316" lon="-3.38587">
        <ele>2518.2</ele>
        <time>2021-08-05 11:18:26</time>
      </trkpt>
      <trkpt lat="37.09316" lon="-3.38587">
        <ele>2518</ele>
        <time>2021-08-05 11:18:27</time>
      </trkpt>
      <trkpt lat="37.09315" lon="-3.38587">
        <ele>2518</ele>
        <time>2021-08-05 11:18:28</time>
      </trkpt>
      <trkpt lat="37.09315" lon="-3.38586">
        <ele>2517.8</ele>
        <time>2021-08-05 11:18:29</time>
      </trkpt>
      <trkpt lat="37.09315" lon="-3.38586">
        <ele>2518.2</ele>
        <time>2021-08-05 11:18:30</time>
      </trkpt>
      <trkpt lat="37.09314" lon="-3.38586">
        <ele>2518.4</ele>
        <time>2021-08-05 11:18:31</time>
      </trkpt>
      <trkpt lat="37.09314" lon="-3.38585">
        <ele>2518.8</ele>
        <time>2021-08-05 11:18:32</time>
      </trkpt>
      <trkpt lat="37.09313" lon="-3.38585">
        <ele>2518.8</ele>
        <time>2021-08-05 11:18:33</time>
      </trkpt>
      <trkpt lat="37.09313" lon="-3.38585">
        <ele>2519</ele>
        <time>2021-08-05 11:18:34</time>
      </trkpt>
      <trkpt lat="37.09313" lon="-3.38586">
        <ele>2519</ele>
        <time>2021-08-05 11:18:35</time>
      </trkpt>
      <trkpt lat="37.09312" lon="-3.38585">
        <ele>2519</ele>
        <time>2021-08-05 11:18:36</time>
      </trkpt>
      <trkpt lat="37.09312" lon="-3.38585">
        <ele>2519.2</ele>
        <time>2021-08-05 11:18:37</time>
      </trkpt>
      <trkpt lat="37.09311" lon="-3.38585">
        <ele>2519.4</ele>
        <time>2021-08-05 11:18:38</time>
      </trkpt>
      <trkpt lat="37.09311" lon="-3.38585">
        <ele>2519.4</ele>
        <time>2021-08-05 11:18:39</time>
      </trkpt>
      <trkpt lat="37.09311" lon="-3.38585">
        <ele>2519.4</ele>
        <time>2021-08-05 11:18:40</time>
      </trkpt>
      <trkpt lat="37.0931" lon="-3.38585">
        <ele>2519.4</ele>
        <time>2021-08-05 11:18:41</time>
      </trkpt>
      <trkpt lat="37.0931" lon="-3.38584">
        <ele>2519.4</ele>
        <time>2021-08-05 11:18:42</time>
      </trkpt>
      <trkpt lat="37.0931" lon="-3.38584">
        <ele>2519.4</ele>
        <time>2021-08-05 11:18:43</time>
      </trkpt>
      <trkpt lat="37.09309" lon="-3.38584">
        <ele>2519.4</ele>
        <time>2021-08-05 11:18:44</time>
      </trkpt>
      <trkpt lat="37.09309" lon="-3.38583">
        <ele>2519.4</ele>
        <time>2021-08-05 11:18:45</time>
      </trkpt>
      <trkpt lat="37.09308" lon="-3.38583">
        <ele>2519.4</ele>
        <time>2021-08-05 11:18:46</time>
      </trkpt>
      <trkpt lat="37.09308" lon="-3.38583">
        <ele>2519.6</ele>
        <time>2021-08-05 11:18:47</time>
      </trkpt>
      <trkpt lat="37.09307" lon="-3.38582">
        <ele>2519.8</ele>
        <time>2021-08-05 11:18:48</time>
      </trkpt>
      <trkpt lat="37.09307" lon="-3.38582">
        <ele>2520</ele>
        <time>2021-08-05 11:18:49</time>
      </trkpt>
      <trkpt lat="37.09307" lon="-3.38581">
        <ele>2520.2</ele>
        <time>2021-08-05 11:18:50</time>
      </trkpt>
      <trkpt lat="37.09306" lon="-3.38581">
        <ele>2520.2</ele>
        <time>2021-08-05 11:18:51</time>
      </trkpt>
      <trkpt lat="37.09305" lon="-3.3858">
        <ele>2520.2</ele>
        <time>2021-08-05 11:18:52</time>
      </trkpt>
      <trkpt lat="37.09305" lon="-3.3858">
        <ele>2520.2</ele>
        <time>2021-08-05 11:18:53</time>
      </trkpt>
      <trkpt lat="37.09304" lon="-3.3858">
        <ele>2520.4</ele>
        <time>2021-08-05 11:18:54</time>
      </trkpt>
      <trkpt lat="37.09304" lon="-3.38579">
        <ele>2520.4</ele>
        <time>2021-08-05 11:18:55</time>
      </trkpt>
      <trkpt lat="37.09304" lon="-3.38578">
        <ele>2520.6</ele>
        <time>2021-08-05 11:18:56</time>
      </trkpt>
      <trkpt lat="37.09303" lon="-3.38578">
        <ele>2520.8</ele>
        <time>2021-08-05 11:18:57</time>
      </trkpt>
      <trkpt lat="37.09303" lon="-3.38577">
        <ele>2521</ele>
        <time>2021-08-05 11:18:58</time>
      </trkpt>
      <trkpt lat="37.09303" lon="-3.38576">
        <ele>2521.2</ele>
        <time>2021-08-05 11:18:59</time>
      </trkpt>
      <trkpt lat="37.09303" lon="-3.38575">
        <ele>2521.4</ele>
        <time>2021-08-05 11:19:00</time>
      </trkpt>
      <trkpt lat="37.09303" lon="-3.38575">
        <ele>2521.6</ele>
        <time>2021-08-05 11:19:01</time>
      </trkpt>
      <trkpt lat="37.09302" lon="-3.38574">
        <ele>2521.8</ele>
        <time>2021-08-05 11:19:02</time>
      </trkpt>
      <trkpt lat="37.09302" lon="-3.38573">
        <ele>2522.2</ele>
        <time>2021-08-05 11:19:03</time>
      </trkpt>
      <trkpt lat="37.09301" lon="-3.38572">
        <ele>2522.4</ele>
        <time>2021-08-05 11:19:04</time>
      </trkpt>
      <trkpt lat="37.093" lon="-3.38572">
        <ele>2522.4</ele>
        <time>2021-08-05 11:19:05</time>
      </trkpt>
      <trkpt lat="37.09299" lon="-3.38571">
        <ele>2522.6</ele>
        <time>2021-08-05 11:19:06</time>
      </trkpt>
      <trkpt lat="37.09299" lon="-3.38571">
        <ele>2522.6</ele>
        <time>2021-08-05 11:19:07</time>
      </trkpt>
      <trkpt lat="37.09298" lon="-3.38571">
        <ele>2522.6</ele>
        <time>2021-08-05 11:19:08</time>
      </trkpt>
      <trkpt lat="37.09297" lon="-3.3857">
        <ele>2522.4</ele>
        <time>2021-08-05 11:19:09</time>
      </trkpt>
      <trkpt lat="37.09297" lon="-3.38569">
        <ele>2522.4</ele>
        <time>2021-08-05 11:19:10</time>
      </trkpt>
      <trkpt lat="37.09297" lon="-3.38569">
        <ele>2522.2</ele>
        <time>2021-08-05 11:19:11</time>
      </trkpt>
      <trkpt lat="37.09296" lon="-3.38568">
        <ele>2522.2</ele>
        <time>2021-08-05 11:19:12</time>
      </trkpt>
      <trkpt lat="37.09296" lon="-3.38568">
        <ele>2522.2</ele>
        <time>2021-08-05 11:19:13</time>
      </trkpt>
      <trkpt lat="37.09295" lon="-3.38568">
        <ele>2522.4</ele>
        <time>2021-08-05 11:19:14</time>
      </trkpt>
      <trkpt lat="37.09294" lon="-3.38568">
        <ele>2522.6</ele>
        <time>2021-08-05 11:19:15</time>
      </trkpt>
      <trkpt lat="37.09294" lon="-3.38568">
        <ele>2522.8</ele>
        <time>2021-08-05 11:19:16</time>
      </trkpt>
      <trkpt lat="37.09293" lon="-3.38567">
        <ele>2523</ele>
        <time>2021-08-05 11:19:17</time>
      </trkpt>
      <trkpt lat="37.09293" lon="-3.38566">
        <ele>2523</ele>
        <time>2021-08-05 11:19:18</time>
      </trkpt>
      <trkpt lat="37.09292" lon="-3.38566">
        <ele>2523.2</ele>
        <time>2021-08-05 11:19:19</time>
      </trkpt>
      <trkpt lat="37.09292" lon="-3.38565">
        <ele>2523.2</ele>
        <time>2021-08-05 11:19:20</time>
      </trkpt>
      <trkpt lat="37.09291" lon="-3.38564">
        <ele>2523.6</ele>
        <time>2021-08-05 11:19:21</time>
      </trkpt>
      <trkpt lat="37.09291" lon="-3.38563">
        <ele>2523.8</ele>
        <time>2021-08-05 11:19:22</time>
      </trkpt>
      <trkpt lat="37.09291" lon="-3.38562">
        <ele>2523.8</ele>
        <time>2021-08-05 11:19:23</time>
      </trkpt>
      <trkpt lat="37.09291" lon="-3.38561">
        <ele>2524</ele>
        <time>2021-08-05 11:19:24</time>
      </trkpt>
      <trkpt lat="37.09291" lon="-3.3856">
        <ele>2524</ele>
        <time>2021-08-05 11:19:25</time>
      </trkpt>
      <trkpt lat="37.0929" lon="-3.38558">
        <ele>2524.2</ele>
        <time>2021-08-05 11:19:26</time>
      </trkpt>
      <trkpt lat="37.0929" lon="-3.38557">
        <ele>2524.6</ele>
        <time>2021-08-05 11:19:27</time>
      </trkpt>
      <trkpt lat="37.09289" lon="-3.38556">
        <ele>2524.8</ele>
        <time>2021-08-05 11:19:28</time>
      </trkpt>
      <trkpt lat="37.09289" lon="-3.38555">
        <ele>2524.8</ele>
        <time>2021-08-05 11:19:29</time>
      </trkpt>
      <trkpt lat="37.09288" lon="-3.38555">
        <ele>2525</ele>
        <time>2021-08-05 11:19:30</time>
      </trkpt>
      <trkpt lat="37.09287" lon="-3.38554">
        <ele>2525.2</ele>
        <time>2021-08-05 11:19:31</time>
      </trkpt>
      <trkpt lat="37.09287" lon="-3.38554">
        <ele>2525.4</ele>
        <time>2021-08-05 11:19:32</time>
      </trkpt>
      <trkpt lat="37.09286" lon="-3.38553">
        <ele>2525.6</ele>
        <time>2021-08-05 11:19:33</time>
      </trkpt>
      <trkpt lat="37.09286" lon="-3.38553">
        <ele>2525.8</ele>
        <time>2021-08-05 11:19:34</time>
      </trkpt>
      <trkpt lat="37.09285" lon="-3.38553">
        <ele>2526</ele>
        <time>2021-08-05 11:19:35</time>
      </trkpt>
      <trkpt lat="37.09285" lon="-3.38552">
        <ele>2526</ele>
        <time>2021-08-05 11:19:36</time>
      </trkpt>
      <trkpt lat="37.09285" lon="-3.38552">
        <ele>2526.2</ele>
        <time>2021-08-05 11:19:37</time>
      </trkpt>
      <trkpt lat="37.09285" lon="-3.38551">
        <ele>2526.2</ele>
        <time>2021-08-05 11:19:38</time>
      </trkpt>
      <trkpt lat="37.09284" lon="-3.38551">
        <ele>2526.2</ele>
        <time>2021-08-05 11:19:39</time>
      </trkpt>
      <trkpt lat="37.09283" lon="-3.3855">
        <ele>2526.4</ele>
        <time>2021-08-05 11:19:40</time>
      </trkpt>
      <trkpt lat="37.09283" lon="-3.38549">
        <ele>2526.4</ele>
        <time>2021-08-05 11:19:41</time>
      </trkpt>
      <trkpt lat="37.09283" lon="-3.38548">
        <ele>2526.4</ele>
        <time>2021-08-05 11:19:42</time>
      </trkpt>
      <trkpt lat="37.09283" lon="-3.38548">
        <ele>2526.4</ele>
        <time>2021-08-05 11:19:43</time>
      </trkpt>
      <trkpt lat="37.09283" lon="-3.38548">
        <ele>2526.6</ele>
        <time>2021-08-05 11:19:44</time>
      </trkpt>
      <trkpt lat="37.09283" lon="-3.38547">
        <ele>2526.6</ele>
        <time>2021-08-05 11:19:45</time>
      </trkpt>
      <trkpt lat="37.09283" lon="-3.38547">
        <ele>2526.6</ele>
        <time>2021-08-05 11:19:46</time>
      </trkpt>
      <trkpt lat="37.09283" lon="-3.38547">
        <ele>2527</ele>
        <time>2021-08-05 11:19:47</time>
      </trkpt>
      <trkpt lat="37.09283" lon="-3.38547">
        <ele>2527.2</ele>
        <time>2021-08-05 11:19:48</time>
      </trkpt>
      <trkpt lat="37.09283" lon="-3.38546">
        <ele>2527.4</ele>
        <time>2021-08-05 11:19:49</time>
      </trkpt>
      <trkpt lat="37.09282" lon="-3.38546">
        <ele>2527.4</ele>
        <time>2021-08-05 11:19:50</time>
      </trkpt>
      <trkpt lat="37.09282" lon="-3.38545">
        <ele>2527.6</ele>
        <time>2021-08-05 11:19:51</time>
      </trkpt>
      <trkpt lat="37.09281" lon="-3.38544">
        <ele>2527.6</ele>
        <time>2021-08-05 11:19:52</time>
      </trkpt>
      <trkpt lat="37.09281" lon="-3.38543">
        <ele>2527.8</ele>
        <time>2021-08-05 11:19:53</time>
      </trkpt>
      <trkpt lat="37.0928" lon="-3.38542">
        <ele>2527.8</ele>
        <time>2021-08-05 11:19:54</time>
      </trkpt>
      <trkpt lat="37.0928" lon="-3.38541">
        <ele>2527.8</ele>
        <time>2021-08-05 11:19:55</time>
      </trkpt>
      <trkpt lat="37.09279" lon="-3.38541">
        <ele>2527.8</ele>
        <time>2021-08-05 11:19:56</time>
      </trkpt>
      <trkpt lat="37.09279" lon="-3.3854">
        <ele>2528</ele>
        <time>2021-08-05 11:19:57</time>
      </trkpt>
      <trkpt lat="37.09278" lon="-3.3854">
        <ele>2528</ele>
        <time>2021-08-05 11:19:58</time>
      </trkpt>
      <trkpt lat="37.09278" lon="-3.3854">
        <ele>2528.6</ele>
        <time>2021-08-05 11:19:59</time>
      </trkpt>
      <trkpt lat="37.09278" lon="-3.38539">
        <ele>2528.8</ele>
        <time>2021-08-05 11:20:00</time>
      </trkpt>
      <trkpt lat="37.09277" lon="-3.38538">
        <ele>2529</ele>
        <time>2021-08-05 11:20:01</time>
      </trkpt>
      <trkpt lat="37.09277" lon="-3.38538">
        <ele>2529.2</ele>
        <time>2021-08-05 11:20:02</time>
      </trkpt>
      <trkpt lat="37.09276" lon="-3.38538">
        <ele>2529.4</ele>
        <time>2021-08-05 11:20:03</time>
      </trkpt>
      <trkpt lat="37.09275" lon="-3.38538">
        <ele>2529.6</ele>
        <time>2021-08-05 11:20:04</time>
      </trkpt>
      <trkpt lat="37.09275" lon="-3.38538">
        <ele>2529.6</ele>
        <time>2021-08-05 11:20:05</time>
      </trkpt>
      <trkpt lat="37.09275" lon="-3.38538">
        <ele>2529.6</ele>
        <time>2021-08-05 11:20:06</time>
      </trkpt>
      <trkpt lat="37.09275" lon="-3.38537">
        <ele>2529.8</ele>
        <time>2021-08-05 11:20:07</time>
      </trkpt>
      <trkpt lat="37.09275" lon="-3.38537">
        <ele>2530</ele>
        <time>2021-08-05 11:20:08</time>
      </trkpt>
      <trkpt lat="37.09274" lon="-3.38537">
        <ele>2530.2</ele>
        <time>2021-08-05 11:20:09</time>
      </trkpt>
      <trkpt lat="37.09274" lon="-3.38536">
        <ele>2530.4</ele>
        <time>2021-08-05 11:20:10</time>
      </trkpt>
      <trkpt lat="37.09274" lon="-3.38537">
        <ele>2530.4</ele>
        <time>2021-08-05 11:20:11</time>
      </trkpt>
      <trkpt lat="37.09274" lon="-3.38537">
        <ele>2530.6</ele>
        <time>2021-08-05 11:20:12</time>
      </trkpt>
      <trkpt lat="37.09274" lon="-3.38536">
        <ele>2530.6</ele>
        <time>2021-08-05 11:20:13</time>
      </trkpt>
      <trkpt lat="37.09273" lon="-3.38536">
        <ele>2530.6</ele>
        <time>2021-08-05 11:20:14</time>
      </trkpt>
      <trkpt lat="37.09272" lon="-3.38536">
        <ele>2530.6</ele>
        <time>2021-08-05 11:20:15</time>
      </trkpt>
      <trkpt lat="37.09271" lon="-3.38535">
        <ele>2530.6</ele>
        <time>2021-08-05 11:20:16</time>
      </trkpt>
      <trkpt lat="37.09271" lon="-3.38534">
        <ele>2530.8</ele>
        <time>2021-08-05 11:20:17</time>
      </trkpt>
      <trkpt lat="37.0927" lon="-3.38534">
        <ele>2531</ele>
        <time>2021-08-05 11:20:18</time>
      </trkpt>
      <trkpt lat="37.0927" lon="-3.38533">
        <ele>2531</ele>
        <time>2021-08-05 11:20:19</time>
      </trkpt>
      <trkpt lat="37.0927" lon="-3.38533">
        <ele>2531.2</ele>
        <time>2021-08-05 11:20:20</time>
      </trkpt>
      <trkpt lat="37.0927" lon="-3.38534">
        <ele>2531.2</ele>
        <time>2021-08-05 11:20:21</time>
      </trkpt>
      <trkpt lat="37.09269" lon="-3.38534">
        <ele>2531.2</ele>
        <time>2021-08-05 11:20:22</time>
      </trkpt>
      <trkpt lat="37.09268" lon="-3.38533">
        <ele>2531.4</ele>
        <time>2021-08-05 11:20:23</time>
      </trkpt>
      <trkpt lat="37.09268" lon="-3.38533">
        <ele>2531</ele>
        <time>2021-08-05 11:20:24</time>
      </trkpt>
      <trkpt lat="37.09267" lon="-3.38533">
        <ele>2530.8</ele>
        <time>2021-08-05 11:20:25</time>
      </trkpt>
      <trkpt lat="37.09267" lon="-3.38533">
        <ele>2530.6</ele>
        <time>2021-08-05 11:20:26</time>
      </trkpt>
      <trkpt lat="37.09266" lon="-3.38533">
        <ele>2530.6</ele>
        <time>2021-08-05 11:20:27</time>
      </trkpt>
      <trkpt lat="37.09265" lon="-3.38533">
        <ele>2530.4</ele>
        <time>2021-08-05 11:20:28</time>
      </trkpt>
      <trkpt lat="37.09264" lon="-3.38532">
        <ele>2530.4</ele>
        <time>2021-08-05 11:20:29</time>
      </trkpt>
      <trkpt lat="37.09264" lon="-3.38532">
        <ele>2530.4</ele>
        <time>2021-08-05 11:20:30</time>
      </trkpt>
      <trkpt lat="37.09263" lon="-3.38531">
        <ele>2530.6</ele>
        <time>2021-08-05 11:20:31</time>
      </trkpt>
      <trkpt lat="37.09262" lon="-3.3853">
        <ele>2531</ele>
        <time>2021-08-05 11:20:32</time>
      </trkpt>
      <trkpt lat="37.09262" lon="-3.3853">
        <ele>2531.2</ele>
        <time>2021-08-05 11:20:33</time>
      </trkpt>
      <trkpt lat="37.09262" lon="-3.38529">
        <ele>2531.2</ele>
        <time>2021-08-05 11:20:34</time>
      </trkpt>
      <trkpt lat="37.09261" lon="-3.38529">
        <ele>2531.4</ele>
        <time>2021-08-05 11:20:35</time>
      </trkpt>
      <trkpt lat="37.09261" lon="-3.38528">
        <ele>2531.6</ele>
        <time>2021-08-05 11:20:36</time>
      </trkpt>
      <trkpt lat="37.0926" lon="-3.38528">
        <ele>2531.8</ele>
        <time>2021-08-05 11:20:37</time>
      </trkpt>
      <trkpt lat="37.0926" lon="-3.38528">
        <ele>2531.8</ele>
        <time>2021-08-05 11:20:38</time>
      </trkpt>
      <trkpt lat="37.09259" lon="-3.38528">
        <ele>2532</ele>
        <time>2021-08-05 11:20:39</time>
      </trkpt>
      <trkpt lat="37.09258" lon="-3.38528">
        <ele>2532</ele>
        <time>2021-08-05 11:20:40</time>
      </trkpt>
      <trkpt lat="37.09258" lon="-3.38527">
        <ele>2532</ele>
        <time>2021-08-05 11:20:41</time>
      </trkpt>
      <trkpt lat="37.09257" lon="-3.38527">
        <ele>2532</ele>
        <time>2021-08-05 11:20:42</time>
      </trkpt>
      <trkpt lat="37.09257" lon="-3.38527">
        <ele>2532</ele>
        <time>2021-08-05 11:20:43</time>
      </trkpt>
      <trkpt lat="37.09256" lon="-3.38527">
        <ele>2532</ele>
        <time>2021-08-05 11:20:44</time>
      </trkpt>
      <trkpt lat="37.09256" lon="-3.38527">
        <ele>2532</ele>
        <time>2021-08-05 11:20:45</time>
      </trkpt>
      <trkpt lat="37.09255" lon="-3.38527">
        <ele>2532.4</ele>
        <time>2021-08-05 11:20:46</time>
      </trkpt>
      <trkpt lat="37.09254" lon="-3.38527">
        <ele>2532.6</ele>
        <time>2021-08-05 11:20:47</time>
      </trkpt>
      <trkpt lat="37.09253" lon="-3.38526">
        <ele>2532.6</ele>
        <time>2021-08-05 11:20:48</time>
      </trkpt>
      <trkpt lat="37.09253" lon="-3.38526">
        <ele>2532.8</ele>
        <time>2021-08-05 11:20:49</time>
      </trkpt>
      <trkpt lat="37.09253" lon="-3.38525">
        <ele>2533</ele>
        <time>2021-08-05 11:20:50</time>
      </trkpt>
      <trkpt lat="37.09252" lon="-3.38525">
        <ele>2533.2</ele>
        <time>2021-08-05 11:20:51</time>
      </trkpt>
      <trkpt lat="37.09252" lon="-3.38525">
        <ele>2533.2</ele>
        <time>2021-08-05 11:20:52</time>
      </trkpt>
      <trkpt lat="37.09252" lon="-3.38524">
        <ele>2533.4</ele>
        <time>2021-08-05 11:20:53</time>
      </trkpt>
      <trkpt lat="37.09252" lon="-3.38523">
        <ele>2533.8</ele>
        <time>2021-08-05 11:20:54</time>
      </trkpt>
      <trkpt lat="37.09252" lon="-3.38522">
        <ele>2533.8</ele>
        <time>2021-08-05 11:20:55</time>
      </trkpt>
      <trkpt lat="37.09251" lon="-3.38521">
        <ele>2533.8</ele>
        <time>2021-08-05 11:20:56</time>
      </trkpt>
      <trkpt lat="37.09251" lon="-3.38521">
        <ele>2533.8</ele>
        <time>2021-08-05 11:20:57</time>
      </trkpt>
      <trkpt lat="37.0925" lon="-3.3852">
        <ele>2533.8</ele>
        <time>2021-08-05 11:20:58</time>
      </trkpt>
      <trkpt lat="37.0925" lon="-3.38519">
        <ele>2534</ele>
        <time>2021-08-05 11:20:59</time>
      </trkpt>
      <trkpt lat="37.09249" lon="-3.38519">
        <ele>2534.2</ele>
        <time>2021-08-05 11:21:00</time>
      </trkpt>
      <trkpt lat="37.09249" lon="-3.38519">
        <ele>2534.2</ele>
        <time>2021-08-05 11:21:01</time>
      </trkpt>
      <trkpt lat="37.09249" lon="-3.38518">
        <ele>2534.4</ele>
        <time>2021-08-05 11:21:02</time>
      </trkpt>
      <trkpt lat="37.09248" lon="-3.38518">
        <ele>2534.6</ele>
        <time>2021-08-05 11:21:03</time>
      </trkpt>
      <trkpt lat="37.09248" lon="-3.38518">
        <ele>2534.6</ele>
        <time>2021-08-05 11:21:04</time>
      </trkpt>
      <trkpt lat="37.09247" lon="-3.38518">
        <ele>2534.8</ele>
        <time>2021-08-05 11:21:05</time>
      </trkpt>
      <trkpt lat="37.09246" lon="-3.38517">
        <ele>2535</ele>
        <time>2021-08-05 11:21:06</time>
      </trkpt>
      <trkpt lat="37.09246" lon="-3.38517">
        <ele>2535.2</ele>
        <time>2021-08-05 11:21:07</time>
      </trkpt>
      <trkpt lat="37.09245" lon="-3.38516">
        <ele>2535.4</ele>
        <time>2021-08-05 11:21:08</time>
      </trkpt>
      <trkpt lat="37.09244" lon="-3.38516">
        <ele>2535.4</ele>
        <time>2021-08-05 11:21:09</time>
      </trkpt>
      <trkpt lat="37.09244" lon="-3.38516">
        <ele>2535.4</ele>
        <time>2021-08-05 11:21:10</time>
      </trkpt>
      <trkpt lat="37.09244" lon="-3.38516">
        <ele>2535.4</ele>
        <time>2021-08-05 11:21:11</time>
      </trkpt>
      <trkpt lat="37.09243" lon="-3.38516">
        <ele>2535.4</ele>
        <time>2021-08-05 11:21:12</time>
      </trkpt>
      <trkpt lat="37.09242" lon="-3.38515">
        <ele>2535.4</ele>
        <time>2021-08-05 11:21:13</time>
      </trkpt>
      <trkpt lat="37.09241" lon="-3.38515">
        <ele>2535.4</ele>
        <time>2021-08-05 11:21:14</time>
      </trkpt>
      <trkpt lat="37.09241" lon="-3.38514">
        <ele>2535.6</ele>
        <time>2021-08-05 11:21:15</time>
      </trkpt>
      <trkpt lat="37.09241" lon="-3.38513">
        <ele>2535.8</ele>
        <time>2021-08-05 11:21:16</time>
      </trkpt>
      <trkpt lat="37.09241" lon="-3.38513">
        <ele>2536</ele>
        <time>2021-08-05 11:21:17</time>
      </trkpt>
      <trkpt lat="37.0924" lon="-3.38512">
        <ele>2536.2</ele>
        <time>2021-08-05 11:21:18</time>
      </trkpt>
      <trkpt lat="37.0924" lon="-3.38512">
        <ele>2536.2</ele>
        <time>2021-08-05 11:21:19</time>
      </trkpt>
      <trkpt lat="37.09239" lon="-3.38511">
        <ele>2536.4</ele>
        <time>2021-08-05 11:21:20</time>
      </trkpt>
      <trkpt lat="37.09238" lon="-3.3851">
        <ele>2536.6</ele>
        <time>2021-08-05 11:21:21</time>
      </trkpt>
      <trkpt lat="37.09237" lon="-3.38509">
        <ele>2536.8</ele>
        <time>2021-08-05 11:21:22</time>
      </trkpt>
      <trkpt lat="37.09236" lon="-3.38509">
        <ele>2537</ele>
        <time>2021-08-05 11:21:23</time>
      </trkpt>
      <trkpt lat="37.09236" lon="-3.38508">
        <ele>2537.2</ele>
        <time>2021-08-05 11:21:24</time>
      </trkpt>
      <trkpt lat="37.09235" lon="-3.38507">
        <ele>2537.2</ele>
        <time>2021-08-05 11:21:25</time>
      </trkpt>
      <trkpt lat="37.09235" lon="-3.38506">
        <ele>2537.2</ele>
        <time>2021-08-05 11:21:26</time>
      </trkpt>
      <trkpt lat="37.09235" lon="-3.38506">
        <ele>2537.4</ele>
        <time>2021-08-05 11:21:27</time>
      </trkpt>
      <trkpt lat="37.09235" lon="-3.38506">
        <ele>2537.4</ele>
        <time>2021-08-05 11:21:28</time>
      </trkpt>
      <trkpt lat="37.09234" lon="-3.38506">
        <ele>2537.4</ele>
        <time>2021-08-05 11:21:29</time>
      </trkpt>
      <trkpt lat="37.09233" lon="-3.38508">
        <ele>2537.6</ele>
        <time>2021-08-05 11:21:30</time>
      </trkpt>
      <trkpt lat="37.09232" lon="-3.38508">
        <ele>2537.8</ele>
        <time>2021-08-05 11:21:31</time>
      </trkpt>
      <trkpt lat="37.09231" lon="-3.38509">
        <ele>2538.2</ele>
        <time>2021-08-05 11:21:32</time>
      </trkpt>
      <trkpt lat="37.09229" lon="-3.38509">
        <ele>2538.4</ele>
        <time>2021-08-05 11:21:33</time>
      </trkpt>
      <trkpt lat="37.09227" lon="-3.38511">
        <ele>2538.6</ele>
        <time>2021-08-05 11:21:34</time>
      </trkpt>
      <trkpt lat="37.09227" lon="-3.38512">
        <ele>2538.6</ele>
        <time>2021-08-05 11:21:35</time>
      </trkpt>
      <trkpt lat="37.09227" lon="-3.38511">
        <ele>2538.8</ele>
        <time>2021-08-05 11:21:36</time>
      </trkpt>
      <trkpt lat="37.09227" lon="-3.38511">
        <ele>2538.8</ele>
        <time>2021-08-05 11:21:37</time>
      </trkpt>
      <trkpt lat="37.09226" lon="-3.38511">
        <ele>2538.8</ele>
        <time>2021-08-05 11:21:38</time>
      </trkpt>
      <trkpt lat="37.09226" lon="-3.3851">
        <ele>2538.8</ele>
        <time>2021-08-05 11:21:39</time>
      </trkpt>
      <trkpt lat="37.09226" lon="-3.3851">
        <ele>2538.6</ele>
        <time>2021-08-05 11:21:40</time>
      </trkpt>
      <trkpt lat="37.09225" lon="-3.38509">
        <ele>2538.8</ele>
        <time>2021-08-05 11:21:41</time>
      </trkpt>
      <trkpt lat="37.09225" lon="-3.38508">
        <ele>2539</ele>
        <time>2021-08-05 11:21:42</time>
      </trkpt>
      <trkpt lat="37.09224" lon="-3.38508">
        <ele>2539</ele>
        <time>2021-08-05 11:21:43</time>
      </trkpt>
      <trkpt lat="37.09224" lon="-3.38507">
        <ele>2539</ele>
        <time>2021-08-05 11:21:44</time>
      </trkpt>
      <trkpt lat="37.09223" lon="-3.38507">
        <ele>2539</ele>
        <time>2021-08-05 11:21:45</time>
      </trkpt>
      <trkpt lat="37.09223" lon="-3.38507">
        <ele>2539.4</ele>
        <time>2021-08-05 11:21:46</time>
      </trkpt>
      <trkpt lat="37.09222" lon="-3.38506">
        <ele>2539.6</ele>
        <time>2021-08-05 11:21:47</time>
      </trkpt>
      <trkpt lat="37.09222" lon="-3.38506">
        <ele>2539.6</ele>
        <time>2021-08-05 11:21:48</time>
      </trkpt>
      <trkpt lat="37.09221" lon="-3.38505">
        <ele>2539.6</ele>
        <time>2021-08-05 11:21:49</time>
      </trkpt>
      <trkpt lat="37.09221" lon="-3.38505">
        <ele>2539.6</ele>
        <time>2021-08-05 11:21:50</time>
      </trkpt>
      <trkpt lat="37.0922" lon="-3.38505">
        <ele>2539.6</ele>
        <time>2021-08-05 11:21:51</time>
      </trkpt>
      <trkpt lat="37.0922" lon="-3.38504">
        <ele>2539.6</ele>
        <time>2021-08-05 11:21:52</time>
      </trkpt>
      <trkpt lat="37.0922" lon="-3.38504">
        <ele>2539.6</ele>
        <time>2021-08-05 11:21:53</time>
      </trkpt>
      <trkpt lat="37.09219" lon="-3.38504">
        <ele>2539.6</ele>
        <time>2021-08-05 11:21:54</time>
      </trkpt>
      <trkpt lat="37.09219" lon="-3.38503">
        <ele>2540</ele>
        <time>2021-08-05 11:21:55</time>
      </trkpt>
      <trkpt lat="37.09218" lon="-3.38503">
        <ele>2540.2</ele>
        <time>2021-08-05 11:21:56</time>
      </trkpt>
      <trkpt lat="37.09218" lon="-3.38503">
        <ele>2540.4</ele>
        <time>2021-08-05 11:21:57</time>
      </trkpt>
      <trkpt lat="37.09218" lon="-3.38503">
        <ele>2540.6</ele>
        <time>2021-08-05 11:21:58</time>
      </trkpt>
      <trkpt lat="37.09218" lon="-3.38503">
        <ele>2540.8</ele>
        <time>2021-08-05 11:21:59</time>
      </trkpt>
      <trkpt lat="37.09218" lon="-3.38503">
        <ele>2541</ele>
        <time>2021-08-05 11:22:00</time>
      </trkpt>
      <trkpt lat="37.09217" lon="-3.38502">
        <ele>2541</ele>
        <time>2021-08-05 11:22:01</time>
      </trkpt>
      <trkpt lat="37.09217" lon="-3.38501">
        <ele>2541.2</ele>
        <time>2021-08-05 11:22:02</time>
      </trkpt>
      <trkpt lat="37.09216" lon="-3.38501">
        <ele>2541.4</ele>
        <time>2021-08-05 11:22:03</time>
      </trkpt>
      <trkpt lat="37.09216" lon="-3.38501">
        <ele>2541.4</ele>
        <time>2021-08-05 11:22:04</time>
      </trkpt>
      <trkpt lat="37.09216" lon="-3.38501">
        <ele>2541.4</ele>
        <time>2021-08-05 11:22:05</time>
      </trkpt>
      <trkpt lat="37.09216" lon="-3.385">
        <ele>2541.6</ele>
        <time>2021-08-05 11:22:06</time>
      </trkpt>
      <trkpt lat="37.09215" lon="-3.38499">
        <ele>2541.6</ele>
        <time>2021-08-05 11:22:07</time>
      </trkpt>
      <trkpt lat="37.09214" lon="-3.38498">
        <ele>2541.6</ele>
        <time>2021-08-05 11:22:08</time>
      </trkpt>
      <trkpt lat="37.09214" lon="-3.38497">
        <ele>2541.6</ele>
        <time>2021-08-05 11:22:09</time>
      </trkpt>
      <trkpt lat="37.09213" lon="-3.38497">
        <ele>2542</ele>
        <time>2021-08-05 11:22:10</time>
      </trkpt>
      <trkpt lat="37.09213" lon="-3.38496">
        <ele>2542.2</ele>
        <time>2021-08-05 11:22:11</time>
      </trkpt>
      <trkpt lat="37.09212" lon="-3.38496">
        <ele>2542.6</ele>
        <time>2021-08-05 11:22:12</time>
      </trkpt>
      <trkpt lat="37.09212" lon="-3.38495">
        <ele>2542.8</ele>
        <time>2021-08-05 11:22:13</time>
      </trkpt>
      <trkpt lat="37.09211" lon="-3.38494">
        <ele>2543</ele>
        <time>2021-08-05 11:22:14</time>
      </trkpt>
      <trkpt lat="37.09211" lon="-3.38494">
        <ele>2543</ele>
        <time>2021-08-05 11:22:15</time>
      </trkpt>
      <trkpt lat="37.09211" lon="-3.38493">
        <ele>2543.2</ele>
        <time>2021-08-05 11:22:16</time>
      </trkpt>
      <trkpt lat="37.0921" lon="-3.38493">
        <ele>2543.4</ele>
        <time>2021-08-05 11:22:17</time>
      </trkpt>
      <trkpt lat="37.0921" lon="-3.38492">
        <ele>2543.4</ele>
        <time>2021-08-05 11:22:18</time>
      </trkpt>
      <trkpt lat="37.0921" lon="-3.38491">
        <ele>2543.6</ele>
        <time>2021-08-05 11:22:19</time>
      </trkpt>
      <trkpt lat="37.0921" lon="-3.3849">
        <ele>2544</ele>
        <time>2021-08-05 11:22:20</time>
      </trkpt>
      <trkpt lat="37.09211" lon="-3.38491">
        <ele>2544</ele>
        <time>2021-08-05 11:22:21</time>
      </trkpt>
      <trkpt lat="37.09214" lon="-3.38492">
        <ele>2542.8</ele>
        <time>2021-08-05 11:22:22</time>
      </trkpt>
      <trkpt lat="37.09215" lon="-3.38492">
        <ele>2541.6</ele>
        <time>2021-08-05 11:22:23</time>
      </trkpt>
      <trkpt lat="37.09214" lon="-3.38492">
        <ele>2541.6</ele>
        <time>2021-08-05 11:22:24</time>
      </trkpt>
      <trkpt lat="37.09215" lon="-3.38492">
        <ele>2541.6</ele>
        <time>2021-08-05 11:22:25</time>
      </trkpt>
      <trkpt lat="37.09214" lon="-3.38491">
        <ele>2541.8</ele>
        <time>2021-08-05 11:22:26</time>
      </trkpt>
      <trkpt lat="37.09213" lon="-3.3849">
        <ele>2542.8</ele>
        <time>2021-08-05 11:22:27</time>
      </trkpt>
      <trkpt lat="37.09212" lon="-3.3849">
        <ele>2542.8</ele>
        <time>2021-08-05 11:22:28</time>
      </trkpt>
      <trkpt lat="37.09212" lon="-3.3849">
        <ele>2542.8</ele>
        <time>2021-08-05 11:22:29</time>
      </trkpt>
      <trkpt lat="37.0921" lon="-3.3849">
        <ele>2543.4</ele>
        <time>2021-08-05 11:22:30</time>
      </trkpt>
      <trkpt lat="37.09209" lon="-3.38489">
        <ele>2543.4</ele>
        <time>2021-08-05 11:22:31</time>
      </trkpt>
      <trkpt lat="37.09208" lon="-3.38489">
        <ele>2543.4</ele>
        <time>2021-08-05 11:22:32</time>
      </trkpt>
      <trkpt lat="37.09206" lon="-3.38488">
        <ele>2543.4</ele>
        <time>2021-08-05 11:22:33</time>
      </trkpt>
      <trkpt lat="37.09204" lon="-3.38488">
        <ele>2543.4</ele>
        <time>2021-08-05 11:22:34</time>
      </trkpt>
      <trkpt lat="37.09203" lon="-3.38487">
        <ele>2543.2</ele>
        <time>2021-08-05 11:22:35</time>
      </trkpt>
      <trkpt lat="37.09202" lon="-3.38487">
        <ele>2542.8</ele>
        <time>2021-08-05 11:22:36</time>
      </trkpt>
      <trkpt lat="37.09201" lon="-3.38487">
        <ele>2542.6</ele>
        <time>2021-08-05 11:22:37</time>
      </trkpt>
      <trkpt lat="37.09201" lon="-3.38486">
        <ele>2542.4</ele>
        <time>2021-08-05 11:22:38</time>
      </trkpt>
      <trkpt lat="37.092" lon="-3.38486">
        <ele>2542.2</ele>
        <time>2021-08-05 11:22:39</time>
      </trkpt>
      <trkpt lat="37.092" lon="-3.38486">
        <ele>2542.4</ele>
        <time>2021-08-05 11:22:40</time>
      </trkpt>
      <trkpt lat="37.09199" lon="-3.38486">
        <ele>2542.4</ele>
        <time>2021-08-05 11:22:41</time>
      </trkpt>
      <trkpt lat="37.09199" lon="-3.38486">
        <ele>2542.4</ele>
        <time>2021-08-05 11:22:42</time>
      </trkpt>
      <trkpt lat="37.09199" lon="-3.38486">
        <ele>2542.2</ele>
        <time>2021-08-05 11:22:43</time>
      </trkpt>
      <trkpt lat="37.09199" lon="-3.38486">
        <ele>2542.2</ele>
        <time>2021-08-05 11:22:44</time>
      </trkpt>
      <trkpt lat="37.09199" lon="-3.38486">
        <ele>2542.4</ele>
        <time>2021-08-05 11:22:45</time>
      </trkpt>
      <trkpt lat="37.09199" lon="-3.38486">
        <ele>2542.2</ele>
        <time>2021-08-05 11:22:46</time>
      </trkpt>
      <trkpt lat="37.092" lon="-3.38486">
        <ele>2542.2</ele>
        <time>2021-08-05 11:22:47</time>
      </trkpt>
      <trkpt lat="37.092" lon="-3.38485">
        <ele>2542.2</ele>
        <time>2021-08-05 11:22:48</time>
      </trkpt>
      <trkpt lat="37.092" lon="-3.38485">
        <ele>2542.2</ele>
        <time>2021-08-05 11:22:49</time>
      </trkpt>
      <trkpt lat="37.09199" lon="-3.38485">
        <ele>2542.2</ele>
        <time>2021-08-05 11:22:50</time>
      </trkpt>
      <trkpt lat="37.09199" lon="-3.38485">
        <ele>2542.2</ele>
        <time>2021-08-05 11:22:51</time>
      </trkpt>
      <trkpt lat="37.09199" lon="-3.38485">
        <ele>2542.2</ele>
        <time>2021-08-05 11:22:52</time>
      </trkpt>
      <trkpt lat="37.09198" lon="-3.38485">
        <ele>2542.2</ele>
        <time>2021-08-05 11:22:53</time>
      </trkpt>
      <trkpt lat="37.09198" lon="-3.38484">
        <ele>2542.4</ele>
        <time>2021-08-05 11:22:54</time>
      </trkpt>
      <trkpt lat="37.09197" lon="-3.38484">
        <ele>2542.4</ele>
        <time>2021-08-05 11:22:55</time>
      </trkpt>
      <trkpt lat="37.09197" lon="-3.38484">
        <ele>2542.6</ele>
        <time>2021-08-05 11:22:56</time>
      </trkpt>
      <trkpt lat="37.09196" lon="-3.38483">
        <ele>2542.8</ele>
        <time>2021-08-05 11:22:57</time>
      </trkpt>
      <trkpt lat="37.09196" lon="-3.38483">
        <ele>2543</ele>
        <time>2021-08-05 11:22:58</time>
      </trkpt>
      <trkpt lat="37.09196" lon="-3.38483">
        <ele>2543</ele>
        <time>2021-08-05 11:22:59</time>
      </trkpt>
      <trkpt lat="37.09195" lon="-3.38483">
        <ele>2543</ele>
        <time>2021-08-05 11:23:00</time>
      </trkpt>
      <trkpt lat="37.09194" lon="-3.38482">
        <ele>2543.4</ele>
        <time>2021-08-05 11:23:01</time>
      </trkpt>
      <trkpt lat="37.09194" lon="-3.38482">
        <ele>2543.6</ele>
        <time>2021-08-05 11:23:02</time>
      </trkpt>
      <trkpt lat="37.09193" lon="-3.38482">
        <ele>2543.8</ele>
        <time>2021-08-05 11:23:03</time>
      </trkpt>
      <trkpt lat="37.09192" lon="-3.38481">
        <ele>2544</ele>
        <time>2021-08-05 11:23:04</time>
      </trkpt>
      <trkpt lat="37.09192" lon="-3.38481">
        <ele>2544</ele>
        <time>2021-08-05 11:23:05</time>
      </trkpt>
      <trkpt lat="37.09192" lon="-3.38481">
        <ele>2544</ele>
        <time>2021-08-05 11:23:06</time>
      </trkpt>
      <trkpt lat="37.09191" lon="-3.38481">
        <ele>2544</ele>
        <time>2021-08-05 11:23:07</time>
      </trkpt>
      <trkpt lat="37.0919" lon="-3.3848">
        <ele>2544</ele>
        <time>2021-08-05 11:23:08</time>
      </trkpt>
      <trkpt lat="37.09189" lon="-3.3848">
        <ele>2544</ele>
        <time>2021-08-05 11:23:09</time>
      </trkpt>
      <trkpt lat="37.09188" lon="-3.38479">
        <ele>2544</ele>
        <time>2021-08-05 11:23:10</time>
      </trkpt>
      <trkpt lat="37.09188" lon="-3.38479">
        <ele>2544</ele>
        <time>2021-08-05 11:23:11</time>
      </trkpt>
      <trkpt lat="37.09187" lon="-3.38478">
        <ele>2544.2</ele>
        <time>2021-08-05 11:23:12</time>
      </trkpt>
      <trkpt lat="37.09186" lon="-3.38478">
        <ele>2544.4</ele>
        <time>2021-08-05 11:23:13</time>
      </trkpt>
      <trkpt lat="37.09186" lon="-3.38477">
        <ele>2544.6</ele>
        <time>2021-08-05 11:23:14</time>
      </trkpt>
      <trkpt lat="37.09185" lon="-3.38476">
        <ele>2545.2</ele>
        <time>2021-08-05 11:23:15</time>
      </trkpt>
      <trkpt lat="37.09185" lon="-3.38475">
        <ele>2545.4</ele>
        <time>2021-08-05 11:23:16</time>
      </trkpt>
      <trkpt lat="37.09184" lon="-3.38475">
        <ele>2545.8</ele>
        <time>2021-08-05 11:23:17</time>
      </trkpt>
      <trkpt lat="37.09183" lon="-3.38475">
        <ele>2545.8</ele>
        <time>2021-08-05 11:23:18</time>
      </trkpt>
      <trkpt lat="37.09183" lon="-3.38474">
        <ele>2546</ele>
        <time>2021-08-05 11:23:19</time>
      </trkpt>
      <trkpt lat="37.09182" lon="-3.38474">
        <ele>2546</ele>
        <time>2021-08-05 11:23:20</time>
      </trkpt>
      <trkpt lat="37.09182" lon="-3.38474">
        <ele>2546</ele>
        <time>2021-08-05 11:23:21</time>
      </trkpt>
      <trkpt lat="37.09181" lon="-3.38474">
        <ele>2546</ele>
        <time>2021-08-05 11:23:22</time>
      </trkpt>
      <trkpt lat="37.09181" lon="-3.38474">
        <ele>2546</ele>
        <time>2021-08-05 11:23:23</time>
      </trkpt>
      <trkpt lat="37.0918" lon="-3.38473">
        <ele>2546</ele>
        <time>2021-08-05 11:23:24</time>
      </trkpt>
      <trkpt lat="37.09181" lon="-3.38472">
        <ele>2546.4</ele>
        <time>2021-08-05 11:23:25</time>
      </trkpt>
      <trkpt lat="37.09181" lon="-3.38472">
        <ele>2546.8</ele>
        <time>2021-08-05 11:23:26</time>
      </trkpt>
      <trkpt lat="37.09181" lon="-3.38472">
        <ele>2547</ele>
        <time>2021-08-05 11:23:27</time>
      </trkpt>
      <trkpt lat="37.09181" lon="-3.38472">
        <ele>2547.2</ele>
        <time>2021-08-05 11:23:28</time>
      </trkpt>
      <trkpt lat="37.09181" lon="-3.38471">
        <ele>2547.2</ele>
        <time>2021-08-05 11:23:29</time>
      </trkpt>
      <trkpt lat="37.0918" lon="-3.38471">
        <ele>2547.4</ele>
        <time>2021-08-05 11:23:30</time>
      </trkpt>
      <trkpt lat="37.0918" lon="-3.38471">
        <ele>2547.6</ele>
        <time>2021-08-05 11:23:31</time>
      </trkpt>
      <trkpt lat="37.0918" lon="-3.38471">
        <ele>2547.6</ele>
        <time>2021-08-05 11:23:32</time>
      </trkpt>
      <trkpt lat="37.0918" lon="-3.38471">
        <ele>2547.6</ele>
        <time>2021-08-05 11:23:33</time>
      </trkpt>
      <trkpt lat="37.0918" lon="-3.38472">
        <ele>2547.6</ele>
        <time>2021-08-05 11:23:34</time>
      </trkpt>
      <trkpt lat="37.09179" lon="-3.38472">
        <ele>2547.8</ele>
        <time>2021-08-05 11:23:35</time>
      </trkpt>
      <trkpt lat="37.09178" lon="-3.38471">
        <ele>2547.8</ele>
        <time>2021-08-05 11:23:36</time>
      </trkpt>
      <trkpt lat="37.09178" lon="-3.38471">
        <ele>2547.8</ele>
        <time>2021-08-05 11:23:37</time>
      </trkpt>
      <trkpt lat="37.09177" lon="-3.3847">
        <ele>2548.2</ele>
        <time>2021-08-05 11:23:38</time>
      </trkpt>
      <trkpt lat="37.09176" lon="-3.3847">
        <ele>2548.2</ele>
        <time>2021-08-05 11:23:39</time>
      </trkpt>
      <trkpt lat="37.09176" lon="-3.3847">
        <ele>2548.4</ele>
        <time>2021-08-05 11:23:40</time>
      </trkpt>
      <trkpt lat="37.09176" lon="-3.38469">
        <ele>2548.4</ele>
        <time>2021-08-05 11:23:41</time>
      </trkpt>
      <trkpt lat="37.09175" lon="-3.38469">
        <ele>2548.2</ele>
        <time>2021-08-05 11:23:42</time>
      </trkpt>
      <trkpt lat="37.09174" lon="-3.38469">
        <ele>2548.2</ele>
        <time>2021-08-05 11:23:43</time>
      </trkpt>
      <trkpt lat="37.09174" lon="-3.38469">
        <ele>2548.2</ele>
        <time>2021-08-05 11:23:44</time>
      </trkpt>
      <trkpt lat="37.09173" lon="-3.38469">
        <ele>2548.2</ele>
        <time>2021-08-05 11:23:45</time>
      </trkpt>
      <trkpt lat="37.09173" lon="-3.38469">
        <ele>2548.2</ele>
        <time>2021-08-05 11:23:46</time>
      </trkpt>
      <trkpt lat="37.09172" lon="-3.38469">
        <ele>2548.4</ele>
        <time>2021-08-05 11:23:47</time>
      </trkpt>
      <trkpt lat="37.09172" lon="-3.38468">
        <ele>2548.6</ele>
        <time>2021-08-05 11:23:48</time>
      </trkpt>
      <trkpt lat="37.09172" lon="-3.38468">
        <ele>2548.6</ele>
        <time>2021-08-05 11:23:49</time>
      </trkpt>
      <trkpt lat="37.09171" lon="-3.38466">
        <ele>2548.6</ele>
        <time>2021-08-05 11:23:50</time>
      </trkpt>
      <trkpt lat="37.09171" lon="-3.38466">
        <ele>2548.6</ele>
        <time>2021-08-05 11:23:51</time>
      </trkpt>
      <trkpt lat="37.0917" lon="-3.38465">
        <ele>2548.6</ele>
        <time>2021-08-05 11:23:52</time>
      </trkpt>
      <trkpt lat="37.0917" lon="-3.38465">
        <ele>2548.6</ele>
        <time>2021-08-05 11:23:53</time>
      </trkpt>
      <trkpt lat="37.09169" lon="-3.38464">
        <ele>2548.6</ele>
        <time>2021-08-05 11:23:54</time>
      </trkpt>
      <trkpt lat="37.09169" lon="-3.38463">
        <ele>2548.8</ele>
        <time>2021-08-05 11:23:55</time>
      </trkpt>
      <trkpt lat="37.09169" lon="-3.38463">
        <ele>2549.2</ele>
        <time>2021-08-05 11:23:56</time>
      </trkpt>
      <trkpt lat="37.09168" lon="-3.38463">
        <ele>2549.2</ele>
        <time>2021-08-05 11:23:57</time>
      </trkpt>
      <trkpt lat="37.09168" lon="-3.38463">
        <ele>2549.4</ele>
        <time>2021-08-05 11:23:58</time>
      </trkpt>
      <trkpt lat="37.09167" lon="-3.38463">
        <ele>2549.6</ele>
        <time>2021-08-05 11:23:59</time>
      </trkpt>
      <trkpt lat="37.09166" lon="-3.38463">
        <ele>2549.6</ele>
        <time>2021-08-05 11:24:00</time>
      </trkpt>
      <trkpt lat="37.09166" lon="-3.38462">
        <ele>2549.6</ele>
        <time>2021-08-05 11:24:01</time>
      </trkpt>
      <trkpt lat="37.09165" lon="-3.38462">
        <ele>2549.6</ele>
        <time>2021-08-05 11:24:02</time>
      </trkpt>
      <trkpt lat="37.09165" lon="-3.38462">
        <ele>2549.6</ele>
        <time>2021-08-05 11:24:03</time>
      </trkpt>
      <trkpt lat="37.09164" lon="-3.38462">
        <ele>2549.6</ele>
        <time>2021-08-05 11:24:04</time>
      </trkpt>
      <trkpt lat="37.09164" lon="-3.38461">
        <ele>2549.8</ele>
        <time>2021-08-05 11:24:05</time>
      </trkpt>
      <trkpt lat="37.09164" lon="-3.38461">
        <ele>2549.8</ele>
        <time>2021-08-05 11:24:06</time>
      </trkpt>
      <trkpt lat="37.09164" lon="-3.38461">
        <ele>2549.8</ele>
        <time>2021-08-05 11:24:07</time>
      </trkpt>
      <trkpt lat="37.09163" lon="-3.3846">
        <ele>2550</ele>
        <time>2021-08-05 11:24:08</time>
      </trkpt>
      <trkpt lat="37.09163" lon="-3.3846">
        <ele>2550.4</ele>
        <time>2021-08-05 11:24:09</time>
      </trkpt>
      <trkpt lat="37.09162" lon="-3.38459">
        <ele>2550.4</ele>
        <time>2021-08-05 11:24:10</time>
      </trkpt>
      <trkpt lat="37.09161" lon="-3.38459">
        <ele>2550.6</ele>
        <time>2021-08-05 11:24:11</time>
      </trkpt>
      <trkpt lat="37.09161" lon="-3.38459">
        <ele>2550.8</ele>
        <time>2021-08-05 11:24:12</time>
      </trkpt>
      <trkpt lat="37.0916" lon="-3.38458">
        <ele>2551</ele>
        <time>2021-08-05 11:24:13</time>
      </trkpt>
      <trkpt lat="37.0916" lon="-3.38459">
        <ele>2551</ele>
        <time>2021-08-05 11:24:14</time>
      </trkpt>
      <trkpt lat="37.09159" lon="-3.38459">
        <ele>2551.2</ele>
        <time>2021-08-05 11:24:15</time>
      </trkpt>
      <trkpt lat="37.09158" lon="-3.38459">
        <ele>2551.4</ele>
        <time>2021-08-05 11:24:16</time>
      </trkpt>
      <trkpt lat="37.09157" lon="-3.38459">
        <ele>2551.4</ele>
        <time>2021-08-05 11:24:17</time>
      </trkpt>
      <trkpt lat="37.09157" lon="-3.3846">
        <ele>2551.4</ele>
        <time>2021-08-05 11:24:18</time>
      </trkpt>
      <trkpt lat="37.09156" lon="-3.3846">
        <ele>2551.4</ele>
        <time>2021-08-05 11:24:19</time>
      </trkpt>
      <trkpt lat="37.09156" lon="-3.3846">
        <ele>2551.6</ele>
        <time>2021-08-05 11:24:20</time>
      </trkpt>
      <trkpt lat="37.09155" lon="-3.38459">
        <ele>2551.6</ele>
        <time>2021-08-05 11:24:21</time>
      </trkpt>
      <trkpt lat="37.09155" lon="-3.38459">
        <ele>2551.6</ele>
        <time>2021-08-05 11:24:22</time>
      </trkpt>
      <trkpt lat="37.09154" lon="-3.38459">
        <ele>2551.8</ele>
        <time>2021-08-05 11:24:23</time>
      </trkpt>
      <trkpt lat="37.09153" lon="-3.38458">
        <ele>2551.8</ele>
        <time>2021-08-05 11:24:24</time>
      </trkpt>
      <trkpt lat="37.09152" lon="-3.38458">
        <ele>2551.8</ele>
        <time>2021-08-05 11:24:25</time>
      </trkpt>
      <trkpt lat="37.09151" lon="-3.38458">
        <ele>2551.8</ele>
        <time>2021-08-05 11:24:26</time>
      </trkpt>
      <trkpt lat="37.0915" lon="-3.38457">
        <ele>2552</ele>
        <time>2021-08-05 11:24:27</time>
      </trkpt>
      <trkpt lat="37.0915" lon="-3.38457">
        <ele>2552</ele>
        <time>2021-08-05 11:24:28</time>
      </trkpt>
      <trkpt lat="37.0915" lon="-3.38456">
        <ele>2552.2</ele>
        <time>2021-08-05 11:24:29</time>
      </trkpt>
      <trkpt lat="37.09149" lon="-3.38456">
        <ele>2552.4</ele>
        <time>2021-08-05 11:24:30</time>
      </trkpt>
      <trkpt lat="37.09148" lon="-3.38456">
        <ele>2552.4</ele>
        <time>2021-08-05 11:24:31</time>
      </trkpt>
      <trkpt lat="37.09148" lon="-3.38455">
        <ele>2552.6</ele>
        <time>2021-08-05 11:24:32</time>
      </trkpt>
      <trkpt lat="37.09147" lon="-3.38455">
        <ele>2552.8</ele>
        <time>2021-08-05 11:24:33</time>
      </trkpt>
      <trkpt lat="37.09147" lon="-3.38455">
        <ele>2553.2</ele>
        <time>2021-08-05 11:24:34</time>
      </trkpt>
      <trkpt lat="37.09146" lon="-3.38455">
        <ele>2553.2</ele>
        <time>2021-08-05 11:24:35</time>
      </trkpt>
      <trkpt lat="37.09146" lon="-3.38455">
        <ele>2553.4</ele>
        <time>2021-08-05 11:24:36</time>
      </trkpt>
      <trkpt lat="37.09145" lon="-3.38455">
        <ele>2553.4</ele>
        <time>2021-08-05 11:24:37</time>
      </trkpt>
      <trkpt lat="37.09145" lon="-3.38455">
        <ele>2553.6</ele>
        <time>2021-08-05 11:24:38</time>
      </trkpt>
      <trkpt lat="37.09144" lon="-3.38454">
        <ele>2553.8</ele>
        <time>2021-08-05 11:24:39</time>
      </trkpt>
      <trkpt lat="37.09144" lon="-3.38455">
        <ele>2553.8</ele>
        <time>2021-08-05 11:24:40</time>
      </trkpt>
      <trkpt lat="37.09143" lon="-3.38454">
        <ele>2554</ele>
        <time>2021-08-05 11:24:41</time>
      </trkpt>
      <trkpt lat="37.09142" lon="-3.38454">
        <ele>2554</ele>
        <time>2021-08-05 11:24:42</time>
      </trkpt>
      <trkpt lat="37.09142" lon="-3.38454">
        <ele>2554.2</ele>
        <time>2021-08-05 11:24:43</time>
      </trkpt>
      <trkpt lat="37.09142" lon="-3.38454">
        <ele>2554.2</ele>
        <time>2021-08-05 11:24:44</time>
      </trkpt>
      <trkpt lat="37.09141" lon="-3.38453">
        <ele>2554.4</ele>
        <time>2021-08-05 11:24:45</time>
      </trkpt>
      <trkpt lat="37.09141" lon="-3.38453">
        <ele>2554.4</ele>
        <time>2021-08-05 11:24:46</time>
      </trkpt>
      <trkpt lat="37.09141" lon="-3.38454">
        <ele>2554.4</ele>
        <time>2021-08-05 11:24:47</time>
      </trkpt>
      <trkpt lat="37.0914" lon="-3.38453">
        <ele>2554.4</ele>
        <time>2021-08-05 11:24:48</time>
      </trkpt>
      <trkpt lat="37.0914" lon="-3.38453">
        <ele>2554.6</ele>
        <time>2021-08-05 11:24:49</time>
      </trkpt>
      <trkpt lat="37.09139" lon="-3.38453">
        <ele>2554.6</ele>
        <time>2021-08-05 11:24:50</time>
      </trkpt>
      <trkpt lat="37.09139" lon="-3.38453">
        <ele>2554.6</ele>
        <time>2021-08-05 11:24:51</time>
      </trkpt>
      <trkpt lat="37.09138" lon="-3.38453">
        <ele>2554.6</ele>
        <time>2021-08-05 11:24:52</time>
      </trkpt>
      <trkpt lat="37.09138" lon="-3.38453">
        <ele>2554.8</ele>
        <time>2021-08-05 11:24:53</time>
      </trkpt>
      <trkpt lat="37.09137" lon="-3.38453">
        <ele>2555.2</ele>
        <time>2021-08-05 11:24:54</time>
      </trkpt>
      <trkpt lat="37.09137" lon="-3.38452">
        <ele>2555.6</ele>
        <time>2021-08-05 11:24:55</time>
      </trkpt>
      <trkpt lat="37.09137" lon="-3.38452">
        <ele>2555.8</ele>
        <time>2021-08-05 11:24:56</time>
      </trkpt>
      <trkpt lat="37.09136" lon="-3.38452">
        <ele>2555.8</ele>
        <time>2021-08-05 11:24:57</time>
      </trkpt>
      <trkpt lat="37.09136" lon="-3.38452">
        <ele>2556</ele>
        <time>2021-08-05 11:24:58</time>
      </trkpt>
      <trkpt lat="37.09135" lon="-3.38451">
        <ele>2556.6</ele>
        <time>2021-08-05 11:24:59</time>
      </trkpt>
      <trkpt lat="37.09135" lon="-3.38451">
        <ele>2556.8</ele>
        <time>2021-08-05 11:25:00</time>
      </trkpt>
      <trkpt lat="37.09134" lon="-3.38451">
        <ele>2557</ele>
        <time>2021-08-05 11:25:01</time>
      </trkpt>
      <trkpt lat="37.09134" lon="-3.38452">
        <ele>2557.2</ele>
        <time>2021-08-05 11:25:02</time>
      </trkpt>
      <trkpt lat="37.09133" lon="-3.38451">
        <ele>2557.4</ele>
        <time>2021-08-05 11:25:03</time>
      </trkpt>
      <trkpt lat="37.09132" lon="-3.38451">
        <ele>2557.6</ele>
        <time>2021-08-05 11:25:04</time>
      </trkpt>
      <trkpt lat="37.09132" lon="-3.38451">
        <ele>2557.8</ele>
        <time>2021-08-05 11:25:05</time>
      </trkpt>
      <trkpt lat="37.09132" lon="-3.38451">
        <ele>2557.8</ele>
        <time>2021-08-05 11:25:06</time>
      </trkpt>
      <trkpt lat="37.09131" lon="-3.38451">
        <ele>2557.8</ele>
        <time>2021-08-05 11:25:07</time>
      </trkpt>
      <trkpt lat="37.0913" lon="-3.38451">
        <ele>2557.8</ele>
        <time>2021-08-05 11:25:08</time>
      </trkpt>
      <trkpt lat="37.0913" lon="-3.38453">
        <ele>2557.8</ele>
        <time>2021-08-05 11:25:09</time>
      </trkpt>
      <trkpt lat="37.09129" lon="-3.38453">
        <ele>2557.8</ele>
        <time>2021-08-05 11:25:10</time>
      </trkpt>
      <trkpt lat="37.09129" lon="-3.38453">
        <ele>2557.8</ele>
        <time>2021-08-05 11:25:11</time>
      </trkpt>
      <trkpt lat="37.09129" lon="-3.38454">
        <ele>2557.8</ele>
        <time>2021-08-05 11:25:12</time>
      </trkpt>
      <trkpt lat="37.09128" lon="-3.38455">
        <ele>2557.8</ele>
        <time>2021-08-05 11:25:13</time>
      </trkpt>
      <trkpt lat="37.09128" lon="-3.38455">
        <ele>2557.8</ele>
        <time>2021-08-05 11:25:14</time>
      </trkpt>
      <trkpt lat="37.09127" lon="-3.38455">
        <ele>2557.8</ele>
        <time>2021-08-05 11:25:15</time>
      </trkpt>
      <trkpt lat="37.09127" lon="-3.38456">
        <ele>2557.8</ele>
        <time>2021-08-05 11:25:16</time>
      </trkpt>
      <trkpt lat="37.09126" lon="-3.38456">
        <ele>2557.8</ele>
        <time>2021-08-05 11:25:17</time>
      </trkpt>
      <trkpt lat="37.09126" lon="-3.38455">
        <ele>2558</ele>
        <time>2021-08-05 11:25:18</time>
      </trkpt>
      <trkpt lat="37.09125" lon="-3.38454">
        <ele>2558</ele>
        <time>2021-08-05 11:25:19</time>
      </trkpt>
      <trkpt lat="37.09124" lon="-3.38454">
        <ele>2558</ele>
        <time>2021-08-05 11:25:20</time>
      </trkpt>
      <trkpt lat="37.09124" lon="-3.38454">
        <ele>2558</ele>
        <time>2021-08-05 11:25:21</time>
      </trkpt>
      <trkpt lat="37.09124" lon="-3.38454">
        <ele>2558.2</ele>
        <time>2021-08-05 11:25:22</time>
      </trkpt>
      <trkpt lat="37.09123" lon="-3.38452">
        <ele>2558.2</ele>
        <time>2021-08-05 11:25:23</time>
      </trkpt>
      <trkpt lat="37.09123" lon="-3.38452">
        <ele>2558.2</ele>
        <time>2021-08-05 11:25:24</time>
      </trkpt>
      <trkpt lat="37.09122" lon="-3.38451">
        <ele>2558.2</ele>
        <time>2021-08-05 11:25:25</time>
      </trkpt>
      <trkpt lat="37.09122" lon="-3.38451">
        <ele>2558.2</ele>
        <time>2021-08-05 11:25:26</time>
      </trkpt>
      <trkpt lat="37.09121" lon="-3.3845">
        <ele>2558.2</ele>
        <time>2021-08-05 11:25:27</time>
      </trkpt>
      <trkpt lat="37.0912" lon="-3.38449">
        <ele>2558.2</ele>
        <time>2021-08-05 11:25:28</time>
      </trkpt>
      <trkpt lat="37.09119" lon="-3.38449">
        <ele>2558.4</ele>
        <time>2021-08-05 11:25:29</time>
      </trkpt>
      <trkpt lat="37.09119" lon="-3.38449">
        <ele>2558.4</ele>
        <time>2021-08-05 11:25:30</time>
      </trkpt>
      <trkpt lat="37.09118" lon="-3.38448">
        <ele>2558.8</ele>
        <time>2021-08-05 11:25:31</time>
      </trkpt>
      <trkpt lat="37.09117" lon="-3.38448">
        <ele>2559</ele>
        <time>2021-08-05 11:25:32</time>
      </trkpt>
      <trkpt lat="37.09117" lon="-3.38447">
        <ele>2559.2</ele>
        <time>2021-08-05 11:25:33</time>
      </trkpt>
      <trkpt lat="37.09116" lon="-3.38447">
        <ele>2559.4</ele>
        <time>2021-08-05 11:25:34</time>
      </trkpt>
      <trkpt lat="37.09116" lon="-3.38446">
        <ele>2559.4</ele>
        <time>2021-08-05 11:25:35</time>
      </trkpt>
      <trkpt lat="37.09115" lon="-3.38446">
        <ele>2559.4</ele>
        <time>2021-08-05 11:25:36</time>
      </trkpt>
      <trkpt lat="37.09114" lon="-3.38446">
        <ele>2559.4</ele>
        <time>2021-08-05 11:25:37</time>
      </trkpt>
      <trkpt lat="37.09114" lon="-3.38445">
        <ele>2559.4</ele>
        <time>2021-08-05 11:25:38</time>
      </trkpt>
      <trkpt lat="37.09113" lon="-3.38445">
        <ele>2559.4</ele>
        <time>2021-08-05 11:25:39</time>
      </trkpt>
      <trkpt lat="37.09112" lon="-3.38444">
        <ele>2559.4</ele>
        <time>2021-08-05 11:25:40</time>
      </trkpt>
      <trkpt lat="37.09112" lon="-3.38443">
        <ele>2559.6</ele>
        <time>2021-08-05 11:25:41</time>
      </trkpt>
      <trkpt lat="37.09111" lon="-3.38443">
        <ele>2559.8</ele>
        <time>2021-08-05 11:25:42</time>
      </trkpt>
      <trkpt lat="37.0911" lon="-3.38442">
        <ele>2560</ele>
        <time>2021-08-05 11:25:43</time>
      </trkpt>
      <trkpt lat="37.09109" lon="-3.38442">
        <ele>2560</ele>
        <time>2021-08-05 11:25:44</time>
      </trkpt>
      <trkpt lat="37.09109" lon="-3.38442">
        <ele>2560.2</ele>
        <time>2021-08-05 11:25:45</time>
      </trkpt>
      <trkpt lat="37.09108" lon="-3.38442">
        <ele>2560.4</ele>
        <time>2021-08-05 11:25:46</time>
      </trkpt>
      <trkpt lat="37.09108" lon="-3.38442">
        <ele>2560.6</ele>
        <time>2021-08-05 11:25:47</time>
      </trkpt>
      <trkpt lat="37.09107" lon="-3.38441">
        <ele>2560.6</ele>
        <time>2021-08-05 11:25:48</time>
      </trkpt>
      <trkpt lat="37.09106" lon="-3.3844">
        <ele>2560.8</ele>
        <time>2021-08-05 11:25:49</time>
      </trkpt>
      <trkpt lat="37.09105" lon="-3.3844">
        <ele>2560.8</ele>
        <time>2021-08-05 11:25:50</time>
      </trkpt>
      <trkpt lat="37.09105" lon="-3.3844">
        <ele>2561</ele>
        <time>2021-08-05 11:25:51</time>
      </trkpt>
      <trkpt lat="37.09104" lon="-3.3844">
        <ele>2561.2</ele>
        <time>2021-08-05 11:25:52</time>
      </trkpt>
      <trkpt lat="37.09103" lon="-3.38439">
        <ele>2561.4</ele>
        <time>2021-08-05 11:25:53</time>
      </trkpt>
      <trkpt lat="37.09102" lon="-3.38439">
        <ele>2561.6</ele>
        <time>2021-08-05 11:25:54</time>
      </trkpt>
      <trkpt lat="37.09101" lon="-3.38439">
        <ele>2561.6</ele>
        <time>2021-08-05 11:25:55</time>
      </trkpt>
      <trkpt lat="37.091" lon="-3.3844">
        <ele>2561.6</ele>
        <time>2021-08-05 11:25:56</time>
      </trkpt>
      <trkpt lat="37.091" lon="-3.38439">
        <ele>2561.6</ele>
        <time>2021-08-05 11:25:57</time>
      </trkpt>
      <trkpt lat="37.09099" lon="-3.38439">
        <ele>2561.6</ele>
        <time>2021-08-05 11:25:58</time>
      </trkpt>
      <trkpt lat="37.09098" lon="-3.38438">
        <ele>2561.6</ele>
        <time>2021-08-05 11:25:59</time>
      </trkpt>
      <trkpt lat="37.09098" lon="-3.38439">
        <ele>2561.6</ele>
        <time>2021-08-05 11:26:00</time>
      </trkpt>
      <trkpt lat="37.09098" lon="-3.38438">
        <ele>2561.8</ele>
        <time>2021-08-05 11:26:01</time>
      </trkpt>
      <trkpt lat="37.09097" lon="-3.38438">
        <ele>2561.8</ele>
        <time>2021-08-05 11:26:02</time>
      </trkpt>
      <trkpt lat="37.09097" lon="-3.38437">
        <ele>2562</ele>
        <time>2021-08-05 11:26:03</time>
      </trkpt>
      <trkpt lat="37.09097" lon="-3.38437">
        <ele>2562</ele>
        <time>2021-08-05 11:26:04</time>
      </trkpt>
      <trkpt lat="37.09096" lon="-3.38437">
        <ele>2562</ele>
        <time>2021-08-05 11:26:05</time>
      </trkpt>
      <trkpt lat="37.09096" lon="-3.38436">
        <ele>2562</ele>
        <time>2021-08-05 11:26:06</time>
      </trkpt>
      <trkpt lat="37.09096" lon="-3.38436">
        <ele>2562</ele>
        <time>2021-08-05 11:26:07</time>
      </trkpt>
      <trkpt lat="37.09095" lon="-3.38436">
        <ele>2562</ele>
        <time>2021-08-05 11:26:08</time>
      </trkpt>
      <trkpt lat="37.09095" lon="-3.38435">
        <ele>2562.2</ele>
        <time>2021-08-05 11:26:09</time>
      </trkpt>
      <trkpt lat="37.09094" lon="-3.38436">
        <ele>2562.2</ele>
        <time>2021-08-05 11:26:10</time>
      </trkpt>
      <trkpt lat="37.09094" lon="-3.38436">
        <ele>2562.4</ele>
        <time>2021-08-05 11:26:11</time>
      </trkpt>
      <trkpt lat="37.09093" lon="-3.38435">
        <ele>2562.6</ele>
        <time>2021-08-05 11:26:12</time>
      </trkpt>
      <trkpt lat="37.09093" lon="-3.38435">
        <ele>2562.6</ele>
        <time>2021-08-05 11:26:13</time>
      </trkpt>
      <trkpt lat="37.09092" lon="-3.38434">
        <ele>2562.8</ele>
        <time>2021-08-05 11:26:14</time>
      </trkpt>
      <trkpt lat="37.09092" lon="-3.38433">
        <ele>2562.6</ele>
        <time>2021-08-05 11:26:15</time>
      </trkpt>
      <trkpt lat="37.09092" lon="-3.38433">
        <ele>2562.6</ele>
        <time>2021-08-05 11:26:16</time>
      </trkpt>
      <trkpt lat="37.09092" lon="-3.38433">
        <ele>2562.6</ele>
        <time>2021-08-05 11:26:17</time>
      </trkpt>
      <trkpt lat="37.09092" lon="-3.38433">
        <ele>2562.6</ele>
        <time>2021-08-05 11:26:18</time>
      </trkpt>
      <trkpt lat="37.09092" lon="-3.38433">
        <ele>2562.6</ele>
        <time>2021-08-05 11:26:19</time>
      </trkpt>
      <trkpt lat="37.09092" lon="-3.38432">
        <ele>2562.6</ele>
        <time>2021-08-05 11:26:20</time>
      </trkpt>
      <trkpt lat="37.09092" lon="-3.38432">
        <ele>2562.6</ele>
        <time>2021-08-05 11:26:21</time>
      </trkpt>
      <trkpt lat="37.09092" lon="-3.38432">
        <ele>2562.6</ele>
        <time>2021-08-05 11:26:22</time>
      </trkpt>
      <trkpt lat="37.09092" lon="-3.38432">
        <ele>2562.4</ele>
        <time>2021-08-05 11:26:23</time>
      </trkpt>
      <trkpt lat="37.09092" lon="-3.38432">
        <ele>2562.4</ele>
        <time>2021-08-05 11:26:24</time>
      </trkpt>
      <trkpt lat="37.09091" lon="-3.38432">
        <ele>2562.2</ele>
        <time>2021-08-05 11:26:25</time>
      </trkpt>
      <trkpt lat="37.09091" lon="-3.38432">
        <ele>2562</ele>
        <time>2021-08-05 11:26:26</time>
      </trkpt>
      <trkpt lat="37.09091" lon="-3.38431">
        <ele>2561.8</ele>
        <time>2021-08-05 11:26:27</time>
      </trkpt>
      <trkpt lat="37.0909" lon="-3.38431">
        <ele>2561.8</ele>
        <time>2021-08-05 11:26:28</time>
      </trkpt>
      <trkpt lat="37.0909" lon="-3.38431">
        <ele>2561.8</ele>
        <time>2021-08-05 11:26:29</time>
      </trkpt>
      <trkpt lat="37.0909" lon="-3.38431">
        <ele>2561.8</ele>
        <time>2021-08-05 11:26:30</time>
      </trkpt>
      <trkpt lat="37.0909" lon="-3.38431">
        <ele>2562</ele>
        <time>2021-08-05 11:26:31</time>
      </trkpt>
      <trkpt lat="37.0909" lon="-3.38431">
        <ele>2562.4</ele>
        <time>2021-08-05 11:26:32</time>
      </trkpt>
      <trkpt lat="37.0909" lon="-3.38432">
        <ele>2562.4</ele>
        <time>2021-08-05 11:26:33</time>
      </trkpt>
      <trkpt lat="37.0909" lon="-3.38432">
        <ele>2562.4</ele>
        <time>2021-08-05 11:26:34</time>
      </trkpt>
      <trkpt lat="37.0909" lon="-3.38431">
        <ele>2562.4</ele>
        <time>2021-08-05 11:26:35</time>
      </trkpt>
      <trkpt lat="37.09091" lon="-3.38431">
        <ele>2562.4</ele>
        <time>2021-08-05 11:26:36</time>
      </trkpt>
      <trkpt lat="37.09091" lon="-3.38431">
        <ele>2562.4</ele>
        <time>2021-08-05 11:26:37</time>
      </trkpt>
      <trkpt lat="37.09092" lon="-3.38432">
        <ele>2562.4</ele>
        <time>2021-08-05 11:26:38</time>
      </trkpt>
      <trkpt lat="37.09092" lon="-3.38432">
        <ele>2562.4</ele>
        <time>2021-08-05 11:26:39</time>
      </trkpt>
      <trkpt lat="37.09092" lon="-3.38432">
        <ele>2562.4</ele>
        <time>2021-08-05 11:26:40</time>
      </trkpt>
      <trkpt lat="37.09092" lon="-3.38432">
        <ele>2562.4</ele>
        <time>2021-08-05 11:26:41</time>
      </trkpt>
      <trkpt lat="37.09092" lon="-3.38432">
        <ele>2562.4</ele>
        <time>2021-08-05 11:26:42</time>
      </trkpt>
      <trkpt lat="37.09092" lon="-3.38432">
        <ele>2562.4</ele>
        <time>2021-08-05 11:26:43</time>
      </trkpt>
      <trkpt lat="37.09092" lon="-3.38432">
        <ele>2562.4</ele>
        <time>2021-08-05 11:26:44</time>
      </trkpt>
      <trkpt lat="37.09092" lon="-3.38432">
        <ele>2562.4</ele>
        <time>2021-08-05 11:26:45</time>
      </trkpt>
      <trkpt lat="37.09092" lon="-3.38432">
        <ele>2562.4</ele>
        <time>2021-08-05 11:26:46</time>
      </trkpt>
      <trkpt lat="37.09092" lon="-3.38432">
        <ele>2562.4</ele>
        <time>2021-08-05 11:26:47</time>
      </trkpt>
      <trkpt lat="37.09092" lon="-3.38432">
        <ele>2562.6</ele>
        <time>2021-08-05 11:26:48</time>
      </trkpt>
      <trkpt lat="37.09092" lon="-3.38432">
        <ele>2562.6</ele>
        <time>2021-08-05 11:26:49</time>
      </trkpt>
      <trkpt lat="37.09092" lon="-3.38432">
        <ele>2562.6</ele>
        <time>2021-08-05 11:26:50</time>
      </trkpt>
      <trkpt lat="37.09092" lon="-3.38432">
        <ele>2562.6</ele>
        <time>2021-08-05 11:26:51</time>
      </trkpt>
      <trkpt lat="37.09092" lon="-3.38432">
        <ele>2562.6</ele>
        <time>2021-08-05 11:26:52</time>
      </trkpt>
      <trkpt lat="37.09092" lon="-3.38432">
        <ele>2562.6</ele>
        <time>2021-08-05 11:26:53</time>
      </trkpt>
      <trkpt lat="37.09092" lon="-3.38432">
        <ele>2562.6</ele>
        <time>2021-08-05 11:26:54</time>
      </trkpt>
      <trkpt lat="37.09092" lon="-3.38433">
        <ele>2562.6</ele>
        <time>2021-08-05 11:26:55</time>
      </trkpt>
      <trkpt lat="37.09093" lon="-3.38433">
        <ele>2562.8</ele>
        <time>2021-08-05 11:26:56</time>
      </trkpt>
      <trkpt lat="37.09092" lon="-3.38433">
        <ele>2563</ele>
        <time>2021-08-05 11:26:57</time>
      </trkpt>
      <trkpt lat="37.09092" lon="-3.38433">
        <ele>2563</ele>
        <time>2021-08-05 11:26:58</time>
      </trkpt>
      <trkpt lat="37.09092" lon="-3.38433">
        <ele>2563.2</ele>
        <time>2021-08-05 11:26:59</time>
      </trkpt>
      <trkpt lat="37.09092" lon="-3.38433">
        <ele>2563.2</ele>
        <time>2021-08-05 11:27:00</time>
      </trkpt>
      <trkpt lat="37.09091" lon="-3.38432">
        <ele>2563.4</ele>
        <time>2021-08-05 11:27:01</time>
      </trkpt>
      <trkpt lat="37.0909" lon="-3.38431">
        <ele>2563.4</ele>
        <time>2021-08-05 11:27:02</time>
      </trkpt>
      <trkpt lat="37.0909" lon="-3.38431">
        <ele>2563.4</ele>
        <time>2021-08-05 11:27:03</time>
      </trkpt>
      <trkpt lat="37.09089" lon="-3.38431">
        <ele>2563.4</ele>
        <time>2021-08-05 11:27:04</time>
      </trkpt>
      <trkpt lat="37.09089" lon="-3.38431">
        <ele>2563.6</ele>
        <time>2021-08-05 11:27:05</time>
      </trkpt>
      <trkpt lat="37.09089" lon="-3.38431">
        <ele>2563.6</ele>
        <time>2021-08-05 11:27:06</time>
      </trkpt>
      <trkpt lat="37.09088" lon="-3.38432">
        <ele>2563.6</ele>
        <time>2021-08-05 11:27:07</time>
      </trkpt>
      <trkpt lat="37.09087" lon="-3.38432">
        <ele>2563.6</ele>
        <time>2021-08-05 11:27:08</time>
      </trkpt>
      <trkpt lat="37.09087" lon="-3.38432">
        <ele>2563.6</ele>
        <time>2021-08-05 11:27:09</time>
      </trkpt>
      <trkpt lat="37.09087" lon="-3.38432">
        <ele>2563.8</ele>
        <time>2021-08-05 11:27:10</time>
      </trkpt>
      <trkpt lat="37.09086" lon="-3.38431">
        <ele>2564</ele>
        <time>2021-08-05 11:27:11</time>
      </trkpt>
      <trkpt lat="37.09086" lon="-3.3843">
        <ele>2564</ele>
        <time>2021-08-05 11:27:12</time>
      </trkpt>
      <trkpt lat="37.09086" lon="-3.38429">
        <ele>2564</ele>
        <time>2021-08-05 11:27:13</time>
      </trkpt>
      <trkpt lat="37.09086" lon="-3.38429">
        <ele>2564.2</ele>
        <time>2021-08-05 11:27:14</time>
      </trkpt>
      <trkpt lat="37.09086" lon="-3.38429">
        <ele>2564.2</ele>
        <time>2021-08-05 11:27:15</time>
      </trkpt>
      <trkpt lat="37.09086" lon="-3.38429">
        <ele>2564.4</ele>
        <time>2021-08-05 11:27:16</time>
      </trkpt>
      <trkpt lat="37.09085" lon="-3.38429">
        <ele>2564.8</ele>
        <time>2021-08-05 11:27:17</time>
      </trkpt>
      <trkpt lat="37.09085" lon="-3.38429">
        <ele>2565</ele>
        <time>2021-08-05 11:27:18</time>
      </trkpt>
      <trkpt lat="37.09084" lon="-3.38429">
        <ele>2565.2</ele>
        <time>2021-08-05 11:27:19</time>
      </trkpt>
      <trkpt lat="37.09083" lon="-3.38428">
        <ele>2565.2</ele>
        <time>2021-08-05 11:27:20</time>
      </trkpt>
      <trkpt lat="37.09082" lon="-3.38427">
        <ele>2565.6</ele>
        <time>2021-08-05 11:27:21</time>
      </trkpt>
      <trkpt lat="37.09081" lon="-3.38427">
        <ele>2565.8</ele>
        <time>2021-08-05 11:27:22</time>
      </trkpt>
      <trkpt lat="37.0908" lon="-3.38425">
        <ele>2565.8</ele>
        <time>2021-08-05 11:27:23</time>
      </trkpt>
      <trkpt lat="37.09079" lon="-3.38424">
        <ele>2565.8</ele>
        <time>2021-08-05 11:27:24</time>
      </trkpt>
      <trkpt lat="37.09079" lon="-3.38424">
        <ele>2565.8</ele>
        <time>2021-08-05 11:27:25</time>
      </trkpt>
      <trkpt lat="37.09078" lon="-3.38423">
        <ele>2565.8</ele>
        <time>2021-08-05 11:27:26</time>
      </trkpt>
      <trkpt lat="37.09077" lon="-3.38423">
        <ele>2566</ele>
        <time>2021-08-05 11:27:27</time>
      </trkpt>
      <trkpt lat="37.09077" lon="-3.38423">
        <ele>2566.2</ele>
        <time>2021-08-05 11:27:28</time>
      </trkpt>
      <trkpt lat="37.09076" lon="-3.38423">
        <ele>2566.2</ele>
        <time>2021-08-05 11:27:29</time>
      </trkpt>
      <trkpt lat="37.09076" lon="-3.38423">
        <ele>2566.4</ele>
        <time>2021-08-05 11:27:30</time>
      </trkpt>
      <trkpt lat="37.09075" lon="-3.38423">
        <ele>2566.4</ele>
        <time>2021-08-05 11:27:31</time>
      </trkpt>
      <trkpt lat="37.09075" lon="-3.38423">
        <ele>2566.2</ele>
        <time>2021-08-05 11:27:32</time>
      </trkpt>
      <trkpt lat="37.09073" lon="-3.38424">
        <ele>2566.2</ele>
        <time>2021-08-05 11:27:33</time>
      </trkpt>
      <trkpt lat="37.09072" lon="-3.38424">
        <ele>2566</ele>
        <time>2021-08-05 11:27:34</time>
      </trkpt>
      <trkpt lat="37.09071" lon="-3.38423">
        <ele>2566</ele>
        <time>2021-08-05 11:27:35</time>
      </trkpt>
      <trkpt lat="37.09071" lon="-3.38423">
        <ele>2565.8</ele>
        <time>2021-08-05 11:27:36</time>
      </trkpt>
      <trkpt lat="37.0907" lon="-3.38422">
        <ele>2566</ele>
        <time>2021-08-05 11:27:37</time>
      </trkpt>
      <trkpt lat="37.09069" lon="-3.38421">
        <ele>2566</ele>
        <time>2021-08-05 11:27:38</time>
      </trkpt>
      <trkpt lat="37.09068" lon="-3.38419">
        <ele>2566.2</ele>
        <time>2021-08-05 11:27:39</time>
      </trkpt>
      <trkpt lat="37.09067" lon="-3.38418">
        <ele>2566.2</ele>
        <time>2021-08-05 11:27:40</time>
      </trkpt>
      <trkpt lat="37.09066" lon="-3.38416">
        <ele>2566.2</ele>
        <time>2021-08-05 11:27:41</time>
      </trkpt>
      <trkpt lat="37.09065" lon="-3.38414">
        <ele>2566.2</ele>
        <time>2021-08-05 11:27:42</time>
      </trkpt>
      <trkpt lat="37.09064" lon="-3.38413">
        <ele>2566.2</ele>
        <time>2021-08-05 11:27:43</time>
      </trkpt>
      <trkpt lat="37.09063" lon="-3.38412">
        <ele>2566</ele>
        <time>2021-08-05 11:27:44</time>
      </trkpt>
      <trkpt lat="37.09062" lon="-3.38412">
        <ele>2566</ele>
        <time>2021-08-05 11:27:45</time>
      </trkpt>
      <trkpt lat="37.09062" lon="-3.38412">
        <ele>2566</ele>
        <time>2021-08-05 11:27:46</time>
      </trkpt>
      <trkpt lat="37.09061" lon="-3.38413">
        <ele>2566</ele>
        <time>2021-08-05 11:27:47</time>
      </trkpt>
      <trkpt lat="37.0906" lon="-3.38414">
        <ele>2566.2</ele>
        <time>2021-08-05 11:27:48</time>
      </trkpt>
      <trkpt lat="37.0906" lon="-3.38415">
        <ele>2566.2</ele>
        <time>2021-08-05 11:27:49</time>
      </trkpt>
      <trkpt lat="37.09059" lon="-3.38416">
        <ele>2566.2</ele>
        <time>2021-08-05 11:27:50</time>
      </trkpt>
      <trkpt lat="37.09059" lon="-3.38417">
        <ele>2566.4</ele>
        <time>2021-08-05 11:27:51</time>
      </trkpt>
      <trkpt lat="37.09058" lon="-3.38417">
        <ele>2566.4</ele>
        <time>2021-08-05 11:27:52</time>
      </trkpt>
      <trkpt lat="37.09057" lon="-3.38417">
        <ele>2566.6</ele>
        <time>2021-08-05 11:27:53</time>
      </trkpt>
      <trkpt lat="37.09056" lon="-3.38417">
        <ele>2566.8</ele>
        <time>2021-08-05 11:27:54</time>
      </trkpt>
      <trkpt lat="37.09055" lon="-3.38416">
        <ele>2567</ele>
        <time>2021-08-05 11:27:55</time>
      </trkpt>
      <trkpt lat="37.09054" lon="-3.38416">
        <ele>2567.2</ele>
        <time>2021-08-05 11:27:56</time>
      </trkpt>
      <trkpt lat="37.09053" lon="-3.38416">
        <ele>2567.2</ele>
        <time>2021-08-05 11:27:57</time>
      </trkpt>
      <trkpt lat="37.09052" lon="-3.38416">
        <ele>2567.4</ele>
        <time>2021-08-05 11:27:58</time>
      </trkpt>
      <trkpt lat="37.09051" lon="-3.38415">
        <ele>2567.4</ele>
        <time>2021-08-05 11:27:59</time>
      </trkpt>
      <trkpt lat="37.0905" lon="-3.38415">
        <ele>2567.4</ele>
        <time>2021-08-05 11:28:00</time>
      </trkpt>
      <trkpt lat="37.0905" lon="-3.38415">
        <ele>2567.4</ele>
        <time>2021-08-05 11:28:01</time>
      </trkpt>
      <trkpt lat="37.09049" lon="-3.38415">
        <ele>2567.4</ele>
        <time>2021-08-05 11:28:02</time>
      </trkpt>
      <trkpt lat="37.09049" lon="-3.38415">
        <ele>2567.2</ele>
        <time>2021-08-05 11:28:03</time>
      </trkpt>
      <trkpt lat="37.09048" lon="-3.38414">
        <ele>2567.4</ele>
        <time>2021-08-05 11:28:04</time>
      </trkpt>
      <trkpt lat="37.09048" lon="-3.38414">
        <ele>2567.4</ele>
        <time>2021-08-05 11:28:05</time>
      </trkpt>
      <trkpt lat="37.09048" lon="-3.38414">
        <ele>2567.6</ele>
        <time>2021-08-05 11:28:06</time>
      </trkpt>
      <trkpt lat="37.09047" lon="-3.38413">
        <ele>2567.8</ele>
        <time>2021-08-05 11:28:07</time>
      </trkpt>
      <trkpt lat="37.09046" lon="-3.38413">
        <ele>2568</ele>
        <time>2021-08-05 11:28:08</time>
      </trkpt>
      <trkpt lat="37.09046" lon="-3.38412">
        <ele>2568.4</ele>
        <time>2021-08-05 11:28:09</time>
      </trkpt>
      <trkpt lat="37.09045" lon="-3.38411">
        <ele>2568.4</ele>
        <time>2021-08-05 11:28:10</time>
      </trkpt>
      <trkpt lat="37.09045" lon="-3.3841">
        <ele>2568.6</ele>
        <time>2021-08-05 11:28:11</time>
      </trkpt>
      <trkpt lat="37.09044" lon="-3.38409">
        <ele>2568.4</ele>
        <time>2021-08-05 11:28:12</time>
      </trkpt>
      <trkpt lat="37.09043" lon="-3.38408">
        <ele>2568.4</ele>
        <time>2021-08-05 11:28:13</time>
      </trkpt>
      <trkpt lat="37.09042" lon="-3.38407">
        <ele>2568.4</ele>
        <time>2021-08-05 11:28:14</time>
      </trkpt>
      <trkpt lat="37.09041" lon="-3.38406">
        <ele>2568.4</ele>
        <time>2021-08-05 11:28:15</time>
      </trkpt>
      <trkpt lat="37.0904" lon="-3.38404">
        <ele>2568.4</ele>
        <time>2021-08-05 11:28:16</time>
      </trkpt>
      <trkpt lat="37.0904" lon="-3.38403">
        <ele>2568.6</ele>
        <time>2021-08-05 11:28:17</time>
      </trkpt>
      <trkpt lat="37.0904" lon="-3.38402">
        <ele>2568.6</ele>
        <time>2021-08-05 11:28:18</time>
      </trkpt>
      <trkpt lat="37.09039" lon="-3.38401">
        <ele>2568.8</ele>
        <time>2021-08-05 11:28:19</time>
      </trkpt>
      <trkpt lat="37.09038" lon="-3.384">
        <ele>2569</ele>
        <time>2021-08-05 11:28:20</time>
      </trkpt>
      <trkpt lat="37.09037" lon="-3.38399">
        <ele>2569.2</ele>
        <time>2021-08-05 11:28:21</time>
      </trkpt>
      <trkpt lat="37.09037" lon="-3.38399">
        <ele>2569.4</ele>
        <time>2021-08-05 11:28:22</time>
      </trkpt>
      <trkpt lat="37.09037" lon="-3.38398">
        <ele>2569.8</ele>
        <time>2021-08-05 11:28:23</time>
      </trkpt>
      <trkpt lat="37.09036" lon="-3.38398">
        <ele>2570</ele>
        <time>2021-08-05 11:28:24</time>
      </trkpt>
      <trkpt lat="37.09036" lon="-3.38397">
        <ele>2570.2</ele>
        <time>2021-08-05 11:28:25</time>
      </trkpt>
      <trkpt lat="37.09035" lon="-3.38397">
        <ele>2570.6</ele>
        <time>2021-08-05 11:28:26</time>
      </trkpt>
      <trkpt lat="37.09035" lon="-3.38397">
        <ele>2570.8</ele>
        <time>2021-08-05 11:28:27</time>
      </trkpt>
      <trkpt lat="37.09035" lon="-3.38397">
        <ele>2571</ele>
        <time>2021-08-05 11:28:28</time>
      </trkpt>
      <trkpt lat="37.09034" lon="-3.38397">
        <ele>2571</ele>
        <time>2021-08-05 11:28:29</time>
      </trkpt>
      <trkpt lat="37.09034" lon="-3.38397">
        <ele>2571</ele>
        <time>2021-08-05 11:28:30</time>
      </trkpt>
      <trkpt lat="37.09033" lon="-3.38397">
        <ele>2571</ele>
        <time>2021-08-05 11:28:31</time>
      </trkpt>
      <trkpt lat="37.09033" lon="-3.38398">
        <ele>2571</ele>
        <time>2021-08-05 11:28:32</time>
      </trkpt>
      <trkpt lat="37.09032" lon="-3.38398">
        <ele>2570.6</ele>
        <time>2021-08-05 11:28:33</time>
      </trkpt>
      <trkpt lat="37.09031" lon="-3.38398">
        <ele>2570.4</ele>
        <time>2021-08-05 11:28:34</time>
      </trkpt>
      <trkpt lat="37.09031" lon="-3.38399">
        <ele>2570.2</ele>
        <time>2021-08-05 11:28:35</time>
      </trkpt>
      <trkpt lat="37.09031" lon="-3.38399">
        <ele>2570.2</ele>
        <time>2021-08-05 11:28:36</time>
      </trkpt>
      <trkpt lat="37.0903" lon="-3.38399">
        <ele>2570.2</ele>
        <time>2021-08-05 11:28:37</time>
      </trkpt>
      <trkpt lat="37.0903" lon="-3.38398">
        <ele>2570.2</ele>
        <time>2021-08-05 11:28:38</time>
      </trkpt>
      <trkpt lat="37.09029" lon="-3.38398">
        <ele>2570.2</ele>
        <time>2021-08-05 11:28:39</time>
      </trkpt>
      <trkpt lat="37.09028" lon="-3.38397">
        <ele>2570.4</ele>
        <time>2021-08-05 11:28:40</time>
      </trkpt>
      <trkpt lat="37.09028" lon="-3.38396">
        <ele>2570.6</ele>
        <time>2021-08-05 11:28:41</time>
      </trkpt>
      <trkpt lat="37.09027" lon="-3.38394">
        <ele>2570.8</ele>
        <time>2021-08-05 11:28:42</time>
      </trkpt>
      <trkpt lat="37.09026" lon="-3.38392">
        <ele>2571</ele>
        <time>2021-08-05 11:28:43</time>
      </trkpt>
      <trkpt lat="37.09026" lon="-3.38391">
        <ele>2571.2</ele>
        <time>2021-08-05 11:28:44</time>
      </trkpt>
      <trkpt lat="37.09025" lon="-3.38391">
        <ele>2571.2</ele>
        <time>2021-08-05 11:28:45</time>
      </trkpt>
      <trkpt lat="37.09025" lon="-3.3839">
        <ele>2571.6</ele>
        <time>2021-08-05 11:28:46</time>
      </trkpt>
      <trkpt lat="37.09024" lon="-3.38388">
        <ele>2571.8</ele>
        <time>2021-08-05 11:28:47</time>
      </trkpt>
      <trkpt lat="37.09024" lon="-3.38388">
        <ele>2571.8</ele>
        <time>2021-08-05 11:28:48</time>
      </trkpt>
      <trkpt lat="37.09023" lon="-3.38388">
        <ele>2572.2</ele>
        <time>2021-08-05 11:28:49</time>
      </trkpt>
      <trkpt lat="37.09023" lon="-3.38387">
        <ele>2572.4</ele>
        <time>2021-08-05 11:28:50</time>
      </trkpt>
      <trkpt lat="37.09022" lon="-3.38387">
        <ele>2572.6</ele>
        <time>2021-08-05 11:28:51</time>
      </trkpt>
      <trkpt lat="37.09021" lon="-3.38387">
        <ele>2572.6</ele>
        <time>2021-08-05 11:28:52</time>
      </trkpt>
      <trkpt lat="37.09021" lon="-3.38388">
        <ele>2572.6</ele>
        <time>2021-08-05 11:28:53</time>
      </trkpt>
      <trkpt lat="37.0902" lon="-3.38388">
        <ele>2572.8</ele>
        <time>2021-08-05 11:28:54</time>
      </trkpt>
      <trkpt lat="37.09019" lon="-3.38389">
        <ele>2572.8</ele>
        <time>2021-08-05 11:28:55</time>
      </trkpt>
      <trkpt lat="37.09019" lon="-3.38389">
        <ele>2573.2</ele>
        <time>2021-08-05 11:28:56</time>
      </trkpt>
      <trkpt lat="37.09018" lon="-3.38389">
        <ele>2573.4</ele>
        <time>2021-08-05 11:28:57</time>
      </trkpt>
      <trkpt lat="37.09017" lon="-3.38389">
        <ele>2573.4</ele>
        <time>2021-08-05 11:28:58</time>
      </trkpt>
      <trkpt lat="37.09016" lon="-3.38388">
        <ele>2573.6</ele>
        <time>2021-08-05 11:28:59</time>
      </trkpt>
      <trkpt lat="37.09016" lon="-3.38388">
        <ele>2573.6</ele>
        <time>2021-08-05 11:29:00</time>
      </trkpt>
      <trkpt lat="37.09015" lon="-3.38388">
        <ele>2574</ele>
        <time>2021-08-05 11:29:01</time>
      </trkpt>
      <trkpt lat="37.09014" lon="-3.38388">
        <ele>2574.2</ele>
        <time>2021-08-05 11:29:02</time>
      </trkpt>
      <trkpt lat="37.09013" lon="-3.38388">
        <ele>2574.8</ele>
        <time>2021-08-05 11:29:03</time>
      </trkpt>
      <trkpt lat="37.09013" lon="-3.38389">
        <ele>2575.2</ele>
        <time>2021-08-05 11:29:04</time>
      </trkpt>
      <trkpt lat="37.09012" lon="-3.38389">
        <ele>2575.4</ele>
        <time>2021-08-05 11:29:05</time>
      </trkpt>
      <trkpt lat="37.09011" lon="-3.38389">
        <ele>2575.4</ele>
        <time>2021-08-05 11:29:06</time>
      </trkpt>
      <trkpt lat="37.09011" lon="-3.38389">
        <ele>2575.6</ele>
        <time>2021-08-05 11:29:07</time>
      </trkpt>
      <trkpt lat="37.0901" lon="-3.38389">
        <ele>2575.6</ele>
        <time>2021-08-05 11:29:08</time>
      </trkpt>
      <trkpt lat="37.0901" lon="-3.38389">
        <ele>2575.8</ele>
        <time>2021-08-05 11:29:09</time>
      </trkpt>
      <trkpt lat="37.09009" lon="-3.38388">
        <ele>2576</ele>
        <time>2021-08-05 11:29:10</time>
      </trkpt>
      <trkpt lat="37.09008" lon="-3.38387">
        <ele>2576</ele>
        <time>2021-08-05 11:29:11</time>
      </trkpt>
      <trkpt lat="37.09007" lon="-3.38386">
        <ele>2576.2</ele>
        <time>2021-08-05 11:29:12</time>
      </trkpt>
      <trkpt lat="37.09007" lon="-3.38386">
        <ele>2576.2</ele>
        <time>2021-08-05 11:29:13</time>
      </trkpt>
      <trkpt lat="37.09007" lon="-3.38386">
        <ele>2576.4</ele>
        <time>2021-08-05 11:29:14</time>
      </trkpt>
      <trkpt lat="37.09007" lon="-3.38385">
        <ele>2576.6</ele>
        <time>2021-08-05 11:29:15</time>
      </trkpt>
      <trkpt lat="37.09006" lon="-3.38384">
        <ele>2576.8</ele>
        <time>2021-08-05 11:29:16</time>
      </trkpt>
      <trkpt lat="37.09006" lon="-3.38383">
        <ele>2576.8</ele>
        <time>2021-08-05 11:29:17</time>
      </trkpt>
      <trkpt lat="37.09005" lon="-3.38381">
        <ele>2577.2</ele>
        <time>2021-08-05 11:29:18</time>
      </trkpt>
      <trkpt lat="37.09005" lon="-3.38381">
        <ele>2577.4</ele>
        <time>2021-08-05 11:29:19</time>
      </trkpt>
      <trkpt lat="37.09004" lon="-3.3838">
        <ele>2577.6</ele>
        <time>2021-08-05 11:29:20</time>
      </trkpt>
      <trkpt lat="37.09004" lon="-3.38379">
        <ele>2577.4</ele>
        <time>2021-08-05 11:29:21</time>
      </trkpt>
      <trkpt lat="37.09003" lon="-3.38378">
        <ele>2577.4</ele>
        <time>2021-08-05 11:29:22</time>
      </trkpt>
      <trkpt lat="37.09003" lon="-3.38377">
        <ele>2577.2</ele>
        <time>2021-08-05 11:29:23</time>
      </trkpt>
      <trkpt lat="37.09003" lon="-3.38376">
        <ele>2577.2</ele>
        <time>2021-08-05 11:29:24</time>
      </trkpt>
      <trkpt lat="37.09003" lon="-3.38375">
        <ele>2577</ele>
        <time>2021-08-05 11:29:25</time>
      </trkpt>
      <trkpt lat="37.09002" lon="-3.38374">
        <ele>2577</ele>
        <time>2021-08-05 11:29:26</time>
      </trkpt>
      <trkpt lat="37.09001" lon="-3.38371">
        <ele>2577</ele>
        <time>2021-08-05 11:29:27</time>
      </trkpt>
      <trkpt lat="37.09001" lon="-3.3837">
        <ele>2577</ele>
        <time>2021-08-05 11:29:28</time>
      </trkpt>
      <trkpt lat="37.09" lon="-3.38369">
        <ele>2576.8</ele>
        <time>2021-08-05 11:29:29</time>
      </trkpt>
      <trkpt lat="37.08999" lon="-3.38367">
        <ele>2576.8</ele>
        <time>2021-08-05 11:29:30</time>
      </trkpt>
      <trkpt lat="37.08998" lon="-3.38367">
        <ele>2576.8</ele>
        <time>2021-08-05 11:29:31</time>
      </trkpt>
      <trkpt lat="37.08998" lon="-3.38366">
        <ele>2576.8</ele>
        <time>2021-08-05 11:29:32</time>
      </trkpt>
      <trkpt lat="37.08999" lon="-3.38366">
        <ele>2576.8</ele>
        <time>2021-08-05 11:29:33</time>
      </trkpt>
      <trkpt lat="37.08999" lon="-3.38366">
        <ele>2577</ele>
        <time>2021-08-05 11:29:34</time>
      </trkpt>
      <trkpt lat="37.08999" lon="-3.38364">
        <ele>2577.2</ele>
        <time>2021-08-05 11:29:35</time>
      </trkpt>
      <trkpt lat="37.08998" lon="-3.38363">
        <ele>2577.4</ele>
        <time>2021-08-05 11:29:36</time>
      </trkpt>
      <trkpt lat="37.08998" lon="-3.38362">
        <ele>2577.4</ele>
        <time>2021-08-05 11:29:37</time>
      </trkpt>
      <trkpt lat="37.08998" lon="-3.38362">
        <ele>2577.6</ele>
        <time>2021-08-05 11:29:38</time>
      </trkpt>
      <trkpt lat="37.08998" lon="-3.38362">
        <ele>2577.6</ele>
        <time>2021-08-05 11:29:39</time>
      </trkpt>
      <trkpt lat="37.08997" lon="-3.38362">
        <ele>2577.8</ele>
        <time>2021-08-05 11:29:40</time>
      </trkpt>
      <trkpt lat="37.08997" lon="-3.38363">
        <ele>2578</ele>
        <time>2021-08-05 11:29:41</time>
      </trkpt>
      <trkpt lat="37.08996" lon="-3.38363">
        <ele>2578.2</ele>
        <time>2021-08-05 11:29:42</time>
      </trkpt>
      <trkpt lat="37.08996" lon="-3.38363">
        <ele>2578.4</ele>
        <time>2021-08-05 11:29:43</time>
      </trkpt>
      <trkpt lat="37.08996" lon="-3.38364">
        <ele>2578.6</ele>
        <time>2021-08-05 11:29:44</time>
      </trkpt>
      <trkpt lat="37.08996" lon="-3.38364">
        <ele>2578.8</ele>
        <time>2021-08-05 11:29:45</time>
      </trkpt>
      <trkpt lat="37.08995" lon="-3.38364">
        <ele>2578.8</ele>
        <time>2021-08-05 11:29:46</time>
      </trkpt>
      <trkpt lat="37.08995" lon="-3.38364">
        <ele>2579</ele>
        <time>2021-08-05 11:29:47</time>
      </trkpt>
      <trkpt lat="37.08995" lon="-3.38365">
        <ele>2579.2</ele>
        <time>2021-08-05 11:29:48</time>
      </trkpt>
      <trkpt lat="37.08994" lon="-3.38365">
        <ele>2579.2</ele>
        <time>2021-08-05 11:29:49</time>
      </trkpt>
      <trkpt lat="37.08994" lon="-3.38366">
        <ele>2579.4</ele>
        <time>2021-08-05 11:29:50</time>
      </trkpt>
      <trkpt lat="37.08994" lon="-3.38366">
        <ele>2579.6</ele>
        <time>2021-08-05 11:29:51</time>
      </trkpt>
      <trkpt lat="37.08993" lon="-3.38367">
        <ele>2580</ele>
        <time>2021-08-05 11:29:52</time>
      </trkpt>
      <trkpt lat="37.08993" lon="-3.38367">
        <ele>2580</ele>
        <time>2021-08-05 11:29:53</time>
      </trkpt>
      <trkpt lat="37.08993" lon="-3.38367">
        <ele>2580.2</ele>
        <time>2021-08-05 11:29:54</time>
      </trkpt>
      <trkpt lat="37.08992" lon="-3.38367">
        <ele>2580.4</ele>
        <time>2021-08-05 11:29:55</time>
      </trkpt>
      <trkpt lat="37.08991" lon="-3.38367">
        <ele>2580.6</ele>
        <time>2021-08-05 11:29:56</time>
      </trkpt>
      <trkpt lat="37.08991" lon="-3.38368">
        <ele>2580.8</ele>
        <time>2021-08-05 11:29:57</time>
      </trkpt>
      <trkpt lat="37.0899" lon="-3.38368">
        <ele>2581</ele>
        <time>2021-08-05 11:29:58</time>
      </trkpt>
      <trkpt lat="37.08989" lon="-3.38368">
        <ele>2581.2</ele>
        <time>2021-08-05 11:29:59</time>
      </trkpt>
      <trkpt lat="37.08989" lon="-3.38369">
        <ele>2581.4</ele>
        <time>2021-08-05 11:30:00</time>
      </trkpt>
      <trkpt lat="37.08988" lon="-3.3837">
        <ele>2581.8</ele>
        <time>2021-08-05 11:30:01</time>
      </trkpt>
      <trkpt lat="37.08988" lon="-3.3837">
        <ele>2582</ele>
        <time>2021-08-05 11:30:02</time>
      </trkpt>
      <trkpt lat="37.08987" lon="-3.38369">
        <ele>2582.2</ele>
        <time>2021-08-05 11:30:03</time>
      </trkpt>
      <trkpt lat="37.08987" lon="-3.3837">
        <ele>2582.4</ele>
        <time>2021-08-05 11:30:04</time>
      </trkpt>
      <trkpt lat="37.08986" lon="-3.3837">
        <ele>2582.4</ele>
        <time>2021-08-05 11:30:05</time>
      </trkpt>
      <trkpt lat="37.08985" lon="-3.3837">
        <ele>2582.6</ele>
        <time>2021-08-05 11:30:06</time>
      </trkpt>
      <trkpt lat="37.08985" lon="-3.3837">
        <ele>2582.8</ele>
        <time>2021-08-05 11:30:07</time>
      </trkpt>
      <trkpt lat="37.08985" lon="-3.3837">
        <ele>2583</ele>
        <time>2021-08-05 11:30:08</time>
      </trkpt>
      <trkpt lat="37.08984" lon="-3.38369">
        <ele>2583.4</ele>
        <time>2021-08-05 11:30:09</time>
      </trkpt>
      <trkpt lat="37.08984" lon="-3.38369">
        <ele>2583.6</ele>
        <time>2021-08-05 11:30:10</time>
      </trkpt>
      <trkpt lat="37.08983" lon="-3.38369">
        <ele>2583.6</ele>
        <time>2021-08-05 11:30:11</time>
      </trkpt>
      <trkpt lat="37.08983" lon="-3.38368">
        <ele>2583.6</ele>
        <time>2021-08-05 11:30:12</time>
      </trkpt>
      <trkpt lat="37.08983" lon="-3.38368">
        <ele>2583.6</ele>
        <time>2021-08-05 11:30:13</time>
      </trkpt>
      <trkpt lat="37.08983" lon="-3.38368">
        <ele>2583.6</ele>
        <time>2021-08-05 11:30:14</time>
      </trkpt>
      <trkpt lat="37.08983" lon="-3.38368">
        <ele>2583.6</ele>
        <time>2021-08-05 11:30:15</time>
      </trkpt>
      <trkpt lat="37.08983" lon="-3.38368">
        <ele>2583.6</ele>
        <time>2021-08-05 11:30:16</time>
      </trkpt>
      <trkpt lat="37.08982" lon="-3.38368">
        <ele>2583.8</ele>
        <time>2021-08-05 11:30:17</time>
      </trkpt>
      <trkpt lat="37.08982" lon="-3.38368">
        <ele>2584</ele>
        <time>2021-08-05 11:30:18</time>
      </trkpt>
      <trkpt lat="37.08982" lon="-3.38368">
        <ele>2584</ele>
        <time>2021-08-05 11:30:19</time>
      </trkpt>
      <trkpt lat="37.08981" lon="-3.38368">
        <ele>2584</ele>
        <time>2021-08-05 11:30:20</time>
      </trkpt>
      <trkpt lat="37.0898" lon="-3.38368">
        <ele>2584.2</ele>
        <time>2021-08-05 11:30:21</time>
      </trkpt>
      <trkpt lat="37.0898" lon="-3.38367">
        <ele>2584.8</ele>
        <time>2021-08-05 11:30:22</time>
      </trkpt>
      <trkpt lat="37.0898" lon="-3.38366">
        <ele>2585</ele>
        <time>2021-08-05 11:30:23</time>
      </trkpt>
      <trkpt lat="37.0898" lon="-3.38365">
        <ele>2585.2</ele>
        <time>2021-08-05 11:30:24</time>
      </trkpt>
      <trkpt lat="37.08979" lon="-3.38364">
        <ele>2585.4</ele>
        <time>2021-08-05 11:30:25</time>
      </trkpt>
      <trkpt lat="37.08979" lon="-3.38363">
        <ele>2585.4</ele>
        <time>2021-08-05 11:30:26</time>
      </trkpt>
      <trkpt lat="37.08979" lon="-3.38363">
        <ele>2585.6</ele>
        <time>2021-08-05 11:30:27</time>
      </trkpt>
      <trkpt lat="37.08978" lon="-3.38362">
        <ele>2585.6</ele>
        <time>2021-08-05 11:30:28</time>
      </trkpt>
      <trkpt lat="37.08979" lon="-3.38361">
        <ele>2585.8</ele>
        <time>2021-08-05 11:30:29</time>
      </trkpt>
      <trkpt lat="37.08978" lon="-3.3836">
        <ele>2585.8</ele>
        <time>2021-08-05 11:30:30</time>
      </trkpt>
      <trkpt lat="37.08977" lon="-3.38359">
        <ele>2585.6</ele>
        <time>2021-08-05 11:30:31</time>
      </trkpt>
      <trkpt lat="37.08977" lon="-3.38358">
        <ele>2585.6</ele>
        <time>2021-08-05 11:30:32</time>
      </trkpt>
      <trkpt lat="37.08976" lon="-3.38357">
        <ele>2585.6</ele>
        <time>2021-08-05 11:30:33</time>
      </trkpt>
      <trkpt lat="37.08976" lon="-3.38357">
        <ele>2585.8</ele>
        <time>2021-08-05 11:30:34</time>
      </trkpt>
      <trkpt lat="37.08975" lon="-3.38357">
        <ele>2585.8</ele>
        <time>2021-08-05 11:30:35</time>
      </trkpt>
      <trkpt lat="37.08975" lon="-3.38356">
        <ele>2585.8</ele>
        <time>2021-08-05 11:30:36</time>
      </trkpt>
      <trkpt lat="37.08975" lon="-3.38354">
        <ele>2585.8</ele>
        <time>2021-08-05 11:30:37</time>
      </trkpt>
      <trkpt lat="37.08974" lon="-3.38354">
        <ele>2586</ele>
        <time>2021-08-05 11:30:38</time>
      </trkpt>
      <trkpt lat="37.08973" lon="-3.38354">
        <ele>2586.2</ele>
        <time>2021-08-05 11:30:39</time>
      </trkpt>
      <trkpt lat="37.08972" lon="-3.38354">
        <ele>2586.4</ele>
        <time>2021-08-05 11:30:40</time>
      </trkpt>
      <trkpt lat="37.08972" lon="-3.38354">
        <ele>2586.4</ele>
        <time>2021-08-05 11:30:41</time>
      </trkpt>
      <trkpt lat="37.08971" lon="-3.38354">
        <ele>2586.4</ele>
        <time>2021-08-05 11:30:42</time>
      </trkpt>
      <trkpt lat="37.08971" lon="-3.38355">
        <ele>2586.6</ele>
        <time>2021-08-05 11:30:43</time>
      </trkpt>
      <trkpt lat="37.0897" lon="-3.38356">
        <ele>2586.8</ele>
        <time>2021-08-05 11:30:44</time>
      </trkpt>
      <trkpt lat="37.08969" lon="-3.38356">
        <ele>2587.2</ele>
        <time>2021-08-05 11:30:45</time>
      </trkpt>
      <trkpt lat="37.08969" lon="-3.38358">
        <ele>2587.6</ele>
        <time>2021-08-05 11:30:46</time>
      </trkpt>
      <trkpt lat="37.08969" lon="-3.38359">
        <ele>2587.8</ele>
        <time>2021-08-05 11:30:47</time>
      </trkpt>
      <trkpt lat="37.08969" lon="-3.38359">
        <ele>2588</ele>
        <time>2021-08-05 11:30:48</time>
      </trkpt>
      <trkpt lat="37.08968" lon="-3.3836">
        <ele>2588.2</ele>
        <time>2021-08-05 11:30:49</time>
      </trkpt>
      <trkpt lat="37.08968" lon="-3.3836">
        <ele>2588.4</ele>
        <time>2021-08-05 11:30:50</time>
      </trkpt>
      <trkpt lat="37.08967" lon="-3.3836">
        <ele>2588.6</ele>
        <time>2021-08-05 11:30:51</time>
      </trkpt>
      <trkpt lat="37.08967" lon="-3.3836">
        <ele>2588.8</ele>
        <time>2021-08-05 11:30:52</time>
      </trkpt>
      <trkpt lat="37.08966" lon="-3.3836">
        <ele>2589</ele>
        <time>2021-08-05 11:30:53</time>
      </trkpt>
      <trkpt lat="37.08965" lon="-3.3836">
        <ele>2589</ele>
        <time>2021-08-05 11:30:54</time>
      </trkpt>
      <trkpt lat="37.08965" lon="-3.38361">
        <ele>2589.2</ele>
        <time>2021-08-05 11:30:55</time>
      </trkpt>
      <trkpt lat="37.08965" lon="-3.38361">
        <ele>2589.4</ele>
        <time>2021-08-05 11:30:56</time>
      </trkpt>
      <trkpt lat="37.08964" lon="-3.38361">
        <ele>2589.6</ele>
        <time>2021-08-05 11:30:57</time>
      </trkpt>
      <trkpt lat="37.08964" lon="-3.38361">
        <ele>2589.6</ele>
        <time>2021-08-05 11:30:58</time>
      </trkpt>
      <trkpt lat="37.08964" lon="-3.38361">
        <ele>2589.6</ele>
        <time>2021-08-05 11:30:59</time>
      </trkpt>
      <trkpt lat="37.08963" lon="-3.38361">
        <ele>2589.8</ele>
        <time>2021-08-05 11:31:00</time>
      </trkpt>
      <trkpt lat="37.08963" lon="-3.38361">
        <ele>2589.8</ele>
        <time>2021-08-05 11:31:01</time>
      </trkpt>
      <trkpt lat="37.08962" lon="-3.38361">
        <ele>2590</ele>
        <time>2021-08-05 11:31:02</time>
      </trkpt>
      <trkpt lat="37.08962" lon="-3.38361">
        <ele>2590.2</ele>
        <time>2021-08-05 11:31:03</time>
      </trkpt>
      <trkpt lat="37.08962" lon="-3.38361">
        <ele>2590.2</ele>
        <time>2021-08-05 11:31:04</time>
      </trkpt>
      <trkpt lat="37.08962" lon="-3.3836">
        <ele>2590.2</ele>
        <time>2021-08-05 11:31:05</time>
      </trkpt>
      <trkpt lat="37.08961" lon="-3.38359">
        <ele>2590.2</ele>
        <time>2021-08-05 11:31:06</time>
      </trkpt>
      <trkpt lat="37.08961" lon="-3.38359">
        <ele>2590.4</ele>
        <time>2021-08-05 11:31:07</time>
      </trkpt>
      <trkpt lat="37.08961" lon="-3.38359">
        <ele>2590.2</ele>
        <time>2021-08-05 11:31:08</time>
      </trkpt>
      <trkpt lat="37.08961" lon="-3.38359">
        <ele>2590.2</ele>
        <time>2021-08-05 11:31:09</time>
      </trkpt>
      <trkpt lat="37.0896" lon="-3.38359">
        <ele>2590.2</ele>
        <time>2021-08-05 11:31:10</time>
      </trkpt>
      <trkpt lat="37.08959" lon="-3.38359">
        <ele>2590.4</ele>
        <time>2021-08-05 11:31:11</time>
      </trkpt>
      <trkpt lat="37.08959" lon="-3.38359">
        <ele>2590.4</ele>
        <time>2021-08-05 11:31:12</time>
      </trkpt>
      <trkpt lat="37.08959" lon="-3.3836">
        <ele>2590.2</ele>
        <time>2021-08-05 11:31:13</time>
      </trkpt>
      <trkpt lat="37.08959" lon="-3.3836">
        <ele>2590.2</ele>
        <time>2021-08-05 11:31:14</time>
      </trkpt>
      <trkpt lat="37.08958" lon="-3.3836">
        <ele>2590.4</ele>
        <time>2021-08-05 11:31:15</time>
      </trkpt>
      <trkpt lat="37.08958" lon="-3.38359">
        <ele>2590.6</ele>
        <time>2021-08-05 11:31:16</time>
      </trkpt>
      <trkpt lat="37.08957" lon="-3.38359">
        <ele>2590.6</ele>
        <time>2021-08-05 11:31:17</time>
      </trkpt>
      <trkpt lat="37.08956" lon="-3.38359">
        <ele>2590.8</ele>
        <time>2021-08-05 11:31:18</time>
      </trkpt>
      <trkpt lat="37.08956" lon="-3.38358">
        <ele>2591.2</ele>
        <time>2021-08-05 11:31:19</time>
      </trkpt>
      <trkpt lat="37.08955" lon="-3.38358">
        <ele>2591.6</ele>
        <time>2021-08-05 11:31:20</time>
      </trkpt>
      <trkpt lat="37.08955" lon="-3.38358">
        <ele>2592.2</ele>
        <time>2021-08-05 11:31:21</time>
      </trkpt>
      <trkpt lat="37.08955" lon="-3.38358">
        <ele>2592.4</ele>
        <time>2021-08-05 11:31:22</time>
      </trkpt>
      <trkpt lat="37.08954" lon="-3.38356">
        <ele>2593</ele>
        <time>2021-08-05 11:31:23</time>
      </trkpt>
      <trkpt lat="37.08954" lon="-3.38356">
        <ele>2593.2</ele>
        <time>2021-08-05 11:31:24</time>
      </trkpt>
      <trkpt lat="37.08953" lon="-3.38356">
        <ele>2593.4</ele>
        <time>2021-08-05 11:31:25</time>
      </trkpt>
      <trkpt lat="37.08952" lon="-3.38356">
        <ele>2593.4</ele>
        <time>2021-08-05 11:31:26</time>
      </trkpt>
      <trkpt lat="37.08951" lon="-3.38356">
        <ele>2593.4</ele>
        <time>2021-08-05 11:31:27</time>
      </trkpt>
      <trkpt lat="37.0895" lon="-3.38355">
        <ele>2593.8</ele>
        <time>2021-08-05 11:31:28</time>
      </trkpt>
      <trkpt lat="37.08949" lon="-3.38354">
        <ele>2594.2</ele>
        <time>2021-08-05 11:31:29</time>
      </trkpt>
      <trkpt lat="37.08949" lon="-3.38354">
        <ele>2594.2</ele>
        <time>2021-08-05 11:31:30</time>
      </trkpt>
      <trkpt lat="37.08948" lon="-3.38354">
        <ele>2594.4</ele>
        <time>2021-08-05 11:31:31</time>
      </trkpt>
      <trkpt lat="37.08948" lon="-3.38353">
        <ele>2594.6</ele>
        <time>2021-08-05 11:31:32</time>
      </trkpt>
      <trkpt lat="37.08947" lon="-3.38352">
        <ele>2594.6</ele>
        <time>2021-08-05 11:31:33</time>
      </trkpt>
      <trkpt lat="37.08946" lon="-3.38351">
        <ele>2594.8</ele>
        <time>2021-08-05 11:31:34</time>
      </trkpt>
      <trkpt lat="37.08946" lon="-3.38351">
        <ele>2595</ele>
        <time>2021-08-05 11:31:35</time>
      </trkpt>
      <trkpt lat="37.08945" lon="-3.38351">
        <ele>2595</ele>
        <time>2021-08-05 11:31:36</time>
      </trkpt>
      <trkpt lat="37.08945" lon="-3.38351">
        <ele>2595.4</ele>
        <time>2021-08-05 11:31:37</time>
      </trkpt>
      <trkpt lat="37.08945" lon="-3.38351">
        <ele>2595.6</ele>
        <time>2021-08-05 11:31:38</time>
      </trkpt>
      <trkpt lat="37.08944" lon="-3.38351">
        <ele>2595.8</ele>
        <time>2021-08-05 11:31:39</time>
      </trkpt>
      <trkpt lat="37.08943" lon="-3.3835">
        <ele>2595.8</ele>
        <time>2021-08-05 11:31:40</time>
      </trkpt>
      <trkpt lat="37.08943" lon="-3.38349">
        <ele>2596</ele>
        <time>2021-08-05 11:31:41</time>
      </trkpt>
      <trkpt lat="37.08942" lon="-3.38349">
        <ele>2595.8</ele>
        <time>2021-08-05 11:31:42</time>
      </trkpt>
      <trkpt lat="37.08942" lon="-3.38348">
        <ele>2595.8</ele>
        <time>2021-08-05 11:31:43</time>
      </trkpt>
      <trkpt lat="37.08941" lon="-3.38348">
        <ele>2595.6</ele>
        <time>2021-08-05 11:31:44</time>
      </trkpt>
      <trkpt lat="37.08941" lon="-3.38348">
        <ele>2595.4</ele>
        <time>2021-08-05 11:31:45</time>
      </trkpt>
      <trkpt lat="37.0894" lon="-3.38348">
        <ele>2595.2</ele>
        <time>2021-08-05 11:31:46</time>
      </trkpt>
      <trkpt lat="37.08939" lon="-3.38348">
        <ele>2595.2</ele>
        <time>2021-08-05 11:31:47</time>
      </trkpt>
      <trkpt lat="37.08939" lon="-3.38347">
        <ele>2595</ele>
        <time>2021-08-05 11:31:48</time>
      </trkpt>
      <trkpt lat="37.08938" lon="-3.38346">
        <ele>2595</ele>
        <time>2021-08-05 11:31:49</time>
      </trkpt>
      <trkpt lat="37.08937" lon="-3.38345">
        <ele>2595</ele>
        <time>2021-08-05 11:31:50</time>
      </trkpt>
      <trkpt lat="37.08937" lon="-3.38345">
        <ele>2595</ele>
        <time>2021-08-05 11:31:51</time>
      </trkpt>
      <trkpt lat="37.08937" lon="-3.38344">
        <ele>2595</ele>
        <time>2021-08-05 11:31:52</time>
      </trkpt>
      <trkpt lat="37.08936" lon="-3.38343">
        <ele>2595.2</ele>
        <time>2021-08-05 11:31:53</time>
      </trkpt>
      <trkpt lat="37.08936" lon="-3.38342">
        <ele>2595.2</ele>
        <time>2021-08-05 11:31:54</time>
      </trkpt>
      <trkpt lat="37.08935" lon="-3.38342">
        <ele>2595.2</ele>
        <time>2021-08-05 11:31:55</time>
      </trkpt>
      <trkpt lat="37.08935" lon="-3.38342">
        <ele>2595.2</ele>
        <time>2021-08-05 11:31:56</time>
      </trkpt>
      <trkpt lat="37.08934" lon="-3.38342">
        <ele>2595.2</ele>
        <time>2021-08-05 11:31:57</time>
      </trkpt>
      <trkpt lat="37.08934" lon="-3.38341">
        <ele>2595.2</ele>
        <time>2021-08-05 11:31:58</time>
      </trkpt>
      <trkpt lat="37.08933" lon="-3.38341">
        <ele>2595.4</ele>
        <time>2021-08-05 11:31:59</time>
      </trkpt>
      <trkpt lat="37.08932" lon="-3.38341">
        <ele>2595.6</ele>
        <time>2021-08-05 11:32:00</time>
      </trkpt>
      <trkpt lat="37.08932" lon="-3.3834">
        <ele>2595.6</ele>
        <time>2021-08-05 11:32:01</time>
      </trkpt>
      <trkpt lat="37.08931" lon="-3.38338">
        <ele>2595.6</ele>
        <time>2021-08-05 11:32:02</time>
      </trkpt>
      <trkpt lat="37.08931" lon="-3.38338">
        <ele>2595.8</ele>
        <time>2021-08-05 11:32:03</time>
      </trkpt>
      <trkpt lat="37.0893" lon="-3.38338">
        <ele>2595.8</ele>
        <time>2021-08-05 11:32:04</time>
      </trkpt>
      <trkpt lat="37.0893" lon="-3.38338">
        <ele>2595.8</ele>
        <time>2021-08-05 11:32:05</time>
      </trkpt>
      <trkpt lat="37.08929" lon="-3.38338">
        <ele>2595.6</ele>
        <time>2021-08-05 11:32:06</time>
      </trkpt>
      <trkpt lat="37.08929" lon="-3.38338">
        <ele>2595.8</ele>
        <time>2021-08-05 11:32:07</time>
      </trkpt>
      <trkpt lat="37.08929" lon="-3.38338">
        <ele>2596</ele>
        <time>2021-08-05 11:32:08</time>
      </trkpt>
      <trkpt lat="37.08928" lon="-3.38338">
        <ele>2596</ele>
        <time>2021-08-05 11:32:09</time>
      </trkpt>
      <trkpt lat="37.08928" lon="-3.38338">
        <ele>2596</ele>
        <time>2021-08-05 11:32:10</time>
      </trkpt>
      <trkpt lat="37.08928" lon="-3.38337">
        <ele>2596</ele>
        <time>2021-08-05 11:32:11</time>
      </trkpt>
      <trkpt lat="37.08928" lon="-3.38337">
        <ele>2596.2</ele>
        <time>2021-08-05 11:32:12</time>
      </trkpt>
      <trkpt lat="37.08928" lon="-3.38337">
        <ele>2596.4</ele>
        <time>2021-08-05 11:32:13</time>
      </trkpt>
      <trkpt lat="37.08928" lon="-3.38336">
        <ele>2596.4</ele>
        <time>2021-08-05 11:32:14</time>
      </trkpt>
      <trkpt lat="37.08928" lon="-3.38337">
        <ele>2596.4</ele>
        <time>2021-08-05 11:32:15</time>
      </trkpt>
      <trkpt lat="37.08928" lon="-3.38336">
        <ele>2596.4</ele>
        <time>2021-08-05 11:32:16</time>
      </trkpt>
      <trkpt lat="37.08928" lon="-3.38337">
        <ele>2596.4</ele>
        <time>2021-08-05 11:32:17</time>
      </trkpt>
      <trkpt lat="37.08928" lon="-3.38337">
        <ele>2596.2</ele>
        <time>2021-08-05 11:32:18</time>
      </trkpt>
      <trkpt lat="37.08928" lon="-3.38336">
        <ele>2596.2</ele>
        <time>2021-08-05 11:32:19</time>
      </trkpt>
      <trkpt lat="37.08928" lon="-3.38337">
        <ele>2596.2</ele>
        <time>2021-08-05 11:32:20</time>
      </trkpt>
      <trkpt lat="37.08928" lon="-3.38337">
        <ele>2596.6</ele>
        <time>2021-08-05 11:32:21</time>
      </trkpt>
      <trkpt lat="37.08928" lon="-3.38338">
        <ele>2596.6</ele>
        <time>2021-08-05 11:32:22</time>
      </trkpt>
      <trkpt lat="37.08928" lon="-3.38338">
        <ele>2596.8</ele>
        <time>2021-08-05 11:32:23</time>
      </trkpt>
      <trkpt lat="37.08929" lon="-3.38339">
        <ele>2596.8</ele>
        <time>2021-08-05 11:32:24</time>
      </trkpt>
      <trkpt lat="37.08929" lon="-3.38339">
        <ele>2596.6</ele>
        <time>2021-08-05 11:32:25</time>
      </trkpt>
      <trkpt lat="37.0893" lon="-3.3834">
        <ele>2596.4</ele>
        <time>2021-08-05 11:32:26</time>
      </trkpt>
      <trkpt lat="37.0893" lon="-3.38341">
        <ele>2596.2</ele>
        <time>2021-08-05 11:32:27</time>
      </trkpt>
      <trkpt lat="37.0893" lon="-3.3834">
        <ele>2596.2</ele>
        <time>2021-08-05 11:32:28</time>
      </trkpt>
      <trkpt lat="37.0893" lon="-3.3834">
        <ele>2596.2</ele>
        <time>2021-08-05 11:32:29</time>
      </trkpt>
      <trkpt lat="37.0893" lon="-3.3834">
        <ele>2596.2</ele>
        <time>2021-08-05 11:32:30</time>
      </trkpt>
      <trkpt lat="37.08929" lon="-3.38341">
        <ele>2596</ele>
        <time>2021-08-05 11:32:31</time>
      </trkpt>
      <trkpt lat="37.08929" lon="-3.38341">
        <ele>2596</ele>
        <time>2021-08-05 11:32:32</time>
      </trkpt>
      <trkpt lat="37.0893" lon="-3.3834">
        <ele>2596.2</ele>
        <time>2021-08-05 11:32:33</time>
      </trkpt>
      <trkpt lat="37.0893" lon="-3.3834">
        <ele>2596.2</ele>
        <time>2021-08-05 11:32:34</time>
      </trkpt>
      <trkpt lat="37.08929" lon="-3.3834">
        <ele>2596.2</ele>
        <time>2021-08-05 11:32:35</time>
      </trkpt>
      <trkpt lat="37.08929" lon="-3.3834">
        <ele>2596.2</ele>
        <time>2021-08-05 11:32:36</time>
      </trkpt>
      <trkpt lat="37.08927" lon="-3.3834">
        <ele>2596.2</ele>
        <time>2021-08-05 11:32:37</time>
      </trkpt>
      <trkpt lat="37.08926" lon="-3.38339">
        <ele>2596.4</ele>
        <time>2021-08-05 11:32:38</time>
      </trkpt>
      <trkpt lat="37.08926" lon="-3.38339">
        <ele>2596.4</ele>
        <time>2021-08-05 11:32:39</time>
      </trkpt>
      <trkpt lat="37.08926" lon="-3.38339">
        <ele>2596.4</ele>
        <time>2021-08-05 11:32:40</time>
      </trkpt>
      <trkpt lat="37.08926" lon="-3.38338">
        <ele>2596.4</ele>
        <time>2021-08-05 11:32:41</time>
      </trkpt>
      <trkpt lat="37.08927" lon="-3.38337">
        <ele>2596.6</ele>
        <time>2021-08-05 11:32:42</time>
      </trkpt>
      <trkpt lat="37.08927" lon="-3.38338">
        <ele>2596.6</ele>
        <time>2021-08-05 11:32:43</time>
      </trkpt>
      <trkpt lat="37.08927" lon="-3.38338">
        <ele>2596.6</ele>
        <time>2021-08-05 11:32:44</time>
      </trkpt>
      <trkpt lat="37.08927" lon="-3.38338">
        <ele>2596.4</ele>
        <time>2021-08-05 11:32:45</time>
      </trkpt>
      <trkpt lat="37.08927" lon="-3.38338">
        <ele>2596.4</ele>
        <time>2021-08-05 11:32:46</time>
      </trkpt>
      <trkpt lat="37.08928" lon="-3.38338">
        <ele>2596.4</ele>
        <time>2021-08-05 11:32:47</time>
      </trkpt>
      <trkpt lat="37.08928" lon="-3.38339">
        <ele>2596.4</ele>
        <time>2021-08-05 11:32:48</time>
      </trkpt>
      <trkpt lat="37.08928" lon="-3.38339">
        <ele>2596.4</ele>
        <time>2021-08-05 11:32:49</time>
      </trkpt>
      <trkpt lat="37.08928" lon="-3.3834">
        <ele>2596.4</ele>
        <time>2021-08-05 11:32:50</time>
      </trkpt>
      <trkpt lat="37.08928" lon="-3.38341">
        <ele>2596.4</ele>
        <time>2021-08-05 11:32:51</time>
      </trkpt>
      <trkpt lat="37.08929" lon="-3.38341">
        <ele>2596.6</ele>
        <time>2021-08-05 11:32:52</time>
      </trkpt>
      <trkpt lat="37.08929" lon="-3.3834">
        <ele>2596.8</ele>
        <time>2021-08-05 11:32:53</time>
      </trkpt>
      <trkpt lat="37.0893" lon="-3.3834">
        <ele>2597</ele>
        <time>2021-08-05 11:32:54</time>
      </trkpt>
      <trkpt lat="37.08931" lon="-3.38339">
        <ele>2597</ele>
        <time>2021-08-05 11:32:55</time>
      </trkpt>
      <trkpt lat="37.08923" lon="-3.38345">
        <ele>2597.4</ele>
        <time>2021-08-05 11:32:56</time>
      </trkpt>
      <trkpt lat="37.08922" lon="-3.38345">
        <ele>2597.4</ele>
        <time>2021-08-05 11:41:01</time>
      </trkpt>
      <trkpt lat="37.08921" lon="-3.38344">
        <ele>2597.4</ele>
        <time>2021-08-05 11:41:02</time>
      </trkpt>
      <trkpt lat="37.0892" lon="-3.38343">
        <ele>2597.6</ele>
        <time>2021-08-05 11:41:03</time>
      </trkpt>
      <trkpt lat="37.08919" lon="-3.38342">
        <ele>2597.6</ele>
        <time>2021-08-05 11:41:04</time>
      </trkpt>
      <trkpt lat="37.08919" lon="-3.38342">
        <ele>2597.8</ele>
        <time>2021-08-05 11:41:05</time>
      </trkpt>
      <trkpt lat="37.08918" lon="-3.38342">
        <ele>2597.8</ele>
        <time>2021-08-05 11:41:06</time>
      </trkpt>
      <trkpt lat="37.08917" lon="-3.38342">
        <ele>2597.8</ele>
        <time>2021-08-05 11:41:07</time>
      </trkpt>
      <trkpt lat="37.08916" lon="-3.38342">
        <ele>2597.8</ele>
        <time>2021-08-05 11:41:08</time>
      </trkpt>
      <trkpt lat="37.08914" lon="-3.38342">
        <ele>2597.8</ele>
        <time>2021-08-05 11:41:09</time>
      </trkpt>
      <trkpt lat="37.08913" lon="-3.38341">
        <ele>2597.8</ele>
        <time>2021-08-05 11:41:10</time>
      </trkpt>
      <trkpt lat="37.08913" lon="-3.3834">
        <ele>2597.8</ele>
        <time>2021-08-05 11:41:11</time>
      </trkpt>
      <trkpt lat="37.08913" lon="-3.3834">
        <ele>2597.8</ele>
        <time>2021-08-05 11:41:12</time>
      </trkpt>
      <trkpt lat="37.08913" lon="-3.3834">
        <ele>2597.8</ele>
        <time>2021-08-05 11:41:13</time>
      </trkpt>
      <trkpt lat="37.08913" lon="-3.3834">
        <ele>2597.8</ele>
        <time>2021-08-05 11:41:14</time>
      </trkpt>
      <trkpt lat="37.08913" lon="-3.3834">
        <ele>2597.8</ele>
        <time>2021-08-05 11:41:15</time>
      </trkpt>
      <trkpt lat="37.08913" lon="-3.38341">
        <ele>2598</ele>
        <time>2021-08-05 11:41:16</time>
      </trkpt>
      <trkpt lat="37.08913" lon="-3.38342">
        <ele>2598.2</ele>
        <time>2021-08-05 11:41:17</time>
      </trkpt>
      <trkpt lat="37.08913" lon="-3.38343">
        <ele>2598.2</ele>
        <time>2021-08-05 11:41:18</time>
      </trkpt>
      <trkpt lat="37.08913" lon="-3.38342">
        <ele>2598.4</ele>
        <time>2021-08-05 11:41:19</time>
      </trkpt>
      <trkpt lat="37.08912" lon="-3.38342">
        <ele>2598.4</ele>
        <time>2021-08-05 11:41:20</time>
      </trkpt>
      <trkpt lat="37.08911" lon="-3.38341">
        <ele>2598.2</ele>
        <time>2021-08-05 11:41:21</time>
      </trkpt>
      <trkpt lat="37.08911" lon="-3.38342">
        <ele>2598</ele>
        <time>2021-08-05 11:41:22</time>
      </trkpt>
      <trkpt lat="37.0891" lon="-3.38341">
        <ele>2598</ele>
        <time>2021-08-05 11:41:23</time>
      </trkpt>
      <trkpt lat="37.0891" lon="-3.38342">
        <ele>2597.8</ele>
        <time>2021-08-05 11:41:24</time>
      </trkpt>
      <trkpt lat="37.08909" lon="-3.38341">
        <ele>2597.6</ele>
        <time>2021-08-05 11:41:25</time>
      </trkpt>
      <trkpt lat="37.08908" lon="-3.3834">
        <ele>2597.6</ele>
        <time>2021-08-05 11:41:26</time>
      </trkpt>
      <trkpt lat="37.08907" lon="-3.38339">
        <ele>2597.8</ele>
        <time>2021-08-05 11:41:27</time>
      </trkpt>
      <trkpt lat="37.08906" lon="-3.38339">
        <ele>2598.2</ele>
        <time>2021-08-05 11:41:28</time>
      </trkpt>
      <trkpt lat="37.08905" lon="-3.38338">
        <ele>2598.4</ele>
        <time>2021-08-05 11:41:29</time>
      </trkpt>
      <trkpt lat="37.08904" lon="-3.38338">
        <ele>2598.6</ele>
        <time>2021-08-05 11:41:30</time>
      </trkpt>
      <trkpt lat="37.08903" lon="-3.38337">
        <ele>2598.6</ele>
        <time>2021-08-05 11:41:31</time>
      </trkpt>
      <trkpt lat="37.08902" lon="-3.38336">
        <ele>2598.6</ele>
        <time>2021-08-05 11:41:32</time>
      </trkpt>
      <trkpt lat="37.08901" lon="-3.38336">
        <ele>2598.6</ele>
        <time>2021-08-05 11:41:33</time>
      </trkpt>
      <trkpt lat="37.08899" lon="-3.38335">
        <ele>2599</ele>
        <time>2021-08-05 11:41:34</time>
      </trkpt>
      <trkpt lat="37.08898" lon="-3.38334">
        <ele>2599</ele>
        <time>2021-08-05 11:41:35</time>
      </trkpt>
      <trkpt lat="37.08897" lon="-3.38334">
        <ele>2599.2</ele>
        <time>2021-08-05 11:41:36</time>
      </trkpt>
      <trkpt lat="37.08897" lon="-3.38335">
        <ele>2599.2</ele>
        <time>2021-08-05 11:41:37</time>
      </trkpt>
      <trkpt lat="37.08896" lon="-3.38334">
        <ele>2599.2</ele>
        <time>2021-08-05 11:41:38</time>
      </trkpt>
      <trkpt lat="37.08895" lon="-3.38334">
        <ele>2599.2</ele>
        <time>2021-08-05 11:41:39</time>
      </trkpt>
      <trkpt lat="37.08894" lon="-3.38332">
        <ele>2599.4</ele>
        <time>2021-08-05 11:41:40</time>
      </trkpt>
      <trkpt lat="37.08893" lon="-3.38331">
        <ele>2599.2</ele>
        <time>2021-08-05 11:41:41</time>
      </trkpt>
      <trkpt lat="37.08892" lon="-3.3833">
        <ele>2599</ele>
        <time>2021-08-05 11:41:42</time>
      </trkpt>
      <trkpt lat="37.08891" lon="-3.3833">
        <ele>2599</ele>
        <time>2021-08-05 11:41:43</time>
      </trkpt>
      <trkpt lat="37.0889" lon="-3.3833">
        <ele>2599.4</ele>
        <time>2021-08-05 11:41:44</time>
      </trkpt>
      <trkpt lat="37.08889" lon="-3.38329">
        <ele>2599.2</ele>
        <time>2021-08-05 11:41:45</time>
      </trkpt>
      <trkpt lat="37.08888" lon="-3.38328">
        <ele>2599.2</ele>
        <time>2021-08-05 11:41:46</time>
      </trkpt>
      <trkpt lat="37.08887" lon="-3.38328">
        <ele>2599.2</ele>
        <time>2021-08-05 11:41:47</time>
      </trkpt>
      <trkpt lat="37.08886" lon="-3.38328">
        <ele>2599.6</ele>
        <time>2021-08-05 11:41:48</time>
      </trkpt>
      <trkpt lat="37.08886" lon="-3.38329">
        <ele>2599.6</ele>
        <time>2021-08-05 11:41:49</time>
      </trkpt>
      <trkpt lat="37.08885" lon="-3.38329">
        <ele>2599.6</ele>
        <time>2021-08-05 11:41:50</time>
      </trkpt>
      <trkpt lat="37.08883" lon="-3.38328">
        <ele>2599.8</ele>
        <time>2021-08-05 11:41:51</time>
      </trkpt>
      <trkpt lat="37.08882" lon="-3.38328">
        <ele>2599.8</ele>
        <time>2021-08-05 11:41:52</time>
      </trkpt>
      <trkpt lat="37.08882" lon="-3.38328">
        <ele>2599.8</ele>
        <time>2021-08-05 11:41:53</time>
      </trkpt>
      <trkpt lat="37.08881" lon="-3.38328">
        <ele>2599.8</ele>
        <time>2021-08-05 11:41:54</time>
      </trkpt>
      <trkpt lat="37.0888" lon="-3.38328">
        <ele>2599.8</ele>
        <time>2021-08-05 11:41:55</time>
      </trkpt>
      <trkpt lat="37.08879" lon="-3.38327">
        <ele>2599.8</ele>
        <time>2021-08-05 11:41:56</time>
      </trkpt>
      <trkpt lat="37.08878" lon="-3.38327">
        <ele>2600</ele>
        <time>2021-08-05 11:41:57</time>
      </trkpt>
      <trkpt lat="37.08878" lon="-3.38326">
        <ele>2600.2</ele>
        <time>2021-08-05 11:41:58</time>
      </trkpt>
      <trkpt lat="37.08877" lon="-3.38326">
        <ele>2600.2</ele>
        <time>2021-08-05 11:41:59</time>
      </trkpt>
      <trkpt lat="37.08876" lon="-3.38325">
        <ele>2600.2</ele>
        <time>2021-08-05 11:42:00</time>
      </trkpt>
      <trkpt lat="37.08875" lon="-3.38324">
        <ele>2600.4</ele>
        <time>2021-08-05 11:42:01</time>
      </trkpt>
      <trkpt lat="37.08873" lon="-3.38323">
        <ele>2600.6</ele>
        <time>2021-08-05 11:42:02</time>
      </trkpt>
      <trkpt lat="37.08872" lon="-3.38323">
        <ele>2600.8</ele>
        <time>2021-08-05 11:42:03</time>
      </trkpt>
      <trkpt lat="37.08871" lon="-3.38322">
        <ele>2600.8</ele>
        <time>2021-08-05 11:42:04</time>
      </trkpt>
      <trkpt lat="37.0887" lon="-3.38322">
        <ele>2600.4</ele>
        <time>2021-08-05 11:42:05</time>
      </trkpt>
      <trkpt lat="37.08869" lon="-3.38322">
        <ele>2600.2</ele>
        <time>2021-08-05 11:42:06</time>
      </trkpt>
      <trkpt lat="37.08868" lon="-3.38322">
        <ele>2600</ele>
        <time>2021-08-05 11:42:07</time>
      </trkpt>
      <trkpt lat="37.08867" lon="-3.38321">
        <ele>2599.8</ele>
        <time>2021-08-05 11:42:08</time>
      </trkpt>
      <trkpt lat="37.08866" lon="-3.38321">
        <ele>2599.8</ele>
        <time>2021-08-05 11:42:09</time>
      </trkpt>
      <trkpt lat="37.08864" lon="-3.38319">
        <ele>2599.6</ele>
        <time>2021-08-05 11:42:10</time>
      </trkpt>
      <trkpt lat="37.08863" lon="-3.38317">
        <ele>2599.4</ele>
        <time>2021-08-05 11:42:11</time>
      </trkpt>
      <trkpt lat="37.08863" lon="-3.38317">
        <ele>2599.4</ele>
        <time>2021-08-05 11:42:12</time>
      </trkpt>
      <trkpt lat="37.08863" lon="-3.38316">
        <ele>2599.2</ele>
        <time>2021-08-05 11:42:13</time>
      </trkpt>
      <trkpt lat="37.08862" lon="-3.38316">
        <ele>2599.2</ele>
        <time>2021-08-05 11:42:14</time>
      </trkpt>
      <trkpt lat="37.08862" lon="-3.38316">
        <ele>2599.2</ele>
        <time>2021-08-05 11:42:15</time>
      </trkpt>
      <trkpt lat="37.08862" lon="-3.38315">
        <ele>2599</ele>
        <time>2021-08-05 11:42:16</time>
      </trkpt>
      <trkpt lat="37.08861" lon="-3.38315">
        <ele>2598.8</ele>
        <time>2021-08-05 11:42:17</time>
      </trkpt>
      <trkpt lat="37.08861" lon="-3.38315">
        <ele>2598.6</ele>
        <time>2021-08-05 11:42:18</time>
      </trkpt>
      <trkpt lat="37.0886" lon="-3.38315">
        <ele>2598.6</ele>
        <time>2021-08-05 11:42:19</time>
      </trkpt>
      <trkpt lat="37.0886" lon="-3.38315">
        <ele>2598.4</ele>
        <time>2021-08-05 11:42:20</time>
      </trkpt>
      <trkpt lat="37.0886" lon="-3.38315">
        <ele>2598.6</ele>
        <time>2021-08-05 11:42:21</time>
      </trkpt>
      <trkpt lat="37.0886" lon="-3.38316">
        <ele>2598.6</ele>
        <time>2021-08-05 11:42:22</time>
      </trkpt>
      <trkpt lat="37.08859" lon="-3.38316">
        <ele>2598.8</ele>
        <time>2021-08-05 11:42:23</time>
      </trkpt>
      <trkpt lat="37.08859" lon="-3.38317">
        <ele>2598.8</ele>
        <time>2021-08-05 11:42:24</time>
      </trkpt>
      <trkpt lat="37.0886" lon="-3.38317">
        <ele>2598.8</ele>
        <time>2021-08-05 11:42:25</time>
      </trkpt>
      <trkpt lat="37.0886" lon="-3.38318">
        <ele>2598.8</ele>
        <time>2021-08-05 11:42:26</time>
      </trkpt>
      <trkpt lat="37.0886" lon="-3.38318">
        <ele>2598.8</ele>
        <time>2021-08-05 11:42:27</time>
      </trkpt>
      <trkpt lat="37.08861" lon="-3.38317">
        <ele>2598.8</ele>
        <time>2021-08-05 11:42:28</time>
      </trkpt>
      <trkpt lat="37.08861" lon="-3.38317">
        <ele>2598.8</ele>
        <time>2021-08-05 11:42:29</time>
      </trkpt>
      <trkpt lat="37.08861" lon="-3.38318">
        <ele>2598.8</ele>
        <time>2021-08-05 11:42:30</time>
      </trkpt>
      <trkpt lat="37.08861" lon="-3.38318">
        <ele>2598.8</ele>
        <time>2021-08-05 11:42:31</time>
      </trkpt>
      <trkpt lat="37.08861" lon="-3.38318">
        <ele>2598.8</ele>
        <time>2021-08-05 11:42:32</time>
      </trkpt>
      <trkpt lat="37.08861" lon="-3.38318">
        <ele>2598.8</ele>
        <time>2021-08-05 11:42:33</time>
      </trkpt>
      <trkpt lat="37.08861" lon="-3.38318">
        <ele>2598.8</ele>
        <time>2021-08-05 11:42:34</time>
      </trkpt>
      <trkpt lat="37.08861" lon="-3.38318">
        <ele>2598.8</ele>
        <time>2021-08-05 11:42:35</time>
      </trkpt>
      <trkpt lat="37.08861" lon="-3.38319">
        <ele>2598.8</ele>
        <time>2021-08-05 11:42:36</time>
      </trkpt>
      <trkpt lat="37.08861" lon="-3.38319">
        <ele>2598.8</ele>
        <time>2021-08-05 11:42:37</time>
      </trkpt>
      <trkpt lat="37.08861" lon="-3.38319">
        <ele>2598.8</ele>
        <time>2021-08-05 11:42:38</time>
      </trkpt>
      <trkpt lat="37.08861" lon="-3.38319">
        <ele>2598.8</ele>
        <time>2021-08-05 11:42:39</time>
      </trkpt>
      <trkpt lat="37.0886" lon="-3.38319">
        <ele>2598.8</ele>
        <time>2021-08-05 11:42:40</time>
      </trkpt>
      <trkpt lat="37.0886" lon="-3.38319">
        <ele>2598.8</ele>
        <time>2021-08-05 11:42:41</time>
      </trkpt>
      <trkpt lat="37.0886" lon="-3.38319">
        <ele>2598.8</ele>
        <time>2021-08-05 11:42:42</time>
      </trkpt>
      <trkpt lat="37.0886" lon="-3.38319">
        <ele>2598.8</ele>
        <time>2021-08-05 11:42:43</time>
      </trkpt>
      <trkpt lat="37.0886" lon="-3.38319">
        <ele>2598.8</ele>
        <time>2021-08-05 11:42:44</time>
      </trkpt>
      <trkpt lat="37.0886" lon="-3.3832">
        <ele>2598.8</ele>
        <time>2021-08-05 11:42:45</time>
      </trkpt>
      <trkpt lat="37.0886" lon="-3.3832">
        <ele>2598.8</ele>
        <time>2021-08-05 11:42:46</time>
      </trkpt>
      <trkpt lat="37.0886" lon="-3.3832">
        <ele>2598.8</ele>
        <time>2021-08-05 11:42:47</time>
      </trkpt>
      <trkpt lat="37.08859" lon="-3.38319">
        <ele>2598.8</ele>
        <time>2021-08-05 11:42:48</time>
      </trkpt>
      <trkpt lat="37.0886" lon="-3.38317">
        <ele>2598.8</ele>
        <time>2021-08-05 11:42:49</time>
      </trkpt>
      <trkpt lat="37.08859" lon="-3.38317">
        <ele>2598.8</ele>
        <time>2021-08-05 11:42:50</time>
      </trkpt>
      <trkpt lat="37.08858" lon="-3.38316">
        <ele>2598.8</ele>
        <time>2021-08-05 11:42:51</time>
      </trkpt>
      <trkpt lat="37.08857" lon="-3.38316">
        <ele>2598.8</ele>
        <time>2021-08-05 11:42:52</time>
      </trkpt>
      <trkpt lat="37.08856" lon="-3.38315">
        <ele>2598.8</ele>
        <time>2021-08-05 11:42:53</time>
      </trkpt>
      <trkpt lat="37.08855" lon="-3.38316">
        <ele>2598.8</ele>
        <time>2021-08-05 11:42:54</time>
      </trkpt>
      <trkpt lat="37.08854" lon="-3.38315">
        <ele>2598.8</ele>
        <time>2021-08-05 11:42:55</time>
      </trkpt>
      <trkpt lat="37.08853" lon="-3.38315">
        <ele>2598.8</ele>
        <time>2021-08-05 11:42:56</time>
      </trkpt>
      <trkpt lat="37.08852" lon="-3.38315">
        <ele>2598.8</ele>
        <time>2021-08-05 11:42:57</time>
      </trkpt>
      <trkpt lat="37.08851" lon="-3.38315">
        <ele>2599</ele>
        <time>2021-08-05 11:42:58</time>
      </trkpt>
      <trkpt lat="37.0885" lon="-3.38315">
        <ele>2599.4</ele>
        <time>2021-08-05 11:42:59</time>
      </trkpt>
      <trkpt lat="37.08849" lon="-3.38315">
        <ele>2599.6</ele>
        <time>2021-08-05 11:43:00</time>
      </trkpt>
      <trkpt lat="37.08848" lon="-3.38315">
        <ele>2599.6</ele>
        <time>2021-08-05 11:43:01</time>
      </trkpt>
      <trkpt lat="37.08847" lon="-3.38315">
        <ele>2599.4</ele>
        <time>2021-08-05 11:43:02</time>
      </trkpt>
      <trkpt lat="37.08846" lon="-3.38315">
        <ele>2599.4</ele>
        <time>2021-08-05 11:43:03</time>
      </trkpt>
      <trkpt lat="37.08846" lon="-3.38315">
        <ele>2599.6</ele>
        <time>2021-08-05 11:43:04</time>
      </trkpt>
      <trkpt lat="37.08845" lon="-3.38315">
        <ele>2599.6</ele>
        <time>2021-08-05 11:43:05</time>
      </trkpt>
      <trkpt lat="37.08844" lon="-3.38314">
        <ele>2599.6</ele>
        <time>2021-08-05 11:43:06</time>
      </trkpt>
      <trkpt lat="37.08843" lon="-3.38314">
        <ele>2599.6</ele>
        <time>2021-08-05 11:43:07</time>
      </trkpt>
      <trkpt lat="37.08842" lon="-3.38313">
        <ele>2599.6</ele>
        <time>2021-08-05 11:43:08</time>
      </trkpt>
      <trkpt lat="37.08841" lon="-3.38312">
        <ele>2599.8</ele>
        <time>2021-08-05 11:43:09</time>
      </trkpt>
      <trkpt lat="37.0884" lon="-3.38311">
        <ele>2599.8</ele>
        <time>2021-08-05 11:43:10</time>
      </trkpt>
      <trkpt lat="37.08839" lon="-3.38311">
        <ele>2599.8</ele>
        <time>2021-08-05 11:43:11</time>
      </trkpt>
      <trkpt lat="37.08839" lon="-3.38311">
        <ele>2599.6</ele>
        <time>2021-08-05 11:43:12</time>
      </trkpt>
      <trkpt lat="37.08838" lon="-3.38311">
        <ele>2599.6</ele>
        <time>2021-08-05 11:43:13</time>
      </trkpt>
      <trkpt lat="37.08837" lon="-3.3831">
        <ele>2599.6</ele>
        <time>2021-08-05 11:43:14</time>
      </trkpt>
      <trkpt lat="37.08836" lon="-3.38309">
        <ele>2599.6</ele>
        <time>2021-08-05 11:43:15</time>
      </trkpt>
      <trkpt lat="37.08835" lon="-3.38307">
        <ele>2599.6</ele>
        <time>2021-08-05 11:43:16</time>
      </trkpt>
      <trkpt lat="37.08834" lon="-3.38307">
        <ele>2599.6</ele>
        <time>2021-08-05 11:43:17</time>
      </trkpt>
      <trkpt lat="37.08832" lon="-3.38306">
        <ele>2600</ele>
        <time>2021-08-05 11:43:18</time>
      </trkpt>
      <trkpt lat="37.08831" lon="-3.38305">
        <ele>2600.2</ele>
        <time>2021-08-05 11:43:19</time>
      </trkpt>
      <trkpt lat="37.0883" lon="-3.38305">
        <ele>2600</ele>
        <time>2021-08-05 11:43:20</time>
      </trkpt>
      <trkpt lat="37.08829" lon="-3.38306">
        <ele>2600</ele>
        <time>2021-08-05 11:43:21</time>
      </trkpt>
      <trkpt lat="37.08829" lon="-3.38306">
        <ele>2599.8</ele>
        <time>2021-08-05 11:43:22</time>
      </trkpt>
      <trkpt lat="37.08828" lon="-3.38306">
        <ele>2600.2</ele>
        <time>2021-08-05 11:43:23</time>
      </trkpt>
      <trkpt lat="37.08827" lon="-3.38306">
        <ele>2600.6</ele>
        <time>2021-08-05 11:43:24</time>
      </trkpt>
      <trkpt lat="37.08826" lon="-3.38305">
        <ele>2600.4</ele>
        <time>2021-08-05 11:43:25</time>
      </trkpt>
      <trkpt lat="37.08825" lon="-3.38305">
        <ele>2600.6</ele>
        <time>2021-08-05 11:43:26</time>
      </trkpt>
      <trkpt lat="37.08824" lon="-3.38304">
        <ele>2601</ele>
        <time>2021-08-05 11:43:27</time>
      </trkpt>
      <trkpt lat="37.08823" lon="-3.38304">
        <ele>2601.4</ele>
        <time>2021-08-05 11:43:28</time>
      </trkpt>
      <trkpt lat="37.08822" lon="-3.38303">
        <ele>2601.6</ele>
        <time>2021-08-05 11:43:29</time>
      </trkpt>
      <trkpt lat="37.08821" lon="-3.38303">
        <ele>2601.8</ele>
        <time>2021-08-05 11:43:30</time>
      </trkpt>
      <trkpt lat="37.0882" lon="-3.38302">
        <ele>2601.8</ele>
        <time>2021-08-05 11:43:31</time>
      </trkpt>
      <trkpt lat="37.08819" lon="-3.38302">
        <ele>2601.8</ele>
        <time>2021-08-05 11:43:32</time>
      </trkpt>
      <trkpt lat="37.08819" lon="-3.38302">
        <ele>2601.8</ele>
        <time>2021-08-05 11:43:33</time>
      </trkpt>
      <trkpt lat="37.08818" lon="-3.38301">
        <ele>2601.8</ele>
        <time>2021-08-05 11:43:34</time>
      </trkpt>
      <trkpt lat="37.08817" lon="-3.38301">
        <ele>2601.6</ele>
        <time>2021-08-05 11:43:35</time>
      </trkpt>
      <trkpt lat="37.08816" lon="-3.38301">
        <ele>2601.6</ele>
        <time>2021-08-05 11:43:36</time>
      </trkpt>
      <trkpt lat="37.08815" lon="-3.38301">
        <ele>2601.6</ele>
        <time>2021-08-05 11:43:37</time>
      </trkpt>
      <trkpt lat="37.08814" lon="-3.383">
        <ele>2601.8</ele>
        <time>2021-08-05 11:43:38</time>
      </trkpt>
      <trkpt lat="37.08812" lon="-3.38299">
        <ele>2601.8</ele>
        <time>2021-08-05 11:43:39</time>
      </trkpt>
      <trkpt lat="37.08811" lon="-3.38298">
        <ele>2602</ele>
        <time>2021-08-05 11:43:40</time>
      </trkpt>
      <trkpt lat="37.0881" lon="-3.38299">
        <ele>2602</ele>
        <time>2021-08-05 11:43:41</time>
      </trkpt>
      <trkpt lat="37.0881" lon="-3.383">
        <ele>2602</ele>
        <time>2021-08-05 11:43:42</time>
      </trkpt>
      <trkpt lat="37.08809" lon="-3.38299">
        <ele>2601.8</ele>
        <time>2021-08-05 11:43:43</time>
      </trkpt>
      <trkpt lat="37.08809" lon="-3.38299">
        <ele>2601.8</ele>
        <time>2021-08-05 11:43:44</time>
      </trkpt>
      <trkpt lat="37.08808" lon="-3.38299">
        <ele>2601.8</ele>
        <time>2021-08-05 11:43:45</time>
      </trkpt>
      <trkpt lat="37.08808" lon="-3.38299">
        <ele>2601.8</ele>
        <time>2021-08-05 11:43:46</time>
      </trkpt>
      <trkpt lat="37.08807" lon="-3.38298">
        <ele>2601.8</ele>
        <time>2021-08-05 11:43:47</time>
      </trkpt>
      <trkpt lat="37.08807" lon="-3.38298">
        <ele>2601.8</ele>
        <time>2021-08-05 11:43:48</time>
      </trkpt>
      <trkpt lat="37.08806" lon="-3.38297">
        <ele>2602</ele>
        <time>2021-08-05 11:43:49</time>
      </trkpt>
      <trkpt lat="37.08805" lon="-3.38297">
        <ele>2602</ele>
        <time>2021-08-05 11:43:50</time>
      </trkpt>
      <trkpt lat="37.08804" lon="-3.38297">
        <ele>2602</ele>
        <time>2021-08-05 11:43:51</time>
      </trkpt>
      <trkpt lat="37.08804" lon="-3.38297">
        <ele>2602.2</ele>
        <time>2021-08-05 11:43:52</time>
      </trkpt>
      <trkpt lat="37.08803" lon="-3.38297">
        <ele>2602.4</ele>
        <time>2021-08-05 11:43:53</time>
      </trkpt>
      <trkpt lat="37.08802" lon="-3.38297">
        <ele>2602.4</ele>
        <time>2021-08-05 11:43:54</time>
      </trkpt>
      <trkpt lat="37.08801" lon="-3.38296">
        <ele>2602.4</ele>
        <time>2021-08-05 11:43:55</time>
      </trkpt>
      <trkpt lat="37.08801" lon="-3.38295">
        <ele>2602.6</ele>
        <time>2021-08-05 11:43:56</time>
      </trkpt>
      <trkpt lat="37.088" lon="-3.38294">
        <ele>2602.8</ele>
        <time>2021-08-05 11:43:57</time>
      </trkpt>
      <trkpt lat="37.088" lon="-3.38294">
        <ele>2602.8</ele>
        <time>2021-08-05 11:43:58</time>
      </trkpt>
      <trkpt lat="37.088" lon="-3.38294">
        <ele>2603</ele>
        <time>2021-08-05 11:43:59</time>
      </trkpt>
      <trkpt lat="37.08799" lon="-3.38294">
        <ele>2603.2</ele>
        <time>2021-08-05 11:44:00</time>
      </trkpt>
      <trkpt lat="37.08798" lon="-3.38294">
        <ele>2603.2</ele>
        <time>2021-08-05 11:44:01</time>
      </trkpt>
      <trkpt lat="37.08797" lon="-3.38293">
        <ele>2603.4</ele>
        <time>2021-08-05 11:44:02</time>
      </trkpt>
      <trkpt lat="37.08796" lon="-3.38293">
        <ele>2603.6</ele>
        <time>2021-08-05 11:44:03</time>
      </trkpt>
      <trkpt lat="37.08796" lon="-3.38293">
        <ele>2603.8</ele>
        <time>2021-08-05 11:44:04</time>
      </trkpt>
      <trkpt lat="37.08795" lon="-3.38291">
        <ele>2603.8</ele>
        <time>2021-08-05 11:44:05</time>
      </trkpt>
      <trkpt lat="37.08795" lon="-3.38291">
        <ele>2604.2</ele>
        <time>2021-08-05 11:44:06</time>
      </trkpt>
      <trkpt lat="37.08795" lon="-3.3829">
        <ele>2604.4</ele>
        <time>2021-08-05 11:44:07</time>
      </trkpt>
      <trkpt lat="37.08794" lon="-3.3829">
        <ele>2604.6</ele>
        <time>2021-08-05 11:44:08</time>
      </trkpt>
      <trkpt lat="37.08794" lon="-3.38289">
        <ele>2604.6</ele>
        <time>2021-08-05 11:44:09</time>
      </trkpt>
      <trkpt lat="37.08792" lon="-3.38289">
        <ele>2604.6</ele>
        <time>2021-08-05 11:44:10</time>
      </trkpt>
      <trkpt lat="37.08792" lon="-3.38289">
        <ele>2604.6</ele>
        <time>2021-08-05 11:44:11</time>
      </trkpt>
      <trkpt lat="37.08792" lon="-3.38289">
        <ele>2604.8</ele>
        <time>2021-08-05 11:44:12</time>
      </trkpt>
      <trkpt lat="37.08792" lon="-3.38289">
        <ele>2604.8</ele>
        <time>2021-08-05 11:44:13</time>
      </trkpt>
      <trkpt lat="37.08792" lon="-3.38289">
        <ele>2604.8</ele>
        <time>2021-08-05 11:44:14</time>
      </trkpt>
      <trkpt lat="37.08792" lon="-3.38289">
        <ele>2604.8</ele>
        <time>2021-08-05 11:44:15</time>
      </trkpt>
      <trkpt lat="37.08792" lon="-3.38289">
        <ele>2605.2</ele>
        <time>2021-08-05 11:44:16</time>
      </trkpt>
      <trkpt lat="37.08792" lon="-3.38289">
        <ele>2605.2</ele>
        <time>2021-08-05 11:44:17</time>
      </trkpt>
      <trkpt lat="37.08793" lon="-3.38289">
        <ele>2605.2</ele>
        <time>2021-08-05 11:44:18</time>
      </trkpt>
      <trkpt lat="37.08793" lon="-3.38289">
        <ele>2605.2</ele>
        <time>2021-08-05 11:44:19</time>
      </trkpt>
      <trkpt lat="37.08793" lon="-3.38288">
        <ele>2605.4</ele>
        <time>2021-08-05 11:44:20</time>
      </trkpt>
      <trkpt lat="37.08793" lon="-3.38288">
        <ele>2605.2</ele>
        <time>2021-08-05 11:44:21</time>
      </trkpt>
      <trkpt lat="37.08793" lon="-3.38288">
        <ele>2605.4</ele>
        <time>2021-08-05 11:44:22</time>
      </trkpt>
      <trkpt lat="37.08792" lon="-3.38287">
        <ele>2605.4</ele>
        <time>2021-08-05 11:44:23</time>
      </trkpt>
      <trkpt lat="37.08792" lon="-3.38287">
        <ele>2605.4</ele>
        <time>2021-08-05 11:44:24</time>
      </trkpt>
      <trkpt lat="37.08791" lon="-3.38288">
        <ele>2605.4</ele>
        <time>2021-08-05 11:44:25</time>
      </trkpt>
      <trkpt lat="37.0879" lon="-3.38288">
        <ele>2605.4</ele>
        <time>2021-08-05 11:44:26</time>
      </trkpt>
      <trkpt lat="37.08789" lon="-3.38289">
        <ele>2605.6</ele>
        <time>2021-08-05 11:44:27</time>
      </trkpt>
      <trkpt lat="37.08789" lon="-3.3829">
        <ele>2605.8</ele>
        <time>2021-08-05 11:44:28</time>
      </trkpt>
      <trkpt lat="37.08788" lon="-3.3829">
        <ele>2606</ele>
        <time>2021-08-05 11:44:29</time>
      </trkpt>
      <trkpt lat="37.08787" lon="-3.3829">
        <ele>2606.2</ele>
        <time>2021-08-05 11:44:30</time>
      </trkpt>
      <trkpt lat="37.08786" lon="-3.38288">
        <ele>2606.2</ele>
        <time>2021-08-05 11:44:31</time>
      </trkpt>
      <trkpt lat="37.08785" lon="-3.38287">
        <ele>2606.2</ele>
        <time>2021-08-05 11:44:32</time>
      </trkpt>
      <trkpt lat="37.08784" lon="-3.38287">
        <ele>2606.4</ele>
        <time>2021-08-05 11:44:33</time>
      </trkpt>
      <trkpt lat="37.08783" lon="-3.38286">
        <ele>2606.4</ele>
        <time>2021-08-05 11:44:34</time>
      </trkpt>
      <trkpt lat="37.08782" lon="-3.38285">
        <ele>2606.4</ele>
        <time>2021-08-05 11:44:35</time>
      </trkpt>
      <trkpt lat="37.08781" lon="-3.38285">
        <ele>2606.2</ele>
        <time>2021-08-05 11:44:36</time>
      </trkpt>
      <trkpt lat="37.0878" lon="-3.38284">
        <ele>2606.2</ele>
        <time>2021-08-05 11:44:37</time>
      </trkpt>
      <trkpt lat="37.0878" lon="-3.38286">
        <ele>2606.2</ele>
        <time>2021-08-05 11:44:38</time>
      </trkpt>
      <trkpt lat="37.08779" lon="-3.38286">
        <ele>2606</ele>
        <time>2021-08-05 11:44:39</time>
      </trkpt>
      <trkpt lat="37.08778" lon="-3.38287">
        <ele>2606</ele>
        <time>2021-08-05 11:44:40</time>
      </trkpt>
      <trkpt lat="37.08777" lon="-3.38287">
        <ele>2606</ele>
        <time>2021-08-05 11:44:41</time>
      </trkpt>
      <trkpt lat="37.08777" lon="-3.38287">
        <ele>2606</ele>
        <time>2021-08-05 11:44:42</time>
      </trkpt>
      <trkpt lat="37.08776" lon="-3.38287">
        <ele>2606</ele>
        <time>2021-08-05 11:44:43</time>
      </trkpt>
      <trkpt lat="37.08775" lon="-3.38287">
        <ele>2606.2</ele>
        <time>2021-08-05 11:44:44</time>
      </trkpt>
      <trkpt lat="37.08775" lon="-3.38287">
        <ele>2606.2</ele>
        <time>2021-08-05 11:44:45</time>
      </trkpt>
      <trkpt lat="37.08774" lon="-3.38287">
        <ele>2606.2</ele>
        <time>2021-08-05 11:44:46</time>
      </trkpt>
      <trkpt lat="37.08773" lon="-3.38288">
        <ele>2606.4</ele>
        <time>2021-08-05 11:44:47</time>
      </trkpt>
      <trkpt lat="37.08772" lon="-3.38288">
        <ele>2606.6</ele>
        <time>2021-08-05 11:44:48</time>
      </trkpt>
      <trkpt lat="37.08771" lon="-3.38288">
        <ele>2607</ele>
        <time>2021-08-05 11:44:49</time>
      </trkpt>
      <trkpt lat="37.0877" lon="-3.38288">
        <ele>2607.2</ele>
        <time>2021-08-05 11:44:50</time>
      </trkpt>
      <trkpt lat="37.08769" lon="-3.38288">
        <ele>2607.4</ele>
        <time>2021-08-05 11:44:51</time>
      </trkpt>
      <trkpt lat="37.08768" lon="-3.38289">
        <ele>2607.6</ele>
        <time>2021-08-05 11:44:52</time>
      </trkpt>
      <trkpt lat="37.08767" lon="-3.38289">
        <ele>2607.6</ele>
        <time>2021-08-05 11:44:53</time>
      </trkpt>
      <trkpt lat="37.08767" lon="-3.38289">
        <ele>2607.6</ele>
        <time>2021-08-05 11:44:54</time>
      </trkpt>
      <trkpt lat="37.08766" lon="-3.38288">
        <ele>2607.4</ele>
        <time>2021-08-05 11:44:55</time>
      </trkpt>
      <trkpt lat="37.08766" lon="-3.38288">
        <ele>2607.4</ele>
        <time>2021-08-05 11:44:56</time>
      </trkpt>
      <trkpt lat="37.08766" lon="-3.38288">
        <ele>2607.2</ele>
        <time>2021-08-05 11:44:57</time>
      </trkpt>
      <trkpt lat="37.08765" lon="-3.38287">
        <ele>2607.2</ele>
        <time>2021-08-05 11:44:58</time>
      </trkpt>
      <trkpt lat="37.08765" lon="-3.38288">
        <ele>2607.2</ele>
        <time>2021-08-05 11:44:59</time>
      </trkpt>
      <trkpt lat="37.08765" lon="-3.38287">
        <ele>2607.2</ele>
        <time>2021-08-05 11:45:00</time>
      </trkpt>
      <trkpt lat="37.08764" lon="-3.38287">
        <ele>2607.2</ele>
        <time>2021-08-05 11:45:01</time>
      </trkpt>
      <trkpt lat="37.08763" lon="-3.38287">
        <ele>2607.2</ele>
        <time>2021-08-05 11:45:02</time>
      </trkpt>
      <trkpt lat="37.08763" lon="-3.38288">
        <ele>2607.4</ele>
        <time>2021-08-05 11:45:03</time>
      </trkpt>
      <trkpt lat="37.08762" lon="-3.38289">
        <ele>2607.4</ele>
        <time>2021-08-05 11:45:04</time>
      </trkpt>
      <trkpt lat="37.08761" lon="-3.38289">
        <ele>2607.6</ele>
        <time>2021-08-05 11:45:05</time>
      </trkpt>
      <trkpt lat="37.08761" lon="-3.3829">
        <ele>2607.6</ele>
        <time>2021-08-05 11:45:06</time>
      </trkpt>
      <trkpt lat="37.0876" lon="-3.3829">
        <ele>2607.6</ele>
        <time>2021-08-05 11:45:07</time>
      </trkpt>
      <trkpt lat="37.08759" lon="-3.38289">
        <ele>2607.6</ele>
        <time>2021-08-05 11:45:08</time>
      </trkpt>
      <trkpt lat="37.08758" lon="-3.38288">
        <ele>2607.6</ele>
        <time>2021-08-05 11:45:09</time>
      </trkpt>
      <trkpt lat="37.08757" lon="-3.38288">
        <ele>2607.6</ele>
        <time>2021-08-05 11:45:10</time>
      </trkpt>
      <trkpt lat="37.08756" lon="-3.38288">
        <ele>2607.8</ele>
        <time>2021-08-05 11:45:11</time>
      </trkpt>
      <trkpt lat="37.08755" lon="-3.38288">
        <ele>2607.8</ele>
        <time>2021-08-05 11:45:12</time>
      </trkpt>
      <trkpt lat="37.08755" lon="-3.38288">
        <ele>2607.6</ele>
        <time>2021-08-05 11:45:13</time>
      </trkpt>
      <trkpt lat="37.08755" lon="-3.38287">
        <ele>2607.6</ele>
        <time>2021-08-05 11:45:14</time>
      </trkpt>
      <trkpt lat="37.08754" lon="-3.38287">
        <ele>2607.6</ele>
        <time>2021-08-05 11:45:15</time>
      </trkpt>
      <trkpt lat="37.08753" lon="-3.38287">
        <ele>2607.4</ele>
        <time>2021-08-05 11:45:16</time>
      </trkpt>
      <trkpt lat="37.08753" lon="-3.38288">
        <ele>2607.2</ele>
        <time>2021-08-05 11:45:17</time>
      </trkpt>
      <trkpt lat="37.08752" lon="-3.38288">
        <ele>2607.2</ele>
        <time>2021-08-05 11:45:18</time>
      </trkpt>
      <trkpt lat="37.08751" lon="-3.38288">
        <ele>2607.2</ele>
        <time>2021-08-05 11:45:19</time>
      </trkpt>
      <trkpt lat="37.08751" lon="-3.38288">
        <ele>2607.2</ele>
        <time>2021-08-05 11:45:20</time>
      </trkpt>
      <trkpt lat="37.0875" lon="-3.38288">
        <ele>2607.4</ele>
        <time>2021-08-05 11:45:21</time>
      </trkpt>
      <trkpt lat="37.0875" lon="-3.38289">
        <ele>2607.8</ele>
        <time>2021-08-05 11:45:22</time>
      </trkpt>
      <trkpt lat="37.0875" lon="-3.38289">
        <ele>2608</ele>
        <time>2021-08-05 11:45:23</time>
      </trkpt>
      <trkpt lat="37.08749" lon="-3.38289">
        <ele>2608.2</ele>
        <time>2021-08-05 11:45:24</time>
      </trkpt>
      <trkpt lat="37.08749" lon="-3.38289">
        <ele>2608.2</ele>
        <time>2021-08-05 11:45:25</time>
      </trkpt>
      <trkpt lat="37.08748" lon="-3.38289">
        <ele>2608.4</ele>
        <time>2021-08-05 11:45:26</time>
      </trkpt>
      <trkpt lat="37.08748" lon="-3.38289">
        <ele>2608.6</ele>
        <time>2021-08-05 11:45:27</time>
      </trkpt>
      <trkpt lat="37.08747" lon="-3.38289">
        <ele>2608.6</ele>
        <time>2021-08-05 11:45:28</time>
      </trkpt>
      <trkpt lat="37.08746" lon="-3.3829">
        <ele>2608.6</ele>
        <time>2021-08-05 11:45:29</time>
      </trkpt>
      <trkpt lat="37.08745" lon="-3.3829">
        <ele>2608.6</ele>
        <time>2021-08-05 11:45:30</time>
      </trkpt>
      <trkpt lat="37.08745" lon="-3.3829">
        <ele>2608.6</ele>
        <time>2021-08-05 11:45:31</time>
      </trkpt>
      <trkpt lat="37.08744" lon="-3.38291">
        <ele>2608.8</ele>
        <time>2021-08-05 11:45:32</time>
      </trkpt>
      <trkpt lat="37.08744" lon="-3.38291">
        <ele>2608.8</ele>
        <time>2021-08-05 11:45:33</time>
      </trkpt>
      <trkpt lat="37.08743" lon="-3.38291">
        <ele>2608.8</ele>
        <time>2021-08-05 11:45:34</time>
      </trkpt>
      <trkpt lat="37.08742" lon="-3.38291">
        <ele>2609</ele>
        <time>2021-08-05 11:45:35</time>
      </trkpt>
      <trkpt lat="37.08741" lon="-3.38291">
        <ele>2609.4</ele>
        <time>2021-08-05 11:45:36</time>
      </trkpt>
      <trkpt lat="37.0874" lon="-3.38291">
        <ele>2609.6</ele>
        <time>2021-08-05 11:45:37</time>
      </trkpt>
      <trkpt lat="37.0874" lon="-3.38291">
        <ele>2609.8</ele>
        <time>2021-08-05 11:45:38</time>
      </trkpt>
      <trkpt lat="37.08739" lon="-3.38291">
        <ele>2609.8</ele>
        <time>2021-08-05 11:45:39</time>
      </trkpt>
      <trkpt lat="37.08738" lon="-3.38291">
        <ele>2609.8</ele>
        <time>2021-08-05 11:45:40</time>
      </trkpt>
      <trkpt lat="37.08738" lon="-3.38291">
        <ele>2609.8</ele>
        <time>2021-08-05 11:45:41</time>
      </trkpt>
      <trkpt lat="37.08737" lon="-3.38292">
        <ele>2609.8</ele>
        <time>2021-08-05 11:45:42</time>
      </trkpt>
      <trkpt lat="37.08737" lon="-3.38291">
        <ele>2609.6</ele>
        <time>2021-08-05 11:45:43</time>
      </trkpt>
      <trkpt lat="37.08736" lon="-3.38291">
        <ele>2609.6</ele>
        <time>2021-08-05 11:45:44</time>
      </trkpt>
      <trkpt lat="37.08735" lon="-3.38291">
        <ele>2609.4</ele>
        <time>2021-08-05 11:45:45</time>
      </trkpt>
      <trkpt lat="37.08734" lon="-3.38291">
        <ele>2609.4</ele>
        <time>2021-08-05 11:45:46</time>
      </trkpt>
      <trkpt lat="37.08733" lon="-3.38291">
        <ele>2609.4</ele>
        <time>2021-08-05 11:45:47</time>
      </trkpt>
      <trkpt lat="37.08733" lon="-3.38291">
        <ele>2609.8</ele>
        <time>2021-08-05 11:45:48</time>
      </trkpt>
      <trkpt lat="37.08732" lon="-3.38291">
        <ele>2609.8</ele>
        <time>2021-08-05 11:45:49</time>
      </trkpt>
      <trkpt lat="37.08731" lon="-3.3829">
        <ele>2610</ele>
        <time>2021-08-05 11:45:50</time>
      </trkpt>
      <trkpt lat="37.0873" lon="-3.38291">
        <ele>2610</ele>
        <time>2021-08-05 11:45:51</time>
      </trkpt>
      <trkpt lat="37.0873" lon="-3.38291">
        <ele>2610.2</ele>
        <time>2021-08-05 11:45:52</time>
      </trkpt>
      <trkpt lat="37.08729" lon="-3.38291">
        <ele>2610.2</ele>
        <time>2021-08-05 11:45:53</time>
      </trkpt>
      <trkpt lat="37.08729" lon="-3.38291">
        <ele>2610.4</ele>
        <time>2021-08-05 11:45:54</time>
      </trkpt>
      <trkpt lat="37.08728" lon="-3.38291">
        <ele>2610.6</ele>
        <time>2021-08-05 11:45:55</time>
      </trkpt>
      <trkpt lat="37.08727" lon="-3.38291">
        <ele>2610.6</ele>
        <time>2021-08-05 11:45:56</time>
      </trkpt>
      <trkpt lat="37.08727" lon="-3.38292">
        <ele>2610.8</ele>
        <time>2021-08-05 11:45:57</time>
      </trkpt>
      <trkpt lat="37.08726" lon="-3.38293">
        <ele>2610.8</ele>
        <time>2021-08-05 11:45:58</time>
      </trkpt>
      <trkpt lat="37.08726" lon="-3.38292">
        <ele>2611</ele>
        <time>2021-08-05 11:45:59</time>
      </trkpt>
      <trkpt lat="37.08725" lon="-3.38291">
        <ele>2611</ele>
        <time>2021-08-05 11:46:00</time>
      </trkpt>
      <trkpt lat="37.08725" lon="-3.3829">
        <ele>2611</ele>
        <time>2021-08-05 11:46:01</time>
      </trkpt>
      <trkpt lat="37.08725" lon="-3.3829">
        <ele>2611</ele>
        <time>2021-08-05 11:46:02</time>
      </trkpt>
      <trkpt lat="37.08724" lon="-3.38289">
        <ele>2610.8</ele>
        <time>2021-08-05 11:46:03</time>
      </trkpt>
      <trkpt lat="37.08724" lon="-3.38289">
        <ele>2610.8</ele>
        <time>2021-08-05 11:46:04</time>
      </trkpt>
      <trkpt lat="37.08723" lon="-3.38289">
        <ele>2610.8</ele>
        <time>2021-08-05 11:46:05</time>
      </trkpt>
      <trkpt lat="37.08723" lon="-3.38289">
        <ele>2610.6</ele>
        <time>2021-08-05 11:46:06</time>
      </trkpt>
      <trkpt lat="37.08722" lon="-3.38287">
        <ele>2610.2</ele>
        <time>2021-08-05 11:46:07</time>
      </trkpt>
      <trkpt lat="37.08722" lon="-3.38287">
        <ele>2610.2</ele>
        <time>2021-08-05 11:46:08</time>
      </trkpt>
      <trkpt lat="37.08722" lon="-3.38286">
        <ele>2610</ele>
        <time>2021-08-05 11:46:09</time>
      </trkpt>
      <trkpt lat="37.08721" lon="-3.38286">
        <ele>2610.2</ele>
        <time>2021-08-05 11:46:10</time>
      </trkpt>
      <trkpt lat="37.08721" lon="-3.38285">
        <ele>2610.2</ele>
        <time>2021-08-05 11:46:11</time>
      </trkpt>
      <trkpt lat="37.08721" lon="-3.38285">
        <ele>2610.2</ele>
        <time>2021-08-05 11:46:12</time>
      </trkpt>
      <trkpt lat="37.08721" lon="-3.38285">
        <ele>2610</ele>
        <time>2021-08-05 11:46:13</time>
      </trkpt>
      <trkpt lat="37.0872" lon="-3.38285">
        <ele>2609.8</ele>
        <time>2021-08-05 11:46:14</time>
      </trkpt>
      <trkpt lat="37.0872" lon="-3.38285">
        <ele>2609.8</ele>
        <time>2021-08-05 11:46:15</time>
      </trkpt>
      <trkpt lat="37.08719" lon="-3.38285">
        <ele>2609.6</ele>
        <time>2021-08-05 11:46:16</time>
      </trkpt>
      <trkpt lat="37.08719" lon="-3.38285">
        <ele>2609.4</ele>
        <time>2021-08-05 11:46:17</time>
      </trkpt>
      <trkpt lat="37.08718" lon="-3.38285">
        <ele>2609.4</ele>
        <time>2021-08-05 11:46:18</time>
      </trkpt>
      <trkpt lat="37.08717" lon="-3.38284">
        <ele>2609.2</ele>
        <time>2021-08-05 11:46:19</time>
      </trkpt>
      <trkpt lat="37.08716" lon="-3.38284">
        <ele>2609</ele>
        <time>2021-08-05 11:46:20</time>
      </trkpt>
      <trkpt lat="37.08716" lon="-3.38284">
        <ele>2608.8</ele>
        <time>2021-08-05 11:46:21</time>
      </trkpt>
      <trkpt lat="37.08715" lon="-3.38283">
        <ele>2608.8</ele>
        <time>2021-08-05 11:46:22</time>
      </trkpt>
      <trkpt lat="37.08715" lon="-3.38283">
        <ele>2608.8</ele>
        <time>2021-08-05 11:46:23</time>
      </trkpt>
      <trkpt lat="37.08714" lon="-3.38283">
        <ele>2608.8</ele>
        <time>2021-08-05 11:46:24</time>
      </trkpt>
      <trkpt lat="37.08714" lon="-3.38283">
        <ele>2608.6</ele>
        <time>2021-08-05 11:46:25</time>
      </trkpt>
      <trkpt lat="37.08713" lon="-3.38283">
        <ele>2608.4</ele>
        <time>2021-08-05 11:46:26</time>
      </trkpt>
      <trkpt lat="37.08713" lon="-3.38283">
        <ele>2608.2</ele>
        <time>2021-08-05 11:46:27</time>
      </trkpt>
      <trkpt lat="37.08712" lon="-3.38283">
        <ele>2608</ele>
        <time>2021-08-05 11:46:28</time>
      </trkpt>
      <trkpt lat="37.08711" lon="-3.38283">
        <ele>2607.8</ele>
        <time>2021-08-05 11:46:29</time>
      </trkpt>
      <trkpt lat="37.0871" lon="-3.38283">
        <ele>2607.6</ele>
        <time>2021-08-05 11:46:30</time>
      </trkpt>
      <trkpt lat="37.08709" lon="-3.38283">
        <ele>2607.6</ele>
        <time>2021-08-05 11:46:31</time>
      </trkpt>
      <trkpt lat="37.08709" lon="-3.38285">
        <ele>2607.6</ele>
        <time>2021-08-05 11:46:32</time>
      </trkpt>
      <trkpt lat="37.08709" lon="-3.38285">
        <ele>2607.6</ele>
        <time>2021-08-05 11:46:33</time>
      </trkpt>
      <trkpt lat="37.08709" lon="-3.38286">
        <ele>2607.6</ele>
        <time>2021-08-05 11:46:34</time>
      </trkpt>
      <trkpt lat="37.08708" lon="-3.38287">
        <ele>2607.6</ele>
        <time>2021-08-05 11:46:35</time>
      </trkpt>
      <trkpt lat="37.08707" lon="-3.38287">
        <ele>2607.6</ele>
        <time>2021-08-05 11:46:36</time>
      </trkpt>
      <trkpt lat="37.08707" lon="-3.38288">
        <ele>2607.8</ele>
        <time>2021-08-05 11:46:37</time>
      </trkpt>
      <trkpt lat="37.08707" lon="-3.38288">
        <ele>2607.8</ele>
        <time>2021-08-05 11:46:38</time>
      </trkpt>
      <trkpt lat="37.08706" lon="-3.38288">
        <ele>2607.8</ele>
        <time>2021-08-05 11:46:39</time>
      </trkpt>
      <trkpt lat="37.08706" lon="-3.38288">
        <ele>2607.8</ele>
        <time>2021-08-05 11:46:40</time>
      </trkpt>
      <trkpt lat="37.08706" lon="-3.38288">
        <ele>2608</ele>
        <time>2021-08-05 11:46:41</time>
      </trkpt>
      <trkpt lat="37.08705" lon="-3.38287">
        <ele>2608</ele>
        <time>2021-08-05 11:46:42</time>
      </trkpt>
      <trkpt lat="37.08704" lon="-3.38287">
        <ele>2608.2</ele>
        <time>2021-08-05 11:46:43</time>
      </trkpt>
      <trkpt lat="37.08704" lon="-3.38287">
        <ele>2608.4</ele>
        <time>2021-08-05 11:46:44</time>
      </trkpt>
      <trkpt lat="37.08704" lon="-3.38286">
        <ele>2608.4</ele>
        <time>2021-08-05 11:46:45</time>
      </trkpt>
      <trkpt lat="37.08703" lon="-3.38286">
        <ele>2608.6</ele>
        <time>2021-08-05 11:46:46</time>
      </trkpt>
      <trkpt lat="37.08703" lon="-3.38285">
        <ele>2608.6</ele>
        <time>2021-08-05 11:46:47</time>
      </trkpt>
      <trkpt lat="37.08702" lon="-3.38285">
        <ele>2608.6</ele>
        <time>2021-08-05 11:46:48</time>
      </trkpt>
      <trkpt lat="37.08701" lon="-3.38284">
        <ele>2608.6</ele>
        <time>2021-08-05 11:46:49</time>
      </trkpt>
      <trkpt lat="37.087" lon="-3.38284">
        <ele>2608.6</ele>
        <time>2021-08-05 11:46:50</time>
      </trkpt>
      <trkpt lat="37.087" lon="-3.38284">
        <ele>2608.8</ele>
        <time>2021-08-05 11:46:51</time>
      </trkpt>
      <trkpt lat="37.08699" lon="-3.38284">
        <ele>2608.8</ele>
        <time>2021-08-05 11:46:52</time>
      </trkpt>
      <trkpt lat="37.08698" lon="-3.38284">
        <ele>2609</ele>
        <time>2021-08-05 11:46:53</time>
      </trkpt>
      <trkpt lat="37.08698" lon="-3.38284">
        <ele>2609</ele>
        <time>2021-08-05 11:46:54</time>
      </trkpt>
      <trkpt lat="37.08697" lon="-3.38284">
        <ele>2609.2</ele>
        <time>2021-08-05 11:46:55</time>
      </trkpt>
      <trkpt lat="37.08696" lon="-3.38285">
        <ele>2609.2</ele>
        <time>2021-08-05 11:46:56</time>
      </trkpt>
      <trkpt lat="37.08695" lon="-3.38286">
        <ele>2609.2</ele>
        <time>2021-08-05 11:46:57</time>
      </trkpt>
      <trkpt lat="37.08694" lon="-3.38287">
        <ele>2609.4</ele>
        <time>2021-08-05 11:46:58</time>
      </trkpt>
      <trkpt lat="37.08693" lon="-3.38287">
        <ele>2609.4</ele>
        <time>2021-08-05 11:46:59</time>
      </trkpt>
      <trkpt lat="37.08692" lon="-3.38287">
        <ele>2609.6</ele>
        <time>2021-08-05 11:47:00</time>
      </trkpt>
      <trkpt lat="37.08691" lon="-3.38287">
        <ele>2609.8</ele>
        <time>2021-08-05 11:47:01</time>
      </trkpt>
      <trkpt lat="37.08691" lon="-3.38287">
        <ele>2609.8</ele>
        <time>2021-08-05 11:47:02</time>
      </trkpt>
      <trkpt lat="37.08691" lon="-3.38286">
        <ele>2610</ele>
        <time>2021-08-05 11:47:03</time>
      </trkpt>
      <trkpt lat="37.08691" lon="-3.38286">
        <ele>2610.2</ele>
        <time>2021-08-05 11:47:04</time>
      </trkpt>
      <trkpt lat="37.0869" lon="-3.38286">
        <ele>2610.2</ele>
        <time>2021-08-05 11:47:05</time>
      </trkpt>
      <trkpt lat="37.08689" lon="-3.38285">
        <ele>2610.4</ele>
        <time>2021-08-05 11:47:06</time>
      </trkpt>
      <trkpt lat="37.08689" lon="-3.38285">
        <ele>2610.6</ele>
        <time>2021-08-05 11:47:07</time>
      </trkpt>
      <trkpt lat="37.08688" lon="-3.38284">
        <ele>2610.6</ele>
        <time>2021-08-05 11:47:08</time>
      </trkpt>
      <trkpt lat="37.08687" lon="-3.38282">
        <ele>2610.8</ele>
        <time>2021-08-05 11:47:09</time>
      </trkpt>
      <trkpt lat="37.08687" lon="-3.38282">
        <ele>2610.8</ele>
        <time>2021-08-05 11:47:10</time>
      </trkpt>
      <trkpt lat="37.08686" lon="-3.38281">
        <ele>2611</ele>
        <time>2021-08-05 11:47:11</time>
      </trkpt>
      <trkpt lat="37.08686" lon="-3.3828">
        <ele>2611.2</ele>
        <time>2021-08-05 11:47:12</time>
      </trkpt>
      <trkpt lat="37.08685" lon="-3.38278">
        <ele>2611.4</ele>
        <time>2021-08-05 11:47:13</time>
      </trkpt>
      <trkpt lat="37.08685" lon="-3.38275">
        <ele>2611.4</ele>
        <time>2021-08-05 11:47:14</time>
      </trkpt>
      <trkpt lat="37.08686" lon="-3.38275">
        <ele>2611.6</ele>
        <time>2021-08-05 11:47:15</time>
      </trkpt>
      <trkpt lat="37.08687" lon="-3.38273">
        <ele>2611.8</ele>
        <time>2021-08-05 11:47:16</time>
      </trkpt>
      <trkpt lat="37.08688" lon="-3.38273">
        <ele>2612</ele>
        <time>2021-08-05 11:47:17</time>
      </trkpt>
      <trkpt lat="37.08688" lon="-3.38272">
        <ele>2612</ele>
        <time>2021-08-05 11:47:18</time>
      </trkpt>
      <trkpt lat="37.08688" lon="-3.38271">
        <ele>2612.2</ele>
        <time>2021-08-05 11:47:19</time>
      </trkpt>
      <trkpt lat="37.08687" lon="-3.3827">
        <ele>2612.4</ele>
        <time>2021-08-05 11:47:20</time>
      </trkpt>
      <trkpt lat="37.08687" lon="-3.38269">
        <ele>2612.4</ele>
        <time>2021-08-05 11:47:21</time>
      </trkpt>
      <trkpt lat="37.08687" lon="-3.38268">
        <ele>2612.6</ele>
        <time>2021-08-05 11:47:22</time>
      </trkpt>
      <trkpt lat="37.08686" lon="-3.38267">
        <ele>2612.6</ele>
        <time>2021-08-05 11:47:23</time>
      </trkpt>
      <trkpt lat="37.08686" lon="-3.38266">
        <ele>2612.6</ele>
        <time>2021-08-05 11:47:24</time>
      </trkpt>
      <trkpt lat="37.08685" lon="-3.38265">
        <ele>2612.6</ele>
        <time>2021-08-05 11:47:25</time>
      </trkpt>
      <trkpt lat="37.08685" lon="-3.38266">
        <ele>2612.6</ele>
        <time>2021-08-05 11:47:26</time>
      </trkpt>
      <trkpt lat="37.08684" lon="-3.38266">
        <ele>2612.6</ele>
        <time>2021-08-05 11:47:27</time>
      </trkpt>
      <trkpt lat="37.08683" lon="-3.38266">
        <ele>2612.6</ele>
        <time>2021-08-05 11:47:28</time>
      </trkpt>
      <trkpt lat="37.08681" lon="-3.38265">
        <ele>2612.6</ele>
        <time>2021-08-05 11:47:29</time>
      </trkpt>
      <trkpt lat="37.08681" lon="-3.38265">
        <ele>2612.6</ele>
        <time>2021-08-05 11:47:30</time>
      </trkpt>
      <trkpt lat="37.0868" lon="-3.38265">
        <ele>2612.8</ele>
        <time>2021-08-05 11:47:31</time>
      </trkpt>
      <trkpt lat="37.08679" lon="-3.38265">
        <ele>2613</ele>
        <time>2021-08-05 11:47:32</time>
      </trkpt>
      <trkpt lat="37.08679" lon="-3.38265">
        <ele>2613</ele>
        <time>2021-08-05 11:47:33</time>
      </trkpt>
      <trkpt lat="37.08678" lon="-3.38264">
        <ele>2613.2</ele>
        <time>2021-08-05 11:47:34</time>
      </trkpt>
      <trkpt lat="37.08678" lon="-3.38264">
        <ele>2613.4</ele>
        <time>2021-08-05 11:47:35</time>
      </trkpt>
      <trkpt lat="37.08677" lon="-3.38264">
        <ele>2613.6</ele>
        <time>2021-08-05 11:47:36</time>
      </trkpt>
      <trkpt lat="37.08677" lon="-3.38264">
        <ele>2613.6</ele>
        <time>2021-08-05 11:47:37</time>
      </trkpt>
      <trkpt lat="37.08677" lon="-3.38263">
        <ele>2613.6</ele>
        <time>2021-08-05 11:47:38</time>
      </trkpt>
      <trkpt lat="37.08676" lon="-3.38263">
        <ele>2613.8</ele>
        <time>2021-08-05 11:47:39</time>
      </trkpt>
      <trkpt lat="37.08676" lon="-3.38263">
        <ele>2614</ele>
        <time>2021-08-05 11:47:40</time>
      </trkpt>
      <trkpt lat="37.08676" lon="-3.38263">
        <ele>2614</ele>
        <time>2021-08-05 11:47:41</time>
      </trkpt>
      <trkpt lat="37.08675" lon="-3.38262">
        <ele>2614</ele>
        <time>2021-08-05 11:47:42</time>
      </trkpt>
      <trkpt lat="37.08674" lon="-3.38262">
        <ele>2614.2</ele>
        <time>2021-08-05 11:47:43</time>
      </trkpt>
      <trkpt lat="37.08674" lon="-3.38262">
        <ele>2614.2</ele>
        <time>2021-08-05 11:47:44</time>
      </trkpt>
      <trkpt lat="37.08671" lon="-3.38261">
        <ele>2614.2</ele>
        <time>2021-08-05 11:47:45</time>
      </trkpt>
      <trkpt lat="37.0867" lon="-3.38261">
        <ele>2614.4</ele>
        <time>2021-08-05 11:47:46</time>
      </trkpt>
      <trkpt lat="37.08669" lon="-3.38262">
        <ele>2614.4</ele>
        <time>2021-08-05 11:47:47</time>
      </trkpt>
      <trkpt lat="37.08669" lon="-3.38262">
        <ele>2614.6</ele>
        <time>2021-08-05 11:47:48</time>
      </trkpt>
      <trkpt lat="37.08668" lon="-3.38262">
        <ele>2614.8</ele>
        <time>2021-08-05 11:47:49</time>
      </trkpt>
      <trkpt lat="37.08668" lon="-3.38261">
        <ele>2615</ele>
        <time>2021-08-05 11:47:50</time>
      </trkpt>
      <trkpt lat="37.08669" lon="-3.38261">
        <ele>2615.2</ele>
        <time>2021-08-05 11:47:51</time>
      </trkpt>
      <trkpt lat="37.0867" lon="-3.38262">
        <ele>2615.2</ele>
        <time>2021-08-05 11:47:52</time>
      </trkpt>
      <trkpt lat="37.0867" lon="-3.38261">
        <ele>2615.4</ele>
        <time>2021-08-05 11:47:53</time>
      </trkpt>
      <trkpt lat="37.08669" lon="-3.38261">
        <ele>2615.4</ele>
        <time>2021-08-05 11:47:54</time>
      </trkpt>
      <trkpt lat="37.08669" lon="-3.38261">
        <ele>2615.6</ele>
        <time>2021-08-05 11:47:55</time>
      </trkpt>
      <trkpt lat="37.08669" lon="-3.38261">
        <ele>2615.8</ele>
        <time>2021-08-05 11:47:56</time>
      </trkpt>
      <trkpt lat="37.08669" lon="-3.38261">
        <ele>2616</ele>
        <time>2021-08-05 11:47:57</time>
      </trkpt>
      <trkpt lat="37.08668" lon="-3.38261">
        <ele>2616</ele>
        <time>2021-08-05 11:47:58</time>
      </trkpt>
      <trkpt lat="37.08668" lon="-3.3826">
        <ele>2616.2</ele>
        <time>2021-08-05 11:47:59</time>
      </trkpt>
      <trkpt lat="37.08668" lon="-3.38261">
        <ele>2616.2</ele>
        <time>2021-08-05 11:48:00</time>
      </trkpt>
      <trkpt lat="37.08668" lon="-3.38262">
        <ele>2616.2</ele>
        <time>2021-08-05 11:48:01</time>
      </trkpt>
      <trkpt lat="37.08668" lon="-3.38263">
        <ele>2616.2</ele>
        <time>2021-08-05 11:48:02</time>
      </trkpt>
      <trkpt lat="37.08667" lon="-3.38263">
        <ele>2616.4</ele>
        <time>2021-08-05 11:48:03</time>
      </trkpt>
      <trkpt lat="37.08666" lon="-3.38263">
        <ele>2616.4</ele>
        <time>2021-08-05 11:48:04</time>
      </trkpt>
      <trkpt lat="37.08666" lon="-3.38263">
        <ele>2616.4</ele>
        <time>2021-08-05 11:48:05</time>
      </trkpt>
      <trkpt lat="37.08666" lon="-3.38262">
        <ele>2616.6</ele>
        <time>2021-08-05 11:48:06</time>
      </trkpt>
      <trkpt lat="37.08666" lon="-3.38262">
        <ele>2616.6</ele>
        <time>2021-08-05 11:48:07</time>
      </trkpt>
      <trkpt lat="37.08665" lon="-3.38262">
        <ele>2616.6</ele>
        <time>2021-08-05 11:48:08</time>
      </trkpt>
      <trkpt lat="37.08665" lon="-3.38262">
        <ele>2616.8</ele>
        <time>2021-08-05 11:48:09</time>
      </trkpt>
      <trkpt lat="37.08664" lon="-3.38261">
        <ele>2616.8</ele>
        <time>2021-08-05 11:48:10</time>
      </trkpt>
      <trkpt lat="37.08662" lon="-3.38261">
        <ele>2616.8</ele>
        <time>2021-08-05 11:48:11</time>
      </trkpt>
      <trkpt lat="37.08661" lon="-3.3826">
        <ele>2617</ele>
        <time>2021-08-05 11:48:12</time>
      </trkpt>
      <trkpt lat="37.0866" lon="-3.38259">
        <ele>2617</ele>
        <time>2021-08-05 11:48:13</time>
      </trkpt>
      <trkpt lat="37.08659" lon="-3.38257">
        <ele>2617.2</ele>
        <time>2021-08-05 11:48:14</time>
      </trkpt>
      <trkpt lat="37.08659" lon="-3.38258">
        <ele>2617.4</ele>
        <time>2021-08-05 11:48:15</time>
      </trkpt>
      <trkpt lat="37.08659" lon="-3.38258">
        <ele>2617.6</ele>
        <time>2021-08-05 11:48:16</time>
      </trkpt>
      <trkpt lat="37.08659" lon="-3.38257">
        <ele>2617.8</ele>
        <time>2021-08-05 11:48:17</time>
      </trkpt>
      <trkpt lat="37.08658" lon="-3.38256">
        <ele>2618</ele>
        <time>2021-08-05 11:48:18</time>
      </trkpt>
      <trkpt lat="37.08657" lon="-3.38254">
        <ele>2618.2</ele>
        <time>2021-08-05 11:48:19</time>
      </trkpt>
      <trkpt lat="37.08657" lon="-3.38253">
        <ele>2618.2</ele>
        <time>2021-08-05 11:48:20</time>
      </trkpt>
      <trkpt lat="37.08656" lon="-3.38253">
        <ele>2618.2</ele>
        <time>2021-08-05 11:48:21</time>
      </trkpt>
      <trkpt lat="37.08656" lon="-3.38252">
        <ele>2618.2</ele>
        <time>2021-08-05 11:48:22</time>
      </trkpt>
      <trkpt lat="37.08656" lon="-3.38252">
        <ele>2618.4</ele>
        <time>2021-08-05 11:48:23</time>
      </trkpt>
      <trkpt lat="37.08656" lon="-3.38252">
        <ele>2618.4</ele>
        <time>2021-08-05 11:48:24</time>
      </trkpt>
      <trkpt lat="37.08656" lon="-3.38251">
        <ele>2618.6</ele>
        <time>2021-08-05 11:48:25</time>
      </trkpt>
      <trkpt lat="37.08657" lon="-3.38251">
        <ele>2618.6</ele>
        <time>2021-08-05 11:48:26</time>
      </trkpt>
      <trkpt lat="37.08657" lon="-3.3825">
        <ele>2618.6</ele>
        <time>2021-08-05 11:48:27</time>
      </trkpt>
      <trkpt lat="37.08656" lon="-3.3825">
        <ele>2618.8</ele>
        <time>2021-08-05 11:48:28</time>
      </trkpt>
      <trkpt lat="37.08656" lon="-3.3825">
        <ele>2618.8</ele>
        <time>2021-08-05 11:48:29</time>
      </trkpt>
      <trkpt lat="37.08655" lon="-3.3825">
        <ele>2619</ele>
        <time>2021-08-05 11:48:30</time>
      </trkpt>
      <trkpt lat="37.08654" lon="-3.38251">
        <ele>2619.2</ele>
        <time>2021-08-05 11:48:31</time>
      </trkpt>
      <trkpt lat="37.08654" lon="-3.38251">
        <ele>2619.4</ele>
        <time>2021-08-05 11:48:32</time>
      </trkpt>
      <trkpt lat="37.08653" lon="-3.38251">
        <ele>2619.4</ele>
        <time>2021-08-05 11:48:33</time>
      </trkpt>
      <trkpt lat="37.08653" lon="-3.38251">
        <ele>2619.6</ele>
        <time>2021-08-05 11:48:34</time>
      </trkpt>
      <trkpt lat="37.08653" lon="-3.38251">
        <ele>2619.6</ele>
        <time>2021-08-05 11:48:35</time>
      </trkpt>
      <trkpt lat="37.08653" lon="-3.38251">
        <ele>2619.6</ele>
        <time>2021-08-05 11:48:36</time>
      </trkpt>
      <trkpt lat="37.08653" lon="-3.3825">
        <ele>2619.6</ele>
        <time>2021-08-05 11:48:37</time>
      </trkpt>
      <trkpt lat="37.08653" lon="-3.38251">
        <ele>2619.6</ele>
        <time>2021-08-05 11:48:38</time>
      </trkpt>
      <trkpt lat="37.08652" lon="-3.38251">
        <ele>2619.8</ele>
        <time>2021-08-05 11:48:39</time>
      </trkpt>
      <trkpt lat="37.08651" lon="-3.3825">
        <ele>2619.8</ele>
        <time>2021-08-05 11:48:40</time>
      </trkpt>
      <trkpt lat="37.08651" lon="-3.3825">
        <ele>2620</ele>
        <time>2021-08-05 11:48:41</time>
      </trkpt>
      <trkpt lat="37.0865" lon="-3.3825">
        <ele>2620</ele>
        <time>2021-08-05 11:48:42</time>
      </trkpt>
      <trkpt lat="37.08649" lon="-3.3825">
        <ele>2620.2</ele>
        <time>2021-08-05 11:48:43</time>
      </trkpt>
      <trkpt lat="37.08648" lon="-3.3825">
        <ele>2620.4</ele>
        <time>2021-08-05 11:48:44</time>
      </trkpt>
      <trkpt lat="37.08647" lon="-3.38249">
        <ele>2620.6</ele>
        <time>2021-08-05 11:48:45</time>
      </trkpt>
      <trkpt lat="37.08647" lon="-3.38249">
        <ele>2620.6</ele>
        <time>2021-08-05 11:48:46</time>
      </trkpt>
      <trkpt lat="37.08646" lon="-3.38248">
        <ele>2620.8</ele>
        <time>2021-08-05 11:48:47</time>
      </trkpt>
      <trkpt lat="37.08647" lon="-3.38248">
        <ele>2620.8</ele>
        <time>2021-08-05 11:48:48</time>
      </trkpt>
      <trkpt lat="37.08646" lon="-3.38247">
        <ele>2621.2</ele>
        <time>2021-08-05 11:48:49</time>
      </trkpt>
      <trkpt lat="37.08645" lon="-3.38246">
        <ele>2621.4</ele>
        <time>2021-08-05 11:48:50</time>
      </trkpt>
      <trkpt lat="37.08645" lon="-3.38245">
        <ele>2621.6</ele>
        <time>2021-08-05 11:48:51</time>
      </trkpt>
      <trkpt lat="37.08645" lon="-3.38245">
        <ele>2621.6</ele>
        <time>2021-08-05 11:48:52</time>
      </trkpt>
      <trkpt lat="37.08645" lon="-3.38245">
        <ele>2621.6</ele>
        <time>2021-08-05 11:48:53</time>
      </trkpt>
      <trkpt lat="37.08645" lon="-3.38245">
        <ele>2621.6</ele>
        <time>2021-08-05 11:48:54</time>
      </trkpt>
      <trkpt lat="37.08643" lon="-3.3824">
        <ele>2621.6</ele>
        <time>2021-08-05 11:48:55</time>
      </trkpt>
      <trkpt lat="37.08643" lon="-3.38239">
        <ele>2621.4</ele>
        <time>2021-08-05 11:48:56</time>
      </trkpt>
      <trkpt lat="37.08641" lon="-3.38238">
        <ele>2621.4</ele>
        <time>2021-08-05 11:48:57</time>
      </trkpt>
      <trkpt lat="37.08641" lon="-3.38238">
        <ele>2621.6</ele>
        <time>2021-08-05 11:48:58</time>
      </trkpt>
      <trkpt lat="37.0864" lon="-3.38238">
        <ele>2621.6</ele>
        <time>2021-08-05 11:48:59</time>
      </trkpt>
      <trkpt lat="37.0864" lon="-3.38237">
        <ele>2621.8</ele>
        <time>2021-08-05 11:49:00</time>
      </trkpt>
      <trkpt lat="37.08639" lon="-3.38237">
        <ele>2621.8</ele>
        <time>2021-08-05 11:49:01</time>
      </trkpt>
      <trkpt lat="37.08639" lon="-3.38238">
        <ele>2621.8</ele>
        <time>2021-08-05 11:49:02</time>
      </trkpt>
      <trkpt lat="37.08638" lon="-3.38238">
        <ele>2621.8</ele>
        <time>2021-08-05 11:49:03</time>
      </trkpt>
      <trkpt lat="37.08638" lon="-3.38238">
        <ele>2622</ele>
        <time>2021-08-05 11:49:04</time>
      </trkpt>
      <trkpt lat="37.08637" lon="-3.38238">
        <ele>2622</ele>
        <time>2021-08-05 11:49:05</time>
      </trkpt>
      <trkpt lat="37.08637" lon="-3.38238">
        <ele>2622</ele>
        <time>2021-08-05 11:49:06</time>
      </trkpt>
      <trkpt lat="37.08637" lon="-3.38237">
        <ele>2622.2</ele>
        <time>2021-08-05 11:49:07</time>
      </trkpt>
      <trkpt lat="37.08636" lon="-3.38237">
        <ele>2622.2</ele>
        <time>2021-08-05 11:49:08</time>
      </trkpt>
      <trkpt lat="37.08636" lon="-3.38237">
        <ele>2622.4</ele>
        <time>2021-08-05 11:49:09</time>
      </trkpt>
      <trkpt lat="37.08636" lon="-3.38237">
        <ele>2622.6</ele>
        <time>2021-08-05 11:49:10</time>
      </trkpt>
      <trkpt lat="37.08636" lon="-3.38238">
        <ele>2622.6</ele>
        <time>2021-08-05 11:49:11</time>
      </trkpt>
      <trkpt lat="37.08636" lon="-3.38239">
        <ele>2622.6</ele>
        <time>2021-08-05 11:49:12</time>
      </trkpt>
      <trkpt lat="37.08636" lon="-3.38238">
        <ele>2622.6</ele>
        <time>2021-08-05 11:49:13</time>
      </trkpt>
      <trkpt lat="37.08635" lon="-3.38238">
        <ele>2622.6</ele>
        <time>2021-08-05 11:49:14</time>
      </trkpt>
      <trkpt lat="37.08635" lon="-3.38238">
        <ele>2622.8</ele>
        <time>2021-08-05 11:49:15</time>
      </trkpt>
      <trkpt lat="37.08635" lon="-3.38238">
        <ele>2623</ele>
        <time>2021-08-05 11:49:16</time>
      </trkpt>
      <trkpt lat="37.08635" lon="-3.38238">
        <ele>2623.4</ele>
        <time>2021-08-05 11:49:17</time>
      </trkpt>
      <trkpt lat="37.08635" lon="-3.38239">
        <ele>2623.4</ele>
        <time>2021-08-05 11:49:18</time>
      </trkpt>
      <trkpt lat="37.08634" lon="-3.38238">
        <ele>2623.6</ele>
        <time>2021-08-05 11:49:19</time>
      </trkpt>
      <trkpt lat="37.08634" lon="-3.38238">
        <ele>2623.6</ele>
        <time>2021-08-05 11:49:20</time>
      </trkpt>
      <trkpt lat="37.08633" lon="-3.38238">
        <ele>2623.6</ele>
        <time>2021-08-05 11:49:21</time>
      </trkpt>
      <trkpt lat="37.08632" lon="-3.38239">
        <ele>2623.6</ele>
        <time>2021-08-05 11:49:22</time>
      </trkpt>
      <trkpt lat="37.08632" lon="-3.38238">
        <ele>2623.8</ele>
        <time>2021-08-05 11:49:23</time>
      </trkpt>
      <trkpt lat="37.08631" lon="-3.38238">
        <ele>2623.8</ele>
        <time>2021-08-05 11:49:24</time>
      </trkpt>
      <trkpt lat="37.0863" lon="-3.38237">
        <ele>2623.8</ele>
        <time>2021-08-05 11:49:25</time>
      </trkpt>
      <trkpt lat="37.0863" lon="-3.38237">
        <ele>2624</ele>
        <time>2021-08-05 11:49:26</time>
      </trkpt>
      <trkpt lat="37.08629" lon="-3.38237">
        <ele>2624</ele>
        <time>2021-08-05 11:49:27</time>
      </trkpt>
      <trkpt lat="37.08629" lon="-3.38236">
        <ele>2624</ele>
        <time>2021-08-05 11:49:28</time>
      </trkpt>
      <trkpt lat="37.08629" lon="-3.38235">
        <ele>2624</ele>
        <time>2021-08-05 11:49:29</time>
      </trkpt>
      <trkpt lat="37.0863" lon="-3.38236">
        <ele>2624.2</ele>
        <time>2021-08-05 11:49:30</time>
      </trkpt>
      <trkpt lat="37.0863" lon="-3.38236">
        <ele>2624.2</ele>
        <time>2021-08-05 11:49:31</time>
      </trkpt>
      <trkpt lat="37.0863" lon="-3.38235">
        <ele>2624.2</ele>
        <time>2021-08-05 11:49:32</time>
      </trkpt>
      <trkpt lat="37.08629" lon="-3.38235">
        <ele>2624.2</ele>
        <time>2021-08-05 11:49:33</time>
      </trkpt>
      <trkpt lat="37.08629" lon="-3.38235">
        <ele>2624.2</ele>
        <time>2021-08-05 11:49:34</time>
      </trkpt>
      <trkpt lat="37.08629" lon="-3.38234">
        <ele>2624.4</ele>
        <time>2021-08-05 11:49:35</time>
      </trkpt>
      <trkpt lat="37.08629" lon="-3.38234">
        <ele>2624.6</ele>
        <time>2021-08-05 11:49:36</time>
      </trkpt>
      <trkpt lat="37.08629" lon="-3.38233">
        <ele>2624.6</ele>
        <time>2021-08-05 11:49:37</time>
      </trkpt>
      <trkpt lat="37.08628" lon="-3.38232">
        <ele>2624.6</ele>
        <time>2021-08-05 11:49:38</time>
      </trkpt>
      <trkpt lat="37.08627" lon="-3.3823">
        <ele>2624.8</ele>
        <time>2021-08-05 11:49:39</time>
      </trkpt>
      <trkpt lat="37.08626" lon="-3.38228">
        <ele>2625</ele>
        <time>2021-08-05 11:49:40</time>
      </trkpt>
      <trkpt lat="37.08625" lon="-3.38228">
        <ele>2625.2</ele>
        <time>2021-08-05 11:49:41</time>
      </trkpt>
      <trkpt lat="37.08623" lon="-3.38228">
        <ele>2625.4</ele>
        <time>2021-08-05 11:49:42</time>
      </trkpt>
      <trkpt lat="37.08622" lon="-3.38228">
        <ele>2625.6</ele>
        <time>2021-08-05 11:49:43</time>
      </trkpt>
      <trkpt lat="37.08622" lon="-3.38229">
        <ele>2625.8</ele>
        <time>2021-08-05 11:49:44</time>
      </trkpt>
      <trkpt lat="37.08621" lon="-3.3823">
        <ele>2625.8</ele>
        <time>2021-08-05 11:49:45</time>
      </trkpt>
      <trkpt lat="37.08621" lon="-3.3823">
        <ele>2625.8</ele>
        <time>2021-08-05 11:49:46</time>
      </trkpt>
      <trkpt lat="37.08621" lon="-3.3823">
        <ele>2626</ele>
        <time>2021-08-05 11:49:47</time>
      </trkpt>
      <trkpt lat="37.08621" lon="-3.38229">
        <ele>2626.2</ele>
        <time>2021-08-05 11:49:48</time>
      </trkpt>
      <trkpt lat="37.0862" lon="-3.38228">
        <ele>2626.4</ele>
        <time>2021-08-05 11:49:49</time>
      </trkpt>
      <trkpt lat="37.0862" lon="-3.38226">
        <ele>2626.4</ele>
        <time>2021-08-05 11:49:50</time>
      </trkpt>
      <trkpt lat="37.0862" lon="-3.38225">
        <ele>2626.4</ele>
        <time>2021-08-05 11:49:51</time>
      </trkpt>
      <trkpt lat="37.0862" lon="-3.38225">
        <ele>2626.6</ele>
        <time>2021-08-05 11:49:52</time>
      </trkpt>
      <trkpt lat="37.0862" lon="-3.38225">
        <ele>2626.6</ele>
        <time>2021-08-05 11:49:53</time>
      </trkpt>
      <trkpt lat="37.08619" lon="-3.38224">
        <ele>2626.8</ele>
        <time>2021-08-05 11:49:54</time>
      </trkpt>
      <trkpt lat="37.08619" lon="-3.38225">
        <ele>2626.8</ele>
        <time>2021-08-05 11:49:55</time>
      </trkpt>
      <trkpt lat="37.08619" lon="-3.38225">
        <ele>2626.6</ele>
        <time>2021-08-05 11:49:56</time>
      </trkpt>
      <trkpt lat="37.08618" lon="-3.38225">
        <ele>2626.4</ele>
        <time>2021-08-05 11:49:57</time>
      </trkpt>
      <trkpt lat="37.08618" lon="-3.38224">
        <ele>2626.2</ele>
        <time>2021-08-05 11:49:58</time>
      </trkpt>
      <trkpt lat="37.08618" lon="-3.38224">
        <ele>2626.2</ele>
        <time>2021-08-05 11:49:59</time>
      </trkpt>
      <trkpt lat="37.08617" lon="-3.38224">
        <ele>2626.2</ele>
        <time>2021-08-05 11:50:00</time>
      </trkpt>
      <trkpt lat="37.08617" lon="-3.38223">
        <ele>2626.2</ele>
        <time>2021-08-05 11:50:01</time>
      </trkpt>
      <trkpt lat="37.08616" lon="-3.38221">
        <ele>2626.4</ele>
        <time>2021-08-05 11:50:02</time>
      </trkpt>
      <trkpt lat="37.08615" lon="-3.3822">
        <ele>2626.6</ele>
        <time>2021-08-05 11:50:03</time>
      </trkpt>
      <trkpt lat="37.08615" lon="-3.38219">
        <ele>2626.8</ele>
        <time>2021-08-05 11:50:04</time>
      </trkpt>
      <trkpt lat="37.08614" lon="-3.38219">
        <ele>2626.8</ele>
        <time>2021-08-05 11:50:05</time>
      </trkpt>
      <trkpt lat="37.08614" lon="-3.38219">
        <ele>2627</ele>
        <time>2021-08-05 11:50:06</time>
      </trkpt>
      <trkpt lat="37.08613" lon="-3.38218">
        <ele>2627.2</ele>
        <time>2021-08-05 11:50:07</time>
      </trkpt>
      <trkpt lat="37.08613" lon="-3.38218">
        <ele>2627.2</ele>
        <time>2021-08-05 11:50:08</time>
      </trkpt>
      <trkpt lat="37.08612" lon="-3.38217">
        <ele>2627.2</ele>
        <time>2021-08-05 11:50:09</time>
      </trkpt>
      <trkpt lat="37.08611" lon="-3.38217">
        <ele>2627.2</ele>
        <time>2021-08-05 11:50:10</time>
      </trkpt>
      <trkpt lat="37.08611" lon="-3.38217">
        <ele>2627.4</ele>
        <time>2021-08-05 11:50:11</time>
      </trkpt>
      <trkpt lat="37.08611" lon="-3.38217">
        <ele>2627.6</ele>
        <time>2021-08-05 11:50:12</time>
      </trkpt>
      <trkpt lat="37.0861" lon="-3.38217">
        <ele>2627.8</ele>
        <time>2021-08-05 11:50:13</time>
      </trkpt>
      <trkpt lat="37.0861" lon="-3.38216">
        <ele>2627.8</ele>
        <time>2021-08-05 11:50:14</time>
      </trkpt>
      <trkpt lat="37.0861" lon="-3.38216">
        <ele>2628</ele>
        <time>2021-08-05 11:50:15</time>
      </trkpt>
      <trkpt lat="37.08609" lon="-3.38216">
        <ele>2628.2</ele>
        <time>2021-08-05 11:50:16</time>
      </trkpt>
      <trkpt lat="37.08609" lon="-3.38216">
        <ele>2628.2</ele>
        <time>2021-08-05 11:50:17</time>
      </trkpt>
      <trkpt lat="37.08609" lon="-3.38217">
        <ele>2628.4</ele>
        <time>2021-08-05 11:50:18</time>
      </trkpt>
      <trkpt lat="37.08609" lon="-3.38217">
        <ele>2628.4</ele>
        <time>2021-08-05 11:50:19</time>
      </trkpt>
      <trkpt lat="37.08609" lon="-3.38217">
        <ele>2628.2</ele>
        <time>2021-08-05 11:50:20</time>
      </trkpt>
      <trkpt lat="37.08608" lon="-3.38217">
        <ele>2628.2</ele>
        <time>2021-08-05 11:50:21</time>
      </trkpt>
      <trkpt lat="37.08608" lon="-3.38217">
        <ele>2628.4</ele>
        <time>2021-08-05 11:50:22</time>
      </trkpt>
      <trkpt lat="37.08607" lon="-3.38217">
        <ele>2628.6</ele>
        <time>2021-08-05 11:50:23</time>
      </trkpt>
      <trkpt lat="37.08607" lon="-3.38217">
        <ele>2628.8</ele>
        <time>2021-08-05 11:50:24</time>
      </trkpt>
      <trkpt lat="37.08607" lon="-3.38217">
        <ele>2628.8</ele>
        <time>2021-08-05 11:50:25</time>
      </trkpt>
      <trkpt lat="37.08606" lon="-3.38218">
        <ele>2629</ele>
        <time>2021-08-05 11:50:26</time>
      </trkpt>
      <trkpt lat="37.08606" lon="-3.38218">
        <ele>2629</ele>
        <time>2021-08-05 11:50:27</time>
      </trkpt>
      <trkpt lat="37.08606" lon="-3.38218">
        <ele>2629</ele>
        <time>2021-08-05 11:50:28</time>
      </trkpt>
      <trkpt lat="37.08606" lon="-3.38218">
        <ele>2629.2</ele>
        <time>2021-08-05 11:50:29</time>
      </trkpt>
      <trkpt lat="37.08606" lon="-3.38218">
        <ele>2629.6</ele>
        <time>2021-08-05 11:50:30</time>
      </trkpt>
      <trkpt lat="37.08605" lon="-3.38217">
        <ele>2629.6</ele>
        <time>2021-08-05 11:50:31</time>
      </trkpt>
      <trkpt lat="37.08605" lon="-3.38217">
        <ele>2629.8</ele>
        <time>2021-08-05 11:50:32</time>
      </trkpt>
      <trkpt lat="37.08604" lon="-3.38217">
        <ele>2629.8</ele>
        <time>2021-08-05 11:50:33</time>
      </trkpt>
      <trkpt lat="37.08604" lon="-3.38217">
        <ele>2630.2</ele>
        <time>2021-08-05 11:50:34</time>
      </trkpt>
      <trkpt lat="37.08603" lon="-3.38215">
        <ele>2630.4</ele>
        <time>2021-08-05 11:50:35</time>
      </trkpt>
      <trkpt lat="37.08602" lon="-3.38215">
        <ele>2630.6</ele>
        <time>2021-08-05 11:50:36</time>
      </trkpt>
      <trkpt lat="37.08602" lon="-3.38214">
        <ele>2630.8</ele>
        <time>2021-08-05 11:50:37</time>
      </trkpt>
      <trkpt lat="37.08601" lon="-3.38214">
        <ele>2631</ele>
        <time>2021-08-05 11:50:38</time>
      </trkpt>
      <trkpt lat="37.086" lon="-3.38213">
        <ele>2631.2</ele>
        <time>2021-08-05 11:50:39</time>
      </trkpt>
      <trkpt lat="37.086" lon="-3.38214">
        <ele>2631.2</ele>
        <time>2021-08-05 11:50:40</time>
      </trkpt>
      <trkpt lat="37.08599" lon="-3.38214">
        <ele>2631.4</ele>
        <time>2021-08-05 11:50:41</time>
      </trkpt>
      <trkpt lat="37.08599" lon="-3.38214">
        <ele>2631.4</ele>
        <time>2021-08-05 11:50:42</time>
      </trkpt>
      <trkpt lat="37.08598" lon="-3.38214">
        <ele>2631.4</ele>
        <time>2021-08-05 11:50:43</time>
      </trkpt>
      <trkpt lat="37.08598" lon="-3.38214">
        <ele>2631.4</ele>
        <time>2021-08-05 11:50:44</time>
      </trkpt>
      <trkpt lat="37.08598" lon="-3.38214">
        <ele>2631.4</ele>
        <time>2021-08-05 11:50:45</time>
      </trkpt>
      <trkpt lat="37.08598" lon="-3.38215">
        <ele>2631.6</ele>
        <time>2021-08-05 11:50:46</time>
      </trkpt>
      <trkpt lat="37.08597" lon="-3.38215">
        <ele>2631.6</ele>
        <time>2021-08-05 11:50:47</time>
      </trkpt>
      <trkpt lat="37.08597" lon="-3.38216">
        <ele>2631.8</ele>
        <time>2021-08-05 11:50:48</time>
      </trkpt>
      <trkpt lat="37.08596" lon="-3.38216">
        <ele>2631.8</ele>
        <time>2021-08-05 11:50:49</time>
      </trkpt>
      <trkpt lat="37.08596" lon="-3.38216">
        <ele>2631.8</ele>
        <time>2021-08-05 11:50:50</time>
      </trkpt>
      <trkpt lat="37.08596" lon="-3.38215">
        <ele>2631.8</ele>
        <time>2021-08-05 11:50:51</time>
      </trkpt>
      <trkpt lat="37.08595" lon="-3.38215">
        <ele>2631.8</ele>
        <time>2021-08-05 11:50:52</time>
      </trkpt>
      <trkpt lat="37.08594" lon="-3.38215">
        <ele>2631.8</ele>
        <time>2021-08-05 11:50:53</time>
      </trkpt>
      <trkpt lat="37.08594" lon="-3.38216">
        <ele>2632</ele>
        <time>2021-08-05 11:50:54</time>
      </trkpt>
      <trkpt lat="37.08594" lon="-3.38215">
        <ele>2632</ele>
        <time>2021-08-05 11:50:55</time>
      </trkpt>
      <trkpt lat="37.08593" lon="-3.38215">
        <ele>2632</ele>
        <time>2021-08-05 11:50:56</time>
      </trkpt>
      <trkpt lat="37.08593" lon="-3.38215">
        <ele>2631.8</ele>
        <time>2021-08-05 11:50:57</time>
      </trkpt>
      <trkpt lat="37.08592" lon="-3.38214">
        <ele>2631.8</ele>
        <time>2021-08-05 11:50:58</time>
      </trkpt>
      <trkpt lat="37.08592" lon="-3.38214">
        <ele>2631.6</ele>
        <time>2021-08-05 11:50:59</time>
      </trkpt>
      <trkpt lat="37.08591" lon="-3.38214">
        <ele>2631.4</ele>
        <time>2021-08-05 11:51:00</time>
      </trkpt>
      <trkpt lat="37.08591" lon="-3.38214">
        <ele>2631.4</ele>
        <time>2021-08-05 11:51:01</time>
      </trkpt>
      <trkpt lat="37.08591" lon="-3.38213">
        <ele>2631.4</ele>
        <time>2021-08-05 11:51:02</time>
      </trkpt>
      <trkpt lat="37.08591" lon="-3.38213">
        <ele>2631.6</ele>
        <time>2021-08-05 11:51:03</time>
      </trkpt>
      <trkpt lat="37.0859" lon="-3.38212">
        <ele>2631.8</ele>
        <time>2021-08-05 11:51:04</time>
      </trkpt>
      <trkpt lat="37.0859" lon="-3.38211">
        <ele>2631.8</ele>
        <time>2021-08-05 11:51:05</time>
      </trkpt>
      <trkpt lat="37.08589" lon="-3.38211">
        <ele>2632</ele>
        <time>2021-08-05 11:51:06</time>
      </trkpt>
      <trkpt lat="37.08589" lon="-3.38211">
        <ele>2632</ele>
        <time>2021-08-05 11:51:07</time>
      </trkpt>
      <trkpt lat="37.08588" lon="-3.38211">
        <ele>2632.2</ele>
        <time>2021-08-05 11:51:08</time>
      </trkpt>
      <trkpt lat="37.08588" lon="-3.3821">
        <ele>2632.2</ele>
        <time>2021-08-05 11:51:09</time>
      </trkpt>
      <trkpt lat="37.08588" lon="-3.3821">
        <ele>2632.2</ele>
        <time>2021-08-05 11:51:10</time>
      </trkpt>
      <trkpt lat="37.08588" lon="-3.3821">
        <ele>2632.2</ele>
        <time>2021-08-05 11:51:11</time>
      </trkpt>
      <trkpt lat="37.08588" lon="-3.3821">
        <ele>2632.4</ele>
        <time>2021-08-05 11:51:12</time>
      </trkpt>
      <trkpt lat="37.08587" lon="-3.3821">
        <ele>2632.4</ele>
        <time>2021-08-05 11:51:13</time>
      </trkpt>
      <trkpt lat="37.08587" lon="-3.38209">
        <ele>2632.4</ele>
        <time>2021-08-05 11:51:14</time>
      </trkpt>
      <trkpt lat="37.08587" lon="-3.3821">
        <ele>2632.4</ele>
        <time>2021-08-05 11:51:15</time>
      </trkpt>
      <trkpt lat="37.08586" lon="-3.38209">
        <ele>2632.4</ele>
        <time>2021-08-05 11:51:16</time>
      </trkpt>
      <trkpt lat="37.08586" lon="-3.38209">
        <ele>2632.4</ele>
        <time>2021-08-05 11:51:17</time>
      </trkpt>
      <trkpt lat="37.08585" lon="-3.38208">
        <ele>2632.4</ele>
        <time>2021-08-05 11:51:18</time>
      </trkpt>
      <trkpt lat="37.08585" lon="-3.38208">
        <ele>2632.4</ele>
        <time>2021-08-05 11:51:19</time>
      </trkpt>
      <trkpt lat="37.08585" lon="-3.38207">
        <ele>2632.4</ele>
        <time>2021-08-05 11:51:20</time>
      </trkpt>
      <trkpt lat="37.08584" lon="-3.38206">
        <ele>2632.6</ele>
        <time>2021-08-05 11:51:21</time>
      </trkpt>
      <trkpt lat="37.08583" lon="-3.38205">
        <ele>2632.6</ele>
        <time>2021-08-05 11:51:22</time>
      </trkpt>
      <trkpt lat="37.08583" lon="-3.38204">
        <ele>2632.6</ele>
        <time>2021-08-05 11:51:23</time>
      </trkpt>
      <trkpt lat="37.08582" lon="-3.38203">
        <ele>2632.6</ele>
        <time>2021-08-05 11:51:24</time>
      </trkpt>
      <trkpt lat="37.08581" lon="-3.38202">
        <ele>2632.6</ele>
        <time>2021-08-05 11:51:25</time>
      </trkpt>
      <trkpt lat="37.08581" lon="-3.38202">
        <ele>2632.6</ele>
        <time>2021-08-05 11:51:26</time>
      </trkpt>
      <trkpt lat="37.0858" lon="-3.38201">
        <ele>2632.6</ele>
        <time>2021-08-05 11:51:27</time>
      </trkpt>
      <trkpt lat="37.08579" lon="-3.38201">
        <ele>2632.6</ele>
        <time>2021-08-05 11:51:28</time>
      </trkpt>
      <trkpt lat="37.08579" lon="-3.38201">
        <ele>2632.6</ele>
        <time>2021-08-05 11:51:29</time>
      </trkpt>
      <trkpt lat="37.08579" lon="-3.38201">
        <ele>2632.8</ele>
        <time>2021-08-05 11:51:30</time>
      </trkpt>
      <trkpt lat="37.08579" lon="-3.38201">
        <ele>2632.8</ele>
        <time>2021-08-05 11:51:31</time>
      </trkpt>
      <trkpt lat="37.08579" lon="-3.382">
        <ele>2632.8</ele>
        <time>2021-08-05 11:51:32</time>
      </trkpt>
      <trkpt lat="37.08579" lon="-3.382">
        <ele>2632.8</ele>
        <time>2021-08-05 11:51:33</time>
      </trkpt>
      <trkpt lat="37.08579" lon="-3.38198">
        <ele>2633</ele>
        <time>2021-08-05 11:51:34</time>
      </trkpt>
      <trkpt lat="37.08579" lon="-3.38197">
        <ele>2632.8</ele>
        <time>2021-08-05 11:51:35</time>
      </trkpt>
      <trkpt lat="37.08579" lon="-3.38197">
        <ele>2633</ele>
        <time>2021-08-05 11:51:36</time>
      </trkpt>
      <trkpt lat="37.08579" lon="-3.38196">
        <ele>2632.8</ele>
        <time>2021-08-05 11:51:37</time>
      </trkpt>
      <trkpt lat="37.08579" lon="-3.38195">
        <ele>2633</ele>
        <time>2021-08-05 11:51:38</time>
      </trkpt>
      <trkpt lat="37.08578" lon="-3.38197">
        <ele>2633</ele>
        <time>2021-08-05 11:51:39</time>
      </trkpt>
      <trkpt lat="37.08578" lon="-3.38198">
        <ele>2633</ele>
        <time>2021-08-05 11:51:40</time>
      </trkpt>
      <trkpt lat="37.08578" lon="-3.38198">
        <ele>2633</ele>
        <time>2021-08-05 11:51:41</time>
      </trkpt>
      <trkpt lat="37.08578" lon="-3.38198">
        <ele>2633.2</ele>
        <time>2021-08-05 11:51:42</time>
      </trkpt>
      <trkpt lat="37.08578" lon="-3.38197">
        <ele>2633.2</ele>
        <time>2021-08-05 11:51:43</time>
      </trkpt>
      <trkpt lat="37.08578" lon="-3.38196">
        <ele>2633.4</ele>
        <time>2021-08-05 11:51:44</time>
      </trkpt>
      <trkpt lat="37.08577" lon="-3.38194">
        <ele>2633.6</ele>
        <time>2021-08-05 11:51:45</time>
      </trkpt>
      <trkpt lat="37.08576" lon="-3.38193">
        <ele>2633.8</ele>
        <time>2021-08-05 11:51:46</time>
      </trkpt>
      <trkpt lat="37.08574" lon="-3.38191">
        <ele>2633.8</ele>
        <time>2021-08-05 11:51:47</time>
      </trkpt>
      <trkpt lat="37.08574" lon="-3.3819">
        <ele>2633.6</ele>
        <time>2021-08-05 11:51:48</time>
      </trkpt>
      <trkpt lat="37.08573" lon="-3.3819">
        <ele>2633.4</ele>
        <time>2021-08-05 11:51:49</time>
      </trkpt>
      <trkpt lat="37.08572" lon="-3.38189">
        <ele>2633.4</ele>
        <time>2021-08-05 11:51:50</time>
      </trkpt>
      <trkpt lat="37.08572" lon="-3.38189">
        <ele>2633.4</ele>
        <time>2021-08-05 11:51:51</time>
      </trkpt>
      <trkpt lat="37.08571" lon="-3.38188">
        <ele>2633.4</ele>
        <time>2021-08-05 11:51:52</time>
      </trkpt>
      <trkpt lat="37.08571" lon="-3.38187">
        <ele>2633.4</ele>
        <time>2021-08-05 11:51:53</time>
      </trkpt>
      <trkpt lat="37.08571" lon="-3.38187">
        <ele>2633.4</ele>
        <time>2021-08-05 11:51:54</time>
      </trkpt>
      <trkpt lat="37.08571" lon="-3.38188">
        <ele>2633.6</ele>
        <time>2021-08-05 11:51:55</time>
      </trkpt>
      <trkpt lat="37.08571" lon="-3.38187">
        <ele>2633.6</ele>
        <time>2021-08-05 11:51:56</time>
      </trkpt>
      <trkpt lat="37.08571" lon="-3.38187">
        <ele>2633.8</ele>
        <time>2021-08-05 11:51:57</time>
      </trkpt>
      <trkpt lat="37.0857" lon="-3.38186">
        <ele>2634</ele>
        <time>2021-08-05 11:51:58</time>
      </trkpt>
      <trkpt lat="37.0857" lon="-3.38186">
        <ele>2634.2</ele>
        <time>2021-08-05 11:51:59</time>
      </trkpt>
      <trkpt lat="37.08569" lon="-3.38186">
        <ele>2634.2</ele>
        <time>2021-08-05 11:52:00</time>
      </trkpt>
      <trkpt lat="37.08568" lon="-3.38185">
        <ele>2634.2</ele>
        <time>2021-08-05 11:52:01</time>
      </trkpt>
      <trkpt lat="37.08568" lon="-3.38184">
        <ele>2634.4</ele>
        <time>2021-08-05 11:52:02</time>
      </trkpt>
      <trkpt lat="37.08567" lon="-3.38184">
        <ele>2634.4</ele>
        <time>2021-08-05 11:52:03</time>
      </trkpt>
      <trkpt lat="37.08567" lon="-3.38183">
        <ele>2634.4</ele>
        <time>2021-08-05 11:52:04</time>
      </trkpt>
      <trkpt lat="37.08567" lon="-3.38181">
        <ele>2634.4</ele>
        <time>2021-08-05 11:52:05</time>
      </trkpt>
      <trkpt lat="37.08567" lon="-3.38181">
        <ele>2634.4</ele>
        <time>2021-08-05 11:52:06</time>
      </trkpt>
      <trkpt lat="37.08567" lon="-3.3818">
        <ele>2634.4</ele>
        <time>2021-08-05 11:52:07</time>
      </trkpt>
      <trkpt lat="37.08568" lon="-3.3818">
        <ele>2634.4</ele>
        <time>2021-08-05 11:52:08</time>
      </trkpt>
      <trkpt lat="37.08568" lon="-3.38181">
        <ele>2634.4</ele>
        <time>2021-08-05 11:52:09</time>
      </trkpt>
      <trkpt lat="37.08568" lon="-3.3818">
        <ele>2634.2</ele>
        <time>2021-08-05 11:52:10</time>
      </trkpt>
      <trkpt lat="37.08568" lon="-3.38181">
        <ele>2634.2</ele>
        <time>2021-08-05 11:52:11</time>
      </trkpt>
      <trkpt lat="37.08567" lon="-3.38181">
        <ele>2634</ele>
        <time>2021-08-05 11:52:12</time>
      </trkpt>
      <trkpt lat="37.08567" lon="-3.38181">
        <ele>2633.8</ele>
        <time>2021-08-05 11:52:13</time>
      </trkpt>
      <trkpt lat="37.08566" lon="-3.38181">
        <ele>2633.8</ele>
        <time>2021-08-05 11:52:14</time>
      </trkpt>
      <trkpt lat="37.08566" lon="-3.38181">
        <ele>2633.8</ele>
        <time>2021-08-05 11:52:15</time>
      </trkpt>
      <trkpt lat="37.08566" lon="-3.38181">
        <ele>2633.8</ele>
        <time>2021-08-05 11:52:16</time>
      </trkpt>
      <trkpt lat="37.08566" lon="-3.38181">
        <ele>2634</ele>
        <time>2021-08-05 11:52:17</time>
      </trkpt>
      <trkpt lat="37.08566" lon="-3.38181">
        <ele>2633.8</ele>
        <time>2021-08-05 11:52:18</time>
      </trkpt>
      <trkpt lat="37.08566" lon="-3.38181">
        <ele>2633.8</ele>
        <time>2021-08-05 11:52:19</time>
      </trkpt>
      <trkpt lat="37.08566" lon="-3.38181">
        <ele>2633.8</ele>
        <time>2021-08-05 11:52:20</time>
      </trkpt>
      <trkpt lat="37.08566" lon="-3.38181">
        <ele>2633.8</ele>
        <time>2021-08-05 11:52:21</time>
      </trkpt>
      <trkpt lat="37.08566" lon="-3.38181">
        <ele>2633.8</ele>
        <time>2021-08-05 11:52:22</time>
      </trkpt>
      <trkpt lat="37.08566" lon="-3.38181">
        <ele>2633.6</ele>
        <time>2021-08-05 11:52:23</time>
      </trkpt>
      <trkpt lat="37.08566" lon="-3.38181">
        <ele>2633.6</ele>
        <time>2021-08-05 11:52:24</time>
      </trkpt>
      <trkpt lat="37.08566" lon="-3.38181">
        <ele>2633.8</ele>
        <time>2021-08-05 11:52:25</time>
      </trkpt>
      <trkpt lat="37.08566" lon="-3.38181">
        <ele>2633.8</ele>
        <time>2021-08-05 11:52:26</time>
      </trkpt>
      <trkpt lat="37.08566" lon="-3.38181">
        <ele>2633.8</ele>
        <time>2021-08-05 11:52:27</time>
      </trkpt>
      <trkpt lat="37.08565" lon="-3.38181">
        <ele>2633.8</ele>
        <time>2021-08-05 11:52:28</time>
      </trkpt>
      <trkpt lat="37.08565" lon="-3.38181">
        <ele>2633.8</ele>
        <time>2021-08-05 11:52:29</time>
      </trkpt>
      <trkpt lat="37.08565" lon="-3.3818">
        <ele>2633.8</ele>
        <time>2021-08-05 11:52:30</time>
      </trkpt>
      <trkpt lat="37.08565" lon="-3.3818">
        <ele>2633.6</ele>
        <time>2021-08-05 11:52:31</time>
      </trkpt>
      <trkpt lat="37.08566" lon="-3.3818">
        <ele>2633.4</ele>
        <time>2021-08-05 11:52:32</time>
      </trkpt>
      <trkpt lat="37.08565" lon="-3.38179">
        <ele>2633.2</ele>
        <time>2021-08-05 11:52:33</time>
      </trkpt>
      <trkpt lat="37.08565" lon="-3.38179">
        <ele>2633</ele>
        <time>2021-08-05 11:52:34</time>
      </trkpt>
      <trkpt lat="37.08565" lon="-3.38179">
        <ele>2632.8</ele>
        <time>2021-08-05 11:52:35</time>
      </trkpt>
      <trkpt lat="37.08565" lon="-3.38178">
        <ele>2632.8</ele>
        <time>2021-08-05 11:52:36</time>
      </trkpt>
      <trkpt lat="37.08565" lon="-3.38178">
        <ele>2632.8</ele>
        <time>2021-08-05 11:52:37</time>
      </trkpt>
      <trkpt lat="37.08565" lon="-3.38178">
        <ele>2632.8</ele>
        <time>2021-08-05 11:52:38</time>
      </trkpt>
      <trkpt lat="37.08565" lon="-3.38177">
        <ele>2633</ele>
        <time>2021-08-05 11:52:39</time>
      </trkpt>
      <trkpt lat="37.08565" lon="-3.38177">
        <ele>2633</ele>
        <time>2021-08-05 11:52:40</time>
      </trkpt>
      <trkpt lat="37.08565" lon="-3.38176">
        <ele>2633</ele>
        <time>2021-08-05 11:52:41</time>
      </trkpt>
      <trkpt lat="37.08565" lon="-3.38176">
        <ele>2633</ele>
        <time>2021-08-05 11:52:42</time>
      </trkpt>
      <trkpt lat="37.08565" lon="-3.38176">
        <ele>2633</ele>
        <time>2021-08-05 11:52:43</time>
      </trkpt>
      <trkpt lat="37.08565" lon="-3.38176">
        <ele>2633</ele>
        <time>2021-08-05 11:52:44</time>
      </trkpt>
      <trkpt lat="37.08565" lon="-3.38176">
        <ele>2633</ele>
        <time>2021-08-05 11:52:45</time>
      </trkpt>
      <trkpt lat="37.08565" lon="-3.38176">
        <ele>2632.8</ele>
        <time>2021-08-05 11:52:46</time>
      </trkpt>
      <trkpt lat="37.08565" lon="-3.38176">
        <ele>2632.8</ele>
        <time>2021-08-05 11:52:47</time>
      </trkpt>
      <trkpt lat="37.08565" lon="-3.38176">
        <ele>2632.8</ele>
        <time>2021-08-05 11:52:48</time>
      </trkpt>
      <trkpt lat="37.08565" lon="-3.38176">
        <ele>2632.8</ele>
        <time>2021-08-05 11:52:49</time>
      </trkpt>
      <trkpt lat="37.08565" lon="-3.38175">
        <ele>2632.8</ele>
        <time>2021-08-05 11:52:50</time>
      </trkpt>
      <trkpt lat="37.08565" lon="-3.38174">
        <ele>2632.8</ele>
        <time>2021-08-05 11:52:51</time>
      </trkpt>
      <trkpt lat="37.08565" lon="-3.38174">
        <ele>2632.8</ele>
        <time>2021-08-05 11:52:52</time>
      </trkpt>
      <trkpt lat="37.08565" lon="-3.38173">
        <ele>2632.8</ele>
        <time>2021-08-05 11:52:53</time>
      </trkpt>
      <trkpt lat="37.08564" lon="-3.38173">
        <ele>2633.2</ele>
        <time>2021-08-05 11:52:54</time>
      </trkpt>
      <trkpt lat="37.08563" lon="-3.38172">
        <ele>2633.2</ele>
        <time>2021-08-05 11:52:55</time>
      </trkpt>
      <trkpt lat="37.08562" lon="-3.3817">
        <ele>2633.4</ele>
        <time>2021-08-05 11:52:56</time>
      </trkpt>
      <trkpt lat="37.08562" lon="-3.38168">
        <ele>2633.4</ele>
        <time>2021-08-05 11:52:57</time>
      </trkpt>
      <trkpt lat="37.08561" lon="-3.38167">
        <ele>2633.4</ele>
        <time>2021-08-05 11:52:58</time>
      </trkpt>
      <trkpt lat="37.0856" lon="-3.38166">
        <ele>2633.4</ele>
        <time>2021-08-05 11:52:59</time>
      </trkpt>
      <trkpt lat="37.0856" lon="-3.38165">
        <ele>2633.4</ele>
        <time>2021-08-05 11:53:00</time>
      </trkpt>
      <trkpt lat="37.08558" lon="-3.38163">
        <ele>2633.4</ele>
        <time>2021-08-05 11:53:01</time>
      </trkpt>
      <trkpt lat="37.08558" lon="-3.38163">
        <ele>2633.4</ele>
        <time>2021-08-05 11:53:02</time>
      </trkpt>
      <trkpt lat="37.08557" lon="-3.38163">
        <ele>2633.6</ele>
        <time>2021-08-05 11:53:03</time>
      </trkpt>
      <trkpt lat="37.08556" lon="-3.38163">
        <ele>2633.8</ele>
        <time>2021-08-05 11:53:04</time>
      </trkpt>
      <trkpt lat="37.08555" lon="-3.38163">
        <ele>2633.8</ele>
        <time>2021-08-05 11:53:05</time>
      </trkpt>
      <trkpt lat="37.08555" lon="-3.38163">
        <ele>2634.2</ele>
        <time>2021-08-05 11:53:06</time>
      </trkpt>
      <trkpt lat="37.08555" lon="-3.38163">
        <ele>2634.4</ele>
        <time>2021-08-05 11:53:07</time>
      </trkpt>
      <trkpt lat="37.08553" lon="-3.38164">
        <ele>2634.8</ele>
        <time>2021-08-05 11:53:08</time>
      </trkpt>
      <trkpt lat="37.08552" lon="-3.38165">
        <ele>2635</ele>
        <time>2021-08-05 11:53:09</time>
      </trkpt>
      <trkpt lat="37.08552" lon="-3.38165">
        <ele>2635.4</ele>
        <time>2021-08-05 11:53:10</time>
      </trkpt>
      <trkpt lat="37.08552" lon="-3.38165">
        <ele>2635.6</ele>
        <time>2021-08-05 11:53:11</time>
      </trkpt>
      <trkpt lat="37.08551" lon="-3.38164">
        <ele>2636</ele>
        <time>2021-08-05 11:53:12</time>
      </trkpt>
      <trkpt lat="37.0855" lon="-3.38164">
        <ele>2636</ele>
        <time>2021-08-05 11:53:13</time>
      </trkpt>
      <trkpt lat="37.0855" lon="-3.38164">
        <ele>2636.2</ele>
        <time>2021-08-05 11:53:14</time>
      </trkpt>
      <trkpt lat="37.0855" lon="-3.38164">
        <ele>2636.4</ele>
        <time>2021-08-05 11:53:15</time>
      </trkpt>
      <trkpt lat="37.08549" lon="-3.38164">
        <ele>2636.6</ele>
        <time>2021-08-05 11:53:16</time>
      </trkpt>
      <trkpt lat="37.08549" lon="-3.38162">
        <ele>2636.8</ele>
        <time>2021-08-05 11:53:17</time>
      </trkpt>
      <trkpt lat="37.08549" lon="-3.38161">
        <ele>2637.2</ele>
        <time>2021-08-05 11:53:18</time>
      </trkpt>
      <trkpt lat="37.08548" lon="-3.3816">
        <ele>2637.6</ele>
        <time>2021-08-05 11:53:19</time>
      </trkpt>
      <trkpt lat="37.08547" lon="-3.38161">
        <ele>2637.8</ele>
        <time>2021-08-05 11:53:20</time>
      </trkpt>
      <trkpt lat="37.08546" lon="-3.38161">
        <ele>2638</ele>
        <time>2021-08-05 11:53:21</time>
      </trkpt>
      <trkpt lat="37.08545" lon="-3.3816">
        <ele>2638.2</ele>
        <time>2021-08-05 11:53:22</time>
      </trkpt>
      <trkpt lat="37.08545" lon="-3.3816">
        <ele>2638.6</ele>
        <time>2021-08-05 11:53:23</time>
      </trkpt>
      <trkpt lat="37.08544" lon="-3.3816">
        <ele>2639</ele>
        <time>2021-08-05 11:53:24</time>
      </trkpt>
      <trkpt lat="37.08542" lon="-3.3816">
        <ele>2639.2</ele>
        <time>2021-08-05 11:53:25</time>
      </trkpt>
      <trkpt lat="37.08541" lon="-3.3816">
        <ele>2639.2</ele>
        <time>2021-08-05 11:53:26</time>
      </trkpt>
      <trkpt lat="37.0854" lon="-3.38159">
        <ele>2639.2</ele>
        <time>2021-08-05 11:53:27</time>
      </trkpt>
      <trkpt lat="37.08539" lon="-3.38159">
        <ele>2639.2</ele>
        <time>2021-08-05 11:53:28</time>
      </trkpt>
      <trkpt lat="37.08538" lon="-3.38159">
        <ele>2639.2</ele>
        <time>2021-08-05 11:53:29</time>
      </trkpt>
      <trkpt lat="37.08537" lon="-3.38159">
        <ele>2639</ele>
        <time>2021-08-05 11:53:30</time>
      </trkpt>
      <trkpt lat="37.08536" lon="-3.3816">
        <ele>2639</ele>
        <time>2021-08-05 11:53:31</time>
      </trkpt>
      <trkpt lat="37.08536" lon="-3.3816">
        <ele>2639</ele>
        <time>2021-08-05 11:53:32</time>
      </trkpt>
      <trkpt lat="37.08535" lon="-3.38159">
        <ele>2639.2</ele>
        <time>2021-08-05 11:53:33</time>
      </trkpt>
      <trkpt lat="37.08535" lon="-3.38158">
        <ele>2639.2</ele>
        <time>2021-08-05 11:53:34</time>
      </trkpt>
      <trkpt lat="37.08534" lon="-3.38158">
        <ele>2639.4</ele>
        <time>2021-08-05 11:53:35</time>
      </trkpt>
      <trkpt lat="37.08533" lon="-3.38156">
        <ele>2639.4</ele>
        <time>2021-08-05 11:53:36</time>
      </trkpt>
      <trkpt lat="37.08533" lon="-3.38155">
        <ele>2639.4</ele>
        <time>2021-08-05 11:53:37</time>
      </trkpt>
      <trkpt lat="37.08533" lon="-3.38154">
        <ele>2639.6</ele>
        <time>2021-08-05 11:53:38</time>
      </trkpt>
      <trkpt lat="37.08533" lon="-3.38155">
        <ele>2639.8</ele>
        <time>2021-08-05 11:53:39</time>
      </trkpt>
      <trkpt lat="37.08532" lon="-3.38154">
        <ele>2640</ele>
        <time>2021-08-05 11:53:40</time>
      </trkpt>
      <trkpt lat="37.08532" lon="-3.38154">
        <ele>2640</ele>
        <time>2021-08-05 11:53:41</time>
      </trkpt>
      <trkpt lat="37.08533" lon="-3.38154">
        <ele>2640</ele>
        <time>2021-08-05 11:53:42</time>
      </trkpt>
      <trkpt lat="37.08533" lon="-3.38154">
        <ele>2640.2</ele>
        <time>2021-08-05 11:53:43</time>
      </trkpt>
      <trkpt lat="37.08533" lon="-3.38155">
        <ele>2640.2</ele>
        <time>2021-08-05 11:53:44</time>
      </trkpt>
      <trkpt lat="37.08532" lon="-3.38154">
        <ele>2640.2</ele>
        <time>2021-08-05 11:53:45</time>
      </trkpt>
      <trkpt lat="37.08531" lon="-3.38153">
        <ele>2640.2</ele>
        <time>2021-08-05 11:53:46</time>
      </trkpt>
      <trkpt lat="37.0853" lon="-3.38152">
        <ele>2640.2</ele>
        <time>2021-08-05 11:53:47</time>
      </trkpt>
      <trkpt lat="37.08529" lon="-3.38151">
        <ele>2640.4</ele>
        <time>2021-08-05 11:53:48</time>
      </trkpt>
      <trkpt lat="37.08528" lon="-3.3815">
        <ele>2640.6</ele>
        <time>2021-08-05 11:53:49</time>
      </trkpt>
      <trkpt lat="37.08526" lon="-3.38149">
        <ele>2640.6</ele>
        <time>2021-08-05 11:53:50</time>
      </trkpt>
      <trkpt lat="37.08525" lon="-3.38148">
        <ele>2640.8</ele>
        <time>2021-08-05 11:53:51</time>
      </trkpt>
      <trkpt lat="37.08524" lon="-3.38147">
        <ele>2641</ele>
        <time>2021-08-05 11:53:52</time>
      </trkpt>
      <trkpt lat="37.08524" lon="-3.38146">
        <ele>2641.4</ele>
        <time>2021-08-05 11:53:53</time>
      </trkpt>
      <trkpt lat="37.08523" lon="-3.38145">
        <ele>2641.6</ele>
        <time>2021-08-05 11:53:54</time>
      </trkpt>
      <trkpt lat="37.08522" lon="-3.38144">
        <ele>2641.8</ele>
        <time>2021-08-05 11:53:55</time>
      </trkpt>
      <trkpt lat="37.08521" lon="-3.38143">
        <ele>2642</ele>
        <time>2021-08-05 11:53:56</time>
      </trkpt>
      <trkpt lat="37.08521" lon="-3.38142">
        <ele>2642</ele>
        <time>2021-08-05 11:53:57</time>
      </trkpt>
      <trkpt lat="37.08521" lon="-3.38141">
        <ele>2642</ele>
        <time>2021-08-05 11:53:58</time>
      </trkpt>
      <trkpt lat="37.08521" lon="-3.38141">
        <ele>2642</ele>
        <time>2021-08-05 11:53:59</time>
      </trkpt>
      <trkpt lat="37.0852" lon="-3.38141">
        <ele>2642</ele>
        <time>2021-08-05 11:54:00</time>
      </trkpt>
      <trkpt lat="37.0852" lon="-3.3814">
        <ele>2642</ele>
        <time>2021-08-05 11:54:01</time>
      </trkpt>
      <trkpt lat="37.0852" lon="-3.3814">
        <ele>2642</ele>
        <time>2021-08-05 11:54:02</time>
      </trkpt>
      <trkpt lat="37.0852" lon="-3.3814">
        <ele>2642.2</ele>
        <time>2021-08-05 11:54:03</time>
      </trkpt>
      <trkpt lat="37.0852" lon="-3.3814">
        <ele>2642.4</ele>
        <time>2021-08-05 11:54:04</time>
      </trkpt>
      <trkpt lat="37.0852" lon="-3.3814">
        <ele>2642.6</ele>
        <time>2021-08-05 11:54:05</time>
      </trkpt>
      <trkpt lat="37.0852" lon="-3.3814">
        <ele>2642.6</ele>
        <time>2021-08-05 11:54:06</time>
      </trkpt>
      <trkpt lat="37.0852" lon="-3.38141">
        <ele>2642.6</ele>
        <time>2021-08-05 11:54:07</time>
      </trkpt>
      <trkpt lat="37.08519" lon="-3.38141">
        <ele>2642.4</ele>
        <time>2021-08-05 11:54:08</time>
      </trkpt>
      <trkpt lat="37.08519" lon="-3.38141">
        <ele>2642.6</ele>
        <time>2021-08-05 11:54:09</time>
      </trkpt>
      <trkpt lat="37.08518" lon="-3.3814">
        <ele>2642.6</ele>
        <time>2021-08-05 11:54:10</time>
      </trkpt>
      <trkpt lat="37.08518" lon="-3.3814">
        <ele>2642.6</ele>
        <time>2021-08-05 11:54:11</time>
      </trkpt>
      <trkpt lat="37.08517" lon="-3.3814">
        <ele>2642.8</ele>
        <time>2021-08-05 11:54:12</time>
      </trkpt>
      <trkpt lat="37.08517" lon="-3.38139">
        <ele>2642.8</ele>
        <time>2021-08-05 11:54:13</time>
      </trkpt>
      <trkpt lat="37.08517" lon="-3.38138">
        <ele>2642.8</ele>
        <time>2021-08-05 11:54:14</time>
      </trkpt>
      <trkpt lat="37.08517" lon="-3.38138">
        <ele>2642.8</ele>
        <time>2021-08-05 11:54:15</time>
      </trkpt>
      <trkpt lat="37.08516" lon="-3.38138">
        <ele>2643</ele>
        <time>2021-08-05 11:54:16</time>
      </trkpt>
      <trkpt lat="37.08516" lon="-3.38138">
        <ele>2643.2</ele>
        <time>2021-08-05 11:54:17</time>
      </trkpt>
      <trkpt lat="37.08515" lon="-3.38137">
        <ele>2643.2</ele>
        <time>2021-08-05 11:54:18</time>
      </trkpt>
      <trkpt lat="37.08515" lon="-3.38137">
        <ele>2643.4</ele>
        <time>2021-08-05 11:54:19</time>
      </trkpt>
      <trkpt lat="37.08515" lon="-3.38137">
        <ele>2643.4</ele>
        <time>2021-08-05 11:54:20</time>
      </trkpt>
      <trkpt lat="37.08514" lon="-3.38136">
        <ele>2643.8</ele>
        <time>2021-08-05 11:54:21</time>
      </trkpt>
      <trkpt lat="37.08514" lon="-3.38135">
        <ele>2644.2</ele>
        <time>2021-08-05 11:54:22</time>
      </trkpt>
      <trkpt lat="37.08513" lon="-3.38135">
        <ele>2644.6</ele>
        <time>2021-08-05 11:54:23</time>
      </trkpt>
      <trkpt lat="37.08512" lon="-3.38134">
        <ele>2644.8</ele>
        <time>2021-08-05 11:54:24</time>
      </trkpt>
      <trkpt lat="37.08511" lon="-3.38133">
        <ele>2645</ele>
        <time>2021-08-05 11:54:25</time>
      </trkpt>
      <trkpt lat="37.08509" lon="-3.38132">
        <ele>2645.2</ele>
        <time>2021-08-05 11:54:26</time>
      </trkpt>
      <trkpt lat="37.08509" lon="-3.38131">
        <ele>2645.2</ele>
        <time>2021-08-05 11:54:27</time>
      </trkpt>
      <trkpt lat="37.08508" lon="-3.38131">
        <ele>2645</ele>
        <time>2021-08-05 11:54:28</time>
      </trkpt>
      <trkpt lat="37.08507" lon="-3.38131">
        <ele>2645</ele>
        <time>2021-08-05 11:54:29</time>
      </trkpt>
      <trkpt lat="37.08506" lon="-3.38131">
        <ele>2645</ele>
        <time>2021-08-05 11:54:30</time>
      </trkpt>
      <trkpt lat="37.08505" lon="-3.3813">
        <ele>2645</ele>
        <time>2021-08-05 11:54:31</time>
      </trkpt>
      <trkpt lat="37.08504" lon="-3.38129">
        <ele>2645</ele>
        <time>2021-08-05 11:54:32</time>
      </trkpt>
      <trkpt lat="37.08503" lon="-3.38128">
        <ele>2645.2</ele>
        <time>2021-08-05 11:54:33</time>
      </trkpt>
      <trkpt lat="37.08502" lon="-3.38128">
        <ele>2645.4</ele>
        <time>2021-08-05 11:54:34</time>
      </trkpt>
      <trkpt lat="37.08501" lon="-3.38128">
        <ele>2645.4</ele>
        <time>2021-08-05 11:54:35</time>
      </trkpt>
      <trkpt lat="37.08501" lon="-3.38128">
        <ele>2645.6</ele>
        <time>2021-08-05 11:54:36</time>
      </trkpt>
      <trkpt lat="37.085" lon="-3.38127">
        <ele>2645.6</ele>
        <time>2021-08-05 11:54:37</time>
      </trkpt>
      <trkpt lat="37.085" lon="-3.38127">
        <ele>2645.8</ele>
        <time>2021-08-05 11:54:38</time>
      </trkpt>
      <trkpt lat="37.08499" lon="-3.38126">
        <ele>2645.8</ele>
        <time>2021-08-05 11:54:39</time>
      </trkpt>
      <trkpt lat="37.08498" lon="-3.38125">
        <ele>2645.8</ele>
        <time>2021-08-05 11:54:40</time>
      </trkpt>
      <trkpt lat="37.08498" lon="-3.38125">
        <ele>2645.8</ele>
        <time>2021-08-05 11:54:41</time>
      </trkpt>
      <trkpt lat="37.08498" lon="-3.38126">
        <ele>2645.8</ele>
        <time>2021-08-05 11:54:42</time>
      </trkpt>
      <trkpt lat="37.08498" lon="-3.38126">
        <ele>2646.4</ele>
        <time>2021-08-05 11:54:43</time>
      </trkpt>
      <trkpt lat="37.08497" lon="-3.38125">
        <ele>2646.8</ele>
        <time>2021-08-05 11:54:44</time>
      </trkpt>
      <trkpt lat="37.08497" lon="-3.38125">
        <ele>2647</ele>
        <time>2021-08-05 11:54:45</time>
      </trkpt>
      <trkpt lat="37.08497" lon="-3.38125">
        <ele>2647.2</ele>
        <time>2021-08-05 11:54:46</time>
      </trkpt>
      <trkpt lat="37.08498" lon="-3.38125">
        <ele>2647.4</ele>
        <time>2021-08-05 11:54:47</time>
      </trkpt>
      <trkpt lat="37.08497" lon="-3.38125">
        <ele>2647.4</ele>
        <time>2021-08-05 11:54:48</time>
      </trkpt>
      <trkpt lat="37.08495" lon="-3.38125">
        <ele>2647.8</ele>
        <time>2021-08-05 11:54:49</time>
      </trkpt>
      <trkpt lat="37.08495" lon="-3.38124">
        <ele>2647.6</ele>
        <time>2021-08-05 11:54:50</time>
      </trkpt>
      <trkpt lat="37.08494" lon="-3.38124">
        <ele>2647.8</ele>
        <time>2021-08-05 11:54:51</time>
      </trkpt>
      <trkpt lat="37.08494" lon="-3.38124">
        <ele>2648</ele>
        <time>2021-08-05 11:54:52</time>
      </trkpt>
      <trkpt lat="37.08494" lon="-3.38124">
        <ele>2648</ele>
        <time>2021-08-05 11:54:53</time>
      </trkpt>
      <trkpt lat="37.08493" lon="-3.38123">
        <ele>2648</ele>
        <time>2021-08-05 11:54:54</time>
      </trkpt>
      <trkpt lat="37.08493" lon="-3.38122">
        <ele>2648</ele>
        <time>2021-08-05 11:54:55</time>
      </trkpt>
      <trkpt lat="37.08492" lon="-3.38122">
        <ele>2648.2</ele>
        <time>2021-08-05 11:54:56</time>
      </trkpt>
      <trkpt lat="37.08491" lon="-3.38122">
        <ele>2648.4</ele>
        <time>2021-08-05 11:54:57</time>
      </trkpt>
      <trkpt lat="37.0849" lon="-3.38122">
        <ele>2648.4</ele>
        <time>2021-08-05 11:54:58</time>
      </trkpt>
      <trkpt lat="37.08489" lon="-3.38121">
        <ele>2648.6</ele>
        <time>2021-08-05 11:54:59</time>
      </trkpt>
      <trkpt lat="37.08488" lon="-3.38121">
        <ele>2648.6</ele>
        <time>2021-08-05 11:55:00</time>
      </trkpt>
      <trkpt lat="37.08488" lon="-3.38121">
        <ele>2648.6</ele>
        <time>2021-08-05 11:55:01</time>
      </trkpt>
      <trkpt lat="37.08487" lon="-3.38121">
        <ele>2648.6</ele>
        <time>2021-08-05 11:55:02</time>
      </trkpt>
      <trkpt lat="37.08487" lon="-3.38122">
        <ele>2648.6</ele>
        <time>2021-08-05 11:55:03</time>
      </trkpt>
      <trkpt lat="37.08486" lon="-3.38121">
        <ele>2648.6</ele>
        <time>2021-08-05 11:55:04</time>
      </trkpt>
      <trkpt lat="37.08485" lon="-3.38121">
        <ele>2648.6</ele>
        <time>2021-08-05 11:55:05</time>
      </trkpt>
      <trkpt lat="37.08484" lon="-3.38122">
        <ele>2648.6</ele>
        <time>2021-08-05 11:55:06</time>
      </trkpt>
      <trkpt lat="37.08483" lon="-3.38121">
        <ele>2648.6</ele>
        <time>2021-08-05 11:55:07</time>
      </trkpt>
      <trkpt lat="37.08483" lon="-3.38121">
        <ele>2648.6</ele>
        <time>2021-08-05 11:55:08</time>
      </trkpt>
      <trkpt lat="37.08481" lon="-3.3812">
        <ele>2648.6</ele>
        <time>2021-08-05 11:55:09</time>
      </trkpt>
      <trkpt lat="37.0848" lon="-3.3812">
        <ele>2648.6</ele>
        <time>2021-08-05 11:55:10</time>
      </trkpt>
      <trkpt lat="37.0848" lon="-3.3812">
        <ele>2648.4</ele>
        <time>2021-08-05 11:55:11</time>
      </trkpt>
      <trkpt lat="37.0848" lon="-3.3812">
        <ele>2648.4</ele>
        <time>2021-08-05 11:55:12</time>
      </trkpt>
      <trkpt lat="37.08479" lon="-3.3812">
        <ele>2648.4</ele>
        <time>2021-08-05 11:55:13</time>
      </trkpt>
      <trkpt lat="37.08479" lon="-3.38119">
        <ele>2648.2</ele>
        <time>2021-08-05 11:55:14</time>
      </trkpt>
      <trkpt lat="37.08478" lon="-3.38119">
        <ele>2648</ele>
        <time>2021-08-05 11:55:15</time>
      </trkpt>
      <trkpt lat="37.08477" lon="-3.38117">
        <ele>2648</ele>
        <time>2021-08-05 11:55:16</time>
      </trkpt>
      <trkpt lat="37.08476" lon="-3.38116">
        <ele>2648</ele>
        <time>2021-08-05 11:55:17</time>
      </trkpt>
      <trkpt lat="37.08475" lon="-3.38115">
        <ele>2648</ele>
        <time>2021-08-05 11:55:18</time>
      </trkpt>
      <trkpt lat="37.08474" lon="-3.38115">
        <ele>2648</ele>
        <time>2021-08-05 11:55:19</time>
      </trkpt>
      <trkpt lat="37.08475" lon="-3.38115">
        <ele>2648</ele>
        <time>2021-08-05 11:55:20</time>
      </trkpt>
      <trkpt lat="37.08475" lon="-3.38114">
        <ele>2648</ele>
        <time>2021-08-05 11:55:21</time>
      </trkpt>
      <trkpt lat="37.08474" lon="-3.38114">
        <ele>2648</ele>
        <time>2021-08-05 11:55:22</time>
      </trkpt>
      <trkpt lat="37.08473" lon="-3.38114">
        <ele>2648</ele>
        <time>2021-08-05 11:55:23</time>
      </trkpt>
      <trkpt lat="37.08472" lon="-3.38113">
        <ele>2648</ele>
        <time>2021-08-05 11:55:24</time>
      </trkpt>
      <trkpt lat="37.08471" lon="-3.38113">
        <ele>2648</ele>
        <time>2021-08-05 11:55:25</time>
      </trkpt>
      <trkpt lat="37.08471" lon="-3.38113">
        <ele>2648.2</ele>
        <time>2021-08-05 11:55:26</time>
      </trkpt>
      <trkpt lat="37.0847" lon="-3.38113">
        <ele>2648.2</ele>
        <time>2021-08-05 11:55:27</time>
      </trkpt>
      <trkpt lat="37.08469" lon="-3.38114">
        <ele>2648.4</ele>
        <time>2021-08-05 11:55:28</time>
      </trkpt>
      <trkpt lat="37.08468" lon="-3.38114">
        <ele>2648.6</ele>
        <time>2021-08-05 11:55:29</time>
      </trkpt>
      <trkpt lat="37.08468" lon="-3.38113">
        <ele>2648.8</ele>
        <time>2021-08-05 11:55:30</time>
      </trkpt>
      <trkpt lat="37.08467" lon="-3.38113">
        <ele>2649</ele>
        <time>2021-08-05 11:55:31</time>
      </trkpt>
      <trkpt lat="37.08466" lon="-3.38113">
        <ele>2649.2</ele>
        <time>2021-08-05 11:55:32</time>
      </trkpt>
      <trkpt lat="37.08465" lon="-3.38113">
        <ele>2649.2</ele>
        <time>2021-08-05 11:55:33</time>
      </trkpt>
      <trkpt lat="37.08464" lon="-3.38113">
        <ele>2649.2</ele>
        <time>2021-08-05 11:55:34</time>
      </trkpt>
      <trkpt lat="37.08464" lon="-3.38113">
        <ele>2649.4</ele>
        <time>2021-08-05 11:55:35</time>
      </trkpt>
      <trkpt lat="37.08463" lon="-3.38113">
        <ele>2649.4</ele>
        <time>2021-08-05 11:55:36</time>
      </trkpt>
      <trkpt lat="37.08462" lon="-3.38113">
        <ele>2649.4</ele>
        <time>2021-08-05 11:55:37</time>
      </trkpt>
      <trkpt lat="37.08461" lon="-3.38114">
        <ele>2649.4</ele>
        <time>2021-08-05 11:55:38</time>
      </trkpt>
      <trkpt lat="37.0846" lon="-3.38113">
        <ele>2649.4</ele>
        <time>2021-08-05 11:55:39</time>
      </trkpt>
      <trkpt lat="37.08459" lon="-3.38113">
        <ele>2649.4</ele>
        <time>2021-08-05 11:55:40</time>
      </trkpt>
      <trkpt lat="37.08458" lon="-3.38113">
        <ele>2649.4</ele>
        <time>2021-08-05 11:55:41</time>
      </trkpt>
      <trkpt lat="37.08457" lon="-3.38112">
        <ele>2649.4</ele>
        <time>2021-08-05 11:55:42</time>
      </trkpt>
      <trkpt lat="37.08456" lon="-3.38112">
        <ele>2649.4</ele>
        <time>2021-08-05 11:55:43</time>
      </trkpt>
      <trkpt lat="37.08455" lon="-3.38112">
        <ele>2649.4</ele>
        <time>2021-08-05 11:55:44</time>
      </trkpt>
      <trkpt lat="37.08455" lon="-3.38112">
        <ele>2649.6</ele>
        <time>2021-08-05 11:55:45</time>
      </trkpt>
      <trkpt lat="37.08454" lon="-3.38112">
        <ele>2649.8</ele>
        <time>2021-08-05 11:55:46</time>
      </trkpt>
      <trkpt lat="37.08453" lon="-3.38112">
        <ele>2650</ele>
        <time>2021-08-05 11:55:47</time>
      </trkpt>
      <trkpt lat="37.08452" lon="-3.38111">
        <ele>2650.2</ele>
        <time>2021-08-05 11:55:48</time>
      </trkpt>
      <trkpt lat="37.08451" lon="-3.38111">
        <ele>2650.2</ele>
        <time>2021-08-05 11:55:49</time>
      </trkpt>
      <trkpt lat="37.0845" lon="-3.3811">
        <ele>2650.2</ele>
        <time>2021-08-05 11:55:50</time>
      </trkpt>
      <trkpt lat="37.08449" lon="-3.3811">
        <ele>2649.8</ele>
        <time>2021-08-05 11:55:51</time>
      </trkpt>
      <trkpt lat="37.08449" lon="-3.38109">
        <ele>2649.8</ele>
        <time>2021-08-05 11:55:52</time>
      </trkpt>
      <trkpt lat="37.08448" lon="-3.38109">
        <ele>2649.8</ele>
        <time>2021-08-05 11:55:53</time>
      </trkpt>
      <trkpt lat="37.08447" lon="-3.38109">
        <ele>2649.8</ele>
        <time>2021-08-05 11:55:54</time>
      </trkpt>
      <trkpt lat="37.08447" lon="-3.38109">
        <ele>2650</ele>
        <time>2021-08-05 11:55:55</time>
      </trkpt>
      <trkpt lat="37.08446" lon="-3.38108">
        <ele>2650.4</ele>
        <time>2021-08-05 11:55:56</time>
      </trkpt>
      <trkpt lat="37.08445" lon="-3.38108">
        <ele>2650.8</ele>
        <time>2021-08-05 11:55:57</time>
      </trkpt>
      <trkpt lat="37.08445" lon="-3.38108">
        <ele>2650.8</ele>
        <time>2021-08-05 11:55:58</time>
      </trkpt>
      <trkpt lat="37.08444" lon="-3.38108">
        <ele>2651</ele>
        <time>2021-08-05 11:55:59</time>
      </trkpt>
      <trkpt lat="37.08444" lon="-3.38106">
        <ele>2651</ele>
        <time>2021-08-05 11:56:00</time>
      </trkpt>
      <trkpt lat="37.08443" lon="-3.38104">
        <ele>2651</ele>
        <time>2021-08-05 11:56:01</time>
      </trkpt>
      <trkpt lat="37.08443" lon="-3.38104">
        <ele>2651</ele>
        <time>2021-08-05 11:56:02</time>
      </trkpt>
      <trkpt lat="37.08443" lon="-3.38103">
        <ele>2651</ele>
        <time>2021-08-05 11:56:03</time>
      </trkpt>
      <trkpt lat="37.08442" lon="-3.38103">
        <ele>2651</ele>
        <time>2021-08-05 11:56:04</time>
      </trkpt>
      <trkpt lat="37.08442" lon="-3.38102">
        <ele>2651</ele>
        <time>2021-08-05 11:56:05</time>
      </trkpt>
      <trkpt lat="37.08442" lon="-3.38101">
        <ele>2651</ele>
        <time>2021-08-05 11:56:06</time>
      </trkpt>
      <trkpt lat="37.08441" lon="-3.38101">
        <ele>2651</ele>
        <time>2021-08-05 11:56:07</time>
      </trkpt>
      <trkpt lat="37.08441" lon="-3.381">
        <ele>2650.8</ele>
        <time>2021-08-05 11:56:08</time>
      </trkpt>
      <trkpt lat="37.08441" lon="-3.381">
        <ele>2651</ele>
        <time>2021-08-05 11:56:09</time>
      </trkpt>
      <trkpt lat="37.08442" lon="-3.381">
        <ele>2651</ele>
        <time>2021-08-05 11:56:10</time>
      </trkpt>
      <trkpt lat="37.08441" lon="-3.38099">
        <ele>2651</ele>
        <time>2021-08-05 11:56:11</time>
      </trkpt>
      <trkpt lat="37.08441" lon="-3.38099">
        <ele>2651.2</ele>
        <time>2021-08-05 11:56:12</time>
      </trkpt>
      <trkpt lat="37.08442" lon="-3.38099">
        <ele>2651.2</ele>
        <time>2021-08-05 11:56:13</time>
      </trkpt>
      <trkpt lat="37.08442" lon="-3.38099">
        <ele>2651.4</ele>
        <time>2021-08-05 11:56:14</time>
      </trkpt>
      <trkpt lat="37.08443" lon="-3.38099">
        <ele>2651.6</ele>
        <time>2021-08-05 11:56:15</time>
      </trkpt>
      <trkpt lat="37.08443" lon="-3.38099">
        <ele>2651.6</ele>
        <time>2021-08-05 11:56:16</time>
      </trkpt>
      <trkpt lat="37.08442" lon="-3.38099">
        <ele>2651.8</ele>
        <time>2021-08-05 11:56:17</time>
      </trkpt>
      <trkpt lat="37.08442" lon="-3.38099">
        <ele>2651.8</ele>
        <time>2021-08-05 11:56:18</time>
      </trkpt>
      <trkpt lat="37.08442" lon="-3.38099">
        <ele>2651.8</ele>
        <time>2021-08-05 11:56:19</time>
      </trkpt>
      <trkpt lat="37.08441" lon="-3.38098">
        <ele>2652.2</ele>
        <time>2021-08-05 11:56:20</time>
      </trkpt>
      <trkpt lat="37.08441" lon="-3.38098">
        <ele>2652.4</ele>
        <time>2021-08-05 11:56:21</time>
      </trkpt>
      <trkpt lat="37.0844" lon="-3.38098">
        <ele>2652.8</ele>
        <time>2021-08-05 11:56:22</time>
      </trkpt>
      <trkpt lat="37.08439" lon="-3.38098">
        <ele>2652.8</ele>
        <time>2021-08-05 11:56:23</time>
      </trkpt>
      <trkpt lat="37.08439" lon="-3.38098">
        <ele>2652.8</ele>
        <time>2021-08-05 11:56:24</time>
      </trkpt>
      <trkpt lat="37.08439" lon="-3.38098">
        <ele>2652.6</ele>
        <time>2021-08-05 11:56:25</time>
      </trkpt>
      <trkpt lat="37.08438" lon="-3.38098">
        <ele>2652.6</ele>
        <time>2021-08-05 11:56:26</time>
      </trkpt>
      <trkpt lat="37.08438" lon="-3.38097">
        <ele>2652.8</ele>
        <time>2021-08-05 11:56:27</time>
      </trkpt>
      <trkpt lat="37.08438" lon="-3.38097">
        <ele>2652.8</ele>
        <time>2021-08-05 11:56:28</time>
      </trkpt>
      <trkpt lat="37.08438" lon="-3.38098">
        <ele>2652.6</ele>
        <time>2021-08-05 11:56:29</time>
      </trkpt>
      <trkpt lat="37.08437" lon="-3.38098">
        <ele>2653</ele>
        <time>2021-08-05 11:56:30</time>
      </trkpt>
      <trkpt lat="37.08437" lon="-3.38098">
        <ele>2653.2</ele>
        <time>2021-08-05 11:56:31</time>
      </trkpt>
      <trkpt lat="37.08437" lon="-3.38098">
        <ele>2653.2</ele>
        <time>2021-08-05 11:56:32</time>
      </trkpt>
      <trkpt lat="37.08437" lon="-3.38097">
        <ele>2653.2</ele>
        <time>2021-08-05 11:56:33</time>
      </trkpt>
      <trkpt lat="37.08436" lon="-3.38098">
        <ele>2653.2</ele>
        <time>2021-08-05 11:56:34</time>
      </trkpt>
      <trkpt lat="37.08436" lon="-3.38099">
        <ele>2653.6</ele>
        <time>2021-08-05 11:56:35</time>
      </trkpt>
      <trkpt lat="37.08435" lon="-3.38099">
        <ele>2653.8</ele>
        <time>2021-08-05 11:56:36</time>
      </trkpt>
      <trkpt lat="37.08433" lon="-3.38099">
        <ele>2653.8</ele>
        <time>2021-08-05 11:56:37</time>
      </trkpt>
      <trkpt lat="37.08432" lon="-3.38098">
        <ele>2654</ele>
        <time>2021-08-05 11:56:38</time>
      </trkpt>
      <trkpt lat="37.08432" lon="-3.38098">
        <ele>2654.2</ele>
        <time>2021-08-05 11:56:39</time>
      </trkpt>
      <trkpt lat="37.08431" lon="-3.38098">
        <ele>2654.2</ele>
        <time>2021-08-05 11:56:40</time>
      </trkpt>
      <trkpt lat="37.08431" lon="-3.381">
        <ele>2654.2</ele>
        <time>2021-08-05 11:56:41</time>
      </trkpt>
      <trkpt lat="37.0843" lon="-3.381">
        <ele>2654.2</ele>
        <time>2021-08-05 11:56:42</time>
      </trkpt>
      <trkpt lat="37.0843" lon="-3.381">
        <ele>2654.2</ele>
        <time>2021-08-05 11:56:43</time>
      </trkpt>
      <trkpt lat="37.08429" lon="-3.381">
        <ele>2654.2</ele>
        <time>2021-08-05 11:56:44</time>
      </trkpt>
      <trkpt lat="37.08429" lon="-3.381">
        <ele>2654.2</ele>
        <time>2021-08-05 11:56:45</time>
      </trkpt>
      <trkpt lat="37.08428" lon="-3.38099">
        <ele>2654.4</ele>
        <time>2021-08-05 11:56:46</time>
      </trkpt>
      <trkpt lat="37.08428" lon="-3.38099">
        <ele>2654.4</ele>
        <time>2021-08-05 11:56:47</time>
      </trkpt>
      <trkpt lat="37.08428" lon="-3.38099">
        <ele>2654.6</ele>
        <time>2021-08-05 11:56:48</time>
      </trkpt>
      <trkpt lat="37.08427" lon="-3.38099">
        <ele>2654.8</ele>
        <time>2021-08-05 11:56:49</time>
      </trkpt>
      <trkpt lat="37.08428" lon="-3.38099">
        <ele>2655</ele>
        <time>2021-08-05 11:56:50</time>
      </trkpt>
      <trkpt lat="37.08427" lon="-3.38098">
        <ele>2655</ele>
        <time>2021-08-05 11:56:51</time>
      </trkpt>
      <trkpt lat="37.08427" lon="-3.38098">
        <ele>2655</ele>
        <time>2021-08-05 11:56:52</time>
      </trkpt>
      <trkpt lat="37.08426" lon="-3.38098">
        <ele>2655.2</ele>
        <time>2021-08-05 11:56:53</time>
      </trkpt>
      <trkpt lat="37.08426" lon="-3.38099">
        <ele>2655.4</ele>
        <time>2021-08-05 11:56:54</time>
      </trkpt>
      <trkpt lat="37.08426" lon="-3.38099">
        <ele>2655.4</ele>
        <time>2021-08-05 11:56:55</time>
      </trkpt>
      <trkpt lat="37.08425" lon="-3.38099">
        <ele>2655.6</ele>
        <time>2021-08-05 11:56:56</time>
      </trkpt>
      <trkpt lat="37.08424" lon="-3.38097">
        <ele>2655.8</ele>
        <time>2021-08-05 11:56:57</time>
      </trkpt>
      <trkpt lat="37.08424" lon="-3.38097">
        <ele>2655.8</ele>
        <time>2021-08-05 11:56:58</time>
      </trkpt>
      <trkpt lat="37.08423" lon="-3.38097">
        <ele>2655.8</ele>
        <time>2021-08-05 11:56:59</time>
      </trkpt>
      <trkpt lat="37.08423" lon="-3.38097">
        <ele>2656</ele>
        <time>2021-08-05 11:57:00</time>
      </trkpt>
      <trkpt lat="37.08422" lon="-3.38097">
        <ele>2656</ele>
        <time>2021-08-05 11:57:01</time>
      </trkpt>
      <trkpt lat="37.08422" lon="-3.38097">
        <ele>2656</ele>
        <time>2021-08-05 11:57:02</time>
      </trkpt>
      <trkpt lat="37.08421" lon="-3.38096">
        <ele>2656</ele>
        <time>2021-08-05 11:57:03</time>
      </trkpt>
      <trkpt lat="37.0842" lon="-3.38094">
        <ele>2656</ele>
        <time>2021-08-05 11:57:04</time>
      </trkpt>
      <trkpt lat="37.08419" lon="-3.38093">
        <ele>2656</ele>
        <time>2021-08-05 11:57:05</time>
      </trkpt>
      <trkpt lat="37.08419" lon="-3.38093">
        <ele>2656</ele>
        <time>2021-08-05 11:57:06</time>
      </trkpt>
      <trkpt lat="37.08419" lon="-3.38091">
        <ele>2656.2</ele>
        <time>2021-08-05 11:57:07</time>
      </trkpt>
      <trkpt lat="37.08418" lon="-3.38091">
        <ele>2656.2</ele>
        <time>2021-08-05 11:57:08</time>
      </trkpt>
      <trkpt lat="37.08418" lon="-3.38091">
        <ele>2656.4</ele>
        <time>2021-08-05 11:57:09</time>
      </trkpt>
      <trkpt lat="37.08418" lon="-3.38091">
        <ele>2656.6</ele>
        <time>2021-08-05 11:57:10</time>
      </trkpt>
      <trkpt lat="37.08417" lon="-3.3809">
        <ele>2656.8</ele>
        <time>2021-08-05 11:57:11</time>
      </trkpt>
      <trkpt lat="37.08417" lon="-3.38089">
        <ele>2657</ele>
        <time>2021-08-05 11:57:12</time>
      </trkpt>
      <trkpt lat="37.08416" lon="-3.38089">
        <ele>2657.2</ele>
        <time>2021-08-05 11:57:13</time>
      </trkpt>
      <trkpt lat="37.08416" lon="-3.38089">
        <ele>2657.4</ele>
        <time>2021-08-05 11:57:14</time>
      </trkpt>
      <trkpt lat="37.08415" lon="-3.38089">
        <ele>2657.4</ele>
        <time>2021-08-05 11:57:15</time>
      </trkpt>
      <trkpt lat="37.08414" lon="-3.38089">
        <ele>2657.4</ele>
        <time>2021-08-05 11:57:16</time>
      </trkpt>
      <trkpt lat="37.08414" lon="-3.38089">
        <ele>2657.6</ele>
        <time>2021-08-05 11:57:17</time>
      </trkpt>
      <trkpt lat="37.08413" lon="-3.38089">
        <ele>2657.6</ele>
        <time>2021-08-05 11:57:18</time>
      </trkpt>
      <trkpt lat="37.08413" lon="-3.38089">
        <ele>2657.6</ele>
        <time>2021-08-05 11:57:19</time>
      </trkpt>
      <trkpt lat="37.08412" lon="-3.3809">
        <ele>2657.8</ele>
        <time>2021-08-05 11:57:20</time>
      </trkpt>
      <trkpt lat="37.08411" lon="-3.38089">
        <ele>2658</ele>
        <time>2021-08-05 11:57:21</time>
      </trkpt>
      <trkpt lat="37.0841" lon="-3.38088">
        <ele>2657.8</ele>
        <time>2021-08-05 11:57:22</time>
      </trkpt>
      <trkpt lat="37.08409" lon="-3.38087">
        <ele>2657.8</ele>
        <time>2021-08-05 11:57:23</time>
      </trkpt>
      <trkpt lat="37.08408" lon="-3.38087">
        <ele>2657.8</ele>
        <time>2021-08-05 11:57:24</time>
      </trkpt>
      <trkpt lat="37.08408" lon="-3.38087">
        <ele>2658</ele>
        <time>2021-08-05 11:57:25</time>
      </trkpt>
      <trkpt lat="37.08407" lon="-3.38087">
        <ele>2658.2</ele>
        <time>2021-08-05 11:57:26</time>
      </trkpt>
      <trkpt lat="37.08407" lon="-3.38087">
        <ele>2658.4</ele>
        <time>2021-08-05 11:57:27</time>
      </trkpt>
      <trkpt lat="37.08407" lon="-3.38087">
        <ele>2658.4</ele>
        <time>2021-08-05 11:57:28</time>
      </trkpt>
      <trkpt lat="37.08407" lon="-3.38087">
        <ele>2658.6</ele>
        <time>2021-08-05 11:57:29</time>
      </trkpt>
      <trkpt lat="37.08406" lon="-3.38086">
        <ele>2658.6</ele>
        <time>2021-08-05 11:57:30</time>
      </trkpt>
      <trkpt lat="37.08405" lon="-3.38086">
        <ele>2658.6</ele>
        <time>2021-08-05 11:57:31</time>
      </trkpt>
      <trkpt lat="37.08405" lon="-3.38085">
        <ele>2658.6</ele>
        <time>2021-08-05 11:57:32</time>
      </trkpt>
      <trkpt lat="37.08405" lon="-3.38085">
        <ele>2658.6</ele>
        <time>2021-08-05 11:57:33</time>
      </trkpt>
      <trkpt lat="37.08404" lon="-3.38085">
        <ele>2658.8</ele>
        <time>2021-08-05 11:57:34</time>
      </trkpt>
      <trkpt lat="37.08404" lon="-3.38084">
        <ele>2658.8</ele>
        <time>2021-08-05 11:57:35</time>
      </trkpt>
      <trkpt lat="37.08403" lon="-3.38084">
        <ele>2659</ele>
        <time>2021-08-05 11:57:36</time>
      </trkpt>
      <trkpt lat="37.08403" lon="-3.38084">
        <ele>2659.2</ele>
        <time>2021-08-05 11:57:37</time>
      </trkpt>
      <trkpt lat="37.08403" lon="-3.38084">
        <ele>2659.4</ele>
        <time>2021-08-05 11:57:38</time>
      </trkpt>
      <trkpt lat="37.08402" lon="-3.38084">
        <ele>2659.6</ele>
        <time>2021-08-05 11:57:39</time>
      </trkpt>
      <trkpt lat="37.08402" lon="-3.38083">
        <ele>2659.6</ele>
        <time>2021-08-05 11:57:40</time>
      </trkpt>
      <trkpt lat="37.08401" lon="-3.38083">
        <ele>2659.6</ele>
        <time>2021-08-05 11:57:41</time>
      </trkpt>
      <trkpt lat="37.08401" lon="-3.38083">
        <ele>2659.8</ele>
        <time>2021-08-05 11:57:42</time>
      </trkpt>
      <trkpt lat="37.084" lon="-3.38082">
        <ele>2659.8</ele>
        <time>2021-08-05 11:57:43</time>
      </trkpt>
      <trkpt lat="37.084" lon="-3.38082">
        <ele>2659.8</ele>
        <time>2021-08-05 11:57:44</time>
      </trkpt>
      <trkpt lat="37.08399" lon="-3.38082">
        <ele>2660</ele>
        <time>2021-08-05 11:57:45</time>
      </trkpt>
      <trkpt lat="37.08398" lon="-3.38082">
        <ele>2660.4</ele>
        <time>2021-08-05 11:57:46</time>
      </trkpt>
      <trkpt lat="37.08398" lon="-3.38082">
        <ele>2660.6</ele>
        <time>2021-08-05 11:57:47</time>
      </trkpt>
      <trkpt lat="37.08397" lon="-3.38081">
        <ele>2660.6</ele>
        <time>2021-08-05 11:57:48</time>
      </trkpt>
      <trkpt lat="37.08396" lon="-3.38082">
        <ele>2660.8</ele>
        <time>2021-08-05 11:57:49</time>
      </trkpt>
      <trkpt lat="37.08396" lon="-3.38082">
        <ele>2660.8</ele>
        <time>2021-08-05 11:57:50</time>
      </trkpt>
      <trkpt lat="37.08396" lon="-3.38081">
        <ele>2660.8</ele>
        <time>2021-08-05 11:57:51</time>
      </trkpt>
      <trkpt lat="37.08396" lon="-3.38081">
        <ele>2660.8</ele>
        <time>2021-08-05 11:57:52</time>
      </trkpt>
      <trkpt lat="37.08396" lon="-3.38081">
        <ele>2660.8</ele>
        <time>2021-08-05 11:57:53</time>
      </trkpt>
      <trkpt lat="37.08396" lon="-3.38081">
        <ele>2661</ele>
        <time>2021-08-05 11:57:54</time>
      </trkpt>
      <trkpt lat="37.08396" lon="-3.3808">
        <ele>2661.6</ele>
        <time>2021-08-05 11:57:55</time>
      </trkpt>
      <trkpt lat="37.08396" lon="-3.3808">
        <ele>2661.8</ele>
        <time>2021-08-05 11:57:56</time>
      </trkpt>
      <trkpt lat="37.08395" lon="-3.3808">
        <ele>2661.8</ele>
        <time>2021-08-05 11:57:57</time>
      </trkpt>
      <trkpt lat="37.08395" lon="-3.3808">
        <ele>2662</ele>
        <time>2021-08-05 11:57:58</time>
      </trkpt>
      <trkpt lat="37.08394" lon="-3.38079">
        <ele>2662.2</ele>
        <time>2021-08-05 11:57:59</time>
      </trkpt>
      <trkpt lat="37.08394" lon="-3.38078">
        <ele>2662.2</ele>
        <time>2021-08-05 11:58:00</time>
      </trkpt>
      <trkpt lat="37.08394" lon="-3.38078">
        <ele>2662.2</ele>
        <time>2021-08-05 11:58:01</time>
      </trkpt>
      <trkpt lat="37.08394" lon="-3.38077">
        <ele>2662.4</ele>
        <time>2021-08-05 11:58:02</time>
      </trkpt>
      <trkpt lat="37.08394" lon="-3.38077">
        <ele>2662.6</ele>
        <time>2021-08-05 11:58:03</time>
      </trkpt>
      <trkpt lat="37.08393" lon="-3.38076">
        <ele>2662.8</ele>
        <time>2021-08-05 11:58:04</time>
      </trkpt>
      <trkpt lat="37.08392" lon="-3.38074">
        <ele>2663</ele>
        <time>2021-08-05 11:58:05</time>
      </trkpt>
      <trkpt lat="37.08392" lon="-3.38074">
        <ele>2663</ele>
        <time>2021-08-05 11:58:06</time>
      </trkpt>
      <trkpt lat="37.08392" lon="-3.38074">
        <ele>2663.2</ele>
        <time>2021-08-05 11:58:07</time>
      </trkpt>
      <trkpt lat="37.08391" lon="-3.38073">
        <ele>2663.2</ele>
        <time>2021-08-05 11:58:08</time>
      </trkpt>
      <trkpt lat="37.0839" lon="-3.38073">
        <ele>2663.2</ele>
        <time>2021-08-05 11:58:09</time>
      </trkpt>
      <trkpt lat="37.08389" lon="-3.38074">
        <ele>2663.2</ele>
        <time>2021-08-05 11:58:10</time>
      </trkpt>
      <trkpt lat="37.08389" lon="-3.38074">
        <ele>2663.2</ele>
        <time>2021-08-05 11:58:11</time>
      </trkpt>
      <trkpt lat="37.08388" lon="-3.38074">
        <ele>2663.2</ele>
        <time>2021-08-05 11:58:12</time>
      </trkpt>
      <trkpt lat="37.08387" lon="-3.38075">
        <ele>2663.2</ele>
        <time>2021-08-05 11:58:13</time>
      </trkpt>
      <trkpt lat="37.08386" lon="-3.38076">
        <ele>2663.2</ele>
        <time>2021-08-05 11:58:14</time>
      </trkpt>
      <trkpt lat="37.08386" lon="-3.38076">
        <ele>2663.2</ele>
        <time>2021-08-05 11:58:15</time>
      </trkpt>
      <trkpt lat="37.08386" lon="-3.38077">
        <ele>2663.2</ele>
        <time>2021-08-05 11:58:16</time>
      </trkpt>
      <trkpt lat="37.08387" lon="-3.3808">
        <ele>2663.2</ele>
        <time>2021-08-05 11:58:17</time>
      </trkpt>
      <trkpt lat="37.08386" lon="-3.3808">
        <ele>2663.2</ele>
        <time>2021-08-05 11:58:18</time>
      </trkpt>
      <trkpt lat="37.08386" lon="-3.3808">
        <ele>2663.2</ele>
        <time>2021-08-05 11:58:19</time>
      </trkpt>
      <trkpt lat="37.08386" lon="-3.3808">
        <ele>2663.2</ele>
        <time>2021-08-05 11:58:20</time>
      </trkpt>
      <trkpt lat="37.08385" lon="-3.3808">
        <ele>2663.2</ele>
        <time>2021-08-05 11:58:21</time>
      </trkpt>
      <trkpt lat="37.08385" lon="-3.3808">
        <ele>2663.2</ele>
        <time>2021-08-05 11:58:22</time>
      </trkpt>
      <trkpt lat="37.08384" lon="-3.3808">
        <ele>2663.4</ele>
        <time>2021-08-05 11:58:23</time>
      </trkpt>
      <trkpt lat="37.08383" lon="-3.3808">
        <ele>2663.8</ele>
        <time>2021-08-05 11:58:24</time>
      </trkpt>
      <trkpt lat="37.08382" lon="-3.3808">
        <ele>2663.8</ele>
        <time>2021-08-05 11:58:25</time>
      </trkpt>
      <trkpt lat="37.08381" lon="-3.38079">
        <ele>2664</ele>
        <time>2021-08-05 11:58:26</time>
      </trkpt>
      <trkpt lat="37.0838" lon="-3.38078">
        <ele>2663.8</ele>
        <time>2021-08-05 11:58:27</time>
      </trkpt>
      <trkpt lat="37.08379" lon="-3.38077">
        <ele>2663.8</ele>
        <time>2021-08-05 11:58:28</time>
      </trkpt>
      <trkpt lat="37.08378" lon="-3.38077">
        <ele>2663.8</ele>
        <time>2021-08-05 11:58:29</time>
      </trkpt>
      <trkpt lat="37.08377" lon="-3.38076">
        <ele>2663.6</ele>
        <time>2021-08-05 11:58:30</time>
      </trkpt>
      <trkpt lat="37.08376" lon="-3.38075">
        <ele>2663.6</ele>
        <time>2021-08-05 11:58:31</time>
      </trkpt>
      <trkpt lat="37.08375" lon="-3.38075">
        <ele>2663.8</ele>
        <time>2021-08-05 11:58:32</time>
      </trkpt>
      <trkpt lat="37.08375" lon="-3.38074">
        <ele>2664</ele>
        <time>2021-08-05 11:58:33</time>
      </trkpt>
      <trkpt lat="37.08375" lon="-3.38074">
        <ele>2664</ele>
        <time>2021-08-05 11:58:34</time>
      </trkpt>
      <trkpt lat="37.08374" lon="-3.38074">
        <ele>2664</ele>
        <time>2021-08-05 11:58:35</time>
      </trkpt>
      <trkpt lat="37.08374" lon="-3.38073">
        <ele>2664</ele>
        <time>2021-08-05 11:58:36</time>
      </trkpt>
      <trkpt lat="37.08373" lon="-3.38073">
        <ele>2664</ele>
        <time>2021-08-05 11:58:37</time>
      </trkpt>
      <trkpt lat="37.08372" lon="-3.38073">
        <ele>2664</ele>
        <time>2021-08-05 11:58:38</time>
      </trkpt>
      <trkpt lat="37.08372" lon="-3.38072">
        <ele>2664.2</ele>
        <time>2021-08-05 11:58:39</time>
      </trkpt>
      <trkpt lat="37.08372" lon="-3.38072">
        <ele>2664.4</ele>
        <time>2021-08-05 11:58:40</time>
      </trkpt>
      <trkpt lat="37.08371" lon="-3.38071">
        <ele>2664.4</ele>
        <time>2021-08-05 11:58:41</time>
      </trkpt>
      <trkpt lat="37.08371" lon="-3.3807">
        <ele>2664.4</ele>
        <time>2021-08-05 11:58:42</time>
      </trkpt>
      <trkpt lat="37.08371" lon="-3.38069">
        <ele>2664.4</ele>
        <time>2021-08-05 11:58:43</time>
      </trkpt>
      <trkpt lat="37.0837" lon="-3.38068">
        <ele>2664.6</ele>
        <time>2021-08-05 11:58:44</time>
      </trkpt>
      <trkpt lat="37.08369" lon="-3.38067">
        <ele>2664.6</ele>
        <time>2021-08-05 11:58:45</time>
      </trkpt>
      <trkpt lat="37.08369" lon="-3.38067">
        <ele>2664.6</ele>
        <time>2021-08-05 11:58:46</time>
      </trkpt>
      <trkpt lat="37.08368" lon="-3.38066">
        <ele>2664.6</ele>
        <time>2021-08-05 11:58:47</time>
      </trkpt>
      <trkpt lat="37.08367" lon="-3.38065">
        <ele>2664.8</ele>
        <time>2021-08-05 11:58:48</time>
      </trkpt>
      <trkpt lat="37.08367" lon="-3.38065">
        <ele>2664.8</ele>
        <time>2021-08-05 11:58:49</time>
      </trkpt>
      <trkpt lat="37.08365" lon="-3.38064">
        <ele>2665</ele>
        <time>2021-08-05 11:58:50</time>
      </trkpt>
      <trkpt lat="37.08364" lon="-3.38064">
        <ele>2665</ele>
        <time>2021-08-05 11:58:51</time>
      </trkpt>
      <trkpt lat="37.08363" lon="-3.38064">
        <ele>2665</ele>
        <time>2021-08-05 11:58:52</time>
      </trkpt>
      <trkpt lat="37.08363" lon="-3.38064">
        <ele>2665.2</ele>
        <time>2021-08-05 11:58:53</time>
      </trkpt>
      <trkpt lat="37.08363" lon="-3.38064">
        <ele>2665.2</ele>
        <time>2021-08-05 11:58:54</time>
      </trkpt>
      <trkpt lat="37.08362" lon="-3.38063">
        <ele>2665.2</ele>
        <time>2021-08-05 11:58:55</time>
      </trkpt>
      <trkpt lat="37.08362" lon="-3.38063">
        <ele>2665.2</ele>
        <time>2021-08-05 11:58:56</time>
      </trkpt>
      <trkpt lat="37.08361" lon="-3.38062">
        <ele>2665.4</ele>
        <time>2021-08-05 11:58:57</time>
      </trkpt>
      <trkpt lat="37.08361" lon="-3.38062">
        <ele>2665.2</ele>
        <time>2021-08-05 11:58:58</time>
      </trkpt>
      <trkpt lat="37.0836" lon="-3.38062">
        <ele>2665.2</ele>
        <time>2021-08-05 11:58:59</time>
      </trkpt>
      <trkpt lat="37.08359" lon="-3.38061">
        <ele>2665.2</ele>
        <time>2021-08-05 11:59:00</time>
      </trkpt>
      <trkpt lat="37.08359" lon="-3.3806">
        <ele>2665.2</ele>
        <time>2021-08-05 11:59:01</time>
      </trkpt>
      <trkpt lat="37.08359" lon="-3.3806">
        <ele>2665.2</ele>
        <time>2021-08-05 11:59:02</time>
      </trkpt>
      <trkpt lat="37.08358" lon="-3.38059">
        <ele>2665.2</ele>
        <time>2021-08-05 11:59:03</time>
      </trkpt>
      <trkpt lat="37.08357" lon="-3.38059">
        <ele>2665.2</ele>
        <time>2021-08-05 11:59:04</time>
      </trkpt>
      <trkpt lat="37.08357" lon="-3.38059">
        <ele>2665.4</ele>
        <time>2021-08-05 11:59:05</time>
      </trkpt>
      <trkpt lat="37.08356" lon="-3.38059">
        <ele>2665.6</ele>
        <time>2021-08-05 11:59:06</time>
      </trkpt>
      <trkpt lat="37.08356" lon="-3.38058">
        <ele>2665.8</ele>
        <time>2021-08-05 11:59:07</time>
      </trkpt>
      <trkpt lat="37.08355" lon="-3.38058">
        <ele>2666</ele>
        <time>2021-08-05 11:59:08</time>
      </trkpt>
      <trkpt lat="37.08354" lon="-3.38058">
        <ele>2666</ele>
        <time>2021-08-05 11:59:09</time>
      </trkpt>
      <trkpt lat="37.08354" lon="-3.38058">
        <ele>2666.2</ele>
        <time>2021-08-05 11:59:10</time>
      </trkpt>
      <trkpt lat="37.08353" lon="-3.38057">
        <ele>2666.2</ele>
        <time>2021-08-05 11:59:11</time>
      </trkpt>
      <trkpt lat="37.08352" lon="-3.38055">
        <ele>2666.2</ele>
        <time>2021-08-05 11:59:12</time>
      </trkpt>
      <trkpt lat="37.08351" lon="-3.38054">
        <ele>2666.4</ele>
        <time>2021-08-05 11:59:13</time>
      </trkpt>
      <trkpt lat="37.08351" lon="-3.38054">
        <ele>2666.2</ele>
        <time>2021-08-05 11:59:14</time>
      </trkpt>
      <trkpt lat="37.0835" lon="-3.38053">
        <ele>2666.4</ele>
        <time>2021-08-05 11:59:15</time>
      </trkpt>
      <trkpt lat="37.0835" lon="-3.38051">
        <ele>2666.4</ele>
        <time>2021-08-05 11:59:16</time>
      </trkpt>
      <trkpt lat="37.0835" lon="-3.3805">
        <ele>2666.2</ele>
        <time>2021-08-05 11:59:17</time>
      </trkpt>
      <trkpt lat="37.0835" lon="-3.38048">
        <ele>2666.4</ele>
        <time>2021-08-05 11:59:18</time>
      </trkpt>
      <trkpt lat="37.08349" lon="-3.38047">
        <ele>2666.4</ele>
        <time>2021-08-05 11:59:19</time>
      </trkpt>
      <trkpt lat="37.08349" lon="-3.38046">
        <ele>2666.4</ele>
        <time>2021-08-05 11:59:20</time>
      </trkpt>
      <trkpt lat="37.08349" lon="-3.38045">
        <ele>2666.4</ele>
        <time>2021-08-05 11:59:21</time>
      </trkpt>
      <trkpt lat="37.08349" lon="-3.38044">
        <ele>2666.2</ele>
        <time>2021-08-05 11:59:22</time>
      </trkpt>
      <trkpt lat="37.08349" lon="-3.38043">
        <ele>2666.2</ele>
        <time>2021-08-05 11:59:23</time>
      </trkpt>
      <trkpt lat="37.08349" lon="-3.38043">
        <ele>2666</ele>
        <time>2021-08-05 11:59:24</time>
      </trkpt>
      <trkpt lat="37.08349" lon="-3.38041">
        <ele>2666</ele>
        <time>2021-08-05 11:59:25</time>
      </trkpt>
      <trkpt lat="37.08349" lon="-3.3804">
        <ele>2666.2</ele>
        <time>2021-08-05 11:59:26</time>
      </trkpt>
      <trkpt lat="37.08348" lon="-3.38039">
        <ele>2666.2</ele>
        <time>2021-08-05 11:59:27</time>
      </trkpt>
      <trkpt lat="37.08348" lon="-3.38038">
        <ele>2666.2</ele>
        <time>2021-08-05 11:59:28</time>
      </trkpt>
      <trkpt lat="37.08348" lon="-3.38037">
        <ele>2666.2</ele>
        <time>2021-08-05 11:59:29</time>
      </trkpt>
      <trkpt lat="37.08348" lon="-3.38036">
        <ele>2666.2</ele>
        <time>2021-08-05 11:59:30</time>
      </trkpt>
      <trkpt lat="37.08348" lon="-3.38034">
        <ele>2666</ele>
        <time>2021-08-05 11:59:31</time>
      </trkpt>
      <trkpt lat="37.08348" lon="-3.38032">
        <ele>2665.8</ele>
        <time>2021-08-05 11:59:32</time>
      </trkpt>
      <trkpt lat="37.08348" lon="-3.38031">
        <ele>2665.8</ele>
        <time>2021-08-05 11:59:33</time>
      </trkpt>
      <trkpt lat="37.08348" lon="-3.3803">
        <ele>2665.6</ele>
        <time>2021-08-05 11:59:34</time>
      </trkpt>
      <trkpt lat="37.08348" lon="-3.38029">
        <ele>2665.8</ele>
        <time>2021-08-05 11:59:35</time>
      </trkpt>
      <trkpt lat="37.08348" lon="-3.38028">
        <ele>2665.8</ele>
        <time>2021-08-05 11:59:36</time>
      </trkpt>
      <trkpt lat="37.08349" lon="-3.38027">
        <ele>2665.8</ele>
        <time>2021-08-05 11:59:37</time>
      </trkpt>
      <trkpt lat="37.08349" lon="-3.38026">
        <ele>2665.8</ele>
        <time>2021-08-05 11:59:38</time>
      </trkpt>
      <trkpt lat="37.08349" lon="-3.38026">
        <ele>2665.8</ele>
        <time>2021-08-05 11:59:39</time>
      </trkpt>
      <trkpt lat="37.08349" lon="-3.38025">
        <ele>2666</ele>
        <time>2021-08-05 11:59:40</time>
      </trkpt>
      <trkpt lat="37.08349" lon="-3.38024">
        <ele>2666.2</ele>
        <time>2021-08-05 11:59:41</time>
      </trkpt>
      <trkpt lat="37.08348" lon="-3.38023">
        <ele>2666.2</ele>
        <time>2021-08-05 11:59:42</time>
      </trkpt>
      <trkpt lat="37.08348" lon="-3.38022">
        <ele>2666.6</ele>
        <time>2021-08-05 11:59:43</time>
      </trkpt>
      <trkpt lat="37.08348" lon="-3.38021">
        <ele>2666.6</ele>
        <time>2021-08-05 11:59:44</time>
      </trkpt>
      <trkpt lat="37.08348" lon="-3.3802">
        <ele>2666.8</ele>
        <time>2021-08-05 11:59:45</time>
      </trkpt>
      <trkpt lat="37.08348" lon="-3.38019">
        <ele>2666.8</ele>
        <time>2021-08-05 11:59:46</time>
      </trkpt>
      <trkpt lat="37.08348" lon="-3.38018">
        <ele>2666.8</ele>
        <time>2021-08-05 11:59:47</time>
      </trkpt>
      <trkpt lat="37.08348" lon="-3.38018">
        <ele>2666.8</ele>
        <time>2021-08-05 11:59:48</time>
      </trkpt>
      <trkpt lat="37.08348" lon="-3.38017">
        <ele>2666.8</ele>
        <time>2021-08-05 11:59:49</time>
      </trkpt>
      <trkpt lat="37.08347" lon="-3.38017">
        <ele>2666.8</ele>
        <time>2021-08-05 11:59:50</time>
      </trkpt>
      <trkpt lat="37.08346" lon="-3.38017">
        <ele>2666.8</ele>
        <time>2021-08-05 11:59:51</time>
      </trkpt>
      <trkpt lat="37.08345" lon="-3.38017">
        <ele>2666.8</ele>
        <time>2021-08-05 11:59:52</time>
      </trkpt>
      <trkpt lat="37.08343" lon="-3.38016">
        <ele>2666.8</ele>
        <time>2021-08-05 11:59:53</time>
      </trkpt>
      <trkpt lat="37.08343" lon="-3.38015">
        <ele>2666.8</ele>
        <time>2021-08-05 11:59:54</time>
      </trkpt>
      <trkpt lat="37.08342" lon="-3.38016">
        <ele>2667</ele>
        <time>2021-08-05 11:59:55</time>
      </trkpt>
      <trkpt lat="37.08341" lon="-3.38015">
        <ele>2667</ele>
        <time>2021-08-05 11:59:56</time>
      </trkpt>
      <trkpt lat="37.08341" lon="-3.38015">
        <ele>2667</ele>
        <time>2021-08-05 11:59:57</time>
      </trkpt>
      <trkpt lat="37.08341" lon="-3.38014">
        <ele>2667</ele>
        <time>2021-08-05 11:59:58</time>
      </trkpt>
      <trkpt lat="37.08341" lon="-3.38014">
        <ele>2667</ele>
        <time>2021-08-05 11:59:59</time>
      </trkpt>
      <trkpt lat="37.08341" lon="-3.38014">
        <ele>2667</ele>
        <time>2021-08-05 12:00:00</time>
      </trkpt>
      <trkpt lat="37.08341" lon="-3.38013">
        <ele>2667</ele>
        <time>2021-08-05 12:00:01</time>
      </trkpt>
      <trkpt lat="37.08341" lon="-3.38012">
        <ele>2667</ele>
        <time>2021-08-05 12:00:02</time>
      </trkpt>
      <trkpt lat="37.08341" lon="-3.38012">
        <ele>2667</ele>
        <time>2021-08-05 12:00:03</time>
      </trkpt>
      <trkpt lat="37.08341" lon="-3.38012">
        <ele>2667</ele>
        <time>2021-08-05 12:00:04</time>
      </trkpt>
      <trkpt lat="37.08341" lon="-3.38011">
        <ele>2667</ele>
        <time>2021-08-05 12:00:05</time>
      </trkpt>
      <trkpt lat="37.08341" lon="-3.3801">
        <ele>2667.2</ele>
        <time>2021-08-05 12:00:06</time>
      </trkpt>
      <trkpt lat="37.08341" lon="-3.3801">
        <ele>2667.2</ele>
        <time>2021-08-05 12:00:07</time>
      </trkpt>
      <trkpt lat="37.08341" lon="-3.38009">
        <ele>2667.2</ele>
        <time>2021-08-05 12:00:08</time>
      </trkpt>
      <trkpt lat="37.08341" lon="-3.38008">
        <ele>2667.4</ele>
        <time>2021-08-05 12:00:09</time>
      </trkpt>
      <trkpt lat="37.08341" lon="-3.38007">
        <ele>2667.4</ele>
        <time>2021-08-05 12:00:10</time>
      </trkpt>
      <trkpt lat="37.0834" lon="-3.38007">
        <ele>2667.8</ele>
        <time>2021-08-05 12:00:11</time>
      </trkpt>
      <trkpt lat="37.0834" lon="-3.38007">
        <ele>2668</ele>
        <time>2021-08-05 12:00:12</time>
      </trkpt>
      <trkpt lat="37.0834" lon="-3.38006">
        <ele>2668.2</ele>
        <time>2021-08-05 12:00:13</time>
      </trkpt>
      <trkpt lat="37.08339" lon="-3.38005">
        <ele>2668.2</ele>
        <time>2021-08-05 12:00:14</time>
      </trkpt>
      <trkpt lat="37.08339" lon="-3.38005">
        <ele>2668.4</ele>
        <time>2021-08-05 12:00:15</time>
      </trkpt>
      <trkpt lat="37.08338" lon="-3.38004">
        <ele>2668.4</ele>
        <time>2021-08-05 12:00:16</time>
      </trkpt>
      <trkpt lat="37.08338" lon="-3.38003">
        <ele>2668.6</ele>
        <time>2021-08-05 12:00:17</time>
      </trkpt>
      <trkpt lat="37.08338" lon="-3.38002">
        <ele>2668.4</ele>
        <time>2021-08-05 12:00:18</time>
      </trkpt>
      <trkpt lat="37.08338" lon="-3.38002">
        <ele>2668.4</ele>
        <time>2021-08-05 12:00:19</time>
      </trkpt>
      <trkpt lat="37.08337" lon="-3.38001">
        <ele>2668.6</ele>
        <time>2021-08-05 12:00:20</time>
      </trkpt>
      <trkpt lat="37.08337" lon="-3.38">
        <ele>2668.6</ele>
        <time>2021-08-05 12:00:21</time>
      </trkpt>
      <trkpt lat="37.08337" lon="-3.38">
        <ele>2668.6</ele>
        <time>2021-08-05 12:00:22</time>
      </trkpt>
      <trkpt lat="37.08337" lon="-3.38">
        <ele>2668.6</ele>
        <time>2021-08-05 12:00:23</time>
      </trkpt>
      <trkpt lat="37.08337" lon="-3.38">
        <ele>2668.8</ele>
        <time>2021-08-05 12:00:24</time>
      </trkpt>
      <trkpt lat="37.08336" lon="-3.38">
        <ele>2668.8</ele>
        <time>2021-08-05 12:00:25</time>
      </trkpt>
      <trkpt lat="37.08336" lon="-3.37999">
        <ele>2668.8</ele>
        <time>2021-08-05 12:00:26</time>
      </trkpt>
      <trkpt lat="37.08336" lon="-3.37999">
        <ele>2669</ele>
        <time>2021-08-05 12:00:27</time>
      </trkpt>
      <trkpt lat="37.08336" lon="-3.37999">
        <ele>2668.8</ele>
        <time>2021-08-05 12:00:28</time>
      </trkpt>
      <trkpt lat="37.08336" lon="-3.37999">
        <ele>2668.8</ele>
        <time>2021-08-05 12:00:29</time>
      </trkpt>
      <trkpt lat="37.08336" lon="-3.37998">
        <ele>2668.8</ele>
        <time>2021-08-05 12:00:30</time>
      </trkpt>
      <trkpt lat="37.08336" lon="-3.37998">
        <ele>2669</ele>
        <time>2021-08-05 12:00:31</time>
      </trkpt>
      <trkpt lat="37.08335" lon="-3.37997">
        <ele>2669.2</ele>
        <time>2021-08-05 12:00:32</time>
      </trkpt>
      <trkpt lat="37.08335" lon="-3.37997">
        <ele>2669.2</ele>
        <time>2021-08-05 12:00:33</time>
      </trkpt>
      <trkpt lat="37.08334" lon="-3.37997">
        <ele>2669.2</ele>
        <time>2021-08-05 12:00:34</time>
      </trkpt>
      <trkpt lat="37.08334" lon="-3.37997">
        <ele>2669.2</ele>
        <time>2021-08-05 12:00:35</time>
      </trkpt>
      <trkpt lat="37.08334" lon="-3.37998">
        <ele>2669.4</ele>
        <time>2021-08-05 12:00:36</time>
      </trkpt>
      <trkpt lat="37.08333" lon="-3.37998">
        <ele>2669.2</ele>
        <time>2021-08-05 12:00:37</time>
      </trkpt>
      <trkpt lat="37.08333" lon="-3.37998">
        <ele>2669.2</ele>
        <time>2021-08-05 12:00:38</time>
      </trkpt>
      <trkpt lat="37.08333" lon="-3.37998">
        <ele>2669.2</ele>
        <time>2021-08-05 12:00:39</time>
      </trkpt>
      <trkpt lat="37.08333" lon="-3.37998">
        <ele>2669.2</ele>
        <time>2021-08-05 12:00:40</time>
      </trkpt>
      <trkpt lat="37.08333" lon="-3.37998">
        <ele>2669.2</ele>
        <time>2021-08-05 12:00:41</time>
      </trkpt>
      <trkpt lat="37.08333" lon="-3.37998">
        <ele>2669.4</ele>
        <time>2021-08-05 12:00:42</time>
      </trkpt>
      <trkpt lat="37.08333" lon="-3.37998">
        <ele>2669.4</ele>
        <time>2021-08-05 12:00:43</time>
      </trkpt>
      <trkpt lat="37.08334" lon="-3.37998">
        <ele>2669.6</ele>
        <time>2021-08-05 12:00:44</time>
      </trkpt>
      <trkpt lat="37.08334" lon="-3.37998">
        <ele>2669.6</ele>
        <time>2021-08-05 12:00:45</time>
      </trkpt>
      <trkpt lat="37.08334" lon="-3.37998">
        <ele>2669.6</ele>
        <time>2021-08-05 12:00:46</time>
      </trkpt>
      <trkpt lat="37.08334" lon="-3.37998">
        <ele>2669.8</ele>
        <time>2021-08-05 12:00:47</time>
      </trkpt>
      <trkpt lat="37.08333" lon="-3.37998">
        <ele>2669.8</ele>
        <time>2021-08-05 12:00:48</time>
      </trkpt>
      <trkpt lat="37.08333" lon="-3.37998">
        <ele>2670</ele>
        <time>2021-08-05 12:00:49</time>
      </trkpt>
      <trkpt lat="37.08332" lon="-3.37998">
        <ele>2669.8</ele>
        <time>2021-08-05 12:00:50</time>
      </trkpt>
      <trkpt lat="37.08332" lon="-3.37998">
        <ele>2669.6</ele>
        <time>2021-08-05 12:00:51</time>
      </trkpt>
      <trkpt lat="37.08332" lon="-3.37998">
        <ele>2669.6</ele>
        <time>2021-08-05 12:00:52</time>
      </trkpt>
      <trkpt lat="37.08332" lon="-3.37998">
        <ele>2669.6</ele>
        <time>2021-08-05 12:00:53</time>
      </trkpt>
      <trkpt lat="37.08331" lon="-3.37999">
        <ele>2669.6</ele>
        <time>2021-08-05 12:00:54</time>
      </trkpt>
      <trkpt lat="37.08331" lon="-3.37999">
        <ele>2669.6</ele>
        <time>2021-08-05 12:00:55</time>
      </trkpt>
      <trkpt lat="37.08331" lon="-3.37999">
        <ele>2669.6</ele>
        <time>2021-08-05 12:00:56</time>
      </trkpt>
      <trkpt lat="37.0833" lon="-3.37999">
        <ele>2669.6</ele>
        <time>2021-08-05 12:00:57</time>
      </trkpt>
      <trkpt lat="37.08331" lon="-3.37999">
        <ele>2669.6</ele>
        <time>2021-08-05 12:00:58</time>
      </trkpt>
      <trkpt lat="37.0833" lon="-3.37999">
        <ele>2669.8</ele>
        <time>2021-08-05 12:00:59</time>
      </trkpt>
      <trkpt lat="37.0833" lon="-3.38">
        <ele>2670</ele>
        <time>2021-08-05 12:01:00</time>
      </trkpt>
      <trkpt lat="37.0833" lon="-3.38">
        <ele>2670.4</ele>
        <time>2021-08-05 12:01:01</time>
      </trkpt>
      <trkpt lat="37.0833" lon="-3.37999">
        <ele>2670.8</ele>
        <time>2021-08-05 12:01:02</time>
      </trkpt>
      <trkpt lat="37.0833" lon="-3.37999">
        <ele>2670.8</ele>
        <time>2021-08-05 12:01:03</time>
      </trkpt>
      <trkpt lat="37.08331" lon="-3.37998">
        <ele>2670.8</ele>
        <time>2021-08-05 12:01:04</time>
      </trkpt>
      <trkpt lat="37.08331" lon="-3.37997">
        <ele>2671</ele>
        <time>2021-08-05 12:01:05</time>
      </trkpt>
      <trkpt lat="37.08331" lon="-3.37997">
        <ele>2671</ele>
        <time>2021-08-05 12:01:06</time>
      </trkpt>
      <trkpt lat="37.08331" lon="-3.37997">
        <ele>2671</ele>
        <time>2021-08-05 12:01:07</time>
      </trkpt>
      <trkpt lat="37.08331" lon="-3.37997">
        <ele>2671</ele>
        <time>2021-08-05 12:01:08</time>
      </trkpt>
      <trkpt lat="37.08331" lon="-3.37996">
        <ele>2671</ele>
        <time>2021-08-05 12:01:09</time>
      </trkpt>
      <trkpt lat="37.08331" lon="-3.37996">
        <ele>2671.2</ele>
        <time>2021-08-05 12:01:10</time>
      </trkpt>
      <trkpt lat="37.08331" lon="-3.37995">
        <ele>2671.2</ele>
        <time>2021-08-05 12:01:11</time>
      </trkpt>
      <trkpt lat="37.0833" lon="-3.37994">
        <ele>2671.2</ele>
        <time>2021-08-05 12:01:12</time>
      </trkpt>
      <trkpt lat="37.08329" lon="-3.37993">
        <ele>2671.2</ele>
        <time>2021-08-05 12:01:13</time>
      </trkpt>
      <trkpt lat="37.08329" lon="-3.37992">
        <ele>2671.2</ele>
        <time>2021-08-05 12:01:14</time>
      </trkpt>
      <trkpt lat="37.08329" lon="-3.37991">
        <ele>2671.2</ele>
        <time>2021-08-05 12:01:15</time>
      </trkpt>
      <trkpt lat="37.08328" lon="-3.3799">
        <ele>2671.2</ele>
        <time>2021-08-05 12:01:16</time>
      </trkpt>
      <trkpt lat="37.08328" lon="-3.37989">
        <ele>2671.4</ele>
        <time>2021-08-05 12:01:17</time>
      </trkpt>
      <trkpt lat="37.08328" lon="-3.37989">
        <ele>2671.4</ele>
        <time>2021-08-05 12:01:18</time>
      </trkpt>
      <trkpt lat="37.08327" lon="-3.37988">
        <ele>2671.4</ele>
        <time>2021-08-05 12:01:19</time>
      </trkpt>
      <trkpt lat="37.08327" lon="-3.37987">
        <ele>2671.4</ele>
        <time>2021-08-05 12:01:20</time>
      </trkpt>
      <trkpt lat="37.08326" lon="-3.37987">
        <ele>2671.4</ele>
        <time>2021-08-05 12:01:21</time>
      </trkpt>
      <trkpt lat="37.08326" lon="-3.37987">
        <ele>2671.6</ele>
        <time>2021-08-05 12:01:22</time>
      </trkpt>
      <trkpt lat="37.08326" lon="-3.37986">
        <ele>2671.6</ele>
        <time>2021-08-05 12:01:23</time>
      </trkpt>
      <trkpt lat="37.08326" lon="-3.37986">
        <ele>2672</ele>
        <time>2021-08-05 12:01:24</time>
      </trkpt>
      <trkpt lat="37.08326" lon="-3.37986">
        <ele>2672.2</ele>
        <time>2021-08-05 12:01:25</time>
      </trkpt>
      <trkpt lat="37.08326" lon="-3.37985">
        <ele>2672.4</ele>
        <time>2021-08-05 12:01:26</time>
      </trkpt>
      <trkpt lat="37.08326" lon="-3.37985">
        <ele>2672.6</ele>
        <time>2021-08-05 12:01:27</time>
      </trkpt>
      <trkpt lat="37.08326" lon="-3.37984">
        <ele>2672.4</ele>
        <time>2021-08-05 12:01:28</time>
      </trkpt>
      <trkpt lat="37.08325" lon="-3.37983">
        <ele>2672.4</ele>
        <time>2021-08-05 12:01:29</time>
      </trkpt>
      <trkpt lat="37.08324" lon="-3.37983">
        <ele>2672.4</ele>
        <time>2021-08-05 12:01:30</time>
      </trkpt>
      <trkpt lat="37.08324" lon="-3.37983">
        <ele>2672.4</ele>
        <time>2021-08-05 12:01:31</time>
      </trkpt>
      <trkpt lat="37.08323" lon="-3.37983">
        <ele>2672.4</ele>
        <time>2021-08-05 12:01:32</time>
      </trkpt>
      <trkpt lat="37.08323" lon="-3.37983">
        <ele>2672.4</ele>
        <time>2021-08-05 12:01:33</time>
      </trkpt>
      <trkpt lat="37.08322" lon="-3.37983">
        <ele>2672.6</ele>
        <time>2021-08-05 12:01:34</time>
      </trkpt>
      <trkpt lat="37.08322" lon="-3.37983">
        <ele>2672.6</ele>
        <time>2021-08-05 12:01:35</time>
      </trkpt>
      <trkpt lat="37.08321" lon="-3.37983">
        <ele>2672.8</ele>
        <time>2021-08-05 12:01:36</time>
      </trkpt>
      <trkpt lat="37.08321" lon="-3.37982">
        <ele>2673</ele>
        <time>2021-08-05 12:01:37</time>
      </trkpt>
      <trkpt lat="37.08321" lon="-3.37982">
        <ele>2673</ele>
        <time>2021-08-05 12:01:38</time>
      </trkpt>
      <trkpt lat="37.0832" lon="-3.37981">
        <ele>2673.2</ele>
        <time>2021-08-05 12:01:39</time>
      </trkpt>
      <trkpt lat="37.0832" lon="-3.37981">
        <ele>2673.6</ele>
        <time>2021-08-05 12:01:40</time>
      </trkpt>
      <trkpt lat="37.08319" lon="-3.37981">
        <ele>2673.6</ele>
        <time>2021-08-05 12:01:41</time>
      </trkpt>
      <trkpt lat="37.08319" lon="-3.37981">
        <ele>2673.8</ele>
        <time>2021-08-05 12:01:42</time>
      </trkpt>
      <trkpt lat="37.08318" lon="-3.37981">
        <ele>2674</ele>
        <time>2021-08-05 12:01:43</time>
      </trkpt>
      <trkpt lat="37.08317" lon="-3.37981">
        <ele>2674.2</ele>
        <time>2021-08-05 12:01:44</time>
      </trkpt>
      <trkpt lat="37.08317" lon="-3.37981">
        <ele>2674.2</ele>
        <time>2021-08-05 12:01:45</time>
      </trkpt>
      <trkpt lat="37.08316" lon="-3.37981">
        <ele>2674.4</ele>
        <time>2021-08-05 12:01:46</time>
      </trkpt>
      <trkpt lat="37.08316" lon="-3.37981">
        <ele>2674.4</ele>
        <time>2021-08-05 12:01:47</time>
      </trkpt>
      <trkpt lat="37.08315" lon="-3.3798">
        <ele>2674.4</ele>
        <time>2021-08-05 12:01:48</time>
      </trkpt>
      <trkpt lat="37.08315" lon="-3.3798">
        <ele>2674.4</ele>
        <time>2021-08-05 12:01:49</time>
      </trkpt>
      <trkpt lat="37.08315" lon="-3.3798">
        <ele>2674.4</ele>
        <time>2021-08-05 12:01:50</time>
      </trkpt>
      <trkpt lat="37.08314" lon="-3.37979">
        <ele>2674.4</ele>
        <time>2021-08-05 12:01:51</time>
      </trkpt>
      <trkpt lat="37.08314" lon="-3.37979">
        <ele>2674.4</ele>
        <time>2021-08-05 12:01:52</time>
      </trkpt>
      <trkpt lat="37.08313" lon="-3.37978">
        <ele>2674.4</ele>
        <time>2021-08-05 12:01:53</time>
      </trkpt>
      <trkpt lat="37.08313" lon="-3.37978">
        <ele>2674.4</ele>
        <time>2021-08-05 12:01:54</time>
      </trkpt>
      <trkpt lat="37.08312" lon="-3.37978">
        <ele>2674.6</ele>
        <time>2021-08-05 12:01:55</time>
      </trkpt>
      <trkpt lat="37.08312" lon="-3.37977">
        <ele>2674.8</ele>
        <time>2021-08-05 12:01:56</time>
      </trkpt>
      <trkpt lat="37.08312" lon="-3.37977">
        <ele>2675</ele>
        <time>2021-08-05 12:01:57</time>
      </trkpt>
      <trkpt lat="37.08312" lon="-3.37977">
        <ele>2675.2</ele>
        <time>2021-08-05 12:01:58</time>
      </trkpt>
      <trkpt lat="37.08312" lon="-3.37977">
        <ele>2675.4</ele>
        <time>2021-08-05 12:01:59</time>
      </trkpt>
      <trkpt lat="37.08312" lon="-3.37977">
        <ele>2675.6</ele>
        <time>2021-08-05 12:02:00</time>
      </trkpt>
      <trkpt lat="37.08311" lon="-3.37977">
        <ele>2675.8</ele>
        <time>2021-08-05 12:02:01</time>
      </trkpt>
      <trkpt lat="37.08311" lon="-3.37977">
        <ele>2675.8</ele>
        <time>2021-08-05 12:02:02</time>
      </trkpt>
      <trkpt lat="37.08311" lon="-3.37977">
        <ele>2676</ele>
        <time>2021-08-05 12:02:03</time>
      </trkpt>
      <trkpt lat="37.08311" lon="-3.37977">
        <ele>2676.2</ele>
        <time>2021-08-05 12:02:04</time>
      </trkpt>
      <trkpt lat="37.08311" lon="-3.37977">
        <ele>2676.4</ele>
        <time>2021-08-05 12:02:05</time>
      </trkpt>
      <trkpt lat="37.0831" lon="-3.37977">
        <ele>2676.4</ele>
        <time>2021-08-05 12:02:06</time>
      </trkpt>
      <trkpt lat="37.0831" lon="-3.37976">
        <ele>2676.4</ele>
        <time>2021-08-05 12:02:07</time>
      </trkpt>
      <trkpt lat="37.0831" lon="-3.37976">
        <ele>2676.2</ele>
        <time>2021-08-05 12:02:08</time>
      </trkpt>
      <trkpt lat="37.08309" lon="-3.37975">
        <ele>2676.2</ele>
        <time>2021-08-05 12:02:09</time>
      </trkpt>
      <trkpt lat="37.08309" lon="-3.37975">
        <ele>2676.2</ele>
        <time>2021-08-05 12:02:10</time>
      </trkpt>
      <trkpt lat="37.08308" lon="-3.37974">
        <ele>2676.2</ele>
        <time>2021-08-05 12:02:11</time>
      </trkpt>
      <trkpt lat="37.08307" lon="-3.37973">
        <ele>2676.2</ele>
        <time>2021-08-05 12:02:12</time>
      </trkpt>
      <trkpt lat="37.08307" lon="-3.37973">
        <ele>2676.8</ele>
        <time>2021-08-05 12:02:13</time>
      </trkpt>
      <trkpt lat="37.08306" lon="-3.37972">
        <ele>2677</ele>
        <time>2021-08-05 12:02:14</time>
      </trkpt>
      <trkpt lat="37.08306" lon="-3.37972">
        <ele>2677.2</ele>
        <time>2021-08-05 12:02:15</time>
      </trkpt>
      <trkpt lat="37.08306" lon="-3.37972">
        <ele>2677.4</ele>
        <time>2021-08-05 12:02:16</time>
      </trkpt>
      <trkpt lat="37.08306" lon="-3.37972">
        <ele>2677.4</ele>
        <time>2021-08-05 12:02:17</time>
      </trkpt>
      <trkpt lat="37.08305" lon="-3.37971">
        <ele>2677.6</ele>
        <time>2021-08-05 12:02:18</time>
      </trkpt>
      <trkpt lat="37.08305" lon="-3.37971">
        <ele>2677.8</ele>
        <time>2021-08-05 12:02:19</time>
      </trkpt>
      <trkpt lat="37.08305" lon="-3.37971">
        <ele>2678</ele>
        <time>2021-08-05 12:02:20</time>
      </trkpt>
      <trkpt lat="37.08304" lon="-3.3797">
        <ele>2678.2</ele>
        <time>2021-08-05 12:02:21</time>
      </trkpt>
      <trkpt lat="37.08304" lon="-3.3797">
        <ele>2678.2</ele>
        <time>2021-08-05 12:02:22</time>
      </trkpt>
      <trkpt lat="37.08303" lon="-3.3797">
        <ele>2678.2</ele>
        <time>2021-08-05 12:02:23</time>
      </trkpt>
      <trkpt lat="37.08302" lon="-3.37969">
        <ele>2678.2</ele>
        <time>2021-08-05 12:02:24</time>
      </trkpt>
      <trkpt lat="37.08302" lon="-3.3797">
        <ele>2678.2</ele>
        <time>2021-08-05 12:02:25</time>
      </trkpt>
      <trkpt lat="37.08301" lon="-3.37969">
        <ele>2678.2</ele>
        <time>2021-08-05 12:02:26</time>
      </trkpt>
      <trkpt lat="37.08301" lon="-3.37969">
        <ele>2678.2</ele>
        <time>2021-08-05 12:02:27</time>
      </trkpt>
      <trkpt lat="37.08301" lon="-3.37969">
        <ele>2678.6</ele>
        <time>2021-08-05 12:02:28</time>
      </trkpt>
      <trkpt lat="37.08301" lon="-3.37969">
        <ele>2678.6</ele>
        <time>2021-08-05 12:02:29</time>
      </trkpt>
      <trkpt lat="37.083" lon="-3.37968">
        <ele>2678.8</ele>
        <time>2021-08-05 12:02:30</time>
      </trkpt>
      <trkpt lat="37.083" lon="-3.37968">
        <ele>2678.8</ele>
        <time>2021-08-05 12:02:31</time>
      </trkpt>
      <trkpt lat="37.08299" lon="-3.37967">
        <ele>2678.8</ele>
        <time>2021-08-05 12:02:32</time>
      </trkpt>
      <trkpt lat="37.08299" lon="-3.37966">
        <ele>2678.8</ele>
        <time>2021-08-05 12:02:33</time>
      </trkpt>
      <trkpt lat="37.08298" lon="-3.37966">
        <ele>2678.8</ele>
        <time>2021-08-05 12:02:34</time>
      </trkpt>
      <trkpt lat="37.08298" lon="-3.37965">
        <ele>2678.8</ele>
        <time>2021-08-05 12:02:35</time>
      </trkpt>
      <trkpt lat="37.08297" lon="-3.37966">
        <ele>2678.8</ele>
        <time>2021-08-05 12:02:36</time>
      </trkpt>
      <trkpt lat="37.08297" lon="-3.37966">
        <ele>2678.8</ele>
        <time>2021-08-05 12:02:37</time>
      </trkpt>
      <trkpt lat="37.08296" lon="-3.37965">
        <ele>2678.6</ele>
        <time>2021-08-05 12:02:38</time>
      </trkpt>
      <trkpt lat="37.08296" lon="-3.37964">
        <ele>2678.6</ele>
        <time>2021-08-05 12:02:39</time>
      </trkpt>
      <trkpt lat="37.08295" lon="-3.37963">
        <ele>2678.6</ele>
        <time>2021-08-05 12:02:40</time>
      </trkpt>
      <trkpt lat="37.08295" lon="-3.37963">
        <ele>2678.8</ele>
        <time>2021-08-05 12:02:41</time>
      </trkpt>
      <trkpt lat="37.08294" lon="-3.37962">
        <ele>2678.8</ele>
        <time>2021-08-05 12:02:42</time>
      </trkpt>
      <trkpt lat="37.08294" lon="-3.37962">
        <ele>2678.8</ele>
        <time>2021-08-05 12:02:43</time>
      </trkpt>
      <trkpt lat="37.08294" lon="-3.37962">
        <ele>2679</ele>
        <time>2021-08-05 12:02:44</time>
      </trkpt>
      <trkpt lat="37.08294" lon="-3.37961">
        <ele>2679</ele>
        <time>2021-08-05 12:02:45</time>
      </trkpt>
      <trkpt lat="37.08293" lon="-3.3796">
        <ele>2679.2</ele>
        <time>2021-08-05 12:02:46</time>
      </trkpt>
      <trkpt lat="37.08293" lon="-3.3796">
        <ele>2679.4</ele>
        <time>2021-08-05 12:02:47</time>
      </trkpt>
      <trkpt lat="37.08293" lon="-3.37959">
        <ele>2679.4</ele>
        <time>2021-08-05 12:02:48</time>
      </trkpt>
      <trkpt lat="37.08293" lon="-3.37959">
        <ele>2679.6</ele>
        <time>2021-08-05 12:02:49</time>
      </trkpt>
      <trkpt lat="37.08293" lon="-3.37958">
        <ele>2679.6</ele>
        <time>2021-08-05 12:02:50</time>
      </trkpt>
      <trkpt lat="37.08292" lon="-3.37957">
        <ele>2679.8</ele>
        <time>2021-08-05 12:02:51</time>
      </trkpt>
      <trkpt lat="37.08292" lon="-3.37956">
        <ele>2679.8</ele>
        <time>2021-08-05 12:02:52</time>
      </trkpt>
      <trkpt lat="37.08291" lon="-3.37955">
        <ele>2679.8</ele>
        <time>2021-08-05 12:02:53</time>
      </trkpt>
      <trkpt lat="37.08291" lon="-3.37954">
        <ele>2679.6</ele>
        <time>2021-08-05 12:02:54</time>
      </trkpt>
      <trkpt lat="37.08291" lon="-3.37954">
        <ele>2679.6</ele>
        <time>2021-08-05 12:02:55</time>
      </trkpt>
      <trkpt lat="37.0829" lon="-3.37953">
        <ele>2679.4</ele>
        <time>2021-08-05 12:02:56</time>
      </trkpt>
      <trkpt lat="37.08289" lon="-3.37952">
        <ele>2679.4</ele>
        <time>2021-08-05 12:02:57</time>
      </trkpt>
      <trkpt lat="37.08289" lon="-3.37952">
        <ele>2679.4</ele>
        <time>2021-08-05 12:02:58</time>
      </trkpt>
      <trkpt lat="37.08289" lon="-3.37951">
        <ele>2679.4</ele>
        <time>2021-08-05 12:02:59</time>
      </trkpt>
      <trkpt lat="37.08289" lon="-3.37951">
        <ele>2679.4</ele>
        <time>2021-08-05 12:03:00</time>
      </trkpt>
      <trkpt lat="37.08288" lon="-3.3795">
        <ele>2679.4</ele>
        <time>2021-08-05 12:03:01</time>
      </trkpt>
      <trkpt lat="37.08288" lon="-3.37949">
        <ele>2679.4</ele>
        <time>2021-08-05 12:03:02</time>
      </trkpt>
      <trkpt lat="37.08288" lon="-3.37949">
        <ele>2679.4</ele>
        <time>2021-08-05 12:03:03</time>
      </trkpt>
      <trkpt lat="37.08288" lon="-3.37948">
        <ele>2679.4</ele>
        <time>2021-08-05 12:03:04</time>
      </trkpt>
      <trkpt lat="37.08288" lon="-3.37948">
        <ele>2679.6</ele>
        <time>2021-08-05 12:03:05</time>
      </trkpt>
      <trkpt lat="37.08287" lon="-3.37947">
        <ele>2679.6</ele>
        <time>2021-08-05 12:03:06</time>
      </trkpt>
      <trkpt lat="37.08287" lon="-3.37947">
        <ele>2679.6</ele>
        <time>2021-08-05 12:03:07</time>
      </trkpt>
      <trkpt lat="37.08287" lon="-3.37947">
        <ele>2679.8</ele>
        <time>2021-08-05 12:03:08</time>
      </trkpt>
      <trkpt lat="37.08287" lon="-3.37947">
        <ele>2680</ele>
        <time>2021-08-05 12:03:09</time>
      </trkpt>
      <trkpt lat="37.08286" lon="-3.37947">
        <ele>2680.2</ele>
        <time>2021-08-05 12:03:10</time>
      </trkpt>
      <trkpt lat="37.08285" lon="-3.37946">
        <ele>2680.2</ele>
        <time>2021-08-05 12:03:11</time>
      </trkpt>
      <trkpt lat="37.08285" lon="-3.37946">
        <ele>2680.2</ele>
        <time>2021-08-05 12:03:12</time>
      </trkpt>
      <trkpt lat="37.08285" lon="-3.37946">
        <ele>2680.4</ele>
        <time>2021-08-05 12:03:13</time>
      </trkpt>
      <trkpt lat="37.08284" lon="-3.37946">
        <ele>2680.6</ele>
        <time>2021-08-05 12:03:14</time>
      </trkpt>
      <trkpt lat="37.08284" lon="-3.37945">
        <ele>2680.6</ele>
        <time>2021-08-05 12:03:15</time>
      </trkpt>
      <trkpt lat="37.08283" lon="-3.37945">
        <ele>2680.8</ele>
        <time>2021-08-05 12:03:16</time>
      </trkpt>
      <trkpt lat="37.08283" lon="-3.37944">
        <ele>2681</ele>
        <time>2021-08-05 12:03:17</time>
      </trkpt>
      <trkpt lat="37.08282" lon="-3.37944">
        <ele>2681.2</ele>
        <time>2021-08-05 12:03:18</time>
      </trkpt>
      <trkpt lat="37.08282" lon="-3.37943">
        <ele>2681.4</ele>
        <time>2021-08-05 12:03:19</time>
      </trkpt>
      <trkpt lat="37.08281" lon="-3.37942">
        <ele>2681.6</ele>
        <time>2021-08-05 12:03:20</time>
      </trkpt>
      <trkpt lat="37.08281" lon="-3.37942">
        <ele>2681.8</ele>
        <time>2021-08-05 12:03:21</time>
      </trkpt>
      <trkpt lat="37.08281" lon="-3.37942">
        <ele>2682.2</ele>
        <time>2021-08-05 12:03:22</time>
      </trkpt>
      <trkpt lat="37.0828" lon="-3.37941">
        <ele>2682.4</ele>
        <time>2021-08-05 12:03:23</time>
      </trkpt>
      <trkpt lat="37.0828" lon="-3.37941">
        <ele>2682.4</ele>
        <time>2021-08-05 12:03:24</time>
      </trkpt>
      <trkpt lat="37.0828" lon="-3.37941">
        <ele>2682.4</ele>
        <time>2021-08-05 12:03:25</time>
      </trkpt>
      <trkpt lat="37.08279" lon="-3.3794">
        <ele>2682.4</ele>
        <time>2021-08-05 12:03:26</time>
      </trkpt>
      <trkpt lat="37.08279" lon="-3.3794">
        <ele>2682.4</ele>
        <time>2021-08-05 12:03:27</time>
      </trkpt>
      <trkpt lat="37.08278" lon="-3.3794">
        <ele>2682.4</ele>
        <time>2021-08-05 12:03:28</time>
      </trkpt>
      <trkpt lat="37.08278" lon="-3.37939">
        <ele>2682.4</ele>
        <time>2021-08-05 12:03:29</time>
      </trkpt>
      <trkpt lat="37.08277" lon="-3.37938">
        <ele>2682.4</ele>
        <time>2021-08-05 12:03:30</time>
      </trkpt>
      <trkpt lat="37.08277" lon="-3.37938">
        <ele>2682.4</ele>
        <time>2021-08-05 12:03:31</time>
      </trkpt>
      <trkpt lat="37.08276" lon="-3.37938">
        <ele>2682.4</ele>
        <time>2021-08-05 12:03:32</time>
      </trkpt>
      <trkpt lat="37.08275" lon="-3.37937">
        <ele>2682.6</ele>
        <time>2021-08-05 12:03:33</time>
      </trkpt>
      <trkpt lat="37.08275" lon="-3.37936">
        <ele>2682.8</ele>
        <time>2021-08-05 12:03:34</time>
      </trkpt>
      <trkpt lat="37.08274" lon="-3.37936">
        <ele>2682.8</ele>
        <time>2021-08-05 12:03:35</time>
      </trkpt>
      <trkpt lat="37.08274" lon="-3.37935">
        <ele>2682.8</ele>
        <time>2021-08-05 12:03:36</time>
      </trkpt>
      <trkpt lat="37.08274" lon="-3.37934">
        <ele>2683</ele>
        <time>2021-08-05 12:03:37</time>
      </trkpt>
      <trkpt lat="37.08273" lon="-3.37934">
        <ele>2683.2</ele>
        <time>2021-08-05 12:03:38</time>
      </trkpt>
      <trkpt lat="37.08273" lon="-3.37934">
        <ele>2683.4</ele>
        <time>2021-08-05 12:03:39</time>
      </trkpt>
      <trkpt lat="37.08272" lon="-3.37934">
        <ele>2683.4</ele>
        <time>2021-08-05 12:03:40</time>
      </trkpt>
      <trkpt lat="37.08272" lon="-3.37934">
        <ele>2683.4</ele>
        <time>2021-08-05 12:03:41</time>
      </trkpt>
      <trkpt lat="37.08272" lon="-3.37935">
        <ele>2683.8</ele>
        <time>2021-08-05 12:03:42</time>
      </trkpt>
      <trkpt lat="37.08272" lon="-3.37934">
        <ele>2683.8</ele>
        <time>2021-08-05 12:03:43</time>
      </trkpt>
      <trkpt lat="37.08272" lon="-3.37934">
        <ele>2683.8</ele>
        <time>2021-08-05 12:03:44</time>
      </trkpt>
      <trkpt lat="37.08272" lon="-3.37934">
        <ele>2683.8</ele>
        <time>2021-08-05 12:03:45</time>
      </trkpt>
      <trkpt lat="37.08272" lon="-3.37934">
        <ele>2683.8</ele>
        <time>2021-08-05 12:03:46</time>
      </trkpt>
      <trkpt lat="37.08272" lon="-3.37935">
        <ele>2683.8</ele>
        <time>2021-08-05 12:03:47</time>
      </trkpt>
      <trkpt lat="37.08272" lon="-3.37935">
        <ele>2683.8</ele>
        <time>2021-08-05 12:03:48</time>
      </trkpt>
      <trkpt lat="37.08271" lon="-3.37935">
        <ele>2683.8</ele>
        <time>2021-08-05 12:03:49</time>
      </trkpt>
      <trkpt lat="37.08271" lon="-3.37935">
        <ele>2683.8</ele>
        <time>2021-08-05 12:03:50</time>
      </trkpt>
      <trkpt lat="37.0827" lon="-3.37934">
        <ele>2683.8</ele>
        <time>2021-08-05 12:03:51</time>
      </trkpt>
      <trkpt lat="37.0827" lon="-3.37934">
        <ele>2683.8</ele>
        <time>2021-08-05 12:03:52</time>
      </trkpt>
      <trkpt lat="37.08269" lon="-3.37934">
        <ele>2683.8</ele>
        <time>2021-08-05 12:03:53</time>
      </trkpt>
      <trkpt lat="37.08269" lon="-3.37933">
        <ele>2683.8</ele>
        <time>2021-08-05 12:03:54</time>
      </trkpt>
      <trkpt lat="37.08269" lon="-3.37933">
        <ele>2683.8</ele>
        <time>2021-08-05 12:03:55</time>
      </trkpt>
      <trkpt lat="37.08268" lon="-3.37932">
        <ele>2683.8</ele>
        <time>2021-08-05 12:03:56</time>
      </trkpt>
      <trkpt lat="37.08267" lon="-3.37932">
        <ele>2683.8</ele>
        <time>2021-08-05 12:03:57</time>
      </trkpt>
      <trkpt lat="37.08267" lon="-3.37932">
        <ele>2683.8</ele>
        <time>2021-08-05 12:03:58</time>
      </trkpt>
      <trkpt lat="37.08266" lon="-3.37932">
        <ele>2683.8</ele>
        <time>2021-08-05 12:03:59</time>
      </trkpt>
      <trkpt lat="37.08267" lon="-3.37933">
        <ele>2684</ele>
        <time>2021-08-05 12:04:00</time>
      </trkpt>
      <trkpt lat="37.08266" lon="-3.37933">
        <ele>2684</ele>
        <time>2021-08-05 12:04:01</time>
      </trkpt>
      <trkpt lat="37.08266" lon="-3.37933">
        <ele>2684</ele>
        <time>2021-08-05 12:04:02</time>
      </trkpt>
      <trkpt lat="37.08266" lon="-3.37932">
        <ele>2684.2</ele>
        <time>2021-08-05 12:04:03</time>
      </trkpt>
      <trkpt lat="37.08266" lon="-3.37932">
        <ele>2684.2</ele>
        <time>2021-08-05 12:04:04</time>
      </trkpt>
      <trkpt lat="37.08265" lon="-3.37931">
        <ele>2684.4</ele>
        <time>2021-08-05 12:04:05</time>
      </trkpt>
      <trkpt lat="37.08265" lon="-3.37931">
        <ele>2684.6</ele>
        <time>2021-08-05 12:04:06</time>
      </trkpt>
      <trkpt lat="37.08264" lon="-3.37931">
        <ele>2684.6</ele>
        <time>2021-08-05 12:04:07</time>
      </trkpt>
      <trkpt lat="37.08263" lon="-3.37931">
        <ele>2684.8</ele>
        <time>2021-08-05 12:04:08</time>
      </trkpt>
      <trkpt lat="37.08263" lon="-3.3793">
        <ele>2684.8</ele>
        <time>2021-08-05 12:04:09</time>
      </trkpt>
      <trkpt lat="37.08262" lon="-3.37929">
        <ele>2684.8</ele>
        <time>2021-08-05 12:04:10</time>
      </trkpt>
      <trkpt lat="37.08262" lon="-3.37929">
        <ele>2684.8</ele>
        <time>2021-08-05 12:04:11</time>
      </trkpt>
      <trkpt lat="37.08261" lon="-3.37929">
        <ele>2684.8</ele>
        <time>2021-08-05 12:04:12</time>
      </trkpt>
      <trkpt lat="37.08261" lon="-3.37929">
        <ele>2684.8</ele>
        <time>2021-08-05 12:04:13</time>
      </trkpt>
      <trkpt lat="37.08261" lon="-3.37929">
        <ele>2684.8</ele>
        <time>2021-08-05 12:04:14</time>
      </trkpt>
      <trkpt lat="37.0826" lon="-3.37928">
        <ele>2684.8</ele>
        <time>2021-08-05 12:04:15</time>
      </trkpt>
      <trkpt lat="37.0826" lon="-3.37928">
        <ele>2685.2</ele>
        <time>2021-08-05 12:04:16</time>
      </trkpt>
      <trkpt lat="37.08259" lon="-3.37927">
        <ele>2685.2</ele>
        <time>2021-08-05 12:04:17</time>
      </trkpt>
      <trkpt lat="37.08259" lon="-3.37926">
        <ele>2685.4</ele>
        <time>2021-08-05 12:04:18</time>
      </trkpt>
      <trkpt lat="37.08259" lon="-3.37926">
        <ele>2685.4</ele>
        <time>2021-08-05 12:04:19</time>
      </trkpt>
      <trkpt lat="37.08258" lon="-3.37925">
        <ele>2685.4</ele>
        <time>2021-08-05 12:04:20</time>
      </trkpt>
      <trkpt lat="37.08258" lon="-3.37925">
        <ele>2685.4</ele>
        <time>2021-08-05 12:04:21</time>
      </trkpt>
      <trkpt lat="37.08257" lon="-3.37924">
        <ele>2685.6</ele>
        <time>2021-08-05 12:04:22</time>
      </trkpt>
      <trkpt lat="37.08257" lon="-3.37923">
        <ele>2685.6</ele>
        <time>2021-08-05 12:04:23</time>
      </trkpt>
      <trkpt lat="37.08256" lon="-3.37922">
        <ele>2685.6</ele>
        <time>2021-08-05 12:04:24</time>
      </trkpt>
      <trkpt lat="37.08256" lon="-3.37921">
        <ele>2685.6</ele>
        <time>2021-08-05 12:04:25</time>
      </trkpt>
      <trkpt lat="37.08255" lon="-3.3792">
        <ele>2685.6</ele>
        <time>2021-08-05 12:04:26</time>
      </trkpt>
      <trkpt lat="37.08254" lon="-3.37919">
        <ele>2685.6</ele>
        <time>2021-08-05 12:04:27</time>
      </trkpt>
      <trkpt lat="37.08253" lon="-3.37919">
        <ele>2685.6</ele>
        <time>2021-08-05 12:04:28</time>
      </trkpt>
      <trkpt lat="37.08253" lon="-3.37918">
        <ele>2685.6</ele>
        <time>2021-08-05 12:04:29</time>
      </trkpt>
      <trkpt lat="37.08252" lon="-3.37917">
        <ele>2685.6</ele>
        <time>2021-08-05 12:04:30</time>
      </trkpt>
      <trkpt lat="37.08252" lon="-3.37916">
        <ele>2685.6</ele>
        <time>2021-08-05 12:04:31</time>
      </trkpt>
      <trkpt lat="37.08251" lon="-3.37916">
        <ele>2685.8</ele>
        <time>2021-08-05 12:04:32</time>
      </trkpt>
      <trkpt lat="37.0825" lon="-3.37916">
        <ele>2685.8</ele>
        <time>2021-08-05 12:04:33</time>
      </trkpt>
      <trkpt lat="37.08252" lon="-3.37917">
        <ele>2685.8</ele>
        <time>2021-08-05 12:04:34</time>
      </trkpt>
      <trkpt lat="37.08252" lon="-3.37917">
        <ele>2686</ele>
        <time>2021-08-05 12:04:35</time>
      </trkpt>
      <trkpt lat="37.08252" lon="-3.37918">
        <ele>2686.2</ele>
        <time>2021-08-05 12:04:36</time>
      </trkpt>
      <trkpt lat="37.08252" lon="-3.37918">
        <ele>2686.2</ele>
        <time>2021-08-05 12:04:37</time>
      </trkpt>
      <trkpt lat="37.08251" lon="-3.37918">
        <ele>2686.4</ele>
        <time>2021-08-05 12:04:38</time>
      </trkpt>
      <trkpt lat="37.08251" lon="-3.37917">
        <ele>2686.2</ele>
        <time>2021-08-05 12:04:39</time>
      </trkpt>
      <trkpt lat="37.0825" lon="-3.37917">
        <ele>2686.4</ele>
        <time>2021-08-05 12:04:40</time>
      </trkpt>
      <trkpt lat="37.08249" lon="-3.37916">
        <ele>2686.6</ele>
        <time>2021-08-05 12:04:41</time>
      </trkpt>
      <trkpt lat="37.08249" lon="-3.37916">
        <ele>2686.6</ele>
        <time>2021-08-05 12:04:42</time>
      </trkpt>
      <trkpt lat="37.08248" lon="-3.37916">
        <ele>2686.6</ele>
        <time>2021-08-05 12:04:43</time>
      </trkpt>
      <trkpt lat="37.08248" lon="-3.37916">
        <ele>2686.8</ele>
        <time>2021-08-05 12:04:44</time>
      </trkpt>
      <trkpt lat="37.08248" lon="-3.37916">
        <ele>2687</ele>
        <time>2021-08-05 12:04:45</time>
      </trkpt>
      <trkpt lat="37.08247" lon="-3.37916">
        <ele>2687</ele>
        <time>2021-08-05 12:04:46</time>
      </trkpt>
      <trkpt lat="37.08247" lon="-3.37916">
        <ele>2687.4</ele>
        <time>2021-08-05 12:04:47</time>
      </trkpt>
      <trkpt lat="37.08246" lon="-3.37915">
        <ele>2687.6</ele>
        <time>2021-08-05 12:04:48</time>
      </trkpt>
      <trkpt lat="37.08245" lon="-3.37914">
        <ele>2687.8</ele>
        <time>2021-08-05 12:04:49</time>
      </trkpt>
      <trkpt lat="37.08245" lon="-3.37913">
        <ele>2687.8</ele>
        <time>2021-08-05 12:04:50</time>
      </trkpt>
      <trkpt lat="37.08244" lon="-3.37912">
        <ele>2688</ele>
        <time>2021-08-05 12:04:51</time>
      </trkpt>
      <trkpt lat="37.08243" lon="-3.37911">
        <ele>2688</ele>
        <time>2021-08-05 12:04:52</time>
      </trkpt>
      <trkpt lat="37.08242" lon="-3.37911">
        <ele>2688</ele>
        <time>2021-08-05 12:04:53</time>
      </trkpt>
      <trkpt lat="37.08241" lon="-3.3791">
        <ele>2688.4</ele>
        <time>2021-08-05 12:04:54</time>
      </trkpt>
      <trkpt lat="37.08241" lon="-3.37909">
        <ele>2688.4</ele>
        <time>2021-08-05 12:04:55</time>
      </trkpt>
      <trkpt lat="37.0824" lon="-3.37909">
        <ele>2688.6</ele>
        <time>2021-08-05 12:04:56</time>
      </trkpt>
      <trkpt lat="37.0824" lon="-3.37909">
        <ele>2688.6</ele>
        <time>2021-08-05 12:04:57</time>
      </trkpt>
      <trkpt lat="37.08239" lon="-3.37909">
        <ele>2688.6</ele>
        <time>2021-08-05 12:04:58</time>
      </trkpt>
      <trkpt lat="37.08239" lon="-3.37908">
        <ele>2688.8</ele>
        <time>2021-08-05 12:04:59</time>
      </trkpt>
      <trkpt lat="37.08239" lon="-3.37908">
        <ele>2689</ele>
        <time>2021-08-05 12:05:00</time>
      </trkpt>
      <trkpt lat="37.08239" lon="-3.37908">
        <ele>2689</ele>
        <time>2021-08-05 12:05:01</time>
      </trkpt>
      <trkpt lat="37.08238" lon="-3.37908">
        <ele>2689</ele>
        <time>2021-08-05 12:05:02</time>
      </trkpt>
      <trkpt lat="37.08238" lon="-3.37908">
        <ele>2689</ele>
        <time>2021-08-05 12:05:03</time>
      </trkpt>
      <trkpt lat="37.08238" lon="-3.37908">
        <ele>2689.2</ele>
        <time>2021-08-05 12:05:04</time>
      </trkpt>
      <trkpt lat="37.08237" lon="-3.37908">
        <ele>2689.2</ele>
        <time>2021-08-05 12:05:05</time>
      </trkpt>
      <trkpt lat="37.08237" lon="-3.37907">
        <ele>2689.2</ele>
        <time>2021-08-05 12:05:06</time>
      </trkpt>
      <trkpt lat="37.08236" lon="-3.37907">
        <ele>2689.2</ele>
        <time>2021-08-05 12:05:07</time>
      </trkpt>
      <trkpt lat="37.08236" lon="-3.37907">
        <ele>2689.2</ele>
        <time>2021-08-05 12:05:08</time>
      </trkpt>
      <trkpt lat="37.08236" lon="-3.37907">
        <ele>2689.4</ele>
        <time>2021-08-05 12:05:09</time>
      </trkpt>
      <trkpt lat="37.08235" lon="-3.37907">
        <ele>2689.6</ele>
        <time>2021-08-05 12:05:10</time>
      </trkpt>
      <trkpt lat="37.08235" lon="-3.37907">
        <ele>2689.6</ele>
        <time>2021-08-05 12:05:11</time>
      </trkpt>
      <trkpt lat="37.08234" lon="-3.37907">
        <ele>2689.8</ele>
        <time>2021-08-05 12:05:12</time>
      </trkpt>
      <trkpt lat="37.08234" lon="-3.37906">
        <ele>2689.8</ele>
        <time>2021-08-05 12:05:13</time>
      </trkpt>
      <trkpt lat="37.08233" lon="-3.37906">
        <ele>2689.8</ele>
        <time>2021-08-05 12:05:14</time>
      </trkpt>
      <trkpt lat="37.08232" lon="-3.37906">
        <ele>2689.8</ele>
        <time>2021-08-05 12:05:15</time>
      </trkpt>
      <trkpt lat="37.08231" lon="-3.37906">
        <ele>2690</ele>
        <time>2021-08-05 12:05:16</time>
      </trkpt>
      <trkpt lat="37.08231" lon="-3.37906">
        <ele>2690</ele>
        <time>2021-08-05 12:05:17</time>
      </trkpt>
      <trkpt lat="37.0823" lon="-3.37906">
        <ele>2690.2</ele>
        <time>2021-08-05 12:05:18</time>
      </trkpt>
      <trkpt lat="37.08229" lon="-3.37906">
        <ele>2690.2</ele>
        <time>2021-08-05 12:05:19</time>
      </trkpt>
      <trkpt lat="37.08228" lon="-3.37905">
        <ele>2690.2</ele>
        <time>2021-08-05 12:05:20</time>
      </trkpt>
      <trkpt lat="37.08228" lon="-3.37904">
        <ele>2690.4</ele>
        <time>2021-08-05 12:05:21</time>
      </trkpt>
      <trkpt lat="37.08227" lon="-3.37904">
        <ele>2690.6</ele>
        <time>2021-08-05 12:05:22</time>
      </trkpt>
      <trkpt lat="37.08226" lon="-3.37903">
        <ele>2690.6</ele>
        <time>2021-08-05 12:05:23</time>
      </trkpt>
      <trkpt lat="37.08225" lon="-3.37902">
        <ele>2690.8</ele>
        <time>2021-08-05 12:05:24</time>
      </trkpt>
      <trkpt lat="37.08224" lon="-3.37901">
        <ele>2691</ele>
        <time>2021-08-05 12:05:25</time>
      </trkpt>
      <trkpt lat="37.08224" lon="-3.37901">
        <ele>2691</ele>
        <time>2021-08-05 12:05:26</time>
      </trkpt>
      <trkpt lat="37.08223" lon="-3.37899">
        <ele>2691</ele>
        <time>2021-08-05 12:05:27</time>
      </trkpt>
      <trkpt lat="37.08223" lon="-3.37898">
        <ele>2691</ele>
        <time>2021-08-05 12:05:28</time>
      </trkpt>
      <trkpt lat="37.08223" lon="-3.37899">
        <ele>2691</ele>
        <time>2021-08-05 12:05:29</time>
      </trkpt>
      <trkpt lat="37.08223" lon="-3.37898">
        <ele>2691.2</ele>
        <time>2021-08-05 12:05:30</time>
      </trkpt>
      <trkpt lat="37.08223" lon="-3.37898">
        <ele>2691.2</ele>
        <time>2021-08-05 12:05:31</time>
      </trkpt>
      <trkpt lat="37.08222" lon="-3.37898">
        <ele>2691.4</ele>
        <time>2021-08-05 12:05:32</time>
      </trkpt>
      <trkpt lat="37.08222" lon="-3.37897">
        <ele>2691.4</ele>
        <time>2021-08-05 12:05:33</time>
      </trkpt>
      <trkpt lat="37.08222" lon="-3.37897">
        <ele>2691.6</ele>
        <time>2021-08-05 12:05:34</time>
      </trkpt>
      <trkpt lat="37.08221" lon="-3.37896">
        <ele>2691.8</ele>
        <time>2021-08-05 12:05:35</time>
      </trkpt>
      <trkpt lat="37.08221" lon="-3.37896">
        <ele>2691.8</ele>
        <time>2021-08-05 12:05:36</time>
      </trkpt>
      <trkpt lat="37.08221" lon="-3.37895">
        <ele>2691.8</ele>
        <time>2021-08-05 12:05:37</time>
      </trkpt>
      <trkpt lat="37.0822" lon="-3.37895">
        <ele>2691.8</ele>
        <time>2021-08-05 12:05:38</time>
      </trkpt>
      <trkpt lat="37.0822" lon="-3.37894">
        <ele>2691.8</ele>
        <time>2021-08-05 12:05:39</time>
      </trkpt>
      <trkpt lat="37.08219" lon="-3.37894">
        <ele>2691.8</ele>
        <time>2021-08-05 12:05:40</time>
      </trkpt>
      <trkpt lat="37.08219" lon="-3.37894">
        <ele>2692</ele>
        <time>2021-08-05 12:05:41</time>
      </trkpt>
      <trkpt lat="37.08219" lon="-3.37894">
        <ele>2692.2</ele>
        <time>2021-08-05 12:05:42</time>
      </trkpt>
      <trkpt lat="37.08218" lon="-3.37895">
        <ele>2692.4</ele>
        <time>2021-08-05 12:05:43</time>
      </trkpt>
      <trkpt lat="37.08218" lon="-3.37894">
        <ele>2692.4</ele>
        <time>2021-08-05 12:05:44</time>
      </trkpt>
      <trkpt lat="37.08217" lon="-3.37894">
        <ele>2692.4</ele>
        <time>2021-08-05 12:05:45</time>
      </trkpt>
      <trkpt lat="37.08217" lon="-3.37893">
        <ele>2692.4</ele>
        <time>2021-08-05 12:05:46</time>
      </trkpt>
      <trkpt lat="37.08217" lon="-3.37893">
        <ele>2692.6</ele>
        <time>2021-08-05 12:05:47</time>
      </trkpt>
      <trkpt lat="37.08216" lon="-3.37892">
        <ele>2692.6</ele>
        <time>2021-08-05 12:05:48</time>
      </trkpt>
      <trkpt lat="37.08215" lon="-3.37891">
        <ele>2692.6</ele>
        <time>2021-08-05 12:05:49</time>
      </trkpt>
      <trkpt lat="37.08214" lon="-3.37891">
        <ele>2692.6</ele>
        <time>2021-08-05 12:05:50</time>
      </trkpt>
      <trkpt lat="37.08214" lon="-3.3789">
        <ele>2692.8</ele>
        <time>2021-08-05 12:05:51</time>
      </trkpt>
      <trkpt lat="37.08213" lon="-3.3789">
        <ele>2693</ele>
        <time>2021-08-05 12:05:52</time>
      </trkpt>
      <trkpt lat="37.08213" lon="-3.3789">
        <ele>2693</ele>
        <time>2021-08-05 12:05:53</time>
      </trkpt>
      <trkpt lat="37.08213" lon="-3.3789">
        <ele>2693</ele>
        <time>2021-08-05 12:05:54</time>
      </trkpt>
      <trkpt lat="37.08212" lon="-3.37891">
        <ele>2693</ele>
        <time>2021-08-05 12:05:55</time>
      </trkpt>
      <trkpt lat="37.08212" lon="-3.37891">
        <ele>2693.2</ele>
        <time>2021-08-05 12:05:56</time>
      </trkpt>
      <trkpt lat="37.08212" lon="-3.37892">
        <ele>2693.4</ele>
        <time>2021-08-05 12:05:57</time>
      </trkpt>
      <trkpt lat="37.08212" lon="-3.37892">
        <ele>2693.4</ele>
        <time>2021-08-05 12:05:58</time>
      </trkpt>
      <trkpt lat="37.08211" lon="-3.37892">
        <ele>2693.4</ele>
        <time>2021-08-05 12:05:59</time>
      </trkpt>
      <trkpt lat="37.08211" lon="-3.37892">
        <ele>2693.8</ele>
        <time>2021-08-05 12:06:00</time>
      </trkpt>
      <trkpt lat="37.08211" lon="-3.37893">
        <ele>2694</ele>
        <time>2021-08-05 12:06:01</time>
      </trkpt>
      <trkpt lat="37.0821" lon="-3.37894">
        <ele>2694.2</ele>
        <time>2021-08-05 12:06:02</time>
      </trkpt>
      <trkpt lat="37.0821" lon="-3.37894">
        <ele>2694.2</ele>
        <time>2021-08-05 12:06:03</time>
      </trkpt>
      <trkpt lat="37.08209" lon="-3.37893">
        <ele>2694.2</ele>
        <time>2021-08-05 12:06:04</time>
      </trkpt>
      <trkpt lat="37.08209" lon="-3.37893">
        <ele>2694.4</ele>
        <time>2021-08-05 12:06:05</time>
      </trkpt>
      <trkpt lat="37.08208" lon="-3.37892">
        <ele>2694.4</ele>
        <time>2021-08-05 12:06:06</time>
      </trkpt>
      <trkpt lat="37.08206" lon="-3.37889">
        <ele>2694.4</ele>
        <time>2021-08-05 12:06:07</time>
      </trkpt>
      <trkpt lat="37.08204" lon="-3.37887">
        <ele>2694.6</ele>
        <time>2021-08-05 12:06:08</time>
      </trkpt>
      <trkpt lat="37.08203" lon="-3.37886">
        <ele>2694.6</ele>
        <time>2021-08-05 12:06:09</time>
      </trkpt>
      <trkpt lat="37.08203" lon="-3.37886">
        <ele>2694.6</ele>
        <time>2021-08-05 12:06:10</time>
      </trkpt>
      <trkpt lat="37.08203" lon="-3.37886">
        <ele>2694.6</ele>
        <time>2021-08-05 12:06:11</time>
      </trkpt>
      <trkpt lat="37.08202" lon="-3.37887">
        <ele>2694.8</ele>
        <time>2021-08-05 12:06:12</time>
      </trkpt>
      <trkpt lat="37.08201" lon="-3.37887">
        <ele>2694.8</ele>
        <time>2021-08-05 12:06:13</time>
      </trkpt>
      <trkpt lat="37.08201" lon="-3.37887">
        <ele>2695</ele>
        <time>2021-08-05 12:06:14</time>
      </trkpt>
      <trkpt lat="37.08201" lon="-3.37887">
        <ele>2695</ele>
        <time>2021-08-05 12:06:15</time>
      </trkpt>
      <trkpt lat="37.082" lon="-3.37887">
        <ele>2695.2</ele>
        <time>2021-08-05 12:06:16</time>
      </trkpt>
      <trkpt lat="37.082" lon="-3.37887">
        <ele>2695</ele>
        <time>2021-08-05 12:06:17</time>
      </trkpt>
      <trkpt lat="37.08199" lon="-3.37887">
        <ele>2695.2</ele>
        <time>2021-08-05 12:06:18</time>
      </trkpt>
      <trkpt lat="37.08199" lon="-3.37887">
        <ele>2695.4</ele>
        <time>2021-08-05 12:06:19</time>
      </trkpt>
      <trkpt lat="37.08198" lon="-3.37887">
        <ele>2695.4</ele>
        <time>2021-08-05 12:06:20</time>
      </trkpt>
      <trkpt lat="37.08197" lon="-3.37887">
        <ele>2695.4</ele>
        <time>2021-08-05 12:06:21</time>
      </trkpt>
      <trkpt lat="37.08197" lon="-3.37887">
        <ele>2695.4</ele>
        <time>2021-08-05 12:06:22</time>
      </trkpt>
      <trkpt lat="37.08196" lon="-3.37887">
        <ele>2695.6</ele>
        <time>2021-08-05 12:06:23</time>
      </trkpt>
      <trkpt lat="37.08195" lon="-3.37888">
        <ele>2695.8</ele>
        <time>2021-08-05 12:06:24</time>
      </trkpt>
      <trkpt lat="37.08195" lon="-3.37888">
        <ele>2695.8</ele>
        <time>2021-08-05 12:06:25</time>
      </trkpt>
      <trkpt lat="37.08195" lon="-3.37887">
        <ele>2696</ele>
        <time>2021-08-05 12:06:26</time>
      </trkpt>
      <trkpt lat="37.08194" lon="-3.37887">
        <ele>2696</ele>
        <time>2021-08-05 12:06:27</time>
      </trkpt>
      <trkpt lat="37.08194" lon="-3.37887">
        <ele>2696.2</ele>
        <time>2021-08-05 12:06:28</time>
      </trkpt>
      <trkpt lat="37.08193" lon="-3.37887">
        <ele>2696.2</ele>
        <time>2021-08-05 12:06:29</time>
      </trkpt>
      <trkpt lat="37.08193" lon="-3.37887">
        <ele>2696.2</ele>
        <time>2021-08-05 12:06:30</time>
      </trkpt>
      <trkpt lat="37.08192" lon="-3.37887">
        <ele>2696.4</ele>
        <time>2021-08-05 12:06:31</time>
      </trkpt>
      <trkpt lat="37.08192" lon="-3.37886">
        <ele>2696.4</ele>
        <time>2021-08-05 12:06:32</time>
      </trkpt>
      <trkpt lat="37.08192" lon="-3.37886">
        <ele>2696.6</ele>
        <time>2021-08-05 12:06:33</time>
      </trkpt>
      <trkpt lat="37.08192" lon="-3.37886">
        <ele>2696.6</ele>
        <time>2021-08-05 12:06:34</time>
      </trkpt>
      <trkpt lat="37.08191" lon="-3.37885">
        <ele>2696.8</ele>
        <time>2021-08-05 12:06:35</time>
      </trkpt>
      <trkpt lat="37.0819" lon="-3.37885">
        <ele>2696.8</ele>
        <time>2021-08-05 12:06:36</time>
      </trkpt>
      <trkpt lat="37.08189" lon="-3.37885">
        <ele>2697</ele>
        <time>2021-08-05 12:06:37</time>
      </trkpt>
      <trkpt lat="37.08188" lon="-3.37884">
        <ele>2697</ele>
        <time>2021-08-05 12:06:38</time>
      </trkpt>
      <trkpt lat="37.08188" lon="-3.37884">
        <ele>2697</ele>
        <time>2021-08-05 12:06:39</time>
      </trkpt>
      <trkpt lat="37.08187" lon="-3.37884">
        <ele>2697</ele>
        <time>2021-08-05 12:06:40</time>
      </trkpt>
      <trkpt lat="37.08187" lon="-3.37884">
        <ele>2697.2</ele>
        <time>2021-08-05 12:06:41</time>
      </trkpt>
      <trkpt lat="37.08186" lon="-3.37883">
        <ele>2697.4</ele>
        <time>2021-08-05 12:06:42</time>
      </trkpt>
      <trkpt lat="37.08185" lon="-3.37882">
        <ele>2697.6</ele>
        <time>2021-08-05 12:06:43</time>
      </trkpt>
      <trkpt lat="37.08183" lon="-3.3788">
        <ele>2697.6</ele>
        <time>2021-08-05 12:06:44</time>
      </trkpt>
      <trkpt lat="37.08183" lon="-3.37879">
        <ele>2697.6</ele>
        <time>2021-08-05 12:06:45</time>
      </trkpt>
      <trkpt lat="37.08183" lon="-3.37879">
        <ele>2697.8</ele>
        <time>2021-08-05 12:06:46</time>
      </trkpt>
      <trkpt lat="37.08183" lon="-3.37879">
        <ele>2697.8</ele>
        <time>2021-08-05 12:06:47</time>
      </trkpt>
      <trkpt lat="37.08182" lon="-3.37878">
        <ele>2697.8</ele>
        <time>2021-08-05 12:06:48</time>
      </trkpt>
      <trkpt lat="37.08183" lon="-3.37877">
        <ele>2697.8</ele>
        <time>2021-08-05 12:06:49</time>
      </trkpt>
      <trkpt lat="37.08183" lon="-3.37876">
        <ele>2697.6</ele>
        <time>2021-08-05 12:06:50</time>
      </trkpt>
      <trkpt lat="37.08183" lon="-3.37876">
        <ele>2697.6</ele>
        <time>2021-08-05 12:06:51</time>
      </trkpt>
      <trkpt lat="37.08183" lon="-3.37875">
        <ele>2697.4</ele>
        <time>2021-08-05 12:06:52</time>
      </trkpt>
      <trkpt lat="37.08183" lon="-3.37875">
        <ele>2697.4</ele>
        <time>2021-08-05 12:06:53</time>
      </trkpt>
      <trkpt lat="37.08182" lon="-3.37875">
        <ele>2697.4</ele>
        <time>2021-08-05 12:06:54</time>
      </trkpt>
      <trkpt lat="37.08182" lon="-3.37875">
        <ele>2697.4</ele>
        <time>2021-08-05 12:06:55</time>
      </trkpt>
      <trkpt lat="37.08181" lon="-3.37874">
        <ele>2697.4</ele>
        <time>2021-08-05 12:06:56</time>
      </trkpt>
      <trkpt lat="37.0818" lon="-3.37875">
        <ele>2697.4</ele>
        <time>2021-08-05 12:06:57</time>
      </trkpt>
      <trkpt lat="37.0818" lon="-3.37875">
        <ele>2697.2</ele>
        <time>2021-08-05 12:06:58</time>
      </trkpt>
      <trkpt lat="37.08179" lon="-3.37875">
        <ele>2697</ele>
        <time>2021-08-05 12:06:59</time>
      </trkpt>
      <trkpt lat="37.08179" lon="-3.37875">
        <ele>2696.8</ele>
        <time>2021-08-05 12:07:00</time>
      </trkpt>
      <trkpt lat="37.08179" lon="-3.37875">
        <ele>2696.6</ele>
        <time>2021-08-05 12:07:01</time>
      </trkpt>
      <trkpt lat="37.08179" lon="-3.37875">
        <ele>2696.6</ele>
        <time>2021-08-05 12:07:02</time>
      </trkpt>
      <trkpt lat="37.08179" lon="-3.37875">
        <ele>2696.6</ele>
        <time>2021-08-05 12:07:03</time>
      </trkpt>
      <trkpt lat="37.08179" lon="-3.37875">
        <ele>2696.6</ele>
        <time>2021-08-05 12:07:04</time>
      </trkpt>
      <trkpt lat="37.08179" lon="-3.37875">
        <ele>2696.6</ele>
        <time>2021-08-05 12:07:05</time>
      </trkpt>
      <trkpt lat="37.08179" lon="-3.37876">
        <ele>2696.6</ele>
        <time>2021-08-05 12:07:06</time>
      </trkpt>
      <trkpt lat="37.08178" lon="-3.37877">
        <ele>2696.6</ele>
        <time>2021-08-05 12:07:07</time>
      </trkpt>
      <trkpt lat="37.08178" lon="-3.37877">
        <ele>2696.6</ele>
        <time>2021-08-05 12:07:08</time>
      </trkpt>
      <trkpt lat="37.08178" lon="-3.37876">
        <ele>2696.6</ele>
        <time>2021-08-05 12:07:09</time>
      </trkpt>
      <trkpt lat="37.08178" lon="-3.37876">
        <ele>2696.6</ele>
        <time>2021-08-05 12:07:10</time>
      </trkpt>
      <trkpt lat="37.08178" lon="-3.37876">
        <ele>2696.6</ele>
        <time>2021-08-05 12:07:11</time>
      </trkpt>
      <trkpt lat="37.08179" lon="-3.37876">
        <ele>2696.8</ele>
        <time>2021-08-05 12:07:12</time>
      </trkpt>
      <trkpt lat="37.08179" lon="-3.37876">
        <ele>2697</ele>
        <time>2021-08-05 12:07:13</time>
      </trkpt>
      <trkpt lat="37.08179" lon="-3.37876">
        <ele>2697.4</ele>
        <time>2021-08-05 12:07:14</time>
      </trkpt>
      <trkpt lat="37.08179" lon="-3.37876">
        <ele>2697.4</ele>
        <time>2021-08-05 12:07:15</time>
      </trkpt>
      <trkpt lat="37.08179" lon="-3.37876">
        <ele>2697.4</ele>
        <time>2021-08-05 12:07:16</time>
      </trkpt>
      <trkpt lat="37.08179" lon="-3.37877">
        <ele>2697.4</ele>
        <time>2021-08-05 12:07:17</time>
      </trkpt>
      <trkpt lat="37.08179" lon="-3.37877">
        <ele>2697.4</ele>
        <time>2021-08-05 12:07:18</time>
      </trkpt>
      <trkpt lat="37.08179" lon="-3.37876">
        <ele>2697.4</ele>
        <time>2021-08-05 12:07:19</time>
      </trkpt>
      <trkpt lat="37.08179" lon="-3.37876">
        <ele>2697.4</ele>
        <time>2021-08-05 12:07:20</time>
      </trkpt>
      <trkpt lat="37.08178" lon="-3.37876">
        <ele>2697.2</ele>
        <time>2021-08-05 12:07:21</time>
      </trkpt>
      <trkpt lat="37.08177" lon="-3.37876">
        <ele>2697.4</ele>
        <time>2021-08-05 12:07:22</time>
      </trkpt>
      <trkpt lat="37.08178" lon="-3.37876">
        <ele>2697.4</ele>
        <time>2021-08-05 12:07:23</time>
      </trkpt>
      <trkpt lat="37.08178" lon="-3.37875">
        <ele>2697.4</ele>
        <time>2021-08-05 12:07:24</time>
      </trkpt>
      <trkpt lat="37.08178" lon="-3.37875">
        <ele>2697.6</ele>
        <time>2021-08-05 12:07:25</time>
      </trkpt>
      <trkpt lat="37.08177" lon="-3.37875">
        <ele>2698</ele>
        <time>2021-08-05 12:07:26</time>
      </trkpt>
      <trkpt lat="37.08177" lon="-3.37875">
        <ele>2698.2</ele>
        <time>2021-08-05 12:07:27</time>
      </trkpt>
      <trkpt lat="37.08176" lon="-3.37875">
        <ele>2698.2</ele>
        <time>2021-08-05 12:07:28</time>
      </trkpt>
      <trkpt lat="37.08176" lon="-3.37874">
        <ele>2698.4</ele>
        <time>2021-08-05 12:07:29</time>
      </trkpt>
      <trkpt lat="37.08176" lon="-3.37874">
        <ele>2698.4</ele>
        <time>2021-08-05 12:07:30</time>
      </trkpt>
      <trkpt lat="37.08176" lon="-3.37874">
        <ele>2698.6</ele>
        <time>2021-08-05 12:07:31</time>
      </trkpt>
      <trkpt lat="37.08176" lon="-3.37873">
        <ele>2698.6</ele>
        <time>2021-08-05 12:07:32</time>
      </trkpt>
      <trkpt lat="37.08175" lon="-3.37872">
        <ele>2698.8</ele>
        <time>2021-08-05 12:07:33</time>
      </trkpt>
      <trkpt lat="37.08175" lon="-3.37872">
        <ele>2699</ele>
        <time>2021-08-05 12:07:34</time>
      </trkpt>
      <trkpt lat="37.08174" lon="-3.37871">
        <ele>2699.2</ele>
        <time>2021-08-05 12:07:35</time>
      </trkpt>
      <trkpt lat="37.08173" lon="-3.3787">
        <ele>2699.4</ele>
        <time>2021-08-05 12:07:36</time>
      </trkpt>
      <trkpt lat="37.08172" lon="-3.3787">
        <ele>2699.4</ele>
        <time>2021-08-05 12:07:37</time>
      </trkpt>
      <trkpt lat="37.08171" lon="-3.37869">
        <ele>2699.8</ele>
        <time>2021-08-05 12:07:38</time>
      </trkpt>
      <trkpt lat="37.0817" lon="-3.37869">
        <ele>2700</ele>
        <time>2021-08-05 12:07:39</time>
      </trkpt>
      <trkpt lat="37.08169" lon="-3.37868">
        <ele>2700.2</ele>
        <time>2021-08-05 12:07:40</time>
      </trkpt>
      <trkpt lat="37.08169" lon="-3.37868">
        <ele>2700.4</ele>
        <time>2021-08-05 12:07:41</time>
      </trkpt>
      <trkpt lat="37.08167" lon="-3.37867">
        <ele>2700.4</ele>
        <time>2021-08-05 12:07:42</time>
      </trkpt>
      <trkpt lat="37.08167" lon="-3.37867">
        <ele>2700.6</ele>
        <time>2021-08-05 12:07:43</time>
      </trkpt>
      <trkpt lat="37.08166" lon="-3.37866">
        <ele>2700.8</ele>
        <time>2021-08-05 12:07:44</time>
      </trkpt>
      <trkpt lat="37.08165" lon="-3.37866">
        <ele>2700.8</ele>
        <time>2021-08-05 12:07:45</time>
      </trkpt>
      <trkpt lat="37.08165" lon="-3.37865">
        <ele>2700.8</ele>
        <time>2021-08-05 12:07:46</time>
      </trkpt>
      <trkpt lat="37.08164" lon="-3.37865">
        <ele>2700.8</ele>
        <time>2021-08-05 12:07:47</time>
      </trkpt>
      <trkpt lat="37.08164" lon="-3.37864">
        <ele>2700.8</ele>
        <time>2021-08-05 12:07:48</time>
      </trkpt>
      <trkpt lat="37.08164" lon="-3.37864">
        <ele>2700.8</ele>
        <time>2021-08-05 12:07:49</time>
      </trkpt>
      <trkpt lat="37.08164" lon="-3.37863">
        <ele>2701</ele>
        <time>2021-08-05 12:07:50</time>
      </trkpt>
      <trkpt lat="37.08163" lon="-3.37863">
        <ele>2701.2</ele>
        <time>2021-08-05 12:07:51</time>
      </trkpt>
      <trkpt lat="37.08163" lon="-3.37862">
        <ele>2701.4</ele>
        <time>2021-08-05 12:07:52</time>
      </trkpt>
      <trkpt lat="37.08162" lon="-3.37862">
        <ele>2701.4</ele>
        <time>2021-08-05 12:07:53</time>
      </trkpt>
      <trkpt lat="37.08161" lon="-3.37862">
        <ele>2701.6</ele>
        <time>2021-08-05 12:07:54</time>
      </trkpt>
      <trkpt lat="37.08161" lon="-3.37862">
        <ele>2701.6</ele>
        <time>2021-08-05 12:07:55</time>
      </trkpt>
      <trkpt lat="37.08161" lon="-3.37862">
        <ele>2701.6</ele>
        <time>2021-08-05 12:07:56</time>
      </trkpt>
      <trkpt lat="37.0816" lon="-3.37862">
        <ele>2701.6</ele>
        <time>2021-08-05 12:07:57</time>
      </trkpt>
      <trkpt lat="37.08159" lon="-3.37862">
        <ele>2701.6</ele>
        <time>2021-08-05 12:07:58</time>
      </trkpt>
      <trkpt lat="37.08159" lon="-3.37862">
        <ele>2701.6</ele>
        <time>2021-08-05 12:07:59</time>
      </trkpt>
      <trkpt lat="37.08158" lon="-3.37862">
        <ele>2701.6</ele>
        <time>2021-08-05 12:08:00</time>
      </trkpt>
      <trkpt lat="37.08158" lon="-3.37861">
        <ele>2701.6</ele>
        <time>2021-08-05 12:08:01</time>
      </trkpt>
      <trkpt lat="37.08157" lon="-3.37862">
        <ele>2701.6</ele>
        <time>2021-08-05 12:08:02</time>
      </trkpt>
      <trkpt lat="37.08156" lon="-3.37861">
        <ele>2701.6</ele>
        <time>2021-08-05 12:08:03</time>
      </trkpt>
      <trkpt lat="37.08155" lon="-3.3786">
        <ele>2701.6</ele>
        <time>2021-08-05 12:08:04</time>
      </trkpt>
      <trkpt lat="37.08154" lon="-3.37859">
        <ele>2701.6</ele>
        <time>2021-08-05 12:08:05</time>
      </trkpt>
      <trkpt lat="37.08154" lon="-3.37858">
        <ele>2701.6</ele>
        <time>2021-08-05 12:08:06</time>
      </trkpt>
      <trkpt lat="37.08153" lon="-3.37857">
        <ele>2701.6</ele>
        <time>2021-08-05 12:08:07</time>
      </trkpt>
      <trkpt lat="37.08153" lon="-3.37856">
        <ele>2701.6</ele>
        <time>2021-08-05 12:08:08</time>
      </trkpt>
      <trkpt lat="37.08152" lon="-3.37855">
        <ele>2701.6</ele>
        <time>2021-08-05 12:08:09</time>
      </trkpt>
      <trkpt lat="37.08152" lon="-3.37855">
        <ele>2701.6</ele>
        <time>2021-08-05 12:08:10</time>
      </trkpt>
      <trkpt lat="37.08151" lon="-3.37855">
        <ele>2701.6</ele>
        <time>2021-08-05 12:08:11</time>
      </trkpt>
      <trkpt lat="37.0815" lon="-3.37855">
        <ele>2701.6</ele>
        <time>2021-08-05 12:08:12</time>
      </trkpt>
      <trkpt lat="37.08149" lon="-3.37855">
        <ele>2701.8</ele>
        <time>2021-08-05 12:08:13</time>
      </trkpt>
      <trkpt lat="37.0815" lon="-3.37856">
        <ele>2701.8</ele>
        <time>2021-08-05 12:08:14</time>
      </trkpt>
      <trkpt lat="37.0815" lon="-3.37856">
        <ele>2701.8</ele>
        <time>2021-08-05 12:08:15</time>
      </trkpt>
      <trkpt lat="37.08151" lon="-3.37859">
        <ele>2701.8</ele>
        <time>2021-08-05 12:08:16</time>
      </trkpt>
      <trkpt lat="37.08148" lon="-3.37853">
        <ele>2702</ele>
        <time>2021-08-05 12:08:17</time>
      </trkpt>
      <trkpt lat="37.08147" lon="-3.37853">
        <ele>2702</ele>
        <time>2021-08-05 12:08:18</time>
      </trkpt>
      <trkpt lat="37.08147" lon="-3.37853">
        <ele>2702.2</ele>
        <time>2021-08-05 12:08:19</time>
      </trkpt>
      <trkpt lat="37.08147" lon="-3.37853">
        <ele>2702.2</ele>
        <time>2021-08-05 12:08:20</time>
      </trkpt>
      <trkpt lat="37.08147" lon="-3.37852">
        <ele>2702.6</ele>
        <time>2021-08-05 12:08:21</time>
      </trkpt>
      <trkpt lat="37.08146" lon="-3.37851">
        <ele>2702.8</ele>
        <time>2021-08-05 12:08:22</time>
      </trkpt>
      <trkpt lat="37.08146" lon="-3.37851">
        <ele>2702.8</ele>
        <time>2021-08-05 12:08:23</time>
      </trkpt>
      <trkpt lat="37.08146" lon="-3.37852">
        <ele>2703</ele>
        <time>2021-08-05 12:08:24</time>
      </trkpt>
      <trkpt lat="37.08146" lon="-3.37853">
        <ele>2703</ele>
        <time>2021-08-05 12:08:25</time>
      </trkpt>
      <trkpt lat="37.08147" lon="-3.37857">
        <ele>2703</ele>
        <time>2021-08-05 12:08:26</time>
      </trkpt>
      <trkpt lat="37.08146" lon="-3.37857">
        <ele>2703.2</ele>
        <time>2021-08-05 12:08:27</time>
      </trkpt>
      <trkpt lat="37.08146" lon="-3.37858">
        <ele>2703.4</ele>
        <time>2021-08-05 12:08:28</time>
      </trkpt>
      <trkpt lat="37.08146" lon="-3.37858">
        <ele>2703.6</ele>
        <time>2021-08-05 12:08:29</time>
      </trkpt>
      <trkpt lat="37.08146" lon="-3.37858">
        <ele>2703.6</ele>
        <time>2021-08-05 12:08:30</time>
      </trkpt>
      <trkpt lat="37.08145" lon="-3.37857">
        <ele>2703.6</ele>
        <time>2021-08-05 12:08:31</time>
      </trkpt>
      <trkpt lat="37.08145" lon="-3.37857">
        <ele>2703.8</ele>
        <time>2021-08-05 12:08:32</time>
      </trkpt>
      <trkpt lat="37.08144" lon="-3.37857">
        <ele>2704</ele>
        <time>2021-08-05 12:08:33</time>
      </trkpt>
      <trkpt lat="37.08144" lon="-3.37857">
        <ele>2704</ele>
        <time>2021-08-05 12:08:34</time>
      </trkpt>
      <trkpt lat="37.08144" lon="-3.37857">
        <ele>2704.2</ele>
        <time>2021-08-05 12:08:35</time>
      </trkpt>
      <trkpt lat="37.08143" lon="-3.37857">
        <ele>2704.2</ele>
        <time>2021-08-05 12:08:36</time>
      </trkpt>
      <trkpt lat="37.0814" lon="-3.37853">
        <ele>2704.2</ele>
        <time>2021-08-05 12:08:37</time>
      </trkpt>
      <trkpt lat="37.08138" lon="-3.37851">
        <ele>2704.2</ele>
        <time>2021-08-05 12:08:38</time>
      </trkpt>
      <trkpt lat="37.08137" lon="-3.3785">
        <ele>2704.2</ele>
        <time>2021-08-05 12:08:39</time>
      </trkpt>
      <trkpt lat="37.08137" lon="-3.3785">
        <ele>2704</ele>
        <time>2021-08-05 12:08:40</time>
      </trkpt>
      <trkpt lat="37.08135" lon="-3.37849">
        <ele>2704</ele>
        <time>2021-08-05 12:08:41</time>
      </trkpt>
      <trkpt lat="37.08135" lon="-3.37849">
        <ele>2704</ele>
        <time>2021-08-05 12:08:42</time>
      </trkpt>
      <trkpt lat="37.08134" lon="-3.37848">
        <ele>2704</ele>
        <time>2021-08-05 12:08:43</time>
      </trkpt>
      <trkpt lat="37.08134" lon="-3.37848">
        <ele>2704</ele>
        <time>2021-08-05 12:08:44</time>
      </trkpt>
      <trkpt lat="37.08134" lon="-3.37847">
        <ele>2704</ele>
        <time>2021-08-05 12:08:45</time>
      </trkpt>
      <trkpt lat="37.08134" lon="-3.37847">
        <ele>2703.8</ele>
        <time>2021-08-05 12:08:46</time>
      </trkpt>
      <trkpt lat="37.08133" lon="-3.37846">
        <ele>2703.8</ele>
        <time>2021-08-05 12:08:47</time>
      </trkpt>
      <trkpt lat="37.08133" lon="-3.37845">
        <ele>2703.6</ele>
        <time>2021-08-05 12:08:48</time>
      </trkpt>
      <trkpt lat="37.08132" lon="-3.37844">
        <ele>2703.6</ele>
        <time>2021-08-05 12:08:49</time>
      </trkpt>
      <trkpt lat="37.08131" lon="-3.37844">
        <ele>2703.6</ele>
        <time>2021-08-05 12:08:50</time>
      </trkpt>
      <trkpt lat="37.08131" lon="-3.37845">
        <ele>2703.6</ele>
        <time>2021-08-05 12:08:51</time>
      </trkpt>
      <trkpt lat="37.0813" lon="-3.37845">
        <ele>2703.6</ele>
        <time>2021-08-05 12:08:52</time>
      </trkpt>
      <trkpt lat="37.0813" lon="-3.37847">
        <ele>2703.8</ele>
        <time>2021-08-05 12:08:53</time>
      </trkpt>
      <trkpt lat="37.0813" lon="-3.37848">
        <ele>2704.2</ele>
        <time>2021-08-05 12:08:54</time>
      </trkpt>
      <trkpt lat="37.0813" lon="-3.37848">
        <ele>2704.4</ele>
        <time>2021-08-05 12:08:55</time>
      </trkpt>
      <trkpt lat="37.0813" lon="-3.37849">
        <ele>2704.6</ele>
        <time>2021-08-05 12:08:56</time>
      </trkpt>
      <trkpt lat="37.0813" lon="-3.37849">
        <ele>2704.6</ele>
        <time>2021-08-05 12:08:57</time>
      </trkpt>
      <trkpt lat="37.08129" lon="-3.37849">
        <ele>2704.6</ele>
        <time>2021-08-05 12:08:58</time>
      </trkpt>
      <trkpt lat="37.08129" lon="-3.37849">
        <ele>2704.6</ele>
        <time>2021-08-05 12:08:59</time>
      </trkpt>
      <trkpt lat="37.08129" lon="-3.37849">
        <ele>2704.8</ele>
        <time>2021-08-05 12:09:00</time>
      </trkpt>
      <trkpt lat="37.08128" lon="-3.37848">
        <ele>2704.8</ele>
        <time>2021-08-05 12:09:01</time>
      </trkpt>
      <trkpt lat="37.08128" lon="-3.37848">
        <ele>2704.8</ele>
        <time>2021-08-05 12:09:02</time>
      </trkpt>
      <trkpt lat="37.08128" lon="-3.37847">
        <ele>2704.8</ele>
        <time>2021-08-05 12:09:03</time>
      </trkpt>
      <trkpt lat="37.08127" lon="-3.37846">
        <ele>2704.8</ele>
        <time>2021-08-05 12:09:04</time>
      </trkpt>
      <trkpt lat="37.08127" lon="-3.37846">
        <ele>2705</ele>
        <time>2021-08-05 12:09:05</time>
      </trkpt>
      <trkpt lat="37.08126" lon="-3.37845">
        <ele>2705</ele>
        <time>2021-08-05 12:09:06</time>
      </trkpt>
      <trkpt lat="37.08126" lon="-3.37845">
        <ele>2705.2</ele>
        <time>2021-08-05 12:09:07</time>
      </trkpt>
      <trkpt lat="37.08125" lon="-3.37844">
        <ele>2705.2</ele>
        <time>2021-08-05 12:09:08</time>
      </trkpt>
      <trkpt lat="37.08125" lon="-3.37844">
        <ele>2705.2</ele>
        <time>2021-08-05 12:09:09</time>
      </trkpt>
      <trkpt lat="37.08124" lon="-3.37843">
        <ele>2705.2</ele>
        <time>2021-08-05 12:09:10</time>
      </trkpt>
      <trkpt lat="37.08123" lon="-3.37843">
        <ele>2705.4</ele>
        <time>2021-08-05 12:09:11</time>
      </trkpt>
      <trkpt lat="37.08122" lon="-3.37842">
        <ele>2705.4</ele>
        <time>2021-08-05 12:09:12</time>
      </trkpt>
      <trkpt lat="37.08121" lon="-3.37842">
        <ele>2705.6</ele>
        <time>2021-08-05 12:09:13</time>
      </trkpt>
      <trkpt lat="37.0812" lon="-3.37842">
        <ele>2705.8</ele>
        <time>2021-08-05 12:09:14</time>
      </trkpt>
      <trkpt lat="37.0812" lon="-3.37842">
        <ele>2706</ele>
        <time>2021-08-05 12:09:15</time>
      </trkpt>
      <trkpt lat="37.0812" lon="-3.37841">
        <ele>2706</ele>
        <time>2021-08-05 12:09:16</time>
      </trkpt>
      <trkpt lat="37.0812" lon="-3.37841">
        <ele>2706.2</ele>
        <time>2021-08-05 12:09:17</time>
      </trkpt>
      <trkpt lat="37.0812" lon="-3.3784">
        <ele>2706.2</ele>
        <time>2021-08-05 12:09:18</time>
      </trkpt>
      <trkpt lat="37.08119" lon="-3.37839">
        <ele>2706.2</ele>
        <time>2021-08-05 12:09:19</time>
      </trkpt>
      <trkpt lat="37.08119" lon="-3.37838">
        <ele>2706.4</ele>
        <time>2021-08-05 12:09:20</time>
      </trkpt>
      <trkpt lat="37.08118" lon="-3.37838">
        <ele>2706.4</ele>
        <time>2021-08-05 12:09:21</time>
      </trkpt>
      <trkpt lat="37.08118" lon="-3.37837">
        <ele>2706.4</ele>
        <time>2021-08-05 12:09:22</time>
      </trkpt>
      <trkpt lat="37.08117" lon="-3.37836">
        <ele>2706.6</ele>
        <time>2021-08-05 12:09:23</time>
      </trkpt>
      <trkpt lat="37.08116" lon="-3.37836">
        <ele>2706.6</ele>
        <time>2021-08-05 12:09:24</time>
      </trkpt>
      <trkpt lat="37.08116" lon="-3.37836">
        <ele>2706.6</ele>
        <time>2021-08-05 12:09:25</time>
      </trkpt>
      <trkpt lat="37.08116" lon="-3.37835">
        <ele>2706.8</ele>
        <time>2021-08-05 12:09:26</time>
      </trkpt>
      <trkpt lat="37.08116" lon="-3.37835">
        <ele>2707</ele>
        <time>2021-08-05 12:09:27</time>
      </trkpt>
      <trkpt lat="37.08116" lon="-3.37834">
        <ele>2707.2</ele>
        <time>2021-08-05 12:09:28</time>
      </trkpt>
      <trkpt lat="37.08116" lon="-3.37833">
        <ele>2707.4</ele>
        <time>2021-08-05 12:09:29</time>
      </trkpt>
      <trkpt lat="37.08116" lon="-3.37833">
        <ele>2707.4</ele>
        <time>2021-08-05 12:09:30</time>
      </trkpt>
      <trkpt lat="37.08115" lon="-3.37833">
        <ele>2707.4</ele>
        <time>2021-08-05 12:09:31</time>
      </trkpt>
      <trkpt lat="37.08115" lon="-3.37833">
        <ele>2707.6</ele>
        <time>2021-08-05 12:09:32</time>
      </trkpt>
      <trkpt lat="37.08114" lon="-3.37832">
        <ele>2707.4</ele>
        <time>2021-08-05 12:09:33</time>
      </trkpt>
      <trkpt lat="37.08114" lon="-3.37832">
        <ele>2707.6</ele>
        <time>2021-08-05 12:09:34</time>
      </trkpt>
      <trkpt lat="37.08113" lon="-3.37831">
        <ele>2707.6</ele>
        <time>2021-08-05 12:09:35</time>
      </trkpt>
      <trkpt lat="37.08113" lon="-3.37831">
        <ele>2707.8</ele>
        <time>2021-08-05 12:09:36</time>
      </trkpt>
      <trkpt lat="37.08112" lon="-3.3783">
        <ele>2707.8</ele>
        <time>2021-08-05 12:09:37</time>
      </trkpt>
      <trkpt lat="37.08112" lon="-3.3783">
        <ele>2707.8</ele>
        <time>2021-08-05 12:09:38</time>
      </trkpt>
      <trkpt lat="37.08112" lon="-3.37829">
        <ele>2708</ele>
        <time>2021-08-05 12:09:39</time>
      </trkpt>
      <trkpt lat="37.08112" lon="-3.37829">
        <ele>2708</ele>
        <time>2021-08-05 12:09:40</time>
      </trkpt>
      <trkpt lat="37.08111" lon="-3.37828">
        <ele>2708.2</ele>
        <time>2021-08-05 12:09:41</time>
      </trkpt>
      <trkpt lat="37.08111" lon="-3.37828">
        <ele>2708.2</ele>
        <time>2021-08-05 12:09:42</time>
      </trkpt>
      <trkpt lat="37.08111" lon="-3.37827">
        <ele>2708.2</ele>
        <time>2021-08-05 12:09:43</time>
      </trkpt>
      <trkpt lat="37.08111" lon="-3.37827">
        <ele>2708.2</ele>
        <time>2021-08-05 12:09:44</time>
      </trkpt>
      <trkpt lat="37.08111" lon="-3.37826">
        <ele>2708.2</ele>
        <time>2021-08-05 12:09:45</time>
      </trkpt>
      <trkpt lat="37.0811" lon="-3.37825">
        <ele>2708.2</ele>
        <time>2021-08-05 12:09:46</time>
      </trkpt>
      <trkpt lat="37.0811" lon="-3.37825">
        <ele>2708.2</ele>
        <time>2021-08-05 12:09:47</time>
      </trkpt>
      <trkpt lat="37.0811" lon="-3.37824">
        <ele>2708.2</ele>
        <time>2021-08-05 12:09:48</time>
      </trkpt>
      <trkpt lat="37.0811" lon="-3.37825">
        <ele>2708.4</ele>
        <time>2021-08-05 12:09:49</time>
      </trkpt>
      <trkpt lat="37.0811" lon="-3.37825">
        <ele>2708.6</ele>
        <time>2021-08-05 12:09:50</time>
      </trkpt>
      <trkpt lat="37.08109" lon="-3.37824">
        <ele>2708.8</ele>
        <time>2021-08-05 12:09:51</time>
      </trkpt>
      <trkpt lat="37.08109" lon="-3.37824">
        <ele>2708.8</ele>
        <time>2021-08-05 12:09:52</time>
      </trkpt>
      <trkpt lat="37.08109" lon="-3.37824">
        <ele>2709</ele>
        <time>2021-08-05 12:09:53</time>
      </trkpt>
      <trkpt lat="37.08108" lon="-3.37823">
        <ele>2709</ele>
        <time>2021-08-05 12:09:54</time>
      </trkpt>
      <trkpt lat="37.08108" lon="-3.37822">
        <ele>2709.2</ele>
        <time>2021-08-05 12:09:55</time>
      </trkpt>
      <trkpt lat="37.08107" lon="-3.37822">
        <ele>2709.2</ele>
        <time>2021-08-05 12:09:56</time>
      </trkpt>
      <trkpt lat="37.08106" lon="-3.37821">
        <ele>2709.2</ele>
        <time>2021-08-05 12:09:57</time>
      </trkpt>
      <trkpt lat="37.08106" lon="-3.3782">
        <ele>2709.2</ele>
        <time>2021-08-05 12:09:58</time>
      </trkpt>
      <trkpt lat="37.08105" lon="-3.3782">
        <ele>2709.4</ele>
        <time>2021-08-05 12:09:59</time>
      </trkpt>
      <trkpt lat="37.08105" lon="-3.37819">
        <ele>2709.4</ele>
        <time>2021-08-05 12:10:00</time>
      </trkpt>
      <trkpt lat="37.08104" lon="-3.37818">
        <ele>2709.6</ele>
        <time>2021-08-05 12:10:01</time>
      </trkpt>
      <trkpt lat="37.08104" lon="-3.37818">
        <ele>2709.6</ele>
        <time>2021-08-05 12:10:02</time>
      </trkpt>
      <trkpt lat="37.08103" lon="-3.37817">
        <ele>2709.8</ele>
        <time>2021-08-05 12:10:03</time>
      </trkpt>
      <trkpt lat="37.08103" lon="-3.37817">
        <ele>2710</ele>
        <time>2021-08-05 12:10:04</time>
      </trkpt>
      <trkpt lat="37.08102" lon="-3.37817">
        <ele>2710</ele>
        <time>2021-08-05 12:10:05</time>
      </trkpt>
      <trkpt lat="37.08102" lon="-3.37817">
        <ele>2710</ele>
        <time>2021-08-05 12:10:06</time>
      </trkpt>
      <trkpt lat="37.08102" lon="-3.37817">
        <ele>2710.2</ele>
        <time>2021-08-05 12:10:07</time>
      </trkpt>
      <trkpt lat="37.08102" lon="-3.37817">
        <ele>2710.2</ele>
        <time>2021-08-05 12:10:08</time>
      </trkpt>
      <trkpt lat="37.08102" lon="-3.37817">
        <ele>2710.2</ele>
        <time>2021-08-05 12:10:09</time>
      </trkpt>
      <trkpt lat="37.08102" lon="-3.37816">
        <ele>2710.4</ele>
        <time>2021-08-05 12:10:10</time>
      </trkpt>
      <trkpt lat="37.08101" lon="-3.37815">
        <ele>2710.4</ele>
        <time>2021-08-05 12:10:11</time>
      </trkpt>
      <trkpt lat="37.08101" lon="-3.37815">
        <ele>2710.4</ele>
        <time>2021-08-05 12:10:12</time>
      </trkpt>
      <trkpt lat="37.081" lon="-3.37815">
        <ele>2710.6</ele>
        <time>2021-08-05 12:10:13</time>
      </trkpt>
      <trkpt lat="37.08099" lon="-3.37814">
        <ele>2710.8</ele>
        <time>2021-08-05 12:10:14</time>
      </trkpt>
      <trkpt lat="37.08098" lon="-3.37813">
        <ele>2711</ele>
        <time>2021-08-05 12:10:15</time>
      </trkpt>
      <trkpt lat="37.08098" lon="-3.37812">
        <ele>2711.2</ele>
        <time>2021-08-05 12:10:16</time>
      </trkpt>
      <trkpt lat="37.08097" lon="-3.37811">
        <ele>2711.4</ele>
        <time>2021-08-05 12:10:17</time>
      </trkpt>
      <trkpt lat="37.08096" lon="-3.3781">
        <ele>2711.4</ele>
        <time>2021-08-05 12:10:18</time>
      </trkpt>
      <trkpt lat="37.08095" lon="-3.3781">
        <ele>2711.6</ele>
        <time>2021-08-05 12:10:19</time>
      </trkpt>
      <trkpt lat="37.08095" lon="-3.37809">
        <ele>2711.6</ele>
        <time>2021-08-05 12:10:20</time>
      </trkpt>
      <trkpt lat="37.08094" lon="-3.37809">
        <ele>2711.6</ele>
        <time>2021-08-05 12:10:21</time>
      </trkpt>
      <trkpt lat="37.08094" lon="-3.37808">
        <ele>2711.6</ele>
        <time>2021-08-05 12:10:22</time>
      </trkpt>
      <trkpt lat="37.08093" lon="-3.37808">
        <ele>2711.6</ele>
        <time>2021-08-05 12:10:23</time>
      </trkpt>
      <trkpt lat="37.08093" lon="-3.37808">
        <ele>2711.6</ele>
        <time>2021-08-05 12:10:24</time>
      </trkpt>
      <trkpt lat="37.08092" lon="-3.37808">
        <ele>2711.8</ele>
        <time>2021-08-05 12:10:25</time>
      </trkpt>
      <trkpt lat="37.08092" lon="-3.37808">
        <ele>2712</ele>
        <time>2021-08-05 12:10:26</time>
      </trkpt>
      <trkpt lat="37.08091" lon="-3.37808">
        <ele>2712</ele>
        <time>2021-08-05 12:10:27</time>
      </trkpt>
      <trkpt lat="37.08091" lon="-3.37808">
        <ele>2712</ele>
        <time>2021-08-05 12:10:28</time>
      </trkpt>
      <trkpt lat="37.0809" lon="-3.37808">
        <ele>2712.2</ele>
        <time>2021-08-05 12:10:29</time>
      </trkpt>
      <trkpt lat="37.0809" lon="-3.37808">
        <ele>2712.2</ele>
        <time>2021-08-05 12:10:30</time>
      </trkpt>
      <trkpt lat="37.0809" lon="-3.37808">
        <ele>2712.2</ele>
        <time>2021-08-05 12:10:31</time>
      </trkpt>
      <trkpt lat="37.08089" lon="-3.37808">
        <ele>2712.2</ele>
        <time>2021-08-05 12:10:32</time>
      </trkpt>
      <trkpt lat="37.08088" lon="-3.37808">
        <ele>2712.2</ele>
        <time>2021-08-05 12:10:33</time>
      </trkpt>
      <trkpt lat="37.08088" lon="-3.37808">
        <ele>2712.2</ele>
        <time>2021-08-05 12:10:34</time>
      </trkpt>
      <trkpt lat="37.08088" lon="-3.37808">
        <ele>2712.4</ele>
        <time>2021-08-05 12:10:35</time>
      </trkpt>
      <trkpt lat="37.08087" lon="-3.37807">
        <ele>2712.6</ele>
        <time>2021-08-05 12:10:36</time>
      </trkpt>
      <trkpt lat="37.08087" lon="-3.37808">
        <ele>2712.8</ele>
        <time>2021-08-05 12:10:37</time>
      </trkpt>
      <trkpt lat="37.08087" lon="-3.37808">
        <ele>2712.8</ele>
        <time>2021-08-05 12:10:38</time>
      </trkpt>
      <trkpt lat="37.08089" lon="-3.37809">
        <ele>2712.8</ele>
        <time>2021-08-05 12:10:39</time>
      </trkpt>
      <trkpt lat="37.08089" lon="-3.37809">
        <ele>2713</ele>
        <time>2021-08-05 12:10:40</time>
      </trkpt>
      <trkpt lat="37.08089" lon="-3.3781">
        <ele>2713</ele>
        <time>2021-08-05 12:10:41</time>
      </trkpt>
      <trkpt lat="37.08088" lon="-3.3781">
        <ele>2713</ele>
        <time>2021-08-05 12:10:42</time>
      </trkpt>
      <trkpt lat="37.08088" lon="-3.3781">
        <ele>2713</ele>
        <time>2021-08-05 12:10:43</time>
      </trkpt>
      <trkpt lat="37.08088" lon="-3.37809">
        <ele>2712.8</ele>
        <time>2021-08-05 12:10:44</time>
      </trkpt>
      <trkpt lat="37.08088" lon="-3.37809">
        <ele>2713</ele>
        <time>2021-08-05 12:10:45</time>
      </trkpt>
      <trkpt lat="37.08089" lon="-3.37809">
        <ele>2712.8</ele>
        <time>2021-08-05 12:10:46</time>
      </trkpt>
      <trkpt lat="37.0809" lon="-3.37809">
        <ele>2712.8</ele>
        <time>2021-08-05 12:10:47</time>
      </trkpt>
      <trkpt lat="37.0809" lon="-3.37809">
        <ele>2712.8</ele>
        <time>2021-08-05 12:10:48</time>
      </trkpt>
      <trkpt lat="37.0809" lon="-3.37809">
        <ele>2712.8</ele>
        <time>2021-08-05 12:10:49</time>
      </trkpt>
      <trkpt lat="37.0809" lon="-3.37809">
        <ele>2713</ele>
        <time>2021-08-05 12:10:50</time>
      </trkpt>
      <trkpt lat="37.0809" lon="-3.37809">
        <ele>2712.8</ele>
        <time>2021-08-05 12:10:51</time>
      </trkpt>
      <trkpt lat="37.0809" lon="-3.37808">
        <ele>2712.8</ele>
        <time>2021-08-05 12:10:52</time>
      </trkpt>
      <trkpt lat="37.0809" lon="-3.37808">
        <ele>2712.8</ele>
        <time>2021-08-05 12:10:53</time>
      </trkpt>
      <trkpt lat="37.0809" lon="-3.37808">
        <ele>2712.6</ele>
        <time>2021-08-05 12:10:54</time>
      </trkpt>
      <trkpt lat="37.0809" lon="-3.37808">
        <ele>2712.8</ele>
        <time>2021-08-05 12:10:55</time>
      </trkpt>
      <trkpt lat="37.08089" lon="-3.37808">
        <ele>2712.8</ele>
        <time>2021-08-05 12:10:56</time>
      </trkpt>
      <trkpt lat="37.08089" lon="-3.37809">
        <ele>2712.8</ele>
        <time>2021-08-05 12:10:57</time>
      </trkpt>
      <trkpt lat="37.08088" lon="-3.37808">
        <ele>2712.8</ele>
        <time>2021-08-05 12:10:58</time>
      </trkpt>
      <trkpt lat="37.08088" lon="-3.37808">
        <ele>2712.6</ele>
        <time>2021-08-05 12:10:59</time>
      </trkpt>
      <trkpt lat="37.08088" lon="-3.37808">
        <ele>2712.6</ele>
        <time>2021-08-05 12:11:00</time>
      </trkpt>
      <trkpt lat="37.08087" lon="-3.37808">
        <ele>2712.6</ele>
        <time>2021-08-05 12:11:01</time>
      </trkpt>
      <trkpt lat="37.08087" lon="-3.37808">
        <ele>2712.4</ele>
        <time>2021-08-05 12:11:02</time>
      </trkpt>
      <trkpt lat="37.08087" lon="-3.37806">
        <ele>2712.2</ele>
        <time>2021-08-05 12:11:03</time>
      </trkpt>
      <trkpt lat="37.08086" lon="-3.37805">
        <ele>2712.2</ele>
        <time>2021-08-05 12:11:04</time>
      </trkpt>
      <trkpt lat="37.08086" lon="-3.37805">
        <ele>2712.2</ele>
        <time>2021-08-05 12:11:05</time>
      </trkpt>
      <trkpt lat="37.08085" lon="-3.37805">
        <ele>2712.2</ele>
        <time>2021-08-05 12:11:06</time>
      </trkpt>
      <trkpt lat="37.08085" lon="-3.37804">
        <ele>2712</ele>
        <time>2021-08-05 12:11:07</time>
      </trkpt>
      <trkpt lat="37.08085" lon="-3.37804">
        <ele>2712.2</ele>
        <time>2021-08-05 12:11:08</time>
      </trkpt>
      <trkpt lat="37.08084" lon="-3.37803">
        <ele>2712.2</ele>
        <time>2021-08-05 12:11:09</time>
      </trkpt>
      <trkpt lat="37.08085" lon="-3.37803">
        <ele>2712.2</ele>
        <time>2021-08-05 12:11:10</time>
      </trkpt>
      <trkpt lat="37.08086" lon="-3.37804">
        <ele>2712.2</ele>
        <time>2021-08-05 12:11:11</time>
      </trkpt>
      <trkpt lat="37.08086" lon="-3.37803">
        <ele>2712.4</ele>
        <time>2021-08-05 12:11:12</time>
      </trkpt>
      <trkpt lat="37.08087" lon="-3.37803">
        <ele>2712.4</ele>
        <time>2021-08-05 12:11:13</time>
      </trkpt>
      <trkpt lat="37.08087" lon="-3.37802">
        <ele>2712.6</ele>
        <time>2021-08-05 12:11:14</time>
      </trkpt>
      <trkpt lat="37.08087" lon="-3.37802">
        <ele>2712.8</ele>
        <time>2021-08-05 12:11:15</time>
      </trkpt>
      <trkpt lat="37.08087" lon="-3.37802">
        <ele>2713</ele>
        <time>2021-08-05 12:11:16</time>
      </trkpt>
      <trkpt lat="37.08086" lon="-3.37801">
        <ele>2713.2</ele>
        <time>2021-08-05 12:11:17</time>
      </trkpt>
      <trkpt lat="37.08085" lon="-3.37802">
        <ele>2713.4</ele>
        <time>2021-08-05 12:11:18</time>
      </trkpt>
      <trkpt lat="37.08085" lon="-3.37802">
        <ele>2713.4</ele>
        <time>2021-08-05 12:11:19</time>
      </trkpt>
      <trkpt lat="37.08085" lon="-3.37802">
        <ele>2713.6</ele>
        <time>2021-08-05 12:11:20</time>
      </trkpt>
      <trkpt lat="37.08085" lon="-3.37802">
        <ele>2713.6</ele>
        <time>2021-08-05 12:11:21</time>
      </trkpt>
      <trkpt lat="37.08084" lon="-3.37802">
        <ele>2713.6</ele>
        <time>2021-08-05 12:11:22</time>
      </trkpt>
      <trkpt lat="37.08084" lon="-3.37802">
        <ele>2713.6</ele>
        <time>2021-08-05 12:11:23</time>
      </trkpt>
      <trkpt lat="37.08085" lon="-3.37804">
        <ele>2713.6</ele>
        <time>2021-08-05 12:11:24</time>
      </trkpt>
      <trkpt lat="37.08085" lon="-3.37804">
        <ele>2713.4</ele>
        <time>2021-08-05 12:11:25</time>
      </trkpt>
      <trkpt lat="37.08085" lon="-3.37805">
        <ele>2713.4</ele>
        <time>2021-08-05 12:11:26</time>
      </trkpt>
      <trkpt lat="37.08086" lon="-3.37805">
        <ele>2713.4</ele>
        <time>2021-08-05 12:11:27</time>
      </trkpt>
      <trkpt lat="37.08086" lon="-3.37805">
        <ele>2713.4</ele>
        <time>2021-08-05 12:11:28</time>
      </trkpt>
      <trkpt lat="37.08086" lon="-3.37805">
        <ele>2713.4</ele>
        <time>2021-08-05 12:11:29</time>
      </trkpt>
      <trkpt lat="37.08086" lon="-3.37806">
        <ele>2713.4</ele>
        <time>2021-08-05 12:11:30</time>
      </trkpt>
      <trkpt lat="37.08087" lon="-3.37806">
        <ele>2713.4</ele>
        <time>2021-08-05 12:11:31</time>
      </trkpt>
      <trkpt lat="37.08087" lon="-3.37805">
        <ele>2713.4</ele>
        <time>2021-08-05 12:11:32</time>
      </trkpt>
      <trkpt lat="37.08087" lon="-3.37805">
        <ele>2713.6</ele>
        <time>2021-08-05 12:11:33</time>
      </trkpt>
      <trkpt lat="37.08087" lon="-3.37805">
        <ele>2713.6</ele>
        <time>2021-08-05 12:11:34</time>
      </trkpt>
      <trkpt lat="37.08087" lon="-3.37805">
        <ele>2713.4</ele>
        <time>2021-08-05 12:11:35</time>
      </trkpt>
      <trkpt lat="37.08087" lon="-3.37805">
        <ele>2713.4</ele>
        <time>2021-08-05 12:11:36</time>
      </trkpt>
      <trkpt lat="37.08088" lon="-3.37805">
        <ele>2713.4</ele>
        <time>2021-08-05 12:11:37</time>
      </trkpt>
      <trkpt lat="37.08087" lon="-3.37805">
        <ele>2713.4</ele>
        <time>2021-08-05 12:11:38</time>
      </trkpt>
      <trkpt lat="37.08087" lon="-3.37805">
        <ele>2713.4</ele>
        <time>2021-08-05 12:11:39</time>
      </trkpt>
      <trkpt lat="37.08087" lon="-3.37805">
        <ele>2713.4</ele>
        <time>2021-08-05 12:11:40</time>
      </trkpt>
      <trkpt lat="37.08087" lon="-3.37805">
        <ele>2713.4</ele>
        <time>2021-08-05 12:11:41</time>
      </trkpt>
      <trkpt lat="37.08087" lon="-3.37804">
        <ele>2713.4</ele>
        <time>2021-08-05 12:11:42</time>
      </trkpt>
      <trkpt lat="37.08087" lon="-3.37803">
        <ele>2713.4</ele>
        <time>2021-08-05 12:11:43</time>
      </trkpt>
      <trkpt lat="37.08087" lon="-3.37803">
        <ele>2713.4</ele>
        <time>2021-08-05 12:11:44</time>
      </trkpt>
      <trkpt lat="37.08086" lon="-3.37802">
        <ele>2713.6</ele>
        <time>2021-08-05 12:11:45</time>
      </trkpt>
      <trkpt lat="37.08086" lon="-3.37802">
        <ele>2713.6</ele>
        <time>2021-08-05 12:11:46</time>
      </trkpt>
      <trkpt lat="37.08086" lon="-3.37802">
        <ele>2713.8</ele>
        <time>2021-08-05 12:11:47</time>
      </trkpt>
      <trkpt lat="37.08085" lon="-3.37803">
        <ele>2713.8</ele>
        <time>2021-08-05 12:11:48</time>
      </trkpt>
      <trkpt lat="37.08085" lon="-3.37802">
        <ele>2713.6</ele>
        <time>2021-08-05 12:11:49</time>
      </trkpt>
      <trkpt lat="37.08086" lon="-3.37803">
        <ele>2713.6</ele>
        <time>2021-08-05 12:11:50</time>
      </trkpt>
      <trkpt lat="37.08086" lon="-3.37803">
        <ele>2713.6</ele>
        <time>2021-08-05 12:11:51</time>
      </trkpt>
      <trkpt lat="37.08087" lon="-3.37804">
        <ele>2713.6</ele>
        <time>2021-08-05 12:11:52</time>
      </trkpt>
      <trkpt lat="37.08087" lon="-3.37805">
        <ele>2713.4</ele>
        <time>2021-08-05 12:11:53</time>
      </trkpt>
      <trkpt lat="37.08087" lon="-3.37805">
        <ele>2713.4</ele>
        <time>2021-08-05 12:11:54</time>
      </trkpt>
      <trkpt lat="37.08087" lon="-3.37805">
        <ele>2713.4</ele>
        <time>2021-08-05 12:11:55</time>
      </trkpt>
      <trkpt lat="37.08087" lon="-3.37805">
        <ele>2713.4</ele>
        <time>2021-08-05 12:11:56</time>
      </trkpt>
      <trkpt lat="37.08087" lon="-3.37805">
        <ele>2713.6</ele>
        <time>2021-08-05 12:11:57</time>
      </trkpt>
      <trkpt lat="37.08087" lon="-3.37805">
        <ele>2713.6</ele>
        <time>2021-08-05 12:11:58</time>
      </trkpt>
      <trkpt lat="37.08087" lon="-3.37805">
        <ele>2713.6</ele>
        <time>2021-08-05 12:11:59</time>
      </trkpt>
      <trkpt lat="37.08086" lon="-3.37806">
        <ele>2713.8</ele>
        <time>2021-08-05 12:12:00</time>
      </trkpt>
      <trkpt lat="37.08086" lon="-3.37806">
        <ele>2713.8</ele>
        <time>2021-08-05 12:12:01</time>
      </trkpt>
      <trkpt lat="37.08087" lon="-3.37806">
        <ele>2714</ele>
        <time>2021-08-05 12:12:02</time>
      </trkpt>
      <trkpt lat="37.08087" lon="-3.37808">
        <ele>2714</ele>
        <time>2021-08-05 12:12:03</time>
      </trkpt>
      <trkpt lat="37.08087" lon="-3.37808">
        <ele>2714</ele>
        <time>2021-08-05 12:12:04</time>
      </trkpt>
      <trkpt lat="37.08088" lon="-3.37808">
        <ele>2714</ele>
        <time>2021-08-05 12:12:05</time>
      </trkpt>
      <trkpt lat="37.08088" lon="-3.37808">
        <ele>2714.2</ele>
        <time>2021-08-05 12:12:06</time>
      </trkpt>
      <trkpt lat="37.08088" lon="-3.37808">
        <ele>2714.2</ele>
        <time>2021-08-05 12:12:07</time>
      </trkpt>
      <trkpt lat="37.08088" lon="-3.37807">
        <ele>2714.2</ele>
        <time>2021-08-05 12:12:08</time>
      </trkpt>
      <trkpt lat="37.08088" lon="-3.37807">
        <ele>2714.2</ele>
        <time>2021-08-05 12:12:09</time>
      </trkpt>
      <trkpt lat="37.08088" lon="-3.37807">
        <ele>2714</ele>
        <time>2021-08-05 12:12:10</time>
      </trkpt>
      <trkpt lat="37.08088" lon="-3.37806">
        <ele>2714</ele>
        <time>2021-08-05 12:12:11</time>
      </trkpt>
      <trkpt lat="37.08088" lon="-3.37806">
        <ele>2714</ele>
        <time>2021-08-05 12:12:12</time>
      </trkpt>
      <trkpt lat="37.08089" lon="-3.37806">
        <ele>2714</ele>
        <time>2021-08-05 12:12:13</time>
      </trkpt>
      <trkpt lat="37.08089" lon="-3.37806">
        <ele>2714</ele>
        <time>2021-08-05 12:12:14</time>
      </trkpt>
      <trkpt lat="37.08088" lon="-3.37806">
        <ele>2713.8</ele>
        <time>2021-08-05 12:12:15</time>
      </trkpt>
      <trkpt lat="37.08087" lon="-3.37805">
        <ele>2713.6</ele>
        <time>2021-08-05 12:12:16</time>
      </trkpt>
      <trkpt lat="37.08086" lon="-3.37805">
        <ele>2713.6</ele>
        <time>2021-08-05 12:12:17</time>
      </trkpt>
      <trkpt lat="37.08086" lon="-3.37805">
        <ele>2713.4</ele>
        <time>2021-08-05 12:12:18</time>
      </trkpt>
      <trkpt lat="37.08083" lon="-3.37804">
        <ele>2713.4</ele>
        <time>2021-08-05 12:12:19</time>
      </trkpt>
      <trkpt lat="37.08083" lon="-3.37803">
        <ele>2713.2</ele>
        <time>2021-08-05 12:12:20</time>
      </trkpt>
      <trkpt lat="37.08083" lon="-3.37802">
        <ele>2713.2</ele>
        <time>2021-08-05 12:12:21</time>
      </trkpt>
      <trkpt lat="37.08082" lon="-3.37801">
        <ele>2713.2</ele>
        <time>2021-08-05 12:12:22</time>
      </trkpt>
      <trkpt lat="37.08083" lon="-3.37801">
        <ele>2713</ele>
        <time>2021-08-05 12:12:23</time>
      </trkpt>
      <trkpt lat="37.08083" lon="-3.37801">
        <ele>2713</ele>
        <time>2021-08-05 12:12:24</time>
      </trkpt>
      <trkpt lat="37.08083" lon="-3.37801">
        <ele>2712.8</ele>
        <time>2021-08-05 12:12:25</time>
      </trkpt>
      <trkpt lat="37.08082" lon="-3.37801">
        <ele>2712.8</ele>
        <time>2021-08-05 12:12:26</time>
      </trkpt>
      <trkpt lat="37.08083" lon="-3.37802">
        <ele>2712.8</ele>
        <time>2021-08-05 12:12:27</time>
      </trkpt>
      <trkpt lat="37.08083" lon="-3.37803">
        <ele>2712.6</ele>
        <time>2021-08-05 12:12:28</time>
      </trkpt>
      <trkpt lat="37.08083" lon="-3.37803">
        <ele>2712.6</ele>
        <time>2021-08-05 12:12:29</time>
      </trkpt>
      <trkpt lat="37.08083" lon="-3.37804">
        <ele>2712.6</ele>
        <time>2021-08-05 12:12:30</time>
      </trkpt>
      <trkpt lat="37.08083" lon="-3.37804">
        <ele>2712.6</ele>
        <time>2021-08-05 12:12:31</time>
      </trkpt>
      <trkpt lat="37.08083" lon="-3.37804">
        <ele>2712.6</ele>
        <time>2021-08-05 12:12:32</time>
      </trkpt>
      <trkpt lat="37.08083" lon="-3.37804">
        <ele>2712.6</ele>
        <time>2021-08-05 12:12:33</time>
      </trkpt>
      <trkpt lat="37.08084" lon="-3.37804">
        <ele>2712.6</ele>
        <time>2021-08-05 12:12:34</time>
      </trkpt>
      <trkpt lat="37.08084" lon="-3.37804">
        <ele>2712.6</ele>
        <time>2021-08-05 12:12:35</time>
      </trkpt>
      <trkpt lat="37.08085" lon="-3.37805">
        <ele>2712.4</ele>
        <time>2021-08-05 12:12:36</time>
      </trkpt>
      <trkpt lat="37.08084" lon="-3.37805">
        <ele>2712.2</ele>
        <time>2021-08-05 12:12:37</time>
      </trkpt>
      <trkpt lat="37.08084" lon="-3.37805">
        <ele>2712.2</ele>
        <time>2021-08-05 12:12:38</time>
      </trkpt>
      <trkpt lat="37.08084" lon="-3.37805">
        <ele>2712</ele>
        <time>2021-08-05 12:12:39</time>
      </trkpt>
      <trkpt lat="37.08084" lon="-3.37805">
        <ele>2712</ele>
        <time>2021-08-05 12:12:40</time>
      </trkpt>
      <trkpt lat="37.08084" lon="-3.37805">
        <ele>2712.2</ele>
        <time>2021-08-05 12:12:41</time>
      </trkpt>
      <trkpt lat="37.08084" lon="-3.37805">
        <ele>2712.2</ele>
        <time>2021-08-05 12:12:42</time>
      </trkpt>
      <trkpt lat="37.08084" lon="-3.37805">
        <ele>2712.6</ele>
        <time>2021-08-05 12:12:43</time>
      </trkpt>
      <trkpt lat="37.08084" lon="-3.37805">
        <ele>2712.8</ele>
        <time>2021-08-05 12:12:44</time>
      </trkpt>
      <trkpt lat="37.08084" lon="-3.37805">
        <ele>2712.8</ele>
        <time>2021-08-05 12:12:45</time>
      </trkpt>
      <trkpt lat="37.08085" lon="-3.37805">
        <ele>2713</ele>
        <time>2021-08-05 12:12:46</time>
      </trkpt>
      <trkpt lat="37.08084" lon="-3.37805">
        <ele>2713</ele>
        <time>2021-08-05 12:12:47</time>
      </trkpt>
      <trkpt lat="37.08084" lon="-3.37805">
        <ele>2713</ele>
        <time>2021-08-05 12:12:48</time>
      </trkpt>
      <trkpt lat="37.08085" lon="-3.37805">
        <ele>2713</ele>
        <time>2021-08-05 12:12:49</time>
      </trkpt>
      <trkpt lat="37.08085" lon="-3.37805">
        <ele>2713</ele>
        <time>2021-08-05 12:12:50</time>
      </trkpt>
      <trkpt lat="37.08085" lon="-3.37805">
        <ele>2712.8</ele>
        <time>2021-08-05 12:12:51</time>
      </trkpt>
      <trkpt lat="37.08085" lon="-3.37805">
        <ele>2713</ele>
        <time>2021-08-05 12:12:52</time>
      </trkpt>
      <trkpt lat="37.08085" lon="-3.37805">
        <ele>2712.8</ele>
        <time>2021-08-05 12:12:53</time>
      </trkpt>
      <trkpt lat="37.08085" lon="-3.37805">
        <ele>2713</ele>
        <time>2021-08-05 12:12:54</time>
      </trkpt>
      <trkpt lat="37.08085" lon="-3.37805">
        <ele>2712.8</ele>
        <time>2021-08-05 12:12:55</time>
      </trkpt>
      <trkpt lat="37.08084" lon="-3.37804">
        <ele>2713.8</ele>
        <time>2021-08-05 12:12:56</time>
      </trkpt>
      <trkpt lat="37.08085" lon="-3.37804">
        <ele>2713.8</ele>
        <time>2021-08-05 12:12:57</time>
      </trkpt>
      <trkpt lat="37.08085" lon="-3.37804">
        <ele>2713.8</ele>
        <time>2021-08-05 12:12:58</time>
      </trkpt>
      <trkpt lat="37.08085" lon="-3.37804">
        <ele>2713.8</ele>
        <time>2021-08-05 12:12:59</time>
      </trkpt>
      <trkpt lat="37.08085" lon="-3.37804">
        <ele>2713.8</ele>
        <time>2021-08-05 12:13:00</time>
      </trkpt>
      <trkpt lat="37.08085" lon="-3.37804">
        <ele>2713.8</ele>
        <time>2021-08-05 12:13:01</time>
      </trkpt>
      <trkpt lat="37.08085" lon="-3.37804">
        <ele>2713.8</ele>
        <time>2021-08-05 12:13:02</time>
      </trkpt>
      <trkpt lat="37.08086" lon="-3.37804">
        <ele>2713.8</ele>
        <time>2021-08-05 12:13:03</time>
      </trkpt>
      <trkpt lat="37.08086" lon="-3.37804">
        <ele>2713.8</ele>
        <time>2021-08-05 12:13:04</time>
      </trkpt>
      <trkpt lat="37.08086" lon="-3.37804">
        <ele>2713.8</ele>
        <time>2021-08-05 12:13:05</time>
      </trkpt>
      <trkpt lat="37.08086" lon="-3.37804">
        <ele>2713.8</ele>
        <time>2021-08-05 12:13:06</time>
      </trkpt>
      <trkpt lat="37.08086" lon="-3.37804">
        <ele>2713.8</ele>
        <time>2021-08-05 12:13:07</time>
      </trkpt>
      <trkpt lat="37.08086" lon="-3.37804">
        <ele>2713.8</ele>
        <time>2021-08-05 12:13:08</time>
      </trkpt>
      <trkpt lat="37.08086" lon="-3.37804">
        <ele>2713.8</ele>
        <time>2021-08-05 12:13:09</time>
      </trkpt>
      <trkpt lat="37.08086" lon="-3.37804">
        <ele>2713.8</ele>
        <time>2021-08-05 12:13:10</time>
      </trkpt>
      <trkpt lat="37.08086" lon="-3.37804">
        <ele>2713.8</ele>
        <time>2021-08-05 12:13:11</time>
      </trkpt>
      <trkpt lat="37.08087" lon="-3.37804">
        <ele>2713.8</ele>
        <time>2021-08-05 12:13:12</time>
      </trkpt>
      <trkpt lat="37.08087" lon="-3.37804">
        <ele>2713.8</ele>
        <time>2021-08-05 12:13:13</time>
      </trkpt>
      <trkpt lat="37.08087" lon="-3.37804">
        <ele>2713.8</ele>
        <time>2021-08-05 12:13:14</time>
      </trkpt>
      <trkpt lat="37.08087" lon="-3.37804">
        <ele>2713.8</ele>
        <time>2021-08-05 12:13:15</time>
      </trkpt>
      <trkpt lat="37.08087" lon="-3.37804">
        <ele>2713.8</ele>
        <time>2021-08-05 12:13:16</time>
      </trkpt>
      <trkpt lat="37.08087" lon="-3.37804">
        <ele>2713.8</ele>
        <time>2021-08-05 12:13:17</time>
      </trkpt>
      <trkpt lat="37.08087" lon="-3.37804">
        <ele>2713.8</ele>
        <time>2021-08-05 12:13:18</time>
      </trkpt>
      <trkpt lat="37.08087" lon="-3.37804">
        <ele>2713.8</ele>
        <time>2021-08-05 12:13:19</time>
      </trkpt>
      <trkpt lat="37.08087" lon="-3.37805">
        <ele>2713.8</ele>
        <time>2021-08-05 12:13:20</time>
      </trkpt>
      <trkpt lat="37.08087" lon="-3.37805">
        <ele>2713.8</ele>
        <time>2021-08-05 12:13:21</time>
      </trkpt>
      <trkpt lat="37.08087" lon="-3.37805">
        <ele>2713.8</ele>
        <time>2021-08-05 12:13:22</time>
      </trkpt>
      <trkpt lat="37.08087" lon="-3.37805">
        <ele>2713.8</ele>
        <time>2021-08-05 12:13:23</time>
      </trkpt>
      <trkpt lat="37.08087" lon="-3.37804">
        <ele>2713.8</ele>
        <time>2021-08-05 12:13:24</time>
      </trkpt>
      <trkpt lat="37.08087" lon="-3.37804">
        <ele>2713.8</ele>
        <time>2021-08-05 12:13:25</time>
      </trkpt>
      <trkpt lat="37.08087" lon="-3.37804">
        <ele>2713.8</ele>
        <time>2021-08-05 12:13:26</time>
      </trkpt>
      <trkpt lat="37.08087" lon="-3.37804">
        <ele>2713.8</ele>
        <time>2021-08-05 12:13:27</time>
      </trkpt>
      <trkpt lat="37.08087" lon="-3.37804">
        <ele>2713.8</ele>
        <time>2021-08-05 12:13:28</time>
      </trkpt>
      <trkpt lat="37.08087" lon="-3.37804">
        <ele>2713.8</ele>
        <time>2021-08-05 12:13:29</time>
      </trkpt>
      <trkpt lat="37.08087" lon="-3.37805">
        <ele>2713.8</ele>
        <time>2021-08-05 12:13:30</time>
      </trkpt>
      <trkpt lat="37.08086" lon="-3.37805">
        <ele>2713.8</ele>
        <time>2021-08-05 12:13:31</time>
      </trkpt>
      <trkpt lat="37.08086" lon="-3.37805">
        <ele>2713.8</ele>
        <time>2021-08-05 12:13:32</time>
      </trkpt>
      <trkpt lat="37.08086" lon="-3.37805">
        <ele>2713.8</ele>
        <time>2021-08-05 12:13:33</time>
      </trkpt>
      <trkpt lat="37.08087" lon="-3.37805">
        <ele>2713.8</ele>
        <time>2021-08-05 12:13:34</time>
      </trkpt>
      <trkpt lat="37.08087" lon="-3.37805">
        <ele>2713.8</ele>
        <time>2021-08-05 12:13:35</time>
      </trkpt>
      <trkpt lat="37.08087" lon="-3.37805">
        <ele>2713.8</ele>
        <time>2021-08-05 12:13:36</time>
      </trkpt>
      <trkpt lat="37.08087" lon="-3.37805">
        <ele>2713.8</ele>
        <time>2021-08-05 12:13:37</time>
      </trkpt>
      <trkpt lat="37.08087" lon="-3.37804">
        <ele>2713.8</ele>
        <time>2021-08-05 12:13:38</time>
      </trkpt>
      <trkpt lat="37.08087" lon="-3.37804">
        <ele>2713.8</ele>
        <time>2021-08-05 12:13:39</time>
      </trkpt>
      <trkpt lat="37.08086" lon="-3.37804">
        <ele>2713.8</ele>
        <time>2021-08-05 12:13:40</time>
      </trkpt>
      <trkpt lat="37.08086" lon="-3.37804">
        <ele>2713.8</ele>
        <time>2021-08-05 12:13:41</time>
      </trkpt>
      <trkpt lat="37.08086" lon="-3.37804">
        <ele>2713.8</ele>
        <time>2021-08-05 12:13:42</time>
      </trkpt>
      <trkpt lat="37.08085" lon="-3.37804">
        <ele>2713.8</ele>
        <time>2021-08-05 12:13:43</time>
      </trkpt>
      <trkpt lat="37.08085" lon="-3.37804">
        <ele>2713.8</ele>
        <time>2021-08-05 12:13:44</time>
      </trkpt>
      <trkpt lat="37.08084" lon="-3.37804">
        <ele>2713.8</ele>
        <time>2021-08-05 12:13:45</time>
      </trkpt>
      <trkpt lat="37.08084" lon="-3.37804">
        <ele>2713.8</ele>
        <time>2021-08-05 12:13:46</time>
      </trkpt>
      <trkpt lat="37.08084" lon="-3.37804">
        <ele>2713.8</ele>
        <time>2021-08-05 12:13:47</time>
      </trkpt>
      <trkpt lat="37.08084" lon="-3.37804">
        <ele>2713.8</ele>
        <time>2021-08-05 12:13:48</time>
      </trkpt>
      <trkpt lat="37.08084" lon="-3.37804">
        <ele>2713.8</ele>
        <time>2021-08-05 12:13:49</time>
      </trkpt>
      <trkpt lat="37.08084" lon="-3.37804">
        <ele>2713.8</ele>
        <time>2021-08-05 12:13:50</time>
      </trkpt>
      <trkpt lat="37.08084" lon="-3.37804">
        <ele>2713.8</ele>
        <time>2021-08-05 12:13:51</time>
      </trkpt>
      <trkpt lat="37.08084" lon="-3.37804">
        <ele>2713.8</ele>
        <time>2021-08-05 12:13:52</time>
      </trkpt>
      <trkpt lat="37.08084" lon="-3.37804">
        <ele>2713.8</ele>
        <time>2021-08-05 12:13:53</time>
      </trkpt>
      <trkpt lat="37.08085" lon="-3.37804">
        <ele>2713.8</ele>
        <time>2021-08-05 12:13:54</time>
      </trkpt>
      <trkpt lat="37.08086" lon="-3.37805">
        <ele>2713.8</ele>
        <time>2021-08-05 12:13:55</time>
      </trkpt>
      <trkpt lat="37.08086" lon="-3.37805">
        <ele>2713.8</ele>
        <time>2021-08-05 12:13:56</time>
      </trkpt>
      <trkpt lat="37.08086" lon="-3.37805">
        <ele>2713.8</ele>
        <time>2021-08-05 12:13:57</time>
      </trkpt>
      <trkpt lat="37.08086" lon="-3.37805">
        <ele>2713.8</ele>
        <time>2021-08-05 12:13:58</time>
      </trkpt>
      <trkpt lat="37.08086" lon="-3.37805">
        <ele>2713.8</ele>
        <time>2021-08-05 12:13:59</time>
      </trkpt>
      <trkpt lat="37.08086" lon="-3.37805">
        <ele>2713.8</ele>
        <time>2021-08-05 12:14:00</time>
      </trkpt>
      <trkpt lat="37.08086" lon="-3.37804">
        <ele>2713.8</ele>
        <time>2021-08-05 12:14:01</time>
      </trkpt>
      <trkpt lat="37.08086" lon="-3.37804">
        <ele>2713.8</ele>
        <time>2021-08-05 12:14:02</time>
      </trkpt>
      <trkpt lat="37.08086" lon="-3.37804">
        <ele>2713.8</ele>
        <time>2021-08-05 12:14:03</time>
      </trkpt>
      <trkpt lat="37.08086" lon="-3.37804">
        <ele>2713.8</ele>
        <time>2021-08-05 12:14:04</time>
      </trkpt>
      <trkpt lat="37.08086" lon="-3.37804">
        <ele>2713.8</ele>
        <time>2021-08-05 12:14:05</time>
      </trkpt>
      <trkpt lat="37.08086" lon="-3.37804">
        <ele>2713.8</ele>
        <time>2021-08-05 12:14:06</time>
      </trkpt>
      <trkpt lat="37.08086" lon="-3.37804">
        <ele>2713.8</ele>
        <time>2021-08-05 12:14:07</time>
      </trkpt>
      <trkpt lat="37.08086" lon="-3.37804">
        <ele>2713.8</ele>
        <time>2021-08-05 12:14:08</time>
      </trkpt>
      <trkpt lat="37.08086" lon="-3.37804">
        <ele>2713.8</ele>
        <time>2021-08-05 12:14:09</time>
      </trkpt>
      <trkpt lat="37.08086" lon="-3.37804">
        <ele>2713.8</ele>
        <time>2021-08-05 12:14:10</time>
      </trkpt>
      <trkpt lat="37.08086" lon="-3.37803">
        <ele>2713.8</ele>
        <time>2021-08-05 12:14:11</time>
      </trkpt>
      <trkpt lat="37.08086" lon="-3.37803">
        <ele>2713.8</ele>
        <time>2021-08-05 12:14:12</time>
      </trkpt>
      <trkpt lat="37.08086" lon="-3.37804">
        <ele>2713.8</ele>
        <time>2021-08-05 12:14:13</time>
      </trkpt>
      <trkpt lat="37.08086" lon="-3.37804">
        <ele>2713.8</ele>
        <time>2021-08-05 12:14:14</time>
      </trkpt>
      <trkpt lat="37.08086" lon="-3.37804">
        <ele>2713.8</ele>
        <time>2021-08-05 12:14:15</time>
      </trkpt>
      <trkpt lat="37.08086" lon="-3.37804">
        <ele>2713.8</ele>
        <time>2021-08-05 12:14:16</time>
      </trkpt>
      <trkpt lat="37.08086" lon="-3.37804">
        <ele>2713.8</ele>
        <time>2021-08-05 12:14:17</time>
      </trkpt>
      <trkpt lat="37.08085" lon="-3.37804">
        <ele>2713.8</ele>
        <time>2021-08-05 12:14:18</time>
      </trkpt>
      <trkpt lat="37.08085" lon="-3.37804">
        <ele>2713.8</ele>
        <time>2021-08-05 12:14:19</time>
      </trkpt>
      <trkpt lat="37.08085" lon="-3.37804">
        <ele>2713.8</ele>
        <time>2021-08-05 12:14:20</time>
      </trkpt>
      <trkpt lat="37.08085" lon="-3.37804">
        <ele>2713.8</ele>
        <time>2021-08-05 12:14:21</time>
      </trkpt>
      <trkpt lat="37.08085" lon="-3.37804">
        <ele>2713.8</ele>
        <time>2021-08-05 12:14:22</time>
      </trkpt>
      <trkpt lat="37.08085" lon="-3.37804">
        <ele>2713.8</ele>
        <time>2021-08-05 12:14:23</time>
      </trkpt>
      <trkpt lat="37.08084" lon="-3.37804">
        <ele>2713.8</ele>
        <time>2021-08-05 12:14:24</time>
      </trkpt>
      <trkpt lat="37.08084" lon="-3.37804">
        <ele>2713.8</ele>
        <time>2021-08-05 12:14:25</time>
      </trkpt>
      <trkpt lat="37.08084" lon="-3.37804">
        <ele>2713.8</ele>
        <time>2021-08-05 12:14:26</time>
      </trkpt>
      <trkpt lat="37.08084" lon="-3.37804">
        <ele>2713.8</ele>
        <time>2021-08-05 12:14:27</time>
      </trkpt>
      <trkpt lat="37.08083" lon="-3.37804">
        <ele>2713.8</ele>
        <time>2021-08-05 12:14:28</time>
      </trkpt>
      <trkpt lat="37.08083" lon="-3.37804">
        <ele>2713.8</ele>
        <time>2021-08-05 12:14:29</time>
      </trkpt>
      <trkpt lat="37.08083" lon="-3.37805">
        <ele>2713.8</ele>
        <time>2021-08-05 12:14:30</time>
      </trkpt>
      <trkpt lat="37.08083" lon="-3.37805">
        <ele>2713.8</ele>
        <time>2021-08-05 12:14:31</time>
      </trkpt>
      <trkpt lat="37.08083" lon="-3.37804">
        <ele>2713.8</ele>
        <time>2021-08-05 12:14:32</time>
      </trkpt>
      <trkpt lat="37.08083" lon="-3.37804">
        <ele>2713.8</ele>
        <time>2021-08-05 12:14:33</time>
      </trkpt>
      <trkpt lat="37.08083" lon="-3.37804">
        <ele>2713.8</ele>
        <time>2021-08-05 12:14:34</time>
      </trkpt>
      <trkpt lat="37.08083" lon="-3.37804">
        <ele>2713.8</ele>
        <time>2021-08-05 12:14:35</time>
      </trkpt>
      <trkpt lat="37.08083" lon="-3.37804">
        <ele>2713.8</ele>
        <time>2021-08-05 12:14:36</time>
      </trkpt>
      <trkpt lat="37.08079" lon="-3.378">
        <ele>2717</ele>
        <time>2021-08-05 12:14:37</time>
      </trkpt>
      <trkpt lat="37.08079" lon="-3.378">
        <ele>2717</ele>
        <time>2021-08-05 12:34:20</time>
      </trkpt>
      <trkpt lat="37.0808" lon="-3.378">
        <ele>2717</ele>
        <time>2021-08-05 12:34:21</time>
      </trkpt>
      <trkpt lat="37.08079" lon="-3.37799">
        <ele>2717</ele>
        <time>2021-08-05 12:34:22</time>
      </trkpt>
      <trkpt lat="37.08079" lon="-3.37799">
        <ele>2717</ele>
        <time>2021-08-05 12:34:23</time>
      </trkpt>
      <trkpt lat="37.08079" lon="-3.37798">
        <ele>2717</ele>
        <time>2021-08-05 12:34:24</time>
      </trkpt>
      <trkpt lat="37.08078" lon="-3.37798">
        <ele>2717.2</ele>
        <time>2021-08-05 12:34:25</time>
      </trkpt>
      <trkpt lat="37.08078" lon="-3.37798">
        <ele>2717.4</ele>
        <time>2021-08-05 12:34:26</time>
      </trkpt>
      <trkpt lat="37.08077" lon="-3.37798">
        <ele>2717.6</ele>
        <time>2021-08-05 12:34:27</time>
      </trkpt>
      <trkpt lat="37.08076" lon="-3.37797">
        <ele>2717.4</ele>
        <time>2021-08-05 12:34:28</time>
      </trkpt>
      <trkpt lat="37.08075" lon="-3.37798">
        <ele>2717.6</ele>
        <time>2021-08-05 12:34:29</time>
      </trkpt>
      <trkpt lat="37.08074" lon="-3.37797">
        <ele>2718</ele>
        <time>2021-08-05 12:34:30</time>
      </trkpt>
      <trkpt lat="37.08073" lon="-3.37796">
        <ele>2718</ele>
        <time>2021-08-05 12:34:31</time>
      </trkpt>
      <trkpt lat="37.08073" lon="-3.37796">
        <ele>2718</ele>
        <time>2021-08-05 12:34:32</time>
      </trkpt>
      <trkpt lat="37.08072" lon="-3.37796">
        <ele>2718</ele>
        <time>2021-08-05 12:34:33</time>
      </trkpt>
      <trkpt lat="37.08072" lon="-3.37796">
        <ele>2718</ele>
        <time>2021-08-05 12:34:34</time>
      </trkpt>
      <trkpt lat="37.08072" lon="-3.37796">
        <ele>2718</ele>
        <time>2021-08-05 12:34:35</time>
      </trkpt>
      <trkpt lat="37.08073" lon="-3.37797">
        <ele>2718.2</ele>
        <time>2021-08-05 12:34:36</time>
      </trkpt>
      <trkpt lat="37.08073" lon="-3.37797">
        <ele>2718.2</ele>
        <time>2021-08-05 12:34:37</time>
      </trkpt>
      <trkpt lat="37.08073" lon="-3.37796">
        <ele>2718.2</ele>
        <time>2021-08-05 12:34:38</time>
      </trkpt>
      <trkpt lat="37.08073" lon="-3.37796">
        <ele>2718.2</ele>
        <time>2021-08-05 12:34:39</time>
      </trkpt>
      <trkpt lat="37.08073" lon="-3.37794">
        <ele>2718.2</ele>
        <time>2021-08-05 12:34:40</time>
      </trkpt>
      <trkpt lat="37.08073" lon="-3.37792">
        <ele>2718.2</ele>
        <time>2021-08-05 12:34:41</time>
      </trkpt>
      <trkpt lat="37.08073" lon="-3.37791">
        <ele>2718.2</ele>
        <time>2021-08-05 12:34:42</time>
      </trkpt>
      <trkpt lat="37.08072" lon="-3.3779">
        <ele>2718.2</ele>
        <time>2021-08-05 12:34:43</time>
      </trkpt>
      <trkpt lat="37.08071" lon="-3.37788">
        <ele>2718.2</ele>
        <time>2021-08-05 12:34:44</time>
      </trkpt>
      <trkpt lat="37.0807" lon="-3.37788">
        <ele>2718.2</ele>
        <time>2021-08-05 12:34:45</time>
      </trkpt>
      <trkpt lat="37.0807" lon="-3.37787">
        <ele>2718.2</ele>
        <time>2021-08-05 12:34:46</time>
      </trkpt>
      <trkpt lat="37.08069" lon="-3.37786">
        <ele>2718.2</ele>
        <time>2021-08-05 12:34:47</time>
      </trkpt>
      <trkpt lat="37.08068" lon="-3.37786">
        <ele>2718.2</ele>
        <time>2021-08-05 12:34:48</time>
      </trkpt>
      <trkpt lat="37.08068" lon="-3.37785">
        <ele>2718.2</ele>
        <time>2021-08-05 12:34:49</time>
      </trkpt>
      <trkpt lat="37.08067" lon="-3.37785">
        <ele>2718.2</ele>
        <time>2021-08-05 12:34:50</time>
      </trkpt>
      <trkpt lat="37.08067" lon="-3.37785">
        <ele>2718.4</ele>
        <time>2021-08-05 12:34:51</time>
      </trkpt>
      <trkpt lat="37.08066" lon="-3.37785">
        <ele>2718.8</ele>
        <time>2021-08-05 12:34:52</time>
      </trkpt>
      <trkpt lat="37.08066" lon="-3.37785">
        <ele>2718.8</ele>
        <time>2021-08-05 12:34:53</time>
      </trkpt>
      <trkpt lat="37.08065" lon="-3.37785">
        <ele>2719</ele>
        <time>2021-08-05 12:34:54</time>
      </trkpt>
      <trkpt lat="37.08065" lon="-3.37785">
        <ele>2719</ele>
        <time>2021-08-05 12:34:55</time>
      </trkpt>
      <trkpt lat="37.08064" lon="-3.37785">
        <ele>2719.2</ele>
        <time>2021-08-05 12:34:56</time>
      </trkpt>
      <trkpt lat="37.08064" lon="-3.37785">
        <ele>2719.2</ele>
        <time>2021-08-05 12:34:57</time>
      </trkpt>
      <trkpt lat="37.08064" lon="-3.37785">
        <ele>2719.4</ele>
        <time>2021-08-05 12:34:58</time>
      </trkpt>
      <trkpt lat="37.08064" lon="-3.37784">
        <ele>2719.4</ele>
        <time>2021-08-05 12:34:59</time>
      </trkpt>
      <trkpt lat="37.08064" lon="-3.37784">
        <ele>2719.6</ele>
        <time>2021-08-05 12:35:00</time>
      </trkpt>
      <trkpt lat="37.08063" lon="-3.37784">
        <ele>2719.6</ele>
        <time>2021-08-05 12:35:01</time>
      </trkpt>
      <trkpt lat="37.08063" lon="-3.37784">
        <ele>2719.6</ele>
        <time>2021-08-05 12:35:02</time>
      </trkpt>
      <trkpt lat="37.08063" lon="-3.37784">
        <ele>2719.8</ele>
        <time>2021-08-05 12:35:03</time>
      </trkpt>
      <trkpt lat="37.08063" lon="-3.37784">
        <ele>2719.8</ele>
        <time>2021-08-05 12:35:04</time>
      </trkpt>
      <trkpt lat="37.08062" lon="-3.37783">
        <ele>2719.8</ele>
        <time>2021-08-05 12:35:05</time>
      </trkpt>
      <trkpt lat="37.08062" lon="-3.37783">
        <ele>2719.8</ele>
        <time>2021-08-05 12:35:06</time>
      </trkpt>
      <trkpt lat="37.08061" lon="-3.37782">
        <ele>2719.8</ele>
        <time>2021-08-05 12:35:07</time>
      </trkpt>
      <trkpt lat="37.0806" lon="-3.37782">
        <ele>2720</ele>
        <time>2021-08-05 12:35:08</time>
      </trkpt>
      <trkpt lat="37.08059" lon="-3.37781">
        <ele>2720</ele>
        <time>2021-08-05 12:35:09</time>
      </trkpt>
      <trkpt lat="37.08059" lon="-3.37781">
        <ele>2720.2</ele>
        <time>2021-08-05 12:35:10</time>
      </trkpt>
      <trkpt lat="37.08059" lon="-3.3778">
        <ele>2720.2</ele>
        <time>2021-08-05 12:35:11</time>
      </trkpt>
      <trkpt lat="37.08058" lon="-3.37779">
        <ele>2720.2</ele>
        <time>2021-08-05 12:35:12</time>
      </trkpt>
      <trkpt lat="37.08058" lon="-3.37779">
        <ele>2720.4</ele>
        <time>2021-08-05 12:35:13</time>
      </trkpt>
      <trkpt lat="37.08057" lon="-3.37779">
        <ele>2720.4</ele>
        <time>2021-08-05 12:35:14</time>
      </trkpt>
      <trkpt lat="37.08057" lon="-3.37779">
        <ele>2720.6</ele>
        <time>2021-08-05 12:35:15</time>
      </trkpt>
      <trkpt lat="37.08056" lon="-3.37778">
        <ele>2720.6</ele>
        <time>2021-08-05 12:35:16</time>
      </trkpt>
      <trkpt lat="37.08056" lon="-3.37778">
        <ele>2720.6</ele>
        <time>2021-08-05 12:35:17</time>
      </trkpt>
      <trkpt lat="37.08055" lon="-3.37777">
        <ele>2720.6</ele>
        <time>2021-08-05 12:35:18</time>
      </trkpt>
      <trkpt lat="37.08055" lon="-3.37777">
        <ele>2720.6</ele>
        <time>2021-08-05 12:35:19</time>
      </trkpt>
      <trkpt lat="37.08055" lon="-3.37777">
        <ele>2720.8</ele>
        <time>2021-08-05 12:35:20</time>
      </trkpt>
      <trkpt lat="37.08054" lon="-3.37777">
        <ele>2720.8</ele>
        <time>2021-08-05 12:35:21</time>
      </trkpt>
      <trkpt lat="37.08054" lon="-3.37777">
        <ele>2720.8</ele>
        <time>2021-08-05 12:35:22</time>
      </trkpt>
      <trkpt lat="37.08054" lon="-3.37776">
        <ele>2720.8</ele>
        <time>2021-08-05 12:35:23</time>
      </trkpt>
      <trkpt lat="37.08054" lon="-3.37776">
        <ele>2721.2</ele>
        <time>2021-08-05 12:35:24</time>
      </trkpt>
      <trkpt lat="37.08053" lon="-3.37776">
        <ele>2721.2</ele>
        <time>2021-08-05 12:35:25</time>
      </trkpt>
      <trkpt lat="37.08053" lon="-3.37776">
        <ele>2721.2</ele>
        <time>2021-08-05 12:35:26</time>
      </trkpt>
      <trkpt lat="37.08052" lon="-3.37776">
        <ele>2721.4</ele>
        <time>2021-08-05 12:35:27</time>
      </trkpt>
      <trkpt lat="37.08052" lon="-3.37776">
        <ele>2721.4</ele>
        <time>2021-08-05 12:35:28</time>
      </trkpt>
      <trkpt lat="37.08052" lon="-3.37776">
        <ele>2721.4</ele>
        <time>2021-08-05 12:35:29</time>
      </trkpt>
      <trkpt lat="37.08052" lon="-3.37776">
        <ele>2721.4</ele>
        <time>2021-08-05 12:35:30</time>
      </trkpt>
      <trkpt lat="37.08052" lon="-3.37775">
        <ele>2721.4</ele>
        <time>2021-08-05 12:35:31</time>
      </trkpt>
      <trkpt lat="37.0805" lon="-3.37774">
        <ele>2721.4</ele>
        <time>2021-08-05 12:35:32</time>
      </trkpt>
      <trkpt lat="37.0805" lon="-3.37774">
        <ele>2721.6</ele>
        <time>2021-08-05 12:35:33</time>
      </trkpt>
      <trkpt lat="37.0805" lon="-3.37774">
        <ele>2721.6</ele>
        <time>2021-08-05 12:35:34</time>
      </trkpt>
      <trkpt lat="37.08049" lon="-3.37774">
        <ele>2721.6</ele>
        <time>2021-08-05 12:35:35</time>
      </trkpt>
      <trkpt lat="37.08049" lon="-3.37774">
        <ele>2721.6</ele>
        <time>2021-08-05 12:35:36</time>
      </trkpt>
      <trkpt lat="37.08049" lon="-3.37773">
        <ele>2721.6</ele>
        <time>2021-08-05 12:35:37</time>
      </trkpt>
      <trkpt lat="37.08049" lon="-3.37772">
        <ele>2721.8</ele>
        <time>2021-08-05 12:35:38</time>
      </trkpt>
      <trkpt lat="37.08048" lon="-3.37771">
        <ele>2722</ele>
        <time>2021-08-05 12:35:39</time>
      </trkpt>
      <trkpt lat="37.08047" lon="-3.3777">
        <ele>2722</ele>
        <time>2021-08-05 12:35:40</time>
      </trkpt>
      <trkpt lat="37.08047" lon="-3.3777">
        <ele>2722</ele>
        <time>2021-08-05 12:35:41</time>
      </trkpt>
      <trkpt lat="37.08046" lon="-3.3777">
        <ele>2722</ele>
        <time>2021-08-05 12:35:42</time>
      </trkpt>
      <trkpt lat="37.08046" lon="-3.3777">
        <ele>2722.2</ele>
        <time>2021-08-05 12:35:43</time>
      </trkpt>
      <trkpt lat="37.08045" lon="-3.37769">
        <ele>2722.2</ele>
        <time>2021-08-05 12:35:44</time>
      </trkpt>
      <trkpt lat="37.08044" lon="-3.37768">
        <ele>2722.4</ele>
        <time>2021-08-05 12:35:45</time>
      </trkpt>
      <trkpt lat="37.08043" lon="-3.37767">
        <ele>2722.4</ele>
        <time>2021-08-05 12:35:46</time>
      </trkpt>
      <trkpt lat="37.08042" lon="-3.37766">
        <ele>2722.6</ele>
        <time>2021-08-05 12:35:47</time>
      </trkpt>
      <trkpt lat="37.08041" lon="-3.37765">
        <ele>2722.6</ele>
        <time>2021-08-05 12:35:48</time>
      </trkpt>
      <trkpt lat="37.08041" lon="-3.37765">
        <ele>2722.6</ele>
        <time>2021-08-05 12:35:49</time>
      </trkpt>
      <trkpt lat="37.08041" lon="-3.37765">
        <ele>2722.4</ele>
        <time>2021-08-05 12:35:50</time>
      </trkpt>
      <trkpt lat="37.08041" lon="-3.37765">
        <ele>2722.4</ele>
        <time>2021-08-05 12:35:51</time>
      </trkpt>
      <trkpt lat="37.08041" lon="-3.37765">
        <ele>2722</ele>
        <time>2021-08-05 12:35:52</time>
      </trkpt>
      <trkpt lat="37.08041" lon="-3.37764">
        <ele>2721.8</ele>
        <time>2021-08-05 12:35:53</time>
      </trkpt>
      <trkpt lat="37.0804" lon="-3.37762">
        <ele>2721.8</ele>
        <time>2021-08-05 12:35:54</time>
      </trkpt>
      <trkpt lat="37.08041" lon="-3.37761">
        <ele>2721.8</ele>
        <time>2021-08-05 12:35:55</time>
      </trkpt>
      <trkpt lat="37.08041" lon="-3.3776">
        <ele>2721.6</ele>
        <time>2021-08-05 12:35:56</time>
      </trkpt>
      <trkpt lat="37.08041" lon="-3.37759">
        <ele>2721.6</ele>
        <time>2021-08-05 12:35:57</time>
      </trkpt>
      <trkpt lat="37.08042" lon="-3.37758">
        <ele>2721.6</ele>
        <time>2021-08-05 12:35:58</time>
      </trkpt>
      <trkpt lat="37.08042" lon="-3.37758">
        <ele>2721.6</ele>
        <time>2021-08-05 12:35:59</time>
      </trkpt>
      <trkpt lat="37.08042" lon="-3.37757">
        <ele>2721.6</ele>
        <time>2021-08-05 12:36:00</time>
      </trkpt>
      <trkpt lat="37.08042" lon="-3.37756">
        <ele>2721.6</ele>
        <time>2021-08-05 12:36:01</time>
      </trkpt>
      <trkpt lat="37.08042" lon="-3.37755">
        <ele>2721.6</ele>
        <time>2021-08-05 12:36:02</time>
      </trkpt>
      <trkpt lat="37.08042" lon="-3.37754">
        <ele>2721.6</ele>
        <time>2021-08-05 12:36:03</time>
      </trkpt>
      <trkpt lat="37.08042" lon="-3.37752">
        <ele>2721.6</ele>
        <time>2021-08-05 12:36:04</time>
      </trkpt>
      <trkpt lat="37.08042" lon="-3.37752">
        <ele>2721.8</ele>
        <time>2021-08-05 12:36:05</time>
      </trkpt>
      <trkpt lat="37.08042" lon="-3.3775">
        <ele>2722</ele>
        <time>2021-08-05 12:36:06</time>
      </trkpt>
      <trkpt lat="37.08041" lon="-3.37749">
        <ele>2722</ele>
        <time>2021-08-05 12:36:07</time>
      </trkpt>
      <trkpt lat="37.08041" lon="-3.37748">
        <ele>2722.2</ele>
        <time>2021-08-05 12:36:08</time>
      </trkpt>
      <trkpt lat="37.08041" lon="-3.37746">
        <ele>2722.2</ele>
        <time>2021-08-05 12:36:09</time>
      </trkpt>
      <trkpt lat="37.08042" lon="-3.37745">
        <ele>2722.2</ele>
        <time>2021-08-05 12:36:10</time>
      </trkpt>
      <trkpt lat="37.08042" lon="-3.37744">
        <ele>2722.2</ele>
        <time>2021-08-05 12:36:11</time>
      </trkpt>
      <trkpt lat="37.08042" lon="-3.37743">
        <ele>2722.2</ele>
        <time>2021-08-05 12:36:12</time>
      </trkpt>
      <trkpt lat="37.08042" lon="-3.37742">
        <ele>2722.2</ele>
        <time>2021-08-05 12:36:13</time>
      </trkpt>
      <trkpt lat="37.08042" lon="-3.37741">
        <ele>2722.4</ele>
        <time>2021-08-05 12:36:14</time>
      </trkpt>
      <trkpt lat="37.08042" lon="-3.37739">
        <ele>2722.6</ele>
        <time>2021-08-05 12:36:15</time>
      </trkpt>
      <trkpt lat="37.08043" lon="-3.37738">
        <ele>2722.6</ele>
        <time>2021-08-05 12:36:16</time>
      </trkpt>
      <trkpt lat="37.08042" lon="-3.37736">
        <ele>2722.6</ele>
        <time>2021-08-05 12:36:17</time>
      </trkpt>
      <trkpt lat="37.08042" lon="-3.37735">
        <ele>2722.8</ele>
        <time>2021-08-05 12:36:18</time>
      </trkpt>
      <trkpt lat="37.08042" lon="-3.37733">
        <ele>2722.8</ele>
        <time>2021-08-05 12:36:19</time>
      </trkpt>
      <trkpt lat="37.08042" lon="-3.37732">
        <ele>2722.8</ele>
        <time>2021-08-05 12:36:20</time>
      </trkpt>
      <trkpt lat="37.08042" lon="-3.37731">
        <ele>2722.8</ele>
        <time>2021-08-05 12:36:21</time>
      </trkpt>
      <trkpt lat="37.08042" lon="-3.37731">
        <ele>2722.8</ele>
        <time>2021-08-05 12:36:22</time>
      </trkpt>
      <trkpt lat="37.08041" lon="-3.3773">
        <ele>2722.8</ele>
        <time>2021-08-05 12:36:23</time>
      </trkpt>
      <trkpt lat="37.08041" lon="-3.37729">
        <ele>2722.8</ele>
        <time>2021-08-05 12:36:24</time>
      </trkpt>
      <trkpt lat="37.08042" lon="-3.37728">
        <ele>2722.8</ele>
        <time>2021-08-05 12:36:25</time>
      </trkpt>
      <trkpt lat="37.08042" lon="-3.37727">
        <ele>2722.6</ele>
        <time>2021-08-05 12:36:26</time>
      </trkpt>
      <trkpt lat="37.08042" lon="-3.37725">
        <ele>2722.6</ele>
        <time>2021-08-05 12:36:27</time>
      </trkpt>
      <trkpt lat="37.08042" lon="-3.37725">
        <ele>2722.6</ele>
        <time>2021-08-05 12:36:28</time>
      </trkpt>
      <trkpt lat="37.08042" lon="-3.37724">
        <ele>2722.6</ele>
        <time>2021-08-05 12:36:29</time>
      </trkpt>
      <trkpt lat="37.08042" lon="-3.37723">
        <ele>2722.4</ele>
        <time>2021-08-05 12:36:30</time>
      </trkpt>
      <trkpt lat="37.08042" lon="-3.37722">
        <ele>2722.4</ele>
        <time>2021-08-05 12:36:31</time>
      </trkpt>
      <trkpt lat="37.08042" lon="-3.37721">
        <ele>2722.4</ele>
        <time>2021-08-05 12:36:32</time>
      </trkpt>
      <trkpt lat="37.08042" lon="-3.3772">
        <ele>2722.6</ele>
        <time>2021-08-05 12:36:33</time>
      </trkpt>
      <trkpt lat="37.08042" lon="-3.37719">
        <ele>2722.6</ele>
        <time>2021-08-05 12:36:34</time>
      </trkpt>
      <trkpt lat="37.08042" lon="-3.37718">
        <ele>2722.8</ele>
        <time>2021-08-05 12:36:35</time>
      </trkpt>
      <trkpt lat="37.08042" lon="-3.37717">
        <ele>2723</ele>
        <time>2021-08-05 12:36:36</time>
      </trkpt>
      <trkpt lat="37.08043" lon="-3.37717">
        <ele>2723.2</ele>
        <time>2021-08-05 12:36:37</time>
      </trkpt>
      <trkpt lat="37.08043" lon="-3.37716">
        <ele>2723.2</ele>
        <time>2021-08-05 12:36:38</time>
      </trkpt>
      <trkpt lat="37.08043" lon="-3.37714">
        <ele>2723.2</ele>
        <time>2021-08-05 12:36:39</time>
      </trkpt>
      <trkpt lat="37.08043" lon="-3.37713">
        <ele>2723.4</ele>
        <time>2021-08-05 12:36:40</time>
      </trkpt>
      <trkpt lat="37.08043" lon="-3.37712">
        <ele>2723.4</ele>
        <time>2021-08-05 12:36:41</time>
      </trkpt>
      <trkpt lat="37.08043" lon="-3.37711">
        <ele>2723.6</ele>
        <time>2021-08-05 12:36:42</time>
      </trkpt>
      <trkpt lat="37.08043" lon="-3.37709">
        <ele>2723.6</ele>
        <time>2021-08-05 12:36:43</time>
      </trkpt>
      <trkpt lat="37.08043" lon="-3.37707">
        <ele>2723.6</ele>
        <time>2021-08-05 12:36:44</time>
      </trkpt>
      <trkpt lat="37.08044" lon="-3.37705">
        <ele>2723.8</ele>
        <time>2021-08-05 12:36:45</time>
      </trkpt>
      <trkpt lat="37.08044" lon="-3.37703">
        <ele>2723.8</ele>
        <time>2021-08-05 12:36:46</time>
      </trkpt>
      <trkpt lat="37.08044" lon="-3.37703">
        <ele>2724</ele>
        <time>2021-08-05 12:36:47</time>
      </trkpt>
      <trkpt lat="37.08044" lon="-3.37702">
        <ele>2724.2</ele>
        <time>2021-08-05 12:36:48</time>
      </trkpt>
      <trkpt lat="37.08044" lon="-3.37701">
        <ele>2724.4</ele>
        <time>2021-08-05 12:36:49</time>
      </trkpt>
      <trkpt lat="37.08044" lon="-3.377">
        <ele>2724.6</ele>
        <time>2021-08-05 12:36:50</time>
      </trkpt>
      <trkpt lat="37.08044" lon="-3.377">
        <ele>2724.8</ele>
        <time>2021-08-05 12:36:51</time>
      </trkpt>
      <trkpt lat="37.08044" lon="-3.37699">
        <ele>2724.6</ele>
        <time>2021-08-05 12:36:52</time>
      </trkpt>
      <trkpt lat="37.08044" lon="-3.37698">
        <ele>2724.8</ele>
        <time>2021-08-05 12:36:53</time>
      </trkpt>
      <trkpt lat="37.08044" lon="-3.37697">
        <ele>2724.8</ele>
        <time>2021-08-05 12:36:54</time>
      </trkpt>
      <trkpt lat="37.08043" lon="-3.37696">
        <ele>2724.8</ele>
        <time>2021-08-05 12:36:55</time>
      </trkpt>
      <trkpt lat="37.08043" lon="-3.37696">
        <ele>2724.8</ele>
        <time>2021-08-05 12:36:56</time>
      </trkpt>
      <trkpt lat="37.08043" lon="-3.37695">
        <ele>2724.8</ele>
        <time>2021-08-05 12:36:57</time>
      </trkpt>
      <trkpt lat="37.08043" lon="-3.37695">
        <ele>2724.8</ele>
        <time>2021-08-05 12:36:58</time>
      </trkpt>
      <trkpt lat="37.08043" lon="-3.37693">
        <ele>2725</ele>
        <time>2021-08-05 12:36:59</time>
      </trkpt>
      <trkpt lat="37.08043" lon="-3.37692">
        <ele>2725.2</ele>
        <time>2021-08-05 12:37:00</time>
      </trkpt>
      <trkpt lat="37.08044" lon="-3.37691">
        <ele>2725.2</ele>
        <time>2021-08-05 12:37:01</time>
      </trkpt>
      <trkpt lat="37.08044" lon="-3.3769">
        <ele>2725.2</ele>
        <time>2021-08-05 12:37:02</time>
      </trkpt>
      <trkpt lat="37.08044" lon="-3.37689">
        <ele>2725.4</ele>
        <time>2021-08-05 12:37:03</time>
      </trkpt>
      <trkpt lat="37.08044" lon="-3.37688">
        <ele>2725.4</ele>
        <time>2021-08-05 12:37:04</time>
      </trkpt>
      <trkpt lat="37.08045" lon="-3.37687">
        <ele>2725.4</ele>
        <time>2021-08-05 12:37:05</time>
      </trkpt>
      <trkpt lat="37.08045" lon="-3.37686">
        <ele>2725.4</ele>
        <time>2021-08-05 12:37:06</time>
      </trkpt>
      <trkpt lat="37.08045" lon="-3.37685">
        <ele>2725.4</ele>
        <time>2021-08-05 12:37:07</time>
      </trkpt>
      <trkpt lat="37.08045" lon="-3.37683">
        <ele>2725.4</ele>
        <time>2021-08-05 12:37:08</time>
      </trkpt>
      <trkpt lat="37.08045" lon="-3.37682">
        <ele>2725.4</ele>
        <time>2021-08-05 12:37:09</time>
      </trkpt>
      <trkpt lat="37.08045" lon="-3.37681">
        <ele>2725.6</ele>
        <time>2021-08-05 12:37:10</time>
      </trkpt>
      <trkpt lat="37.08045" lon="-3.3768">
        <ele>2725.6</ele>
        <time>2021-08-05 12:37:11</time>
      </trkpt>
      <trkpt lat="37.08045" lon="-3.3768">
        <ele>2725.8</ele>
        <time>2021-08-05 12:37:12</time>
      </trkpt>
      <trkpt lat="37.08045" lon="-3.37679">
        <ele>2725.8</ele>
        <time>2021-08-05 12:37:13</time>
      </trkpt>
      <trkpt lat="37.08045" lon="-3.37678">
        <ele>2725.8</ele>
        <time>2021-08-05 12:37:14</time>
      </trkpt>
      <trkpt lat="37.08046" lon="-3.37677">
        <ele>2725.8</ele>
        <time>2021-08-05 12:37:15</time>
      </trkpt>
      <trkpt lat="37.08046" lon="-3.37676">
        <ele>2725.8</ele>
        <time>2021-08-05 12:37:16</time>
      </trkpt>
      <trkpt lat="37.08045" lon="-3.37676">
        <ele>2725.8</ele>
        <time>2021-08-05 12:37:17</time>
      </trkpt>
      <trkpt lat="37.08045" lon="-3.37675">
        <ele>2725.8</ele>
        <time>2021-08-05 12:37:18</time>
      </trkpt>
      <trkpt lat="37.08045" lon="-3.37673">
        <ele>2725.6</ele>
        <time>2021-08-05 12:37:19</time>
      </trkpt>
      <trkpt lat="37.08045" lon="-3.37672">
        <ele>2725.8</ele>
        <time>2021-08-05 12:37:20</time>
      </trkpt>
      <trkpt lat="37.08045" lon="-3.37671">
        <ele>2725.8</ele>
        <time>2021-08-05 12:37:21</time>
      </trkpt>
      <trkpt lat="37.08045" lon="-3.3767">
        <ele>2725.8</ele>
        <time>2021-08-05 12:37:22</time>
      </trkpt>
      <trkpt lat="37.08045" lon="-3.37669">
        <ele>2725.8</ele>
        <time>2021-08-05 12:37:23</time>
      </trkpt>
      <trkpt lat="37.08046" lon="-3.37668">
        <ele>2726</ele>
        <time>2021-08-05 12:37:24</time>
      </trkpt>
      <trkpt lat="37.08046" lon="-3.37667">
        <ele>2726</ele>
        <time>2021-08-05 12:37:25</time>
      </trkpt>
      <trkpt lat="37.08046" lon="-3.37666">
        <ele>2726.2</ele>
        <time>2021-08-05 12:37:26</time>
      </trkpt>
      <trkpt lat="37.08046" lon="-3.37665">
        <ele>2726.4</ele>
        <time>2021-08-05 12:37:27</time>
      </trkpt>
      <trkpt lat="37.08047" lon="-3.37664">
        <ele>2726.6</ele>
        <time>2021-08-05 12:37:28</time>
      </trkpt>
      <trkpt lat="37.08047" lon="-3.37663">
        <ele>2726.8</ele>
        <time>2021-08-05 12:37:29</time>
      </trkpt>
      <trkpt lat="37.08047" lon="-3.37662">
        <ele>2726.8</ele>
        <time>2021-08-05 12:37:30</time>
      </trkpt>
      <trkpt lat="37.08047" lon="-3.37661">
        <ele>2727</ele>
        <time>2021-08-05 12:37:31</time>
      </trkpt>
      <trkpt lat="37.08047" lon="-3.3766">
        <ele>2727.2</ele>
        <time>2021-08-05 12:37:32</time>
      </trkpt>
      <trkpt lat="37.08047" lon="-3.37658">
        <ele>2727.2</ele>
        <time>2021-08-05 12:37:33</time>
      </trkpt>
      <trkpt lat="37.08047" lon="-3.37657">
        <ele>2727.4</ele>
        <time>2021-08-05 12:37:34</time>
      </trkpt>
      <trkpt lat="37.08047" lon="-3.37656">
        <ele>2727.6</ele>
        <time>2021-08-05 12:37:35</time>
      </trkpt>
      <trkpt lat="37.08047" lon="-3.37655">
        <ele>2727.6</ele>
        <time>2021-08-05 12:37:36</time>
      </trkpt>
      <trkpt lat="37.08046" lon="-3.37655">
        <ele>2727.6</ele>
        <time>2021-08-05 12:37:37</time>
      </trkpt>
      <trkpt lat="37.08046" lon="-3.37653">
        <ele>2727.6</ele>
        <time>2021-08-05 12:37:38</time>
      </trkpt>
      <trkpt lat="37.08046" lon="-3.37652">
        <ele>2727.8</ele>
        <time>2021-08-05 12:37:39</time>
      </trkpt>
      <trkpt lat="37.08046" lon="-3.37651">
        <ele>2727.8</ele>
        <time>2021-08-05 12:37:40</time>
      </trkpt>
      <trkpt lat="37.08045" lon="-3.3765">
        <ele>2727.8</ele>
        <time>2021-08-05 12:37:41</time>
      </trkpt>
      <trkpt lat="37.08045" lon="-3.37648">
        <ele>2728</ele>
        <time>2021-08-05 12:37:42</time>
      </trkpt>
      <trkpt lat="37.08045" lon="-3.37648">
        <ele>2728.2</ele>
        <time>2021-08-05 12:37:43</time>
      </trkpt>
      <trkpt lat="37.08044" lon="-3.37649">
        <ele>2728.4</ele>
        <time>2021-08-05 12:37:44</time>
      </trkpt>
      <trkpt lat="37.08044" lon="-3.37648">
        <ele>2728.4</ele>
        <time>2021-08-05 12:37:45</time>
      </trkpt>
      <trkpt lat="37.08044" lon="-3.37647">
        <ele>2728.4</ele>
        <time>2021-08-05 12:37:46</time>
      </trkpt>
      <trkpt lat="37.08043" lon="-3.37646">
        <ele>2728.4</ele>
        <time>2021-08-05 12:37:47</time>
      </trkpt>
      <trkpt lat="37.08043" lon="-3.37645">
        <ele>2728.6</ele>
        <time>2021-08-05 12:37:48</time>
      </trkpt>
      <trkpt lat="37.08042" lon="-3.37644">
        <ele>2728.8</ele>
        <time>2021-08-05 12:37:49</time>
      </trkpt>
      <trkpt lat="37.08042" lon="-3.37642">
        <ele>2728.8</ele>
        <time>2021-08-05 12:37:50</time>
      </trkpt>
      <trkpt lat="37.08041" lon="-3.37641">
        <ele>2728.8</ele>
        <time>2021-08-05 12:37:51</time>
      </trkpt>
      <trkpt lat="37.0804" lon="-3.3764">
        <ele>2729</ele>
        <time>2021-08-05 12:37:52</time>
      </trkpt>
      <trkpt lat="37.0804" lon="-3.3764">
        <ele>2729</ele>
        <time>2021-08-05 12:37:53</time>
      </trkpt>
      <trkpt lat="37.0804" lon="-3.37639">
        <ele>2729.2</ele>
        <time>2021-08-05 12:37:54</time>
      </trkpt>
      <trkpt lat="37.08039" lon="-3.37639">
        <ele>2729</ele>
        <time>2021-08-05 12:37:55</time>
      </trkpt>
      <trkpt lat="37.08039" lon="-3.37638">
        <ele>2729.2</ele>
        <time>2021-08-05 12:37:56</time>
      </trkpt>
      <trkpt lat="37.08039" lon="-3.37638">
        <ele>2729.2</ele>
        <time>2021-08-05 12:37:57</time>
      </trkpt>
      <trkpt lat="37.08038" lon="-3.37637">
        <ele>2729</ele>
        <time>2021-08-05 12:37:58</time>
      </trkpt>
      <trkpt lat="37.08038" lon="-3.37637">
        <ele>2729</ele>
        <time>2021-08-05 12:37:59</time>
      </trkpt>
      <trkpt lat="37.08037" lon="-3.37637">
        <ele>2728.8</ele>
        <time>2021-08-05 12:38:00</time>
      </trkpt>
      <trkpt lat="37.08036" lon="-3.37637">
        <ele>2728.8</ele>
        <time>2021-08-05 12:38:01</time>
      </trkpt>
      <trkpt lat="37.08036" lon="-3.37636">
        <ele>2729</ele>
        <time>2021-08-05 12:38:02</time>
      </trkpt>
      <trkpt lat="37.08036" lon="-3.37636">
        <ele>2729</ele>
        <time>2021-08-05 12:38:03</time>
      </trkpt>
      <trkpt lat="37.08036" lon="-3.37636">
        <ele>2729</ele>
        <time>2021-08-05 12:38:04</time>
      </trkpt>
      <trkpt lat="37.08037" lon="-3.37636">
        <ele>2729</ele>
        <time>2021-08-05 12:38:05</time>
      </trkpt>
      <trkpt lat="37.08037" lon="-3.37636">
        <ele>2729</ele>
        <time>2021-08-05 12:38:06</time>
      </trkpt>
      <trkpt lat="37.08037" lon="-3.37636">
        <ele>2729</ele>
        <time>2021-08-05 12:38:07</time>
      </trkpt>
      <trkpt lat="37.08036" lon="-3.37635">
        <ele>2729</ele>
        <time>2021-08-05 12:38:08</time>
      </trkpt>
      <trkpt lat="37.08036" lon="-3.37635">
        <ele>2729</ele>
        <time>2021-08-05 12:38:09</time>
      </trkpt>
      <trkpt lat="37.08036" lon="-3.37636">
        <ele>2728.8</ele>
        <time>2021-08-05 12:38:10</time>
      </trkpt>
      <trkpt lat="37.08036" lon="-3.37636">
        <ele>2728.8</ele>
        <time>2021-08-05 12:38:11</time>
      </trkpt>
      <trkpt lat="37.08036" lon="-3.37635">
        <ele>2728.8</ele>
        <time>2021-08-05 12:38:12</time>
      </trkpt>
      <trkpt lat="37.08036" lon="-3.37634">
        <ele>2728.8</ele>
        <time>2021-08-05 12:38:13</time>
      </trkpt>
      <trkpt lat="37.08036" lon="-3.37634">
        <ele>2728.8</ele>
        <time>2021-08-05 12:38:14</time>
      </trkpt>
      <trkpt lat="37.08036" lon="-3.37634">
        <ele>2728.8</ele>
        <time>2021-08-05 12:38:15</time>
      </trkpt>
      <trkpt lat="37.08036" lon="-3.37633">
        <ele>2729</ele>
        <time>2021-08-05 12:38:16</time>
      </trkpt>
      <trkpt lat="37.08035" lon="-3.37633">
        <ele>2729</ele>
        <time>2021-08-05 12:38:17</time>
      </trkpt>
      <trkpt lat="37.08035" lon="-3.37633">
        <ele>2729</ele>
        <time>2021-08-05 12:38:18</time>
      </trkpt>
      <trkpt lat="37.08035" lon="-3.37635">
        <ele>2729</ele>
        <time>2021-08-05 12:38:19</time>
      </trkpt>
      <trkpt lat="37.08035" lon="-3.37635">
        <ele>2729</ele>
        <time>2021-08-05 12:38:20</time>
      </trkpt>
      <trkpt lat="37.08035" lon="-3.37635">
        <ele>2729</ele>
        <time>2021-08-05 12:38:21</time>
      </trkpt>
      <trkpt lat="37.08034" lon="-3.37634">
        <ele>2729</ele>
        <time>2021-08-05 12:38:22</time>
      </trkpt>
      <trkpt lat="37.08033" lon="-3.37634">
        <ele>2729</ele>
        <time>2021-08-05 12:38:23</time>
      </trkpt>
      <trkpt lat="37.08032" lon="-3.37634">
        <ele>2729</ele>
        <time>2021-08-05 12:38:24</time>
      </trkpt>
      <trkpt lat="37.08032" lon="-3.37633">
        <ele>2729</ele>
        <time>2021-08-05 12:38:25</time>
      </trkpt>
      <trkpt lat="37.08032" lon="-3.37633">
        <ele>2729</ele>
        <time>2021-08-05 12:38:26</time>
      </trkpt>
      <trkpt lat="37.08032" lon="-3.37633">
        <ele>2729</ele>
        <time>2021-08-05 12:38:27</time>
      </trkpt>
      <trkpt lat="37.08032" lon="-3.37632">
        <ele>2729</ele>
        <time>2021-08-05 12:38:28</time>
      </trkpt>
      <trkpt lat="37.08032" lon="-3.37633">
        <ele>2729</ele>
        <time>2021-08-05 12:38:29</time>
      </trkpt>
      <trkpt lat="37.08032" lon="-3.37632">
        <ele>2729</ele>
        <time>2021-08-05 12:38:30</time>
      </trkpt>
      <trkpt lat="37.08032" lon="-3.37631">
        <ele>2729</ele>
        <time>2021-08-05 12:38:31</time>
      </trkpt>
      <trkpt lat="37.08031" lon="-3.37629">
        <ele>2729.2</ele>
        <time>2021-08-05 12:38:32</time>
      </trkpt>
      <trkpt lat="37.0803" lon="-3.37628">
        <ele>2729.4</ele>
        <time>2021-08-05 12:38:33</time>
      </trkpt>
      <trkpt lat="37.0803" lon="-3.37628">
        <ele>2729.6</ele>
        <time>2021-08-05 12:38:34</time>
      </trkpt>
      <trkpt lat="37.08029" lon="-3.37626">
        <ele>2729.6</ele>
        <time>2021-08-05 12:38:35</time>
      </trkpt>
      <trkpt lat="37.08029" lon="-3.37625">
        <ele>2729.8</ele>
        <time>2021-08-05 12:38:36</time>
      </trkpt>
      <trkpt lat="37.08029" lon="-3.37626">
        <ele>2729.8</ele>
        <time>2021-08-05 12:38:37</time>
      </trkpt>
      <trkpt lat="37.08028" lon="-3.37625">
        <ele>2729.8</ele>
        <time>2021-08-05 12:38:38</time>
      </trkpt>
      <trkpt lat="37.08028" lon="-3.37625">
        <ele>2729.8</ele>
        <time>2021-08-05 12:38:39</time>
      </trkpt>
      <trkpt lat="37.08028" lon="-3.37625">
        <ele>2729.8</ele>
        <time>2021-08-05 12:38:40</time>
      </trkpt>
      <trkpt lat="37.08029" lon="-3.37625">
        <ele>2729.8</ele>
        <time>2021-08-05 12:38:41</time>
      </trkpt>
      <trkpt lat="37.08029" lon="-3.37625">
        <ele>2729.8</ele>
        <time>2021-08-05 12:38:42</time>
      </trkpt>
      <trkpt lat="37.08029" lon="-3.37624">
        <ele>2729.8</ele>
        <time>2021-08-05 12:38:43</time>
      </trkpt>
      <trkpt lat="37.08029" lon="-3.37623">
        <ele>2729.8</ele>
        <time>2021-08-05 12:38:44</time>
      </trkpt>
      <trkpt lat="37.08029" lon="-3.37622">
        <ele>2730</ele>
        <time>2021-08-05 12:38:45</time>
      </trkpt>
      <trkpt lat="37.08028" lon="-3.37621">
        <ele>2730</ele>
        <time>2021-08-05 12:38:46</time>
      </trkpt>
      <trkpt lat="37.08028" lon="-3.37621">
        <ele>2730</ele>
        <time>2021-08-05 12:38:47</time>
      </trkpt>
      <trkpt lat="37.08028" lon="-3.3762">
        <ele>2730.2</ele>
        <time>2021-08-05 12:38:48</time>
      </trkpt>
      <trkpt lat="37.08028" lon="-3.3762">
        <ele>2730.2</ele>
        <time>2021-08-05 12:38:49</time>
      </trkpt>
      <trkpt lat="37.08028" lon="-3.3762">
        <ele>2730.2</ele>
        <time>2021-08-05 12:38:50</time>
      </trkpt>
      <trkpt lat="37.08028" lon="-3.3762">
        <ele>2730.6</ele>
        <time>2021-08-05 12:38:51</time>
      </trkpt>
      <trkpt lat="37.08027" lon="-3.3762">
        <ele>2730.8</ele>
        <time>2021-08-05 12:38:52</time>
      </trkpt>
      <trkpt lat="37.08027" lon="-3.37621">
        <ele>2730.8</ele>
        <time>2021-08-05 12:38:53</time>
      </trkpt>
      <trkpt lat="37.08027" lon="-3.37622">
        <ele>2730.8</ele>
        <time>2021-08-05 12:38:54</time>
      </trkpt>
      <trkpt lat="37.08026" lon="-3.37622">
        <ele>2730.8</ele>
        <time>2021-08-05 12:38:55</time>
      </trkpt>
      <trkpt lat="37.08026" lon="-3.37622">
        <ele>2731</ele>
        <time>2021-08-05 12:38:56</time>
      </trkpt>
      <trkpt lat="37.08025" lon="-3.37622">
        <ele>2731</ele>
        <time>2021-08-05 12:38:57</time>
      </trkpt>
      <trkpt lat="37.08025" lon="-3.37622">
        <ele>2731</ele>
        <time>2021-08-05 12:38:58</time>
      </trkpt>
      <trkpt lat="37.08023" lon="-3.37622">
        <ele>2731.2</ele>
        <time>2021-08-05 12:38:59</time>
      </trkpt>
      <trkpt lat="37.08023" lon="-3.37622">
        <ele>2731.4</ele>
        <time>2021-08-05 12:39:00</time>
      </trkpt>
      <trkpt lat="37.08023" lon="-3.37622">
        <ele>2731.6</ele>
        <time>2021-08-05 12:39:01</time>
      </trkpt>
      <trkpt lat="37.08022" lon="-3.37622">
        <ele>2731.6</ele>
        <time>2021-08-05 12:39:02</time>
      </trkpt>
      <trkpt lat="37.08021" lon="-3.37621">
        <ele>2731.8</ele>
        <time>2021-08-05 12:39:03</time>
      </trkpt>
      <trkpt lat="37.0802" lon="-3.37621">
        <ele>2732</ele>
        <time>2021-08-05 12:39:04</time>
      </trkpt>
      <trkpt lat="37.08019" lon="-3.3762">
        <ele>2732.2</ele>
        <time>2021-08-05 12:39:05</time>
      </trkpt>
      <trkpt lat="37.08019" lon="-3.3762">
        <ele>2732.4</ele>
        <time>2021-08-05 12:39:06</time>
      </trkpt>
      <trkpt lat="37.08018" lon="-3.3762">
        <ele>2732.4</ele>
        <time>2021-08-05 12:39:07</time>
      </trkpt>
      <trkpt lat="37.08018" lon="-3.37621">
        <ele>2732.4</ele>
        <time>2021-08-05 12:39:08</time>
      </trkpt>
      <trkpt lat="37.08017" lon="-3.37621">
        <ele>2732.6</ele>
        <time>2021-08-05 12:39:09</time>
      </trkpt>
      <trkpt lat="37.08017" lon="-3.3762">
        <ele>2732.6</ele>
        <time>2021-08-05 12:39:10</time>
      </trkpt>
      <trkpt lat="37.08016" lon="-3.3762">
        <ele>2732.8</ele>
        <time>2021-08-05 12:39:11</time>
      </trkpt>
      <trkpt lat="37.08016" lon="-3.37619">
        <ele>2732.8</ele>
        <time>2021-08-05 12:39:12</time>
      </trkpt>
      <trkpt lat="37.08015" lon="-3.37619">
        <ele>2732.8</ele>
        <time>2021-08-05 12:39:13</time>
      </trkpt>
      <trkpt lat="37.08014" lon="-3.37618">
        <ele>2732.8</ele>
        <time>2021-08-05 12:39:14</time>
      </trkpt>
      <trkpt lat="37.08014" lon="-3.37618">
        <ele>2733</ele>
        <time>2021-08-05 12:39:15</time>
      </trkpt>
      <trkpt lat="37.08014" lon="-3.37619">
        <ele>2733.4</ele>
        <time>2021-08-05 12:39:16</time>
      </trkpt>
      <trkpt lat="37.08013" lon="-3.37619">
        <ele>2733.4</ele>
        <time>2021-08-05 12:39:17</time>
      </trkpt>
      <trkpt lat="37.08013" lon="-3.3762">
        <ele>2733.6</ele>
        <time>2021-08-05 12:39:18</time>
      </trkpt>
      <trkpt lat="37.08013" lon="-3.37621">
        <ele>2733.6</ele>
        <time>2021-08-05 12:39:19</time>
      </trkpt>
      <trkpt lat="37.08013" lon="-3.37621">
        <ele>2734</ele>
        <time>2021-08-05 12:39:20</time>
      </trkpt>
      <trkpt lat="37.08012" lon="-3.37621">
        <ele>2734.4</ele>
        <time>2021-08-05 12:39:21</time>
      </trkpt>
      <trkpt lat="37.08012" lon="-3.37621">
        <ele>2734.6</ele>
        <time>2021-08-05 12:39:22</time>
      </trkpt>
      <trkpt lat="37.08012" lon="-3.37622">
        <ele>2734.8</ele>
        <time>2021-08-05 12:39:23</time>
      </trkpt>
      <trkpt lat="37.08012" lon="-3.37622">
        <ele>2735</ele>
        <time>2021-08-05 12:39:24</time>
      </trkpt>
      <trkpt lat="37.08011" lon="-3.37622">
        <ele>2735</ele>
        <time>2021-08-05 12:39:25</time>
      </trkpt>
      <trkpt lat="37.08011" lon="-3.37622">
        <ele>2735</ele>
        <time>2021-08-05 12:39:26</time>
      </trkpt>
      <trkpt lat="37.0801" lon="-3.37622">
        <ele>2735.2</ele>
        <time>2021-08-05 12:39:27</time>
      </trkpt>
      <trkpt lat="37.0801" lon="-3.37622">
        <ele>2735.2</ele>
        <time>2021-08-05 12:39:28</time>
      </trkpt>
      <trkpt lat="37.08009" lon="-3.37623">
        <ele>2735.2</ele>
        <time>2021-08-05 12:39:29</time>
      </trkpt>
      <trkpt lat="37.08009" lon="-3.37623">
        <ele>2735.2</ele>
        <time>2021-08-05 12:39:30</time>
      </trkpt>
      <trkpt lat="37.08007" lon="-3.37622">
        <ele>2735.2</ele>
        <time>2021-08-05 12:39:31</time>
      </trkpt>
      <trkpt lat="37.08007" lon="-3.37622">
        <ele>2735.4</ele>
        <time>2021-08-05 12:39:32</time>
      </trkpt>
      <trkpt lat="37.08006" lon="-3.37621">
        <ele>2735.6</ele>
        <time>2021-08-05 12:39:33</time>
      </trkpt>
      <trkpt lat="37.08005" lon="-3.37621">
        <ele>2735.8</ele>
        <time>2021-08-05 12:39:34</time>
      </trkpt>
      <trkpt lat="37.08005" lon="-3.37621">
        <ele>2736</ele>
        <time>2021-08-05 12:39:35</time>
      </trkpt>
      <trkpt lat="37.08005" lon="-3.37622">
        <ele>2736.4</ele>
        <time>2021-08-05 12:39:36</time>
      </trkpt>
      <trkpt lat="37.08005" lon="-3.37622">
        <ele>2736.4</ele>
        <time>2021-08-05 12:39:37</time>
      </trkpt>
      <trkpt lat="37.08002" lon="-3.37621">
        <ele>2736.6</ele>
        <time>2021-08-05 12:39:38</time>
      </trkpt>
      <trkpt lat="37.08001" lon="-3.37621">
        <ele>2736.6</ele>
        <time>2021-08-05 12:39:39</time>
      </trkpt>
      <trkpt lat="37.08001" lon="-3.37622">
        <ele>2736.8</ele>
        <time>2021-08-05 12:39:40</time>
      </trkpt>
      <trkpt lat="37.08" lon="-3.37622">
        <ele>2737</ele>
        <time>2021-08-05 12:39:41</time>
      </trkpt>
      <trkpt lat="37.07999" lon="-3.37622">
        <ele>2737.2</ele>
        <time>2021-08-05 12:39:42</time>
      </trkpt>
      <trkpt lat="37.07999" lon="-3.37622">
        <ele>2737.4</ele>
        <time>2021-08-05 12:39:43</time>
      </trkpt>
      <trkpt lat="37.07999" lon="-3.37622">
        <ele>2737.6</ele>
        <time>2021-08-05 12:39:44</time>
      </trkpt>
      <trkpt lat="37.07998" lon="-3.37622">
        <ele>2737.6</ele>
        <time>2021-08-05 12:39:45</time>
      </trkpt>
      <trkpt lat="37.07998" lon="-3.37622">
        <ele>2737.8</ele>
        <time>2021-08-05 12:39:46</time>
      </trkpt>
      <trkpt lat="37.07997" lon="-3.37622">
        <ele>2737.8</ele>
        <time>2021-08-05 12:39:47</time>
      </trkpt>
      <trkpt lat="37.07996" lon="-3.37622">
        <ele>2738</ele>
        <time>2021-08-05 12:39:48</time>
      </trkpt>
      <trkpt lat="37.07995" lon="-3.37621">
        <ele>2738</ele>
        <time>2021-08-05 12:39:49</time>
      </trkpt>
      <trkpt lat="37.07993" lon="-3.3762">
        <ele>2738</ele>
        <time>2021-08-05 12:39:50</time>
      </trkpt>
      <trkpt lat="37.07993" lon="-3.3762">
        <ele>2738</ele>
        <time>2021-08-05 12:39:51</time>
      </trkpt>
      <trkpt lat="37.07992" lon="-3.3762">
        <ele>2738</ele>
        <time>2021-08-05 12:39:52</time>
      </trkpt>
      <trkpt lat="37.07992" lon="-3.3762">
        <ele>2738</ele>
        <time>2021-08-05 12:39:53</time>
      </trkpt>
      <trkpt lat="37.07991" lon="-3.3762">
        <ele>2738.4</ele>
        <time>2021-08-05 12:39:54</time>
      </trkpt>
      <trkpt lat="37.07991" lon="-3.3762">
        <ele>2738.4</ele>
        <time>2021-08-05 12:39:55</time>
      </trkpt>
      <trkpt lat="37.0799" lon="-3.3762">
        <ele>2738.6</ele>
        <time>2021-08-05 12:39:56</time>
      </trkpt>
      <trkpt lat="37.07989" lon="-3.3762">
        <ele>2738.6</ele>
        <time>2021-08-05 12:39:57</time>
      </trkpt>
      <trkpt lat="37.07989" lon="-3.3762">
        <ele>2738.8</ele>
        <time>2021-08-05 12:39:58</time>
      </trkpt>
      <trkpt lat="37.07989" lon="-3.37622">
        <ele>2738.8</ele>
        <time>2021-08-05 12:39:59</time>
      </trkpt>
      <trkpt lat="37.07989" lon="-3.37622">
        <ele>2738.8</ele>
        <time>2021-08-05 12:40:00</time>
      </trkpt>
      <trkpt lat="37.07989" lon="-3.37622">
        <ele>2738.8</ele>
        <time>2021-08-05 12:40:01</time>
      </trkpt>
      <trkpt lat="37.07988" lon="-3.37623">
        <ele>2739</ele>
        <time>2021-08-05 12:40:02</time>
      </trkpt>
      <trkpt lat="37.07988" lon="-3.37623">
        <ele>2739.2</ele>
        <time>2021-08-05 12:40:03</time>
      </trkpt>
      <trkpt lat="37.07988" lon="-3.37623">
        <ele>2739.2</ele>
        <time>2021-08-05 12:40:04</time>
      </trkpt>
      <trkpt lat="37.07988" lon="-3.37623">
        <ele>2739.2</ele>
        <time>2021-08-05 12:40:05</time>
      </trkpt>
      <trkpt lat="37.07988" lon="-3.37623">
        <ele>2739.2</ele>
        <time>2021-08-05 12:40:06</time>
      </trkpt>
      <trkpt lat="37.07988" lon="-3.37624">
        <ele>2739.2</ele>
        <time>2021-08-05 12:40:07</time>
      </trkpt>
      <trkpt lat="37.07987" lon="-3.37624">
        <ele>2739.2</ele>
        <time>2021-08-05 12:40:08</time>
      </trkpt>
      <trkpt lat="37.07987" lon="-3.37624">
        <ele>2739.2</ele>
        <time>2021-08-05 12:40:09</time>
      </trkpt>
      <trkpt lat="37.07988" lon="-3.37624">
        <ele>2739.2</ele>
        <time>2021-08-05 12:40:10</time>
      </trkpt>
      <trkpt lat="37.07988" lon="-3.37623">
        <ele>2739.4</ele>
        <time>2021-08-05 12:40:11</time>
      </trkpt>
      <trkpt lat="37.07988" lon="-3.37623">
        <ele>2739.6</ele>
        <time>2021-08-05 12:40:12</time>
      </trkpt>
      <trkpt lat="37.07988" lon="-3.37623">
        <ele>2739.6</ele>
        <time>2021-08-05 12:40:13</time>
      </trkpt>
      <trkpt lat="37.07988" lon="-3.37623">
        <ele>2739.8</ele>
        <time>2021-08-05 12:40:14</time>
      </trkpt>
      <trkpt lat="37.07987" lon="-3.37624">
        <ele>2739.8</ele>
        <time>2021-08-05 12:40:15</time>
      </trkpt>
      <trkpt lat="37.07987" lon="-3.37625">
        <ele>2739.8</ele>
        <time>2021-08-05 12:40:16</time>
      </trkpt>
      <trkpt lat="37.07986" lon="-3.37625">
        <ele>2739.8</ele>
        <time>2021-08-05 12:40:17</time>
      </trkpt>
      <trkpt lat="37.07985" lon="-3.37626">
        <ele>2740</ele>
        <time>2021-08-05 12:40:18</time>
      </trkpt>
      <trkpt lat="37.07985" lon="-3.37626">
        <ele>2740.2</ele>
        <time>2021-08-05 12:40:19</time>
      </trkpt>
      <trkpt lat="37.07984" lon="-3.37626">
        <ele>2740.2</ele>
        <time>2021-08-05 12:40:20</time>
      </trkpt>
      <trkpt lat="37.07984" lon="-3.37626">
        <ele>2740.2</ele>
        <time>2021-08-05 12:40:21</time>
      </trkpt>
      <trkpt lat="37.07984" lon="-3.37625">
        <ele>2740.2</ele>
        <time>2021-08-05 12:40:22</time>
      </trkpt>
      <trkpt lat="37.07984" lon="-3.37625">
        <ele>2740.2</ele>
        <time>2021-08-05 12:40:23</time>
      </trkpt>
      <trkpt lat="37.07984" lon="-3.37625">
        <ele>2740.2</ele>
        <time>2021-08-05 12:40:24</time>
      </trkpt>
      <trkpt lat="37.07984" lon="-3.37625">
        <ele>2740.4</ele>
        <time>2021-08-05 12:40:25</time>
      </trkpt>
      <trkpt lat="37.07984" lon="-3.37625">
        <ele>2740.4</ele>
        <time>2021-08-05 12:40:26</time>
      </trkpt>
      <trkpt lat="37.07984" lon="-3.37625">
        <ele>2740.6</ele>
        <time>2021-08-05 12:40:27</time>
      </trkpt>
      <trkpt lat="37.07984" lon="-3.37625">
        <ele>2740.6</ele>
        <time>2021-08-05 12:40:28</time>
      </trkpt>
      <trkpt lat="37.07983" lon="-3.37624">
        <ele>2740.8</ele>
        <time>2021-08-05 12:40:29</time>
      </trkpt>
      <trkpt lat="37.07983" lon="-3.37624">
        <ele>2740.8</ele>
        <time>2021-08-05 12:40:30</time>
      </trkpt>
      <trkpt lat="37.07982" lon="-3.37623">
        <ele>2740.8</ele>
        <time>2021-08-05 12:40:31</time>
      </trkpt>
      <trkpt lat="37.07982" lon="-3.37621">
        <ele>2740.8</ele>
        <time>2021-08-05 12:40:32</time>
      </trkpt>
      <trkpt lat="37.07982" lon="-3.37618">
        <ele>2741</ele>
        <time>2021-08-05 12:40:33</time>
      </trkpt>
      <trkpt lat="37.07983" lon="-3.37617">
        <ele>2741</ele>
        <time>2021-08-05 12:40:34</time>
      </trkpt>
      <trkpt lat="37.07982" lon="-3.37617">
        <ele>2741</ele>
        <time>2021-08-05 12:40:35</time>
      </trkpt>
      <trkpt lat="37.07982" lon="-3.37617">
        <ele>2741</ele>
        <time>2021-08-05 12:40:36</time>
      </trkpt>
      <trkpt lat="37.07982" lon="-3.37617">
        <ele>2741</ele>
        <time>2021-08-05 12:40:37</time>
      </trkpt>
      <trkpt lat="37.07982" lon="-3.37617">
        <ele>2741.2</ele>
        <time>2021-08-05 12:40:38</time>
      </trkpt>
      <trkpt lat="37.07983" lon="-3.37617">
        <ele>2741.4</ele>
        <time>2021-08-05 12:40:39</time>
      </trkpt>
      <trkpt lat="37.07982" lon="-3.37618">
        <ele>2741.6</ele>
        <time>2021-08-05 12:40:40</time>
      </trkpt>
      <trkpt lat="37.07981" lon="-3.37618">
        <ele>2741.8</ele>
        <time>2021-08-05 12:40:41</time>
      </trkpt>
      <trkpt lat="37.07981" lon="-3.37618">
        <ele>2741.6</ele>
        <time>2021-08-05 12:40:42</time>
      </trkpt>
      <trkpt lat="37.0798" lon="-3.37617">
        <ele>2741.6</ele>
        <time>2021-08-05 12:40:43</time>
      </trkpt>
      <trkpt lat="37.0798" lon="-3.37615">
        <ele>2741.6</ele>
        <time>2021-08-05 12:40:44</time>
      </trkpt>
      <trkpt lat="37.07979" lon="-3.37614">
        <ele>2741.8</ele>
        <time>2021-08-05 12:40:45</time>
      </trkpt>
      <trkpt lat="37.07978" lon="-3.37614">
        <ele>2742</ele>
        <time>2021-08-05 12:40:46</time>
      </trkpt>
      <trkpt lat="37.07978" lon="-3.37615">
        <ele>2742</ele>
        <time>2021-08-05 12:40:47</time>
      </trkpt>
      <trkpt lat="37.07978" lon="-3.37615">
        <ele>2742</ele>
        <time>2021-08-05 12:40:48</time>
      </trkpt>
      <trkpt lat="37.07977" lon="-3.37616">
        <ele>2742.2</ele>
        <time>2021-08-05 12:40:49</time>
      </trkpt>
      <trkpt lat="37.07977" lon="-3.37616">
        <ele>2742.4</ele>
        <time>2021-08-05 12:40:50</time>
      </trkpt>
      <trkpt lat="37.07977" lon="-3.37616">
        <ele>2742.4</ele>
        <time>2021-08-05 12:40:51</time>
      </trkpt>
      <trkpt lat="37.07976" lon="-3.37616">
        <ele>2742.6</ele>
        <time>2021-08-05 12:40:52</time>
      </trkpt>
      <trkpt lat="37.07976" lon="-3.37616">
        <ele>2742.6</ele>
        <time>2021-08-05 12:40:53</time>
      </trkpt>
      <trkpt lat="37.07976" lon="-3.37616">
        <ele>2742.6</ele>
        <time>2021-08-05 12:40:54</time>
      </trkpt>
      <trkpt lat="37.07975" lon="-3.37616">
        <ele>2742.6</ele>
        <time>2021-08-05 12:40:55</time>
      </trkpt>
      <trkpt lat="37.07974" lon="-3.37617">
        <ele>2742.8</ele>
        <time>2021-08-05 12:40:56</time>
      </trkpt>
      <trkpt lat="37.07974" lon="-3.37617">
        <ele>2742.8</ele>
        <time>2021-08-05 12:40:57</time>
      </trkpt>
      <trkpt lat="37.07973" lon="-3.37614">
        <ele>2742.8</ele>
        <time>2021-08-05 12:40:58</time>
      </trkpt>
      <trkpt lat="37.07972" lon="-3.37614">
        <ele>2742.8</ele>
        <time>2021-08-05 12:40:59</time>
      </trkpt>
      <trkpt lat="37.07972" lon="-3.37613">
        <ele>2742.8</ele>
        <time>2021-08-05 12:41:00</time>
      </trkpt>
      <trkpt lat="37.07971" lon="-3.37613">
        <ele>2743</ele>
        <time>2021-08-05 12:41:01</time>
      </trkpt>
      <trkpt lat="37.07971" lon="-3.37612">
        <ele>2743</ele>
        <time>2021-08-05 12:41:02</time>
      </trkpt>
      <trkpt lat="37.0797" lon="-3.37611">
        <ele>2743.2</ele>
        <time>2021-08-05 12:41:03</time>
      </trkpt>
      <trkpt lat="37.07969" lon="-3.37611">
        <ele>2743.2</ele>
        <time>2021-08-05 12:41:04</time>
      </trkpt>
      <trkpt lat="37.07969" lon="-3.3761">
        <ele>2743.4</ele>
        <time>2021-08-05 12:41:05</time>
      </trkpt>
      <trkpt lat="37.07968" lon="-3.3761">
        <ele>2743.6</ele>
        <time>2021-08-05 12:41:06</time>
      </trkpt>
      <trkpt lat="37.07968" lon="-3.3761">
        <ele>2743.8</ele>
        <time>2021-08-05 12:41:07</time>
      </trkpt>
      <trkpt lat="37.07966" lon="-3.37609">
        <ele>2744</ele>
        <time>2021-08-05 12:41:08</time>
      </trkpt>
      <trkpt lat="37.07965" lon="-3.37612">
        <ele>2744</ele>
        <time>2021-08-05 12:41:09</time>
      </trkpt>
      <trkpt lat="37.07964" lon="-3.37613">
        <ele>2744.2</ele>
        <time>2021-08-05 12:41:10</time>
      </trkpt>
      <trkpt lat="37.07963" lon="-3.37613">
        <ele>2744.2</ele>
        <time>2021-08-05 12:41:11</time>
      </trkpt>
      <trkpt lat="37.07963" lon="-3.37613">
        <ele>2744.2</ele>
        <time>2021-08-05 12:41:12</time>
      </trkpt>
      <trkpt lat="37.07963" lon="-3.37613">
        <ele>2744.4</ele>
        <time>2021-08-05 12:41:13</time>
      </trkpt>
      <trkpt lat="37.07963" lon="-3.37612">
        <ele>2744.4</ele>
        <time>2021-08-05 12:41:14</time>
      </trkpt>
      <trkpt lat="37.07962" lon="-3.37612">
        <ele>2744.6</ele>
        <time>2021-08-05 12:41:15</time>
      </trkpt>
      <trkpt lat="37.07962" lon="-3.37612">
        <ele>2744.6</ele>
        <time>2021-08-05 12:41:16</time>
      </trkpt>
      <trkpt lat="37.07961" lon="-3.37613">
        <ele>2744.6</ele>
        <time>2021-08-05 12:41:17</time>
      </trkpt>
      <trkpt lat="37.07961" lon="-3.37613">
        <ele>2744.8</ele>
        <time>2021-08-05 12:41:18</time>
      </trkpt>
      <trkpt lat="37.0796" lon="-3.37613">
        <ele>2744.8</ele>
        <time>2021-08-05 12:41:19</time>
      </trkpt>
      <trkpt lat="37.0796" lon="-3.37612">
        <ele>2744.8</ele>
        <time>2021-08-05 12:41:20</time>
      </trkpt>
      <trkpt lat="37.0796" lon="-3.37611">
        <ele>2744.8</ele>
        <time>2021-08-05 12:41:21</time>
      </trkpt>
      <trkpt lat="37.07959" lon="-3.3761">
        <ele>2744.8</ele>
        <time>2021-08-05 12:41:22</time>
      </trkpt>
      <trkpt lat="37.07959" lon="-3.37611">
        <ele>2745</ele>
        <time>2021-08-05 12:41:23</time>
      </trkpt>
      <trkpt lat="37.07959" lon="-3.37611">
        <ele>2745.2</ele>
        <time>2021-08-05 12:41:24</time>
      </trkpt>
      <trkpt lat="37.07958" lon="-3.37611">
        <ele>2745.4</ele>
        <time>2021-08-05 12:41:25</time>
      </trkpt>
      <trkpt lat="37.07958" lon="-3.37611">
        <ele>2745.6</ele>
        <time>2021-08-05 12:41:26</time>
      </trkpt>
      <trkpt lat="37.07958" lon="-3.37611">
        <ele>2745.8</ele>
        <time>2021-08-05 12:41:27</time>
      </trkpt>
      <trkpt lat="37.07957" lon="-3.37611">
        <ele>2745.8</ele>
        <time>2021-08-05 12:41:28</time>
      </trkpt>
      <trkpt lat="37.07956" lon="-3.37611">
        <ele>2746</ele>
        <time>2021-08-05 12:41:29</time>
      </trkpt>
      <trkpt lat="37.07955" lon="-3.37611">
        <ele>2746.2</ele>
        <time>2021-08-05 12:41:30</time>
      </trkpt>
      <trkpt lat="37.07955" lon="-3.3761">
        <ele>2746.2</ele>
        <time>2021-08-05 12:41:31</time>
      </trkpt>
      <trkpt lat="37.07955" lon="-3.3761">
        <ele>2746.4</ele>
        <time>2021-08-05 12:41:32</time>
      </trkpt>
      <trkpt lat="37.07954" lon="-3.3761">
        <ele>2746.4</ele>
        <time>2021-08-05 12:41:33</time>
      </trkpt>
      <trkpt lat="37.07953" lon="-3.37609">
        <ele>2746.6</ele>
        <time>2021-08-05 12:41:34</time>
      </trkpt>
      <trkpt lat="37.07953" lon="-3.37609">
        <ele>2746.8</ele>
        <time>2021-08-05 12:41:35</time>
      </trkpt>
      <trkpt lat="37.07952" lon="-3.37609">
        <ele>2747</ele>
        <time>2021-08-05 12:41:36</time>
      </trkpt>
      <trkpt lat="37.07952" lon="-3.37609">
        <ele>2747</ele>
        <time>2021-08-05 12:41:37</time>
      </trkpt>
      <trkpt lat="37.07952" lon="-3.3761">
        <ele>2747</ele>
        <time>2021-08-05 12:41:38</time>
      </trkpt>
      <trkpt lat="37.07951" lon="-3.3761">
        <ele>2747.2</ele>
        <time>2021-08-05 12:41:39</time>
      </trkpt>
      <trkpt lat="37.07951" lon="-3.3761">
        <ele>2747.2</ele>
        <time>2021-08-05 12:41:40</time>
      </trkpt>
      <trkpt lat="37.0795" lon="-3.3761">
        <ele>2747.8</ele>
        <time>2021-08-05 12:41:41</time>
      </trkpt>
      <trkpt lat="37.0795" lon="-3.3761">
        <ele>2748</ele>
        <time>2021-08-05 12:41:42</time>
      </trkpt>
      <trkpt lat="37.0795" lon="-3.3761">
        <ele>2748.2</ele>
        <time>2021-08-05 12:41:43</time>
      </trkpt>
      <trkpt lat="37.0795" lon="-3.37609">
        <ele>2748.4</ele>
        <time>2021-08-05 12:41:44</time>
      </trkpt>
      <trkpt lat="37.07951" lon="-3.37607">
        <ele>2748.4</ele>
        <time>2021-08-05 12:41:45</time>
      </trkpt>
      <trkpt lat="37.0795" lon="-3.37606">
        <ele>2748.4</ele>
        <time>2021-08-05 12:41:46</time>
      </trkpt>
      <trkpt lat="37.07949" lon="-3.37606">
        <ele>2748.4</ele>
        <time>2021-08-05 12:41:47</time>
      </trkpt>
      <trkpt lat="37.07949" lon="-3.37606">
        <ele>2748.6</ele>
        <time>2021-08-05 12:41:48</time>
      </trkpt>
      <trkpt lat="37.07949" lon="-3.37605">
        <ele>2748.6</ele>
        <time>2021-08-05 12:41:49</time>
      </trkpt>
      <trkpt lat="37.07948" lon="-3.37605">
        <ele>2748.8</ele>
        <time>2021-08-05 12:41:50</time>
      </trkpt>
      <trkpt lat="37.07948" lon="-3.37604">
        <ele>2749</ele>
        <time>2021-08-05 12:41:51</time>
      </trkpt>
      <trkpt lat="37.07948" lon="-3.37604">
        <ele>2749.4</ele>
        <time>2021-08-05 12:41:52</time>
      </trkpt>
      <trkpt lat="37.07948" lon="-3.37605">
        <ele>2749.8</ele>
        <time>2021-08-05 12:41:53</time>
      </trkpt>
      <trkpt lat="37.07948" lon="-3.37605">
        <ele>2750</ele>
        <time>2021-08-05 12:41:54</time>
      </trkpt>
      <trkpt lat="37.07947" lon="-3.37605">
        <ele>2750</ele>
        <time>2021-08-05 12:41:55</time>
      </trkpt>
      <trkpt lat="37.07947" lon="-3.37605">
        <ele>2750</ele>
        <time>2021-08-05 12:41:56</time>
      </trkpt>
      <trkpt lat="37.07947" lon="-3.37605">
        <ele>2750.2</ele>
        <time>2021-08-05 12:41:57</time>
      </trkpt>
      <trkpt lat="37.07946" lon="-3.37604">
        <ele>2750</ele>
        <time>2021-08-05 12:41:58</time>
      </trkpt>
      <trkpt lat="37.07946" lon="-3.37604">
        <ele>2750</ele>
        <time>2021-08-05 12:41:59</time>
      </trkpt>
      <trkpt lat="37.07946" lon="-3.37604">
        <ele>2750</ele>
        <time>2021-08-05 12:42:00</time>
      </trkpt>
      <trkpt lat="37.07946" lon="-3.37603">
        <ele>2750</ele>
        <time>2021-08-05 12:42:01</time>
      </trkpt>
      <trkpt lat="37.07947" lon="-3.37602">
        <ele>2750</ele>
        <time>2021-08-05 12:42:02</time>
      </trkpt>
      <trkpt lat="37.07947" lon="-3.37601">
        <ele>2750.2</ele>
        <time>2021-08-05 12:42:03</time>
      </trkpt>
      <trkpt lat="37.07947" lon="-3.37601">
        <ele>2750.6</ele>
        <time>2021-08-05 12:42:04</time>
      </trkpt>
      <trkpt lat="37.07946" lon="-3.37601">
        <ele>2750.8</ele>
        <time>2021-08-05 12:42:05</time>
      </trkpt>
      <trkpt lat="37.07946" lon="-3.37601">
        <ele>2751</ele>
        <time>2021-08-05 12:42:06</time>
      </trkpt>
      <trkpt lat="37.07945" lon="-3.37601">
        <ele>2751.2</ele>
        <time>2021-08-05 12:42:07</time>
      </trkpt>
      <trkpt lat="37.07945" lon="-3.37601">
        <ele>2751.2</ele>
        <time>2021-08-05 12:42:08</time>
      </trkpt>
      <trkpt lat="37.07945" lon="-3.376">
        <ele>2751.4</ele>
        <time>2021-08-05 12:42:09</time>
      </trkpt>
      <trkpt lat="37.07944" lon="-3.376">
        <ele>2751.4</ele>
        <time>2021-08-05 12:42:10</time>
      </trkpt>
      <trkpt lat="37.07944" lon="-3.376">
        <ele>2751.6</ele>
        <time>2021-08-05 12:42:11</time>
      </trkpt>
      <trkpt lat="37.07943" lon="-3.376">
        <ele>2751.6</ele>
        <time>2021-08-05 12:42:12</time>
      </trkpt>
      <trkpt lat="37.07943" lon="-3.37599">
        <ele>2751.8</ele>
        <time>2021-08-05 12:42:13</time>
      </trkpt>
      <trkpt lat="37.07942" lon="-3.37599">
        <ele>2752</ele>
        <time>2021-08-05 12:42:14</time>
      </trkpt>
      <trkpt lat="37.07942" lon="-3.37598">
        <ele>2752</ele>
        <time>2021-08-05 12:42:15</time>
      </trkpt>
      <trkpt lat="37.0794" lon="-3.37597">
        <ele>2752</ele>
        <time>2021-08-05 12:42:16</time>
      </trkpt>
      <trkpt lat="37.07939" lon="-3.37596">
        <ele>2752.2</ele>
        <time>2021-08-05 12:42:17</time>
      </trkpt>
      <trkpt lat="37.07938" lon="-3.37595">
        <ele>2752.2</ele>
        <time>2021-08-05 12:42:18</time>
      </trkpt>
      <trkpt lat="37.07938" lon="-3.37595">
        <ele>2752.4</ele>
        <time>2021-08-05 12:42:19</time>
      </trkpt>
      <trkpt lat="37.07938" lon="-3.37595">
        <ele>2752.4</ele>
        <time>2021-08-05 12:42:20</time>
      </trkpt>
      <trkpt lat="37.07938" lon="-3.37594">
        <ele>2752.6</ele>
        <time>2021-08-05 12:42:21</time>
      </trkpt>
      <trkpt lat="37.07936" lon="-3.37594">
        <ele>2752.8</ele>
        <time>2021-08-05 12:42:22</time>
      </trkpt>
      <trkpt lat="37.07933" lon="-3.37593">
        <ele>2752.8</ele>
        <time>2021-08-05 12:42:23</time>
      </trkpt>
      <trkpt lat="37.07933" lon="-3.37595">
        <ele>2753</ele>
        <time>2021-08-05 12:42:24</time>
      </trkpt>
      <trkpt lat="37.07933" lon="-3.37596">
        <ele>2753</ele>
        <time>2021-08-05 12:42:25</time>
      </trkpt>
      <trkpt lat="37.07933" lon="-3.37597">
        <ele>2753.2</ele>
        <time>2021-08-05 12:42:26</time>
      </trkpt>
      <trkpt lat="37.07933" lon="-3.37597">
        <ele>2753.4</ele>
        <time>2021-08-05 12:42:27</time>
      </trkpt>
      <trkpt lat="37.07933" lon="-3.37598">
        <ele>2753.6</ele>
        <time>2021-08-05 12:42:28</time>
      </trkpt>
      <trkpt lat="37.07934" lon="-3.37598">
        <ele>2753.8</ele>
        <time>2021-08-05 12:42:29</time>
      </trkpt>
      <trkpt lat="37.07934" lon="-3.37598">
        <ele>2754</ele>
        <time>2021-08-05 12:42:30</time>
      </trkpt>
      <trkpt lat="37.07934" lon="-3.37598">
        <ele>2754.2</ele>
        <time>2021-08-05 12:42:31</time>
      </trkpt>
      <trkpt lat="37.07934" lon="-3.37598">
        <ele>2754.2</ele>
        <time>2021-08-05 12:42:32</time>
      </trkpt>
      <trkpt lat="37.07934" lon="-3.37597">
        <ele>2754.2</ele>
        <time>2021-08-05 12:42:33</time>
      </trkpt>
      <trkpt lat="37.07934" lon="-3.37597">
        <ele>2754.4</ele>
        <time>2021-08-05 12:42:34</time>
      </trkpt>
      <trkpt lat="37.07934" lon="-3.37597">
        <ele>2754.6</ele>
        <time>2021-08-05 12:42:35</time>
      </trkpt>
      <trkpt lat="37.07934" lon="-3.37597">
        <ele>2754.6</ele>
        <time>2021-08-05 12:42:36</time>
      </trkpt>
      <trkpt lat="37.07934" lon="-3.37596">
        <ele>2754.6</ele>
        <time>2021-08-05 12:42:37</time>
      </trkpt>
      <trkpt lat="37.07934" lon="-3.37595">
        <ele>2754.8</ele>
        <time>2021-08-05 12:42:38</time>
      </trkpt>
      <trkpt lat="37.07935" lon="-3.37593">
        <ele>2754.8</ele>
        <time>2021-08-05 12:42:39</time>
      </trkpt>
      <trkpt lat="37.07935" lon="-3.37592">
        <ele>2754.8</ele>
        <time>2021-08-05 12:42:40</time>
      </trkpt>
      <trkpt lat="37.07934" lon="-3.37591">
        <ele>2754.8</ele>
        <time>2021-08-05 12:42:41</time>
      </trkpt>
      <trkpt lat="37.07934" lon="-3.3759">
        <ele>2755</ele>
        <time>2021-08-05 12:42:42</time>
      </trkpt>
      <trkpt lat="37.07933" lon="-3.3759">
        <ele>2755.2</ele>
        <time>2021-08-05 12:42:43</time>
      </trkpt>
      <trkpt lat="37.07933" lon="-3.3759">
        <ele>2755.4</ele>
        <time>2021-08-05 12:42:44</time>
      </trkpt>
      <trkpt lat="37.0793" lon="-3.37588">
        <ele>2755.4</ele>
        <time>2021-08-05 12:42:45</time>
      </trkpt>
      <trkpt lat="37.0793" lon="-3.37588">
        <ele>2755.4</ele>
        <time>2021-08-05 12:42:46</time>
      </trkpt>
      <trkpt lat="37.07929" lon="-3.37588">
        <ele>2755.8</ele>
        <time>2021-08-05 12:42:47</time>
      </trkpt>
      <trkpt lat="37.07928" lon="-3.37587">
        <ele>2756</ele>
        <time>2021-08-05 12:42:48</time>
      </trkpt>
      <trkpt lat="37.07928" lon="-3.37587">
        <ele>2756</ele>
        <time>2021-08-05 12:42:49</time>
      </trkpt>
      <trkpt lat="37.07926" lon="-3.37586">
        <ele>2756.2</ele>
        <time>2021-08-05 12:42:50</time>
      </trkpt>
      <trkpt lat="37.07926" lon="-3.37586">
        <ele>2756.2</ele>
        <time>2021-08-05 12:42:51</time>
      </trkpt>
      <trkpt lat="37.07928" lon="-3.3759">
        <ele>2756.2</ele>
        <time>2021-08-05 12:42:52</time>
      </trkpt>
      <trkpt lat="37.07928" lon="-3.3759">
        <ele>2756.4</ele>
        <time>2021-08-05 12:42:53</time>
      </trkpt>
      <trkpt lat="37.07927" lon="-3.3759">
        <ele>2756.4</ele>
        <time>2021-08-05 12:42:54</time>
      </trkpt>
      <trkpt lat="37.07926" lon="-3.3759">
        <ele>2756.6</ele>
        <time>2021-08-05 12:42:55</time>
      </trkpt>
      <trkpt lat="37.07926" lon="-3.3759">
        <ele>2756.6</ele>
        <time>2021-08-05 12:42:56</time>
      </trkpt>
      <trkpt lat="37.07925" lon="-3.3759">
        <ele>2756.8</ele>
        <time>2021-08-05 12:42:57</time>
      </trkpt>
      <trkpt lat="37.07925" lon="-3.3759">
        <ele>2756.8</ele>
        <time>2021-08-05 12:42:58</time>
      </trkpt>
      <trkpt lat="37.07925" lon="-3.3759">
        <ele>2757</ele>
        <time>2021-08-05 12:42:59</time>
      </trkpt>
      <trkpt lat="37.07925" lon="-3.3759">
        <ele>2757</ele>
        <time>2021-08-05 12:43:00</time>
      </trkpt>
      <trkpt lat="37.07924" lon="-3.3759">
        <ele>2757</ele>
        <time>2021-08-05 12:43:01</time>
      </trkpt>
      <trkpt lat="37.07924" lon="-3.3759">
        <ele>2757.2</ele>
        <time>2021-08-05 12:43:02</time>
      </trkpt>
      <trkpt lat="37.07924" lon="-3.37589">
        <ele>2757.2</ele>
        <time>2021-08-05 12:43:03</time>
      </trkpt>
      <trkpt lat="37.07924" lon="-3.3759">
        <ele>2757.4</ele>
        <time>2021-08-05 12:43:04</time>
      </trkpt>
      <trkpt lat="37.07923" lon="-3.3759">
        <ele>2757.4</ele>
        <time>2021-08-05 12:43:05</time>
      </trkpt>
      <trkpt lat="37.07924" lon="-3.37591">
        <ele>2757.4</ele>
        <time>2021-08-05 12:43:06</time>
      </trkpt>
      <trkpt lat="37.07924" lon="-3.37591">
        <ele>2757.4</ele>
        <time>2021-08-05 12:43:07</time>
      </trkpt>
      <trkpt lat="37.07924" lon="-3.37591">
        <ele>2757.8</ele>
        <time>2021-08-05 12:43:08</time>
      </trkpt>
      <trkpt lat="37.07923" lon="-3.37591">
        <ele>2758.2</ele>
        <time>2021-08-05 12:43:09</time>
      </trkpt>
      <trkpt lat="37.07923" lon="-3.37589">
        <ele>2758.4</ele>
        <time>2021-08-05 12:43:10</time>
      </trkpt>
      <trkpt lat="37.07922" lon="-3.37589">
        <ele>2758.4</ele>
        <time>2021-08-05 12:43:11</time>
      </trkpt>
      <trkpt lat="37.07922" lon="-3.37588">
        <ele>2758.6</ele>
        <time>2021-08-05 12:43:12</time>
      </trkpt>
      <trkpt lat="37.07922" lon="-3.37587">
        <ele>2758.6</ele>
        <time>2021-08-05 12:43:13</time>
      </trkpt>
      <trkpt lat="37.07922" lon="-3.37587">
        <ele>2758.6</ele>
        <time>2021-08-05 12:43:14</time>
      </trkpt>
      <trkpt lat="37.07922" lon="-3.37587">
        <ele>2758.8</ele>
        <time>2021-08-05 12:43:15</time>
      </trkpt>
      <trkpt lat="37.07922" lon="-3.37586">
        <ele>2758.8</ele>
        <time>2021-08-05 12:43:16</time>
      </trkpt>
      <trkpt lat="37.07922" lon="-3.37586">
        <ele>2759</ele>
        <time>2021-08-05 12:43:17</time>
      </trkpt>
      <trkpt lat="37.07922" lon="-3.37586">
        <ele>2759</ele>
        <time>2021-08-05 12:43:18</time>
      </trkpt>
      <trkpt lat="37.07922" lon="-3.37586">
        <ele>2759.2</ele>
        <time>2021-08-05 12:43:19</time>
      </trkpt>
      <trkpt lat="37.07921" lon="-3.37585">
        <ele>2759.6</ele>
        <time>2021-08-05 12:43:20</time>
      </trkpt>
      <trkpt lat="37.07921" lon="-3.37585">
        <ele>2759.6</ele>
        <time>2021-08-05 12:43:21</time>
      </trkpt>
      <trkpt lat="37.07921" lon="-3.37585">
        <ele>2759.8</ele>
        <time>2021-08-05 12:43:22</time>
      </trkpt>
      <trkpt lat="37.0792" lon="-3.37584">
        <ele>2759.8</ele>
        <time>2021-08-05 12:43:23</time>
      </trkpt>
      <trkpt lat="37.0792" lon="-3.37584">
        <ele>2759.8</ele>
        <time>2021-08-05 12:43:24</time>
      </trkpt>
      <trkpt lat="37.07919" lon="-3.37582">
        <ele>2759.6</ele>
        <time>2021-08-05 12:43:25</time>
      </trkpt>
      <trkpt lat="37.07918" lon="-3.37581">
        <ele>2759.4</ele>
        <time>2021-08-05 12:43:26</time>
      </trkpt>
      <trkpt lat="37.07917" lon="-3.3758">
        <ele>2759.2</ele>
        <time>2021-08-05 12:43:27</time>
      </trkpt>
      <trkpt lat="37.07917" lon="-3.3758">
        <ele>2759.2</ele>
        <time>2021-08-05 12:43:28</time>
      </trkpt>
      <trkpt lat="37.07916" lon="-3.37579">
        <ele>2759.2</ele>
        <time>2021-08-05 12:43:29</time>
      </trkpt>
      <trkpt lat="37.07915" lon="-3.37579">
        <ele>2759.2</ele>
        <time>2021-08-05 12:43:30</time>
      </trkpt>
      <trkpt lat="37.07915" lon="-3.37578">
        <ele>2759.2</ele>
        <time>2021-08-05 12:43:31</time>
      </trkpt>
      <trkpt lat="37.07914" lon="-3.37578">
        <ele>2759.2</ele>
        <time>2021-08-05 12:43:32</time>
      </trkpt>
      <trkpt lat="37.07914" lon="-3.37579">
        <ele>2759.2</ele>
        <time>2021-08-05 12:43:33</time>
      </trkpt>
      <trkpt lat="37.07914" lon="-3.37579">
        <ele>2759.4</ele>
        <time>2021-08-05 12:43:34</time>
      </trkpt>
      <trkpt lat="37.07914" lon="-3.37579">
        <ele>2759.6</ele>
        <time>2021-08-05 12:43:35</time>
      </trkpt>
      <trkpt lat="37.07914" lon="-3.37579">
        <ele>2759.6</ele>
        <time>2021-08-05 12:43:36</time>
      </trkpt>
      <trkpt lat="37.07914" lon="-3.37579">
        <ele>2759.8</ele>
        <time>2021-08-05 12:43:37</time>
      </trkpt>
      <trkpt lat="37.07914" lon="-3.37579">
        <ele>2760</ele>
        <time>2021-08-05 12:43:38</time>
      </trkpt>
      <trkpt lat="37.07914" lon="-3.37579">
        <ele>2760.4</ele>
        <time>2021-08-05 12:43:39</time>
      </trkpt>
      <trkpt lat="37.07914" lon="-3.37579">
        <ele>2760.6</ele>
        <time>2021-08-05 12:43:40</time>
      </trkpt>
      <trkpt lat="37.07915" lon="-3.3758">
        <ele>2760.8</ele>
        <time>2021-08-05 12:43:41</time>
      </trkpt>
      <trkpt lat="37.07916" lon="-3.37581">
        <ele>2760.8</ele>
        <time>2021-08-05 12:43:42</time>
      </trkpt>
      <trkpt lat="37.07916" lon="-3.37581">
        <ele>2760.8</ele>
        <time>2021-08-05 12:43:43</time>
      </trkpt>
      <trkpt lat="37.07916" lon="-3.37581">
        <ele>2760.6</ele>
        <time>2021-08-05 12:43:44</time>
      </trkpt>
      <trkpt lat="37.07916" lon="-3.37581">
        <ele>2760.6</ele>
        <time>2021-08-05 12:43:45</time>
      </trkpt>
      <trkpt lat="37.07915" lon="-3.37578">
        <ele>2760.6</ele>
        <time>2021-08-05 12:43:46</time>
      </trkpt>
      <trkpt lat="37.07915" lon="-3.37578">
        <ele>2760.6</ele>
        <time>2021-08-05 12:43:47</time>
      </trkpt>
      <trkpt lat="37.07915" lon="-3.37578">
        <ele>2760.4</ele>
        <time>2021-08-05 12:43:48</time>
      </trkpt>
      <trkpt lat="37.07915" lon="-3.37577">
        <ele>2760.4</ele>
        <time>2021-08-05 12:43:49</time>
      </trkpt>
      <trkpt lat="37.07914" lon="-3.37577">
        <ele>2760.2</ele>
        <time>2021-08-05 12:43:50</time>
      </trkpt>
      <trkpt lat="37.07914" lon="-3.37577">
        <ele>2760.2</ele>
        <time>2021-08-05 12:43:51</time>
      </trkpt>
      <trkpt lat="37.07914" lon="-3.37577">
        <ele>2760</ele>
        <time>2021-08-05 12:43:52</time>
      </trkpt>
      <trkpt lat="37.07914" lon="-3.37578">
        <ele>2760</ele>
        <time>2021-08-05 12:43:53</time>
      </trkpt>
      <trkpt lat="37.07914" lon="-3.37578">
        <ele>2760</ele>
        <time>2021-08-05 12:43:54</time>
      </trkpt>
      <trkpt lat="37.07915" lon="-3.37578">
        <ele>2760</ele>
        <time>2021-08-05 12:43:55</time>
      </trkpt>
      <trkpt lat="37.07915" lon="-3.37579">
        <ele>2760</ele>
        <time>2021-08-05 12:43:56</time>
      </trkpt>
      <trkpt lat="37.07915" lon="-3.37579">
        <ele>2760</ele>
        <time>2021-08-05 12:43:57</time>
      </trkpt>
      <trkpt lat="37.07915" lon="-3.37578">
        <ele>2760</ele>
        <time>2021-08-05 12:43:58</time>
      </trkpt>
      <trkpt lat="37.07915" lon="-3.37578">
        <ele>2760</ele>
        <time>2021-08-05 12:43:59</time>
      </trkpt>
      <trkpt lat="37.07915" lon="-3.37579">
        <ele>2760.2</ele>
        <time>2021-08-05 12:44:00</time>
      </trkpt>
      <trkpt lat="37.07914" lon="-3.37578">
        <ele>2760.2</ele>
        <time>2021-08-05 12:44:01</time>
      </trkpt>
      <trkpt lat="37.07914" lon="-3.37578">
        <ele>2760.2</ele>
        <time>2021-08-05 12:44:02</time>
      </trkpt>
      <trkpt lat="37.07914" lon="-3.37578">
        <ele>2760</ele>
        <time>2021-08-05 12:44:03</time>
      </trkpt>
      <trkpt lat="37.07914" lon="-3.37578">
        <ele>2760</ele>
        <time>2021-08-05 12:44:04</time>
      </trkpt>
      <trkpt lat="37.07914" lon="-3.37578">
        <ele>2760.2</ele>
        <time>2021-08-05 12:44:05</time>
      </trkpt>
      <trkpt lat="37.07913" lon="-3.37578">
        <ele>2760.2</ele>
        <time>2021-08-05 12:44:06</time>
      </trkpt>
      <trkpt lat="37.07913" lon="-3.37578">
        <ele>2760</ele>
        <time>2021-08-05 12:44:07</time>
      </trkpt>
      <trkpt lat="37.07913" lon="-3.37577">
        <ele>2760</ele>
        <time>2021-08-05 12:44:08</time>
      </trkpt>
      <trkpt lat="37.07913" lon="-3.37577">
        <ele>2760</ele>
        <time>2021-08-05 12:44:09</time>
      </trkpt>
      <trkpt lat="37.07912" lon="-3.37577">
        <ele>2760</ele>
        <time>2021-08-05 12:44:10</time>
      </trkpt>
      <trkpt lat="37.07913" lon="-3.37578">
        <ele>2759.8</ele>
        <time>2021-08-05 12:44:11</time>
      </trkpt>
      <trkpt lat="37.07912" lon="-3.37578">
        <ele>2759.6</ele>
        <time>2021-08-05 12:44:12</time>
      </trkpt>
      <trkpt lat="37.07912" lon="-3.37578">
        <ele>2759.6</ele>
        <time>2021-08-05 12:44:13</time>
      </trkpt>
      <trkpt lat="37.07912" lon="-3.37578">
        <ele>2759.4</ele>
        <time>2021-08-05 12:44:14</time>
      </trkpt>
      <trkpt lat="37.07913" lon="-3.37577">
        <ele>2759.4</ele>
        <time>2021-08-05 12:44:15</time>
      </trkpt>
      <trkpt lat="37.07913" lon="-3.37577">
        <ele>2759.4</ele>
        <time>2021-08-05 12:44:16</time>
      </trkpt>
      <trkpt lat="37.07912" lon="-3.37579">
        <ele>2759.4</ele>
        <time>2021-08-05 12:44:17</time>
      </trkpt>
      <trkpt lat="37.07912" lon="-3.37579">
        <ele>2759.4</ele>
        <time>2021-08-05 12:44:18</time>
      </trkpt>
      <trkpt lat="37.07912" lon="-3.3758">
        <ele>2759.4</ele>
        <time>2021-08-05 12:44:19</time>
      </trkpt>
      <trkpt lat="37.07912" lon="-3.37579">
        <ele>2759.6</ele>
        <time>2021-08-05 12:44:20</time>
      </trkpt>
      <trkpt lat="37.07913" lon="-3.37579">
        <ele>2759.6</ele>
        <time>2021-08-05 12:44:21</time>
      </trkpt>
      <trkpt lat="37.07913" lon="-3.37579">
        <ele>2759.6</ele>
        <time>2021-08-05 12:44:22</time>
      </trkpt>
      <trkpt lat="37.07913" lon="-3.37579">
        <ele>2759.8</ele>
        <time>2021-08-05 12:44:23</time>
      </trkpt>
      <trkpt lat="37.07913" lon="-3.3758">
        <ele>2759.8</ele>
        <time>2021-08-05 12:44:24</time>
      </trkpt>
      <trkpt lat="37.07913" lon="-3.3758">
        <ele>2759.8</ele>
        <time>2021-08-05 12:44:25</time>
      </trkpt>
      <trkpt lat="37.07913" lon="-3.3758">
        <ele>2759.8</ele>
        <time>2021-08-05 12:44:26</time>
      </trkpt>
      <trkpt lat="37.07912" lon="-3.3758">
        <ele>2759.8</ele>
        <time>2021-08-05 12:44:27</time>
      </trkpt>
      <trkpt lat="37.07912" lon="-3.3758">
        <ele>2759.8</ele>
        <time>2021-08-05 12:44:28</time>
      </trkpt>
      <trkpt lat="37.07912" lon="-3.3758">
        <ele>2759.8</ele>
        <time>2021-08-05 12:44:29</time>
      </trkpt>
      <trkpt lat="37.07912" lon="-3.37579">
        <ele>2759.6</ele>
        <time>2021-08-05 12:44:30</time>
      </trkpt>
      <trkpt lat="37.07912" lon="-3.37579">
        <ele>2759.6</ele>
        <time>2021-08-05 12:44:31</time>
      </trkpt>
      <trkpt lat="37.07912" lon="-3.37578">
        <ele>2759.6</ele>
        <time>2021-08-05 12:44:32</time>
      </trkpt>
      <trkpt lat="37.07912" lon="-3.37578">
        <ele>2759.8</ele>
        <time>2021-08-05 12:44:33</time>
      </trkpt>
      <trkpt lat="37.07912" lon="-3.37578">
        <ele>2759.8</ele>
        <time>2021-08-05 12:44:34</time>
      </trkpt>
      <trkpt lat="37.07912" lon="-3.37578">
        <ele>2760</ele>
        <time>2021-08-05 12:44:35</time>
      </trkpt>
      <trkpt lat="37.07912" lon="-3.37578">
        <ele>2760</ele>
        <time>2021-08-05 12:44:36</time>
      </trkpt>
      <trkpt lat="37.07913" lon="-3.37578">
        <ele>2760</ele>
        <time>2021-08-05 12:44:37</time>
      </trkpt>
      <trkpt lat="37.07913" lon="-3.37579">
        <ele>2760</ele>
        <time>2021-08-05 12:44:38</time>
      </trkpt>
      <trkpt lat="37.07914" lon="-3.3758">
        <ele>2760</ele>
        <time>2021-08-05 12:44:39</time>
      </trkpt>
      <trkpt lat="37.07914" lon="-3.3758">
        <ele>2760</ele>
        <time>2021-08-05 12:44:40</time>
      </trkpt>
      <trkpt lat="37.07915" lon="-3.3758">
        <ele>2760</ele>
        <time>2021-08-05 12:44:41</time>
      </trkpt>
      <trkpt lat="37.07915" lon="-3.37581">
        <ele>2760</ele>
        <time>2021-08-05 12:44:42</time>
      </trkpt>
      <trkpt lat="37.07915" lon="-3.37581">
        <ele>2760</ele>
        <time>2021-08-05 12:44:43</time>
      </trkpt>
      <trkpt lat="37.07915" lon="-3.37581">
        <ele>2759.8</ele>
        <time>2021-08-05 12:44:44</time>
      </trkpt>
      <trkpt lat="37.07914" lon="-3.37581">
        <ele>2759.6</ele>
        <time>2021-08-05 12:44:45</time>
      </trkpt>
      <trkpt lat="37.07914" lon="-3.37581">
        <ele>2759.6</ele>
        <time>2021-08-05 12:44:46</time>
      </trkpt>
      <trkpt lat="37.07914" lon="-3.37581">
        <ele>2759.6</ele>
        <time>2021-08-05 12:44:47</time>
      </trkpt>
      <trkpt lat="37.07915" lon="-3.37581">
        <ele>2759.6</ele>
        <time>2021-08-05 12:44:48</time>
      </trkpt>
      <trkpt lat="37.07915" lon="-3.37581">
        <ele>2759.6</ele>
        <time>2021-08-05 12:44:49</time>
      </trkpt>
      <trkpt lat="37.07914" lon="-3.3758">
        <ele>2759.6</ele>
        <time>2021-08-05 12:44:50</time>
      </trkpt>
      <trkpt lat="37.07914" lon="-3.37581">
        <ele>2759.8</ele>
        <time>2021-08-05 12:44:51</time>
      </trkpt>
      <trkpt lat="37.07914" lon="-3.37581">
        <ele>2760</ele>
        <time>2021-08-05 12:44:52</time>
      </trkpt>
      <trkpt lat="37.07913" lon="-3.3758">
        <ele>2760</ele>
        <time>2021-08-05 12:44:53</time>
      </trkpt>
      <trkpt lat="37.07912" lon="-3.3758">
        <ele>2760.2</ele>
        <time>2021-08-05 12:44:54</time>
      </trkpt>
      <trkpt lat="37.07912" lon="-3.37579">
        <ele>2760.2</ele>
        <time>2021-08-05 12:44:55</time>
      </trkpt>
      <trkpt lat="37.07911" lon="-3.37578">
        <ele>2760.2</ele>
        <time>2021-08-05 12:44:56</time>
      </trkpt>
      <trkpt lat="37.07911" lon="-3.37578">
        <ele>2760.2</ele>
        <time>2021-08-05 12:44:57</time>
      </trkpt>
      <trkpt lat="37.07911" lon="-3.37577">
        <ele>2760</ele>
        <time>2021-08-05 12:44:58</time>
      </trkpt>
      <trkpt lat="37.0791" lon="-3.37577">
        <ele>2760.2</ele>
        <time>2021-08-05 12:44:59</time>
      </trkpt>
      <trkpt lat="37.0791" lon="-3.37577">
        <ele>2760.4</ele>
        <time>2021-08-05 12:45:00</time>
      </trkpt>
      <trkpt lat="37.07909" lon="-3.37577">
        <ele>2760.4</ele>
        <time>2021-08-05 12:45:01</time>
      </trkpt>
      <trkpt lat="37.07908" lon="-3.37576">
        <ele>2760.4</ele>
        <time>2021-08-05 12:45:02</time>
      </trkpt>
      <trkpt lat="37.07906" lon="-3.37577">
        <ele>2760.6</ele>
        <time>2021-08-05 12:45:03</time>
      </trkpt>
      <trkpt lat="37.07906" lon="-3.37577">
        <ele>2760.6</ele>
        <time>2021-08-05 12:45:04</time>
      </trkpt>
      <trkpt lat="37.07905" lon="-3.37576">
        <ele>2760.8</ele>
        <time>2021-08-05 12:45:05</time>
      </trkpt>
      <trkpt lat="37.07904" lon="-3.37576">
        <ele>2760.8</ele>
        <time>2021-08-05 12:45:06</time>
      </trkpt>
      <trkpt lat="37.07904" lon="-3.37574">
        <ele>2760.8</ele>
        <time>2021-08-05 12:45:07</time>
      </trkpt>
      <trkpt lat="37.07903" lon="-3.37574">
        <ele>2760.8</ele>
        <time>2021-08-05 12:45:08</time>
      </trkpt>
      <trkpt lat="37.07902" lon="-3.37573">
        <ele>2760.8</ele>
        <time>2021-08-05 12:45:09</time>
      </trkpt>
      <trkpt lat="37.07901" lon="-3.37572">
        <ele>2760.8</ele>
        <time>2021-08-05 12:45:10</time>
      </trkpt>
      <trkpt lat="37.07899" lon="-3.3757">
        <ele>2761</ele>
        <time>2021-08-05 12:45:11</time>
      </trkpt>
      <trkpt lat="37.07898" lon="-3.3757">
        <ele>2761</ele>
        <time>2021-08-05 12:45:12</time>
      </trkpt>
      <trkpt lat="37.07897" lon="-3.37569">
        <ele>2761.2</ele>
        <time>2021-08-05 12:45:13</time>
      </trkpt>
      <trkpt lat="37.07897" lon="-3.37569">
        <ele>2761.4</ele>
        <time>2021-08-05 12:45:14</time>
      </trkpt>
      <trkpt lat="37.07896" lon="-3.37568">
        <ele>2761.4</ele>
        <time>2021-08-05 12:45:15</time>
      </trkpt>
      <trkpt lat="37.07895" lon="-3.37567">
        <ele>2761.6</ele>
        <time>2021-08-05 12:45:16</time>
      </trkpt>
      <trkpt lat="37.07894" lon="-3.37567">
        <ele>2762</ele>
        <time>2021-08-05 12:45:17</time>
      </trkpt>
      <trkpt lat="37.07893" lon="-3.37566">
        <ele>2762</ele>
        <time>2021-08-05 12:45:18</time>
      </trkpt>
      <trkpt lat="37.07892" lon="-3.37566">
        <ele>2762</ele>
        <time>2021-08-05 12:45:19</time>
      </trkpt>
      <trkpt lat="37.07891" lon="-3.37568">
        <ele>2762.2</ele>
        <time>2021-08-05 12:45:20</time>
      </trkpt>
      <trkpt lat="37.0789" lon="-3.37569">
        <ele>2762.4</ele>
        <time>2021-08-05 12:45:21</time>
      </trkpt>
      <trkpt lat="37.0789" lon="-3.3757">
        <ele>2762.4</ele>
        <time>2021-08-05 12:45:22</time>
      </trkpt>
      <trkpt lat="37.07889" lon="-3.37571">
        <ele>2762.6</ele>
        <time>2021-08-05 12:45:23</time>
      </trkpt>
      <trkpt lat="37.07889" lon="-3.37572">
        <ele>2762.6</ele>
        <time>2021-08-05 12:45:24</time>
      </trkpt>
      <trkpt lat="37.07888" lon="-3.37572">
        <ele>2762.6</ele>
        <time>2021-08-05 12:45:25</time>
      </trkpt>
      <trkpt lat="37.07888" lon="-3.37573">
        <ele>2762.6</ele>
        <time>2021-08-05 12:45:26</time>
      </trkpt>
      <trkpt lat="37.07887" lon="-3.37573">
        <ele>2762.6</ele>
        <time>2021-08-05 12:45:27</time>
      </trkpt>
      <trkpt lat="37.07887" lon="-3.37574">
        <ele>2762.6</ele>
        <time>2021-08-05 12:45:28</time>
      </trkpt>
      <trkpt lat="37.07886" lon="-3.37574">
        <ele>2762.6</ele>
        <time>2021-08-05 12:45:29</time>
      </trkpt>
      <trkpt lat="37.07885" lon="-3.37574">
        <ele>2762.8</ele>
        <time>2021-08-05 12:45:30</time>
      </trkpt>
      <trkpt lat="37.07885" lon="-3.37575">
        <ele>2762.8</ele>
        <time>2021-08-05 12:45:31</time>
      </trkpt>
      <trkpt lat="37.07883" lon="-3.37574">
        <ele>2762.8</ele>
        <time>2021-08-05 12:45:32</time>
      </trkpt>
      <trkpt lat="37.07882" lon="-3.37575">
        <ele>2762.8</ele>
        <time>2021-08-05 12:45:33</time>
      </trkpt>
      <trkpt lat="37.07882" lon="-3.37575">
        <ele>2763</ele>
        <time>2021-08-05 12:45:34</time>
      </trkpt>
      <trkpt lat="37.07881" lon="-3.37575">
        <ele>2763.2</ele>
        <time>2021-08-05 12:45:35</time>
      </trkpt>
      <trkpt lat="37.07881" lon="-3.37575">
        <ele>2763.2</ele>
        <time>2021-08-05 12:45:36</time>
      </trkpt>
      <trkpt lat="37.0788" lon="-3.37576">
        <ele>2763.2</ele>
        <time>2021-08-05 12:45:37</time>
      </trkpt>
      <trkpt lat="37.0788" lon="-3.37576">
        <ele>2763.2</ele>
        <time>2021-08-05 12:45:38</time>
      </trkpt>
      <trkpt lat="37.07879" lon="-3.37576">
        <ele>2763.2</ele>
        <time>2021-08-05 12:45:39</time>
      </trkpt>
      <trkpt lat="37.07879" lon="-3.37577">
        <ele>2763.4</ele>
        <time>2021-08-05 12:45:40</time>
      </trkpt>
      <trkpt lat="37.07878" lon="-3.37577">
        <ele>2763.4</ele>
        <time>2021-08-05 12:45:41</time>
      </trkpt>
      <trkpt lat="37.07877" lon="-3.37579">
        <ele>2763.4</ele>
        <time>2021-08-05 12:45:42</time>
      </trkpt>
      <trkpt lat="37.07877" lon="-3.37579">
        <ele>2763.6</ele>
        <time>2021-08-05 12:45:43</time>
      </trkpt>
      <trkpt lat="37.07876" lon="-3.3758">
        <ele>2763.8</ele>
        <time>2021-08-05 12:45:44</time>
      </trkpt>
      <trkpt lat="37.07875" lon="-3.3758">
        <ele>2763.8</ele>
        <time>2021-08-05 12:45:45</time>
      </trkpt>
      <trkpt lat="37.07873" lon="-3.37581">
        <ele>2764</ele>
        <time>2021-08-05 12:45:46</time>
      </trkpt>
      <trkpt lat="37.07872" lon="-3.37581">
        <ele>2764</ele>
        <time>2021-08-05 12:45:47</time>
      </trkpt>
      <trkpt lat="37.07871" lon="-3.37582">
        <ele>2764</ele>
        <time>2021-08-05 12:45:48</time>
      </trkpt>
      <trkpt lat="37.0787" lon="-3.37582">
        <ele>2764</ele>
        <time>2021-08-05 12:45:49</time>
      </trkpt>
      <trkpt lat="37.07869" lon="-3.37583">
        <ele>2764</ele>
        <time>2021-08-05 12:45:50</time>
      </trkpt>
      <trkpt lat="37.07867" lon="-3.37584">
        <ele>2764</ele>
        <time>2021-08-05 12:45:51</time>
      </trkpt>
      <trkpt lat="37.07866" lon="-3.37584">
        <ele>2764.2</ele>
        <time>2021-08-05 12:45:52</time>
      </trkpt>
      <trkpt lat="37.07865" lon="-3.37584">
        <ele>2764.4</ele>
        <time>2021-08-05 12:45:53</time>
      </trkpt>
      <trkpt lat="37.07865" lon="-3.37585">
        <ele>2764.4</ele>
        <time>2021-08-05 12:45:54</time>
      </trkpt>
      <trkpt lat="37.07864" lon="-3.37585">
        <ele>2764.8</ele>
        <time>2021-08-05 12:45:55</time>
      </trkpt>
      <trkpt lat="37.07862" lon="-3.37585">
        <ele>2765</ele>
        <time>2021-08-05 12:45:56</time>
      </trkpt>
      <trkpt lat="37.07862" lon="-3.37585">
        <ele>2765.2</ele>
        <time>2021-08-05 12:45:57</time>
      </trkpt>
      <trkpt lat="37.07861" lon="-3.37585">
        <ele>2765.4</ele>
        <time>2021-08-05 12:45:58</time>
      </trkpt>
      <trkpt lat="37.07861" lon="-3.37586">
        <ele>2765.4</ele>
        <time>2021-08-05 12:45:59</time>
      </trkpt>
      <trkpt lat="37.0786" lon="-3.37586">
        <ele>2765.4</ele>
        <time>2021-08-05 12:46:00</time>
      </trkpt>
      <trkpt lat="37.0786" lon="-3.37587">
        <ele>2765.4</ele>
        <time>2021-08-05 12:46:01</time>
      </trkpt>
      <trkpt lat="37.0786" lon="-3.37587">
        <ele>2765.4</ele>
        <time>2021-08-05 12:46:02</time>
      </trkpt>
      <trkpt lat="37.07859" lon="-3.37588">
        <ele>2765.4</ele>
        <time>2021-08-05 12:46:03</time>
      </trkpt>
      <trkpt lat="37.07858" lon="-3.37589">
        <ele>2765.4</ele>
        <time>2021-08-05 12:46:04</time>
      </trkpt>
      <trkpt lat="37.07858" lon="-3.3759">
        <ele>2765.4</ele>
        <time>2021-08-05 12:46:05</time>
      </trkpt>
      <trkpt lat="37.07857" lon="-3.3759">
        <ele>2765.4</ele>
        <time>2021-08-05 12:46:06</time>
      </trkpt>
      <trkpt lat="37.07858" lon="-3.37592">
        <ele>2765.6</ele>
        <time>2021-08-05 12:46:07</time>
      </trkpt>
      <trkpt lat="37.07857" lon="-3.37592">
        <ele>2765.6</ele>
        <time>2021-08-05 12:46:08</time>
      </trkpt>
      <trkpt lat="37.07856" lon="-3.37593">
        <ele>2765.6</ele>
        <time>2021-08-05 12:46:09</time>
      </trkpt>
      <trkpt lat="37.07856" lon="-3.37594">
        <ele>2765.6</ele>
        <time>2021-08-05 12:46:10</time>
      </trkpt>
      <trkpt lat="37.07856" lon="-3.37595">
        <ele>2765.6</ele>
        <time>2021-08-05 12:46:11</time>
      </trkpt>
      <trkpt lat="37.07855" lon="-3.37595">
        <ele>2765.8</ele>
        <time>2021-08-05 12:46:12</time>
      </trkpt>
      <trkpt lat="37.07855" lon="-3.37596">
        <ele>2765.6</ele>
        <time>2021-08-05 12:46:13</time>
      </trkpt>
      <trkpt lat="37.07854" lon="-3.37597">
        <ele>2765.8</ele>
        <time>2021-08-05 12:46:14</time>
      </trkpt>
      <trkpt lat="37.07854" lon="-3.37597">
        <ele>2766</ele>
        <time>2021-08-05 12:46:15</time>
      </trkpt>
      <trkpt lat="37.07853" lon="-3.37598">
        <ele>2766.2</ele>
        <time>2021-08-05 12:46:16</time>
      </trkpt>
      <trkpt lat="37.07852" lon="-3.37599">
        <ele>2766.2</ele>
        <time>2021-08-05 12:46:17</time>
      </trkpt>
      <trkpt lat="37.07852" lon="-3.376">
        <ele>2766.4</ele>
        <time>2021-08-05 12:46:18</time>
      </trkpt>
      <trkpt lat="37.07852" lon="-3.376">
        <ele>2766.6</ele>
        <time>2021-08-05 12:46:19</time>
      </trkpt>
      <trkpt lat="37.07851" lon="-3.37601">
        <ele>2766.6</ele>
        <time>2021-08-05 12:46:20</time>
      </trkpt>
      <trkpt lat="37.07851" lon="-3.37602">
        <ele>2766.6</ele>
        <time>2021-08-05 12:46:21</time>
      </trkpt>
      <trkpt lat="37.0785" lon="-3.37603">
        <ele>2766.6</ele>
        <time>2021-08-05 12:46:22</time>
      </trkpt>
      <trkpt lat="37.0785" lon="-3.37604">
        <ele>2766.6</ele>
        <time>2021-08-05 12:46:23</time>
      </trkpt>
      <trkpt lat="37.0785" lon="-3.37604">
        <ele>2766.6</ele>
        <time>2021-08-05 12:46:24</time>
      </trkpt>
      <trkpt lat="37.0785" lon="-3.37605">
        <ele>2766.6</ele>
        <time>2021-08-05 12:46:25</time>
      </trkpt>
      <trkpt lat="37.07849" lon="-3.37605">
        <ele>2766.6</ele>
        <time>2021-08-05 12:46:26</time>
      </trkpt>
      <trkpt lat="37.07849" lon="-3.37606">
        <ele>2766.6</ele>
        <time>2021-08-05 12:46:27</time>
      </trkpt>
      <trkpt lat="37.07848" lon="-3.37607">
        <ele>2767</ele>
        <time>2021-08-05 12:46:28</time>
      </trkpt>
      <trkpt lat="37.07848" lon="-3.37608">
        <ele>2767</ele>
        <time>2021-08-05 12:46:29</time>
      </trkpt>
      <trkpt lat="37.07848" lon="-3.37609">
        <ele>2767</ele>
        <time>2021-08-05 12:46:30</time>
      </trkpt>
      <trkpt lat="37.07847" lon="-3.37611">
        <ele>2767.2</ele>
        <time>2021-08-05 12:46:31</time>
      </trkpt>
      <trkpt lat="37.07847" lon="-3.37611">
        <ele>2767.2</ele>
        <time>2021-08-05 12:46:32</time>
      </trkpt>
      <trkpt lat="37.07846" lon="-3.37612">
        <ele>2767.2</ele>
        <time>2021-08-05 12:46:33</time>
      </trkpt>
      <trkpt lat="37.07846" lon="-3.37613">
        <ele>2767.2</ele>
        <time>2021-08-05 12:46:34</time>
      </trkpt>
      <trkpt lat="37.07845" lon="-3.37614">
        <ele>2767.2</ele>
        <time>2021-08-05 12:46:35</time>
      </trkpt>
      <trkpt lat="37.07845" lon="-3.37615">
        <ele>2767.4</ele>
        <time>2021-08-05 12:46:36</time>
      </trkpt>
      <trkpt lat="37.07844" lon="-3.37616">
        <ele>2767.4</ele>
        <time>2021-08-05 12:46:37</time>
      </trkpt>
      <trkpt lat="37.07844" lon="-3.37617">
        <ele>2767.6</ele>
        <time>2021-08-05 12:46:38</time>
      </trkpt>
      <trkpt lat="37.07843" lon="-3.37618">
        <ele>2767.8</ele>
        <time>2021-08-05 12:46:39</time>
      </trkpt>
      <trkpt lat="37.07842" lon="-3.37619">
        <ele>2768</ele>
        <time>2021-08-05 12:46:40</time>
      </trkpt>
      <trkpt lat="37.07842" lon="-3.3762">
        <ele>2768</ele>
        <time>2021-08-05 12:46:41</time>
      </trkpt>
      <trkpt lat="37.07841" lon="-3.37621">
        <ele>2768</ele>
        <time>2021-08-05 12:46:42</time>
      </trkpt>
      <trkpt lat="37.07841" lon="-3.37622">
        <ele>2768.2</ele>
        <time>2021-08-05 12:46:43</time>
      </trkpt>
      <trkpt lat="37.0784" lon="-3.37623">
        <ele>2768.2</ele>
        <time>2021-08-05 12:46:44</time>
      </trkpt>
      <trkpt lat="37.0784" lon="-3.37623">
        <ele>2768</ele>
        <time>2021-08-05 12:46:45</time>
      </trkpt>
      <trkpt lat="37.07839" lon="-3.37624">
        <ele>2768</ele>
        <time>2021-08-05 12:46:46</time>
      </trkpt>
      <trkpt lat="37.07839" lon="-3.37625">
        <ele>2768</ele>
        <time>2021-08-05 12:46:47</time>
      </trkpt>
      <trkpt lat="37.07838" lon="-3.37625">
        <ele>2768</ele>
        <time>2021-08-05 12:46:48</time>
      </trkpt>
      <trkpt lat="37.07838" lon="-3.37626">
        <ele>2768</ele>
        <time>2021-08-05 12:46:49</time>
      </trkpt>
      <trkpt lat="37.07837" lon="-3.37627">
        <ele>2768</ele>
        <time>2021-08-05 12:46:50</time>
      </trkpt>
      <trkpt lat="37.07837" lon="-3.37628">
        <ele>2768</ele>
        <time>2021-08-05 12:46:51</time>
      </trkpt>
      <trkpt lat="37.07837" lon="-3.37629">
        <ele>2768.4</ele>
        <time>2021-08-05 12:46:52</time>
      </trkpt>
      <trkpt lat="37.07836" lon="-3.37629">
        <ele>2768.4</ele>
        <time>2021-08-05 12:46:53</time>
      </trkpt>
      <trkpt lat="37.07836" lon="-3.3763">
        <ele>2768.6</ele>
        <time>2021-08-05 12:46:54</time>
      </trkpt>
      <trkpt lat="37.07836" lon="-3.37631">
        <ele>2768.6</ele>
        <time>2021-08-05 12:46:55</time>
      </trkpt>
      <trkpt lat="37.07835" lon="-3.37631">
        <ele>2768.8</ele>
        <time>2021-08-05 12:46:56</time>
      </trkpt>
      <trkpt lat="37.07835" lon="-3.37632">
        <ele>2768.8</ele>
        <time>2021-08-05 12:46:57</time>
      </trkpt>
      <trkpt lat="37.07834" lon="-3.37633">
        <ele>2768.8</ele>
        <time>2021-08-05 12:46:58</time>
      </trkpt>
      <trkpt lat="37.07834" lon="-3.37633">
        <ele>2769.2</ele>
        <time>2021-08-05 12:46:59</time>
      </trkpt>
      <trkpt lat="37.07834" lon="-3.37634">
        <ele>2769.2</ele>
        <time>2021-08-05 12:47:00</time>
      </trkpt>
      <trkpt lat="37.07833" lon="-3.37636">
        <ele>2769.4</ele>
        <time>2021-08-05 12:47:01</time>
      </trkpt>
      <trkpt lat="37.07834" lon="-3.37636">
        <ele>2769.4</ele>
        <time>2021-08-05 12:47:02</time>
      </trkpt>
      <trkpt lat="37.07834" lon="-3.37637">
        <ele>2769.4</ele>
        <time>2021-08-05 12:47:03</time>
      </trkpt>
      <trkpt lat="37.07834" lon="-3.37637">
        <ele>2769.6</ele>
        <time>2021-08-05 12:47:04</time>
      </trkpt>
      <trkpt lat="37.07834" lon="-3.37637">
        <ele>2769.6</ele>
        <time>2021-08-05 12:47:05</time>
      </trkpt>
      <trkpt lat="37.07834" lon="-3.37637">
        <ele>2769.6</ele>
        <time>2021-08-05 12:47:06</time>
      </trkpt>
      <trkpt lat="37.07833" lon="-3.37637">
        <ele>2769.6</ele>
        <time>2021-08-05 12:47:07</time>
      </trkpt>
      <trkpt lat="37.07833" lon="-3.37638">
        <ele>2769.8</ele>
        <time>2021-08-05 12:47:08</time>
      </trkpt>
      <trkpt lat="37.07832" lon="-3.37639">
        <ele>2769.8</ele>
        <time>2021-08-05 12:47:09</time>
      </trkpt>
      <trkpt lat="37.07832" lon="-3.3764">
        <ele>2769.8</ele>
        <time>2021-08-05 12:47:10</time>
      </trkpt>
      <trkpt lat="37.07832" lon="-3.37641">
        <ele>2769.8</ele>
        <time>2021-08-05 12:47:11</time>
      </trkpt>
      <trkpt lat="37.07832" lon="-3.37643">
        <ele>2769.8</ele>
        <time>2021-08-05 12:47:12</time>
      </trkpt>
      <trkpt lat="37.07831" lon="-3.37644">
        <ele>2770</ele>
        <time>2021-08-05 12:47:13</time>
      </trkpt>
      <trkpt lat="37.07831" lon="-3.37645">
        <ele>2770</ele>
        <time>2021-08-05 12:47:14</time>
      </trkpt>
      <trkpt lat="37.07831" lon="-3.37647">
        <ele>2770</ele>
        <time>2021-08-05 12:47:15</time>
      </trkpt>
      <trkpt lat="37.07831" lon="-3.37648">
        <ele>2770</ele>
        <time>2021-08-05 12:47:16</time>
      </trkpt>
      <trkpt lat="37.07831" lon="-3.37649">
        <ele>2770.2</ele>
        <time>2021-08-05 12:47:17</time>
      </trkpt>
      <trkpt lat="37.0783" lon="-3.3765">
        <ele>2770.2</ele>
        <time>2021-08-05 12:47:18</time>
      </trkpt>
      <trkpt lat="37.07829" lon="-3.3765">
        <ele>2770.2</ele>
        <time>2021-08-05 12:47:19</time>
      </trkpt>
      <trkpt lat="37.07829" lon="-3.3765">
        <ele>2770.4</ele>
        <time>2021-08-05 12:47:20</time>
      </trkpt>
      <trkpt lat="37.07827" lon="-3.3765">
        <ele>2770.4</ele>
        <time>2021-08-05 12:47:21</time>
      </trkpt>
      <trkpt lat="37.07826" lon="-3.3765">
        <ele>2770.4</ele>
        <time>2021-08-05 12:47:22</time>
      </trkpt>
      <trkpt lat="37.07825" lon="-3.37651">
        <ele>2770.6</ele>
        <time>2021-08-05 12:47:23</time>
      </trkpt>
      <trkpt lat="37.07825" lon="-3.37651">
        <ele>2770.8</ele>
        <time>2021-08-05 12:47:24</time>
      </trkpt>
      <trkpt lat="37.07825" lon="-3.37652">
        <ele>2770.8</ele>
        <time>2021-08-05 12:47:25</time>
      </trkpt>
      <trkpt lat="37.07824" lon="-3.37653">
        <ele>2770.8</ele>
        <time>2021-08-05 12:47:26</time>
      </trkpt>
      <trkpt lat="37.07823" lon="-3.37654">
        <ele>2771</ele>
        <time>2021-08-05 12:47:27</time>
      </trkpt>
      <trkpt lat="37.07823" lon="-3.37655">
        <ele>2771</ele>
        <time>2021-08-05 12:47:28</time>
      </trkpt>
      <trkpt lat="37.07823" lon="-3.37656">
        <ele>2771.2</ele>
        <time>2021-08-05 12:47:29</time>
      </trkpt>
      <trkpt lat="37.07822" lon="-3.37657">
        <ele>2771.2</ele>
        <time>2021-08-05 12:47:30</time>
      </trkpt>
      <trkpt lat="37.07821" lon="-3.37658">
        <ele>2771.2</ele>
        <time>2021-08-05 12:47:31</time>
      </trkpt>
      <trkpt lat="37.07821" lon="-3.37659">
        <ele>2771.2</ele>
        <time>2021-08-05 12:47:32</time>
      </trkpt>
      <trkpt lat="37.0782" lon="-3.3766">
        <ele>2771.4</ele>
        <time>2021-08-05 12:47:33</time>
      </trkpt>
      <trkpt lat="37.0782" lon="-3.37661">
        <ele>2771.4</ele>
        <time>2021-08-05 12:47:34</time>
      </trkpt>
      <trkpt lat="37.0782" lon="-3.37662">
        <ele>2771.6</ele>
        <time>2021-08-05 12:47:35</time>
      </trkpt>
      <trkpt lat="37.0782" lon="-3.37663">
        <ele>2771.8</ele>
        <time>2021-08-05 12:47:36</time>
      </trkpt>
      <trkpt lat="37.0782" lon="-3.37664">
        <ele>2771.8</ele>
        <time>2021-08-05 12:47:37</time>
      </trkpt>
      <trkpt lat="37.0782" lon="-3.37664">
        <ele>2771.8</ele>
        <time>2021-08-05 12:47:38</time>
      </trkpt>
      <trkpt lat="37.07819" lon="-3.37665">
        <ele>2772</ele>
        <time>2021-08-05 12:47:39</time>
      </trkpt>
      <trkpt lat="37.07819" lon="-3.37665">
        <ele>2772</ele>
        <time>2021-08-05 12:47:40</time>
      </trkpt>
      <trkpt lat="37.07819" lon="-3.37666">
        <ele>2772</ele>
        <time>2021-08-05 12:47:41</time>
      </trkpt>
      <trkpt lat="37.07818" lon="-3.37667">
        <ele>2772</ele>
        <time>2021-08-05 12:47:42</time>
      </trkpt>
      <trkpt lat="37.07818" lon="-3.37667">
        <ele>2772.2</ele>
        <time>2021-08-05 12:47:43</time>
      </trkpt>
      <trkpt lat="37.07818" lon="-3.37668">
        <ele>2772.2</ele>
        <time>2021-08-05 12:47:44</time>
      </trkpt>
      <trkpt lat="37.07817" lon="-3.37669">
        <ele>2772.2</ele>
        <time>2021-08-05 12:47:45</time>
      </trkpt>
      <trkpt lat="37.07816" lon="-3.37669">
        <ele>2772.2</ele>
        <time>2021-08-05 12:47:46</time>
      </trkpt>
      <trkpt lat="37.07816" lon="-3.37668">
        <ele>2772.6</ele>
        <time>2021-08-05 12:47:47</time>
      </trkpt>
      <trkpt lat="37.07816" lon="-3.37667">
        <ele>2772.6</ele>
        <time>2021-08-05 12:47:48</time>
      </trkpt>
      <trkpt lat="37.07816" lon="-3.37667">
        <ele>2772.8</ele>
        <time>2021-08-05 12:47:49</time>
      </trkpt>
      <trkpt lat="37.07816" lon="-3.37667">
        <ele>2773</ele>
        <time>2021-08-05 12:47:50</time>
      </trkpt>
      <trkpt lat="37.07816" lon="-3.37667">
        <ele>2773</ele>
        <time>2021-08-05 12:47:51</time>
      </trkpt>
      <trkpt lat="37.07816" lon="-3.37667">
        <ele>2773</ele>
        <time>2021-08-05 12:47:52</time>
      </trkpt>
      <trkpt lat="37.07816" lon="-3.37667">
        <ele>2773</ele>
        <time>2021-08-05 12:47:53</time>
      </trkpt>
      <trkpt lat="37.07817" lon="-3.37668">
        <ele>2773</ele>
        <time>2021-08-05 12:47:54</time>
      </trkpt>
      <trkpt lat="37.07816" lon="-3.37668">
        <ele>2773.2</ele>
        <time>2021-08-05 12:47:55</time>
      </trkpt>
      <trkpt lat="37.07816" lon="-3.37668">
        <ele>2773.2</ele>
        <time>2021-08-05 12:47:56</time>
      </trkpt>
      <trkpt lat="37.07815" lon="-3.37668">
        <ele>2773</ele>
        <time>2021-08-05 12:47:57</time>
      </trkpt>
      <trkpt lat="37.07814" lon="-3.37668">
        <ele>2772.8</ele>
        <time>2021-08-05 12:47:58</time>
      </trkpt>
      <trkpt lat="37.07814" lon="-3.37669">
        <ele>2772.8</ele>
        <time>2021-08-05 12:47:59</time>
      </trkpt>
      <trkpt lat="37.07813" lon="-3.37669">
        <ele>2772.6</ele>
        <time>2021-08-05 12:48:00</time>
      </trkpt>
      <trkpt lat="37.07813" lon="-3.3767">
        <ele>2772.6</ele>
        <time>2021-08-05 12:48:01</time>
      </trkpt>
      <trkpt lat="37.07812" lon="-3.3767">
        <ele>2772.6</ele>
        <time>2021-08-05 12:48:02</time>
      </trkpt>
      <trkpt lat="37.07812" lon="-3.3767">
        <ele>2772.6</ele>
        <time>2021-08-05 12:48:03</time>
      </trkpt>
      <trkpt lat="37.07811" lon="-3.37671">
        <ele>2772.6</ele>
        <time>2021-08-05 12:48:04</time>
      </trkpt>
      <trkpt lat="37.0781" lon="-3.37671">
        <ele>2772.8</ele>
        <time>2021-08-05 12:48:05</time>
      </trkpt>
      <trkpt lat="37.0781" lon="-3.37672">
        <ele>2773</ele>
        <time>2021-08-05 12:48:06</time>
      </trkpt>
      <trkpt lat="37.07809" lon="-3.37672">
        <ele>2773.2</ele>
        <time>2021-08-05 12:48:07</time>
      </trkpt>
      <trkpt lat="37.07808" lon="-3.37673">
        <ele>2773</ele>
        <time>2021-08-05 12:48:08</time>
      </trkpt>
      <trkpt lat="37.07808" lon="-3.37673">
        <ele>2773.2</ele>
        <time>2021-08-05 12:48:09</time>
      </trkpt>
      <trkpt lat="37.07806" lon="-3.37673">
        <ele>2773.4</ele>
        <time>2021-08-05 12:48:10</time>
      </trkpt>
      <trkpt lat="37.07804" lon="-3.37673">
        <ele>2773.4</ele>
        <time>2021-08-05 12:48:11</time>
      </trkpt>
      <trkpt lat="37.07803" lon="-3.37673">
        <ele>2773.4</ele>
        <time>2021-08-05 12:48:12</time>
      </trkpt>
      <trkpt lat="37.07799" lon="-3.37671">
        <ele>2773.6</ele>
        <time>2021-08-05 12:48:13</time>
      </trkpt>
      <trkpt lat="37.07799" lon="-3.37671">
        <ele>2773.6</ele>
        <time>2021-08-05 12:48:14</time>
      </trkpt>
      <trkpt lat="37.07798" lon="-3.37671">
        <ele>2773.6</ele>
        <time>2021-08-05 12:48:15</time>
      </trkpt>
      <trkpt lat="37.07797" lon="-3.37672">
        <ele>2773.6</ele>
        <time>2021-08-05 12:48:16</time>
      </trkpt>
      <trkpt lat="37.07798" lon="-3.37673">
        <ele>2773.8</ele>
        <time>2021-08-05 12:48:17</time>
      </trkpt>
      <trkpt lat="37.07799" lon="-3.37674">
        <ele>2773.8</ele>
        <time>2021-08-05 12:48:18</time>
      </trkpt>
      <trkpt lat="37.07798" lon="-3.37674">
        <ele>2774</ele>
        <time>2021-08-05 12:48:19</time>
      </trkpt>
      <trkpt lat="37.07798" lon="-3.37674">
        <ele>2774</ele>
        <time>2021-08-05 12:48:20</time>
      </trkpt>
      <trkpt lat="37.07798" lon="-3.37674">
        <ele>2774</ele>
        <time>2021-08-05 12:48:21</time>
      </trkpt>
      <trkpt lat="37.07798" lon="-3.37674">
        <ele>2774</ele>
        <time>2021-08-05 12:48:22</time>
      </trkpt>
      <trkpt lat="37.07798" lon="-3.37673">
        <ele>2774</ele>
        <time>2021-08-05 12:48:23</time>
      </trkpt>
      <trkpt lat="37.07797" lon="-3.37673">
        <ele>2774</ele>
        <time>2021-08-05 12:48:24</time>
      </trkpt>
      <trkpt lat="37.07796" lon="-3.37673">
        <ele>2774</ele>
        <time>2021-08-05 12:48:25</time>
      </trkpt>
      <trkpt lat="37.07795" lon="-3.37675">
        <ele>2773.8</ele>
        <time>2021-08-05 12:48:26</time>
      </trkpt>
      <trkpt lat="37.07795" lon="-3.37676">
        <ele>2773.8</ele>
        <time>2021-08-05 12:48:27</time>
      </trkpt>
      <trkpt lat="37.07794" lon="-3.37676">
        <ele>2773.8</ele>
        <time>2021-08-05 12:48:28</time>
      </trkpt>
      <trkpt lat="37.07794" lon="-3.37676">
        <ele>2773.8</ele>
        <time>2021-08-05 12:48:29</time>
      </trkpt>
      <trkpt lat="37.07794" lon="-3.37677">
        <ele>2773.8</ele>
        <time>2021-08-05 12:48:30</time>
      </trkpt>
      <trkpt lat="37.07794" lon="-3.37678">
        <ele>2773.8</ele>
        <time>2021-08-05 12:48:31</time>
      </trkpt>
      <trkpt lat="37.07794" lon="-3.37679">
        <ele>2773.8</ele>
        <time>2021-08-05 12:48:32</time>
      </trkpt>
      <trkpt lat="37.07794" lon="-3.37679">
        <ele>2773.8</ele>
        <time>2021-08-05 12:48:33</time>
      </trkpt>
      <trkpt lat="37.07794" lon="-3.3768">
        <ele>2773.6</ele>
        <time>2021-08-05 12:48:34</time>
      </trkpt>
      <trkpt lat="37.07793" lon="-3.37681">
        <ele>2773.6</ele>
        <time>2021-08-05 12:48:35</time>
      </trkpt>
      <trkpt lat="37.07792" lon="-3.37681">
        <ele>2773.8</ele>
        <time>2021-08-05 12:48:36</time>
      </trkpt>
      <trkpt lat="37.07792" lon="-3.37681">
        <ele>2773.8</ele>
        <time>2021-08-05 12:48:37</time>
      </trkpt>
      <trkpt lat="37.07791" lon="-3.37681">
        <ele>2774</ele>
        <time>2021-08-05 12:48:38</time>
      </trkpt>
      <trkpt lat="37.0779" lon="-3.37681">
        <ele>2774.2</ele>
        <time>2021-08-05 12:48:39</time>
      </trkpt>
      <trkpt lat="37.0779" lon="-3.37682">
        <ele>2774.4</ele>
        <time>2021-08-05 12:48:40</time>
      </trkpt>
      <trkpt lat="37.0779" lon="-3.37682">
        <ele>2774.6</ele>
        <time>2021-08-05 12:48:41</time>
      </trkpt>
      <trkpt lat="37.07789" lon="-3.37682">
        <ele>2774.6</ele>
        <time>2021-08-05 12:48:42</time>
      </trkpt>
      <trkpt lat="37.07789" lon="-3.37682">
        <ele>2774.6</ele>
        <time>2021-08-05 12:48:43</time>
      </trkpt>
      <trkpt lat="37.07788" lon="-3.37682">
        <ele>2774.6</ele>
        <time>2021-08-05 12:48:44</time>
      </trkpt>
      <trkpt lat="37.07787" lon="-3.37682">
        <ele>2774.6</ele>
        <time>2021-08-05 12:48:45</time>
      </trkpt>
      <trkpt lat="37.07786" lon="-3.37682">
        <ele>2774.6</ele>
        <time>2021-08-05 12:48:46</time>
      </trkpt>
      <trkpt lat="37.07786" lon="-3.37683">
        <ele>2774.6</ele>
        <time>2021-08-05 12:48:47</time>
      </trkpt>
      <trkpt lat="37.07786" lon="-3.37683">
        <ele>2774.4</ele>
        <time>2021-08-05 12:48:48</time>
      </trkpt>
      <trkpt lat="37.07785" lon="-3.37684">
        <ele>2774.6</ele>
        <time>2021-08-05 12:48:49</time>
      </trkpt>
      <trkpt lat="37.07785" lon="-3.37684">
        <ele>2774.6</ele>
        <time>2021-08-05 12:48:50</time>
      </trkpt>
      <trkpt lat="37.07784" lon="-3.37685">
        <ele>2774.6</ele>
        <time>2021-08-05 12:48:51</time>
      </trkpt>
      <trkpt lat="37.07783" lon="-3.37685">
        <ele>2774.6</ele>
        <time>2021-08-05 12:48:52</time>
      </trkpt>
      <trkpt lat="37.07783" lon="-3.37686">
        <ele>2774.6</ele>
        <time>2021-08-05 12:48:53</time>
      </trkpt>
      <trkpt lat="37.07782" lon="-3.37687">
        <ele>2774.6</ele>
        <time>2021-08-05 12:48:54</time>
      </trkpt>
      <trkpt lat="37.07781" lon="-3.37687">
        <ele>2774.4</ele>
        <time>2021-08-05 12:48:55</time>
      </trkpt>
      <trkpt lat="37.0778" lon="-3.37688">
        <ele>2774.4</ele>
        <time>2021-08-05 12:48:56</time>
      </trkpt>
      <trkpt lat="37.0778" lon="-3.37688">
        <ele>2774.4</ele>
        <time>2021-08-05 12:48:57</time>
      </trkpt>
      <trkpt lat="37.07779" lon="-3.37688">
        <ele>2774.4</ele>
        <time>2021-08-05 12:48:58</time>
      </trkpt>
      <trkpt lat="37.07778" lon="-3.37689">
        <ele>2774.4</ele>
        <time>2021-08-05 12:48:59</time>
      </trkpt>
      <trkpt lat="37.07777" lon="-3.37689">
        <ele>2774.6</ele>
        <time>2021-08-05 12:49:00</time>
      </trkpt>
      <trkpt lat="37.07776" lon="-3.37689">
        <ele>2774.6</ele>
        <time>2021-08-05 12:49:01</time>
      </trkpt>
      <trkpt lat="37.07775" lon="-3.37689">
        <ele>2774.8</ele>
        <time>2021-08-05 12:49:02</time>
      </trkpt>
      <trkpt lat="37.07774" lon="-3.37689">
        <ele>2774.8</ele>
        <time>2021-08-05 12:49:03</time>
      </trkpt>
      <trkpt lat="37.07773" lon="-3.37689">
        <ele>2774.8</ele>
        <time>2021-08-05 12:49:04</time>
      </trkpt>
      <trkpt lat="37.07772" lon="-3.37689">
        <ele>2774.8</ele>
        <time>2021-08-05 12:49:05</time>
      </trkpt>
      <trkpt lat="37.07771" lon="-3.37689">
        <ele>2775</ele>
        <time>2021-08-05 12:49:06</time>
      </trkpt>
      <trkpt lat="37.07771" lon="-3.37689">
        <ele>2775</ele>
        <time>2021-08-05 12:49:07</time>
      </trkpt>
      <trkpt lat="37.0777" lon="-3.3769">
        <ele>2775</ele>
        <time>2021-08-05 12:49:08</time>
      </trkpt>
      <trkpt lat="37.0777" lon="-3.3769">
        <ele>2774.8</ele>
        <time>2021-08-05 12:49:09</time>
      </trkpt>
      <trkpt lat="37.07769" lon="-3.3769">
        <ele>2774.8</ele>
        <time>2021-08-05 12:49:10</time>
      </trkpt>
      <trkpt lat="37.07768" lon="-3.37691">
        <ele>2775</ele>
        <time>2021-08-05 12:49:11</time>
      </trkpt>
      <trkpt lat="37.07768" lon="-3.37691">
        <ele>2775</ele>
        <time>2021-08-05 12:49:12</time>
      </trkpt>
      <trkpt lat="37.07767" lon="-3.37691">
        <ele>2775.2</ele>
        <time>2021-08-05 12:49:13</time>
      </trkpt>
      <trkpt lat="37.07766" lon="-3.37692">
        <ele>2775.4</ele>
        <time>2021-08-05 12:49:14</time>
      </trkpt>
      <trkpt lat="37.07765" lon="-3.37692">
        <ele>2775.4</ele>
        <time>2021-08-05 12:49:15</time>
      </trkpt>
      <trkpt lat="37.07764" lon="-3.37692">
        <ele>2775.6</ele>
        <time>2021-08-05 12:49:16</time>
      </trkpt>
      <trkpt lat="37.07763" lon="-3.37692">
        <ele>2775.6</ele>
        <time>2021-08-05 12:49:17</time>
      </trkpt>
      <trkpt lat="37.07762" lon="-3.37693">
        <ele>2775.6</ele>
        <time>2021-08-05 12:49:18</time>
      </trkpt>
      <trkpt lat="37.07762" lon="-3.37693">
        <ele>2775.8</ele>
        <time>2021-08-05 12:49:19</time>
      </trkpt>
      <trkpt lat="37.07761" lon="-3.37694">
        <ele>2775.8</ele>
        <time>2021-08-05 12:49:20</time>
      </trkpt>
      <trkpt lat="37.07761" lon="-3.37694">
        <ele>2776</ele>
        <time>2021-08-05 12:49:21</time>
      </trkpt>
      <trkpt lat="37.07761" lon="-3.37695">
        <ele>2776.2</ele>
        <time>2021-08-05 12:49:22</time>
      </trkpt>
      <trkpt lat="37.0776" lon="-3.37695">
        <ele>2776.2</ele>
        <time>2021-08-05 12:49:23</time>
      </trkpt>
      <trkpt lat="37.0776" lon="-3.37695">
        <ele>2776.4</ele>
        <time>2021-08-05 12:49:24</time>
      </trkpt>
      <trkpt lat="37.0776" lon="-3.37696">
        <ele>2776.4</ele>
        <time>2021-08-05 12:49:25</time>
      </trkpt>
      <trkpt lat="37.0776" lon="-3.37696">
        <ele>2776.6</ele>
        <time>2021-08-05 12:49:26</time>
      </trkpt>
      <trkpt lat="37.0776" lon="-3.37696">
        <ele>2776.4</ele>
        <time>2021-08-05 12:49:27</time>
      </trkpt>
      <trkpt lat="37.0776" lon="-3.37696">
        <ele>2776.2</ele>
        <time>2021-08-05 12:49:28</time>
      </trkpt>
      <trkpt lat="37.07759" lon="-3.37697">
        <ele>2776.4</ele>
        <time>2021-08-05 12:49:29</time>
      </trkpt>
      <trkpt lat="37.07759" lon="-3.37697">
        <ele>2776.4</ele>
        <time>2021-08-05 12:49:30</time>
      </trkpt>
      <trkpt lat="37.07758" lon="-3.37698">
        <ele>2776.4</ele>
        <time>2021-08-05 12:49:31</time>
      </trkpt>
      <trkpt lat="37.07757" lon="-3.37699">
        <ele>2776.4</ele>
        <time>2021-08-05 12:49:32</time>
      </trkpt>
      <trkpt lat="37.07757" lon="-3.37699">
        <ele>2776.4</ele>
        <time>2021-08-05 12:49:33</time>
      </trkpt>
      <trkpt lat="37.07756" lon="-3.377">
        <ele>2776.6</ele>
        <time>2021-08-05 12:49:34</time>
      </trkpt>
      <trkpt lat="37.07756" lon="-3.377">
        <ele>2777</ele>
        <time>2021-08-05 12:49:35</time>
      </trkpt>
      <trkpt lat="37.07756" lon="-3.377">
        <ele>2777</ele>
        <time>2021-08-05 12:49:36</time>
      </trkpt>
      <trkpt lat="37.07755" lon="-3.377">
        <ele>2777.2</ele>
        <time>2021-08-05 12:49:37</time>
      </trkpt>
      <trkpt lat="37.07754" lon="-3.377">
        <ele>2777.2</ele>
        <time>2021-08-05 12:49:38</time>
      </trkpt>
      <trkpt lat="37.07753" lon="-3.377">
        <ele>2777.4</ele>
        <time>2021-08-05 12:49:39</time>
      </trkpt>
      <trkpt lat="37.07753" lon="-3.37701">
        <ele>2777.4</ele>
        <time>2021-08-05 12:49:40</time>
      </trkpt>
      <trkpt lat="37.07752" lon="-3.37701">
        <ele>2777.4</ele>
        <time>2021-08-05 12:49:41</time>
      </trkpt>
      <trkpt lat="37.07751" lon="-3.37701">
        <ele>2777.4</ele>
        <time>2021-08-05 12:49:42</time>
      </trkpt>
      <trkpt lat="37.07751" lon="-3.37701">
        <ele>2777.4</ele>
        <time>2021-08-05 12:49:43</time>
      </trkpt>
      <trkpt lat="37.0775" lon="-3.37701">
        <ele>2777.4</ele>
        <time>2021-08-05 12:49:44</time>
      </trkpt>
      <trkpt lat="37.07749" lon="-3.37701">
        <ele>2777.4</ele>
        <time>2021-08-05 12:49:45</time>
      </trkpt>
      <trkpt lat="37.07749" lon="-3.37702">
        <ele>2777.4</ele>
        <time>2021-08-05 12:49:46</time>
      </trkpt>
      <trkpt lat="37.07748" lon="-3.37702">
        <ele>2777.2</ele>
        <time>2021-08-05 12:49:47</time>
      </trkpt>
      <trkpt lat="37.07748" lon="-3.37702">
        <ele>2777.8</ele>
        <time>2021-08-05 12:49:48</time>
      </trkpt>
      <trkpt lat="37.07747" lon="-3.37702">
        <ele>2778</ele>
        <time>2021-08-05 12:49:49</time>
      </trkpt>
      <trkpt lat="37.07747" lon="-3.37703">
        <ele>2778.2</ele>
        <time>2021-08-05 12:49:50</time>
      </trkpt>
      <trkpt lat="37.07747" lon="-3.37704">
        <ele>2778.2</ele>
        <time>2021-08-05 12:49:51</time>
      </trkpt>
      <trkpt lat="37.07746" lon="-3.37704">
        <ele>2778.2</ele>
        <time>2021-08-05 12:49:52</time>
      </trkpt>
      <trkpt lat="37.07746" lon="-3.37705">
        <ele>2778</ele>
        <time>2021-08-05 12:49:53</time>
      </trkpt>
      <trkpt lat="37.07746" lon="-3.37706">
        <ele>2777.8</ele>
        <time>2021-08-05 12:49:54</time>
      </trkpt>
      <trkpt lat="37.07746" lon="-3.37706">
        <ele>2777.8</ele>
        <time>2021-08-05 12:49:55</time>
      </trkpt>
      <trkpt lat="37.07745" lon="-3.37707">
        <ele>2777.8</ele>
        <time>2021-08-05 12:49:56</time>
      </trkpt>
      <trkpt lat="37.07744" lon="-3.37707">
        <ele>2777.8</ele>
        <time>2021-08-05 12:49:57</time>
      </trkpt>
      <trkpt lat="37.07743" lon="-3.37708">
        <ele>2777.8</ele>
        <time>2021-08-05 12:49:58</time>
      </trkpt>
      <trkpt lat="37.07743" lon="-3.37708">
        <ele>2777.8</ele>
        <time>2021-08-05 12:49:59</time>
      </trkpt>
      <trkpt lat="37.07742" lon="-3.37709">
        <ele>2777.8</ele>
        <time>2021-08-05 12:50:00</time>
      </trkpt>
      <trkpt lat="37.07741" lon="-3.3771">
        <ele>2777.8</ele>
        <time>2021-08-05 12:50:01</time>
      </trkpt>
      <trkpt lat="37.07741" lon="-3.3771">
        <ele>2777.8</ele>
        <time>2021-08-05 12:50:02</time>
      </trkpt>
      <trkpt lat="37.0774" lon="-3.3771">
        <ele>2777.8</ele>
        <time>2021-08-05 12:50:03</time>
      </trkpt>
      <trkpt lat="37.07739" lon="-3.37711">
        <ele>2777.8</ele>
        <time>2021-08-05 12:50:04</time>
      </trkpt>
      <trkpt lat="37.07739" lon="-3.37711">
        <ele>2778</ele>
        <time>2021-08-05 12:50:05</time>
      </trkpt>
      <trkpt lat="37.07738" lon="-3.37712">
        <ele>2778</ele>
        <time>2021-08-05 12:50:06</time>
      </trkpt>
      <trkpt lat="37.07738" lon="-3.37712">
        <ele>2778</ele>
        <time>2021-08-05 12:50:07</time>
      </trkpt>
      <trkpt lat="37.07737" lon="-3.37712">
        <ele>2778.2</ele>
        <time>2021-08-05 12:50:08</time>
      </trkpt>
      <trkpt lat="37.07736" lon="-3.37712">
        <ele>2778.2</ele>
        <time>2021-08-05 12:50:09</time>
      </trkpt>
      <trkpt lat="37.07736" lon="-3.37713">
        <ele>2778.4</ele>
        <time>2021-08-05 12:50:10</time>
      </trkpt>
      <trkpt lat="37.07735" lon="-3.37713">
        <ele>2778.4</ele>
        <time>2021-08-05 12:50:11</time>
      </trkpt>
      <trkpt lat="37.07734" lon="-3.37713">
        <ele>2778.4</ele>
        <time>2021-08-05 12:50:12</time>
      </trkpt>
      <trkpt lat="37.07733" lon="-3.37714">
        <ele>2778.4</ele>
        <time>2021-08-05 12:50:13</time>
      </trkpt>
      <trkpt lat="37.07732" lon="-3.37714">
        <ele>2778.4</ele>
        <time>2021-08-05 12:50:14</time>
      </trkpt>
      <trkpt lat="37.07732" lon="-3.37715">
        <ele>2778.6</ele>
        <time>2021-08-05 12:50:15</time>
      </trkpt>
      <trkpt lat="37.07731" lon="-3.37716">
        <ele>2778.8</ele>
        <time>2021-08-05 12:50:16</time>
      </trkpt>
      <trkpt lat="37.07731" lon="-3.37716">
        <ele>2778.8</ele>
        <time>2021-08-05 12:50:17</time>
      </trkpt>
      <trkpt lat="37.0773" lon="-3.37717">
        <ele>2778.8</ele>
        <time>2021-08-05 12:50:18</time>
      </trkpt>
      <trkpt lat="37.07729" lon="-3.37718">
        <ele>2778.8</ele>
        <time>2021-08-05 12:50:19</time>
      </trkpt>
      <trkpt lat="37.07729" lon="-3.37719">
        <ele>2778.8</ele>
        <time>2021-08-05 12:50:20</time>
      </trkpt>
      <trkpt lat="37.07729" lon="-3.37719">
        <ele>2778.8</ele>
        <time>2021-08-05 12:50:21</time>
      </trkpt>
      <trkpt lat="37.07728" lon="-3.3772">
        <ele>2778.8</ele>
        <time>2021-08-05 12:50:22</time>
      </trkpt>
      <trkpt lat="37.07727" lon="-3.37721">
        <ele>2779</ele>
        <time>2021-08-05 12:50:23</time>
      </trkpt>
      <trkpt lat="37.07726" lon="-3.37721">
        <ele>2779</ele>
        <time>2021-08-05 12:50:24</time>
      </trkpt>
      <trkpt lat="37.07726" lon="-3.37722">
        <ele>2779.2</ele>
        <time>2021-08-05 12:50:25</time>
      </trkpt>
      <trkpt lat="37.07726" lon="-3.37722">
        <ele>2779.2</ele>
        <time>2021-08-05 12:50:26</time>
      </trkpt>
      <trkpt lat="37.07724" lon="-3.37722">
        <ele>2779.2</ele>
        <time>2021-08-05 12:50:27</time>
      </trkpt>
      <trkpt lat="37.07723" lon="-3.37722">
        <ele>2779.4</ele>
        <time>2021-08-05 12:50:28</time>
      </trkpt>
      <trkpt lat="37.07724" lon="-3.37723">
        <ele>2779.4</ele>
        <time>2021-08-05 12:50:29</time>
      </trkpt>
      <trkpt lat="37.07724" lon="-3.37724">
        <ele>2779.4</ele>
        <time>2021-08-05 12:50:30</time>
      </trkpt>
      <trkpt lat="37.07724" lon="-3.37724">
        <ele>2779.4</ele>
        <time>2021-08-05 12:50:31</time>
      </trkpt>
      <trkpt lat="37.07723" lon="-3.37725">
        <ele>2779.6</ele>
        <time>2021-08-05 12:50:32</time>
      </trkpt>
      <trkpt lat="37.07722" lon="-3.37725">
        <ele>2779.6</ele>
        <time>2021-08-05 12:50:33</time>
      </trkpt>
      <trkpt lat="37.07722" lon="-3.37725">
        <ele>2779.6</ele>
        <time>2021-08-05 12:50:34</time>
      </trkpt>
      <trkpt lat="37.07721" lon="-3.37726">
        <ele>2779.8</ele>
        <time>2021-08-05 12:50:35</time>
      </trkpt>
      <trkpt lat="37.07721" lon="-3.37726">
        <ele>2779.8</ele>
        <time>2021-08-05 12:50:36</time>
      </trkpt>
      <trkpt lat="37.0772" lon="-3.37726">
        <ele>2779.8</ele>
        <time>2021-08-05 12:50:37</time>
      </trkpt>
      <trkpt lat="37.0772" lon="-3.37727">
        <ele>2779.8</ele>
        <time>2021-08-05 12:50:38</time>
      </trkpt>
      <trkpt lat="37.07719" lon="-3.37727">
        <ele>2779.8</ele>
        <time>2021-08-05 12:50:39</time>
      </trkpt>
      <trkpt lat="37.07718" lon="-3.37727">
        <ele>2779.8</ele>
        <time>2021-08-05 12:50:40</time>
      </trkpt>
      <trkpt lat="37.07717" lon="-3.37727">
        <ele>2780</ele>
        <time>2021-08-05 12:50:41</time>
      </trkpt>
      <trkpt lat="37.07716" lon="-3.37727">
        <ele>2780</ele>
        <time>2021-08-05 12:50:42</time>
      </trkpt>
      <trkpt lat="37.07715" lon="-3.37727">
        <ele>2780</ele>
        <time>2021-08-05 12:50:43</time>
      </trkpt>
      <trkpt lat="37.07714" lon="-3.37727">
        <ele>2780</ele>
        <time>2021-08-05 12:50:44</time>
      </trkpt>
      <trkpt lat="37.07713" lon="-3.37727">
        <ele>2780</ele>
        <time>2021-08-05 12:50:45</time>
      </trkpt>
      <trkpt lat="37.07712" lon="-3.37727">
        <ele>2780</ele>
        <time>2021-08-05 12:50:46</time>
      </trkpt>
      <trkpt lat="37.07711" lon="-3.37728">
        <ele>2780</ele>
        <time>2021-08-05 12:50:47</time>
      </trkpt>
      <trkpt lat="37.07711" lon="-3.37728">
        <ele>2780</ele>
        <time>2021-08-05 12:50:48</time>
      </trkpt>
      <trkpt lat="37.0771" lon="-3.37729">
        <ele>2780</ele>
        <time>2021-08-05 12:50:49</time>
      </trkpt>
      <trkpt lat="37.0771" lon="-3.3773">
        <ele>2780</ele>
        <time>2021-08-05 12:50:50</time>
      </trkpt>
      <trkpt lat="37.0771" lon="-3.3773">
        <ele>2780.4</ele>
        <time>2021-08-05 12:50:51</time>
      </trkpt>
      <trkpt lat="37.07709" lon="-3.3773">
        <ele>2780.8</ele>
        <time>2021-08-05 12:50:52</time>
      </trkpt>
      <trkpt lat="37.07709" lon="-3.3773">
        <ele>2781</ele>
        <time>2021-08-05 12:50:53</time>
      </trkpt>
      <trkpt lat="37.07709" lon="-3.37731">
        <ele>2781</ele>
        <time>2021-08-05 12:50:54</time>
      </trkpt>
      <trkpt lat="37.0771" lon="-3.37732">
        <ele>2781.2</ele>
        <time>2021-08-05 12:50:55</time>
      </trkpt>
      <trkpt lat="37.07711" lon="-3.37734">
        <ele>2781.2</ele>
        <time>2021-08-05 12:50:56</time>
      </trkpt>
      <trkpt lat="37.0771" lon="-3.37734">
        <ele>2781.2</ele>
        <time>2021-08-05 12:50:57</time>
      </trkpt>
      <trkpt lat="37.0771" lon="-3.37734">
        <ele>2781.2</ele>
        <time>2021-08-05 12:50:58</time>
      </trkpt>
      <trkpt lat="37.0771" lon="-3.37734">
        <ele>2781</ele>
        <time>2021-08-05 12:50:59</time>
      </trkpt>
      <trkpt lat="37.07709" lon="-3.37735">
        <ele>2780.8</ele>
        <time>2021-08-05 12:51:00</time>
      </trkpt>
      <trkpt lat="37.07709" lon="-3.37736">
        <ele>2780.8</ele>
        <time>2021-08-05 12:51:01</time>
      </trkpt>
      <trkpt lat="37.07708" lon="-3.37736">
        <ele>2781</ele>
        <time>2021-08-05 12:51:02</time>
      </trkpt>
      <trkpt lat="37.07707" lon="-3.37737">
        <ele>2781</ele>
        <time>2021-08-05 12:51:03</time>
      </trkpt>
      <trkpt lat="37.07707" lon="-3.37737">
        <ele>2781</ele>
        <time>2021-08-05 12:51:04</time>
      </trkpt>
      <trkpt lat="37.07706" lon="-3.37737">
        <ele>2781</ele>
        <time>2021-08-05 12:51:05</time>
      </trkpt>
      <trkpt lat="37.07705" lon="-3.37737">
        <ele>2781.4</ele>
        <time>2021-08-05 12:51:06</time>
      </trkpt>
      <trkpt lat="37.07703" lon="-3.37737">
        <ele>2781.4</ele>
        <time>2021-08-05 12:51:07</time>
      </trkpt>
      <trkpt lat="37.07702" lon="-3.37738">
        <ele>2781.6</ele>
        <time>2021-08-05 12:51:08</time>
      </trkpt>
      <trkpt lat="37.07702" lon="-3.37739">
        <ele>2781.8</ele>
        <time>2021-08-05 12:51:09</time>
      </trkpt>
      <trkpt lat="37.07701" lon="-3.37739">
        <ele>2781.8</ele>
        <time>2021-08-05 12:51:10</time>
      </trkpt>
      <trkpt lat="37.077" lon="-3.37739">
        <ele>2781.8</ele>
        <time>2021-08-05 12:51:11</time>
      </trkpt>
      <trkpt lat="37.07699" lon="-3.3774">
        <ele>2781.8</ele>
        <time>2021-08-05 12:51:12</time>
      </trkpt>
      <trkpt lat="37.07698" lon="-3.37741">
        <ele>2781.6</ele>
        <time>2021-08-05 12:51:13</time>
      </trkpt>
      <trkpt lat="37.07698" lon="-3.37741">
        <ele>2781.6</ele>
        <time>2021-08-05 12:51:14</time>
      </trkpt>
      <trkpt lat="37.07697" lon="-3.37742">
        <ele>2781.6</ele>
        <time>2021-08-05 12:51:15</time>
      </trkpt>
      <trkpt lat="37.07696" lon="-3.37742">
        <ele>2781.8</ele>
        <time>2021-08-05 12:51:16</time>
      </trkpt>
      <trkpt lat="37.07696" lon="-3.37742">
        <ele>2781.8</ele>
        <time>2021-08-05 12:51:17</time>
      </trkpt>
      <trkpt lat="37.07696" lon="-3.37742">
        <ele>2782</ele>
        <time>2021-08-05 12:51:18</time>
      </trkpt>
      <trkpt lat="37.07696" lon="-3.37743">
        <ele>2782.4</ele>
        <time>2021-08-05 12:51:19</time>
      </trkpt>
      <trkpt lat="37.07695" lon="-3.37743">
        <ele>2782.6</ele>
        <time>2021-08-05 12:51:20</time>
      </trkpt>
      <trkpt lat="37.07694" lon="-3.37743">
        <ele>2782.8</ele>
        <time>2021-08-05 12:51:21</time>
      </trkpt>
      <trkpt lat="37.07694" lon="-3.37744">
        <ele>2783</ele>
        <time>2021-08-05 12:51:22</time>
      </trkpt>
      <trkpt lat="37.07693" lon="-3.37744">
        <ele>2783.2</ele>
        <time>2021-08-05 12:51:23</time>
      </trkpt>
      <trkpt lat="37.07692" lon="-3.37744">
        <ele>2783.2</ele>
        <time>2021-08-05 12:51:24</time>
      </trkpt>
      <trkpt lat="37.07691" lon="-3.37744">
        <ele>2783.2</ele>
        <time>2021-08-05 12:51:25</time>
      </trkpt>
      <trkpt lat="37.07691" lon="-3.37745">
        <ele>2783.2</ele>
        <time>2021-08-05 12:51:26</time>
      </trkpt>
      <trkpt lat="37.0769" lon="-3.37746">
        <ele>2783.2</ele>
        <time>2021-08-05 12:51:27</time>
      </trkpt>
      <trkpt lat="37.0769" lon="-3.37746">
        <ele>2783</ele>
        <time>2021-08-05 12:51:28</time>
      </trkpt>
      <trkpt lat="37.07689" lon="-3.37746">
        <ele>2783</ele>
        <time>2021-08-05 12:51:29</time>
      </trkpt>
      <trkpt lat="37.07689" lon="-3.37747">
        <ele>2783</ele>
        <time>2021-08-05 12:51:30</time>
      </trkpt>
      <trkpt lat="37.07688" lon="-3.37748">
        <ele>2782.8</ele>
        <time>2021-08-05 12:51:31</time>
      </trkpt>
      <trkpt lat="37.07687" lon="-3.37749">
        <ele>2782.8</ele>
        <time>2021-08-05 12:51:32</time>
      </trkpt>
      <trkpt lat="37.07687" lon="-3.3775">
        <ele>2782.8</ele>
        <time>2021-08-05 12:51:33</time>
      </trkpt>
      <trkpt lat="37.07686" lon="-3.37751">
        <ele>2782.8</ele>
        <time>2021-08-05 12:51:34</time>
      </trkpt>
      <trkpt lat="37.07685" lon="-3.37751">
        <ele>2782.8</ele>
        <time>2021-08-05 12:51:35</time>
      </trkpt>
      <trkpt lat="37.07684" lon="-3.37752">
        <ele>2782.8</ele>
        <time>2021-08-05 12:51:36</time>
      </trkpt>
      <trkpt lat="37.07683" lon="-3.37752">
        <ele>2782.8</ele>
        <time>2021-08-05 12:51:37</time>
      </trkpt>
      <trkpt lat="37.07683" lon="-3.37753">
        <ele>2782.8</ele>
        <time>2021-08-05 12:51:38</time>
      </trkpt>
      <trkpt lat="37.07682" lon="-3.37753">
        <ele>2782.8</ele>
        <time>2021-08-05 12:51:39</time>
      </trkpt>
      <trkpt lat="37.07682" lon="-3.37754">
        <ele>2782.8</ele>
        <time>2021-08-05 12:51:40</time>
      </trkpt>
      <trkpt lat="37.07681" lon="-3.37754">
        <ele>2782.8</ele>
        <time>2021-08-05 12:51:41</time>
      </trkpt>
      <trkpt lat="37.0768" lon="-3.37754">
        <ele>2782.8</ele>
        <time>2021-08-05 12:51:42</time>
      </trkpt>
      <trkpt lat="37.0768" lon="-3.37755">
        <ele>2783</ele>
        <time>2021-08-05 12:51:43</time>
      </trkpt>
      <trkpt lat="37.07679" lon="-3.37756">
        <ele>2783</ele>
        <time>2021-08-05 12:51:44</time>
      </trkpt>
      <trkpt lat="37.07679" lon="-3.37756">
        <ele>2783</ele>
        <time>2021-08-05 12:51:45</time>
      </trkpt>
      <trkpt lat="37.07678" lon="-3.37757">
        <ele>2783.2</ele>
        <time>2021-08-05 12:51:46</time>
      </trkpt>
      <trkpt lat="37.07678" lon="-3.37758">
        <ele>2783.2</ele>
        <time>2021-08-05 12:51:47</time>
      </trkpt>
      <trkpt lat="37.07677" lon="-3.37759">
        <ele>2783.2</ele>
        <time>2021-08-05 12:51:48</time>
      </trkpt>
      <trkpt lat="37.07677" lon="-3.37759">
        <ele>2783.4</ele>
        <time>2021-08-05 12:51:49</time>
      </trkpt>
      <trkpt lat="37.07676" lon="-3.37759">
        <ele>2783.4</ele>
        <time>2021-08-05 12:51:50</time>
      </trkpt>
      <trkpt lat="37.07676" lon="-3.37759">
        <ele>2783.4</ele>
        <time>2021-08-05 12:51:51</time>
      </trkpt>
      <trkpt lat="37.07675" lon="-3.37759">
        <ele>2783.4</ele>
        <time>2021-08-05 12:51:52</time>
      </trkpt>
      <trkpt lat="37.07674" lon="-3.37759">
        <ele>2783.6</ele>
        <time>2021-08-05 12:51:53</time>
      </trkpt>
      <trkpt lat="37.07673" lon="-3.37759">
        <ele>2783.6</ele>
        <time>2021-08-05 12:51:54</time>
      </trkpt>
      <trkpt lat="37.07672" lon="-3.37759">
        <ele>2783.8</ele>
        <time>2021-08-05 12:51:55</time>
      </trkpt>
      <trkpt lat="37.07671" lon="-3.37758">
        <ele>2783.8</ele>
        <time>2021-08-05 12:51:56</time>
      </trkpt>
      <trkpt lat="37.07671" lon="-3.37758">
        <ele>2783.8</ele>
        <time>2021-08-05 12:51:57</time>
      </trkpt>
      <trkpt lat="37.0767" lon="-3.37758">
        <ele>2783.8</ele>
        <time>2021-08-05 12:51:58</time>
      </trkpt>
      <trkpt lat="37.07669" lon="-3.37758">
        <ele>2783.8</ele>
        <time>2021-08-05 12:51:59</time>
      </trkpt>
      <trkpt lat="37.07669" lon="-3.37759">
        <ele>2784</ele>
        <time>2021-08-05 12:52:00</time>
      </trkpt>
      <trkpt lat="37.07668" lon="-3.37759">
        <ele>2784</ele>
        <time>2021-08-05 12:52:01</time>
      </trkpt>
      <trkpt lat="37.07668" lon="-3.3776">
        <ele>2784</ele>
        <time>2021-08-05 12:52:02</time>
      </trkpt>
      <trkpt lat="37.07668" lon="-3.37761">
        <ele>2784</ele>
        <time>2021-08-05 12:52:03</time>
      </trkpt>
      <trkpt lat="37.07667" lon="-3.37761">
        <ele>2784</ele>
        <time>2021-08-05 12:52:04</time>
      </trkpt>
      <trkpt lat="37.07667" lon="-3.37762">
        <ele>2784</ele>
        <time>2021-08-05 12:52:05</time>
      </trkpt>
      <trkpt lat="37.07666" lon="-3.37762">
        <ele>2784</ele>
        <time>2021-08-05 12:52:06</time>
      </trkpt>
      <trkpt lat="37.07665" lon="-3.37762">
        <ele>2784</ele>
        <time>2021-08-05 12:52:07</time>
      </trkpt>
      <trkpt lat="37.07665" lon="-3.37763">
        <ele>2784</ele>
        <time>2021-08-05 12:52:08</time>
      </trkpt>
      <trkpt lat="37.07664" lon="-3.37763">
        <ele>2784</ele>
        <time>2021-08-05 12:52:09</time>
      </trkpt>
      <trkpt lat="37.07663" lon="-3.37764">
        <ele>2784</ele>
        <time>2021-08-05 12:52:10</time>
      </trkpt>
      <trkpt lat="37.07663" lon="-3.37765">
        <ele>2784.2</ele>
        <time>2021-08-05 12:52:11</time>
      </trkpt>
      <trkpt lat="37.07663" lon="-3.37766">
        <ele>2784.2</ele>
        <time>2021-08-05 12:52:12</time>
      </trkpt>
      <trkpt lat="37.07662" lon="-3.37766">
        <ele>2784.4</ele>
        <time>2021-08-05 12:52:13</time>
      </trkpt>
      <trkpt lat="37.0766" lon="-3.37765">
        <ele>2784.6</ele>
        <time>2021-08-05 12:52:14</time>
      </trkpt>
      <trkpt lat="37.07659" lon="-3.37765">
        <ele>2784.8</ele>
        <time>2021-08-05 12:52:15</time>
      </trkpt>
      <trkpt lat="37.07658" lon="-3.37765">
        <ele>2785</ele>
        <time>2021-08-05 12:52:16</time>
      </trkpt>
      <trkpt lat="37.07656" lon="-3.37765">
        <ele>2785.2</ele>
        <time>2021-08-05 12:52:17</time>
      </trkpt>
      <trkpt lat="37.07655" lon="-3.37765">
        <ele>2785.4</ele>
        <time>2021-08-05 12:52:18</time>
      </trkpt>
      <trkpt lat="37.07654" lon="-3.37766">
        <ele>2785.6</ele>
        <time>2021-08-05 12:52:19</time>
      </trkpt>
      <trkpt lat="37.07654" lon="-3.37766">
        <ele>2785.6</ele>
        <time>2021-08-05 12:52:20</time>
      </trkpt>
      <trkpt lat="37.07653" lon="-3.37766">
        <ele>2785.6</ele>
        <time>2021-08-05 12:52:21</time>
      </trkpt>
      <trkpt lat="37.07651" lon="-3.37767">
        <ele>2785.6</ele>
        <time>2021-08-05 12:52:22</time>
      </trkpt>
      <trkpt lat="37.0765" lon="-3.37767">
        <ele>2785.6</ele>
        <time>2021-08-05 12:52:23</time>
      </trkpt>
      <trkpt lat="37.07649" lon="-3.37768">
        <ele>2785.4</ele>
        <time>2021-08-05 12:52:24</time>
      </trkpt>
      <trkpt lat="37.07648" lon="-3.37768">
        <ele>2785.2</ele>
        <time>2021-08-05 12:52:25</time>
      </trkpt>
      <trkpt lat="37.07648" lon="-3.37769">
        <ele>2785.2</ele>
        <time>2021-08-05 12:52:26</time>
      </trkpt>
      <trkpt lat="37.07647" lon="-3.37769">
        <ele>2785.6</ele>
        <time>2021-08-05 12:52:27</time>
      </trkpt>
      <trkpt lat="37.07647" lon="-3.3777">
        <ele>2785.8</ele>
        <time>2021-08-05 12:52:28</time>
      </trkpt>
      <trkpt lat="37.07647" lon="-3.37771">
        <ele>2785.8</ele>
        <time>2021-08-05 12:52:29</time>
      </trkpt>
      <trkpt lat="37.07646" lon="-3.37771">
        <ele>2785.8</ele>
        <time>2021-08-05 12:52:30</time>
      </trkpt>
      <trkpt lat="37.07646" lon="-3.37772">
        <ele>2785.8</ele>
        <time>2021-08-05 12:52:31</time>
      </trkpt>
      <trkpt lat="37.07645" lon="-3.37772">
        <ele>2785.8</ele>
        <time>2021-08-05 12:52:32</time>
      </trkpt>
      <trkpt lat="37.07645" lon="-3.37773">
        <ele>2785.8</ele>
        <time>2021-08-05 12:52:33</time>
      </trkpt>
      <trkpt lat="37.07644" lon="-3.37774">
        <ele>2785.8</ele>
        <time>2021-08-05 12:52:34</time>
      </trkpt>
      <trkpt lat="37.07644" lon="-3.37775">
        <ele>2785.8</ele>
        <time>2021-08-05 12:52:35</time>
      </trkpt>
      <trkpt lat="37.07644" lon="-3.37775">
        <ele>2786.2</ele>
        <time>2021-08-05 12:52:36</time>
      </trkpt>
      <trkpt lat="37.07643" lon="-3.37775">
        <ele>2786.4</ele>
        <time>2021-08-05 12:52:37</time>
      </trkpt>
      <trkpt lat="37.07642" lon="-3.37776">
        <ele>2786.4</ele>
        <time>2021-08-05 12:52:38</time>
      </trkpt>
      <trkpt lat="37.07641" lon="-3.37776">
        <ele>2786.4</ele>
        <time>2021-08-05 12:52:39</time>
      </trkpt>
      <trkpt lat="37.07641" lon="-3.37777">
        <ele>2786.4</ele>
        <time>2021-08-05 12:52:40</time>
      </trkpt>
      <trkpt lat="37.07641" lon="-3.37778">
        <ele>2786.4</ele>
        <time>2021-08-05 12:52:41</time>
      </trkpt>
      <trkpt lat="37.07641" lon="-3.37779">
        <ele>2786.6</ele>
        <time>2021-08-05 12:52:42</time>
      </trkpt>
      <trkpt lat="37.0764" lon="-3.37779">
        <ele>2786.6</ele>
        <time>2021-08-05 12:52:43</time>
      </trkpt>
      <trkpt lat="37.0764" lon="-3.37781">
        <ele>2786.8</ele>
        <time>2021-08-05 12:52:44</time>
      </trkpt>
      <trkpt lat="37.0764" lon="-3.37782">
        <ele>2786.8</ele>
        <time>2021-08-05 12:52:45</time>
      </trkpt>
      <trkpt lat="37.0764" lon="-3.37783">
        <ele>2787</ele>
        <time>2021-08-05 12:52:46</time>
      </trkpt>
      <trkpt lat="37.07639" lon="-3.37784">
        <ele>2786.8</ele>
        <time>2021-08-05 12:52:47</time>
      </trkpt>
      <trkpt lat="37.07639" lon="-3.37785">
        <ele>2787</ele>
        <time>2021-08-05 12:52:48</time>
      </trkpt>
      <trkpt lat="37.07638" lon="-3.37786">
        <ele>2787</ele>
        <time>2021-08-05 12:52:49</time>
      </trkpt>
      <trkpt lat="37.07638" lon="-3.37788">
        <ele>2787.2</ele>
        <time>2021-08-05 12:52:50</time>
      </trkpt>
      <trkpt lat="37.07638" lon="-3.37788">
        <ele>2787.2</ele>
        <time>2021-08-05 12:52:51</time>
      </trkpt>
      <trkpt lat="37.07638" lon="-3.3779">
        <ele>2787.2</ele>
        <time>2021-08-05 12:52:52</time>
      </trkpt>
      <trkpt lat="37.07637" lon="-3.37791">
        <ele>2787.4</ele>
        <time>2021-08-05 12:52:53</time>
      </trkpt>
      <trkpt lat="37.07639" lon="-3.37791">
        <ele>2787.4</ele>
        <time>2021-08-05 12:52:54</time>
      </trkpt>
      <trkpt lat="37.07639" lon="-3.37791">
        <ele>2787.4</ele>
        <time>2021-08-05 12:52:55</time>
      </trkpt>
      <trkpt lat="37.07639" lon="-3.37792">
        <ele>2787.4</ele>
        <time>2021-08-05 12:52:56</time>
      </trkpt>
      <trkpt lat="37.0764" lon="-3.37792">
        <ele>2787.2</ele>
        <time>2021-08-05 12:52:57</time>
      </trkpt>
      <trkpt lat="37.0764" lon="-3.37792">
        <ele>2787.2</ele>
        <time>2021-08-05 12:52:58</time>
      </trkpt>
      <trkpt lat="37.0764" lon="-3.37793">
        <ele>2787.4</ele>
        <time>2021-08-05 12:52:59</time>
      </trkpt>
      <trkpt lat="37.0764" lon="-3.37792">
        <ele>2787.4</ele>
        <time>2021-08-05 12:53:00</time>
      </trkpt>
      <trkpt lat="37.0764" lon="-3.37792">
        <ele>2787.2</ele>
        <time>2021-08-05 12:53:01</time>
      </trkpt>
      <trkpt lat="37.0764" lon="-3.37792">
        <ele>2787.4</ele>
        <time>2021-08-05 12:53:02</time>
      </trkpt>
      <trkpt lat="37.0764" lon="-3.37792">
        <ele>2787.4</ele>
        <time>2021-08-05 12:53:03</time>
      </trkpt>
      <trkpt lat="37.0764" lon="-3.37792">
        <ele>2787.6</ele>
        <time>2021-08-05 12:53:04</time>
      </trkpt>
      <trkpt lat="37.07639" lon="-3.37792">
        <ele>2787.4</ele>
        <time>2021-08-05 12:53:05</time>
      </trkpt>
      <trkpt lat="37.0764" lon="-3.37792">
        <ele>2787.4</ele>
        <time>2021-08-05 12:53:06</time>
      </trkpt>
      <trkpt lat="37.0764" lon="-3.37791">
        <ele>2787.4</ele>
        <time>2021-08-05 12:53:07</time>
      </trkpt>
      <trkpt lat="37.0764" lon="-3.37791">
        <ele>2787.4</ele>
        <time>2021-08-05 12:53:08</time>
      </trkpt>
      <trkpt lat="37.0764" lon="-3.37791">
        <ele>2787.4</ele>
        <time>2021-08-05 12:53:09</time>
      </trkpt>
      <trkpt lat="37.0764" lon="-3.37791">
        <ele>2787.4</ele>
        <time>2021-08-05 12:53:10</time>
      </trkpt>
      <trkpt lat="37.0764" lon="-3.37791">
        <ele>2787.4</ele>
        <time>2021-08-05 12:53:11</time>
      </trkpt>
      <trkpt lat="37.0764" lon="-3.37791">
        <ele>2787.4</ele>
        <time>2021-08-05 12:53:12</time>
      </trkpt>
      <trkpt lat="37.0764" lon="-3.37792">
        <ele>2787.4</ele>
        <time>2021-08-05 12:53:13</time>
      </trkpt>
      <trkpt lat="37.0764" lon="-3.37792">
        <ele>2787.4</ele>
        <time>2021-08-05 12:53:14</time>
      </trkpt>
      <trkpt lat="37.07639" lon="-3.37791">
        <ele>2787.2</ele>
        <time>2021-08-05 12:53:15</time>
      </trkpt>
      <trkpt lat="37.07639" lon="-3.37791">
        <ele>2787</ele>
        <time>2021-08-05 12:53:16</time>
      </trkpt>
      <trkpt lat="37.07639" lon="-3.37791">
        <ele>2787</ele>
        <time>2021-08-05 12:53:17</time>
      </trkpt>
      <trkpt lat="37.07639" lon="-3.37792">
        <ele>2787.2</ele>
        <time>2021-08-05 12:53:18</time>
      </trkpt>
      <trkpt lat="37.07639" lon="-3.37792">
        <ele>2787.2</ele>
        <time>2021-08-05 12:53:19</time>
      </trkpt>
      <trkpt lat="37.07639" lon="-3.37792">
        <ele>2787.4</ele>
        <time>2021-08-05 12:53:20</time>
      </trkpt>
      <trkpt lat="37.07639" lon="-3.37792">
        <ele>2787.2</ele>
        <time>2021-08-05 12:53:21</time>
      </trkpt>
      <trkpt lat="37.07639" lon="-3.37791">
        <ele>2787.2</ele>
        <time>2021-08-05 12:53:22</time>
      </trkpt>
      <trkpt lat="37.07639" lon="-3.37791">
        <ele>2787.4</ele>
        <time>2021-08-05 12:53:23</time>
      </trkpt>
      <trkpt lat="37.07639" lon="-3.37791">
        <ele>2787.4</ele>
        <time>2021-08-05 12:53:24</time>
      </trkpt>
      <trkpt lat="37.07639" lon="-3.37791">
        <ele>2787.2</ele>
        <time>2021-08-05 12:53:25</time>
      </trkpt>
      <trkpt lat="37.07639" lon="-3.37791">
        <ele>2787.2</ele>
        <time>2021-08-05 12:53:26</time>
      </trkpt>
      <trkpt lat="37.07639" lon="-3.37791">
        <ele>2787.4</ele>
        <time>2021-08-05 12:53:27</time>
      </trkpt>
      <trkpt lat="37.07639" lon="-3.37791">
        <ele>2787.4</ele>
        <time>2021-08-05 12:53:28</time>
      </trkpt>
      <trkpt lat="37.07639" lon="-3.37791">
        <ele>2787.4</ele>
        <time>2021-08-05 12:53:29</time>
      </trkpt>
      <trkpt lat="37.07639" lon="-3.37792">
        <ele>2787.4</ele>
        <time>2021-08-05 12:53:30</time>
      </trkpt>
      <trkpt lat="37.07639" lon="-3.37792">
        <ele>2787.4</ele>
        <time>2021-08-05 12:53:31</time>
      </trkpt>
      <trkpt lat="37.07638" lon="-3.37793">
        <ele>2787.4</ele>
        <time>2021-08-05 12:53:32</time>
      </trkpt>
      <trkpt lat="37.07638" lon="-3.37793">
        <ele>2787.4</ele>
        <time>2021-08-05 12:53:33</time>
      </trkpt>
      <trkpt lat="37.07637" lon="-3.37793">
        <ele>2787.4</ele>
        <time>2021-08-05 12:53:34</time>
      </trkpt>
      <trkpt lat="37.07637" lon="-3.37794">
        <ele>2787.4</ele>
        <time>2021-08-05 12:53:35</time>
      </trkpt>
      <trkpt lat="37.07636" lon="-3.37794">
        <ele>2787.6</ele>
        <time>2021-08-05 12:53:36</time>
      </trkpt>
      <trkpt lat="37.07636" lon="-3.37795">
        <ele>2787.6</ele>
        <time>2021-08-05 12:53:37</time>
      </trkpt>
      <trkpt lat="37.07636" lon="-3.37796">
        <ele>2787.6</ele>
        <time>2021-08-05 12:53:38</time>
      </trkpt>
      <trkpt lat="37.07635" lon="-3.37796">
        <ele>2787.6</ele>
        <time>2021-08-05 12:53:39</time>
      </trkpt>
      <trkpt lat="37.07635" lon="-3.37797">
        <ele>2787.6</ele>
        <time>2021-08-05 12:53:40</time>
      </trkpt>
      <trkpt lat="37.07635" lon="-3.37797">
        <ele>2787.6</ele>
        <time>2021-08-05 12:53:41</time>
      </trkpt>
      <trkpt lat="37.07635" lon="-3.37797">
        <ele>2787.8</ele>
        <time>2021-08-05 12:53:42</time>
      </trkpt>
      <trkpt lat="37.07635" lon="-3.37798">
        <ele>2787.8</ele>
        <time>2021-08-05 12:53:43</time>
      </trkpt>
      <trkpt lat="37.07634" lon="-3.37798">
        <ele>2787.6</ele>
        <time>2021-08-05 12:53:44</time>
      </trkpt>
      <trkpt lat="37.07633" lon="-3.37797">
        <ele>2787.4</ele>
        <time>2021-08-05 12:53:45</time>
      </trkpt>
      <trkpt lat="37.07634" lon="-3.37797">
        <ele>2787.2</ele>
        <time>2021-08-05 12:53:46</time>
      </trkpt>
      <trkpt lat="37.07634" lon="-3.37797">
        <ele>2787.2</ele>
        <time>2021-08-05 12:53:47</time>
      </trkpt>
      <trkpt lat="37.07635" lon="-3.37798">
        <ele>2787.4</ele>
        <time>2021-08-05 12:53:48</time>
      </trkpt>
      <trkpt lat="37.07635" lon="-3.37798">
        <ele>2787.6</ele>
        <time>2021-08-05 12:53:49</time>
      </trkpt>
      <trkpt lat="37.07635" lon="-3.37799">
        <ele>2787.8</ele>
        <time>2021-08-05 12:53:50</time>
      </trkpt>
      <trkpt lat="37.07635" lon="-3.37799">
        <ele>2788.2</ele>
        <time>2021-08-05 12:53:51</time>
      </trkpt>
      <trkpt lat="37.07634" lon="-3.37799">
        <ele>2788.2</ele>
        <time>2021-08-05 12:53:52</time>
      </trkpt>
      <trkpt lat="37.07632" lon="-3.37798">
        <ele>2788.4</ele>
        <time>2021-08-05 12:53:53</time>
      </trkpt>
      <trkpt lat="37.07633" lon="-3.37798">
        <ele>2788.4</ele>
        <time>2021-08-05 12:53:54</time>
      </trkpt>
      <trkpt lat="37.07632" lon="-3.37799">
        <ele>2788.4</ele>
        <time>2021-08-05 12:53:55</time>
      </trkpt>
      <trkpt lat="37.07632" lon="-3.378">
        <ele>2788.4</ele>
        <time>2021-08-05 12:53:56</time>
      </trkpt>
      <trkpt lat="37.07633" lon="-3.37801">
        <ele>2788.4</ele>
        <time>2021-08-05 12:53:57</time>
      </trkpt>
      <trkpt lat="37.07633" lon="-3.37802">
        <ele>2788.2</ele>
        <time>2021-08-05 12:53:58</time>
      </trkpt>
      <trkpt lat="37.07633" lon="-3.37803">
        <ele>2788.4</ele>
        <time>2021-08-05 12:53:59</time>
      </trkpt>
      <trkpt lat="37.07632" lon="-3.37804">
        <ele>2788.4</ele>
        <time>2021-08-05 12:54:00</time>
      </trkpt>
      <trkpt lat="37.07632" lon="-3.37805">
        <ele>2788.4</ele>
        <time>2021-08-05 12:54:01</time>
      </trkpt>
      <trkpt lat="37.07631" lon="-3.37806">
        <ele>2788.6</ele>
        <time>2021-08-05 12:54:02</time>
      </trkpt>
      <trkpt lat="37.07631" lon="-3.37807">
        <ele>2788.6</ele>
        <time>2021-08-05 12:54:03</time>
      </trkpt>
      <trkpt lat="37.07631" lon="-3.37808">
        <ele>2788.6</ele>
        <time>2021-08-05 12:54:04</time>
      </trkpt>
      <trkpt lat="37.07631" lon="-3.37808">
        <ele>2788.6</ele>
        <time>2021-08-05 12:54:05</time>
      </trkpt>
      <trkpt lat="37.0763" lon="-3.37809">
        <ele>2788.6</ele>
        <time>2021-08-05 12:54:06</time>
      </trkpt>
      <trkpt lat="37.0763" lon="-3.3781">
        <ele>2788.6</ele>
        <time>2021-08-05 12:54:07</time>
      </trkpt>
      <trkpt lat="37.0763" lon="-3.3781">
        <ele>2788.6</ele>
        <time>2021-08-05 12:54:08</time>
      </trkpt>
      <trkpt lat="37.07629" lon="-3.37811">
        <ele>2788.4</ele>
        <time>2021-08-05 12:54:09</time>
      </trkpt>
      <trkpt lat="37.07629" lon="-3.37812">
        <ele>2788.4</ele>
        <time>2021-08-05 12:54:10</time>
      </trkpt>
      <trkpt lat="37.07628" lon="-3.37813">
        <ele>2788.4</ele>
        <time>2021-08-05 12:54:11</time>
      </trkpt>
      <trkpt lat="37.07628" lon="-3.37813">
        <ele>2788.4</ele>
        <time>2021-08-05 12:54:12</time>
      </trkpt>
      <trkpt lat="37.07628" lon="-3.37815">
        <ele>2788.4</ele>
        <time>2021-08-05 12:54:13</time>
      </trkpt>
      <trkpt lat="37.07628" lon="-3.37815">
        <ele>2788.4</ele>
        <time>2021-08-05 12:54:14</time>
      </trkpt>
      <trkpt lat="37.07629" lon="-3.37816">
        <ele>2788.8</ele>
        <time>2021-08-05 12:54:15</time>
      </trkpt>
      <trkpt lat="37.07629" lon="-3.37817">
        <ele>2788.8</ele>
        <time>2021-08-05 12:54:16</time>
      </trkpt>
      <trkpt lat="37.07628" lon="-3.37818">
        <ele>2789</ele>
        <time>2021-08-05 12:54:17</time>
      </trkpt>
      <trkpt lat="37.07628" lon="-3.37819">
        <ele>2789</ele>
        <time>2021-08-05 12:54:18</time>
      </trkpt>
      <trkpt lat="37.07628" lon="-3.3782">
        <ele>2789</ele>
        <time>2021-08-05 12:54:19</time>
      </trkpt>
      <trkpt lat="37.07628" lon="-3.37821">
        <ele>2789</ele>
        <time>2021-08-05 12:54:20</time>
      </trkpt>
      <trkpt lat="37.07628" lon="-3.37822">
        <ele>2789</ele>
        <time>2021-08-05 12:54:21</time>
      </trkpt>
      <trkpt lat="37.07628" lon="-3.37823">
        <ele>2789</ele>
        <time>2021-08-05 12:54:22</time>
      </trkpt>
      <trkpt lat="37.07628" lon="-3.37824">
        <ele>2789</ele>
        <time>2021-08-05 12:54:23</time>
      </trkpt>
      <trkpt lat="37.07628" lon="-3.37825">
        <ele>2789</ele>
        <time>2021-08-05 12:54:24</time>
      </trkpt>
      <trkpt lat="37.07628" lon="-3.37827">
        <ele>2789</ele>
        <time>2021-08-05 12:54:25</time>
      </trkpt>
      <trkpt lat="37.07629" lon="-3.37828">
        <ele>2789.4</ele>
        <time>2021-08-05 12:54:26</time>
      </trkpt>
      <trkpt lat="37.07629" lon="-3.37829">
        <ele>2789.6</ele>
        <time>2021-08-05 12:54:27</time>
      </trkpt>
      <trkpt lat="37.07629" lon="-3.3783">
        <ele>2789.8</ele>
        <time>2021-08-05 12:54:28</time>
      </trkpt>
      <trkpt lat="37.07628" lon="-3.37831">
        <ele>2790</ele>
        <time>2021-08-05 12:54:29</time>
      </trkpt>
      <trkpt lat="37.07628" lon="-3.37832">
        <ele>2790</ele>
        <time>2021-08-05 12:54:30</time>
      </trkpt>
      <trkpt lat="37.07628" lon="-3.37834">
        <ele>2790.2</ele>
        <time>2021-08-05 12:54:31</time>
      </trkpt>
      <trkpt lat="37.07628" lon="-3.37835">
        <ele>2790.2</ele>
        <time>2021-08-05 12:54:32</time>
      </trkpt>
      <trkpt lat="37.07628" lon="-3.37836">
        <ele>2790.2</ele>
        <time>2021-08-05 12:54:33</time>
      </trkpt>
      <trkpt lat="37.07628" lon="-3.37836">
        <ele>2790.2</ele>
        <time>2021-08-05 12:54:34</time>
      </trkpt>
      <trkpt lat="37.07628" lon="-3.37837">
        <ele>2790.2</ele>
        <time>2021-08-05 12:54:35</time>
      </trkpt>
      <trkpt lat="37.07628" lon="-3.37838">
        <ele>2790</ele>
        <time>2021-08-05 12:54:36</time>
      </trkpt>
      <trkpt lat="37.07628" lon="-3.37838">
        <ele>2790</ele>
        <time>2021-08-05 12:54:37</time>
      </trkpt>
      <trkpt lat="37.07628" lon="-3.37839">
        <ele>2790</ele>
        <time>2021-08-05 12:54:38</time>
      </trkpt>
      <trkpt lat="37.07628" lon="-3.3784">
        <ele>2790</ele>
        <time>2021-08-05 12:54:39</time>
      </trkpt>
      <trkpt lat="37.07628" lon="-3.37841">
        <ele>2790</ele>
        <time>2021-08-05 12:54:40</time>
      </trkpt>
      <trkpt lat="37.07627" lon="-3.37841">
        <ele>2790.4</ele>
        <time>2021-08-05 12:54:41</time>
      </trkpt>
      <trkpt lat="37.07627" lon="-3.37842">
        <ele>2790.6</ele>
        <time>2021-08-05 12:54:42</time>
      </trkpt>
      <trkpt lat="37.07627" lon="-3.37841">
        <ele>2790.8</ele>
        <time>2021-08-05 12:54:43</time>
      </trkpt>
      <trkpt lat="37.07626" lon="-3.37842">
        <ele>2791</ele>
        <time>2021-08-05 12:54:44</time>
      </trkpt>
      <trkpt lat="37.07626" lon="-3.37842">
        <ele>2791</ele>
        <time>2021-08-05 12:54:45</time>
      </trkpt>
      <trkpt lat="37.07626" lon="-3.37842">
        <ele>2791.2</ele>
        <time>2021-08-05 12:54:46</time>
      </trkpt>
      <trkpt lat="37.07626" lon="-3.37843">
        <ele>2791.2</ele>
        <time>2021-08-05 12:54:47</time>
      </trkpt>
      <trkpt lat="37.07626" lon="-3.37843">
        <ele>2791.4</ele>
        <time>2021-08-05 12:54:48</time>
      </trkpt>
      <trkpt lat="37.07626" lon="-3.37844">
        <ele>2791.6</ele>
        <time>2021-08-05 12:54:49</time>
      </trkpt>
      <trkpt lat="37.07626" lon="-3.37844">
        <ele>2791.6</ele>
        <time>2021-08-05 12:54:50</time>
      </trkpt>
      <trkpt lat="37.07626" lon="-3.37844">
        <ele>2791.8</ele>
        <time>2021-08-05 12:54:51</time>
      </trkpt>
      <trkpt lat="37.07626" lon="-3.37844">
        <ele>2791.8</ele>
        <time>2021-08-05 12:54:52</time>
      </trkpt>
      <trkpt lat="37.07625" lon="-3.37844">
        <ele>2792</ele>
        <time>2021-08-05 12:54:53</time>
      </trkpt>
      <trkpt lat="37.07625" lon="-3.37844">
        <ele>2792</ele>
        <time>2021-08-05 12:54:54</time>
      </trkpt>
      <trkpt lat="37.07625" lon="-3.37844">
        <ele>2792</ele>
        <time>2021-08-05 12:54:55</time>
      </trkpt>
      <trkpt lat="37.07625" lon="-3.37844">
        <ele>2792</ele>
        <time>2021-08-05 12:54:56</time>
      </trkpt>
      <trkpt lat="37.07625" lon="-3.37845">
        <ele>2792.2</ele>
        <time>2021-08-05 12:54:57</time>
      </trkpt>
      <trkpt lat="37.07625" lon="-3.37845">
        <ele>2792.2</ele>
        <time>2021-08-05 12:54:58</time>
      </trkpt>
      <trkpt lat="37.07625" lon="-3.37845">
        <ele>2792.2</ele>
        <time>2021-08-05 12:54:59</time>
      </trkpt>
      <trkpt lat="37.07624" lon="-3.37845">
        <ele>2792.4</ele>
        <time>2021-08-05 12:55:00</time>
      </trkpt>
      <trkpt lat="37.07624" lon="-3.37845">
        <ele>2792.6</ele>
        <time>2021-08-05 12:55:01</time>
      </trkpt>
      <trkpt lat="37.07623" lon="-3.37846">
        <ele>2792.6</ele>
        <time>2021-08-05 12:55:02</time>
      </trkpt>
      <trkpt lat="37.07623" lon="-3.37846">
        <ele>2792.6</ele>
        <time>2021-08-05 12:55:03</time>
      </trkpt>
      <trkpt lat="37.07623" lon="-3.37846">
        <ele>2792.8</ele>
        <time>2021-08-05 12:55:04</time>
      </trkpt>
      <trkpt lat="37.07623" lon="-3.37846">
        <ele>2793</ele>
        <time>2021-08-05 12:55:05</time>
      </trkpt>
      <trkpt lat="37.07623" lon="-3.37846">
        <ele>2793.2</ele>
        <time>2021-08-05 12:55:06</time>
      </trkpt>
      <trkpt lat="37.07623" lon="-3.37847">
        <ele>2793.2</ele>
        <time>2021-08-05 12:55:07</time>
      </trkpt>
      <trkpt lat="37.07622" lon="-3.37847">
        <ele>2793.4</ele>
        <time>2021-08-05 12:55:08</time>
      </trkpt>
      <trkpt lat="37.07622" lon="-3.37847">
        <ele>2793.4</ele>
        <time>2021-08-05 12:55:09</time>
      </trkpt>
      <trkpt lat="37.07623" lon="-3.37849">
        <ele>2793.4</ele>
        <time>2021-08-05 12:55:10</time>
      </trkpt>
      <trkpt lat="37.07625" lon="-3.3785">
        <ele>2793.6</ele>
        <time>2021-08-05 12:55:11</time>
      </trkpt>
      <trkpt lat="37.07625" lon="-3.37852">
        <ele>2793.6</ele>
        <time>2021-08-05 12:55:12</time>
      </trkpt>
      <trkpt lat="37.07624" lon="-3.37852">
        <ele>2794</ele>
        <time>2021-08-05 12:55:13</time>
      </trkpt>
      <trkpt lat="37.07624" lon="-3.37852">
        <ele>2794</ele>
        <time>2021-08-05 12:55:14</time>
      </trkpt>
      <trkpt lat="37.07624" lon="-3.37853">
        <ele>2794.4</ele>
        <time>2021-08-05 12:55:15</time>
      </trkpt>
      <trkpt lat="37.07624" lon="-3.37853">
        <ele>2794.8</ele>
        <time>2021-08-05 12:55:16</time>
      </trkpt>
      <trkpt lat="37.07624" lon="-3.37853">
        <ele>2794.8</ele>
        <time>2021-08-05 12:55:17</time>
      </trkpt>
      <trkpt lat="37.07623" lon="-3.37853">
        <ele>2795</ele>
        <time>2021-08-05 12:55:18</time>
      </trkpt>
      <trkpt lat="37.07623" lon="-3.37853">
        <ele>2795.2</ele>
        <time>2021-08-05 12:55:19</time>
      </trkpt>
      <trkpt lat="37.07623" lon="-3.37853">
        <ele>2795.4</ele>
        <time>2021-08-05 12:55:20</time>
      </trkpt>
      <trkpt lat="37.07623" lon="-3.37853">
        <ele>2795.8</ele>
        <time>2021-08-05 12:55:21</time>
      </trkpt>
      <trkpt lat="37.07623" lon="-3.37853">
        <ele>2795.8</ele>
        <time>2021-08-05 12:55:22</time>
      </trkpt>
      <trkpt lat="37.07622" lon="-3.37853">
        <ele>2796</ele>
        <time>2021-08-05 12:55:23</time>
      </trkpt>
      <trkpt lat="37.07622" lon="-3.37853">
        <ele>2796.2</ele>
        <time>2021-08-05 12:55:24</time>
      </trkpt>
      <trkpt lat="37.07622" lon="-3.37853">
        <ele>2796.2</ele>
        <time>2021-08-05 12:55:25</time>
      </trkpt>
      <trkpt lat="37.07621" lon="-3.37854">
        <ele>2796.2</ele>
        <time>2021-08-05 12:55:26</time>
      </trkpt>
      <trkpt lat="37.07621" lon="-3.37854">
        <ele>2796.2</ele>
        <time>2021-08-05 12:55:27</time>
      </trkpt>
      <trkpt lat="37.07622" lon="-3.37854">
        <ele>2796.2</ele>
        <time>2021-08-05 12:55:28</time>
      </trkpt>
      <trkpt lat="37.07621" lon="-3.37854">
        <ele>2796.6</ele>
        <time>2021-08-05 12:55:29</time>
      </trkpt>
      <trkpt lat="37.07621" lon="-3.37854">
        <ele>2796.8</ele>
        <time>2021-08-05 12:55:30</time>
      </trkpt>
      <trkpt lat="37.07621" lon="-3.37855">
        <ele>2797.2</ele>
        <time>2021-08-05 12:55:31</time>
      </trkpt>
      <trkpt lat="37.0762" lon="-3.37856">
        <ele>2797.4</ele>
        <time>2021-08-05 12:55:32</time>
      </trkpt>
      <trkpt lat="37.0762" lon="-3.37856">
        <ele>2797.4</ele>
        <time>2021-08-05 12:55:33</time>
      </trkpt>
      <trkpt lat="37.07621" lon="-3.37856">
        <ele>2797.6</ele>
        <time>2021-08-05 12:55:34</time>
      </trkpt>
      <trkpt lat="37.0762" lon="-3.37856">
        <ele>2797.6</ele>
        <time>2021-08-05 12:55:35</time>
      </trkpt>
      <trkpt lat="37.0762" lon="-3.37856">
        <ele>2797.8</ele>
        <time>2021-08-05 12:55:36</time>
      </trkpt>
      <trkpt lat="37.0762" lon="-3.37857">
        <ele>2798</ele>
        <time>2021-08-05 12:55:37</time>
      </trkpt>
      <trkpt lat="37.0762" lon="-3.37858">
        <ele>2798</ele>
        <time>2021-08-05 12:55:38</time>
      </trkpt>
      <trkpt lat="37.0762" lon="-3.37858">
        <ele>2798.4</ele>
        <time>2021-08-05 12:55:39</time>
      </trkpt>
      <trkpt lat="37.07619" lon="-3.3786">
        <ele>2798.6</ele>
        <time>2021-08-05 12:55:40</time>
      </trkpt>
      <trkpt lat="37.07618" lon="-3.37862">
        <ele>2798.6</ele>
        <time>2021-08-05 12:55:41</time>
      </trkpt>
      <trkpt lat="37.07617" lon="-3.37863">
        <ele>2798.8</ele>
        <time>2021-08-05 12:55:42</time>
      </trkpt>
      <trkpt lat="37.07617" lon="-3.37863">
        <ele>2799</ele>
        <time>2021-08-05 12:55:43</time>
      </trkpt>
      <trkpt lat="37.07616" lon="-3.37864">
        <ele>2799.2</ele>
        <time>2021-08-05 12:55:44</time>
      </trkpt>
      <trkpt lat="37.07615" lon="-3.37864">
        <ele>2799.2</ele>
        <time>2021-08-05 12:55:45</time>
      </trkpt>
      <trkpt lat="37.07615" lon="-3.37865">
        <ele>2799.4</ele>
        <time>2021-08-05 12:55:46</time>
      </trkpt>
      <trkpt lat="37.07615" lon="-3.37866">
        <ele>2799.6</ele>
        <time>2021-08-05 12:55:47</time>
      </trkpt>
      <trkpt lat="37.07616" lon="-3.37866">
        <ele>2799.8</ele>
        <time>2021-08-05 12:55:48</time>
      </trkpt>
      <trkpt lat="37.07617" lon="-3.37867">
        <ele>2799.8</ele>
        <time>2021-08-05 12:55:49</time>
      </trkpt>
      <trkpt lat="37.07617" lon="-3.37868">
        <ele>2799.8</ele>
        <time>2021-08-05 12:55:50</time>
      </trkpt>
      <trkpt lat="37.07617" lon="-3.3787">
        <ele>2800</ele>
        <time>2021-08-05 12:55:51</time>
      </trkpt>
      <trkpt lat="37.07616" lon="-3.37871">
        <ele>2800</ele>
        <time>2021-08-05 12:55:52</time>
      </trkpt>
      <trkpt lat="37.07616" lon="-3.37871">
        <ele>2800</ele>
        <time>2021-08-05 12:55:53</time>
      </trkpt>
      <trkpt lat="37.07615" lon="-3.37872">
        <ele>2800</ele>
        <time>2021-08-05 12:55:54</time>
      </trkpt>
      <trkpt lat="37.07615" lon="-3.37872">
        <ele>2800.2</ele>
        <time>2021-08-05 12:55:55</time>
      </trkpt>
      <trkpt lat="37.07615" lon="-3.37873">
        <ele>2800.2</ele>
        <time>2021-08-05 12:55:56</time>
      </trkpt>
      <trkpt lat="37.07614" lon="-3.37873">
        <ele>2800.2</ele>
        <time>2021-08-05 12:55:57</time>
      </trkpt>
      <trkpt lat="37.07614" lon="-3.37873">
        <ele>2800.4</ele>
        <time>2021-08-05 12:55:58</time>
      </trkpt>
      <trkpt lat="37.07614" lon="-3.37873">
        <ele>2800.4</ele>
        <time>2021-08-05 12:55:59</time>
      </trkpt>
      <trkpt lat="37.07613" lon="-3.37873">
        <ele>2800.4</ele>
        <time>2021-08-05 12:56:00</time>
      </trkpt>
      <trkpt lat="37.07612" lon="-3.37872">
        <ele>2800.6</ele>
        <time>2021-08-05 12:56:01</time>
      </trkpt>
      <trkpt lat="37.07612" lon="-3.37872">
        <ele>2800.6</ele>
        <time>2021-08-05 12:56:02</time>
      </trkpt>
      <trkpt lat="37.07611" lon="-3.37871">
        <ele>2800.8</ele>
        <time>2021-08-05 12:56:03</time>
      </trkpt>
      <trkpt lat="37.07611" lon="-3.37871">
        <ele>2800.8</ele>
        <time>2021-08-05 12:56:04</time>
      </trkpt>
      <trkpt lat="37.0761" lon="-3.3787">
        <ele>2800.8</ele>
        <time>2021-08-05 12:56:05</time>
      </trkpt>
      <trkpt lat="37.07608" lon="-3.37869">
        <ele>2800.8</ele>
        <time>2021-08-05 12:56:06</time>
      </trkpt>
      <trkpt lat="37.07606" lon="-3.37868">
        <ele>2801</ele>
        <time>2021-08-05 12:56:07</time>
      </trkpt>
      <trkpt lat="37.07605" lon="-3.37868">
        <ele>2801.2</ele>
        <time>2021-08-05 12:56:08</time>
      </trkpt>
      <trkpt lat="37.07604" lon="-3.37868">
        <ele>2801.2</ele>
        <time>2021-08-05 12:56:09</time>
      </trkpt>
      <trkpt lat="37.07603" lon="-3.37867">
        <ele>2801.4</ele>
        <time>2021-08-05 12:56:10</time>
      </trkpt>
      <trkpt lat="37.07603" lon="-3.37867">
        <ele>2801.6</ele>
        <time>2021-08-05 12:56:11</time>
      </trkpt>
      <trkpt lat="37.07602" lon="-3.37866">
        <ele>2801.6</ele>
        <time>2021-08-05 12:56:12</time>
      </trkpt>
      <trkpt lat="37.07602" lon="-3.37865">
        <ele>2801.6</ele>
        <time>2021-08-05 12:56:13</time>
      </trkpt>
      <trkpt lat="37.07602" lon="-3.37864">
        <ele>2801.6</ele>
        <time>2021-08-05 12:56:14</time>
      </trkpt>
      <trkpt lat="37.07602" lon="-3.37863">
        <ele>2801.6</ele>
        <time>2021-08-05 12:56:15</time>
      </trkpt>
      <trkpt lat="37.07602" lon="-3.37864">
        <ele>2801.6</ele>
        <time>2021-08-05 12:56:16</time>
      </trkpt>
      <trkpt lat="37.07601" lon="-3.37864">
        <ele>2801.6</ele>
        <time>2021-08-05 12:56:17</time>
      </trkpt>
      <trkpt lat="37.07601" lon="-3.37863">
        <ele>2801.6</ele>
        <time>2021-08-05 12:56:18</time>
      </trkpt>
      <trkpt lat="37.076" lon="-3.37863">
        <ele>2801.8</ele>
        <time>2021-08-05 12:56:19</time>
      </trkpt>
      <trkpt lat="37.076" lon="-3.37864">
        <ele>2801.8</ele>
        <time>2021-08-05 12:56:20</time>
      </trkpt>
      <trkpt lat="37.076" lon="-3.37863">
        <ele>2801.8</ele>
        <time>2021-08-05 12:56:21</time>
      </trkpt>
      <trkpt lat="37.076" lon="-3.37863">
        <ele>2801.8</ele>
        <time>2021-08-05 12:56:22</time>
      </trkpt>
      <trkpt lat="37.07599" lon="-3.37862">
        <ele>2802</ele>
        <time>2021-08-05 12:56:23</time>
      </trkpt>
      <trkpt lat="37.07599" lon="-3.37861">
        <ele>2802</ele>
        <time>2021-08-05 12:56:24</time>
      </trkpt>
      <trkpt lat="37.07599" lon="-3.3786">
        <ele>2802.2</ele>
        <time>2021-08-05 12:56:25</time>
      </trkpt>
      <trkpt lat="37.07598" lon="-3.37859">
        <ele>2802.2</ele>
        <time>2021-08-05 12:56:26</time>
      </trkpt>
      <trkpt lat="37.07598" lon="-3.37859">
        <ele>2802</ele>
        <time>2021-08-05 12:56:27</time>
      </trkpt>
      <trkpt lat="37.07597" lon="-3.37858">
        <ele>2802.2</ele>
        <time>2021-08-05 12:56:28</time>
      </trkpt>
      <trkpt lat="37.07597" lon="-3.37858">
        <ele>2802.2</ele>
        <time>2021-08-05 12:56:29</time>
      </trkpt>
      <trkpt lat="37.07597" lon="-3.37858">
        <ele>2802.2</ele>
        <time>2021-08-05 12:56:30</time>
      </trkpt>
      <trkpt lat="37.07597" lon="-3.37858">
        <ele>2802.2</ele>
        <time>2021-08-05 12:56:31</time>
      </trkpt>
      <trkpt lat="37.07597" lon="-3.37858">
        <ele>2802.2</ele>
        <time>2021-08-05 12:56:32</time>
      </trkpt>
      <trkpt lat="37.07596" lon="-3.37858">
        <ele>2802.2</ele>
        <time>2021-08-05 12:56:33</time>
      </trkpt>
      <trkpt lat="37.07596" lon="-3.37857">
        <ele>2802.4</ele>
        <time>2021-08-05 12:56:34</time>
      </trkpt>
      <trkpt lat="37.07595" lon="-3.37857">
        <ele>2802.4</ele>
        <time>2021-08-05 12:56:35</time>
      </trkpt>
      <trkpt lat="37.07594" lon="-3.37858">
        <ele>2802.6</ele>
        <time>2021-08-05 12:56:36</time>
      </trkpt>
      <trkpt lat="37.07594" lon="-3.37858">
        <ele>2802.6</ele>
        <time>2021-08-05 12:56:37</time>
      </trkpt>
      <trkpt lat="37.07593" lon="-3.37858">
        <ele>2802.8</ele>
        <time>2021-08-05 12:56:38</time>
      </trkpt>
      <trkpt lat="37.07593" lon="-3.37858">
        <ele>2803</ele>
        <time>2021-08-05 12:56:39</time>
      </trkpt>
      <trkpt lat="37.07592" lon="-3.37858">
        <ele>2803</ele>
        <time>2021-08-05 12:56:40</time>
      </trkpt>
      <trkpt lat="37.07592" lon="-3.37858">
        <ele>2803.2</ele>
        <time>2021-08-05 12:56:41</time>
      </trkpt>
      <trkpt lat="37.07591" lon="-3.37858">
        <ele>2803.2</ele>
        <time>2021-08-05 12:56:42</time>
      </trkpt>
      <trkpt lat="37.07591" lon="-3.37857">
        <ele>2803.4</ele>
        <time>2021-08-05 12:56:43</time>
      </trkpt>
      <trkpt lat="37.0759" lon="-3.37859">
        <ele>2803.8</ele>
        <time>2021-08-05 12:56:44</time>
      </trkpt>
      <trkpt lat="37.0759" lon="-3.3786">
        <ele>2804.2</ele>
        <time>2021-08-05 12:56:45</time>
      </trkpt>
      <trkpt lat="37.07589" lon="-3.3786">
        <ele>2804.4</ele>
        <time>2021-08-05 12:56:46</time>
      </trkpt>
      <trkpt lat="37.07588" lon="-3.3786">
        <ele>2804.4</ele>
        <time>2021-08-05 12:56:47</time>
      </trkpt>
      <trkpt lat="37.07587" lon="-3.3786">
        <ele>2804.4</ele>
        <time>2021-08-05 12:56:48</time>
      </trkpt>
      <trkpt lat="37.07587" lon="-3.37861">
        <ele>2804.6</ele>
        <time>2021-08-05 12:56:49</time>
      </trkpt>
      <trkpt lat="37.07587" lon="-3.37859">
        <ele>2804.4</ele>
        <time>2021-08-05 12:56:50</time>
      </trkpt>
      <trkpt lat="37.07588" lon="-3.37858">
        <ele>2804.4</ele>
        <time>2021-08-05 12:56:51</time>
      </trkpt>
      <trkpt lat="37.07587" lon="-3.37858">
        <ele>2804.4</ele>
        <time>2021-08-05 12:56:52</time>
      </trkpt>
      <trkpt lat="37.07587" lon="-3.37857">
        <ele>2804.4</ele>
        <time>2021-08-05 12:56:53</time>
      </trkpt>
      <trkpt lat="37.07588" lon="-3.37857">
        <ele>2804.4</ele>
        <time>2021-08-05 12:56:54</time>
      </trkpt>
      <trkpt lat="37.07587" lon="-3.37857">
        <ele>2804.4</ele>
        <time>2021-08-05 12:56:55</time>
      </trkpt>
      <trkpt lat="37.07587" lon="-3.37857">
        <ele>2804.4</ele>
        <time>2021-08-05 12:56:56</time>
      </trkpt>
      <trkpt lat="37.07586" lon="-3.37857">
        <ele>2804.6</ele>
        <time>2021-08-05 12:56:57</time>
      </trkpt>
      <trkpt lat="37.07585" lon="-3.37857">
        <ele>2804.6</ele>
        <time>2021-08-05 12:56:58</time>
      </trkpt>
      <trkpt lat="37.07585" lon="-3.37857">
        <ele>2804.8</ele>
        <time>2021-08-05 12:56:59</time>
      </trkpt>
      <trkpt lat="37.07584" lon="-3.37856">
        <ele>2804.8</ele>
        <time>2021-08-05 12:57:00</time>
      </trkpt>
      <trkpt lat="37.07584" lon="-3.37856">
        <ele>2805</ele>
        <time>2021-08-05 12:57:01</time>
      </trkpt>
      <trkpt lat="37.07583" lon="-3.37855">
        <ele>2805.2</ele>
        <time>2021-08-05 12:57:02</time>
      </trkpt>
      <trkpt lat="37.07582" lon="-3.37855">
        <ele>2805</ele>
        <time>2021-08-05 12:57:03</time>
      </trkpt>
      <trkpt lat="37.07582" lon="-3.37855">
        <ele>2805</ele>
        <time>2021-08-05 12:57:04</time>
      </trkpt>
      <trkpt lat="37.07581" lon="-3.37855">
        <ele>2805</ele>
        <time>2021-08-05 12:57:05</time>
      </trkpt>
      <trkpt lat="37.0758" lon="-3.37854">
        <ele>2805</ele>
        <time>2021-08-05 12:57:06</time>
      </trkpt>
      <trkpt lat="37.0758" lon="-3.37854">
        <ele>2805.2</ele>
        <time>2021-08-05 12:57:07</time>
      </trkpt>
      <trkpt lat="37.07579" lon="-3.37853">
        <ele>2805.4</ele>
        <time>2021-08-05 12:57:08</time>
      </trkpt>
      <trkpt lat="37.07579" lon="-3.37852">
        <ele>2805.4</ele>
        <time>2021-08-05 12:57:09</time>
      </trkpt>
      <trkpt lat="37.07578" lon="-3.37851">
        <ele>2805.6</ele>
        <time>2021-08-05 12:57:10</time>
      </trkpt>
      <trkpt lat="37.07578" lon="-3.3785">
        <ele>2805.6</ele>
        <time>2021-08-05 12:57:11</time>
      </trkpt>
      <trkpt lat="37.07577" lon="-3.3785">
        <ele>2805.8</ele>
        <time>2021-08-05 12:57:12</time>
      </trkpt>
      <trkpt lat="37.07576" lon="-3.3785">
        <ele>2805.8</ele>
        <time>2021-08-05 12:57:13</time>
      </trkpt>
      <trkpt lat="37.07575" lon="-3.37852">
        <ele>2806</ele>
        <time>2021-08-05 12:57:14</time>
      </trkpt>
      <trkpt lat="37.07574" lon="-3.37852">
        <ele>2806.2</ele>
        <time>2021-08-05 12:57:15</time>
      </trkpt>
      <trkpt lat="37.07574" lon="-3.37853">
        <ele>2806.2</ele>
        <time>2021-08-05 12:57:16</time>
      </trkpt>
      <trkpt lat="37.07573" lon="-3.37852">
        <ele>2806.4</ele>
        <time>2021-08-05 12:57:17</time>
      </trkpt>
      <trkpt lat="37.07573" lon="-3.37852">
        <ele>2806.4</ele>
        <time>2021-08-05 12:57:18</time>
      </trkpt>
      <trkpt lat="37.07573" lon="-3.37852">
        <ele>2806.4</ele>
        <time>2021-08-05 12:57:19</time>
      </trkpt>
      <trkpt lat="37.07573" lon="-3.37851">
        <ele>2806.4</ele>
        <time>2021-08-05 12:57:20</time>
      </trkpt>
      <trkpt lat="37.07572" lon="-3.37851">
        <ele>2806.4</ele>
        <time>2021-08-05 12:57:21</time>
      </trkpt>
      <trkpt lat="37.07571" lon="-3.37851">
        <ele>2806.4</ele>
        <time>2021-08-05 12:57:22</time>
      </trkpt>
      <trkpt lat="37.07571" lon="-3.37851">
        <ele>2806.4</ele>
        <time>2021-08-05 12:57:23</time>
      </trkpt>
      <trkpt lat="37.0757" lon="-3.37851">
        <ele>2806.4</ele>
        <time>2021-08-05 12:57:24</time>
      </trkpt>
      <trkpt lat="37.0757" lon="-3.37851">
        <ele>2806.4</ele>
        <time>2021-08-05 12:57:25</time>
      </trkpt>
      <trkpt lat="37.0757" lon="-3.37851">
        <ele>2806.6</ele>
        <time>2021-08-05 12:57:26</time>
      </trkpt>
      <trkpt lat="37.07569" lon="-3.3785">
        <ele>2806.8</ele>
        <time>2021-08-05 12:57:27</time>
      </trkpt>
      <trkpt lat="37.07569" lon="-3.3785">
        <ele>2806.8</ele>
        <time>2021-08-05 12:57:28</time>
      </trkpt>
      <trkpt lat="37.07569" lon="-3.3785">
        <ele>2807</ele>
        <time>2021-08-05 12:57:29</time>
      </trkpt>
      <trkpt lat="37.07569" lon="-3.3785">
        <ele>2807</ele>
        <time>2021-08-05 12:57:30</time>
      </trkpt>
      <trkpt lat="37.07569" lon="-3.3785">
        <ele>2807.2</ele>
        <time>2021-08-05 12:57:31</time>
      </trkpt>
      <trkpt lat="37.07568" lon="-3.37851">
        <ele>2807.2</ele>
        <time>2021-08-05 12:57:32</time>
      </trkpt>
      <trkpt lat="37.07569" lon="-3.3785">
        <ele>2807.4</ele>
        <time>2021-08-05 12:57:33</time>
      </trkpt>
      <trkpt lat="37.07568" lon="-3.37851">
        <ele>2807.4</ele>
        <time>2021-08-05 12:57:34</time>
      </trkpt>
      <trkpt lat="37.07567" lon="-3.37852">
        <ele>2807.4</ele>
        <time>2021-08-05 12:57:35</time>
      </trkpt>
      <trkpt lat="37.07567" lon="-3.37852">
        <ele>2807.4</ele>
        <time>2021-08-05 12:57:36</time>
      </trkpt>
      <trkpt lat="37.07566" lon="-3.37852">
        <ele>2807.6</ele>
        <time>2021-08-05 12:57:37</time>
      </trkpt>
      <trkpt lat="37.07566" lon="-3.37852">
        <ele>2807.8</ele>
        <time>2021-08-05 12:57:38</time>
      </trkpt>
      <trkpt lat="37.07565" lon="-3.37852">
        <ele>2808</ele>
        <time>2021-08-05 12:57:39</time>
      </trkpt>
      <trkpt lat="37.07564" lon="-3.37851">
        <ele>2808</ele>
        <time>2021-08-05 12:57:40</time>
      </trkpt>
      <trkpt lat="37.07564" lon="-3.37851">
        <ele>2808</ele>
        <time>2021-08-05 12:57:41</time>
      </trkpt>
      <trkpt lat="37.07563" lon="-3.3785">
        <ele>2808.2</ele>
        <time>2021-08-05 12:57:42</time>
      </trkpt>
      <trkpt lat="37.07563" lon="-3.3785">
        <ele>2808.2</ele>
        <time>2021-08-05 12:57:43</time>
      </trkpt>
      <trkpt lat="37.07562" lon="-3.3785">
        <ele>2808.2</ele>
        <time>2021-08-05 12:57:44</time>
      </trkpt>
      <trkpt lat="37.07562" lon="-3.37849">
        <ele>2808.4</ele>
        <time>2021-08-05 12:57:45</time>
      </trkpt>
      <trkpt lat="37.07562" lon="-3.37849">
        <ele>2808.6</ele>
        <time>2021-08-05 12:57:46</time>
      </trkpt>
      <trkpt lat="37.07561" lon="-3.37849">
        <ele>2808.6</ele>
        <time>2021-08-05 12:57:47</time>
      </trkpt>
      <trkpt lat="37.07561" lon="-3.37849">
        <ele>2808.6</ele>
        <time>2021-08-05 12:57:48</time>
      </trkpt>
      <trkpt lat="37.0756" lon="-3.37848">
        <ele>2808.6</ele>
        <time>2021-08-05 12:57:49</time>
      </trkpt>
      <trkpt lat="37.0756" lon="-3.37847">
        <ele>2808.6</ele>
        <time>2021-08-05 12:57:50</time>
      </trkpt>
      <trkpt lat="37.0756" lon="-3.37847">
        <ele>2808.6</ele>
        <time>2021-08-05 12:57:51</time>
      </trkpt>
      <trkpt lat="37.0756" lon="-3.37846">
        <ele>2808.8</ele>
        <time>2021-08-05 12:57:52</time>
      </trkpt>
      <trkpt lat="37.0756" lon="-3.37845">
        <ele>2809</ele>
        <time>2021-08-05 12:57:53</time>
      </trkpt>
      <trkpt lat="37.0756" lon="-3.37845">
        <ele>2809.2</ele>
        <time>2021-08-05 12:57:54</time>
      </trkpt>
      <trkpt lat="37.0756" lon="-3.37844">
        <ele>2809.4</ele>
        <time>2021-08-05 12:57:55</time>
      </trkpt>
      <trkpt lat="37.0756" lon="-3.37843">
        <ele>2809.6</ele>
        <time>2021-08-05 12:57:56</time>
      </trkpt>
      <trkpt lat="37.0756" lon="-3.37842">
        <ele>2809.6</ele>
        <time>2021-08-05 12:57:57</time>
      </trkpt>
      <trkpt lat="37.0756" lon="-3.37841">
        <ele>2809.6</ele>
        <time>2021-08-05 12:57:58</time>
      </trkpt>
      <trkpt lat="37.0756" lon="-3.37841">
        <ele>2809.6</ele>
        <time>2021-08-05 12:57:59</time>
      </trkpt>
      <trkpt lat="37.0756" lon="-3.3784">
        <ele>2809.6</ele>
        <time>2021-08-05 12:58:00</time>
      </trkpt>
      <trkpt lat="37.07559" lon="-3.37839">
        <ele>2809.6</ele>
        <time>2021-08-05 12:58:01</time>
      </trkpt>
      <trkpt lat="37.07559" lon="-3.37839">
        <ele>2809.6</ele>
        <time>2021-08-05 12:58:02</time>
      </trkpt>
      <trkpt lat="37.07558" lon="-3.37838">
        <ele>2809.6</ele>
        <time>2021-08-05 12:58:03</time>
      </trkpt>
      <trkpt lat="37.07558" lon="-3.37838">
        <ele>2809.8</ele>
        <time>2021-08-05 12:58:04</time>
      </trkpt>
      <trkpt lat="37.07557" lon="-3.37837">
        <ele>2809.8</ele>
        <time>2021-08-05 12:58:05</time>
      </trkpt>
      <trkpt lat="37.07556" lon="-3.37837">
        <ele>2810</ele>
        <time>2021-08-05 12:58:06</time>
      </trkpt>
      <trkpt lat="37.07555" lon="-3.37837">
        <ele>2810</ele>
        <time>2021-08-05 12:58:07</time>
      </trkpt>
      <trkpt lat="37.07555" lon="-3.37837">
        <ele>2810</ele>
        <time>2021-08-05 12:58:08</time>
      </trkpt>
      <trkpt lat="37.07555" lon="-3.37837">
        <ele>2810.2</ele>
        <time>2021-08-05 12:58:09</time>
      </trkpt>
      <trkpt lat="37.07555" lon="-3.37837">
        <ele>2810.4</ele>
        <time>2021-08-05 12:58:10</time>
      </trkpt>
      <trkpt lat="37.07555" lon="-3.37837">
        <ele>2810.4</ele>
        <time>2021-08-05 12:58:11</time>
      </trkpt>
      <trkpt lat="37.07554" lon="-3.37837">
        <ele>2810.6</ele>
        <time>2021-08-05 12:58:12</time>
      </trkpt>
      <trkpt lat="37.07554" lon="-3.37837">
        <ele>2810.6</ele>
        <time>2021-08-05 12:58:13</time>
      </trkpt>
      <trkpt lat="37.07553" lon="-3.37838">
        <ele>2810.6</ele>
        <time>2021-08-05 12:58:14</time>
      </trkpt>
      <trkpt lat="37.07553" lon="-3.37838">
        <ele>2810.6</ele>
        <time>2021-08-05 12:58:15</time>
      </trkpt>
      <trkpt lat="37.07553" lon="-3.37837">
        <ele>2811</ele>
        <time>2021-08-05 12:58:16</time>
      </trkpt>
      <trkpt lat="37.07552" lon="-3.37837">
        <ele>2811.2</ele>
        <time>2021-08-05 12:58:17</time>
      </trkpt>
      <trkpt lat="37.07552" lon="-3.37837">
        <ele>2811.2</ele>
        <time>2021-08-05 12:58:18</time>
      </trkpt>
      <trkpt lat="37.07551" lon="-3.37838">
        <ele>2811.2</ele>
        <time>2021-08-05 12:58:19</time>
      </trkpt>
      <trkpt lat="37.07552" lon="-3.37837">
        <ele>2811.6</ele>
        <time>2021-08-05 12:58:20</time>
      </trkpt>
      <trkpt lat="37.07552" lon="-3.37835">
        <ele>2811.6</ele>
        <time>2021-08-05 12:58:21</time>
      </trkpt>
      <trkpt lat="37.07552" lon="-3.37835">
        <ele>2811.8</ele>
        <time>2021-08-05 12:58:22</time>
      </trkpt>
      <trkpt lat="37.07552" lon="-3.37835">
        <ele>2811.8</ele>
        <time>2021-08-05 12:58:23</time>
      </trkpt>
      <trkpt lat="37.07553" lon="-3.37834">
        <ele>2811.8</ele>
        <time>2021-08-05 12:58:24</time>
      </trkpt>
      <trkpt lat="37.07552" lon="-3.37832">
        <ele>2811.8</ele>
        <time>2021-08-05 12:58:25</time>
      </trkpt>
      <trkpt lat="37.07552" lon="-3.37831">
        <ele>2812</ele>
        <time>2021-08-05 12:58:26</time>
      </trkpt>
      <trkpt lat="37.07551" lon="-3.37831">
        <ele>2812</ele>
        <time>2021-08-05 12:58:27</time>
      </trkpt>
      <trkpt lat="37.07551" lon="-3.37831">
        <ele>2812.2</ele>
        <time>2021-08-05 12:58:28</time>
      </trkpt>
      <trkpt lat="37.07551" lon="-3.3783">
        <ele>2812.4</ele>
        <time>2021-08-05 12:58:29</time>
      </trkpt>
      <trkpt lat="37.0755" lon="-3.37831">
        <ele>2812.6</ele>
        <time>2021-08-05 12:58:30</time>
      </trkpt>
      <trkpt lat="37.07549" lon="-3.37832">
        <ele>2812.6</ele>
        <time>2021-08-05 12:58:31</time>
      </trkpt>
      <trkpt lat="37.07548" lon="-3.37832">
        <ele>2812.6</ele>
        <time>2021-08-05 12:58:32</time>
      </trkpt>
      <trkpt lat="37.07547" lon="-3.37832">
        <ele>2812.6</ele>
        <time>2021-08-05 12:58:33</time>
      </trkpt>
      <trkpt lat="37.07547" lon="-3.37832">
        <ele>2812.6</ele>
        <time>2021-08-05 12:58:34</time>
      </trkpt>
      <trkpt lat="37.07546" lon="-3.37832">
        <ele>2812.6</ele>
        <time>2021-08-05 12:58:35</time>
      </trkpt>
      <trkpt lat="37.07545" lon="-3.37831">
        <ele>2812.4</ele>
        <time>2021-08-05 12:58:36</time>
      </trkpt>
      <trkpt lat="37.07545" lon="-3.37831">
        <ele>2812.4</ele>
        <time>2021-08-05 12:58:37</time>
      </trkpt>
      <trkpt lat="37.07544" lon="-3.37831">
        <ele>2812.4</ele>
        <time>2021-08-05 12:58:38</time>
      </trkpt>
      <trkpt lat="37.07543" lon="-3.3783">
        <ele>2812.4</ele>
        <time>2021-08-05 12:58:39</time>
      </trkpt>
      <trkpt lat="37.07543" lon="-3.3783">
        <ele>2812.4</ele>
        <time>2021-08-05 12:58:40</time>
      </trkpt>
      <trkpt lat="37.07543" lon="-3.3783">
        <ele>2812.6</ele>
        <time>2021-08-05 12:58:41</time>
      </trkpt>
      <trkpt lat="37.07542" lon="-3.37829">
        <ele>2812.8</ele>
        <time>2021-08-05 12:58:42</time>
      </trkpt>
      <trkpt lat="37.07542" lon="-3.37829">
        <ele>2812.8</ele>
        <time>2021-08-05 12:58:43</time>
      </trkpt>
      <trkpt lat="37.07542" lon="-3.37828">
        <ele>2812.8</ele>
        <time>2021-08-05 12:58:44</time>
      </trkpt>
      <trkpt lat="37.07542" lon="-3.37828">
        <ele>2812.8</ele>
        <time>2021-08-05 12:58:45</time>
      </trkpt>
      <trkpt lat="37.07541" lon="-3.37827">
        <ele>2813.2</ele>
        <time>2021-08-05 12:58:46</time>
      </trkpt>
      <trkpt lat="37.07541" lon="-3.37827">
        <ele>2813.4</ele>
        <time>2021-08-05 12:58:47</time>
      </trkpt>
      <trkpt lat="37.07541" lon="-3.37826">
        <ele>2813.4</ele>
        <time>2021-08-05 12:58:48</time>
      </trkpt>
      <trkpt lat="37.0754" lon="-3.37826">
        <ele>2813.6</ele>
        <time>2021-08-05 12:58:49</time>
      </trkpt>
      <trkpt lat="37.0754" lon="-3.37826">
        <ele>2813.6</ele>
        <time>2021-08-05 12:58:50</time>
      </trkpt>
      <trkpt lat="37.0754" lon="-3.37826">
        <ele>2813.8</ele>
        <time>2021-08-05 12:58:51</time>
      </trkpt>
      <trkpt lat="37.07539" lon="-3.37826">
        <ele>2813.8</ele>
        <time>2021-08-05 12:58:52</time>
      </trkpt>
      <trkpt lat="37.07538" lon="-3.37826">
        <ele>2814</ele>
        <time>2021-08-05 12:58:53</time>
      </trkpt>
      <trkpt lat="37.07538" lon="-3.37826">
        <ele>2814.2</ele>
        <time>2021-08-05 12:58:54</time>
      </trkpt>
      <trkpt lat="37.07537" lon="-3.37825">
        <ele>2814.4</ele>
        <time>2021-08-05 12:58:55</time>
      </trkpt>
      <trkpt lat="37.07537" lon="-3.37826">
        <ele>2814.4</ele>
        <time>2021-08-05 12:58:56</time>
      </trkpt>
      <trkpt lat="37.07537" lon="-3.37826">
        <ele>2814.6</ele>
        <time>2021-08-05 12:58:57</time>
      </trkpt>
      <trkpt lat="37.07537" lon="-3.37825">
        <ele>2814.6</ele>
        <time>2021-08-05 12:58:58</time>
      </trkpt>
      <trkpt lat="37.07536" lon="-3.37825">
        <ele>2814.8</ele>
        <time>2021-08-05 12:58:59</time>
      </trkpt>
      <trkpt lat="37.07536" lon="-3.37825">
        <ele>2814.8</ele>
        <time>2021-08-05 12:59:00</time>
      </trkpt>
      <trkpt lat="37.07536" lon="-3.37825">
        <ele>2814.8</ele>
        <time>2021-08-05 12:59:01</time>
      </trkpt>
      <trkpt lat="37.07537" lon="-3.37825">
        <ele>2815.2</ele>
        <time>2021-08-05 12:59:02</time>
      </trkpt>
      <trkpt lat="37.07537" lon="-3.37825">
        <ele>2815.6</ele>
        <time>2021-08-05 12:59:03</time>
      </trkpt>
      <trkpt lat="37.07537" lon="-3.37825">
        <ele>2815.8</ele>
        <time>2021-08-05 12:59:04</time>
      </trkpt>
      <trkpt lat="37.07537" lon="-3.37824">
        <ele>2815.8</ele>
        <time>2021-08-05 12:59:05</time>
      </trkpt>
      <trkpt lat="37.07536" lon="-3.37824">
        <ele>2816</ele>
        <time>2021-08-05 12:59:06</time>
      </trkpt>
      <trkpt lat="37.07536" lon="-3.37825">
        <ele>2816</ele>
        <time>2021-08-05 12:59:07</time>
      </trkpt>
      <trkpt lat="37.07535" lon="-3.37826">
        <ele>2816</ele>
        <time>2021-08-05 12:59:08</time>
      </trkpt>
      <trkpt lat="37.07534" lon="-3.37825">
        <ele>2816</ele>
        <time>2021-08-05 12:59:09</time>
      </trkpt>
      <trkpt lat="37.07534" lon="-3.37824">
        <ele>2816</ele>
        <time>2021-08-05 12:59:10</time>
      </trkpt>
      <trkpt lat="37.07534" lon="-3.37824">
        <ele>2816</ele>
        <time>2021-08-05 12:59:11</time>
      </trkpt>
      <trkpt lat="37.07534" lon="-3.37824">
        <ele>2816.2</ele>
        <time>2021-08-05 12:59:12</time>
      </trkpt>
      <trkpt lat="37.07534" lon="-3.37823">
        <ele>2816.4</ele>
        <time>2021-08-05 12:59:13</time>
      </trkpt>
      <trkpt lat="37.07534" lon="-3.37823">
        <ele>2816.4</ele>
        <time>2021-08-05 12:59:14</time>
      </trkpt>
      <trkpt lat="37.07534" lon="-3.37822">
        <ele>2816.4</ele>
        <time>2021-08-05 12:59:15</time>
      </trkpt>
      <trkpt lat="37.07534" lon="-3.37822">
        <ele>2816.4</ele>
        <time>2021-08-05 12:59:16</time>
      </trkpt>
      <trkpt lat="37.07534" lon="-3.37822">
        <ele>2816.6</ele>
        <time>2021-08-05 12:59:17</time>
      </trkpt>
      <trkpt lat="37.07535" lon="-3.3782">
        <ele>2816.6</ele>
        <time>2021-08-05 12:59:18</time>
      </trkpt>
      <trkpt lat="37.07535" lon="-3.3782">
        <ele>2816.6</ele>
        <time>2021-08-05 12:59:19</time>
      </trkpt>
      <trkpt lat="37.07535" lon="-3.3782">
        <ele>2816.6</ele>
        <time>2021-08-05 12:59:20</time>
      </trkpt>
      <trkpt lat="37.07535" lon="-3.3782">
        <ele>2816.6</ele>
        <time>2021-08-05 12:59:21</time>
      </trkpt>
      <trkpt lat="37.07534" lon="-3.3782">
        <ele>2816.8</ele>
        <time>2021-08-05 12:59:22</time>
      </trkpt>
      <trkpt lat="37.07534" lon="-3.3782">
        <ele>2816.8</ele>
        <time>2021-08-05 12:59:23</time>
      </trkpt>
      <trkpt lat="37.07533" lon="-3.3782">
        <ele>2817</ele>
        <time>2021-08-05 12:59:24</time>
      </trkpt>
      <trkpt lat="37.07532" lon="-3.37819">
        <ele>2817.2</ele>
        <time>2021-08-05 12:59:25</time>
      </trkpt>
      <trkpt lat="37.07532" lon="-3.37819">
        <ele>2817.2</ele>
        <time>2021-08-05 12:59:26</time>
      </trkpt>
      <trkpt lat="37.07531" lon="-3.37818">
        <ele>2817.4</ele>
        <time>2021-08-05 12:59:27</time>
      </trkpt>
      <trkpt lat="37.07531" lon="-3.37818">
        <ele>2817.6</ele>
        <time>2021-08-05 12:59:28</time>
      </trkpt>
      <trkpt lat="37.0753" lon="-3.37817">
        <ele>2817.8</ele>
        <time>2021-08-05 12:59:29</time>
      </trkpt>
      <trkpt lat="37.0753" lon="-3.37817">
        <ele>2817.8</ele>
        <time>2021-08-05 12:59:30</time>
      </trkpt>
      <trkpt lat="37.0753" lon="-3.37816">
        <ele>2818</ele>
        <time>2021-08-05 12:59:31</time>
      </trkpt>
      <trkpt lat="37.0753" lon="-3.37815">
        <ele>2818</ele>
        <time>2021-08-05 12:59:32</time>
      </trkpt>
      <trkpt lat="37.07529" lon="-3.37814">
        <ele>2818.2</ele>
        <time>2021-08-05 12:59:33</time>
      </trkpt>
      <trkpt lat="37.07529" lon="-3.37814">
        <ele>2818.4</ele>
        <time>2021-08-05 12:59:34</time>
      </trkpt>
      <trkpt lat="37.07528" lon="-3.37816">
        <ele>2818.4</ele>
        <time>2021-08-05 12:59:35</time>
      </trkpt>
      <trkpt lat="37.07528" lon="-3.37816">
        <ele>2818.4</ele>
        <time>2021-08-05 12:59:36</time>
      </trkpt>
      <trkpt lat="37.07527" lon="-3.37817">
        <ele>2818.6</ele>
        <time>2021-08-05 12:59:37</time>
      </trkpt>
      <trkpt lat="37.07527" lon="-3.37817">
        <ele>2819</ele>
        <time>2021-08-05 12:59:38</time>
      </trkpt>
      <trkpt lat="37.07527" lon="-3.37817">
        <ele>2819</ele>
        <time>2021-08-05 12:59:39</time>
      </trkpt>
      <trkpt lat="37.07527" lon="-3.37817">
        <ele>2819</ele>
        <time>2021-08-05 12:59:40</time>
      </trkpt>
      <trkpt lat="37.07527" lon="-3.37817">
        <ele>2819</ele>
        <time>2021-08-05 12:59:41</time>
      </trkpt>
      <trkpt lat="37.07527" lon="-3.37817">
        <ele>2819</ele>
        <time>2021-08-05 12:59:42</time>
      </trkpt>
      <trkpt lat="37.07527" lon="-3.37818">
        <ele>2819</ele>
        <time>2021-08-05 12:59:43</time>
      </trkpt>
      <trkpt lat="37.07527" lon="-3.37819">
        <ele>2819</ele>
        <time>2021-08-05 12:59:44</time>
      </trkpt>
      <trkpt lat="37.07526" lon="-3.37819">
        <ele>2819</ele>
        <time>2021-08-05 12:59:45</time>
      </trkpt>
      <trkpt lat="37.07526" lon="-3.37819">
        <ele>2819.4</ele>
        <time>2021-08-05 12:59:46</time>
      </trkpt>
      <trkpt lat="37.07525" lon="-3.37819">
        <ele>2819.4</ele>
        <time>2021-08-05 12:59:47</time>
      </trkpt>
      <trkpt lat="37.07525" lon="-3.37819">
        <ele>2819.8</ele>
        <time>2021-08-05 12:59:48</time>
      </trkpt>
      <trkpt lat="37.07525" lon="-3.37818">
        <ele>2819.8</ele>
        <time>2021-08-05 12:59:49</time>
      </trkpt>
      <trkpt lat="37.07524" lon="-3.37817">
        <ele>2820</ele>
        <time>2021-08-05 12:59:50</time>
      </trkpt>
      <trkpt lat="37.07524" lon="-3.37815">
        <ele>2820</ele>
        <time>2021-08-05 12:59:51</time>
      </trkpt>
      <trkpt lat="37.07524" lon="-3.37815">
        <ele>2820.2</ele>
        <time>2021-08-05 12:59:52</time>
      </trkpt>
      <trkpt lat="37.07525" lon="-3.37814">
        <ele>2820.2</ele>
        <time>2021-08-05 12:59:53</time>
      </trkpt>
      <trkpt lat="37.07525" lon="-3.37813">
        <ele>2820.4</ele>
        <time>2021-08-05 12:59:54</time>
      </trkpt>
      <trkpt lat="37.07525" lon="-3.37812">
        <ele>2820.6</ele>
        <time>2021-08-05 12:59:55</time>
      </trkpt>
      <trkpt lat="37.07525" lon="-3.37812">
        <ele>2821</ele>
        <time>2021-08-05 12:59:56</time>
      </trkpt>
      <trkpt lat="37.07525" lon="-3.37811">
        <ele>2821.2</ele>
        <time>2021-08-05 12:59:57</time>
      </trkpt>
      <trkpt lat="37.07525" lon="-3.3781">
        <ele>2821.4</ele>
        <time>2021-08-05 12:59:58</time>
      </trkpt>
      <trkpt lat="37.07524" lon="-3.3781">
        <ele>2821.6</ele>
        <time>2021-08-05 12:59:59</time>
      </trkpt>
      <trkpt lat="37.07524" lon="-3.3781">
        <ele>2821.8</ele>
        <time>2021-08-05 13:00:00</time>
      </trkpt>
      <trkpt lat="37.07523" lon="-3.3781">
        <ele>2822</ele>
        <time>2021-08-05 13:00:01</time>
      </trkpt>
      <trkpt lat="37.07523" lon="-3.3781">
        <ele>2822</ele>
        <time>2021-08-05 13:00:02</time>
      </trkpt>
      <trkpt lat="37.07523" lon="-3.3781">
        <ele>2822.2</ele>
        <time>2021-08-05 13:00:03</time>
      </trkpt>
      <trkpt lat="37.07522" lon="-3.3781">
        <ele>2822.2</ele>
        <time>2021-08-05 13:00:04</time>
      </trkpt>
      <trkpt lat="37.07522" lon="-3.3781">
        <ele>2822.2</ele>
        <time>2021-08-05 13:00:05</time>
      </trkpt>
      <trkpt lat="37.07522" lon="-3.3781">
        <ele>2822.2</ele>
        <time>2021-08-05 13:00:06</time>
      </trkpt>
      <trkpt lat="37.07521" lon="-3.3781">
        <ele>2822.2</ele>
        <time>2021-08-05 13:00:07</time>
      </trkpt>
      <trkpt lat="37.07521" lon="-3.37809">
        <ele>2822.2</ele>
        <time>2021-08-05 13:00:08</time>
      </trkpt>
      <trkpt lat="37.0752" lon="-3.37809">
        <ele>2822.2</ele>
        <time>2021-08-05 13:00:09</time>
      </trkpt>
      <trkpt lat="37.0752" lon="-3.37808">
        <ele>2822.6</ele>
        <time>2021-08-05 13:00:10</time>
      </trkpt>
      <trkpt lat="37.07519" lon="-3.37808">
        <ele>2822.8</ele>
        <time>2021-08-05 13:00:11</time>
      </trkpt>
      <trkpt lat="37.07519" lon="-3.37807">
        <ele>2822.8</ele>
        <time>2021-08-05 13:00:12</time>
      </trkpt>
      <trkpt lat="37.07519" lon="-3.37806">
        <ele>2823</ele>
        <time>2021-08-05 13:00:13</time>
      </trkpt>
      <trkpt lat="37.07518" lon="-3.37805">
        <ele>2823.2</ele>
        <time>2021-08-05 13:00:14</time>
      </trkpt>
      <trkpt lat="37.07518" lon="-3.37805">
        <ele>2823.6</ele>
        <time>2021-08-05 13:00:15</time>
      </trkpt>
      <trkpt lat="37.07518" lon="-3.37805">
        <ele>2823.6</ele>
        <time>2021-08-05 13:00:16</time>
      </trkpt>
      <trkpt lat="37.07517" lon="-3.37804">
        <ele>2823.6</ele>
        <time>2021-08-05 13:00:17</time>
      </trkpt>
      <trkpt lat="37.07517" lon="-3.37804">
        <ele>2823.6</ele>
        <time>2021-08-05 13:00:18</time>
      </trkpt>
      <trkpt lat="37.07516" lon="-3.37803">
        <ele>2823.8</ele>
        <time>2021-08-05 13:00:19</time>
      </trkpt>
      <trkpt lat="37.07516" lon="-3.37803">
        <ele>2823.8</ele>
        <time>2021-08-05 13:00:20</time>
      </trkpt>
      <trkpt lat="37.07515" lon="-3.37803">
        <ele>2823.8</ele>
        <time>2021-08-05 13:00:21</time>
      </trkpt>
      <trkpt lat="37.07515" lon="-3.37803">
        <ele>2823.8</ele>
        <time>2021-08-05 13:00:22</time>
      </trkpt>
      <trkpt lat="37.07515" lon="-3.37803">
        <ele>2823.8</ele>
        <time>2021-08-05 13:00:23</time>
      </trkpt>
      <trkpt lat="37.07514" lon="-3.37802">
        <ele>2824.2</ele>
        <time>2021-08-05 13:00:24</time>
      </trkpt>
      <trkpt lat="37.07514" lon="-3.37802">
        <ele>2824.2</ele>
        <time>2021-08-05 13:00:25</time>
      </trkpt>
      <trkpt lat="37.07514" lon="-3.37802">
        <ele>2824.6</ele>
        <time>2021-08-05 13:00:26</time>
      </trkpt>
      <trkpt lat="37.07513" lon="-3.37802">
        <ele>2824.6</ele>
        <time>2021-08-05 13:00:27</time>
      </trkpt>
      <trkpt lat="37.07513" lon="-3.37802">
        <ele>2824.6</ele>
        <time>2021-08-05 13:00:28</time>
      </trkpt>
      <trkpt lat="37.07513" lon="-3.37801">
        <ele>2824.6</ele>
        <time>2021-08-05 13:00:29</time>
      </trkpt>
      <trkpt lat="37.07512" lon="-3.37802">
        <ele>2824.6</ele>
        <time>2021-08-05 13:00:30</time>
      </trkpt>
      <trkpt lat="37.07511" lon="-3.37801">
        <ele>2824.6</ele>
        <time>2021-08-05 13:00:31</time>
      </trkpt>
      <trkpt lat="37.07511" lon="-3.37801">
        <ele>2824.6</ele>
        <time>2021-08-05 13:00:32</time>
      </trkpt>
      <trkpt lat="37.0751" lon="-3.37801">
        <ele>2824.6</ele>
        <time>2021-08-05 13:00:33</time>
      </trkpt>
      <trkpt lat="37.0751" lon="-3.37801">
        <ele>2825</ele>
        <time>2021-08-05 13:00:34</time>
      </trkpt>
      <trkpt lat="37.0751" lon="-3.37801">
        <ele>2825.2</ele>
        <time>2021-08-05 13:00:35</time>
      </trkpt>
      <trkpt lat="37.07509" lon="-3.37801">
        <ele>2825.2</ele>
        <time>2021-08-05 13:00:36</time>
      </trkpt>
      <trkpt lat="37.07509" lon="-3.37801">
        <ele>2825.4</ele>
        <time>2021-08-05 13:00:37</time>
      </trkpt>
      <trkpt lat="37.07508" lon="-3.37801">
        <ele>2825.6</ele>
        <time>2021-08-05 13:00:38</time>
      </trkpt>
      <trkpt lat="37.07508" lon="-3.37801">
        <ele>2825.8</ele>
        <time>2021-08-05 13:00:39</time>
      </trkpt>
      <trkpt lat="37.07509" lon="-3.37799">
        <ele>2826.2</ele>
        <time>2021-08-05 13:00:40</time>
      </trkpt>
      <trkpt lat="37.07509" lon="-3.37799">
        <ele>2826.4</ele>
        <time>2021-08-05 13:00:41</time>
      </trkpt>
      <trkpt lat="37.07508" lon="-3.378">
        <ele>2826.4</ele>
        <time>2021-08-05 13:00:42</time>
      </trkpt>
      <trkpt lat="37.07509" lon="-3.37801">
        <ele>2826.6</ele>
        <time>2021-08-05 13:00:43</time>
      </trkpt>
      <trkpt lat="37.07508" lon="-3.37801">
        <ele>2826.8</ele>
        <time>2021-08-05 13:00:44</time>
      </trkpt>
      <trkpt lat="37.07507" lon="-3.378">
        <ele>2827</ele>
        <time>2021-08-05 13:00:45</time>
      </trkpt>
      <trkpt lat="37.07507" lon="-3.378">
        <ele>2827.2</ele>
        <time>2021-08-05 13:00:46</time>
      </trkpt>
      <trkpt lat="37.07506" lon="-3.378">
        <ele>2827.4</ele>
        <time>2021-08-05 13:00:47</time>
      </trkpt>
      <trkpt lat="37.07506" lon="-3.378">
        <ele>2827.6</ele>
        <time>2021-08-05 13:00:48</time>
      </trkpt>
      <trkpt lat="37.07506" lon="-3.37799">
        <ele>2827.8</ele>
        <time>2021-08-05 13:00:49</time>
      </trkpt>
      <trkpt lat="37.07506" lon="-3.37799">
        <ele>2827.8</ele>
        <time>2021-08-05 13:00:50</time>
      </trkpt>
      <trkpt lat="37.07506" lon="-3.37799">
        <ele>2827.8</ele>
        <time>2021-08-05 13:00:51</time>
      </trkpt>
      <trkpt lat="37.07505" lon="-3.37798">
        <ele>2827.8</ele>
        <time>2021-08-05 13:00:52</time>
      </trkpt>
      <trkpt lat="37.07505" lon="-3.37798">
        <ele>2827.8</ele>
        <time>2021-08-05 13:00:53</time>
      </trkpt>
      <trkpt lat="37.07505" lon="-3.37797">
        <ele>2827.8</ele>
        <time>2021-08-05 13:00:54</time>
      </trkpt>
      <trkpt lat="37.07505" lon="-3.37797">
        <ele>2827.8</ele>
        <time>2021-08-05 13:00:55</time>
      </trkpt>
      <trkpt lat="37.07505" lon="-3.37797">
        <ele>2827.8</ele>
        <time>2021-08-05 13:00:56</time>
      </trkpt>
      <trkpt lat="37.07504" lon="-3.37796">
        <ele>2827.8</ele>
        <time>2021-08-05 13:00:57</time>
      </trkpt>
      <trkpt lat="37.07504" lon="-3.37796">
        <ele>2827.8</ele>
        <time>2021-08-05 13:00:58</time>
      </trkpt>
      <trkpt lat="37.07504" lon="-3.37796">
        <ele>2828</ele>
        <time>2021-08-05 13:00:59</time>
      </trkpt>
      <trkpt lat="37.07504" lon="-3.37796">
        <ele>2828</ele>
        <time>2021-08-05 13:01:00</time>
      </trkpt>
      <trkpt lat="37.07504" lon="-3.37796">
        <ele>2828.2</ele>
        <time>2021-08-05 13:01:01</time>
      </trkpt>
      <trkpt lat="37.07504" lon="-3.37796">
        <ele>2828.2</ele>
        <time>2021-08-05 13:01:02</time>
      </trkpt>
      <trkpt lat="37.07504" lon="-3.37796">
        <ele>2828.2</ele>
        <time>2021-08-05 13:01:03</time>
      </trkpt>
      <trkpt lat="37.07503" lon="-3.37795">
        <ele>2828.2</ele>
        <time>2021-08-05 13:01:04</time>
      </trkpt>
      <trkpt lat="37.07503" lon="-3.37794">
        <ele>2828.4</ele>
        <time>2021-08-05 13:01:05</time>
      </trkpt>
      <trkpt lat="37.07503" lon="-3.37794">
        <ele>2828.4</ele>
        <time>2021-08-05 13:01:06</time>
      </trkpt>
      <trkpt lat="37.07502" lon="-3.37793">
        <ele>2828.6</ele>
        <time>2021-08-05 13:01:07</time>
      </trkpt>
      <trkpt lat="37.07501" lon="-3.37792">
        <ele>2828.6</ele>
        <time>2021-08-05 13:01:08</time>
      </trkpt>
      <trkpt lat="37.07501" lon="-3.37792">
        <ele>2828.8</ele>
        <time>2021-08-05 13:01:09</time>
      </trkpt>
      <trkpt lat="37.075" lon="-3.37792">
        <ele>2828.8</ele>
        <time>2021-08-05 13:01:10</time>
      </trkpt>
      <trkpt lat="37.075" lon="-3.37792">
        <ele>2829</ele>
        <time>2021-08-05 13:01:11</time>
      </trkpt>
      <trkpt lat="37.07499" lon="-3.37792">
        <ele>2829</ele>
        <time>2021-08-05 13:01:12</time>
      </trkpt>
      <trkpt lat="37.07499" lon="-3.37791">
        <ele>2829</ele>
        <time>2021-08-05 13:01:13</time>
      </trkpt>
      <trkpt lat="37.07499" lon="-3.37791">
        <ele>2829.2</ele>
        <time>2021-08-05 13:01:14</time>
      </trkpt>
      <trkpt lat="37.07499" lon="-3.37791">
        <ele>2829.4</ele>
        <time>2021-08-05 13:01:15</time>
      </trkpt>
      <trkpt lat="37.07499" lon="-3.37792">
        <ele>2829.6</ele>
        <time>2021-08-05 13:01:16</time>
      </trkpt>
      <trkpt lat="37.07498" lon="-3.37792">
        <ele>2829.6</ele>
        <time>2021-08-05 13:01:17</time>
      </trkpt>
      <trkpt lat="37.07498" lon="-3.37792">
        <ele>2829.4</ele>
        <time>2021-08-05 13:01:18</time>
      </trkpt>
      <trkpt lat="37.07498" lon="-3.37792">
        <ele>2829.4</ele>
        <time>2021-08-05 13:01:19</time>
      </trkpt>
      <trkpt lat="37.07498" lon="-3.37792">
        <ele>2829.4</ele>
        <time>2021-08-05 13:01:20</time>
      </trkpt>
      <trkpt lat="37.07497" lon="-3.37792">
        <ele>2829.4</ele>
        <time>2021-08-05 13:01:21</time>
      </trkpt>
      <trkpt lat="37.07497" lon="-3.37791">
        <ele>2829.4</ele>
        <time>2021-08-05 13:01:22</time>
      </trkpt>
      <trkpt lat="37.07497" lon="-3.37791">
        <ele>2829.2</ele>
        <time>2021-08-05 13:01:23</time>
      </trkpt>
      <trkpt lat="37.07496" lon="-3.37791">
        <ele>2829.2</ele>
        <time>2021-08-05 13:01:24</time>
      </trkpt>
      <trkpt lat="37.07496" lon="-3.37791">
        <ele>2829.2</ele>
        <time>2021-08-05 13:01:25</time>
      </trkpt>
      <trkpt lat="37.07496" lon="-3.3779">
        <ele>2829.2</ele>
        <time>2021-08-05 13:01:26</time>
      </trkpt>
      <trkpt lat="37.07495" lon="-3.3779">
        <ele>2829.2</ele>
        <time>2021-08-05 13:01:27</time>
      </trkpt>
      <trkpt lat="37.07495" lon="-3.37789">
        <ele>2829.2</ele>
        <time>2021-08-05 13:01:28</time>
      </trkpt>
      <trkpt lat="37.07495" lon="-3.37789">
        <ele>2829.2</ele>
        <time>2021-08-05 13:01:29</time>
      </trkpt>
      <trkpt lat="37.07495" lon="-3.37788">
        <ele>2829.2</ele>
        <time>2021-08-05 13:01:30</time>
      </trkpt>
      <trkpt lat="37.07494" lon="-3.37788">
        <ele>2829.2</ele>
        <time>2021-08-05 13:01:31</time>
      </trkpt>
      <trkpt lat="37.07493" lon="-3.37789">
        <ele>2829.4</ele>
        <time>2021-08-05 13:01:32</time>
      </trkpt>
      <trkpt lat="37.07493" lon="-3.3779">
        <ele>2829.6</ele>
        <time>2021-08-05 13:01:33</time>
      </trkpt>
      <trkpt lat="37.07493" lon="-3.3779">
        <ele>2829.6</ele>
        <time>2021-08-05 13:01:34</time>
      </trkpt>
      <trkpt lat="37.07493" lon="-3.3779">
        <ele>2829.6</ele>
        <time>2021-08-05 13:01:35</time>
      </trkpt>
      <trkpt lat="37.07494" lon="-3.3779">
        <ele>2829.6</ele>
        <time>2021-08-05 13:01:36</time>
      </trkpt>
      <trkpt lat="37.07494" lon="-3.3779">
        <ele>2829.6</ele>
        <time>2021-08-05 13:01:37</time>
      </trkpt>
      <trkpt lat="37.07494" lon="-3.37791">
        <ele>2829.6</ele>
        <time>2021-08-05 13:01:38</time>
      </trkpt>
      <trkpt lat="37.07495" lon="-3.37791">
        <ele>2829.6</ele>
        <time>2021-08-05 13:01:39</time>
      </trkpt>
      <trkpt lat="37.07495" lon="-3.37791">
        <ele>2829.6</ele>
        <time>2021-08-05 13:01:40</time>
      </trkpt>
      <trkpt lat="37.07495" lon="-3.37791">
        <ele>2829.6</ele>
        <time>2021-08-05 13:01:41</time>
      </trkpt>
      <trkpt lat="37.07496" lon="-3.37791">
        <ele>2829.6</ele>
        <time>2021-08-05 13:01:42</time>
      </trkpt>
      <trkpt lat="37.07497" lon="-3.37791">
        <ele>2829.4</ele>
        <time>2021-08-05 13:01:43</time>
      </trkpt>
      <trkpt lat="37.07497" lon="-3.37791">
        <ele>2829.6</ele>
        <time>2021-08-05 13:01:44</time>
      </trkpt>
      <trkpt lat="37.07497" lon="-3.37791">
        <ele>2829.6</ele>
        <time>2021-08-05 13:01:45</time>
      </trkpt>
      <trkpt lat="37.07498" lon="-3.37791">
        <ele>2829.6</ele>
        <time>2021-08-05 13:01:46</time>
      </trkpt>
      <trkpt lat="37.07497" lon="-3.37791">
        <ele>2829.6</ele>
        <time>2021-08-05 13:01:47</time>
      </trkpt>
      <trkpt lat="37.07497" lon="-3.37792">
        <ele>2829.6</ele>
        <time>2021-08-05 13:01:48</time>
      </trkpt>
      <trkpt lat="37.07497" lon="-3.37791">
        <ele>2829.4</ele>
        <time>2021-08-05 13:01:49</time>
      </trkpt>
      <trkpt lat="37.07497" lon="-3.37791">
        <ele>2829.4</ele>
        <time>2021-08-05 13:01:50</time>
      </trkpt>
      <trkpt lat="37.07496" lon="-3.3779">
        <ele>2829.4</ele>
        <time>2021-08-05 13:01:51</time>
      </trkpt>
      <trkpt lat="37.07496" lon="-3.3779">
        <ele>2829.2</ele>
        <time>2021-08-05 13:01:52</time>
      </trkpt>
      <trkpt lat="37.07496" lon="-3.3779">
        <ele>2829.4</ele>
        <time>2021-08-05 13:01:53</time>
      </trkpt>
      <trkpt lat="37.07496" lon="-3.37789">
        <ele>2829.4</ele>
        <time>2021-08-05 13:01:54</time>
      </trkpt>
      <trkpt lat="37.07496" lon="-3.37789">
        <ele>2829.4</ele>
        <time>2021-08-05 13:01:55</time>
      </trkpt>
      <trkpt lat="37.07495" lon="-3.37789">
        <ele>2829.4</ele>
        <time>2021-08-05 13:01:56</time>
      </trkpt>
      <trkpt lat="37.07494" lon="-3.37788">
        <ele>2829.2</ele>
        <time>2021-08-05 13:01:57</time>
      </trkpt>
      <trkpt lat="37.07494" lon="-3.37788">
        <ele>2829.4</ele>
        <time>2021-08-05 13:01:58</time>
      </trkpt>
      <trkpt lat="37.07494" lon="-3.37788">
        <ele>2829.4</ele>
        <time>2021-08-05 13:01:59</time>
      </trkpt>
      <trkpt lat="37.07493" lon="-3.37788">
        <ele>2829.8</ele>
        <time>2021-08-05 13:02:00</time>
      </trkpt>
      <trkpt lat="37.07493" lon="-3.37788">
        <ele>2830</ele>
        <time>2021-08-05 13:02:01</time>
      </trkpt>
      <trkpt lat="37.07493" lon="-3.37788">
        <ele>2830</ele>
        <time>2021-08-05 13:02:02</time>
      </trkpt>
      <trkpt lat="37.07493" lon="-3.37788">
        <ele>2830</ele>
        <time>2021-08-05 13:02:03</time>
      </trkpt>
      <trkpt lat="37.07493" lon="-3.37787">
        <ele>2830.2</ele>
        <time>2021-08-05 13:02:04</time>
      </trkpt>
      <trkpt lat="37.07493" lon="-3.37787">
        <ele>2830</ele>
        <time>2021-08-05 13:02:05</time>
      </trkpt>
      <trkpt lat="37.07493" lon="-3.37786">
        <ele>2829.8</ele>
        <time>2021-08-05 13:02:06</time>
      </trkpt>
      <trkpt lat="37.07493" lon="-3.37786">
        <ele>2829.8</ele>
        <time>2021-08-05 13:02:07</time>
      </trkpt>
      <trkpt lat="37.07493" lon="-3.37786">
        <ele>2829.6</ele>
        <time>2021-08-05 13:02:08</time>
      </trkpt>
      <trkpt lat="37.07493" lon="-3.37786">
        <ele>2829.4</ele>
        <time>2021-08-05 13:02:09</time>
      </trkpt>
      <trkpt lat="37.07493" lon="-3.37787">
        <ele>2829.8</ele>
        <time>2021-08-05 13:02:10</time>
      </trkpt>
      <trkpt lat="37.07493" lon="-3.37787">
        <ele>2829.8</ele>
        <time>2021-08-05 13:02:11</time>
      </trkpt>
      <trkpt lat="37.07493" lon="-3.37787">
        <ele>2830</ele>
        <time>2021-08-05 13:02:12</time>
      </trkpt>
      <trkpt lat="37.07493" lon="-3.37787">
        <ele>2830</ele>
        <time>2021-08-05 13:02:13</time>
      </trkpt>
      <trkpt lat="37.07493" lon="-3.37787">
        <ele>2830</ele>
        <time>2021-08-05 13:02:14</time>
      </trkpt>
      <trkpt lat="37.07493" lon="-3.37787">
        <ele>2830.2</ele>
        <time>2021-08-05 13:02:15</time>
      </trkpt>
      <trkpt lat="37.07492" lon="-3.37787">
        <ele>2830.2</ele>
        <time>2021-08-05 13:02:16</time>
      </trkpt>
      <trkpt lat="37.07492" lon="-3.37787">
        <ele>2830</ele>
        <time>2021-08-05 13:02:17</time>
      </trkpt>
      <trkpt lat="37.07492" lon="-3.37788">
        <ele>2830</ele>
        <time>2021-08-05 13:02:18</time>
      </trkpt>
      <trkpt lat="37.07491" lon="-3.37788">
        <ele>2829.8</ele>
        <time>2021-08-05 13:02:19</time>
      </trkpt>
      <trkpt lat="37.07492" lon="-3.37788">
        <ele>2829.8</ele>
        <time>2021-08-05 13:02:20</time>
      </trkpt>
      <trkpt lat="37.07492" lon="-3.37788">
        <ele>2829.8</ele>
        <time>2021-08-05 13:02:21</time>
      </trkpt>
      <trkpt lat="37.07493" lon="-3.37788">
        <ele>2829.8</ele>
        <time>2021-08-05 13:02:22</time>
      </trkpt>
      <trkpt lat="37.07493" lon="-3.37788">
        <ele>2830</ele>
        <time>2021-08-05 13:02:23</time>
      </trkpt>
      <trkpt lat="37.07494" lon="-3.37788">
        <ele>2830</ele>
        <time>2021-08-05 13:02:24</time>
      </trkpt>
      <trkpt lat="37.07494" lon="-3.37788">
        <ele>2830</ele>
        <time>2021-08-05 13:02:25</time>
      </trkpt>
      <trkpt lat="37.07494" lon="-3.37788">
        <ele>2830.4</ele>
        <time>2021-08-05 13:02:26</time>
      </trkpt>
      <trkpt lat="37.07494" lon="-3.37789">
        <ele>2830.6</ele>
        <time>2021-08-05 13:02:27</time>
      </trkpt>
      <trkpt lat="37.07494" lon="-3.37789">
        <ele>2830.8</ele>
        <time>2021-08-05 13:02:28</time>
      </trkpt>
      <trkpt lat="37.07493" lon="-3.37788">
        <ele>2831</ele>
        <time>2021-08-05 13:02:29</time>
      </trkpt>
      <trkpt lat="37.07493" lon="-3.37788">
        <ele>2831</ele>
        <time>2021-08-05 13:02:30</time>
      </trkpt>
      <trkpt lat="37.07492" lon="-3.37788">
        <ele>2831.2</ele>
        <time>2021-08-05 13:02:31</time>
      </trkpt>
      <trkpt lat="37.07492" lon="-3.37788">
        <ele>2831.2</ele>
        <time>2021-08-05 13:02:32</time>
      </trkpt>
      <trkpt lat="37.07491" lon="-3.37788">
        <ele>2831.2</ele>
        <time>2021-08-05 13:02:33</time>
      </trkpt>
      <trkpt lat="37.0749" lon="-3.37787">
        <ele>2831.4</ele>
        <time>2021-08-05 13:02:34</time>
      </trkpt>
      <trkpt lat="37.07489" lon="-3.37787">
        <ele>2831.4</ele>
        <time>2021-08-05 13:02:35</time>
      </trkpt>
      <trkpt lat="37.07489" lon="-3.37787">
        <ele>2831.6</ele>
        <time>2021-08-05 13:02:36</time>
      </trkpt>
      <trkpt lat="37.07488" lon="-3.37787">
        <ele>2831.8</ele>
        <time>2021-08-05 13:02:37</time>
      </trkpt>
      <trkpt lat="37.07488" lon="-3.37787">
        <ele>2832</ele>
        <time>2021-08-05 13:02:38</time>
      </trkpt>
      <trkpt lat="37.07487" lon="-3.37786">
        <ele>2832</ele>
        <time>2021-08-05 13:02:39</time>
      </trkpt>
      <trkpt lat="37.07487" lon="-3.37786">
        <ele>2832</ele>
        <time>2021-08-05 13:02:40</time>
      </trkpt>
      <trkpt lat="37.07486" lon="-3.37786">
        <ele>2832.4</ele>
        <time>2021-08-05 13:02:41</time>
      </trkpt>
      <trkpt lat="37.07486" lon="-3.37786">
        <ele>2832.6</ele>
        <time>2021-08-05 13:02:42</time>
      </trkpt>
      <trkpt lat="37.07485" lon="-3.37785">
        <ele>2832.8</ele>
        <time>2021-08-05 13:02:43</time>
      </trkpt>
      <trkpt lat="37.07485" lon="-3.37786">
        <ele>2833</ele>
        <time>2021-08-05 13:02:44</time>
      </trkpt>
      <trkpt lat="37.07484" lon="-3.37786">
        <ele>2833</ele>
        <time>2021-08-05 13:02:45</time>
      </trkpt>
      <trkpt lat="37.07484" lon="-3.37786">
        <ele>2833</ele>
        <time>2021-08-05 13:02:46</time>
      </trkpt>
      <trkpt lat="37.07483" lon="-3.37786">
        <ele>2833.2</ele>
        <time>2021-08-05 13:02:47</time>
      </trkpt>
      <trkpt lat="37.07483" lon="-3.37785">
        <ele>2833.2</ele>
        <time>2021-08-05 13:02:48</time>
      </trkpt>
      <trkpt lat="37.07482" lon="-3.37785">
        <ele>2833.4</ele>
        <time>2021-08-05 13:02:49</time>
      </trkpt>
      <trkpt lat="37.07481" lon="-3.37785">
        <ele>2833.6</ele>
        <time>2021-08-05 13:02:50</time>
      </trkpt>
      <trkpt lat="37.07481" lon="-3.37785">
        <ele>2833.6</ele>
        <time>2021-08-05 13:02:51</time>
      </trkpt>
      <trkpt lat="37.0748" lon="-3.37785">
        <ele>2833.6</ele>
        <time>2021-08-05 13:02:52</time>
      </trkpt>
      <trkpt lat="37.07479" lon="-3.37785">
        <ele>2833.6</ele>
        <time>2021-08-05 13:02:53</time>
      </trkpt>
      <trkpt lat="37.07479" lon="-3.37784">
        <ele>2833.6</ele>
        <time>2021-08-05 13:02:54</time>
      </trkpt>
      <trkpt lat="37.07478" lon="-3.37784">
        <ele>2833.8</ele>
        <time>2021-08-05 13:02:55</time>
      </trkpt>
      <trkpt lat="37.07478" lon="-3.37784">
        <ele>2833.8</ele>
        <time>2021-08-05 13:02:56</time>
      </trkpt>
      <trkpt lat="37.07477" lon="-3.37784">
        <ele>2833.6</ele>
        <time>2021-08-05 13:02:57</time>
      </trkpt>
      <trkpt lat="37.07477" lon="-3.37784">
        <ele>2833.6</ele>
        <time>2021-08-05 13:02:58</time>
      </trkpt>
      <trkpt lat="37.07477" lon="-3.37785">
        <ele>2833.8</ele>
        <time>2021-08-05 13:02:59</time>
      </trkpt>
      <trkpt lat="37.07477" lon="-3.37785">
        <ele>2834</ele>
        <time>2021-08-05 13:03:00</time>
      </trkpt>
      <trkpt lat="37.07477" lon="-3.37785">
        <ele>2834.2</ele>
        <time>2021-08-05 13:03:01</time>
      </trkpt>
      <trkpt lat="37.07476" lon="-3.37785">
        <ele>2834.2</ele>
        <time>2021-08-05 13:03:02</time>
      </trkpt>
      <trkpt lat="37.07476" lon="-3.37785">
        <ele>2834.2</ele>
        <time>2021-08-05 13:03:03</time>
      </trkpt>
      <trkpt lat="37.07476" lon="-3.37784">
        <ele>2834.4</ele>
        <time>2021-08-05 13:03:04</time>
      </trkpt>
      <trkpt lat="37.07475" lon="-3.37784">
        <ele>2834.4</ele>
        <time>2021-08-05 13:03:05</time>
      </trkpt>
      <trkpt lat="37.07475" lon="-3.37784">
        <ele>2834.4</ele>
        <time>2021-08-05 13:03:06</time>
      </trkpt>
      <trkpt lat="37.07474" lon="-3.37784">
        <ele>2834.6</ele>
        <time>2021-08-05 13:03:07</time>
      </trkpt>
      <trkpt lat="37.07474" lon="-3.37784">
        <ele>2834.6</ele>
        <time>2021-08-05 13:03:08</time>
      </trkpt>
      <trkpt lat="37.07474" lon="-3.37785">
        <ele>2834.6</ele>
        <time>2021-08-05 13:03:09</time>
      </trkpt>
      <trkpt lat="37.07474" lon="-3.37785">
        <ele>2834.6</ele>
        <time>2021-08-05 13:03:10</time>
      </trkpt>
      <trkpt lat="37.07473" lon="-3.37785">
        <ele>2834.8</ele>
        <time>2021-08-05 13:03:11</time>
      </trkpt>
      <trkpt lat="37.07473" lon="-3.37785">
        <ele>2834.8</ele>
        <time>2021-08-05 13:03:12</time>
      </trkpt>
      <trkpt lat="37.07472" lon="-3.37785">
        <ele>2834.8</ele>
        <time>2021-08-05 13:03:13</time>
      </trkpt>
      <trkpt lat="37.07472" lon="-3.37784">
        <ele>2835</ele>
        <time>2021-08-05 13:03:14</time>
      </trkpt>
      <trkpt lat="37.07471" lon="-3.37784">
        <ele>2835.2</ele>
        <time>2021-08-05 13:03:15</time>
      </trkpt>
      <trkpt lat="37.07471" lon="-3.37785">
        <ele>2835.2</ele>
        <time>2021-08-05 13:03:16</time>
      </trkpt>
      <trkpt lat="37.07471" lon="-3.37785">
        <ele>2835.4</ele>
        <time>2021-08-05 13:03:17</time>
      </trkpt>
      <trkpt lat="37.0747" lon="-3.37785">
        <ele>2835.4</ele>
        <time>2021-08-05 13:03:18</time>
      </trkpt>
      <trkpt lat="37.0747" lon="-3.37785">
        <ele>2835.6</ele>
        <time>2021-08-05 13:03:19</time>
      </trkpt>
      <trkpt lat="37.07469" lon="-3.37785">
        <ele>2835.6</ele>
        <time>2021-08-05 13:03:20</time>
      </trkpt>
      <trkpt lat="37.07469" lon="-3.37785">
        <ele>2835.6</ele>
        <time>2021-08-05 13:03:21</time>
      </trkpt>
      <trkpt lat="37.07469" lon="-3.37784">
        <ele>2835.8</ele>
        <time>2021-08-05 13:03:22</time>
      </trkpt>
      <trkpt lat="37.07468" lon="-3.37784">
        <ele>2835.8</ele>
        <time>2021-08-05 13:03:23</time>
      </trkpt>
      <trkpt lat="37.07467" lon="-3.37785">
        <ele>2835.8</ele>
        <time>2021-08-05 13:03:24</time>
      </trkpt>
      <trkpt lat="37.07467" lon="-3.37784">
        <ele>2836</ele>
        <time>2021-08-05 13:03:25</time>
      </trkpt>
      <trkpt lat="37.07467" lon="-3.37784">
        <ele>2836.2</ele>
        <time>2021-08-05 13:03:26</time>
      </trkpt>
      <trkpt lat="37.07466" lon="-3.37784">
        <ele>2836.2</ele>
        <time>2021-08-05 13:03:27</time>
      </trkpt>
      <trkpt lat="37.07466" lon="-3.37784">
        <ele>2836.4</ele>
        <time>2021-08-05 13:03:28</time>
      </trkpt>
      <trkpt lat="37.07465" lon="-3.37784">
        <ele>2836.4</ele>
        <time>2021-08-05 13:03:29</time>
      </trkpt>
      <trkpt lat="37.07465" lon="-3.37784">
        <ele>2836.4</ele>
        <time>2021-08-05 13:03:30</time>
      </trkpt>
      <trkpt lat="37.07464" lon="-3.37784">
        <ele>2836.4</ele>
        <time>2021-08-05 13:03:31</time>
      </trkpt>
      <trkpt lat="37.07463" lon="-3.37784">
        <ele>2836.6</ele>
        <time>2021-08-05 13:03:32</time>
      </trkpt>
      <trkpt lat="37.07463" lon="-3.37785">
        <ele>2836.8</ele>
        <time>2021-08-05 13:03:33</time>
      </trkpt>
      <trkpt lat="37.07463" lon="-3.37785">
        <ele>2836.8</ele>
        <time>2021-08-05 13:03:34</time>
      </trkpt>
      <trkpt lat="37.07462" lon="-3.37785">
        <ele>2837</ele>
        <time>2021-08-05 13:03:35</time>
      </trkpt>
      <trkpt lat="37.07461" lon="-3.37786">
        <ele>2837.2</ele>
        <time>2021-08-05 13:03:36</time>
      </trkpt>
      <trkpt lat="37.07461" lon="-3.37786">
        <ele>2837.2</ele>
        <time>2021-08-05 13:03:37</time>
      </trkpt>
      <trkpt lat="37.0746" lon="-3.37786">
        <ele>2837.4</ele>
        <time>2021-08-05 13:03:38</time>
      </trkpt>
      <trkpt lat="37.0746" lon="-3.37786">
        <ele>2837.4</ele>
        <time>2021-08-05 13:03:39</time>
      </trkpt>
      <trkpt lat="37.07459" lon="-3.37786">
        <ele>2837.6</ele>
        <time>2021-08-05 13:03:40</time>
      </trkpt>
      <trkpt lat="37.07459" lon="-3.37786">
        <ele>2837.6</ele>
        <time>2021-08-05 13:03:41</time>
      </trkpt>
      <trkpt lat="37.07459" lon="-3.37786">
        <ele>2837.8</ele>
        <time>2021-08-05 13:03:42</time>
      </trkpt>
      <trkpt lat="37.07458" lon="-3.37786">
        <ele>2837.8</ele>
        <time>2021-08-05 13:03:43</time>
      </trkpt>
      <trkpt lat="37.07458" lon="-3.37786">
        <ele>2837.8</ele>
        <time>2021-08-05 13:03:44</time>
      </trkpt>
      <trkpt lat="37.07458" lon="-3.37786">
        <ele>2838</ele>
        <time>2021-08-05 13:03:45</time>
      </trkpt>
      <trkpt lat="37.07458" lon="-3.37786">
        <ele>2838</ele>
        <time>2021-08-05 13:03:46</time>
      </trkpt>
      <trkpt lat="37.07457" lon="-3.37785">
        <ele>2838</ele>
        <time>2021-08-05 13:03:47</time>
      </trkpt>
      <trkpt lat="37.07457" lon="-3.37785">
        <ele>2838</ele>
        <time>2021-08-05 13:03:48</time>
      </trkpt>
      <trkpt lat="37.07457" lon="-3.37785">
        <ele>2838</ele>
        <time>2021-08-05 13:03:49</time>
      </trkpt>
      <trkpt lat="37.07456" lon="-3.37785">
        <ele>2838</ele>
        <time>2021-08-05 13:03:50</time>
      </trkpt>
      <trkpt lat="37.07456" lon="-3.37785">
        <ele>2838.2</ele>
        <time>2021-08-05 13:03:51</time>
      </trkpt>
      <trkpt lat="37.07455" lon="-3.37786">
        <ele>2838.4</ele>
        <time>2021-08-05 13:03:52</time>
      </trkpt>
      <trkpt lat="37.07455" lon="-3.37786">
        <ele>2838.4</ele>
        <time>2021-08-05 13:03:53</time>
      </trkpt>
      <trkpt lat="37.07454" lon="-3.37786">
        <ele>2838.4</ele>
        <time>2021-08-05 13:03:54</time>
      </trkpt>
      <trkpt lat="37.07454" lon="-3.37787">
        <ele>2838.6</ele>
        <time>2021-08-05 13:03:55</time>
      </trkpt>
      <trkpt lat="37.07454" lon="-3.37787">
        <ele>2838.6</ele>
        <time>2021-08-05 13:03:56</time>
      </trkpt>
      <trkpt lat="37.07454" lon="-3.37788">
        <ele>2838.8</ele>
        <time>2021-08-05 13:03:57</time>
      </trkpt>
      <trkpt lat="37.07454" lon="-3.37788">
        <ele>2838.8</ele>
        <time>2021-08-05 13:03:58</time>
      </trkpt>
      <trkpt lat="37.07454" lon="-3.37788">
        <ele>2838.8</ele>
        <time>2021-08-05 13:03:59</time>
      </trkpt>
      <trkpt lat="37.07454" lon="-3.37788">
        <ele>2838.8</ele>
        <time>2021-08-05 13:04:00</time>
      </trkpt>
      <trkpt lat="37.07454" lon="-3.37787">
        <ele>2838.8</ele>
        <time>2021-08-05 13:04:01</time>
      </trkpt>
      <trkpt lat="37.07454" lon="-3.37788">
        <ele>2838.8</ele>
        <time>2021-08-05 13:04:02</time>
      </trkpt>
      <trkpt lat="37.07453" lon="-3.37788">
        <ele>2838.8</ele>
        <time>2021-08-05 13:04:03</time>
      </trkpt>
      <trkpt lat="37.07453" lon="-3.37788">
        <ele>2839</ele>
        <time>2021-08-05 13:04:04</time>
      </trkpt>
      <trkpt lat="37.07453" lon="-3.37787">
        <ele>2839.2</ele>
        <time>2021-08-05 13:04:05</time>
      </trkpt>
      <trkpt lat="37.07452" lon="-3.37787">
        <ele>2839.2</ele>
        <time>2021-08-05 13:04:06</time>
      </trkpt>
      <trkpt lat="37.07452" lon="-3.37787">
        <ele>2839.4</ele>
        <time>2021-08-05 13:04:07</time>
      </trkpt>
      <trkpt lat="37.07452" lon="-3.37787">
        <ele>2839.4</ele>
        <time>2021-08-05 13:04:08</time>
      </trkpt>
      <trkpt lat="37.07451" lon="-3.37787">
        <ele>2839.4</ele>
        <time>2021-08-05 13:04:09</time>
      </trkpt>
      <trkpt lat="37.07451" lon="-3.37787">
        <ele>2839.4</ele>
        <time>2021-08-05 13:04:10</time>
      </trkpt>
      <trkpt lat="37.07451" lon="-3.37787">
        <ele>2839.6</ele>
        <time>2021-08-05 13:04:11</time>
      </trkpt>
      <trkpt lat="37.07451" lon="-3.37787">
        <ele>2839.6</ele>
        <time>2021-08-05 13:04:12</time>
      </trkpt>
      <trkpt lat="37.0745" lon="-3.37787">
        <ele>2839.6</ele>
        <time>2021-08-05 13:04:13</time>
      </trkpt>
      <trkpt lat="37.0745" lon="-3.37787">
        <ele>2839.6</ele>
        <time>2021-08-05 13:04:14</time>
      </trkpt>
      <trkpt lat="37.07449" lon="-3.37787">
        <ele>2839.6</ele>
        <time>2021-08-05 13:04:15</time>
      </trkpt>
      <trkpt lat="37.07449" lon="-3.37787">
        <ele>2839.6</ele>
        <time>2021-08-05 13:04:16</time>
      </trkpt>
      <trkpt lat="37.07448" lon="-3.37787">
        <ele>2839.8</ele>
        <time>2021-08-05 13:04:17</time>
      </trkpt>
      <trkpt lat="37.07447" lon="-3.37786">
        <ele>2840</ele>
        <time>2021-08-05 13:04:18</time>
      </trkpt>
      <trkpt lat="37.07447" lon="-3.37786">
        <ele>2840.2</ele>
        <time>2021-08-05 13:04:19</time>
      </trkpt>
      <trkpt lat="37.07446" lon="-3.37786">
        <ele>2840.2</ele>
        <time>2021-08-05 13:04:20</time>
      </trkpt>
      <trkpt lat="37.07446" lon="-3.37786">
        <ele>2840.2</ele>
        <time>2021-08-05 13:04:21</time>
      </trkpt>
      <trkpt lat="37.07445" lon="-3.37786">
        <ele>2840.2</ele>
        <time>2021-08-05 13:04:22</time>
      </trkpt>
      <trkpt lat="37.07445" lon="-3.37786">
        <ele>2840.8</ele>
        <time>2021-08-05 13:04:23</time>
      </trkpt>
      <trkpt lat="37.07445" lon="-3.37786">
        <ele>2841</ele>
        <time>2021-08-05 13:04:24</time>
      </trkpt>
      <trkpt lat="37.07444" lon="-3.37786">
        <ele>2841.2</ele>
        <time>2021-08-05 13:04:25</time>
      </trkpt>
      <trkpt lat="37.07443" lon="-3.37786">
        <ele>2841.4</ele>
        <time>2021-08-05 13:04:26</time>
      </trkpt>
      <trkpt lat="37.07442" lon="-3.37785">
        <ele>2841.6</ele>
        <time>2021-08-05 13:04:27</time>
      </trkpt>
      <trkpt lat="37.07442" lon="-3.37785">
        <ele>2841.8</ele>
        <time>2021-08-05 13:04:28</time>
      </trkpt>
      <trkpt lat="37.07441" lon="-3.37785">
        <ele>2842</ele>
        <time>2021-08-05 13:04:29</time>
      </trkpt>
      <trkpt lat="37.07441" lon="-3.37785">
        <ele>2842.2</ele>
        <time>2021-08-05 13:04:30</time>
      </trkpt>
      <trkpt lat="37.0744" lon="-3.37785">
        <ele>2842.6</ele>
        <time>2021-08-05 13:04:31</time>
      </trkpt>
      <trkpt lat="37.0744" lon="-3.37785">
        <ele>2842.6</ele>
        <time>2021-08-05 13:04:32</time>
      </trkpt>
      <trkpt lat="37.07439" lon="-3.37784">
        <ele>2842.8</ele>
        <time>2021-08-05 13:04:33</time>
      </trkpt>
      <trkpt lat="37.07439" lon="-3.37784">
        <ele>2842.8</ele>
        <time>2021-08-05 13:04:34</time>
      </trkpt>
      <trkpt lat="37.07438" lon="-3.37784">
        <ele>2843</ele>
        <time>2021-08-05 13:04:35</time>
      </trkpt>
      <trkpt lat="37.07437" lon="-3.37783">
        <ele>2843</ele>
        <time>2021-08-05 13:04:36</time>
      </trkpt>
      <trkpt lat="37.07436" lon="-3.37783">
        <ele>2843.2</ele>
        <time>2021-08-05 13:04:37</time>
      </trkpt>
      <trkpt lat="37.07436" lon="-3.37783">
        <ele>2843.2</ele>
        <time>2021-08-05 13:04:38</time>
      </trkpt>
      <trkpt lat="37.07436" lon="-3.37783">
        <ele>2843</ele>
        <time>2021-08-05 13:04:39</time>
      </trkpt>
      <trkpt lat="37.07435" lon="-3.37783">
        <ele>2843</ele>
        <time>2021-08-05 13:04:40</time>
      </trkpt>
      <trkpt lat="37.07435" lon="-3.37783">
        <ele>2843.2</ele>
        <time>2021-08-05 13:04:41</time>
      </trkpt>
      <trkpt lat="37.07434" lon="-3.37783">
        <ele>2843.4</ele>
        <time>2021-08-05 13:04:42</time>
      </trkpt>
      <trkpt lat="37.07434" lon="-3.37783">
        <ele>2843.6</ele>
        <time>2021-08-05 13:04:43</time>
      </trkpt>
      <trkpt lat="37.07433" lon="-3.37783">
        <ele>2843.6</ele>
        <time>2021-08-05 13:04:44</time>
      </trkpt>
      <trkpt lat="37.07432" lon="-3.37783">
        <ele>2843.8</ele>
        <time>2021-08-05 13:04:45</time>
      </trkpt>
      <trkpt lat="37.07431" lon="-3.37783">
        <ele>2843.8</ele>
        <time>2021-08-05 13:04:46</time>
      </trkpt>
      <trkpt lat="37.07431" lon="-3.37783">
        <ele>2843.8</ele>
        <time>2021-08-05 13:04:47</time>
      </trkpt>
      <trkpt lat="37.0743" lon="-3.37782">
        <ele>2844</ele>
        <time>2021-08-05 13:04:48</time>
      </trkpt>
      <trkpt lat="37.07429" lon="-3.37782">
        <ele>2844</ele>
        <time>2021-08-05 13:04:49</time>
      </trkpt>
      <trkpt lat="37.07429" lon="-3.37782">
        <ele>2843.8</ele>
        <time>2021-08-05 13:04:50</time>
      </trkpt>
      <trkpt lat="37.07429" lon="-3.37782">
        <ele>2843.8</ele>
        <time>2021-08-05 13:04:51</time>
      </trkpt>
      <trkpt lat="37.07429" lon="-3.37782">
        <ele>2843.8</ele>
        <time>2021-08-05 13:04:52</time>
      </trkpt>
      <trkpt lat="37.07428" lon="-3.37783">
        <ele>2843.8</ele>
        <time>2021-08-05 13:04:53</time>
      </trkpt>
      <trkpt lat="37.07428" lon="-3.37783">
        <ele>2843.8</ele>
        <time>2021-08-05 13:04:54</time>
      </trkpt>
      <trkpt lat="37.07427" lon="-3.37783">
        <ele>2844</ele>
        <time>2021-08-05 13:04:55</time>
      </trkpt>
      <trkpt lat="37.07426" lon="-3.37783">
        <ele>2844</ele>
        <time>2021-08-05 13:04:56</time>
      </trkpt>
      <trkpt lat="37.07426" lon="-3.37783">
        <ele>2844</ele>
        <time>2021-08-05 13:04:57</time>
      </trkpt>
      <trkpt lat="37.07426" lon="-3.37784">
        <ele>2844.2</ele>
        <time>2021-08-05 13:04:58</time>
      </trkpt>
      <trkpt lat="37.07425" lon="-3.37784">
        <ele>2844.2</ele>
        <time>2021-08-05 13:04:59</time>
      </trkpt>
      <trkpt lat="37.07425" lon="-3.37784">
        <ele>2844</ele>
        <time>2021-08-05 13:05:00</time>
      </trkpt>
      <trkpt lat="37.07424" lon="-3.37784">
        <ele>2844</ele>
        <time>2021-08-05 13:05:01</time>
      </trkpt>
      <trkpt lat="37.07424" lon="-3.37785">
        <ele>2844</ele>
        <time>2021-08-05 13:05:02</time>
      </trkpt>
      <trkpt lat="37.07423" lon="-3.37785">
        <ele>2844</ele>
        <time>2021-08-05 13:05:03</time>
      </trkpt>
      <trkpt lat="37.07422" lon="-3.37786">
        <ele>2844</ele>
        <time>2021-08-05 13:05:04</time>
      </trkpt>
      <trkpt lat="37.07422" lon="-3.37786">
        <ele>2844.2</ele>
        <time>2021-08-05 13:05:05</time>
      </trkpt>
      <trkpt lat="37.07421" lon="-3.37786">
        <ele>2844.4</ele>
        <time>2021-08-05 13:05:06</time>
      </trkpt>
      <trkpt lat="37.07421" lon="-3.37785">
        <ele>2844.6</ele>
        <time>2021-08-05 13:05:07</time>
      </trkpt>
      <trkpt lat="37.0742" lon="-3.37785">
        <ele>2844.8</ele>
        <time>2021-08-05 13:05:08</time>
      </trkpt>
      <trkpt lat="37.0742" lon="-3.37785">
        <ele>2844.8</ele>
        <time>2021-08-05 13:05:09</time>
      </trkpt>
      <trkpt lat="37.07419" lon="-3.37786">
        <ele>2844.8</ele>
        <time>2021-08-05 13:05:10</time>
      </trkpt>
      <trkpt lat="37.07419" lon="-3.37786">
        <ele>2844.8</ele>
        <time>2021-08-05 13:05:11</time>
      </trkpt>
      <trkpt lat="37.07418" lon="-3.37786">
        <ele>2844.8</ele>
        <time>2021-08-05 13:05:12</time>
      </trkpt>
      <trkpt lat="37.07418" lon="-3.37786">
        <ele>2845</ele>
        <time>2021-08-05 13:05:13</time>
      </trkpt>
      <trkpt lat="37.07418" lon="-3.37787">
        <ele>2845.4</ele>
        <time>2021-08-05 13:05:14</time>
      </trkpt>
      <trkpt lat="37.07418" lon="-3.37786">
        <ele>2845.8</ele>
        <time>2021-08-05 13:05:15</time>
      </trkpt>
      <trkpt lat="37.07418" lon="-3.37786">
        <ele>2846</ele>
        <time>2021-08-05 13:05:16</time>
      </trkpt>
      <trkpt lat="37.07418" lon="-3.37786">
        <ele>2846</ele>
        <time>2021-08-05 13:05:17</time>
      </trkpt>
      <trkpt lat="37.07418" lon="-3.37786">
        <ele>2846.2</ele>
        <time>2021-08-05 13:05:18</time>
      </trkpt>
      <trkpt lat="37.07418" lon="-3.37786">
        <ele>2846.2</ele>
        <time>2021-08-05 13:05:19</time>
      </trkpt>
      <trkpt lat="37.07418" lon="-3.37785">
        <ele>2846</ele>
        <time>2021-08-05 13:05:20</time>
      </trkpt>
      <trkpt lat="37.07418" lon="-3.37785">
        <ele>2845.8</ele>
        <time>2021-08-05 13:05:21</time>
      </trkpt>
      <trkpt lat="37.07417" lon="-3.37785">
        <ele>2845.8</ele>
        <time>2021-08-05 13:05:22</time>
      </trkpt>
      <trkpt lat="37.07417" lon="-3.37785">
        <ele>2845.6</ele>
        <time>2021-08-05 13:05:23</time>
      </trkpt>
      <trkpt lat="37.07416" lon="-3.37786">
        <ele>2845.6</ele>
        <time>2021-08-05 13:05:24</time>
      </trkpt>
      <trkpt lat="37.07416" lon="-3.37786">
        <ele>2845.6</ele>
        <time>2021-08-05 13:05:25</time>
      </trkpt>
      <trkpt lat="37.07415" lon="-3.37786">
        <ele>2845.6</ele>
        <time>2021-08-05 13:05:26</time>
      </trkpt>
      <trkpt lat="37.07414" lon="-3.37786">
        <ele>2845.6</ele>
        <time>2021-08-05 13:05:27</time>
      </trkpt>
      <trkpt lat="37.07413" lon="-3.37786">
        <ele>2845.6</ele>
        <time>2021-08-05 13:05:28</time>
      </trkpt>
      <trkpt lat="37.07413" lon="-3.37786">
        <ele>2845.8</ele>
        <time>2021-08-05 13:05:29</time>
      </trkpt>
      <trkpt lat="37.07412" lon="-3.37785">
        <ele>2845.8</ele>
        <time>2021-08-05 13:05:30</time>
      </trkpt>
      <trkpt lat="37.07411" lon="-3.37785">
        <ele>2845.8</ele>
        <time>2021-08-05 13:05:31</time>
      </trkpt>
      <trkpt lat="37.0741" lon="-3.37785">
        <ele>2846</ele>
        <time>2021-08-05 13:05:32</time>
      </trkpt>
      <trkpt lat="37.0741" lon="-3.37785">
        <ele>2846</ele>
        <time>2021-08-05 13:05:33</time>
      </trkpt>
      <trkpt lat="37.07409" lon="-3.37786">
        <ele>2846</ele>
        <time>2021-08-05 13:05:34</time>
      </trkpt>
      <trkpt lat="37.07409" lon="-3.37786">
        <ele>2846.2</ele>
        <time>2021-08-05 13:05:35</time>
      </trkpt>
      <trkpt lat="37.07408" lon="-3.37786">
        <ele>2846.4</ele>
        <time>2021-08-05 13:05:36</time>
      </trkpt>
      <trkpt lat="37.07408" lon="-3.37786">
        <ele>2846.6</ele>
        <time>2021-08-05 13:05:37</time>
      </trkpt>
      <trkpt lat="37.07408" lon="-3.37786">
        <ele>2846.4</ele>
        <time>2021-08-05 13:05:38</time>
      </trkpt>
      <trkpt lat="37.07407" lon="-3.37786">
        <ele>2846.4</ele>
        <time>2021-08-05 13:05:39</time>
      </trkpt>
      <trkpt lat="37.07407" lon="-3.37785">
        <ele>2846.4</ele>
        <time>2021-08-05 13:05:40</time>
      </trkpt>
      <trkpt lat="37.07406" lon="-3.37785">
        <ele>2846.6</ele>
        <time>2021-08-05 13:05:41</time>
      </trkpt>
      <trkpt lat="37.07406" lon="-3.37786">
        <ele>2846.8</ele>
        <time>2021-08-05 13:05:42</time>
      </trkpt>
      <trkpt lat="37.07405" lon="-3.37786">
        <ele>2846.8</ele>
        <time>2021-08-05 13:05:43</time>
      </trkpt>
      <trkpt lat="37.07404" lon="-3.37785">
        <ele>2847</ele>
        <time>2021-08-05 13:05:44</time>
      </trkpt>
      <trkpt lat="37.07404" lon="-3.37785">
        <ele>2847.2</ele>
        <time>2021-08-05 13:05:45</time>
      </trkpt>
      <trkpt lat="37.07403" lon="-3.37785">
        <ele>2847.2</ele>
        <time>2021-08-05 13:05:46</time>
      </trkpt>
      <trkpt lat="37.07402" lon="-3.37785">
        <ele>2847.4</ele>
        <time>2021-08-05 13:05:47</time>
      </trkpt>
      <trkpt lat="37.07401" lon="-3.37785">
        <ele>2847.6</ele>
        <time>2021-08-05 13:05:48</time>
      </trkpt>
      <trkpt lat="37.07401" lon="-3.37785">
        <ele>2847.6</ele>
        <time>2021-08-05 13:05:49</time>
      </trkpt>
      <trkpt lat="37.074" lon="-3.37785">
        <ele>2847.6</ele>
        <time>2021-08-05 13:05:50</time>
      </trkpt>
      <trkpt lat="37.074" lon="-3.37785">
        <ele>2847.6</ele>
        <time>2021-08-05 13:05:51</time>
      </trkpt>
      <trkpt lat="37.074" lon="-3.37785">
        <ele>2847.6</ele>
        <time>2021-08-05 13:05:52</time>
      </trkpt>
      <trkpt lat="37.074" lon="-3.37785">
        <ele>2847.6</ele>
        <time>2021-08-05 13:05:53</time>
      </trkpt>
      <trkpt lat="37.074" lon="-3.37785">
        <ele>2847.4</ele>
        <time>2021-08-05 13:05:54</time>
      </trkpt>
      <trkpt lat="37.07399" lon="-3.37785">
        <ele>2847.4</ele>
        <time>2021-08-05 13:05:55</time>
      </trkpt>
      <trkpt lat="37.07398" lon="-3.37785">
        <ele>2847.4</ele>
        <time>2021-08-05 13:05:56</time>
      </trkpt>
      <trkpt lat="37.07397" lon="-3.37785">
        <ele>2847.4</ele>
        <time>2021-08-05 13:05:57</time>
      </trkpt>
      <trkpt lat="37.07396" lon="-3.37785">
        <ele>2847.6</ele>
        <time>2021-08-05 13:05:58</time>
      </trkpt>
      <trkpt lat="37.07395" lon="-3.37785">
        <ele>2848</ele>
        <time>2021-08-05 13:05:59</time>
      </trkpt>
      <trkpt lat="37.07394" lon="-3.37786">
        <ele>2848.2</ele>
        <time>2021-08-05 13:06:00</time>
      </trkpt>
      <trkpt lat="37.07393" lon="-3.37786">
        <ele>2848.4</ele>
        <time>2021-08-05 13:06:01</time>
      </trkpt>
      <trkpt lat="37.07392" lon="-3.37786">
        <ele>2848.6</ele>
        <time>2021-08-05 13:06:02</time>
      </trkpt>
      <trkpt lat="37.07391" lon="-3.37786">
        <ele>2848.6</ele>
        <time>2021-08-05 13:06:03</time>
      </trkpt>
      <trkpt lat="37.0739" lon="-3.37785">
        <ele>2849</ele>
        <time>2021-08-05 13:06:04</time>
      </trkpt>
      <trkpt lat="37.07389" lon="-3.37785">
        <ele>2849.2</ele>
        <time>2021-08-05 13:06:05</time>
      </trkpt>
      <trkpt lat="37.07389" lon="-3.37785">
        <ele>2849.6</ele>
        <time>2021-08-05 13:06:06</time>
      </trkpt>
      <trkpt lat="37.07388" lon="-3.37786">
        <ele>2849.8</ele>
        <time>2021-08-05 13:06:07</time>
      </trkpt>
      <trkpt lat="37.07388" lon="-3.37786">
        <ele>2849.8</ele>
        <time>2021-08-05 13:06:08</time>
      </trkpt>
      <trkpt lat="37.07388" lon="-3.37787">
        <ele>2850</ele>
        <time>2021-08-05 13:06:09</time>
      </trkpt>
      <trkpt lat="37.07387" lon="-3.37787">
        <ele>2850</ele>
        <time>2021-08-05 13:06:10</time>
      </trkpt>
      <trkpt lat="37.07387" lon="-3.37788">
        <ele>2850</ele>
        <time>2021-08-05 13:06:11</time>
      </trkpt>
      <trkpt lat="37.07386" lon="-3.37788">
        <ele>2850</ele>
        <time>2021-08-05 13:06:12</time>
      </trkpt>
      <trkpt lat="37.07386" lon="-3.37789">
        <ele>2850</ele>
        <time>2021-08-05 13:06:13</time>
      </trkpt>
      <trkpt lat="37.07385" lon="-3.37789">
        <ele>2849.8</ele>
        <time>2021-08-05 13:06:14</time>
      </trkpt>
      <trkpt lat="37.07384" lon="-3.37788">
        <ele>2849.8</ele>
        <time>2021-08-05 13:06:15</time>
      </trkpt>
      <trkpt lat="37.07384" lon="-3.37788">
        <ele>2849.8</ele>
        <time>2021-08-05 13:06:16</time>
      </trkpt>
      <trkpt lat="37.07383" lon="-3.37788">
        <ele>2849.8</ele>
        <time>2021-08-05 13:06:17</time>
      </trkpt>
      <trkpt lat="37.07383" lon="-3.37788">
        <ele>2849.8</ele>
        <time>2021-08-05 13:06:18</time>
      </trkpt>
      <trkpt lat="37.07383" lon="-3.37788">
        <ele>2849.8</ele>
        <time>2021-08-05 13:06:19</time>
      </trkpt>
      <trkpt lat="37.07383" lon="-3.37788">
        <ele>2849.6</ele>
        <time>2021-08-05 13:06:20</time>
      </trkpt>
      <trkpt lat="37.07381" lon="-3.37787">
        <ele>2849.8</ele>
        <time>2021-08-05 13:06:21</time>
      </trkpt>
      <trkpt lat="37.07381" lon="-3.37787">
        <ele>2849.8</ele>
        <time>2021-08-05 13:06:22</time>
      </trkpt>
      <trkpt lat="37.0738" lon="-3.37788">
        <ele>2850</ele>
        <time>2021-08-05 13:06:23</time>
      </trkpt>
      <trkpt lat="37.0738" lon="-3.37788">
        <ele>2850</ele>
        <time>2021-08-05 13:06:24</time>
      </trkpt>
      <trkpt lat="37.0738" lon="-3.37788">
        <ele>2850</ele>
        <time>2021-08-05 13:06:25</time>
      </trkpt>
      <trkpt lat="37.0738" lon="-3.37788">
        <ele>2850.2</ele>
        <time>2021-08-05 13:06:26</time>
      </trkpt>
      <trkpt lat="37.07379" lon="-3.37788">
        <ele>2850.4</ele>
        <time>2021-08-05 13:06:27</time>
      </trkpt>
      <trkpt lat="37.07379" lon="-3.37789">
        <ele>2850.6</ele>
        <time>2021-08-05 13:06:28</time>
      </trkpt>
      <trkpt lat="37.07378" lon="-3.37789">
        <ele>2850.6</ele>
        <time>2021-08-05 13:06:29</time>
      </trkpt>
      <trkpt lat="37.07377" lon="-3.37789">
        <ele>2850.8</ele>
        <time>2021-08-05 13:06:30</time>
      </trkpt>
      <trkpt lat="37.07377" lon="-3.37789">
        <ele>2851.4</ele>
        <time>2021-08-05 13:06:31</time>
      </trkpt>
      <trkpt lat="37.07376" lon="-3.37789">
        <ele>2851.6</ele>
        <time>2021-08-05 13:06:32</time>
      </trkpt>
      <trkpt lat="37.07376" lon="-3.37789">
        <ele>2851.8</ele>
        <time>2021-08-05 13:06:33</time>
      </trkpt>
      <trkpt lat="37.07375" lon="-3.37789">
        <ele>2852</ele>
        <time>2021-08-05 13:06:34</time>
      </trkpt>
      <trkpt lat="37.07375" lon="-3.37789">
        <ele>2852.2</ele>
        <time>2021-08-05 13:06:35</time>
      </trkpt>
      <trkpt lat="37.07375" lon="-3.3779">
        <ele>2852.2</ele>
        <time>2021-08-05 13:06:36</time>
      </trkpt>
      <trkpt lat="37.07375" lon="-3.3779">
        <ele>2852.4</ele>
        <time>2021-08-05 13:06:37</time>
      </trkpt>
      <trkpt lat="37.07374" lon="-3.37791">
        <ele>2852.6</ele>
        <time>2021-08-05 13:06:38</time>
      </trkpt>
      <trkpt lat="37.07374" lon="-3.37791">
        <ele>2852.6</ele>
        <time>2021-08-05 13:06:39</time>
      </trkpt>
      <trkpt lat="37.07375" lon="-3.37792">
        <ele>2852.8</ele>
        <time>2021-08-05 13:06:40</time>
      </trkpt>
      <trkpt lat="37.07375" lon="-3.37792">
        <ele>2853</ele>
        <time>2021-08-05 13:06:41</time>
      </trkpt>
      <trkpt lat="37.07375" lon="-3.37793">
        <ele>2853</ele>
        <time>2021-08-05 13:06:42</time>
      </trkpt>
      <trkpt lat="37.07376" lon="-3.37793">
        <ele>2853.2</ele>
        <time>2021-08-05 13:06:43</time>
      </trkpt>
      <trkpt lat="37.07376" lon="-3.37794">
        <ele>2853.2</ele>
        <time>2021-08-05 13:06:44</time>
      </trkpt>
      <trkpt lat="37.07376" lon="-3.37794">
        <ele>2853.2</ele>
        <time>2021-08-05 13:06:45</time>
      </trkpt>
      <trkpt lat="37.07376" lon="-3.37795">
        <ele>2853.4</ele>
        <time>2021-08-05 13:06:46</time>
      </trkpt>
      <trkpt lat="37.07376" lon="-3.37795">
        <ele>2853.4</ele>
        <time>2021-08-05 13:06:47</time>
      </trkpt>
      <trkpt lat="37.07375" lon="-3.37795">
        <ele>2853.6</ele>
        <time>2021-08-05 13:06:48</time>
      </trkpt>
      <trkpt lat="37.07374" lon="-3.37795">
        <ele>2853.8</ele>
        <time>2021-08-05 13:06:49</time>
      </trkpt>
      <trkpt lat="37.07374" lon="-3.37796">
        <ele>2854</ele>
        <time>2021-08-05 13:06:50</time>
      </trkpt>
      <trkpt lat="37.07373" lon="-3.37797">
        <ele>2854.2</ele>
        <time>2021-08-05 13:06:51</time>
      </trkpt>
      <trkpt lat="37.07373" lon="-3.37797">
        <ele>2854.2</ele>
        <time>2021-08-05 13:06:52</time>
      </trkpt>
      <trkpt lat="37.07371" lon="-3.37797">
        <ele>2854.2</ele>
        <time>2021-08-05 13:06:53</time>
      </trkpt>
      <trkpt lat="37.0737" lon="-3.37798">
        <ele>2854.2</ele>
        <time>2021-08-05 13:06:54</time>
      </trkpt>
      <trkpt lat="37.0737" lon="-3.37798">
        <ele>2854.4</ele>
        <time>2021-08-05 13:06:55</time>
      </trkpt>
      <trkpt lat="37.07369" lon="-3.37798">
        <ele>2854.4</ele>
        <time>2021-08-05 13:06:56</time>
      </trkpt>
      <trkpt lat="37.07368" lon="-3.37798">
        <ele>2854.4</ele>
        <time>2021-08-05 13:06:57</time>
      </trkpt>
      <trkpt lat="37.07367" lon="-3.37799">
        <ele>2854.4</ele>
        <time>2021-08-05 13:06:58</time>
      </trkpt>
      <trkpt lat="37.07366" lon="-3.37802">
        <ele>2854.4</ele>
        <time>2021-08-05 13:06:59</time>
      </trkpt>
      <trkpt lat="37.07365" lon="-3.37802">
        <ele>2854.4</ele>
        <time>2021-08-05 13:07:00</time>
      </trkpt>
      <trkpt lat="37.07365" lon="-3.37802">
        <ele>2854.6</ele>
        <time>2021-08-05 13:07:01</time>
      </trkpt>
      <trkpt lat="37.07364" lon="-3.37801">
        <ele>2854.8</ele>
        <time>2021-08-05 13:07:02</time>
      </trkpt>
      <trkpt lat="37.07363" lon="-3.37802">
        <ele>2854.8</ele>
        <time>2021-08-05 13:07:03</time>
      </trkpt>
      <trkpt lat="37.07363" lon="-3.37802">
        <ele>2855</ele>
        <time>2021-08-05 13:07:04</time>
      </trkpt>
      <trkpt lat="37.07362" lon="-3.37802">
        <ele>2855.2</ele>
        <time>2021-08-05 13:07:05</time>
      </trkpt>
      <trkpt lat="37.07362" lon="-3.37802">
        <ele>2855.6</ele>
        <time>2021-08-05 13:07:06</time>
      </trkpt>
      <trkpt lat="37.07362" lon="-3.37802">
        <ele>2855.8</ele>
        <time>2021-08-05 13:07:07</time>
      </trkpt>
      <trkpt lat="37.07361" lon="-3.37802">
        <ele>2856</ele>
        <time>2021-08-05 13:07:08</time>
      </trkpt>
      <trkpt lat="37.07361" lon="-3.37802">
        <ele>2856</ele>
        <time>2021-08-05 13:07:09</time>
      </trkpt>
      <trkpt lat="37.0736" lon="-3.37802">
        <ele>2856</ele>
        <time>2021-08-05 13:07:10</time>
      </trkpt>
      <trkpt lat="37.07359" lon="-3.37802">
        <ele>2856</ele>
        <time>2021-08-05 13:07:11</time>
      </trkpt>
      <trkpt lat="37.07358" lon="-3.37802">
        <ele>2856</ele>
        <time>2021-08-05 13:07:12</time>
      </trkpt>
      <trkpt lat="37.07357" lon="-3.37801">
        <ele>2856</ele>
        <time>2021-08-05 13:07:13</time>
      </trkpt>
      <trkpt lat="37.07356" lon="-3.37801">
        <ele>2856</ele>
        <time>2021-08-05 13:07:14</time>
      </trkpt>
      <trkpt lat="37.07355" lon="-3.37801">
        <ele>2856</ele>
        <time>2021-08-05 13:07:15</time>
      </trkpt>
      <trkpt lat="37.07355" lon="-3.37801">
        <ele>2856</ele>
        <time>2021-08-05 13:07:16</time>
      </trkpt>
      <trkpt lat="37.07355" lon="-3.37801">
        <ele>2856</ele>
        <time>2021-08-05 13:07:17</time>
      </trkpt>
      <trkpt lat="37.07354" lon="-3.37802">
        <ele>2856</ele>
        <time>2021-08-05 13:07:18</time>
      </trkpt>
      <trkpt lat="37.07354" lon="-3.37802">
        <ele>2856</ele>
        <time>2021-08-05 13:07:19</time>
      </trkpt>
      <trkpt lat="37.07353" lon="-3.37802">
        <ele>2856.4</ele>
        <time>2021-08-05 13:07:20</time>
      </trkpt>
      <trkpt lat="37.07353" lon="-3.37803">
        <ele>2856.6</ele>
        <time>2021-08-05 13:07:21</time>
      </trkpt>
      <trkpt lat="37.07352" lon="-3.37803">
        <ele>2856.6</ele>
        <time>2021-08-05 13:07:22</time>
      </trkpt>
      <trkpt lat="37.07351" lon="-3.37804">
        <ele>2856.8</ele>
        <time>2021-08-05 13:07:23</time>
      </trkpt>
      <trkpt lat="37.07351" lon="-3.37804">
        <ele>2856.8</ele>
        <time>2021-08-05 13:07:24</time>
      </trkpt>
      <trkpt lat="37.0735" lon="-3.37805">
        <ele>2856.8</ele>
        <time>2021-08-05 13:07:25</time>
      </trkpt>
      <trkpt lat="37.0735" lon="-3.37805">
        <ele>2857</ele>
        <time>2021-08-05 13:07:26</time>
      </trkpt>
      <trkpt lat="37.07349" lon="-3.37805">
        <ele>2857.2</ele>
        <time>2021-08-05 13:07:27</time>
      </trkpt>
      <trkpt lat="37.07348" lon="-3.37805">
        <ele>2857.2</ele>
        <time>2021-08-05 13:07:28</time>
      </trkpt>
      <trkpt lat="37.07348" lon="-3.37805">
        <ele>2857.2</ele>
        <time>2021-08-05 13:07:29</time>
      </trkpt>
      <trkpt lat="37.07348" lon="-3.37805">
        <ele>2857.2</ele>
        <time>2021-08-05 13:07:30</time>
      </trkpt>
      <trkpt lat="37.07347" lon="-3.37805">
        <ele>2857.2</ele>
        <time>2021-08-05 13:07:31</time>
      </trkpt>
      <trkpt lat="37.07347" lon="-3.37806">
        <ele>2857</ele>
        <time>2021-08-05 13:07:32</time>
      </trkpt>
      <trkpt lat="37.07346" lon="-3.37805">
        <ele>2857</ele>
        <time>2021-08-05 13:07:33</time>
      </trkpt>
      <trkpt lat="37.07345" lon="-3.37805">
        <ele>2857</ele>
        <time>2021-08-05 13:07:34</time>
      </trkpt>
      <trkpt lat="37.07344" lon="-3.37804">
        <ele>2857</ele>
        <time>2021-08-05 13:07:35</time>
      </trkpt>
      <trkpt lat="37.07344" lon="-3.37804">
        <ele>2857</ele>
        <time>2021-08-05 13:07:36</time>
      </trkpt>
      <trkpt lat="37.07343" lon="-3.37804">
        <ele>2857</ele>
        <time>2021-08-05 13:07:37</time>
      </trkpt>
      <trkpt lat="37.07342" lon="-3.37804">
        <ele>2857</ele>
        <time>2021-08-05 13:07:38</time>
      </trkpt>
      <trkpt lat="37.07341" lon="-3.37804">
        <ele>2857</ele>
        <time>2021-08-05 13:07:39</time>
      </trkpt>
      <trkpt lat="37.07341" lon="-3.37804">
        <ele>2857.2</ele>
        <time>2021-08-05 13:07:40</time>
      </trkpt>
      <trkpt lat="37.07341" lon="-3.37805">
        <ele>2857</ele>
        <time>2021-08-05 13:07:41</time>
      </trkpt>
      <trkpt lat="37.07341" lon="-3.37805">
        <ele>2857</ele>
        <time>2021-08-05 13:07:42</time>
      </trkpt>
      <trkpt lat="37.07341" lon="-3.37806">
        <ele>2857</ele>
        <time>2021-08-05 13:07:43</time>
      </trkpt>
      <trkpt lat="37.0734" lon="-3.37806">
        <ele>2857.2</ele>
        <time>2021-08-05 13:07:44</time>
      </trkpt>
      <trkpt lat="37.0734" lon="-3.37806">
        <ele>2857.2</ele>
        <time>2021-08-05 13:07:45</time>
      </trkpt>
      <trkpt lat="37.0734" lon="-3.37806">
        <ele>2857.2</ele>
        <time>2021-08-05 13:07:46</time>
      </trkpt>
      <trkpt lat="37.0734" lon="-3.37806">
        <ele>2857.4</ele>
        <time>2021-08-05 13:07:47</time>
      </trkpt>
      <trkpt lat="37.0734" lon="-3.37806">
        <ele>2857.4</ele>
        <time>2021-08-05 13:07:48</time>
      </trkpt>
      <trkpt lat="37.0734" lon="-3.37807">
        <ele>2857.8</ele>
        <time>2021-08-05 13:07:49</time>
      </trkpt>
      <trkpt lat="37.07339" lon="-3.37807">
        <ele>2858</ele>
        <time>2021-08-05 13:07:50</time>
      </trkpt>
      <trkpt lat="37.07339" lon="-3.37807">
        <ele>2858.2</ele>
        <time>2021-08-05 13:07:51</time>
      </trkpt>
      <trkpt lat="37.07338" lon="-3.37807">
        <ele>2858.6</ele>
        <time>2021-08-05 13:07:52</time>
      </trkpt>
      <trkpt lat="37.07338" lon="-3.37806">
        <ele>2858.8</ele>
        <time>2021-08-05 13:07:53</time>
      </trkpt>
      <trkpt lat="37.07337" lon="-3.37806">
        <ele>2859.2</ele>
        <time>2021-08-05 13:07:54</time>
      </trkpt>
      <trkpt lat="37.07337" lon="-3.37806">
        <ele>2859.4</ele>
        <time>2021-08-05 13:07:55</time>
      </trkpt>
      <trkpt lat="37.07337" lon="-3.37805">
        <ele>2859.6</ele>
        <time>2021-08-05 13:07:56</time>
      </trkpt>
      <trkpt lat="37.07336" lon="-3.37805">
        <ele>2859.8</ele>
        <time>2021-08-05 13:07:57</time>
      </trkpt>
      <trkpt lat="37.07336" lon="-3.37805">
        <ele>2860</ele>
        <time>2021-08-05 13:07:58</time>
      </trkpt>
      <trkpt lat="37.07336" lon="-3.37805">
        <ele>2860</ele>
        <time>2021-08-05 13:07:59</time>
      </trkpt>
      <trkpt lat="37.07336" lon="-3.37805">
        <ele>2860</ele>
        <time>2021-08-05 13:08:00</time>
      </trkpt>
      <trkpt lat="37.07335" lon="-3.37805">
        <ele>2860</ele>
        <time>2021-08-05 13:08:01</time>
      </trkpt>
      <trkpt lat="37.07335" lon="-3.37805">
        <ele>2860.2</ele>
        <time>2021-08-05 13:08:02</time>
      </trkpt>
      <trkpt lat="37.07335" lon="-3.37805">
        <ele>2860.2</ele>
        <time>2021-08-05 13:08:03</time>
      </trkpt>
      <trkpt lat="37.07335" lon="-3.37805">
        <ele>2860.2</ele>
        <time>2021-08-05 13:08:04</time>
      </trkpt>
      <trkpt lat="37.07335" lon="-3.37805">
        <ele>2860.4</ele>
        <time>2021-08-05 13:08:05</time>
      </trkpt>
      <trkpt lat="37.07335" lon="-3.37805">
        <ele>2860.4</ele>
        <time>2021-08-05 13:08:06</time>
      </trkpt>
      <trkpt lat="37.07335" lon="-3.37805">
        <ele>2860.4</ele>
        <time>2021-08-05 13:08:07</time>
      </trkpt>
      <trkpt lat="37.07335" lon="-3.37804">
        <ele>2860.4</ele>
        <time>2021-08-05 13:08:08</time>
      </trkpt>
      <trkpt lat="37.07335" lon="-3.37804">
        <ele>2860.4</ele>
        <time>2021-08-05 13:08:09</time>
      </trkpt>
      <trkpt lat="37.07334" lon="-3.37804">
        <ele>2860.2</ele>
        <time>2021-08-05 13:08:10</time>
      </trkpt>
      <trkpt lat="37.07334" lon="-3.37804">
        <ele>2860.2</ele>
        <time>2021-08-05 13:08:11</time>
      </trkpt>
      <trkpt lat="37.07334" lon="-3.37804">
        <ele>2860.2</ele>
        <time>2021-08-05 13:08:12</time>
      </trkpt>
      <trkpt lat="37.07333" lon="-3.37803">
        <ele>2860.2</ele>
        <time>2021-08-05 13:08:13</time>
      </trkpt>
      <trkpt lat="37.07332" lon="-3.37803">
        <ele>2860.2</ele>
        <time>2021-08-05 13:08:14</time>
      </trkpt>
      <trkpt lat="37.07331" lon="-3.37802">
        <ele>2860.2</ele>
        <time>2021-08-05 13:08:15</time>
      </trkpt>
      <trkpt lat="37.07331" lon="-3.37802">
        <ele>2860.2</ele>
        <time>2021-08-05 13:08:16</time>
      </trkpt>
      <trkpt lat="37.07331" lon="-3.37802">
        <ele>2860.2</ele>
        <time>2021-08-05 13:08:17</time>
      </trkpt>
      <trkpt lat="37.07331" lon="-3.37802">
        <ele>2860.4</ele>
        <time>2021-08-05 13:08:18</time>
      </trkpt>
      <trkpt lat="37.07331" lon="-3.37802">
        <ele>2860.4</ele>
        <time>2021-08-05 13:08:19</time>
      </trkpt>
      <trkpt lat="37.07331" lon="-3.37802">
        <ele>2860.4</ele>
        <time>2021-08-05 13:08:20</time>
      </trkpt>
      <trkpt lat="37.07331" lon="-3.37802">
        <ele>2860.4</ele>
        <time>2021-08-05 13:08:21</time>
      </trkpt>
      <trkpt lat="37.07331" lon="-3.37802">
        <ele>2860.4</ele>
        <time>2021-08-05 13:08:22</time>
      </trkpt>
      <trkpt lat="37.0733" lon="-3.37802">
        <ele>2860.4</ele>
        <time>2021-08-05 13:08:23</time>
      </trkpt>
      <trkpt lat="37.0733" lon="-3.37802">
        <ele>2860.4</ele>
        <time>2021-08-05 13:08:24</time>
      </trkpt>
      <trkpt lat="37.07329" lon="-3.37803">
        <ele>2860.4</ele>
        <time>2021-08-05 13:08:25</time>
      </trkpt>
      <trkpt lat="37.07329" lon="-3.37803">
        <ele>2860.4</ele>
        <time>2021-08-05 13:08:26</time>
      </trkpt>
      <trkpt lat="37.07329" lon="-3.37803">
        <ele>2860.4</ele>
        <time>2021-08-05 13:08:27</time>
      </trkpt>
      <trkpt lat="37.07329" lon="-3.37803">
        <ele>2860.6</ele>
        <time>2021-08-05 13:08:28</time>
      </trkpt>
      <trkpt lat="37.07329" lon="-3.37804">
        <ele>2860.8</ele>
        <time>2021-08-05 13:08:29</time>
      </trkpt>
      <trkpt lat="37.07329" lon="-3.37804">
        <ele>2860.8</ele>
        <time>2021-08-05 13:08:30</time>
      </trkpt>
      <trkpt lat="37.07328" lon="-3.37804">
        <ele>2860.8</ele>
        <time>2021-08-05 13:08:31</time>
      </trkpt>
      <trkpt lat="37.07328" lon="-3.37804">
        <ele>2861</ele>
        <time>2021-08-05 13:08:32</time>
      </trkpt>
      <trkpt lat="37.07327" lon="-3.37804">
        <ele>2861</ele>
        <time>2021-08-05 13:08:33</time>
      </trkpt>
      <trkpt lat="37.07327" lon="-3.37803">
        <ele>2861.2</ele>
        <time>2021-08-05 13:08:34</time>
      </trkpt>
      <trkpt lat="37.07326" lon="-3.37803">
        <ele>2861.2</ele>
        <time>2021-08-05 13:08:35</time>
      </trkpt>
      <trkpt lat="37.07325" lon="-3.37804">
        <ele>2861.4</ele>
        <time>2021-08-05 13:08:36</time>
      </trkpt>
      <trkpt lat="37.07324" lon="-3.37803">
        <ele>2861.4</ele>
        <time>2021-08-05 13:08:37</time>
      </trkpt>
      <trkpt lat="37.07323" lon="-3.37803">
        <ele>2861.6</ele>
        <time>2021-08-05 13:08:38</time>
      </trkpt>
      <trkpt lat="37.07322" lon="-3.37803">
        <ele>2861.6</ele>
        <time>2021-08-05 13:08:39</time>
      </trkpt>
      <trkpt lat="37.07321" lon="-3.37803">
        <ele>2862</ele>
        <time>2021-08-05 13:08:40</time>
      </trkpt>
      <trkpt lat="37.0732" lon="-3.37804">
        <ele>2862.2</ele>
        <time>2021-08-05 13:08:41</time>
      </trkpt>
      <trkpt lat="37.0732" lon="-3.37804">
        <ele>2862.2</ele>
        <time>2021-08-05 13:08:42</time>
      </trkpt>
      <trkpt lat="37.0732" lon="-3.37804">
        <ele>2862.2</ele>
        <time>2021-08-05 13:08:43</time>
      </trkpt>
      <trkpt lat="37.0732" lon="-3.37805">
        <ele>2862.2</ele>
        <time>2021-08-05 13:08:44</time>
      </trkpt>
      <trkpt lat="37.07319" lon="-3.37805">
        <ele>2862.2</ele>
        <time>2021-08-05 13:08:45</time>
      </trkpt>
      <trkpt lat="37.07319" lon="-3.37805">
        <ele>2862.2</ele>
        <time>2021-08-05 13:08:46</time>
      </trkpt>
      <trkpt lat="37.07319" lon="-3.37806">
        <ele>2862.2</ele>
        <time>2021-08-05 13:08:47</time>
      </trkpt>
      <trkpt lat="37.07319" lon="-3.37806">
        <ele>2862.2</ele>
        <time>2021-08-05 13:08:48</time>
      </trkpt>
      <trkpt lat="37.07318" lon="-3.37806">
        <ele>2862.2</ele>
        <time>2021-08-05 13:08:49</time>
      </trkpt>
      <trkpt lat="37.07318" lon="-3.37807">
        <ele>2862.4</ele>
        <time>2021-08-05 13:08:50</time>
      </trkpt>
      <trkpt lat="37.07317" lon="-3.37807">
        <ele>2862.6</ele>
        <time>2021-08-05 13:08:51</time>
      </trkpt>
      <trkpt lat="37.07317" lon="-3.37807">
        <ele>2862.8</ele>
        <time>2021-08-05 13:08:52</time>
      </trkpt>
      <trkpt lat="37.07316" lon="-3.37807">
        <ele>2862.8</ele>
        <time>2021-08-05 13:08:53</time>
      </trkpt>
      <trkpt lat="37.07315" lon="-3.37806">
        <ele>2862.8</ele>
        <time>2021-08-05 13:08:54</time>
      </trkpt>
      <trkpt lat="37.07315" lon="-3.37806">
        <ele>2863</ele>
        <time>2021-08-05 13:08:55</time>
      </trkpt>
      <trkpt lat="37.07314" lon="-3.37806">
        <ele>2863</ele>
        <time>2021-08-05 13:08:56</time>
      </trkpt>
      <trkpt lat="37.07313" lon="-3.37806">
        <ele>2863.2</ele>
        <time>2021-08-05 13:08:57</time>
      </trkpt>
      <trkpt lat="37.07313" lon="-3.37806">
        <ele>2863.2</ele>
        <time>2021-08-05 13:08:58</time>
      </trkpt>
      <trkpt lat="37.07313" lon="-3.37806">
        <ele>2863.4</ele>
        <time>2021-08-05 13:08:59</time>
      </trkpt>
      <trkpt lat="37.07312" lon="-3.37806">
        <ele>2863.6</ele>
        <time>2021-08-05 13:09:00</time>
      </trkpt>
      <trkpt lat="37.07311" lon="-3.37806">
        <ele>2863.8</ele>
        <time>2021-08-05 13:09:01</time>
      </trkpt>
      <trkpt lat="37.07311" lon="-3.37806">
        <ele>2864</ele>
        <time>2021-08-05 13:09:02</time>
      </trkpt>
      <trkpt lat="37.0731" lon="-3.37807">
        <ele>2864.2</ele>
        <time>2021-08-05 13:09:03</time>
      </trkpt>
      <trkpt lat="37.0731" lon="-3.37807">
        <ele>2864.2</ele>
        <time>2021-08-05 13:09:04</time>
      </trkpt>
      <trkpt lat="37.07309" lon="-3.37807">
        <ele>2864.6</ele>
        <time>2021-08-05 13:09:05</time>
      </trkpt>
      <trkpt lat="37.07309" lon="-3.37807">
        <ele>2864.8</ele>
        <time>2021-08-05 13:09:06</time>
      </trkpt>
      <trkpt lat="37.07308" lon="-3.37807">
        <ele>2864.8</ele>
        <time>2021-08-05 13:09:07</time>
      </trkpt>
      <trkpt lat="37.07308" lon="-3.37807">
        <ele>2864.8</ele>
        <time>2021-08-05 13:09:08</time>
      </trkpt>
      <trkpt lat="37.07308" lon="-3.37807">
        <ele>2865</ele>
        <time>2021-08-05 13:09:09</time>
      </trkpt>
      <trkpt lat="37.07307" lon="-3.37807">
        <ele>2865</ele>
        <time>2021-08-05 13:09:10</time>
      </trkpt>
      <trkpt lat="37.07306" lon="-3.37807">
        <ele>2865</ele>
        <time>2021-08-05 13:09:11</time>
      </trkpt>
      <trkpt lat="37.07305" lon="-3.37806">
        <ele>2865.2</ele>
        <time>2021-08-05 13:09:12</time>
      </trkpt>
      <trkpt lat="37.07305" lon="-3.37806">
        <ele>2865.6</ele>
        <time>2021-08-05 13:09:13</time>
      </trkpt>
      <trkpt lat="37.07304" lon="-3.37805">
        <ele>2865.6</ele>
        <time>2021-08-05 13:09:14</time>
      </trkpt>
      <trkpt lat="37.07304" lon="-3.37805">
        <ele>2865.8</ele>
        <time>2021-08-05 13:09:15</time>
      </trkpt>
      <trkpt lat="37.07303" lon="-3.37805">
        <ele>2866</ele>
        <time>2021-08-05 13:09:16</time>
      </trkpt>
      <trkpt lat="37.07302" lon="-3.37805">
        <ele>2866.2</ele>
        <time>2021-08-05 13:09:17</time>
      </trkpt>
      <trkpt lat="37.07301" lon="-3.37804">
        <ele>2866.4</ele>
        <time>2021-08-05 13:09:18</time>
      </trkpt>
      <trkpt lat="37.073" lon="-3.37804">
        <ele>2866.6</ele>
        <time>2021-08-05 13:09:19</time>
      </trkpt>
      <trkpt lat="37.07299" lon="-3.37804">
        <ele>2866.6</ele>
        <time>2021-08-05 13:09:20</time>
      </trkpt>
      <trkpt lat="37.07298" lon="-3.37803">
        <ele>2866.8</ele>
        <time>2021-08-05 13:09:21</time>
      </trkpt>
      <trkpt lat="37.07297" lon="-3.37803">
        <ele>2866.8</ele>
        <time>2021-08-05 13:09:22</time>
      </trkpt>
      <trkpt lat="37.07296" lon="-3.37803">
        <ele>2866.8</ele>
        <time>2021-08-05 13:09:23</time>
      </trkpt>
      <trkpt lat="37.07296" lon="-3.37803">
        <ele>2866.8</ele>
        <time>2021-08-05 13:09:24</time>
      </trkpt>
      <trkpt lat="37.07295" lon="-3.37802">
        <ele>2866.8</ele>
        <time>2021-08-05 13:09:25</time>
      </trkpt>
      <trkpt lat="37.07295" lon="-3.37802">
        <ele>2866.8</ele>
        <time>2021-08-05 13:09:26</time>
      </trkpt>
      <trkpt lat="37.07294" lon="-3.37802">
        <ele>2866.8</ele>
        <time>2021-08-05 13:09:27</time>
      </trkpt>
      <trkpt lat="37.07294" lon="-3.37801">
        <ele>2866.8</ele>
        <time>2021-08-05 13:09:28</time>
      </trkpt>
      <trkpt lat="37.07293" lon="-3.37801">
        <ele>2867</ele>
        <time>2021-08-05 13:09:29</time>
      </trkpt>
      <trkpt lat="37.07292" lon="-3.378">
        <ele>2867.4</ele>
        <time>2021-08-05 13:09:30</time>
      </trkpt>
      <trkpt lat="37.07292" lon="-3.378">
        <ele>2867.6</ele>
        <time>2021-08-05 13:09:31</time>
      </trkpt>
      <trkpt lat="37.07291" lon="-3.378">
        <ele>2867.8</ele>
        <time>2021-08-05 13:09:32</time>
      </trkpt>
      <trkpt lat="37.0729" lon="-3.37801">
        <ele>2868</ele>
        <time>2021-08-05 13:09:33</time>
      </trkpt>
      <trkpt lat="37.0729" lon="-3.37801">
        <ele>2868</ele>
        <time>2021-08-05 13:09:34</time>
      </trkpt>
      <trkpt lat="37.07289" lon="-3.37802">
        <ele>2868</ele>
        <time>2021-08-05 13:09:35</time>
      </trkpt>
      <trkpt lat="37.07289" lon="-3.37802">
        <ele>2868</ele>
        <time>2021-08-05 13:09:36</time>
      </trkpt>
      <trkpt lat="37.07288" lon="-3.37803">
        <ele>2868</ele>
        <time>2021-08-05 13:09:37</time>
      </trkpt>
      <trkpt lat="37.07287" lon="-3.37803">
        <ele>2868</ele>
        <time>2021-08-05 13:09:38</time>
      </trkpt>
      <trkpt lat="37.07287" lon="-3.37804">
        <ele>2868</ele>
        <time>2021-08-05 13:09:39</time>
      </trkpt>
      <trkpt lat="37.07286" lon="-3.37804">
        <ele>2868</ele>
        <time>2021-08-05 13:09:40</time>
      </trkpt>
      <trkpt lat="37.07286" lon="-3.37804">
        <ele>2868.2</ele>
        <time>2021-08-05 13:09:41</time>
      </trkpt>
      <trkpt lat="37.07286" lon="-3.37804">
        <ele>2868.4</ele>
        <time>2021-08-05 13:09:42</time>
      </trkpt>
      <trkpt lat="37.07285" lon="-3.37804">
        <ele>2868.6</ele>
        <time>2021-08-05 13:09:43</time>
      </trkpt>
      <trkpt lat="37.07284" lon="-3.37804">
        <ele>2868.8</ele>
        <time>2021-08-05 13:09:44</time>
      </trkpt>
      <trkpt lat="37.07284" lon="-3.37804">
        <ele>2868.8</ele>
        <time>2021-08-05 13:09:45</time>
      </trkpt>
      <trkpt lat="37.07283" lon="-3.37804">
        <ele>2869</ele>
        <time>2021-08-05 13:09:46</time>
      </trkpt>
      <trkpt lat="37.07282" lon="-3.37804">
        <ele>2869</ele>
        <time>2021-08-05 13:09:47</time>
      </trkpt>
      <trkpt lat="37.07282" lon="-3.37803">
        <ele>2869</ele>
        <time>2021-08-05 13:09:48</time>
      </trkpt>
      <trkpt lat="37.07281" lon="-3.37804">
        <ele>2869.2</ele>
        <time>2021-08-05 13:09:49</time>
      </trkpt>
      <trkpt lat="37.07281" lon="-3.37803">
        <ele>2869.2</ele>
        <time>2021-08-05 13:09:50</time>
      </trkpt>
      <trkpt lat="37.0728" lon="-3.37803">
        <ele>2869.2</ele>
        <time>2021-08-05 13:09:51</time>
      </trkpt>
      <trkpt lat="37.07279" lon="-3.37803">
        <ele>2869.2</ele>
        <time>2021-08-05 13:09:52</time>
      </trkpt>
      <trkpt lat="37.07278" lon="-3.37803">
        <ele>2869.4</ele>
        <time>2021-08-05 13:09:53</time>
      </trkpt>
      <trkpt lat="37.07278" lon="-3.37803">
        <ele>2869.6</ele>
        <time>2021-08-05 13:09:54</time>
      </trkpt>
      <trkpt lat="37.07277" lon="-3.37803">
        <ele>2869.8</ele>
        <time>2021-08-05 13:09:55</time>
      </trkpt>
      <trkpt lat="37.07277" lon="-3.37803">
        <ele>2869.8</ele>
        <time>2021-08-05 13:09:56</time>
      </trkpt>
      <trkpt lat="37.07276" lon="-3.37803">
        <ele>2869.8</ele>
        <time>2021-08-05 13:09:57</time>
      </trkpt>
      <trkpt lat="37.07275" lon="-3.37804">
        <ele>2869.8</ele>
        <time>2021-08-05 13:09:58</time>
      </trkpt>
      <trkpt lat="37.07275" lon="-3.37803">
        <ele>2869.6</ele>
        <time>2021-08-05 13:09:59</time>
      </trkpt>
      <trkpt lat="37.07274" lon="-3.37803">
        <ele>2869.6</ele>
        <time>2021-08-05 13:10:00</time>
      </trkpt>
      <trkpt lat="37.07274" lon="-3.37804">
        <ele>2869.6</ele>
        <time>2021-08-05 13:10:01</time>
      </trkpt>
      <trkpt lat="37.07273" lon="-3.37803">
        <ele>2869.6</ele>
        <time>2021-08-05 13:10:02</time>
      </trkpt>
      <trkpt lat="37.07273" lon="-3.37803">
        <ele>2869.8</ele>
        <time>2021-08-05 13:10:03</time>
      </trkpt>
      <trkpt lat="37.07273" lon="-3.37802">
        <ele>2869.8</ele>
        <time>2021-08-05 13:10:04</time>
      </trkpt>
      <trkpt lat="37.07272" lon="-3.37802">
        <ele>2870</ele>
        <time>2021-08-05 13:10:05</time>
      </trkpt>
      <trkpt lat="37.07272" lon="-3.37802">
        <ele>2870.2</ele>
        <time>2021-08-05 13:10:06</time>
      </trkpt>
      <trkpt lat="37.07272" lon="-3.37803">
        <ele>2870.6</ele>
        <time>2021-08-05 13:10:07</time>
      </trkpt>
      <trkpt lat="37.07272" lon="-3.37802">
        <ele>2870.8</ele>
        <time>2021-08-05 13:10:08</time>
      </trkpt>
      <trkpt lat="37.07272" lon="-3.37803">
        <ele>2870.8</ele>
        <time>2021-08-05 13:10:09</time>
      </trkpt>
      <trkpt lat="37.07272" lon="-3.37802">
        <ele>2870.8</ele>
        <time>2021-08-05 13:10:10</time>
      </trkpt>
      <trkpt lat="37.07271" lon="-3.37802">
        <ele>2871</ele>
        <time>2021-08-05 13:10:11</time>
      </trkpt>
      <trkpt lat="37.0727" lon="-3.37801">
        <ele>2871</ele>
        <time>2021-08-05 13:10:12</time>
      </trkpt>
      <trkpt lat="37.07269" lon="-3.37801">
        <ele>2871</ele>
        <time>2021-08-05 13:10:13</time>
      </trkpt>
      <trkpt lat="37.07268" lon="-3.378">
        <ele>2871</ele>
        <time>2021-08-05 13:10:14</time>
      </trkpt>
      <trkpt lat="37.07267" lon="-3.378">
        <ele>2871.2</ele>
        <time>2021-08-05 13:10:15</time>
      </trkpt>
      <trkpt lat="37.07267" lon="-3.37799">
        <ele>2871.4</ele>
        <time>2021-08-05 13:10:16</time>
      </trkpt>
      <trkpt lat="37.07266" lon="-3.37799">
        <ele>2871.6</ele>
        <time>2021-08-05 13:10:17</time>
      </trkpt>
      <trkpt lat="37.07266" lon="-3.37799">
        <ele>2871.6</ele>
        <time>2021-08-05 13:10:18</time>
      </trkpt>
      <trkpt lat="37.07265" lon="-3.37799">
        <ele>2871.8</ele>
        <time>2021-08-05 13:10:19</time>
      </trkpt>
      <trkpt lat="37.07265" lon="-3.378">
        <ele>2871.8</ele>
        <time>2021-08-05 13:10:20</time>
      </trkpt>
      <trkpt lat="37.07264" lon="-3.378">
        <ele>2871.8</ele>
        <time>2021-08-05 13:10:21</time>
      </trkpt>
      <trkpt lat="37.07264" lon="-3.378">
        <ele>2871.8</ele>
        <time>2021-08-05 13:10:22</time>
      </trkpt>
      <trkpt lat="37.07263" lon="-3.378">
        <ele>2871.8</ele>
        <time>2021-08-05 13:10:23</time>
      </trkpt>
      <trkpt lat="37.07263" lon="-3.37799">
        <ele>2871.6</ele>
        <time>2021-08-05 13:10:24</time>
      </trkpt>
      <trkpt lat="37.07262" lon="-3.37798">
        <ele>2871.6</ele>
        <time>2021-08-05 13:10:25</time>
      </trkpt>
      <trkpt lat="37.07261" lon="-3.37798">
        <ele>2871.6</ele>
        <time>2021-08-05 13:10:26</time>
      </trkpt>
      <trkpt lat="37.0726" lon="-3.37798">
        <ele>2871.6</ele>
        <time>2021-08-05 13:10:27</time>
      </trkpt>
      <trkpt lat="37.07259" lon="-3.37799">
        <ele>2871.6</ele>
        <time>2021-08-05 13:10:28</time>
      </trkpt>
      <trkpt lat="37.07259" lon="-3.37798">
        <ele>2871.6</ele>
        <time>2021-08-05 13:10:29</time>
      </trkpt>
      <trkpt lat="37.07259" lon="-3.37798">
        <ele>2871.8</ele>
        <time>2021-08-05 13:10:30</time>
      </trkpt>
      <trkpt lat="37.07259" lon="-3.37798">
        <ele>2871.8</ele>
        <time>2021-08-05 13:10:31</time>
      </trkpt>
      <trkpt lat="37.07259" lon="-3.37798">
        <ele>2871.8</ele>
        <time>2021-08-05 13:10:32</time>
      </trkpt>
      <trkpt lat="37.07258" lon="-3.37797">
        <ele>2872</ele>
        <time>2021-08-05 13:10:33</time>
      </trkpt>
      <trkpt lat="37.07257" lon="-3.37796">
        <ele>2872</ele>
        <time>2021-08-05 13:10:34</time>
      </trkpt>
      <trkpt lat="37.07256" lon="-3.37795">
        <ele>2872</ele>
        <time>2021-08-05 13:10:35</time>
      </trkpt>
      <trkpt lat="37.07256" lon="-3.37795">
        <ele>2872</ele>
        <time>2021-08-05 13:10:36</time>
      </trkpt>
      <trkpt lat="37.07256" lon="-3.37794">
        <ele>2872</ele>
        <time>2021-08-05 13:10:37</time>
      </trkpt>
      <trkpt lat="37.07255" lon="-3.37793">
        <ele>2872.2</ele>
        <time>2021-08-05 13:10:38</time>
      </trkpt>
      <trkpt lat="37.07255" lon="-3.37793">
        <ele>2872.2</ele>
        <time>2021-08-05 13:10:39</time>
      </trkpt>
      <trkpt lat="37.07255" lon="-3.37792">
        <ele>2872.2</ele>
        <time>2021-08-05 13:10:40</time>
      </trkpt>
      <trkpt lat="37.07254" lon="-3.37792">
        <ele>2872.4</ele>
        <time>2021-08-05 13:10:41</time>
      </trkpt>
      <trkpt lat="37.07254" lon="-3.37791">
        <ele>2872.4</ele>
        <time>2021-08-05 13:10:42</time>
      </trkpt>
      <trkpt lat="37.07253" lon="-3.3779">
        <ele>2872.6</ele>
        <time>2021-08-05 13:10:43</time>
      </trkpt>
      <trkpt lat="37.07253" lon="-3.3779">
        <ele>2872.6</ele>
        <time>2021-08-05 13:10:44</time>
      </trkpt>
      <trkpt lat="37.07252" lon="-3.3779">
        <ele>2872.6</ele>
        <time>2021-08-05 13:10:45</time>
      </trkpt>
      <trkpt lat="37.07252" lon="-3.37789">
        <ele>2872.6</ele>
        <time>2021-08-05 13:10:46</time>
      </trkpt>
      <trkpt lat="37.07251" lon="-3.37789">
        <ele>2872.6</ele>
        <time>2021-08-05 13:10:47</time>
      </trkpt>
      <trkpt lat="37.07251" lon="-3.37788">
        <ele>2872.6</ele>
        <time>2021-08-05 13:10:48</time>
      </trkpt>
      <trkpt lat="37.07251" lon="-3.37788">
        <ele>2872.6</ele>
        <time>2021-08-05 13:10:49</time>
      </trkpt>
      <trkpt lat="37.07251" lon="-3.37788">
        <ele>2872.6</ele>
        <time>2021-08-05 13:10:50</time>
      </trkpt>
      <trkpt lat="37.07251" lon="-3.37787">
        <ele>2872.6</ele>
        <time>2021-08-05 13:10:51</time>
      </trkpt>
      <trkpt lat="37.0725" lon="-3.37787">
        <ele>2872.6</ele>
        <time>2021-08-05 13:10:52</time>
      </trkpt>
      <trkpt lat="37.07249" lon="-3.37787">
        <ele>2872.6</ele>
        <time>2021-08-05 13:10:53</time>
      </trkpt>
      <trkpt lat="37.07249" lon="-3.37788">
        <ele>2872.6</ele>
        <time>2021-08-05 13:10:54</time>
      </trkpt>
      <trkpt lat="37.07248" lon="-3.37788">
        <ele>2872.6</ele>
        <time>2021-08-05 13:10:55</time>
      </trkpt>
      <trkpt lat="37.07247" lon="-3.37788">
        <ele>2872.6</ele>
        <time>2021-08-05 13:10:56</time>
      </trkpt>
      <trkpt lat="37.07247" lon="-3.37786">
        <ele>2872.6</ele>
        <time>2021-08-05 13:10:57</time>
      </trkpt>
      <trkpt lat="37.07246" lon="-3.37786">
        <ele>2872.6</ele>
        <time>2021-08-05 13:10:58</time>
      </trkpt>
      <trkpt lat="37.07246" lon="-3.37785">
        <ele>2872.6</ele>
        <time>2021-08-05 13:10:59</time>
      </trkpt>
      <trkpt lat="37.07246" lon="-3.37784">
        <ele>2872.6</ele>
        <time>2021-08-05 13:11:00</time>
      </trkpt>
      <trkpt lat="37.07245" lon="-3.37783">
        <ele>2872.4</ele>
        <time>2021-08-05 13:11:01</time>
      </trkpt>
      <trkpt lat="37.07244" lon="-3.37783">
        <ele>2872.4</ele>
        <time>2021-08-05 13:11:02</time>
      </trkpt>
      <trkpt lat="37.07244" lon="-3.37782">
        <ele>2872.4</ele>
        <time>2021-08-05 13:11:03</time>
      </trkpt>
      <trkpt lat="37.07243" lon="-3.37782">
        <ele>2872.6</ele>
        <time>2021-08-05 13:11:04</time>
      </trkpt>
      <trkpt lat="37.07242" lon="-3.37782">
        <ele>2872.6</ele>
        <time>2021-08-05 13:11:05</time>
      </trkpt>
      <trkpt lat="37.07242" lon="-3.37783">
        <ele>2872.8</ele>
        <time>2021-08-05 13:11:06</time>
      </trkpt>
      <trkpt lat="37.07241" lon="-3.37783">
        <ele>2872.8</ele>
        <time>2021-08-05 13:11:07</time>
      </trkpt>
      <trkpt lat="37.0724" lon="-3.37783">
        <ele>2872.8</ele>
        <time>2021-08-05 13:11:08</time>
      </trkpt>
      <trkpt lat="37.07239" lon="-3.37782">
        <ele>2872.8</ele>
        <time>2021-08-05 13:11:09</time>
      </trkpt>
      <trkpt lat="37.07238" lon="-3.37782">
        <ele>2872.8</ele>
        <time>2021-08-05 13:11:10</time>
      </trkpt>
      <trkpt lat="37.07238" lon="-3.37781">
        <ele>2873</ele>
        <time>2021-08-05 13:11:11</time>
      </trkpt>
      <trkpt lat="37.07237" lon="-3.37781">
        <ele>2873</ele>
        <time>2021-08-05 13:11:12</time>
      </trkpt>
      <trkpt lat="37.07237" lon="-3.37781">
        <ele>2873</ele>
        <time>2021-08-05 13:11:13</time>
      </trkpt>
      <trkpt lat="37.07236" lon="-3.37781">
        <ele>2873</ele>
        <time>2021-08-05 13:11:14</time>
      </trkpt>
      <trkpt lat="37.07235" lon="-3.3778">
        <ele>2873.2</ele>
        <time>2021-08-05 13:11:15</time>
      </trkpt>
      <trkpt lat="37.07235" lon="-3.3778">
        <ele>2873.2</ele>
        <time>2021-08-05 13:11:16</time>
      </trkpt>
      <trkpt lat="37.07234" lon="-3.3778">
        <ele>2873.2</ele>
        <time>2021-08-05 13:11:17</time>
      </trkpt>
      <trkpt lat="37.07234" lon="-3.3778">
        <ele>2873.4</ele>
        <time>2021-08-05 13:11:18</time>
      </trkpt>
      <trkpt lat="37.07234" lon="-3.37779">
        <ele>2873.6</ele>
        <time>2021-08-05 13:11:19</time>
      </trkpt>
      <trkpt lat="37.07233" lon="-3.37779">
        <ele>2873.6</ele>
        <time>2021-08-05 13:11:20</time>
      </trkpt>
      <trkpt lat="37.07231" lon="-3.37778">
        <ele>2873.6</ele>
        <time>2021-08-05 13:11:21</time>
      </trkpt>
      <trkpt lat="37.07231" lon="-3.37778">
        <ele>2873.4</ele>
        <time>2021-08-05 13:11:22</time>
      </trkpt>
      <trkpt lat="37.0723" lon="-3.37778">
        <ele>2873.6</ele>
        <time>2021-08-05 13:11:23</time>
      </trkpt>
      <trkpt lat="37.0723" lon="-3.37778">
        <ele>2873.4</ele>
        <time>2021-08-05 13:11:24</time>
      </trkpt>
      <trkpt lat="37.07229" lon="-3.37778">
        <ele>2873.4</ele>
        <time>2021-08-05 13:11:25</time>
      </trkpt>
      <trkpt lat="37.07228" lon="-3.37777">
        <ele>2873.4</ele>
        <time>2021-08-05 13:11:26</time>
      </trkpt>
      <trkpt lat="37.07227" lon="-3.37777">
        <ele>2873.8</ele>
        <time>2021-08-05 13:11:27</time>
      </trkpt>
      <trkpt lat="37.07227" lon="-3.37777">
        <ele>2874</ele>
        <time>2021-08-05 13:11:28</time>
      </trkpt>
      <trkpt lat="37.07226" lon="-3.37776">
        <ele>2874.2</ele>
        <time>2021-08-05 13:11:29</time>
      </trkpt>
      <trkpt lat="37.07224" lon="-3.37776">
        <ele>2874.2</ele>
        <time>2021-08-05 13:11:30</time>
      </trkpt>
      <trkpt lat="37.07224" lon="-3.37776">
        <ele>2874.2</ele>
        <time>2021-08-05 13:11:31</time>
      </trkpt>
      <trkpt lat="37.07223" lon="-3.37775">
        <ele>2874.2</ele>
        <time>2021-08-05 13:11:32</time>
      </trkpt>
      <trkpt lat="37.07223" lon="-3.37775">
        <ele>2874.2</ele>
        <time>2021-08-05 13:11:33</time>
      </trkpt>
      <trkpt lat="37.07222" lon="-3.37776">
        <ele>2874.4</ele>
        <time>2021-08-05 13:11:34</time>
      </trkpt>
      <trkpt lat="37.07221" lon="-3.37777">
        <ele>2874.4</ele>
        <time>2021-08-05 13:11:35</time>
      </trkpt>
      <trkpt lat="37.07222" lon="-3.37777">
        <ele>2874.4</ele>
        <time>2021-08-05 13:11:36</time>
      </trkpt>
      <trkpt lat="37.07222" lon="-3.37778">
        <ele>2874.6</ele>
        <time>2021-08-05 13:11:37</time>
      </trkpt>
      <trkpt lat="37.07222" lon="-3.37777">
        <ele>2874.6</ele>
        <time>2021-08-05 13:11:38</time>
      </trkpt>
      <trkpt lat="37.07222" lon="-3.37778">
        <ele>2874.6</ele>
        <time>2021-08-05 13:11:39</time>
      </trkpt>
      <trkpt lat="37.07221" lon="-3.37778">
        <ele>2874.6</ele>
        <time>2021-08-05 13:11:40</time>
      </trkpt>
      <trkpt lat="37.07221" lon="-3.37778">
        <ele>2874.6</ele>
        <time>2021-08-05 13:11:41</time>
      </trkpt>
      <trkpt lat="37.0722" lon="-3.37779">
        <ele>2874.6</ele>
        <time>2021-08-05 13:11:42</time>
      </trkpt>
      <trkpt lat="37.07219" lon="-3.3778">
        <ele>2874.8</ele>
        <time>2021-08-05 13:11:43</time>
      </trkpt>
      <trkpt lat="37.07218" lon="-3.37779">
        <ele>2874.8</ele>
        <time>2021-08-05 13:11:44</time>
      </trkpt>
      <trkpt lat="37.07218" lon="-3.37779">
        <ele>2874.8</ele>
        <time>2021-08-05 13:11:45</time>
      </trkpt>
      <trkpt lat="37.07217" lon="-3.37778">
        <ele>2875</ele>
        <time>2021-08-05 13:11:46</time>
      </trkpt>
      <trkpt lat="37.07216" lon="-3.37778">
        <ele>2875</ele>
        <time>2021-08-05 13:11:47</time>
      </trkpt>
      <trkpt lat="37.07215" lon="-3.37779">
        <ele>2875</ele>
        <time>2021-08-05 13:11:48</time>
      </trkpt>
      <trkpt lat="37.07215" lon="-3.37779">
        <ele>2875.2</ele>
        <time>2021-08-05 13:11:49</time>
      </trkpt>
      <trkpt lat="37.07214" lon="-3.37778">
        <ele>2875.2</ele>
        <time>2021-08-05 13:11:50</time>
      </trkpt>
      <trkpt lat="37.07214" lon="-3.37776">
        <ele>2875.2</ele>
        <time>2021-08-05 13:11:51</time>
      </trkpt>
      <trkpt lat="37.07213" lon="-3.37775">
        <ele>2875.4</ele>
        <time>2021-08-05 13:11:52</time>
      </trkpt>
      <trkpt lat="37.07213" lon="-3.37775">
        <ele>2875.6</ele>
        <time>2021-08-05 13:11:53</time>
      </trkpt>
      <trkpt lat="37.07212" lon="-3.37774">
        <ele>2875.6</ele>
        <time>2021-08-05 13:11:54</time>
      </trkpt>
      <trkpt lat="37.07212" lon="-3.37774">
        <ele>2875.8</ele>
        <time>2021-08-05 13:11:55</time>
      </trkpt>
      <trkpt lat="37.07212" lon="-3.37774">
        <ele>2876</ele>
        <time>2021-08-05 13:11:56</time>
      </trkpt>
      <trkpt lat="37.07212" lon="-3.37773">
        <ele>2876</ele>
        <time>2021-08-05 13:11:57</time>
      </trkpt>
      <trkpt lat="37.07211" lon="-3.37773">
        <ele>2876</ele>
        <time>2021-08-05 13:11:58</time>
      </trkpt>
      <trkpt lat="37.07211" lon="-3.37773">
        <ele>2876</ele>
        <time>2021-08-05 13:11:59</time>
      </trkpt>
      <trkpt lat="37.0721" lon="-3.37773">
        <ele>2876</ele>
        <time>2021-08-05 13:12:00</time>
      </trkpt>
      <trkpt lat="37.07209" lon="-3.37772">
        <ele>2876</ele>
        <time>2021-08-05 13:12:01</time>
      </trkpt>
      <trkpt lat="37.07209" lon="-3.37772">
        <ele>2876.2</ele>
        <time>2021-08-05 13:12:02</time>
      </trkpt>
      <trkpt lat="37.07208" lon="-3.37771">
        <ele>2876.2</ele>
        <time>2021-08-05 13:12:03</time>
      </trkpt>
      <trkpt lat="37.07208" lon="-3.37771">
        <ele>2876.2</ele>
        <time>2021-08-05 13:12:04</time>
      </trkpt>
      <trkpt lat="37.07207" lon="-3.3777">
        <ele>2876.2</ele>
        <time>2021-08-05 13:12:05</time>
      </trkpt>
      <trkpt lat="37.07206" lon="-3.3777">
        <ele>2876.2</ele>
        <time>2021-08-05 13:12:06</time>
      </trkpt>
      <trkpt lat="37.07206" lon="-3.3777">
        <ele>2876.2</ele>
        <time>2021-08-05 13:12:07</time>
      </trkpt>
      <trkpt lat="37.07205" lon="-3.3777">
        <ele>2876.2</ele>
        <time>2021-08-05 13:12:08</time>
      </trkpt>
      <trkpt lat="37.07204" lon="-3.3777">
        <ele>2876.2</ele>
        <time>2021-08-05 13:12:09</time>
      </trkpt>
      <trkpt lat="37.07203" lon="-3.37769">
        <ele>2876.2</ele>
        <time>2021-08-05 13:12:10</time>
      </trkpt>
      <trkpt lat="37.07202" lon="-3.37769">
        <ele>2876.2</ele>
        <time>2021-08-05 13:12:11</time>
      </trkpt>
      <trkpt lat="37.07202" lon="-3.37768">
        <ele>2876.2</ele>
        <time>2021-08-05 13:12:12</time>
      </trkpt>
      <trkpt lat="37.07202" lon="-3.37768">
        <ele>2876.2</ele>
        <time>2021-08-05 13:12:13</time>
      </trkpt>
      <trkpt lat="37.07201" lon="-3.37768">
        <ele>2876.2</ele>
        <time>2021-08-05 13:12:14</time>
      </trkpt>
      <trkpt lat="37.07201" lon="-3.37768">
        <ele>2876.2</ele>
        <time>2021-08-05 13:12:15</time>
      </trkpt>
      <trkpt lat="37.072" lon="-3.37768">
        <ele>2876.4</ele>
        <time>2021-08-05 13:12:16</time>
      </trkpt>
      <trkpt lat="37.07199" lon="-3.37768">
        <ele>2876.4</ele>
        <time>2021-08-05 13:12:17</time>
      </trkpt>
      <trkpt lat="37.07199" lon="-3.37768">
        <ele>2876.6</ele>
        <time>2021-08-05 13:12:18</time>
      </trkpt>
      <trkpt lat="37.07199" lon="-3.37768">
        <ele>2876.6</ele>
        <time>2021-08-05 13:12:19</time>
      </trkpt>
      <trkpt lat="37.07198" lon="-3.37769">
        <ele>2876.6</ele>
        <time>2021-08-05 13:12:20</time>
      </trkpt>
      <trkpt lat="37.07198" lon="-3.37769">
        <ele>2876.6</ele>
        <time>2021-08-05 13:12:21</time>
      </trkpt>
      <trkpt lat="37.07197" lon="-3.37769">
        <ele>2876.8</ele>
        <time>2021-08-05 13:12:22</time>
      </trkpt>
      <trkpt lat="37.07197" lon="-3.37769">
        <ele>2877</ele>
        <time>2021-08-05 13:12:23</time>
      </trkpt>
      <trkpt lat="37.07197" lon="-3.37769">
        <ele>2877</ele>
        <time>2021-08-05 13:12:24</time>
      </trkpt>
      <trkpt lat="37.07197" lon="-3.37769">
        <ele>2877</ele>
        <time>2021-08-05 13:12:25</time>
      </trkpt>
      <trkpt lat="37.07198" lon="-3.37769">
        <ele>2877</ele>
        <time>2021-08-05 13:12:26</time>
      </trkpt>
      <trkpt lat="37.07197" lon="-3.37769">
        <ele>2877</ele>
        <time>2021-08-05 13:12:27</time>
      </trkpt>
      <trkpt lat="37.07197" lon="-3.37769">
        <ele>2877</ele>
        <time>2021-08-05 13:12:28</time>
      </trkpt>
      <trkpt lat="37.07196" lon="-3.37769">
        <ele>2877</ele>
        <time>2021-08-05 13:12:29</time>
      </trkpt>
      <trkpt lat="37.07196" lon="-3.37768">
        <ele>2877.2</ele>
        <time>2021-08-05 13:12:30</time>
      </trkpt>
      <trkpt lat="37.07195" lon="-3.37768">
        <ele>2877.2</ele>
        <time>2021-08-05 13:12:31</time>
      </trkpt>
      <trkpt lat="37.07194" lon="-3.37767">
        <ele>2877.2</ele>
        <time>2021-08-05 13:12:32</time>
      </trkpt>
      <trkpt lat="37.07193" lon="-3.37767">
        <ele>2877.2</ele>
        <time>2021-08-05 13:12:33</time>
      </trkpt>
      <trkpt lat="37.07192" lon="-3.37766">
        <ele>2877.2</ele>
        <time>2021-08-05 13:12:34</time>
      </trkpt>
      <trkpt lat="37.07192" lon="-3.37766">
        <ele>2877.4</ele>
        <time>2021-08-05 13:12:35</time>
      </trkpt>
      <trkpt lat="37.07191" lon="-3.37765">
        <ele>2877.4</ele>
        <time>2021-08-05 13:12:36</time>
      </trkpt>
      <trkpt lat="37.07191" lon="-3.37765">
        <ele>2877.6</ele>
        <time>2021-08-05 13:12:37</time>
      </trkpt>
      <trkpt lat="37.0719" lon="-3.37764">
        <ele>2877.6</ele>
        <time>2021-08-05 13:12:38</time>
      </trkpt>
      <trkpt lat="37.0719" lon="-3.37764">
        <ele>2877.6</ele>
        <time>2021-08-05 13:12:39</time>
      </trkpt>
      <trkpt lat="37.07189" lon="-3.37765">
        <ele>2877.6</ele>
        <time>2021-08-05 13:12:40</time>
      </trkpt>
      <trkpt lat="37.07189" lon="-3.37765">
        <ele>2877.6</ele>
        <time>2021-08-05 13:12:41</time>
      </trkpt>
      <trkpt lat="37.07188" lon="-3.37765">
        <ele>2877.6</ele>
        <time>2021-08-05 13:12:42</time>
      </trkpt>
      <trkpt lat="37.07188" lon="-3.37765">
        <ele>2877.6</ele>
        <time>2021-08-05 13:12:43</time>
      </trkpt>
      <trkpt lat="37.07187" lon="-3.37764">
        <ele>2877.6</ele>
        <time>2021-08-05 13:12:44</time>
      </trkpt>
      <trkpt lat="37.07187" lon="-3.37764">
        <ele>2877.8</ele>
        <time>2021-08-05 13:12:45</time>
      </trkpt>
      <trkpt lat="37.07187" lon="-3.37763">
        <ele>2877.8</ele>
        <time>2021-08-05 13:12:46</time>
      </trkpt>
      <trkpt lat="37.07186" lon="-3.37763">
        <ele>2877.8</ele>
        <time>2021-08-05 13:12:47</time>
      </trkpt>
      <trkpt lat="37.07185" lon="-3.37763">
        <ele>2877.8</ele>
        <time>2021-08-05 13:12:48</time>
      </trkpt>
      <trkpt lat="37.07185" lon="-3.37763">
        <ele>2878</ele>
        <time>2021-08-05 13:12:49</time>
      </trkpt>
      <trkpt lat="37.07184" lon="-3.37762">
        <ele>2878.2</ele>
        <time>2021-08-05 13:12:50</time>
      </trkpt>
      <trkpt lat="37.07183" lon="-3.37762">
        <ele>2878.4</ele>
        <time>2021-08-05 13:12:51</time>
      </trkpt>
      <trkpt lat="37.07183" lon="-3.37762">
        <ele>2878.4</ele>
        <time>2021-08-05 13:12:52</time>
      </trkpt>
      <trkpt lat="37.07182" lon="-3.37761">
        <ele>2878.4</ele>
        <time>2021-08-05 13:12:53</time>
      </trkpt>
      <trkpt lat="37.07182" lon="-3.3776">
        <ele>2878.6</ele>
        <time>2021-08-05 13:12:54</time>
      </trkpt>
      <trkpt lat="37.07181" lon="-3.3776">
        <ele>2878.6</ele>
        <time>2021-08-05 13:12:55</time>
      </trkpt>
      <trkpt lat="37.07181" lon="-3.3776">
        <ele>2878.6</ele>
        <time>2021-08-05 13:12:56</time>
      </trkpt>
      <trkpt lat="37.0718" lon="-3.3776">
        <ele>2878.6</ele>
        <time>2021-08-05 13:12:57</time>
      </trkpt>
      <trkpt lat="37.0718" lon="-3.37759">
        <ele>2878.8</ele>
        <time>2021-08-05 13:12:58</time>
      </trkpt>
      <trkpt lat="37.07179" lon="-3.37759">
        <ele>2878.8</ele>
        <time>2021-08-05 13:12:59</time>
      </trkpt>
      <trkpt lat="37.07178" lon="-3.37758">
        <ele>2878.8</ele>
        <time>2021-08-05 13:13:00</time>
      </trkpt>
      <trkpt lat="37.07177" lon="-3.37758">
        <ele>2879</ele>
        <time>2021-08-05 13:13:01</time>
      </trkpt>
      <trkpt lat="37.07177" lon="-3.37757">
        <ele>2878.8</ele>
        <time>2021-08-05 13:13:02</time>
      </trkpt>
      <trkpt lat="37.07176" lon="-3.37757">
        <ele>2878.8</ele>
        <time>2021-08-05 13:13:03</time>
      </trkpt>
      <trkpt lat="37.07175" lon="-3.37756">
        <ele>2879</ele>
        <time>2021-08-05 13:13:04</time>
      </trkpt>
      <trkpt lat="37.07174" lon="-3.37756">
        <ele>2878.6</ele>
        <time>2021-08-05 13:13:05</time>
      </trkpt>
      <trkpt lat="37.07173" lon="-3.37756">
        <ele>2878.8</ele>
        <time>2021-08-05 13:13:06</time>
      </trkpt>
      <trkpt lat="37.07173" lon="-3.37755">
        <ele>2878.8</ele>
        <time>2021-08-05 13:13:07</time>
      </trkpt>
      <trkpt lat="37.07172" lon="-3.37755">
        <ele>2878.6</ele>
        <time>2021-08-05 13:13:08</time>
      </trkpt>
      <trkpt lat="37.07171" lon="-3.37755">
        <ele>2878.8</ele>
        <time>2021-08-05 13:13:09</time>
      </trkpt>
      <trkpt lat="37.0717" lon="-3.37755">
        <ele>2879</ele>
        <time>2021-08-05 13:13:10</time>
      </trkpt>
      <trkpt lat="37.0717" lon="-3.37754">
        <ele>2879</ele>
        <time>2021-08-05 13:13:11</time>
      </trkpt>
      <trkpt lat="37.07169" lon="-3.37754">
        <ele>2879</ele>
        <time>2021-08-05 13:13:12</time>
      </trkpt>
      <trkpt lat="37.07168" lon="-3.37753">
        <ele>2879</ele>
        <time>2021-08-05 13:13:13</time>
      </trkpt>
      <trkpt lat="37.07168" lon="-3.37753">
        <ele>2879</ele>
        <time>2021-08-05 13:13:14</time>
      </trkpt>
      <trkpt lat="37.07167" lon="-3.37753">
        <ele>2879</ele>
        <time>2021-08-05 13:13:15</time>
      </trkpt>
      <trkpt lat="37.07166" lon="-3.37752">
        <ele>2879</ele>
        <time>2021-08-05 13:13:16</time>
      </trkpt>
      <trkpt lat="37.07166" lon="-3.37752">
        <ele>2879</ele>
        <time>2021-08-05 13:13:17</time>
      </trkpt>
      <trkpt lat="37.07165" lon="-3.37752">
        <ele>2879</ele>
        <time>2021-08-05 13:13:18</time>
      </trkpt>
      <trkpt lat="37.07165" lon="-3.37751">
        <ele>2879.2</ele>
        <time>2021-08-05 13:13:19</time>
      </trkpt>
      <trkpt lat="37.07164" lon="-3.3775">
        <ele>2879.4</ele>
        <time>2021-08-05 13:13:20</time>
      </trkpt>
      <trkpt lat="37.07164" lon="-3.3775">
        <ele>2879.6</ele>
        <time>2021-08-05 13:13:21</time>
      </trkpt>
      <trkpt lat="37.07163" lon="-3.37749">
        <ele>2879.6</ele>
        <time>2021-08-05 13:13:22</time>
      </trkpt>
      <trkpt lat="37.07163" lon="-3.37748">
        <ele>2879.6</ele>
        <time>2021-08-05 13:13:23</time>
      </trkpt>
      <trkpt lat="37.07162" lon="-3.37748">
        <ele>2879.8</ele>
        <time>2021-08-05 13:13:24</time>
      </trkpt>
      <trkpt lat="37.07161" lon="-3.37748">
        <ele>2879.8</ele>
        <time>2021-08-05 13:13:25</time>
      </trkpt>
      <trkpt lat="37.0716" lon="-3.37748">
        <ele>2879.8</ele>
        <time>2021-08-05 13:13:26</time>
      </trkpt>
      <trkpt lat="37.07159" lon="-3.37749">
        <ele>2879.8</ele>
        <time>2021-08-05 13:13:27</time>
      </trkpt>
      <trkpt lat="37.07158" lon="-3.37749">
        <ele>2879.8</ele>
        <time>2021-08-05 13:13:28</time>
      </trkpt>
      <trkpt lat="37.07158" lon="-3.37751">
        <ele>2879.8</ele>
        <time>2021-08-05 13:13:29</time>
      </trkpt>
      <trkpt lat="37.07157" lon="-3.37751">
        <ele>2879.8</ele>
        <time>2021-08-05 13:13:30</time>
      </trkpt>
      <trkpt lat="37.07156" lon="-3.37752">
        <ele>2879.8</ele>
        <time>2021-08-05 13:13:31</time>
      </trkpt>
      <trkpt lat="37.07156" lon="-3.37753">
        <ele>2879.8</ele>
        <time>2021-08-05 13:13:32</time>
      </trkpt>
      <trkpt lat="37.07156" lon="-3.37754">
        <ele>2879.8</ele>
        <time>2021-08-05 13:13:33</time>
      </trkpt>
      <trkpt lat="37.07155" lon="-3.37754">
        <ele>2879.8</ele>
        <time>2021-08-05 13:13:34</time>
      </trkpt>
      <trkpt lat="37.07155" lon="-3.37755">
        <ele>2879.6</ele>
        <time>2021-08-05 13:13:35</time>
      </trkpt>
      <trkpt lat="37.07154" lon="-3.37755">
        <ele>2879.8</ele>
        <time>2021-08-05 13:13:36</time>
      </trkpt>
      <trkpt lat="37.07153" lon="-3.37756">
        <ele>2879.8</ele>
        <time>2021-08-05 13:13:37</time>
      </trkpt>
      <trkpt lat="37.07153" lon="-3.37756">
        <ele>2879.8</ele>
        <time>2021-08-05 13:13:38</time>
      </trkpt>
      <trkpt lat="37.07152" lon="-3.37757">
        <ele>2879.8</ele>
        <time>2021-08-05 13:13:39</time>
      </trkpt>
      <trkpt lat="37.07151" lon="-3.37757">
        <ele>2880</ele>
        <time>2021-08-05 13:13:40</time>
      </trkpt>
      <trkpt lat="37.07151" lon="-3.37758">
        <ele>2880</ele>
        <time>2021-08-05 13:13:41</time>
      </trkpt>
      <trkpt lat="37.0715" lon="-3.37758">
        <ele>2879.8</ele>
        <time>2021-08-05 13:13:42</time>
      </trkpt>
      <trkpt lat="37.07149" lon="-3.37759">
        <ele>2880</ele>
        <time>2021-08-05 13:13:43</time>
      </trkpt>
      <trkpt lat="37.07149" lon="-3.37759">
        <ele>2879.8</ele>
        <time>2021-08-05 13:13:44</time>
      </trkpt>
      <trkpt lat="37.07148" lon="-3.37759">
        <ele>2879.6</ele>
        <time>2021-08-05 13:13:45</time>
      </trkpt>
      <trkpt lat="37.07147" lon="-3.37759">
        <ele>2879.6</ele>
        <time>2021-08-05 13:13:46</time>
      </trkpt>
      <trkpt lat="37.07146" lon="-3.37759">
        <ele>2879.8</ele>
        <time>2021-08-05 13:13:47</time>
      </trkpt>
      <trkpt lat="37.07145" lon="-3.37759">
        <ele>2880</ele>
        <time>2021-08-05 13:13:48</time>
      </trkpt>
      <trkpt lat="37.07144" lon="-3.37759">
        <ele>2880</ele>
        <time>2021-08-05 13:13:49</time>
      </trkpt>
      <trkpt lat="37.07144" lon="-3.37759">
        <ele>2879.8</ele>
        <time>2021-08-05 13:13:50</time>
      </trkpt>
      <trkpt lat="37.07143" lon="-3.37759">
        <ele>2880</ele>
        <time>2021-08-05 13:13:51</time>
      </trkpt>
      <trkpt lat="37.07143" lon="-3.3776">
        <ele>2879.8</ele>
        <time>2021-08-05 13:13:52</time>
      </trkpt>
      <trkpt lat="37.07143" lon="-3.3776">
        <ele>2879.8</ele>
        <time>2021-08-05 13:13:53</time>
      </trkpt>
      <trkpt lat="37.07143" lon="-3.37761">
        <ele>2879.6</ele>
        <time>2021-08-05 13:13:54</time>
      </trkpt>
      <trkpt lat="37.07142" lon="-3.37761">
        <ele>2879.6</ele>
        <time>2021-08-05 13:13:55</time>
      </trkpt>
      <trkpt lat="37.07142" lon="-3.37761">
        <ele>2879.6</ele>
        <time>2021-08-05 13:13:56</time>
      </trkpt>
      <trkpt lat="37.07142" lon="-3.37761">
        <ele>2879.6</ele>
        <time>2021-08-05 13:13:57</time>
      </trkpt>
      <trkpt lat="37.07113" lon="-3.37696">
        <ele>2880.4</ele>
        <time>2021-08-05 13:13:58</time>
      </trkpt>
      <trkpt lat="37.07113" lon="-3.37695">
        <ele>2880.4</ele>
        <time>2021-08-05 13:43:47</time>
      </trkpt>
      <trkpt lat="37.07112" lon="-3.37694">
        <ele>2880.4</ele>
        <time>2021-08-05 13:43:48</time>
      </trkpt>
      <trkpt lat="37.07112" lon="-3.37694">
        <ele>2882.2</ele>
        <time>2021-08-05 13:43:49</time>
      </trkpt>
      <trkpt lat="37.07111" lon="-3.37694">
        <ele>2883.6</ele>
        <time>2021-08-05 13:43:50</time>
      </trkpt>
      <trkpt lat="37.07111" lon="-3.37693">
        <ele>2884.4</ele>
        <time>2021-08-05 13:43:51</time>
      </trkpt>
      <trkpt lat="37.07109" lon="-3.37692">
        <ele>2884.8</ele>
        <time>2021-08-05 13:43:52</time>
      </trkpt>
      <trkpt lat="37.07108" lon="-3.37692">
        <ele>2884.8</ele>
        <time>2021-08-05 13:43:53</time>
      </trkpt>
      <trkpt lat="37.07108" lon="-3.37692">
        <ele>2885.2</ele>
        <time>2021-08-05 13:43:54</time>
      </trkpt>
      <trkpt lat="37.07107" lon="-3.37691">
        <ele>2885.4</ele>
        <time>2021-08-05 13:43:55</time>
      </trkpt>
      <trkpt lat="37.07105" lon="-3.37691">
        <ele>2885.4</ele>
        <time>2021-08-05 13:43:56</time>
      </trkpt>
      <trkpt lat="37.07104" lon="-3.3769">
        <ele>2885.4</ele>
        <time>2021-08-05 13:43:57</time>
      </trkpt>
      <trkpt lat="37.07104" lon="-3.3769">
        <ele>2885.8</ele>
        <time>2021-08-05 13:43:58</time>
      </trkpt>
      <trkpt lat="37.07103" lon="-3.3769">
        <ele>2886</ele>
        <time>2021-08-05 13:43:59</time>
      </trkpt>
      <trkpt lat="37.07103" lon="-3.3769">
        <ele>2886</ele>
        <time>2021-08-05 13:44:00</time>
      </trkpt>
      <trkpt lat="37.07102" lon="-3.37689">
        <ele>2886.2</ele>
        <time>2021-08-05 13:44:01</time>
      </trkpt>
      <trkpt lat="37.07101" lon="-3.37689">
        <ele>2886.2</ele>
        <time>2021-08-05 13:44:02</time>
      </trkpt>
      <trkpt lat="37.07101" lon="-3.37689">
        <ele>2886.4</ele>
        <time>2021-08-05 13:44:03</time>
      </trkpt>
      <trkpt lat="37.071" lon="-3.37689">
        <ele>2886.4</ele>
        <time>2021-08-05 13:44:04</time>
      </trkpt>
      <trkpt lat="37.071" lon="-3.37689">
        <ele>2886.6</ele>
        <time>2021-08-05 13:44:05</time>
      </trkpt>
      <trkpt lat="37.07099" lon="-3.37688">
        <ele>2886.8</ele>
        <time>2021-08-05 13:44:06</time>
      </trkpt>
      <trkpt lat="37.07098" lon="-3.37688">
        <ele>2886.8</ele>
        <time>2021-08-05 13:44:07</time>
      </trkpt>
      <trkpt lat="37.07098" lon="-3.37687">
        <ele>2886.8</ele>
        <time>2021-08-05 13:44:08</time>
      </trkpt>
      <trkpt lat="37.07097" lon="-3.37687">
        <ele>2886.8</ele>
        <time>2021-08-05 13:44:09</time>
      </trkpt>
      <trkpt lat="37.07097" lon="-3.37686">
        <ele>2886.8</ele>
        <time>2021-08-05 13:44:10</time>
      </trkpt>
      <trkpt lat="37.07096" lon="-3.37685">
        <ele>2886.8</ele>
        <time>2021-08-05 13:44:11</time>
      </trkpt>
      <trkpt lat="37.07095" lon="-3.37684">
        <ele>2886.8</ele>
        <time>2021-08-05 13:44:12</time>
      </trkpt>
      <trkpt lat="37.07094" lon="-3.37683">
        <ele>2887</ele>
        <time>2021-08-05 13:44:13</time>
      </trkpt>
      <trkpt lat="37.07093" lon="-3.37682">
        <ele>2887</ele>
        <time>2021-08-05 13:44:14</time>
      </trkpt>
      <trkpt lat="37.07093" lon="-3.37682">
        <ele>2887</ele>
        <time>2021-08-05 13:44:15</time>
      </trkpt>
      <trkpt lat="37.07092" lon="-3.3768">
        <ele>2887</ele>
        <time>2021-08-05 13:44:16</time>
      </trkpt>
      <trkpt lat="37.07091" lon="-3.37679">
        <ele>2887.2</ele>
        <time>2021-08-05 13:44:17</time>
      </trkpt>
      <trkpt lat="37.0709" lon="-3.37678">
        <ele>2887.4</ele>
        <time>2021-08-05 13:44:18</time>
      </trkpt>
      <trkpt lat="37.0709" lon="-3.37677">
        <ele>2887.6</ele>
        <time>2021-08-05 13:44:19</time>
      </trkpt>
      <trkpt lat="37.0709" lon="-3.37676">
        <ele>2887.6</ele>
        <time>2021-08-05 13:44:20</time>
      </trkpt>
      <trkpt lat="37.07089" lon="-3.37675">
        <ele>2887.8</ele>
        <time>2021-08-05 13:44:21</time>
      </trkpt>
      <trkpt lat="37.07089" lon="-3.37673">
        <ele>2887.8</ele>
        <time>2021-08-05 13:44:22</time>
      </trkpt>
      <trkpt lat="37.07089" lon="-3.37672">
        <ele>2888</ele>
        <time>2021-08-05 13:44:23</time>
      </trkpt>
      <trkpt lat="37.07088" lon="-3.37671">
        <ele>2888</ele>
        <time>2021-08-05 13:44:24</time>
      </trkpt>
      <trkpt lat="37.07088" lon="-3.3767">
        <ele>2888.2</ele>
        <time>2021-08-05 13:44:25</time>
      </trkpt>
      <trkpt lat="37.07087" lon="-3.37669">
        <ele>2888.6</ele>
        <time>2021-08-05 13:44:26</time>
      </trkpt>
      <trkpt lat="37.07086" lon="-3.37668">
        <ele>2888.8</ele>
        <time>2021-08-05 13:44:27</time>
      </trkpt>
      <trkpt lat="37.07086" lon="-3.37666">
        <ele>2889</ele>
        <time>2021-08-05 13:44:28</time>
      </trkpt>
      <trkpt lat="37.07085" lon="-3.37665">
        <ele>2889</ele>
        <time>2021-08-05 13:44:29</time>
      </trkpt>
      <trkpt lat="37.07085" lon="-3.37665">
        <ele>2889</ele>
        <time>2021-08-05 13:44:30</time>
      </trkpt>
      <trkpt lat="37.07084" lon="-3.37663">
        <ele>2889.2</ele>
        <time>2021-08-05 13:44:31</time>
      </trkpt>
      <trkpt lat="37.07084" lon="-3.37662">
        <ele>2889.2</ele>
        <time>2021-08-05 13:44:32</time>
      </trkpt>
      <trkpt lat="37.07084" lon="-3.37661">
        <ele>2889.2</ele>
        <time>2021-08-05 13:44:33</time>
      </trkpt>
      <trkpt lat="37.07084" lon="-3.3766">
        <ele>2889.2</ele>
        <time>2021-08-05 13:44:34</time>
      </trkpt>
      <trkpt lat="37.07085" lon="-3.37659">
        <ele>2889.2</ele>
        <time>2021-08-05 13:44:35</time>
      </trkpt>
      <trkpt lat="37.07085" lon="-3.37658">
        <ele>2889.2</ele>
        <time>2021-08-05 13:44:36</time>
      </trkpt>
      <trkpt lat="37.07084" lon="-3.37658">
        <ele>2889.4</ele>
        <time>2021-08-05 13:44:37</time>
      </trkpt>
      <trkpt lat="37.07084" lon="-3.37658">
        <ele>2889.4</ele>
        <time>2021-08-05 13:44:38</time>
      </trkpt>
      <trkpt lat="37.07083" lon="-3.37657">
        <ele>2889.6</ele>
        <time>2021-08-05 13:44:39</time>
      </trkpt>
      <trkpt lat="37.07082" lon="-3.37656">
        <ele>2889.8</ele>
        <time>2021-08-05 13:44:40</time>
      </trkpt>
      <trkpt lat="37.07082" lon="-3.37656">
        <ele>2889.8</ele>
        <time>2021-08-05 13:44:41</time>
      </trkpt>
      <trkpt lat="37.07082" lon="-3.37656">
        <ele>2889.8</ele>
        <time>2021-08-05 13:44:42</time>
      </trkpt>
      <trkpt lat="37.07081" lon="-3.37656">
        <ele>2889.8</ele>
        <time>2021-08-05 13:44:43</time>
      </trkpt>
      <trkpt lat="37.0708" lon="-3.37656">
        <ele>2890</ele>
        <time>2021-08-05 13:44:44</time>
      </trkpt>
      <trkpt lat="37.07079" lon="-3.37656">
        <ele>2890</ele>
        <time>2021-08-05 13:44:45</time>
      </trkpt>
      <trkpt lat="37.07079" lon="-3.37656">
        <ele>2890</ele>
        <time>2021-08-05 13:44:46</time>
      </trkpt>
      <trkpt lat="37.07078" lon="-3.37656">
        <ele>2890</ele>
        <time>2021-08-05 13:44:47</time>
      </trkpt>
      <trkpt lat="37.07077" lon="-3.37656">
        <ele>2890</ele>
        <time>2021-08-05 13:44:48</time>
      </trkpt>
      <trkpt lat="37.07078" lon="-3.37653">
        <ele>2890</ele>
        <time>2021-08-05 13:44:49</time>
      </trkpt>
      <trkpt lat="37.07078" lon="-3.37653">
        <ele>2890</ele>
        <time>2021-08-05 13:44:50</time>
      </trkpt>
      <trkpt lat="37.07078" lon="-3.37652">
        <ele>2890</ele>
        <time>2021-08-05 13:44:51</time>
      </trkpt>
      <trkpt lat="37.07077" lon="-3.37652">
        <ele>2890.2</ele>
        <time>2021-08-05 13:44:52</time>
      </trkpt>
      <trkpt lat="37.07077" lon="-3.37652">
        <ele>2890.2</ele>
        <time>2021-08-05 13:44:53</time>
      </trkpt>
      <trkpt lat="37.07076" lon="-3.37651">
        <ele>2890.4</ele>
        <time>2021-08-05 13:44:54</time>
      </trkpt>
      <trkpt lat="37.07075" lon="-3.37652">
        <ele>2890.4</ele>
        <time>2021-08-05 13:44:55</time>
      </trkpt>
      <trkpt lat="37.07075" lon="-3.37652">
        <ele>2890.6</ele>
        <time>2021-08-05 13:44:56</time>
      </trkpt>
      <trkpt lat="37.07075" lon="-3.37652">
        <ele>2890.8</ele>
        <time>2021-08-05 13:44:57</time>
      </trkpt>
      <trkpt lat="37.07075" lon="-3.37652">
        <ele>2890.8</ele>
        <time>2021-08-05 13:44:58</time>
      </trkpt>
      <trkpt lat="37.07074" lon="-3.37653">
        <ele>2890.8</ele>
        <time>2021-08-05 13:44:59</time>
      </trkpt>
      <trkpt lat="37.07073" lon="-3.37652">
        <ele>2890.8</ele>
        <time>2021-08-05 13:45:00</time>
      </trkpt>
      <trkpt lat="37.07072" lon="-3.37651">
        <ele>2891</ele>
        <time>2021-08-05 13:45:01</time>
      </trkpt>
      <trkpt lat="37.07071" lon="-3.37651">
        <ele>2891.2</ele>
        <time>2021-08-05 13:45:02</time>
      </trkpt>
      <trkpt lat="37.0707" lon="-3.3765">
        <ele>2891.2</ele>
        <time>2021-08-05 13:45:03</time>
      </trkpt>
      <trkpt lat="37.07069" lon="-3.3765">
        <ele>2891.4</ele>
        <time>2021-08-05 13:45:04</time>
      </trkpt>
      <trkpt lat="37.07068" lon="-3.3765">
        <ele>2891.4</ele>
        <time>2021-08-05 13:45:05</time>
      </trkpt>
      <trkpt lat="37.07068" lon="-3.3765">
        <ele>2891.4</ele>
        <time>2021-08-05 13:45:06</time>
      </trkpt>
      <trkpt lat="37.07067" lon="-3.3765">
        <ele>2891.6</ele>
        <time>2021-08-05 13:45:07</time>
      </trkpt>
      <trkpt lat="37.07066" lon="-3.37649">
        <ele>2891.6</ele>
        <time>2021-08-05 13:45:08</time>
      </trkpt>
      <trkpt lat="37.07066" lon="-3.37648">
        <ele>2891.8</ele>
        <time>2021-08-05 13:45:09</time>
      </trkpt>
      <trkpt lat="37.07068" lon="-3.37648">
        <ele>2891.8</ele>
        <time>2021-08-05 13:45:10</time>
      </trkpt>
      <trkpt lat="37.07067" lon="-3.37648">
        <ele>2891.8</ele>
        <time>2021-08-05 13:45:11</time>
      </trkpt>
      <trkpt lat="37.07067" lon="-3.37647">
        <ele>2891.8</ele>
        <time>2021-08-05 13:45:12</time>
      </trkpt>
      <trkpt lat="37.07066" lon="-3.37646">
        <ele>2891.8</ele>
        <time>2021-08-05 13:45:13</time>
      </trkpt>
      <trkpt lat="37.07066" lon="-3.37645">
        <ele>2892.2</ele>
        <time>2021-08-05 13:45:14</time>
      </trkpt>
      <trkpt lat="37.07065" lon="-3.37645">
        <ele>2892.4</ele>
        <time>2021-08-05 13:45:15</time>
      </trkpt>
      <trkpt lat="37.07065" lon="-3.37645">
        <ele>2892.4</ele>
        <time>2021-08-05 13:45:16</time>
      </trkpt>
      <trkpt lat="37.07064" lon="-3.37644">
        <ele>2892.4</ele>
        <time>2021-08-05 13:45:17</time>
      </trkpt>
      <trkpt lat="37.07064" lon="-3.37643">
        <ele>2892.6</ele>
        <time>2021-08-05 13:45:18</time>
      </trkpt>
      <trkpt lat="37.07063" lon="-3.37644">
        <ele>2892.6</ele>
        <time>2021-08-05 13:45:19</time>
      </trkpt>
      <trkpt lat="37.07062" lon="-3.37644">
        <ele>2892.6</ele>
        <time>2021-08-05 13:45:20</time>
      </trkpt>
      <trkpt lat="37.07062" lon="-3.37644">
        <ele>2892.6</ele>
        <time>2021-08-05 13:45:21</time>
      </trkpt>
      <trkpt lat="37.07061" lon="-3.37644">
        <ele>2892.8</ele>
        <time>2021-08-05 13:45:22</time>
      </trkpt>
      <trkpt lat="37.07061" lon="-3.37644">
        <ele>2892.8</ele>
        <time>2021-08-05 13:45:23</time>
      </trkpt>
      <trkpt lat="37.07061" lon="-3.37645">
        <ele>2892.8</ele>
        <time>2021-08-05 13:45:24</time>
      </trkpt>
      <trkpt lat="37.07061" lon="-3.37645">
        <ele>2893</ele>
        <time>2021-08-05 13:45:25</time>
      </trkpt>
      <trkpt lat="37.0706" lon="-3.37645">
        <ele>2893.2</ele>
        <time>2021-08-05 13:45:26</time>
      </trkpt>
      <trkpt lat="37.0706" lon="-3.37645">
        <ele>2893.4</ele>
        <time>2021-08-05 13:45:27</time>
      </trkpt>
      <trkpt lat="37.0706" lon="-3.37645">
        <ele>2893.6</ele>
        <time>2021-08-05 13:45:28</time>
      </trkpt>
      <trkpt lat="37.0706" lon="-3.37645">
        <ele>2893.8</ele>
        <time>2021-08-05 13:45:29</time>
      </trkpt>
      <trkpt lat="37.07059" lon="-3.37645">
        <ele>2894</ele>
        <time>2021-08-05 13:45:30</time>
      </trkpt>
      <trkpt lat="37.07058" lon="-3.37645">
        <ele>2894</ele>
        <time>2021-08-05 13:45:31</time>
      </trkpt>
      <trkpt lat="37.07057" lon="-3.37645">
        <ele>2894.2</ele>
        <time>2021-08-05 13:45:32</time>
      </trkpt>
      <trkpt lat="37.07057" lon="-3.37645">
        <ele>2894.2</ele>
        <time>2021-08-05 13:45:33</time>
      </trkpt>
      <trkpt lat="37.07056" lon="-3.37645">
        <ele>2894.2</ele>
        <time>2021-08-05 13:45:34</time>
      </trkpt>
      <trkpt lat="37.07056" lon="-3.37644">
        <ele>2894.4</ele>
        <time>2021-08-05 13:45:35</time>
      </trkpt>
      <trkpt lat="37.07056" lon="-3.37643">
        <ele>2894.6</ele>
        <time>2021-08-05 13:45:36</time>
      </trkpt>
      <trkpt lat="37.07055" lon="-3.37643">
        <ele>2894.6</ele>
        <time>2021-08-05 13:45:37</time>
      </trkpt>
      <trkpt lat="37.07055" lon="-3.37643">
        <ele>2894.8</ele>
        <time>2021-08-05 13:45:38</time>
      </trkpt>
      <trkpt lat="37.07054" lon="-3.37643">
        <ele>2895</ele>
        <time>2021-08-05 13:45:39</time>
      </trkpt>
      <trkpt lat="37.07054" lon="-3.37643">
        <ele>2895.2</ele>
        <time>2021-08-05 13:45:40</time>
      </trkpt>
      <trkpt lat="37.07054" lon="-3.37643">
        <ele>2895.2</ele>
        <time>2021-08-05 13:45:41</time>
      </trkpt>
      <trkpt lat="37.07054" lon="-3.37644">
        <ele>2895.2</ele>
        <time>2021-08-05 13:45:42</time>
      </trkpt>
      <trkpt lat="37.07053" lon="-3.37644">
        <ele>2895.2</ele>
        <time>2021-08-05 13:45:43</time>
      </trkpt>
      <trkpt lat="37.07053" lon="-3.37644">
        <ele>2895.4</ele>
        <time>2021-08-05 13:45:44</time>
      </trkpt>
      <trkpt lat="37.07053" lon="-3.37644">
        <ele>2895.6</ele>
        <time>2021-08-05 13:45:45</time>
      </trkpt>
      <trkpt lat="37.07053" lon="-3.37644">
        <ele>2895.6</ele>
        <time>2021-08-05 13:45:46</time>
      </trkpt>
      <trkpt lat="37.07052" lon="-3.37645">
        <ele>2895.6</ele>
        <time>2021-08-05 13:45:47</time>
      </trkpt>
      <trkpt lat="37.07051" lon="-3.37645">
        <ele>2895.8</ele>
        <time>2021-08-05 13:45:48</time>
      </trkpt>
      <trkpt lat="37.0705" lon="-3.37645">
        <ele>2896</ele>
        <time>2021-08-05 13:45:49</time>
      </trkpt>
      <trkpt lat="37.0705" lon="-3.37646">
        <ele>2896.2</ele>
        <time>2021-08-05 13:45:50</time>
      </trkpt>
      <trkpt lat="37.0705" lon="-3.37646">
        <ele>2896.4</ele>
        <time>2021-08-05 13:45:51</time>
      </trkpt>
      <trkpt lat="37.07049" lon="-3.37646">
        <ele>2896.4</ele>
        <time>2021-08-05 13:45:52</time>
      </trkpt>
      <trkpt lat="37.07049" lon="-3.37647">
        <ele>2896.4</ele>
        <time>2021-08-05 13:45:53</time>
      </trkpt>
      <trkpt lat="37.07049" lon="-3.37647">
        <ele>2896.4</ele>
        <time>2021-08-05 13:45:54</time>
      </trkpt>
      <trkpt lat="37.07048" lon="-3.37648">
        <ele>2896.6</ele>
        <time>2021-08-05 13:45:55</time>
      </trkpt>
      <trkpt lat="37.07048" lon="-3.37649">
        <ele>2896.8</ele>
        <time>2021-08-05 13:45:56</time>
      </trkpt>
      <trkpt lat="37.07048" lon="-3.3765">
        <ele>2896.8</ele>
        <time>2021-08-05 13:45:57</time>
      </trkpt>
      <trkpt lat="37.07048" lon="-3.3765">
        <ele>2897.2</ele>
        <time>2021-08-05 13:45:58</time>
      </trkpt>
      <trkpt lat="37.07048" lon="-3.3765">
        <ele>2897.4</ele>
        <time>2021-08-05 13:45:59</time>
      </trkpt>
      <trkpt lat="37.07049" lon="-3.3765">
        <ele>2897.4</ele>
        <time>2021-08-05 13:46:00</time>
      </trkpt>
      <trkpt lat="37.07049" lon="-3.37647">
        <ele>2897.6</ele>
        <time>2021-08-05 13:46:01</time>
      </trkpt>
      <trkpt lat="37.07049" lon="-3.37645">
        <ele>2897.6</ele>
        <time>2021-08-05 13:46:02</time>
      </trkpt>
      <trkpt lat="37.07049" lon="-3.37645">
        <ele>2897.6</ele>
        <time>2021-08-05 13:46:03</time>
      </trkpt>
      <trkpt lat="37.07048" lon="-3.37646">
        <ele>2897.8</ele>
        <time>2021-08-05 13:46:04</time>
      </trkpt>
      <trkpt lat="37.07046" lon="-3.37648">
        <ele>2897.8</ele>
        <time>2021-08-05 13:46:05</time>
      </trkpt>
      <trkpt lat="37.07046" lon="-3.37648">
        <ele>2898</ele>
        <time>2021-08-05 13:46:06</time>
      </trkpt>
      <trkpt lat="37.07045" lon="-3.37649">
        <ele>2898</ele>
        <time>2021-08-05 13:46:07</time>
      </trkpt>
      <trkpt lat="37.07044" lon="-3.3765">
        <ele>2898.2</ele>
        <time>2021-08-05 13:46:08</time>
      </trkpt>
      <trkpt lat="37.07044" lon="-3.3765">
        <ele>2898.2</ele>
        <time>2021-08-05 13:46:09</time>
      </trkpt>
      <trkpt lat="37.07044" lon="-3.3765">
        <ele>2898.2</ele>
        <time>2021-08-05 13:46:10</time>
      </trkpt>
      <trkpt lat="37.07044" lon="-3.37649">
        <ele>2898.4</ele>
        <time>2021-08-05 13:46:11</time>
      </trkpt>
      <trkpt lat="37.07044" lon="-3.37649">
        <ele>2898.6</ele>
        <time>2021-08-05 13:46:12</time>
      </trkpt>
      <trkpt lat="37.07044" lon="-3.37649">
        <ele>2898.6</ele>
        <time>2021-08-05 13:46:13</time>
      </trkpt>
      <trkpt lat="37.07044" lon="-3.37649">
        <ele>2898.6</ele>
        <time>2021-08-05 13:46:14</time>
      </trkpt>
      <trkpt lat="37.07043" lon="-3.37649">
        <ele>2898.8</ele>
        <time>2021-08-05 13:46:15</time>
      </trkpt>
      <trkpt lat="37.07042" lon="-3.37649">
        <ele>2898.8</ele>
        <time>2021-08-05 13:46:16</time>
      </trkpt>
      <trkpt lat="37.07042" lon="-3.3765">
        <ele>2899</ele>
        <time>2021-08-05 13:46:17</time>
      </trkpt>
      <trkpt lat="37.07042" lon="-3.3765">
        <ele>2899.2</ele>
        <time>2021-08-05 13:46:18</time>
      </trkpt>
      <trkpt lat="37.07041" lon="-3.3765">
        <ele>2899.2</ele>
        <time>2021-08-05 13:46:19</time>
      </trkpt>
      <trkpt lat="37.07041" lon="-3.37651">
        <ele>2899.2</ele>
        <time>2021-08-05 13:46:20</time>
      </trkpt>
      <trkpt lat="37.07041" lon="-3.37652">
        <ele>2899.2</ele>
        <time>2021-08-05 13:46:21</time>
      </trkpt>
      <trkpt lat="37.0704" lon="-3.37651">
        <ele>2899.2</ele>
        <time>2021-08-05 13:46:22</time>
      </trkpt>
      <trkpt lat="37.0704" lon="-3.37651">
        <ele>2899.2</ele>
        <time>2021-08-05 13:46:23</time>
      </trkpt>
      <trkpt lat="37.0704" lon="-3.37651">
        <ele>2899.2</ele>
        <time>2021-08-05 13:46:24</time>
      </trkpt>
      <trkpt lat="37.07039" lon="-3.37651">
        <ele>2899.2</ele>
        <time>2021-08-05 13:46:25</time>
      </trkpt>
      <trkpt lat="37.07039" lon="-3.37651">
        <ele>2899.2</ele>
        <time>2021-08-05 13:46:26</time>
      </trkpt>
      <trkpt lat="37.07039" lon="-3.3765">
        <ele>2899.6</ele>
        <time>2021-08-05 13:46:27</time>
      </trkpt>
      <trkpt lat="37.07038" lon="-3.37649">
        <ele>2899.8</ele>
        <time>2021-08-05 13:46:28</time>
      </trkpt>
      <trkpt lat="37.07038" lon="-3.37649">
        <ele>2899.8</ele>
        <time>2021-08-05 13:46:29</time>
      </trkpt>
      <trkpt lat="37.07038" lon="-3.37649">
        <ele>2899.8</ele>
        <time>2021-08-05 13:46:30</time>
      </trkpt>
      <trkpt lat="37.07038" lon="-3.37648">
        <ele>2899.8</ele>
        <time>2021-08-05 13:46:31</time>
      </trkpt>
      <trkpt lat="37.07038" lon="-3.37647">
        <ele>2900</ele>
        <time>2021-08-05 13:46:32</time>
      </trkpt>
      <trkpt lat="37.07038" lon="-3.37646">
        <ele>2900.2</ele>
        <time>2021-08-05 13:46:33</time>
      </trkpt>
      <trkpt lat="37.07038" lon="-3.37645">
        <ele>2900.2</ele>
        <time>2021-08-05 13:46:34</time>
      </trkpt>
      <trkpt lat="37.07037" lon="-3.37645">
        <ele>2900.2</ele>
        <time>2021-08-05 13:46:35</time>
      </trkpt>
      <trkpt lat="37.07037" lon="-3.37644">
        <ele>2900.4</ele>
        <time>2021-08-05 13:46:36</time>
      </trkpt>
      <trkpt lat="37.07037" lon="-3.37644">
        <ele>2900.6</ele>
        <time>2021-08-05 13:46:37</time>
      </trkpt>
      <trkpt lat="37.07036" lon="-3.37644">
        <ele>2900.8</ele>
        <time>2021-08-05 13:46:38</time>
      </trkpt>
      <trkpt lat="37.07036" lon="-3.37644">
        <ele>2901</ele>
        <time>2021-08-05 13:46:39</time>
      </trkpt>
      <trkpt lat="37.07036" lon="-3.37644">
        <ele>2900.8</ele>
        <time>2021-08-05 13:46:40</time>
      </trkpt>
      <trkpt lat="37.07036" lon="-3.37643">
        <ele>2901</ele>
        <time>2021-08-05 13:46:41</time>
      </trkpt>
      <trkpt lat="37.07036" lon="-3.37644">
        <ele>2901</ele>
        <time>2021-08-05 13:46:42</time>
      </trkpt>
      <trkpt lat="37.07036" lon="-3.37644">
        <ele>2901</ele>
        <time>2021-08-05 13:46:43</time>
      </trkpt>
      <trkpt lat="37.07035" lon="-3.37644">
        <ele>2901</ele>
        <time>2021-08-05 13:46:44</time>
      </trkpt>
      <trkpt lat="37.07035" lon="-3.37644">
        <ele>2901</ele>
        <time>2021-08-05 13:46:45</time>
      </trkpt>
      <trkpt lat="37.07034" lon="-3.37644">
        <ele>2901</ele>
        <time>2021-08-05 13:46:46</time>
      </trkpt>
      <trkpt lat="37.07033" lon="-3.37645">
        <ele>2901.2</ele>
        <time>2021-08-05 13:46:47</time>
      </trkpt>
      <trkpt lat="37.07032" lon="-3.37645">
        <ele>2901.4</ele>
        <time>2021-08-05 13:46:48</time>
      </trkpt>
      <trkpt lat="37.07031" lon="-3.37646">
        <ele>2901.6</ele>
        <time>2021-08-05 13:46:49</time>
      </trkpt>
      <trkpt lat="37.07031" lon="-3.37645">
        <ele>2901.4</ele>
        <time>2021-08-05 13:46:50</time>
      </trkpt>
      <trkpt lat="37.07031" lon="-3.37645">
        <ele>2901.6</ele>
        <time>2021-08-05 13:46:51</time>
      </trkpt>
      <trkpt lat="37.07031" lon="-3.37645">
        <ele>2901.6</ele>
        <time>2021-08-05 13:46:52</time>
      </trkpt>
      <trkpt lat="37.07031" lon="-3.37645">
        <ele>2901.6</ele>
        <time>2021-08-05 13:46:53</time>
      </trkpt>
      <trkpt lat="37.07031" lon="-3.37645">
        <ele>2901.8</ele>
        <time>2021-08-05 13:46:54</time>
      </trkpt>
      <trkpt lat="37.0703" lon="-3.37645">
        <ele>2901.8</ele>
        <time>2021-08-05 13:46:55</time>
      </trkpt>
      <trkpt lat="37.07029" lon="-3.37644">
        <ele>2901.8</ele>
        <time>2021-08-05 13:46:56</time>
      </trkpt>
      <trkpt lat="37.07028" lon="-3.37645">
        <ele>2901.8</ele>
        <time>2021-08-05 13:46:57</time>
      </trkpt>
      <trkpt lat="37.07028" lon="-3.37644">
        <ele>2901.8</ele>
        <time>2021-08-05 13:46:58</time>
      </trkpt>
      <trkpt lat="37.07027" lon="-3.37643">
        <ele>2902</ele>
        <time>2021-08-05 13:46:59</time>
      </trkpt>
      <trkpt lat="37.07027" lon="-3.37642">
        <ele>2902.2</ele>
        <time>2021-08-05 13:47:00</time>
      </trkpt>
      <trkpt lat="37.07027" lon="-3.37642">
        <ele>2902.4</ele>
        <time>2021-08-05 13:47:01</time>
      </trkpt>
      <trkpt lat="37.07027" lon="-3.37641">
        <ele>2902.4</ele>
        <time>2021-08-05 13:47:02</time>
      </trkpt>
      <trkpt lat="37.07023" lon="-3.37645">
        <ele>2902.4</ele>
        <time>2021-08-05 13:47:03</time>
      </trkpt>
      <trkpt lat="37.07023" lon="-3.37645">
        <ele>2902.4</ele>
        <time>2021-08-05 13:47:04</time>
      </trkpt>
      <trkpt lat="37.07024" lon="-3.37644">
        <ele>2902.4</ele>
        <time>2021-08-05 13:47:05</time>
      </trkpt>
      <trkpt lat="37.07024" lon="-3.37643">
        <ele>2902.6</ele>
        <time>2021-08-05 13:47:06</time>
      </trkpt>
      <trkpt lat="37.07024" lon="-3.37642">
        <ele>2902.8</ele>
        <time>2021-08-05 13:47:07</time>
      </trkpt>
      <trkpt lat="37.07025" lon="-3.3764">
        <ele>2903</ele>
        <time>2021-08-05 13:47:08</time>
      </trkpt>
      <trkpt lat="37.07025" lon="-3.37637">
        <ele>2903.2</ele>
        <time>2021-08-05 13:47:09</time>
      </trkpt>
      <trkpt lat="37.07026" lon="-3.37635">
        <ele>2903.4</ele>
        <time>2021-08-05 13:47:10</time>
      </trkpt>
      <trkpt lat="37.07026" lon="-3.37634">
        <ele>2903.4</ele>
        <time>2021-08-05 13:47:11</time>
      </trkpt>
      <trkpt lat="37.07025" lon="-3.37633">
        <ele>2903.4</ele>
        <time>2021-08-05 13:47:12</time>
      </trkpt>
      <trkpt lat="37.07025" lon="-3.37633">
        <ele>2903.4</ele>
        <time>2021-08-05 13:47:13</time>
      </trkpt>
      <trkpt lat="37.07024" lon="-3.37633">
        <ele>2903.4</ele>
        <time>2021-08-05 13:47:14</time>
      </trkpt>
      <trkpt lat="37.07024" lon="-3.37632">
        <ele>2903.2</ele>
        <time>2021-08-05 13:47:15</time>
      </trkpt>
      <trkpt lat="37.07024" lon="-3.37631">
        <ele>2903</ele>
        <time>2021-08-05 13:47:16</time>
      </trkpt>
      <trkpt lat="37.07023" lon="-3.37629">
        <ele>2903</ele>
        <time>2021-08-05 13:47:17</time>
      </trkpt>
      <trkpt lat="37.07023" lon="-3.37628">
        <ele>2903</ele>
        <time>2021-08-05 13:47:18</time>
      </trkpt>
      <trkpt lat="37.07023" lon="-3.37627">
        <ele>2903</ele>
        <time>2021-08-05 13:47:19</time>
      </trkpt>
      <trkpt lat="37.07023" lon="-3.37627">
        <ele>2902.8</ele>
        <time>2021-08-05 13:47:20</time>
      </trkpt>
      <trkpt lat="37.07022" lon="-3.37627">
        <ele>2902.8</ele>
        <time>2021-08-05 13:47:21</time>
      </trkpt>
      <trkpt lat="37.07021" lon="-3.37628">
        <ele>2902.8</ele>
        <time>2021-08-05 13:47:22</time>
      </trkpt>
      <trkpt lat="37.07021" lon="-3.37628">
        <ele>2903.2</ele>
        <time>2021-08-05 13:47:23</time>
      </trkpt>
      <trkpt lat="37.07021" lon="-3.37626">
        <ele>2903.4</ele>
        <time>2021-08-05 13:47:24</time>
      </trkpt>
      <trkpt lat="37.0702" lon="-3.37627">
        <ele>2903.6</ele>
        <time>2021-08-05 13:47:25</time>
      </trkpt>
      <trkpt lat="37.07019" lon="-3.37628">
        <ele>2903.8</ele>
        <time>2021-08-05 13:47:26</time>
      </trkpt>
      <trkpt lat="37.07018" lon="-3.37629">
        <ele>2904</ele>
        <time>2021-08-05 13:47:27</time>
      </trkpt>
      <trkpt lat="37.07018" lon="-3.37629">
        <ele>2904</ele>
        <time>2021-08-05 13:47:28</time>
      </trkpt>
      <trkpt lat="37.07017" lon="-3.37629">
        <ele>2904</ele>
        <time>2021-08-05 13:47:29</time>
      </trkpt>
      <trkpt lat="37.07017" lon="-3.37629">
        <ele>2904</ele>
        <time>2021-08-05 13:47:30</time>
      </trkpt>
      <trkpt lat="37.07016" lon="-3.37628">
        <ele>2904</ele>
        <time>2021-08-05 13:47:31</time>
      </trkpt>
      <trkpt lat="37.07016" lon="-3.37627">
        <ele>2904</ele>
        <time>2021-08-05 13:47:32</time>
      </trkpt>
      <trkpt lat="37.07016" lon="-3.37626">
        <ele>2904.2</ele>
        <time>2021-08-05 13:47:33</time>
      </trkpt>
      <trkpt lat="37.07016" lon="-3.37625">
        <ele>2904.2</ele>
        <time>2021-08-05 13:47:34</time>
      </trkpt>
      <trkpt lat="37.07016" lon="-3.37623">
        <ele>2904.4</ele>
        <time>2021-08-05 13:47:35</time>
      </trkpt>
      <trkpt lat="37.07015" lon="-3.37623">
        <ele>2904.6</ele>
        <time>2021-08-05 13:47:36</time>
      </trkpt>
      <trkpt lat="37.07014" lon="-3.37623">
        <ele>2904.6</ele>
        <time>2021-08-05 13:47:37</time>
      </trkpt>
      <trkpt lat="37.07014" lon="-3.37624">
        <ele>2904.8</ele>
        <time>2021-08-05 13:47:38</time>
      </trkpt>
      <trkpt lat="37.07013" lon="-3.37623">
        <ele>2904.8</ele>
        <time>2021-08-05 13:47:39</time>
      </trkpt>
      <trkpt lat="37.07013" lon="-3.37623">
        <ele>2905</ele>
        <time>2021-08-05 13:47:40</time>
      </trkpt>
      <trkpt lat="37.07013" lon="-3.37622">
        <ele>2905.2</ele>
        <time>2021-08-05 13:47:41</time>
      </trkpt>
      <trkpt lat="37.07014" lon="-3.37619">
        <ele>2905.2</ele>
        <time>2021-08-05 13:47:42</time>
      </trkpt>
      <trkpt lat="37.07014" lon="-3.37619">
        <ele>2905.4</ele>
        <time>2021-08-05 13:47:43</time>
      </trkpt>
      <trkpt lat="37.07014" lon="-3.37618">
        <ele>2905.4</ele>
        <time>2021-08-05 13:47:44</time>
      </trkpt>
      <trkpt lat="37.07013" lon="-3.37618">
        <ele>2905.4</ele>
        <time>2021-08-05 13:47:45</time>
      </trkpt>
      <trkpt lat="37.07013" lon="-3.37619">
        <ele>2905.4</ele>
        <time>2021-08-05 13:47:46</time>
      </trkpt>
      <trkpt lat="37.07012" lon="-3.3762">
        <ele>2905.4</ele>
        <time>2021-08-05 13:47:47</time>
      </trkpt>
      <trkpt lat="37.07012" lon="-3.3762">
        <ele>2905.6</ele>
        <time>2021-08-05 13:47:48</time>
      </trkpt>
      <trkpt lat="37.07012" lon="-3.3762">
        <ele>2905.6</ele>
        <time>2021-08-05 13:47:49</time>
      </trkpt>
      <trkpt lat="37.07012" lon="-3.37619">
        <ele>2905.6</ele>
        <time>2021-08-05 13:47:50</time>
      </trkpt>
      <trkpt lat="37.07012" lon="-3.37618">
        <ele>2905.8</ele>
        <time>2021-08-05 13:47:51</time>
      </trkpt>
      <trkpt lat="37.07012" lon="-3.37615">
        <ele>2906</ele>
        <time>2021-08-05 13:47:52</time>
      </trkpt>
      <trkpt lat="37.07012" lon="-3.37613">
        <ele>2906</ele>
        <time>2021-08-05 13:47:53</time>
      </trkpt>
      <trkpt lat="37.07012" lon="-3.37612">
        <ele>2906.2</ele>
        <time>2021-08-05 13:47:54</time>
      </trkpt>
      <trkpt lat="37.07012" lon="-3.37612">
        <ele>2906.2</ele>
        <time>2021-08-05 13:47:55</time>
      </trkpt>
      <trkpt lat="37.07011" lon="-3.37613">
        <ele>2906.2</ele>
        <time>2021-08-05 13:47:56</time>
      </trkpt>
      <trkpt lat="37.07011" lon="-3.37613">
        <ele>2906.2</ele>
        <time>2021-08-05 13:47:57</time>
      </trkpt>
      <trkpt lat="37.0701" lon="-3.37613">
        <ele>2906.2</ele>
        <time>2021-08-05 13:47:58</time>
      </trkpt>
      <trkpt lat="37.0701" lon="-3.37612">
        <ele>2906.2</ele>
        <time>2021-08-05 13:47:59</time>
      </trkpt>
      <trkpt lat="37.0701" lon="-3.37611">
        <ele>2906.2</ele>
        <time>2021-08-05 13:48:00</time>
      </trkpt>
      <trkpt lat="37.0701" lon="-3.37611">
        <ele>2906.2</ele>
        <time>2021-08-05 13:48:01</time>
      </trkpt>
      <trkpt lat="37.0701" lon="-3.37611">
        <ele>2906.2</ele>
        <time>2021-08-05 13:48:02</time>
      </trkpt>
      <trkpt lat="37.07009" lon="-3.37611">
        <ele>2906.4</ele>
        <time>2021-08-05 13:48:03</time>
      </trkpt>
      <trkpt lat="37.07009" lon="-3.37611">
        <ele>2906.6</ele>
        <time>2021-08-05 13:48:04</time>
      </trkpt>
      <trkpt lat="37.07009" lon="-3.3761">
        <ele>2906.8</ele>
        <time>2021-08-05 13:48:05</time>
      </trkpt>
      <trkpt lat="37.07009" lon="-3.37609">
        <ele>2907</ele>
        <time>2021-08-05 13:48:06</time>
      </trkpt>
      <trkpt lat="37.0701" lon="-3.37606">
        <ele>2907.2</ele>
        <time>2021-08-05 13:48:07</time>
      </trkpt>
      <trkpt lat="37.07011" lon="-3.37603">
        <ele>2907.6</ele>
        <time>2021-08-05 13:48:08</time>
      </trkpt>
      <trkpt lat="37.07011" lon="-3.37599">
        <ele>2908</ele>
        <time>2021-08-05 13:48:09</time>
      </trkpt>
      <trkpt lat="37.07011" lon="-3.37597">
        <ele>2908</ele>
        <time>2021-08-05 13:48:10</time>
      </trkpt>
      <trkpt lat="37.07011" lon="-3.37596">
        <ele>2908</ele>
        <time>2021-08-05 13:48:11</time>
      </trkpt>
      <trkpt lat="37.07011" lon="-3.37595">
        <ele>2908</ele>
        <time>2021-08-05 13:48:12</time>
      </trkpt>
      <trkpt lat="37.07011" lon="-3.37594">
        <ele>2907.8</ele>
        <time>2021-08-05 13:48:13</time>
      </trkpt>
      <trkpt lat="37.07011" lon="-3.37594">
        <ele>2907.8</ele>
        <time>2021-08-05 13:48:14</time>
      </trkpt>
      <trkpt lat="37.0701" lon="-3.37594">
        <ele>2907.8</ele>
        <time>2021-08-05 13:48:15</time>
      </trkpt>
      <trkpt lat="37.0701" lon="-3.37594">
        <ele>2907.8</ele>
        <time>2021-08-05 13:48:16</time>
      </trkpt>
      <trkpt lat="37.0701" lon="-3.37595">
        <ele>2907.6</ele>
        <time>2021-08-05 13:48:17</time>
      </trkpt>
      <trkpt lat="37.0701" lon="-3.37596">
        <ele>2907.8</ele>
        <time>2021-08-05 13:48:18</time>
      </trkpt>
      <trkpt lat="37.07009" lon="-3.37599">
        <ele>2907.8</ele>
        <time>2021-08-05 13:48:19</time>
      </trkpt>
      <trkpt lat="37.07008" lon="-3.37601">
        <ele>2907.8</ele>
        <time>2021-08-05 13:48:20</time>
      </trkpt>
      <trkpt lat="37.07007" lon="-3.37602">
        <ele>2908</ele>
        <time>2021-08-05 13:48:21</time>
      </trkpt>
      <trkpt lat="37.07007" lon="-3.37603">
        <ele>2908.2</ele>
        <time>2021-08-05 13:48:22</time>
      </trkpt>
      <trkpt lat="37.07005" lon="-3.37605">
        <ele>2908.2</ele>
        <time>2021-08-05 13:48:23</time>
      </trkpt>
      <trkpt lat="37.07005" lon="-3.37606">
        <ele>2908.4</ele>
        <time>2021-08-05 13:48:24</time>
      </trkpt>
      <trkpt lat="37.07004" lon="-3.37606">
        <ele>2908.6</ele>
        <time>2021-08-05 13:48:25</time>
      </trkpt>
      <trkpt lat="37.07004" lon="-3.37606">
        <ele>2908.8</ele>
        <time>2021-08-05 13:48:26</time>
      </trkpt>
      <trkpt lat="37.07003" lon="-3.37607">
        <ele>2909</ele>
        <time>2021-08-05 13:48:27</time>
      </trkpt>
      <trkpt lat="37.07002" lon="-3.37609">
        <ele>2909</ele>
        <time>2021-08-05 13:48:28</time>
      </trkpt>
      <trkpt lat="37.07001" lon="-3.37609">
        <ele>2909.2</ele>
        <time>2021-08-05 13:48:29</time>
      </trkpt>
      <trkpt lat="37.07001" lon="-3.37609">
        <ele>2909.4</ele>
        <time>2021-08-05 13:48:30</time>
      </trkpt>
      <trkpt lat="37.07001" lon="-3.3761">
        <ele>2909.4</ele>
        <time>2021-08-05 13:48:31</time>
      </trkpt>
      <trkpt lat="37.07001" lon="-3.37609">
        <ele>2909.4</ele>
        <time>2021-08-05 13:48:32</time>
      </trkpt>
      <trkpt lat="37.07001" lon="-3.3761">
        <ele>2909.6</ele>
        <time>2021-08-05 13:48:33</time>
      </trkpt>
      <trkpt lat="37.07001" lon="-3.3761">
        <ele>2909.6</ele>
        <time>2021-08-05 13:48:34</time>
      </trkpt>
      <trkpt lat="37.07001" lon="-3.3761">
        <ele>2909.8</ele>
        <time>2021-08-05 13:48:35</time>
      </trkpt>
      <trkpt lat="37.07001" lon="-3.37608">
        <ele>2910</ele>
        <time>2021-08-05 13:48:36</time>
      </trkpt>
      <trkpt lat="37.07001" lon="-3.37609">
        <ele>2910.2</ele>
        <time>2021-08-05 13:48:37</time>
      </trkpt>
      <trkpt lat="37.07" lon="-3.37608">
        <ele>2910.2</ele>
        <time>2021-08-05 13:48:38</time>
      </trkpt>
      <trkpt lat="37.07" lon="-3.37608">
        <ele>2910.4</ele>
        <time>2021-08-05 13:48:39</time>
      </trkpt>
      <trkpt lat="37.06999" lon="-3.37606">
        <ele>2910.4</ele>
        <time>2021-08-05 13:48:40</time>
      </trkpt>
      <trkpt lat="37.06998" lon="-3.37605">
        <ele>2910.4</ele>
        <time>2021-08-05 13:48:41</time>
      </trkpt>
      <trkpt lat="37.06998" lon="-3.37605">
        <ele>2910.4</ele>
        <time>2021-08-05 13:48:42</time>
      </trkpt>
      <trkpt lat="37.06998" lon="-3.37605">
        <ele>2910.6</ele>
        <time>2021-08-05 13:48:43</time>
      </trkpt>
      <trkpt lat="37.06997" lon="-3.37605">
        <ele>2910.8</ele>
        <time>2021-08-05 13:48:44</time>
      </trkpt>
      <trkpt lat="37.06997" lon="-3.37605">
        <ele>2910.8</ele>
        <time>2021-08-05 13:48:45</time>
      </trkpt>
      <trkpt lat="37.06996" lon="-3.37604">
        <ele>2911</ele>
        <time>2021-08-05 13:48:46</time>
      </trkpt>
      <trkpt lat="37.06996" lon="-3.37602">
        <ele>2911</ele>
        <time>2021-08-05 13:48:47</time>
      </trkpt>
      <trkpt lat="37.06996" lon="-3.376">
        <ele>2911.2</ele>
        <time>2021-08-05 13:48:48</time>
      </trkpt>
      <trkpt lat="37.06996" lon="-3.37599">
        <ele>2911.4</ele>
        <time>2021-08-05 13:48:49</time>
      </trkpt>
      <trkpt lat="37.06996" lon="-3.37599">
        <ele>2911.4</ele>
        <time>2021-08-05 13:48:50</time>
      </trkpt>
      <trkpt lat="37.06995" lon="-3.37601">
        <ele>2911.4</ele>
        <time>2021-08-05 13:48:51</time>
      </trkpt>
      <trkpt lat="37.06995" lon="-3.37601">
        <ele>2911.4</ele>
        <time>2021-08-05 13:48:52</time>
      </trkpt>
      <trkpt lat="37.06995" lon="-3.37602">
        <ele>2911.4</ele>
        <time>2021-08-05 13:48:53</time>
      </trkpt>
      <trkpt lat="37.06994" lon="-3.37601">
        <ele>2911.4</ele>
        <time>2021-08-05 13:48:54</time>
      </trkpt>
      <trkpt lat="37.06993" lon="-3.37601">
        <ele>2911.4</ele>
        <time>2021-08-05 13:48:55</time>
      </trkpt>
      <trkpt lat="37.06992" lon="-3.37602">
        <ele>2911.4</ele>
        <time>2021-08-05 13:48:56</time>
      </trkpt>
      <trkpt lat="37.06992" lon="-3.37601">
        <ele>2911.4</ele>
        <time>2021-08-05 13:48:57</time>
      </trkpt>
      <trkpt lat="37.06993" lon="-3.37602">
        <ele>2911.4</ele>
        <time>2021-08-05 13:48:58</time>
      </trkpt>
      <trkpt lat="37.06993" lon="-3.37602">
        <ele>2912</ele>
        <time>2021-08-05 13:48:59</time>
      </trkpt>
      <trkpt lat="37.06994" lon="-3.37602">
        <ele>2912.2</ele>
        <time>2021-08-05 13:49:00</time>
      </trkpt>
      <trkpt lat="37.06995" lon="-3.37601">
        <ele>2912.4</ele>
        <time>2021-08-05 13:49:01</time>
      </trkpt>
      <trkpt lat="37.06994" lon="-3.37601">
        <ele>2912.6</ele>
        <time>2021-08-05 13:49:02</time>
      </trkpt>
      <trkpt lat="37.06994" lon="-3.37601">
        <ele>2912.6</ele>
        <time>2021-08-05 13:49:03</time>
      </trkpt>
      <trkpt lat="37.06994" lon="-3.37601">
        <ele>2912.8</ele>
        <time>2021-08-05 13:49:04</time>
      </trkpt>
      <trkpt lat="37.06993" lon="-3.376">
        <ele>2913</ele>
        <time>2021-08-05 13:49:05</time>
      </trkpt>
      <trkpt lat="37.06993" lon="-3.376">
        <ele>2913</ele>
        <time>2021-08-05 13:49:06</time>
      </trkpt>
      <trkpt lat="37.06993" lon="-3.376">
        <ele>2913</ele>
        <time>2021-08-05 13:49:07</time>
      </trkpt>
      <trkpt lat="37.06993" lon="-3.37599">
        <ele>2913</ele>
        <time>2021-08-05 13:49:08</time>
      </trkpt>
      <trkpt lat="37.06993" lon="-3.37597">
        <ele>2913</ele>
        <time>2021-08-05 13:49:09</time>
      </trkpt>
      <trkpt lat="37.06993" lon="-3.37595">
        <ele>2913</ele>
        <time>2021-08-05 13:49:10</time>
      </trkpt>
      <trkpt lat="37.06993" lon="-3.37594">
        <ele>2912.8</ele>
        <time>2021-08-05 13:49:11</time>
      </trkpt>
      <trkpt lat="37.06993" lon="-3.37594">
        <ele>2912.8</ele>
        <time>2021-08-05 13:49:12</time>
      </trkpt>
      <trkpt lat="37.06992" lon="-3.37593">
        <ele>2913</ele>
        <time>2021-08-05 13:49:13</time>
      </trkpt>
      <trkpt lat="37.06992" lon="-3.37591">
        <ele>2913</ele>
        <time>2021-08-05 13:49:14</time>
      </trkpt>
      <trkpt lat="37.06992" lon="-3.37591">
        <ele>2913</ele>
        <time>2021-08-05 13:49:15</time>
      </trkpt>
      <trkpt lat="37.06992" lon="-3.3759">
        <ele>2913.6</ele>
        <time>2021-08-05 13:49:16</time>
      </trkpt>
      <trkpt lat="37.06992" lon="-3.37589">
        <ele>2913.8</ele>
        <time>2021-08-05 13:49:17</time>
      </trkpt>
      <trkpt lat="37.06991" lon="-3.37588">
        <ele>2914</ele>
        <time>2021-08-05 13:49:18</time>
      </trkpt>
      <trkpt lat="37.06991" lon="-3.37587">
        <ele>2914</ele>
        <time>2021-08-05 13:49:19</time>
      </trkpt>
      <trkpt lat="37.06991" lon="-3.37587">
        <ele>2914.2</ele>
        <time>2021-08-05 13:49:20</time>
      </trkpt>
      <trkpt lat="37.06991" lon="-3.37586">
        <ele>2914.2</ele>
        <time>2021-08-05 13:49:21</time>
      </trkpt>
      <trkpt lat="37.06991" lon="-3.37586">
        <ele>2914.4</ele>
        <time>2021-08-05 13:49:22</time>
      </trkpt>
      <trkpt lat="37.06991" lon="-3.37586">
        <ele>2914.8</ele>
        <time>2021-08-05 13:49:23</time>
      </trkpt>
      <trkpt lat="37.06991" lon="-3.37586">
        <ele>2914.8</ele>
        <time>2021-08-05 13:49:24</time>
      </trkpt>
      <trkpt lat="37.06991" lon="-3.37586">
        <ele>2915</ele>
        <time>2021-08-05 13:49:25</time>
      </trkpt>
      <trkpt lat="37.06991" lon="-3.37585">
        <ele>2915</ele>
        <time>2021-08-05 13:49:26</time>
      </trkpt>
      <trkpt lat="37.06991" lon="-3.37584">
        <ele>2915</ele>
        <time>2021-08-05 13:49:27</time>
      </trkpt>
      <trkpt lat="37.06991" lon="-3.37584">
        <ele>2915.2</ele>
        <time>2021-08-05 13:49:28</time>
      </trkpt>
      <trkpt lat="37.06991" lon="-3.37583">
        <ele>2915.4</ele>
        <time>2021-08-05 13:49:29</time>
      </trkpt>
      <trkpt lat="37.0699" lon="-3.37582">
        <ele>2915.6</ele>
        <time>2021-08-05 13:49:30</time>
      </trkpt>
      <trkpt lat="37.06989" lon="-3.37582">
        <ele>2915.8</ele>
        <time>2021-08-05 13:49:31</time>
      </trkpt>
      <trkpt lat="37.06988" lon="-3.37581">
        <ele>2915.8</ele>
        <time>2021-08-05 13:49:32</time>
      </trkpt>
      <trkpt lat="37.06987" lon="-3.37581">
        <ele>2915.8</ele>
        <time>2021-08-05 13:49:33</time>
      </trkpt>
      <trkpt lat="37.06987" lon="-3.37581">
        <ele>2916</ele>
        <time>2021-08-05 13:49:34</time>
      </trkpt>
      <trkpt lat="37.06988" lon="-3.37581">
        <ele>2916</ele>
        <time>2021-08-05 13:49:35</time>
      </trkpt>
      <trkpt lat="37.06987" lon="-3.37582">
        <ele>2916.4</ele>
        <time>2021-08-05 13:49:36</time>
      </trkpt>
      <trkpt lat="37.06986" lon="-3.37581">
        <ele>2916.8</ele>
        <time>2021-08-05 13:49:37</time>
      </trkpt>
      <trkpt lat="37.06987" lon="-3.3758">
        <ele>2916.6</ele>
        <time>2021-08-05 13:49:38</time>
      </trkpt>
      <trkpt lat="37.06987" lon="-3.37578">
        <ele>2916.8</ele>
        <time>2021-08-05 13:49:39</time>
      </trkpt>
      <trkpt lat="37.06987" lon="-3.37579">
        <ele>2917</ele>
        <time>2021-08-05 13:49:40</time>
      </trkpt>
      <trkpt lat="37.06986" lon="-3.37579">
        <ele>2917.2</ele>
        <time>2021-08-05 13:49:41</time>
      </trkpt>
      <trkpt lat="37.06986" lon="-3.37579">
        <ele>2917.4</ele>
        <time>2021-08-05 13:49:42</time>
      </trkpt>
      <trkpt lat="37.06986" lon="-3.37579">
        <ele>2917.4</ele>
        <time>2021-08-05 13:49:43</time>
      </trkpt>
      <trkpt lat="37.06986" lon="-3.37579">
        <ele>2917.6</ele>
        <time>2021-08-05 13:49:44</time>
      </trkpt>
      <trkpt lat="37.06986" lon="-3.37579">
        <ele>2918</ele>
        <time>2021-08-05 13:49:45</time>
      </trkpt>
      <trkpt lat="37.06985" lon="-3.37579">
        <ele>2918.2</ele>
        <time>2021-08-05 13:49:46</time>
      </trkpt>
      <trkpt lat="37.06985" lon="-3.37578">
        <ele>2918.4</ele>
        <time>2021-08-05 13:49:47</time>
      </trkpt>
      <trkpt lat="37.06984" lon="-3.37578">
        <ele>2918.4</ele>
        <time>2021-08-05 13:49:48</time>
      </trkpt>
      <trkpt lat="37.06984" lon="-3.37578">
        <ele>2918.4</ele>
        <time>2021-08-05 13:49:49</time>
      </trkpt>
      <trkpt lat="37.06983" lon="-3.3758">
        <ele>2918.4</ele>
        <time>2021-08-05 13:49:50</time>
      </trkpt>
      <trkpt lat="37.06982" lon="-3.37581">
        <ele>2918.6</ele>
        <time>2021-08-05 13:49:51</time>
      </trkpt>
      <trkpt lat="37.06982" lon="-3.37582">
        <ele>2918.6</ele>
        <time>2021-08-05 13:49:52</time>
      </trkpt>
      <trkpt lat="37.06981" lon="-3.37582">
        <ele>2918.6</ele>
        <time>2021-08-05 13:49:53</time>
      </trkpt>
      <trkpt lat="37.06981" lon="-3.37582">
        <ele>2918.8</ele>
        <time>2021-08-05 13:49:54</time>
      </trkpt>
      <trkpt lat="37.06981" lon="-3.37581">
        <ele>2918.8</ele>
        <time>2021-08-05 13:49:55</time>
      </trkpt>
      <trkpt lat="37.06981" lon="-3.37581">
        <ele>2919.2</ele>
        <time>2021-08-05 13:49:56</time>
      </trkpt>
      <trkpt lat="37.06981" lon="-3.3758">
        <ele>2919.4</ele>
        <time>2021-08-05 13:49:57</time>
      </trkpt>
      <trkpt lat="37.06981" lon="-3.3758">
        <ele>2919.6</ele>
        <time>2021-08-05 13:49:58</time>
      </trkpt>
      <trkpt lat="37.0698" lon="-3.37579">
        <ele>2919.8</ele>
        <time>2021-08-05 13:49:59</time>
      </trkpt>
      <trkpt lat="37.0698" lon="-3.37578">
        <ele>2920.2</ele>
        <time>2021-08-05 13:50:00</time>
      </trkpt>
      <trkpt lat="37.06981" lon="-3.37574">
        <ele>2920.4</ele>
        <time>2021-08-05 13:50:01</time>
      </trkpt>
      <trkpt lat="37.06981" lon="-3.37572">
        <ele>2920.6</ele>
        <time>2021-08-05 13:50:02</time>
      </trkpt>
      <trkpt lat="37.06981" lon="-3.3757">
        <ele>2920.8</ele>
        <time>2021-08-05 13:50:03</time>
      </trkpt>
      <trkpt lat="37.06981" lon="-3.3757">
        <ele>2921</ele>
        <time>2021-08-05 13:50:04</time>
      </trkpt>
      <trkpt lat="37.0698" lon="-3.37569">
        <ele>2921</ele>
        <time>2021-08-05 13:50:05</time>
      </trkpt>
      <trkpt lat="37.0698" lon="-3.37568">
        <ele>2921.2</ele>
        <time>2021-08-05 13:50:06</time>
      </trkpt>
      <trkpt lat="37.0698" lon="-3.37567">
        <ele>2921.2</ele>
        <time>2021-08-05 13:50:07</time>
      </trkpt>
      <trkpt lat="37.0698" lon="-3.37568">
        <ele>2921.2</ele>
        <time>2021-08-05 13:50:08</time>
      </trkpt>
      <trkpt lat="37.06979" lon="-3.37569">
        <ele>2921.2</ele>
        <time>2021-08-05 13:50:09</time>
      </trkpt>
      <trkpt lat="37.06978" lon="-3.37569">
        <ele>2921.2</ele>
        <time>2021-08-05 13:50:10</time>
      </trkpt>
      <trkpt lat="37.06978" lon="-3.3757">
        <ele>2921</ele>
        <time>2021-08-05 13:50:11</time>
      </trkpt>
      <trkpt lat="37.06977" lon="-3.37568">
        <ele>2921</ele>
        <time>2021-08-05 13:50:12</time>
      </trkpt>
      <trkpt lat="37.06977" lon="-3.37568">
        <ele>2921</ele>
        <time>2021-08-05 13:50:13</time>
      </trkpt>
      <trkpt lat="37.06976" lon="-3.37568">
        <ele>2921</ele>
        <time>2021-08-05 13:50:14</time>
      </trkpt>
      <trkpt lat="37.06975" lon="-3.37568">
        <ele>2921.2</ele>
        <time>2021-08-05 13:50:15</time>
      </trkpt>
      <trkpt lat="37.06976" lon="-3.37568">
        <ele>2921.2</ele>
        <time>2021-08-05 13:50:16</time>
      </trkpt>
      <trkpt lat="37.06975" lon="-3.37569">
        <ele>2921.4</ele>
        <time>2021-08-05 13:50:17</time>
      </trkpt>
      <trkpt lat="37.06975" lon="-3.37568">
        <ele>2921.4</ele>
        <time>2021-08-05 13:50:18</time>
      </trkpt>
      <trkpt lat="37.06974" lon="-3.37567">
        <ele>2921.6</ele>
        <time>2021-08-05 13:50:19</time>
      </trkpt>
      <trkpt lat="37.06973" lon="-3.37566">
        <ele>2921.8</ele>
        <time>2021-08-05 13:50:20</time>
      </trkpt>
      <trkpt lat="37.06973" lon="-3.37565">
        <ele>2921.8</ele>
        <time>2021-08-05 13:50:21</time>
      </trkpt>
      <trkpt lat="37.06972" lon="-3.37564">
        <ele>2922</ele>
        <time>2021-08-05 13:50:22</time>
      </trkpt>
      <trkpt lat="37.06972" lon="-3.37562">
        <ele>2922</ele>
        <time>2021-08-05 13:50:23</time>
      </trkpt>
      <trkpt lat="37.06972" lon="-3.37561">
        <ele>2922.2</ele>
        <time>2021-08-05 13:50:24</time>
      </trkpt>
      <trkpt lat="37.06972" lon="-3.3756">
        <ele>2922.2</ele>
        <time>2021-08-05 13:50:25</time>
      </trkpt>
      <trkpt lat="37.06971" lon="-3.37559">
        <ele>2922.2</ele>
        <time>2021-08-05 13:50:26</time>
      </trkpt>
      <trkpt lat="37.06971" lon="-3.37558">
        <ele>2922.2</ele>
        <time>2021-08-05 13:50:27</time>
      </trkpt>
      <trkpt lat="37.0697" lon="-3.37557">
        <ele>2922.6</ele>
        <time>2021-08-05 13:50:28</time>
      </trkpt>
      <trkpt lat="37.06969" lon="-3.37556">
        <ele>2922.8</ele>
        <time>2021-08-05 13:50:29</time>
      </trkpt>
      <trkpt lat="37.06968" lon="-3.37555">
        <ele>2922.8</ele>
        <time>2021-08-05 13:50:30</time>
      </trkpt>
      <trkpt lat="37.06968" lon="-3.37555">
        <ele>2923</ele>
        <time>2021-08-05 13:50:31</time>
      </trkpt>
      <trkpt lat="37.06967" lon="-3.37554">
        <ele>2923</ele>
        <time>2021-08-05 13:50:32</time>
      </trkpt>
      <trkpt lat="37.06966" lon="-3.37554">
        <ele>2923</ele>
        <time>2021-08-05 13:50:33</time>
      </trkpt>
      <trkpt lat="37.06965" lon="-3.37553">
        <ele>2923.2</ele>
        <time>2021-08-05 13:50:34</time>
      </trkpt>
      <trkpt lat="37.06964" lon="-3.37553">
        <ele>2923.2</ele>
        <time>2021-08-05 13:50:35</time>
      </trkpt>
      <trkpt lat="37.06963" lon="-3.37553">
        <ele>2923.2</ele>
        <time>2021-08-05 13:50:36</time>
      </trkpt>
      <trkpt lat="37.06963" lon="-3.37553">
        <ele>2923.4</ele>
        <time>2021-08-05 13:50:37</time>
      </trkpt>
      <trkpt lat="37.06963" lon="-3.37553">
        <ele>2923.6</ele>
        <time>2021-08-05 13:50:38</time>
      </trkpt>
      <trkpt lat="37.06962" lon="-3.37554">
        <ele>2923.6</ele>
        <time>2021-08-05 13:50:39</time>
      </trkpt>
      <trkpt lat="37.06961" lon="-3.37554">
        <ele>2923.6</ele>
        <time>2021-08-05 13:50:40</time>
      </trkpt>
      <trkpt lat="37.06961" lon="-3.37554">
        <ele>2923.6</ele>
        <time>2021-08-05 13:50:41</time>
      </trkpt>
      <trkpt lat="37.0696" lon="-3.37554">
        <ele>2923.8</ele>
        <time>2021-08-05 13:50:42</time>
      </trkpt>
      <trkpt lat="37.0696" lon="-3.37555">
        <ele>2924</ele>
        <time>2021-08-05 13:50:43</time>
      </trkpt>
      <trkpt lat="37.06959" lon="-3.37555">
        <ele>2924</ele>
        <time>2021-08-05 13:50:44</time>
      </trkpt>
      <trkpt lat="37.06958" lon="-3.37555">
        <ele>2924</ele>
        <time>2021-08-05 13:50:45</time>
      </trkpt>
      <trkpt lat="37.06957" lon="-3.37556">
        <ele>2924.2</ele>
        <time>2021-08-05 13:50:46</time>
      </trkpt>
      <trkpt lat="37.06957" lon="-3.37556">
        <ele>2924.2</ele>
        <time>2021-08-05 13:50:47</time>
      </trkpt>
      <trkpt lat="37.06957" lon="-3.37557">
        <ele>2924.2</ele>
        <time>2021-08-05 13:50:48</time>
      </trkpt>
      <trkpt lat="37.06957" lon="-3.37558">
        <ele>2924.2</ele>
        <time>2021-08-05 13:50:49</time>
      </trkpt>
      <trkpt lat="37.06957" lon="-3.37558">
        <ele>2924.6</ele>
        <time>2021-08-05 13:50:50</time>
      </trkpt>
      <trkpt lat="37.06956" lon="-3.37558">
        <ele>2924.6</ele>
        <time>2021-08-05 13:50:51</time>
      </trkpt>
      <trkpt lat="37.06956" lon="-3.37559">
        <ele>2924.8</ele>
        <time>2021-08-05 13:50:52</time>
      </trkpt>
      <trkpt lat="37.06955" lon="-3.37559">
        <ele>2925</ele>
        <time>2021-08-05 13:50:53</time>
      </trkpt>
      <trkpt lat="37.06954" lon="-3.37559">
        <ele>2925</ele>
        <time>2021-08-05 13:50:54</time>
      </trkpt>
      <trkpt lat="37.06953" lon="-3.37559">
        <ele>2925.2</ele>
        <time>2021-08-05 13:50:55</time>
      </trkpt>
      <trkpt lat="37.06952" lon="-3.37559">
        <ele>2925.2</ele>
        <time>2021-08-05 13:50:56</time>
      </trkpt>
      <trkpt lat="37.06951" lon="-3.3756">
        <ele>2925.4</ele>
        <time>2021-08-05 13:50:57</time>
      </trkpt>
      <trkpt lat="37.0695" lon="-3.3756">
        <ele>2925.4</ele>
        <time>2021-08-05 13:50:58</time>
      </trkpt>
      <trkpt lat="37.0695" lon="-3.37561">
        <ele>2925.6</ele>
        <time>2021-08-05 13:50:59</time>
      </trkpt>
      <trkpt lat="37.06949" lon="-3.37561">
        <ele>2925.6</ele>
        <time>2021-08-05 13:51:00</time>
      </trkpt>
      <trkpt lat="37.06949" lon="-3.37562">
        <ele>2925.6</ele>
        <time>2021-08-05 13:51:01</time>
      </trkpt>
      <trkpt lat="37.06949" lon="-3.37562">
        <ele>2925.6</ele>
        <time>2021-08-05 13:51:02</time>
      </trkpt>
      <trkpt lat="37.06948" lon="-3.37562">
        <ele>2925.8</ele>
        <time>2021-08-05 13:51:03</time>
      </trkpt>
      <trkpt lat="37.06948" lon="-3.37563">
        <ele>2925.8</ele>
        <time>2021-08-05 13:51:04</time>
      </trkpt>
      <trkpt lat="37.06947" lon="-3.37563">
        <ele>2925.8</ele>
        <time>2021-08-05 13:51:05</time>
      </trkpt>
      <trkpt lat="37.06946" lon="-3.37564">
        <ele>2925.8</ele>
        <time>2021-08-05 13:51:06</time>
      </trkpt>
      <trkpt lat="37.06946" lon="-3.37564">
        <ele>2925.8</ele>
        <time>2021-08-05 13:51:07</time>
      </trkpt>
      <trkpt lat="37.06945" lon="-3.37565">
        <ele>2925.8</ele>
        <time>2021-08-05 13:51:08</time>
      </trkpt>
      <trkpt lat="37.06945" lon="-3.37565">
        <ele>2925.8</ele>
        <time>2021-08-05 13:51:09</time>
      </trkpt>
      <trkpt lat="37.06945" lon="-3.37566">
        <ele>2925.8</ele>
        <time>2021-08-05 13:51:10</time>
      </trkpt>
      <trkpt lat="37.06945" lon="-3.37567">
        <ele>2926</ele>
        <time>2021-08-05 13:51:11</time>
      </trkpt>
      <trkpt lat="37.06945" lon="-3.37568">
        <ele>2926.2</ele>
        <time>2021-08-05 13:51:12</time>
      </trkpt>
      <trkpt lat="37.06945" lon="-3.37568">
        <ele>2926.2</ele>
        <time>2021-08-05 13:51:13</time>
      </trkpt>
      <trkpt lat="37.06945" lon="-3.37569">
        <ele>2926.4</ele>
        <time>2021-08-05 13:51:14</time>
      </trkpt>
      <trkpt lat="37.06945" lon="-3.37569">
        <ele>2926.4</ele>
        <time>2021-08-05 13:51:15</time>
      </trkpt>
      <trkpt lat="37.06944" lon="-3.3757">
        <ele>2926.4</ele>
        <time>2021-08-05 13:51:16</time>
      </trkpt>
      <trkpt lat="37.06944" lon="-3.37571">
        <ele>2926.4</ele>
        <time>2021-08-05 13:51:17</time>
      </trkpt>
      <trkpt lat="37.06944" lon="-3.37572">
        <ele>2926.4</ele>
        <time>2021-08-05 13:51:18</time>
      </trkpt>
      <trkpt lat="37.06944" lon="-3.37572">
        <ele>2926.6</ele>
        <time>2021-08-05 13:51:19</time>
      </trkpt>
      <trkpt lat="37.06944" lon="-3.37573">
        <ele>2926.8</ele>
        <time>2021-08-05 13:51:20</time>
      </trkpt>
      <trkpt lat="37.06944" lon="-3.37573">
        <ele>2927</ele>
        <time>2021-08-05 13:51:21</time>
      </trkpt>
      <trkpt lat="37.06945" lon="-3.37574">
        <ele>2927.2</ele>
        <time>2021-08-05 13:51:22</time>
      </trkpt>
      <trkpt lat="37.06945" lon="-3.37574">
        <ele>2927.2</ele>
        <time>2021-08-05 13:51:23</time>
      </trkpt>
      <trkpt lat="37.06945" lon="-3.37574">
        <ele>2927.4</ele>
        <time>2021-08-05 13:51:24</time>
      </trkpt>
      <trkpt lat="37.06946" lon="-3.37574">
        <ele>2927.4</ele>
        <time>2021-08-05 13:51:25</time>
      </trkpt>
      <trkpt lat="37.06946" lon="-3.37574">
        <ele>2927.6</ele>
        <time>2021-08-05 13:51:26</time>
      </trkpt>
      <trkpt lat="37.06946" lon="-3.37574">
        <ele>2927.6</ele>
        <time>2021-08-05 13:51:27</time>
      </trkpt>
      <trkpt lat="37.06946" lon="-3.37574">
        <ele>2927.6</ele>
        <time>2021-08-05 13:51:28</time>
      </trkpt>
      <trkpt lat="37.06946" lon="-3.37575">
        <ele>2927.4</ele>
        <time>2021-08-05 13:51:29</time>
      </trkpt>
      <trkpt lat="37.06946" lon="-3.37575">
        <ele>2927.4</ele>
        <time>2021-08-05 13:51:30</time>
      </trkpt>
      <trkpt lat="37.06945" lon="-3.37576">
        <ele>2927.2</ele>
        <time>2021-08-05 13:51:31</time>
      </trkpt>
      <trkpt lat="37.06945" lon="-3.37577">
        <ele>2927.4</ele>
        <time>2021-08-05 13:51:32</time>
      </trkpt>
      <trkpt lat="37.06945" lon="-3.37578">
        <ele>2927.6</ele>
        <time>2021-08-05 13:51:33</time>
      </trkpt>
      <trkpt lat="37.06945" lon="-3.37581">
        <ele>2927.6</ele>
        <time>2021-08-05 13:51:34</time>
      </trkpt>
      <trkpt lat="37.06945" lon="-3.37582">
        <ele>2927.6</ele>
        <time>2021-08-05 13:51:35</time>
      </trkpt>
      <trkpt lat="37.06944" lon="-3.37584">
        <ele>2927.8</ele>
        <time>2021-08-05 13:51:36</time>
      </trkpt>
      <trkpt lat="37.06943" lon="-3.37585">
        <ele>2927.8</ele>
        <time>2021-08-05 13:51:37</time>
      </trkpt>
      <trkpt lat="37.06943" lon="-3.37586">
        <ele>2927.8</ele>
        <time>2021-08-05 13:51:38</time>
      </trkpt>
      <trkpt lat="37.06942" lon="-3.37587">
        <ele>2927.8</ele>
        <time>2021-08-05 13:51:39</time>
      </trkpt>
      <trkpt lat="37.06942" lon="-3.37588">
        <ele>2927.8</ele>
        <time>2021-08-05 13:51:40</time>
      </trkpt>
      <trkpt lat="37.06942" lon="-3.37588">
        <ele>2927.8</ele>
        <time>2021-08-05 13:51:41</time>
      </trkpt>
      <trkpt lat="37.06941" lon="-3.37589">
        <ele>2927.8</ele>
        <time>2021-08-05 13:51:42</time>
      </trkpt>
      <trkpt lat="37.0694" lon="-3.3759">
        <ele>2927.8</ele>
        <time>2021-08-05 13:51:43</time>
      </trkpt>
      <trkpt lat="37.0694" lon="-3.37591">
        <ele>2928</ele>
        <time>2021-08-05 13:51:44</time>
      </trkpt>
      <trkpt lat="37.06939" lon="-3.37592">
        <ele>2928.2</ele>
        <time>2021-08-05 13:51:45</time>
      </trkpt>
      <trkpt lat="37.06939" lon="-3.37593">
        <ele>2928.4</ele>
        <time>2021-08-05 13:51:46</time>
      </trkpt>
      <trkpt lat="37.0694" lon="-3.37594">
        <ele>2928.8</ele>
        <time>2021-08-05 13:51:47</time>
      </trkpt>
      <trkpt lat="37.0694" lon="-3.37595">
        <ele>2929</ele>
        <time>2021-08-05 13:51:48</time>
      </trkpt>
      <trkpt lat="37.0694" lon="-3.37595">
        <ele>2929</ele>
        <time>2021-08-05 13:51:49</time>
      </trkpt>
      <trkpt lat="37.0694" lon="-3.37596">
        <ele>2929.2</ele>
        <time>2021-08-05 13:51:50</time>
      </trkpt>
      <trkpt lat="37.0694" lon="-3.37597">
        <ele>2929.2</ele>
        <time>2021-08-05 13:51:51</time>
      </trkpt>
      <trkpt lat="37.06939" lon="-3.37598">
        <ele>2929.2</ele>
        <time>2021-08-05 13:51:52</time>
      </trkpt>
      <trkpt lat="37.06939" lon="-3.37599">
        <ele>2929.2</ele>
        <time>2021-08-05 13:51:53</time>
      </trkpt>
      <trkpt lat="37.06938" lon="-3.376">
        <ele>2929.2</ele>
        <time>2021-08-05 13:51:54</time>
      </trkpt>
      <trkpt lat="37.06939" lon="-3.37601">
        <ele>2929</ele>
        <time>2021-08-05 13:51:55</time>
      </trkpt>
      <trkpt lat="37.06939" lon="-3.37601">
        <ele>2929</ele>
        <time>2021-08-05 13:51:56</time>
      </trkpt>
      <trkpt lat="37.06938" lon="-3.37602">
        <ele>2928.8</ele>
        <time>2021-08-05 13:51:57</time>
      </trkpt>
      <trkpt lat="37.06938" lon="-3.37603">
        <ele>2929</ele>
        <time>2021-08-05 13:51:58</time>
      </trkpt>
      <trkpt lat="37.06938" lon="-3.37604">
        <ele>2929.2</ele>
        <time>2021-08-05 13:51:59</time>
      </trkpt>
      <trkpt lat="37.06939" lon="-3.37605">
        <ele>2929.2</ele>
        <time>2021-08-05 13:52:00</time>
      </trkpt>
      <trkpt lat="37.06938" lon="-3.37606">
        <ele>2929.2</ele>
        <time>2021-08-05 13:52:01</time>
      </trkpt>
      <trkpt lat="37.06938" lon="-3.37607">
        <ele>2929.4</ele>
        <time>2021-08-05 13:52:02</time>
      </trkpt>
      <trkpt lat="37.06937" lon="-3.37608">
        <ele>2929.6</ele>
        <time>2021-08-05 13:52:03</time>
      </trkpt>
      <trkpt lat="37.06937" lon="-3.37609">
        <ele>2929.6</ele>
        <time>2021-08-05 13:52:04</time>
      </trkpt>
      <trkpt lat="37.06936" lon="-3.3761">
        <ele>2929.6</ele>
        <time>2021-08-05 13:52:05</time>
      </trkpt>
      <trkpt lat="37.06935" lon="-3.37611">
        <ele>2929.6</ele>
        <time>2021-08-05 13:52:06</time>
      </trkpt>
      <trkpt lat="37.06935" lon="-3.37612">
        <ele>2929.6</ele>
        <time>2021-08-05 13:52:07</time>
      </trkpt>
      <trkpt lat="37.06934" lon="-3.37613">
        <ele>2929.6</ele>
        <time>2021-08-05 13:52:08</time>
      </trkpt>
      <trkpt lat="37.06934" lon="-3.37613">
        <ele>2929.6</ele>
        <time>2021-08-05 13:52:09</time>
      </trkpt>
      <trkpt lat="37.06934" lon="-3.37614">
        <ele>2929.6</ele>
        <time>2021-08-05 13:52:10</time>
      </trkpt>
      <trkpt lat="37.06934" lon="-3.37614">
        <ele>2929.6</ele>
        <time>2021-08-05 13:52:11</time>
      </trkpt>
      <trkpt lat="37.06933" lon="-3.37615">
        <ele>2929.6</ele>
        <time>2021-08-05 13:52:12</time>
      </trkpt>
      <trkpt lat="37.06933" lon="-3.37616">
        <ele>2929.6</ele>
        <time>2021-08-05 13:52:13</time>
      </trkpt>
      <trkpt lat="37.06931" lon="-3.37617">
        <ele>2929.8</ele>
        <time>2021-08-05 13:52:14</time>
      </trkpt>
      <trkpt lat="37.06931" lon="-3.37617">
        <ele>2929.8</ele>
        <time>2021-08-05 13:52:15</time>
      </trkpt>
      <trkpt lat="37.0693" lon="-3.37618">
        <ele>2930</ele>
        <time>2021-08-05 13:52:16</time>
      </trkpt>
      <trkpt lat="37.06929" lon="-3.37618">
        <ele>2930</ele>
        <time>2021-08-05 13:52:17</time>
      </trkpt>
      <trkpt lat="37.06928" lon="-3.37619">
        <ele>2930</ele>
        <time>2021-08-05 13:52:18</time>
      </trkpt>
      <trkpt lat="37.06928" lon="-3.3762">
        <ele>2930</ele>
        <time>2021-08-05 13:52:19</time>
      </trkpt>
      <trkpt lat="37.06926" lon="-3.3762">
        <ele>2930</ele>
        <time>2021-08-05 13:52:20</time>
      </trkpt>
      <trkpt lat="37.06925" lon="-3.3762">
        <ele>2930.2</ele>
        <time>2021-08-05 13:52:21</time>
      </trkpt>
      <trkpt lat="37.06925" lon="-3.37621">
        <ele>2930.2</ele>
        <time>2021-08-05 13:52:22</time>
      </trkpt>
      <trkpt lat="37.06924" lon="-3.37621">
        <ele>2930.2</ele>
        <time>2021-08-05 13:52:23</time>
      </trkpt>
      <trkpt lat="37.06923" lon="-3.37622">
        <ele>2930.4</ele>
        <time>2021-08-05 13:52:24</time>
      </trkpt>
      <trkpt lat="37.06922" lon="-3.37622">
        <ele>2930.4</ele>
        <time>2021-08-05 13:52:25</time>
      </trkpt>
      <trkpt lat="37.06922" lon="-3.37623">
        <ele>2930.4</ele>
        <time>2021-08-05 13:52:26</time>
      </trkpt>
      <trkpt lat="37.06921" lon="-3.37624">
        <ele>2930.6</ele>
        <time>2021-08-05 13:52:27</time>
      </trkpt>
      <trkpt lat="37.06921" lon="-3.37625">
        <ele>2930.6</ele>
        <time>2021-08-05 13:52:28</time>
      </trkpt>
      <trkpt lat="37.0692" lon="-3.37625">
        <ele>2930.6</ele>
        <time>2021-08-05 13:52:29</time>
      </trkpt>
      <trkpt lat="37.06919" lon="-3.37626">
        <ele>2930.6</ele>
        <time>2021-08-05 13:52:30</time>
      </trkpt>
      <trkpt lat="37.06918" lon="-3.37626">
        <ele>2930.6</ele>
        <time>2021-08-05 13:52:31</time>
      </trkpt>
      <trkpt lat="37.06917" lon="-3.37626">
        <ele>2930.6</ele>
        <time>2021-08-05 13:52:32</time>
      </trkpt>
      <trkpt lat="37.06917" lon="-3.37626">
        <ele>2930.6</ele>
        <time>2021-08-05 13:52:33</time>
      </trkpt>
      <trkpt lat="37.06916" lon="-3.37626">
        <ele>2930.4</ele>
        <time>2021-08-05 13:52:34</time>
      </trkpt>
      <trkpt lat="37.06915" lon="-3.37626">
        <ele>2930.6</ele>
        <time>2021-08-05 13:52:35</time>
      </trkpt>
      <trkpt lat="37.06915" lon="-3.37626">
        <ele>2930.8</ele>
        <time>2021-08-05 13:52:36</time>
      </trkpt>
      <trkpt lat="37.06914" lon="-3.37626">
        <ele>2930.8</ele>
        <time>2021-08-05 13:52:37</time>
      </trkpt>
      <trkpt lat="37.06913" lon="-3.37626">
        <ele>2931</ele>
        <time>2021-08-05 13:52:38</time>
      </trkpt>
      <trkpt lat="37.06913" lon="-3.37626">
        <ele>2931</ele>
        <time>2021-08-05 13:52:39</time>
      </trkpt>
      <trkpt lat="37.06912" lon="-3.37626">
        <ele>2931</ele>
        <time>2021-08-05 13:52:40</time>
      </trkpt>
      <trkpt lat="37.06911" lon="-3.37626">
        <ele>2931.2</ele>
        <time>2021-08-05 13:52:41</time>
      </trkpt>
      <trkpt lat="37.0691" lon="-3.37626">
        <ele>2931.4</ele>
        <time>2021-08-05 13:52:42</time>
      </trkpt>
      <trkpt lat="37.0691" lon="-3.37626">
        <ele>2931.6</ele>
        <time>2021-08-05 13:52:43</time>
      </trkpt>
      <trkpt lat="37.06909" lon="-3.37626">
        <ele>2931.6</ele>
        <time>2021-08-05 13:52:44</time>
      </trkpt>
      <trkpt lat="37.06909" lon="-3.37626">
        <ele>2931.8</ele>
        <time>2021-08-05 13:52:45</time>
      </trkpt>
      <trkpt lat="37.06908" lon="-3.37626">
        <ele>2931.8</ele>
        <time>2021-08-05 13:52:46</time>
      </trkpt>
      <trkpt lat="37.06908" lon="-3.37627">
        <ele>2931.8</ele>
        <time>2021-08-05 13:52:47</time>
      </trkpt>
      <trkpt lat="37.06907" lon="-3.37627">
        <ele>2931.8</ele>
        <time>2021-08-05 13:52:48</time>
      </trkpt>
      <trkpt lat="37.06907" lon="-3.37627">
        <ele>2931.8</ele>
        <time>2021-08-05 13:52:49</time>
      </trkpt>
      <trkpt lat="37.06906" lon="-3.37627">
        <ele>2931.8</ele>
        <time>2021-08-05 13:52:50</time>
      </trkpt>
      <trkpt lat="37.06905" lon="-3.37627">
        <ele>2931.8</ele>
        <time>2021-08-05 13:52:51</time>
      </trkpt>
      <trkpt lat="37.06905" lon="-3.37627">
        <ele>2931.8</ele>
        <time>2021-08-05 13:52:52</time>
      </trkpt>
      <trkpt lat="37.06904" lon="-3.37627">
        <ele>2931.8</ele>
        <time>2021-08-05 13:52:53</time>
      </trkpt>
      <trkpt lat="37.06903" lon="-3.37627">
        <ele>2931.6</ele>
        <time>2021-08-05 13:52:54</time>
      </trkpt>
      <trkpt lat="37.06903" lon="-3.37627">
        <ele>2931.4</ele>
        <time>2021-08-05 13:52:55</time>
      </trkpt>
      <trkpt lat="37.06902" lon="-3.37626">
        <ele>2931.4</ele>
        <time>2021-08-05 13:52:56</time>
      </trkpt>
      <trkpt lat="37.06901" lon="-3.37626">
        <ele>2931.4</ele>
        <time>2021-08-05 13:52:57</time>
      </trkpt>
      <trkpt lat="37.069" lon="-3.37626">
        <ele>2931.4</ele>
        <time>2021-08-05 13:52:58</time>
      </trkpt>
      <trkpt lat="37.06899" lon="-3.37625">
        <ele>2931.4</ele>
        <time>2021-08-05 13:52:59</time>
      </trkpt>
      <trkpt lat="37.06899" lon="-3.37625">
        <ele>2931.6</ele>
        <time>2021-08-05 13:53:00</time>
      </trkpt>
      <trkpt lat="37.06898" lon="-3.37624">
        <ele>2931.6</ele>
        <time>2021-08-05 13:53:01</time>
      </trkpt>
      <trkpt lat="37.06897" lon="-3.37624">
        <ele>2931.6</ele>
        <time>2021-08-05 13:53:02</time>
      </trkpt>
      <trkpt lat="37.06896" lon="-3.37623">
        <ele>2931.8</ele>
        <time>2021-08-05 13:53:03</time>
      </trkpt>
      <trkpt lat="37.06896" lon="-3.37623">
        <ele>2931.8</ele>
        <time>2021-08-05 13:53:04</time>
      </trkpt>
      <trkpt lat="37.06895" lon="-3.37622">
        <ele>2931.8</ele>
        <time>2021-08-05 13:53:05</time>
      </trkpt>
      <trkpt lat="37.06894" lon="-3.37622">
        <ele>2931.8</ele>
        <time>2021-08-05 13:53:06</time>
      </trkpt>
      <trkpt lat="37.06893" lon="-3.37622">
        <ele>2932</ele>
        <time>2021-08-05 13:53:07</time>
      </trkpt>
      <trkpt lat="37.06893" lon="-3.37622">
        <ele>2932</ele>
        <time>2021-08-05 13:53:08</time>
      </trkpt>
      <trkpt lat="37.06892" lon="-3.37623">
        <ele>2932</ele>
        <time>2021-08-05 13:53:09</time>
      </trkpt>
      <trkpt lat="37.06892" lon="-3.37622">
        <ele>2932.2</ele>
        <time>2021-08-05 13:53:10</time>
      </trkpt>
      <trkpt lat="37.06891" lon="-3.37622">
        <ele>2932.2</ele>
        <time>2021-08-05 13:53:11</time>
      </trkpt>
      <trkpt lat="37.06891" lon="-3.37621">
        <ele>2932.2</ele>
        <time>2021-08-05 13:53:12</time>
      </trkpt>
      <trkpt lat="37.0689" lon="-3.37621">
        <ele>2932.2</ele>
        <time>2021-08-05 13:53:13</time>
      </trkpt>
      <trkpt lat="37.06889" lon="-3.37615">
        <ele>2932.2</ele>
        <time>2021-08-05 13:53:14</time>
      </trkpt>
      <trkpt lat="37.06888" lon="-3.37613">
        <ele>2932</ele>
        <time>2021-08-05 13:53:15</time>
      </trkpt>
      <trkpt lat="37.06888" lon="-3.37614">
        <ele>2932</ele>
        <time>2021-08-05 13:53:16</time>
      </trkpt>
      <trkpt lat="37.06887" lon="-3.37614">
        <ele>2932</ele>
        <time>2021-08-05 13:53:17</time>
      </trkpt>
      <trkpt lat="37.06886" lon="-3.37614">
        <ele>2931.8</ele>
        <time>2021-08-05 13:53:18</time>
      </trkpt>
      <trkpt lat="37.06885" lon="-3.37613">
        <ele>2932</ele>
        <time>2021-08-05 13:53:19</time>
      </trkpt>
      <trkpt lat="37.06885" lon="-3.37612">
        <ele>2932</ele>
        <time>2021-08-05 13:53:20</time>
      </trkpt>
      <trkpt lat="37.06884" lon="-3.37611">
        <ele>2932</ele>
        <time>2021-08-05 13:53:21</time>
      </trkpt>
      <trkpt lat="37.06884" lon="-3.37611">
        <ele>2932</ele>
        <time>2021-08-05 13:53:22</time>
      </trkpt>
      <trkpt lat="37.06883" lon="-3.37611">
        <ele>2932</ele>
        <time>2021-08-05 13:53:23</time>
      </trkpt>
      <trkpt lat="37.06883" lon="-3.37612">
        <ele>2932</ele>
        <time>2021-08-05 13:53:24</time>
      </trkpt>
      <trkpt lat="37.06882" lon="-3.37611">
        <ele>2932</ele>
        <time>2021-08-05 13:53:25</time>
      </trkpt>
      <trkpt lat="37.06881" lon="-3.37611">
        <ele>2932</ele>
        <time>2021-08-05 13:53:26</time>
      </trkpt>
      <trkpt lat="37.06881" lon="-3.37612">
        <ele>2932.2</ele>
        <time>2021-08-05 13:53:27</time>
      </trkpt>
      <trkpt lat="37.0688" lon="-3.3761">
        <ele>2932.2</ele>
        <time>2021-08-05 13:53:28</time>
      </trkpt>
      <trkpt lat="37.0688" lon="-3.37609">
        <ele>2932.2</ele>
        <time>2021-08-05 13:53:29</time>
      </trkpt>
      <trkpt lat="37.06879" lon="-3.37608">
        <ele>2932.2</ele>
        <time>2021-08-05 13:53:30</time>
      </trkpt>
      <trkpt lat="37.06879" lon="-3.37607">
        <ele>2932.2</ele>
        <time>2021-08-05 13:53:31</time>
      </trkpt>
      <trkpt lat="37.06878" lon="-3.37607">
        <ele>2932.2</ele>
        <time>2021-08-05 13:53:32</time>
      </trkpt>
      <trkpt lat="37.06878" lon="-3.37607">
        <ele>2932.2</ele>
        <time>2021-08-05 13:53:33</time>
      </trkpt>
      <trkpt lat="37.06877" lon="-3.37606">
        <ele>2932.4</ele>
        <time>2021-08-05 13:53:34</time>
      </trkpt>
      <trkpt lat="37.06876" lon="-3.37606">
        <ele>2932.4</ele>
        <time>2021-08-05 13:53:35</time>
      </trkpt>
      <trkpt lat="37.06876" lon="-3.37606">
        <ele>2932.4</ele>
        <time>2021-08-05 13:53:36</time>
      </trkpt>
      <trkpt lat="37.06875" lon="-3.37605">
        <ele>2932.4</ele>
        <time>2021-08-05 13:53:37</time>
      </trkpt>
      <trkpt lat="37.06874" lon="-3.37605">
        <ele>2932.6</ele>
        <time>2021-08-05 13:53:38</time>
      </trkpt>
      <trkpt lat="37.06874" lon="-3.37604">
        <ele>2932.6</ele>
        <time>2021-08-05 13:53:39</time>
      </trkpt>
      <trkpt lat="37.06873" lon="-3.37604">
        <ele>2932.6</ele>
        <time>2021-08-05 13:53:40</time>
      </trkpt>
      <trkpt lat="37.06872" lon="-3.37603">
        <ele>2932.8</ele>
        <time>2021-08-05 13:53:41</time>
      </trkpt>
      <trkpt lat="37.06872" lon="-3.37602">
        <ele>2932.8</ele>
        <time>2021-08-05 13:53:42</time>
      </trkpt>
      <trkpt lat="37.06871" lon="-3.37602">
        <ele>2932.8</ele>
        <time>2021-08-05 13:53:43</time>
      </trkpt>
      <trkpt lat="37.06871" lon="-3.37602">
        <ele>2932.8</ele>
        <time>2021-08-05 13:53:44</time>
      </trkpt>
      <trkpt lat="37.06871" lon="-3.37601">
        <ele>2932.8</ele>
        <time>2021-08-05 13:53:45</time>
      </trkpt>
      <trkpt lat="37.0687" lon="-3.37602">
        <ele>2933</ele>
        <time>2021-08-05 13:53:46</time>
      </trkpt>
      <trkpt lat="37.0687" lon="-3.37602">
        <ele>2933</ele>
        <time>2021-08-05 13:53:47</time>
      </trkpt>
      <trkpt lat="37.0687" lon="-3.37601">
        <ele>2933.2</ele>
        <time>2021-08-05 13:53:48</time>
      </trkpt>
      <trkpt lat="37.06869" lon="-3.37601">
        <ele>2933.2</ele>
        <time>2021-08-05 13:53:49</time>
      </trkpt>
      <trkpt lat="37.06868" lon="-3.376">
        <ele>2933.2</ele>
        <time>2021-08-05 13:53:50</time>
      </trkpt>
      <trkpt lat="37.06867" lon="-3.376">
        <ele>2933.4</ele>
        <time>2021-08-05 13:53:51</time>
      </trkpt>
      <trkpt lat="37.06867" lon="-3.376">
        <ele>2933.4</ele>
        <time>2021-08-05 13:53:52</time>
      </trkpt>
      <trkpt lat="37.06866" lon="-3.376">
        <ele>2933.4</ele>
        <time>2021-08-05 13:53:53</time>
      </trkpt>
      <trkpt lat="37.06865" lon="-3.376">
        <ele>2933.4</ele>
        <time>2021-08-05 13:53:54</time>
      </trkpt>
      <trkpt lat="37.06864" lon="-3.37599">
        <ele>2933.6</ele>
        <time>2021-08-05 13:53:55</time>
      </trkpt>
      <trkpt lat="37.06863" lon="-3.376">
        <ele>2933.8</ele>
        <time>2021-08-05 13:53:56</time>
      </trkpt>
      <trkpt lat="37.06862" lon="-3.37599">
        <ele>2934</ele>
        <time>2021-08-05 13:53:57</time>
      </trkpt>
      <trkpt lat="37.06862" lon="-3.37599">
        <ele>2934</ele>
        <time>2021-08-05 13:53:58</time>
      </trkpt>
      <trkpt lat="37.06861" lon="-3.37599">
        <ele>2934.2</ele>
        <time>2021-08-05 13:53:59</time>
      </trkpt>
      <trkpt lat="37.06861" lon="-3.37599">
        <ele>2934.2</ele>
        <time>2021-08-05 13:54:00</time>
      </trkpt>
      <trkpt lat="37.0686" lon="-3.37599">
        <ele>2934.2</ele>
        <time>2021-08-05 13:54:01</time>
      </trkpt>
      <trkpt lat="37.0686" lon="-3.37599">
        <ele>2934.2</ele>
        <time>2021-08-05 13:54:02</time>
      </trkpt>
      <trkpt lat="37.06859" lon="-3.37599">
        <ele>2934.2</ele>
        <time>2021-08-05 13:54:03</time>
      </trkpt>
      <trkpt lat="37.06859" lon="-3.37598">
        <ele>2934.2</ele>
        <time>2021-08-05 13:54:04</time>
      </trkpt>
      <trkpt lat="37.06859" lon="-3.37597">
        <ele>2934.2</ele>
        <time>2021-08-05 13:54:05</time>
      </trkpt>
      <trkpt lat="37.06859" lon="-3.37597">
        <ele>2934.2</ele>
        <time>2021-08-05 13:54:06</time>
      </trkpt>
      <trkpt lat="37.06859" lon="-3.37596">
        <ele>2934.2</ele>
        <time>2021-08-05 13:54:07</time>
      </trkpt>
      <trkpt lat="37.06858" lon="-3.37596">
        <ele>2934.2</ele>
        <time>2021-08-05 13:54:08</time>
      </trkpt>
      <trkpt lat="37.06858" lon="-3.37596">
        <ele>2934.2</ele>
        <time>2021-08-05 13:54:09</time>
      </trkpt>
      <trkpt lat="37.06857" lon="-3.37595">
        <ele>2934.2</ele>
        <time>2021-08-05 13:54:10</time>
      </trkpt>
      <trkpt lat="37.06857" lon="-3.37594">
        <ele>2934.2</ele>
        <time>2021-08-05 13:54:11</time>
      </trkpt>
      <trkpt lat="37.06857" lon="-3.37593">
        <ele>2934.4</ele>
        <time>2021-08-05 13:54:12</time>
      </trkpt>
      <trkpt lat="37.06856" lon="-3.37594">
        <ele>2934.4</ele>
        <time>2021-08-05 13:54:13</time>
      </trkpt>
      <trkpt lat="37.06855" lon="-3.37593">
        <ele>2934.6</ele>
        <time>2021-08-05 13:54:14</time>
      </trkpt>
      <trkpt lat="37.06855" lon="-3.37592">
        <ele>2934.8</ele>
        <time>2021-08-05 13:54:15</time>
      </trkpt>
      <trkpt lat="37.06854" lon="-3.37592">
        <ele>2934.8</ele>
        <time>2021-08-05 13:54:16</time>
      </trkpt>
      <trkpt lat="37.06854" lon="-3.3759">
        <ele>2935</ele>
        <time>2021-08-05 13:54:17</time>
      </trkpt>
      <trkpt lat="37.06853" lon="-3.3759">
        <ele>2935</ele>
        <time>2021-08-05 13:54:18</time>
      </trkpt>
      <trkpt lat="37.06853" lon="-3.3759">
        <ele>2935</ele>
        <time>2021-08-05 13:54:19</time>
      </trkpt>
      <trkpt lat="37.06852" lon="-3.3759">
        <ele>2935</ele>
        <time>2021-08-05 13:54:20</time>
      </trkpt>
      <trkpt lat="37.06851" lon="-3.3759">
        <ele>2935</ele>
        <time>2021-08-05 13:54:21</time>
      </trkpt>
      <trkpt lat="37.06849" lon="-3.3759">
        <ele>2935</ele>
        <time>2021-08-05 13:54:22</time>
      </trkpt>
      <trkpt lat="37.06847" lon="-3.3759">
        <ele>2935</ele>
        <time>2021-08-05 13:54:23</time>
      </trkpt>
      <trkpt lat="37.06846" lon="-3.37591">
        <ele>2935</ele>
        <time>2021-08-05 13:54:24</time>
      </trkpt>
      <trkpt lat="37.06846" lon="-3.37591">
        <ele>2934.8</ele>
        <time>2021-08-05 13:54:25</time>
      </trkpt>
      <trkpt lat="37.06846" lon="-3.37591">
        <ele>2934.8</ele>
        <time>2021-08-05 13:54:26</time>
      </trkpt>
      <trkpt lat="37.06846" lon="-3.3759">
        <ele>2934.8</ele>
        <time>2021-08-05 13:54:27</time>
      </trkpt>
      <trkpt lat="37.06846" lon="-3.3759">
        <ele>2934.6</ele>
        <time>2021-08-05 13:54:28</time>
      </trkpt>
      <trkpt lat="37.06845" lon="-3.3759">
        <ele>2934.8</ele>
        <time>2021-08-05 13:54:29</time>
      </trkpt>
      <trkpt lat="37.06844" lon="-3.37589">
        <ele>2935</ele>
        <time>2021-08-05 13:54:30</time>
      </trkpt>
      <trkpt lat="37.06844" lon="-3.37588">
        <ele>2935.2</ele>
        <time>2021-08-05 13:54:31</time>
      </trkpt>
      <trkpt lat="37.06844" lon="-3.37588">
        <ele>2935.4</ele>
        <time>2021-08-05 13:54:32</time>
      </trkpt>
      <trkpt lat="37.06843" lon="-3.37588">
        <ele>2935.6</ele>
        <time>2021-08-05 13:54:33</time>
      </trkpt>
      <trkpt lat="37.06843" lon="-3.37588">
        <ele>2935.6</ele>
        <time>2021-08-05 13:54:34</time>
      </trkpt>
      <trkpt lat="37.06843" lon="-3.37588">
        <ele>2935.8</ele>
        <time>2021-08-05 13:54:35</time>
      </trkpt>
      <trkpt lat="37.06842" lon="-3.37588">
        <ele>2936</ele>
        <time>2021-08-05 13:54:36</time>
      </trkpt>
      <trkpt lat="37.06841" lon="-3.37589">
        <ele>2936.2</ele>
        <time>2021-08-05 13:54:37</time>
      </trkpt>
      <trkpt lat="37.0684" lon="-3.37589">
        <ele>2936.4</ele>
        <time>2021-08-05 13:54:38</time>
      </trkpt>
      <trkpt lat="37.0684" lon="-3.37589">
        <ele>2936.6</ele>
        <time>2021-08-05 13:54:39</time>
      </trkpt>
      <trkpt lat="37.0684" lon="-3.37589">
        <ele>2936.6</ele>
        <time>2021-08-05 13:54:40</time>
      </trkpt>
      <trkpt lat="37.0684" lon="-3.3759">
        <ele>2936.8</ele>
        <time>2021-08-05 13:54:41</time>
      </trkpt>
      <trkpt lat="37.06839" lon="-3.3759">
        <ele>2936.8</ele>
        <time>2021-08-05 13:54:42</time>
      </trkpt>
      <trkpt lat="37.06839" lon="-3.3759">
        <ele>2936.8</ele>
        <time>2021-08-05 13:54:43</time>
      </trkpt>
      <trkpt lat="37.06839" lon="-3.37588">
        <ele>2936.8</ele>
        <time>2021-08-05 13:54:44</time>
      </trkpt>
      <trkpt lat="37.06839" lon="-3.37588">
        <ele>2937</ele>
        <time>2021-08-05 13:54:45</time>
      </trkpt>
      <trkpt lat="37.06838" lon="-3.37587">
        <ele>2937</ele>
        <time>2021-08-05 13:54:46</time>
      </trkpt>
      <trkpt lat="37.06838" lon="-3.37586">
        <ele>2937.2</ele>
        <time>2021-08-05 13:54:47</time>
      </trkpt>
      <trkpt lat="37.06838" lon="-3.37585">
        <ele>2937.2</ele>
        <time>2021-08-05 13:54:48</time>
      </trkpt>
      <trkpt lat="37.06837" lon="-3.37585">
        <ele>2937.4</ele>
        <time>2021-08-05 13:54:49</time>
      </trkpt>
      <trkpt lat="37.06836" lon="-3.37585">
        <ele>2937.4</ele>
        <time>2021-08-05 13:54:50</time>
      </trkpt>
      <trkpt lat="37.06834" lon="-3.37585">
        <ele>2937.4</ele>
        <time>2021-08-05 13:54:51</time>
      </trkpt>
      <trkpt lat="37.06832" lon="-3.37585">
        <ele>2937.6</ele>
        <time>2021-08-05 13:54:52</time>
      </trkpt>
      <trkpt lat="37.06832" lon="-3.37585">
        <ele>2937.8</ele>
        <time>2021-08-05 13:54:53</time>
      </trkpt>
      <trkpt lat="37.06831" lon="-3.37585">
        <ele>2937.8</ele>
        <time>2021-08-05 13:54:54</time>
      </trkpt>
      <trkpt lat="37.06829" lon="-3.37585">
        <ele>2937.8</ele>
        <time>2021-08-05 13:54:55</time>
      </trkpt>
      <trkpt lat="37.06828" lon="-3.37584">
        <ele>2937.8</ele>
        <time>2021-08-05 13:54:56</time>
      </trkpt>
      <trkpt lat="37.06828" lon="-3.37583">
        <ele>2937.8</ele>
        <time>2021-08-05 13:54:57</time>
      </trkpt>
      <trkpt lat="37.06827" lon="-3.37583">
        <ele>2937.8</ele>
        <time>2021-08-05 13:54:58</time>
      </trkpt>
      <trkpt lat="37.06826" lon="-3.37581">
        <ele>2937.8</ele>
        <time>2021-08-05 13:54:59</time>
      </trkpt>
      <trkpt lat="37.06826" lon="-3.3758">
        <ele>2937.8</ele>
        <time>2021-08-05 13:55:00</time>
      </trkpt>
      <trkpt lat="37.06829" lon="-3.37573">
        <ele>2937.8</ele>
        <time>2021-08-05 13:55:01</time>
      </trkpt>
      <trkpt lat="37.0683" lon="-3.3757">
        <ele>2938</ele>
        <time>2021-08-05 13:55:02</time>
      </trkpt>
      <trkpt lat="37.0683" lon="-3.37567">
        <ele>2938</ele>
        <time>2021-08-05 13:55:03</time>
      </trkpt>
      <trkpt lat="37.0683" lon="-3.37565">
        <ele>2938.2</ele>
        <time>2021-08-05 13:55:04</time>
      </trkpt>
      <trkpt lat="37.0683" lon="-3.37564">
        <ele>2938.2</ele>
        <time>2021-08-05 13:55:05</time>
      </trkpt>
      <trkpt lat="37.06829" lon="-3.37562">
        <ele>2938.2</ele>
        <time>2021-08-05 13:55:06</time>
      </trkpt>
      <trkpt lat="37.06828" lon="-3.37562">
        <ele>2938.2</ele>
        <time>2021-08-05 13:55:07</time>
      </trkpt>
      <trkpt lat="37.06827" lon="-3.37561">
        <ele>2938.4</ele>
        <time>2021-08-05 13:55:08</time>
      </trkpt>
      <trkpt lat="37.06827" lon="-3.3756">
        <ele>2938.2</ele>
        <time>2021-08-05 13:55:09</time>
      </trkpt>
      <trkpt lat="37.06827" lon="-3.37558">
        <ele>2938.2</ele>
        <time>2021-08-05 13:55:10</time>
      </trkpt>
      <trkpt lat="37.06827" lon="-3.37558">
        <ele>2938.2</ele>
        <time>2021-08-05 13:55:11</time>
      </trkpt>
      <trkpt lat="37.06827" lon="-3.37558">
        <ele>2938.2</ele>
        <time>2021-08-05 13:55:12</time>
      </trkpt>
      <trkpt lat="37.06826" lon="-3.37557">
        <ele>2938.2</ele>
        <time>2021-08-05 13:55:13</time>
      </trkpt>
      <trkpt lat="37.06826" lon="-3.37557">
        <ele>2938.2</ele>
        <time>2021-08-05 13:55:14</time>
      </trkpt>
      <trkpt lat="37.06826" lon="-3.37556">
        <ele>2938.4</ele>
        <time>2021-08-05 13:55:15</time>
      </trkpt>
      <trkpt lat="37.06825" lon="-3.37555">
        <ele>2938.4</ele>
        <time>2021-08-05 13:55:16</time>
      </trkpt>
      <trkpt lat="37.06825" lon="-3.37554">
        <ele>2938.6</ele>
        <time>2021-08-05 13:55:17</time>
      </trkpt>
      <trkpt lat="37.06824" lon="-3.37554">
        <ele>2938.6</ele>
        <time>2021-08-05 13:55:18</time>
      </trkpt>
      <trkpt lat="37.06824" lon="-3.37554">
        <ele>2938.8</ele>
        <time>2021-08-05 13:55:19</time>
      </trkpt>
      <trkpt lat="37.06824" lon="-3.37553">
        <ele>2938.8</ele>
        <time>2021-08-05 13:55:20</time>
      </trkpt>
      <trkpt lat="37.06824" lon="-3.37553">
        <ele>2939</ele>
        <time>2021-08-05 13:55:21</time>
      </trkpt>
      <trkpt lat="37.06823" lon="-3.37552">
        <ele>2939</ele>
        <time>2021-08-05 13:55:22</time>
      </trkpt>
      <trkpt lat="37.06822" lon="-3.37551">
        <ele>2939</ele>
        <time>2021-08-05 13:55:23</time>
      </trkpt>
      <trkpt lat="37.06821" lon="-3.37551">
        <ele>2939</ele>
        <time>2021-08-05 13:55:24</time>
      </trkpt>
      <trkpt lat="37.06821" lon="-3.3755">
        <ele>2939.2</ele>
        <time>2021-08-05 13:55:25</time>
      </trkpt>
      <trkpt lat="37.06821" lon="-3.37549">
        <ele>2939.2</ele>
        <time>2021-08-05 13:55:26</time>
      </trkpt>
      <trkpt lat="37.0682" lon="-3.37548">
        <ele>2939.4</ele>
        <time>2021-08-05 13:55:27</time>
      </trkpt>
      <trkpt lat="37.06822" lon="-3.37545">
        <ele>2939.4</ele>
        <time>2021-08-05 13:55:28</time>
      </trkpt>
      <trkpt lat="37.06823" lon="-3.37543">
        <ele>2939.4</ele>
        <time>2021-08-05 13:55:29</time>
      </trkpt>
      <trkpt lat="37.06823" lon="-3.37543">
        <ele>2939.4</ele>
        <time>2021-08-05 13:55:30</time>
      </trkpt>
      <trkpt lat="37.06824" lon="-3.3754">
        <ele>2939.6</ele>
        <time>2021-08-05 13:55:31</time>
      </trkpt>
      <trkpt lat="37.06822" lon="-3.37539">
        <ele>2939.6</ele>
        <time>2021-08-05 13:55:32</time>
      </trkpt>
      <trkpt lat="37.06821" lon="-3.37539">
        <ele>2939.8</ele>
        <time>2021-08-05 13:55:33</time>
      </trkpt>
      <trkpt lat="37.0682" lon="-3.37538">
        <ele>2939.8</ele>
        <time>2021-08-05 13:55:34</time>
      </trkpt>
      <trkpt lat="37.06819" lon="-3.37537">
        <ele>2939.8</ele>
        <time>2021-08-05 13:55:35</time>
      </trkpt>
      <trkpt lat="37.06819" lon="-3.37537">
        <ele>2940</ele>
        <time>2021-08-05 13:55:36</time>
      </trkpt>
      <trkpt lat="37.06818" lon="-3.37536">
        <ele>2940</ele>
        <time>2021-08-05 13:55:37</time>
      </trkpt>
      <trkpt lat="37.06818" lon="-3.37535">
        <ele>2940</ele>
        <time>2021-08-05 13:55:38</time>
      </trkpt>
      <trkpt lat="37.06817" lon="-3.37535">
        <ele>2940.2</ele>
        <time>2021-08-05 13:55:39</time>
      </trkpt>
      <trkpt lat="37.06818" lon="-3.37532">
        <ele>2940.2</ele>
        <time>2021-08-05 13:55:40</time>
      </trkpt>
      <trkpt lat="37.06818" lon="-3.3753">
        <ele>2940.2</ele>
        <time>2021-08-05 13:55:41</time>
      </trkpt>
      <trkpt lat="37.06819" lon="-3.37529">
        <ele>2940</ele>
        <time>2021-08-05 13:55:42</time>
      </trkpt>
      <trkpt lat="37.06818" lon="-3.3753">
        <ele>2939.8</ele>
        <time>2021-08-05 13:55:43</time>
      </trkpt>
      <trkpt lat="37.06817" lon="-3.3753">
        <ele>2940</ele>
        <time>2021-08-05 13:55:44</time>
      </trkpt>
      <trkpt lat="37.06814" lon="-3.3753">
        <ele>2940</ele>
        <time>2021-08-05 13:55:45</time>
      </trkpt>
      <trkpt lat="37.06814" lon="-3.37529">
        <ele>2940.2</ele>
        <time>2021-08-05 13:55:46</time>
      </trkpt>
      <trkpt lat="37.06814" lon="-3.37528">
        <ele>2940.4</ele>
        <time>2021-08-05 13:55:47</time>
      </trkpt>
      <trkpt lat="37.06814" lon="-3.37528">
        <ele>2940.4</ele>
        <time>2021-08-05 13:55:48</time>
      </trkpt>
      <trkpt lat="37.06814" lon="-3.37526">
        <ele>2940.4</ele>
        <time>2021-08-05 13:55:49</time>
      </trkpt>
      <trkpt lat="37.06814" lon="-3.37525">
        <ele>2940.4</ele>
        <time>2021-08-05 13:55:50</time>
      </trkpt>
      <trkpt lat="37.06816" lon="-3.37521">
        <ele>2940.6</ele>
        <time>2021-08-05 13:55:51</time>
      </trkpt>
      <trkpt lat="37.06815" lon="-3.37521">
        <ele>2940.6</ele>
        <time>2021-08-05 13:55:52</time>
      </trkpt>
      <trkpt lat="37.06815" lon="-3.3752">
        <ele>2940.8</ele>
        <time>2021-08-05 13:55:53</time>
      </trkpt>
      <trkpt lat="37.06814" lon="-3.37519">
        <ele>2940.8</ele>
        <time>2021-08-05 13:55:54</time>
      </trkpt>
      <trkpt lat="37.06815" lon="-3.37518">
        <ele>2941</ele>
        <time>2021-08-05 13:55:55</time>
      </trkpt>
      <trkpt lat="37.06814" lon="-3.37517">
        <ele>2941</ele>
        <time>2021-08-05 13:55:56</time>
      </trkpt>
      <trkpt lat="37.06813" lon="-3.37518">
        <ele>2941</ele>
        <time>2021-08-05 13:55:57</time>
      </trkpt>
      <trkpt lat="37.06813" lon="-3.37517">
        <ele>2941</ele>
        <time>2021-08-05 13:55:58</time>
      </trkpt>
      <trkpt lat="37.06813" lon="-3.37518">
        <ele>2941</ele>
        <time>2021-08-05 13:55:59</time>
      </trkpt>
      <trkpt lat="37.06812" lon="-3.37518">
        <ele>2941</ele>
        <time>2021-08-05 13:56:00</time>
      </trkpt>
      <trkpt lat="37.06811" lon="-3.37518">
        <ele>2941</ele>
        <time>2021-08-05 13:56:01</time>
      </trkpt>
      <trkpt lat="37.06811" lon="-3.37518">
        <ele>2941</ele>
        <time>2021-08-05 13:56:02</time>
      </trkpt>
      <trkpt lat="37.0681" lon="-3.37518">
        <ele>2941</ele>
        <time>2021-08-05 13:56:03</time>
      </trkpt>
      <trkpt lat="37.0681" lon="-3.37517">
        <ele>2941</ele>
        <time>2021-08-05 13:56:04</time>
      </trkpt>
      <trkpt lat="37.06809" lon="-3.37516">
        <ele>2941.2</ele>
        <time>2021-08-05 13:56:05</time>
      </trkpt>
      <trkpt lat="37.06809" lon="-3.37515">
        <ele>2941.2</ele>
        <time>2021-08-05 13:56:06</time>
      </trkpt>
      <trkpt lat="37.06807" lon="-3.37515">
        <ele>2941.2</ele>
        <time>2021-08-05 13:56:07</time>
      </trkpt>
      <trkpt lat="37.06806" lon="-3.37515">
        <ele>2941.4</ele>
        <time>2021-08-05 13:56:08</time>
      </trkpt>
      <trkpt lat="37.06806" lon="-3.37515">
        <ele>2941.4</ele>
        <time>2021-08-05 13:56:09</time>
      </trkpt>
      <trkpt lat="37.06806" lon="-3.37514">
        <ele>2941.4</ele>
        <time>2021-08-05 13:56:10</time>
      </trkpt>
      <trkpt lat="37.06805" lon="-3.37515">
        <ele>2941.4</ele>
        <time>2021-08-05 13:56:11</time>
      </trkpt>
      <trkpt lat="37.06805" lon="-3.37514">
        <ele>2941.4</ele>
        <time>2021-08-05 13:56:12</time>
      </trkpt>
      <trkpt lat="37.06804" lon="-3.37513">
        <ele>2941.4</ele>
        <time>2021-08-05 13:56:13</time>
      </trkpt>
      <trkpt lat="37.06803" lon="-3.37513">
        <ele>2941.6</ele>
        <time>2021-08-05 13:56:14</time>
      </trkpt>
      <trkpt lat="37.06802" lon="-3.37508">
        <ele>2941.6</ele>
        <time>2021-08-05 13:56:15</time>
      </trkpt>
      <trkpt lat="37.06802" lon="-3.37508">
        <ele>2941.6</ele>
        <time>2021-08-05 13:56:16</time>
      </trkpt>
      <trkpt lat="37.06801" lon="-3.37507">
        <ele>2941.8</ele>
        <time>2021-08-05 13:56:17</time>
      </trkpt>
      <trkpt lat="37.06801" lon="-3.37507">
        <ele>2941.8</ele>
        <time>2021-08-05 13:56:18</time>
      </trkpt>
      <trkpt lat="37.068" lon="-3.37508">
        <ele>2942</ele>
        <time>2021-08-05 13:56:19</time>
      </trkpt>
      <trkpt lat="37.068" lon="-3.37506">
        <ele>2942</ele>
        <time>2021-08-05 13:56:20</time>
      </trkpt>
      <trkpt lat="37.06799" lon="-3.37507">
        <ele>2942.2</ele>
        <time>2021-08-05 13:56:21</time>
      </trkpt>
      <trkpt lat="37.06798" lon="-3.37507">
        <ele>2942.2</ele>
        <time>2021-08-05 13:56:22</time>
      </trkpt>
      <trkpt lat="37.06798" lon="-3.37506">
        <ele>2942.2</ele>
        <time>2021-08-05 13:56:23</time>
      </trkpt>
      <trkpt lat="37.06798" lon="-3.37507">
        <ele>2942.2</ele>
        <time>2021-08-05 13:56:24</time>
      </trkpt>
      <trkpt lat="37.06797" lon="-3.37507">
        <ele>2942.2</ele>
        <time>2021-08-05 13:56:25</time>
      </trkpt>
      <trkpt lat="37.06796" lon="-3.37506">
        <ele>2942.2</ele>
        <time>2021-08-05 13:56:26</time>
      </trkpt>
      <trkpt lat="37.06798" lon="-3.37503">
        <ele>2942.2</ele>
        <time>2021-08-05 13:56:27</time>
      </trkpt>
      <trkpt lat="37.06799" lon="-3.37502">
        <ele>2942.4</ele>
        <time>2021-08-05 13:56:28</time>
      </trkpt>
      <trkpt lat="37.06799" lon="-3.37502">
        <ele>2942.4</ele>
        <time>2021-08-05 13:56:29</time>
      </trkpt>
      <trkpt lat="37.06798" lon="-3.37502">
        <ele>2942.4</ele>
        <time>2021-08-05 13:56:30</time>
      </trkpt>
      <trkpt lat="37.06797" lon="-3.37503">
        <ele>2942.4</ele>
        <time>2021-08-05 13:56:31</time>
      </trkpt>
      <trkpt lat="37.06797" lon="-3.37503">
        <ele>2942.2</ele>
        <time>2021-08-05 13:56:32</time>
      </trkpt>
      <trkpt lat="37.06797" lon="-3.37502">
        <ele>2942.2</ele>
        <time>2021-08-05 13:56:33</time>
      </trkpt>
      <trkpt lat="37.06797" lon="-3.37502">
        <ele>2942.2</ele>
        <time>2021-08-05 13:56:34</time>
      </trkpt>
      <trkpt lat="37.06796" lon="-3.37502">
        <ele>2942</ele>
        <time>2021-08-05 13:56:35</time>
      </trkpt>
      <trkpt lat="37.06796" lon="-3.37502">
        <ele>2942.2</ele>
        <time>2021-08-05 13:56:36</time>
      </trkpt>
      <trkpt lat="37.06796" lon="-3.37501">
        <ele>2942.4</ele>
        <time>2021-08-05 13:56:37</time>
      </trkpt>
      <trkpt lat="37.06795" lon="-3.375">
        <ele>2942.4</ele>
        <time>2021-08-05 13:56:38</time>
      </trkpt>
      <trkpt lat="37.06794" lon="-3.375">
        <ele>2942.4</ele>
        <time>2021-08-05 13:56:39</time>
      </trkpt>
      <trkpt lat="37.06793" lon="-3.375">
        <ele>2942.4</ele>
        <time>2021-08-05 13:56:40</time>
      </trkpt>
      <trkpt lat="37.06793" lon="-3.37499">
        <ele>2942.4</ele>
        <time>2021-08-05 13:56:41</time>
      </trkpt>
      <trkpt lat="37.06793" lon="-3.37499">
        <ele>2942.4</ele>
        <time>2021-08-05 13:56:42</time>
      </trkpt>
      <trkpt lat="37.06792" lon="-3.37499">
        <ele>2942.6</ele>
        <time>2021-08-05 13:56:43</time>
      </trkpt>
      <trkpt lat="37.06792" lon="-3.37499">
        <ele>2942.6</ele>
        <time>2021-08-05 13:56:44</time>
      </trkpt>
      <trkpt lat="37.06791" lon="-3.37499">
        <ele>2942.6</ele>
        <time>2021-08-05 13:56:45</time>
      </trkpt>
      <trkpt lat="37.0679" lon="-3.37499">
        <ele>2942.6</ele>
        <time>2021-08-05 13:56:46</time>
      </trkpt>
      <trkpt lat="37.0679" lon="-3.37499">
        <ele>2942.6</ele>
        <time>2021-08-05 13:56:47</time>
      </trkpt>
      <trkpt lat="37.06788" lon="-3.37498">
        <ele>2942.6</ele>
        <time>2021-08-05 13:56:48</time>
      </trkpt>
      <trkpt lat="37.06788" lon="-3.37498">
        <ele>2942.8</ele>
        <time>2021-08-05 13:56:49</time>
      </trkpt>
      <trkpt lat="37.06788" lon="-3.37498">
        <ele>2942.8</ele>
        <time>2021-08-05 13:56:50</time>
      </trkpt>
      <trkpt lat="37.06788" lon="-3.37496">
        <ele>2942.6</ele>
        <time>2021-08-05 13:56:51</time>
      </trkpt>
      <trkpt lat="37.06788" lon="-3.37495">
        <ele>2942.6</ele>
        <time>2021-08-05 13:56:52</time>
      </trkpt>
      <trkpt lat="37.06788" lon="-3.37494">
        <ele>2942.6</ele>
        <time>2021-08-05 13:56:53</time>
      </trkpt>
      <trkpt lat="37.06788" lon="-3.37494">
        <ele>2942.6</ele>
        <time>2021-08-05 13:56:54</time>
      </trkpt>
      <trkpt lat="37.06788" lon="-3.37494">
        <ele>2942.6</ele>
        <time>2021-08-05 13:56:55</time>
      </trkpt>
      <trkpt lat="37.06787" lon="-3.37494">
        <ele>2942.6</ele>
        <time>2021-08-05 13:56:56</time>
      </trkpt>
      <trkpt lat="37.06786" lon="-3.37495">
        <ele>2942.6</ele>
        <time>2021-08-05 13:56:57</time>
      </trkpt>
      <trkpt lat="37.06785" lon="-3.37495">
        <ele>2942.6</ele>
        <time>2021-08-05 13:56:58</time>
      </trkpt>
      <trkpt lat="37.06784" lon="-3.37494">
        <ele>2942.8</ele>
        <time>2021-08-05 13:56:59</time>
      </trkpt>
      <trkpt lat="37.06783" lon="-3.37494">
        <ele>2943</ele>
        <time>2021-08-05 13:57:00</time>
      </trkpt>
      <trkpt lat="37.06782" lon="-3.37493">
        <ele>2943.2</ele>
        <time>2021-08-05 13:57:01</time>
      </trkpt>
      <trkpt lat="37.06781" lon="-3.37493">
        <ele>2943.2</ele>
        <time>2021-08-05 13:57:02</time>
      </trkpt>
      <trkpt lat="37.06778" lon="-3.37493">
        <ele>2943.2</ele>
        <time>2021-08-05 13:57:03</time>
      </trkpt>
      <trkpt lat="37.06776" lon="-3.37492">
        <ele>2943.2</ele>
        <time>2021-08-05 13:57:04</time>
      </trkpt>
      <trkpt lat="37.06775" lon="-3.37492">
        <ele>2943.2</ele>
        <time>2021-08-05 13:57:05</time>
      </trkpt>
      <trkpt lat="37.06773" lon="-3.37491">
        <ele>2943.2</ele>
        <time>2021-08-05 13:57:06</time>
      </trkpt>
      <trkpt lat="37.06772" lon="-3.37491">
        <ele>2943.2</ele>
        <time>2021-08-05 13:57:07</time>
      </trkpt>
      <trkpt lat="37.06772" lon="-3.37492">
        <ele>2943.2</ele>
        <time>2021-08-05 13:57:08</time>
      </trkpt>
      <trkpt lat="37.06772" lon="-3.37491">
        <ele>2943.2</ele>
        <time>2021-08-05 13:57:09</time>
      </trkpt>
      <trkpt lat="37.06772" lon="-3.37491">
        <ele>2943.2</ele>
        <time>2021-08-05 13:57:10</time>
      </trkpt>
      <trkpt lat="37.06773" lon="-3.3749">
        <ele>2943.2</ele>
        <time>2021-08-05 13:57:11</time>
      </trkpt>
      <trkpt lat="37.06773" lon="-3.37489">
        <ele>2943.4</ele>
        <time>2021-08-05 13:57:12</time>
      </trkpt>
      <trkpt lat="37.06775" lon="-3.37486">
        <ele>2943.6</ele>
        <time>2021-08-05 13:57:13</time>
      </trkpt>
      <trkpt lat="37.06775" lon="-3.37485">
        <ele>2943.6</ele>
        <time>2021-08-05 13:57:14</time>
      </trkpt>
      <trkpt lat="37.06775" lon="-3.37485">
        <ele>2943.6</ele>
        <time>2021-08-05 13:57:15</time>
      </trkpt>
      <trkpt lat="37.06774" lon="-3.37485">
        <ele>2943.6</ele>
        <time>2021-08-05 13:57:16</time>
      </trkpt>
      <trkpt lat="37.06774" lon="-3.37485">
        <ele>2943.6</ele>
        <time>2021-08-05 13:57:17</time>
      </trkpt>
      <trkpt lat="37.06773" lon="-3.37484">
        <ele>2943.6</ele>
        <time>2021-08-05 13:57:18</time>
      </trkpt>
      <trkpt lat="37.06773" lon="-3.37483">
        <ele>2943.6</ele>
        <time>2021-08-05 13:57:19</time>
      </trkpt>
      <trkpt lat="37.06772" lon="-3.37482">
        <ele>2943.6</ele>
        <time>2021-08-05 13:57:20</time>
      </trkpt>
      <trkpt lat="37.06772" lon="-3.37482">
        <ele>2943.6</ele>
        <time>2021-08-05 13:57:21</time>
      </trkpt>
      <trkpt lat="37.06771" lon="-3.37482">
        <ele>2943.8</ele>
        <time>2021-08-05 13:57:22</time>
      </trkpt>
      <trkpt lat="37.0677" lon="-3.37482">
        <ele>2944</ele>
        <time>2021-08-05 13:57:23</time>
      </trkpt>
      <trkpt lat="37.0677" lon="-3.37481">
        <ele>2944</ele>
        <time>2021-08-05 13:57:24</time>
      </trkpt>
      <trkpt lat="37.0677" lon="-3.37481">
        <ele>2944.2</ele>
        <time>2021-08-05 13:57:25</time>
      </trkpt>
      <trkpt lat="37.06771" lon="-3.3748">
        <ele>2944.2</ele>
        <time>2021-08-05 13:57:26</time>
      </trkpt>
      <trkpt lat="37.06771" lon="-3.37481">
        <ele>2944.2</ele>
        <time>2021-08-05 13:57:27</time>
      </trkpt>
      <trkpt lat="37.0677" lon="-3.37481">
        <ele>2944.4</ele>
        <time>2021-08-05 13:57:28</time>
      </trkpt>
      <trkpt lat="37.06769" lon="-3.37482">
        <ele>2944.4</ele>
        <time>2021-08-05 13:57:29</time>
      </trkpt>
      <trkpt lat="37.06768" lon="-3.37482">
        <ele>2944.4</ele>
        <time>2021-08-05 13:57:30</time>
      </trkpt>
      <trkpt lat="37.06767" lon="-3.37481">
        <ele>2944.4</ele>
        <time>2021-08-05 13:57:31</time>
      </trkpt>
      <trkpt lat="37.06767" lon="-3.37481">
        <ele>2944.6</ele>
        <time>2021-08-05 13:57:32</time>
      </trkpt>
      <trkpt lat="37.06767" lon="-3.37481">
        <ele>2944.6</ele>
        <time>2021-08-05 13:57:33</time>
      </trkpt>
      <trkpt lat="37.06765" lon="-3.37481">
        <ele>2944.8</ele>
        <time>2021-08-05 13:57:34</time>
      </trkpt>
      <trkpt lat="37.06765" lon="-3.3748">
        <ele>2944.8</ele>
        <time>2021-08-05 13:57:35</time>
      </trkpt>
      <trkpt lat="37.06763" lon="-3.37481">
        <ele>2944.8</ele>
        <time>2021-08-05 13:57:36</time>
      </trkpt>
      <trkpt lat="37.06763" lon="-3.37481">
        <ele>2945</ele>
        <time>2021-08-05 13:57:37</time>
      </trkpt>
      <trkpt lat="37.06762" lon="-3.3748">
        <ele>2945</ele>
        <time>2021-08-05 13:57:38</time>
      </trkpt>
      <trkpt lat="37.06762" lon="-3.3748">
        <ele>2945</ele>
        <time>2021-08-05 13:57:39</time>
      </trkpt>
      <trkpt lat="37.06761" lon="-3.3748">
        <ele>2945</ele>
        <time>2021-08-05 13:57:40</time>
      </trkpt>
      <trkpt lat="37.06761" lon="-3.3748">
        <ele>2945.2</ele>
        <time>2021-08-05 13:57:41</time>
      </trkpt>
      <trkpt lat="37.06761" lon="-3.3748">
        <ele>2945.2</ele>
        <time>2021-08-05 13:57:42</time>
      </trkpt>
      <trkpt lat="37.06761" lon="-3.3748">
        <ele>2945.2</ele>
        <time>2021-08-05 13:57:43</time>
      </trkpt>
      <trkpt lat="37.06758" lon="-3.37479">
        <ele>2945.2</ele>
        <time>2021-08-05 13:57:44</time>
      </trkpt>
      <trkpt lat="37.06757" lon="-3.37479">
        <ele>2945.2</ele>
        <time>2021-08-05 13:57:45</time>
      </trkpt>
      <trkpt lat="37.06756" lon="-3.37479">
        <ele>2945.2</ele>
        <time>2021-08-05 13:57:46</time>
      </trkpt>
      <trkpt lat="37.06756" lon="-3.37479">
        <ele>2945.2</ele>
        <time>2021-08-05 13:57:47</time>
      </trkpt>
      <trkpt lat="37.06756" lon="-3.37479">
        <ele>2945</ele>
        <time>2021-08-05 13:57:48</time>
      </trkpt>
      <trkpt lat="37.06755" lon="-3.37478">
        <ele>2945</ele>
        <time>2021-08-05 13:57:49</time>
      </trkpt>
      <trkpt lat="37.06755" lon="-3.37477">
        <ele>2945.2</ele>
        <time>2021-08-05 13:57:50</time>
      </trkpt>
      <trkpt lat="37.06755" lon="-3.37476">
        <ele>2945.2</ele>
        <time>2021-08-05 13:57:51</time>
      </trkpt>
      <trkpt lat="37.06755" lon="-3.37474">
        <ele>2945.2</ele>
        <time>2021-08-05 13:57:52</time>
      </trkpt>
      <trkpt lat="37.06756" lon="-3.37472">
        <ele>2945.2</ele>
        <time>2021-08-05 13:57:53</time>
      </trkpt>
      <trkpt lat="37.06756" lon="-3.3747">
        <ele>2945.2</ele>
        <time>2021-08-05 13:57:54</time>
      </trkpt>
      <trkpt lat="37.06756" lon="-3.3747">
        <ele>2945.2</ele>
        <time>2021-08-05 13:57:55</time>
      </trkpt>
      <trkpt lat="37.06756" lon="-3.37469">
        <ele>2945.4</ele>
        <time>2021-08-05 13:57:56</time>
      </trkpt>
      <trkpt lat="37.06755" lon="-3.37468">
        <ele>2945.2</ele>
        <time>2021-08-05 13:57:57</time>
      </trkpt>
      <trkpt lat="37.06754" lon="-3.3747">
        <ele>2945</ele>
        <time>2021-08-05 13:57:58</time>
      </trkpt>
      <trkpt lat="37.06754" lon="-3.3747">
        <ele>2945</ele>
        <time>2021-08-05 13:57:59</time>
      </trkpt>
      <trkpt lat="37.06754" lon="-3.3747">
        <ele>2945.2</ele>
        <time>2021-08-05 13:58:00</time>
      </trkpt>
      <trkpt lat="37.06752" lon="-3.37472">
        <ele>2945.4</ele>
        <time>2021-08-05 13:58:01</time>
      </trkpt>
      <trkpt lat="37.06751" lon="-3.37472">
        <ele>2945.6</ele>
        <time>2021-08-05 13:58:02</time>
      </trkpt>
      <trkpt lat="37.06751" lon="-3.37471">
        <ele>2945.4</ele>
        <time>2021-08-05 13:58:03</time>
      </trkpt>
      <trkpt lat="37.06751" lon="-3.3747">
        <ele>2945.4</ele>
        <time>2021-08-05 13:58:04</time>
      </trkpt>
      <trkpt lat="37.0675" lon="-3.3747">
        <ele>2945.6</ele>
        <time>2021-08-05 13:58:05</time>
      </trkpt>
      <trkpt lat="37.06749" lon="-3.37469">
        <ele>2945.4</ele>
        <time>2021-08-05 13:58:06</time>
      </trkpt>
      <trkpt lat="37.06747" lon="-3.37468">
        <ele>2945.4</ele>
        <time>2021-08-05 13:58:07</time>
      </trkpt>
      <trkpt lat="37.06747" lon="-3.37467">
        <ele>2945.4</ele>
        <time>2021-08-05 13:58:08</time>
      </trkpt>
      <trkpt lat="37.06746" lon="-3.37466">
        <ele>2945.4</ele>
        <time>2021-08-05 13:58:09</time>
      </trkpt>
      <trkpt lat="37.06745" lon="-3.37465">
        <ele>2945.4</ele>
        <time>2021-08-05 13:58:10</time>
      </trkpt>
      <trkpt lat="37.06745" lon="-3.37464">
        <ele>2945.4</ele>
        <time>2021-08-05 13:58:11</time>
      </trkpt>
      <trkpt lat="37.06745" lon="-3.37463">
        <ele>2945.6</ele>
        <time>2021-08-05 13:58:12</time>
      </trkpt>
      <trkpt lat="37.06745" lon="-3.37462">
        <ele>2945.6</ele>
        <time>2021-08-05 13:58:13</time>
      </trkpt>
      <trkpt lat="37.06745" lon="-3.37461">
        <ele>2945.8</ele>
        <time>2021-08-05 13:58:14</time>
      </trkpt>
      <trkpt lat="37.06745" lon="-3.3746">
        <ele>2946</ele>
        <time>2021-08-05 13:58:15</time>
      </trkpt>
      <trkpt lat="37.06745" lon="-3.3746">
        <ele>2946</ele>
        <time>2021-08-05 13:58:16</time>
      </trkpt>
      <trkpt lat="37.06744" lon="-3.37461">
        <ele>2946</ele>
        <time>2021-08-05 13:58:17</time>
      </trkpt>
      <trkpt lat="37.06743" lon="-3.37461">
        <ele>2946</ele>
        <time>2021-08-05 13:58:18</time>
      </trkpt>
      <trkpt lat="37.06741" lon="-3.37462">
        <ele>2946</ele>
        <time>2021-08-05 13:58:19</time>
      </trkpt>
      <trkpt lat="37.0674" lon="-3.37463">
        <ele>2946</ele>
        <time>2021-08-05 13:58:20</time>
      </trkpt>
      <trkpt lat="37.06739" lon="-3.37463">
        <ele>2946</ele>
        <time>2021-08-05 13:58:21</time>
      </trkpt>
      <trkpt lat="37.06738" lon="-3.37464">
        <ele>2946.2</ele>
        <time>2021-08-05 13:58:22</time>
      </trkpt>
      <trkpt lat="37.06735" lon="-3.37465">
        <ele>2946.2</ele>
        <time>2021-08-05 13:58:23</time>
      </trkpt>
      <trkpt lat="37.06734" lon="-3.37465">
        <ele>2946.2</ele>
        <time>2021-08-05 13:58:24</time>
      </trkpt>
      <trkpt lat="37.06732" lon="-3.37466">
        <ele>2946.2</ele>
        <time>2021-08-05 13:58:25</time>
      </trkpt>
      <trkpt lat="37.0673" lon="-3.37467">
        <ele>2946.2</ele>
        <time>2021-08-05 13:58:26</time>
      </trkpt>
      <trkpt lat="37.0673" lon="-3.37468">
        <ele>2946.2</ele>
        <time>2021-08-05 13:58:27</time>
      </trkpt>
      <trkpt lat="37.0673" lon="-3.37468">
        <ele>2946.2</ele>
        <time>2021-08-05 13:58:28</time>
      </trkpt>
      <trkpt lat="37.06729" lon="-3.37469">
        <ele>2946.2</ele>
        <time>2021-08-05 13:58:29</time>
      </trkpt>
      <trkpt lat="37.06725" lon="-3.37474">
        <ele>2946.4</ele>
        <time>2021-08-05 13:58:30</time>
      </trkpt>
      <trkpt lat="37.06724" lon="-3.37475">
        <ele>2946.4</ele>
        <time>2021-08-05 13:58:31</time>
      </trkpt>
      <trkpt lat="37.06724" lon="-3.37474">
        <ele>2946.6</ele>
        <time>2021-08-05 13:58:32</time>
      </trkpt>
      <trkpt lat="37.06724" lon="-3.37474">
        <ele>2946.8</ele>
        <time>2021-08-05 13:58:33</time>
      </trkpt>
      <trkpt lat="37.06724" lon="-3.37472">
        <ele>2946.8</ele>
        <time>2021-08-05 13:58:34</time>
      </trkpt>
      <trkpt lat="37.06721" lon="-3.37473">
        <ele>2947</ele>
        <time>2021-08-05 13:58:35</time>
      </trkpt>
      <trkpt lat="37.06723" lon="-3.37469">
        <ele>2947</ele>
        <time>2021-08-05 13:58:36</time>
      </trkpt>
      <trkpt lat="37.06724" lon="-3.37468">
        <ele>2947</ele>
        <time>2021-08-05 13:58:37</time>
      </trkpt>
      <trkpt lat="37.06722" lon="-3.37469">
        <ele>2946.8</ele>
        <time>2021-08-05 13:58:38</time>
      </trkpt>
      <trkpt lat="37.06721" lon="-3.37469">
        <ele>2947</ele>
        <time>2021-08-05 13:58:39</time>
      </trkpt>
      <trkpt lat="37.0672" lon="-3.3747">
        <ele>2947</ele>
        <time>2021-08-05 13:58:40</time>
      </trkpt>
      <trkpt lat="37.06722" lon="-3.37465">
        <ele>2947</ele>
        <time>2021-08-05 13:58:41</time>
      </trkpt>
      <trkpt lat="37.06723" lon="-3.37461">
        <ele>2947</ele>
        <time>2021-08-05 13:58:42</time>
      </trkpt>
      <trkpt lat="37.06724" lon="-3.37461">
        <ele>2947</ele>
        <time>2021-08-05 13:58:43</time>
      </trkpt>
      <trkpt lat="37.06724" lon="-3.37461">
        <ele>2947</ele>
        <time>2021-08-05 13:58:44</time>
      </trkpt>
      <trkpt lat="37.06723" lon="-3.37461">
        <ele>2947</ele>
        <time>2021-08-05 13:58:45</time>
      </trkpt>
      <trkpt lat="37.06722" lon="-3.37461">
        <ele>2947</ele>
        <time>2021-08-05 13:58:46</time>
      </trkpt>
      <trkpt lat="37.06721" lon="-3.3746">
        <ele>2947</ele>
        <time>2021-08-05 13:58:47</time>
      </trkpt>
      <trkpt lat="37.0672" lon="-3.37459">
        <ele>2947</ele>
        <time>2021-08-05 13:58:48</time>
      </trkpt>
      <trkpt lat="37.06719" lon="-3.37458">
        <ele>2947</ele>
        <time>2021-08-05 13:58:49</time>
      </trkpt>
      <trkpt lat="37.06719" lon="-3.37458">
        <ele>2947.2</ele>
        <time>2021-08-05 13:58:50</time>
      </trkpt>
      <trkpt lat="37.06718" lon="-3.37458">
        <ele>2947.2</ele>
        <time>2021-08-05 13:58:51</time>
      </trkpt>
      <trkpt lat="37.06717" lon="-3.37458">
        <ele>2947.4</ele>
        <time>2021-08-05 13:58:52</time>
      </trkpt>
      <trkpt lat="37.06717" lon="-3.37458">
        <ele>2947.4</ele>
        <time>2021-08-05 13:58:53</time>
      </trkpt>
      <trkpt lat="37.06716" lon="-3.37457">
        <ele>2947.6</ele>
        <time>2021-08-05 13:58:54</time>
      </trkpt>
      <trkpt lat="37.06717" lon="-3.37455">
        <ele>2947.4</ele>
        <time>2021-08-05 13:58:55</time>
      </trkpt>
      <trkpt lat="37.06718" lon="-3.37453">
        <ele>2947.6</ele>
        <time>2021-08-05 13:58:56</time>
      </trkpt>
      <trkpt lat="37.06717" lon="-3.37452">
        <ele>2947.6</ele>
        <time>2021-08-05 13:58:57</time>
      </trkpt>
      <trkpt lat="37.06717" lon="-3.37449">
        <ele>2947.6</ele>
        <time>2021-08-05 13:58:58</time>
      </trkpt>
      <trkpt lat="37.06717" lon="-3.37449">
        <ele>2947.6</ele>
        <time>2021-08-05 13:58:59</time>
      </trkpt>
      <trkpt lat="37.06717" lon="-3.37449">
        <ele>2947.6</ele>
        <time>2021-08-05 13:59:00</time>
      </trkpt>
      <trkpt lat="37.06716" lon="-3.37449">
        <ele>2947.6</ele>
        <time>2021-08-05 13:59:01</time>
      </trkpt>
      <trkpt lat="37.06715" lon="-3.3745">
        <ele>2947.8</ele>
        <time>2021-08-05 13:59:02</time>
      </trkpt>
      <trkpt lat="37.06715" lon="-3.3745">
        <ele>2948</ele>
        <time>2021-08-05 13:59:03</time>
      </trkpt>
      <trkpt lat="37.06713" lon="-3.3745">
        <ele>2948</ele>
        <time>2021-08-05 13:59:04</time>
      </trkpt>
      <trkpt lat="37.06713" lon="-3.37449">
        <ele>2948</ele>
        <time>2021-08-05 13:59:05</time>
      </trkpt>
      <trkpt lat="37.06712" lon="-3.37449">
        <ele>2948</ele>
        <time>2021-08-05 13:59:06</time>
      </trkpt>
      <trkpt lat="37.06711" lon="-3.3745">
        <ele>2948</ele>
        <time>2021-08-05 13:59:07</time>
      </trkpt>
      <trkpt lat="37.06711" lon="-3.3745">
        <ele>2948</ele>
        <time>2021-08-05 13:59:08</time>
      </trkpt>
      <trkpt lat="37.0671" lon="-3.3745">
        <ele>2948</ele>
        <time>2021-08-05 13:59:09</time>
      </trkpt>
      <trkpt lat="37.06711" lon="-3.37449">
        <ele>2947.8</ele>
        <time>2021-08-05 13:59:10</time>
      </trkpt>
      <trkpt lat="37.0671" lon="-3.37449">
        <ele>2948</ele>
        <time>2021-08-05 13:59:11</time>
      </trkpt>
      <trkpt lat="37.06709" lon="-3.37449">
        <ele>2947.8</ele>
        <time>2021-08-05 13:59:12</time>
      </trkpt>
      <trkpt lat="37.06708" lon="-3.37448">
        <ele>2947.8</ele>
        <time>2021-08-05 13:59:13</time>
      </trkpt>
      <trkpt lat="37.06707" lon="-3.37447">
        <ele>2948</ele>
        <time>2021-08-05 13:59:14</time>
      </trkpt>
      <trkpt lat="37.06706" lon="-3.37446">
        <ele>2948.2</ele>
        <time>2021-08-05 13:59:15</time>
      </trkpt>
      <trkpt lat="37.06705" lon="-3.37446">
        <ele>2948.2</ele>
        <time>2021-08-05 13:59:16</time>
      </trkpt>
      <trkpt lat="37.06705" lon="-3.37446">
        <ele>2948.2</ele>
        <time>2021-08-05 13:59:17</time>
      </trkpt>
      <trkpt lat="37.06705" lon="-3.37446">
        <ele>2948.2</ele>
        <time>2021-08-05 13:59:18</time>
      </trkpt>
      <trkpt lat="37.06704" lon="-3.37445">
        <ele>2948.2</ele>
        <time>2021-08-05 13:59:19</time>
      </trkpt>
      <trkpt lat="37.06704" lon="-3.37444">
        <ele>2948.8</ele>
        <time>2021-08-05 13:59:20</time>
      </trkpt>
      <trkpt lat="37.06704" lon="-3.37444">
        <ele>2949</ele>
        <time>2021-08-05 13:59:21</time>
      </trkpt>
      <trkpt lat="37.06703" lon="-3.37446">
        <ele>2949.2</ele>
        <time>2021-08-05 13:59:22</time>
      </trkpt>
      <trkpt lat="37.06702" lon="-3.37446">
        <ele>2949.2</ele>
        <time>2021-08-05 13:59:23</time>
      </trkpt>
      <trkpt lat="37.06702" lon="-3.37448">
        <ele>2949.2</ele>
        <time>2021-08-05 13:59:24</time>
      </trkpt>
      <trkpt lat="37.06702" lon="-3.37449">
        <ele>2949.2</ele>
        <time>2021-08-05 13:59:25</time>
      </trkpt>
      <trkpt lat="37.06701" lon="-3.37449">
        <ele>2949.2</ele>
        <time>2021-08-05 13:59:26</time>
      </trkpt>
      <trkpt lat="37.06701" lon="-3.37453">
        <ele>2949.2</ele>
        <time>2021-08-05 13:59:27</time>
      </trkpt>
      <trkpt lat="37.06701" lon="-3.37453">
        <ele>2949.2</ele>
        <time>2021-08-05 13:59:28</time>
      </trkpt>
      <trkpt lat="37.06701" lon="-3.37453">
        <ele>2949.4</ele>
        <time>2021-08-05 13:59:29</time>
      </trkpt>
      <trkpt lat="37.067" lon="-3.37453">
        <ele>2949.4</ele>
        <time>2021-08-05 13:59:30</time>
      </trkpt>
      <trkpt lat="37.067" lon="-3.37453">
        <ele>2949.8</ele>
        <time>2021-08-05 13:59:31</time>
      </trkpt>
      <trkpt lat="37.06698" lon="-3.37454">
        <ele>2949.8</ele>
        <time>2021-08-05 13:59:32</time>
      </trkpt>
      <trkpt lat="37.06697" lon="-3.37454">
        <ele>2950</ele>
        <time>2021-08-05 13:59:33</time>
      </trkpt>
      <trkpt lat="37.06697" lon="-3.37454">
        <ele>2950.2</ele>
        <time>2021-08-05 13:59:34</time>
      </trkpt>
      <trkpt lat="37.06695" lon="-3.37454">
        <ele>2950.2</ele>
        <time>2021-08-05 13:59:35</time>
      </trkpt>
      <trkpt lat="37.06694" lon="-3.37454">
        <ele>2950.4</ele>
        <time>2021-08-05 13:59:36</time>
      </trkpt>
      <trkpt lat="37.06691" lon="-3.37453">
        <ele>2950.4</ele>
        <time>2021-08-05 13:59:37</time>
      </trkpt>
      <trkpt lat="37.06691" lon="-3.37453">
        <ele>2950.4</ele>
        <time>2021-08-05 13:59:38</time>
      </trkpt>
      <trkpt lat="37.06691" lon="-3.37453">
        <ele>2950.4</ele>
        <time>2021-08-05 13:59:39</time>
      </trkpt>
      <trkpt lat="37.0669" lon="-3.37452">
        <ele>2950.4</ele>
        <time>2021-08-05 13:59:40</time>
      </trkpt>
      <trkpt lat="37.0669" lon="-3.37452">
        <ele>2950.4</ele>
        <time>2021-08-05 13:59:41</time>
      </trkpt>
      <trkpt lat="37.06689" lon="-3.37452">
        <ele>2950.4</ele>
        <time>2021-08-05 13:59:42</time>
      </trkpt>
      <trkpt lat="37.06689" lon="-3.37451">
        <ele>2950.6</ele>
        <time>2021-08-05 13:59:43</time>
      </trkpt>
      <trkpt lat="37.06688" lon="-3.3745">
        <ele>2950.6</ele>
        <time>2021-08-05 13:59:44</time>
      </trkpt>
      <trkpt lat="37.06686" lon="-3.37447">
        <ele>2950.8</ele>
        <time>2021-08-05 13:59:45</time>
      </trkpt>
      <trkpt lat="37.06686" lon="-3.37447">
        <ele>2950.8</ele>
        <time>2021-08-05 13:59:46</time>
      </trkpt>
      <trkpt lat="37.06685" lon="-3.37446">
        <ele>2950.8</ele>
        <time>2021-08-05 13:59:47</time>
      </trkpt>
      <trkpt lat="37.06683" lon="-3.37445">
        <ele>2951</ele>
        <time>2021-08-05 13:59:48</time>
      </trkpt>
      <trkpt lat="37.06683" lon="-3.37445">
        <ele>2951</ele>
        <time>2021-08-05 13:59:49</time>
      </trkpt>
      <trkpt lat="37.06682" lon="-3.37444">
        <ele>2951</ele>
        <time>2021-08-05 13:59:50</time>
      </trkpt>
      <trkpt lat="37.06681" lon="-3.37443">
        <ele>2951</ele>
        <time>2021-08-05 13:59:51</time>
      </trkpt>
      <trkpt lat="37.0668" lon="-3.37443">
        <ele>2951.2</ele>
        <time>2021-08-05 13:59:52</time>
      </trkpt>
      <trkpt lat="37.06679" lon="-3.37443">
        <ele>2951.6</ele>
        <time>2021-08-05 13:59:53</time>
      </trkpt>
      <trkpt lat="37.06678" lon="-3.37442">
        <ele>2951.8</ele>
        <time>2021-08-05 13:59:54</time>
      </trkpt>
      <trkpt lat="37.06678" lon="-3.37442">
        <ele>2951.8</ele>
        <time>2021-08-05 13:59:55</time>
      </trkpt>
      <trkpt lat="37.06677" lon="-3.37441">
        <ele>2951.8</ele>
        <time>2021-08-05 13:59:56</time>
      </trkpt>
      <trkpt lat="37.06676" lon="-3.37441">
        <ele>2952</ele>
        <time>2021-08-05 13:59:57</time>
      </trkpt>
      <trkpt lat="37.06675" lon="-3.37441">
        <ele>2952</ele>
        <time>2021-08-05 13:59:58</time>
      </trkpt>
      <trkpt lat="37.06675" lon="-3.37441">
        <ele>2952.2</ele>
        <time>2021-08-05 13:59:59</time>
      </trkpt>
      <trkpt lat="37.06674" lon="-3.37441">
        <ele>2952.2</ele>
        <time>2021-08-05 14:00:00</time>
      </trkpt>
      <trkpt lat="37.06673" lon="-3.37441">
        <ele>2952.4</ele>
        <time>2021-08-05 14:00:01</time>
      </trkpt>
      <trkpt lat="37.06673" lon="-3.37441">
        <ele>2952.6</ele>
        <time>2021-08-05 14:00:02</time>
      </trkpt>
      <trkpt lat="37.06672" lon="-3.3744">
        <ele>2952.8</ele>
        <time>2021-08-05 14:00:03</time>
      </trkpt>
      <trkpt lat="37.06672" lon="-3.3744">
        <ele>2953</ele>
        <time>2021-08-05 14:00:04</time>
      </trkpt>
      <trkpt lat="37.06671" lon="-3.3744">
        <ele>2952.4</ele>
        <time>2021-08-05 14:00:05</time>
      </trkpt>
      <trkpt lat="37.06671" lon="-3.3744">
        <ele>2952.4</ele>
        <time>2021-08-05 14:00:06</time>
      </trkpt>
      <trkpt lat="37.0667" lon="-3.3744">
        <ele>2952.6</ele>
        <time>2021-08-05 14:00:07</time>
      </trkpt>
      <trkpt lat="37.06669" lon="-3.37439">
        <ele>2952.6</ele>
        <time>2021-08-05 14:00:08</time>
      </trkpt>
      <trkpt lat="37.06669" lon="-3.37439">
        <ele>2952.8</ele>
        <time>2021-08-05 14:00:09</time>
      </trkpt>
      <trkpt lat="37.06668" lon="-3.37439">
        <ele>2952.8</ele>
        <time>2021-08-05 14:00:10</time>
      </trkpt>
      <trkpt lat="37.06667" lon="-3.37439">
        <ele>2952.8</ele>
        <time>2021-08-05 14:00:11</time>
      </trkpt>
      <trkpt lat="37.06665" lon="-3.37438">
        <ele>2952.8</ele>
        <time>2021-08-05 14:00:12</time>
      </trkpt>
      <trkpt lat="37.06665" lon="-3.37438">
        <ele>2952.8</ele>
        <time>2021-08-05 14:00:13</time>
      </trkpt>
      <trkpt lat="37.06665" lon="-3.37438">
        <ele>2952.8</ele>
        <time>2021-08-05 14:00:14</time>
      </trkpt>
      <trkpt lat="37.06664" lon="-3.37438">
        <ele>2952.8</ele>
        <time>2021-08-05 14:00:15</time>
      </trkpt>
      <trkpt lat="37.06663" lon="-3.37437">
        <ele>2952.8</ele>
        <time>2021-08-05 14:00:16</time>
      </trkpt>
      <trkpt lat="37.06663" lon="-3.37437">
        <ele>2952.8</ele>
        <time>2021-08-05 14:00:17</time>
      </trkpt>
      <trkpt lat="37.0666" lon="-3.37436">
        <ele>2952.8</ele>
        <time>2021-08-05 14:00:18</time>
      </trkpt>
      <trkpt lat="37.0666" lon="-3.37436">
        <ele>2952.8</ele>
        <time>2021-08-05 14:00:19</time>
      </trkpt>
      <trkpt lat="37.0666" lon="-3.37435">
        <ele>2953</ele>
        <time>2021-08-05 14:00:20</time>
      </trkpt>
      <trkpt lat="37.06659" lon="-3.37435">
        <ele>2953</ele>
        <time>2021-08-05 14:00:21</time>
      </trkpt>
      <trkpt lat="37.06658" lon="-3.37434">
        <ele>2953.2</ele>
        <time>2021-08-05 14:00:22</time>
      </trkpt>
      <trkpt lat="37.06656" lon="-3.37434">
        <ele>2953.4</ele>
        <time>2021-08-05 14:00:23</time>
      </trkpt>
      <trkpt lat="37.06656" lon="-3.37434">
        <ele>2953.2</ele>
        <time>2021-08-05 14:00:24</time>
      </trkpt>
      <trkpt lat="37.06656" lon="-3.37434">
        <ele>2953.2</ele>
        <time>2021-08-05 14:00:25</time>
      </trkpt>
      <trkpt lat="37.06654" lon="-3.37435">
        <ele>2953.2</ele>
        <time>2021-08-05 14:00:26</time>
      </trkpt>
      <trkpt lat="37.06654" lon="-3.37435">
        <ele>2953.2</ele>
        <time>2021-08-05 14:00:27</time>
      </trkpt>
      <trkpt lat="37.06653" lon="-3.37435">
        <ele>2953.2</ele>
        <time>2021-08-05 14:00:28</time>
      </trkpt>
      <trkpt lat="37.06652" lon="-3.37435">
        <ele>2953.4</ele>
        <time>2021-08-05 14:00:29</time>
      </trkpt>
      <trkpt lat="37.06652" lon="-3.37435">
        <ele>2953.4</ele>
        <time>2021-08-05 14:00:30</time>
      </trkpt>
      <trkpt lat="37.06652" lon="-3.37435">
        <ele>2953.4</ele>
        <time>2021-08-05 14:00:31</time>
      </trkpt>
      <trkpt lat="37.06651" lon="-3.37434">
        <ele>2953.6</ele>
        <time>2021-08-05 14:00:32</time>
      </trkpt>
      <trkpt lat="37.06651" lon="-3.37434">
        <ele>2953.8</ele>
        <time>2021-08-05 14:00:33</time>
      </trkpt>
      <trkpt lat="37.06649" lon="-3.37436">
        <ele>2954</ele>
        <time>2021-08-05 14:00:34</time>
      </trkpt>
      <trkpt lat="37.06649" lon="-3.37436">
        <ele>2954</ele>
        <time>2021-08-05 14:00:35</time>
      </trkpt>
      <trkpt lat="37.06648" lon="-3.37435">
        <ele>2954.2</ele>
        <time>2021-08-05 14:00:36</time>
      </trkpt>
      <trkpt lat="37.06647" lon="-3.37436">
        <ele>2954.4</ele>
        <time>2021-08-05 14:00:37</time>
      </trkpt>
      <trkpt lat="37.06647" lon="-3.37436">
        <ele>2954.4</ele>
        <time>2021-08-05 14:00:38</time>
      </trkpt>
      <trkpt lat="37.06647" lon="-3.37436">
        <ele>2954.6</ele>
        <time>2021-08-05 14:00:39</time>
      </trkpt>
      <trkpt lat="37.06647" lon="-3.37436">
        <ele>2954.8</ele>
        <time>2021-08-05 14:00:40</time>
      </trkpt>
      <trkpt lat="37.06646" lon="-3.37436">
        <ele>2954.8</ele>
        <time>2021-08-05 14:00:41</time>
      </trkpt>
      <trkpt lat="37.06646" lon="-3.37436">
        <ele>2954.8</ele>
        <time>2021-08-05 14:00:42</time>
      </trkpt>
      <trkpt lat="37.06645" lon="-3.37435">
        <ele>2954.8</ele>
        <time>2021-08-05 14:00:43</time>
      </trkpt>
      <trkpt lat="37.06644" lon="-3.37435">
        <ele>2954.8</ele>
        <time>2021-08-05 14:00:44</time>
      </trkpt>
      <trkpt lat="37.06644" lon="-3.37435">
        <ele>2954.8</ele>
        <time>2021-08-05 14:00:45</time>
      </trkpt>
      <trkpt lat="37.06643" lon="-3.37435">
        <ele>2954.8</ele>
        <time>2021-08-05 14:00:46</time>
      </trkpt>
      <trkpt lat="37.06642" lon="-3.37434">
        <ele>2954.8</ele>
        <time>2021-08-05 14:00:47</time>
      </trkpt>
      <trkpt lat="37.06641" lon="-3.37434">
        <ele>2954.6</ele>
        <time>2021-08-05 14:00:48</time>
      </trkpt>
      <trkpt lat="37.0664" lon="-3.37435">
        <ele>2954.6</ele>
        <time>2021-08-05 14:00:49</time>
      </trkpt>
      <trkpt lat="37.06638" lon="-3.37434">
        <ele>2954.6</ele>
        <time>2021-08-05 14:00:50</time>
      </trkpt>
      <trkpt lat="37.06638" lon="-3.37434">
        <ele>2954.8</ele>
        <time>2021-08-05 14:00:51</time>
      </trkpt>
      <trkpt lat="37.06637" lon="-3.37434">
        <ele>2954.8</ele>
        <time>2021-08-05 14:00:52</time>
      </trkpt>
      <trkpt lat="37.06637" lon="-3.37434">
        <ele>2954.8</ele>
        <time>2021-08-05 14:00:53</time>
      </trkpt>
      <trkpt lat="37.06636" lon="-3.37433">
        <ele>2954.8</ele>
        <time>2021-08-05 14:00:54</time>
      </trkpt>
      <trkpt lat="37.06636" lon="-3.37433">
        <ele>2955</ele>
        <time>2021-08-05 14:00:55</time>
      </trkpt>
      <trkpt lat="37.06636" lon="-3.37432">
        <ele>2955.2</ele>
        <time>2021-08-05 14:00:56</time>
      </trkpt>
      <trkpt lat="37.06635" lon="-3.37431">
        <ele>2955.2</ele>
        <time>2021-08-05 14:00:57</time>
      </trkpt>
      <trkpt lat="37.06635" lon="-3.37431">
        <ele>2955.2</ele>
        <time>2021-08-05 14:00:58</time>
      </trkpt>
      <trkpt lat="37.06634" lon="-3.37431">
        <ele>2955.4</ele>
        <time>2021-08-05 14:00:59</time>
      </trkpt>
      <trkpt lat="37.06633" lon="-3.3743">
        <ele>2955.4</ele>
        <time>2021-08-05 14:01:00</time>
      </trkpt>
      <trkpt lat="37.06632" lon="-3.3743">
        <ele>2955.6</ele>
        <time>2021-08-05 14:01:01</time>
      </trkpt>
      <trkpt lat="37.06632" lon="-3.3743">
        <ele>2955.6</ele>
        <time>2021-08-05 14:01:02</time>
      </trkpt>
      <trkpt lat="37.06631" lon="-3.37429">
        <ele>2955.8</ele>
        <time>2021-08-05 14:01:03</time>
      </trkpt>
      <trkpt lat="37.06631" lon="-3.37429">
        <ele>2955.8</ele>
        <time>2021-08-05 14:01:04</time>
      </trkpt>
      <trkpt lat="37.06631" lon="-3.37429">
        <ele>2955.8</ele>
        <time>2021-08-05 14:01:05</time>
      </trkpt>
      <trkpt lat="37.0663" lon="-3.37428">
        <ele>2955.8</ele>
        <time>2021-08-05 14:01:06</time>
      </trkpt>
      <trkpt lat="37.0663" lon="-3.37427">
        <ele>2955.8</ele>
        <time>2021-08-05 14:01:07</time>
      </trkpt>
      <trkpt lat="37.06629" lon="-3.37426">
        <ele>2955.8</ele>
        <time>2021-08-05 14:01:08</time>
      </trkpt>
      <trkpt lat="37.06629" lon="-3.37425">
        <ele>2955.6</ele>
        <time>2021-08-05 14:01:09</time>
      </trkpt>
      <trkpt lat="37.06628" lon="-3.37425">
        <ele>2955.6</ele>
        <time>2021-08-05 14:01:10</time>
      </trkpt>
      <trkpt lat="37.06628" lon="-3.37425">
        <ele>2955.4</ele>
        <time>2021-08-05 14:01:11</time>
      </trkpt>
      <trkpt lat="37.06628" lon="-3.37425">
        <ele>2955.4</ele>
        <time>2021-08-05 14:01:12</time>
      </trkpt>
      <trkpt lat="37.06627" lon="-3.37424">
        <ele>2955.6</ele>
        <time>2021-08-05 14:01:13</time>
      </trkpt>
      <trkpt lat="37.06627" lon="-3.37423">
        <ele>2955.6</ele>
        <time>2021-08-05 14:01:14</time>
      </trkpt>
      <trkpt lat="37.06626" lon="-3.37423">
        <ele>2955.8</ele>
        <time>2021-08-05 14:01:15</time>
      </trkpt>
      <trkpt lat="37.06625" lon="-3.37422">
        <ele>2956</ele>
        <time>2021-08-05 14:01:16</time>
      </trkpt>
      <trkpt lat="37.06625" lon="-3.37422">
        <ele>2956.2</ele>
        <time>2021-08-05 14:01:17</time>
      </trkpt>
      <trkpt lat="37.06624" lon="-3.37422">
        <ele>2956.2</ele>
        <time>2021-08-05 14:01:18</time>
      </trkpt>
      <trkpt lat="37.06623" lon="-3.37422">
        <ele>2956.2</ele>
        <time>2021-08-05 14:01:19</time>
      </trkpt>
      <trkpt lat="37.06623" lon="-3.37422">
        <ele>2956.4</ele>
        <time>2021-08-05 14:01:20</time>
      </trkpt>
      <trkpt lat="37.06622" lon="-3.37422">
        <ele>2956.4</ele>
        <time>2021-08-05 14:01:21</time>
      </trkpt>
      <trkpt lat="37.06622" lon="-3.37422">
        <ele>2956.4</ele>
        <time>2021-08-05 14:01:22</time>
      </trkpt>
      <trkpt lat="37.06621" lon="-3.37422">
        <ele>2956.4</ele>
        <time>2021-08-05 14:01:23</time>
      </trkpt>
      <trkpt lat="37.06621" lon="-3.37422">
        <ele>2956.6</ele>
        <time>2021-08-05 14:01:24</time>
      </trkpt>
      <trkpt lat="37.06621" lon="-3.37422">
        <ele>2956.6</ele>
        <time>2021-08-05 14:01:25</time>
      </trkpt>
      <trkpt lat="37.0662" lon="-3.37421">
        <ele>2956.6</ele>
        <time>2021-08-05 14:01:26</time>
      </trkpt>
      <trkpt lat="37.0662" lon="-3.37421">
        <ele>2956.6</ele>
        <time>2021-08-05 14:01:27</time>
      </trkpt>
      <trkpt lat="37.0662" lon="-3.3742">
        <ele>2956.8</ele>
        <time>2021-08-05 14:01:28</time>
      </trkpt>
      <trkpt lat="37.06619" lon="-3.37419">
        <ele>2956.8</ele>
        <time>2021-08-05 14:01:29</time>
      </trkpt>
      <trkpt lat="37.06619" lon="-3.37419">
        <ele>2956.8</ele>
        <time>2021-08-05 14:01:30</time>
      </trkpt>
      <trkpt lat="37.06618" lon="-3.37418">
        <ele>2956.8</ele>
        <time>2021-08-05 14:01:31</time>
      </trkpt>
      <trkpt lat="37.06618" lon="-3.37418">
        <ele>2957</ele>
        <time>2021-08-05 14:01:32</time>
      </trkpt>
      <trkpt lat="37.06617" lon="-3.37417">
        <ele>2957</ele>
        <time>2021-08-05 14:01:33</time>
      </trkpt>
      <trkpt lat="37.06616" lon="-3.37418">
        <ele>2957.4</ele>
        <time>2021-08-05 14:01:34</time>
      </trkpt>
      <trkpt lat="37.06616" lon="-3.37417">
        <ele>2957.4</ele>
        <time>2021-08-05 14:01:35</time>
      </trkpt>
      <trkpt lat="37.06615" lon="-3.37417">
        <ele>2957.6</ele>
        <time>2021-08-05 14:01:36</time>
      </trkpt>
      <trkpt lat="37.06615" lon="-3.37417">
        <ele>2957.6</ele>
        <time>2021-08-05 14:01:37</time>
      </trkpt>
      <trkpt lat="37.06614" lon="-3.37417">
        <ele>2957.6</ele>
        <time>2021-08-05 14:01:38</time>
      </trkpt>
      <trkpt lat="37.06613" lon="-3.37417">
        <ele>2957.6</ele>
        <time>2021-08-05 14:01:39</time>
      </trkpt>
      <trkpt lat="37.06612" lon="-3.37417">
        <ele>2957.6</ele>
        <time>2021-08-05 14:01:40</time>
      </trkpt>
      <trkpt lat="37.06612" lon="-3.37416">
        <ele>2957.6</ele>
        <time>2021-08-05 14:01:41</time>
      </trkpt>
      <trkpt lat="37.0661" lon="-3.37417">
        <ele>2957.6</ele>
        <time>2021-08-05 14:01:42</time>
      </trkpt>
      <trkpt lat="37.06609" lon="-3.37417">
        <ele>2957.6</ele>
        <time>2021-08-05 14:01:43</time>
      </trkpt>
      <trkpt lat="37.06609" lon="-3.37417">
        <ele>2957.8</ele>
        <time>2021-08-05 14:01:44</time>
      </trkpt>
      <trkpt lat="37.06608" lon="-3.37418">
        <ele>2957.8</ele>
        <time>2021-08-05 14:01:45</time>
      </trkpt>
      <trkpt lat="37.06608" lon="-3.37418">
        <ele>2957.8</ele>
        <time>2021-08-05 14:01:46</time>
      </trkpt>
      <trkpt lat="37.06608" lon="-3.37418">
        <ele>2958</ele>
        <time>2021-08-05 14:01:47</time>
      </trkpt>
      <trkpt lat="37.06607" lon="-3.37417">
        <ele>2958.2</ele>
        <time>2021-08-05 14:01:48</time>
      </trkpt>
      <trkpt lat="37.06606" lon="-3.37417">
        <ele>2958.2</ele>
        <time>2021-08-05 14:01:49</time>
      </trkpt>
      <trkpt lat="37.06606" lon="-3.37415">
        <ele>2958.4</ele>
        <time>2021-08-05 14:01:50</time>
      </trkpt>
      <trkpt lat="37.06605" lon="-3.37415">
        <ele>2958.4</ele>
        <time>2021-08-05 14:01:51</time>
      </trkpt>
      <trkpt lat="37.06604" lon="-3.37413">
        <ele>2958.4</ele>
        <time>2021-08-05 14:01:52</time>
      </trkpt>
      <trkpt lat="37.06603" lon="-3.37413">
        <ele>2958.6</ele>
        <time>2021-08-05 14:01:53</time>
      </trkpt>
      <trkpt lat="37.06603" lon="-3.37412">
        <ele>2958.8</ele>
        <time>2021-08-05 14:01:54</time>
      </trkpt>
      <trkpt lat="37.06602" lon="-3.37412">
        <ele>2958.8</ele>
        <time>2021-08-05 14:01:55</time>
      </trkpt>
      <trkpt lat="37.06602" lon="-3.37412">
        <ele>2959</ele>
        <time>2021-08-05 14:01:56</time>
      </trkpt>
      <trkpt lat="37.06601" lon="-3.37412">
        <ele>2959</ele>
        <time>2021-08-05 14:01:57</time>
      </trkpt>
      <trkpt lat="37.06601" lon="-3.37411">
        <ele>2959</ele>
        <time>2021-08-05 14:01:58</time>
      </trkpt>
      <trkpt lat="37.06601" lon="-3.37411">
        <ele>2959</ele>
        <time>2021-08-05 14:01:59</time>
      </trkpt>
      <trkpt lat="37.06601" lon="-3.3741">
        <ele>2959</ele>
        <time>2021-08-05 14:02:00</time>
      </trkpt>
      <trkpt lat="37.06601" lon="-3.3741">
        <ele>2959</ele>
        <time>2021-08-05 14:02:01</time>
      </trkpt>
      <trkpt lat="37.06601" lon="-3.3741">
        <ele>2959</ele>
        <time>2021-08-05 14:02:02</time>
      </trkpt>
      <trkpt lat="37.06601" lon="-3.3741">
        <ele>2959</ele>
        <time>2021-08-05 14:02:03</time>
      </trkpt>
      <trkpt lat="37.06601" lon="-3.37408">
        <ele>2958.8</ele>
        <time>2021-08-05 14:02:04</time>
      </trkpt>
      <trkpt lat="37.06601" lon="-3.37408">
        <ele>2958.8</ele>
        <time>2021-08-05 14:02:05</time>
      </trkpt>
      <trkpt lat="37.06601" lon="-3.37408">
        <ele>2958.8</ele>
        <time>2021-08-05 14:02:06</time>
      </trkpt>
      <trkpt lat="37.06601" lon="-3.37408">
        <ele>2958.8</ele>
        <time>2021-08-05 14:02:07</time>
      </trkpt>
      <trkpt lat="37.066" lon="-3.37408">
        <ele>2959</ele>
        <time>2021-08-05 14:02:08</time>
      </trkpt>
      <trkpt lat="37.066" lon="-3.37409">
        <ele>2959</ele>
        <time>2021-08-05 14:02:09</time>
      </trkpt>
      <trkpt lat="37.06599" lon="-3.37408">
        <ele>2959</ele>
        <time>2021-08-05 14:02:10</time>
      </trkpt>
      <trkpt lat="37.06598" lon="-3.37408">
        <ele>2959</ele>
        <time>2021-08-05 14:02:11</time>
      </trkpt>
      <trkpt lat="37.06597" lon="-3.37408">
        <ele>2959</ele>
        <time>2021-08-05 14:02:12</time>
      </trkpt>
      <trkpt lat="37.06596" lon="-3.37408">
        <ele>2959</ele>
        <time>2021-08-05 14:02:13</time>
      </trkpt>
      <trkpt lat="37.06596" lon="-3.37407">
        <ele>2959</ele>
        <time>2021-08-05 14:02:14</time>
      </trkpt>
      <trkpt lat="37.06596" lon="-3.37407">
        <ele>2959</ele>
        <time>2021-08-05 14:02:15</time>
      </trkpt>
      <trkpt lat="37.06595" lon="-3.37407">
        <ele>2959</ele>
        <time>2021-08-05 14:02:16</time>
      </trkpt>
      <trkpt lat="37.06595" lon="-3.37407">
        <ele>2959</ele>
        <time>2021-08-05 14:02:17</time>
      </trkpt>
      <trkpt lat="37.06595" lon="-3.37407">
        <ele>2959</ele>
        <time>2021-08-05 14:02:18</time>
      </trkpt>
      <trkpt lat="37.06594" lon="-3.37408">
        <ele>2959.4</ele>
        <time>2021-08-05 14:02:19</time>
      </trkpt>
      <trkpt lat="37.06594" lon="-3.37409">
        <ele>2959.6</ele>
        <time>2021-08-05 14:02:20</time>
      </trkpt>
      <trkpt lat="37.06594" lon="-3.37407">
        <ele>2959.6</ele>
        <time>2021-08-05 14:02:21</time>
      </trkpt>
      <trkpt lat="37.06593" lon="-3.37406">
        <ele>2959.8</ele>
        <time>2021-08-05 14:02:22</time>
      </trkpt>
      <trkpt lat="37.06593" lon="-3.37405">
        <ele>2959.8</ele>
        <time>2021-08-05 14:02:23</time>
      </trkpt>
      <trkpt lat="37.06592" lon="-3.37404">
        <ele>2959.8</ele>
        <time>2021-08-05 14:02:24</time>
      </trkpt>
      <trkpt lat="37.06592" lon="-3.37404">
        <ele>2959.8</ele>
        <time>2021-08-05 14:02:25</time>
      </trkpt>
      <trkpt lat="37.06592" lon="-3.37403">
        <ele>2959.8</ele>
        <time>2021-08-05 14:02:26</time>
      </trkpt>
      <trkpt lat="37.06592" lon="-3.37403">
        <ele>2959.8</ele>
        <time>2021-08-05 14:02:27</time>
      </trkpt>
      <trkpt lat="37.06591" lon="-3.37402">
        <ele>2959.8</ele>
        <time>2021-08-05 14:02:28</time>
      </trkpt>
      <trkpt lat="37.06591" lon="-3.37402">
        <ele>2959.8</ele>
        <time>2021-08-05 14:02:29</time>
      </trkpt>
      <trkpt lat="37.06591" lon="-3.37402">
        <ele>2960</ele>
        <time>2021-08-05 14:02:30</time>
      </trkpt>
      <trkpt lat="37.0659" lon="-3.37402">
        <ele>2960</ele>
        <time>2021-08-05 14:02:31</time>
      </trkpt>
      <trkpt lat="37.0659" lon="-3.37402">
        <ele>2960.4</ele>
        <time>2021-08-05 14:02:32</time>
      </trkpt>
      <trkpt lat="37.06589" lon="-3.37402">
        <ele>2960.6</ele>
        <time>2021-08-05 14:02:33</time>
      </trkpt>
      <trkpt lat="37.06589" lon="-3.37402">
        <ele>2960.6</ele>
        <time>2021-08-05 14:02:34</time>
      </trkpt>
      <trkpt lat="37.06587" lon="-3.37402">
        <ele>2960.8</ele>
        <time>2021-08-05 14:02:35</time>
      </trkpt>
      <trkpt lat="37.06587" lon="-3.37402">
        <ele>2960.8</ele>
        <time>2021-08-05 14:02:36</time>
      </trkpt>
      <trkpt lat="37.06587" lon="-3.37402">
        <ele>2961</ele>
        <time>2021-08-05 14:02:37</time>
      </trkpt>
      <trkpt lat="37.06585" lon="-3.37401">
        <ele>2961</ele>
        <time>2021-08-05 14:02:38</time>
      </trkpt>
      <trkpt lat="37.06585" lon="-3.37401">
        <ele>2961</ele>
        <time>2021-08-05 14:02:39</time>
      </trkpt>
      <trkpt lat="37.06585" lon="-3.37401">
        <ele>2961.2</ele>
        <time>2021-08-05 14:02:40</time>
      </trkpt>
      <trkpt lat="37.06585" lon="-3.37401">
        <ele>2961.2</ele>
        <time>2021-08-05 14:02:41</time>
      </trkpt>
      <trkpt lat="37.06585" lon="-3.374">
        <ele>2961.2</ele>
        <time>2021-08-05 14:02:42</time>
      </trkpt>
      <trkpt lat="37.06585" lon="-3.374">
        <ele>2961</ele>
        <time>2021-08-05 14:02:43</time>
      </trkpt>
      <trkpt lat="37.06585" lon="-3.37401">
        <ele>2961.2</ele>
        <time>2021-08-05 14:02:44</time>
      </trkpt>
      <trkpt lat="37.06585" lon="-3.374">
        <ele>2961.2</ele>
        <time>2021-08-05 14:02:45</time>
      </trkpt>
      <trkpt lat="37.06585" lon="-3.374">
        <ele>2961</ele>
        <time>2021-08-05 14:02:46</time>
      </trkpt>
      <trkpt lat="37.06585" lon="-3.374">
        <ele>2961</ele>
        <time>2021-08-05 14:02:47</time>
      </trkpt>
      <trkpt lat="37.06585" lon="-3.374">
        <ele>2961</ele>
        <time>2021-08-05 14:02:48</time>
      </trkpt>
      <trkpt lat="37.06586" lon="-3.374">
        <ele>2960.8</ele>
        <time>2021-08-05 14:02:49</time>
      </trkpt>
      <trkpt lat="37.06585" lon="-3.374">
        <ele>2960.8</ele>
        <time>2021-08-05 14:02:50</time>
      </trkpt>
      <trkpt lat="37.06585" lon="-3.374">
        <ele>2960.8</ele>
        <time>2021-08-05 14:02:51</time>
      </trkpt>
      <trkpt lat="37.06585" lon="-3.37401">
        <ele>2960.8</ele>
        <time>2021-08-05 14:02:52</time>
      </trkpt>
      <trkpt lat="37.06584" lon="-3.37401">
        <ele>2960.8</ele>
        <time>2021-08-05 14:02:53</time>
      </trkpt>
      <trkpt lat="37.06584" lon="-3.374">
        <ele>2961</ele>
        <time>2021-08-05 14:02:54</time>
      </trkpt>
      <trkpt lat="37.06582" lon="-3.374">
        <ele>2961</ele>
        <time>2021-08-05 14:02:55</time>
      </trkpt>
      <trkpt lat="37.06582" lon="-3.374">
        <ele>2961.2</ele>
        <time>2021-08-05 14:02:56</time>
      </trkpt>
      <trkpt lat="37.06582" lon="-3.374">
        <ele>2961.4</ele>
        <time>2021-08-05 14:02:57</time>
      </trkpt>
      <trkpt lat="37.06581" lon="-3.37401">
        <ele>2961.2</ele>
        <time>2021-08-05 14:02:58</time>
      </trkpt>
      <trkpt lat="37.0658" lon="-3.37401">
        <ele>2961.2</ele>
        <time>2021-08-05 14:02:59</time>
      </trkpt>
      <trkpt lat="37.06579" lon="-3.374">
        <ele>2961.2</ele>
        <time>2021-08-05 14:03:00</time>
      </trkpt>
      <trkpt lat="37.06579" lon="-3.374">
        <ele>2961.2</ele>
        <time>2021-08-05 14:03:01</time>
      </trkpt>
      <trkpt lat="37.06578" lon="-3.37399">
        <ele>2961.4</ele>
        <time>2021-08-05 14:03:02</time>
      </trkpt>
      <trkpt lat="37.06578" lon="-3.37399">
        <ele>2961.4</ele>
        <time>2021-08-05 14:03:03</time>
      </trkpt>
      <trkpt lat="37.06576" lon="-3.37399">
        <ele>2961.6</ele>
        <time>2021-08-05 14:03:04</time>
      </trkpt>
      <trkpt lat="37.06575" lon="-3.37399">
        <ele>2961.6</ele>
        <time>2021-08-05 14:03:05</time>
      </trkpt>
      <trkpt lat="37.06575" lon="-3.37399">
        <ele>2961.6</ele>
        <time>2021-08-05 14:03:06</time>
      </trkpt>
      <trkpt lat="37.06573" lon="-3.37399">
        <ele>2961.6</ele>
        <time>2021-08-05 14:03:07</time>
      </trkpt>
      <trkpt lat="37.06573" lon="-3.37399">
        <ele>2961.6</ele>
        <time>2021-08-05 14:03:08</time>
      </trkpt>
      <trkpt lat="37.06572" lon="-3.37399">
        <ele>2961.6</ele>
        <time>2021-08-05 14:03:09</time>
      </trkpt>
      <trkpt lat="37.06571" lon="-3.37399">
        <ele>2961.6</ele>
        <time>2021-08-05 14:03:10</time>
      </trkpt>
      <trkpt lat="37.0657" lon="-3.37399">
        <ele>2961.6</ele>
        <time>2021-08-05 14:03:11</time>
      </trkpt>
      <trkpt lat="37.06569" lon="-3.374">
        <ele>2961.4</ele>
        <time>2021-08-05 14:03:12</time>
      </trkpt>
      <trkpt lat="37.06569" lon="-3.374">
        <ele>2961.4</ele>
        <time>2021-08-05 14:03:13</time>
      </trkpt>
      <trkpt lat="37.06568" lon="-3.37401">
        <ele>2961.2</ele>
        <time>2021-08-05 14:03:14</time>
      </trkpt>
      <trkpt lat="37.06567" lon="-3.37401">
        <ele>2961.2</ele>
        <time>2021-08-05 14:03:15</time>
      </trkpt>
      <trkpt lat="37.06566" lon="-3.37401">
        <ele>2961</ele>
        <time>2021-08-05 14:03:16</time>
      </trkpt>
      <trkpt lat="37.06565" lon="-3.37401">
        <ele>2961</ele>
        <time>2021-08-05 14:03:17</time>
      </trkpt>
      <trkpt lat="37.06564" lon="-3.37401">
        <ele>2961</ele>
        <time>2021-08-05 14:03:18</time>
      </trkpt>
      <trkpt lat="37.06564" lon="-3.37401">
        <ele>2961</ele>
        <time>2021-08-05 14:03:19</time>
      </trkpt>
      <trkpt lat="37.06563" lon="-3.37401">
        <ele>2961</ele>
        <time>2021-08-05 14:03:20</time>
      </trkpt>
      <trkpt lat="37.06562" lon="-3.37401">
        <ele>2961</ele>
        <time>2021-08-05 14:03:21</time>
      </trkpt>
      <trkpt lat="37.06561" lon="-3.37401">
        <ele>2961</ele>
        <time>2021-08-05 14:03:22</time>
      </trkpt>
      <trkpt lat="37.06561" lon="-3.374">
        <ele>2961.2</ele>
        <time>2021-08-05 14:03:23</time>
      </trkpt>
      <trkpt lat="37.0656" lon="-3.374">
        <ele>2961.2</ele>
        <time>2021-08-05 14:03:24</time>
      </trkpt>
      <trkpt lat="37.06559" lon="-3.37399">
        <ele>2961.2</ele>
        <time>2021-08-05 14:03:25</time>
      </trkpt>
      <trkpt lat="37.06558" lon="-3.37398">
        <ele>2961.2</ele>
        <time>2021-08-05 14:03:26</time>
      </trkpt>
      <trkpt lat="37.06558" lon="-3.37397">
        <ele>2961.2</ele>
        <time>2021-08-05 14:03:27</time>
      </trkpt>
      <trkpt lat="37.06556" lon="-3.37395">
        <ele>2961.2</ele>
        <time>2021-08-05 14:03:28</time>
      </trkpt>
      <trkpt lat="37.06556" lon="-3.37394">
        <ele>2961.4</ele>
        <time>2021-08-05 14:03:29</time>
      </trkpt>
      <trkpt lat="37.06556" lon="-3.37393">
        <ele>2961.4</ele>
        <time>2021-08-05 14:03:30</time>
      </trkpt>
      <trkpt lat="37.06556" lon="-3.37393">
        <ele>2961.4</ele>
        <time>2021-08-05 14:03:31</time>
      </trkpt>
      <trkpt lat="37.06556" lon="-3.37392">
        <ele>2961.4</ele>
        <time>2021-08-05 14:03:32</time>
      </trkpt>
      <trkpt lat="37.06556" lon="-3.37392">
        <ele>2961.4</ele>
        <time>2021-08-05 14:03:33</time>
      </trkpt>
      <trkpt lat="37.06556" lon="-3.37392">
        <ele>2961.4</ele>
        <time>2021-08-05 14:03:34</time>
      </trkpt>
      <trkpt lat="37.06555" lon="-3.37391">
        <ele>2961.6</ele>
        <time>2021-08-05 14:03:35</time>
      </trkpt>
      <trkpt lat="37.06555" lon="-3.3739">
        <ele>2961.4</ele>
        <time>2021-08-05 14:03:36</time>
      </trkpt>
      <trkpt lat="37.06554" lon="-3.3739">
        <ele>2961.6</ele>
        <time>2021-08-05 14:03:37</time>
      </trkpt>
      <trkpt lat="37.06554" lon="-3.37388">
        <ele>2961.6</ele>
        <time>2021-08-05 14:03:38</time>
      </trkpt>
      <trkpt lat="37.06554" lon="-3.37388">
        <ele>2961.6</ele>
        <time>2021-08-05 14:03:39</time>
      </trkpt>
      <trkpt lat="37.06554" lon="-3.37388">
        <ele>2961.8</ele>
        <time>2021-08-05 14:03:40</time>
      </trkpt>
      <trkpt lat="37.06553" lon="-3.37388">
        <ele>2961.8</ele>
        <time>2021-08-05 14:03:41</time>
      </trkpt>
      <trkpt lat="37.06553" lon="-3.37388">
        <ele>2961.8</ele>
        <time>2021-08-05 14:03:42</time>
      </trkpt>
      <trkpt lat="37.06552" lon="-3.37387">
        <ele>2961.8</ele>
        <time>2021-08-05 14:03:43</time>
      </trkpt>
      <trkpt lat="37.06552" lon="-3.37387">
        <ele>2962</ele>
        <time>2021-08-05 14:03:44</time>
      </trkpt>
      <trkpt lat="37.06552" lon="-3.37387">
        <ele>2962</ele>
        <time>2021-08-05 14:03:45</time>
      </trkpt>
      <trkpt lat="37.06552" lon="-3.37386">
        <ele>2962.2</ele>
        <time>2021-08-05 14:03:46</time>
      </trkpt>
      <trkpt lat="37.06551" lon="-3.37386">
        <ele>2962.4</ele>
        <time>2021-08-05 14:03:47</time>
      </trkpt>
      <trkpt lat="37.06551" lon="-3.37385">
        <ele>2962.4</ele>
        <time>2021-08-05 14:03:48</time>
      </trkpt>
      <trkpt lat="37.0655" lon="-3.37384">
        <ele>2962.4</ele>
        <time>2021-08-05 14:03:49</time>
      </trkpt>
      <trkpt lat="37.0655" lon="-3.37384">
        <ele>2962.6</ele>
        <time>2021-08-05 14:03:50</time>
      </trkpt>
      <trkpt lat="37.06549" lon="-3.37384">
        <ele>2962.6</ele>
        <time>2021-08-05 14:03:51</time>
      </trkpt>
      <trkpt lat="37.06549" lon="-3.37384">
        <ele>2962.6</ele>
        <time>2021-08-05 14:03:52</time>
      </trkpt>
      <trkpt lat="37.06549" lon="-3.37383">
        <ele>2962.6</ele>
        <time>2021-08-05 14:03:53</time>
      </trkpt>
      <trkpt lat="37.06548" lon="-3.37383">
        <ele>2962.6</ele>
        <time>2021-08-05 14:03:54</time>
      </trkpt>
      <trkpt lat="37.06547" lon="-3.37382">
        <ele>2962.8</ele>
        <time>2021-08-05 14:03:55</time>
      </trkpt>
      <trkpt lat="37.06547" lon="-3.37381">
        <ele>2962.8</ele>
        <time>2021-08-05 14:03:56</time>
      </trkpt>
      <trkpt lat="37.06546" lon="-3.37381">
        <ele>2962.8</ele>
        <time>2021-08-05 14:03:57</time>
      </trkpt>
      <trkpt lat="37.06545" lon="-3.3738">
        <ele>2962.8</ele>
        <time>2021-08-05 14:03:58</time>
      </trkpt>
      <trkpt lat="37.06544" lon="-3.37379">
        <ele>2963</ele>
        <time>2021-08-05 14:03:59</time>
      </trkpt>
      <trkpt lat="37.06544" lon="-3.37379">
        <ele>2963.2</ele>
        <time>2021-08-05 14:04:00</time>
      </trkpt>
      <trkpt lat="37.06543" lon="-3.37379">
        <ele>2963.2</ele>
        <time>2021-08-05 14:04:01</time>
      </trkpt>
      <trkpt lat="37.06543" lon="-3.37379">
        <ele>2963.4</ele>
        <time>2021-08-05 14:04:02</time>
      </trkpt>
      <trkpt lat="37.06542" lon="-3.3738">
        <ele>2963.4</ele>
        <time>2021-08-05 14:04:03</time>
      </trkpt>
      <trkpt lat="37.06542" lon="-3.37381">
        <ele>2963.2</ele>
        <time>2021-08-05 14:04:04</time>
      </trkpt>
      <trkpt lat="37.06542" lon="-3.37381">
        <ele>2963.2</ele>
        <time>2021-08-05 14:04:05</time>
      </trkpt>
      <trkpt lat="37.06542" lon="-3.37381">
        <ele>2963.4</ele>
        <time>2021-08-05 14:04:06</time>
      </trkpt>
      <trkpt lat="37.06542" lon="-3.3738">
        <ele>2963.2</ele>
        <time>2021-08-05 14:04:07</time>
      </trkpt>
      <trkpt lat="37.06541" lon="-3.3738">
        <ele>2963.4</ele>
        <time>2021-08-05 14:04:08</time>
      </trkpt>
      <trkpt lat="37.06541" lon="-3.37379">
        <ele>2963.4</ele>
        <time>2021-08-05 14:04:09</time>
      </trkpt>
      <trkpt lat="37.06541" lon="-3.37378">
        <ele>2963.4</ele>
        <time>2021-08-05 14:04:10</time>
      </trkpt>
      <trkpt lat="37.0654" lon="-3.37377">
        <ele>2963.6</ele>
        <time>2021-08-05 14:04:11</time>
      </trkpt>
      <trkpt lat="37.06539" lon="-3.37377">
        <ele>2963.8</ele>
        <time>2021-08-05 14:04:12</time>
      </trkpt>
      <trkpt lat="37.06539" lon="-3.37375">
        <ele>2964</ele>
        <time>2021-08-05 14:04:13</time>
      </trkpt>
      <trkpt lat="37.06538" lon="-3.37374">
        <ele>2964.2</ele>
        <time>2021-08-05 14:04:14</time>
      </trkpt>
      <trkpt lat="37.06538" lon="-3.37373">
        <ele>2964.4</ele>
        <time>2021-08-05 14:04:15</time>
      </trkpt>
      <trkpt lat="37.06538" lon="-3.37373">
        <ele>2964.4</ele>
        <time>2021-08-05 14:04:16</time>
      </trkpt>
      <trkpt lat="37.06537" lon="-3.37373">
        <ele>2964.4</ele>
        <time>2021-08-05 14:04:17</time>
      </trkpt>
      <trkpt lat="37.06536" lon="-3.37373">
        <ele>2964.6</ele>
        <time>2021-08-05 14:04:18</time>
      </trkpt>
      <trkpt lat="37.06536" lon="-3.37372">
        <ele>2964.8</ele>
        <time>2021-08-05 14:04:19</time>
      </trkpt>
      <trkpt lat="37.06535" lon="-3.37372">
        <ele>2964.8</ele>
        <time>2021-08-05 14:04:20</time>
      </trkpt>
      <trkpt lat="37.06535" lon="-3.37371">
        <ele>2965</ele>
        <time>2021-08-05 14:04:21</time>
      </trkpt>
      <trkpt lat="37.06534" lon="-3.37371">
        <ele>2965.2</ele>
        <time>2021-08-05 14:04:22</time>
      </trkpt>
      <trkpt lat="37.06534" lon="-3.37371">
        <ele>2965.4</ele>
        <time>2021-08-05 14:04:23</time>
      </trkpt>
      <trkpt lat="37.06533" lon="-3.3737">
        <ele>2965.6</ele>
        <time>2021-08-05 14:04:24</time>
      </trkpt>
      <trkpt lat="37.06533" lon="-3.3737">
        <ele>2965.8</ele>
        <time>2021-08-05 14:04:25</time>
      </trkpt>
      <trkpt lat="37.06533" lon="-3.3737">
        <ele>2966</ele>
        <time>2021-08-05 14:04:26</time>
      </trkpt>
      <trkpt lat="37.06533" lon="-3.3737">
        <ele>2966.2</ele>
        <time>2021-08-05 14:04:27</time>
      </trkpt>
      <trkpt lat="37.06533" lon="-3.3737">
        <ele>2966.4</ele>
        <time>2021-08-05 14:04:28</time>
      </trkpt>
      <trkpt lat="37.06533" lon="-3.37369">
        <ele>2966.4</ele>
        <time>2021-08-05 14:04:29</time>
      </trkpt>
      <trkpt lat="37.06533" lon="-3.37369">
        <ele>2966.4</ele>
        <time>2021-08-05 14:04:30</time>
      </trkpt>
      <trkpt lat="37.06533" lon="-3.37368">
        <ele>2966.4</ele>
        <time>2021-08-05 14:04:31</time>
      </trkpt>
      <trkpt lat="37.06534" lon="-3.37368">
        <ele>2966.4</ele>
        <time>2021-08-05 14:04:32</time>
      </trkpt>
      <trkpt lat="37.06534" lon="-3.37369">
        <ele>2966.6</ele>
        <time>2021-08-05 14:04:33</time>
      </trkpt>
      <trkpt lat="37.06533" lon="-3.37367">
        <ele>2966.6</ele>
        <time>2021-08-05 14:04:34</time>
      </trkpt>
      <trkpt lat="37.06533" lon="-3.37367">
        <ele>2966.6</ele>
        <time>2021-08-05 14:04:35</time>
      </trkpt>
      <trkpt lat="37.06532" lon="-3.37366">
        <ele>2966.6</ele>
        <time>2021-08-05 14:04:36</time>
      </trkpt>
      <trkpt lat="37.06532" lon="-3.37366">
        <ele>2966.8</ele>
        <time>2021-08-05 14:04:37</time>
      </trkpt>
      <trkpt lat="37.06531" lon="-3.37366">
        <ele>2967</ele>
        <time>2021-08-05 14:04:38</time>
      </trkpt>
      <trkpt lat="37.0653" lon="-3.37366">
        <ele>2967.2</ele>
        <time>2021-08-05 14:04:39</time>
      </trkpt>
      <trkpt lat="37.0653" lon="-3.37366">
        <ele>2967.4</ele>
        <time>2021-08-05 14:04:40</time>
      </trkpt>
      <trkpt lat="37.06529" lon="-3.37365">
        <ele>2967.6</ele>
        <time>2021-08-05 14:04:41</time>
      </trkpt>
      <trkpt lat="37.06529" lon="-3.37364">
        <ele>2967.6</ele>
        <time>2021-08-05 14:04:42</time>
      </trkpt>
      <trkpt lat="37.06528" lon="-3.37364">
        <ele>2967.8</ele>
        <time>2021-08-05 14:04:43</time>
      </trkpt>
      <trkpt lat="37.06528" lon="-3.37365">
        <ele>2967.8</ele>
        <time>2021-08-05 14:04:44</time>
      </trkpt>
      <trkpt lat="37.06527" lon="-3.37366">
        <ele>2968</ele>
        <time>2021-08-05 14:04:45</time>
      </trkpt>
      <trkpt lat="37.06527" lon="-3.37367">
        <ele>2968.2</ele>
        <time>2021-08-05 14:04:46</time>
      </trkpt>
      <trkpt lat="37.06527" lon="-3.37367">
        <ele>2968.4</ele>
        <time>2021-08-05 14:04:47</time>
      </trkpt>
      <trkpt lat="37.06527" lon="-3.37367">
        <ele>2968.4</ele>
        <time>2021-08-05 14:04:48</time>
      </trkpt>
      <trkpt lat="37.06527" lon="-3.37367">
        <ele>2968.4</ele>
        <time>2021-08-05 14:04:49</time>
      </trkpt>
      <trkpt lat="37.06528" lon="-3.37368">
        <ele>2968.4</ele>
        <time>2021-08-05 14:04:50</time>
      </trkpt>
      <trkpt lat="37.06528" lon="-3.37368">
        <ele>2968.6</ele>
        <time>2021-08-05 14:04:51</time>
      </trkpt>
      <trkpt lat="37.06528" lon="-3.37368">
        <ele>2968.4</ele>
        <time>2021-08-05 14:04:52</time>
      </trkpt>
      <trkpt lat="37.06528" lon="-3.37368">
        <ele>2968.4</ele>
        <time>2021-08-05 14:04:53</time>
      </trkpt>
      <trkpt lat="37.06528" lon="-3.37368">
        <ele>2968.4</ele>
        <time>2021-08-05 14:04:54</time>
      </trkpt>
      <trkpt lat="37.06528" lon="-3.37368">
        <ele>2968.4</ele>
        <time>2021-08-05 14:04:55</time>
      </trkpt>
      <trkpt lat="37.06528" lon="-3.37368">
        <ele>2968.4</ele>
        <time>2021-08-05 14:04:56</time>
      </trkpt>
      <trkpt lat="37.06529" lon="-3.37368">
        <ele>2968.4</ele>
        <time>2021-08-05 14:04:57</time>
      </trkpt>
      <trkpt lat="37.06529" lon="-3.37368">
        <ele>2968.4</ele>
        <time>2021-08-05 14:04:58</time>
      </trkpt>
      <trkpt lat="37.06529" lon="-3.37367">
        <ele>2968.6</ele>
        <time>2021-08-05 14:04:59</time>
      </trkpt>
      <trkpt lat="37.06528" lon="-3.37366">
        <ele>2968.6</ele>
        <time>2021-08-05 14:05:00</time>
      </trkpt>
      <trkpt lat="37.06527" lon="-3.37366">
        <ele>2968.8</ele>
        <time>2021-08-05 14:05:01</time>
      </trkpt>
      <trkpt lat="37.06526" lon="-3.37365">
        <ele>2968.8</ele>
        <time>2021-08-05 14:05:02</time>
      </trkpt>
      <trkpt lat="37.06526" lon="-3.37365">
        <ele>2968.8</ele>
        <time>2021-08-05 14:05:03</time>
      </trkpt>
      <trkpt lat="37.06525" lon="-3.37364">
        <ele>2969</ele>
        <time>2021-08-05 14:05:04</time>
      </trkpt>
      <trkpt lat="37.06525" lon="-3.37365">
        <ele>2969.2</ele>
        <time>2021-08-05 14:05:05</time>
      </trkpt>
      <trkpt lat="37.06524" lon="-3.37364">
        <ele>2969.2</ele>
        <time>2021-08-05 14:05:06</time>
      </trkpt>
      <trkpt lat="37.06524" lon="-3.37364">
        <ele>2969.4</ele>
        <time>2021-08-05 14:05:07</time>
      </trkpt>
      <trkpt lat="37.06523" lon="-3.37364">
        <ele>2969.6</ele>
        <time>2021-08-05 14:05:08</time>
      </trkpt>
      <trkpt lat="37.06523" lon="-3.37363">
        <ele>2969.6</ele>
        <time>2021-08-05 14:05:09</time>
      </trkpt>
      <trkpt lat="37.06523" lon="-3.37363">
        <ele>2969.8</ele>
        <time>2021-08-05 14:05:10</time>
      </trkpt>
      <trkpt lat="37.06522" lon="-3.37362">
        <ele>2969.8</ele>
        <time>2021-08-05 14:05:11</time>
      </trkpt>
      <trkpt lat="37.06522" lon="-3.37362">
        <ele>2970</ele>
        <time>2021-08-05 14:05:12</time>
      </trkpt>
      <trkpt lat="37.06521" lon="-3.37362">
        <ele>2970</ele>
        <time>2021-08-05 14:05:13</time>
      </trkpt>
      <trkpt lat="37.0652" lon="-3.37362">
        <ele>2970.2</ele>
        <time>2021-08-05 14:05:14</time>
      </trkpt>
      <trkpt lat="37.0652" lon="-3.37361">
        <ele>2970.4</ele>
        <time>2021-08-05 14:05:15</time>
      </trkpt>
      <trkpt lat="37.0652" lon="-3.37361">
        <ele>2970.6</ele>
        <time>2021-08-05 14:05:16</time>
      </trkpt>
      <trkpt lat="37.06519" lon="-3.3736">
        <ele>2970.8</ele>
        <time>2021-08-05 14:05:17</time>
      </trkpt>
      <trkpt lat="37.06519" lon="-3.37359">
        <ele>2970.8</ele>
        <time>2021-08-05 14:05:18</time>
      </trkpt>
      <trkpt lat="37.06518" lon="-3.37359">
        <ele>2971</ele>
        <time>2021-08-05 14:05:19</time>
      </trkpt>
      <trkpt lat="37.06518" lon="-3.37359">
        <ele>2971</ele>
        <time>2021-08-05 14:05:20</time>
      </trkpt>
      <trkpt lat="37.06517" lon="-3.37359">
        <ele>2971.4</ele>
        <time>2021-08-05 14:05:21</time>
      </trkpt>
      <trkpt lat="37.06517" lon="-3.37359">
        <ele>2971.8</ele>
        <time>2021-08-05 14:05:22</time>
      </trkpt>
      <trkpt lat="37.06517" lon="-3.37359">
        <ele>2972</ele>
        <time>2021-08-05 14:05:23</time>
      </trkpt>
      <trkpt lat="37.06516" lon="-3.37359">
        <ele>2972</ele>
        <time>2021-08-05 14:05:24</time>
      </trkpt>
      <trkpt lat="37.06516" lon="-3.37358">
        <ele>2972.2</ele>
        <time>2021-08-05 14:05:25</time>
      </trkpt>
      <trkpt lat="37.06516" lon="-3.37358">
        <ele>2972.2</ele>
        <time>2021-08-05 14:05:26</time>
      </trkpt>
      <trkpt lat="37.06515" lon="-3.37358">
        <ele>2972.4</ele>
        <time>2021-08-05 14:05:27</time>
      </trkpt>
      <trkpt lat="37.06515" lon="-3.37357">
        <ele>2972.4</ele>
        <time>2021-08-05 14:05:28</time>
      </trkpt>
      <trkpt lat="37.06515" lon="-3.37357">
        <ele>2972.4</ele>
        <time>2021-08-05 14:05:29</time>
      </trkpt>
      <trkpt lat="37.06514" lon="-3.37356">
        <ele>2972.6</ele>
        <time>2021-08-05 14:05:30</time>
      </trkpt>
      <trkpt lat="37.06514" lon="-3.37356">
        <ele>2972.6</ele>
        <time>2021-08-05 14:05:31</time>
      </trkpt>
      <trkpt lat="37.06514" lon="-3.37357">
        <ele>2972.8</ele>
        <time>2021-08-05 14:05:32</time>
      </trkpt>
      <trkpt lat="37.06513" lon="-3.37356">
        <ele>2973</ele>
        <time>2021-08-05 14:05:33</time>
      </trkpt>
      <trkpt lat="37.06513" lon="-3.37356">
        <ele>2973</ele>
        <time>2021-08-05 14:05:34</time>
      </trkpt>
      <trkpt lat="37.06512" lon="-3.37355">
        <ele>2973.4</ele>
        <time>2021-08-05 14:05:35</time>
      </trkpt>
      <trkpt lat="37.06512" lon="-3.37355">
        <ele>2973.8</ele>
        <time>2021-08-05 14:05:36</time>
      </trkpt>
      <trkpt lat="37.06511" lon="-3.37355">
        <ele>2974</ele>
        <time>2021-08-05 14:05:37</time>
      </trkpt>
      <trkpt lat="37.06511" lon="-3.37354">
        <ele>2974</ele>
        <time>2021-08-05 14:05:38</time>
      </trkpt>
      <trkpt lat="37.0651" lon="-3.37354">
        <ele>2974.2</ele>
        <time>2021-08-05 14:05:39</time>
      </trkpt>
      <trkpt lat="37.0651" lon="-3.37354">
        <ele>2974.2</ele>
        <time>2021-08-05 14:05:40</time>
      </trkpt>
      <trkpt lat="37.0651" lon="-3.37354">
        <ele>2974.2</ele>
        <time>2021-08-05 14:05:41</time>
      </trkpt>
      <trkpt lat="37.06509" lon="-3.37353">
        <ele>2974</ele>
        <time>2021-08-05 14:05:42</time>
      </trkpt>
      <trkpt lat="37.06509" lon="-3.37353">
        <ele>2974</ele>
        <time>2021-08-05 14:05:43</time>
      </trkpt>
      <trkpt lat="37.06508" lon="-3.37353">
        <ele>2974</ele>
        <time>2021-08-05 14:05:44</time>
      </trkpt>
      <trkpt lat="37.06508" lon="-3.37353">
        <ele>2974.4</ele>
        <time>2021-08-05 14:05:45</time>
      </trkpt>
      <trkpt lat="37.06508" lon="-3.37353">
        <ele>2974.6</ele>
        <time>2021-08-05 14:05:46</time>
      </trkpt>
      <trkpt lat="37.06507" lon="-3.37352">
        <ele>2974.6</ele>
        <time>2021-08-05 14:05:47</time>
      </trkpt>
      <trkpt lat="37.06507" lon="-3.37353">
        <ele>2974.8</ele>
        <time>2021-08-05 14:05:48</time>
      </trkpt>
      <trkpt lat="37.06507" lon="-3.37354">
        <ele>2974.8</ele>
        <time>2021-08-05 14:05:49</time>
      </trkpt>
      <trkpt lat="37.06507" lon="-3.37354">
        <ele>2974.8</ele>
        <time>2021-08-05 14:05:50</time>
      </trkpt>
      <trkpt lat="37.06507" lon="-3.37354">
        <ele>2975</ele>
        <time>2021-08-05 14:05:51</time>
      </trkpt>
      <trkpt lat="37.06506" lon="-3.37354">
        <ele>2975</ele>
        <time>2021-08-05 14:05:52</time>
      </trkpt>
      <trkpt lat="37.06505" lon="-3.37355">
        <ele>2975</ele>
        <time>2021-08-05 14:05:53</time>
      </trkpt>
      <trkpt lat="37.06505" lon="-3.37355">
        <ele>2975</ele>
        <time>2021-08-05 14:05:54</time>
      </trkpt>
      <trkpt lat="37.06504" lon="-3.37355">
        <ele>2975</ele>
        <time>2021-08-05 14:05:55</time>
      </trkpt>
      <trkpt lat="37.06503" lon="-3.37355">
        <ele>2975</ele>
        <time>2021-08-05 14:05:56</time>
      </trkpt>
      <trkpt lat="37.06503" lon="-3.37355">
        <ele>2975</ele>
        <time>2021-08-05 14:05:57</time>
      </trkpt>
      <trkpt lat="37.06502" lon="-3.37355">
        <ele>2975.2</ele>
        <time>2021-08-05 14:05:58</time>
      </trkpt>
      <trkpt lat="37.06502" lon="-3.37355">
        <ele>2975.2</ele>
        <time>2021-08-05 14:05:59</time>
      </trkpt>
      <trkpt lat="37.06501" lon="-3.37355">
        <ele>2975.2</ele>
        <time>2021-08-05 14:06:00</time>
      </trkpt>
      <trkpt lat="37.06501" lon="-3.37355">
        <ele>2975.2</ele>
        <time>2021-08-05 14:06:01</time>
      </trkpt>
      <trkpt lat="37.065" lon="-3.37355">
        <ele>2975.4</ele>
        <time>2021-08-05 14:06:02</time>
      </trkpt>
      <trkpt lat="37.065" lon="-3.37355">
        <ele>2975.4</ele>
        <time>2021-08-05 14:06:03</time>
      </trkpt>
      <trkpt lat="37.06499" lon="-3.37355">
        <ele>2975.4</ele>
        <time>2021-08-05 14:06:04</time>
      </trkpt>
      <trkpt lat="37.06499" lon="-3.37355">
        <ele>2975.4</ele>
        <time>2021-08-05 14:06:05</time>
      </trkpt>
      <trkpt lat="37.06499" lon="-3.37355">
        <ele>2975.4</ele>
        <time>2021-08-05 14:06:06</time>
      </trkpt>
      <trkpt lat="37.06499" lon="-3.37354">
        <ele>2975.6</ele>
        <time>2021-08-05 14:06:07</time>
      </trkpt>
      <trkpt lat="37.06499" lon="-3.37354">
        <ele>2975.8</ele>
        <time>2021-08-05 14:06:08</time>
      </trkpt>
      <trkpt lat="37.06499" lon="-3.37353">
        <ele>2976</ele>
        <time>2021-08-05 14:06:09</time>
      </trkpt>
      <trkpt lat="37.06499" lon="-3.37353">
        <ele>2976.2</ele>
        <time>2021-08-05 14:06:10</time>
      </trkpt>
      <trkpt lat="37.06498" lon="-3.37353">
        <ele>2976.2</ele>
        <time>2021-08-05 14:06:11</time>
      </trkpt>
      <trkpt lat="37.06498" lon="-3.37353">
        <ele>2976.4</ele>
        <time>2021-08-05 14:06:12</time>
      </trkpt>
      <trkpt lat="37.06498" lon="-3.37354">
        <ele>2976.4</ele>
        <time>2021-08-05 14:06:13</time>
      </trkpt>
      <trkpt lat="37.06498" lon="-3.37355">
        <ele>2976.6</ele>
        <time>2021-08-05 14:06:14</time>
      </trkpt>
      <trkpt lat="37.06497" lon="-3.37355">
        <ele>2976.6</ele>
        <time>2021-08-05 14:06:15</time>
      </trkpt>
      <trkpt lat="37.06496" lon="-3.37355">
        <ele>2976.8</ele>
        <time>2021-08-05 14:06:16</time>
      </trkpt>
      <trkpt lat="37.06496" lon="-3.37356">
        <ele>2976.8</ele>
        <time>2021-08-05 14:06:17</time>
      </trkpt>
      <trkpt lat="37.06495" lon="-3.37357">
        <ele>2976.8</ele>
        <time>2021-08-05 14:06:18</time>
      </trkpt>
      <trkpt lat="37.06494" lon="-3.37356">
        <ele>2976.8</ele>
        <time>2021-08-05 14:06:19</time>
      </trkpt>
      <trkpt lat="37.06494" lon="-3.37356">
        <ele>2976.8</ele>
        <time>2021-08-05 14:06:20</time>
      </trkpt>
      <trkpt lat="37.06493" lon="-3.37356">
        <ele>2977</ele>
        <time>2021-08-05 14:06:21</time>
      </trkpt>
      <trkpt lat="37.06493" lon="-3.37354">
        <ele>2977.2</ele>
        <time>2021-08-05 14:06:22</time>
      </trkpt>
      <trkpt lat="37.06492" lon="-3.37354">
        <ele>2977.4</ele>
        <time>2021-08-05 14:06:23</time>
      </trkpt>
      <trkpt lat="37.06492" lon="-3.37355">
        <ele>2977.6</ele>
        <time>2021-08-05 14:06:24</time>
      </trkpt>
      <trkpt lat="37.06492" lon="-3.37355">
        <ele>2977.8</ele>
        <time>2021-08-05 14:06:25</time>
      </trkpt>
      <trkpt lat="37.06491" lon="-3.37354">
        <ele>2978</ele>
        <time>2021-08-05 14:06:26</time>
      </trkpt>
      <trkpt lat="37.0649" lon="-3.37353">
        <ele>2978.2</ele>
        <time>2021-08-05 14:06:27</time>
      </trkpt>
      <trkpt lat="37.06489" lon="-3.37352">
        <ele>2978.2</ele>
        <time>2021-08-05 14:06:28</time>
      </trkpt>
      <trkpt lat="37.06488" lon="-3.37351">
        <ele>2978.4</ele>
        <time>2021-08-05 14:06:29</time>
      </trkpt>
      <trkpt lat="37.06488" lon="-3.37351">
        <ele>2978.6</ele>
        <time>2021-08-05 14:06:30</time>
      </trkpt>
      <trkpt lat="37.06487" lon="-3.37351">
        <ele>2978.8</ele>
        <time>2021-08-05 14:06:31</time>
      </trkpt>
      <trkpt lat="37.06487" lon="-3.3735">
        <ele>2978.8</ele>
        <time>2021-08-05 14:06:32</time>
      </trkpt>
      <trkpt lat="37.06487" lon="-3.3735">
        <ele>2978.6</ele>
        <time>2021-08-05 14:06:33</time>
      </trkpt>
      <trkpt lat="37.06487" lon="-3.3735">
        <ele>2978.8</ele>
        <time>2021-08-05 14:06:34</time>
      </trkpt>
      <trkpt lat="37.06488" lon="-3.3735">
        <ele>2978.8</ele>
        <time>2021-08-05 14:06:35</time>
      </trkpt>
      <trkpt lat="37.06488" lon="-3.3735">
        <ele>2978.8</ele>
        <time>2021-08-05 14:06:36</time>
      </trkpt>
      <trkpt lat="37.06487" lon="-3.3735">
        <ele>2979</ele>
        <time>2021-08-05 14:06:37</time>
      </trkpt>
      <trkpt lat="37.06487" lon="-3.37349">
        <ele>2979</ele>
        <time>2021-08-05 14:06:38</time>
      </trkpt>
      <trkpt lat="37.06487" lon="-3.37348">
        <ele>2979</ele>
        <time>2021-08-05 14:06:39</time>
      </trkpt>
      <trkpt lat="37.06486" lon="-3.37347">
        <ele>2979.4</ele>
        <time>2021-08-05 14:06:40</time>
      </trkpt>
      <trkpt lat="37.06486" lon="-3.37346">
        <ele>2979.6</ele>
        <time>2021-08-05 14:06:41</time>
      </trkpt>
      <trkpt lat="37.06485" lon="-3.37346">
        <ele>2979.8</ele>
        <time>2021-08-05 14:06:42</time>
      </trkpt>
      <trkpt lat="37.06485" lon="-3.37346">
        <ele>2979.8</ele>
        <time>2021-08-05 14:06:43</time>
      </trkpt>
      <trkpt lat="37.06484" lon="-3.37346">
        <ele>2979.8</ele>
        <time>2021-08-05 14:06:44</time>
      </trkpt>
      <trkpt lat="37.06483" lon="-3.37346">
        <ele>2980</ele>
        <time>2021-08-05 14:06:45</time>
      </trkpt>
      <trkpt lat="37.06483" lon="-3.37346">
        <ele>2980</ele>
        <time>2021-08-05 14:06:46</time>
      </trkpt>
      <trkpt lat="37.06482" lon="-3.37345">
        <ele>2980.4</ele>
        <time>2021-08-05 14:06:47</time>
      </trkpt>
      <trkpt lat="37.06482" lon="-3.37346">
        <ele>2980.6</ele>
        <time>2021-08-05 14:06:48</time>
      </trkpt>
      <trkpt lat="37.06482" lon="-3.37346">
        <ele>2980.8</ele>
        <time>2021-08-05 14:06:49</time>
      </trkpt>
      <trkpt lat="37.06482" lon="-3.37346">
        <ele>2981</ele>
        <time>2021-08-05 14:06:50</time>
      </trkpt>
      <trkpt lat="37.06482" lon="-3.37347">
        <ele>2981</ele>
        <time>2021-08-05 14:06:51</time>
      </trkpt>
      <trkpt lat="37.06482" lon="-3.37347">
        <ele>2981</ele>
        <time>2021-08-05 14:06:52</time>
      </trkpt>
      <trkpt lat="37.06482" lon="-3.37347">
        <ele>2981.2</ele>
        <time>2021-08-05 14:06:53</time>
      </trkpt>
      <trkpt lat="37.06482" lon="-3.37346">
        <ele>2981</ele>
        <time>2021-08-05 14:06:54</time>
      </trkpt>
      <trkpt lat="37.06481" lon="-3.37346">
        <ele>2980.8</ele>
        <time>2021-08-05 14:06:55</time>
      </trkpt>
      <trkpt lat="37.06481" lon="-3.37345">
        <ele>2981</ele>
        <time>2021-08-05 14:06:56</time>
      </trkpt>
      <trkpt lat="37.0648" lon="-3.37339">
        <ele>2981.2</ele>
        <time>2021-08-05 14:06:57</time>
      </trkpt>
      <trkpt lat="37.0648" lon="-3.37339">
        <ele>2981.2</ele>
        <time>2021-08-05 14:06:58</time>
      </trkpt>
      <trkpt lat="37.0648" lon="-3.37338">
        <ele>2981.2</ele>
        <time>2021-08-05 14:06:59</time>
      </trkpt>
      <trkpt lat="37.06479" lon="-3.37337">
        <ele>2981.4</ele>
        <time>2021-08-05 14:07:00</time>
      </trkpt>
      <trkpt lat="37.06478" lon="-3.37337">
        <ele>2981.6</ele>
        <time>2021-08-05 14:07:01</time>
      </trkpt>
      <trkpt lat="37.06477" lon="-3.37337">
        <ele>2982</ele>
        <time>2021-08-05 14:07:02</time>
      </trkpt>
      <trkpt lat="37.06477" lon="-3.37337">
        <ele>2982.2</ele>
        <time>2021-08-05 14:07:03</time>
      </trkpt>
      <trkpt lat="37.06477" lon="-3.37337">
        <ele>2982.4</ele>
        <time>2021-08-05 14:07:04</time>
      </trkpt>
      <trkpt lat="37.06477" lon="-3.37336">
        <ele>2982.4</ele>
        <time>2021-08-05 14:07:05</time>
      </trkpt>
      <trkpt lat="37.06476" lon="-3.37336">
        <ele>2982.6</ele>
        <time>2021-08-05 14:07:06</time>
      </trkpt>
      <trkpt lat="37.06476" lon="-3.37336">
        <ele>2982.6</ele>
        <time>2021-08-05 14:07:07</time>
      </trkpt>
      <trkpt lat="37.06475" lon="-3.37336">
        <ele>2982.6</ele>
        <time>2021-08-05 14:07:08</time>
      </trkpt>
      <trkpt lat="37.06475" lon="-3.37336">
        <ele>2982.6</ele>
        <time>2021-08-05 14:07:09</time>
      </trkpt>
      <trkpt lat="37.06475" lon="-3.37336">
        <ele>2982.8</ele>
        <time>2021-08-05 14:07:10</time>
      </trkpt>
      <trkpt lat="37.06474" lon="-3.37336">
        <ele>2982.8</ele>
        <time>2021-08-05 14:07:11</time>
      </trkpt>
      <trkpt lat="37.06474" lon="-3.37336">
        <ele>2983</ele>
        <time>2021-08-05 14:07:12</time>
      </trkpt>
      <trkpt lat="37.06473" lon="-3.37336">
        <ele>2983</ele>
        <time>2021-08-05 14:07:13</time>
      </trkpt>
      <trkpt lat="37.06473" lon="-3.37336">
        <ele>2983</ele>
        <time>2021-08-05 14:07:14</time>
      </trkpt>
      <trkpt lat="37.06472" lon="-3.37336">
        <ele>2983</ele>
        <time>2021-08-05 14:07:15</time>
      </trkpt>
      <trkpt lat="37.06472" lon="-3.37336">
        <ele>2983.2</ele>
        <time>2021-08-05 14:07:16</time>
      </trkpt>
      <trkpt lat="37.06471" lon="-3.37336">
        <ele>2983.2</ele>
        <time>2021-08-05 14:07:17</time>
      </trkpt>
      <trkpt lat="37.06471" lon="-3.37336">
        <ele>2983.4</ele>
        <time>2021-08-05 14:07:18</time>
      </trkpt>
      <trkpt lat="37.06471" lon="-3.37336">
        <ele>2983.6</ele>
        <time>2021-08-05 14:07:19</time>
      </trkpt>
      <trkpt lat="37.0647" lon="-3.37336">
        <ele>2983.8</ele>
        <time>2021-08-05 14:07:20</time>
      </trkpt>
      <trkpt lat="37.0647" lon="-3.37336">
        <ele>2984</ele>
        <time>2021-08-05 14:07:21</time>
      </trkpt>
      <trkpt lat="37.06469" lon="-3.37336">
        <ele>2984.2</ele>
        <time>2021-08-05 14:07:22</time>
      </trkpt>
      <trkpt lat="37.06469" lon="-3.37336">
        <ele>2984.2</ele>
        <time>2021-08-05 14:07:23</time>
      </trkpt>
      <trkpt lat="37.06468" lon="-3.37337">
        <ele>2984.4</ele>
        <time>2021-08-05 14:07:24</time>
      </trkpt>
      <trkpt lat="37.06468" lon="-3.37338">
        <ele>2984.6</ele>
        <time>2021-08-05 14:07:25</time>
      </trkpt>
      <trkpt lat="37.06468" lon="-3.37338">
        <ele>2984.8</ele>
        <time>2021-08-05 14:07:26</time>
      </trkpt>
      <trkpt lat="37.06467" lon="-3.37338">
        <ele>2984.8</ele>
        <time>2021-08-05 14:07:27</time>
      </trkpt>
      <trkpt lat="37.06467" lon="-3.37338">
        <ele>2984.8</ele>
        <time>2021-08-05 14:07:28</time>
      </trkpt>
      <trkpt lat="37.06466" lon="-3.37337">
        <ele>2985</ele>
        <time>2021-08-05 14:07:29</time>
      </trkpt>
      <trkpt lat="37.06466" lon="-3.37337">
        <ele>2985.2</ele>
        <time>2021-08-05 14:07:30</time>
      </trkpt>
      <trkpt lat="37.06465" lon="-3.37337">
        <ele>2985.4</ele>
        <time>2021-08-05 14:07:31</time>
      </trkpt>
      <trkpt lat="37.06465" lon="-3.37337">
        <ele>2985.6</ele>
        <time>2021-08-05 14:07:32</time>
      </trkpt>
      <trkpt lat="37.06464" lon="-3.37336">
        <ele>2985.8</ele>
        <time>2021-08-05 14:07:33</time>
      </trkpt>
      <trkpt lat="37.06464" lon="-3.37335">
        <ele>2985.8</ele>
        <time>2021-08-05 14:07:34</time>
      </trkpt>
      <trkpt lat="37.06463" lon="-3.37335">
        <ele>2985.8</ele>
        <time>2021-08-05 14:07:35</time>
      </trkpt>
      <trkpt lat="37.06462" lon="-3.37335">
        <ele>2986</ele>
        <time>2021-08-05 14:07:36</time>
      </trkpt>
      <trkpt lat="37.06462" lon="-3.37335">
        <ele>2986</ele>
        <time>2021-08-05 14:07:37</time>
      </trkpt>
      <trkpt lat="37.06462" lon="-3.37335">
        <ele>2986</ele>
        <time>2021-08-05 14:07:38</time>
      </trkpt>
      <trkpt lat="37.06462" lon="-3.37335">
        <ele>2986</ele>
        <time>2021-08-05 14:07:39</time>
      </trkpt>
      <trkpt lat="37.06461" lon="-3.37335">
        <ele>2986</ele>
        <time>2021-08-05 14:07:40</time>
      </trkpt>
      <trkpt lat="37.06461" lon="-3.37335">
        <ele>2986.2</ele>
        <time>2021-08-05 14:07:41</time>
      </trkpt>
      <trkpt lat="37.06461" lon="-3.37335">
        <ele>2986.4</ele>
        <time>2021-08-05 14:07:42</time>
      </trkpt>
      <trkpt lat="37.06461" lon="-3.37335">
        <ele>2986.6</ele>
        <time>2021-08-05 14:07:43</time>
      </trkpt>
      <trkpt lat="37.06461" lon="-3.37335">
        <ele>2986.8</ele>
        <time>2021-08-05 14:07:44</time>
      </trkpt>
      <trkpt lat="37.06461" lon="-3.37336">
        <ele>2986.8</ele>
        <time>2021-08-05 14:07:45</time>
      </trkpt>
      <trkpt lat="37.06461" lon="-3.37336">
        <ele>2986.8</ele>
        <time>2021-08-05 14:07:46</time>
      </trkpt>
      <trkpt lat="37.06461" lon="-3.37336">
        <ele>2987</ele>
        <time>2021-08-05 14:07:47</time>
      </trkpt>
      <trkpt lat="37.0646" lon="-3.37336">
        <ele>2986.8</ele>
        <time>2021-08-05 14:07:48</time>
      </trkpt>
      <trkpt lat="37.06461" lon="-3.37336">
        <ele>2986.6</ele>
        <time>2021-08-05 14:07:49</time>
      </trkpt>
      <trkpt lat="37.06461" lon="-3.37337">
        <ele>2986.6</ele>
        <time>2021-08-05 14:07:50</time>
      </trkpt>
      <trkpt lat="37.06461" lon="-3.37337">
        <ele>2986.6</ele>
        <time>2021-08-05 14:07:51</time>
      </trkpt>
      <trkpt lat="37.06461" lon="-3.37337">
        <ele>2986.8</ele>
        <time>2021-08-05 14:07:52</time>
      </trkpt>
      <trkpt lat="37.0646" lon="-3.37337">
        <ele>2987</ele>
        <time>2021-08-05 14:07:53</time>
      </trkpt>
      <trkpt lat="37.0646" lon="-3.37337">
        <ele>2987.2</ele>
        <time>2021-08-05 14:07:54</time>
      </trkpt>
      <trkpt lat="37.06459" lon="-3.37337">
        <ele>2987.2</ele>
        <time>2021-08-05 14:07:55</time>
      </trkpt>
      <trkpt lat="37.06459" lon="-3.37337">
        <ele>2987.4</ele>
        <time>2021-08-05 14:07:56</time>
      </trkpt>
      <trkpt lat="37.06459" lon="-3.37337">
        <ele>2987.4</ele>
        <time>2021-08-05 14:07:57</time>
      </trkpt>
      <trkpt lat="37.06458" lon="-3.37337">
        <ele>2987.6</ele>
        <time>2021-08-05 14:07:58</time>
      </trkpt>
      <trkpt lat="37.06457" lon="-3.37337">
        <ele>2987.6</ele>
        <time>2021-08-05 14:07:59</time>
      </trkpt>
      <trkpt lat="37.06457" lon="-3.37337">
        <ele>2987.8</ele>
        <time>2021-08-05 14:08:00</time>
      </trkpt>
      <trkpt lat="37.06457" lon="-3.37337">
        <ele>2988</ele>
        <time>2021-08-05 14:08:01</time>
      </trkpt>
      <trkpt lat="37.06457" lon="-3.37337">
        <ele>2988</ele>
        <time>2021-08-05 14:08:02</time>
      </trkpt>
      <trkpt lat="37.06456" lon="-3.37337">
        <ele>2988.2</ele>
        <time>2021-08-05 14:08:03</time>
      </trkpt>
      <trkpt lat="37.06456" lon="-3.37336">
        <ele>2988.4</ele>
        <time>2021-08-05 14:08:04</time>
      </trkpt>
      <trkpt lat="37.06456" lon="-3.37336">
        <ele>2988.6</ele>
        <time>2021-08-05 14:08:05</time>
      </trkpt>
      <trkpt lat="37.06455" lon="-3.37336">
        <ele>2988.6</ele>
        <time>2021-08-05 14:08:06</time>
      </trkpt>
      <trkpt lat="37.06455" lon="-3.37335">
        <ele>2988.8</ele>
        <time>2021-08-05 14:08:07</time>
      </trkpt>
      <trkpt lat="37.06454" lon="-3.37335">
        <ele>2988.8</ele>
        <time>2021-08-05 14:08:08</time>
      </trkpt>
      <trkpt lat="37.06454" lon="-3.37335">
        <ele>2989</ele>
        <time>2021-08-05 14:08:09</time>
      </trkpt>
      <trkpt lat="37.06454" lon="-3.37335">
        <ele>2989.2</ele>
        <time>2021-08-05 14:08:10</time>
      </trkpt>
      <trkpt lat="37.06453" lon="-3.37335">
        <ele>2989.4</ele>
        <time>2021-08-05 14:08:11</time>
      </trkpt>
      <trkpt lat="37.06452" lon="-3.37334">
        <ele>2989.2</ele>
        <time>2021-08-05 14:08:12</time>
      </trkpt>
      <trkpt lat="37.06452" lon="-3.37334">
        <ele>2989.2</ele>
        <time>2021-08-05 14:08:13</time>
      </trkpt>
      <trkpt lat="37.06451" lon="-3.37334">
        <ele>2989.2</ele>
        <time>2021-08-05 14:08:14</time>
      </trkpt>
      <trkpt lat="37.06451" lon="-3.37333">
        <ele>2989.2</ele>
        <time>2021-08-05 14:08:15</time>
      </trkpt>
      <trkpt lat="37.06451" lon="-3.37333">
        <ele>2989.2</ele>
        <time>2021-08-05 14:08:16</time>
      </trkpt>
      <trkpt lat="37.06451" lon="-3.37333">
        <ele>2989.4</ele>
        <time>2021-08-05 14:08:17</time>
      </trkpt>
      <trkpt lat="37.06451" lon="-3.37333">
        <ele>2989.6</ele>
        <time>2021-08-05 14:08:18</time>
      </trkpt>
      <trkpt lat="37.06451" lon="-3.37333">
        <ele>2989.6</ele>
        <time>2021-08-05 14:08:19</time>
      </trkpt>
      <trkpt lat="37.06451" lon="-3.37333">
        <ele>2989.8</ele>
        <time>2021-08-05 14:08:20</time>
      </trkpt>
      <trkpt lat="37.0645" lon="-3.37333">
        <ele>2990</ele>
        <time>2021-08-05 14:08:21</time>
      </trkpt>
      <trkpt lat="37.0645" lon="-3.37334">
        <ele>2990.2</ele>
        <time>2021-08-05 14:08:22</time>
      </trkpt>
      <trkpt lat="37.06449" lon="-3.37334">
        <ele>2990.4</ele>
        <time>2021-08-05 14:08:23</time>
      </trkpt>
      <trkpt lat="37.06449" lon="-3.37335">
        <ele>2990.4</ele>
        <time>2021-08-05 14:08:24</time>
      </trkpt>
      <trkpt lat="37.06449" lon="-3.37335">
        <ele>2990.6</ele>
        <time>2021-08-05 14:08:25</time>
      </trkpt>
      <trkpt lat="37.06448" lon="-3.37334">
        <ele>2990.6</ele>
        <time>2021-08-05 14:08:26</time>
      </trkpt>
      <trkpt lat="37.06447" lon="-3.37334">
        <ele>2990.6</ele>
        <time>2021-08-05 14:08:27</time>
      </trkpt>
      <trkpt lat="37.06447" lon="-3.37334">
        <ele>2990.6</ele>
        <time>2021-08-05 14:08:28</time>
      </trkpt>
      <trkpt lat="37.06446" lon="-3.37334">
        <ele>2990.6</ele>
        <time>2021-08-05 14:08:29</time>
      </trkpt>
      <trkpt lat="37.06446" lon="-3.37333">
        <ele>2990.6</ele>
        <time>2021-08-05 14:08:30</time>
      </trkpt>
      <trkpt lat="37.06445" lon="-3.37332">
        <ele>2990.8</ele>
        <time>2021-08-05 14:08:31</time>
      </trkpt>
      <trkpt lat="37.06444" lon="-3.37332">
        <ele>2991</ele>
        <time>2021-08-05 14:08:32</time>
      </trkpt>
      <trkpt lat="37.06444" lon="-3.37331">
        <ele>2991</ele>
        <time>2021-08-05 14:08:33</time>
      </trkpt>
      <trkpt lat="37.06444" lon="-3.37331">
        <ele>2991.2</ele>
        <time>2021-08-05 14:08:34</time>
      </trkpt>
      <trkpt lat="37.06443" lon="-3.3733">
        <ele>2991.2</ele>
        <time>2021-08-05 14:08:35</time>
      </trkpt>
      <trkpt lat="37.06443" lon="-3.3733">
        <ele>2991.2</ele>
        <time>2021-08-05 14:08:36</time>
      </trkpt>
      <trkpt lat="37.06442" lon="-3.3733">
        <ele>2991.6</ele>
        <time>2021-08-05 14:08:37</time>
      </trkpt>
      <trkpt lat="37.06442" lon="-3.3733">
        <ele>2991.6</ele>
        <time>2021-08-05 14:08:38</time>
      </trkpt>
      <trkpt lat="37.06442" lon="-3.37331">
        <ele>2991.8</ele>
        <time>2021-08-05 14:08:39</time>
      </trkpt>
      <trkpt lat="37.06442" lon="-3.3733">
        <ele>2991.8</ele>
        <time>2021-08-05 14:08:40</time>
      </trkpt>
      <trkpt lat="37.06441" lon="-3.3733">
        <ele>2992</ele>
        <time>2021-08-05 14:08:41</time>
      </trkpt>
      <trkpt lat="37.0644" lon="-3.37329">
        <ele>2992</ele>
        <time>2021-08-05 14:08:42</time>
      </trkpt>
      <trkpt lat="37.0644" lon="-3.37328">
        <ele>2992.2</ele>
        <time>2021-08-05 14:08:43</time>
      </trkpt>
      <trkpt lat="37.0644" lon="-3.37329">
        <ele>2992.4</ele>
        <time>2021-08-05 14:08:44</time>
      </trkpt>
      <trkpt lat="37.06439" lon="-3.37328">
        <ele>2992.6</ele>
        <time>2021-08-05 14:08:45</time>
      </trkpt>
      <trkpt lat="37.06439" lon="-3.37328">
        <ele>2992.8</ele>
        <time>2021-08-05 14:08:46</time>
      </trkpt>
      <trkpt lat="37.06438" lon="-3.37328">
        <ele>2993</ele>
        <time>2021-08-05 14:08:47</time>
      </trkpt>
      <trkpt lat="37.06438" lon="-3.37327">
        <ele>2993</ele>
        <time>2021-08-05 14:08:48</time>
      </trkpt>
      <trkpt lat="37.06437" lon="-3.37327">
        <ele>2993.2</ele>
        <time>2021-08-05 14:08:49</time>
      </trkpt>
      <trkpt lat="37.06437" lon="-3.37328">
        <ele>2993.2</ele>
        <time>2021-08-05 14:08:50</time>
      </trkpt>
      <trkpt lat="37.06437" lon="-3.37329">
        <ele>2993.2</ele>
        <time>2021-08-05 14:08:51</time>
      </trkpt>
      <trkpt lat="37.06437" lon="-3.37329">
        <ele>2993.4</ele>
        <time>2021-08-05 14:08:52</time>
      </trkpt>
      <trkpt lat="37.06437" lon="-3.37329">
        <ele>2993.4</ele>
        <time>2021-08-05 14:08:53</time>
      </trkpt>
      <trkpt lat="37.06436" lon="-3.3733">
        <ele>2993.4</ele>
        <time>2021-08-05 14:08:54</time>
      </trkpt>
      <trkpt lat="37.06436" lon="-3.3733">
        <ele>2993.4</ele>
        <time>2021-08-05 14:08:55</time>
      </trkpt>
      <trkpt lat="37.06436" lon="-3.3733">
        <ele>2993.4</ele>
        <time>2021-08-05 14:08:56</time>
      </trkpt>
      <trkpt lat="37.06436" lon="-3.3733">
        <ele>2993.2</ele>
        <time>2021-08-05 14:08:57</time>
      </trkpt>
      <trkpt lat="37.06436" lon="-3.3733">
        <ele>2993</ele>
        <time>2021-08-05 14:08:58</time>
      </trkpt>
      <trkpt lat="37.06435" lon="-3.3733">
        <ele>2993</ele>
        <time>2021-08-05 14:08:59</time>
      </trkpt>
      <trkpt lat="37.06435" lon="-3.3733">
        <ele>2993</ele>
        <time>2021-08-05 14:09:00</time>
      </trkpt>
      <trkpt lat="37.06434" lon="-3.3733">
        <ele>2992.8</ele>
        <time>2021-08-05 14:09:01</time>
      </trkpt>
      <trkpt lat="37.06434" lon="-3.37329">
        <ele>2992.8</ele>
        <time>2021-08-05 14:09:02</time>
      </trkpt>
      <trkpt lat="37.06434" lon="-3.37327">
        <ele>2992.8</ele>
        <time>2021-08-05 14:09:03</time>
      </trkpt>
      <trkpt lat="37.06433" lon="-3.37326">
        <ele>2992.8</ele>
        <time>2021-08-05 14:09:04</time>
      </trkpt>
      <trkpt lat="37.06433" lon="-3.37326">
        <ele>2992.8</ele>
        <time>2021-08-05 14:09:05</time>
      </trkpt>
      <trkpt lat="37.06433" lon="-3.37327">
        <ele>2993</ele>
        <time>2021-08-05 14:09:06</time>
      </trkpt>
      <trkpt lat="37.06434" lon="-3.37328">
        <ele>2993</ele>
        <time>2021-08-05 14:09:07</time>
      </trkpt>
      <trkpt lat="37.06434" lon="-3.37328">
        <ele>2993</ele>
        <time>2021-08-05 14:09:08</time>
      </trkpt>
      <trkpt lat="37.06435" lon="-3.37327">
        <ele>2993.2</ele>
        <time>2021-08-05 14:09:09</time>
      </trkpt>
      <trkpt lat="37.06434" lon="-3.37326">
        <ele>2993.2</ele>
        <time>2021-08-05 14:09:10</time>
      </trkpt>
      <trkpt lat="37.06435" lon="-3.37326">
        <ele>2993.2</ele>
        <time>2021-08-05 14:09:11</time>
      </trkpt>
      <trkpt lat="37.06435" lon="-3.37326">
        <ele>2993.2</ele>
        <time>2021-08-05 14:09:12</time>
      </trkpt>
      <trkpt lat="37.06435" lon="-3.37325">
        <ele>2993.2</ele>
        <time>2021-08-05 14:09:13</time>
      </trkpt>
      <trkpt lat="37.06436" lon="-3.37325">
        <ele>2993.2</ele>
        <time>2021-08-05 14:09:14</time>
      </trkpt>
      <trkpt lat="37.06436" lon="-3.37321">
        <ele>2993.2</ele>
        <time>2021-08-05 14:09:15</time>
      </trkpt>
      <trkpt lat="37.06435" lon="-3.37317">
        <ele>2993.2</ele>
        <time>2021-08-05 14:09:16</time>
      </trkpt>
      <trkpt lat="37.06435" lon="-3.37317">
        <ele>2993.2</ele>
        <time>2021-08-05 14:09:17</time>
      </trkpt>
      <trkpt lat="37.06435" lon="-3.37318">
        <ele>2993</ele>
        <time>2021-08-05 14:09:18</time>
      </trkpt>
      <trkpt lat="37.06435" lon="-3.37318">
        <ele>2993.2</ele>
        <time>2021-08-05 14:09:19</time>
      </trkpt>
      <trkpt lat="37.06435" lon="-3.37318">
        <ele>2993.2</ele>
        <time>2021-08-05 14:09:20</time>
      </trkpt>
      <trkpt lat="37.06435" lon="-3.37318">
        <ele>2993.2</ele>
        <time>2021-08-05 14:09:21</time>
      </trkpt>
      <trkpt lat="37.06435" lon="-3.37317">
        <ele>2993.2</ele>
        <time>2021-08-05 14:09:22</time>
      </trkpt>
      <trkpt lat="37.06435" lon="-3.37317">
        <ele>2993.2</ele>
        <time>2021-08-05 14:09:23</time>
      </trkpt>
      <trkpt lat="37.06435" lon="-3.37317">
        <ele>2993.4</ele>
        <time>2021-08-05 14:09:24</time>
      </trkpt>
      <trkpt lat="37.06434" lon="-3.37317">
        <ele>2993.4</ele>
        <time>2021-08-05 14:09:25</time>
      </trkpt>
      <trkpt lat="37.06433" lon="-3.37316">
        <ele>2993.6</ele>
        <time>2021-08-05 14:09:26</time>
      </trkpt>
      <trkpt lat="37.06432" lon="-3.37317">
        <ele>2993.8</ele>
        <time>2021-08-05 14:09:27</time>
      </trkpt>
      <trkpt lat="37.06432" lon="-3.37317">
        <ele>2994</ele>
        <time>2021-08-05 14:09:28</time>
      </trkpt>
      <trkpt lat="37.06431" lon="-3.37317">
        <ele>2994</ele>
        <time>2021-08-05 14:09:29</time>
      </trkpt>
      <trkpt lat="37.06431" lon="-3.37316">
        <ele>2994.2</ele>
        <time>2021-08-05 14:09:30</time>
      </trkpt>
      <trkpt lat="37.06431" lon="-3.37316">
        <ele>2994.4</ele>
        <time>2021-08-05 14:09:31</time>
      </trkpt>
      <trkpt lat="37.0643" lon="-3.37316">
        <ele>2994.4</ele>
        <time>2021-08-05 14:09:32</time>
      </trkpt>
      <trkpt lat="37.06429" lon="-3.37316">
        <ele>2994.6</ele>
        <time>2021-08-05 14:09:33</time>
      </trkpt>
      <trkpt lat="37.06429" lon="-3.37317">
        <ele>2994.8</ele>
        <time>2021-08-05 14:09:34</time>
      </trkpt>
      <trkpt lat="37.06428" lon="-3.37317">
        <ele>2994.8</ele>
        <time>2021-08-05 14:09:35</time>
      </trkpt>
      <trkpt lat="37.06428" lon="-3.37317">
        <ele>2994.8</ele>
        <time>2021-08-05 14:09:36</time>
      </trkpt>
      <trkpt lat="37.06427" lon="-3.37317">
        <ele>2995</ele>
        <time>2021-08-05 14:09:37</time>
      </trkpt>
      <trkpt lat="37.06428" lon="-3.37317">
        <ele>2995</ele>
        <time>2021-08-05 14:09:38</time>
      </trkpt>
      <trkpt lat="37.06428" lon="-3.37317">
        <ele>2995</ele>
        <time>2021-08-05 14:09:39</time>
      </trkpt>
      <trkpt lat="37.06428" lon="-3.37317">
        <ele>2994.8</ele>
        <time>2021-08-05 14:09:40</time>
      </trkpt>
      <trkpt lat="37.06428" lon="-3.37317">
        <ele>2995.2</ele>
        <time>2021-08-05 14:09:41</time>
      </trkpt>
      <trkpt lat="37.06428" lon="-3.37317">
        <ele>2995.4</ele>
        <time>2021-08-05 14:09:42</time>
      </trkpt>
      <trkpt lat="37.06428" lon="-3.37317">
        <ele>2995.4</ele>
        <time>2021-08-05 14:09:43</time>
      </trkpt>
      <trkpt lat="37.06429" lon="-3.37317">
        <ele>2995.6</ele>
        <time>2021-08-05 14:09:44</time>
      </trkpt>
      <trkpt lat="37.06429" lon="-3.37317">
        <ele>2995.8</ele>
        <time>2021-08-05 14:09:45</time>
      </trkpt>
      <trkpt lat="37.06429" lon="-3.37317">
        <ele>2996</ele>
        <time>2021-08-05 14:09:46</time>
      </trkpt>
      <trkpt lat="37.0643" lon="-3.37317">
        <ele>2996.2</ele>
        <time>2021-08-05 14:09:47</time>
      </trkpt>
      <trkpt lat="37.06429" lon="-3.37317">
        <ele>2996.2</ele>
        <time>2021-08-05 14:09:48</time>
      </trkpt>
      <trkpt lat="37.06429" lon="-3.37317">
        <ele>2996.4</ele>
        <time>2021-08-05 14:09:49</time>
      </trkpt>
      <trkpt lat="37.06428" lon="-3.37316">
        <ele>2996.6</ele>
        <time>2021-08-05 14:09:50</time>
      </trkpt>
      <trkpt lat="37.06427" lon="-3.37316">
        <ele>2996.8</ele>
        <time>2021-08-05 14:09:51</time>
      </trkpt>
      <trkpt lat="37.06427" lon="-3.37316">
        <ele>2996.8</ele>
        <time>2021-08-05 14:09:52</time>
      </trkpt>
      <trkpt lat="37.06427" lon="-3.37316">
        <ele>2997</ele>
        <time>2021-08-05 14:09:53</time>
      </trkpt>
      <trkpt lat="37.06427" lon="-3.37315">
        <ele>2997.2</ele>
        <time>2021-08-05 14:09:54</time>
      </trkpt>
      <trkpt lat="37.06426" lon="-3.37315">
        <ele>2997.4</ele>
        <time>2021-08-05 14:09:55</time>
      </trkpt>
      <trkpt lat="37.06426" lon="-3.37315">
        <ele>2997.8</ele>
        <time>2021-08-05 14:09:56</time>
      </trkpt>
      <trkpt lat="37.06425" lon="-3.37313">
        <ele>2998</ele>
        <time>2021-08-05 14:09:57</time>
      </trkpt>
      <trkpt lat="37.06425" lon="-3.37312">
        <ele>2998.2</ele>
        <time>2021-08-05 14:09:58</time>
      </trkpt>
      <trkpt lat="37.06424" lon="-3.37312">
        <ele>2998.2</ele>
        <time>2021-08-05 14:09:59</time>
      </trkpt>
      <trkpt lat="37.06424" lon="-3.37311">
        <ele>2998.2</ele>
        <time>2021-08-05 14:10:00</time>
      </trkpt>
      <trkpt lat="37.06424" lon="-3.37309">
        <ele>2998.2</ele>
        <time>2021-08-05 14:10:01</time>
      </trkpt>
      <trkpt lat="37.06423" lon="-3.37306">
        <ele>2998.2</ele>
        <time>2021-08-05 14:10:02</time>
      </trkpt>
      <trkpt lat="37.06423" lon="-3.37304">
        <ele>2998.2</ele>
        <time>2021-08-05 14:10:03</time>
      </trkpt>
      <trkpt lat="37.06423" lon="-3.37304">
        <ele>2998.4</ele>
        <time>2021-08-05 14:10:04</time>
      </trkpt>
      <trkpt lat="37.06422" lon="-3.37301">
        <ele>2998.4</ele>
        <time>2021-08-05 14:10:05</time>
      </trkpt>
      <trkpt lat="37.06422" lon="-3.37301">
        <ele>2999</ele>
        <time>2021-08-05 14:10:06</time>
      </trkpt>
      <trkpt lat="37.06422" lon="-3.373">
        <ele>2999.2</ele>
        <time>2021-08-05 14:10:07</time>
      </trkpt>
      <trkpt lat="37.06422" lon="-3.37299">
        <ele>2999.2</ele>
        <time>2021-08-05 14:10:08</time>
      </trkpt>
      <trkpt lat="37.06421" lon="-3.37299">
        <ele>2999.6</ele>
        <time>2021-08-05 14:10:09</time>
      </trkpt>
      <trkpt lat="37.06421" lon="-3.37299">
        <ele>2999.6</ele>
        <time>2021-08-05 14:10:10</time>
      </trkpt>
      <trkpt lat="37.0642" lon="-3.37299">
        <ele>2999.8</ele>
        <time>2021-08-05 14:10:11</time>
      </trkpt>
      <trkpt lat="37.0642" lon="-3.37299">
        <ele>2999.8</ele>
        <time>2021-08-05 14:10:12</time>
      </trkpt>
      <trkpt lat="37.0642" lon="-3.37297">
        <ele>2999.8</ele>
        <time>2021-08-05 14:10:13</time>
      </trkpt>
      <trkpt lat="37.0642" lon="-3.37296">
        <ele>3000</ele>
        <time>2021-08-05 14:10:14</time>
      </trkpt>
      <trkpt lat="37.0642" lon="-3.37296">
        <ele>3000.2</ele>
        <time>2021-08-05 14:10:15</time>
      </trkpt>
      <trkpt lat="37.0642" lon="-3.37296">
        <ele>3000.4</ele>
        <time>2021-08-05 14:10:16</time>
      </trkpt>
      <trkpt lat="37.0642" lon="-3.37296">
        <ele>3000.6</ele>
        <time>2021-08-05 14:10:17</time>
      </trkpt>
      <trkpt lat="37.0642" lon="-3.37295">
        <ele>3000.8</ele>
        <time>2021-08-05 14:10:18</time>
      </trkpt>
      <trkpt lat="37.06419" lon="-3.37295">
        <ele>3000.8</ele>
        <time>2021-08-05 14:10:19</time>
      </trkpt>
      <trkpt lat="37.06419" lon="-3.37294">
        <ele>3000.8</ele>
        <time>2021-08-05 14:10:20</time>
      </trkpt>
      <trkpt lat="37.06419" lon="-3.37294">
        <ele>3001</ele>
        <time>2021-08-05 14:10:21</time>
      </trkpt>
      <trkpt lat="37.06419" lon="-3.37294">
        <ele>3001</ele>
        <time>2021-08-05 14:10:22</time>
      </trkpt>
      <trkpt lat="37.06419" lon="-3.37294">
        <ele>3001</ele>
        <time>2021-08-05 14:10:23</time>
      </trkpt>
      <trkpt lat="37.06419" lon="-3.37294">
        <ele>3000.8</ele>
        <time>2021-08-05 14:10:24</time>
      </trkpt>
      <trkpt lat="37.06419" lon="-3.37295">
        <ele>3000.8</ele>
        <time>2021-08-05 14:10:25</time>
      </trkpt>
      <trkpt lat="37.06419" lon="-3.37295">
        <ele>3000.8</ele>
        <time>2021-08-05 14:10:26</time>
      </trkpt>
      <trkpt lat="37.06419" lon="-3.37296">
        <ele>3000.8</ele>
        <time>2021-08-05 14:10:27</time>
      </trkpt>
      <trkpt lat="37.06419" lon="-3.37296">
        <ele>3000.8</ele>
        <time>2021-08-05 14:10:28</time>
      </trkpt>
      <trkpt lat="37.06418" lon="-3.37294">
        <ele>3001</ele>
        <time>2021-08-05 14:10:29</time>
      </trkpt>
      <trkpt lat="37.06418" lon="-3.37292">
        <ele>3001.2</ele>
        <time>2021-08-05 14:10:30</time>
      </trkpt>
      <trkpt lat="37.06417" lon="-3.37291">
        <ele>3001.2</ele>
        <time>2021-08-05 14:10:31</time>
      </trkpt>
      <trkpt lat="37.06416" lon="-3.37291">
        <ele>3001.4</ele>
        <time>2021-08-05 14:10:32</time>
      </trkpt>
      <trkpt lat="37.06416" lon="-3.37291">
        <ele>3001.6</ele>
        <time>2021-08-05 14:10:33</time>
      </trkpt>
      <trkpt lat="37.06415" lon="-3.3729">
        <ele>3001.8</ele>
        <time>2021-08-05 14:10:34</time>
      </trkpt>
      <trkpt lat="37.06415" lon="-3.3729">
        <ele>3002</ele>
        <time>2021-08-05 14:10:35</time>
      </trkpt>
      <trkpt lat="37.06413" lon="-3.3729">
        <ele>3002</ele>
        <time>2021-08-05 14:10:36</time>
      </trkpt>
      <trkpt lat="37.06413" lon="-3.3729">
        <ele>3002.4</ele>
        <time>2021-08-05 14:10:37</time>
      </trkpt>
      <trkpt lat="37.06413" lon="-3.37291">
        <ele>3002.8</ele>
        <time>2021-08-05 14:10:38</time>
      </trkpt>
      <trkpt lat="37.06412" lon="-3.37291">
        <ele>3003.2</ele>
        <time>2021-08-05 14:10:39</time>
      </trkpt>
      <trkpt lat="37.06412" lon="-3.37291">
        <ele>3003.4</ele>
        <time>2021-08-05 14:10:40</time>
      </trkpt>
      <trkpt lat="37.06411" lon="-3.37291">
        <ele>3004</ele>
        <time>2021-08-05 14:10:41</time>
      </trkpt>
      <trkpt lat="37.06411" lon="-3.37291">
        <ele>3004.2</ele>
        <time>2021-08-05 14:10:42</time>
      </trkpt>
      <trkpt lat="37.06411" lon="-3.37291">
        <ele>3004</ele>
        <time>2021-08-05 14:10:43</time>
      </trkpt>
      <trkpt lat="37.06411" lon="-3.37289">
        <ele>3004.2</ele>
        <time>2021-08-05 14:10:44</time>
      </trkpt>
      <trkpt lat="37.0641" lon="-3.37289">
        <ele>3004.4</ele>
        <time>2021-08-05 14:10:45</time>
      </trkpt>
      <trkpt lat="37.0641" lon="-3.37288">
        <ele>3004.6</ele>
        <time>2021-08-05 14:10:46</time>
      </trkpt>
      <trkpt lat="37.0641" lon="-3.37287">
        <ele>3004.6</ele>
        <time>2021-08-05 14:10:47</time>
      </trkpt>
      <trkpt lat="37.06409" lon="-3.37286">
        <ele>3004.6</ele>
        <time>2021-08-05 14:10:48</time>
      </trkpt>
      <trkpt lat="37.06409" lon="-3.37285">
        <ele>3004.6</ele>
        <time>2021-08-05 14:10:49</time>
      </trkpt>
      <trkpt lat="37.06408" lon="-3.37285">
        <ele>3005</ele>
        <time>2021-08-05 14:10:50</time>
      </trkpt>
      <trkpt lat="37.06408" lon="-3.37285">
        <ele>3005.2</ele>
        <time>2021-08-05 14:10:51</time>
      </trkpt>
      <trkpt lat="37.06407" lon="-3.37286">
        <ele>3005.4</ele>
        <time>2021-08-05 14:10:52</time>
      </trkpt>
      <trkpt lat="37.06406" lon="-3.37287">
        <ele>3005.8</ele>
        <time>2021-08-05 14:10:53</time>
      </trkpt>
      <trkpt lat="37.06406" lon="-3.37286">
        <ele>3006</ele>
        <time>2021-08-05 14:10:54</time>
      </trkpt>
      <trkpt lat="37.06406" lon="-3.37285">
        <ele>3006.4</ele>
        <time>2021-08-05 14:10:55</time>
      </trkpt>
      <trkpt lat="37.06406" lon="-3.37284">
        <ele>3006.8</ele>
        <time>2021-08-05 14:10:56</time>
      </trkpt>
      <trkpt lat="37.06405" lon="-3.37283">
        <ele>3006.8</ele>
        <time>2021-08-05 14:10:57</time>
      </trkpt>
      <trkpt lat="37.06404" lon="-3.37284">
        <ele>3007</ele>
        <time>2021-08-05 14:10:58</time>
      </trkpt>
      <trkpt lat="37.06404" lon="-3.37284">
        <ele>3007.2</ele>
        <time>2021-08-05 14:10:59</time>
      </trkpt>
      <trkpt lat="37.06403" lon="-3.37285">
        <ele>3007.4</ele>
        <time>2021-08-05 14:11:00</time>
      </trkpt>
      <trkpt lat="37.06403" lon="-3.37285">
        <ele>3007.4</ele>
        <time>2021-08-05 14:11:01</time>
      </trkpt>
      <trkpt lat="37.06402" lon="-3.37285">
        <ele>3007.4</ele>
        <time>2021-08-05 14:11:02</time>
      </trkpt>
      <trkpt lat="37.06401" lon="-3.37285">
        <ele>3007.4</ele>
        <time>2021-08-05 14:11:03</time>
      </trkpt>
      <trkpt lat="37.06401" lon="-3.37285">
        <ele>3007.4</ele>
        <time>2021-08-05 14:11:04</time>
      </trkpt>
      <trkpt lat="37.064" lon="-3.37286">
        <ele>3007.4</ele>
        <time>2021-08-05 14:11:05</time>
      </trkpt>
      <trkpt lat="37.06399" lon="-3.37286">
        <ele>3007.4</ele>
        <time>2021-08-05 14:11:06</time>
      </trkpt>
      <trkpt lat="37.06399" lon="-3.37284">
        <ele>3007.4</ele>
        <time>2021-08-05 14:11:07</time>
      </trkpt>
      <trkpt lat="37.06399" lon="-3.37284">
        <ele>3007.4</ele>
        <time>2021-08-05 14:11:08</time>
      </trkpt>
      <trkpt lat="37.06399" lon="-3.37283">
        <ele>3007.6</ele>
        <time>2021-08-05 14:11:09</time>
      </trkpt>
      <trkpt lat="37.06399" lon="-3.37283">
        <ele>3007.6</ele>
        <time>2021-08-05 14:11:10</time>
      </trkpt>
      <trkpt lat="37.06398" lon="-3.37282">
        <ele>3007.8</ele>
        <time>2021-08-05 14:11:11</time>
      </trkpt>
      <trkpt lat="37.06399" lon="-3.3728">
        <ele>3007.8</ele>
        <time>2021-08-05 14:11:12</time>
      </trkpt>
      <trkpt lat="37.06399" lon="-3.37279">
        <ele>3008</ele>
        <time>2021-08-05 14:11:13</time>
      </trkpt>
      <trkpt lat="37.06399" lon="-3.37278">
        <ele>3008.6</ele>
        <time>2021-08-05 14:11:14</time>
      </trkpt>
      <trkpt lat="37.06399" lon="-3.37277">
        <ele>3008.8</ele>
        <time>2021-08-05 14:11:15</time>
      </trkpt>
      <trkpt lat="37.06399" lon="-3.37277">
        <ele>3008.8</ele>
        <time>2021-08-05 14:11:16</time>
      </trkpt>
      <trkpt lat="37.06399" lon="-3.37276">
        <ele>3009</ele>
        <time>2021-08-05 14:11:17</time>
      </trkpt>
      <trkpt lat="37.06398" lon="-3.37276">
        <ele>3009</ele>
        <time>2021-08-05 14:11:18</time>
      </trkpt>
      <trkpt lat="37.06398" lon="-3.37276">
        <ele>3008.8</ele>
        <time>2021-08-05 14:11:19</time>
      </trkpt>
      <trkpt lat="37.06398" lon="-3.37275">
        <ele>3008.8</ele>
        <time>2021-08-05 14:11:20</time>
      </trkpt>
      <trkpt lat="37.06397" lon="-3.37275">
        <ele>3008.6</ele>
        <time>2021-08-05 14:11:21</time>
      </trkpt>
      <trkpt lat="37.06397" lon="-3.37275">
        <ele>3008.6</ele>
        <time>2021-08-05 14:11:22</time>
      </trkpt>
      <trkpt lat="37.06396" lon="-3.37275">
        <ele>3008.6</ele>
        <time>2021-08-05 14:11:23</time>
      </trkpt>
      <trkpt lat="37.06396" lon="-3.37275">
        <ele>3008.6</ele>
        <time>2021-08-05 14:11:24</time>
      </trkpt>
      <trkpt lat="37.06395" lon="-3.37275">
        <ele>3008.6</ele>
        <time>2021-08-05 14:11:25</time>
      </trkpt>
      <trkpt lat="37.06395" lon="-3.37274">
        <ele>3008.8</ele>
        <time>2021-08-05 14:11:26</time>
      </trkpt>
      <trkpt lat="37.06394" lon="-3.37274">
        <ele>3008.8</ele>
        <time>2021-08-05 14:11:27</time>
      </trkpt>
      <trkpt lat="37.06394" lon="-3.37273">
        <ele>3008.8</ele>
        <time>2021-08-05 14:11:28</time>
      </trkpt>
      <trkpt lat="37.06394" lon="-3.37272">
        <ele>3009.2</ele>
        <time>2021-08-05 14:11:29</time>
      </trkpt>
      <trkpt lat="37.06393" lon="-3.37272">
        <ele>3009.2</ele>
        <time>2021-08-05 14:11:30</time>
      </trkpt>
      <trkpt lat="37.06392" lon="-3.37272">
        <ele>3009.4</ele>
        <time>2021-08-05 14:11:31</time>
      </trkpt>
      <trkpt lat="37.06391" lon="-3.37272">
        <ele>3009.4</ele>
        <time>2021-08-05 14:11:32</time>
      </trkpt>
      <trkpt lat="37.0639" lon="-3.37272">
        <ele>3009.4</ele>
        <time>2021-08-05 14:11:33</time>
      </trkpt>
      <trkpt lat="37.0639" lon="-3.37273">
        <ele>3009.2</ele>
        <time>2021-08-05 14:11:34</time>
      </trkpt>
      <trkpt lat="37.06389" lon="-3.37274">
        <ele>3009.2</ele>
        <time>2021-08-05 14:11:35</time>
      </trkpt>
      <trkpt lat="37.06387" lon="-3.37274">
        <ele>3009</ele>
        <time>2021-08-05 14:11:36</time>
      </trkpt>
      <trkpt lat="37.06387" lon="-3.37274">
        <ele>3009</ele>
        <time>2021-08-05 14:11:37</time>
      </trkpt>
      <trkpt lat="37.06386" lon="-3.37274">
        <ele>3009</ele>
        <time>2021-08-05 14:11:38</time>
      </trkpt>
      <trkpt lat="37.06385" lon="-3.37274">
        <ele>3009</ele>
        <time>2021-08-05 14:11:39</time>
      </trkpt>
      <trkpt lat="37.06385" lon="-3.37274">
        <ele>3009.2</ele>
        <time>2021-08-05 14:11:40</time>
      </trkpt>
      <trkpt lat="37.06383" lon="-3.37273">
        <ele>3009.2</ele>
        <time>2021-08-05 14:11:41</time>
      </trkpt>
      <trkpt lat="37.06383" lon="-3.37273">
        <ele>3009.2</ele>
        <time>2021-08-05 14:11:42</time>
      </trkpt>
      <trkpt lat="37.06383" lon="-3.37273">
        <ele>3009.4</ele>
        <time>2021-08-05 14:11:43</time>
      </trkpt>
      <trkpt lat="37.06382" lon="-3.37272">
        <ele>3009.6</ele>
        <time>2021-08-05 14:11:44</time>
      </trkpt>
      <trkpt lat="37.06381" lon="-3.37272">
        <ele>3009.8</ele>
        <time>2021-08-05 14:11:45</time>
      </trkpt>
      <trkpt lat="37.06381" lon="-3.37272">
        <ele>3009.8</ele>
        <time>2021-08-05 14:11:46</time>
      </trkpt>
      <trkpt lat="37.06381" lon="-3.37272">
        <ele>3010</ele>
        <time>2021-08-05 14:11:47</time>
      </trkpt>
      <trkpt lat="37.0638" lon="-3.3727">
        <ele>3010</ele>
        <time>2021-08-05 14:11:48</time>
      </trkpt>
      <trkpt lat="37.0638" lon="-3.37269">
        <ele>3010</ele>
        <time>2021-08-05 14:11:49</time>
      </trkpt>
      <trkpt lat="37.06379" lon="-3.37268">
        <ele>3010</ele>
        <time>2021-08-05 14:11:50</time>
      </trkpt>
      <trkpt lat="37.06379" lon="-3.37266">
        <ele>3010.2</ele>
        <time>2021-08-05 14:11:51</time>
      </trkpt>
      <trkpt lat="37.06378" lon="-3.37264">
        <ele>3010.2</ele>
        <time>2021-08-05 14:11:52</time>
      </trkpt>
      <trkpt lat="37.06378" lon="-3.37261">
        <ele>3010.2</ele>
        <time>2021-08-05 14:11:53</time>
      </trkpt>
      <trkpt lat="37.06378" lon="-3.3726">
        <ele>3010.2</ele>
        <time>2021-08-05 14:11:54</time>
      </trkpt>
      <trkpt lat="37.06378" lon="-3.37259">
        <ele>3010.4</ele>
        <time>2021-08-05 14:11:55</time>
      </trkpt>
      <trkpt lat="37.06378" lon="-3.37258">
        <ele>3010.4</ele>
        <time>2021-08-05 14:11:56</time>
      </trkpt>
      <trkpt lat="37.06378" lon="-3.37257">
        <ele>3010.4</ele>
        <time>2021-08-05 14:11:57</time>
      </trkpt>
      <trkpt lat="37.06379" lon="-3.37257">
        <ele>3010.4</ele>
        <time>2021-08-05 14:11:58</time>
      </trkpt>
      <trkpt lat="37.0638" lon="-3.37256">
        <ele>3010.4</ele>
        <time>2021-08-05 14:11:59</time>
      </trkpt>
      <trkpt lat="37.0638" lon="-3.37255">
        <ele>3010.6</ele>
        <time>2021-08-05 14:12:00</time>
      </trkpt>
      <trkpt lat="37.0638" lon="-3.37254">
        <ele>3010.6</ele>
        <time>2021-08-05 14:12:01</time>
      </trkpt>
      <trkpt lat="37.0638" lon="-3.37254">
        <ele>3010.8</ele>
        <time>2021-08-05 14:12:02</time>
      </trkpt>
      <trkpt lat="37.0638" lon="-3.37253">
        <ele>3011</ele>
        <time>2021-08-05 14:12:03</time>
      </trkpt>
      <trkpt lat="37.0638" lon="-3.37253">
        <ele>3011</ele>
        <time>2021-08-05 14:12:04</time>
      </trkpt>
      <trkpt lat="37.0638" lon="-3.37252">
        <ele>3011.2</ele>
        <time>2021-08-05 14:12:05</time>
      </trkpt>
      <trkpt lat="37.0638" lon="-3.37252">
        <ele>3011.6</ele>
        <time>2021-08-05 14:12:06</time>
      </trkpt>
      <trkpt lat="37.06379" lon="-3.37251">
        <ele>3011.8</ele>
        <time>2021-08-05 14:12:07</time>
      </trkpt>
      <trkpt lat="37.06379" lon="-3.3725">
        <ele>3011.8</ele>
        <time>2021-08-05 14:12:08</time>
      </trkpt>
      <trkpt lat="37.06378" lon="-3.3725">
        <ele>3011.8</ele>
        <time>2021-08-05 14:12:09</time>
      </trkpt>
      <trkpt lat="37.06379" lon="-3.37249">
        <ele>3011.8</ele>
        <time>2021-08-05 14:12:10</time>
      </trkpt>
      <trkpt lat="37.06379" lon="-3.37248">
        <ele>3012</ele>
        <time>2021-08-05 14:12:11</time>
      </trkpt>
      <trkpt lat="37.06379" lon="-3.37248">
        <ele>3012</ele>
        <time>2021-08-05 14:12:12</time>
      </trkpt>
      <trkpt lat="37.0638" lon="-3.37247">
        <ele>3012</ele>
        <time>2021-08-05 14:12:13</time>
      </trkpt>
      <trkpt lat="37.0638" lon="-3.37246">
        <ele>3012</ele>
        <time>2021-08-05 14:12:14</time>
      </trkpt>
      <trkpt lat="37.0638" lon="-3.37245">
        <ele>3012</ele>
        <time>2021-08-05 14:12:15</time>
      </trkpt>
      <trkpt lat="37.06381" lon="-3.37244">
        <ele>3012</ele>
        <time>2021-08-05 14:12:16</time>
      </trkpt>
      <trkpt lat="37.06381" lon="-3.37244">
        <ele>3012</ele>
        <time>2021-08-05 14:12:17</time>
      </trkpt>
      <trkpt lat="37.06381" lon="-3.37243">
        <ele>3012.2</ele>
        <time>2021-08-05 14:12:18</time>
      </trkpt>
      <trkpt lat="37.06381" lon="-3.37242">
        <ele>3012.4</ele>
        <time>2021-08-05 14:12:19</time>
      </trkpt>
      <trkpt lat="37.06381" lon="-3.37242">
        <ele>3012.6</ele>
        <time>2021-08-05 14:12:20</time>
      </trkpt>
      <trkpt lat="37.06382" lon="-3.37241">
        <ele>3012.6</ele>
        <time>2021-08-05 14:12:21</time>
      </trkpt>
      <trkpt lat="37.06382" lon="-3.3724">
        <ele>3012.8</ele>
        <time>2021-08-05 14:12:22</time>
      </trkpt>
      <trkpt lat="37.06383" lon="-3.3724">
        <ele>3012.8</ele>
        <time>2021-08-05 14:12:23</time>
      </trkpt>
      <trkpt lat="37.06383" lon="-3.3724">
        <ele>3013</ele>
        <time>2021-08-05 14:12:24</time>
      </trkpt>
      <trkpt lat="37.06384" lon="-3.37239">
        <ele>3013</ele>
        <time>2021-08-05 14:12:25</time>
      </trkpt>
      <trkpt lat="37.06384" lon="-3.37239">
        <ele>3013</ele>
        <time>2021-08-05 14:12:26</time>
      </trkpt>
      <trkpt lat="37.06385" lon="-3.3724">
        <ele>3013</ele>
        <time>2021-08-05 14:12:27</time>
      </trkpt>
      <trkpt lat="37.06385" lon="-3.3724">
        <ele>3013</ele>
        <time>2021-08-05 14:12:28</time>
      </trkpt>
      <trkpt lat="37.06385" lon="-3.3724">
        <ele>3013</ele>
        <time>2021-08-05 14:12:29</time>
      </trkpt>
      <trkpt lat="37.06385" lon="-3.37239">
        <ele>3013.2</ele>
        <time>2021-08-05 14:12:30</time>
      </trkpt>
      <trkpt lat="37.06386" lon="-3.37237">
        <ele>3013.2</ele>
        <time>2021-08-05 14:12:31</time>
      </trkpt>
      <trkpt lat="37.06386" lon="-3.37237">
        <ele>3013.2</ele>
        <time>2021-08-05 14:12:32</time>
      </trkpt>
      <trkpt lat="37.06385" lon="-3.37237">
        <ele>3013.2</ele>
        <time>2021-08-05 14:12:33</time>
      </trkpt>
      <trkpt lat="37.06385" lon="-3.37237">
        <ele>3013.2</ele>
        <time>2021-08-05 14:12:34</time>
      </trkpt>
      <trkpt lat="37.06385" lon="-3.37237">
        <ele>3013.2</ele>
        <time>2021-08-05 14:12:35</time>
      </trkpt>
      <trkpt lat="37.06385" lon="-3.37238">
        <ele>3013.2</ele>
        <time>2021-08-05 14:12:36</time>
      </trkpt>
      <trkpt lat="37.06385" lon="-3.37238">
        <ele>3013</ele>
        <time>2021-08-05 14:12:37</time>
      </trkpt>
      <trkpt lat="37.06385" lon="-3.37238">
        <ele>3013</ele>
        <time>2021-08-05 14:12:38</time>
      </trkpt>
      <trkpt lat="37.06385" lon="-3.37238">
        <ele>3013</ele>
        <time>2021-08-05 14:12:39</time>
      </trkpt>
      <trkpt lat="37.06385" lon="-3.37237">
        <ele>3013</ele>
        <time>2021-08-05 14:12:40</time>
      </trkpt>
      <trkpt lat="37.06384" lon="-3.37237">
        <ele>3013</ele>
        <time>2021-08-05 14:12:41</time>
      </trkpt>
      <trkpt lat="37.06384" lon="-3.37237">
        <ele>3013</ele>
        <time>2021-08-05 14:12:42</time>
      </trkpt>
      <trkpt lat="37.06384" lon="-3.37237">
        <ele>3013</ele>
        <time>2021-08-05 14:12:43</time>
      </trkpt>
      <trkpt lat="37.06386" lon="-3.37237">
        <ele>3013</ele>
        <time>2021-08-05 14:12:44</time>
      </trkpt>
      <trkpt lat="37.06386" lon="-3.37237">
        <ele>3013.2</ele>
        <time>2021-08-05 14:12:45</time>
      </trkpt>
      <trkpt lat="37.06385" lon="-3.37235">
        <ele>3013.2</ele>
        <time>2021-08-05 14:12:46</time>
      </trkpt>
      <trkpt lat="37.06385" lon="-3.37235">
        <ele>3013.2</ele>
        <time>2021-08-05 14:12:47</time>
      </trkpt>
      <trkpt lat="37.06386" lon="-3.37234">
        <ele>3013.4</ele>
        <time>2021-08-05 14:12:48</time>
      </trkpt>
      <trkpt lat="37.06387" lon="-3.37234">
        <ele>3013.4</ele>
        <time>2021-08-05 14:12:49</time>
      </trkpt>
      <trkpt lat="37.0639" lon="-3.37234">
        <ele>3013.4</ele>
        <time>2021-08-05 14:12:50</time>
      </trkpt>
      <trkpt lat="37.06391" lon="-3.37234">
        <ele>3013.6</ele>
        <time>2021-08-05 14:12:51</time>
      </trkpt>
      <trkpt lat="37.06392" lon="-3.37234">
        <ele>3013.6</ele>
        <time>2021-08-05 14:12:52</time>
      </trkpt>
      <trkpt lat="37.06393" lon="-3.37234">
        <ele>3013.8</ele>
        <time>2021-08-05 14:12:53</time>
      </trkpt>
      <trkpt lat="37.06395" lon="-3.37234">
        <ele>3014</ele>
        <time>2021-08-05 14:12:54</time>
      </trkpt>
      <trkpt lat="37.06395" lon="-3.37234">
        <ele>3014.2</ele>
        <time>2021-08-05 14:12:55</time>
      </trkpt>
      <trkpt lat="37.06396" lon="-3.37234">
        <ele>3014.2</ele>
        <time>2021-08-05 14:12:56</time>
      </trkpt>
      <trkpt lat="37.06396" lon="-3.37234">
        <ele>3014.4</ele>
        <time>2021-08-05 14:12:57</time>
      </trkpt>
      <trkpt lat="37.06397" lon="-3.37234">
        <ele>3014.6</ele>
        <time>2021-08-05 14:12:58</time>
      </trkpt>
      <trkpt lat="37.06397" lon="-3.37234">
        <ele>3014.6</ele>
        <time>2021-08-05 14:12:59</time>
      </trkpt>
      <trkpt lat="37.06398" lon="-3.37234">
        <ele>3014.8</ele>
        <time>2021-08-05 14:13:00</time>
      </trkpt>
      <trkpt lat="37.064" lon="-3.37234">
        <ele>3015</ele>
        <time>2021-08-05 14:13:01</time>
      </trkpt>
      <trkpt lat="37.06402" lon="-3.37234">
        <ele>3015.2</ele>
        <time>2021-08-05 14:13:02</time>
      </trkpt>
      <trkpt lat="37.06402" lon="-3.37234">
        <ele>3015.4</ele>
        <time>2021-08-05 14:13:03</time>
      </trkpt>
      <trkpt lat="37.06403" lon="-3.37235">
        <ele>3015.4</ele>
        <time>2021-08-05 14:13:04</time>
      </trkpt>
      <trkpt lat="37.06403" lon="-3.37235">
        <ele>3015.4</ele>
        <time>2021-08-05 14:13:05</time>
      </trkpt>
      <trkpt lat="37.06405" lon="-3.37235">
        <ele>3015.4</ele>
        <time>2021-08-05 14:13:06</time>
      </trkpt>
      <trkpt lat="37.06405" lon="-3.37235">
        <ele>3015.4</ele>
        <time>2021-08-05 14:13:07</time>
      </trkpt>
      <trkpt lat="37.06406" lon="-3.37236">
        <ele>3015.4</ele>
        <time>2021-08-05 14:13:08</time>
      </trkpt>
      <trkpt lat="37.06407" lon="-3.37236">
        <ele>3015.6</ele>
        <time>2021-08-05 14:13:09</time>
      </trkpt>
      <trkpt lat="37.06408" lon="-3.37236">
        <ele>3015.6</ele>
        <time>2021-08-05 14:13:10</time>
      </trkpt>
      <trkpt lat="37.06408" lon="-3.37236">
        <ele>3015.6</ele>
        <time>2021-08-05 14:13:11</time>
      </trkpt>
      <trkpt lat="37.06408" lon="-3.37236">
        <ele>3015.4</ele>
        <time>2021-08-05 14:13:12</time>
      </trkpt>
      <trkpt lat="37.06409" lon="-3.37234">
        <ele>3015.4</ele>
        <time>2021-08-05 14:13:13</time>
      </trkpt>
      <trkpt lat="37.0641" lon="-3.37235">
        <ele>3015.4</ele>
        <time>2021-08-05 14:13:14</time>
      </trkpt>
      <trkpt lat="37.06409" lon="-3.37235">
        <ele>3015.4</ele>
        <time>2021-08-05 14:13:15</time>
      </trkpt>
      <trkpt lat="37.0641" lon="-3.37236">
        <ele>3015.4</ele>
        <time>2021-08-05 14:13:16</time>
      </trkpt>
      <trkpt lat="37.0641" lon="-3.37237">
        <ele>3015.4</ele>
        <time>2021-08-05 14:13:17</time>
      </trkpt>
      <trkpt lat="37.0641" lon="-3.37237">
        <ele>3015.6</ele>
        <time>2021-08-05 14:13:18</time>
      </trkpt>
      <trkpt lat="37.0641" lon="-3.37237">
        <ele>3015.6</ele>
        <time>2021-08-05 14:13:19</time>
      </trkpt>
      <trkpt lat="37.0641" lon="-3.37237">
        <ele>3015.6</ele>
        <time>2021-08-05 14:13:20</time>
      </trkpt>
      <trkpt lat="37.0641" lon="-3.37237">
        <ele>3015.8</ele>
        <time>2021-08-05 14:13:21</time>
      </trkpt>
      <trkpt lat="37.0641" lon="-3.37237">
        <ele>3015.8</ele>
        <time>2021-08-05 14:13:22</time>
      </trkpt>
      <trkpt lat="37.06408" lon="-3.37236">
        <ele>3016</ele>
        <time>2021-08-05 14:13:23</time>
      </trkpt>
      <trkpt lat="37.06409" lon="-3.37234">
        <ele>3016</ele>
        <time>2021-08-05 14:13:24</time>
      </trkpt>
      <trkpt lat="37.0641" lon="-3.37233">
        <ele>3016</ele>
        <time>2021-08-05 14:13:25</time>
      </trkpt>
      <trkpt lat="37.0641" lon="-3.37232">
        <ele>3016</ele>
        <time>2021-08-05 14:13:26</time>
      </trkpt>
      <trkpt lat="37.06409" lon="-3.37232">
        <ele>3016</ele>
        <time>2021-08-05 14:13:27</time>
      </trkpt>
      <trkpt lat="37.06409" lon="-3.37232">
        <ele>3015.8</ele>
        <time>2021-08-05 14:13:28</time>
      </trkpt>
      <trkpt lat="37.06409" lon="-3.37231">
        <ele>3015.8</ele>
        <time>2021-08-05 14:13:29</time>
      </trkpt>
      <trkpt lat="37.06409" lon="-3.37231">
        <ele>3015.6</ele>
        <time>2021-08-05 14:13:30</time>
      </trkpt>
      <trkpt lat="37.06409" lon="-3.37231">
        <ele>3015.6</ele>
        <time>2021-08-05 14:13:31</time>
      </trkpt>
      <trkpt lat="37.06409" lon="-3.37231">
        <ele>3015.6</ele>
        <time>2021-08-05 14:13:32</time>
      </trkpt>
      <trkpt lat="37.06409" lon="-3.37232">
        <ele>3015.6</ele>
        <time>2021-08-05 14:13:33</time>
      </trkpt>
      <trkpt lat="37.06409" lon="-3.37232">
        <ele>3015.4</ele>
        <time>2021-08-05 14:13:34</time>
      </trkpt>
      <trkpt lat="37.06409" lon="-3.37232">
        <ele>3015.4</ele>
        <time>2021-08-05 14:13:35</time>
      </trkpt>
      <trkpt lat="37.0641" lon="-3.37232">
        <ele>3015.4</ele>
        <time>2021-08-05 14:13:36</time>
      </trkpt>
      <trkpt lat="37.0641" lon="-3.37232">
        <ele>3015.4</ele>
        <time>2021-08-05 14:13:37</time>
      </trkpt>
      <trkpt lat="37.0641" lon="-3.37231">
        <ele>3015.4</ele>
        <time>2021-08-05 14:13:38</time>
      </trkpt>
      <trkpt lat="37.0641" lon="-3.37231">
        <ele>3015.4</ele>
        <time>2021-08-05 14:13:39</time>
      </trkpt>
      <trkpt lat="37.06411" lon="-3.37232">
        <ele>3015.2</ele>
        <time>2021-08-05 14:13:40</time>
      </trkpt>
      <trkpt lat="37.06411" lon="-3.37232">
        <ele>3015.2</ele>
        <time>2021-08-05 14:13:41</time>
      </trkpt>
      <trkpt lat="37.06411" lon="-3.37233">
        <ele>3015.4</ele>
        <time>2021-08-05 14:13:42</time>
      </trkpt>
      <trkpt lat="37.06411" lon="-3.37233">
        <ele>3015.4</ele>
        <time>2021-08-05 14:13:43</time>
      </trkpt>
      <trkpt lat="37.06411" lon="-3.37233">
        <ele>3015.6</ele>
        <time>2021-08-05 14:13:44</time>
      </trkpt>
      <trkpt lat="37.06412" lon="-3.37233">
        <ele>3016</ele>
        <time>2021-08-05 14:13:45</time>
      </trkpt>
      <trkpt lat="37.06412" lon="-3.37233">
        <ele>3016</ele>
        <time>2021-08-05 14:13:46</time>
      </trkpt>
      <trkpt lat="37.06413" lon="-3.37233">
        <ele>3016.4</ele>
        <time>2021-08-05 14:13:47</time>
      </trkpt>
      <trkpt lat="37.06413" lon="-3.37233">
        <ele>3016.4</ele>
        <time>2021-08-05 14:13:48</time>
      </trkpt>
      <trkpt lat="37.06412" lon="-3.37233">
        <ele>3016.4</ele>
        <time>2021-08-05 14:13:49</time>
      </trkpt>
      <trkpt lat="37.06412" lon="-3.37233">
        <ele>3016.6</ele>
        <time>2021-08-05 14:13:50</time>
      </trkpt>
      <trkpt lat="37.06413" lon="-3.37232">
        <ele>3016.6</ele>
        <time>2021-08-05 14:13:51</time>
      </trkpt>
      <trkpt lat="37.06413" lon="-3.37232">
        <ele>3016.2</ele>
        <time>2021-08-05 14:13:52</time>
      </trkpt>
      <trkpt lat="37.06413" lon="-3.37232">
        <ele>3016</ele>
        <time>2021-08-05 14:13:53</time>
      </trkpt>
      <trkpt lat="37.06414" lon="-3.37232">
        <ele>3015.8</ele>
        <time>2021-08-05 14:13:54</time>
      </trkpt>
      <trkpt lat="37.06414" lon="-3.37232">
        <ele>3015.8</ele>
        <time>2021-08-05 14:13:55</time>
      </trkpt>
      <trkpt lat="37.06413" lon="-3.37232">
        <ele>3015.8</ele>
        <time>2021-08-05 14:13:56</time>
      </trkpt>
      <trkpt lat="37.06413" lon="-3.37232">
        <ele>3015.8</ele>
        <time>2021-08-05 14:13:57</time>
      </trkpt>
      <trkpt lat="37.06414" lon="-3.37232">
        <ele>3016</ele>
        <time>2021-08-05 14:13:58</time>
      </trkpt>
      <trkpt lat="37.06414" lon="-3.37233">
        <ele>3016</ele>
        <time>2021-08-05 14:13:59</time>
      </trkpt>
      <trkpt lat="37.06413" lon="-3.37233">
        <ele>3016.2</ele>
        <time>2021-08-05 14:14:00</time>
      </trkpt>
      <trkpt lat="37.06413" lon="-3.37233">
        <ele>3016.2</ele>
        <time>2021-08-05 14:14:01</time>
      </trkpt>
      <trkpt lat="37.06413" lon="-3.37233">
        <ele>3016.2</ele>
        <time>2021-08-05 14:14:02</time>
      </trkpt>
      <trkpt lat="37.06413" lon="-3.37233">
        <ele>3016.2</ele>
        <time>2021-08-05 14:14:03</time>
      </trkpt>
      <trkpt lat="37.06413" lon="-3.37233">
        <ele>3016.2</ele>
        <time>2021-08-05 14:14:04</time>
      </trkpt>
      <trkpt lat="37.06413" lon="-3.37233">
        <ele>3016.2</ele>
        <time>2021-08-05 14:14:05</time>
      </trkpt>
      <trkpt lat="37.06413" lon="-3.37233">
        <ele>3016.2</ele>
        <time>2021-08-05 14:14:06</time>
      </trkpt>
      <trkpt lat="37.06413" lon="-3.37233">
        <ele>3016.2</ele>
        <time>2021-08-05 14:14:07</time>
      </trkpt>
      <trkpt lat="37.06413" lon="-3.37233">
        <ele>3016.2</ele>
        <time>2021-08-05 14:14:08</time>
      </trkpt>
      <trkpt lat="37.06413" lon="-3.37233">
        <ele>3016.4</ele>
        <time>2021-08-05 14:14:09</time>
      </trkpt>
      <trkpt lat="37.06413" lon="-3.37233">
        <ele>3016.4</ele>
        <time>2021-08-05 14:14:10</time>
      </trkpt>
      <trkpt lat="37.06413" lon="-3.37233">
        <ele>3016.4</ele>
        <time>2021-08-05 14:14:11</time>
      </trkpt>
      <trkpt lat="37.06412" lon="-3.37234">
        <ele>3016.6</ele>
        <time>2021-08-05 14:14:12</time>
      </trkpt>
      <trkpt lat="37.06412" lon="-3.37234">
        <ele>3016.4</ele>
        <time>2021-08-05 14:14:13</time>
      </trkpt>
      <trkpt lat="37.06412" lon="-3.37234">
        <ele>3016.6</ele>
        <time>2021-08-05 14:14:14</time>
      </trkpt>
      <trkpt lat="37.06412" lon="-3.37234">
        <ele>3016.6</ele>
        <time>2021-08-05 14:14:15</time>
      </trkpt>
      <trkpt lat="37.06413" lon="-3.37235">
        <ele>3016.8</ele>
        <time>2021-08-05 14:14:16</time>
      </trkpt>
      <trkpt lat="37.06413" lon="-3.37235">
        <ele>3016.8</ele>
        <time>2021-08-05 14:14:17</time>
      </trkpt>
      <trkpt lat="37.06412" lon="-3.37235">
        <ele>3017</ele>
        <time>2021-08-05 14:14:18</time>
      </trkpt>
      <trkpt lat="37.06412" lon="-3.37235">
        <ele>3016.8</ele>
        <time>2021-08-05 14:14:19</time>
      </trkpt>
      <trkpt lat="37.06413" lon="-3.37235">
        <ele>3016.8</ele>
        <time>2021-08-05 14:14:20</time>
      </trkpt>
      <trkpt lat="37.06412" lon="-3.37235">
        <ele>3016.6</ele>
        <time>2021-08-05 14:14:21</time>
      </trkpt>
      <trkpt lat="37.06411" lon="-3.37236">
        <ele>3016.4</ele>
        <time>2021-08-05 14:14:22</time>
      </trkpt>
      <trkpt lat="37.0641" lon="-3.37236">
        <ele>3016.4</ele>
        <time>2021-08-05 14:14:23</time>
      </trkpt>
      <trkpt lat="37.0641" lon="-3.37236">
        <ele>3016.4</ele>
        <time>2021-08-05 14:14:24</time>
      </trkpt>
      <trkpt lat="37.0641" lon="-3.37236">
        <ele>3016</ele>
        <time>2021-08-05 14:14:25</time>
      </trkpt>
      <trkpt lat="37.06409" lon="-3.37236">
        <ele>3016</ele>
        <time>2021-08-05 14:14:26</time>
      </trkpt>
      <trkpt lat="37.06409" lon="-3.37237">
        <ele>3015.8</ele>
        <time>2021-08-05 14:14:27</time>
      </trkpt>
      <trkpt lat="37.06409" lon="-3.37237">
        <ele>3015.8</ele>
        <time>2021-08-05 14:14:28</time>
      </trkpt>
      <trkpt lat="37.06409" lon="-3.37237">
        <ele>3015.6</ele>
        <time>2021-08-05 14:14:29</time>
      </trkpt>
      <trkpt lat="37.06409" lon="-3.37237">
        <ele>3015.4</ele>
        <time>2021-08-05 14:14:30</time>
      </trkpt>
      <trkpt lat="37.06409" lon="-3.37237">
        <ele>3015.4</ele>
        <time>2021-08-05 14:14:31</time>
      </trkpt>
      <trkpt lat="37.0641" lon="-3.37237">
        <ele>3015.4</ele>
        <time>2021-08-05 14:14:32</time>
      </trkpt>
      <trkpt lat="37.0641" lon="-3.37237">
        <ele>3015.2</ele>
        <time>2021-08-05 14:14:33</time>
      </trkpt>
      <trkpt lat="37.0641" lon="-3.37236">
        <ele>3015.2</ele>
        <time>2021-08-05 14:14:34</time>
      </trkpt>
      <trkpt lat="37.0641" lon="-3.37236">
        <ele>3015.2</ele>
        <time>2021-08-05 14:14:35</time>
      </trkpt>
      <trkpt lat="37.0641" lon="-3.37235">
        <ele>3015.4</ele>
        <time>2021-08-05 14:14:36</time>
      </trkpt>
      <trkpt lat="37.0641" lon="-3.37235">
        <ele>3015.6</ele>
        <time>2021-08-05 14:14:37</time>
      </trkpt>
      <trkpt lat="37.0641" lon="-3.37235">
        <ele>3015.6</ele>
        <time>2021-08-05 14:14:38</time>
      </trkpt>
      <trkpt lat="37.0641" lon="-3.37235">
        <ele>3015.4</ele>
        <time>2021-08-05 14:14:39</time>
      </trkpt>
      <trkpt lat="37.0641" lon="-3.37235">
        <ele>3015.6</ele>
        <time>2021-08-05 14:14:40</time>
      </trkpt>
      <trkpt lat="37.0641" lon="-3.37235">
        <ele>3015.6</ele>
        <time>2021-08-05 14:14:41</time>
      </trkpt>
      <trkpt lat="37.0641" lon="-3.37235">
        <ele>3015.6</ele>
        <time>2021-08-05 14:14:42</time>
      </trkpt>
      <trkpt lat="37.0641" lon="-3.37235">
        <ele>3015.4</ele>
        <time>2021-08-05 14:14:43</time>
      </trkpt>
      <trkpt lat="37.0641" lon="-3.37235">
        <ele>3015.2</ele>
        <time>2021-08-05 14:14:44</time>
      </trkpt>
      <trkpt lat="37.06413" lon="-3.37239">
        <ele>3015</ele>
        <time>2021-08-05 14:14:45</time>
      </trkpt>
      <trkpt lat="37.06414" lon="-3.37238">
        <ele>3015</ele>
        <time>2021-08-05 15:18:32</time>
      </trkpt>
      <trkpt lat="37.06414" lon="-3.37237">
        <ele>3015</ele>
        <time>2021-08-05 15:18:33</time>
      </trkpt>
      <trkpt lat="37.06414" lon="-3.37237">
        <ele>3017</ele>
        <time>2021-08-05 15:18:34</time>
      </trkpt>
      <trkpt lat="37.06413" lon="-3.37237">
        <ele>3018</ele>
        <time>2021-08-05 15:18:35</time>
      </trkpt>
      <trkpt lat="37.06413" lon="-3.37237">
        <ele>3018.6</ele>
        <time>2021-08-05 15:18:36</time>
      </trkpt>
      <trkpt lat="37.06413" lon="-3.37237">
        <ele>3018.8</ele>
        <time>2021-08-05 15:18:37</time>
      </trkpt>
      <trkpt lat="37.06414" lon="-3.37237">
        <ele>3019</ele>
        <time>2021-08-05 15:18:38</time>
      </trkpt>
      <trkpt lat="37.06414" lon="-3.37236">
        <ele>3019</ele>
        <time>2021-08-05 15:18:39</time>
      </trkpt>
      <trkpt lat="37.06413" lon="-3.37237">
        <ele>3019.4</ele>
        <time>2021-08-05 15:18:40</time>
      </trkpt>
      <trkpt lat="37.06412" lon="-3.37237">
        <ele>3019.6</ele>
        <time>2021-08-05 15:18:41</time>
      </trkpt>
      <trkpt lat="37.06412" lon="-3.37237">
        <ele>3019.8</ele>
        <time>2021-08-05 15:18:42</time>
      </trkpt>
      <trkpt lat="37.06412" lon="-3.37237">
        <ele>3020</ele>
        <time>2021-08-05 15:18:43</time>
      </trkpt>
      <trkpt lat="37.06411" lon="-3.37238">
        <ele>3020</ele>
        <time>2021-08-05 15:18:44</time>
      </trkpt>
      <trkpt lat="37.06411" lon="-3.37238">
        <ele>3020.2</ele>
        <time>2021-08-05 15:18:45</time>
      </trkpt>
      <trkpt lat="37.06411" lon="-3.37237">
        <ele>3020.2</ele>
        <time>2021-08-05 15:18:46</time>
      </trkpt>
      <trkpt lat="37.06411" lon="-3.37237">
        <ele>3020.2</ele>
        <time>2021-08-05 15:18:47</time>
      </trkpt>
      <trkpt lat="37.06411" lon="-3.37237">
        <ele>3020.2</ele>
        <time>2021-08-05 15:18:48</time>
      </trkpt>
      <trkpt lat="37.06412" lon="-3.37236">
        <ele>3020.4</ele>
        <time>2021-08-05 15:18:49</time>
      </trkpt>
      <trkpt lat="37.06412" lon="-3.37236">
        <ele>3020.4</ele>
        <time>2021-08-05 15:18:50</time>
      </trkpt>
      <trkpt lat="37.06412" lon="-3.37236">
        <ele>3020.6</ele>
        <time>2021-08-05 15:18:51</time>
      </trkpt>
      <trkpt lat="37.06414" lon="-3.37235">
        <ele>3020.6</ele>
        <time>2021-08-05 15:18:52</time>
      </trkpt>
      <trkpt lat="37.06414" lon="-3.37234">
        <ele>3020.6</ele>
        <time>2021-08-05 15:18:53</time>
      </trkpt>
      <trkpt lat="37.06415" lon="-3.37232">
        <ele>3020.4</ele>
        <time>2021-08-05 15:18:54</time>
      </trkpt>
      <trkpt lat="37.06415" lon="-3.37232">
        <ele>3020.4</ele>
        <time>2021-08-05 15:18:55</time>
      </trkpt>
      <trkpt lat="37.06417" lon="-3.3723">
        <ele>3020</ele>
        <time>2021-08-05 15:18:56</time>
      </trkpt>
      <trkpt lat="37.06417" lon="-3.3723">
        <ele>3019.6</ele>
        <time>2021-08-05 15:18:57</time>
      </trkpt>
      <trkpt lat="37.06417" lon="-3.37229">
        <ele>3019.6</ele>
        <time>2021-08-05 15:18:58</time>
      </trkpt>
      <trkpt lat="37.06417" lon="-3.3723">
        <ele>3019.8</ele>
        <time>2021-08-05 15:18:59</time>
      </trkpt>
      <trkpt lat="37.06417" lon="-3.3723">
        <ele>3020</ele>
        <time>2021-08-05 15:19:00</time>
      </trkpt>
      <trkpt lat="37.06417" lon="-3.37231">
        <ele>3020</ele>
        <time>2021-08-05 15:19:01</time>
      </trkpt>
      <trkpt lat="37.06417" lon="-3.37231">
        <ele>3020</ele>
        <time>2021-08-05 15:19:02</time>
      </trkpt>
      <trkpt lat="37.06417" lon="-3.37231">
        <ele>3020.2</ele>
        <time>2021-08-05 15:19:03</time>
      </trkpt>
      <trkpt lat="37.06417" lon="-3.37231">
        <ele>3020.2</ele>
        <time>2021-08-05 15:19:04</time>
      </trkpt>
      <trkpt lat="37.06416" lon="-3.3723">
        <ele>3020</ele>
        <time>2021-08-05 15:19:05</time>
      </trkpt>
      <trkpt lat="37.06416" lon="-3.3723">
        <ele>3020</ele>
        <time>2021-08-05 15:19:06</time>
      </trkpt>
      <trkpt lat="37.06416" lon="-3.37229">
        <ele>3019.8</ele>
        <time>2021-08-05 15:19:07</time>
      </trkpt>
      <trkpt lat="37.06415" lon="-3.37228">
        <ele>3019.8</ele>
        <time>2021-08-05 15:19:08</time>
      </trkpt>
      <trkpt lat="37.06413" lon="-3.37228">
        <ele>3019.8</ele>
        <time>2021-08-05 15:19:09</time>
      </trkpt>
      <trkpt lat="37.06412" lon="-3.37228">
        <ele>3019.8</ele>
        <time>2021-08-05 15:19:10</time>
      </trkpt>
      <trkpt lat="37.06411" lon="-3.37228">
        <ele>3019.6</ele>
        <time>2021-08-05 15:19:11</time>
      </trkpt>
      <trkpt lat="37.06411" lon="-3.37228">
        <ele>3019.6</ele>
        <time>2021-08-05 15:19:12</time>
      </trkpt>
      <trkpt lat="37.0641" lon="-3.37229">
        <ele>3019.6</ele>
        <time>2021-08-05 15:19:13</time>
      </trkpt>
      <trkpt lat="37.06408" lon="-3.37228">
        <ele>3019.4</ele>
        <time>2021-08-05 15:19:14</time>
      </trkpt>
      <trkpt lat="37.06408" lon="-3.37228">
        <ele>3019.4</ele>
        <time>2021-08-05 15:19:15</time>
      </trkpt>
      <trkpt lat="37.06407" lon="-3.37227">
        <ele>3019.2</ele>
        <time>2021-08-05 15:19:16</time>
      </trkpt>
      <trkpt lat="37.06407" lon="-3.37229">
        <ele>3019.2</ele>
        <time>2021-08-05 15:19:17</time>
      </trkpt>
      <trkpt lat="37.06406" lon="-3.37228">
        <ele>3019.2</ele>
        <time>2021-08-05 15:19:18</time>
      </trkpt>
      <trkpt lat="37.06406" lon="-3.37228">
        <ele>3019</ele>
        <time>2021-08-05 15:19:19</time>
      </trkpt>
      <trkpt lat="37.06404" lon="-3.37228">
        <ele>3019</ele>
        <time>2021-08-05 15:19:20</time>
      </trkpt>
      <trkpt lat="37.06404" lon="-3.37229">
        <ele>3019.2</ele>
        <time>2021-08-05 15:19:21</time>
      </trkpt>
      <trkpt lat="37.06403" lon="-3.37229">
        <ele>3019.2</ele>
        <time>2021-08-05 15:19:22</time>
      </trkpt>
      <trkpt lat="37.06402" lon="-3.3723">
        <ele>3019.4</ele>
        <time>2021-08-05 15:19:23</time>
      </trkpt>
      <trkpt lat="37.06402" lon="-3.37232">
        <ele>3019.4</ele>
        <time>2021-08-05 15:19:24</time>
      </trkpt>
      <trkpt lat="37.06401" lon="-3.37233">
        <ele>3019.4</ele>
        <time>2021-08-05 15:19:25</time>
      </trkpt>
      <trkpt lat="37.06401" lon="-3.37233">
        <ele>3019.6</ele>
        <time>2021-08-05 15:19:26</time>
      </trkpt>
      <trkpt lat="37.06401" lon="-3.37234">
        <ele>3019.6</ele>
        <time>2021-08-05 15:19:27</time>
      </trkpt>
      <trkpt lat="37.064" lon="-3.37234">
        <ele>3019.6</ele>
        <time>2021-08-05 15:19:28</time>
      </trkpt>
      <trkpt lat="37.064" lon="-3.37235">
        <ele>3019.8</ele>
        <time>2021-08-05 15:19:29</time>
      </trkpt>
      <trkpt lat="37.064" lon="-3.37236">
        <ele>3019.6</ele>
        <time>2021-08-05 15:19:30</time>
      </trkpt>
      <trkpt lat="37.06399" lon="-3.37237">
        <ele>3019.8</ele>
        <time>2021-08-05 15:19:31</time>
      </trkpt>
      <trkpt lat="37.06399" lon="-3.37237">
        <ele>3019.8</ele>
        <time>2021-08-05 15:19:32</time>
      </trkpt>
      <trkpt lat="37.06398" lon="-3.37238">
        <ele>3019.8</ele>
        <time>2021-08-05 15:19:33</time>
      </trkpt>
      <trkpt lat="37.06396" lon="-3.37238">
        <ele>3019.6</ele>
        <time>2021-08-05 15:19:34</time>
      </trkpt>
      <trkpt lat="37.06396" lon="-3.37237">
        <ele>3019.4</ele>
        <time>2021-08-05 15:19:35</time>
      </trkpt>
      <trkpt lat="37.06395" lon="-3.37236">
        <ele>3019.2</ele>
        <time>2021-08-05 15:19:36</time>
      </trkpt>
      <trkpt lat="37.06394" lon="-3.37236">
        <ele>3019.2</ele>
        <time>2021-08-05 15:19:37</time>
      </trkpt>
      <trkpt lat="37.06397" lon="-3.37239">
        <ele>3019.2</ele>
        <time>2021-08-05 15:19:38</time>
      </trkpt>
      <trkpt lat="37.06398" lon="-3.3724">
        <ele>3019.2</ele>
        <time>2021-08-05 15:19:39</time>
      </trkpt>
      <trkpt lat="37.06399" lon="-3.3724">
        <ele>3019.2</ele>
        <time>2021-08-05 15:19:40</time>
      </trkpt>
      <trkpt lat="37.064" lon="-3.37239">
        <ele>3019.2</ele>
        <time>2021-08-05 15:19:41</time>
      </trkpt>
      <trkpt lat="37.064" lon="-3.37238">
        <ele>3019.2</ele>
        <time>2021-08-05 15:19:42</time>
      </trkpt>
      <trkpt lat="37.064" lon="-3.37237">
        <ele>3019.4</ele>
        <time>2021-08-05 15:19:43</time>
      </trkpt>
      <trkpt lat="37.064" lon="-3.37236">
        <ele>3019.4</ele>
        <time>2021-08-05 15:19:44</time>
      </trkpt>
      <trkpt lat="37.064" lon="-3.37234">
        <ele>3019.4</ele>
        <time>2021-08-05 15:19:45</time>
      </trkpt>
      <trkpt lat="37.06402" lon="-3.37234">
        <ele>3019.4</ele>
        <time>2021-08-05 15:19:46</time>
      </trkpt>
      <trkpt lat="37.06403" lon="-3.37232">
        <ele>3019.4</ele>
        <time>2021-08-05 15:19:47</time>
      </trkpt>
      <trkpt lat="37.06404" lon="-3.37231">
        <ele>3019.4</ele>
        <time>2021-08-05 15:19:48</time>
      </trkpt>
      <trkpt lat="37.06404" lon="-3.37232">
        <ele>3019.6</ele>
        <time>2021-08-05 15:19:49</time>
      </trkpt>
      <trkpt lat="37.06403" lon="-3.37232">
        <ele>3019.4</ele>
        <time>2021-08-05 15:19:50</time>
      </trkpt>
      <trkpt lat="37.06402" lon="-3.37231">
        <ele>3019.6</ele>
        <time>2021-08-05 15:19:51</time>
      </trkpt>
      <trkpt lat="37.06402" lon="-3.37232">
        <ele>3019.6</ele>
        <time>2021-08-05 15:19:52</time>
      </trkpt>
      <trkpt lat="37.06402" lon="-3.37232">
        <ele>3019.6</ele>
        <time>2021-08-05 15:19:53</time>
      </trkpt>
      <trkpt lat="37.06402" lon="-3.37232">
        <ele>3019.6</ele>
        <time>2021-08-05 15:19:54</time>
      </trkpt>
      <trkpt lat="37.06402" lon="-3.37232">
        <ele>3019.4</ele>
        <time>2021-08-05 15:19:55</time>
      </trkpt>
      <trkpt lat="37.06404" lon="-3.37234">
        <ele>3019.4</ele>
        <time>2021-08-05 15:19:56</time>
      </trkpt>
      <trkpt lat="37.06404" lon="-3.37234">
        <ele>3019.4</ele>
        <time>2021-08-05 15:19:57</time>
      </trkpt>
      <trkpt lat="37.06404" lon="-3.37235">
        <ele>3019.4</ele>
        <time>2021-08-05 15:19:58</time>
      </trkpt>
      <trkpt lat="37.06404" lon="-3.37236">
        <ele>3019.2</ele>
        <time>2021-08-05 15:19:59</time>
      </trkpt>
      <trkpt lat="37.06404" lon="-3.37237">
        <ele>3019.2</ele>
        <time>2021-08-05 15:20:00</time>
      </trkpt>
      <trkpt lat="37.06404" lon="-3.37236">
        <ele>3019.2</ele>
        <time>2021-08-05 15:20:01</time>
      </trkpt>
      <trkpt lat="37.06404" lon="-3.37237">
        <ele>3019.4</ele>
        <time>2021-08-05 15:20:02</time>
      </trkpt>
      <trkpt lat="37.06404" lon="-3.37236">
        <ele>3019.4</ele>
        <time>2021-08-05 15:20:03</time>
      </trkpt>
      <trkpt lat="37.06403" lon="-3.37237">
        <ele>3019.4</ele>
        <time>2021-08-05 15:20:04</time>
      </trkpt>
      <trkpt lat="37.06403" lon="-3.37237">
        <ele>3019.4</ele>
        <time>2021-08-05 15:20:05</time>
      </trkpt>
      <trkpt lat="37.06402" lon="-3.37238">
        <ele>3019.6</ele>
        <time>2021-08-05 15:20:06</time>
      </trkpt>
      <trkpt lat="37.06402" lon="-3.37238">
        <ele>3019.4</ele>
        <time>2021-08-05 15:20:07</time>
      </trkpt>
      <trkpt lat="37.06402" lon="-3.37239">
        <ele>3019.4</ele>
        <time>2021-08-05 15:20:08</time>
      </trkpt>
      <trkpt lat="37.06402" lon="-3.37239">
        <ele>3019.6</ele>
        <time>2021-08-05 15:20:09</time>
      </trkpt>
      <trkpt lat="37.06402" lon="-3.3724">
        <ele>3019.6</ele>
        <time>2021-08-05 15:20:10</time>
      </trkpt>
      <trkpt lat="37.06402" lon="-3.3724">
        <ele>3019.6</ele>
        <time>2021-08-05 15:20:11</time>
      </trkpt>
      <trkpt lat="37.06403" lon="-3.37241">
        <ele>3019.6</ele>
        <time>2021-08-05 15:20:12</time>
      </trkpt>
      <trkpt lat="37.06403" lon="-3.37241">
        <ele>3019.6</ele>
        <time>2021-08-05 15:20:13</time>
      </trkpt>
      <trkpt lat="37.06404" lon="-3.37241">
        <ele>3019.6</ele>
        <time>2021-08-05 15:20:14</time>
      </trkpt>
      <trkpt lat="37.06405" lon="-3.37241">
        <ele>3019.4</ele>
        <time>2021-08-05 15:20:15</time>
      </trkpt>
      <trkpt lat="37.06406" lon="-3.3724">
        <ele>3019.4</ele>
        <time>2021-08-05 15:20:16</time>
      </trkpt>
      <trkpt lat="37.06407" lon="-3.3724">
        <ele>3019.4</ele>
        <time>2021-08-05 15:20:17</time>
      </trkpt>
      <trkpt lat="37.06408" lon="-3.3724">
        <ele>3019.4</ele>
        <time>2021-08-05 15:20:18</time>
      </trkpt>
      <trkpt lat="37.06409" lon="-3.3724">
        <ele>3019.2</ele>
        <time>2021-08-05 15:20:19</time>
      </trkpt>
      <trkpt lat="37.06409" lon="-3.37239">
        <ele>3019.2</ele>
        <time>2021-08-05 15:20:20</time>
      </trkpt>
      <trkpt lat="37.06408" lon="-3.3724">
        <ele>3019.2</ele>
        <time>2021-08-05 15:20:21</time>
      </trkpt>
      <trkpt lat="37.06408" lon="-3.37239">
        <ele>3019</ele>
        <time>2021-08-05 15:20:22</time>
      </trkpt>
      <trkpt lat="37.06408" lon="-3.37239">
        <ele>3019</ele>
        <time>2021-08-05 15:20:23</time>
      </trkpt>
      <trkpt lat="37.06407" lon="-3.37239">
        <ele>3019</ele>
        <time>2021-08-05 15:20:24</time>
      </trkpt>
      <trkpt lat="37.06407" lon="-3.37239">
        <ele>3019</ele>
        <time>2021-08-05 15:20:25</time>
      </trkpt>
      <trkpt lat="37.06407" lon="-3.37239">
        <ele>3019</ele>
        <time>2021-08-05 15:20:26</time>
      </trkpt>
      <trkpt lat="37.06406" lon="-3.3724">
        <ele>3019</ele>
        <time>2021-08-05 15:20:27</time>
      </trkpt>
      <trkpt lat="37.06406" lon="-3.3724">
        <ele>3019.2</ele>
        <time>2021-08-05 15:20:28</time>
      </trkpt>
      <trkpt lat="37.06406" lon="-3.3724">
        <ele>3019.2</ele>
        <time>2021-08-05 15:20:29</time>
      </trkpt>
      <trkpt lat="37.06405" lon="-3.3724">
        <ele>3019.2</ele>
        <time>2021-08-05 15:20:30</time>
      </trkpt>
      <trkpt lat="37.06404" lon="-3.37239">
        <ele>3019.2</ele>
        <time>2021-08-05 15:20:31</time>
      </trkpt>
      <trkpt lat="37.06404" lon="-3.3724">
        <ele>3019</ele>
        <time>2021-08-05 15:20:32</time>
      </trkpt>
      <trkpt lat="37.06403" lon="-3.3724">
        <ele>3019</ele>
        <time>2021-08-05 15:20:33</time>
      </trkpt>
      <trkpt lat="37.06403" lon="-3.37241">
        <ele>3019</ele>
        <time>2021-08-05 15:20:34</time>
      </trkpt>
      <trkpt lat="37.06401" lon="-3.37241">
        <ele>3018.8</ele>
        <time>2021-08-05 15:20:35</time>
      </trkpt>
      <trkpt lat="37.06399" lon="-3.3724">
        <ele>3018.6</ele>
        <time>2021-08-05 15:20:36</time>
      </trkpt>
      <trkpt lat="37.06399" lon="-3.3724">
        <ele>3018.8</ele>
        <time>2021-08-05 15:20:37</time>
      </trkpt>
      <trkpt lat="37.06399" lon="-3.3724">
        <ele>3018.8</ele>
        <time>2021-08-05 15:20:38</time>
      </trkpt>
      <trkpt lat="37.064" lon="-3.37239">
        <ele>3018.8</ele>
        <time>2021-08-05 15:20:39</time>
      </trkpt>
      <trkpt lat="37.064" lon="-3.37239">
        <ele>3018.8</ele>
        <time>2021-08-05 15:20:40</time>
      </trkpt>
      <trkpt lat="37.06402" lon="-3.37238">
        <ele>3019.2</ele>
        <time>2021-08-05 15:20:41</time>
      </trkpt>
      <trkpt lat="37.06402" lon="-3.37237">
        <ele>3019.2</ele>
        <time>2021-08-05 15:20:42</time>
      </trkpt>
      <trkpt lat="37.06403" lon="-3.37237">
        <ele>3019.4</ele>
        <time>2021-08-05 15:20:43</time>
      </trkpt>
      <trkpt lat="37.06403" lon="-3.37238">
        <ele>3019.4</ele>
        <time>2021-08-05 15:20:44</time>
      </trkpt>
      <trkpt lat="37.06405" lon="-3.37237">
        <ele>3019.4</ele>
        <time>2021-08-05 15:20:45</time>
      </trkpt>
      <trkpt lat="37.06407" lon="-3.37236">
        <ele>3019.4</ele>
        <time>2021-08-05 15:20:46</time>
      </trkpt>
      <trkpt lat="37.06408" lon="-3.37236">
        <ele>3019.4</ele>
        <time>2021-08-05 15:20:47</time>
      </trkpt>
      <trkpt lat="37.06409" lon="-3.37236">
        <ele>3019.4</ele>
        <time>2021-08-05 15:20:48</time>
      </trkpt>
      <trkpt lat="37.06409" lon="-3.37237">
        <ele>3019.4</ele>
        <time>2021-08-05 15:20:49</time>
      </trkpt>
      <trkpt lat="37.06409" lon="-3.37238">
        <ele>3019.4</ele>
        <time>2021-08-05 15:20:50</time>
      </trkpt>
      <trkpt lat="37.06409" lon="-3.37238">
        <ele>3019.4</ele>
        <time>2021-08-05 15:20:51</time>
      </trkpt>
      <trkpt lat="37.06409" lon="-3.37238">
        <ele>3019.4</ele>
        <time>2021-08-05 15:20:52</time>
      </trkpt>
      <trkpt lat="37.06409" lon="-3.37238">
        <ele>3019.6</ele>
        <time>2021-08-05 15:20:53</time>
      </trkpt>
      <trkpt lat="37.06408" lon="-3.37238">
        <ele>3019.6</ele>
        <time>2021-08-05 15:20:54</time>
      </trkpt>
      <trkpt lat="37.06407" lon="-3.37238">
        <ele>3019.4</ele>
        <time>2021-08-05 15:20:55</time>
      </trkpt>
      <trkpt lat="37.06406" lon="-3.37238">
        <ele>3019.4</ele>
        <time>2021-08-05 15:20:56</time>
      </trkpt>
      <trkpt lat="37.06405" lon="-3.37238">
        <ele>3019.2</ele>
        <time>2021-08-05 15:20:57</time>
      </trkpt>
      <trkpt lat="37.06404" lon="-3.37237">
        <ele>3019</ele>
        <time>2021-08-05 15:20:58</time>
      </trkpt>
      <trkpt lat="37.06404" lon="-3.37237">
        <ele>3018.8</ele>
        <time>2021-08-05 15:20:59</time>
      </trkpt>
      <trkpt lat="37.064" lon="-3.37236">
        <ele>3018.6</ele>
        <time>2021-08-05 15:21:00</time>
      </trkpt>
      <trkpt lat="37.06399" lon="-3.37236">
        <ele>3018.4</ele>
        <time>2021-08-05 15:21:01</time>
      </trkpt>
      <trkpt lat="37.06398" lon="-3.37236">
        <ele>3018.2</ele>
        <time>2021-08-05 15:21:02</time>
      </trkpt>
      <trkpt lat="37.06397" lon="-3.37237">
        <ele>3018.4</ele>
        <time>2021-08-05 15:21:03</time>
      </trkpt>
      <trkpt lat="37.06392" lon="-3.37234">
        <ele>3018.2</ele>
        <time>2021-08-05 15:21:04</time>
      </trkpt>
      <trkpt lat="37.0639" lon="-3.37233">
        <ele>3018.2</ele>
        <time>2021-08-05 15:21:05</time>
      </trkpt>
      <trkpt lat="37.06388" lon="-3.37233">
        <ele>3018</ele>
        <time>2021-08-05 15:21:06</time>
      </trkpt>
      <trkpt lat="37.06386" lon="-3.37233">
        <ele>3018</ele>
        <time>2021-08-05 15:21:07</time>
      </trkpt>
      <trkpt lat="37.06384" lon="-3.37232">
        <ele>3018</ele>
        <time>2021-08-05 15:21:08</time>
      </trkpt>
      <trkpt lat="37.06383" lon="-3.37233">
        <ele>3017.8</ele>
        <time>2021-08-05 15:21:09</time>
      </trkpt>
      <trkpt lat="37.06382" lon="-3.37233">
        <ele>3017.6</ele>
        <time>2021-08-05 15:21:10</time>
      </trkpt>
      <trkpt lat="37.0638" lon="-3.37233">
        <ele>3017.6</ele>
        <time>2021-08-05 15:21:11</time>
      </trkpt>
      <trkpt lat="37.06379" lon="-3.37233">
        <ele>3017.6</ele>
        <time>2021-08-05 15:21:12</time>
      </trkpt>
      <trkpt lat="37.06378" lon="-3.37233">
        <ele>3017.4</ele>
        <time>2021-08-05 15:21:13</time>
      </trkpt>
      <trkpt lat="37.06377" lon="-3.37234">
        <ele>3017.4</ele>
        <time>2021-08-05 15:21:14</time>
      </trkpt>
      <trkpt lat="37.06376" lon="-3.37235">
        <ele>3017.2</ele>
        <time>2021-08-05 15:21:15</time>
      </trkpt>
      <trkpt lat="37.06375" lon="-3.37236">
        <ele>3017</ele>
        <time>2021-08-05 15:21:16</time>
      </trkpt>
      <trkpt lat="37.06374" lon="-3.37236">
        <ele>3016.8</ele>
        <time>2021-08-05 15:21:17</time>
      </trkpt>
      <trkpt lat="37.06374" lon="-3.37237">
        <ele>3016.6</ele>
        <time>2021-08-05 15:21:18</time>
      </trkpt>
      <trkpt lat="37.06373" lon="-3.37237">
        <ele>3016.6</ele>
        <time>2021-08-05 15:21:19</time>
      </trkpt>
      <trkpt lat="37.06372" lon="-3.37238">
        <ele>3016.6</ele>
        <time>2021-08-05 15:21:20</time>
      </trkpt>
      <trkpt lat="37.06372" lon="-3.37239">
        <ele>3016.4</ele>
        <time>2021-08-05 15:21:21</time>
      </trkpt>
      <trkpt lat="37.06372" lon="-3.3724">
        <ele>3016.2</ele>
        <time>2021-08-05 15:21:22</time>
      </trkpt>
      <trkpt lat="37.06371" lon="-3.3724">
        <ele>3016.2</ele>
        <time>2021-08-05 15:21:23</time>
      </trkpt>
      <trkpt lat="37.06371" lon="-3.3724">
        <ele>3016.2</ele>
        <time>2021-08-05 15:21:24</time>
      </trkpt>
      <trkpt lat="37.0637" lon="-3.3724">
        <ele>3016.2</ele>
        <time>2021-08-05 15:21:25</time>
      </trkpt>
      <trkpt lat="37.0637" lon="-3.37241">
        <ele>3016.2</ele>
        <time>2021-08-05 15:21:26</time>
      </trkpt>
      <trkpt lat="37.06369" lon="-3.37241">
        <ele>3016.2</ele>
        <time>2021-08-05 15:21:27</time>
      </trkpt>
      <trkpt lat="37.06368" lon="-3.37241">
        <ele>3016.4</ele>
        <time>2021-08-05 15:21:28</time>
      </trkpt>
      <trkpt lat="37.06367" lon="-3.37241">
        <ele>3016.4</ele>
        <time>2021-08-05 15:21:29</time>
      </trkpt>
      <trkpt lat="37.06367" lon="-3.37242">
        <ele>3016.4</ele>
        <time>2021-08-05 15:21:30</time>
      </trkpt>
      <trkpt lat="37.06366" lon="-3.37242">
        <ele>3016.4</ele>
        <time>2021-08-05 15:21:31</time>
      </trkpt>
      <trkpt lat="37.06365" lon="-3.37242">
        <ele>3016.4</ele>
        <time>2021-08-05 15:21:32</time>
      </trkpt>
      <trkpt lat="37.06365" lon="-3.37242">
        <ele>3016.2</ele>
        <time>2021-08-05 15:21:33</time>
      </trkpt>
      <trkpt lat="37.06364" lon="-3.37242">
        <ele>3015.8</ele>
        <time>2021-08-05 15:21:34</time>
      </trkpt>
      <trkpt lat="37.06362" lon="-3.37243">
        <ele>3015.4</ele>
        <time>2021-08-05 15:21:35</time>
      </trkpt>
      <trkpt lat="37.06362" lon="-3.37244">
        <ele>3015.4</ele>
        <time>2021-08-05 15:21:36</time>
      </trkpt>
      <trkpt lat="37.06361" lon="-3.37247">
        <ele>3015.2</ele>
        <time>2021-08-05 15:21:37</time>
      </trkpt>
      <trkpt lat="37.0636" lon="-3.37249">
        <ele>3015.2</ele>
        <time>2021-08-05 15:21:38</time>
      </trkpt>
      <trkpt lat="37.06359" lon="-3.3725">
        <ele>3015.2</ele>
        <time>2021-08-05 15:21:39</time>
      </trkpt>
      <trkpt lat="37.06358" lon="-3.37251">
        <ele>3015.4</ele>
        <time>2021-08-05 15:21:40</time>
      </trkpt>
      <trkpt lat="37.06358" lon="-3.37252">
        <ele>3015.4</ele>
        <time>2021-08-05 15:21:41</time>
      </trkpt>
      <trkpt lat="37.06357" lon="-3.37253">
        <ele>3015.4</ele>
        <time>2021-08-05 15:21:42</time>
      </trkpt>
      <trkpt lat="37.06356" lon="-3.37252">
        <ele>3015.6</ele>
        <time>2021-08-05 15:21:43</time>
      </trkpt>
      <trkpt lat="37.06355" lon="-3.37252">
        <ele>3015.6</ele>
        <time>2021-08-05 15:21:44</time>
      </trkpt>
      <trkpt lat="37.06354" lon="-3.37252">
        <ele>3015.6</ele>
        <time>2021-08-05 15:21:45</time>
      </trkpt>
      <trkpt lat="37.06354" lon="-3.37251">
        <ele>3015.6</ele>
        <time>2021-08-05 15:21:46</time>
      </trkpt>
      <trkpt lat="37.06351" lon="-3.37251">
        <ele>3015.4</ele>
        <time>2021-08-05 15:21:47</time>
      </trkpt>
      <trkpt lat="37.06351" lon="-3.3725">
        <ele>3015.4</ele>
        <time>2021-08-05 15:21:48</time>
      </trkpt>
      <trkpt lat="37.0635" lon="-3.3725">
        <ele>3015.4</ele>
        <time>2021-08-05 15:21:49</time>
      </trkpt>
      <trkpt lat="37.0635" lon="-3.37249">
        <ele>3015.4</ele>
        <time>2021-08-05 15:21:50</time>
      </trkpt>
      <trkpt lat="37.06349" lon="-3.37249">
        <ele>3015.2</ele>
        <time>2021-08-05 15:21:51</time>
      </trkpt>
      <trkpt lat="37.06348" lon="-3.37248">
        <ele>3015.4</ele>
        <time>2021-08-05 15:21:52</time>
      </trkpt>
      <trkpt lat="37.06347" lon="-3.37248">
        <ele>3015.4</ele>
        <time>2021-08-05 15:21:53</time>
      </trkpt>
      <trkpt lat="37.06346" lon="-3.37248">
        <ele>3015.4</ele>
        <time>2021-08-05 15:21:54</time>
      </trkpt>
      <trkpt lat="37.06345" lon="-3.37247">
        <ele>3015.6</ele>
        <time>2021-08-05 15:21:55</time>
      </trkpt>
      <trkpt lat="37.06344" lon="-3.37247">
        <ele>3015.8</ele>
        <time>2021-08-05 15:21:56</time>
      </trkpt>
      <trkpt lat="37.06343" lon="-3.37246">
        <ele>3016</ele>
        <time>2021-08-05 15:21:57</time>
      </trkpt>
      <trkpt lat="37.06342" lon="-3.37246">
        <ele>3016.2</ele>
        <time>2021-08-05 15:21:58</time>
      </trkpt>
      <trkpt lat="37.06341" lon="-3.37246">
        <ele>3016.4</ele>
        <time>2021-08-05 15:21:59</time>
      </trkpt>
      <trkpt lat="37.0634" lon="-3.37245">
        <ele>3016.6</ele>
        <time>2021-08-05 15:22:00</time>
      </trkpt>
      <trkpt lat="37.0634" lon="-3.37244">
        <ele>3016.8</ele>
        <time>2021-08-05 15:22:01</time>
      </trkpt>
      <trkpt lat="37.06339" lon="-3.37244">
        <ele>3017</ele>
        <time>2021-08-05 15:22:02</time>
      </trkpt>
      <trkpt lat="37.06338" lon="-3.37244">
        <ele>3017</ele>
        <time>2021-08-05 15:22:03</time>
      </trkpt>
      <trkpt lat="37.06337" lon="-3.37244">
        <ele>3017.2</ele>
        <time>2021-08-05 15:22:04</time>
      </trkpt>
      <trkpt lat="37.06335" lon="-3.37244">
        <ele>3017.2</ele>
        <time>2021-08-05 15:22:05</time>
      </trkpt>
      <trkpt lat="37.06335" lon="-3.37244">
        <ele>3017.2</ele>
        <time>2021-08-05 15:22:06</time>
      </trkpt>
      <trkpt lat="37.06333" lon="-3.37245">
        <ele>3017.2</ele>
        <time>2021-08-05 15:22:07</time>
      </trkpt>
      <trkpt lat="37.06332" lon="-3.37244">
        <ele>3017.2</ele>
        <time>2021-08-05 15:22:08</time>
      </trkpt>
      <trkpt lat="37.06331" lon="-3.37244">
        <ele>3017.2</ele>
        <time>2021-08-05 15:22:09</time>
      </trkpt>
      <trkpt lat="37.0633" lon="-3.37244">
        <ele>3017.4</ele>
        <time>2021-08-05 15:22:10</time>
      </trkpt>
      <trkpt lat="37.06329" lon="-3.37244">
        <ele>3017.4</ele>
        <time>2021-08-05 15:22:11</time>
      </trkpt>
      <trkpt lat="37.06327" lon="-3.37244">
        <ele>3017.4</ele>
        <time>2021-08-05 15:22:12</time>
      </trkpt>
      <trkpt lat="37.06327" lon="-3.37243">
        <ele>3017.4</ele>
        <time>2021-08-05 15:22:13</time>
      </trkpt>
      <trkpt lat="37.06326" lon="-3.37243">
        <ele>3017.6</ele>
        <time>2021-08-05 15:22:14</time>
      </trkpt>
      <trkpt lat="37.06326" lon="-3.37242">
        <ele>3017.4</ele>
        <time>2021-08-05 15:22:15</time>
      </trkpt>
      <trkpt lat="37.06325" lon="-3.37242">
        <ele>3017.6</ele>
        <time>2021-08-05 15:22:16</time>
      </trkpt>
      <trkpt lat="37.06325" lon="-3.37242">
        <ele>3017.6</ele>
        <time>2021-08-05 15:22:17</time>
      </trkpt>
      <trkpt lat="37.06324" lon="-3.37242">
        <ele>3017.6</ele>
        <time>2021-08-05 15:22:18</time>
      </trkpt>
      <trkpt lat="37.06324" lon="-3.37242">
        <ele>3017.6</ele>
        <time>2021-08-05 15:22:19</time>
      </trkpt>
      <trkpt lat="37.06323" lon="-3.37241">
        <ele>3017.8</ele>
        <time>2021-08-05 15:22:20</time>
      </trkpt>
      <trkpt lat="37.06322" lon="-3.37241">
        <ele>3017.8</ele>
        <time>2021-08-05 15:22:21</time>
      </trkpt>
      <trkpt lat="37.06322" lon="-3.37241">
        <ele>3017.8</ele>
        <time>2021-08-05 15:22:22</time>
      </trkpt>
      <trkpt lat="37.06321" lon="-3.37241">
        <ele>3017.8</ele>
        <time>2021-08-05 15:22:23</time>
      </trkpt>
      <trkpt lat="37.0632" lon="-3.37241">
        <ele>3018</ele>
        <time>2021-08-05 15:22:24</time>
      </trkpt>
      <trkpt lat="37.0632" lon="-3.37241">
        <ele>3018.2</ele>
        <time>2021-08-05 15:22:25</time>
      </trkpt>
      <trkpt lat="37.06319" lon="-3.37241">
        <ele>3018.2</ele>
        <time>2021-08-05 15:22:26</time>
      </trkpt>
      <trkpt lat="37.06318" lon="-3.37241">
        <ele>3018</ele>
        <time>2021-08-05 15:22:27</time>
      </trkpt>
      <trkpt lat="37.06318" lon="-3.37242">
        <ele>3018.2</ele>
        <time>2021-08-05 15:22:28</time>
      </trkpt>
      <trkpt lat="37.06317" lon="-3.37242">
        <ele>3018.2</ele>
        <time>2021-08-05 15:22:29</time>
      </trkpt>
      <trkpt lat="37.06317" lon="-3.37242">
        <ele>3018.2</ele>
        <time>2021-08-05 15:22:30</time>
      </trkpt>
      <trkpt lat="37.06316" lon="-3.37242">
        <ele>3018.2</ele>
        <time>2021-08-05 15:22:31</time>
      </trkpt>
      <trkpt lat="37.06315" lon="-3.37242">
        <ele>3018.2</ele>
        <time>2021-08-05 15:22:32</time>
      </trkpt>
      <trkpt lat="37.06315" lon="-3.37243">
        <ele>3018.2</ele>
        <time>2021-08-05 15:22:33</time>
      </trkpt>
      <trkpt lat="37.06314" lon="-3.37243">
        <ele>3018.4</ele>
        <time>2021-08-05 15:22:34</time>
      </trkpt>
      <trkpt lat="37.06313" lon="-3.37242">
        <ele>3018.4</ele>
        <time>2021-08-05 15:22:35</time>
      </trkpt>
      <trkpt lat="37.06312" lon="-3.37242">
        <ele>3018.4</ele>
        <time>2021-08-05 15:22:36</time>
      </trkpt>
      <trkpt lat="37.06311" lon="-3.37242">
        <ele>3018.4</ele>
        <time>2021-08-05 15:22:37</time>
      </trkpt>
      <trkpt lat="37.0631" lon="-3.37242">
        <ele>3018.6</ele>
        <time>2021-08-05 15:22:38</time>
      </trkpt>
      <trkpt lat="37.06309" lon="-3.37242">
        <ele>3018.6</ele>
        <time>2021-08-05 15:22:39</time>
      </trkpt>
      <trkpt lat="37.06308" lon="-3.37242">
        <ele>3018.6</ele>
        <time>2021-08-05 15:22:40</time>
      </trkpt>
      <trkpt lat="37.06307" lon="-3.37242">
        <ele>3018.6</ele>
        <time>2021-08-05 15:22:41</time>
      </trkpt>
      <trkpt lat="37.06306" lon="-3.37242">
        <ele>3018.6</ele>
        <time>2021-08-05 15:22:42</time>
      </trkpt>
      <trkpt lat="37.06305" lon="-3.37243">
        <ele>3018.8</ele>
        <time>2021-08-05 15:22:43</time>
      </trkpt>
      <trkpt lat="37.06304" lon="-3.37243">
        <ele>3018.8</ele>
        <time>2021-08-05 15:22:44</time>
      </trkpt>
      <trkpt lat="37.06303" lon="-3.37242">
        <ele>3019</ele>
        <time>2021-08-05 15:22:45</time>
      </trkpt>
      <trkpt lat="37.06302" lon="-3.37242">
        <ele>3019</ele>
        <time>2021-08-05 15:22:46</time>
      </trkpt>
      <trkpt lat="37.06301" lon="-3.37242">
        <ele>3019</ele>
        <time>2021-08-05 15:22:47</time>
      </trkpt>
      <trkpt lat="37.063" lon="-3.37242">
        <ele>3019</ele>
        <time>2021-08-05 15:22:48</time>
      </trkpt>
      <trkpt lat="37.063" lon="-3.37242">
        <ele>3019</ele>
        <time>2021-08-05 15:22:49</time>
      </trkpt>
      <trkpt lat="37.06299" lon="-3.37243">
        <ele>3019</ele>
        <time>2021-08-05 15:22:50</time>
      </trkpt>
      <trkpt lat="37.06299" lon="-3.37243">
        <ele>3019</ele>
        <time>2021-08-05 15:22:51</time>
      </trkpt>
      <trkpt lat="37.06298" lon="-3.37243">
        <ele>3019.2</ele>
        <time>2021-08-05 15:22:52</time>
      </trkpt>
      <trkpt lat="37.06298" lon="-3.37243">
        <ele>3019.2</ele>
        <time>2021-08-05 15:22:53</time>
      </trkpt>
      <trkpt lat="37.06297" lon="-3.37243">
        <ele>3019.4</ele>
        <time>2021-08-05 15:22:54</time>
      </trkpt>
      <trkpt lat="37.06297" lon="-3.37242">
        <ele>3019.6</ele>
        <time>2021-08-05 15:22:55</time>
      </trkpt>
      <trkpt lat="37.06296" lon="-3.37242">
        <ele>3019.8</ele>
        <time>2021-08-05 15:22:56</time>
      </trkpt>
      <trkpt lat="37.06295" lon="-3.37242">
        <ele>3019.8</ele>
        <time>2021-08-05 15:22:57</time>
      </trkpt>
      <trkpt lat="37.06295" lon="-3.37242">
        <ele>3020</ele>
        <time>2021-08-05 15:22:58</time>
      </trkpt>
      <trkpt lat="37.06294" lon="-3.37242">
        <ele>3020.2</ele>
        <time>2021-08-05 15:22:59</time>
      </trkpt>
      <trkpt lat="37.06293" lon="-3.37242">
        <ele>3020.2</ele>
        <time>2021-08-05 15:23:00</time>
      </trkpt>
      <trkpt lat="37.06291" lon="-3.37241">
        <ele>3020.4</ele>
        <time>2021-08-05 15:23:01</time>
      </trkpt>
      <trkpt lat="37.06289" lon="-3.37241">
        <ele>3020.4</ele>
        <time>2021-08-05 15:23:02</time>
      </trkpt>
      <trkpt lat="37.06288" lon="-3.37241">
        <ele>3020.6</ele>
        <time>2021-08-05 15:23:03</time>
      </trkpt>
      <trkpt lat="37.06287" lon="-3.37241">
        <ele>3020.8</ele>
        <time>2021-08-05 15:23:04</time>
      </trkpt>
      <trkpt lat="37.06286" lon="-3.37241">
        <ele>3021</ele>
        <time>2021-08-05 15:23:05</time>
      </trkpt>
      <trkpt lat="37.06285" lon="-3.37242">
        <ele>3021.2</ele>
        <time>2021-08-05 15:23:06</time>
      </trkpt>
      <trkpt lat="37.06285" lon="-3.37242">
        <ele>3021.4</ele>
        <time>2021-08-05 15:23:07</time>
      </trkpt>
      <trkpt lat="37.06284" lon="-3.37242">
        <ele>3021.4</ele>
        <time>2021-08-05 15:23:08</time>
      </trkpt>
      <trkpt lat="37.06283" lon="-3.37242">
        <ele>3021.6</ele>
        <time>2021-08-05 15:23:09</time>
      </trkpt>
      <trkpt lat="37.06282" lon="-3.37242">
        <ele>3021.6</ele>
        <time>2021-08-05 15:23:10</time>
      </trkpt>
      <trkpt lat="37.06281" lon="-3.37242">
        <ele>3021.8</ele>
        <time>2021-08-05 15:23:11</time>
      </trkpt>
      <trkpt lat="37.0628" lon="-3.37242">
        <ele>3021.8</ele>
        <time>2021-08-05 15:23:12</time>
      </trkpt>
      <trkpt lat="37.0628" lon="-3.37243">
        <ele>3021.8</ele>
        <time>2021-08-05 15:23:13</time>
      </trkpt>
      <trkpt lat="37.06279" lon="-3.37243">
        <ele>3021.8</ele>
        <time>2021-08-05 15:23:14</time>
      </trkpt>
      <trkpt lat="37.06278" lon="-3.37243">
        <ele>3021.8</ele>
        <time>2021-08-05 15:23:15</time>
      </trkpt>
      <trkpt lat="37.06278" lon="-3.37243">
        <ele>3022</ele>
        <time>2021-08-05 15:23:16</time>
      </trkpt>
      <trkpt lat="37.06277" lon="-3.37242">
        <ele>3022</ele>
        <time>2021-08-05 15:23:17</time>
      </trkpt>
      <trkpt lat="37.06276" lon="-3.37242">
        <ele>3022</ele>
        <time>2021-08-05 15:23:18</time>
      </trkpt>
      <trkpt lat="37.06275" lon="-3.37242">
        <ele>3022.2</ele>
        <time>2021-08-05 15:23:19</time>
      </trkpt>
      <trkpt lat="37.06274" lon="-3.37242">
        <ele>3022.4</ele>
        <time>2021-08-05 15:23:20</time>
      </trkpt>
      <trkpt lat="37.06274" lon="-3.37242">
        <ele>3022.4</ele>
        <time>2021-08-05 15:23:21</time>
      </trkpt>
      <trkpt lat="37.06273" lon="-3.37242">
        <ele>3022.6</ele>
        <time>2021-08-05 15:23:22</time>
      </trkpt>
      <trkpt lat="37.06272" lon="-3.37241">
        <ele>3022.6</ele>
        <time>2021-08-05 15:23:23</time>
      </trkpt>
      <trkpt lat="37.06271" lon="-3.37242">
        <ele>3022.6</ele>
        <time>2021-08-05 15:23:24</time>
      </trkpt>
      <trkpt lat="37.0627" lon="-3.37242">
        <ele>3022.6</ele>
        <time>2021-08-05 15:23:25</time>
      </trkpt>
      <trkpt lat="37.0627" lon="-3.37243">
        <ele>3022.6</ele>
        <time>2021-08-05 15:23:26</time>
      </trkpt>
      <trkpt lat="37.06269" lon="-3.37243">
        <ele>3022.6</ele>
        <time>2021-08-05 15:23:27</time>
      </trkpt>
      <trkpt lat="37.06268" lon="-3.37243">
        <ele>3022.6</ele>
        <time>2021-08-05 15:23:28</time>
      </trkpt>
      <trkpt lat="37.06268" lon="-3.37243">
        <ele>3022.8</ele>
        <time>2021-08-05 15:23:29</time>
      </trkpt>
      <trkpt lat="37.06267" lon="-3.37243">
        <ele>3023</ele>
        <time>2021-08-05 15:23:30</time>
      </trkpt>
      <trkpt lat="37.06266" lon="-3.37243">
        <ele>3023.2</ele>
        <time>2021-08-05 15:23:31</time>
      </trkpt>
      <trkpt lat="37.06266" lon="-3.37243">
        <ele>3023.2</ele>
        <time>2021-08-05 15:23:32</time>
      </trkpt>
      <trkpt lat="37.06266" lon="-3.37243">
        <ele>3023.2</ele>
        <time>2021-08-05 15:23:33</time>
      </trkpt>
      <trkpt lat="37.06264" lon="-3.37243">
        <ele>3023.2</ele>
        <time>2021-08-05 15:23:34</time>
      </trkpt>
      <trkpt lat="37.06263" lon="-3.37243">
        <ele>3023.2</ele>
        <time>2021-08-05 15:23:35</time>
      </trkpt>
      <trkpt lat="37.06263" lon="-3.37243">
        <ele>3023.2</ele>
        <time>2021-08-05 15:23:36</time>
      </trkpt>
      <trkpt lat="37.06262" lon="-3.37243">
        <ele>3023.4</ele>
        <time>2021-08-05 15:23:37</time>
      </trkpt>
      <trkpt lat="37.06261" lon="-3.37243">
        <ele>3023</ele>
        <time>2021-08-05 15:23:38</time>
      </trkpt>
      <trkpt lat="37.0626" lon="-3.37243">
        <ele>3023</ele>
        <time>2021-08-05 15:23:39</time>
      </trkpt>
      <trkpt lat="37.06259" lon="-3.37243">
        <ele>3023</ele>
        <time>2021-08-05 15:23:40</time>
      </trkpt>
      <trkpt lat="37.0626" lon="-3.37243">
        <ele>3023.2</ele>
        <time>2021-08-05 15:23:41</time>
      </trkpt>
      <trkpt lat="37.0626" lon="-3.37243">
        <ele>3023.6</ele>
        <time>2021-08-05 15:23:42</time>
      </trkpt>
      <trkpt lat="37.0626" lon="-3.37243">
        <ele>3023.8</ele>
        <time>2021-08-05 15:23:43</time>
      </trkpt>
      <trkpt lat="37.06259" lon="-3.37243">
        <ele>3024.2</ele>
        <time>2021-08-05 15:23:44</time>
      </trkpt>
      <trkpt lat="37.06259" lon="-3.37243">
        <ele>3024.4</ele>
        <time>2021-08-05 15:23:45</time>
      </trkpt>
      <trkpt lat="37.06258" lon="-3.37242">
        <ele>3024.4</ele>
        <time>2021-08-05 15:23:46</time>
      </trkpt>
      <trkpt lat="37.06256" lon="-3.37243">
        <ele>3024.4</ele>
        <time>2021-08-05 15:23:47</time>
      </trkpt>
      <trkpt lat="37.06255" lon="-3.37243">
        <ele>3024.4</ele>
        <time>2021-08-05 15:23:48</time>
      </trkpt>
      <trkpt lat="37.06254" lon="-3.37245">
        <ele>3024.6</ele>
        <time>2021-08-05 15:23:49</time>
      </trkpt>
      <trkpt lat="37.06253" lon="-3.37245">
        <ele>3024.8</ele>
        <time>2021-08-05 15:23:50</time>
      </trkpt>
      <trkpt lat="37.06251" lon="-3.37247">
        <ele>3025</ele>
        <time>2021-08-05 15:23:51</time>
      </trkpt>
      <trkpt lat="37.0625" lon="-3.37248">
        <ele>3025.2</ele>
        <time>2021-08-05 15:23:52</time>
      </trkpt>
      <trkpt lat="37.06249" lon="-3.37249">
        <ele>3025.2</ele>
        <time>2021-08-05 15:23:53</time>
      </trkpt>
      <trkpt lat="37.06248" lon="-3.3725">
        <ele>3025.4</ele>
        <time>2021-08-05 15:23:54</time>
      </trkpt>
      <trkpt lat="37.06247" lon="-3.3725">
        <ele>3025.4</ele>
        <time>2021-08-05 15:23:55</time>
      </trkpt>
      <trkpt lat="37.06247" lon="-3.37248">
        <ele>3025.6</ele>
        <time>2021-08-05 15:23:56</time>
      </trkpt>
      <trkpt lat="37.06247" lon="-3.37246">
        <ele>3025.6</ele>
        <time>2021-08-05 15:23:57</time>
      </trkpt>
      <trkpt lat="37.06247" lon="-3.37247">
        <ele>3025.8</ele>
        <time>2021-08-05 15:23:58</time>
      </trkpt>
      <trkpt lat="37.06246" lon="-3.37246">
        <ele>3025.8</ele>
        <time>2021-08-05 15:23:59</time>
      </trkpt>
      <trkpt lat="37.06246" lon="-3.37243">
        <ele>3026</ele>
        <time>2021-08-05 15:24:00</time>
      </trkpt>
      <trkpt lat="37.06244" lon="-3.37241">
        <ele>3026.2</ele>
        <time>2021-08-05 15:24:01</time>
      </trkpt>
      <trkpt lat="37.06243" lon="-3.3724">
        <ele>3026.2</ele>
        <time>2021-08-05 15:24:02</time>
      </trkpt>
      <trkpt lat="37.06242" lon="-3.37239">
        <ele>3026.4</ele>
        <time>2021-08-05 15:24:03</time>
      </trkpt>
      <trkpt lat="37.06242" lon="-3.37239">
        <ele>3026.6</ele>
        <time>2021-08-05 15:24:04</time>
      </trkpt>
      <trkpt lat="37.0624" lon="-3.37236">
        <ele>3026.6</ele>
        <time>2021-08-05 15:24:05</time>
      </trkpt>
      <trkpt lat="37.06239" lon="-3.37236">
        <ele>3026.8</ele>
        <time>2021-08-05 15:24:06</time>
      </trkpt>
      <trkpt lat="37.06239" lon="-3.37235">
        <ele>3027</ele>
        <time>2021-08-05 15:24:07</time>
      </trkpt>
      <trkpt lat="37.06238" lon="-3.37234">
        <ele>3027.2</ele>
        <time>2021-08-05 15:24:08</time>
      </trkpt>
      <trkpt lat="37.06236" lon="-3.37232">
        <ele>3027.2</ele>
        <time>2021-08-05 15:24:09</time>
      </trkpt>
      <trkpt lat="37.06238" lon="-3.37231">
        <ele>3027.2</ele>
        <time>2021-08-05 15:24:10</time>
      </trkpt>
      <trkpt lat="37.06238" lon="-3.3723">
        <ele>3027.4</ele>
        <time>2021-08-05 15:24:11</time>
      </trkpt>
      <trkpt lat="37.06238" lon="-3.37229">
        <ele>3027.4</ele>
        <time>2021-08-05 15:24:12</time>
      </trkpt>
      <trkpt lat="37.06238" lon="-3.37228">
        <ele>3027.4</ele>
        <time>2021-08-05 15:24:13</time>
      </trkpt>
      <trkpt lat="37.06238" lon="-3.37227">
        <ele>3027.6</ele>
        <time>2021-08-05 15:24:14</time>
      </trkpt>
      <trkpt lat="37.06238" lon="-3.37226">
        <ele>3028</ele>
        <time>2021-08-05 15:24:15</time>
      </trkpt>
      <trkpt lat="37.06239" lon="-3.37225">
        <ele>3028.2</ele>
        <time>2021-08-05 15:24:16</time>
      </trkpt>
      <trkpt lat="37.06239" lon="-3.37224">
        <ele>3028.4</ele>
        <time>2021-08-05 15:24:17</time>
      </trkpt>
      <trkpt lat="37.0624" lon="-3.37222">
        <ele>3028.4</ele>
        <time>2021-08-05 15:24:18</time>
      </trkpt>
      <trkpt lat="37.06241" lon="-3.37221">
        <ele>3028.6</ele>
        <time>2021-08-05 15:24:19</time>
      </trkpt>
      <trkpt lat="37.06241" lon="-3.3722">
        <ele>3028.6</ele>
        <time>2021-08-05 15:24:20</time>
      </trkpt>
      <trkpt lat="37.06242" lon="-3.37218">
        <ele>3028.6</ele>
        <time>2021-08-05 15:24:21</time>
      </trkpt>
      <trkpt lat="37.06242" lon="-3.37217">
        <ele>3028.6</ele>
        <time>2021-08-05 15:24:22</time>
      </trkpt>
      <trkpt lat="37.06243" lon="-3.37216">
        <ele>3028.4</ele>
        <time>2021-08-05 15:24:23</time>
      </trkpt>
      <trkpt lat="37.06244" lon="-3.37215">
        <ele>3028.6</ele>
        <time>2021-08-05 15:24:24</time>
      </trkpt>
      <trkpt lat="37.06244" lon="-3.37214">
        <ele>3028.6</ele>
        <time>2021-08-05 15:24:25</time>
      </trkpt>
      <trkpt lat="37.06245" lon="-3.37213">
        <ele>3028.8</ele>
        <time>2021-08-05 15:24:26</time>
      </trkpt>
      <trkpt lat="37.06246" lon="-3.37212">
        <ele>3028.8</ele>
        <time>2021-08-05 15:24:27</time>
      </trkpt>
      <trkpt lat="37.06247" lon="-3.37211">
        <ele>3028.8</ele>
        <time>2021-08-05 15:24:28</time>
      </trkpt>
      <trkpt lat="37.06248" lon="-3.3721">
        <ele>3029</ele>
        <time>2021-08-05 15:24:29</time>
      </trkpt>
      <trkpt lat="37.06248" lon="-3.37209">
        <ele>3029.2</ele>
        <time>2021-08-05 15:24:30</time>
      </trkpt>
      <trkpt lat="37.06249" lon="-3.37209">
        <ele>3029.4</ele>
        <time>2021-08-05 15:24:31</time>
      </trkpt>
      <trkpt lat="37.06249" lon="-3.37208">
        <ele>3029.4</ele>
        <time>2021-08-05 15:24:32</time>
      </trkpt>
      <trkpt lat="37.06249" lon="-3.37208">
        <ele>3029.6</ele>
        <time>2021-08-05 15:24:33</time>
      </trkpt>
      <trkpt lat="37.06249" lon="-3.37207">
        <ele>3029.6</ele>
        <time>2021-08-05 15:24:34</time>
      </trkpt>
      <trkpt lat="37.06249" lon="-3.37206">
        <ele>3029.6</ele>
        <time>2021-08-05 15:24:35</time>
      </trkpt>
      <trkpt lat="37.06249" lon="-3.37206">
        <ele>3029.6</ele>
        <time>2021-08-05 15:24:36</time>
      </trkpt>
      <trkpt lat="37.0625" lon="-3.37205">
        <ele>3029.6</ele>
        <time>2021-08-05 15:24:37</time>
      </trkpt>
      <trkpt lat="37.06251" lon="-3.37205">
        <ele>3029.8</ele>
        <time>2021-08-05 15:24:38</time>
      </trkpt>
      <trkpt lat="37.06252" lon="-3.37204">
        <ele>3029.8</ele>
        <time>2021-08-05 15:24:39</time>
      </trkpt>
      <trkpt lat="37.06253" lon="-3.37204">
        <ele>3029.8</ele>
        <time>2021-08-05 15:24:40</time>
      </trkpt>
      <trkpt lat="37.06253" lon="-3.37205">
        <ele>3029.8</ele>
        <time>2021-08-05 15:24:41</time>
      </trkpt>
      <trkpt lat="37.06254" lon="-3.37205">
        <ele>3030</ele>
        <time>2021-08-05 15:24:42</time>
      </trkpt>
      <trkpt lat="37.06254" lon="-3.37204">
        <ele>3030</ele>
        <time>2021-08-05 15:24:43</time>
      </trkpt>
      <trkpt lat="37.06255" lon="-3.37203">
        <ele>3030.2</ele>
        <time>2021-08-05 15:24:44</time>
      </trkpt>
      <trkpt lat="37.06256" lon="-3.37203">
        <ele>3030.2</ele>
        <time>2021-08-05 15:24:45</time>
      </trkpt>
      <trkpt lat="37.06257" lon="-3.37202">
        <ele>3030.2</ele>
        <time>2021-08-05 15:24:46</time>
      </trkpt>
      <trkpt lat="37.06257" lon="-3.37201">
        <ele>3030.2</ele>
        <time>2021-08-05 15:24:47</time>
      </trkpt>
      <trkpt lat="37.06258" lon="-3.37201">
        <ele>3030.2</ele>
        <time>2021-08-05 15:24:48</time>
      </trkpt>
      <trkpt lat="37.06259" lon="-3.372">
        <ele>3030.2</ele>
        <time>2021-08-05 15:24:49</time>
      </trkpt>
      <trkpt lat="37.06259" lon="-3.372">
        <ele>3030.2</ele>
        <time>2021-08-05 15:24:50</time>
      </trkpt>
      <trkpt lat="37.06262" lon="-3.37199">
        <ele>3030</ele>
        <time>2021-08-05 15:24:51</time>
      </trkpt>
      <trkpt lat="37.06263" lon="-3.37199">
        <ele>3030</ele>
        <time>2021-08-05 15:24:52</time>
      </trkpt>
      <trkpt lat="37.06264" lon="-3.37199">
        <ele>3030</ele>
        <time>2021-08-05 15:24:53</time>
      </trkpt>
      <trkpt lat="37.06265" lon="-3.37199">
        <ele>3030.2</ele>
        <time>2021-08-05 15:24:54</time>
      </trkpt>
      <trkpt lat="37.06266" lon="-3.37199">
        <ele>3030.2</ele>
        <time>2021-08-05 15:24:55</time>
      </trkpt>
      <trkpt lat="37.06267" lon="-3.37198">
        <ele>3030.4</ele>
        <time>2021-08-05 15:24:56</time>
      </trkpt>
      <trkpt lat="37.06267" lon="-3.37198">
        <ele>3030.6</ele>
        <time>2021-08-05 15:24:57</time>
      </trkpt>
      <trkpt lat="37.06267" lon="-3.37197">
        <ele>3030.8</ele>
        <time>2021-08-05 15:24:58</time>
      </trkpt>
      <trkpt lat="37.06267" lon="-3.37197">
        <ele>3031</ele>
        <time>2021-08-05 15:24:59</time>
      </trkpt>
      <trkpt lat="37.06268" lon="-3.37196">
        <ele>3031.2</ele>
        <time>2021-08-05 15:25:00</time>
      </trkpt>
      <trkpt lat="37.06269" lon="-3.37196">
        <ele>3031.2</ele>
        <time>2021-08-05 15:25:01</time>
      </trkpt>
      <trkpt lat="37.0627" lon="-3.37195">
        <ele>3031.2</ele>
        <time>2021-08-05 15:25:02</time>
      </trkpt>
      <trkpt lat="37.0627" lon="-3.37195">
        <ele>3031.6</ele>
        <time>2021-08-05 15:25:03</time>
      </trkpt>
      <trkpt lat="37.06271" lon="-3.37195">
        <ele>3031.6</ele>
        <time>2021-08-05 15:25:04</time>
      </trkpt>
      <trkpt lat="37.06271" lon="-3.37195">
        <ele>3031.8</ele>
        <time>2021-08-05 15:25:05</time>
      </trkpt>
      <trkpt lat="37.06272" lon="-3.37195">
        <ele>3032</ele>
        <time>2021-08-05 15:25:06</time>
      </trkpt>
      <trkpt lat="37.06273" lon="-3.37194">
        <ele>3032.2</ele>
        <time>2021-08-05 15:25:07</time>
      </trkpt>
      <trkpt lat="37.06274" lon="-3.37194">
        <ele>3032.4</ele>
        <time>2021-08-05 15:25:08</time>
      </trkpt>
      <trkpt lat="37.06275" lon="-3.37194">
        <ele>3032.4</ele>
        <time>2021-08-05 15:25:09</time>
      </trkpt>
      <trkpt lat="37.06276" lon="-3.37193">
        <ele>3032.4</ele>
        <time>2021-08-05 15:25:10</time>
      </trkpt>
      <trkpt lat="37.06277" lon="-3.37193">
        <ele>3032.2</ele>
        <time>2021-08-05 15:25:11</time>
      </trkpt>
      <trkpt lat="37.06277" lon="-3.37193">
        <ele>3032.4</ele>
        <time>2021-08-05 15:25:12</time>
      </trkpt>
      <trkpt lat="37.06278" lon="-3.37193">
        <ele>3032.4</ele>
        <time>2021-08-05 15:25:13</time>
      </trkpt>
      <trkpt lat="37.06279" lon="-3.37193">
        <ele>3032.4</ele>
        <time>2021-08-05 15:25:14</time>
      </trkpt>
      <trkpt lat="37.0628" lon="-3.37192">
        <ele>3032.4</ele>
        <time>2021-08-05 15:25:15</time>
      </trkpt>
      <trkpt lat="37.06281" lon="-3.37192">
        <ele>3032.4</ele>
        <time>2021-08-05 15:25:16</time>
      </trkpt>
      <trkpt lat="37.06282" lon="-3.37192">
        <ele>3032.8</ele>
        <time>2021-08-05 15:25:17</time>
      </trkpt>
      <trkpt lat="37.06282" lon="-3.37192">
        <ele>3032.8</ele>
        <time>2021-08-05 15:25:18</time>
      </trkpt>
      <trkpt lat="37.06283" lon="-3.37191">
        <ele>3033</ele>
        <time>2021-08-05 15:25:19</time>
      </trkpt>
      <trkpt lat="37.06283" lon="-3.37191">
        <ele>3033.2</ele>
        <time>2021-08-05 15:25:20</time>
      </trkpt>
      <trkpt lat="37.06284" lon="-3.3719">
        <ele>3033.2</ele>
        <time>2021-08-05 15:25:21</time>
      </trkpt>
      <trkpt lat="37.06285" lon="-3.37189">
        <ele>3033.4</ele>
        <time>2021-08-05 15:25:22</time>
      </trkpt>
      <trkpt lat="37.06285" lon="-3.37189">
        <ele>3033.4</ele>
        <time>2021-08-05 15:25:23</time>
      </trkpt>
      <trkpt lat="37.06286" lon="-3.37188">
        <ele>3033.2</ele>
        <time>2021-08-05 15:25:24</time>
      </trkpt>
      <trkpt lat="37.06286" lon="-3.37188">
        <ele>3033.2</ele>
        <time>2021-08-05 15:25:25</time>
      </trkpt>
      <trkpt lat="37.06286" lon="-3.37188">
        <ele>3033</ele>
        <time>2021-08-05 15:25:26</time>
      </trkpt>
      <trkpt lat="37.06287" lon="-3.37188">
        <ele>3033</ele>
        <time>2021-08-05 15:25:27</time>
      </trkpt>
      <trkpt lat="37.06288" lon="-3.37187">
        <ele>3033</ele>
        <time>2021-08-05 15:25:28</time>
      </trkpt>
      <trkpt lat="37.06289" lon="-3.37187">
        <ele>3033</ele>
        <time>2021-08-05 15:25:29</time>
      </trkpt>
      <trkpt lat="37.0629" lon="-3.37187">
        <ele>3033</ele>
        <time>2021-08-05 15:25:30</time>
      </trkpt>
      <trkpt lat="37.06291" lon="-3.37187">
        <ele>3033</ele>
        <time>2021-08-05 15:25:31</time>
      </trkpt>
      <trkpt lat="37.06291" lon="-3.37187">
        <ele>3033.2</ele>
        <time>2021-08-05 15:25:32</time>
      </trkpt>
      <trkpt lat="37.06292" lon="-3.37186">
        <ele>3033.4</ele>
        <time>2021-08-05 15:25:33</time>
      </trkpt>
      <trkpt lat="37.06293" lon="-3.37186">
        <ele>3033.4</ele>
        <time>2021-08-05 15:25:34</time>
      </trkpt>
      <trkpt lat="37.06293" lon="-3.37186">
        <ele>3033.4</ele>
        <time>2021-08-05 15:25:35</time>
      </trkpt>
      <trkpt lat="37.06294" lon="-3.37186">
        <ele>3033.4</ele>
        <time>2021-08-05 15:25:36</time>
      </trkpt>
      <trkpt lat="37.06295" lon="-3.37185">
        <ele>3033.4</ele>
        <time>2021-08-05 15:25:37</time>
      </trkpt>
      <trkpt lat="37.06296" lon="-3.37185">
        <ele>3033.8</ele>
        <time>2021-08-05 15:25:38</time>
      </trkpt>
      <trkpt lat="37.06296" lon="-3.37183">
        <ele>3033.8</ele>
        <time>2021-08-05 15:25:39</time>
      </trkpt>
      <trkpt lat="37.06297" lon="-3.37183">
        <ele>3034</ele>
        <time>2021-08-05 15:25:40</time>
      </trkpt>
      <trkpt lat="37.06298" lon="-3.37182">
        <ele>3034</ele>
        <time>2021-08-05 15:25:41</time>
      </trkpt>
      <trkpt lat="37.06299" lon="-3.37181">
        <ele>3034.2</ele>
        <time>2021-08-05 15:25:42</time>
      </trkpt>
      <trkpt lat="37.06301" lon="-3.37181">
        <ele>3034.2</ele>
        <time>2021-08-05 15:25:43</time>
      </trkpt>
      <trkpt lat="37.06302" lon="-3.3718">
        <ele>3034.4</ele>
        <time>2021-08-05 15:25:44</time>
      </trkpt>
      <trkpt lat="37.06303" lon="-3.37179">
        <ele>3034.4</ele>
        <time>2021-08-05 15:25:45</time>
      </trkpt>
      <trkpt lat="37.06304" lon="-3.37179">
        <ele>3034.4</ele>
        <time>2021-08-05 15:25:46</time>
      </trkpt>
      <trkpt lat="37.06305" lon="-3.37178">
        <ele>3034.6</ele>
        <time>2021-08-05 15:25:47</time>
      </trkpt>
      <trkpt lat="37.06305" lon="-3.37178">
        <ele>3034.6</ele>
        <time>2021-08-05 15:25:48</time>
      </trkpt>
      <trkpt lat="37.06306" lon="-3.37178">
        <ele>3034.6</ele>
        <time>2021-08-05 15:25:49</time>
      </trkpt>
      <trkpt lat="37.06307" lon="-3.37178">
        <ele>3034.4</ele>
        <time>2021-08-05 15:25:50</time>
      </trkpt>
      <trkpt lat="37.06308" lon="-3.37178">
        <ele>3034.2</ele>
        <time>2021-08-05 15:25:51</time>
      </trkpt>
      <trkpt lat="37.06309" lon="-3.37178">
        <ele>3034</ele>
        <time>2021-08-05 15:25:52</time>
      </trkpt>
      <trkpt lat="37.0631" lon="-3.37178">
        <ele>3034</ele>
        <time>2021-08-05 15:25:53</time>
      </trkpt>
      <trkpt lat="37.06311" lon="-3.37177">
        <ele>3034</ele>
        <time>2021-08-05 15:25:54</time>
      </trkpt>
      <trkpt lat="37.06312" lon="-3.37177">
        <ele>3034</ele>
        <time>2021-08-05 15:25:55</time>
      </trkpt>
      <trkpt lat="37.06312" lon="-3.37177">
        <ele>3034</ele>
        <time>2021-08-05 15:25:56</time>
      </trkpt>
      <trkpt lat="37.06313" lon="-3.37177">
        <ele>3034.4</ele>
        <time>2021-08-05 15:25:57</time>
      </trkpt>
      <trkpt lat="37.06314" lon="-3.37177">
        <ele>3034.6</ele>
        <time>2021-08-05 15:25:58</time>
      </trkpt>
      <trkpt lat="37.06315" lon="-3.37176">
        <ele>3034.8</ele>
        <time>2021-08-05 15:25:59</time>
      </trkpt>
      <trkpt lat="37.06316" lon="-3.37177">
        <ele>3035</ele>
        <time>2021-08-05 15:26:00</time>
      </trkpt>
      <trkpt lat="37.06316" lon="-3.37176">
        <ele>3035</ele>
        <time>2021-08-05 15:26:01</time>
      </trkpt>
      <trkpt lat="37.06317" lon="-3.37176">
        <ele>3035.2</ele>
        <time>2021-08-05 15:26:02</time>
      </trkpt>
      <trkpt lat="37.06318" lon="-3.37176">
        <ele>3035.2</ele>
        <time>2021-08-05 15:26:03</time>
      </trkpt>
      <trkpt lat="37.06318" lon="-3.37177">
        <ele>3035.4</ele>
        <time>2021-08-05 15:26:04</time>
      </trkpt>
      <trkpt lat="37.06319" lon="-3.37176">
        <ele>3035.4</ele>
        <time>2021-08-05 15:26:05</time>
      </trkpt>
      <trkpt lat="37.06319" lon="-3.37176">
        <ele>3035.6</ele>
        <time>2021-08-05 15:26:06</time>
      </trkpt>
      <trkpt lat="37.0632" lon="-3.37176">
        <ele>3035.8</ele>
        <time>2021-08-05 15:26:07</time>
      </trkpt>
      <trkpt lat="37.06321" lon="-3.37176">
        <ele>3035.8</ele>
        <time>2021-08-05 15:26:08</time>
      </trkpt>
      <trkpt lat="37.06321" lon="-3.37176">
        <ele>3036</ele>
        <time>2021-08-05 15:26:09</time>
      </trkpt>
      <trkpt lat="37.06322" lon="-3.37175">
        <ele>3036.2</ele>
        <time>2021-08-05 15:26:10</time>
      </trkpt>
      <trkpt lat="37.06323" lon="-3.37175">
        <ele>3036.2</ele>
        <time>2021-08-05 15:26:11</time>
      </trkpt>
      <trkpt lat="37.06324" lon="-3.37175">
        <ele>3036.2</ele>
        <time>2021-08-05 15:26:12</time>
      </trkpt>
      <trkpt lat="37.06324" lon="-3.37175">
        <ele>3036.2</ele>
        <time>2021-08-05 15:26:13</time>
      </trkpt>
      <trkpt lat="37.06325" lon="-3.37174">
        <ele>3036.2</ele>
        <time>2021-08-05 15:26:14</time>
      </trkpt>
      <trkpt lat="37.06326" lon="-3.37174">
        <ele>3036</ele>
        <time>2021-08-05 15:26:15</time>
      </trkpt>
      <trkpt lat="37.06327" lon="-3.37173">
        <ele>3036</ele>
        <time>2021-08-05 15:26:16</time>
      </trkpt>
      <trkpt lat="37.06328" lon="-3.37173">
        <ele>3036</ele>
        <time>2021-08-05 15:26:17</time>
      </trkpt>
      <trkpt lat="37.06329" lon="-3.37172">
        <ele>3036</ele>
        <time>2021-08-05 15:26:18</time>
      </trkpt>
      <trkpt lat="37.0633" lon="-3.37172">
        <ele>3036</ele>
        <time>2021-08-05 15:26:19</time>
      </trkpt>
      <trkpt lat="37.0633" lon="-3.37171">
        <ele>3036</ele>
        <time>2021-08-05 15:26:20</time>
      </trkpt>
      <trkpt lat="37.06331" lon="-3.37171">
        <ele>3036.4</ele>
        <time>2021-08-05 15:26:21</time>
      </trkpt>
      <trkpt lat="37.06332" lon="-3.3717">
        <ele>3036.4</ele>
        <time>2021-08-05 15:26:22</time>
      </trkpt>
      <trkpt lat="37.06332" lon="-3.3717">
        <ele>3036.6</ele>
        <time>2021-08-05 15:26:23</time>
      </trkpt>
      <trkpt lat="37.06333" lon="-3.37169">
        <ele>3036.6</ele>
        <time>2021-08-05 15:26:24</time>
      </trkpt>
      <trkpt lat="37.06333" lon="-3.37169">
        <ele>3036.8</ele>
        <time>2021-08-05 15:26:25</time>
      </trkpt>
      <trkpt lat="37.06334" lon="-3.37169">
        <ele>3036.8</ele>
        <time>2021-08-05 15:26:26</time>
      </trkpt>
      <trkpt lat="37.06334" lon="-3.37168">
        <ele>3037</ele>
        <time>2021-08-05 15:26:27</time>
      </trkpt>
      <trkpt lat="37.06334" lon="-3.37169">
        <ele>3037</ele>
        <time>2021-08-05 15:26:28</time>
      </trkpt>
      <trkpt lat="37.06335" lon="-3.37168">
        <ele>3037.2</ele>
        <time>2021-08-05 15:26:29</time>
      </trkpt>
      <trkpt lat="37.06336" lon="-3.37168">
        <ele>3037.2</ele>
        <time>2021-08-05 15:26:30</time>
      </trkpt>
      <trkpt lat="37.06337" lon="-3.37167">
        <ele>3037.2</ele>
        <time>2021-08-05 15:26:31</time>
      </trkpt>
      <trkpt lat="37.06337" lon="-3.37167">
        <ele>3037.2</ele>
        <time>2021-08-05 15:26:32</time>
      </trkpt>
      <trkpt lat="37.06338" lon="-3.37166">
        <ele>3037.2</ele>
        <time>2021-08-05 15:26:33</time>
      </trkpt>
      <trkpt lat="37.06339" lon="-3.37165">
        <ele>3037.2</ele>
        <time>2021-08-05 15:26:34</time>
      </trkpt>
      <trkpt lat="37.0634" lon="-3.37165">
        <ele>3037.4</ele>
        <time>2021-08-05 15:26:35</time>
      </trkpt>
      <trkpt lat="37.06341" lon="-3.37165">
        <ele>3037.4</ele>
        <time>2021-08-05 15:26:36</time>
      </trkpt>
      <trkpt lat="37.06342" lon="-3.37164">
        <ele>3037.4</ele>
        <time>2021-08-05 15:26:37</time>
      </trkpt>
      <trkpt lat="37.06343" lon="-3.37163">
        <ele>3037.4</ele>
        <time>2021-08-05 15:26:38</time>
      </trkpt>
      <trkpt lat="37.06343" lon="-3.37163">
        <ele>3037.4</ele>
        <time>2021-08-05 15:26:39</time>
      </trkpt>
      <trkpt lat="37.06344" lon="-3.37162">
        <ele>3037.6</ele>
        <time>2021-08-05 15:26:40</time>
      </trkpt>
      <trkpt lat="37.06345" lon="-3.37161">
        <ele>3037.6</ele>
        <time>2021-08-05 15:26:41</time>
      </trkpt>
      <trkpt lat="37.06345" lon="-3.3716">
        <ele>3037.8</ele>
        <time>2021-08-05 15:26:42</time>
      </trkpt>
      <trkpt lat="37.06345" lon="-3.3716">
        <ele>3037.8</ele>
        <time>2021-08-05 15:26:43</time>
      </trkpt>
      <trkpt lat="37.06346" lon="-3.3716">
        <ele>3037.8</ele>
        <time>2021-08-05 15:26:44</time>
      </trkpt>
      <trkpt lat="37.06346" lon="-3.37159">
        <ele>3038</ele>
        <time>2021-08-05 15:26:45</time>
      </trkpt>
      <trkpt lat="37.06346" lon="-3.37159">
        <ele>3038.2</ele>
        <time>2021-08-05 15:26:46</time>
      </trkpt>
      <trkpt lat="37.06347" lon="-3.37158">
        <ele>3038.4</ele>
        <time>2021-08-05 15:26:47</time>
      </trkpt>
      <trkpt lat="37.06347" lon="-3.37158">
        <ele>3038.6</ele>
        <time>2021-08-05 15:26:48</time>
      </trkpt>
      <trkpt lat="37.06347" lon="-3.37158">
        <ele>3038.8</ele>
        <time>2021-08-05 15:26:49</time>
      </trkpt>
      <trkpt lat="37.06347" lon="-3.37158">
        <ele>3038.8</ele>
        <time>2021-08-05 15:26:50</time>
      </trkpt>
      <trkpt lat="37.06347" lon="-3.37157">
        <ele>3039</ele>
        <time>2021-08-05 15:26:51</time>
      </trkpt>
      <trkpt lat="37.06348" lon="-3.37156">
        <ele>3039</ele>
        <time>2021-08-05 15:26:52</time>
      </trkpt>
      <trkpt lat="37.06349" lon="-3.37154">
        <ele>3039</ele>
        <time>2021-08-05 15:26:53</time>
      </trkpt>
      <trkpt lat="37.06349" lon="-3.37154">
        <ele>3039</ele>
        <time>2021-08-05 15:26:54</time>
      </trkpt>
      <trkpt lat="37.0635" lon="-3.37153">
        <ele>3039</ele>
        <time>2021-08-05 15:26:55</time>
      </trkpt>
      <trkpt lat="37.06352" lon="-3.37152">
        <ele>3039.2</ele>
        <time>2021-08-05 15:26:56</time>
      </trkpt>
      <trkpt lat="37.06352" lon="-3.37152">
        <ele>3039.4</ele>
        <time>2021-08-05 15:26:57</time>
      </trkpt>
      <trkpt lat="37.06354" lon="-3.37151">
        <ele>3039.6</ele>
        <time>2021-08-05 15:26:58</time>
      </trkpt>
      <trkpt lat="37.06354" lon="-3.37151">
        <ele>3039.6</ele>
        <time>2021-08-05 15:26:59</time>
      </trkpt>
      <trkpt lat="37.06355" lon="-3.3715">
        <ele>3039.8</ele>
        <time>2021-08-05 15:27:00</time>
      </trkpt>
      <trkpt lat="37.06356" lon="-3.3715">
        <ele>3039.8</ele>
        <time>2021-08-05 15:27:01</time>
      </trkpt>
      <trkpt lat="37.06355" lon="-3.3715">
        <ele>3040</ele>
        <time>2021-08-05 15:27:02</time>
      </trkpt>
      <trkpt lat="37.06356" lon="-3.3715">
        <ele>3040</ele>
        <time>2021-08-05 15:27:03</time>
      </trkpt>
      <trkpt lat="37.06357" lon="-3.37149">
        <ele>3040.2</ele>
        <time>2021-08-05 15:27:04</time>
      </trkpt>
      <trkpt lat="37.06358" lon="-3.37149">
        <ele>3040.2</ele>
        <time>2021-08-05 15:27:05</time>
      </trkpt>
      <trkpt lat="37.06358" lon="-3.37148">
        <ele>3040.2</ele>
        <time>2021-08-05 15:27:06</time>
      </trkpt>
      <trkpt lat="37.06359" lon="-3.37147">
        <ele>3040.2</ele>
        <time>2021-08-05 15:27:07</time>
      </trkpt>
      <trkpt lat="37.06359" lon="-3.37147">
        <ele>3040.2</ele>
        <time>2021-08-05 15:27:08</time>
      </trkpt>
      <trkpt lat="37.06359" lon="-3.37147">
        <ele>3040.4</ele>
        <time>2021-08-05 15:27:09</time>
      </trkpt>
      <trkpt lat="37.0636" lon="-3.37146">
        <ele>3040.4</ele>
        <time>2021-08-05 15:27:10</time>
      </trkpt>
      <trkpt lat="37.06359" lon="-3.37146">
        <ele>3040.4</ele>
        <time>2021-08-05 15:27:11</time>
      </trkpt>
      <trkpt lat="37.0636" lon="-3.37146">
        <ele>3040.4</ele>
        <time>2021-08-05 15:27:12</time>
      </trkpt>
      <trkpt lat="37.06361" lon="-3.37146">
        <ele>3040.2</ele>
        <time>2021-08-05 15:27:13</time>
      </trkpt>
      <trkpt lat="37.06361" lon="-3.37146">
        <ele>3040.2</ele>
        <time>2021-08-05 15:27:14</time>
      </trkpt>
      <trkpt lat="37.06363" lon="-3.37145">
        <ele>3040.2</ele>
        <time>2021-08-05 15:27:15</time>
      </trkpt>
      <trkpt lat="37.06363" lon="-3.37144">
        <ele>3040.4</ele>
        <time>2021-08-05 15:27:16</time>
      </trkpt>
      <trkpt lat="37.06364" lon="-3.37143">
        <ele>3040.4</ele>
        <time>2021-08-05 15:27:17</time>
      </trkpt>
      <trkpt lat="37.06364" lon="-3.37143">
        <ele>3040.6</ele>
        <time>2021-08-05 15:27:18</time>
      </trkpt>
      <trkpt lat="37.06365" lon="-3.37142">
        <ele>3040.6</ele>
        <time>2021-08-05 15:27:19</time>
      </trkpt>
      <trkpt lat="37.06365" lon="-3.37142">
        <ele>3040.8</ele>
        <time>2021-08-05 15:27:20</time>
      </trkpt>
      <trkpt lat="37.06365" lon="-3.37142">
        <ele>3040.8</ele>
        <time>2021-08-05 15:27:21</time>
      </trkpt>
      <trkpt lat="37.06366" lon="-3.37142">
        <ele>3040.8</ele>
        <time>2021-08-05 15:27:22</time>
      </trkpt>
      <trkpt lat="37.06367" lon="-3.37141">
        <ele>3040.8</ele>
        <time>2021-08-05 15:27:23</time>
      </trkpt>
      <trkpt lat="37.06368" lon="-3.37141">
        <ele>3040.8</ele>
        <time>2021-08-05 15:27:24</time>
      </trkpt>
      <trkpt lat="37.06369" lon="-3.37141">
        <ele>3040.8</ele>
        <time>2021-08-05 15:27:25</time>
      </trkpt>
      <trkpt lat="37.0637" lon="-3.3714">
        <ele>3040.8</ele>
        <time>2021-08-05 15:27:26</time>
      </trkpt>
      <trkpt lat="37.06371" lon="-3.37141">
        <ele>3040.8</ele>
        <time>2021-08-05 15:27:27</time>
      </trkpt>
      <trkpt lat="37.06372" lon="-3.3714">
        <ele>3040.8</ele>
        <time>2021-08-05 15:27:28</time>
      </trkpt>
      <trkpt lat="37.06373" lon="-3.37141">
        <ele>3040.8</ele>
        <time>2021-08-05 15:27:29</time>
      </trkpt>
      <trkpt lat="37.06374" lon="-3.37141">
        <ele>3040.8</ele>
        <time>2021-08-05 15:27:30</time>
      </trkpt>
      <trkpt lat="37.06374" lon="-3.37141">
        <ele>3040.8</ele>
        <time>2021-08-05 15:27:31</time>
      </trkpt>
      <trkpt lat="37.06375" lon="-3.3714">
        <ele>3040.8</ele>
        <time>2021-08-05 15:27:32</time>
      </trkpt>
      <trkpt lat="37.06375" lon="-3.37141">
        <ele>3041</ele>
        <time>2021-08-05 15:27:33</time>
      </trkpt>
      <trkpt lat="37.06376" lon="-3.37141">
        <ele>3041</ele>
        <time>2021-08-05 15:27:34</time>
      </trkpt>
      <trkpt lat="37.06377" lon="-3.37141">
        <ele>3041.2</ele>
        <time>2021-08-05 15:27:35</time>
      </trkpt>
      <trkpt lat="37.06378" lon="-3.3714">
        <ele>3041.2</ele>
        <time>2021-08-05 15:27:36</time>
      </trkpt>
      <trkpt lat="37.06379" lon="-3.3714">
        <ele>3041.2</ele>
        <time>2021-08-05 15:27:37</time>
      </trkpt>
      <trkpt lat="37.0638" lon="-3.37141">
        <ele>3041.4</ele>
        <time>2021-08-05 15:27:38</time>
      </trkpt>
      <trkpt lat="37.06381" lon="-3.37141">
        <ele>3041.6</ele>
        <time>2021-08-05 15:27:39</time>
      </trkpt>
      <trkpt lat="37.06382" lon="-3.3714">
        <ele>3041.6</ele>
        <time>2021-08-05 15:27:40</time>
      </trkpt>
      <trkpt lat="37.06383" lon="-3.37141">
        <ele>3041.8</ele>
        <time>2021-08-05 15:27:41</time>
      </trkpt>
      <trkpt lat="37.06384" lon="-3.37141">
        <ele>3041.8</ele>
        <time>2021-08-05 15:27:42</time>
      </trkpt>
      <trkpt lat="37.06385" lon="-3.37141">
        <ele>3041.8</ele>
        <time>2021-08-05 15:27:43</time>
      </trkpt>
      <trkpt lat="37.06386" lon="-3.37142">
        <ele>3042</ele>
        <time>2021-08-05 15:27:44</time>
      </trkpt>
      <trkpt lat="37.06387" lon="-3.37142">
        <ele>3041.8</ele>
        <time>2021-08-05 15:27:45</time>
      </trkpt>
      <trkpt lat="37.06388" lon="-3.37143">
        <ele>3041.8</ele>
        <time>2021-08-05 15:27:46</time>
      </trkpt>
      <trkpt lat="37.06388" lon="-3.37141">
        <ele>3041.8</ele>
        <time>2021-08-05 15:27:47</time>
      </trkpt>
      <trkpt lat="37.06388" lon="-3.3714">
        <ele>3042</ele>
        <time>2021-08-05 15:27:48</time>
      </trkpt>
      <trkpt lat="37.06389" lon="-3.37141">
        <ele>3042</ele>
        <time>2021-08-05 15:27:49</time>
      </trkpt>
      <trkpt lat="37.0639" lon="-3.3714">
        <ele>3041.8</ele>
        <time>2021-08-05 15:27:50</time>
      </trkpt>
      <trkpt lat="37.06391" lon="-3.3714">
        <ele>3041.6</ele>
        <time>2021-08-05 15:27:51</time>
      </trkpt>
      <trkpt lat="37.06392" lon="-3.3714">
        <ele>3041.6</ele>
        <time>2021-08-05 15:27:52</time>
      </trkpt>
      <trkpt lat="37.06393" lon="-3.37139">
        <ele>3041.4</ele>
        <time>2021-08-05 15:27:53</time>
      </trkpt>
      <trkpt lat="37.06393" lon="-3.37137">
        <ele>3041.8</ele>
        <time>2021-08-05 15:27:54</time>
      </trkpt>
      <trkpt lat="37.06394" lon="-3.37136">
        <ele>3042</ele>
        <time>2021-08-05 15:27:55</time>
      </trkpt>
      <trkpt lat="37.06394" lon="-3.37136">
        <ele>3042.2</ele>
        <time>2021-08-05 15:27:56</time>
      </trkpt>
      <trkpt lat="37.06395" lon="-3.37136">
        <ele>3042.4</ele>
        <time>2021-08-05 15:27:57</time>
      </trkpt>
      <trkpt lat="37.06395" lon="-3.37137">
        <ele>3042.4</ele>
        <time>2021-08-05 15:27:58</time>
      </trkpt>
      <trkpt lat="37.06396" lon="-3.37137">
        <ele>3042.4</ele>
        <time>2021-08-05 15:27:59</time>
      </trkpt>
      <trkpt lat="37.06397" lon="-3.37137">
        <ele>3042.4</ele>
        <time>2021-08-05 15:28:00</time>
      </trkpt>
      <trkpt lat="37.06398" lon="-3.37138">
        <ele>3042.4</ele>
        <time>2021-08-05 15:28:01</time>
      </trkpt>
      <trkpt lat="37.06399" lon="-3.37138">
        <ele>3042.4</ele>
        <time>2021-08-05 15:28:02</time>
      </trkpt>
      <trkpt lat="37.06399" lon="-3.37138">
        <ele>3042.4</ele>
        <time>2021-08-05 15:28:03</time>
      </trkpt>
      <trkpt lat="37.064" lon="-3.37138">
        <ele>3042.4</ele>
        <time>2021-08-05 15:28:04</time>
      </trkpt>
      <trkpt lat="37.06401" lon="-3.37137">
        <ele>3042.4</ele>
        <time>2021-08-05 15:28:05</time>
      </trkpt>
      <trkpt lat="37.06401" lon="-3.37137">
        <ele>3042.4</ele>
        <time>2021-08-05 15:28:06</time>
      </trkpt>
      <trkpt lat="37.06402" lon="-3.37137">
        <ele>3042.8</ele>
        <time>2021-08-05 15:28:07</time>
      </trkpt>
      <trkpt lat="37.06403" lon="-3.37137">
        <ele>3042.8</ele>
        <time>2021-08-05 15:28:08</time>
      </trkpt>
      <trkpt lat="37.06404" lon="-3.37138">
        <ele>3043</ele>
        <time>2021-08-05 15:28:09</time>
      </trkpt>
      <trkpt lat="37.06405" lon="-3.37138">
        <ele>3043</ele>
        <time>2021-08-05 15:28:10</time>
      </trkpt>
      <trkpt lat="37.06406" lon="-3.37139">
        <ele>3043.2</ele>
        <time>2021-08-05 15:28:11</time>
      </trkpt>
      <trkpt lat="37.06407" lon="-3.37139">
        <ele>3043.2</ele>
        <time>2021-08-05 15:28:12</time>
      </trkpt>
      <trkpt lat="37.06408" lon="-3.3714">
        <ele>3043.2</ele>
        <time>2021-08-05 15:28:13</time>
      </trkpt>
      <trkpt lat="37.06408" lon="-3.37141">
        <ele>3043.2</ele>
        <time>2021-08-05 15:28:14</time>
      </trkpt>
      <trkpt lat="37.06409" lon="-3.37141">
        <ele>3043.4</ele>
        <time>2021-08-05 15:28:15</time>
      </trkpt>
      <trkpt lat="37.0641" lon="-3.37141">
        <ele>3043.4</ele>
        <time>2021-08-05 15:28:16</time>
      </trkpt>
      <trkpt lat="37.06411" lon="-3.37141">
        <ele>3043.4</ele>
        <time>2021-08-05 15:28:17</time>
      </trkpt>
      <trkpt lat="37.06412" lon="-3.37141">
        <ele>3043.4</ele>
        <time>2021-08-05 15:28:18</time>
      </trkpt>
      <trkpt lat="37.06413" lon="-3.37142">
        <ele>3043.6</ele>
        <time>2021-08-05 15:28:19</time>
      </trkpt>
      <trkpt lat="37.06413" lon="-3.37142">
        <ele>3043.6</ele>
        <time>2021-08-05 15:28:20</time>
      </trkpt>
      <trkpt lat="37.06414" lon="-3.37142">
        <ele>3043.6</ele>
        <time>2021-08-05 15:28:21</time>
      </trkpt>
      <trkpt lat="37.06414" lon="-3.37142">
        <ele>3043.6</ele>
        <time>2021-08-05 15:28:22</time>
      </trkpt>
      <trkpt lat="37.06415" lon="-3.37143">
        <ele>3043.6</ele>
        <time>2021-08-05 15:28:23</time>
      </trkpt>
      <trkpt lat="37.06416" lon="-3.37144">
        <ele>3043.8</ele>
        <time>2021-08-05 15:28:24</time>
      </trkpt>
      <trkpt lat="37.06416" lon="-3.37145">
        <ele>3043.8</ele>
        <time>2021-08-05 15:28:25</time>
      </trkpt>
      <trkpt lat="37.06417" lon="-3.37146">
        <ele>3043.8</ele>
        <time>2021-08-05 15:28:26</time>
      </trkpt>
      <trkpt lat="37.06418" lon="-3.37146">
        <ele>3043.8</ele>
        <time>2021-08-05 15:28:27</time>
      </trkpt>
      <trkpt lat="37.06419" lon="-3.37146">
        <ele>3043.6</ele>
        <time>2021-08-05 15:28:28</time>
      </trkpt>
      <trkpt lat="37.0642" lon="-3.37147">
        <ele>3043.8</ele>
        <time>2021-08-05 15:28:29</time>
      </trkpt>
      <trkpt lat="37.06421" lon="-3.37147">
        <ele>3043.8</ele>
        <time>2021-08-05 15:28:30</time>
      </trkpt>
      <trkpt lat="37.06421" lon="-3.37148">
        <ele>3043.6</ele>
        <time>2021-08-05 15:28:31</time>
      </trkpt>
      <trkpt lat="37.06422" lon="-3.37149">
        <ele>3043.6</ele>
        <time>2021-08-05 15:28:32</time>
      </trkpt>
      <trkpt lat="37.06423" lon="-3.3715">
        <ele>3043.8</ele>
        <time>2021-08-05 15:28:33</time>
      </trkpt>
      <trkpt lat="37.06424" lon="-3.37151">
        <ele>3044</ele>
        <time>2021-08-05 15:28:34</time>
      </trkpt>
      <trkpt lat="37.06425" lon="-3.37152">
        <ele>3044.4</ele>
        <time>2021-08-05 15:28:35</time>
      </trkpt>
      <trkpt lat="37.06426" lon="-3.37152">
        <ele>3044.4</ele>
        <time>2021-08-05 15:28:36</time>
      </trkpt>
      <trkpt lat="37.06426" lon="-3.37152">
        <ele>3044.6</ele>
        <time>2021-08-05 15:28:37</time>
      </trkpt>
      <trkpt lat="37.06427" lon="-3.37153">
        <ele>3044.8</ele>
        <time>2021-08-05 15:28:38</time>
      </trkpt>
      <trkpt lat="37.06428" lon="-3.37153">
        <ele>3044.6</ele>
        <time>2021-08-05 15:28:39</time>
      </trkpt>
      <trkpt lat="37.06429" lon="-3.37153">
        <ele>3044.6</ele>
        <time>2021-08-05 15:28:40</time>
      </trkpt>
      <trkpt lat="37.0643" lon="-3.37153">
        <ele>3044.6</ele>
        <time>2021-08-05 15:28:41</time>
      </trkpt>
      <trkpt lat="37.06431" lon="-3.37153">
        <ele>3044.6</ele>
        <time>2021-08-05 15:28:42</time>
      </trkpt>
      <trkpt lat="37.06432" lon="-3.37154">
        <ele>3044.8</ele>
        <time>2021-08-05 15:28:43</time>
      </trkpt>
      <trkpt lat="37.06432" lon="-3.37154">
        <ele>3044.8</ele>
        <time>2021-08-05 15:28:44</time>
      </trkpt>
      <trkpt lat="37.06433" lon="-3.37154">
        <ele>3044.8</ele>
        <time>2021-08-05 15:28:45</time>
      </trkpt>
      <trkpt lat="37.06434" lon="-3.37154">
        <ele>3045</ele>
        <time>2021-08-05 15:28:46</time>
      </trkpt>
      <trkpt lat="37.06435" lon="-3.37155">
        <ele>3045.2</ele>
        <time>2021-08-05 15:28:47</time>
      </trkpt>
      <trkpt lat="37.06436" lon="-3.37155">
        <ele>3045.2</ele>
        <time>2021-08-05 15:28:48</time>
      </trkpt>
      <trkpt lat="37.06436" lon="-3.37155">
        <ele>3045.4</ele>
        <time>2021-08-05 15:28:49</time>
      </trkpt>
      <trkpt lat="37.06438" lon="-3.37155">
        <ele>3045.6</ele>
        <time>2021-08-05 15:28:50</time>
      </trkpt>
      <trkpt lat="37.06439" lon="-3.37155">
        <ele>3045.8</ele>
        <time>2021-08-05 15:28:51</time>
      </trkpt>
      <trkpt lat="37.06439" lon="-3.37155">
        <ele>3045.8</ele>
        <time>2021-08-05 15:28:52</time>
      </trkpt>
      <trkpt lat="37.0644" lon="-3.37156">
        <ele>3046.2</ele>
        <time>2021-08-05 15:28:53</time>
      </trkpt>
      <trkpt lat="37.06441" lon="-3.37156">
        <ele>3046.4</ele>
        <time>2021-08-05 15:28:54</time>
      </trkpt>
      <trkpt lat="37.06441" lon="-3.37156">
        <ele>3046.4</ele>
        <time>2021-08-05 15:28:55</time>
      </trkpt>
      <trkpt lat="37.06442" lon="-3.37156">
        <ele>3046.4</ele>
        <time>2021-08-05 15:28:56</time>
      </trkpt>
      <trkpt lat="37.06443" lon="-3.37156">
        <ele>3046.4</ele>
        <time>2021-08-05 15:28:57</time>
      </trkpt>
      <trkpt lat="37.06444" lon="-3.37156">
        <ele>3046.4</ele>
        <time>2021-08-05 15:28:58</time>
      </trkpt>
      <trkpt lat="37.06445" lon="-3.37157">
        <ele>3046.4</ele>
        <time>2021-08-05 15:28:59</time>
      </trkpt>
      <trkpt lat="37.06446" lon="-3.37157">
        <ele>3046.6</ele>
        <time>2021-08-05 15:29:00</time>
      </trkpt>
      <trkpt lat="37.06446" lon="-3.37158">
        <ele>3046.8</ele>
        <time>2021-08-05 15:29:01</time>
      </trkpt>
      <trkpt lat="37.06447" lon="-3.37158">
        <ele>3046.8</ele>
        <time>2021-08-05 15:29:02</time>
      </trkpt>
      <trkpt lat="37.06448" lon="-3.37158">
        <ele>3046.8</ele>
        <time>2021-08-05 15:29:03</time>
      </trkpt>
      <trkpt lat="37.06449" lon="-3.37159">
        <ele>3046.8</ele>
        <time>2021-08-05 15:29:04</time>
      </trkpt>
      <trkpt lat="37.06449" lon="-3.37159">
        <ele>3046.8</ele>
        <time>2021-08-05 15:29:05</time>
      </trkpt>
      <trkpt lat="37.0645" lon="-3.37159">
        <ele>3047</ele>
        <time>2021-08-05 15:29:06</time>
      </trkpt>
      <trkpt lat="37.06451" lon="-3.37159">
        <ele>3047</ele>
        <time>2021-08-05 15:29:07</time>
      </trkpt>
      <trkpt lat="37.06452" lon="-3.37159">
        <ele>3047</ele>
        <time>2021-08-05 15:29:08</time>
      </trkpt>
      <trkpt lat="37.06453" lon="-3.3716">
        <ele>3047</ele>
        <time>2021-08-05 15:29:09</time>
      </trkpt>
      <trkpt lat="37.06453" lon="-3.3716">
        <ele>3047</ele>
        <time>2021-08-05 15:29:10</time>
      </trkpt>
      <trkpt lat="37.06454" lon="-3.3716">
        <ele>3047</ele>
        <time>2021-08-05 15:29:11</time>
      </trkpt>
      <trkpt lat="37.06455" lon="-3.37161">
        <ele>3047</ele>
        <time>2021-08-05 15:29:12</time>
      </trkpt>
      <trkpt lat="37.06455" lon="-3.37161">
        <ele>3047</ele>
        <time>2021-08-05 15:29:13</time>
      </trkpt>
      <trkpt lat="37.06456" lon="-3.37163">
        <ele>3047</ele>
        <time>2021-08-05 15:29:14</time>
      </trkpt>
      <trkpt lat="37.06456" lon="-3.37163">
        <ele>3047.2</ele>
        <time>2021-08-05 15:29:15</time>
      </trkpt>
      <trkpt lat="37.06456" lon="-3.37163">
        <ele>3047.2</ele>
        <time>2021-08-05 15:29:16</time>
      </trkpt>
      <trkpt lat="37.06457" lon="-3.37164">
        <ele>3047.2</ele>
        <time>2021-08-05 15:29:17</time>
      </trkpt>
      <trkpt lat="37.06458" lon="-3.37164">
        <ele>3047.2</ele>
        <time>2021-08-05 15:29:18</time>
      </trkpt>
      <trkpt lat="37.06458" lon="-3.37163">
        <ele>3047.2</ele>
        <time>2021-08-05 15:29:19</time>
      </trkpt>
      <trkpt lat="37.06459" lon="-3.37163">
        <ele>3047.2</ele>
        <time>2021-08-05 15:29:20</time>
      </trkpt>
      <trkpt lat="37.06459" lon="-3.37163">
        <ele>3047.4</ele>
        <time>2021-08-05 15:29:21</time>
      </trkpt>
      <trkpt lat="37.0646" lon="-3.37163">
        <ele>3047.4</ele>
        <time>2021-08-05 15:29:22</time>
      </trkpt>
      <trkpt lat="37.0646" lon="-3.37163">
        <ele>3047.4</ele>
        <time>2021-08-05 15:29:23</time>
      </trkpt>
      <trkpt lat="37.0646" lon="-3.37163">
        <ele>3047.4</ele>
        <time>2021-08-05 15:29:24</time>
      </trkpt>
      <trkpt lat="37.06461" lon="-3.37161">
        <ele>3047.8</ele>
        <time>2021-08-05 15:29:25</time>
      </trkpt>
      <trkpt lat="37.06461" lon="-3.37161">
        <ele>3047.8</ele>
        <time>2021-08-05 15:29:26</time>
      </trkpt>
      <trkpt lat="37.06462" lon="-3.37158">
        <ele>3048</ele>
        <time>2021-08-05 15:29:27</time>
      </trkpt>
      <trkpt lat="37.06462" lon="-3.37157">
        <ele>3048.2</ele>
        <time>2021-08-05 15:29:28</time>
      </trkpt>
      <trkpt lat="37.06462" lon="-3.37157">
        <ele>3048.2</ele>
        <time>2021-08-05 15:29:29</time>
      </trkpt>
      <trkpt lat="37.06463" lon="-3.37156">
        <ele>3048.2</ele>
        <time>2021-08-05 15:29:30</time>
      </trkpt>
      <trkpt lat="37.06464" lon="-3.37155">
        <ele>3048.2</ele>
        <time>2021-08-05 15:29:31</time>
      </trkpt>
      <trkpt lat="37.06464" lon="-3.37155">
        <ele>3048.2</ele>
        <time>2021-08-05 15:29:32</time>
      </trkpt>
      <trkpt lat="37.06464" lon="-3.37155">
        <ele>3048.2</ele>
        <time>2021-08-05 15:29:33</time>
      </trkpt>
      <trkpt lat="37.06466" lon="-3.37153">
        <ele>3048.2</ele>
        <time>2021-08-05 15:29:34</time>
      </trkpt>
      <trkpt lat="37.06467" lon="-3.37152">
        <ele>3048.2</ele>
        <time>2021-08-05 15:29:35</time>
      </trkpt>
      <trkpt lat="37.06467" lon="-3.37152">
        <ele>3048.4</ele>
        <time>2021-08-05 15:29:36</time>
      </trkpt>
      <trkpt lat="37.06468" lon="-3.37151">
        <ele>3048.6</ele>
        <time>2021-08-05 15:29:37</time>
      </trkpt>
      <trkpt lat="37.06469" lon="-3.37151">
        <ele>3048.6</ele>
        <time>2021-08-05 15:29:38</time>
      </trkpt>
      <trkpt lat="37.06469" lon="-3.37151">
        <ele>3048.6</ele>
        <time>2021-08-05 15:29:39</time>
      </trkpt>
      <trkpt lat="37.0647" lon="-3.3715">
        <ele>3048.6</ele>
        <time>2021-08-05 15:29:40</time>
      </trkpt>
      <trkpt lat="37.0647" lon="-3.37149">
        <ele>3048.6</ele>
        <time>2021-08-05 15:29:41</time>
      </trkpt>
      <trkpt lat="37.06471" lon="-3.37149">
        <ele>3049</ele>
        <time>2021-08-05 15:29:42</time>
      </trkpt>
      <trkpt lat="37.06471" lon="-3.37148">
        <ele>3049</ele>
        <time>2021-08-05 15:29:43</time>
      </trkpt>
      <trkpt lat="37.06471" lon="-3.37148">
        <ele>3049</ele>
        <time>2021-08-05 15:29:44</time>
      </trkpt>
      <trkpt lat="37.06471" lon="-3.37148">
        <ele>3049.2</ele>
        <time>2021-08-05 15:29:45</time>
      </trkpt>
      <trkpt lat="37.06471" lon="-3.37148">
        <ele>3049.2</ele>
        <time>2021-08-05 15:29:46</time>
      </trkpt>
      <trkpt lat="37.06472" lon="-3.37149">
        <ele>3049</ele>
        <time>2021-08-05 15:29:47</time>
      </trkpt>
      <trkpt lat="37.06472" lon="-3.37149">
        <ele>3049</ele>
        <time>2021-08-05 15:29:48</time>
      </trkpt>
      <trkpt lat="37.06474" lon="-3.37148">
        <ele>3049</ele>
        <time>2021-08-05 15:29:49</time>
      </trkpt>
      <trkpt lat="37.06474" lon="-3.37148">
        <ele>3049</ele>
        <time>2021-08-05 15:29:50</time>
      </trkpt>
      <trkpt lat="37.06475" lon="-3.37148">
        <ele>3049</ele>
        <time>2021-08-05 15:29:51</time>
      </trkpt>
      <trkpt lat="37.06476" lon="-3.37147">
        <ele>3049.2</ele>
        <time>2021-08-05 15:29:52</time>
      </trkpt>
      <trkpt lat="37.06476" lon="-3.37147">
        <ele>3049.2</ele>
        <time>2021-08-05 15:29:53</time>
      </trkpt>
      <trkpt lat="37.06477" lon="-3.37147">
        <ele>3049.2</ele>
        <time>2021-08-05 15:29:54</time>
      </trkpt>
      <trkpt lat="37.06477" lon="-3.37147">
        <ele>3049.2</ele>
        <time>2021-08-05 15:29:55</time>
      </trkpt>
      <trkpt lat="37.06477" lon="-3.37145">
        <ele>3049.2</ele>
        <time>2021-08-05 15:29:56</time>
      </trkpt>
      <trkpt lat="37.06476" lon="-3.37144">
        <ele>3049.2</ele>
        <time>2021-08-05 15:29:57</time>
      </trkpt>
      <trkpt lat="37.06477" lon="-3.37143">
        <ele>3049.2</ele>
        <time>2021-08-05 15:29:58</time>
      </trkpt>
      <trkpt lat="37.06477" lon="-3.37141">
        <ele>3049.2</ele>
        <time>2021-08-05 15:29:59</time>
      </trkpt>
      <trkpt lat="37.06477" lon="-3.37141">
        <ele>3049.2</ele>
        <time>2021-08-05 15:30:00</time>
      </trkpt>
      <trkpt lat="37.06478" lon="-3.37141">
        <ele>3049.2</ele>
        <time>2021-08-05 15:30:01</time>
      </trkpt>
      <trkpt lat="37.06478" lon="-3.37141">
        <ele>3049.2</ele>
        <time>2021-08-05 15:30:02</time>
      </trkpt>
      <trkpt lat="37.06478" lon="-3.37141">
        <ele>3049.2</ele>
        <time>2021-08-05 15:30:03</time>
      </trkpt>
      <trkpt lat="37.06478" lon="-3.37141">
        <ele>3049.2</ele>
        <time>2021-08-05 15:30:04</time>
      </trkpt>
      <trkpt lat="37.06477" lon="-3.37142">
        <ele>3049.2</ele>
        <time>2021-08-05 15:30:05</time>
      </trkpt>
      <trkpt lat="37.06476" lon="-3.37142">
        <ele>3049.4</ele>
        <time>2021-08-05 15:30:06</time>
      </trkpt>
      <trkpt lat="37.06476" lon="-3.37142">
        <ele>3049.2</ele>
        <time>2021-08-05 15:30:07</time>
      </trkpt>
      <trkpt lat="37.06476" lon="-3.37142">
        <ele>3049.2</ele>
        <time>2021-08-05 15:30:08</time>
      </trkpt>
      <trkpt lat="37.06476" lon="-3.37142">
        <ele>3049.2</ele>
        <time>2021-08-05 15:30:09</time>
      </trkpt>
      <trkpt lat="37.06477" lon="-3.37141">
        <ele>3049.2</ele>
        <time>2021-08-05 15:30:10</time>
      </trkpt>
      <trkpt lat="37.06477" lon="-3.37141">
        <ele>3049.2</ele>
        <time>2021-08-05 15:30:11</time>
      </trkpt>
      <trkpt lat="37.06477" lon="-3.3714">
        <ele>3049</ele>
        <time>2021-08-05 15:30:12</time>
      </trkpt>
      <trkpt lat="37.06477" lon="-3.37139">
        <ele>3049</ele>
        <time>2021-08-05 15:30:13</time>
      </trkpt>
      <trkpt lat="37.06478" lon="-3.37139">
        <ele>3048.8</ele>
        <time>2021-08-05 15:30:14</time>
      </trkpt>
      <trkpt lat="37.06478" lon="-3.37139">
        <ele>3048.8</ele>
        <time>2021-08-05 15:30:15</time>
      </trkpt>
      <trkpt lat="37.06478" lon="-3.37139">
        <ele>3048.6</ele>
        <time>2021-08-05 15:30:16</time>
      </trkpt>
      <trkpt lat="37.06478" lon="-3.37139">
        <ele>3048.6</ele>
        <time>2021-08-05 15:30:17</time>
      </trkpt>
      <trkpt lat="37.06479" lon="-3.37139">
        <ele>3048.6</ele>
        <time>2021-08-05 15:30:18</time>
      </trkpt>
      <trkpt lat="37.06479" lon="-3.37138">
        <ele>3048.6</ele>
        <time>2021-08-05 15:30:19</time>
      </trkpt>
      <trkpt lat="37.06479" lon="-3.37138">
        <ele>3048.6</ele>
        <time>2021-08-05 15:30:20</time>
      </trkpt>
      <trkpt lat="37.0648" lon="-3.37139">
        <ele>3048.6</ele>
        <time>2021-08-05 15:30:21</time>
      </trkpt>
      <trkpt lat="37.0648" lon="-3.37139">
        <ele>3048.6</ele>
        <time>2021-08-05 15:30:22</time>
      </trkpt>
      <trkpt lat="37.06479" lon="-3.37139">
        <ele>3048.6</ele>
        <time>2021-08-05 15:30:23</time>
      </trkpt>
      <trkpt lat="37.0648" lon="-3.37139">
        <ele>3048.6</ele>
        <time>2021-08-05 15:30:24</time>
      </trkpt>
      <trkpt lat="37.06479" lon="-3.37138">
        <ele>3048.6</ele>
        <time>2021-08-05 15:30:25</time>
      </trkpt>
      <trkpt lat="37.06479" lon="-3.37138">
        <ele>3048.4</ele>
        <time>2021-08-05 15:30:26</time>
      </trkpt>
      <trkpt lat="37.06479" lon="-3.37138">
        <ele>3048.4</ele>
        <time>2021-08-05 15:30:27</time>
      </trkpt>
      <trkpt lat="37.06479" lon="-3.37138">
        <ele>3048.4</ele>
        <time>2021-08-05 15:30:28</time>
      </trkpt>
      <trkpt lat="37.06479" lon="-3.37138">
        <ele>3048.4</ele>
        <time>2021-08-05 15:30:29</time>
      </trkpt>
      <trkpt lat="37.06479" lon="-3.37138">
        <ele>3048.6</ele>
        <time>2021-08-05 15:30:30</time>
      </trkpt>
      <trkpt lat="37.0648" lon="-3.37138">
        <ele>3048.6</ele>
        <time>2021-08-05 15:30:31</time>
      </trkpt>
      <trkpt lat="37.0648" lon="-3.37138">
        <ele>3048.6</ele>
        <time>2021-08-05 15:30:32</time>
      </trkpt>
      <trkpt lat="37.0648" lon="-3.37138">
        <ele>3048.6</ele>
        <time>2021-08-05 15:30:33</time>
      </trkpt>
      <trkpt lat="37.0648" lon="-3.37138">
        <ele>3048.4</ele>
        <time>2021-08-05 15:30:34</time>
      </trkpt>
      <trkpt lat="37.0648" lon="-3.37138">
        <ele>3048.4</ele>
        <time>2021-08-05 15:30:35</time>
      </trkpt>
      <trkpt lat="37.0648" lon="-3.37138">
        <ele>3048.4</ele>
        <time>2021-08-05 15:30:36</time>
      </trkpt>
      <trkpt lat="37.0648" lon="-3.37138">
        <ele>3048.2</ele>
        <time>2021-08-05 15:30:37</time>
      </trkpt>
      <trkpt lat="37.0648" lon="-3.37138">
        <ele>3048.4</ele>
        <time>2021-08-05 15:30:38</time>
      </trkpt>
      <trkpt lat="37.0648" lon="-3.37138">
        <ele>3048.4</ele>
        <time>2021-08-05 15:30:39</time>
      </trkpt>
      <trkpt lat="37.0648" lon="-3.37138">
        <ele>3048.4</ele>
        <time>2021-08-05 15:30:40</time>
      </trkpt>
      <trkpt lat="37.0648" lon="-3.37137">
        <ele>3048.4</ele>
        <time>2021-08-05 15:30:41</time>
      </trkpt>
      <trkpt lat="37.0648" lon="-3.37137">
        <ele>3048.4</ele>
        <time>2021-08-05 15:30:42</time>
      </trkpt>
      <trkpt lat="37.0648" lon="-3.37137">
        <ele>3048.4</ele>
        <time>2021-08-05 15:30:43</time>
      </trkpt>
      <trkpt lat="37.0648" lon="-3.37137">
        <ele>3048.4</ele>
        <time>2021-08-05 15:30:44</time>
      </trkpt>
      <trkpt lat="37.0648" lon="-3.37137">
        <ele>3048.6</ele>
        <time>2021-08-05 15:30:45</time>
      </trkpt>
      <trkpt lat="37.0648" lon="-3.37138">
        <ele>3048.6</ele>
        <time>2021-08-05 15:30:46</time>
      </trkpt>
      <trkpt lat="37.0648" lon="-3.37138">
        <ele>3048.6</ele>
        <time>2021-08-05 15:30:47</time>
      </trkpt>
      <trkpt lat="37.0648" lon="-3.37137">
        <ele>3048.6</ele>
        <time>2021-08-05 15:30:48</time>
      </trkpt>
      <trkpt lat="37.0648" lon="-3.37137">
        <ele>3048.8</ele>
        <time>2021-08-05 15:30:49</time>
      </trkpt>
      <trkpt lat="37.06481" lon="-3.37138">
        <ele>3048.8</ele>
        <time>2021-08-05 15:30:50</time>
      </trkpt>
      <trkpt lat="37.0648" lon="-3.37138">
        <ele>3049</ele>
        <time>2021-08-05 15:30:51</time>
      </trkpt>
      <trkpt lat="37.0648" lon="-3.37137">
        <ele>3048.8</ele>
        <time>2021-08-05 15:30:52</time>
      </trkpt>
      <trkpt lat="37.0648" lon="-3.37137">
        <ele>3049</ele>
        <time>2021-08-05 15:30:53</time>
      </trkpt>
      <trkpt lat="37.0648" lon="-3.37138">
        <ele>3049.2</ele>
        <time>2021-08-05 15:30:54</time>
      </trkpt>
      <trkpt lat="37.0648" lon="-3.37138">
        <ele>3049.2</ele>
        <time>2021-08-05 15:30:55</time>
      </trkpt>
      <trkpt lat="37.0648" lon="-3.37138">
        <ele>3049.2</ele>
        <time>2021-08-05 15:30:56</time>
      </trkpt>
      <trkpt lat="37.0648" lon="-3.37138">
        <ele>3049.2</ele>
        <time>2021-08-05 15:30:57</time>
      </trkpt>
      <trkpt lat="37.0648" lon="-3.37138">
        <ele>3049.4</ele>
        <time>2021-08-05 15:30:58</time>
      </trkpt>
      <trkpt lat="37.0648" lon="-3.37138">
        <ele>3049.4</ele>
        <time>2021-08-05 15:30:59</time>
      </trkpt>
      <trkpt lat="37.06481" lon="-3.37138">
        <ele>3049.4</ele>
        <time>2021-08-05 15:31:00</time>
      </trkpt>
      <trkpt lat="37.06481" lon="-3.37138">
        <ele>3049.4</ele>
        <time>2021-08-05 15:31:01</time>
      </trkpt>
      <trkpt lat="37.06481" lon="-3.37138">
        <ele>3049.6</ele>
        <time>2021-08-05 15:31:02</time>
      </trkpt>
      <trkpt lat="37.06481" lon="-3.37138">
        <ele>3049.6</ele>
        <time>2021-08-05 15:31:03</time>
      </trkpt>
      <trkpt lat="37.06481" lon="-3.37138">
        <ele>3049.6</ele>
        <time>2021-08-05 15:31:04</time>
      </trkpt>
      <trkpt lat="37.06481" lon="-3.37138">
        <ele>3049.6</ele>
        <time>2021-08-05 15:31:05</time>
      </trkpt>
      <trkpt lat="37.06481" lon="-3.37138">
        <ele>3049.8</ele>
        <time>2021-08-05 15:31:06</time>
      </trkpt>
      <trkpt lat="37.06481" lon="-3.37138">
        <ele>3049.8</ele>
        <time>2021-08-05 15:31:07</time>
      </trkpt>
      <trkpt lat="37.0648" lon="-3.37138">
        <ele>3049.8</ele>
        <time>2021-08-05 15:31:08</time>
      </trkpt>
      <trkpt lat="37.0648" lon="-3.37139">
        <ele>3049.6</ele>
        <time>2021-08-05 15:31:09</time>
      </trkpt>
      <trkpt lat="37.0648" lon="-3.37139">
        <ele>3049.6</ele>
        <time>2021-08-05 15:31:10</time>
      </trkpt>
      <trkpt lat="37.0648" lon="-3.37139">
        <ele>3049.6</ele>
        <time>2021-08-05 15:31:11</time>
      </trkpt>
      <trkpt lat="37.0648" lon="-3.37138">
        <ele>3049.6</ele>
        <time>2021-08-05 15:31:12</time>
      </trkpt>
      <trkpt lat="37.0648" lon="-3.37138">
        <ele>3049.4</ele>
        <time>2021-08-05 15:31:13</time>
      </trkpt>
      <trkpt lat="37.0648" lon="-3.37138">
        <ele>3049.4</ele>
        <time>2021-08-05 15:31:14</time>
      </trkpt>
      <trkpt lat="37.06481" lon="-3.37138">
        <ele>3049.4</ele>
        <time>2021-08-05 15:31:15</time>
      </trkpt>
      <trkpt lat="37.06481" lon="-3.37137">
        <ele>3049.4</ele>
        <time>2021-08-05 15:31:16</time>
      </trkpt>
      <trkpt lat="37.06481" lon="-3.37137">
        <ele>3049.4</ele>
        <time>2021-08-05 15:31:17</time>
      </trkpt>
      <trkpt lat="37.06481" lon="-3.37137">
        <ele>3049.4</ele>
        <time>2021-08-05 15:31:18</time>
      </trkpt>
      <trkpt lat="37.0648" lon="-3.37137">
        <ele>3049.4</ele>
        <time>2021-08-05 15:31:19</time>
      </trkpt>
      <trkpt lat="37.0648" lon="-3.37137">
        <ele>3049.4</ele>
        <time>2021-08-05 15:31:20</time>
      </trkpt>
      <trkpt lat="37.0648" lon="-3.37138">
        <ele>3049.2</ele>
        <time>2021-08-05 15:31:21</time>
      </trkpt>
      <trkpt lat="37.06479" lon="-3.37139">
        <ele>3049.2</ele>
        <time>2021-08-05 15:31:22</time>
      </trkpt>
      <trkpt lat="37.06479" lon="-3.37139">
        <ele>3049.2</ele>
        <time>2021-08-05 15:31:23</time>
      </trkpt>
      <trkpt lat="37.06479" lon="-3.37139">
        <ele>3049.2</ele>
        <time>2021-08-05 15:31:24</time>
      </trkpt>
      <trkpt lat="37.06479" lon="-3.3714">
        <ele>3049.2</ele>
        <time>2021-08-05 15:31:25</time>
      </trkpt>
      <trkpt lat="37.06479" lon="-3.3714">
        <ele>3049.4</ele>
        <time>2021-08-05 15:31:26</time>
      </trkpt>
      <trkpt lat="37.06479" lon="-3.3714">
        <ele>3049.6</ele>
        <time>2021-08-05 15:31:27</time>
      </trkpt>
      <trkpt lat="37.0648" lon="-3.3714">
        <ele>3049.6</ele>
        <time>2021-08-05 15:31:28</time>
      </trkpt>
      <trkpt lat="37.0648" lon="-3.3714">
        <ele>3049.8</ele>
        <time>2021-08-05 15:31:29</time>
      </trkpt>
      <trkpt lat="37.0648" lon="-3.3714">
        <ele>3049.8</ele>
        <time>2021-08-05 15:31:30</time>
      </trkpt>
      <trkpt lat="37.06481" lon="-3.3714">
        <ele>3049.8</ele>
        <time>2021-08-05 15:31:31</time>
      </trkpt>
      <trkpt lat="37.06481" lon="-3.37141">
        <ele>3049.8</ele>
        <time>2021-08-05 15:31:32</time>
      </trkpt>
      <trkpt lat="37.06481" lon="-3.37141">
        <ele>3050</ele>
        <time>2021-08-05 15:31:33</time>
      </trkpt>
      <trkpt lat="37.06482" lon="-3.37142">
        <ele>3050</ele>
        <time>2021-08-05 15:31:34</time>
      </trkpt>
      <trkpt lat="37.06482" lon="-3.37142">
        <ele>3050</ele>
        <time>2021-08-05 15:31:35</time>
      </trkpt>
      <trkpt lat="37.06482" lon="-3.37141">
        <ele>3050</ele>
        <time>2021-08-05 15:31:36</time>
      </trkpt>
      <trkpt lat="37.06481" lon="-3.37141">
        <ele>3049.8</ele>
        <time>2021-08-05 15:31:37</time>
      </trkpt>
      <trkpt lat="37.06481" lon="-3.37141">
        <ele>3050</ele>
        <time>2021-08-05 15:31:38</time>
      </trkpt>
      <trkpt lat="37.06481" lon="-3.3714">
        <ele>3050</ele>
        <time>2021-08-05 15:31:39</time>
      </trkpt>
      <trkpt lat="37.0648" lon="-3.3714">
        <ele>3050.2</ele>
        <time>2021-08-05 15:31:40</time>
      </trkpt>
      <trkpt lat="37.0648" lon="-3.37139">
        <ele>3050.4</ele>
        <time>2021-08-05 15:31:41</time>
      </trkpt>
      <trkpt lat="37.0648" lon="-3.37137">
        <ele>3050.6</ele>
        <time>2021-08-05 15:31:42</time>
      </trkpt>
      <trkpt lat="37.0648" lon="-3.37137">
        <ele>3050.6</ele>
        <time>2021-08-05 15:31:43</time>
      </trkpt>
      <trkpt lat="37.0648" lon="-3.37136">
        <ele>3050.8</ele>
        <time>2021-08-05 15:31:44</time>
      </trkpt>
      <trkpt lat="37.0648" lon="-3.37135">
        <ele>3051</ele>
        <time>2021-08-05 15:31:45</time>
      </trkpt>
      <trkpt lat="37.0648" lon="-3.37135">
        <ele>3051</ele>
        <time>2021-08-05 15:31:46</time>
      </trkpt>
      <trkpt lat="37.0648" lon="-3.37134">
        <ele>3051.4</ele>
        <time>2021-08-05 15:31:47</time>
      </trkpt>
      <trkpt lat="37.0648" lon="-3.37134">
        <ele>3051.6</ele>
        <time>2021-08-05 15:31:48</time>
      </trkpt>
      <trkpt lat="37.06481" lon="-3.37132">
        <ele>3051.4</ele>
        <time>2021-08-05 15:31:49</time>
      </trkpt>
      <trkpt lat="37.06481" lon="-3.37132">
        <ele>3051.6</ele>
        <time>2021-08-05 15:31:50</time>
      </trkpt>
      <trkpt lat="37.06481" lon="-3.37131">
        <ele>3051.6</ele>
        <time>2021-08-05 15:31:51</time>
      </trkpt>
      <trkpt lat="37.06482" lon="-3.37129">
        <ele>3051.6</ele>
        <time>2021-08-05 15:31:52</time>
      </trkpt>
      <trkpt lat="37.06483" lon="-3.37128">
        <ele>3052</ele>
        <time>2021-08-05 15:31:53</time>
      </trkpt>
      <trkpt lat="37.06483" lon="-3.37127">
        <ele>3052.4</ele>
        <time>2021-08-05 15:31:54</time>
      </trkpt>
      <trkpt lat="37.06484" lon="-3.37126">
        <ele>3052.8</ele>
        <time>2021-08-05 15:31:55</time>
      </trkpt>
      <trkpt lat="37.06484" lon="-3.37125">
        <ele>3052.8</ele>
        <time>2021-08-05 15:31:56</time>
      </trkpt>
      <trkpt lat="37.06484" lon="-3.37125">
        <ele>3053</ele>
        <time>2021-08-05 15:31:57</time>
      </trkpt>
      <trkpt lat="37.06484" lon="-3.37124">
        <ele>3053</ele>
        <time>2021-08-05 15:31:58</time>
      </trkpt>
      <trkpt lat="37.06488" lon="-3.37122">
        <ele>3052.8</ele>
        <time>2021-08-05 15:31:59</time>
      </trkpt>
      <trkpt lat="37.06488" lon="-3.37122">
        <ele>3052.8</ele>
        <time>2021-08-05 15:32:00</time>
      </trkpt>
      <trkpt lat="37.06488" lon="-3.37121">
        <ele>3052.8</ele>
        <time>2021-08-05 15:32:01</time>
      </trkpt>
      <trkpt lat="37.06488" lon="-3.3712">
        <ele>3053</ele>
        <time>2021-08-05 15:32:02</time>
      </trkpt>
      <trkpt lat="37.0649" lon="-3.37118">
        <ele>3053.2</ele>
        <time>2021-08-05 15:32:03</time>
      </trkpt>
      <trkpt lat="37.0649" lon="-3.37117">
        <ele>3053.4</ele>
        <time>2021-08-05 15:32:04</time>
      </trkpt>
      <trkpt lat="37.06491" lon="-3.37117">
        <ele>3053.4</ele>
        <time>2021-08-05 15:32:05</time>
      </trkpt>
      <trkpt lat="37.06491" lon="-3.37116">
        <ele>3053.6</ele>
        <time>2021-08-05 15:32:06</time>
      </trkpt>
      <trkpt lat="37.06491" lon="-3.37115">
        <ele>3053.6</ele>
        <time>2021-08-05 15:32:07</time>
      </trkpt>
      <trkpt lat="37.06491" lon="-3.37115">
        <ele>3053.6</ele>
        <time>2021-08-05 15:32:08</time>
      </trkpt>
      <trkpt lat="37.0649" lon="-3.37115">
        <ele>3053.6</ele>
        <time>2021-08-05 15:32:09</time>
      </trkpt>
      <trkpt lat="37.0649" lon="-3.37114">
        <ele>3053.6</ele>
        <time>2021-08-05 15:32:10</time>
      </trkpt>
      <trkpt lat="37.0649" lon="-3.37114">
        <ele>3053.6</ele>
        <time>2021-08-05 15:32:11</time>
      </trkpt>
      <trkpt lat="37.0649" lon="-3.37113">
        <ele>3054</ele>
        <time>2021-08-05 15:32:12</time>
      </trkpt>
      <trkpt lat="37.06489" lon="-3.37112">
        <ele>3054.2</ele>
        <time>2021-08-05 15:32:13</time>
      </trkpt>
      <trkpt lat="37.06488" lon="-3.37112">
        <ele>3054.2</ele>
        <time>2021-08-05 15:32:14</time>
      </trkpt>
      <trkpt lat="37.06488" lon="-3.37112">
        <ele>3054.4</ele>
        <time>2021-08-05 15:32:15</time>
      </trkpt>
      <trkpt lat="37.06486" lon="-3.3711">
        <ele>3054.6</ele>
        <time>2021-08-05 15:32:16</time>
      </trkpt>
      <trkpt lat="37.06485" lon="-3.3711">
        <ele>3054.8</ele>
        <time>2021-08-05 15:32:17</time>
      </trkpt>
      <trkpt lat="37.06485" lon="-3.3711">
        <ele>3055</ele>
        <time>2021-08-05 15:32:18</time>
      </trkpt>
      <trkpt lat="37.06485" lon="-3.3711">
        <ele>3055.2</ele>
        <time>2021-08-05 15:32:19</time>
      </trkpt>
      <trkpt lat="37.06484" lon="-3.3711">
        <ele>3055.4</ele>
        <time>2021-08-05 15:32:20</time>
      </trkpt>
      <trkpt lat="37.06484" lon="-3.37109">
        <ele>3055.4</ele>
        <time>2021-08-05 15:32:21</time>
      </trkpt>
      <trkpt lat="37.06484" lon="-3.37109">
        <ele>3055.4</ele>
        <time>2021-08-05 15:32:22</time>
      </trkpt>
      <trkpt lat="37.06484" lon="-3.37108">
        <ele>3055.6</ele>
        <time>2021-08-05 15:32:23</time>
      </trkpt>
      <trkpt lat="37.06484" lon="-3.37107">
        <ele>3055.6</ele>
        <time>2021-08-05 15:32:24</time>
      </trkpt>
      <trkpt lat="37.06484" lon="-3.37106">
        <ele>3055.8</ele>
        <time>2021-08-05 15:32:25</time>
      </trkpt>
      <trkpt lat="37.06485" lon="-3.37105">
        <ele>3056</ele>
        <time>2021-08-05 15:32:26</time>
      </trkpt>
      <trkpt lat="37.06485" lon="-3.37104">
        <ele>3056.2</ele>
        <time>2021-08-05 15:32:27</time>
      </trkpt>
      <trkpt lat="37.06485" lon="-3.37103">
        <ele>3056.4</ele>
        <time>2021-08-05 15:32:28</time>
      </trkpt>
      <trkpt lat="37.06485" lon="-3.37103">
        <ele>3056.4</ele>
        <time>2021-08-05 15:32:29</time>
      </trkpt>
      <trkpt lat="37.06485" lon="-3.37102">
        <ele>3056.6</ele>
        <time>2021-08-05 15:32:30</time>
      </trkpt>
      <trkpt lat="37.06485" lon="-3.37101">
        <ele>3056.6</ele>
        <time>2021-08-05 15:32:31</time>
      </trkpt>
      <trkpt lat="37.06484" lon="-3.371">
        <ele>3056.8</ele>
        <time>2021-08-05 15:32:32</time>
      </trkpt>
      <trkpt lat="37.06485" lon="-3.37099">
        <ele>3056.8</ele>
        <time>2021-08-05 15:32:33</time>
      </trkpt>
      <trkpt lat="37.06485" lon="-3.37098">
        <ele>3056.8</ele>
        <time>2021-08-05 15:32:34</time>
      </trkpt>
      <trkpt lat="37.06485" lon="-3.37097">
        <ele>3057</ele>
        <time>2021-08-05 15:32:35</time>
      </trkpt>
      <trkpt lat="37.06485" lon="-3.37096">
        <ele>3057</ele>
        <time>2021-08-05 15:32:36</time>
      </trkpt>
      <trkpt lat="37.06484" lon="-3.37095">
        <ele>3057.2</ele>
        <time>2021-08-05 15:32:37</time>
      </trkpt>
      <trkpt lat="37.06484" lon="-3.37095">
        <ele>3057.4</ele>
        <time>2021-08-05 15:32:38</time>
      </trkpt>
      <trkpt lat="37.06484" lon="-3.37094">
        <ele>3057.4</ele>
        <time>2021-08-05 15:32:39</time>
      </trkpt>
      <trkpt lat="37.06484" lon="-3.37094">
        <ele>3057.4</ele>
        <time>2021-08-05 15:32:40</time>
      </trkpt>
      <trkpt lat="37.06483" lon="-3.37094">
        <ele>3057.6</ele>
        <time>2021-08-05 15:32:41</time>
      </trkpt>
      <trkpt lat="37.06483" lon="-3.37093">
        <ele>3057.6</ele>
        <time>2021-08-05 15:32:42</time>
      </trkpt>
      <trkpt lat="37.06482" lon="-3.37093">
        <ele>3057.6</ele>
        <time>2021-08-05 15:32:43</time>
      </trkpt>
      <trkpt lat="37.06482" lon="-3.37092">
        <ele>3057.6</ele>
        <time>2021-08-05 15:32:44</time>
      </trkpt>
      <trkpt lat="37.06482" lon="-3.37091">
        <ele>3057.8</ele>
        <time>2021-08-05 15:32:45</time>
      </trkpt>
      <trkpt lat="37.06482" lon="-3.37092">
        <ele>3058.2</ele>
        <time>2021-08-05 15:32:46</time>
      </trkpt>
      <trkpt lat="37.06481" lon="-3.37091">
        <ele>3058.4</ele>
        <time>2021-08-05 15:32:47</time>
      </trkpt>
      <trkpt lat="37.06481" lon="-3.3709">
        <ele>3058.4</ele>
        <time>2021-08-05 15:32:48</time>
      </trkpt>
      <trkpt lat="37.06481" lon="-3.3709">
        <ele>3058.6</ele>
        <time>2021-08-05 15:32:49</time>
      </trkpt>
      <trkpt lat="37.0648" lon="-3.3709">
        <ele>3058.6</ele>
        <time>2021-08-05 15:32:50</time>
      </trkpt>
      <trkpt lat="37.0648" lon="-3.37089">
        <ele>3058.6</ele>
        <time>2021-08-05 15:32:51</time>
      </trkpt>
      <trkpt lat="37.0648" lon="-3.37088">
        <ele>3058.6</ele>
        <time>2021-08-05 15:32:52</time>
      </trkpt>
      <trkpt lat="37.0648" lon="-3.37087">
        <ele>3058.4</ele>
        <time>2021-08-05 15:32:53</time>
      </trkpt>
      <trkpt lat="37.06479" lon="-3.37087">
        <ele>3058.4</ele>
        <time>2021-08-05 15:32:54</time>
      </trkpt>
      <trkpt lat="37.06478" lon="-3.37087">
        <ele>3058.4</ele>
        <time>2021-08-05 15:32:55</time>
      </trkpt>
      <trkpt lat="37.06477" lon="-3.37088">
        <ele>3058.4</ele>
        <time>2021-08-05 15:32:56</time>
      </trkpt>
      <trkpt lat="37.06477" lon="-3.37088">
        <ele>3058.4</ele>
        <time>2021-08-05 15:32:57</time>
      </trkpt>
      <trkpt lat="37.06476" lon="-3.37088">
        <ele>3058.4</ele>
        <time>2021-08-05 15:32:58</time>
      </trkpt>
      <trkpt lat="37.06476" lon="-3.37088">
        <ele>3058.8</ele>
        <time>2021-08-05 15:32:59</time>
      </trkpt>
      <trkpt lat="37.06475" lon="-3.37088">
        <ele>3059.2</ele>
        <time>2021-08-05 15:33:00</time>
      </trkpt>
      <trkpt lat="37.06475" lon="-3.37087">
        <ele>3059.4</ele>
        <time>2021-08-05 15:33:01</time>
      </trkpt>
      <trkpt lat="37.06475" lon="-3.37087">
        <ele>3059.6</ele>
        <time>2021-08-05 15:33:02</time>
      </trkpt>
      <trkpt lat="37.06475" lon="-3.37086">
        <ele>3059.6</ele>
        <time>2021-08-05 15:33:03</time>
      </trkpt>
      <trkpt lat="37.06475" lon="-3.37085">
        <ele>3059.6</ele>
        <time>2021-08-05 15:33:04</time>
      </trkpt>
      <trkpt lat="37.06475" lon="-3.37085">
        <ele>3059.6</ele>
        <time>2021-08-05 15:33:05</time>
      </trkpt>
      <trkpt lat="37.06474" lon="-3.37084">
        <ele>3059.8</ele>
        <time>2021-08-05 15:33:06</time>
      </trkpt>
      <trkpt lat="37.06474" lon="-3.37084">
        <ele>3060</ele>
        <time>2021-08-05 15:33:07</time>
      </trkpt>
      <trkpt lat="37.06474" lon="-3.37084">
        <ele>3060</ele>
        <time>2021-08-05 15:33:08</time>
      </trkpt>
      <trkpt lat="37.06475" lon="-3.37083">
        <ele>3060.4</ele>
        <time>2021-08-05 15:33:09</time>
      </trkpt>
      <trkpt lat="37.06475" lon="-3.37083">
        <ele>3060.4</ele>
        <time>2021-08-05 15:33:10</time>
      </trkpt>
      <trkpt lat="37.06474" lon="-3.37082">
        <ele>3060.6</ele>
        <time>2021-08-05 15:33:11</time>
      </trkpt>
      <trkpt lat="37.06474" lon="-3.37082">
        <ele>3060.6</ele>
        <time>2021-08-05 15:33:12</time>
      </trkpt>
      <trkpt lat="37.06474" lon="-3.37082">
        <ele>3060.6</ele>
        <time>2021-08-05 15:33:13</time>
      </trkpt>
      <trkpt lat="37.06474" lon="-3.37082">
        <ele>3060.6</ele>
        <time>2021-08-05 15:33:14</time>
      </trkpt>
      <trkpt lat="37.06474" lon="-3.37081">
        <ele>3060.6</ele>
        <time>2021-08-05 15:33:15</time>
      </trkpt>
      <trkpt lat="37.06473" lon="-3.37081">
        <ele>3060.6</ele>
        <time>2021-08-05 15:33:16</time>
      </trkpt>
      <trkpt lat="37.06472" lon="-3.37081">
        <ele>3060.8</ele>
        <time>2021-08-05 15:33:17</time>
      </trkpt>
      <trkpt lat="37.06471" lon="-3.37081">
        <ele>3061</ele>
        <time>2021-08-05 15:33:18</time>
      </trkpt>
      <trkpt lat="37.06471" lon="-3.37081">
        <ele>3061.2</ele>
        <time>2021-08-05 15:33:19</time>
      </trkpt>
      <trkpt lat="37.06471" lon="-3.37079">
        <ele>3061.2</ele>
        <time>2021-08-05 15:33:20</time>
      </trkpt>
      <trkpt lat="37.0647" lon="-3.37079">
        <ele>3061.4</ele>
        <time>2021-08-05 15:33:21</time>
      </trkpt>
      <trkpt lat="37.0647" lon="-3.37078">
        <ele>3061.6</ele>
        <time>2021-08-05 15:33:22</time>
      </trkpt>
      <trkpt lat="37.06469" lon="-3.37078">
        <ele>3061.8</ele>
        <time>2021-08-05 15:33:23</time>
      </trkpt>
      <trkpt lat="37.06468" lon="-3.37077">
        <ele>3061.8</ele>
        <time>2021-08-05 15:33:24</time>
      </trkpt>
      <trkpt lat="37.06468" lon="-3.37076">
        <ele>3061.8</ele>
        <time>2021-08-05 15:33:25</time>
      </trkpt>
      <trkpt lat="37.06469" lon="-3.37075">
        <ele>3062</ele>
        <time>2021-08-05 15:33:26</time>
      </trkpt>
      <trkpt lat="37.06468" lon="-3.37075">
        <ele>3062</ele>
        <time>2021-08-05 15:33:27</time>
      </trkpt>
      <trkpt lat="37.06468" lon="-3.37074">
        <ele>3062</ele>
        <time>2021-08-05 15:33:28</time>
      </trkpt>
      <trkpt lat="37.06468" lon="-3.37073">
        <ele>3062.2</ele>
        <time>2021-08-05 15:33:29</time>
      </trkpt>
      <trkpt lat="37.06468" lon="-3.37073">
        <ele>3062.2</ele>
        <time>2021-08-05 15:33:30</time>
      </trkpt>
      <trkpt lat="37.06468" lon="-3.37072">
        <ele>3062.2</ele>
        <time>2021-08-05 15:33:31</time>
      </trkpt>
      <trkpt lat="37.06468" lon="-3.37072">
        <ele>3062.4</ele>
        <time>2021-08-05 15:33:32</time>
      </trkpt>
      <trkpt lat="37.06469" lon="-3.37071">
        <ele>3062.6</ele>
        <time>2021-08-05 15:33:33</time>
      </trkpt>
      <trkpt lat="37.06469" lon="-3.37071">
        <ele>3062.8</ele>
        <time>2021-08-05 15:33:34</time>
      </trkpt>
      <trkpt lat="37.0647" lon="-3.3707">
        <ele>3062.8</ele>
        <time>2021-08-05 15:33:35</time>
      </trkpt>
      <trkpt lat="37.06471" lon="-3.37069">
        <ele>3063.2</ele>
        <time>2021-08-05 15:33:36</time>
      </trkpt>
      <trkpt lat="37.06471" lon="-3.37068">
        <ele>3063.2</ele>
        <time>2021-08-05 15:33:37</time>
      </trkpt>
      <trkpt lat="37.06471" lon="-3.37067">
        <ele>3063.4</ele>
        <time>2021-08-05 15:33:38</time>
      </trkpt>
      <trkpt lat="37.06471" lon="-3.37067">
        <ele>3063.6</ele>
        <time>2021-08-05 15:33:39</time>
      </trkpt>
      <trkpt lat="37.0647" lon="-3.37067">
        <ele>3063.6</ele>
        <time>2021-08-05 15:33:40</time>
      </trkpt>
      <trkpt lat="37.06469" lon="-3.37067">
        <ele>3063.6</ele>
        <time>2021-08-05 15:33:41</time>
      </trkpt>
      <trkpt lat="37.06469" lon="-3.37067">
        <ele>3063.6</ele>
        <time>2021-08-05 15:33:42</time>
      </trkpt>
      <trkpt lat="37.06469" lon="-3.37066">
        <ele>3063.6</ele>
        <time>2021-08-05 15:33:43</time>
      </trkpt>
      <trkpt lat="37.0647" lon="-3.37064">
        <ele>3063.8</ele>
        <time>2021-08-05 15:33:44</time>
      </trkpt>
      <trkpt lat="37.06471" lon="-3.37062">
        <ele>3063.8</ele>
        <time>2021-08-05 15:33:45</time>
      </trkpt>
      <trkpt lat="37.06471" lon="-3.37062">
        <ele>3064</ele>
        <time>2021-08-05 15:33:46</time>
      </trkpt>
      <trkpt lat="37.06471" lon="-3.37062">
        <ele>3064</ele>
        <time>2021-08-05 15:33:47</time>
      </trkpt>
      <trkpt lat="37.0647" lon="-3.37061">
        <ele>3064.2</ele>
        <time>2021-08-05 15:33:48</time>
      </trkpt>
      <trkpt lat="37.06469" lon="-3.37063">
        <ele>3064.4</ele>
        <time>2021-08-05 15:33:49</time>
      </trkpt>
      <trkpt lat="37.06468" lon="-3.37063">
        <ele>3064.6</ele>
        <time>2021-08-05 15:33:50</time>
      </trkpt>
      <trkpt lat="37.06468" lon="-3.37063">
        <ele>3064.6</ele>
        <time>2021-08-05 15:33:51</time>
      </trkpt>
      <trkpt lat="37.06467" lon="-3.37063">
        <ele>3064.6</ele>
        <time>2021-08-05 15:33:52</time>
      </trkpt>
      <trkpt lat="37.06467" lon="-3.37063">
        <ele>3064.6</ele>
        <time>2021-08-05 15:33:53</time>
      </trkpt>
      <trkpt lat="37.06466" lon="-3.37063">
        <ele>3064.8</ele>
        <time>2021-08-05 15:33:54</time>
      </trkpt>
      <trkpt lat="37.06466" lon="-3.37063">
        <ele>3065</ele>
        <time>2021-08-05 15:33:55</time>
      </trkpt>
      <trkpt lat="37.06465" lon="-3.37063">
        <ele>3065</ele>
        <time>2021-08-05 15:33:56</time>
      </trkpt>
      <trkpt lat="37.06464" lon="-3.37064">
        <ele>3065</ele>
        <time>2021-08-05 15:33:57</time>
      </trkpt>
      <trkpt lat="37.06463" lon="-3.37064">
        <ele>3065.2</ele>
        <time>2021-08-05 15:33:58</time>
      </trkpt>
      <trkpt lat="37.06462" lon="-3.37065">
        <ele>3065.4</ele>
        <time>2021-08-05 15:33:59</time>
      </trkpt>
      <trkpt lat="37.06461" lon="-3.37066">
        <ele>3065.6</ele>
        <time>2021-08-05 15:34:00</time>
      </trkpt>
      <trkpt lat="37.0646" lon="-3.37066">
        <ele>3065.8</ele>
        <time>2021-08-05 15:34:01</time>
      </trkpt>
      <trkpt lat="37.06459" lon="-3.37065">
        <ele>3066</ele>
        <time>2021-08-05 15:34:02</time>
      </trkpt>
      <trkpt lat="37.06459" lon="-3.37066">
        <ele>3066</ele>
        <time>2021-08-05 15:34:03</time>
      </trkpt>
      <trkpt lat="37.06458" lon="-3.37066">
        <ele>3066</ele>
        <time>2021-08-05 15:34:04</time>
      </trkpt>
      <trkpt lat="37.06458" lon="-3.37066">
        <ele>3066</ele>
        <time>2021-08-05 15:34:05</time>
      </trkpt>
      <trkpt lat="37.06458" lon="-3.37065">
        <ele>3066</ele>
        <time>2021-08-05 15:34:06</time>
      </trkpt>
      <trkpt lat="37.06458" lon="-3.37064">
        <ele>3066</ele>
        <time>2021-08-05 15:34:07</time>
      </trkpt>
      <trkpt lat="37.06457" lon="-3.37064">
        <ele>3066</ele>
        <time>2021-08-05 15:34:08</time>
      </trkpt>
      <trkpt lat="37.06456" lon="-3.37065">
        <ele>3066</ele>
        <time>2021-08-05 15:34:09</time>
      </trkpt>
      <trkpt lat="37.06456" lon="-3.37064">
        <ele>3066.2</ele>
        <time>2021-08-05 15:34:10</time>
      </trkpt>
      <trkpt lat="37.06456" lon="-3.37064">
        <ele>3066.4</ele>
        <time>2021-08-05 15:34:11</time>
      </trkpt>
      <trkpt lat="37.06456" lon="-3.37064">
        <ele>3066.6</ele>
        <time>2021-08-05 15:34:12</time>
      </trkpt>
      <trkpt lat="37.06456" lon="-3.37063">
        <ele>3066.8</ele>
        <time>2021-08-05 15:34:13</time>
      </trkpt>
      <trkpt lat="37.06456" lon="-3.37062">
        <ele>3066.8</ele>
        <time>2021-08-05 15:34:14</time>
      </trkpt>
      <trkpt lat="37.06455" lon="-3.37062">
        <ele>3067</ele>
        <time>2021-08-05 15:34:15</time>
      </trkpt>
      <trkpt lat="37.06455" lon="-3.37061">
        <ele>3067.2</ele>
        <time>2021-08-05 15:34:16</time>
      </trkpt>
      <trkpt lat="37.06454" lon="-3.37061">
        <ele>3067.4</ele>
        <time>2021-08-05 15:34:17</time>
      </trkpt>
      <trkpt lat="37.06454" lon="-3.3706">
        <ele>3067.6</ele>
        <time>2021-08-05 15:34:18</time>
      </trkpt>
      <trkpt lat="37.06453" lon="-3.37059">
        <ele>3067.6</ele>
        <time>2021-08-05 15:34:19</time>
      </trkpt>
      <trkpt lat="37.06453" lon="-3.37059">
        <ele>3067.8</ele>
        <time>2021-08-05 15:34:20</time>
      </trkpt>
      <trkpt lat="37.06452" lon="-3.37059">
        <ele>3067.8</ele>
        <time>2021-08-05 15:34:21</time>
      </trkpt>
      <trkpt lat="37.06453" lon="-3.37059">
        <ele>3068</ele>
        <time>2021-08-05 15:34:22</time>
      </trkpt>
      <trkpt lat="37.06453" lon="-3.37059">
        <ele>3068.2</ele>
        <time>2021-08-05 15:34:23</time>
      </trkpt>
      <trkpt lat="37.06453" lon="-3.37058">
        <ele>3068.2</ele>
        <time>2021-08-05 15:34:24</time>
      </trkpt>
      <trkpt lat="37.06453" lon="-3.37058">
        <ele>3068.4</ele>
        <time>2021-08-05 15:34:25</time>
      </trkpt>
      <trkpt lat="37.06457" lon="-3.37057">
        <ele>3068.6</ele>
        <time>2021-08-05 15:34:26</time>
      </trkpt>
      <trkpt lat="37.06457" lon="-3.37056">
        <ele>3068.8</ele>
        <time>2021-08-05 15:34:27</time>
      </trkpt>
      <trkpt lat="37.06455" lon="-3.37057">
        <ele>3068.8</ele>
        <time>2021-08-05 15:34:28</time>
      </trkpt>
      <trkpt lat="37.06455" lon="-3.37056">
        <ele>3069.2</ele>
        <time>2021-08-05 15:34:29</time>
      </trkpt>
      <trkpt lat="37.06455" lon="-3.37056">
        <ele>3069.4</ele>
        <time>2021-08-05 15:34:30</time>
      </trkpt>
      <trkpt lat="37.06455" lon="-3.37055">
        <ele>3069.4</ele>
        <time>2021-08-05 15:34:31</time>
      </trkpt>
      <trkpt lat="37.06454" lon="-3.37055">
        <ele>3069.4</ele>
        <time>2021-08-05 15:34:32</time>
      </trkpt>
      <trkpt lat="37.06454" lon="-3.37055">
        <ele>3069.6</ele>
        <time>2021-08-05 15:34:33</time>
      </trkpt>
      <trkpt lat="37.06453" lon="-3.37055">
        <ele>3069.6</ele>
        <time>2021-08-05 15:34:34</time>
      </trkpt>
      <trkpt lat="37.06453" lon="-3.37056">
        <ele>3069.6</ele>
        <time>2021-08-05 15:34:35</time>
      </trkpt>
      <trkpt lat="37.06453" lon="-3.37057">
        <ele>3069.6</ele>
        <time>2021-08-05 15:34:36</time>
      </trkpt>
      <trkpt lat="37.06452" lon="-3.37057">
        <ele>3069.6</ele>
        <time>2021-08-05 15:34:37</time>
      </trkpt>
      <trkpt lat="37.0645" lon="-3.37055">
        <ele>3069.8</ele>
        <time>2021-08-05 15:34:38</time>
      </trkpt>
      <trkpt lat="37.06449" lon="-3.37055">
        <ele>3070</ele>
        <time>2021-08-05 15:34:39</time>
      </trkpt>
      <trkpt lat="37.06448" lon="-3.37054">
        <ele>3070.2</ele>
        <time>2021-08-05 15:34:40</time>
      </trkpt>
      <trkpt lat="37.06447" lon="-3.37054">
        <ele>3070.4</ele>
        <time>2021-08-05 15:34:41</time>
      </trkpt>
      <trkpt lat="37.06446" lon="-3.37053">
        <ele>3070.4</ele>
        <time>2021-08-05 15:34:42</time>
      </trkpt>
      <trkpt lat="37.06445" lon="-3.37054">
        <ele>3070.4</ele>
        <time>2021-08-05 15:34:43</time>
      </trkpt>
      <trkpt lat="37.06444" lon="-3.37055">
        <ele>3070.4</ele>
        <time>2021-08-05 15:34:44</time>
      </trkpt>
      <trkpt lat="37.06443" lon="-3.37055">
        <ele>3070.4</ele>
        <time>2021-08-05 15:34:45</time>
      </trkpt>
      <trkpt lat="37.06443" lon="-3.37055">
        <ele>3070.4</ele>
        <time>2021-08-05 15:34:46</time>
      </trkpt>
      <trkpt lat="37.06441" lon="-3.37056">
        <ele>3070.6</ele>
        <time>2021-08-05 15:34:47</time>
      </trkpt>
      <trkpt lat="37.06441" lon="-3.37056">
        <ele>3070.8</ele>
        <time>2021-08-05 15:34:48</time>
      </trkpt>
      <trkpt lat="37.0644" lon="-3.37056">
        <ele>3070.8</ele>
        <time>2021-08-05 15:34:49</time>
      </trkpt>
      <trkpt lat="37.06439" lon="-3.37057">
        <ele>3071</ele>
        <time>2021-08-05 15:34:50</time>
      </trkpt>
      <trkpt lat="37.06439" lon="-3.37057">
        <ele>3071</ele>
        <time>2021-08-05 15:34:51</time>
      </trkpt>
      <trkpt lat="37.06438" lon="-3.37057">
        <ele>3071.2</ele>
        <time>2021-08-05 15:34:52</time>
      </trkpt>
      <trkpt lat="37.06437" lon="-3.37058">
        <ele>3071.2</ele>
        <time>2021-08-05 15:34:53</time>
      </trkpt>
      <trkpt lat="37.06436" lon="-3.37057">
        <ele>3071.4</ele>
        <time>2021-08-05 15:34:54</time>
      </trkpt>
      <trkpt lat="37.06436" lon="-3.37057">
        <ele>3071.8</ele>
        <time>2021-08-05 15:34:55</time>
      </trkpt>
      <trkpt lat="37.06435" lon="-3.37056">
        <ele>3071.8</ele>
        <time>2021-08-05 15:34:56</time>
      </trkpt>
      <trkpt lat="37.06435" lon="-3.37056">
        <ele>3072</ele>
        <time>2021-08-05 15:34:57</time>
      </trkpt>
      <trkpt lat="37.06435" lon="-3.37056">
        <ele>3072</ele>
        <time>2021-08-05 15:34:58</time>
      </trkpt>
      <trkpt lat="37.06434" lon="-3.37056">
        <ele>3072</ele>
        <time>2021-08-05 15:34:59</time>
      </trkpt>
      <trkpt lat="37.06434" lon="-3.37056">
        <ele>3072</ele>
        <time>2021-08-05 15:35:00</time>
      </trkpt>
      <trkpt lat="37.06433" lon="-3.37056">
        <ele>3072</ele>
        <time>2021-08-05 15:35:01</time>
      </trkpt>
      <trkpt lat="37.06433" lon="-3.37056">
        <ele>3072.2</ele>
        <time>2021-08-05 15:35:02</time>
      </trkpt>
      <trkpt lat="37.06432" lon="-3.37056">
        <ele>3072.4</ele>
        <time>2021-08-05 15:35:03</time>
      </trkpt>
      <trkpt lat="37.06432" lon="-3.37056">
        <ele>3072.4</ele>
        <time>2021-08-05 15:35:04</time>
      </trkpt>
      <trkpt lat="37.06432" lon="-3.37056">
        <ele>3072.4</ele>
        <time>2021-08-05 15:35:05</time>
      </trkpt>
      <trkpt lat="37.06431" lon="-3.37056">
        <ele>3072.4</ele>
        <time>2021-08-05 15:35:06</time>
      </trkpt>
      <trkpt lat="37.0643" lon="-3.37056">
        <ele>3072.4</ele>
        <time>2021-08-05 15:35:07</time>
      </trkpt>
      <trkpt lat="37.0643" lon="-3.37056">
        <ele>3072.4</ele>
        <time>2021-08-05 15:35:08</time>
      </trkpt>
      <trkpt lat="37.06429" lon="-3.37055">
        <ele>3072.4</ele>
        <time>2021-08-05 15:35:09</time>
      </trkpt>
      <trkpt lat="37.06428" lon="-3.37055">
        <ele>3072.4</ele>
        <time>2021-08-05 15:35:10</time>
      </trkpt>
      <trkpt lat="37.06427" lon="-3.37055">
        <ele>3072.4</ele>
        <time>2021-08-05 15:35:11</time>
      </trkpt>
      <trkpt lat="37.06426" lon="-3.37054">
        <ele>3072.8</ele>
        <time>2021-08-05 15:35:12</time>
      </trkpt>
      <trkpt lat="37.06426" lon="-3.37053">
        <ele>3072.8</ele>
        <time>2021-08-05 15:35:13</time>
      </trkpt>
      <trkpt lat="37.06425" lon="-3.37052">
        <ele>3073</ele>
        <time>2021-08-05 15:35:14</time>
      </trkpt>
      <trkpt lat="37.06425" lon="-3.37052">
        <ele>3073.2</ele>
        <time>2021-08-05 15:35:15</time>
      </trkpt>
      <trkpt lat="37.06424" lon="-3.37052">
        <ele>3073.4</ele>
        <time>2021-08-05 15:35:16</time>
      </trkpt>
      <trkpt lat="37.06423" lon="-3.37052">
        <ele>3073.4</ele>
        <time>2021-08-05 15:35:17</time>
      </trkpt>
      <trkpt lat="37.06423" lon="-3.37052">
        <ele>3073.4</ele>
        <time>2021-08-05 15:35:18</time>
      </trkpt>
      <trkpt lat="37.06422" lon="-3.37052">
        <ele>3073.4</ele>
        <time>2021-08-05 15:35:19</time>
      </trkpt>
      <trkpt lat="37.06422" lon="-3.37052">
        <ele>3073.4</ele>
        <time>2021-08-05 15:35:20</time>
      </trkpt>
      <trkpt lat="37.06422" lon="-3.37052">
        <ele>3073.4</ele>
        <time>2021-08-05 15:35:21</time>
      </trkpt>
      <trkpt lat="37.06421" lon="-3.37052">
        <ele>3073.6</ele>
        <time>2021-08-05 15:35:22</time>
      </trkpt>
      <trkpt lat="37.06421" lon="-3.37052">
        <ele>3073.6</ele>
        <time>2021-08-05 15:35:23</time>
      </trkpt>
      <trkpt lat="37.0642" lon="-3.37052">
        <ele>3073.6</ele>
        <time>2021-08-05 15:35:24</time>
      </trkpt>
      <trkpt lat="37.0642" lon="-3.37052">
        <ele>3073.8</ele>
        <time>2021-08-05 15:35:25</time>
      </trkpt>
      <trkpt lat="37.0642" lon="-3.37051">
        <ele>3073.8</ele>
        <time>2021-08-05 15:35:26</time>
      </trkpt>
      <trkpt lat="37.0642" lon="-3.37051">
        <ele>3073.6</ele>
        <time>2021-08-05 15:35:27</time>
      </trkpt>
      <trkpt lat="37.06419" lon="-3.37051">
        <ele>3073.6</ele>
        <time>2021-08-05 15:35:28</time>
      </trkpt>
      <trkpt lat="37.06419" lon="-3.3705">
        <ele>3073.4</ele>
        <time>2021-08-05 15:35:29</time>
      </trkpt>
      <trkpt lat="37.06419" lon="-3.3705">
        <ele>3073.4</ele>
        <time>2021-08-05 15:35:30</time>
      </trkpt>
      <trkpt lat="37.06419" lon="-3.3705">
        <ele>3073.4</ele>
        <time>2021-08-05 15:35:31</time>
      </trkpt>
      <trkpt lat="37.06418" lon="-3.3705">
        <ele>3073.4</ele>
        <time>2021-08-05 15:35:32</time>
      </trkpt>
      <trkpt lat="37.06418" lon="-3.3705">
        <ele>3073.4</ele>
        <time>2021-08-05 15:35:33</time>
      </trkpt>
      <trkpt lat="37.06417" lon="-3.3705">
        <ele>3073.4</ele>
        <time>2021-08-05 15:35:34</time>
      </trkpt>
      <trkpt lat="37.06417" lon="-3.37049">
        <ele>3073.4</ele>
        <time>2021-08-05 15:35:35</time>
      </trkpt>
      <trkpt lat="37.06417" lon="-3.37049">
        <ele>3073.4</ele>
        <time>2021-08-05 15:35:36</time>
      </trkpt>
      <trkpt lat="37.06416" lon="-3.37048">
        <ele>3073.6</ele>
        <time>2021-08-05 15:35:37</time>
      </trkpt>
      <trkpt lat="37.06416" lon="-3.37048">
        <ele>3073.4</ele>
        <time>2021-08-05 15:35:38</time>
      </trkpt>
      <trkpt lat="37.06416" lon="-3.37047">
        <ele>3073.6</ele>
        <time>2021-08-05 15:35:39</time>
      </trkpt>
      <trkpt lat="37.06416" lon="-3.37046">
        <ele>3073.6</ele>
        <time>2021-08-05 15:35:40</time>
      </trkpt>
      <trkpt lat="37.06416" lon="-3.37046">
        <ele>3073.4</ele>
        <time>2021-08-05 15:35:41</time>
      </trkpt>
      <trkpt lat="37.06414" lon="-3.37047">
        <ele>3073.4</ele>
        <time>2021-08-05 15:35:42</time>
      </trkpt>
      <trkpt lat="37.06412" lon="-3.37048">
        <ele>3073.4</ele>
        <time>2021-08-05 15:35:43</time>
      </trkpt>
      <trkpt lat="37.06411" lon="-3.37049">
        <ele>3073.4</ele>
        <time>2021-08-05 15:35:44</time>
      </trkpt>
      <trkpt lat="37.06411" lon="-3.37049">
        <ele>3073.4</ele>
        <time>2021-08-05 15:35:45</time>
      </trkpt>
      <trkpt lat="37.0641" lon="-3.37049">
        <ele>3073.4</ele>
        <time>2021-08-05 15:35:46</time>
      </trkpt>
      <trkpt lat="37.06409" lon="-3.37048">
        <ele>3073.8</ele>
        <time>2021-08-05 15:35:47</time>
      </trkpt>
      <trkpt lat="37.06409" lon="-3.37048">
        <ele>3074</ele>
        <time>2021-08-05 15:35:48</time>
      </trkpt>
      <trkpt lat="37.06409" lon="-3.37048">
        <ele>3074.2</ele>
        <time>2021-08-05 15:35:49</time>
      </trkpt>
      <trkpt lat="37.06408" lon="-3.37048">
        <ele>3074.4</ele>
        <time>2021-08-05 15:35:50</time>
      </trkpt>
      <trkpt lat="37.06407" lon="-3.37046">
        <ele>3074.6</ele>
        <time>2021-08-05 15:35:51</time>
      </trkpt>
      <trkpt lat="37.06406" lon="-3.37046">
        <ele>3074.8</ele>
        <time>2021-08-05 15:35:52</time>
      </trkpt>
      <trkpt lat="37.06406" lon="-3.37044">
        <ele>3074.8</ele>
        <time>2021-08-05 15:35:53</time>
      </trkpt>
      <trkpt lat="37.06405" lon="-3.37044">
        <ele>3075</ele>
        <time>2021-08-05 15:35:54</time>
      </trkpt>
      <trkpt lat="37.06405" lon="-3.37044">
        <ele>3075.2</ele>
        <time>2021-08-05 15:35:55</time>
      </trkpt>
      <trkpt lat="37.06404" lon="-3.37044">
        <ele>3075.2</ele>
        <time>2021-08-05 15:35:56</time>
      </trkpt>
      <trkpt lat="37.06404" lon="-3.37044">
        <ele>3075.4</ele>
        <time>2021-08-05 15:35:57</time>
      </trkpt>
      <trkpt lat="37.06404" lon="-3.37043">
        <ele>3075.6</ele>
        <time>2021-08-05 15:35:58</time>
      </trkpt>
      <trkpt lat="37.06403" lon="-3.37043">
        <ele>3075.8</ele>
        <time>2021-08-05 15:35:59</time>
      </trkpt>
      <trkpt lat="37.06403" lon="-3.37042">
        <ele>3075.8</ele>
        <time>2021-08-05 15:36:00</time>
      </trkpt>
      <trkpt lat="37.06403" lon="-3.37041">
        <ele>3076</ele>
        <time>2021-08-05 15:36:01</time>
      </trkpt>
      <trkpt lat="37.06402" lon="-3.37041">
        <ele>3076</ele>
        <time>2021-08-05 15:36:02</time>
      </trkpt>
      <trkpt lat="37.06403" lon="-3.3704">
        <ele>3076</ele>
        <time>2021-08-05 15:36:03</time>
      </trkpt>
      <trkpt lat="37.06403" lon="-3.3704">
        <ele>3076</ele>
        <time>2021-08-05 15:36:04</time>
      </trkpt>
      <trkpt lat="37.06402" lon="-3.37039">
        <ele>3076</ele>
        <time>2021-08-05 15:36:05</time>
      </trkpt>
      <trkpt lat="37.06402" lon="-3.37039">
        <ele>3076</ele>
        <time>2021-08-05 15:36:06</time>
      </trkpt>
      <trkpt lat="37.06401" lon="-3.3704">
        <ele>3076</ele>
        <time>2021-08-05 15:36:07</time>
      </trkpt>
      <trkpt lat="37.06401" lon="-3.3704">
        <ele>3076.2</ele>
        <time>2021-08-05 15:36:08</time>
      </trkpt>
      <trkpt lat="37.06401" lon="-3.3704">
        <ele>3076.4</ele>
        <time>2021-08-05 15:36:09</time>
      </trkpt>
      <trkpt lat="37.06401" lon="-3.3704">
        <ele>3076.6</ele>
        <time>2021-08-05 15:36:10</time>
      </trkpt>
      <trkpt lat="37.06401" lon="-3.37039">
        <ele>3076.6</ele>
        <time>2021-08-05 15:36:11</time>
      </trkpt>
      <trkpt lat="37.06402" lon="-3.37039">
        <ele>3076.6</ele>
        <time>2021-08-05 15:36:12</time>
      </trkpt>
      <trkpt lat="37.06402" lon="-3.3704">
        <ele>3076.6</ele>
        <time>2021-08-05 15:36:13</time>
      </trkpt>
      <trkpt lat="37.06402" lon="-3.37039">
        <ele>3076.6</ele>
        <time>2021-08-05 15:36:14</time>
      </trkpt>
      <trkpt lat="37.06402" lon="-3.37039">
        <ele>3076.6</ele>
        <time>2021-08-05 15:36:15</time>
      </trkpt>
      <trkpt lat="37.06402" lon="-3.37039">
        <ele>3076.6</ele>
        <time>2021-08-05 15:36:16</time>
      </trkpt>
      <trkpt lat="37.06402" lon="-3.37039">
        <ele>3076.4</ele>
        <time>2021-08-05 15:36:17</time>
      </trkpt>
      <trkpt lat="37.06401" lon="-3.37039">
        <ele>3076.6</ele>
        <time>2021-08-05 15:36:18</time>
      </trkpt>
      <trkpt lat="37.06401" lon="-3.37039">
        <ele>3076.8</ele>
        <time>2021-08-05 15:36:19</time>
      </trkpt>
      <trkpt lat="37.06401" lon="-3.37038">
        <ele>3076.8</ele>
        <time>2021-08-05 15:36:20</time>
      </trkpt>
      <trkpt lat="37.06401" lon="-3.37037">
        <ele>3076.8</ele>
        <time>2021-08-05 15:36:21</time>
      </trkpt>
      <trkpt lat="37.06401" lon="-3.37037">
        <ele>3076.8</ele>
        <time>2021-08-05 15:36:22</time>
      </trkpt>
      <trkpt lat="37.06401" lon="-3.37036">
        <ele>3076.8</ele>
        <time>2021-08-05 15:36:23</time>
      </trkpt>
      <trkpt lat="37.064" lon="-3.37036">
        <ele>3076.8</ele>
        <time>2021-08-05 15:36:24</time>
      </trkpt>
      <trkpt lat="37.064" lon="-3.37035">
        <ele>3076.8</ele>
        <time>2021-08-05 15:36:25</time>
      </trkpt>
      <trkpt lat="37.064" lon="-3.37034">
        <ele>3077</ele>
        <time>2021-08-05 15:36:26</time>
      </trkpt>
      <trkpt lat="37.064" lon="-3.37033">
        <ele>3077.2</ele>
        <time>2021-08-05 15:36:27</time>
      </trkpt>
      <trkpt lat="37.064" lon="-3.37033">
        <ele>3077.4</ele>
        <time>2021-08-05 15:36:28</time>
      </trkpt>
      <trkpt lat="37.06398" lon="-3.37033">
        <ele>3077.6</ele>
        <time>2021-08-05 15:36:29</time>
      </trkpt>
      <trkpt lat="37.06397" lon="-3.37034">
        <ele>3077.8</ele>
        <time>2021-08-05 15:36:30</time>
      </trkpt>
      <trkpt lat="37.06396" lon="-3.37034">
        <ele>3078</ele>
        <time>2021-08-05 15:36:31</time>
      </trkpt>
      <trkpt lat="37.06396" lon="-3.37034">
        <ele>3078</ele>
        <time>2021-08-05 15:36:32</time>
      </trkpt>
      <trkpt lat="37.06395" lon="-3.37034">
        <ele>3078.2</ele>
        <time>2021-08-05 15:36:33</time>
      </trkpt>
      <trkpt lat="37.06394" lon="-3.37034">
        <ele>3078.4</ele>
        <time>2021-08-05 15:36:34</time>
      </trkpt>
      <trkpt lat="37.06393" lon="-3.37034">
        <ele>3078.8</ele>
        <time>2021-08-05 15:36:35</time>
      </trkpt>
      <trkpt lat="37.06392" lon="-3.37034">
        <ele>3078.8</ele>
        <time>2021-08-05 15:36:36</time>
      </trkpt>
      <trkpt lat="37.06391" lon="-3.37034">
        <ele>3079.2</ele>
        <time>2021-08-05 15:36:37</time>
      </trkpt>
      <trkpt lat="37.0639" lon="-3.37034">
        <ele>3079.2</ele>
        <time>2021-08-05 15:36:38</time>
      </trkpt>
      <trkpt lat="37.06389" lon="-3.37034">
        <ele>3079.4</ele>
        <time>2021-08-05 15:36:39</time>
      </trkpt>
      <trkpt lat="37.06389" lon="-3.37034">
        <ele>3079.4</ele>
        <time>2021-08-05 15:36:40</time>
      </trkpt>
      <trkpt lat="37.06388" lon="-3.37035">
        <ele>3079.4</ele>
        <time>2021-08-05 15:36:41</time>
      </trkpt>
      <trkpt lat="37.06387" lon="-3.37035">
        <ele>3079.4</ele>
        <time>2021-08-05 15:36:42</time>
      </trkpt>
      <trkpt lat="37.06387" lon="-3.37035">
        <ele>3079.8</ele>
        <time>2021-08-05 15:36:43</time>
      </trkpt>
      <trkpt lat="37.06386" lon="-3.37034">
        <ele>3079.8</ele>
        <time>2021-08-05 15:36:44</time>
      </trkpt>
      <trkpt lat="37.06385" lon="-3.37034">
        <ele>3080</ele>
        <time>2021-08-05 15:36:45</time>
      </trkpt>
      <trkpt lat="37.06385" lon="-3.37034">
        <ele>3080</ele>
        <time>2021-08-05 15:36:46</time>
      </trkpt>
      <trkpt lat="37.06384" lon="-3.37033">
        <ele>3080.2</ele>
        <time>2021-08-05 15:36:47</time>
      </trkpt>
      <trkpt lat="37.06383" lon="-3.37033">
        <ele>3080.4</ele>
        <time>2021-08-05 15:36:48</time>
      </trkpt>
      <trkpt lat="37.06383" lon="-3.37033">
        <ele>3080.6</ele>
        <time>2021-08-05 15:36:49</time>
      </trkpt>
      <trkpt lat="37.06383" lon="-3.37032">
        <ele>3080.6</ele>
        <time>2021-08-05 15:36:50</time>
      </trkpt>
      <trkpt lat="37.06383" lon="-3.37032">
        <ele>3080.8</ele>
        <time>2021-08-05 15:36:51</time>
      </trkpt>
      <trkpt lat="37.06383" lon="-3.37031">
        <ele>3080.8</ele>
        <time>2021-08-05 15:36:52</time>
      </trkpt>
      <trkpt lat="37.06384" lon="-3.3703">
        <ele>3080.8</ele>
        <time>2021-08-05 15:36:53</time>
      </trkpt>
      <trkpt lat="37.06383" lon="-3.3703">
        <ele>3080.8</ele>
        <time>2021-08-05 15:36:54</time>
      </trkpt>
      <trkpt lat="37.06383" lon="-3.3703">
        <ele>3081</ele>
        <time>2021-08-05 15:36:55</time>
      </trkpt>
      <trkpt lat="37.06382" lon="-3.37029">
        <ele>3081</ele>
        <time>2021-08-05 15:36:56</time>
      </trkpt>
      <trkpt lat="37.06382" lon="-3.37029">
        <ele>3081.4</ele>
        <time>2021-08-05 15:36:57</time>
      </trkpt>
      <trkpt lat="37.06382" lon="-3.37029">
        <ele>3081.6</ele>
        <time>2021-08-05 15:36:58</time>
      </trkpt>
      <trkpt lat="37.06381" lon="-3.37029">
        <ele>3081.8</ele>
        <time>2021-08-05 15:36:59</time>
      </trkpt>
      <trkpt lat="37.0638" lon="-3.3703">
        <ele>3081.8</ele>
        <time>2021-08-05 15:37:00</time>
      </trkpt>
      <trkpt lat="37.0638" lon="-3.3703">
        <ele>3081.6</ele>
        <time>2021-08-05 15:37:01</time>
      </trkpt>
      <trkpt lat="37.06379" lon="-3.3703">
        <ele>3081.8</ele>
        <time>2021-08-05 15:37:02</time>
      </trkpt>
      <trkpt lat="37.06379" lon="-3.3703">
        <ele>3082</ele>
        <time>2021-08-05 15:37:03</time>
      </trkpt>
      <trkpt lat="37.06378" lon="-3.3703">
        <ele>3081.8</ele>
        <time>2021-08-05 15:37:04</time>
      </trkpt>
      <trkpt lat="37.06378" lon="-3.3703">
        <ele>3082</ele>
        <time>2021-08-05 15:37:05</time>
      </trkpt>
      <trkpt lat="37.06378" lon="-3.37029">
        <ele>3082</ele>
        <time>2021-08-05 15:37:06</time>
      </trkpt>
      <trkpt lat="37.06378" lon="-3.37029">
        <ele>3082.2</ele>
        <time>2021-08-05 15:37:07</time>
      </trkpt>
      <trkpt lat="37.06378" lon="-3.37029">
        <ele>3082.4</ele>
        <time>2021-08-05 15:37:08</time>
      </trkpt>
      <trkpt lat="37.06378" lon="-3.37028">
        <ele>3082.4</ele>
        <time>2021-08-05 15:37:09</time>
      </trkpt>
      <trkpt lat="37.06379" lon="-3.37028">
        <ele>3082.6</ele>
        <time>2021-08-05 15:37:10</time>
      </trkpt>
      <trkpt lat="37.06379" lon="-3.37027">
        <ele>3082.6</ele>
        <time>2021-08-05 15:37:11</time>
      </trkpt>
      <trkpt lat="37.06379" lon="-3.37027">
        <ele>3082.6</ele>
        <time>2021-08-05 15:37:12</time>
      </trkpt>
      <trkpt lat="37.0638" lon="-3.37026">
        <ele>3082.8</ele>
        <time>2021-08-05 15:37:13</time>
      </trkpt>
      <trkpt lat="37.0638" lon="-3.37025">
        <ele>3083.2</ele>
        <time>2021-08-05 15:37:14</time>
      </trkpt>
      <trkpt lat="37.0638" lon="-3.37025">
        <ele>3083.6</ele>
        <time>2021-08-05 15:37:15</time>
      </trkpt>
      <trkpt lat="37.0638" lon="-3.37024">
        <ele>3084</ele>
        <time>2021-08-05 15:37:16</time>
      </trkpt>
      <trkpt lat="37.06379" lon="-3.37024">
        <ele>3084.2</ele>
        <time>2021-08-05 15:37:17</time>
      </trkpt>
      <trkpt lat="37.06379" lon="-3.37023">
        <ele>3084.4</ele>
        <time>2021-08-05 15:37:18</time>
      </trkpt>
      <trkpt lat="37.06378" lon="-3.37023">
        <ele>3084.6</ele>
        <time>2021-08-05 15:37:19</time>
      </trkpt>
      <trkpt lat="37.06378" lon="-3.37023">
        <ele>3084.8</ele>
        <time>2021-08-05 15:37:20</time>
      </trkpt>
      <trkpt lat="37.06378" lon="-3.37023">
        <ele>3085</ele>
        <time>2021-08-05 15:37:21</time>
      </trkpt>
      <trkpt lat="37.06378" lon="-3.37023">
        <ele>3085</ele>
        <time>2021-08-05 15:37:22</time>
      </trkpt>
      <trkpt lat="37.06378" lon="-3.37023">
        <ele>3085.2</ele>
        <time>2021-08-05 15:37:23</time>
      </trkpt>
      <trkpt lat="37.06377" lon="-3.37023">
        <ele>3085.4</ele>
        <time>2021-08-05 15:37:24</time>
      </trkpt>
      <trkpt lat="37.06373" lon="-3.37023">
        <ele>3085.6</ele>
        <time>2021-08-05 15:37:25</time>
      </trkpt>
      <trkpt lat="37.06372" lon="-3.37024">
        <ele>3086</ele>
        <time>2021-08-05 15:37:26</time>
      </trkpt>
      <trkpt lat="37.06372" lon="-3.37024">
        <ele>3086</ele>
        <time>2021-08-05 15:37:27</time>
      </trkpt>
      <trkpt lat="37.06372" lon="-3.37024">
        <ele>3086</ele>
        <time>2021-08-05 15:37:28</time>
      </trkpt>
      <trkpt lat="37.06373" lon="-3.37024">
        <ele>3086.2</ele>
        <time>2021-08-05 15:37:29</time>
      </trkpt>
      <trkpt lat="37.06373" lon="-3.37024">
        <ele>3086.6</ele>
        <time>2021-08-05 15:37:30</time>
      </trkpt>
      <trkpt lat="37.06374" lon="-3.37023">
        <ele>3086.6</ele>
        <time>2021-08-05 15:37:31</time>
      </trkpt>
      <trkpt lat="37.06374" lon="-3.37023">
        <ele>3086.6</ele>
        <time>2021-08-05 15:37:32</time>
      </trkpt>
      <trkpt lat="37.06374" lon="-3.37023">
        <ele>3086.6</ele>
        <time>2021-08-05 15:37:33</time>
      </trkpt>
      <trkpt lat="37.06375" lon="-3.37023">
        <ele>3086.8</ele>
        <time>2021-08-05 15:37:34</time>
      </trkpt>
      <trkpt lat="37.06375" lon="-3.37022">
        <ele>3086.8</ele>
        <time>2021-08-05 15:37:35</time>
      </trkpt>
      <trkpt lat="37.06375" lon="-3.37022">
        <ele>3086.8</ele>
        <time>2021-08-05 15:37:36</time>
      </trkpt>
      <trkpt lat="37.06376" lon="-3.37022">
        <ele>3086.8</ele>
        <time>2021-08-05 15:37:37</time>
      </trkpt>
      <trkpt lat="37.06377" lon="-3.3702">
        <ele>3086.8</ele>
        <time>2021-08-05 15:37:38</time>
      </trkpt>
      <trkpt lat="37.06377" lon="-3.3702">
        <ele>3086.8</ele>
        <time>2021-08-05 15:37:39</time>
      </trkpt>
      <trkpt lat="37.06377" lon="-3.37019">
        <ele>3086.8</ele>
        <time>2021-08-05 15:37:40</time>
      </trkpt>
      <trkpt lat="37.06378" lon="-3.37018">
        <ele>3086.8</ele>
        <time>2021-08-05 15:37:41</time>
      </trkpt>
      <trkpt lat="37.06378" lon="-3.37017">
        <ele>3086.6</ele>
        <time>2021-08-05 15:37:42</time>
      </trkpt>
      <trkpt lat="37.06379" lon="-3.37017">
        <ele>3086.6</ele>
        <time>2021-08-05 15:37:43</time>
      </trkpt>
      <trkpt lat="37.06379" lon="-3.37017">
        <ele>3086.6</ele>
        <time>2021-08-05 15:37:44</time>
      </trkpt>
      <trkpt lat="37.06378" lon="-3.37017">
        <ele>3086.6</ele>
        <time>2021-08-05 15:37:45</time>
      </trkpt>
      <trkpt lat="37.06377" lon="-3.37018">
        <ele>3086.6</ele>
        <time>2021-08-05 15:37:46</time>
      </trkpt>
      <trkpt lat="37.06377" lon="-3.37018">
        <ele>3086.6</ele>
        <time>2021-08-05 15:37:47</time>
      </trkpt>
      <trkpt lat="37.06376" lon="-3.37019">
        <ele>3086.8</ele>
        <time>2021-08-05 15:37:48</time>
      </trkpt>
      <trkpt lat="37.06374" lon="-3.37021">
        <ele>3086.8</ele>
        <time>2021-08-05 15:37:49</time>
      </trkpt>
      <trkpt lat="37.06373" lon="-3.37023">
        <ele>3087</ele>
        <time>2021-08-05 15:37:50</time>
      </trkpt>
      <trkpt lat="37.06371" lon="-3.37023">
        <ele>3087.2</ele>
        <time>2021-08-05 15:37:51</time>
      </trkpt>
      <trkpt lat="37.0637" lon="-3.37024">
        <ele>3087.4</ele>
        <time>2021-08-05 15:37:52</time>
      </trkpt>
      <trkpt lat="37.06369" lon="-3.37025">
        <ele>3087.4</ele>
        <time>2021-08-05 15:37:53</time>
      </trkpt>
      <trkpt lat="37.06368" lon="-3.37026">
        <ele>3087.4</ele>
        <time>2021-08-05 15:37:54</time>
      </trkpt>
      <trkpt lat="37.06367" lon="-3.37026">
        <ele>3087.4</ele>
        <time>2021-08-05 15:37:55</time>
      </trkpt>
      <trkpt lat="37.06365" lon="-3.37025">
        <ele>3087.4</ele>
        <time>2021-08-05 15:37:56</time>
      </trkpt>
      <trkpt lat="37.06364" lon="-3.37026">
        <ele>3087.6</ele>
        <time>2021-08-05 15:37:57</time>
      </trkpt>
      <trkpt lat="37.06364" lon="-3.37026">
        <ele>3087.6</ele>
        <time>2021-08-05 15:37:58</time>
      </trkpt>
      <trkpt lat="37.06363" lon="-3.37027">
        <ele>3087.6</ele>
        <time>2021-08-05 15:37:59</time>
      </trkpt>
      <trkpt lat="37.06362" lon="-3.37028">
        <ele>3087.8</ele>
        <time>2021-08-05 15:38:00</time>
      </trkpt>
      <trkpt lat="37.06362" lon="-3.37029">
        <ele>3087.8</ele>
        <time>2021-08-05 15:38:01</time>
      </trkpt>
      <trkpt lat="37.06361" lon="-3.3703">
        <ele>3088</ele>
        <time>2021-08-05 15:38:02</time>
      </trkpt>
      <trkpt lat="37.0636" lon="-3.3703">
        <ele>3088</ele>
        <time>2021-08-05 15:38:03</time>
      </trkpt>
      <trkpt lat="37.06359" lon="-3.37032">
        <ele>3088.2</ele>
        <time>2021-08-05 15:38:04</time>
      </trkpt>
      <trkpt lat="37.06358" lon="-3.37032">
        <ele>3088.2</ele>
        <time>2021-08-05 15:38:05</time>
      </trkpt>
      <trkpt lat="37.06357" lon="-3.37033">
        <ele>3088.2</ele>
        <time>2021-08-05 15:38:06</time>
      </trkpt>
      <trkpt lat="37.06356" lon="-3.37034">
        <ele>3088</ele>
        <time>2021-08-05 15:38:07</time>
      </trkpt>
      <trkpt lat="37.06355" lon="-3.37034">
        <ele>3087.8</ele>
        <time>2021-08-05 15:38:08</time>
      </trkpt>
      <trkpt lat="37.06354" lon="-3.37033">
        <ele>3087.8</ele>
        <time>2021-08-05 15:38:09</time>
      </trkpt>
      <trkpt lat="37.06353" lon="-3.37034">
        <ele>3087.8</ele>
        <time>2021-08-05 15:38:10</time>
      </trkpt>
      <trkpt lat="37.06352" lon="-3.37034">
        <ele>3087.8</ele>
        <time>2021-08-05 15:38:11</time>
      </trkpt>
      <trkpt lat="37.06351" lon="-3.37034">
        <ele>3087.8</ele>
        <time>2021-08-05 15:38:12</time>
      </trkpt>
      <trkpt lat="37.0635" lon="-3.37034">
        <ele>3087.8</ele>
        <time>2021-08-05 15:38:13</time>
      </trkpt>
      <trkpt lat="37.0635" lon="-3.37034">
        <ele>3087.8</ele>
        <time>2021-08-05 15:38:14</time>
      </trkpt>
      <trkpt lat="37.0635" lon="-3.37033">
        <ele>3088</ele>
        <time>2021-08-05 15:38:15</time>
      </trkpt>
      <trkpt lat="37.0635" lon="-3.37033">
        <ele>3088.2</ele>
        <time>2021-08-05 15:38:16</time>
      </trkpt>
      <trkpt lat="37.0635" lon="-3.37033">
        <ele>3088.2</ele>
        <time>2021-08-05 15:38:17</time>
      </trkpt>
      <trkpt lat="37.06349" lon="-3.37033">
        <ele>3088.4</ele>
        <time>2021-08-05 15:38:18</time>
      </trkpt>
      <trkpt lat="37.06349" lon="-3.37033">
        <ele>3088.4</ele>
        <time>2021-08-05 15:38:19</time>
      </trkpt>
      <trkpt lat="37.06348" lon="-3.37034">
        <ele>3088.4</ele>
        <time>2021-08-05 15:38:20</time>
      </trkpt>
      <trkpt lat="37.06347" lon="-3.37034">
        <ele>3088.4</ele>
        <time>2021-08-05 15:38:21</time>
      </trkpt>
      <trkpt lat="37.06347" lon="-3.37034">
        <ele>3088.4</ele>
        <time>2021-08-05 15:38:22</time>
      </trkpt>
      <trkpt lat="37.06346" lon="-3.37034">
        <ele>3088.4</ele>
        <time>2021-08-05 15:38:23</time>
      </trkpt>
      <trkpt lat="37.06345" lon="-3.37034">
        <ele>3088.4</ele>
        <time>2021-08-05 15:38:24</time>
      </trkpt>
      <trkpt lat="37.06345" lon="-3.37033">
        <ele>3088.4</ele>
        <time>2021-08-05 15:38:25</time>
      </trkpt>
      <trkpt lat="37.06344" lon="-3.37032">
        <ele>3088.4</ele>
        <time>2021-08-05 15:38:26</time>
      </trkpt>
      <trkpt lat="37.06344" lon="-3.37032">
        <ele>3088.6</ele>
        <time>2021-08-05 15:38:27</time>
      </trkpt>
      <trkpt lat="37.06343" lon="-3.37031">
        <ele>3088.6</ele>
        <time>2021-08-05 15:38:28</time>
      </trkpt>
      <trkpt lat="37.06342" lon="-3.37031">
        <ele>3088.8</ele>
        <time>2021-08-05 15:38:29</time>
      </trkpt>
      <trkpt lat="37.06341" lon="-3.37031">
        <ele>3089.2</ele>
        <time>2021-08-05 15:38:30</time>
      </trkpt>
      <trkpt lat="37.0634" lon="-3.37031">
        <ele>3089.6</ele>
        <time>2021-08-05 15:38:31</time>
      </trkpt>
      <trkpt lat="37.06339" lon="-3.37031">
        <ele>3089.8</ele>
        <time>2021-08-05 15:38:32</time>
      </trkpt>
      <trkpt lat="37.06338" lon="-3.37031">
        <ele>3089.8</ele>
        <time>2021-08-05 15:38:33</time>
      </trkpt>
      <trkpt lat="37.06338" lon="-3.37031">
        <ele>3089.8</ele>
        <time>2021-08-05 15:38:34</time>
      </trkpt>
      <trkpt lat="37.06337" lon="-3.37031">
        <ele>3090</ele>
        <time>2021-08-05 15:38:35</time>
      </trkpt>
      <trkpt lat="37.06336" lon="-3.37031">
        <ele>3090</ele>
        <time>2021-08-05 15:38:36</time>
      </trkpt>
      <trkpt lat="37.06336" lon="-3.37031">
        <ele>3090</ele>
        <time>2021-08-05 15:38:37</time>
      </trkpt>
      <trkpt lat="37.06336" lon="-3.37031">
        <ele>3090</ele>
        <time>2021-08-05 15:38:38</time>
      </trkpt>
      <trkpt lat="37.06335" lon="-3.37031">
        <ele>3090.2</ele>
        <time>2021-08-05 15:38:39</time>
      </trkpt>
      <trkpt lat="37.06335" lon="-3.3703">
        <ele>3090.2</ele>
        <time>2021-08-05 15:38:40</time>
      </trkpt>
      <trkpt lat="37.06334" lon="-3.37029">
        <ele>3090.2</ele>
        <time>2021-08-05 15:38:41</time>
      </trkpt>
      <trkpt lat="37.06333" lon="-3.37029">
        <ele>3090.2</ele>
        <time>2021-08-05 15:38:42</time>
      </trkpt>
      <trkpt lat="37.06332" lon="-3.37028">
        <ele>3090.2</ele>
        <time>2021-08-05 15:38:43</time>
      </trkpt>
      <trkpt lat="37.06331" lon="-3.37027">
        <ele>3090.2</ele>
        <time>2021-08-05 15:38:44</time>
      </trkpt>
      <trkpt lat="37.0633" lon="-3.37027">
        <ele>3090.2</ele>
        <time>2021-08-05 15:38:45</time>
      </trkpt>
      <trkpt lat="37.0633" lon="-3.37026">
        <ele>3090</ele>
        <time>2021-08-05 15:38:46</time>
      </trkpt>
      <trkpt lat="37.0633" lon="-3.37025">
        <ele>3090</ele>
        <time>2021-08-05 15:38:47</time>
      </trkpt>
      <trkpt lat="37.0633" lon="-3.37026">
        <ele>3090</ele>
        <time>2021-08-05 15:38:48</time>
      </trkpt>
      <trkpt lat="37.06331" lon="-3.37025">
        <ele>3090.2</ele>
        <time>2021-08-05 15:38:49</time>
      </trkpt>
      <trkpt lat="37.06331" lon="-3.37026">
        <ele>3090.2</ele>
        <time>2021-08-05 15:38:50</time>
      </trkpt>
      <trkpt lat="37.06332" lon="-3.37026">
        <ele>3090.4</ele>
        <time>2021-08-05 15:38:51</time>
      </trkpt>
      <trkpt lat="37.06332" lon="-3.37026">
        <ele>3090.6</ele>
        <time>2021-08-05 15:38:52</time>
      </trkpt>
      <trkpt lat="37.06332" lon="-3.37025">
        <ele>3090.8</ele>
        <time>2021-08-05 15:38:53</time>
      </trkpt>
      <trkpt lat="37.06332" lon="-3.37025">
        <ele>3090.8</ele>
        <time>2021-08-05 15:38:54</time>
      </trkpt>
      <trkpt lat="37.06332" lon="-3.37025">
        <ele>3090.8</ele>
        <time>2021-08-05 15:38:55</time>
      </trkpt>
      <trkpt lat="37.06332" lon="-3.37024">
        <ele>3090.8</ele>
        <time>2021-08-05 15:38:56</time>
      </trkpt>
      <trkpt lat="37.06332" lon="-3.37023">
        <ele>3090.8</ele>
        <time>2021-08-05 15:38:57</time>
      </trkpt>
      <trkpt lat="37.06332" lon="-3.37023">
        <ele>3090.8</ele>
        <time>2021-08-05 15:38:58</time>
      </trkpt>
      <trkpt lat="37.06332" lon="-3.37022">
        <ele>3090.8</ele>
        <time>2021-08-05 15:38:59</time>
      </trkpt>
      <trkpt lat="37.06331" lon="-3.37022">
        <ele>3090.8</ele>
        <time>2021-08-05 15:39:00</time>
      </trkpt>
      <trkpt lat="37.06331" lon="-3.37022">
        <ele>3090.8</ele>
        <time>2021-08-05 15:39:01</time>
      </trkpt>
      <trkpt lat="37.06331" lon="-3.37021">
        <ele>3090.8</ele>
        <time>2021-08-05 15:39:02</time>
      </trkpt>
      <trkpt lat="37.06331" lon="-3.37021">
        <ele>3090.6</ele>
        <time>2021-08-05 15:39:03</time>
      </trkpt>
      <trkpt lat="37.06332" lon="-3.37021">
        <ele>3090.6</ele>
        <time>2021-08-05 15:39:04</time>
      </trkpt>
      <trkpt lat="37.06331" lon="-3.37022">
        <ele>3090.6</ele>
        <time>2021-08-05 15:39:05</time>
      </trkpt>
      <trkpt lat="37.06329" lon="-3.37022">
        <ele>3090.8</ele>
        <time>2021-08-05 15:39:06</time>
      </trkpt>
      <trkpt lat="37.06328" lon="-3.37023">
        <ele>3090.8</ele>
        <time>2021-08-05 15:39:07</time>
      </trkpt>
      <trkpt lat="37.06326" lon="-3.37023">
        <ele>3090.8</ele>
        <time>2021-08-05 15:39:08</time>
      </trkpt>
      <trkpt lat="37.06326" lon="-3.37023">
        <ele>3091</ele>
        <time>2021-08-05 15:39:09</time>
      </trkpt>
      <trkpt lat="37.06325" lon="-3.37022">
        <ele>3091</ele>
        <time>2021-08-05 15:39:10</time>
      </trkpt>
      <trkpt lat="37.06324" lon="-3.37023">
        <ele>3091</ele>
        <time>2021-08-05 15:39:11</time>
      </trkpt>
      <trkpt lat="37.06324" lon="-3.37023">
        <ele>3091</ele>
        <time>2021-08-05 15:39:12</time>
      </trkpt>
      <trkpt lat="37.06324" lon="-3.37024">
        <ele>3091</ele>
        <time>2021-08-05 15:39:13</time>
      </trkpt>
      <trkpt lat="37.06323" lon="-3.37024">
        <ele>3091</ele>
        <time>2021-08-05 15:39:14</time>
      </trkpt>
      <trkpt lat="37.06323" lon="-3.37024">
        <ele>3091</ele>
        <time>2021-08-05 15:39:15</time>
      </trkpt>
      <trkpt lat="37.06324" lon="-3.37024">
        <ele>3091</ele>
        <time>2021-08-05 15:39:16</time>
      </trkpt>
      <trkpt lat="37.06325" lon="-3.37024">
        <ele>3091</ele>
        <time>2021-08-05 15:39:17</time>
      </trkpt>
      <trkpt lat="37.06323" lon="-3.37024">
        <ele>3091</ele>
        <time>2021-08-05 15:39:18</time>
      </trkpt>
      <trkpt lat="37.06321" lon="-3.37025">
        <ele>3091</ele>
        <time>2021-08-05 15:39:19</time>
      </trkpt>
      <trkpt lat="37.0632" lon="-3.37025">
        <ele>3091</ele>
        <time>2021-08-05 15:39:20</time>
      </trkpt>
      <trkpt lat="37.0632" lon="-3.37024">
        <ele>3091</ele>
        <time>2021-08-05 15:39:21</time>
      </trkpt>
      <trkpt lat="37.06319" lon="-3.37021">
        <ele>3091</ele>
        <time>2021-08-05 15:39:22</time>
      </trkpt>
      <trkpt lat="37.06318" lon="-3.37021">
        <ele>3091</ele>
        <time>2021-08-05 15:39:23</time>
      </trkpt>
      <trkpt lat="37.06318" lon="-3.37022">
        <ele>3091.2</ele>
        <time>2021-08-05 15:39:24</time>
      </trkpt>
      <trkpt lat="37.06317" lon="-3.37022">
        <ele>3091.4</ele>
        <time>2021-08-05 15:39:25</time>
      </trkpt>
      <trkpt lat="37.06316" lon="-3.37022">
        <ele>3091.4</ele>
        <time>2021-08-05 15:39:26</time>
      </trkpt>
      <trkpt lat="37.06316" lon="-3.37022">
        <ele>3091.6</ele>
        <time>2021-08-05 15:39:27</time>
      </trkpt>
      <trkpt lat="37.06315" lon="-3.37021">
        <ele>3091.6</ele>
        <time>2021-08-05 15:39:28</time>
      </trkpt>
      <trkpt lat="37.06315" lon="-3.37021">
        <ele>3091.8</ele>
        <time>2021-08-05 15:39:29</time>
      </trkpt>
      <trkpt lat="37.06314" lon="-3.37021">
        <ele>3091.8</ele>
        <time>2021-08-05 15:39:30</time>
      </trkpt>
      <trkpt lat="37.06314" lon="-3.37021">
        <ele>3091.8</ele>
        <time>2021-08-05 15:39:31</time>
      </trkpt>
      <trkpt lat="37.06314" lon="-3.37021">
        <ele>3092</ele>
        <time>2021-08-05 15:39:32</time>
      </trkpt>
      <trkpt lat="37.06313" lon="-3.3702">
        <ele>3092</ele>
        <time>2021-08-05 15:39:33</time>
      </trkpt>
      <trkpt lat="37.06312" lon="-3.3702">
        <ele>3092</ele>
        <time>2021-08-05 15:39:34</time>
      </trkpt>
      <trkpt lat="37.06312" lon="-3.3702">
        <ele>3092</ele>
        <time>2021-08-05 15:39:35</time>
      </trkpt>
      <trkpt lat="37.06312" lon="-3.3702">
        <ele>3092</ele>
        <time>2021-08-05 15:39:36</time>
      </trkpt>
      <trkpt lat="37.06312" lon="-3.37019">
        <ele>3092</ele>
        <time>2021-08-05 15:39:37</time>
      </trkpt>
      <trkpt lat="37.06312" lon="-3.37019">
        <ele>3092</ele>
        <time>2021-08-05 15:39:38</time>
      </trkpt>
      <trkpt lat="37.06312" lon="-3.37017">
        <ele>3092</ele>
        <time>2021-08-05 15:39:39</time>
      </trkpt>
      <trkpt lat="37.06311" lon="-3.37016">
        <ele>3092</ele>
        <time>2021-08-05 15:39:40</time>
      </trkpt>
      <trkpt lat="37.0631" lon="-3.37016">
        <ele>3091.8</ele>
        <time>2021-08-05 15:39:41</time>
      </trkpt>
      <trkpt lat="37.06309" lon="-3.37015">
        <ele>3091.8</ele>
        <time>2021-08-05 15:39:42</time>
      </trkpt>
      <trkpt lat="37.06308" lon="-3.37015">
        <ele>3091.8</ele>
        <time>2021-08-05 15:39:43</time>
      </trkpt>
      <trkpt lat="37.06307" lon="-3.37015">
        <ele>3091.8</ele>
        <time>2021-08-05 15:39:44</time>
      </trkpt>
      <trkpt lat="37.06306" lon="-3.37015">
        <ele>3091.8</ele>
        <time>2021-08-05 15:39:45</time>
      </trkpt>
      <trkpt lat="37.06306" lon="-3.37015">
        <ele>3091.8</ele>
        <time>2021-08-05 15:39:46</time>
      </trkpt>
      <trkpt lat="37.06306" lon="-3.37015">
        <ele>3091.6</ele>
        <time>2021-08-05 15:39:47</time>
      </trkpt>
      <trkpt lat="37.06305" lon="-3.37015">
        <ele>3091.6</ele>
        <time>2021-08-05 15:39:48</time>
      </trkpt>
      <trkpt lat="37.06305" lon="-3.37015">
        <ele>3091.6</ele>
        <time>2021-08-05 15:39:49</time>
      </trkpt>
      <trkpt lat="37.06304" lon="-3.37015">
        <ele>3091.6</ele>
        <time>2021-08-05 15:39:50</time>
      </trkpt>
      <trkpt lat="37.06304" lon="-3.37015">
        <ele>3091.6</ele>
        <time>2021-08-05 15:39:51</time>
      </trkpt>
      <trkpt lat="37.06304" lon="-3.37015">
        <ele>3091.8</ele>
        <time>2021-08-05 15:39:52</time>
      </trkpt>
      <trkpt lat="37.06304" lon="-3.37015">
        <ele>3092</ele>
        <time>2021-08-05 15:39:53</time>
      </trkpt>
      <trkpt lat="37.06303" lon="-3.37015">
        <ele>3092.4</ele>
        <time>2021-08-05 15:39:54</time>
      </trkpt>
      <trkpt lat="37.06303" lon="-3.37015">
        <ele>3092.6</ele>
        <time>2021-08-05 15:39:55</time>
      </trkpt>
      <trkpt lat="37.06303" lon="-3.37015">
        <ele>3092.8</ele>
        <time>2021-08-05 15:39:56</time>
      </trkpt>
      <trkpt lat="37.06301" lon="-3.37016">
        <ele>3093</ele>
        <time>2021-08-05 15:39:57</time>
      </trkpt>
      <trkpt lat="37.06301" lon="-3.37016">
        <ele>3093</ele>
        <time>2021-08-05 15:39:58</time>
      </trkpt>
      <trkpt lat="37.063" lon="-3.37016">
        <ele>3093</ele>
        <time>2021-08-05 15:39:59</time>
      </trkpt>
      <trkpt lat="37.063" lon="-3.37016">
        <ele>3093</ele>
        <time>2021-08-05 15:40:00</time>
      </trkpt>
      <trkpt lat="37.063" lon="-3.37016">
        <ele>3093</ele>
        <time>2021-08-05 15:40:01</time>
      </trkpt>
      <trkpt lat="37.06301" lon="-3.37016">
        <ele>3092.8</ele>
        <time>2021-08-05 15:40:02</time>
      </trkpt>
      <trkpt lat="37.06302" lon="-3.37017">
        <ele>3092.6</ele>
        <time>2021-08-05 15:40:03</time>
      </trkpt>
      <trkpt lat="37.06301" lon="-3.37016">
        <ele>3092.4</ele>
        <time>2021-08-05 15:40:04</time>
      </trkpt>
      <trkpt lat="37.06301" lon="-3.37016">
        <ele>3092.4</ele>
        <time>2021-08-05 15:40:05</time>
      </trkpt>
      <trkpt lat="37.06301" lon="-3.37016">
        <ele>3092.4</ele>
        <time>2021-08-05 15:40:06</time>
      </trkpt>
      <trkpt lat="37.06301" lon="-3.37016">
        <ele>3092.4</ele>
        <time>2021-08-05 15:40:07</time>
      </trkpt>
      <trkpt lat="37.06301" lon="-3.37016">
        <ele>3092.2</ele>
        <time>2021-08-05 15:40:08</time>
      </trkpt>
      <trkpt lat="37.06301" lon="-3.37016">
        <ele>3092.2</ele>
        <time>2021-08-05 15:40:09</time>
      </trkpt>
      <trkpt lat="37.06301" lon="-3.37017">
        <ele>3092.4</ele>
        <time>2021-08-05 15:40:10</time>
      </trkpt>
      <trkpt lat="37.06301" lon="-3.37017">
        <ele>3092.4</ele>
        <time>2021-08-05 15:40:11</time>
      </trkpt>
      <trkpt lat="37.06301" lon="-3.37017">
        <ele>3092.6</ele>
        <time>2021-08-05 15:40:12</time>
      </trkpt>
      <trkpt lat="37.06301" lon="-3.37017">
        <ele>3092.6</ele>
        <time>2021-08-05 15:40:13</time>
      </trkpt>
      <trkpt lat="37.063" lon="-3.37017">
        <ele>3092.8</ele>
        <time>2021-08-05 15:40:14</time>
      </trkpt>
      <trkpt lat="37.063" lon="-3.37017">
        <ele>3092.8</ele>
        <time>2021-08-05 15:40:15</time>
      </trkpt>
      <trkpt lat="37.063" lon="-3.37017">
        <ele>3092.8</ele>
        <time>2021-08-05 15:40:16</time>
      </trkpt>
      <trkpt lat="37.06299" lon="-3.37016">
        <ele>3093</ele>
        <time>2021-08-05 15:40:17</time>
      </trkpt>
      <trkpt lat="37.06298" lon="-3.37016">
        <ele>3093</ele>
        <time>2021-08-05 15:40:18</time>
      </trkpt>
      <trkpt lat="37.06297" lon="-3.37015">
        <ele>3093.2</ele>
        <time>2021-08-05 15:40:19</time>
      </trkpt>
      <trkpt lat="37.06296" lon="-3.37015">
        <ele>3093.4</ele>
        <time>2021-08-05 15:40:20</time>
      </trkpt>
      <trkpt lat="37.06295" lon="-3.37015">
        <ele>3093.6</ele>
        <time>2021-08-05 15:40:21</time>
      </trkpt>
      <trkpt lat="37.06295" lon="-3.37014">
        <ele>3093.6</ele>
        <time>2021-08-05 15:40:22</time>
      </trkpt>
      <trkpt lat="37.06294" lon="-3.37014">
        <ele>3093.8</ele>
        <time>2021-08-05 15:40:23</time>
      </trkpt>
      <trkpt lat="37.06293" lon="-3.37014">
        <ele>3094.2</ele>
        <time>2021-08-05 15:40:24</time>
      </trkpt>
      <trkpt lat="37.06292" lon="-3.37014">
        <ele>3094.2</ele>
        <time>2021-08-05 15:40:25</time>
      </trkpt>
      <trkpt lat="37.06292" lon="-3.37015">
        <ele>3094.2</ele>
        <time>2021-08-05 15:40:26</time>
      </trkpt>
      <trkpt lat="37.06291" lon="-3.37015">
        <ele>3094.2</ele>
        <time>2021-08-05 15:40:27</time>
      </trkpt>
      <trkpt lat="37.06289" lon="-3.37014">
        <ele>3094.2</ele>
        <time>2021-08-05 15:40:28</time>
      </trkpt>
      <trkpt lat="37.06288" lon="-3.37014">
        <ele>3094.4</ele>
        <time>2021-08-05 15:40:29</time>
      </trkpt>
      <trkpt lat="37.06287" lon="-3.37013">
        <ele>3094.4</ele>
        <time>2021-08-05 15:40:30</time>
      </trkpt>
      <trkpt lat="37.06286" lon="-3.37014">
        <ele>3094.2</ele>
        <time>2021-08-05 15:40:31</time>
      </trkpt>
      <trkpt lat="37.06284" lon="-3.37014">
        <ele>3094.4</ele>
        <time>2021-08-05 15:40:32</time>
      </trkpt>
      <trkpt lat="37.06284" lon="-3.37015">
        <ele>3094.4</ele>
        <time>2021-08-05 15:40:33</time>
      </trkpt>
      <trkpt lat="37.06283" lon="-3.37015">
        <ele>3094.4</ele>
        <time>2021-08-05 15:40:34</time>
      </trkpt>
      <trkpt lat="37.06282" lon="-3.37015">
        <ele>3094.6</ele>
        <time>2021-08-05 15:40:35</time>
      </trkpt>
      <trkpt lat="37.06281" lon="-3.37015">
        <ele>3094.8</ele>
        <time>2021-08-05 15:40:36</time>
      </trkpt>
      <trkpt lat="37.0628" lon="-3.37015">
        <ele>3094.8</ele>
        <time>2021-08-05 15:40:37</time>
      </trkpt>
      <trkpt lat="37.06279" lon="-3.37016">
        <ele>3094.8</ele>
        <time>2021-08-05 15:40:38</time>
      </trkpt>
      <trkpt lat="37.06278" lon="-3.37016">
        <ele>3094.8</ele>
        <time>2021-08-05 15:40:39</time>
      </trkpt>
      <trkpt lat="37.06277" lon="-3.37016">
        <ele>3094.8</ele>
        <time>2021-08-05 15:40:40</time>
      </trkpt>
      <trkpt lat="37.06277" lon="-3.37016">
        <ele>3094.8</ele>
        <time>2021-08-05 15:40:41</time>
      </trkpt>
      <trkpt lat="37.06276" lon="-3.37016">
        <ele>3094.8</ele>
        <time>2021-08-05 15:40:42</time>
      </trkpt>
      <trkpt lat="37.06275" lon="-3.37015">
        <ele>3094.8</ele>
        <time>2021-08-05 15:40:43</time>
      </trkpt>
      <trkpt lat="37.06274" lon="-3.37016">
        <ele>3094.8</ele>
        <time>2021-08-05 15:40:44</time>
      </trkpt>
      <trkpt lat="37.06273" lon="-3.37015">
        <ele>3094.8</ele>
        <time>2021-08-05 15:40:45</time>
      </trkpt>
      <trkpt lat="37.06273" lon="-3.37015">
        <ele>3094.8</ele>
        <time>2021-08-05 15:40:46</time>
      </trkpt>
      <trkpt lat="37.06272" lon="-3.37015">
        <ele>3094.8</ele>
        <time>2021-08-05 15:40:47</time>
      </trkpt>
      <trkpt lat="37.06272" lon="-3.37015">
        <ele>3094.8</ele>
        <time>2021-08-05 15:40:48</time>
      </trkpt>
      <trkpt lat="37.06271" lon="-3.37016">
        <ele>3094.8</ele>
        <time>2021-08-05 15:40:49</time>
      </trkpt>
      <trkpt lat="37.06271" lon="-3.37016">
        <ele>3094.8</ele>
        <time>2021-08-05 15:40:50</time>
      </trkpt>
      <trkpt lat="37.0627" lon="-3.37016">
        <ele>3094.8</ele>
        <time>2021-08-05 15:40:51</time>
      </trkpt>
      <trkpt lat="37.0627" lon="-3.37016">
        <ele>3094.8</ele>
        <time>2021-08-05 15:40:52</time>
      </trkpt>
      <trkpt lat="37.06269" lon="-3.37016">
        <ele>3095</ele>
        <time>2021-08-05 15:40:53</time>
      </trkpt>
      <trkpt lat="37.06269" lon="-3.37016">
        <ele>3095</ele>
        <time>2021-08-05 15:40:54</time>
      </trkpt>
      <trkpt lat="37.06269" lon="-3.37016">
        <ele>3095</ele>
        <time>2021-08-05 15:40:55</time>
      </trkpt>
      <trkpt lat="37.06269" lon="-3.37015">
        <ele>3095</ele>
        <time>2021-08-05 15:40:56</time>
      </trkpt>
      <trkpt lat="37.06268" lon="-3.37015">
        <ele>3095</ele>
        <time>2021-08-05 15:40:57</time>
      </trkpt>
      <trkpt lat="37.06268" lon="-3.37015">
        <ele>3094.8</ele>
        <time>2021-08-05 15:40:58</time>
      </trkpt>
      <trkpt lat="37.06267" lon="-3.37014">
        <ele>3094.6</ele>
        <time>2021-08-05 15:40:59</time>
      </trkpt>
      <trkpt lat="37.06266" lon="-3.37014">
        <ele>3094.6</ele>
        <time>2021-08-05 15:41:00</time>
      </trkpt>
      <trkpt lat="37.06265" lon="-3.37014">
        <ele>3094.6</ele>
        <time>2021-08-05 15:41:01</time>
      </trkpt>
      <trkpt lat="37.06264" lon="-3.37014">
        <ele>3094.8</ele>
        <time>2021-08-05 15:41:02</time>
      </trkpt>
      <trkpt lat="37.06264" lon="-3.37013">
        <ele>3094.6</ele>
        <time>2021-08-05 15:41:03</time>
      </trkpt>
      <trkpt lat="37.06263" lon="-3.37013">
        <ele>3094.8</ele>
        <time>2021-08-05 15:41:04</time>
      </trkpt>
      <trkpt lat="37.06263" lon="-3.37013">
        <ele>3095</ele>
        <time>2021-08-05 15:41:05</time>
      </trkpt>
      <trkpt lat="37.06263" lon="-3.37014">
        <ele>3095</ele>
        <time>2021-08-05 15:41:06</time>
      </trkpt>
      <trkpt lat="37.06263" lon="-3.37013">
        <ele>3095</ele>
        <time>2021-08-05 15:41:07</time>
      </trkpt>
      <trkpt lat="37.06262" lon="-3.37013">
        <ele>3095.2</ele>
        <time>2021-08-05 15:41:08</time>
      </trkpt>
      <trkpt lat="37.06262" lon="-3.37014">
        <ele>3095.2</ele>
        <time>2021-08-05 15:41:09</time>
      </trkpt>
      <trkpt lat="37.06261" lon="-3.37014">
        <ele>3095.2</ele>
        <time>2021-08-05 15:41:10</time>
      </trkpt>
      <trkpt lat="37.06261" lon="-3.37014">
        <ele>3095.2</ele>
        <time>2021-08-05 15:41:11</time>
      </trkpt>
      <trkpt lat="37.0626" lon="-3.37014">
        <ele>3095.4</ele>
        <time>2021-08-05 15:41:12</time>
      </trkpt>
      <trkpt lat="37.06259" lon="-3.37013">
        <ele>3095.4</ele>
        <time>2021-08-05 15:41:13</time>
      </trkpt>
      <trkpt lat="37.06258" lon="-3.37013">
        <ele>3095.6</ele>
        <time>2021-08-05 15:41:14</time>
      </trkpt>
      <trkpt lat="37.06257" lon="-3.37014">
        <ele>3096</ele>
        <time>2021-08-05 15:41:15</time>
      </trkpt>
      <trkpt lat="37.06256" lon="-3.37014">
        <ele>3096</ele>
        <time>2021-08-05 15:41:16</time>
      </trkpt>
      <trkpt lat="37.06255" lon="-3.37014">
        <ele>3096.2</ele>
        <time>2021-08-05 15:41:17</time>
      </trkpt>
      <trkpt lat="37.06255" lon="-3.37015">
        <ele>3096.2</ele>
        <time>2021-08-05 15:41:18</time>
      </trkpt>
      <trkpt lat="37.06254" lon="-3.37016">
        <ele>3096.2</ele>
        <time>2021-08-05 15:41:19</time>
      </trkpt>
      <trkpt lat="37.06253" lon="-3.37016">
        <ele>3096.2</ele>
        <time>2021-08-05 15:41:20</time>
      </trkpt>
      <trkpt lat="37.06253" lon="-3.37017">
        <ele>3096.2</ele>
        <time>2021-08-05 15:41:21</time>
      </trkpt>
      <trkpt lat="37.06252" lon="-3.37017">
        <ele>3096.2</ele>
        <time>2021-08-05 15:41:22</time>
      </trkpt>
      <trkpt lat="37.06252" lon="-3.37017">
        <ele>3096.4</ele>
        <time>2021-08-05 15:41:23</time>
      </trkpt>
      <trkpt lat="37.06251" lon="-3.37017">
        <ele>3096.4</ele>
        <time>2021-08-05 15:41:24</time>
      </trkpt>
      <trkpt lat="37.06251" lon="-3.37017">
        <ele>3096.6</ele>
        <time>2021-08-05 15:41:25</time>
      </trkpt>
      <trkpt lat="37.0625" lon="-3.37017">
        <ele>3096.6</ele>
        <time>2021-08-05 15:41:26</time>
      </trkpt>
      <trkpt lat="37.06249" lon="-3.37017">
        <ele>3096.6</ele>
        <time>2021-08-05 15:41:27</time>
      </trkpt>
      <trkpt lat="37.06248" lon="-3.37017">
        <ele>3096.6</ele>
        <time>2021-08-05 15:41:28</time>
      </trkpt>
      <trkpt lat="37.06247" lon="-3.37017">
        <ele>3096.8</ele>
        <time>2021-08-05 15:41:29</time>
      </trkpt>
      <trkpt lat="37.06246" lon="-3.37017">
        <ele>3096.8</ele>
        <time>2021-08-05 15:41:30</time>
      </trkpt>
      <trkpt lat="37.06245" lon="-3.37018">
        <ele>3096.8</ele>
        <time>2021-08-05 15:41:31</time>
      </trkpt>
      <trkpt lat="37.06244" lon="-3.37018">
        <ele>3097</ele>
        <time>2021-08-05 15:41:32</time>
      </trkpt>
      <trkpt lat="37.06243" lon="-3.37019">
        <ele>3097</ele>
        <time>2021-08-05 15:41:33</time>
      </trkpt>
      <trkpt lat="37.06242" lon="-3.37019">
        <ele>3097</ele>
        <time>2021-08-05 15:41:34</time>
      </trkpt>
      <trkpt lat="37.0624" lon="-3.3702">
        <ele>3097</ele>
        <time>2021-08-05 15:41:35</time>
      </trkpt>
      <trkpt lat="37.06239" lon="-3.37021">
        <ele>3097</ele>
        <time>2021-08-05 15:41:36</time>
      </trkpt>
      <trkpt lat="37.06238" lon="-3.37021">
        <ele>3097.2</ele>
        <time>2021-08-05 15:41:37</time>
      </trkpt>
      <trkpt lat="37.06237" lon="-3.37021">
        <ele>3097.4</ele>
        <time>2021-08-05 15:41:38</time>
      </trkpt>
      <trkpt lat="37.06236" lon="-3.37022">
        <ele>3097.4</ele>
        <time>2021-08-05 15:41:39</time>
      </trkpt>
      <trkpt lat="37.06235" lon="-3.37023">
        <ele>3097.6</ele>
        <time>2021-08-05 15:41:40</time>
      </trkpt>
      <trkpt lat="37.06235" lon="-3.37024">
        <ele>3097.6</ele>
        <time>2021-08-05 15:41:41</time>
      </trkpt>
      <trkpt lat="37.06234" lon="-3.37026">
        <ele>3097.6</ele>
        <time>2021-08-05 15:41:42</time>
      </trkpt>
      <trkpt lat="37.06233" lon="-3.37027">
        <ele>3097.6</ele>
        <time>2021-08-05 15:41:43</time>
      </trkpt>
      <trkpt lat="37.06232" lon="-3.37027">
        <ele>3097.6</ele>
        <time>2021-08-05 15:41:44</time>
      </trkpt>
      <trkpt lat="37.06232" lon="-3.37027">
        <ele>3097.6</ele>
        <time>2021-08-05 15:41:45</time>
      </trkpt>
      <trkpt lat="37.06231" lon="-3.37027">
        <ele>3097.8</ele>
        <time>2021-08-05 15:41:46</time>
      </trkpt>
      <trkpt lat="37.0623" lon="-3.37027">
        <ele>3098</ele>
        <time>2021-08-05 15:41:47</time>
      </trkpt>
      <trkpt lat="37.0623" lon="-3.37027">
        <ele>3098</ele>
        <time>2021-08-05 15:41:48</time>
      </trkpt>
      <trkpt lat="37.06229" lon="-3.37027">
        <ele>3098.2</ele>
        <time>2021-08-05 15:41:49</time>
      </trkpt>
      <trkpt lat="37.06228" lon="-3.37028">
        <ele>3098.4</ele>
        <time>2021-08-05 15:41:50</time>
      </trkpt>
      <trkpt lat="37.06228" lon="-3.37028">
        <ele>3098.4</ele>
        <time>2021-08-05 15:41:51</time>
      </trkpt>
      <trkpt lat="37.06227" lon="-3.37028">
        <ele>3098.6</ele>
        <time>2021-08-05 15:41:52</time>
      </trkpt>
      <trkpt lat="37.06227" lon="-3.37028">
        <ele>3098.6</ele>
        <time>2021-08-05 15:41:53</time>
      </trkpt>
      <trkpt lat="37.06226" lon="-3.37029">
        <ele>3098.6</ele>
        <time>2021-08-05 15:41:54</time>
      </trkpt>
      <trkpt lat="37.06226" lon="-3.37029">
        <ele>3098.8</ele>
        <time>2021-08-05 15:41:55</time>
      </trkpt>
      <trkpt lat="37.06226" lon="-3.37029">
        <ele>3098.8</ele>
        <time>2021-08-05 15:41:56</time>
      </trkpt>
      <trkpt lat="37.06225" lon="-3.37029">
        <ele>3099</ele>
        <time>2021-08-05 15:41:57</time>
      </trkpt>
      <trkpt lat="37.06225" lon="-3.37029">
        <ele>3099</ele>
        <time>2021-08-05 15:41:58</time>
      </trkpt>
      <trkpt lat="37.06224" lon="-3.37029">
        <ele>3098.8</ele>
        <time>2021-08-05 15:41:59</time>
      </trkpt>
      <trkpt lat="37.06223" lon="-3.37029">
        <ele>3098.8</ele>
        <time>2021-08-05 15:42:00</time>
      </trkpt>
      <trkpt lat="37.06222" lon="-3.3703">
        <ele>3098.8</ele>
        <time>2021-08-05 15:42:01</time>
      </trkpt>
      <trkpt lat="37.06221" lon="-3.3703">
        <ele>3098.6</ele>
        <time>2021-08-05 15:42:02</time>
      </trkpt>
      <trkpt lat="37.0622" lon="-3.37031">
        <ele>3098.4</ele>
        <time>2021-08-05 15:42:03</time>
      </trkpt>
      <trkpt lat="37.0622" lon="-3.37031">
        <ele>3098.4</ele>
        <time>2021-08-05 15:42:04</time>
      </trkpt>
      <trkpt lat="37.0622" lon="-3.37032">
        <ele>3098.4</ele>
        <time>2021-08-05 15:42:05</time>
      </trkpt>
      <trkpt lat="37.06219" lon="-3.37032">
        <ele>3098.4</ele>
        <time>2021-08-05 15:42:06</time>
      </trkpt>
      <trkpt lat="37.06218" lon="-3.37032">
        <ele>3098.4</ele>
        <time>2021-08-05 15:42:07</time>
      </trkpt>
      <trkpt lat="37.06217" lon="-3.37032">
        <ele>3098.4</ele>
        <time>2021-08-05 15:42:08</time>
      </trkpt>
      <trkpt lat="37.06216" lon="-3.37033">
        <ele>3098.8</ele>
        <time>2021-08-05 15:42:09</time>
      </trkpt>
      <trkpt lat="37.06214" lon="-3.37034">
        <ele>3099</ele>
        <time>2021-08-05 15:42:10</time>
      </trkpt>
      <trkpt lat="37.06212" lon="-3.37034">
        <ele>3099.2</ele>
        <time>2021-08-05 15:42:11</time>
      </trkpt>
      <trkpt lat="37.06211" lon="-3.37034">
        <ele>3099.4</ele>
        <time>2021-08-05 15:42:12</time>
      </trkpt>
      <trkpt lat="37.06211" lon="-3.37034">
        <ele>3099.6</ele>
        <time>2021-08-05 15:42:13</time>
      </trkpt>
      <trkpt lat="37.0621" lon="-3.37034">
        <ele>3099.6</ele>
        <time>2021-08-05 15:42:14</time>
      </trkpt>
      <trkpt lat="37.0621" lon="-3.37035">
        <ele>3099.8</ele>
        <time>2021-08-05 15:42:15</time>
      </trkpt>
      <trkpt lat="37.06209" lon="-3.37036">
        <ele>3100</ele>
        <time>2021-08-05 15:42:16</time>
      </trkpt>
      <trkpt lat="37.06209" lon="-3.37036">
        <ele>3100</ele>
        <time>2021-08-05 15:42:17</time>
      </trkpt>
      <trkpt lat="37.06208" lon="-3.37037">
        <ele>3100</ele>
        <time>2021-08-05 15:42:18</time>
      </trkpt>
      <trkpt lat="37.06207" lon="-3.37039">
        <ele>3100</ele>
        <time>2021-08-05 15:42:19</time>
      </trkpt>
      <trkpt lat="37.06206" lon="-3.3704">
        <ele>3100.2</ele>
        <time>2021-08-05 15:42:20</time>
      </trkpt>
      <trkpt lat="37.06205" lon="-3.37041">
        <ele>3100.2</ele>
        <time>2021-08-05 15:42:21</time>
      </trkpt>
      <trkpt lat="37.06204" lon="-3.37042">
        <ele>3100.2</ele>
        <time>2021-08-05 15:42:22</time>
      </trkpt>
      <trkpt lat="37.06203" lon="-3.37042">
        <ele>3100.2</ele>
        <time>2021-08-05 15:42:23</time>
      </trkpt>
      <trkpt lat="37.06202" lon="-3.37043">
        <ele>3100.2</ele>
        <time>2021-08-05 15:42:24</time>
      </trkpt>
      <trkpt lat="37.06201" lon="-3.37044">
        <ele>3100.2</ele>
        <time>2021-08-05 15:42:25</time>
      </trkpt>
      <trkpt lat="37.062" lon="-3.37044">
        <ele>3100.4</ele>
        <time>2021-08-05 15:42:26</time>
      </trkpt>
      <trkpt lat="37.06199" lon="-3.37045">
        <ele>3100.6</ele>
        <time>2021-08-05 15:42:27</time>
      </trkpt>
      <trkpt lat="37.06199" lon="-3.37045">
        <ele>3100.6</ele>
        <time>2021-08-05 15:42:28</time>
      </trkpt>
      <trkpt lat="37.06198" lon="-3.37046">
        <ele>3100.6</ele>
        <time>2021-08-05 15:42:29</time>
      </trkpt>
      <trkpt lat="37.06197" lon="-3.37046">
        <ele>3100.8</ele>
        <time>2021-08-05 15:42:30</time>
      </trkpt>
      <trkpt lat="37.06196" lon="-3.37046">
        <ele>3101</ele>
        <time>2021-08-05 15:42:31</time>
      </trkpt>
      <trkpt lat="37.06195" lon="-3.37046">
        <ele>3101</ele>
        <time>2021-08-05 15:42:32</time>
      </trkpt>
      <trkpt lat="37.06195" lon="-3.37046">
        <ele>3101.2</ele>
        <time>2021-08-05 15:42:33</time>
      </trkpt>
      <trkpt lat="37.06194" lon="-3.37046">
        <ele>3101.2</ele>
        <time>2021-08-05 15:42:34</time>
      </trkpt>
      <trkpt lat="37.06194" lon="-3.37046">
        <ele>3101.2</ele>
        <time>2021-08-05 15:42:35</time>
      </trkpt>
      <trkpt lat="37.06193" lon="-3.37047">
        <ele>3100.8</ele>
        <time>2021-08-05 15:42:36</time>
      </trkpt>
      <trkpt lat="37.06192" lon="-3.37047">
        <ele>3100.8</ele>
        <time>2021-08-05 15:42:37</time>
      </trkpt>
      <trkpt lat="37.06192" lon="-3.37048">
        <ele>3100.8</ele>
        <time>2021-08-05 15:42:38</time>
      </trkpt>
      <trkpt lat="37.06191" lon="-3.37048">
        <ele>3100.8</ele>
        <time>2021-08-05 15:42:39</time>
      </trkpt>
      <trkpt lat="37.06191" lon="-3.37048">
        <ele>3100.8</ele>
        <time>2021-08-05 15:42:40</time>
      </trkpt>
      <trkpt lat="37.0619" lon="-3.37048">
        <ele>3101</ele>
        <time>2021-08-05 15:42:41</time>
      </trkpt>
      <trkpt lat="37.0619" lon="-3.37048">
        <ele>3101.4</ele>
        <time>2021-08-05 15:42:42</time>
      </trkpt>
      <trkpt lat="37.06189" lon="-3.37048">
        <ele>3101.4</ele>
        <time>2021-08-05 15:42:43</time>
      </trkpt>
      <trkpt lat="37.06189" lon="-3.37048">
        <ele>3101.6</ele>
        <time>2021-08-05 15:42:44</time>
      </trkpt>
      <trkpt lat="37.06189" lon="-3.37048">
        <ele>3101.6</ele>
        <time>2021-08-05 15:42:45</time>
      </trkpt>
      <trkpt lat="37.06188" lon="-3.37049">
        <ele>3101.8</ele>
        <time>2021-08-05 15:42:46</time>
      </trkpt>
      <trkpt lat="37.06188" lon="-3.3705">
        <ele>3101.8</ele>
        <time>2021-08-05 15:42:47</time>
      </trkpt>
      <trkpt lat="37.06187" lon="-3.3705">
        <ele>3101.8</ele>
        <time>2021-08-05 15:42:48</time>
      </trkpt>
      <trkpt lat="37.06186" lon="-3.37051">
        <ele>3102</ele>
        <time>2021-08-05 15:42:49</time>
      </trkpt>
      <trkpt lat="37.06186" lon="-3.37051">
        <ele>3102</ele>
        <time>2021-08-05 15:42:50</time>
      </trkpt>
      <trkpt lat="37.06185" lon="-3.37052">
        <ele>3102.2</ele>
        <time>2021-08-05 15:42:51</time>
      </trkpt>
      <trkpt lat="37.06184" lon="-3.37053">
        <ele>3102.2</ele>
        <time>2021-08-05 15:42:52</time>
      </trkpt>
      <trkpt lat="37.06184" lon="-3.37053">
        <ele>3102.2</ele>
        <time>2021-08-05 15:42:53</time>
      </trkpt>
      <trkpt lat="37.06184" lon="-3.37054">
        <ele>3102.4</ele>
        <time>2021-08-05 15:42:54</time>
      </trkpt>
      <trkpt lat="37.06183" lon="-3.37054">
        <ele>3102.4</ele>
        <time>2021-08-05 15:42:55</time>
      </trkpt>
      <trkpt lat="37.06183" lon="-3.37054">
        <ele>3102.4</ele>
        <time>2021-08-05 15:42:56</time>
      </trkpt>
      <trkpt lat="37.06182" lon="-3.37054">
        <ele>3102.6</ele>
        <time>2021-08-05 15:42:57</time>
      </trkpt>
      <trkpt lat="37.06181" lon="-3.37055">
        <ele>3102.6</ele>
        <time>2021-08-05 15:42:58</time>
      </trkpt>
      <trkpt lat="37.06181" lon="-3.37055">
        <ele>3102.6</ele>
        <time>2021-08-05 15:42:59</time>
      </trkpt>
      <trkpt lat="37.0618" lon="-3.37056">
        <ele>3102.6</ele>
        <time>2021-08-05 15:43:00</time>
      </trkpt>
      <trkpt lat="37.0618" lon="-3.37056">
        <ele>3102.8</ele>
        <time>2021-08-05 15:43:01</time>
      </trkpt>
      <trkpt lat="37.06179" lon="-3.37056">
        <ele>3102.8</ele>
        <time>2021-08-05 15:43:02</time>
      </trkpt>
      <trkpt lat="37.06178" lon="-3.37056">
        <ele>3102.8</ele>
        <time>2021-08-05 15:43:03</time>
      </trkpt>
      <trkpt lat="37.06178" lon="-3.37055">
        <ele>3102.8</ele>
        <time>2021-08-05 15:43:04</time>
      </trkpt>
      <trkpt lat="37.06177" lon="-3.37055">
        <ele>3102.8</ele>
        <time>2021-08-05 15:43:05</time>
      </trkpt>
      <trkpt lat="37.06176" lon="-3.37056">
        <ele>3102.6</ele>
        <time>2021-08-05 15:43:06</time>
      </trkpt>
      <trkpt lat="37.06176" lon="-3.37057">
        <ele>3102.4</ele>
        <time>2021-08-05 15:43:07</time>
      </trkpt>
      <trkpt lat="37.06175" lon="-3.37057">
        <ele>3102.4</ele>
        <time>2021-08-05 15:43:08</time>
      </trkpt>
      <trkpt lat="37.06174" lon="-3.37058">
        <ele>3102.4</ele>
        <time>2021-08-05 15:43:09</time>
      </trkpt>
      <trkpt lat="37.06174" lon="-3.37059">
        <ele>3102.4</ele>
        <time>2021-08-05 15:43:10</time>
      </trkpt>
      <trkpt lat="37.06173" lon="-3.3706">
        <ele>3102.6</ele>
        <time>2021-08-05 15:43:11</time>
      </trkpt>
      <trkpt lat="37.06173" lon="-3.37061">
        <ele>3102.8</ele>
        <time>2021-08-05 15:43:12</time>
      </trkpt>
      <trkpt lat="37.06172" lon="-3.37062">
        <ele>3102.8</ele>
        <time>2021-08-05 15:43:13</time>
      </trkpt>
      <trkpt lat="37.06172" lon="-3.37063">
        <ele>3103</ele>
        <time>2021-08-05 15:43:14</time>
      </trkpt>
      <trkpt lat="37.06172" lon="-3.37063">
        <ele>3103</ele>
        <time>2021-08-05 15:43:15</time>
      </trkpt>
      <trkpt lat="37.06171" lon="-3.37064">
        <ele>3103</ele>
        <time>2021-08-05 15:43:16</time>
      </trkpt>
      <trkpt lat="37.0617" lon="-3.37064">
        <ele>3103</ele>
        <time>2021-08-05 15:43:17</time>
      </trkpt>
      <trkpt lat="37.0617" lon="-3.37065">
        <ele>3103</ele>
        <time>2021-08-05 15:43:18</time>
      </trkpt>
      <trkpt lat="37.06169" lon="-3.37066">
        <ele>3103</ele>
        <time>2021-08-05 15:43:19</time>
      </trkpt>
      <trkpt lat="37.06169" lon="-3.37066">
        <ele>3103.2</ele>
        <time>2021-08-05 15:43:20</time>
      </trkpt>
      <trkpt lat="37.06168" lon="-3.37067">
        <ele>3103.6</ele>
        <time>2021-08-05 15:43:21</time>
      </trkpt>
      <trkpt lat="37.06167" lon="-3.37067">
        <ele>3103.8</ele>
        <time>2021-08-05 15:43:22</time>
      </trkpt>
      <trkpt lat="37.06167" lon="-3.37067">
        <ele>3103.8</ele>
        <time>2021-08-05 15:43:23</time>
      </trkpt>
      <trkpt lat="37.06166" lon="-3.37067">
        <ele>3104</ele>
        <time>2021-08-05 15:43:24</time>
      </trkpt>
      <trkpt lat="37.06166" lon="-3.37067">
        <ele>3104</ele>
        <time>2021-08-05 15:43:25</time>
      </trkpt>
      <trkpt lat="37.06165" lon="-3.37067">
        <ele>3104</ele>
        <time>2021-08-05 15:43:26</time>
      </trkpt>
      <trkpt lat="37.06164" lon="-3.37067">
        <ele>3104</ele>
        <time>2021-08-05 15:43:27</time>
      </trkpt>
      <trkpt lat="37.06163" lon="-3.37067">
        <ele>3104</ele>
        <time>2021-08-05 15:43:28</time>
      </trkpt>
      <trkpt lat="37.06162" lon="-3.37067">
        <ele>3104.2</ele>
        <time>2021-08-05 15:43:29</time>
      </trkpt>
      <trkpt lat="37.06161" lon="-3.37067">
        <ele>3104.4</ele>
        <time>2021-08-05 15:43:30</time>
      </trkpt>
      <trkpt lat="37.0616" lon="-3.37068">
        <ele>3104.4</ele>
        <time>2021-08-05 15:43:31</time>
      </trkpt>
      <trkpt lat="37.06159" lon="-3.37068">
        <ele>3104.4</ele>
        <time>2021-08-05 15:43:32</time>
      </trkpt>
      <trkpt lat="37.06158" lon="-3.37068">
        <ele>3104.6</ele>
        <time>2021-08-05 15:43:33</time>
      </trkpt>
      <trkpt lat="37.06158" lon="-3.37068">
        <ele>3104.8</ele>
        <time>2021-08-05 15:43:34</time>
      </trkpt>
      <trkpt lat="37.06156" lon="-3.3707">
        <ele>3105</ele>
        <time>2021-08-05 15:43:35</time>
      </trkpt>
      <trkpt lat="37.06156" lon="-3.3707">
        <ele>3105</ele>
        <time>2021-08-05 15:43:36</time>
      </trkpt>
      <trkpt lat="37.06155" lon="-3.37071">
        <ele>3105.2</ele>
        <time>2021-08-05 15:43:37</time>
      </trkpt>
      <trkpt lat="37.06154" lon="-3.37071">
        <ele>3105.2</ele>
        <time>2021-08-05 15:43:38</time>
      </trkpt>
      <trkpt lat="37.06153" lon="-3.37072">
        <ele>3105.2</ele>
        <time>2021-08-05 15:43:39</time>
      </trkpt>
      <trkpt lat="37.06152" lon="-3.37073">
        <ele>3105.4</ele>
        <time>2021-08-05 15:43:40</time>
      </trkpt>
      <trkpt lat="37.06151" lon="-3.37073">
        <ele>3105.2</ele>
        <time>2021-08-05 15:43:41</time>
      </trkpt>
      <trkpt lat="37.0615" lon="-3.37073">
        <ele>3105.2</ele>
        <time>2021-08-05 15:43:42</time>
      </trkpt>
      <trkpt lat="37.06149" lon="-3.37074">
        <ele>3105</ele>
        <time>2021-08-05 15:43:43</time>
      </trkpt>
      <trkpt lat="37.06148" lon="-3.37075">
        <ele>3105</ele>
        <time>2021-08-05 15:43:44</time>
      </trkpt>
      <trkpt lat="37.06147" lon="-3.37075">
        <ele>3105</ele>
        <time>2021-08-05 15:43:45</time>
      </trkpt>
      <trkpt lat="37.06146" lon="-3.37075">
        <ele>3105</ele>
        <time>2021-08-05 15:43:46</time>
      </trkpt>
      <trkpt lat="37.06145" lon="-3.37076">
        <ele>3105</ele>
        <time>2021-08-05 15:43:47</time>
      </trkpt>
      <trkpt lat="37.06144" lon="-3.37077">
        <ele>3105.2</ele>
        <time>2021-08-05 15:43:48</time>
      </trkpt>
      <trkpt lat="37.06144" lon="-3.37077">
        <ele>3105.2</ele>
        <time>2021-08-05 15:43:49</time>
      </trkpt>
      <trkpt lat="37.06143" lon="-3.37078">
        <ele>3105.2</ele>
        <time>2021-08-05 15:43:50</time>
      </trkpt>
      <trkpt lat="37.06143" lon="-3.37078">
        <ele>3105.2</ele>
        <time>2021-08-05 15:43:51</time>
      </trkpt>
      <trkpt lat="37.06143" lon="-3.37078">
        <ele>3105.4</ele>
        <time>2021-08-05 15:43:52</time>
      </trkpt>
      <trkpt lat="37.06142" lon="-3.37079">
        <ele>3105.4</ele>
        <time>2021-08-05 15:43:53</time>
      </trkpt>
      <trkpt lat="37.06141" lon="-3.37079">
        <ele>3105.4</ele>
        <time>2021-08-05 15:43:54</time>
      </trkpt>
      <trkpt lat="37.06141" lon="-3.37079">
        <ele>3105.4</ele>
        <time>2021-08-05 15:43:55</time>
      </trkpt>
      <trkpt lat="37.0614" lon="-3.37079">
        <ele>3105.4</ele>
        <time>2021-08-05 15:43:56</time>
      </trkpt>
      <trkpt lat="37.06139" lon="-3.37079">
        <ele>3105.4</ele>
        <time>2021-08-05 15:43:57</time>
      </trkpt>
      <trkpt lat="37.06139" lon="-3.3708">
        <ele>3105.4</ele>
        <time>2021-08-05 15:43:58</time>
      </trkpt>
      <trkpt lat="37.06139" lon="-3.37081">
        <ele>3105.8</ele>
        <time>2021-08-05 15:43:59</time>
      </trkpt>
      <trkpt lat="37.06138" lon="-3.37082">
        <ele>3106</ele>
        <time>2021-08-05 15:44:00</time>
      </trkpt>
      <trkpt lat="37.06138" lon="-3.37082">
        <ele>3106.2</ele>
        <time>2021-08-05 15:44:01</time>
      </trkpt>
      <trkpt lat="37.06137" lon="-3.37082">
        <ele>3106.4</ele>
        <time>2021-08-05 15:44:02</time>
      </trkpt>
      <trkpt lat="37.06137" lon="-3.37083">
        <ele>3106.4</ele>
        <time>2021-08-05 15:44:03</time>
      </trkpt>
      <trkpt lat="37.06136" lon="-3.37083">
        <ele>3106.4</ele>
        <time>2021-08-05 15:44:04</time>
      </trkpt>
      <trkpt lat="37.06135" lon="-3.37084">
        <ele>3106.4</ele>
        <time>2021-08-05 15:44:05</time>
      </trkpt>
      <trkpt lat="37.06135" lon="-3.37084">
        <ele>3106.4</ele>
        <time>2021-08-05 15:44:06</time>
      </trkpt>
      <trkpt lat="37.06135" lon="-3.37084">
        <ele>3106.4</ele>
        <time>2021-08-05 15:44:07</time>
      </trkpt>
      <trkpt lat="37.06135" lon="-3.37085">
        <ele>3106.4</ele>
        <time>2021-08-05 15:44:08</time>
      </trkpt>
      <trkpt lat="37.06135" lon="-3.37084">
        <ele>3106.2</ele>
        <time>2021-08-05 15:44:09</time>
      </trkpt>
      <trkpt lat="37.06134" lon="-3.37084">
        <ele>3106.2</ele>
        <time>2021-08-05 15:44:10</time>
      </trkpt>
      <trkpt lat="37.06133" lon="-3.37085">
        <ele>3106.2</ele>
        <time>2021-08-05 15:44:11</time>
      </trkpt>
      <trkpt lat="37.06133" lon="-3.37085">
        <ele>3106.2</ele>
        <time>2021-08-05 15:44:12</time>
      </trkpt>
      <trkpt lat="37.06132" lon="-3.37085">
        <ele>3106.4</ele>
        <time>2021-08-05 15:44:13</time>
      </trkpt>
      <trkpt lat="37.06131" lon="-3.37086">
        <ele>3106.4</ele>
        <time>2021-08-05 15:44:14</time>
      </trkpt>
      <trkpt lat="37.0613" lon="-3.37089">
        <ele>3106.6</ele>
        <time>2021-08-05 15:44:15</time>
      </trkpt>
      <trkpt lat="37.06129" lon="-3.37089">
        <ele>3106.6</ele>
        <time>2021-08-05 15:44:16</time>
      </trkpt>
      <trkpt lat="37.06128" lon="-3.37089">
        <ele>3106.8</ele>
        <time>2021-08-05 15:44:17</time>
      </trkpt>
      <trkpt lat="37.06127" lon="-3.3709">
        <ele>3106.8</ele>
        <time>2021-08-05 15:44:18</time>
      </trkpt>
      <trkpt lat="37.06127" lon="-3.37091">
        <ele>3107</ele>
        <time>2021-08-05 15:44:19</time>
      </trkpt>
      <trkpt lat="37.06127" lon="-3.37091">
        <ele>3107</ele>
        <time>2021-08-05 15:44:20</time>
      </trkpt>
      <trkpt lat="37.06127" lon="-3.37091">
        <ele>3107</ele>
        <time>2021-08-05 15:44:21</time>
      </trkpt>
      <trkpt lat="37.06126" lon="-3.37092">
        <ele>3107</ele>
        <time>2021-08-05 15:44:22</time>
      </trkpt>
      <trkpt lat="37.06126" lon="-3.37093">
        <ele>3107.2</ele>
        <time>2021-08-05 15:44:23</time>
      </trkpt>
      <trkpt lat="37.06125" lon="-3.37093">
        <ele>3107.2</ele>
        <time>2021-08-05 15:44:24</time>
      </trkpt>
      <trkpt lat="37.06125" lon="-3.37093">
        <ele>3107.2</ele>
        <time>2021-08-05 15:44:25</time>
      </trkpt>
      <trkpt lat="37.06124" lon="-3.37094">
        <ele>3107.2</ele>
        <time>2021-08-05 15:44:26</time>
      </trkpt>
      <trkpt lat="37.06123" lon="-3.37094">
        <ele>3107.2</ele>
        <time>2021-08-05 15:44:27</time>
      </trkpt>
      <trkpt lat="37.06123" lon="-3.37094">
        <ele>3107.2</ele>
        <time>2021-08-05 15:44:28</time>
      </trkpt>
      <trkpt lat="37.06122" lon="-3.37094">
        <ele>3107.4</ele>
        <time>2021-08-05 15:44:29</time>
      </trkpt>
      <trkpt lat="37.06122" lon="-3.37095">
        <ele>3107.4</ele>
        <time>2021-08-05 15:44:30</time>
      </trkpt>
      <trkpt lat="37.06121" lon="-3.37095">
        <ele>3108</ele>
        <time>2021-08-05 15:44:31</time>
      </trkpt>
      <trkpt lat="37.06121" lon="-3.37095">
        <ele>3108.2</ele>
        <time>2021-08-05 15:44:32</time>
      </trkpt>
      <trkpt lat="37.0612" lon="-3.37096">
        <ele>3108.4</ele>
        <time>2021-08-05 15:44:33</time>
      </trkpt>
      <trkpt lat="37.06119" lon="-3.37096">
        <ele>3108.6</ele>
        <time>2021-08-05 15:44:34</time>
      </trkpt>
      <trkpt lat="37.06118" lon="-3.37097">
        <ele>3108.4</ele>
        <time>2021-08-05 15:44:35</time>
      </trkpt>
      <trkpt lat="37.06117" lon="-3.37097">
        <ele>3108.4</ele>
        <time>2021-08-05 15:44:36</time>
      </trkpt>
      <trkpt lat="37.06116" lon="-3.37097">
        <ele>3108.2</ele>
        <time>2021-08-05 15:44:37</time>
      </trkpt>
      <trkpt lat="37.06115" lon="-3.37097">
        <ele>3108</ele>
        <time>2021-08-05 15:44:38</time>
      </trkpt>
      <trkpt lat="37.06115" lon="-3.37097">
        <ele>3107.8</ele>
        <time>2021-08-05 15:44:39</time>
      </trkpt>
      <trkpt lat="37.06114" lon="-3.37098">
        <ele>3108</ele>
        <time>2021-08-05 15:44:40</time>
      </trkpt>
      <trkpt lat="37.06113" lon="-3.37098">
        <ele>3108.2</ele>
        <time>2021-08-05 15:44:41</time>
      </trkpt>
      <trkpt lat="37.06112" lon="-3.37098">
        <ele>3108.2</ele>
        <time>2021-08-05 15:44:42</time>
      </trkpt>
      <trkpt lat="37.06112" lon="-3.37099">
        <ele>3108.2</ele>
        <time>2021-08-05 15:44:43</time>
      </trkpt>
      <trkpt lat="37.06111" lon="-3.37099">
        <ele>3108.2</ele>
        <time>2021-08-05 15:44:44</time>
      </trkpt>
      <trkpt lat="37.0611" lon="-3.37101">
        <ele>3108.2</ele>
        <time>2021-08-05 15:44:45</time>
      </trkpt>
      <trkpt lat="37.0611" lon="-3.37101">
        <ele>3108.2</ele>
        <time>2021-08-05 15:44:46</time>
      </trkpt>
      <trkpt lat="37.06109" lon="-3.37102">
        <ele>3108.2</ele>
        <time>2021-08-05 15:44:47</time>
      </trkpt>
      <trkpt lat="37.06108" lon="-3.37102">
        <ele>3108.2</ele>
        <time>2021-08-05 15:44:48</time>
      </trkpt>
      <trkpt lat="37.06108" lon="-3.37102">
        <ele>3108.2</ele>
        <time>2021-08-05 15:44:49</time>
      </trkpt>
      <trkpt lat="37.06107" lon="-3.37102">
        <ele>3108.4</ele>
        <time>2021-08-05 15:44:50</time>
      </trkpt>
      <trkpt lat="37.06106" lon="-3.37102">
        <ele>3108.6</ele>
        <time>2021-08-05 15:44:51</time>
      </trkpt>
      <trkpt lat="37.06106" lon="-3.37103">
        <ele>3108.6</ele>
        <time>2021-08-05 15:44:52</time>
      </trkpt>
      <trkpt lat="37.06104" lon="-3.37104">
        <ele>3108.6</ele>
        <time>2021-08-05 15:44:53</time>
      </trkpt>
      <trkpt lat="37.06102" lon="-3.37105">
        <ele>3108.6</ele>
        <time>2021-08-05 15:44:54</time>
      </trkpt>
      <trkpt lat="37.06101" lon="-3.37105">
        <ele>3108.8</ele>
        <time>2021-08-05 15:44:55</time>
      </trkpt>
      <trkpt lat="37.061" lon="-3.37106">
        <ele>3108.8</ele>
        <time>2021-08-05 15:44:56</time>
      </trkpt>
      <trkpt lat="37.061" lon="-3.37106">
        <ele>3108.6</ele>
        <time>2021-08-05 15:44:57</time>
      </trkpt>
      <trkpt lat="37.06099" lon="-3.37106">
        <ele>3108.6</ele>
        <time>2021-08-05 15:44:58</time>
      </trkpt>
      <trkpt lat="37.06097" lon="-3.37106">
        <ele>3108.4</ele>
        <time>2021-08-05 15:44:59</time>
      </trkpt>
      <trkpt lat="37.06097" lon="-3.37107">
        <ele>3108.4</ele>
        <time>2021-08-05 15:45:00</time>
      </trkpt>
      <trkpt lat="37.06096" lon="-3.37106">
        <ele>3108.6</ele>
        <time>2021-08-05 15:45:01</time>
      </trkpt>
      <trkpt lat="37.06095" lon="-3.37107">
        <ele>3108.6</ele>
        <time>2021-08-05 15:45:02</time>
      </trkpt>
      <trkpt lat="37.06095" lon="-3.37108">
        <ele>3108.6</ele>
        <time>2021-08-05 15:45:03</time>
      </trkpt>
      <trkpt lat="37.06095" lon="-3.37108">
        <ele>3108.8</ele>
        <time>2021-08-05 15:45:04</time>
      </trkpt>
      <trkpt lat="37.06094" lon="-3.37108">
        <ele>3108.8</ele>
        <time>2021-08-05 15:45:05</time>
      </trkpt>
      <trkpt lat="37.06094" lon="-3.37109">
        <ele>3109</ele>
        <time>2021-08-05 15:45:06</time>
      </trkpt>
      <trkpt lat="37.06094" lon="-3.37109">
        <ele>3109</ele>
        <time>2021-08-05 15:45:07</time>
      </trkpt>
      <trkpt lat="37.06094" lon="-3.37109">
        <ele>3109</ele>
        <time>2021-08-05 15:45:08</time>
      </trkpt>
      <trkpt lat="37.06094" lon="-3.3711">
        <ele>3109</ele>
        <time>2021-08-05 15:45:09</time>
      </trkpt>
      <trkpt lat="37.06093" lon="-3.3711">
        <ele>3109.2</ele>
        <time>2021-08-05 15:45:10</time>
      </trkpt>
      <trkpt lat="37.06093" lon="-3.3711">
        <ele>3109.2</ele>
        <time>2021-08-05 15:45:11</time>
      </trkpt>
      <trkpt lat="37.06092" lon="-3.37111">
        <ele>3109.4</ele>
        <time>2021-08-05 15:45:12</time>
      </trkpt>
      <trkpt lat="37.06091" lon="-3.37111">
        <ele>3109.4</ele>
        <time>2021-08-05 15:45:13</time>
      </trkpt>
      <trkpt lat="37.06091" lon="-3.37111">
        <ele>3109.4</ele>
        <time>2021-08-05 15:45:14</time>
      </trkpt>
      <trkpt lat="37.0609" lon="-3.37111">
        <ele>3109.6</ele>
        <time>2021-08-05 15:45:15</time>
      </trkpt>
      <trkpt lat="37.06089" lon="-3.37112">
        <ele>3109.6</ele>
        <time>2021-08-05 15:45:16</time>
      </trkpt>
      <trkpt lat="37.06088" lon="-3.37112">
        <ele>3109.8</ele>
        <time>2021-08-05 15:45:17</time>
      </trkpt>
      <trkpt lat="37.06087" lon="-3.37112">
        <ele>3109.8</ele>
        <time>2021-08-05 15:45:18</time>
      </trkpt>
      <trkpt lat="37.06087" lon="-3.37112">
        <ele>3109.8</ele>
        <time>2021-08-05 15:45:19</time>
      </trkpt>
      <trkpt lat="37.06086" lon="-3.37112">
        <ele>3110</ele>
        <time>2021-08-05 15:45:20</time>
      </trkpt>
      <trkpt lat="37.06085" lon="-3.37112">
        <ele>3110</ele>
        <time>2021-08-05 15:45:21</time>
      </trkpt>
      <trkpt lat="37.06084" lon="-3.37113">
        <ele>3110</ele>
        <time>2021-08-05 15:45:22</time>
      </trkpt>
      <trkpt lat="37.06083" lon="-3.37113">
        <ele>3110</ele>
        <time>2021-08-05 15:45:23</time>
      </trkpt>
      <trkpt lat="37.06083" lon="-3.37113">
        <ele>3110</ele>
        <time>2021-08-05 15:45:24</time>
      </trkpt>
      <trkpt lat="37.06083" lon="-3.37113">
        <ele>3110</ele>
        <time>2021-08-05 15:45:25</time>
      </trkpt>
      <trkpt lat="37.06082" lon="-3.37113">
        <ele>3110.2</ele>
        <time>2021-08-05 15:45:26</time>
      </trkpt>
      <trkpt lat="37.06082" lon="-3.37113">
        <ele>3110.4</ele>
        <time>2021-08-05 15:45:27</time>
      </trkpt>
      <trkpt lat="37.06082" lon="-3.37114">
        <ele>3110.6</ele>
        <time>2021-08-05 15:45:28</time>
      </trkpt>
      <trkpt lat="37.06081" lon="-3.37114">
        <ele>3110.8</ele>
        <time>2021-08-05 15:45:29</time>
      </trkpt>
      <trkpt lat="37.06081" lon="-3.37115">
        <ele>3110.8</ele>
        <time>2021-08-05 15:45:30</time>
      </trkpt>
      <trkpt lat="37.0608" lon="-3.37116">
        <ele>3111</ele>
        <time>2021-08-05 15:45:31</time>
      </trkpt>
      <trkpt lat="37.06079" lon="-3.37116">
        <ele>3111.2</ele>
        <time>2021-08-05 15:45:32</time>
      </trkpt>
      <trkpt lat="37.06078" lon="-3.37117">
        <ele>3111.4</ele>
        <time>2021-08-05 15:45:33</time>
      </trkpt>
      <trkpt lat="37.06077" lon="-3.37117">
        <ele>3111.4</ele>
        <time>2021-08-05 15:45:34</time>
      </trkpt>
      <trkpt lat="37.06077" lon="-3.37118">
        <ele>3111.4</ele>
        <time>2021-08-05 15:45:35</time>
      </trkpt>
      <trkpt lat="37.06076" lon="-3.37118">
        <ele>3111.4</ele>
        <time>2021-08-05 15:45:36</time>
      </trkpt>
      <trkpt lat="37.06076" lon="-3.3712">
        <ele>3111.4</ele>
        <time>2021-08-05 15:45:37</time>
      </trkpt>
      <trkpt lat="37.06075" lon="-3.37121">
        <ele>3111.4</ele>
        <time>2021-08-05 15:45:38</time>
      </trkpt>
      <trkpt lat="37.06075" lon="-3.37121">
        <ele>3111.4</ele>
        <time>2021-08-05 15:45:39</time>
      </trkpt>
      <trkpt lat="37.06074" lon="-3.37122">
        <ele>3111.2</ele>
        <time>2021-08-05 15:45:40</time>
      </trkpt>
      <trkpt lat="37.06073" lon="-3.37123">
        <ele>3111.4</ele>
        <time>2021-08-05 15:45:41</time>
      </trkpt>
      <trkpt lat="37.06073" lon="-3.37123">
        <ele>3111.4</ele>
        <time>2021-08-05 15:45:42</time>
      </trkpt>
      <trkpt lat="37.06072" lon="-3.37123">
        <ele>3111.6</ele>
        <time>2021-08-05 15:45:43</time>
      </trkpt>
      <trkpt lat="37.06072" lon="-3.37124">
        <ele>3111.6</ele>
        <time>2021-08-05 15:45:44</time>
      </trkpt>
      <trkpt lat="37.06071" lon="-3.37124">
        <ele>3111.8</ele>
        <time>2021-08-05 15:45:45</time>
      </trkpt>
      <trkpt lat="37.06071" lon="-3.37125">
        <ele>3111.8</ele>
        <time>2021-08-05 15:45:46</time>
      </trkpt>
      <trkpt lat="37.0607" lon="-3.37125">
        <ele>3111.8</ele>
        <time>2021-08-05 15:45:47</time>
      </trkpt>
      <trkpt lat="37.06069" lon="-3.37126">
        <ele>3112</ele>
        <time>2021-08-05 15:45:48</time>
      </trkpt>
      <trkpt lat="37.06068" lon="-3.37127">
        <ele>3112</ele>
        <time>2021-08-05 15:45:49</time>
      </trkpt>
      <trkpt lat="37.06068" lon="-3.37128">
        <ele>3112.2</ele>
        <time>2021-08-05 15:45:50</time>
      </trkpt>
      <trkpt lat="37.06067" lon="-3.37128">
        <ele>3112.4</ele>
        <time>2021-08-05 15:45:51</time>
      </trkpt>
      <trkpt lat="37.06066" lon="-3.37129">
        <ele>3112.4</ele>
        <time>2021-08-05 15:45:52</time>
      </trkpt>
      <trkpt lat="37.06066" lon="-3.3713">
        <ele>3112.4</ele>
        <time>2021-08-05 15:45:53</time>
      </trkpt>
      <trkpt lat="37.06065" lon="-3.3713">
        <ele>3112.4</ele>
        <time>2021-08-05 15:45:54</time>
      </trkpt>
      <trkpt lat="37.06065" lon="-3.3713">
        <ele>3112.4</ele>
        <time>2021-08-05 15:45:55</time>
      </trkpt>
      <trkpt lat="37.06065" lon="-3.3713">
        <ele>3112.2</ele>
        <time>2021-08-05 15:45:56</time>
      </trkpt>
      <trkpt lat="37.06065" lon="-3.3713">
        <ele>3112.2</ele>
        <time>2021-08-05 15:45:57</time>
      </trkpt>
      <trkpt lat="37.06064" lon="-3.37131">
        <ele>3112.4</ele>
        <time>2021-08-05 15:45:58</time>
      </trkpt>
      <trkpt lat="37.06063" lon="-3.37132">
        <ele>3112.6</ele>
        <time>2021-08-05 15:45:59</time>
      </trkpt>
      <trkpt lat="37.06063" lon="-3.37132">
        <ele>3112.6</ele>
        <time>2021-08-05 15:46:00</time>
      </trkpt>
      <trkpt lat="37.06062" lon="-3.37133">
        <ele>3112.4</ele>
        <time>2021-08-05 15:46:01</time>
      </trkpt>
      <trkpt lat="37.06062" lon="-3.37134">
        <ele>3112.4</ele>
        <time>2021-08-05 15:46:02</time>
      </trkpt>
      <trkpt lat="37.06061" lon="-3.37135">
        <ele>3112.6</ele>
        <time>2021-08-05 15:46:03</time>
      </trkpt>
      <trkpt lat="37.06061" lon="-3.37136">
        <ele>3112.6</ele>
        <time>2021-08-05 15:46:04</time>
      </trkpt>
      <trkpt lat="37.0606" lon="-3.37137">
        <ele>3112.6</ele>
        <time>2021-08-05 15:46:05</time>
      </trkpt>
      <trkpt lat="37.06059" lon="-3.37138">
        <ele>3112.8</ele>
        <time>2021-08-05 15:46:06</time>
      </trkpt>
      <trkpt lat="37.06059" lon="-3.37138">
        <ele>3112.8</ele>
        <time>2021-08-05 15:46:07</time>
      </trkpt>
      <trkpt lat="37.06058" lon="-3.37139">
        <ele>3113</ele>
        <time>2021-08-05 15:46:08</time>
      </trkpt>
      <trkpt lat="37.06058" lon="-3.3714">
        <ele>3113</ele>
        <time>2021-08-05 15:46:09</time>
      </trkpt>
      <trkpt lat="37.06057" lon="-3.37141">
        <ele>3113.2</ele>
        <time>2021-08-05 15:46:10</time>
      </trkpt>
      <trkpt lat="37.06056" lon="-3.37143">
        <ele>3113.4</ele>
        <time>2021-08-05 15:46:11</time>
      </trkpt>
      <trkpt lat="37.06055" lon="-3.37143">
        <ele>3113.4</ele>
        <time>2021-08-05 15:46:12</time>
      </trkpt>
      <trkpt lat="37.06055" lon="-3.37144">
        <ele>3113.4</ele>
        <time>2021-08-05 15:46:13</time>
      </trkpt>
      <trkpt lat="37.06054" lon="-3.37145">
        <ele>3113.6</ele>
        <time>2021-08-05 15:46:14</time>
      </trkpt>
      <trkpt lat="37.06054" lon="-3.37145">
        <ele>3113.8</ele>
        <time>2021-08-05 15:46:15</time>
      </trkpt>
      <trkpt lat="37.06053" lon="-3.37146">
        <ele>3114</ele>
        <time>2021-08-05 15:46:16</time>
      </trkpt>
      <trkpt lat="37.06052" lon="-3.37147">
        <ele>3114</ele>
        <time>2021-08-05 15:46:17</time>
      </trkpt>
      <trkpt lat="37.06052" lon="-3.37148">
        <ele>3114.2</ele>
        <time>2021-08-05 15:46:18</time>
      </trkpt>
      <trkpt lat="37.06051" lon="-3.37149">
        <ele>3114.2</ele>
        <time>2021-08-05 15:46:19</time>
      </trkpt>
      <trkpt lat="37.0605" lon="-3.3715">
        <ele>3114.2</ele>
        <time>2021-08-05 15:46:20</time>
      </trkpt>
      <trkpt lat="37.06049" lon="-3.3715">
        <ele>3114.4</ele>
        <time>2021-08-05 15:46:21</time>
      </trkpt>
      <trkpt lat="37.06049" lon="-3.37151">
        <ele>3114.4</ele>
        <time>2021-08-05 15:46:22</time>
      </trkpt>
      <trkpt lat="37.06048" lon="-3.37151">
        <ele>3114.6</ele>
        <time>2021-08-05 15:46:23</time>
      </trkpt>
      <trkpt lat="37.06048" lon="-3.37151">
        <ele>3114.6</ele>
        <time>2021-08-05 15:46:24</time>
      </trkpt>
      <trkpt lat="37.06048" lon="-3.37152">
        <ele>3114.6</ele>
        <time>2021-08-05 15:46:25</time>
      </trkpt>
      <trkpt lat="37.06047" lon="-3.37152">
        <ele>3114.6</ele>
        <time>2021-08-05 15:46:26</time>
      </trkpt>
      <trkpt lat="37.06047" lon="-3.37152">
        <ele>3114.4</ele>
        <time>2021-08-05 15:46:27</time>
      </trkpt>
      <trkpt lat="37.06046" lon="-3.37152">
        <ele>3114.2</ele>
        <time>2021-08-05 15:46:28</time>
      </trkpt>
      <trkpt lat="37.06045" lon="-3.37153">
        <ele>3114.2</ele>
        <time>2021-08-05 15:46:29</time>
      </trkpt>
      <trkpt lat="37.06045" lon="-3.37153">
        <ele>3114</ele>
        <time>2021-08-05 15:46:30</time>
      </trkpt>
      <trkpt lat="37.06044" lon="-3.37153">
        <ele>3114</ele>
        <time>2021-08-05 15:46:31</time>
      </trkpt>
      <trkpt lat="37.06043" lon="-3.37153">
        <ele>3114</ele>
        <time>2021-08-05 15:46:32</time>
      </trkpt>
      <trkpt lat="37.06043" lon="-3.37154">
        <ele>3114</ele>
        <time>2021-08-05 15:46:33</time>
      </trkpt>
      <trkpt lat="37.06042" lon="-3.37154">
        <ele>3114.2</ele>
        <time>2021-08-05 15:46:34</time>
      </trkpt>
      <trkpt lat="37.06041" lon="-3.37155">
        <ele>3114.4</ele>
        <time>2021-08-05 15:46:35</time>
      </trkpt>
      <trkpt lat="37.0604" lon="-3.37155">
        <ele>3114.6</ele>
        <time>2021-08-05 15:46:36</time>
      </trkpt>
      <trkpt lat="37.0604" lon="-3.37156">
        <ele>3114.8</ele>
        <time>2021-08-05 15:46:37</time>
      </trkpt>
      <trkpt lat="37.06039" lon="-3.37156">
        <ele>3114.8</ele>
        <time>2021-08-05 15:46:38</time>
      </trkpt>
      <trkpt lat="37.06038" lon="-3.37156">
        <ele>3114.8</ele>
        <time>2021-08-05 15:46:39</time>
      </trkpt>
      <trkpt lat="37.06037" lon="-3.37156">
        <ele>3115</ele>
        <time>2021-08-05 15:46:40</time>
      </trkpt>
      <trkpt lat="37.06037" lon="-3.37156">
        <ele>3115</ele>
        <time>2021-08-05 15:46:41</time>
      </trkpt>
      <trkpt lat="37.06037" lon="-3.37156">
        <ele>3115</ele>
        <time>2021-08-05 15:46:42</time>
      </trkpt>
      <trkpt lat="37.06037" lon="-3.37155">
        <ele>3115</ele>
        <time>2021-08-05 15:46:43</time>
      </trkpt>
      <trkpt lat="37.06036" lon="-3.37154">
        <ele>3115</ele>
        <time>2021-08-05 15:46:44</time>
      </trkpt>
      <trkpt lat="37.06036" lon="-3.37154">
        <ele>3114.8</ele>
        <time>2021-08-05 15:46:45</time>
      </trkpt>
      <trkpt lat="37.06035" lon="-3.37154">
        <ele>3114.8</ele>
        <time>2021-08-05 15:46:46</time>
      </trkpt>
      <trkpt lat="37.06034" lon="-3.37155">
        <ele>3114.6</ele>
        <time>2021-08-05 15:46:47</time>
      </trkpt>
      <trkpt lat="37.06034" lon="-3.37155">
        <ele>3114.6</ele>
        <time>2021-08-05 15:46:48</time>
      </trkpt>
      <trkpt lat="37.06033" lon="-3.37155">
        <ele>3114.6</ele>
        <time>2021-08-05 15:46:49</time>
      </trkpt>
      <trkpt lat="37.06032" lon="-3.37155">
        <ele>3114.8</ele>
        <time>2021-08-05 15:46:50</time>
      </trkpt>
      <trkpt lat="37.06031" lon="-3.37155">
        <ele>3114.8</ele>
        <time>2021-08-05 15:46:51</time>
      </trkpt>
      <trkpt lat="37.0603" lon="-3.37156">
        <ele>3115</ele>
        <time>2021-08-05 15:46:52</time>
      </trkpt>
      <trkpt lat="37.0603" lon="-3.37157">
        <ele>3115</ele>
        <time>2021-08-05 15:46:53</time>
      </trkpt>
      <trkpt lat="37.06029" lon="-3.37158">
        <ele>3115</ele>
        <time>2021-08-05 15:46:54</time>
      </trkpt>
      <trkpt lat="37.06029" lon="-3.37158">
        <ele>3115</ele>
        <time>2021-08-05 15:46:55</time>
      </trkpt>
      <trkpt lat="37.06028" lon="-3.37158">
        <ele>3115</ele>
        <time>2021-08-05 15:46:56</time>
      </trkpt>
      <trkpt lat="37.06028" lon="-3.37158">
        <ele>3115.2</ele>
        <time>2021-08-05 15:46:57</time>
      </trkpt>
      <trkpt lat="37.06028" lon="-3.37159">
        <ele>3115.2</ele>
        <time>2021-08-05 15:46:58</time>
      </trkpt>
      <trkpt lat="37.06027" lon="-3.37159">
        <ele>3115.4</ele>
        <time>2021-08-05 15:46:59</time>
      </trkpt>
      <trkpt lat="37.06027" lon="-3.37159">
        <ele>3115.4</ele>
        <time>2021-08-05 15:47:00</time>
      </trkpt>
      <trkpt lat="37.06026" lon="-3.37159">
        <ele>3115.4</ele>
        <time>2021-08-05 15:47:01</time>
      </trkpt>
      <trkpt lat="37.06026" lon="-3.37159">
        <ele>3115.6</ele>
        <time>2021-08-05 15:47:02</time>
      </trkpt>
      <trkpt lat="37.06026" lon="-3.37159">
        <ele>3115.6</ele>
        <time>2021-08-05 15:47:03</time>
      </trkpt>
      <trkpt lat="37.06025" lon="-3.37159">
        <ele>3115.6</ele>
        <time>2021-08-05 15:47:04</time>
      </trkpt>
      <trkpt lat="37.06025" lon="-3.37159">
        <ele>3115.6</ele>
        <time>2021-08-05 15:47:05</time>
      </trkpt>
      <trkpt lat="37.06024" lon="-3.37159">
        <ele>3115.6</ele>
        <time>2021-08-05 15:47:06</time>
      </trkpt>
      <trkpt lat="37.06024" lon="-3.37159">
        <ele>3115.6</ele>
        <time>2021-08-05 15:47:07</time>
      </trkpt>
      <trkpt lat="37.06022" lon="-3.3716">
        <ele>3115.6</ele>
        <time>2021-08-05 15:47:08</time>
      </trkpt>
      <trkpt lat="37.06022" lon="-3.3716">
        <ele>3115.8</ele>
        <time>2021-08-05 15:47:09</time>
      </trkpt>
      <trkpt lat="37.06021" lon="-3.3716">
        <ele>3115.8</ele>
        <time>2021-08-05 15:47:10</time>
      </trkpt>
      <trkpt lat="37.0602" lon="-3.3716">
        <ele>3115.8</ele>
        <time>2021-08-05 15:47:11</time>
      </trkpt>
      <trkpt lat="37.06019" lon="-3.37161">
        <ele>3116</ele>
        <time>2021-08-05 15:47:12</time>
      </trkpt>
      <trkpt lat="37.06018" lon="-3.37161">
        <ele>3116</ele>
        <time>2021-08-05 15:47:13</time>
      </trkpt>
      <trkpt lat="37.06018" lon="-3.37162">
        <ele>3116</ele>
        <time>2021-08-05 15:47:14</time>
      </trkpt>
      <trkpt lat="37.06016" lon="-3.37161">
        <ele>3116</ele>
        <time>2021-08-05 15:47:15</time>
      </trkpt>
      <trkpt lat="37.06015" lon="-3.37161">
        <ele>3116</ele>
        <time>2021-08-05 15:47:16</time>
      </trkpt>
      <trkpt lat="37.06014" lon="-3.37162">
        <ele>3116.2</ele>
        <time>2021-08-05 15:47:17</time>
      </trkpt>
      <trkpt lat="37.06013" lon="-3.37162">
        <ele>3116.2</ele>
        <time>2021-08-05 15:47:18</time>
      </trkpt>
      <trkpt lat="37.06012" lon="-3.37163">
        <ele>3116.4</ele>
        <time>2021-08-05 15:47:19</time>
      </trkpt>
      <trkpt lat="37.06011" lon="-3.37164">
        <ele>3116.4</ele>
        <time>2021-08-05 15:47:20</time>
      </trkpt>
      <trkpt lat="37.0601" lon="-3.37165">
        <ele>3116.6</ele>
        <time>2021-08-05 15:47:21</time>
      </trkpt>
      <trkpt lat="37.06009" lon="-3.37166">
        <ele>3116.6</ele>
        <time>2021-08-05 15:47:22</time>
      </trkpt>
      <trkpt lat="37.06009" lon="-3.37166">
        <ele>3116.8</ele>
        <time>2021-08-05 15:47:23</time>
      </trkpt>
      <trkpt lat="37.06008" lon="-3.37166">
        <ele>3117</ele>
        <time>2021-08-05 15:47:24</time>
      </trkpt>
      <trkpt lat="37.06008" lon="-3.37166">
        <ele>3117.2</ele>
        <time>2021-08-05 15:47:25</time>
      </trkpt>
      <trkpt lat="37.06007" lon="-3.37167">
        <ele>3117.2</ele>
        <time>2021-08-05 15:47:26</time>
      </trkpt>
      <trkpt lat="37.06007" lon="-3.37167">
        <ele>3117.2</ele>
        <time>2021-08-05 15:47:27</time>
      </trkpt>
      <trkpt lat="37.06006" lon="-3.37168">
        <ele>3117.2</ele>
        <time>2021-08-05 15:47:28</time>
      </trkpt>
      <trkpt lat="37.06005" lon="-3.37168">
        <ele>3117.2</ele>
        <time>2021-08-05 15:47:29</time>
      </trkpt>
      <trkpt lat="37.06005" lon="-3.37169">
        <ele>3117.2</ele>
        <time>2021-08-05 15:47:30</time>
      </trkpt>
      <trkpt lat="37.06004" lon="-3.37169">
        <ele>3117.2</ele>
        <time>2021-08-05 15:47:31</time>
      </trkpt>
      <trkpt lat="37.06004" lon="-3.3717">
        <ele>3117.4</ele>
        <time>2021-08-05 15:47:32</time>
      </trkpt>
      <trkpt lat="37.06003" lon="-3.3717">
        <ele>3117.4</ele>
        <time>2021-08-05 15:47:33</time>
      </trkpt>
      <trkpt lat="37.06003" lon="-3.3717">
        <ele>3117.6</ele>
        <time>2021-08-05 15:47:34</time>
      </trkpt>
      <trkpt lat="37.06002" lon="-3.3717">
        <ele>3117.6</ele>
        <time>2021-08-05 15:47:35</time>
      </trkpt>
      <trkpt lat="37.06002" lon="-3.3717">
        <ele>3117.6</ele>
        <time>2021-08-05 15:47:36</time>
      </trkpt>
      <trkpt lat="37.06001" lon="-3.37169">
        <ele>3117.8</ele>
        <time>2021-08-05 15:47:37</time>
      </trkpt>
      <trkpt lat="37.06" lon="-3.37169">
        <ele>3117.8</ele>
        <time>2021-08-05 15:47:38</time>
      </trkpt>
      <trkpt lat="37.05999" lon="-3.37169">
        <ele>3118</ele>
        <time>2021-08-05 15:47:39</time>
      </trkpt>
      <trkpt lat="37.05998" lon="-3.37169">
        <ele>3118</ele>
        <time>2021-08-05 15:47:40</time>
      </trkpt>
      <trkpt lat="37.05997" lon="-3.3717">
        <ele>3118</ele>
        <time>2021-08-05 15:47:41</time>
      </trkpt>
      <trkpt lat="37.05996" lon="-3.37169">
        <ele>3118</ele>
        <time>2021-08-05 15:47:42</time>
      </trkpt>
      <trkpt lat="37.05995" lon="-3.37169">
        <ele>3117.8</ele>
        <time>2021-08-05 15:47:43</time>
      </trkpt>
      <trkpt lat="37.05994" lon="-3.37169">
        <ele>3117.8</ele>
        <time>2021-08-05 15:47:44</time>
      </trkpt>
      <trkpt lat="37.05993" lon="-3.37169">
        <ele>3117.8</ele>
        <time>2021-08-05 15:47:45</time>
      </trkpt>
      <trkpt lat="37.05993" lon="-3.37169">
        <ele>3117.8</ele>
        <time>2021-08-05 15:47:46</time>
      </trkpt>
      <trkpt lat="37.05992" lon="-3.3717">
        <ele>3118.2</ele>
        <time>2021-08-05 15:47:47</time>
      </trkpt>
      <trkpt lat="37.05991" lon="-3.3717">
        <ele>3118.4</ele>
        <time>2021-08-05 15:47:48</time>
      </trkpt>
      <trkpt lat="37.0599" lon="-3.3717">
        <ele>3118.6</ele>
        <time>2021-08-05 15:47:49</time>
      </trkpt>
      <trkpt lat="37.0599" lon="-3.3717">
        <ele>3118.8</ele>
        <time>2021-08-05 15:47:50</time>
      </trkpt>
      <trkpt lat="37.05989" lon="-3.37171">
        <ele>3119</ele>
        <time>2021-08-05 15:47:51</time>
      </trkpt>
      <trkpt lat="37.05989" lon="-3.37172">
        <ele>3119</ele>
        <time>2021-08-05 15:47:52</time>
      </trkpt>
      <trkpt lat="37.05988" lon="-3.37173">
        <ele>3119.2</ele>
        <time>2021-08-05 15:47:53</time>
      </trkpt>
      <trkpt lat="37.05987" lon="-3.37173">
        <ele>3119.2</ele>
        <time>2021-08-05 15:47:54</time>
      </trkpt>
      <trkpt lat="37.05986" lon="-3.37174">
        <ele>3119.4</ele>
        <time>2021-08-05 15:47:55</time>
      </trkpt>
      <trkpt lat="37.05986" lon="-3.37175">
        <ele>3119.4</ele>
        <time>2021-08-05 15:47:56</time>
      </trkpt>
      <trkpt lat="37.05985" lon="-3.37175">
        <ele>3119.4</ele>
        <time>2021-08-05 15:47:57</time>
      </trkpt>
      <trkpt lat="37.05984" lon="-3.37176">
        <ele>3119.4</ele>
        <time>2021-08-05 15:47:58</time>
      </trkpt>
      <trkpt lat="37.05983" lon="-3.37177">
        <ele>3119.6</ele>
        <time>2021-08-05 15:47:59</time>
      </trkpt>
      <trkpt lat="37.05983" lon="-3.37177">
        <ele>3119.6</ele>
        <time>2021-08-05 15:48:00</time>
      </trkpt>
      <trkpt lat="37.05982" lon="-3.37178">
        <ele>3119.6</ele>
        <time>2021-08-05 15:48:01</time>
      </trkpt>
      <trkpt lat="37.05981" lon="-3.37178">
        <ele>3119.8</ele>
        <time>2021-08-05 15:48:02</time>
      </trkpt>
      <trkpt lat="37.0598" lon="-3.37179">
        <ele>3119.8</ele>
        <time>2021-08-05 15:48:03</time>
      </trkpt>
      <trkpt lat="37.05979" lon="-3.37179">
        <ele>3119.8</ele>
        <time>2021-08-05 15:48:04</time>
      </trkpt>
      <trkpt lat="37.05978" lon="-3.37179">
        <ele>3119.8</ele>
        <time>2021-08-05 15:48:05</time>
      </trkpt>
      <trkpt lat="37.05978" lon="-3.3718">
        <ele>3119.8</ele>
        <time>2021-08-05 15:48:06</time>
      </trkpt>
      <trkpt lat="37.05977" lon="-3.37181">
        <ele>3119.8</ele>
        <time>2021-08-05 15:48:07</time>
      </trkpt>
      <trkpt lat="37.05977" lon="-3.37181">
        <ele>3120</ele>
        <time>2021-08-05 15:48:08</time>
      </trkpt>
      <trkpt lat="37.05976" lon="-3.37181">
        <ele>3120</ele>
        <time>2021-08-05 15:48:09</time>
      </trkpt>
      <trkpt lat="37.05975" lon="-3.37181">
        <ele>3120</ele>
        <time>2021-08-05 15:48:10</time>
      </trkpt>
      <trkpt lat="37.05975" lon="-3.3718">
        <ele>3120</ele>
        <time>2021-08-05 15:48:11</time>
      </trkpt>
      <trkpt lat="37.05974" lon="-3.3718">
        <ele>3120.2</ele>
        <time>2021-08-05 15:48:12</time>
      </trkpt>
      <trkpt lat="37.05974" lon="-3.3718">
        <ele>3120.2</ele>
        <time>2021-08-05 15:48:13</time>
      </trkpt>
      <trkpt lat="37.05973" lon="-3.3718">
        <ele>3120.4</ele>
        <time>2021-08-05 15:48:14</time>
      </trkpt>
      <trkpt lat="37.05972" lon="-3.3718">
        <ele>3120.4</ele>
        <time>2021-08-05 15:48:15</time>
      </trkpt>
      <trkpt lat="37.05971" lon="-3.37179">
        <ele>3120.8</ele>
        <time>2021-08-05 15:48:16</time>
      </trkpt>
      <trkpt lat="37.05971" lon="-3.37178">
        <ele>3120.8</ele>
        <time>2021-08-05 15:48:17</time>
      </trkpt>
      <trkpt lat="37.0597" lon="-3.37179">
        <ele>3120.8</ele>
        <time>2021-08-05 15:48:18</time>
      </trkpt>
      <trkpt lat="37.05969" lon="-3.37178">
        <ele>3121</ele>
        <time>2021-08-05 15:48:19</time>
      </trkpt>
      <trkpt lat="37.05969" lon="-3.37178">
        <ele>3121</ele>
        <time>2021-08-05 15:48:20</time>
      </trkpt>
      <trkpt lat="37.05968" lon="-3.37178">
        <ele>3121.2</ele>
        <time>2021-08-05 15:48:21</time>
      </trkpt>
      <trkpt lat="37.05967" lon="-3.37178">
        <ele>3121.2</ele>
        <time>2021-08-05 15:48:22</time>
      </trkpt>
      <trkpt lat="37.05966" lon="-3.37178">
        <ele>3121.2</ele>
        <time>2021-08-05 15:48:23</time>
      </trkpt>
      <trkpt lat="37.05966" lon="-3.37178">
        <ele>3121.2</ele>
        <time>2021-08-05 15:48:24</time>
      </trkpt>
      <trkpt lat="37.05965" lon="-3.37178">
        <ele>3121.4</ele>
        <time>2021-08-05 15:48:25</time>
      </trkpt>
      <trkpt lat="37.05964" lon="-3.37178">
        <ele>3121.4</ele>
        <time>2021-08-05 15:48:26</time>
      </trkpt>
      <trkpt lat="37.05964" lon="-3.37179">
        <ele>3121.4</ele>
        <time>2021-08-05 15:48:27</time>
      </trkpt>
      <trkpt lat="37.05963" lon="-3.37179">
        <ele>3121.4</ele>
        <time>2021-08-05 15:48:28</time>
      </trkpt>
      <trkpt lat="37.05962" lon="-3.3718">
        <ele>3121.4</ele>
        <time>2021-08-05 15:48:29</time>
      </trkpt>
      <trkpt lat="37.05961" lon="-3.3718">
        <ele>3121.4</ele>
        <time>2021-08-05 15:48:30</time>
      </trkpt>
      <trkpt lat="37.0596" lon="-3.3718">
        <ele>3121.4</ele>
        <time>2021-08-05 15:48:31</time>
      </trkpt>
      <trkpt lat="37.05959" lon="-3.3718">
        <ele>3121.4</ele>
        <time>2021-08-05 15:48:32</time>
      </trkpt>
      <trkpt lat="37.05959" lon="-3.37181">
        <ele>3121.4</ele>
        <time>2021-08-05 15:48:33</time>
      </trkpt>
      <trkpt lat="37.05958" lon="-3.37181">
        <ele>3121.4</ele>
        <time>2021-08-05 15:48:34</time>
      </trkpt>
      <trkpt lat="37.05957" lon="-3.37181">
        <ele>3121.4</ele>
        <time>2021-08-05 15:48:35</time>
      </trkpt>
      <trkpt lat="37.05956" lon="-3.37182">
        <ele>3121.6</ele>
        <time>2021-08-05 15:48:36</time>
      </trkpt>
      <trkpt lat="37.05955" lon="-3.37182">
        <ele>3121.8</ele>
        <time>2021-08-05 15:48:37</time>
      </trkpt>
      <trkpt lat="37.05954" lon="-3.37182">
        <ele>3121.8</ele>
        <time>2021-08-05 15:48:38</time>
      </trkpt>
      <trkpt lat="37.05954" lon="-3.37183">
        <ele>3121.8</ele>
        <time>2021-08-05 15:48:39</time>
      </trkpt>
      <trkpt lat="37.05953" lon="-3.37183">
        <ele>3122</ele>
        <time>2021-08-05 15:48:40</time>
      </trkpt>
      <trkpt lat="37.05952" lon="-3.37183">
        <ele>3122</ele>
        <time>2021-08-05 15:48:41</time>
      </trkpt>
      <trkpt lat="37.05951" lon="-3.37183">
        <ele>3122.2</ele>
        <time>2021-08-05 15:48:42</time>
      </trkpt>
      <trkpt lat="37.0595" lon="-3.37184">
        <ele>3122.2</ele>
        <time>2021-08-05 15:48:43</time>
      </trkpt>
      <trkpt lat="37.0595" lon="-3.37185">
        <ele>3122.4</ele>
        <time>2021-08-05 15:48:44</time>
      </trkpt>
      <trkpt lat="37.05949" lon="-3.37185">
        <ele>3122.4</ele>
        <time>2021-08-05 15:48:45</time>
      </trkpt>
      <trkpt lat="37.05948" lon="-3.37186">
        <ele>3122.4</ele>
        <time>2021-08-05 15:48:46</time>
      </trkpt>
      <trkpt lat="37.05947" lon="-3.37186">
        <ele>3122.4</ele>
        <time>2021-08-05 15:48:47</time>
      </trkpt>
      <trkpt lat="37.05947" lon="-3.37187">
        <ele>3122.2</ele>
        <time>2021-08-05 15:48:48</time>
      </trkpt>
      <trkpt lat="37.05947" lon="-3.37187">
        <ele>3122.2</ele>
        <time>2021-08-05 15:48:49</time>
      </trkpt>
      <trkpt lat="37.05946" lon="-3.37186">
        <ele>3122.2</ele>
        <time>2021-08-05 15:48:50</time>
      </trkpt>
      <trkpt lat="37.05945" lon="-3.37186">
        <ele>3122.2</ele>
        <time>2021-08-05 15:48:51</time>
      </trkpt>
      <trkpt lat="37.05944" lon="-3.37185">
        <ele>3122.2</ele>
        <time>2021-08-05 15:48:52</time>
      </trkpt>
      <trkpt lat="37.05943" lon="-3.37184">
        <ele>3122.2</ele>
        <time>2021-08-05 15:48:53</time>
      </trkpt>
      <trkpt lat="37.05942" lon="-3.37184">
        <ele>3122.2</ele>
        <time>2021-08-05 15:48:54</time>
      </trkpt>
      <trkpt lat="37.05942" lon="-3.37185">
        <ele>3122.2</ele>
        <time>2021-08-05 15:48:55</time>
      </trkpt>
      <trkpt lat="37.05941" lon="-3.37185">
        <ele>3122.4</ele>
        <time>2021-08-05 15:48:56</time>
      </trkpt>
      <trkpt lat="37.05941" lon="-3.37185">
        <ele>3122.4</ele>
        <time>2021-08-05 15:48:57</time>
      </trkpt>
      <trkpt lat="37.0594" lon="-3.37185">
        <ele>3122.4</ele>
        <time>2021-08-05 15:48:58</time>
      </trkpt>
      <trkpt lat="37.05939" lon="-3.37185">
        <ele>3122.4</ele>
        <time>2021-08-05 15:48:59</time>
      </trkpt>
      <trkpt lat="37.05938" lon="-3.37186">
        <ele>3122.4</ele>
        <time>2021-08-05 15:49:00</time>
      </trkpt>
      <trkpt lat="37.05938" lon="-3.37187">
        <ele>3122.4</ele>
        <time>2021-08-05 15:49:01</time>
      </trkpt>
      <trkpt lat="37.05937" lon="-3.37188">
        <ele>3122.6</ele>
        <time>2021-08-05 15:49:02</time>
      </trkpt>
      <trkpt lat="37.05936" lon="-3.37188">
        <ele>3122.6</ele>
        <time>2021-08-05 15:49:03</time>
      </trkpt>
      <trkpt lat="37.05935" lon="-3.37189">
        <ele>3122.8</ele>
        <time>2021-08-05 15:49:04</time>
      </trkpt>
      <trkpt lat="37.05934" lon="-3.37189">
        <ele>3122.8</ele>
        <time>2021-08-05 15:49:05</time>
      </trkpt>
      <trkpt lat="37.05933" lon="-3.3719">
        <ele>3122.6</ele>
        <time>2021-08-05 15:49:06</time>
      </trkpt>
      <trkpt lat="37.05932" lon="-3.3719">
        <ele>3122.8</ele>
        <time>2021-08-05 15:49:07</time>
      </trkpt>
      <trkpt lat="37.05931" lon="-3.3719">
        <ele>3123</ele>
        <time>2021-08-05 15:49:08</time>
      </trkpt>
      <trkpt lat="37.0593" lon="-3.37191">
        <ele>3123.2</ele>
        <time>2021-08-05 15:49:09</time>
      </trkpt>
      <trkpt lat="37.0593" lon="-3.37192">
        <ele>3123.2</ele>
        <time>2021-08-05 15:49:10</time>
      </trkpt>
      <trkpt lat="37.05929" lon="-3.37193">
        <ele>3123.4</ele>
        <time>2021-08-05 15:49:11</time>
      </trkpt>
      <trkpt lat="37.05929" lon="-3.37193">
        <ele>3123.8</ele>
        <time>2021-08-05 15:49:12</time>
      </trkpt>
      <trkpt lat="37.05928" lon="-3.37194">
        <ele>3124</ele>
        <time>2021-08-05 15:49:13</time>
      </trkpt>
      <trkpt lat="37.05927" lon="-3.37194">
        <ele>3124</ele>
        <time>2021-08-05 15:49:14</time>
      </trkpt>
      <trkpt lat="37.05927" lon="-3.37194">
        <ele>3124</ele>
        <time>2021-08-05 15:49:15</time>
      </trkpt>
      <trkpt lat="37.05926" lon="-3.37193">
        <ele>3124</ele>
        <time>2021-08-05 15:49:16</time>
      </trkpt>
      <trkpt lat="37.05926" lon="-3.37194">
        <ele>3123.8</ele>
        <time>2021-08-05 15:49:17</time>
      </trkpt>
      <trkpt lat="37.05925" lon="-3.37194">
        <ele>3123.8</ele>
        <time>2021-08-05 15:49:18</time>
      </trkpt>
      <trkpt lat="37.05925" lon="-3.37195">
        <ele>3123.8</ele>
        <time>2021-08-05 15:49:19</time>
      </trkpt>
      <trkpt lat="37.05924" lon="-3.37196">
        <ele>3124</ele>
        <time>2021-08-05 15:49:20</time>
      </trkpt>
      <trkpt lat="37.05924" lon="-3.37196">
        <ele>3124</ele>
        <time>2021-08-05 15:49:21</time>
      </trkpt>
      <trkpt lat="37.05923" lon="-3.37197">
        <ele>3124</ele>
        <time>2021-08-05 15:49:22</time>
      </trkpt>
      <trkpt lat="37.05922" lon="-3.37197">
        <ele>3124.2</ele>
        <time>2021-08-05 15:49:23</time>
      </trkpt>
      <trkpt lat="37.05921" lon="-3.37197">
        <ele>3124.2</ele>
        <time>2021-08-05 15:49:24</time>
      </trkpt>
      <trkpt lat="37.05921" lon="-3.37198">
        <ele>3124.6</ele>
        <time>2021-08-05 15:49:25</time>
      </trkpt>
      <trkpt lat="37.0592" lon="-3.37198">
        <ele>3124.8</ele>
        <time>2021-08-05 15:49:26</time>
      </trkpt>
      <trkpt lat="37.05919" lon="-3.37199">
        <ele>3125</ele>
        <time>2021-08-05 15:49:27</time>
      </trkpt>
      <trkpt lat="37.05919" lon="-3.372">
        <ele>3125</ele>
        <time>2021-08-05 15:49:28</time>
      </trkpt>
      <trkpt lat="37.05918" lon="-3.37201">
        <ele>3125.2</ele>
        <time>2021-08-05 15:49:29</time>
      </trkpt>
      <trkpt lat="37.05918" lon="-3.37201">
        <ele>3125.2</ele>
        <time>2021-08-05 15:49:30</time>
      </trkpt>
      <trkpt lat="37.05917" lon="-3.37202">
        <ele>3125</ele>
        <time>2021-08-05 15:49:31</time>
      </trkpt>
      <trkpt lat="37.05916" lon="-3.37203">
        <ele>3125</ele>
        <time>2021-08-05 15:49:32</time>
      </trkpt>
      <trkpt lat="37.05915" lon="-3.37204">
        <ele>3125</ele>
        <time>2021-08-05 15:49:33</time>
      </trkpt>
      <trkpt lat="37.05915" lon="-3.37205">
        <ele>3125</ele>
        <time>2021-08-05 15:49:34</time>
      </trkpt>
      <trkpt lat="37.05914" lon="-3.37205">
        <ele>3125</ele>
        <time>2021-08-05 15:49:35</time>
      </trkpt>
      <trkpt lat="37.05913" lon="-3.37206">
        <ele>3125.6</ele>
        <time>2021-08-05 15:49:36</time>
      </trkpt>
      <trkpt lat="37.05912" lon="-3.37206">
        <ele>3125.8</ele>
        <time>2021-08-05 15:49:37</time>
      </trkpt>
      <trkpt lat="37.05911" lon="-3.37207">
        <ele>3126</ele>
        <time>2021-08-05 15:49:38</time>
      </trkpt>
      <trkpt lat="37.0591" lon="-3.37207">
        <ele>3126.2</ele>
        <time>2021-08-05 15:49:39</time>
      </trkpt>
      <trkpt lat="37.05909" lon="-3.37207">
        <ele>3126.2</ele>
        <time>2021-08-05 15:49:40</time>
      </trkpt>
      <trkpt lat="37.05909" lon="-3.37208">
        <ele>3126.2</ele>
        <time>2021-08-05 15:49:41</time>
      </trkpt>
      <trkpt lat="37.05908" lon="-3.37208">
        <ele>3126.2</ele>
        <time>2021-08-05 15:49:42</time>
      </trkpt>
      <trkpt lat="37.05908" lon="-3.37208">
        <ele>3126.4</ele>
        <time>2021-08-05 15:49:43</time>
      </trkpt>
      <trkpt lat="37.05907" lon="-3.37209">
        <ele>3126.4</ele>
        <time>2021-08-05 15:49:44</time>
      </trkpt>
      <trkpt lat="37.05906" lon="-3.37209">
        <ele>3126.4</ele>
        <time>2021-08-05 15:49:45</time>
      </trkpt>
      <trkpt lat="37.05906" lon="-3.37208">
        <ele>3126.4</ele>
        <time>2021-08-05 15:49:46</time>
      </trkpt>
      <trkpt lat="37.05905" lon="-3.37208">
        <ele>3126.4</ele>
        <time>2021-08-05 15:49:47</time>
      </trkpt>
      <trkpt lat="37.05904" lon="-3.37208">
        <ele>3126.4</ele>
        <time>2021-08-05 15:49:48</time>
      </trkpt>
      <trkpt lat="37.05904" lon="-3.37207">
        <ele>3126.4</ele>
        <time>2021-08-05 15:49:49</time>
      </trkpt>
      <trkpt lat="37.05903" lon="-3.37207">
        <ele>3126.4</ele>
        <time>2021-08-05 15:49:50</time>
      </trkpt>
      <trkpt lat="37.05902" lon="-3.37207">
        <ele>3126.4</ele>
        <time>2021-08-05 15:49:51</time>
      </trkpt>
      <trkpt lat="37.05901" lon="-3.37208">
        <ele>3126.6</ele>
        <time>2021-08-05 15:49:52</time>
      </trkpt>
      <trkpt lat="37.05901" lon="-3.37208">
        <ele>3126.6</ele>
        <time>2021-08-05 15:49:53</time>
      </trkpt>
      <trkpt lat="37.059" lon="-3.37208">
        <ele>3126.6</ele>
        <time>2021-08-05 15:49:54</time>
      </trkpt>
      <trkpt lat="37.059" lon="-3.37209">
        <ele>3126.8</ele>
        <time>2021-08-05 15:49:55</time>
      </trkpt>
      <trkpt lat="37.05899" lon="-3.37209">
        <ele>3126.8</ele>
        <time>2021-08-05 15:49:56</time>
      </trkpt>
      <trkpt lat="37.05898" lon="-3.37209">
        <ele>3127</ele>
        <time>2021-08-05 15:49:57</time>
      </trkpt>
      <trkpt lat="37.05898" lon="-3.37209">
        <ele>3127</ele>
        <time>2021-08-05 15:49:58</time>
      </trkpt>
      <trkpt lat="37.05897" lon="-3.37209">
        <ele>3127.2</ele>
        <time>2021-08-05 15:49:59</time>
      </trkpt>
      <trkpt lat="37.05897" lon="-3.3721">
        <ele>3127.2</ele>
        <time>2021-08-05 15:50:00</time>
      </trkpt>
      <trkpt lat="37.05896" lon="-3.37211">
        <ele>3127.2</ele>
        <time>2021-08-05 15:50:01</time>
      </trkpt>
      <trkpt lat="37.05896" lon="-3.37211">
        <ele>3127</ele>
        <time>2021-08-05 15:50:02</time>
      </trkpt>
      <trkpt lat="37.05895" lon="-3.37211">
        <ele>3127</ele>
        <time>2021-08-05 15:50:03</time>
      </trkpt>
      <trkpt lat="37.05894" lon="-3.3721">
        <ele>3127</ele>
        <time>2021-08-05 15:50:04</time>
      </trkpt>
      <trkpt lat="37.05893" lon="-3.3721">
        <ele>3127.2</ele>
        <time>2021-08-05 15:50:05</time>
      </trkpt>
      <trkpt lat="37.05892" lon="-3.3721">
        <ele>3127.4</ele>
        <time>2021-08-05 15:50:06</time>
      </trkpt>
      <trkpt lat="37.05892" lon="-3.37211">
        <ele>3127.6</ele>
        <time>2021-08-05 15:50:07</time>
      </trkpt>
      <trkpt lat="37.05891" lon="-3.37212">
        <ele>3127.8</ele>
        <time>2021-08-05 15:50:08</time>
      </trkpt>
      <trkpt lat="37.05891" lon="-3.37212">
        <ele>3127.8</ele>
        <time>2021-08-05 15:50:09</time>
      </trkpt>
      <trkpt lat="37.0589" lon="-3.37215">
        <ele>3127.8</ele>
        <time>2021-08-05 15:50:10</time>
      </trkpt>
      <trkpt lat="37.0589" lon="-3.37215">
        <ele>3127.8</ele>
        <time>2021-08-05 15:50:11</time>
      </trkpt>
      <trkpt lat="37.05888" lon="-3.37216">
        <ele>3127.8</ele>
        <time>2021-08-05 15:50:12</time>
      </trkpt>
      <trkpt lat="37.05888" lon="-3.37217">
        <ele>3127.6</ele>
        <time>2021-08-05 15:50:13</time>
      </trkpt>
      <trkpt lat="37.05888" lon="-3.37217">
        <ele>3127.6</ele>
        <time>2021-08-05 15:50:14</time>
      </trkpt>
      <trkpt lat="37.05886" lon="-3.37218">
        <ele>3127.4</ele>
        <time>2021-08-05 15:50:15</time>
      </trkpt>
      <trkpt lat="37.05885" lon="-3.37218">
        <ele>3127.4</ele>
        <time>2021-08-05 15:50:16</time>
      </trkpt>
      <trkpt lat="37.05885" lon="-3.37218">
        <ele>3127.4</ele>
        <time>2021-08-05 15:50:17</time>
      </trkpt>
      <trkpt lat="37.05884" lon="-3.37218">
        <ele>3127.2</ele>
        <time>2021-08-05 15:50:18</time>
      </trkpt>
      <trkpt lat="37.05884" lon="-3.37218">
        <ele>3127.2</ele>
        <time>2021-08-05 15:50:19</time>
      </trkpt>
      <trkpt lat="37.05883" lon="-3.37218">
        <ele>3127.2</ele>
        <time>2021-08-05 15:50:20</time>
      </trkpt>
      <trkpt lat="37.05883" lon="-3.37217">
        <ele>3127.2</ele>
        <time>2021-08-05 15:50:21</time>
      </trkpt>
      <trkpt lat="37.05883" lon="-3.37217">
        <ele>3127.2</ele>
        <time>2021-08-05 15:50:22</time>
      </trkpt>
      <trkpt lat="37.05882" lon="-3.37216">
        <ele>3127</ele>
        <time>2021-08-05 15:50:23</time>
      </trkpt>
      <trkpt lat="37.05881" lon="-3.37216">
        <ele>3127</ele>
        <time>2021-08-05 15:50:24</time>
      </trkpt>
      <trkpt lat="37.0588" lon="-3.37216">
        <ele>3127.2</ele>
        <time>2021-08-05 15:50:25</time>
      </trkpt>
      <trkpt lat="37.05879" lon="-3.37217">
        <ele>3127.6</ele>
        <time>2021-08-05 15:50:26</time>
      </trkpt>
      <trkpt lat="37.05878" lon="-3.37216">
        <ele>3127.8</ele>
        <time>2021-08-05 15:50:27</time>
      </trkpt>
      <trkpt lat="37.05878" lon="-3.37216">
        <ele>3128</ele>
        <time>2021-08-05 15:50:28</time>
      </trkpt>
      <trkpt lat="37.05876" lon="-3.37217">
        <ele>3128.2</ele>
        <time>2021-08-05 15:50:29</time>
      </trkpt>
      <trkpt lat="37.05875" lon="-3.37217">
        <ele>3128.2</ele>
        <time>2021-08-05 15:50:30</time>
      </trkpt>
      <trkpt lat="37.05874" lon="-3.37217">
        <ele>3128.4</ele>
        <time>2021-08-05 15:50:31</time>
      </trkpt>
      <trkpt lat="37.05873" lon="-3.37217">
        <ele>3128.6</ele>
        <time>2021-08-05 15:50:32</time>
      </trkpt>
      <trkpt lat="37.05873" lon="-3.37218">
        <ele>3128.6</ele>
        <time>2021-08-05 15:50:33</time>
      </trkpt>
      <trkpt lat="37.05872" lon="-3.37219">
        <ele>3128.8</ele>
        <time>2021-08-05 15:50:34</time>
      </trkpt>
      <trkpt lat="37.05872" lon="-3.3722">
        <ele>3128.8</ele>
        <time>2021-08-05 15:50:35</time>
      </trkpt>
      <trkpt lat="37.05871" lon="-3.3722">
        <ele>3128.8</ele>
        <time>2021-08-05 15:50:36</time>
      </trkpt>
      <trkpt lat="37.05871" lon="-3.37221">
        <ele>3129</ele>
        <time>2021-08-05 15:50:37</time>
      </trkpt>
      <trkpt lat="37.05871" lon="-3.37221">
        <ele>3129.2</ele>
        <time>2021-08-05 15:50:38</time>
      </trkpt>
      <trkpt lat="37.0587" lon="-3.37221">
        <ele>3129.4</ele>
        <time>2021-08-05 15:50:39</time>
      </trkpt>
      <trkpt lat="37.0587" lon="-3.37222">
        <ele>3129.4</ele>
        <time>2021-08-05 15:50:40</time>
      </trkpt>
      <trkpt lat="37.05869" lon="-3.37222">
        <ele>3129.4</ele>
        <time>2021-08-05 15:50:41</time>
      </trkpt>
      <trkpt lat="37.05868" lon="-3.37222">
        <ele>3129.4</ele>
        <time>2021-08-05 15:50:42</time>
      </trkpt>
      <trkpt lat="37.05868" lon="-3.37222">
        <ele>3129.4</ele>
        <time>2021-08-05 15:50:43</time>
      </trkpt>
      <trkpt lat="37.05866" lon="-3.37222">
        <ele>3129.6</ele>
        <time>2021-08-05 15:50:44</time>
      </trkpt>
      <trkpt lat="37.05865" lon="-3.37222">
        <ele>3129.8</ele>
        <time>2021-08-05 15:50:45</time>
      </trkpt>
      <trkpt lat="37.05864" lon="-3.37223">
        <ele>3129.8</ele>
        <time>2021-08-05 15:50:46</time>
      </trkpt>
      <trkpt lat="37.05863" lon="-3.37223">
        <ele>3129.8</ele>
        <time>2021-08-05 15:50:47</time>
      </trkpt>
      <trkpt lat="37.05862" lon="-3.37223">
        <ele>3129.8</ele>
        <time>2021-08-05 15:50:48</time>
      </trkpt>
      <trkpt lat="37.05862" lon="-3.37223">
        <ele>3130</ele>
        <time>2021-08-05 15:50:49</time>
      </trkpt>
      <trkpt lat="37.05861" lon="-3.37224">
        <ele>3130</ele>
        <time>2021-08-05 15:50:50</time>
      </trkpt>
      <trkpt lat="37.0586" lon="-3.37224">
        <ele>3130</ele>
        <time>2021-08-05 15:50:51</time>
      </trkpt>
      <trkpt lat="37.0586" lon="-3.37223">
        <ele>3130</ele>
        <time>2021-08-05 15:50:52</time>
      </trkpt>
      <trkpt lat="37.05859" lon="-3.37224">
        <ele>3130</ele>
        <time>2021-08-05 15:50:53</time>
      </trkpt>
      <trkpt lat="37.05858" lon="-3.37224">
        <ele>3130.4</ele>
        <time>2021-08-05 15:50:54</time>
      </trkpt>
      <trkpt lat="37.05857" lon="-3.37224">
        <ele>3130.6</ele>
        <time>2021-08-05 15:50:55</time>
      </trkpt>
      <trkpt lat="37.05856" lon="-3.37224">
        <ele>3130.8</ele>
        <time>2021-08-05 15:50:56</time>
      </trkpt>
      <trkpt lat="37.05855" lon="-3.37224">
        <ele>3131</ele>
        <time>2021-08-05 15:50:57</time>
      </trkpt>
      <trkpt lat="37.05854" lon="-3.37224">
        <ele>3131</ele>
        <time>2021-08-05 15:50:58</time>
      </trkpt>
      <trkpt lat="37.05854" lon="-3.37224">
        <ele>3131</ele>
        <time>2021-08-05 15:50:59</time>
      </trkpt>
      <trkpt lat="37.05853" lon="-3.37224">
        <ele>3131</ele>
        <time>2021-08-05 15:51:00</time>
      </trkpt>
      <trkpt lat="37.05852" lon="-3.37223">
        <ele>3131</ele>
        <time>2021-08-05 15:51:01</time>
      </trkpt>
      <trkpt lat="37.05851" lon="-3.37223">
        <ele>3131.4</ele>
        <time>2021-08-05 15:51:02</time>
      </trkpt>
      <trkpt lat="37.0585" lon="-3.37223">
        <ele>3131.4</ele>
        <time>2021-08-05 15:51:03</time>
      </trkpt>
      <trkpt lat="37.0585" lon="-3.37223">
        <ele>3131.6</ele>
        <time>2021-08-05 15:51:04</time>
      </trkpt>
      <trkpt lat="37.05849" lon="-3.37223">
        <ele>3131.8</ele>
        <time>2021-08-05 15:51:05</time>
      </trkpt>
      <trkpt lat="37.05848" lon="-3.37223">
        <ele>3131.8</ele>
        <time>2021-08-05 15:51:06</time>
      </trkpt>
      <trkpt lat="37.05847" lon="-3.37223">
        <ele>3131.8</ele>
        <time>2021-08-05 15:51:07</time>
      </trkpt>
      <trkpt lat="37.05846" lon="-3.37223">
        <ele>3131.8</ele>
        <time>2021-08-05 15:51:08</time>
      </trkpt>
      <trkpt lat="37.05846" lon="-3.37224">
        <ele>3131.8</ele>
        <time>2021-08-05 15:51:09</time>
      </trkpt>
      <trkpt lat="37.05845" lon="-3.37225">
        <ele>3131.8</ele>
        <time>2021-08-05 15:51:10</time>
      </trkpt>
      <trkpt lat="37.05844" lon="-3.37225">
        <ele>3131.8</ele>
        <time>2021-08-05 15:51:11</time>
      </trkpt>
      <trkpt lat="37.05843" lon="-3.37225">
        <ele>3132</ele>
        <time>2021-08-05 15:51:12</time>
      </trkpt>
      <trkpt lat="37.05843" lon="-3.37225">
        <ele>3132</ele>
        <time>2021-08-05 15:51:13</time>
      </trkpt>
      <trkpt lat="37.05841" lon="-3.37226">
        <ele>3132</ele>
        <time>2021-08-05 15:51:14</time>
      </trkpt>
      <trkpt lat="37.0584" lon="-3.37226">
        <ele>3132</ele>
        <time>2021-08-05 15:51:15</time>
      </trkpt>
      <trkpt lat="37.0584" lon="-3.37226">
        <ele>3132.2</ele>
        <time>2021-08-05 15:51:16</time>
      </trkpt>
      <trkpt lat="37.05839" lon="-3.37226">
        <ele>3132.4</ele>
        <time>2021-08-05 15:51:17</time>
      </trkpt>
      <trkpt lat="37.05839" lon="-3.37226">
        <ele>3132.4</ele>
        <time>2021-08-05 15:51:18</time>
      </trkpt>
      <trkpt lat="37.05838" lon="-3.37226">
        <ele>3132.6</ele>
        <time>2021-08-05 15:51:19</time>
      </trkpt>
      <trkpt lat="37.05837" lon="-3.37226">
        <ele>3132.6</ele>
        <time>2021-08-05 15:51:20</time>
      </trkpt>
      <trkpt lat="37.05836" lon="-3.37227">
        <ele>3132.6</ele>
        <time>2021-08-05 15:51:21</time>
      </trkpt>
      <trkpt lat="37.05836" lon="-3.37227">
        <ele>3132.6</ele>
        <time>2021-08-05 15:51:22</time>
      </trkpt>
      <trkpt lat="37.05835" lon="-3.37226">
        <ele>3132.6</ele>
        <time>2021-08-05 15:51:23</time>
      </trkpt>
      <trkpt lat="37.05834" lon="-3.37226">
        <ele>3132.6</ele>
        <time>2021-08-05 15:51:24</time>
      </trkpt>
      <trkpt lat="37.05833" lon="-3.37226">
        <ele>3132.8</ele>
        <time>2021-08-05 15:51:25</time>
      </trkpt>
      <trkpt lat="37.05832" lon="-3.37226">
        <ele>3132.8</ele>
        <time>2021-08-05 15:51:26</time>
      </trkpt>
      <trkpt lat="37.05832" lon="-3.37226">
        <ele>3133</ele>
        <time>2021-08-05 15:51:27</time>
      </trkpt>
      <trkpt lat="37.05831" lon="-3.37225">
        <ele>3133</ele>
        <time>2021-08-05 15:51:28</time>
      </trkpt>
      <trkpt lat="37.0583" lon="-3.37225">
        <ele>3133.2</ele>
        <time>2021-08-05 15:51:29</time>
      </trkpt>
      <trkpt lat="37.05829" lon="-3.37225">
        <ele>3133.4</ele>
        <time>2021-08-05 15:51:30</time>
      </trkpt>
      <trkpt lat="37.05829" lon="-3.37225">
        <ele>3133.4</ele>
        <time>2021-08-05 15:51:31</time>
      </trkpt>
      <trkpt lat="37.05828" lon="-3.37224">
        <ele>3133.4</ele>
        <time>2021-08-05 15:51:32</time>
      </trkpt>
      <trkpt lat="37.05827" lon="-3.37225">
        <ele>3133.4</ele>
        <time>2021-08-05 15:51:33</time>
      </trkpt>
      <trkpt lat="37.05826" lon="-3.37225">
        <ele>3133.4</ele>
        <time>2021-08-05 15:51:34</time>
      </trkpt>
      <trkpt lat="37.05825" lon="-3.37224">
        <ele>3133.4</ele>
        <time>2021-08-05 15:51:35</time>
      </trkpt>
      <trkpt lat="37.05825" lon="-3.37224">
        <ele>3133.4</ele>
        <time>2021-08-05 15:51:36</time>
      </trkpt>
      <trkpt lat="37.05824" lon="-3.37224">
        <ele>3133.4</ele>
        <time>2021-08-05 15:51:37</time>
      </trkpt>
      <trkpt lat="37.05823" lon="-3.37223">
        <ele>3133.2</ele>
        <time>2021-08-05 15:51:38</time>
      </trkpt>
      <trkpt lat="37.05823" lon="-3.37223">
        <ele>3133.2</ele>
        <time>2021-08-05 15:51:39</time>
      </trkpt>
      <trkpt lat="37.05822" lon="-3.37223">
        <ele>3133.4</ele>
        <time>2021-08-05 15:51:40</time>
      </trkpt>
      <trkpt lat="37.05821" lon="-3.37223">
        <ele>3133.4</ele>
        <time>2021-08-05 15:51:41</time>
      </trkpt>
      <trkpt lat="37.0582" lon="-3.37222">
        <ele>3133.4</ele>
        <time>2021-08-05 15:51:42</time>
      </trkpt>
      <trkpt lat="37.05819" lon="-3.37222">
        <ele>3133.6</ele>
        <time>2021-08-05 15:51:43</time>
      </trkpt>
      <trkpt lat="37.05818" lon="-3.37222">
        <ele>3133.6</ele>
        <time>2021-08-05 15:51:44</time>
      </trkpt>
      <trkpt lat="37.05817" lon="-3.37222">
        <ele>3133.6</ele>
        <time>2021-08-05 15:51:45</time>
      </trkpt>
      <trkpt lat="37.05817" lon="-3.37222">
        <ele>3133.6</ele>
        <time>2021-08-05 15:51:46</time>
      </trkpt>
      <trkpt lat="37.05816" lon="-3.37222">
        <ele>3133.6</ele>
        <time>2021-08-05 15:51:47</time>
      </trkpt>
      <trkpt lat="37.05815" lon="-3.37221">
        <ele>3133.6</ele>
        <time>2021-08-05 15:51:48</time>
      </trkpt>
      <trkpt lat="37.05814" lon="-3.37221">
        <ele>3133.6</ele>
        <time>2021-08-05 15:51:49</time>
      </trkpt>
      <trkpt lat="37.05813" lon="-3.37221">
        <ele>3133.6</ele>
        <time>2021-08-05 15:51:50</time>
      </trkpt>
      <trkpt lat="37.05813" lon="-3.37221">
        <ele>3133.8</ele>
        <time>2021-08-05 15:51:51</time>
      </trkpt>
      <trkpt lat="37.05812" lon="-3.37221">
        <ele>3134</ele>
        <time>2021-08-05 15:51:52</time>
      </trkpt>
      <trkpt lat="37.05811" lon="-3.37221">
        <ele>3134</ele>
        <time>2021-08-05 15:51:53</time>
      </trkpt>
      <trkpt lat="37.0581" lon="-3.37221">
        <ele>3134</ele>
        <time>2021-08-05 15:51:54</time>
      </trkpt>
      <trkpt lat="37.05809" lon="-3.37221">
        <ele>3134.4</ele>
        <time>2021-08-05 15:51:55</time>
      </trkpt>
      <trkpt lat="37.05808" lon="-3.37221">
        <ele>3134.4</ele>
        <time>2021-08-05 15:51:56</time>
      </trkpt>
      <trkpt lat="37.05807" lon="-3.37221">
        <ele>3134.4</ele>
        <time>2021-08-05 15:51:57</time>
      </trkpt>
      <trkpt lat="37.05806" lon="-3.37221">
        <ele>3134.4</ele>
        <time>2021-08-05 15:51:58</time>
      </trkpt>
      <trkpt lat="37.05805" lon="-3.37221">
        <ele>3134.6</ele>
        <time>2021-08-05 15:51:59</time>
      </trkpt>
      <trkpt lat="37.05805" lon="-3.3722">
        <ele>3134.6</ele>
        <time>2021-08-05 15:52:00</time>
      </trkpt>
      <trkpt lat="37.05804" lon="-3.37221">
        <ele>3134.6</ele>
        <time>2021-08-05 15:52:01</time>
      </trkpt>
      <trkpt lat="37.05803" lon="-3.37221">
        <ele>3134.6</ele>
        <time>2021-08-05 15:52:02</time>
      </trkpt>
      <trkpt lat="37.05803" lon="-3.37221">
        <ele>3134.8</ele>
        <time>2021-08-05 15:52:03</time>
      </trkpt>
      <trkpt lat="37.05803" lon="-3.37221">
        <ele>3134.8</ele>
        <time>2021-08-05 15:52:04</time>
      </trkpt>
      <trkpt lat="37.05803" lon="-3.37221">
        <ele>3134.8</ele>
        <time>2021-08-05 15:52:05</time>
      </trkpt>
      <trkpt lat="37.05802" lon="-3.37221">
        <ele>3134.8</ele>
        <time>2021-08-05 15:52:06</time>
      </trkpt>
      <trkpt lat="37.05802" lon="-3.37221">
        <ele>3134.8</ele>
        <time>2021-08-05 15:52:07</time>
      </trkpt>
      <trkpt lat="37.05802" lon="-3.37221">
        <ele>3135</ele>
        <time>2021-08-05 15:52:08</time>
      </trkpt>
      <trkpt lat="37.05802" lon="-3.37221">
        <ele>3135</ele>
        <time>2021-08-05 15:52:09</time>
      </trkpt>
      <trkpt lat="37.05801" lon="-3.37221">
        <ele>3134.8</ele>
        <time>2021-08-05 15:52:10</time>
      </trkpt>
      <trkpt lat="37.058" lon="-3.37221">
        <ele>3135</ele>
        <time>2021-08-05 15:52:11</time>
      </trkpt>
      <trkpt lat="37.05799" lon="-3.37222">
        <ele>3135</ele>
        <time>2021-08-05 15:52:12</time>
      </trkpt>
      <trkpt lat="37.05799" lon="-3.37222">
        <ele>3135.2</ele>
        <time>2021-08-05 15:52:13</time>
      </trkpt>
      <trkpt lat="37.05798" lon="-3.37222">
        <ele>3135.4</ele>
        <time>2021-08-05 15:52:14</time>
      </trkpt>
      <trkpt lat="37.05798" lon="-3.37222">
        <ele>3135.4</ele>
        <time>2021-08-05 15:52:15</time>
      </trkpt>
      <trkpt lat="37.05797" lon="-3.37222">
        <ele>3135.6</ele>
        <time>2021-08-05 15:52:16</time>
      </trkpt>
      <trkpt lat="37.05796" lon="-3.37222">
        <ele>3135.6</ele>
        <time>2021-08-05 15:52:17</time>
      </trkpt>
      <trkpt lat="37.05796" lon="-3.37222">
        <ele>3135.8</ele>
        <time>2021-08-05 15:52:18</time>
      </trkpt>
      <trkpt lat="37.05795" lon="-3.37221">
        <ele>3135.8</ele>
        <time>2021-08-05 15:52:19</time>
      </trkpt>
      <trkpt lat="37.05795" lon="-3.37221">
        <ele>3136</ele>
        <time>2021-08-05 15:52:20</time>
      </trkpt>
      <trkpt lat="37.05794" lon="-3.37221">
        <ele>3136</ele>
        <time>2021-08-05 15:52:21</time>
      </trkpt>
      <trkpt lat="37.05794" lon="-3.3722">
        <ele>3136</ele>
        <time>2021-08-05 15:52:22</time>
      </trkpt>
      <trkpt lat="37.05793" lon="-3.3722">
        <ele>3136</ele>
        <time>2021-08-05 15:52:23</time>
      </trkpt>
      <trkpt lat="37.05792" lon="-3.3722">
        <ele>3136</ele>
        <time>2021-08-05 15:52:24</time>
      </trkpt>
      <trkpt lat="37.05792" lon="-3.37221">
        <ele>3136</ele>
        <time>2021-08-05 15:52:25</time>
      </trkpt>
      <trkpt lat="37.05792" lon="-3.37221">
        <ele>3136.2</ele>
        <time>2021-08-05 15:52:26</time>
      </trkpt>
      <trkpt lat="37.05791" lon="-3.37221">
        <ele>3136.2</ele>
        <time>2021-08-05 15:52:27</time>
      </trkpt>
      <trkpt lat="37.0579" lon="-3.37221">
        <ele>3136.2</ele>
        <time>2021-08-05 15:52:28</time>
      </trkpt>
      <trkpt lat="37.0579" lon="-3.37221">
        <ele>3136.6</ele>
        <time>2021-08-05 15:52:29</time>
      </trkpt>
      <trkpt lat="37.05788" lon="-3.3722">
        <ele>3136.8</ele>
        <time>2021-08-05 15:52:30</time>
      </trkpt>
      <trkpt lat="37.05788" lon="-3.3722">
        <ele>3137</ele>
        <time>2021-08-05 15:52:31</time>
      </trkpt>
      <trkpt lat="37.05787" lon="-3.3722">
        <ele>3137.2</ele>
        <time>2021-08-05 15:52:32</time>
      </trkpt>
      <trkpt lat="37.05787" lon="-3.3722">
        <ele>3137.2</ele>
        <time>2021-08-05 15:52:33</time>
      </trkpt>
      <trkpt lat="37.05787" lon="-3.37219">
        <ele>3137.2</ele>
        <time>2021-08-05 15:52:34</time>
      </trkpt>
      <trkpt lat="37.05788" lon="-3.37219">
        <ele>3137.2</ele>
        <time>2021-08-05 15:52:35</time>
      </trkpt>
      <trkpt lat="37.05787" lon="-3.37218">
        <ele>3137.2</ele>
        <time>2021-08-05 15:52:36</time>
      </trkpt>
      <trkpt lat="37.05787" lon="-3.37217">
        <ele>3137.2</ele>
        <time>2021-08-05 15:52:37</time>
      </trkpt>
      <trkpt lat="37.05787" lon="-3.37217">
        <ele>3137.2</ele>
        <time>2021-08-05 15:52:38</time>
      </trkpt>
      <trkpt lat="37.05787" lon="-3.37217">
        <ele>3137</ele>
        <time>2021-08-05 15:52:39</time>
      </trkpt>
      <trkpt lat="37.05787" lon="-3.37217">
        <ele>3136.8</ele>
        <time>2021-08-05 15:52:40</time>
      </trkpt>
      <trkpt lat="37.05787" lon="-3.37216">
        <ele>3136.8</ele>
        <time>2021-08-05 15:52:41</time>
      </trkpt>
      <trkpt lat="37.05787" lon="-3.37216">
        <ele>3136.6</ele>
        <time>2021-08-05 15:52:42</time>
      </trkpt>
      <trkpt lat="37.05787" lon="-3.37215">
        <ele>3136.6</ele>
        <time>2021-08-05 15:52:43</time>
      </trkpt>
      <trkpt lat="37.05786" lon="-3.37215">
        <ele>3136.6</ele>
        <time>2021-08-05 15:52:44</time>
      </trkpt>
      <trkpt lat="37.05786" lon="-3.37215">
        <ele>3136.2</ele>
        <time>2021-08-05 15:52:45</time>
      </trkpt>
      <trkpt lat="37.05787" lon="-3.37215">
        <ele>3136.2</ele>
        <time>2021-08-05 15:52:46</time>
      </trkpt>
      <trkpt lat="37.05787" lon="-3.37214">
        <ele>3136.4</ele>
        <time>2021-08-05 15:52:47</time>
      </trkpt>
      <trkpt lat="37.05787" lon="-3.37215">
        <ele>3136.2</ele>
        <time>2021-08-05 15:52:48</time>
      </trkpt>
      <trkpt lat="37.05787" lon="-3.37215">
        <ele>3136.4</ele>
        <time>2021-08-05 15:52:49</time>
      </trkpt>
      <trkpt lat="37.05788" lon="-3.37216">
        <ele>3136.6</ele>
        <time>2021-08-05 15:52:50</time>
      </trkpt>
      <trkpt lat="37.05787" lon="-3.37216">
        <ele>3136.6</ele>
        <time>2021-08-05 15:52:51</time>
      </trkpt>
      <trkpt lat="37.05787" lon="-3.37217">
        <ele>3136.6</ele>
        <time>2021-08-05 15:52:52</time>
      </trkpt>
      <trkpt lat="37.05787" lon="-3.37217">
        <ele>3136.6</ele>
        <time>2021-08-05 15:52:53</time>
      </trkpt>
      <trkpt lat="37.05787" lon="-3.37216">
        <ele>3136.6</ele>
        <time>2021-08-05 15:52:54</time>
      </trkpt>
      <trkpt lat="37.05787" lon="-3.37216">
        <ele>3136.8</ele>
        <time>2021-08-05 15:52:55</time>
      </trkpt>
      <trkpt lat="37.05787" lon="-3.37216">
        <ele>3136.8</ele>
        <time>2021-08-05 15:52:56</time>
      </trkpt>
      <trkpt lat="37.05787" lon="-3.37216">
        <ele>3136.8</ele>
        <time>2021-08-05 15:52:57</time>
      </trkpt>
      <trkpt lat="37.05788" lon="-3.37215">
        <ele>3136.8</ele>
        <time>2021-08-05 15:52:58</time>
      </trkpt>
      <trkpt lat="37.05788" lon="-3.37215">
        <ele>3137</ele>
        <time>2021-08-05 15:52:59</time>
      </trkpt>
      <trkpt lat="37.05788" lon="-3.37215">
        <ele>3137</ele>
        <time>2021-08-05 15:53:00</time>
      </trkpt>
      <trkpt lat="37.05788" lon="-3.37215">
        <ele>3137</ele>
        <time>2021-08-05 15:53:01</time>
      </trkpt>
      <trkpt lat="37.05787" lon="-3.37215">
        <ele>3137</ele>
        <time>2021-08-05 15:53:02</time>
      </trkpt>
      <trkpt lat="37.05787" lon="-3.37216">
        <ele>3137</ele>
        <time>2021-08-05 15:53:03</time>
      </trkpt>
      <trkpt lat="37.05787" lon="-3.37215">
        <ele>3136.8</ele>
        <time>2021-08-05 15:53:04</time>
      </trkpt>
      <trkpt lat="37.05786" lon="-3.37215">
        <ele>3136.8</ele>
        <time>2021-08-05 15:53:05</time>
      </trkpt>
      <trkpt lat="37.05785" lon="-3.37215">
        <ele>3136.8</ele>
        <time>2021-08-05 15:53:06</time>
      </trkpt>
      <trkpt lat="37.05785" lon="-3.37215">
        <ele>3136.8</ele>
        <time>2021-08-05 15:53:07</time>
      </trkpt>
      <trkpt lat="37.05785" lon="-3.37215">
        <ele>3136.8</ele>
        <time>2021-08-05 15:53:08</time>
      </trkpt>
      <trkpt lat="37.05784" lon="-3.37215">
        <ele>3137</ele>
        <time>2021-08-05 15:53:09</time>
      </trkpt>
      <trkpt lat="37.05785" lon="-3.37215">
        <ele>3137.2</ele>
        <time>2021-08-05 15:53:10</time>
      </trkpt>
      <trkpt lat="37.05784" lon="-3.37215">
        <ele>3137.2</ele>
        <time>2021-08-05 15:53:11</time>
      </trkpt>
      <trkpt lat="37.05784" lon="-3.37215">
        <ele>3137.2</ele>
        <time>2021-08-05 15:53:12</time>
      </trkpt>
      <trkpt lat="37.05784" lon="-3.37214">
        <ele>3137.4</ele>
        <time>2021-08-05 15:53:13</time>
      </trkpt>
      <trkpt lat="37.05784" lon="-3.37214">
        <ele>3137.4</ele>
        <time>2021-08-05 15:53:14</time>
      </trkpt>
      <trkpt lat="37.05784" lon="-3.37214">
        <ele>3137.2</ele>
        <time>2021-08-05 15:53:15</time>
      </trkpt>
      <trkpt lat="37.05784" lon="-3.37214">
        <ele>3137</ele>
        <time>2021-08-05 15:53:16</time>
      </trkpt>
      <trkpt lat="37.05784" lon="-3.37214">
        <ele>3137</ele>
        <time>2021-08-05 15:53:17</time>
      </trkpt>
      <trkpt lat="37.05784" lon="-3.37214">
        <ele>3136.8</ele>
        <time>2021-08-05 15:53:18</time>
      </trkpt>
      <trkpt lat="37.05784" lon="-3.37214">
        <ele>3136.8</ele>
        <time>2021-08-05 15:53:19</time>
      </trkpt>
      <trkpt lat="37.05784" lon="-3.37215">
        <ele>3136.8</ele>
        <time>2021-08-05 15:53:20</time>
      </trkpt>
      <trkpt lat="37.05784" lon="-3.37215">
        <ele>3137</ele>
        <time>2021-08-05 15:53:21</time>
      </trkpt>
      <trkpt lat="37.05784" lon="-3.37215">
        <ele>3137</ele>
        <time>2021-08-05 15:53:22</time>
      </trkpt>
      <trkpt lat="37.05784" lon="-3.37215">
        <ele>3137</ele>
        <time>2021-08-05 15:53:23</time>
      </trkpt>
      <trkpt lat="37.05784" lon="-3.37215">
        <ele>3137</ele>
        <time>2021-08-05 15:53:24</time>
      </trkpt>
      <trkpt lat="37.05784" lon="-3.37215">
        <ele>3137</ele>
        <time>2021-08-05 15:53:25</time>
      </trkpt>
      <trkpt lat="37.05784" lon="-3.37215">
        <ele>3137</ele>
        <time>2021-08-05 15:53:26</time>
      </trkpt>
      <trkpt lat="37.05784" lon="-3.37215">
        <ele>3137</ele>
        <time>2021-08-05 15:53:27</time>
      </trkpt>
      <trkpt lat="37.05784" lon="-3.37215">
        <ele>3137</ele>
        <time>2021-08-05 15:53:28</time>
      </trkpt>
      <trkpt lat="37.05784" lon="-3.37215">
        <ele>3137</ele>
        <time>2021-08-05 15:53:29</time>
      </trkpt>
      <trkpt lat="37.05784" lon="-3.37215">
        <ele>3137</ele>
        <time>2021-08-05 15:53:30</time>
      </trkpt>
      <trkpt lat="37.05784" lon="-3.37215">
        <ele>3136.8</ele>
        <time>2021-08-05 15:53:31</time>
      </trkpt>
      <trkpt lat="37.05784" lon="-3.37215">
        <ele>3137</ele>
        <time>2021-08-05 15:53:32</time>
      </trkpt>
      <trkpt lat="37.05784" lon="-3.37215">
        <ele>3137</ele>
        <time>2021-08-05 15:53:33</time>
      </trkpt>
      <trkpt lat="37.05784" lon="-3.37215">
        <ele>3136.8</ele>
        <time>2021-08-05 15:53:34</time>
      </trkpt>
      <trkpt lat="37.05784" lon="-3.37215">
        <ele>3136.8</ele>
        <time>2021-08-05 15:53:35</time>
      </trkpt>
      <trkpt lat="37.05784" lon="-3.37215">
        <ele>3136.8</ele>
        <time>2021-08-05 15:53:36</time>
      </trkpt>
      <trkpt lat="37.05784" lon="-3.37215">
        <ele>3136.8</ele>
        <time>2021-08-05 15:53:37</time>
      </trkpt>
      <trkpt lat="37.05784" lon="-3.37215">
        <ele>3136.8</ele>
        <time>2021-08-05 15:53:38</time>
      </trkpt>
      <trkpt lat="37.05784" lon="-3.37215">
        <ele>3136.8</ele>
        <time>2021-08-05 15:53:39</time>
      </trkpt>
      <trkpt lat="37.05783" lon="-3.37215">
        <ele>3136.8</ele>
        <time>2021-08-05 15:53:40</time>
      </trkpt>
      <trkpt lat="37.05783" lon="-3.37215">
        <ele>3136.8</ele>
        <time>2021-08-05 15:53:41</time>
      </trkpt>
      <trkpt lat="37.05783" lon="-3.37215">
        <ele>3136.8</ele>
        <time>2021-08-05 15:53:42</time>
      </trkpt>
      <trkpt lat="37.05783" lon="-3.37215">
        <ele>3136.6</ele>
        <time>2021-08-05 15:53:43</time>
      </trkpt>
      <trkpt lat="37.05783" lon="-3.37215">
        <ele>3136.6</ele>
        <time>2021-08-05 15:53:44</time>
      </trkpt>
      <trkpt lat="37.05783" lon="-3.37215">
        <ele>3136.6</ele>
        <time>2021-08-05 15:53:45</time>
      </trkpt>
      <trkpt lat="37.05783" lon="-3.37215">
        <ele>3136.6</ele>
        <time>2021-08-05 15:53:46</time>
      </trkpt>
      <trkpt lat="37.05783" lon="-3.37215">
        <ele>3136.6</ele>
        <time>2021-08-05 15:53:47</time>
      </trkpt>
      <trkpt lat="37.05783" lon="-3.37215">
        <ele>3136.6</ele>
        <time>2021-08-05 15:53:48</time>
      </trkpt>
      <trkpt lat="37.05783" lon="-3.37216">
        <ele>3136.8</ele>
        <time>2021-08-05 15:53:49</time>
      </trkpt>
      <trkpt lat="37.05783" lon="-3.37216">
        <ele>3137.2</ele>
        <time>2021-08-05 15:53:50</time>
      </trkpt>
      <trkpt lat="37.05783" lon="-3.37216">
        <ele>3137.2</ele>
        <time>2021-08-05 15:53:51</time>
      </trkpt>
      <trkpt lat="37.05783" lon="-3.37216">
        <ele>3137.2</ele>
        <time>2021-08-05 15:53:52</time>
      </trkpt>
      <trkpt lat="37.05783" lon="-3.37216">
        <ele>3137.4</ele>
        <time>2021-08-05 15:53:53</time>
      </trkpt>
      <trkpt lat="37.05783" lon="-3.37216">
        <ele>3137.6</ele>
        <time>2021-08-05 15:53:54</time>
      </trkpt>
      <trkpt lat="37.05783" lon="-3.37216">
        <ele>3137.4</ele>
        <time>2021-08-05 15:53:55</time>
      </trkpt>
      <trkpt lat="37.05784" lon="-3.37216">
        <ele>3137.4</ele>
        <time>2021-08-05 15:53:56</time>
      </trkpt>
      <trkpt lat="37.05784" lon="-3.37217">
        <ele>3137.2</ele>
        <time>2021-08-05 15:53:57</time>
      </trkpt>
      <trkpt lat="37.05785" lon="-3.37217">
        <ele>3137.4</ele>
        <time>2021-08-05 15:53:58</time>
      </trkpt>
      <trkpt lat="37.05785" lon="-3.37217">
        <ele>3137.4</ele>
        <time>2021-08-05 15:53:59</time>
      </trkpt>
      <trkpt lat="37.05785" lon="-3.37217">
        <ele>3137.4</ele>
        <time>2021-08-05 15:54:00</time>
      </trkpt>
      <trkpt lat="37.05784" lon="-3.37217">
        <ele>3137.2</ele>
        <time>2021-08-05 15:54:01</time>
      </trkpt>
      <trkpt lat="37.05784" lon="-3.37217">
        <ele>3137.4</ele>
        <time>2021-08-05 15:54:02</time>
      </trkpt>
      <trkpt lat="37.05785" lon="-3.37217">
        <ele>3137.2</ele>
        <time>2021-08-05 15:54:03</time>
      </trkpt>
      <trkpt lat="37.05785" lon="-3.37217">
        <ele>3137.2</ele>
        <time>2021-08-05 15:54:04</time>
      </trkpt>
      <trkpt lat="37.05784" lon="-3.37218">
        <ele>3137.2</ele>
        <time>2021-08-05 15:54:05</time>
      </trkpt>
      <trkpt lat="37.05784" lon="-3.37218">
        <ele>3137.2</ele>
        <time>2021-08-05 15:54:06</time>
      </trkpt>
      <trkpt lat="37.05784" lon="-3.37218">
        <ele>3137.6</ele>
        <time>2021-08-05 15:54:07</time>
      </trkpt>
      <trkpt lat="37.05784" lon="-3.37218">
        <ele>3137.8</ele>
        <time>2021-08-05 15:54:08</time>
      </trkpt>
      <trkpt lat="37.05784" lon="-3.37218">
        <ele>3137.4</ele>
        <time>2021-08-05 15:54:09</time>
      </trkpt>
      <trkpt lat="37.05784" lon="-3.37218">
        <ele>3137.6</ele>
        <time>2021-08-05 15:54:10</time>
      </trkpt>
      <trkpt lat="37.05784" lon="-3.37218">
        <ele>3137.8</ele>
        <time>2021-08-05 15:54:11</time>
      </trkpt>
      <trkpt lat="37.05784" lon="-3.37218">
        <ele>3137.8</ele>
        <time>2021-08-05 15:54:12</time>
      </trkpt>
      <trkpt lat="37.05784" lon="-3.37218">
        <ele>3138</ele>
        <time>2021-08-05 15:54:13</time>
      </trkpt>
      <trkpt lat="37.05784" lon="-3.37217">
        <ele>3138</ele>
        <time>2021-08-05 15:54:14</time>
      </trkpt>
      <trkpt lat="37.05784" lon="-3.37217">
        <ele>3138.4</ele>
        <time>2021-08-05 15:54:15</time>
      </trkpt>
      <trkpt lat="37.05784" lon="-3.37217">
        <ele>3138.4</ele>
        <time>2021-08-05 15:54:16</time>
      </trkpt>
      <trkpt lat="37.05784" lon="-3.37217">
        <ele>3138.4</ele>
        <time>2021-08-05 15:54:17</time>
      </trkpt>
      <trkpt lat="37.05784" lon="-3.37217">
        <ele>3138.6</ele>
        <time>2021-08-05 15:54:18</time>
      </trkpt>
      <trkpt lat="37.05784" lon="-3.37217">
        <ele>3138.4</ele>
        <time>2021-08-05 15:54:19</time>
      </trkpt>
      <trkpt lat="37.05784" lon="-3.37218">
        <ele>3138.2</ele>
        <time>2021-08-05 15:54:20</time>
      </trkpt>
      <trkpt lat="37.05783" lon="-3.37218">
        <ele>3138</ele>
        <time>2021-08-05 15:54:21</time>
      </trkpt>
      <trkpt lat="37.05783" lon="-3.37218">
        <ele>3137.8</ele>
        <time>2021-08-05 15:54:22</time>
      </trkpt>
      <trkpt lat="37.05782" lon="-3.37219">
        <ele>3137.8</ele>
        <time>2021-08-05 15:54:23</time>
      </trkpt>
      <trkpt lat="37.05782" lon="-3.37219">
        <ele>3137.8</ele>
        <time>2021-08-05 15:54:24</time>
      </trkpt>
      <trkpt lat="37.05782" lon="-3.37219">
        <ele>3137.6</ele>
        <time>2021-08-05 15:54:25</time>
      </trkpt>
      <trkpt lat="37.05782" lon="-3.37219">
        <ele>3137.6</ele>
        <time>2021-08-05 15:54:26</time>
      </trkpt>
      <trkpt lat="37.05782" lon="-3.37219">
        <ele>3137.6</ele>
        <time>2021-08-05 15:54:27</time>
      </trkpt>
      <trkpt lat="37.05782" lon="-3.37219">
        <ele>3137.6</ele>
        <time>2021-08-05 15:54:28</time>
      </trkpt>
      <trkpt lat="37.05783" lon="-3.37218">
        <ele>3137.6</ele>
        <time>2021-08-05 15:54:29</time>
      </trkpt>
      <trkpt lat="37.05783" lon="-3.37217">
        <ele>3137.6</ele>
        <time>2021-08-05 15:54:30</time>
      </trkpt>
      <trkpt lat="37.05784" lon="-3.37218">
        <ele>3137.4</ele>
        <time>2021-08-05 15:54:31</time>
      </trkpt>
      <trkpt lat="37.05784" lon="-3.37217">
        <ele>3137.4</ele>
        <time>2021-08-05 15:54:32</time>
      </trkpt>
      <trkpt lat="37.05784" lon="-3.37217">
        <ele>3137.6</ele>
        <time>2021-08-05 15:54:33</time>
      </trkpt>
      <trkpt lat="37.05784" lon="-3.37217">
        <ele>3137.6</ele>
        <time>2021-08-05 15:54:34</time>
      </trkpt>
      <trkpt lat="37.05784" lon="-3.37217">
        <ele>3137.6</ele>
        <time>2021-08-05 15:54:35</time>
      </trkpt>
      <trkpt lat="37.05785" lon="-3.37218">
        <ele>3137.6</ele>
        <time>2021-08-05 15:54:36</time>
      </trkpt>
      <trkpt lat="37.05785" lon="-3.37218">
        <ele>3137.4</ele>
        <time>2021-08-05 15:54:37</time>
      </trkpt>
      <trkpt lat="37.05785" lon="-3.37218">
        <ele>3137.4</ele>
        <time>2021-08-05 15:54:38</time>
      </trkpt>
      <trkpt lat="37.05785" lon="-3.37218">
        <ele>3137.4</ele>
        <time>2021-08-05 15:54:39</time>
      </trkpt>
      <trkpt lat="37.05786" lon="-3.37218">
        <ele>3137.2</ele>
        <time>2021-08-05 15:54:40</time>
      </trkpt>
      <trkpt lat="37.05786" lon="-3.37218">
        <ele>3137.2</ele>
        <time>2021-08-05 15:54:41</time>
      </trkpt>
      <trkpt lat="37.05786" lon="-3.37218">
        <ele>3137.2</ele>
        <time>2021-08-05 15:54:42</time>
      </trkpt>
      <trkpt lat="37.05786" lon="-3.37217">
        <ele>3137.2</ele>
        <time>2021-08-05 15:54:43</time>
      </trkpt>
      <trkpt lat="37.05786" lon="-3.37217">
        <ele>3137.4</ele>
        <time>2021-08-05 15:54:44</time>
      </trkpt>
      <trkpt lat="37.05786" lon="-3.37217">
        <ele>3137.6</ele>
        <time>2021-08-05 15:54:45</time>
      </trkpt>
      <trkpt lat="37.05786" lon="-3.37216">
        <ele>3137.6</ele>
        <time>2021-08-05 15:54:46</time>
      </trkpt>
      <trkpt lat="37.05786" lon="-3.37216">
        <ele>3137.6</ele>
        <time>2021-08-05 15:54:47</time>
      </trkpt>
      <trkpt lat="37.05787" lon="-3.37217">
        <ele>3137.8</ele>
        <time>2021-08-05 15:54:48</time>
      </trkpt>
      <trkpt lat="37.05786" lon="-3.37217">
        <ele>3137.8</ele>
        <time>2021-08-05 15:54:49</time>
      </trkpt>
      <trkpt lat="37.05786" lon="-3.37217">
        <ele>3138</ele>
        <time>2021-08-05 15:54:50</time>
      </trkpt>
      <trkpt lat="37.05786" lon="-3.37217">
        <ele>3137.8</ele>
        <time>2021-08-05 15:54:51</time>
      </trkpt>
      <trkpt lat="37.05786" lon="-3.37217">
        <ele>3137.8</ele>
        <time>2021-08-05 15:54:52</time>
      </trkpt>
      <trkpt lat="37.05786" lon="-3.37217">
        <ele>3137.8</ele>
        <time>2021-08-05 15:54:53</time>
      </trkpt>
      <trkpt lat="37.05785" lon="-3.37216">
        <ele>3137.8</ele>
        <time>2021-08-05 15:54:54</time>
      </trkpt>
      <trkpt lat="37.05785" lon="-3.37216">
        <ele>3137.8</ele>
        <time>2021-08-05 15:54:55</time>
      </trkpt>
      <trkpt lat="37.05785" lon="-3.37216">
        <ele>3137.8</ele>
        <time>2021-08-05 15:54:56</time>
      </trkpt>
      <trkpt lat="37.05785" lon="-3.37216">
        <ele>3137.6</ele>
        <time>2021-08-05 15:54:57</time>
      </trkpt>
      <trkpt lat="37.05785" lon="-3.37216">
        <ele>3137.6</ele>
        <time>2021-08-05 15:54:58</time>
      </trkpt>
      <trkpt lat="37.05785" lon="-3.37216">
        <ele>3137.4</ele>
        <time>2021-08-05 15:54:59</time>
      </trkpt>
      <trkpt lat="37.05785" lon="-3.37216">
        <ele>3137.6</ele>
        <time>2021-08-05 15:55:00</time>
      </trkpt>
      <trkpt lat="37.05786" lon="-3.37216">
        <ele>3137.4</ele>
        <time>2021-08-05 15:55:01</time>
      </trkpt>
      <trkpt lat="37.05786" lon="-3.37216">
        <ele>3137.4</ele>
        <time>2021-08-05 15:55:02</time>
      </trkpt>
      <trkpt lat="37.05786" lon="-3.37215">
        <ele>3137.4</ele>
        <time>2021-08-05 15:55:03</time>
      </trkpt>
      <trkpt lat="37.05786" lon="-3.37215">
        <ele>3137.4</ele>
        <time>2021-08-05 15:55:04</time>
      </trkpt>
      <trkpt lat="37.05786" lon="-3.37215">
        <ele>3137.4</ele>
        <time>2021-08-05 15:55:05</time>
      </trkpt>
      <trkpt lat="37.05787" lon="-3.37215">
        <ele>3137.4</ele>
        <time>2021-08-05 15:55:06</time>
      </trkpt>
      <trkpt lat="37.05787" lon="-3.37215">
        <ele>3137.6</ele>
        <time>2021-08-05 15:55:07</time>
      </trkpt>
      <trkpt lat="37.05787" lon="-3.37215">
        <ele>3137.6</ele>
        <time>2021-08-05 15:55:08</time>
      </trkpt>
      <trkpt lat="37.05787" lon="-3.37215">
        <ele>3137.6</ele>
        <time>2021-08-05 15:55:09</time>
      </trkpt>
      <trkpt lat="37.05787" lon="-3.37215">
        <ele>3137.8</ele>
        <time>2021-08-05 15:55:10</time>
      </trkpt>
      <trkpt lat="37.05787" lon="-3.37215">
        <ele>3137.6</ele>
        <time>2021-08-05 15:55:11</time>
      </trkpt>
      <trkpt lat="37.05786" lon="-3.37215">
        <ele>3137.4</ele>
        <time>2021-08-05 15:55:12</time>
      </trkpt>
      <trkpt lat="37.05786" lon="-3.37215">
        <ele>3137.2</ele>
        <time>2021-08-05 15:55:13</time>
      </trkpt>
      <trkpt lat="37.05785" lon="-3.37215">
        <ele>3137.2</ele>
        <time>2021-08-05 15:55:14</time>
      </trkpt>
      <trkpt lat="37.05785" lon="-3.37215">
        <ele>3137.4</ele>
        <time>2021-08-05 15:55:15</time>
      </trkpt>
      <trkpt lat="37.05785" lon="-3.37215">
        <ele>3137.4</ele>
        <time>2021-08-05 15:55:16</time>
      </trkpt>
      <trkpt lat="37.05785" lon="-3.37215">
        <ele>3137.4</ele>
        <time>2021-08-05 15:55:17</time>
      </trkpt>
      <trkpt lat="37.05785" lon="-3.37215">
        <ele>3137.6</ele>
        <time>2021-08-05 15:55:18</time>
      </trkpt>
      <trkpt lat="37.05785" lon="-3.37215">
        <ele>3137.6</ele>
        <time>2021-08-05 15:55:19</time>
      </trkpt>
      <trkpt lat="37.05785" lon="-3.37215">
        <ele>3137.6</ele>
        <time>2021-08-05 15:55:20</time>
      </trkpt>
      <trkpt lat="37.05785" lon="-3.37215">
        <ele>3137.8</ele>
        <time>2021-08-05 15:55:21</time>
      </trkpt>
      <trkpt lat="37.05786" lon="-3.37214">
        <ele>3137.8</ele>
        <time>2021-08-05 15:55:22</time>
      </trkpt>
      <trkpt lat="37.05786" lon="-3.37214">
        <ele>3137.8</ele>
        <time>2021-08-05 15:55:23</time>
      </trkpt>
      <trkpt lat="37.05786" lon="-3.37214">
        <ele>3137.8</ele>
        <time>2021-08-05 15:55:24</time>
      </trkpt>
      <trkpt lat="37.05786" lon="-3.37214">
        <ele>3137.6</ele>
        <time>2021-08-05 15:55:25</time>
      </trkpt>
      <trkpt lat="37.05786" lon="-3.37214">
        <ele>3137.4</ele>
        <time>2021-08-05 15:55:26</time>
      </trkpt>
      <trkpt lat="37.05786" lon="-3.37214">
        <ele>3137.2</ele>
        <time>2021-08-05 15:55:27</time>
      </trkpt>
      <trkpt lat="37.05786" lon="-3.37214">
        <ele>3137.2</ele>
        <time>2021-08-05 15:55:28</time>
      </trkpt>
      <trkpt lat="37.05786" lon="-3.37214">
        <ele>3137.2</ele>
        <time>2021-08-05 15:55:29</time>
      </trkpt>
      <trkpt lat="37.05786" lon="-3.37214">
        <ele>3136.8</ele>
        <time>2021-08-05 15:55:30</time>
      </trkpt>
      <trkpt lat="37.05787" lon="-3.37214">
        <ele>3136.8</ele>
        <time>2021-08-05 15:55:31</time>
      </trkpt>
      <trkpt lat="37.05787" lon="-3.37214">
        <ele>3137</ele>
        <time>2021-08-05 15:55:32</time>
      </trkpt>
      <trkpt lat="37.05787" lon="-3.37214">
        <ele>3137</ele>
        <time>2021-08-05 15:55:33</time>
      </trkpt>
      <trkpt lat="37.05786" lon="-3.37214">
        <ele>3137.2</ele>
        <time>2021-08-05 15:55:34</time>
      </trkpt>
      <trkpt lat="37.05786" lon="-3.37214">
        <ele>3137.2</ele>
        <time>2021-08-05 15:55:35</time>
      </trkpt>
      <trkpt lat="37.05786" lon="-3.37214">
        <ele>3137</ele>
        <time>2021-08-05 15:55:36</time>
      </trkpt>
      <trkpt lat="37.05786" lon="-3.37214">
        <ele>3137</ele>
        <time>2021-08-05 15:55:37</time>
      </trkpt>
      <trkpt lat="37.05786" lon="-3.37214">
        <ele>3137</ele>
        <time>2021-08-05 15:55:38</time>
      </trkpt>
      <trkpt lat="37.05786" lon="-3.37214">
        <ele>3136.8</ele>
        <time>2021-08-05 15:55:39</time>
      </trkpt>
      <trkpt lat="37.05786" lon="-3.37214">
        <ele>3136.8</ele>
        <time>2021-08-05 15:55:40</time>
      </trkpt>
      <trkpt lat="37.05786" lon="-3.37214">
        <ele>3136.6</ele>
        <time>2021-08-05 15:55:41</time>
      </trkpt>
      <trkpt lat="37.05786" lon="-3.37214">
        <ele>3136.6</ele>
        <time>2021-08-05 15:55:42</time>
      </trkpt>
      <trkpt lat="37.05786" lon="-3.37215">
        <ele>3136.6</ele>
        <time>2021-08-05 15:55:43</time>
      </trkpt>
      <trkpt lat="37.05786" lon="-3.37215">
        <ele>3136.8</ele>
        <time>2021-08-05 15:55:44</time>
      </trkpt>
      <trkpt lat="37.05787" lon="-3.37215">
        <ele>3136.6</ele>
        <time>2021-08-05 15:55:45</time>
      </trkpt>
      <trkpt lat="37.05786" lon="-3.37215">
        <ele>3136.6</ele>
        <time>2021-08-05 15:55:46</time>
      </trkpt>
      <trkpt lat="37.05787" lon="-3.37215">
        <ele>3136.8</ele>
        <time>2021-08-05 15:55:47</time>
      </trkpt>
      <trkpt lat="37.05787" lon="-3.37215">
        <ele>3136.8</ele>
        <time>2021-08-05 15:55:48</time>
      </trkpt>
      <trkpt lat="37.05787" lon="-3.37215">
        <ele>3136.8</ele>
        <time>2021-08-05 15:55:49</time>
      </trkpt>
      <trkpt lat="37.05787" lon="-3.37214">
        <ele>3136.8</ele>
        <time>2021-08-05 15:55:50</time>
      </trkpt>
      <trkpt lat="37.05787" lon="-3.37214">
        <ele>3137</ele>
        <time>2021-08-05 15:55:51</time>
      </trkpt>
      <trkpt lat="37.05787" lon="-3.37215">
        <ele>3137.2</ele>
        <time>2021-08-05 15:55:52</time>
      </trkpt>
      <trkpt lat="37.05787" lon="-3.37215">
        <ele>3137</ele>
        <time>2021-08-05 15:55:53</time>
      </trkpt>
      <trkpt lat="37.05787" lon="-3.37215">
        <ele>3136.8</ele>
        <time>2021-08-05 15:55:54</time>
      </trkpt>
      <trkpt lat="37.05786" lon="-3.37215">
        <ele>3136.8</ele>
        <time>2021-08-05 15:55:55</time>
      </trkpt>
      <trkpt lat="37.05786" lon="-3.37215">
        <ele>3136.8</ele>
        <time>2021-08-05 15:55:56</time>
      </trkpt>
      <trkpt lat="37.05786" lon="-3.37215">
        <ele>3136.8</ele>
        <time>2021-08-05 15:55:57</time>
      </trkpt>
      <trkpt lat="37.05786" lon="-3.37215">
        <ele>3136.8</ele>
        <time>2021-08-05 15:55:58</time>
      </trkpt>
      <trkpt lat="37.05786" lon="-3.37216">
        <ele>3136.8</ele>
        <time>2021-08-05 15:55:59</time>
      </trkpt>
      <trkpt lat="37.05786" lon="-3.37216">
        <ele>3137.4</ele>
        <time>2021-08-05 15:56:00</time>
      </trkpt>
      <trkpt lat="37.05785" lon="-3.37216">
        <ele>3137.4</ele>
        <time>2021-08-05 15:56:01</time>
      </trkpt>
      <trkpt lat="37.05785" lon="-3.37216">
        <ele>3137.4</ele>
        <time>2021-08-05 15:56:02</time>
      </trkpt>
      <trkpt lat="37.05784" lon="-3.37217">
        <ele>3137.4</ele>
        <time>2021-08-05 15:56:03</time>
      </trkpt>
      <trkpt lat="37.05784" lon="-3.37217">
        <ele>3137.4</ele>
        <time>2021-08-05 15:56:04</time>
      </trkpt>
      <trkpt lat="37.05782" lon="-3.37217">
        <ele>3137.4</ele>
        <time>2021-08-05 15:56:05</time>
      </trkpt>
      <trkpt lat="37.05781" lon="-3.37217">
        <ele>3137.4</ele>
        <time>2021-08-05 15:56:06</time>
      </trkpt>
      <trkpt lat="37.0578" lon="-3.37217">
        <ele>3137.4</ele>
        <time>2021-08-05 15:56:07</time>
      </trkpt>
      <trkpt lat="37.0578" lon="-3.37217">
        <ele>3137.4</ele>
        <time>2021-08-05 15:56:08</time>
      </trkpt>
      <trkpt lat="37.0578" lon="-3.37217">
        <ele>3137.4</ele>
        <time>2021-08-05 15:56:09</time>
      </trkpt>
      <trkpt lat="37.0578" lon="-3.37217">
        <ele>3137.4</ele>
        <time>2021-08-05 15:56:10</time>
      </trkpt>
      <trkpt lat="37.05779" lon="-3.37216">
        <ele>3137.4</ele>
        <time>2021-08-05 15:56:11</time>
      </trkpt>
      <trkpt lat="37.05779" lon="-3.37216">
        <ele>3137.4</ele>
        <time>2021-08-05 15:56:12</time>
      </trkpt>
      <trkpt lat="37.05778" lon="-3.37216">
        <ele>3137.4</ele>
        <time>2021-08-05 15:56:13</time>
      </trkpt>
      <trkpt lat="37.05778" lon="-3.37216">
        <ele>3137.4</ele>
        <time>2021-08-05 15:56:14</time>
      </trkpt>
      <trkpt lat="37.05777" lon="-3.37216">
        <ele>3137.4</ele>
        <time>2021-08-05 15:56:15</time>
      </trkpt>
      <trkpt lat="37.05776" lon="-3.37215">
        <ele>3137.4</ele>
        <time>2021-08-05 15:56:16</time>
      </trkpt>
      <trkpt lat="37.05775" lon="-3.37215">
        <ele>3137.4</ele>
        <time>2021-08-05 15:56:17</time>
      </trkpt>
      <trkpt lat="37.05774" lon="-3.37215">
        <ele>3137.4</ele>
        <time>2021-08-05 15:56:18</time>
      </trkpt>
      <trkpt lat="37.05773" lon="-3.37215">
        <ele>3137.4</ele>
        <time>2021-08-05 15:56:19</time>
      </trkpt>
      <trkpt lat="37.05772" lon="-3.37215">
        <ele>3137.4</ele>
        <time>2021-08-05 15:56:20</time>
      </trkpt>
      <trkpt lat="37.05771" lon="-3.37215">
        <ele>3137.4</ele>
        <time>2021-08-05 15:56:21</time>
      </trkpt>
      <trkpt lat="37.0577" lon="-3.37215">
        <ele>3137.4</ele>
        <time>2021-08-05 15:56:22</time>
      </trkpt>
      <trkpt lat="37.05769" lon="-3.37214">
        <ele>3137.4</ele>
        <time>2021-08-05 15:56:23</time>
      </trkpt>
      <trkpt lat="37.05768" lon="-3.37214">
        <ele>3137.4</ele>
        <time>2021-08-05 15:56:24</time>
      </trkpt>
      <trkpt lat="37.05767" lon="-3.37214">
        <ele>3137.4</ele>
        <time>2021-08-05 15:56:25</time>
      </trkpt>
      <trkpt lat="37.05766" lon="-3.37215">
        <ele>3137.6</ele>
        <time>2021-08-05 15:56:26</time>
      </trkpt>
      <trkpt lat="37.05766" lon="-3.37215">
        <ele>3137.8</ele>
        <time>2021-08-05 15:56:27</time>
      </trkpt>
      <trkpt lat="37.05764" lon="-3.37213">
        <ele>3137.8</ele>
        <time>2021-08-05 15:56:28</time>
      </trkpt>
      <trkpt lat="37.05763" lon="-3.37213">
        <ele>3138</ele>
        <time>2021-08-05 15:56:29</time>
      </trkpt>
      <trkpt lat="37.05762" lon="-3.37213">
        <ele>3138</ele>
        <time>2021-08-05 15:56:30</time>
      </trkpt>
      <trkpt lat="37.05761" lon="-3.37213">
        <ele>3138.2</ele>
        <time>2021-08-05 15:56:31</time>
      </trkpt>
      <trkpt lat="37.05761" lon="-3.37213">
        <ele>3138.2</ele>
        <time>2021-08-05 15:56:32</time>
      </trkpt>
      <trkpt lat="37.0576" lon="-3.37212">
        <ele>3138.2</ele>
        <time>2021-08-05 15:56:33</time>
      </trkpt>
      <trkpt lat="37.05758" lon="-3.37212">
        <ele>3138.2</ele>
        <time>2021-08-05 15:56:34</time>
      </trkpt>
      <trkpt lat="37.05758" lon="-3.37211">
        <ele>3138.2</ele>
        <time>2021-08-05 15:56:35</time>
      </trkpt>
      <trkpt lat="37.05757" lon="-3.37211">
        <ele>3138.2</ele>
        <time>2021-08-05 15:56:36</time>
      </trkpt>
      <trkpt lat="37.05756" lon="-3.37211">
        <ele>3138.2</ele>
        <time>2021-08-05 15:56:37</time>
      </trkpt>
      <trkpt lat="37.05756" lon="-3.37212">
        <ele>3138.2</ele>
        <time>2021-08-05 15:56:38</time>
      </trkpt>
      <trkpt lat="37.05755" lon="-3.37212">
        <ele>3138.2</ele>
        <time>2021-08-05 15:56:39</time>
      </trkpt>
      <trkpt lat="37.05755" lon="-3.37212">
        <ele>3138.2</ele>
        <time>2021-08-05 15:56:40</time>
      </trkpt>
      <trkpt lat="37.05754" lon="-3.37212">
        <ele>3138.4</ele>
        <time>2021-08-05 15:56:41</time>
      </trkpt>
      <trkpt lat="37.05753" lon="-3.37212">
        <ele>3138.4</ele>
        <time>2021-08-05 15:56:42</time>
      </trkpt>
      <trkpt lat="37.05752" lon="-3.37213">
        <ele>3138.4</ele>
        <time>2021-08-05 15:56:43</time>
      </trkpt>
      <trkpt lat="37.05751" lon="-3.37213">
        <ele>3138.8</ele>
        <time>2021-08-05 15:56:44</time>
      </trkpt>
      <trkpt lat="37.0575" lon="-3.37212">
        <ele>3138.8</ele>
        <time>2021-08-05 15:56:45</time>
      </trkpt>
      <trkpt lat="37.0575" lon="-3.37212">
        <ele>3139</ele>
        <time>2021-08-05 15:56:46</time>
      </trkpt>
      <trkpt lat="37.05749" lon="-3.37212">
        <ele>3139</ele>
        <time>2021-08-05 15:56:47</time>
      </trkpt>
      <trkpt lat="37.05749" lon="-3.37212">
        <ele>3139</ele>
        <time>2021-08-05 15:56:48</time>
      </trkpt>
      <trkpt lat="37.05749" lon="-3.37211">
        <ele>3139</ele>
        <time>2021-08-05 15:56:49</time>
      </trkpt>
      <trkpt lat="37.05749" lon="-3.3721">
        <ele>3139</ele>
        <time>2021-08-05 15:56:50</time>
      </trkpt>
      <trkpt lat="37.05748" lon="-3.3721">
        <ele>3139</ele>
        <time>2021-08-05 15:56:51</time>
      </trkpt>
      <trkpt lat="37.05748" lon="-3.37209">
        <ele>3138.8</ele>
        <time>2021-08-05 15:56:52</time>
      </trkpt>
      <trkpt lat="37.05748" lon="-3.37209">
        <ele>3138.6</ele>
        <time>2021-08-05 15:56:53</time>
      </trkpt>
      <trkpt lat="37.05747" lon="-3.37209">
        <ele>3138.6</ele>
        <time>2021-08-05 15:56:54</time>
      </trkpt>
      <trkpt lat="37.05747" lon="-3.37208">
        <ele>3138.6</ele>
        <time>2021-08-05 15:56:55</time>
      </trkpt>
      <trkpt lat="37.05746" lon="-3.37207">
        <ele>3138.4</ele>
        <time>2021-08-05 15:56:56</time>
      </trkpt>
      <trkpt lat="37.05746" lon="-3.37207">
        <ele>3138.6</ele>
        <time>2021-08-05 15:56:57</time>
      </trkpt>
      <trkpt lat="37.05745" lon="-3.37207">
        <ele>3138.8</ele>
        <time>2021-08-05 15:56:58</time>
      </trkpt>
      <trkpt lat="37.05744" lon="-3.37207">
        <ele>3138.8</ele>
        <time>2021-08-05 15:56:59</time>
      </trkpt>
      <trkpt lat="37.05744" lon="-3.37206">
        <ele>3139</ele>
        <time>2021-08-05 15:57:00</time>
      </trkpt>
      <trkpt lat="37.05743" lon="-3.37206">
        <ele>3139</ele>
        <time>2021-08-05 15:57:01</time>
      </trkpt>
      <trkpt lat="37.05742" lon="-3.37207">
        <ele>3139</ele>
        <time>2021-08-05 15:57:02</time>
      </trkpt>
      <trkpt lat="37.05742" lon="-3.37206">
        <ele>3139</ele>
        <time>2021-08-05 15:57:03</time>
      </trkpt>
      <trkpt lat="37.05741" lon="-3.37206">
        <ele>3139</ele>
        <time>2021-08-05 15:57:04</time>
      </trkpt>
      <trkpt lat="37.0574" lon="-3.37207">
        <ele>3139</ele>
        <time>2021-08-05 15:57:05</time>
      </trkpt>
      <trkpt lat="37.0574" lon="-3.37207">
        <ele>3138.6</ele>
        <time>2021-08-05 15:57:06</time>
      </trkpt>
      <trkpt lat="37.0574" lon="-3.37207">
        <ele>3138.6</ele>
        <time>2021-08-05 15:57:07</time>
      </trkpt>
      <trkpt lat="37.05739" lon="-3.37208">
        <ele>3138.8</ele>
        <time>2021-08-05 15:57:08</time>
      </trkpt>
      <trkpt lat="37.05739" lon="-3.37208">
        <ele>3138.8</ele>
        <time>2021-08-05 15:57:09</time>
      </trkpt>
      <trkpt lat="37.05738" lon="-3.37207">
        <ele>3139</ele>
        <time>2021-08-05 15:57:10</time>
      </trkpt>
      <trkpt lat="37.05737" lon="-3.37207">
        <ele>3139</ele>
        <time>2021-08-05 15:57:11</time>
      </trkpt>
      <trkpt lat="37.05736" lon="-3.37206">
        <ele>3139</ele>
        <time>2021-08-05 15:57:12</time>
      </trkpt>
      <trkpt lat="37.05735" lon="-3.37206">
        <ele>3139.2</ele>
        <time>2021-08-05 15:57:13</time>
      </trkpt>
      <trkpt lat="37.05735" lon="-3.37205">
        <ele>3139.2</ele>
        <time>2021-08-05 15:57:14</time>
      </trkpt>
      <trkpt lat="37.05733" lon="-3.37206">
        <ele>3139.2</ele>
        <time>2021-08-05 15:57:15</time>
      </trkpt>
      <trkpt lat="37.05732" lon="-3.37206">
        <ele>3139.6</ele>
        <time>2021-08-05 15:57:16</time>
      </trkpt>
      <trkpt lat="37.05731" lon="-3.37206">
        <ele>3139.8</ele>
        <time>2021-08-05 15:57:17</time>
      </trkpt>
      <trkpt lat="37.0573" lon="-3.37206">
        <ele>3140.2</ele>
        <time>2021-08-05 15:57:18</time>
      </trkpt>
      <trkpt lat="37.0573" lon="-3.37207">
        <ele>3140.4</ele>
        <time>2021-08-05 15:57:19</time>
      </trkpt>
      <trkpt lat="37.05729" lon="-3.37206">
        <ele>3140.2</ele>
        <time>2021-08-05 15:57:20</time>
      </trkpt>
      <trkpt lat="37.05728" lon="-3.37206">
        <ele>3140.2</ele>
        <time>2021-08-05 15:57:21</time>
      </trkpt>
      <trkpt lat="37.05728" lon="-3.37206">
        <ele>3140.2</ele>
        <time>2021-08-05 15:57:22</time>
      </trkpt>
      <trkpt lat="37.05727" lon="-3.37206">
        <ele>3140.2</ele>
        <time>2021-08-05 15:57:23</time>
      </trkpt>
      <trkpt lat="37.05726" lon="-3.37206">
        <ele>3140.2</ele>
        <time>2021-08-05 15:57:24</time>
      </trkpt>
      <trkpt lat="37.05726" lon="-3.37205">
        <ele>3140.2</ele>
        <time>2021-08-05 15:57:25</time>
      </trkpt>
      <trkpt lat="37.05725" lon="-3.37205">
        <ele>3140.2</ele>
        <time>2021-08-05 15:57:26</time>
      </trkpt>
      <trkpt lat="37.05725" lon="-3.37204">
        <ele>3140.2</ele>
        <time>2021-08-05 15:57:27</time>
      </trkpt>
      <trkpt lat="37.05725" lon="-3.37204">
        <ele>3140.2</ele>
        <time>2021-08-05 15:57:28</time>
      </trkpt>
      <trkpt lat="37.05724" lon="-3.37203">
        <ele>3140.4</ele>
        <time>2021-08-05 15:57:29</time>
      </trkpt>
      <trkpt lat="37.05723" lon="-3.37202">
        <ele>3140.4</ele>
        <time>2021-08-05 15:57:30</time>
      </trkpt>
      <trkpt lat="37.05722" lon="-3.37201">
        <ele>3140.4</ele>
        <time>2021-08-05 15:57:31</time>
      </trkpt>
      <trkpt lat="37.05722" lon="-3.372">
        <ele>3140.2</ele>
        <time>2021-08-05 15:57:32</time>
      </trkpt>
      <trkpt lat="37.05721" lon="-3.37199">
        <ele>3140.2</ele>
        <time>2021-08-05 15:57:33</time>
      </trkpt>
      <trkpt lat="37.0572" lon="-3.37199">
        <ele>3140.4</ele>
        <time>2021-08-05 15:57:34</time>
      </trkpt>
      <trkpt lat="37.05719" lon="-3.37199">
        <ele>3140.6</ele>
        <time>2021-08-05 15:57:35</time>
      </trkpt>
      <trkpt lat="37.0572" lon="-3.37199">
        <ele>3140.6</ele>
        <time>2021-08-05 15:57:36</time>
      </trkpt>
      <trkpt lat="37.0572" lon="-3.37198">
        <ele>3140.8</ele>
        <time>2021-08-05 15:57:37</time>
      </trkpt>
      <trkpt lat="37.0572" lon="-3.37198">
        <ele>3140.8</ele>
        <time>2021-08-05 15:57:38</time>
      </trkpt>
      <trkpt lat="37.05719" lon="-3.37198">
        <ele>3140.8</ele>
        <time>2021-08-05 15:57:39</time>
      </trkpt>
      <trkpt lat="37.05717" lon="-3.37198">
        <ele>3140.8</ele>
        <time>2021-08-05 15:57:40</time>
      </trkpt>
      <trkpt lat="37.05716" lon="-3.37198">
        <ele>3140.8</ele>
        <time>2021-08-05 15:57:41</time>
      </trkpt>
      <trkpt lat="37.05715" lon="-3.37198">
        <ele>3140.6</ele>
        <time>2021-08-05 15:57:42</time>
      </trkpt>
      <trkpt lat="37.05714" lon="-3.37198">
        <ele>3140.6</ele>
        <time>2021-08-05 15:57:43</time>
      </trkpt>
      <trkpt lat="37.05713" lon="-3.37198">
        <ele>3140.8</ele>
        <time>2021-08-05 15:57:44</time>
      </trkpt>
      <trkpt lat="37.05711" lon="-3.37198">
        <ele>3141</ele>
        <time>2021-08-05 15:57:45</time>
      </trkpt>
      <trkpt lat="37.0571" lon="-3.37198">
        <ele>3141.2</ele>
        <time>2021-08-05 15:57:46</time>
      </trkpt>
      <trkpt lat="37.05709" lon="-3.37198">
        <ele>3141.2</ele>
        <time>2021-08-05 15:57:47</time>
      </trkpt>
      <trkpt lat="37.05708" lon="-3.37198">
        <ele>3141.4</ele>
        <time>2021-08-05 15:57:48</time>
      </trkpt>
      <trkpt lat="37.05708" lon="-3.37198">
        <ele>3141.8</ele>
        <time>2021-08-05 15:57:49</time>
      </trkpt>
      <trkpt lat="37.05707" lon="-3.37198">
        <ele>3142</ele>
        <time>2021-08-05 15:57:50</time>
      </trkpt>
      <trkpt lat="37.05706" lon="-3.37198">
        <ele>3142.2</ele>
        <time>2021-08-05 15:57:51</time>
      </trkpt>
      <trkpt lat="37.05705" lon="-3.37198">
        <ele>3142.2</ele>
        <time>2021-08-05 15:57:52</time>
      </trkpt>
      <trkpt lat="37.05705" lon="-3.37197">
        <ele>3142.4</ele>
        <time>2021-08-05 15:57:53</time>
      </trkpt>
      <trkpt lat="37.05704" lon="-3.37197">
        <ele>3142.4</ele>
        <time>2021-08-05 15:57:54</time>
      </trkpt>
      <trkpt lat="37.05703" lon="-3.37196">
        <ele>3142.6</ele>
        <time>2021-08-05 15:57:55</time>
      </trkpt>
      <trkpt lat="37.05703" lon="-3.37196">
        <ele>3142.6</ele>
        <time>2021-08-05 15:57:56</time>
      </trkpt>
      <trkpt lat="37.05702" lon="-3.37196">
        <ele>3142.8</ele>
        <time>2021-08-05 15:57:57</time>
      </trkpt>
      <trkpt lat="37.05702" lon="-3.37196">
        <ele>3142.8</ele>
        <time>2021-08-05 15:57:58</time>
      </trkpt>
      <trkpt lat="37.05701" lon="-3.37196">
        <ele>3142.8</ele>
        <time>2021-08-05 15:57:59</time>
      </trkpt>
      <trkpt lat="37.057" lon="-3.37196">
        <ele>3142.8</ele>
        <time>2021-08-05 15:58:00</time>
      </trkpt>
      <trkpt lat="37.05699" lon="-3.37196">
        <ele>3142.8</ele>
        <time>2021-08-05 15:58:01</time>
      </trkpt>
      <trkpt lat="37.05698" lon="-3.37195">
        <ele>3142.8</ele>
        <time>2021-08-05 15:58:02</time>
      </trkpt>
      <trkpt lat="37.05697" lon="-3.37195">
        <ele>3143.2</ele>
        <time>2021-08-05 15:58:03</time>
      </trkpt>
      <trkpt lat="37.05697" lon="-3.37195">
        <ele>3143.4</ele>
        <time>2021-08-05 15:58:04</time>
      </trkpt>
      <trkpt lat="37.05696" lon="-3.37194">
        <ele>3143.6</ele>
        <time>2021-08-05 15:58:05</time>
      </trkpt>
      <trkpt lat="37.05695" lon="-3.37194">
        <ele>3143.6</ele>
        <time>2021-08-05 15:58:06</time>
      </trkpt>
      <trkpt lat="37.05694" lon="-3.37194">
        <ele>3143.6</ele>
        <time>2021-08-05 15:58:07</time>
      </trkpt>
      <trkpt lat="37.05694" lon="-3.37193">
        <ele>3143.6</ele>
        <time>2021-08-05 15:58:08</time>
      </trkpt>
      <trkpt lat="37.05693" lon="-3.37193">
        <ele>3143.6</ele>
        <time>2021-08-05 15:58:09</time>
      </trkpt>
      <trkpt lat="37.05693" lon="-3.37193">
        <ele>3143.8</ele>
        <time>2021-08-05 15:58:10</time>
      </trkpt>
      <trkpt lat="37.05693" lon="-3.37192">
        <ele>3144</ele>
        <time>2021-08-05 15:58:11</time>
      </trkpt>
      <trkpt lat="37.05692" lon="-3.37192">
        <ele>3144.2</ele>
        <time>2021-08-05 15:58:12</time>
      </trkpt>
      <trkpt lat="37.05692" lon="-3.37192">
        <ele>3144.4</ele>
        <time>2021-08-05 15:58:13</time>
      </trkpt>
      <trkpt lat="37.05692" lon="-3.37192">
        <ele>3144.6</ele>
        <time>2021-08-05 15:58:14</time>
      </trkpt>
      <trkpt lat="37.05692" lon="-3.37191">
        <ele>3144.6</ele>
        <time>2021-08-05 15:58:15</time>
      </trkpt>
      <trkpt lat="37.05692" lon="-3.3719">
        <ele>3144.6</ele>
        <time>2021-08-05 15:58:16</time>
      </trkpt>
      <trkpt lat="37.05692" lon="-3.3719">
        <ele>3144.6</ele>
        <time>2021-08-05 15:58:17</time>
      </trkpt>
      <trkpt lat="37.05692" lon="-3.3719">
        <ele>3144.2</ele>
        <time>2021-08-05 15:58:18</time>
      </trkpt>
      <trkpt lat="37.05691" lon="-3.3719">
        <ele>3144.4</ele>
        <time>2021-08-05 15:58:19</time>
      </trkpt>
      <trkpt lat="37.05691" lon="-3.37189">
        <ele>3144.4</ele>
        <time>2021-08-05 15:58:20</time>
      </trkpt>
      <trkpt lat="37.05691" lon="-3.37189">
        <ele>3144.2</ele>
        <time>2021-08-05 15:58:21</time>
      </trkpt>
      <trkpt lat="37.05692" lon="-3.37189">
        <ele>3144</ele>
        <time>2021-08-05 15:58:22</time>
      </trkpt>
      <trkpt lat="37.05692" lon="-3.37189">
        <ele>3144</ele>
        <time>2021-08-05 15:58:23</time>
      </trkpt>
      <trkpt lat="37.05692" lon="-3.37189">
        <ele>3144</ele>
        <time>2021-08-05 15:58:24</time>
      </trkpt>
      <trkpt lat="37.05692" lon="-3.37189">
        <ele>3144</ele>
        <time>2021-08-05 15:58:25</time>
      </trkpt>
      <trkpt lat="37.05692" lon="-3.37189">
        <ele>3144</ele>
        <time>2021-08-05 15:58:26</time>
      </trkpt>
      <trkpt lat="37.05691" lon="-3.3719">
        <ele>3144</ele>
        <time>2021-08-05 15:58:27</time>
      </trkpt>
      <trkpt lat="37.05691" lon="-3.3719">
        <ele>3144</ele>
        <time>2021-08-05 15:58:28</time>
      </trkpt>
      <trkpt lat="37.05691" lon="-3.3719">
        <ele>3144.2</ele>
        <time>2021-08-05 15:58:29</time>
      </trkpt>
      <trkpt lat="37.05691" lon="-3.3719">
        <ele>3144.2</ele>
        <time>2021-08-05 15:58:30</time>
      </trkpt>
      <trkpt lat="37.05691" lon="-3.3719">
        <ele>3144.4</ele>
        <time>2021-08-05 15:58:31</time>
      </trkpt>
      <trkpt lat="37.05691" lon="-3.3719">
        <ele>3144.4</ele>
        <time>2021-08-05 15:58:32</time>
      </trkpt>
      <trkpt lat="37.0569" lon="-3.3719">
        <ele>3144.6</ele>
        <time>2021-08-05 15:58:33</time>
      </trkpt>
      <trkpt lat="37.05689" lon="-3.37189">
        <ele>3144.6</ele>
        <time>2021-08-05 15:58:34</time>
      </trkpt>
      <trkpt lat="37.05688" lon="-3.37189">
        <ele>3144.6</ele>
        <time>2021-08-05 15:58:35</time>
      </trkpt>
      <trkpt lat="37.05687" lon="-3.37189">
        <ele>3145</ele>
        <time>2021-08-05 15:58:36</time>
      </trkpt>
      <trkpt lat="37.05686" lon="-3.37189">
        <ele>3145</ele>
        <time>2021-08-05 15:58:37</time>
      </trkpt>
      <trkpt lat="37.05685" lon="-3.37188">
        <ele>3145.2</ele>
        <time>2021-08-05 15:58:38</time>
      </trkpt>
      <trkpt lat="37.05684" lon="-3.37187">
        <ele>3145.2</ele>
        <time>2021-08-05 15:58:39</time>
      </trkpt>
      <trkpt lat="37.05683" lon="-3.37187">
        <ele>3145.2</ele>
        <time>2021-08-05 15:58:40</time>
      </trkpt>
      <trkpt lat="37.05682" lon="-3.37187">
        <ele>3145.2</ele>
        <time>2021-08-05 15:58:41</time>
      </trkpt>
      <trkpt lat="37.05682" lon="-3.37187">
        <ele>3145.2</ele>
        <time>2021-08-05 15:58:42</time>
      </trkpt>
      <trkpt lat="37.05681" lon="-3.37186">
        <ele>3145.2</ele>
        <time>2021-08-05 15:58:43</time>
      </trkpt>
      <trkpt lat="37.0568" lon="-3.37186">
        <ele>3145.4</ele>
        <time>2021-08-05 15:58:44</time>
      </trkpt>
      <trkpt lat="37.05679" lon="-3.37186">
        <ele>3145.6</ele>
        <time>2021-08-05 15:58:45</time>
      </trkpt>
      <trkpt lat="37.05679" lon="-3.37185">
        <ele>3145.8</ele>
        <time>2021-08-05 15:58:46</time>
      </trkpt>
      <trkpt lat="37.05678" lon="-3.37184">
        <ele>3146</ele>
        <time>2021-08-05 15:58:47</time>
      </trkpt>
      <trkpt lat="37.05677" lon="-3.37184">
        <ele>3146.2</ele>
        <time>2021-08-05 15:58:48</time>
      </trkpt>
      <trkpt lat="37.05676" lon="-3.37183">
        <ele>3146.4</ele>
        <time>2021-08-05 15:58:49</time>
      </trkpt>
      <trkpt lat="37.05675" lon="-3.37183">
        <ele>3146.4</ele>
        <time>2021-08-05 15:58:50</time>
      </trkpt>
      <trkpt lat="37.05674" lon="-3.37183">
        <ele>3146.4</ele>
        <time>2021-08-05 15:58:51</time>
      </trkpt>
      <trkpt lat="37.05673" lon="-3.37183">
        <ele>3146.6</ele>
        <time>2021-08-05 15:58:52</time>
      </trkpt>
      <trkpt lat="37.05672" lon="-3.37182">
        <ele>3146.6</ele>
        <time>2021-08-05 15:58:53</time>
      </trkpt>
      <trkpt lat="37.05672" lon="-3.37182">
        <ele>3146.8</ele>
        <time>2021-08-05 15:58:54</time>
      </trkpt>
      <trkpt lat="37.05672" lon="-3.37182">
        <ele>3146.8</ele>
        <time>2021-08-05 15:58:55</time>
      </trkpt>
      <trkpt lat="37.05671" lon="-3.37182">
        <ele>3147</ele>
        <time>2021-08-05 15:58:56</time>
      </trkpt>
      <trkpt lat="37.0567" lon="-3.37181">
        <ele>3147</ele>
        <time>2021-08-05 15:58:57</time>
      </trkpt>
      <trkpt lat="37.05669" lon="-3.37181">
        <ele>3147</ele>
        <time>2021-08-05 15:58:58</time>
      </trkpt>
      <trkpt lat="37.05668" lon="-3.37181">
        <ele>3147</ele>
        <time>2021-08-05 15:58:59</time>
      </trkpt>
      <trkpt lat="37.05667" lon="-3.37182">
        <ele>3147</ele>
        <time>2021-08-05 15:59:00</time>
      </trkpt>
      <trkpt lat="37.05667" lon="-3.37182">
        <ele>3146.8</ele>
        <time>2021-08-05 15:59:01</time>
      </trkpt>
      <trkpt lat="37.05666" lon="-3.37181">
        <ele>3146.8</ele>
        <time>2021-08-05 15:59:02</time>
      </trkpt>
      <trkpt lat="37.05665" lon="-3.37181">
        <ele>3146.8</ele>
        <time>2021-08-05 15:59:03</time>
      </trkpt>
      <trkpt lat="37.05664" lon="-3.3718">
        <ele>3147</ele>
        <time>2021-08-05 15:59:04</time>
      </trkpt>
      <trkpt lat="37.05663" lon="-3.3718">
        <ele>3147</ele>
        <time>2021-08-05 15:59:05</time>
      </trkpt>
      <trkpt lat="37.05662" lon="-3.3718">
        <ele>3147</ele>
        <time>2021-08-05 15:59:06</time>
      </trkpt>
      <trkpt lat="37.05661" lon="-3.3718">
        <ele>3147</ele>
        <time>2021-08-05 15:59:07</time>
      </trkpt>
      <trkpt lat="37.05661" lon="-3.3718">
        <ele>3147</ele>
        <time>2021-08-05 15:59:08</time>
      </trkpt>
      <trkpt lat="37.0566" lon="-3.37179">
        <ele>3147</ele>
        <time>2021-08-05 15:59:09</time>
      </trkpt>
      <trkpt lat="37.05659" lon="-3.37179">
        <ele>3147</ele>
        <time>2021-08-05 15:59:10</time>
      </trkpt>
      <trkpt lat="37.05658" lon="-3.37179">
        <ele>3147</ele>
        <time>2021-08-05 15:59:11</time>
      </trkpt>
      <trkpt lat="37.05658" lon="-3.37178">
        <ele>3147</ele>
        <time>2021-08-05 15:59:12</time>
      </trkpt>
      <trkpt lat="37.05658" lon="-3.37178">
        <ele>3147</ele>
        <time>2021-08-05 15:59:13</time>
      </trkpt>
      <trkpt lat="37.05657" lon="-3.37177">
        <ele>3147</ele>
        <time>2021-08-05 15:59:14</time>
      </trkpt>
      <trkpt lat="37.05656" lon="-3.37177">
        <ele>3147.2</ele>
        <time>2021-08-05 15:59:15</time>
      </trkpt>
      <trkpt lat="37.05655" lon="-3.37177">
        <ele>3147.2</ele>
        <time>2021-08-05 15:59:16</time>
      </trkpt>
      <trkpt lat="37.05654" lon="-3.37177">
        <ele>3147.4</ele>
        <time>2021-08-05 15:59:17</time>
      </trkpt>
      <trkpt lat="37.05653" lon="-3.37176">
        <ele>3147.6</ele>
        <time>2021-08-05 15:59:18</time>
      </trkpt>
      <trkpt lat="37.05653" lon="-3.37176">
        <ele>3147.8</ele>
        <time>2021-08-05 15:59:19</time>
      </trkpt>
      <trkpt lat="37.05652" lon="-3.37176">
        <ele>3147.8</ele>
        <time>2021-08-05 15:59:20</time>
      </trkpt>
      <trkpt lat="37.05651" lon="-3.37175">
        <ele>3148</ele>
        <time>2021-08-05 15:59:21</time>
      </trkpt>
      <trkpt lat="37.0565" lon="-3.37175">
        <ele>3148</ele>
        <time>2021-08-05 15:59:22</time>
      </trkpt>
      <trkpt lat="37.0565" lon="-3.37174">
        <ele>3148</ele>
        <time>2021-08-05 15:59:23</time>
      </trkpt>
      <trkpt lat="37.05649" lon="-3.37174">
        <ele>3148</ele>
        <time>2021-08-05 15:59:24</time>
      </trkpt>
      <trkpt lat="37.05648" lon="-3.37173">
        <ele>3148.2</ele>
        <time>2021-08-05 15:59:25</time>
      </trkpt>
      <trkpt lat="37.05648" lon="-3.37173">
        <ele>3148.4</ele>
        <time>2021-08-05 15:59:26</time>
      </trkpt>
      <trkpt lat="37.05647" lon="-3.37173">
        <ele>3148.4</ele>
        <time>2021-08-05 15:59:27</time>
      </trkpt>
      <trkpt lat="37.05646" lon="-3.37172">
        <ele>3148.6</ele>
        <time>2021-08-05 15:59:28</time>
      </trkpt>
      <trkpt lat="37.05646" lon="-3.37172">
        <ele>3148.8</ele>
        <time>2021-08-05 15:59:29</time>
      </trkpt>
      <trkpt lat="37.05645" lon="-3.37173">
        <ele>3149</ele>
        <time>2021-08-05 15:59:30</time>
      </trkpt>
      <trkpt lat="37.05645" lon="-3.37173">
        <ele>3148.8</ele>
        <time>2021-08-05 15:59:31</time>
      </trkpt>
      <trkpt lat="37.05644" lon="-3.37173">
        <ele>3148.8</ele>
        <time>2021-08-05 15:59:32</time>
      </trkpt>
      <trkpt lat="37.05643" lon="-3.37173">
        <ele>3149</ele>
        <time>2021-08-05 15:59:33</time>
      </trkpt>
      <trkpt lat="37.05642" lon="-3.37173">
        <ele>3149</ele>
        <time>2021-08-05 15:59:34</time>
      </trkpt>
      <trkpt lat="37.05641" lon="-3.37173">
        <ele>3149</ele>
        <time>2021-08-05 15:59:35</time>
      </trkpt>
      <trkpt lat="37.0564" lon="-3.37173">
        <ele>3149</ele>
        <time>2021-08-05 15:59:36</time>
      </trkpt>
      <trkpt lat="37.0564" lon="-3.37172">
        <ele>3149</ele>
        <time>2021-08-05 15:59:37</time>
      </trkpt>
      <trkpt lat="37.05639" lon="-3.37172">
        <ele>3149</ele>
        <time>2021-08-05 15:59:38</time>
      </trkpt>
      <trkpt lat="37.05638" lon="-3.37172">
        <ele>3149</ele>
        <time>2021-08-05 15:59:39</time>
      </trkpt>
      <trkpt lat="37.05638" lon="-3.37171">
        <ele>3149</ele>
        <time>2021-08-05 15:59:40</time>
      </trkpt>
      <trkpt lat="37.05637" lon="-3.37172">
        <ele>3149</ele>
        <time>2021-08-05 15:59:41</time>
      </trkpt>
      <trkpt lat="37.05637" lon="-3.37172">
        <ele>3149.2</ele>
        <time>2021-08-05 15:59:42</time>
      </trkpt>
      <trkpt lat="37.05636" lon="-3.37171">
        <ele>3149.4</ele>
        <time>2021-08-05 15:59:43</time>
      </trkpt>
      <trkpt lat="37.05635" lon="-3.37171">
        <ele>3149.6</ele>
        <time>2021-08-05 15:59:44</time>
      </trkpt>
      <trkpt lat="37.05635" lon="-3.3717">
        <ele>3149.6</ele>
        <time>2021-08-05 15:59:45</time>
      </trkpt>
      <trkpt lat="37.05634" lon="-3.3717">
        <ele>3149.6</ele>
        <time>2021-08-05 15:59:46</time>
      </trkpt>
      <trkpt lat="37.05633" lon="-3.3717">
        <ele>3149.6</ele>
        <time>2021-08-05 15:59:47</time>
      </trkpt>
      <trkpt lat="37.05632" lon="-3.3717">
        <ele>3149.6</ele>
        <time>2021-08-05 15:59:48</time>
      </trkpt>
      <trkpt lat="37.05631" lon="-3.37169">
        <ele>3149.8</ele>
        <time>2021-08-05 15:59:49</time>
      </trkpt>
      <trkpt lat="37.05631" lon="-3.37169">
        <ele>3150</ele>
        <time>2021-08-05 15:59:50</time>
      </trkpt>
      <trkpt lat="37.0563" lon="-3.37168">
        <ele>3150</ele>
        <time>2021-08-05 15:59:51</time>
      </trkpt>
      <trkpt lat="37.0563" lon="-3.37168">
        <ele>3150</ele>
        <time>2021-08-05 15:59:52</time>
      </trkpt>
      <trkpt lat="37.05629" lon="-3.37168">
        <ele>3150.2</ele>
        <time>2021-08-05 15:59:53</time>
      </trkpt>
      <trkpt lat="37.05628" lon="-3.37168">
        <ele>3150.2</ele>
        <time>2021-08-05 15:59:54</time>
      </trkpt>
      <trkpt lat="37.05627" lon="-3.37168">
        <ele>3150.2</ele>
        <time>2021-08-05 15:59:55</time>
      </trkpt>
      <trkpt lat="37.05627" lon="-3.37167">
        <ele>3150.4</ele>
        <time>2021-08-05 15:59:56</time>
      </trkpt>
      <trkpt lat="37.05626" lon="-3.37167">
        <ele>3150.4</ele>
        <time>2021-08-05 15:59:57</time>
      </trkpt>
      <trkpt lat="37.05625" lon="-3.37166">
        <ele>3150.4</ele>
        <time>2021-08-05 15:59:58</time>
      </trkpt>
      <trkpt lat="37.05625" lon="-3.37166">
        <ele>3150.4</ele>
        <time>2021-08-05 15:59:59</time>
      </trkpt>
      <trkpt lat="37.05624" lon="-3.37166">
        <ele>3150.6</ele>
        <time>2021-08-05 16:00:00</time>
      </trkpt>
      <trkpt lat="37.05623" lon="-3.37165">
        <ele>3150.8</ele>
        <time>2021-08-05 16:00:01</time>
      </trkpt>
      <trkpt lat="37.05622" lon="-3.37164">
        <ele>3150.8</ele>
        <time>2021-08-05 16:00:02</time>
      </trkpt>
      <trkpt lat="37.05622" lon="-3.37163">
        <ele>3151</ele>
        <time>2021-08-05 16:00:03</time>
      </trkpt>
      <trkpt lat="37.05621" lon="-3.37162">
        <ele>3151</ele>
        <time>2021-08-05 16:00:04</time>
      </trkpt>
      <trkpt lat="37.0562" lon="-3.37161">
        <ele>3151</ele>
        <time>2021-08-05 16:00:05</time>
      </trkpt>
      <trkpt lat="37.05619" lon="-3.37161">
        <ele>3151</ele>
        <time>2021-08-05 16:00:06</time>
      </trkpt>
      <trkpt lat="37.05619" lon="-3.3716">
        <ele>3150.8</ele>
        <time>2021-08-05 16:00:07</time>
      </trkpt>
      <trkpt lat="37.05618" lon="-3.3716">
        <ele>3151</ele>
        <time>2021-08-05 16:00:08</time>
      </trkpt>
      <trkpt lat="37.05617" lon="-3.3716">
        <ele>3151</ele>
        <time>2021-08-05 16:00:09</time>
      </trkpt>
      <trkpt lat="37.05616" lon="-3.3716">
        <ele>3150.8</ele>
        <time>2021-08-05 16:00:10</time>
      </trkpt>
      <trkpt lat="37.05615" lon="-3.37159">
        <ele>3150.6</ele>
        <time>2021-08-05 16:00:11</time>
      </trkpt>
      <trkpt lat="37.05614" lon="-3.37159">
        <ele>3150.6</ele>
        <time>2021-08-05 16:00:12</time>
      </trkpt>
      <trkpt lat="37.05614" lon="-3.37159">
        <ele>3150.8</ele>
        <time>2021-08-05 16:00:13</time>
      </trkpt>
      <trkpt lat="37.05613" lon="-3.37159">
        <ele>3150.8</ele>
        <time>2021-08-05 16:00:14</time>
      </trkpt>
      <trkpt lat="37.05612" lon="-3.37159">
        <ele>3151</ele>
        <time>2021-08-05 16:00:15</time>
      </trkpt>
      <trkpt lat="37.05612" lon="-3.37159">
        <ele>3151</ele>
        <time>2021-08-05 16:00:16</time>
      </trkpt>
      <trkpt lat="37.05611" lon="-3.37159">
        <ele>3151</ele>
        <time>2021-08-05 16:00:17</time>
      </trkpt>
      <trkpt lat="37.0561" lon="-3.37159">
        <ele>3151</ele>
        <time>2021-08-05 16:00:18</time>
      </trkpt>
      <trkpt lat="37.05609" lon="-3.37158">
        <ele>3151</ele>
        <time>2021-08-05 16:00:19</time>
      </trkpt>
      <trkpt lat="37.05608" lon="-3.37158">
        <ele>3151</ele>
        <time>2021-08-05 16:00:20</time>
      </trkpt>
      <trkpt lat="37.05607" lon="-3.37158">
        <ele>3151.4</ele>
        <time>2021-08-05 16:00:21</time>
      </trkpt>
      <trkpt lat="37.05607" lon="-3.37159">
        <ele>3151.4</ele>
        <time>2021-08-05 16:00:22</time>
      </trkpt>
      <trkpt lat="37.05606" lon="-3.37159">
        <ele>3151.6</ele>
        <time>2021-08-05 16:00:23</time>
      </trkpt>
      <trkpt lat="37.05605" lon="-3.37159">
        <ele>3151.6</ele>
        <time>2021-08-05 16:00:24</time>
      </trkpt>
      <trkpt lat="37.05604" lon="-3.37158">
        <ele>3151.6</ele>
        <time>2021-08-05 16:00:25</time>
      </trkpt>
      <trkpt lat="37.05603" lon="-3.37158">
        <ele>3151.8</ele>
        <time>2021-08-05 16:00:26</time>
      </trkpt>
      <trkpt lat="37.05603" lon="-3.37157">
        <ele>3151.8</ele>
        <time>2021-08-05 16:00:27</time>
      </trkpt>
      <trkpt lat="37.05603" lon="-3.37157">
        <ele>3151.8</ele>
        <time>2021-08-05 16:00:28</time>
      </trkpt>
      <trkpt lat="37.05602" lon="-3.37157">
        <ele>3152</ele>
        <time>2021-08-05 16:00:29</time>
      </trkpt>
      <trkpt lat="37.05601" lon="-3.37156">
        <ele>3152.2</ele>
        <time>2021-08-05 16:00:30</time>
      </trkpt>
      <trkpt lat="37.056" lon="-3.37156">
        <ele>3152.4</ele>
        <time>2021-08-05 16:00:31</time>
      </trkpt>
      <trkpt lat="37.05599" lon="-3.37155">
        <ele>3152.4</ele>
        <time>2021-08-05 16:00:32</time>
      </trkpt>
      <trkpt lat="37.05599" lon="-3.37154">
        <ele>3152.4</ele>
        <time>2021-08-05 16:00:33</time>
      </trkpt>
      <trkpt lat="37.05598" lon="-3.37154">
        <ele>3152.4</ele>
        <time>2021-08-05 16:00:34</time>
      </trkpt>
      <trkpt lat="37.05598" lon="-3.37154">
        <ele>3152.4</ele>
        <time>2021-08-05 16:00:35</time>
      </trkpt>
      <trkpt lat="37.05597" lon="-3.37154">
        <ele>3152.6</ele>
        <time>2021-08-05 16:00:36</time>
      </trkpt>
      <trkpt lat="37.05596" lon="-3.37154">
        <ele>3152.8</ele>
        <time>2021-08-05 16:00:37</time>
      </trkpt>
      <trkpt lat="37.05595" lon="-3.37154">
        <ele>3152.8</ele>
        <time>2021-08-05 16:00:38</time>
      </trkpt>
      <trkpt lat="37.05594" lon="-3.37154">
        <ele>3153</ele>
        <time>2021-08-05 16:00:39</time>
      </trkpt>
      <trkpt lat="37.05593" lon="-3.37154">
        <ele>3153.2</ele>
        <time>2021-08-05 16:00:40</time>
      </trkpt>
      <trkpt lat="37.05592" lon="-3.37153">
        <ele>3153.2</ele>
        <time>2021-08-05 16:00:41</time>
      </trkpt>
      <trkpt lat="37.05591" lon="-3.37153">
        <ele>3153.2</ele>
        <time>2021-08-05 16:00:42</time>
      </trkpt>
      <trkpt lat="37.05591" lon="-3.37153">
        <ele>3153.2</ele>
        <time>2021-08-05 16:00:43</time>
      </trkpt>
      <trkpt lat="37.0559" lon="-3.37153">
        <ele>3153.2</ele>
        <time>2021-08-05 16:00:44</time>
      </trkpt>
      <trkpt lat="37.05589" lon="-3.37153">
        <ele>3153.4</ele>
        <time>2021-08-05 16:00:45</time>
      </trkpt>
      <trkpt lat="37.05589" lon="-3.37153">
        <ele>3153.4</ele>
        <time>2021-08-05 16:00:46</time>
      </trkpt>
      <trkpt lat="37.05588" lon="-3.37153">
        <ele>3153.4</ele>
        <time>2021-08-05 16:00:47</time>
      </trkpt>
      <trkpt lat="37.05587" lon="-3.37153">
        <ele>3153.6</ele>
        <time>2021-08-05 16:00:48</time>
      </trkpt>
      <trkpt lat="37.05586" lon="-3.37153">
        <ele>3153.8</ele>
        <time>2021-08-05 16:00:49</time>
      </trkpt>
      <trkpt lat="37.05586" lon="-3.37152">
        <ele>3153.8</ele>
        <time>2021-08-05 16:00:50</time>
      </trkpt>
      <trkpt lat="37.05585" lon="-3.37152">
        <ele>3154</ele>
        <time>2021-08-05 16:00:51</time>
      </trkpt>
      <trkpt lat="37.05584" lon="-3.37151">
        <ele>3154.2</ele>
        <time>2021-08-05 16:00:52</time>
      </trkpt>
      <trkpt lat="37.05583" lon="-3.37151">
        <ele>3154.2</ele>
        <time>2021-08-05 16:00:53</time>
      </trkpt>
      <trkpt lat="37.05583" lon="-3.3715">
        <ele>3154.2</ele>
        <time>2021-08-05 16:00:54</time>
      </trkpt>
      <trkpt lat="37.05582" lon="-3.3715">
        <ele>3154.4</ele>
        <time>2021-08-05 16:00:55</time>
      </trkpt>
      <trkpt lat="37.05581" lon="-3.37149">
        <ele>3154.4</ele>
        <time>2021-08-05 16:00:56</time>
      </trkpt>
      <trkpt lat="37.0558" lon="-3.37149">
        <ele>3154.4</ele>
        <time>2021-08-05 16:00:57</time>
      </trkpt>
      <trkpt lat="37.05579" lon="-3.3715">
        <ele>3154.4</ele>
        <time>2021-08-05 16:00:58</time>
      </trkpt>
      <trkpt lat="37.05578" lon="-3.3715">
        <ele>3154.4</ele>
        <time>2021-08-05 16:00:59</time>
      </trkpt>
      <trkpt lat="37.05577" lon="-3.37149">
        <ele>3154.4</ele>
        <time>2021-08-05 16:01:00</time>
      </trkpt>
      <trkpt lat="37.05576" lon="-3.37149">
        <ele>3154.4</ele>
        <time>2021-08-05 16:01:01</time>
      </trkpt>
      <trkpt lat="37.05576" lon="-3.3715">
        <ele>3154.4</ele>
        <time>2021-08-05 16:01:02</time>
      </trkpt>
      <trkpt lat="37.05575" lon="-3.3715">
        <ele>3154.4</ele>
        <time>2021-08-05 16:01:03</time>
      </trkpt>
      <trkpt lat="37.05574" lon="-3.3715">
        <ele>3154.6</ele>
        <time>2021-08-05 16:01:04</time>
      </trkpt>
      <trkpt lat="37.05573" lon="-3.3715">
        <ele>3154.6</ele>
        <time>2021-08-05 16:01:05</time>
      </trkpt>
      <trkpt lat="37.05572" lon="-3.3715">
        <ele>3154.6</ele>
        <time>2021-08-05 16:01:06</time>
      </trkpt>
      <trkpt lat="37.05572" lon="-3.37149">
        <ele>3154.8</ele>
        <time>2021-08-05 16:01:07</time>
      </trkpt>
      <trkpt lat="37.05571" lon="-3.37149">
        <ele>3155</ele>
        <time>2021-08-05 16:01:08</time>
      </trkpt>
      <trkpt lat="37.05571" lon="-3.37149">
        <ele>3155</ele>
        <time>2021-08-05 16:01:09</time>
      </trkpt>
      <trkpt lat="37.0557" lon="-3.37148">
        <ele>3155</ele>
        <time>2021-08-05 16:01:10</time>
      </trkpt>
      <trkpt lat="37.0557" lon="-3.37148">
        <ele>3155</ele>
        <time>2021-08-05 16:01:11</time>
      </trkpt>
      <trkpt lat="37.05569" lon="-3.37148">
        <ele>3155.4</ele>
        <time>2021-08-05 16:01:12</time>
      </trkpt>
      <trkpt lat="37.05569" lon="-3.37148">
        <ele>3155.4</ele>
        <time>2021-08-05 16:01:13</time>
      </trkpt>
      <trkpt lat="37.05568" lon="-3.37147">
        <ele>3155.4</ele>
        <time>2021-08-05 16:01:14</time>
      </trkpt>
      <trkpt lat="37.05568" lon="-3.37147">
        <ele>3155.4</ele>
        <time>2021-08-05 16:01:15</time>
      </trkpt>
      <trkpt lat="37.05567" lon="-3.37146">
        <ele>3155.4</ele>
        <time>2021-08-05 16:01:16</time>
      </trkpt>
      <trkpt lat="37.05566" lon="-3.37146">
        <ele>3155.6</ele>
        <time>2021-08-05 16:01:17</time>
      </trkpt>
      <trkpt lat="37.05565" lon="-3.37146">
        <ele>3155.8</ele>
        <time>2021-08-05 16:01:18</time>
      </trkpt>
      <trkpt lat="37.05564" lon="-3.37145">
        <ele>3156</ele>
        <time>2021-08-05 16:01:19</time>
      </trkpt>
      <trkpt lat="37.05563" lon="-3.37145">
        <ele>3156</ele>
        <time>2021-08-05 16:01:20</time>
      </trkpt>
      <trkpt lat="37.05562" lon="-3.37144">
        <ele>3156.2</ele>
        <time>2021-08-05 16:01:21</time>
      </trkpt>
      <trkpt lat="37.05561" lon="-3.37143">
        <ele>3156.2</ele>
        <time>2021-08-05 16:01:22</time>
      </trkpt>
      <trkpt lat="37.0556" lon="-3.37143">
        <ele>3156.2</ele>
        <time>2021-08-05 16:01:23</time>
      </trkpt>
      <trkpt lat="37.05559" lon="-3.37143">
        <ele>3156.2</ele>
        <time>2021-08-05 16:01:24</time>
      </trkpt>
      <trkpt lat="37.05559" lon="-3.37142">
        <ele>3156.2</ele>
        <time>2021-08-05 16:01:25</time>
      </trkpt>
      <trkpt lat="37.05558" lon="-3.37142">
        <ele>3156.2</ele>
        <time>2021-08-05 16:01:26</time>
      </trkpt>
      <trkpt lat="37.05557" lon="-3.37141">
        <ele>3156.2</ele>
        <time>2021-08-05 16:01:27</time>
      </trkpt>
      <trkpt lat="37.05556" lon="-3.37141">
        <ele>3156.2</ele>
        <time>2021-08-05 16:01:28</time>
      </trkpt>
      <trkpt lat="37.05555" lon="-3.3714">
        <ele>3156.2</ele>
        <time>2021-08-05 16:01:29</time>
      </trkpt>
      <trkpt lat="37.05554" lon="-3.3714">
        <ele>3156.2</ele>
        <time>2021-08-05 16:01:30</time>
      </trkpt>
      <trkpt lat="37.05553" lon="-3.3714">
        <ele>3156.2</ele>
        <time>2021-08-05 16:01:31</time>
      </trkpt>
      <trkpt lat="37.05553" lon="-3.3714">
        <ele>3156.2</ele>
        <time>2021-08-05 16:01:32</time>
      </trkpt>
      <trkpt lat="37.05552" lon="-3.37139">
        <ele>3156.2</ele>
        <time>2021-08-05 16:01:33</time>
      </trkpt>
      <trkpt lat="37.05551" lon="-3.37139">
        <ele>3156.2</ele>
        <time>2021-08-05 16:01:34</time>
      </trkpt>
      <trkpt lat="37.05551" lon="-3.3714">
        <ele>3156</ele>
        <time>2021-08-05 16:01:35</time>
      </trkpt>
      <trkpt lat="37.0555" lon="-3.3714">
        <ele>3156</ele>
        <time>2021-08-05 16:01:36</time>
      </trkpt>
      <trkpt lat="37.05549" lon="-3.3714">
        <ele>3156</ele>
        <time>2021-08-05 16:01:37</time>
      </trkpt>
      <trkpt lat="37.05549" lon="-3.3714">
        <ele>3156</ele>
        <time>2021-08-05 16:01:38</time>
      </trkpt>
      <trkpt lat="37.05548" lon="-3.3714">
        <ele>3156.2</ele>
        <time>2021-08-05 16:01:39</time>
      </trkpt>
      <trkpt lat="37.05547" lon="-3.3714">
        <ele>3156.6</ele>
        <time>2021-08-05 16:01:40</time>
      </trkpt>
      <trkpt lat="37.05547" lon="-3.3714">
        <ele>3156.6</ele>
        <time>2021-08-05 16:01:41</time>
      </trkpt>
      <trkpt lat="37.05546" lon="-3.3714">
        <ele>3156.4</ele>
        <time>2021-08-05 16:01:42</time>
      </trkpt>
      <trkpt lat="37.05546" lon="-3.37141">
        <ele>3156.8</ele>
        <time>2021-08-05 16:01:43</time>
      </trkpt>
      <trkpt lat="37.05545" lon="-3.3714">
        <ele>3156.8</ele>
        <time>2021-08-05 16:01:44</time>
      </trkpt>
      <trkpt lat="37.05544" lon="-3.3714">
        <ele>3156.8</ele>
        <time>2021-08-05 16:01:45</time>
      </trkpt>
      <trkpt lat="37.05544" lon="-3.3714">
        <ele>3156.8</ele>
        <time>2021-08-05 16:01:46</time>
      </trkpt>
      <trkpt lat="37.05543" lon="-3.3714">
        <ele>3156.6</ele>
        <time>2021-08-05 16:01:47</time>
      </trkpt>
      <trkpt lat="37.05542" lon="-3.3714">
        <ele>3156.6</ele>
        <time>2021-08-05 16:01:48</time>
      </trkpt>
      <trkpt lat="37.05541" lon="-3.37139">
        <ele>3156.6</ele>
        <time>2021-08-05 16:01:49</time>
      </trkpt>
      <trkpt lat="37.0554" lon="-3.37139">
        <ele>3156.6</ele>
        <time>2021-08-05 16:01:50</time>
      </trkpt>
      <trkpt lat="37.05539" lon="-3.37139">
        <ele>3156.4</ele>
        <time>2021-08-05 16:01:51</time>
      </trkpt>
      <trkpt lat="37.05538" lon="-3.37138">
        <ele>3156.4</ele>
        <time>2021-08-05 16:01:52</time>
      </trkpt>
      <trkpt lat="37.05537" lon="-3.37138">
        <ele>3156.8</ele>
        <time>2021-08-05 16:01:53</time>
      </trkpt>
      <trkpt lat="37.05537" lon="-3.37138">
        <ele>3157</ele>
        <time>2021-08-05 16:01:54</time>
      </trkpt>
      <trkpt lat="37.05536" lon="-3.37138">
        <ele>3157</ele>
        <time>2021-08-05 16:01:55</time>
      </trkpt>
      <trkpt lat="37.05535" lon="-3.37137">
        <ele>3157.2</ele>
        <time>2021-08-05 16:01:56</time>
      </trkpt>
      <trkpt lat="37.05535" lon="-3.37136">
        <ele>3157.2</ele>
        <time>2021-08-05 16:01:57</time>
      </trkpt>
      <trkpt lat="37.05534" lon="-3.37136">
        <ele>3157.2</ele>
        <time>2021-08-05 16:01:58</time>
      </trkpt>
      <trkpt lat="37.05533" lon="-3.37136">
        <ele>3157.2</ele>
        <time>2021-08-05 16:01:59</time>
      </trkpt>
      <trkpt lat="37.05533" lon="-3.37135">
        <ele>3157.2</ele>
        <time>2021-08-05 16:02:00</time>
      </trkpt>
      <trkpt lat="37.05532" lon="-3.37135">
        <ele>3157.4</ele>
        <time>2021-08-05 16:02:01</time>
      </trkpt>
      <trkpt lat="37.05531" lon="-3.37135">
        <ele>3157.4</ele>
        <time>2021-08-05 16:02:02</time>
      </trkpt>
      <trkpt lat="37.0553" lon="-3.37134">
        <ele>3157.4</ele>
        <time>2021-08-05 16:02:03</time>
      </trkpt>
      <trkpt lat="37.05529" lon="-3.37133">
        <ele>3157.4</ele>
        <time>2021-08-05 16:02:04</time>
      </trkpt>
      <trkpt lat="37.05528" lon="-3.37133">
        <ele>3157.4</ele>
        <time>2021-08-05 16:02:05</time>
      </trkpt>
      <trkpt lat="37.05528" lon="-3.37133">
        <ele>3157.6</ele>
        <time>2021-08-05 16:02:06</time>
      </trkpt>
      <trkpt lat="37.05527" lon="-3.37132">
        <ele>3157.6</ele>
        <time>2021-08-05 16:02:07</time>
      </trkpt>
      <trkpt lat="37.05526" lon="-3.37132">
        <ele>3157.6</ele>
        <time>2021-08-05 16:02:08</time>
      </trkpt>
      <trkpt lat="37.05526" lon="-3.37132">
        <ele>3157.8</ele>
        <time>2021-08-05 16:02:09</time>
      </trkpt>
      <trkpt lat="37.05525" lon="-3.37131">
        <ele>3157.8</ele>
        <time>2021-08-05 16:02:10</time>
      </trkpt>
      <trkpt lat="37.05524" lon="-3.37131">
        <ele>3157.8</ele>
        <time>2021-08-05 16:02:11</time>
      </trkpt>
      <trkpt lat="37.05524" lon="-3.37131">
        <ele>3157.8</ele>
        <time>2021-08-05 16:02:12</time>
      </trkpt>
      <trkpt lat="37.05524" lon="-3.37131">
        <ele>3157.8</ele>
        <time>2021-08-05 16:02:13</time>
      </trkpt>
      <trkpt lat="37.05523" lon="-3.37131">
        <ele>3157.8</ele>
        <time>2021-08-05 16:02:14</time>
      </trkpt>
      <trkpt lat="37.05523" lon="-3.37131">
        <ele>3157.8</ele>
        <time>2021-08-05 16:02:15</time>
      </trkpt>
      <trkpt lat="37.05522" lon="-3.37132">
        <ele>3157.8</ele>
        <time>2021-08-05 16:02:16</time>
      </trkpt>
      <trkpt lat="37.05521" lon="-3.37131">
        <ele>3157.8</ele>
        <time>2021-08-05 16:02:17</time>
      </trkpt>
      <trkpt lat="37.05521" lon="-3.37131">
        <ele>3157.8</ele>
        <time>2021-08-05 16:02:18</time>
      </trkpt>
      <trkpt lat="37.0552" lon="-3.37131">
        <ele>3157.8</ele>
        <time>2021-08-05 16:02:19</time>
      </trkpt>
      <trkpt lat="37.05519" lon="-3.3713">
        <ele>3157.8</ele>
        <time>2021-08-05 16:02:20</time>
      </trkpt>
      <trkpt lat="37.05519" lon="-3.37129">
        <ele>3157.8</ele>
        <time>2021-08-05 16:02:21</time>
      </trkpt>
      <trkpt lat="37.05518" lon="-3.37127">
        <ele>3157.8</ele>
        <time>2021-08-05 16:02:22</time>
      </trkpt>
      <trkpt lat="37.05518" lon="-3.37128">
        <ele>3157.8</ele>
        <time>2021-08-05 16:02:23</time>
      </trkpt>
      <trkpt lat="37.05517" lon="-3.37128">
        <ele>3157.8</ele>
        <time>2021-08-05 16:02:24</time>
      </trkpt>
      <trkpt lat="37.05517" lon="-3.37129">
        <ele>3158</ele>
        <time>2021-08-05 16:02:25</time>
      </trkpt>
      <trkpt lat="37.05516" lon="-3.37128">
        <ele>3158.2</ele>
        <time>2021-08-05 16:02:26</time>
      </trkpt>
      <trkpt lat="37.05515" lon="-3.37128">
        <ele>3158.2</ele>
        <time>2021-08-05 16:02:27</time>
      </trkpt>
      <trkpt lat="37.05514" lon="-3.37128">
        <ele>3158.2</ele>
        <time>2021-08-05 16:02:28</time>
      </trkpt>
      <trkpt lat="37.05514" lon="-3.37128">
        <ele>3158.4</ele>
        <time>2021-08-05 16:02:29</time>
      </trkpt>
      <trkpt lat="37.05513" lon="-3.37128">
        <ele>3158.4</ele>
        <time>2021-08-05 16:02:30</time>
      </trkpt>
      <trkpt lat="37.05513" lon="-3.37128">
        <ele>3158.2</ele>
        <time>2021-08-05 16:02:31</time>
      </trkpt>
      <trkpt lat="37.05512" lon="-3.37128">
        <ele>3158.2</ele>
        <time>2021-08-05 16:02:32</time>
      </trkpt>
      <trkpt lat="37.05511" lon="-3.37127">
        <ele>3158.2</ele>
        <time>2021-08-05 16:02:33</time>
      </trkpt>
      <trkpt lat="37.0551" lon="-3.37126">
        <ele>3158.4</ele>
        <time>2021-08-05 16:02:34</time>
      </trkpt>
      <trkpt lat="37.0551" lon="-3.37126">
        <ele>3158.4</ele>
        <time>2021-08-05 16:02:35</time>
      </trkpt>
      <trkpt lat="37.05509" lon="-3.37126">
        <ele>3158.4</ele>
        <time>2021-08-05 16:02:36</time>
      </trkpt>
      <trkpt lat="37.05508" lon="-3.37126">
        <ele>3158.4</ele>
        <time>2021-08-05 16:02:37</time>
      </trkpt>
      <trkpt lat="37.05507" lon="-3.37125">
        <ele>3158.4</ele>
        <time>2021-08-05 16:02:38</time>
      </trkpt>
      <trkpt lat="37.05507" lon="-3.37125">
        <ele>3158.4</ele>
        <time>2021-08-05 16:02:39</time>
      </trkpt>
      <trkpt lat="37.05507" lon="-3.37126">
        <ele>3158.4</ele>
        <time>2021-08-05 16:02:40</time>
      </trkpt>
      <trkpt lat="37.05506" lon="-3.37126">
        <ele>3158.4</ele>
        <time>2021-08-05 16:02:41</time>
      </trkpt>
      <trkpt lat="37.05505" lon="-3.37126">
        <ele>3158.4</ele>
        <time>2021-08-05 16:02:42</time>
      </trkpt>
      <trkpt lat="37.05505" lon="-3.37126">
        <ele>3158.6</ele>
        <time>2021-08-05 16:02:43</time>
      </trkpt>
      <trkpt lat="37.05504" lon="-3.37126">
        <ele>3158.6</ele>
        <time>2021-08-05 16:02:44</time>
      </trkpt>
      <trkpt lat="37.05503" lon="-3.37126">
        <ele>3158.8</ele>
        <time>2021-08-05 16:02:45</time>
      </trkpt>
      <trkpt lat="37.05502" lon="-3.37126">
        <ele>3159</ele>
        <time>2021-08-05 16:02:46</time>
      </trkpt>
      <trkpt lat="37.055" lon="-3.37123">
        <ele>3159</ele>
        <time>2021-08-05 16:02:47</time>
      </trkpt>
      <trkpt lat="37.05499" lon="-3.37123">
        <ele>3159</ele>
        <time>2021-08-05 16:02:48</time>
      </trkpt>
      <trkpt lat="37.05498" lon="-3.37122">
        <ele>3159.4</ele>
        <time>2021-08-05 16:02:49</time>
      </trkpt>
      <trkpt lat="37.05497" lon="-3.37122">
        <ele>3159.4</ele>
        <time>2021-08-05 16:02:50</time>
      </trkpt>
      <trkpt lat="37.05497" lon="-3.37122">
        <ele>3159.6</ele>
        <time>2021-08-05 16:02:51</time>
      </trkpt>
      <trkpt lat="37.05496" lon="-3.37123">
        <ele>3159.4</ele>
        <time>2021-08-05 16:02:52</time>
      </trkpt>
      <trkpt lat="37.05495" lon="-3.37122">
        <ele>3159.2</ele>
        <time>2021-08-05 16:02:53</time>
      </trkpt>
      <trkpt lat="37.05494" lon="-3.37122">
        <ele>3159.2</ele>
        <time>2021-08-05 16:02:54</time>
      </trkpt>
      <trkpt lat="37.05493" lon="-3.37122">
        <ele>3159.4</ele>
        <time>2021-08-05 16:02:55</time>
      </trkpt>
      <trkpt lat="37.05492" lon="-3.37122">
        <ele>3159.6</ele>
        <time>2021-08-05 16:02:56</time>
      </trkpt>
      <trkpt lat="37.05491" lon="-3.37121">
        <ele>3160</ele>
        <time>2021-08-05 16:02:57</time>
      </trkpt>
      <trkpt lat="37.05491" lon="-3.37121">
        <ele>3160.2</ele>
        <time>2021-08-05 16:02:58</time>
      </trkpt>
      <trkpt lat="37.0549" lon="-3.37121">
        <ele>3160.4</ele>
        <time>2021-08-05 16:02:59</time>
      </trkpt>
      <trkpt lat="37.0549" lon="-3.37121">
        <ele>3160.6</ele>
        <time>2021-08-05 16:03:00</time>
      </trkpt>
      <trkpt lat="37.05489" lon="-3.37121">
        <ele>3160.6</ele>
        <time>2021-08-05 16:03:01</time>
      </trkpt>
      <trkpt lat="37.05488" lon="-3.3712">
        <ele>3160.6</ele>
        <time>2021-08-05 16:03:02</time>
      </trkpt>
      <trkpt lat="37.05488" lon="-3.3712">
        <ele>3160.6</ele>
        <time>2021-08-05 16:03:03</time>
      </trkpt>
      <trkpt lat="37.05488" lon="-3.3712">
        <ele>3160.6</ele>
        <time>2021-08-05 16:03:04</time>
      </trkpt>
      <trkpt lat="37.05487" lon="-3.3712">
        <ele>3160.6</ele>
        <time>2021-08-05 16:03:05</time>
      </trkpt>
      <trkpt lat="37.05486" lon="-3.3712">
        <ele>3160.8</ele>
        <time>2021-08-05 16:03:06</time>
      </trkpt>
      <trkpt lat="37.05485" lon="-3.3712">
        <ele>3160.8</ele>
        <time>2021-08-05 16:03:07</time>
      </trkpt>
      <trkpt lat="37.05485" lon="-3.37119">
        <ele>3160.8</ele>
        <time>2021-08-05 16:03:08</time>
      </trkpt>
      <trkpt lat="37.05484" lon="-3.37119">
        <ele>3160.8</ele>
        <time>2021-08-05 16:03:09</time>
      </trkpt>
      <trkpt lat="37.05483" lon="-3.37118">
        <ele>3160.8</ele>
        <time>2021-08-05 16:03:10</time>
      </trkpt>
      <trkpt lat="37.05482" lon="-3.37118">
        <ele>3161</ele>
        <time>2021-08-05 16:03:11</time>
      </trkpt>
      <trkpt lat="37.05481" lon="-3.37117">
        <ele>3161.2</ele>
        <time>2021-08-05 16:03:12</time>
      </trkpt>
      <trkpt lat="37.0548" lon="-3.37116">
        <ele>3161.2</ele>
        <time>2021-08-05 16:03:13</time>
      </trkpt>
      <trkpt lat="37.05479" lon="-3.37116">
        <ele>3161.2</ele>
        <time>2021-08-05 16:03:14</time>
      </trkpt>
      <trkpt lat="37.05478" lon="-3.37115">
        <ele>3161.4</ele>
        <time>2021-08-05 16:03:15</time>
      </trkpt>
      <trkpt lat="37.05478" lon="-3.37115">
        <ele>3161.4</ele>
        <time>2021-08-05 16:03:16</time>
      </trkpt>
      <trkpt lat="37.05477" lon="-3.37115">
        <ele>3161.4</ele>
        <time>2021-08-05 16:03:17</time>
      </trkpt>
      <trkpt lat="37.05476" lon="-3.37114">
        <ele>3161.4</ele>
        <time>2021-08-05 16:03:18</time>
      </trkpt>
      <trkpt lat="37.05475" lon="-3.37114">
        <ele>3161.4</ele>
        <time>2021-08-05 16:03:19</time>
      </trkpt>
      <trkpt lat="37.05474" lon="-3.37114">
        <ele>3161.4</ele>
        <time>2021-08-05 16:03:20</time>
      </trkpt>
      <trkpt lat="37.05473" lon="-3.37114">
        <ele>3161.4</ele>
        <time>2021-08-05 16:03:21</time>
      </trkpt>
      <trkpt lat="37.05471" lon="-3.37114">
        <ele>3161.6</ele>
        <time>2021-08-05 16:03:22</time>
      </trkpt>
      <trkpt lat="37.0547" lon="-3.37114">
        <ele>3161.6</ele>
        <time>2021-08-05 16:03:23</time>
      </trkpt>
      <trkpt lat="37.0547" lon="-3.37114">
        <ele>3161.6</ele>
        <time>2021-08-05 16:03:24</time>
      </trkpt>
      <trkpt lat="37.05469" lon="-3.37114">
        <ele>3161.6</ele>
        <time>2021-08-05 16:03:25</time>
      </trkpt>
      <trkpt lat="37.05468" lon="-3.37112">
        <ele>3161.8</ele>
        <time>2021-08-05 16:03:26</time>
      </trkpt>
      <trkpt lat="37.05467" lon="-3.37112">
        <ele>3161.8</ele>
        <time>2021-08-05 16:03:27</time>
      </trkpt>
      <trkpt lat="37.05466" lon="-3.37112">
        <ele>3162</ele>
        <time>2021-08-05 16:03:28</time>
      </trkpt>
      <trkpt lat="37.05465" lon="-3.37112">
        <ele>3162.2</ele>
        <time>2021-08-05 16:03:29</time>
      </trkpt>
      <trkpt lat="37.05464" lon="-3.37113">
        <ele>3162.2</ele>
        <time>2021-08-05 16:03:30</time>
      </trkpt>
      <trkpt lat="37.05464" lon="-3.37113">
        <ele>3162.2</ele>
        <time>2021-08-05 16:03:31</time>
      </trkpt>
      <trkpt lat="37.05463" lon="-3.37113">
        <ele>3162.2</ele>
        <time>2021-08-05 16:03:32</time>
      </trkpt>
      <trkpt lat="37.05463" lon="-3.37113">
        <ele>3162.2</ele>
        <time>2021-08-05 16:03:33</time>
      </trkpt>
      <trkpt lat="37.05462" lon="-3.37114">
        <ele>3162.2</ele>
        <time>2021-08-05 16:03:34</time>
      </trkpt>
      <trkpt lat="37.05461" lon="-3.37114">
        <ele>3162.2</ele>
        <time>2021-08-05 16:03:35</time>
      </trkpt>
      <trkpt lat="37.05461" lon="-3.37114">
        <ele>3162.2</ele>
        <time>2021-08-05 16:03:36</time>
      </trkpt>
      <trkpt lat="37.0546" lon="-3.37114">
        <ele>3162.2</ele>
        <time>2021-08-05 16:03:37</time>
      </trkpt>
      <trkpt lat="37.05459" lon="-3.37114">
        <ele>3162.4</ele>
        <time>2021-08-05 16:03:38</time>
      </trkpt>
      <trkpt lat="37.05459" lon="-3.37114">
        <ele>3162.6</ele>
        <time>2021-08-05 16:03:39</time>
      </trkpt>
      <trkpt lat="37.05458" lon="-3.37114">
        <ele>3162.6</ele>
        <time>2021-08-05 16:03:40</time>
      </trkpt>
      <trkpt lat="37.05457" lon="-3.37114">
        <ele>3162.8</ele>
        <time>2021-08-05 16:03:41</time>
      </trkpt>
      <trkpt lat="37.05457" lon="-3.37114">
        <ele>3162.8</ele>
        <time>2021-08-05 16:03:42</time>
      </trkpt>
      <trkpt lat="37.05456" lon="-3.37114">
        <ele>3162.8</ele>
        <time>2021-08-05 16:03:43</time>
      </trkpt>
      <trkpt lat="37.05455" lon="-3.37113">
        <ele>3162.8</ele>
        <time>2021-08-05 16:03:44</time>
      </trkpt>
      <trkpt lat="37.05455" lon="-3.37113">
        <ele>3162.8</ele>
        <time>2021-08-05 16:03:45</time>
      </trkpt>
      <trkpt lat="37.05454" lon="-3.37113">
        <ele>3163</ele>
        <time>2021-08-05 16:03:46</time>
      </trkpt>
      <trkpt lat="37.05454" lon="-3.37113">
        <ele>3163</ele>
        <time>2021-08-05 16:03:47</time>
      </trkpt>
      <trkpt lat="37.05453" lon="-3.37113">
        <ele>3163</ele>
        <time>2021-08-05 16:03:48</time>
      </trkpt>
      <trkpt lat="37.05452" lon="-3.37113">
        <ele>3163.2</ele>
        <time>2021-08-05 16:03:49</time>
      </trkpt>
      <trkpt lat="37.05451" lon="-3.37113">
        <ele>3163.4</ele>
        <time>2021-08-05 16:03:50</time>
      </trkpt>
      <trkpt lat="37.0545" lon="-3.37113">
        <ele>3163.6</ele>
        <time>2021-08-05 16:03:51</time>
      </trkpt>
      <trkpt lat="37.0545" lon="-3.37113">
        <ele>3163.8</ele>
        <time>2021-08-05 16:03:52</time>
      </trkpt>
      <trkpt lat="37.05449" lon="-3.37113">
        <ele>3164</ele>
        <time>2021-08-05 16:03:53</time>
      </trkpt>
      <trkpt lat="37.05448" lon="-3.37113">
        <ele>3164</ele>
        <time>2021-08-05 16:03:54</time>
      </trkpt>
      <trkpt lat="37.05447" lon="-3.37113">
        <ele>3164.2</ele>
        <time>2021-08-05 16:03:55</time>
      </trkpt>
      <trkpt lat="37.05446" lon="-3.37113">
        <ele>3164.2</ele>
        <time>2021-08-05 16:03:56</time>
      </trkpt>
      <trkpt lat="37.05445" lon="-3.37113">
        <ele>3164.4</ele>
        <time>2021-08-05 16:03:57</time>
      </trkpt>
      <trkpt lat="37.05444" lon="-3.37114">
        <ele>3164.6</ele>
        <time>2021-08-05 16:03:58</time>
      </trkpt>
      <trkpt lat="37.05443" lon="-3.37114">
        <ele>3164.6</ele>
        <time>2021-08-05 16:03:59</time>
      </trkpt>
      <trkpt lat="37.05442" lon="-3.37115">
        <ele>3164.8</ele>
        <time>2021-08-05 16:04:00</time>
      </trkpt>
      <trkpt lat="37.05441" lon="-3.37115">
        <ele>3164.8</ele>
        <time>2021-08-05 16:04:01</time>
      </trkpt>
      <trkpt lat="37.0544" lon="-3.37116">
        <ele>3164.8</ele>
        <time>2021-08-05 16:04:02</time>
      </trkpt>
      <trkpt lat="37.0544" lon="-3.37116">
        <ele>3164.6</ele>
        <time>2021-08-05 16:04:03</time>
      </trkpt>
      <trkpt lat="37.05439" lon="-3.37116">
        <ele>3164.6</ele>
        <time>2021-08-05 16:04:04</time>
      </trkpt>
      <trkpt lat="37.05438" lon="-3.37116">
        <ele>3164.6</ele>
        <time>2021-08-05 16:04:05</time>
      </trkpt>
      <trkpt lat="37.05437" lon="-3.37117">
        <ele>3164.6</ele>
        <time>2021-08-05 16:04:06</time>
      </trkpt>
      <trkpt lat="37.05437" lon="-3.37117">
        <ele>3164.6</ele>
        <time>2021-08-05 16:04:07</time>
      </trkpt>
      <trkpt lat="37.05436" lon="-3.37117">
        <ele>3164.6</ele>
        <time>2021-08-05 16:04:08</time>
      </trkpt>
      <trkpt lat="37.05435" lon="-3.37117">
        <ele>3164.6</ele>
        <time>2021-08-05 16:04:09</time>
      </trkpt>
      <trkpt lat="37.05434" lon="-3.37117">
        <ele>3164.8</ele>
        <time>2021-08-05 16:04:10</time>
      </trkpt>
      <trkpt lat="37.05434" lon="-3.37117">
        <ele>3165.4</ele>
        <time>2021-08-05 16:04:11</time>
      </trkpt>
      <trkpt lat="37.05433" lon="-3.37117">
        <ele>3165.4</ele>
        <time>2021-08-05 16:04:12</time>
      </trkpt>
      <trkpt lat="37.05432" lon="-3.37117">
        <ele>3165.6</ele>
        <time>2021-08-05 16:04:13</time>
      </trkpt>
      <trkpt lat="37.05431" lon="-3.37118">
        <ele>3165.6</ele>
        <time>2021-08-05 16:04:14</time>
      </trkpt>
      <trkpt lat="37.05431" lon="-3.37117">
        <ele>3165.8</ele>
        <time>2021-08-05 16:04:15</time>
      </trkpt>
      <trkpt lat="37.0543" lon="-3.37117">
        <ele>3165.8</ele>
        <time>2021-08-05 16:04:16</time>
      </trkpt>
      <trkpt lat="37.0543" lon="-3.37117">
        <ele>3166</ele>
        <time>2021-08-05 16:04:17</time>
      </trkpt>
      <trkpt lat="37.05429" lon="-3.37116">
        <ele>3166</ele>
        <time>2021-08-05 16:04:18</time>
      </trkpt>
      <trkpt lat="37.05427" lon="-3.37116">
        <ele>3166</ele>
        <time>2021-08-05 16:04:19</time>
      </trkpt>
      <trkpt lat="37.05426" lon="-3.37116">
        <ele>3166.2</ele>
        <time>2021-08-05 16:04:20</time>
      </trkpt>
      <trkpt lat="37.05425" lon="-3.37116">
        <ele>3166.2</ele>
        <time>2021-08-05 16:04:21</time>
      </trkpt>
      <trkpt lat="37.05425" lon="-3.37116">
        <ele>3166.2</ele>
        <time>2021-08-05 16:04:22</time>
      </trkpt>
      <trkpt lat="37.05424" lon="-3.37116">
        <ele>3166.2</ele>
        <time>2021-08-05 16:04:23</time>
      </trkpt>
      <trkpt lat="37.05423" lon="-3.37117">
        <ele>3166.4</ele>
        <time>2021-08-05 16:04:24</time>
      </trkpt>
      <trkpt lat="37.05423" lon="-3.37117">
        <ele>3166.4</ele>
        <time>2021-08-05 16:04:25</time>
      </trkpt>
      <trkpt lat="37.05422" lon="-3.37117">
        <ele>3166.6</ele>
        <time>2021-08-05 16:04:26</time>
      </trkpt>
      <trkpt lat="37.05422" lon="-3.37118">
        <ele>3166.6</ele>
        <time>2021-08-05 16:04:27</time>
      </trkpt>
      <trkpt lat="37.05421" lon="-3.37118">
        <ele>3166.8</ele>
        <time>2021-08-05 16:04:28</time>
      </trkpt>
      <trkpt lat="37.05421" lon="-3.37119">
        <ele>3166.8</ele>
        <time>2021-08-05 16:04:29</time>
      </trkpt>
      <trkpt lat="37.05421" lon="-3.37119">
        <ele>3166.8</ele>
        <time>2021-08-05 16:04:30</time>
      </trkpt>
      <trkpt lat="37.05421" lon="-3.37118">
        <ele>3167</ele>
        <time>2021-08-05 16:04:31</time>
      </trkpt>
      <trkpt lat="37.0542" lon="-3.37118">
        <ele>3167</ele>
        <time>2021-08-05 16:04:32</time>
      </trkpt>
      <trkpt lat="37.05419" lon="-3.37117">
        <ele>3167.2</ele>
        <time>2021-08-05 16:04:33</time>
      </trkpt>
      <trkpt lat="37.05418" lon="-3.37117">
        <ele>3167.4</ele>
        <time>2021-08-05 16:04:34</time>
      </trkpt>
      <trkpt lat="37.05418" lon="-3.37117">
        <ele>3167.4</ele>
        <time>2021-08-05 16:04:35</time>
      </trkpt>
      <trkpt lat="37.05417" lon="-3.37117">
        <ele>3167.4</ele>
        <time>2021-08-05 16:04:36</time>
      </trkpt>
      <trkpt lat="37.05417" lon="-3.37117">
        <ele>3167.4</ele>
        <time>2021-08-05 16:04:37</time>
      </trkpt>
      <trkpt lat="37.05417" lon="-3.37118">
        <ele>3167.6</ele>
        <time>2021-08-05 16:04:38</time>
      </trkpt>
      <trkpt lat="37.05417" lon="-3.37118">
        <ele>3167.6</ele>
        <time>2021-08-05 16:04:39</time>
      </trkpt>
      <trkpt lat="37.05416" lon="-3.37118">
        <ele>3167.6</ele>
        <time>2021-08-05 16:04:40</time>
      </trkpt>
      <trkpt lat="37.05415" lon="-3.37118">
        <ele>3167.6</ele>
        <time>2021-08-05 16:04:41</time>
      </trkpt>
      <trkpt lat="37.05415" lon="-3.37118">
        <ele>3167.8</ele>
        <time>2021-08-05 16:04:42</time>
      </trkpt>
      <trkpt lat="37.05414" lon="-3.37118">
        <ele>3167.8</ele>
        <time>2021-08-05 16:04:43</time>
      </trkpt>
      <trkpt lat="37.05413" lon="-3.37117">
        <ele>3167.8</ele>
        <time>2021-08-05 16:04:44</time>
      </trkpt>
      <trkpt lat="37.05412" lon="-3.37117">
        <ele>3167.8</ele>
        <time>2021-08-05 16:04:45</time>
      </trkpt>
      <trkpt lat="37.05411" lon="-3.37116">
        <ele>3167.6</ele>
        <time>2021-08-05 16:04:46</time>
      </trkpt>
      <trkpt lat="37.05411" lon="-3.37115">
        <ele>3167.6</ele>
        <time>2021-08-05 16:04:47</time>
      </trkpt>
      <trkpt lat="37.0541" lon="-3.37114">
        <ele>3167.8</ele>
        <time>2021-08-05 16:04:48</time>
      </trkpt>
      <trkpt lat="37.05408" lon="-3.37114">
        <ele>3167.8</ele>
        <time>2021-08-05 16:04:49</time>
      </trkpt>
      <trkpt lat="37.05407" lon="-3.37113">
        <ele>3168</ele>
        <time>2021-08-05 16:04:50</time>
      </trkpt>
      <trkpt lat="37.05407" lon="-3.37113">
        <ele>3168.2</ele>
        <time>2021-08-05 16:04:51</time>
      </trkpt>
      <trkpt lat="37.05406" lon="-3.37113">
        <ele>3168.2</ele>
        <time>2021-08-05 16:04:52</time>
      </trkpt>
      <trkpt lat="37.05405" lon="-3.37113">
        <ele>3168.2</ele>
        <time>2021-08-05 16:04:53</time>
      </trkpt>
      <trkpt lat="37.05405" lon="-3.37114">
        <ele>3168.2</ele>
        <time>2021-08-05 16:04:54</time>
      </trkpt>
      <trkpt lat="37.05404" lon="-3.37114">
        <ele>3168.2</ele>
        <time>2021-08-05 16:04:55</time>
      </trkpt>
      <trkpt lat="37.05404" lon="-3.37114">
        <ele>3168.2</ele>
        <time>2021-08-05 16:04:56</time>
      </trkpt>
      <trkpt lat="37.05403" lon="-3.37114">
        <ele>3168</ele>
        <time>2021-08-05 16:04:57</time>
      </trkpt>
      <trkpt lat="37.05402" lon="-3.37115">
        <ele>3168</ele>
        <time>2021-08-05 16:04:58</time>
      </trkpt>
      <trkpt lat="37.05402" lon="-3.37115">
        <ele>3167.8</ele>
        <time>2021-08-05 16:04:59</time>
      </trkpt>
      <trkpt lat="37.05401" lon="-3.37116">
        <ele>3167.8</ele>
        <time>2021-08-05 16:05:00</time>
      </trkpt>
      <trkpt lat="37.054" lon="-3.37116">
        <ele>3167.8</ele>
        <time>2021-08-05 16:05:01</time>
      </trkpt>
      <trkpt lat="37.054" lon="-3.37116">
        <ele>3168</ele>
        <time>2021-08-05 16:05:02</time>
      </trkpt>
      <trkpt lat="37.05399" lon="-3.37116">
        <ele>3168.2</ele>
        <time>2021-08-05 16:05:03</time>
      </trkpt>
      <trkpt lat="37.05399" lon="-3.37117">
        <ele>3168.4</ele>
        <time>2021-08-05 16:05:04</time>
      </trkpt>
      <trkpt lat="37.05398" lon="-3.37117">
        <ele>3168.4</ele>
        <time>2021-08-05 16:05:05</time>
      </trkpt>
      <trkpt lat="37.05397" lon="-3.37117">
        <ele>3168.4</ele>
        <time>2021-08-05 16:05:06</time>
      </trkpt>
      <trkpt lat="37.05396" lon="-3.37117">
        <ele>3168.4</ele>
        <time>2021-08-05 16:05:07</time>
      </trkpt>
      <trkpt lat="37.05395" lon="-3.37117">
        <ele>3168.4</ele>
        <time>2021-08-05 16:05:08</time>
      </trkpt>
      <trkpt lat="37.05394" lon="-3.37117">
        <ele>3168.6</ele>
        <time>2021-08-05 16:05:09</time>
      </trkpt>
      <trkpt lat="37.05393" lon="-3.37117">
        <ele>3168.4</ele>
        <time>2021-08-05 16:05:10</time>
      </trkpt>
      <trkpt lat="37.05392" lon="-3.37118">
        <ele>3168.4</ele>
        <time>2021-08-05 16:05:11</time>
      </trkpt>
      <trkpt lat="37.05391" lon="-3.37118">
        <ele>3168.6</ele>
        <time>2021-08-05 16:05:12</time>
      </trkpt>
      <trkpt lat="37.0539" lon="-3.37118">
        <ele>3168.8</ele>
        <time>2021-08-05 16:05:13</time>
      </trkpt>
      <trkpt lat="37.05389" lon="-3.37118">
        <ele>3169</ele>
        <time>2021-08-05 16:05:14</time>
      </trkpt>
      <trkpt lat="37.05388" lon="-3.37118">
        <ele>3169</ele>
        <time>2021-08-05 16:05:15</time>
      </trkpt>
      <trkpt lat="37.05388" lon="-3.37118">
        <ele>3168.8</ele>
        <time>2021-08-05 16:05:16</time>
      </trkpt>
      <trkpt lat="37.05387" lon="-3.37118">
        <ele>3169</ele>
        <time>2021-08-05 16:05:17</time>
      </trkpt>
      <trkpt lat="37.05386" lon="-3.37118">
        <ele>3169</ele>
        <time>2021-08-05 16:05:18</time>
      </trkpt>
      <trkpt lat="37.05386" lon="-3.37118">
        <ele>3169</ele>
        <time>2021-08-05 16:05:19</time>
      </trkpt>
      <trkpt lat="37.05386" lon="-3.37118">
        <ele>3169</ele>
        <time>2021-08-05 16:05:20</time>
      </trkpt>
      <trkpt lat="37.05385" lon="-3.37118">
        <ele>3169.2</ele>
        <time>2021-08-05 16:05:21</time>
      </trkpt>
      <trkpt lat="37.05383" lon="-3.37118">
        <ele>3169.2</ele>
        <time>2021-08-05 16:05:22</time>
      </trkpt>
      <trkpt lat="37.05383" lon="-3.37117">
        <ele>3169.4</ele>
        <time>2021-08-05 16:05:23</time>
      </trkpt>
      <trkpt lat="37.05382" lon="-3.37117">
        <ele>3169.4</ele>
        <time>2021-08-05 16:05:24</time>
      </trkpt>
      <trkpt lat="37.05381" lon="-3.37117">
        <ele>3169.4</ele>
        <time>2021-08-05 16:05:25</time>
      </trkpt>
      <trkpt lat="37.0538" lon="-3.37117">
        <ele>3169.4</ele>
        <time>2021-08-05 16:05:26</time>
      </trkpt>
      <trkpt lat="37.05379" lon="-3.37117">
        <ele>3169.6</ele>
        <time>2021-08-05 16:05:27</time>
      </trkpt>
      <trkpt lat="37.05378" lon="-3.37117">
        <ele>3169.6</ele>
        <time>2021-08-05 16:05:28</time>
      </trkpt>
      <trkpt lat="37.05378" lon="-3.37118">
        <ele>3169.6</ele>
        <time>2021-08-05 16:05:29</time>
      </trkpt>
      <trkpt lat="37.05377" lon="-3.37117">
        <ele>3169.6</ele>
        <time>2021-08-05 16:05:30</time>
      </trkpt>
      <trkpt lat="37.05377" lon="-3.37118">
        <ele>3169.6</ele>
        <time>2021-08-05 16:05:31</time>
      </trkpt>
      <trkpt lat="37.05376" lon="-3.37118">
        <ele>3169.6</ele>
        <time>2021-08-05 16:05:32</time>
      </trkpt>
      <trkpt lat="37.05375" lon="-3.37119">
        <ele>3169.6</ele>
        <time>2021-08-05 16:05:33</time>
      </trkpt>
      <trkpt lat="37.05374" lon="-3.37119">
        <ele>3169.6</ele>
        <time>2021-08-05 16:05:34</time>
      </trkpt>
      <trkpt lat="37.05373" lon="-3.3712">
        <ele>3169.6</ele>
        <time>2021-08-05 16:05:35</time>
      </trkpt>
      <trkpt lat="37.05372" lon="-3.3712">
        <ele>3169.6</ele>
        <time>2021-08-05 16:05:36</time>
      </trkpt>
      <trkpt lat="37.05371" lon="-3.37121">
        <ele>3169.6</ele>
        <time>2021-08-05 16:05:37</time>
      </trkpt>
      <trkpt lat="37.0537" lon="-3.37121">
        <ele>3169.6</ele>
        <time>2021-08-05 16:05:38</time>
      </trkpt>
      <trkpt lat="37.05369" lon="-3.37121">
        <ele>3169.6</ele>
        <time>2021-08-05 16:05:39</time>
      </trkpt>
      <trkpt lat="37.05368" lon="-3.37122">
        <ele>3170</ele>
        <time>2021-08-05 16:05:40</time>
      </trkpt>
      <trkpt lat="37.05368" lon="-3.37122">
        <ele>3170.2</ele>
        <time>2021-08-05 16:05:41</time>
      </trkpt>
      <trkpt lat="37.05367" lon="-3.37122">
        <ele>3170.2</ele>
        <time>2021-08-05 16:05:42</time>
      </trkpt>
      <trkpt lat="37.05366" lon="-3.37122">
        <ele>3170.4</ele>
        <time>2021-08-05 16:05:43</time>
      </trkpt>
      <trkpt lat="37.05365" lon="-3.37123">
        <ele>3170.6</ele>
        <time>2021-08-05 16:05:44</time>
      </trkpt>
      <trkpt lat="37.05364" lon="-3.37123">
        <ele>3170.4</ele>
        <time>2021-08-05 16:05:45</time>
      </trkpt>
      <trkpt lat="37.05364" lon="-3.37123">
        <ele>3170.4</ele>
        <time>2021-08-05 16:05:46</time>
      </trkpt>
      <trkpt lat="37.05363" lon="-3.37123">
        <ele>3170.4</ele>
        <time>2021-08-05 16:05:47</time>
      </trkpt>
      <trkpt lat="37.05363" lon="-3.37122">
        <ele>3170.4</ele>
        <time>2021-08-05 16:05:48</time>
      </trkpt>
      <trkpt lat="37.05362" lon="-3.37121">
        <ele>3170.6</ele>
        <time>2021-08-05 16:05:49</time>
      </trkpt>
      <trkpt lat="37.05361" lon="-3.37121">
        <ele>3170.6</ele>
        <time>2021-08-05 16:05:50</time>
      </trkpt>
      <trkpt lat="37.05361" lon="-3.37121">
        <ele>3170.6</ele>
        <time>2021-08-05 16:05:51</time>
      </trkpt>
      <trkpt lat="37.0536" lon="-3.37122">
        <ele>3170.6</ele>
        <time>2021-08-05 16:05:52</time>
      </trkpt>
      <trkpt lat="37.0536" lon="-3.37122">
        <ele>3170.8</ele>
        <time>2021-08-05 16:05:53</time>
      </trkpt>
      <trkpt lat="37.0536" lon="-3.37122">
        <ele>3170.8</ele>
        <time>2021-08-05 16:05:54</time>
      </trkpt>
      <trkpt lat="37.05359" lon="-3.37121">
        <ele>3171</ele>
        <time>2021-08-05 16:05:55</time>
      </trkpt>
      <trkpt lat="37.05358" lon="-3.37121">
        <ele>3171</ele>
        <time>2021-08-05 16:05:56</time>
      </trkpt>
      <trkpt lat="37.05357" lon="-3.37121">
        <ele>3171</ele>
        <time>2021-08-05 16:05:57</time>
      </trkpt>
      <trkpt lat="37.05356" lon="-3.37121">
        <ele>3171.4</ele>
        <time>2021-08-05 16:05:58</time>
      </trkpt>
      <trkpt lat="37.05355" lon="-3.37121">
        <ele>3171.6</ele>
        <time>2021-08-05 16:05:59</time>
      </trkpt>
      <trkpt lat="37.05354" lon="-3.37121">
        <ele>3171.8</ele>
        <time>2021-08-05 16:06:00</time>
      </trkpt>
      <trkpt lat="37.05353" lon="-3.37121">
        <ele>3171.8</ele>
        <time>2021-08-05 16:06:01</time>
      </trkpt>
      <trkpt lat="37.05352" lon="-3.3712">
        <ele>3171.8</ele>
        <time>2021-08-05 16:06:02</time>
      </trkpt>
      <trkpt lat="37.05351" lon="-3.37121">
        <ele>3171.8</ele>
        <time>2021-08-05 16:06:03</time>
      </trkpt>
      <trkpt lat="37.05351" lon="-3.37121">
        <ele>3172</ele>
        <time>2021-08-05 16:06:04</time>
      </trkpt>
      <trkpt lat="37.05349" lon="-3.37121">
        <ele>3172</ele>
        <time>2021-08-05 16:06:05</time>
      </trkpt>
      <trkpt lat="37.05349" lon="-3.37121">
        <ele>3172.2</ele>
        <time>2021-08-05 16:06:06</time>
      </trkpt>
      <trkpt lat="37.05347" lon="-3.37121">
        <ele>3172.2</ele>
        <time>2021-08-05 16:06:07</time>
      </trkpt>
      <trkpt lat="37.05346" lon="-3.37121">
        <ele>3172.2</ele>
        <time>2021-08-05 16:06:08</time>
      </trkpt>
      <trkpt lat="37.05345" lon="-3.37121">
        <ele>3172.4</ele>
        <time>2021-08-05 16:06:09</time>
      </trkpt>
      <trkpt lat="37.05345" lon="-3.37121">
        <ele>3172.4</ele>
        <time>2021-08-05 16:06:10</time>
      </trkpt>
      <trkpt lat="37.05344" lon="-3.37121">
        <ele>3172.4</ele>
        <time>2021-08-05 16:06:11</time>
      </trkpt>
      <trkpt lat="37.05343" lon="-3.37122">
        <ele>3172.4</ele>
        <time>2021-08-05 16:06:12</time>
      </trkpt>
      <trkpt lat="37.05343" lon="-3.37122">
        <ele>3172.6</ele>
        <time>2021-08-05 16:06:13</time>
      </trkpt>
      <trkpt lat="37.05343" lon="-3.37122">
        <ele>3172.8</ele>
        <time>2021-08-05 16:06:14</time>
      </trkpt>
      <trkpt lat="37.05342" lon="-3.37122">
        <ele>3173</ele>
        <time>2021-08-05 16:06:15</time>
      </trkpt>
      <trkpt lat="37.05341" lon="-3.37122">
        <ele>3173</ele>
        <time>2021-08-05 16:06:16</time>
      </trkpt>
      <trkpt lat="37.0534" lon="-3.37123">
        <ele>3173</ele>
        <time>2021-08-05 16:06:17</time>
      </trkpt>
      <trkpt lat="37.0534" lon="-3.37123">
        <ele>3173</ele>
        <time>2021-08-05 16:06:18</time>
      </trkpt>
      <trkpt lat="37.05339" lon="-3.37124">
        <ele>3173</ele>
        <time>2021-08-05 16:06:19</time>
      </trkpt>
      <trkpt lat="37.05337" lon="-3.37124">
        <ele>3173</ele>
        <time>2021-08-05 16:06:20</time>
      </trkpt>
      <trkpt lat="37.05337" lon="-3.37124">
        <ele>3173</ele>
        <time>2021-08-05 16:06:21</time>
      </trkpt>
      <trkpt lat="37.05336" lon="-3.37125">
        <ele>3173</ele>
        <time>2021-08-05 16:06:22</time>
      </trkpt>
      <trkpt lat="37.05335" lon="-3.37125">
        <ele>3173</ele>
        <time>2021-08-05 16:06:23</time>
      </trkpt>
      <trkpt lat="37.05334" lon="-3.37125">
        <ele>3173</ele>
        <time>2021-08-05 16:06:24</time>
      </trkpt>
      <trkpt lat="37.05334" lon="-3.37125">
        <ele>3173.2</ele>
        <time>2021-08-05 16:06:25</time>
      </trkpt>
      <trkpt lat="37.05333" lon="-3.37125">
        <ele>3173.2</ele>
        <time>2021-08-05 16:06:26</time>
      </trkpt>
      <trkpt lat="37.05333" lon="-3.37125">
        <ele>3173.2</ele>
        <time>2021-08-05 16:06:27</time>
      </trkpt>
      <trkpt lat="37.05332" lon="-3.37125">
        <ele>3173.4</ele>
        <time>2021-08-05 16:06:28</time>
      </trkpt>
      <trkpt lat="37.05331" lon="-3.37125">
        <ele>3173.6</ele>
        <time>2021-08-05 16:06:29</time>
      </trkpt>
      <trkpt lat="37.05331" lon="-3.37126">
        <ele>3173.8</ele>
        <time>2021-08-05 16:06:30</time>
      </trkpt>
      <trkpt lat="37.0533" lon="-3.37126">
        <ele>3173.8</ele>
        <time>2021-08-05 16:06:31</time>
      </trkpt>
      <trkpt lat="37.05329" lon="-3.37126">
        <ele>3174</ele>
        <time>2021-08-05 16:06:32</time>
      </trkpt>
      <trkpt lat="37.05328" lon="-3.37126">
        <ele>3174</ele>
        <time>2021-08-05 16:06:33</time>
      </trkpt>
      <trkpt lat="37.05327" lon="-3.37127">
        <ele>3174</ele>
        <time>2021-08-05 16:06:34</time>
      </trkpt>
      <trkpt lat="37.05327" lon="-3.37127">
        <ele>3174</ele>
        <time>2021-08-05 16:06:35</time>
      </trkpt>
      <trkpt lat="37.05326" lon="-3.37126">
        <ele>3174</ele>
        <time>2021-08-05 16:06:36</time>
      </trkpt>
      <trkpt lat="37.05325" lon="-3.37126">
        <ele>3174.2</ele>
        <time>2021-08-05 16:06:37</time>
      </trkpt>
      <trkpt lat="37.05324" lon="-3.37127">
        <ele>3174.4</ele>
        <time>2021-08-05 16:06:38</time>
      </trkpt>
      <trkpt lat="37.05324" lon="-3.37127">
        <ele>3174.4</ele>
        <time>2021-08-05 16:06:39</time>
      </trkpt>
      <trkpt lat="37.05323" lon="-3.37127">
        <ele>3174.4</ele>
        <time>2021-08-05 16:06:40</time>
      </trkpt>
      <trkpt lat="37.05322" lon="-3.37126">
        <ele>3174.6</ele>
        <time>2021-08-05 16:06:41</time>
      </trkpt>
      <trkpt lat="37.05321" lon="-3.37127">
        <ele>3174.6</ele>
        <time>2021-08-05 16:06:42</time>
      </trkpt>
      <trkpt lat="37.0532" lon="-3.37126">
        <ele>3174.8</ele>
        <time>2021-08-05 16:06:43</time>
      </trkpt>
      <trkpt lat="37.05319" lon="-3.37126">
        <ele>3174.8</ele>
        <time>2021-08-05 16:06:44</time>
      </trkpt>
      <trkpt lat="37.05318" lon="-3.37126">
        <ele>3174.8</ele>
        <time>2021-08-05 16:06:45</time>
      </trkpt>
      <trkpt lat="37.05317" lon="-3.37126">
        <ele>3174.8</ele>
        <time>2021-08-05 16:06:46</time>
      </trkpt>
      <trkpt lat="37.05316" lon="-3.37127">
        <ele>3175</ele>
        <time>2021-08-05 16:06:47</time>
      </trkpt>
      <trkpt lat="37.05316" lon="-3.37127">
        <ele>3175</ele>
        <time>2021-08-05 16:06:48</time>
      </trkpt>
      <trkpt lat="37.05315" lon="-3.37127">
        <ele>3174.8</ele>
        <time>2021-08-05 16:06:49</time>
      </trkpt>
      <trkpt lat="37.05314" lon="-3.37127">
        <ele>3175</ele>
        <time>2021-08-05 16:06:50</time>
      </trkpt>
      <trkpt lat="37.05313" lon="-3.37127">
        <ele>3175.2</ele>
        <time>2021-08-05 16:06:51</time>
      </trkpt>
      <trkpt lat="37.05312" lon="-3.37128">
        <ele>3175.4</ele>
        <time>2021-08-05 16:06:52</time>
      </trkpt>
      <trkpt lat="37.05312" lon="-3.37128">
        <ele>3175.2</ele>
        <time>2021-08-05 16:06:53</time>
      </trkpt>
      <trkpt lat="37.05311" lon="-3.37128">
        <ele>3175.2</ele>
        <time>2021-08-05 16:06:54</time>
      </trkpt>
      <trkpt lat="37.05311" lon="-3.37128">
        <ele>3175.2</ele>
        <time>2021-08-05 16:06:55</time>
      </trkpt>
      <trkpt lat="37.0531" lon="-3.37127">
        <ele>3175.4</ele>
        <time>2021-08-05 16:06:56</time>
      </trkpt>
      <trkpt lat="37.05309" lon="-3.37127">
        <ele>3175.4</ele>
        <time>2021-08-05 16:06:57</time>
      </trkpt>
      <trkpt lat="37.05308" lon="-3.37127">
        <ele>3175.4</ele>
        <time>2021-08-05 16:06:58</time>
      </trkpt>
      <trkpt lat="37.05307" lon="-3.37127">
        <ele>3175.4</ele>
        <time>2021-08-05 16:06:59</time>
      </trkpt>
      <trkpt lat="37.05305" lon="-3.37127">
        <ele>3175.6</ele>
        <time>2021-08-05 16:07:00</time>
      </trkpt>
      <trkpt lat="37.05304" lon="-3.37127">
        <ele>3175.6</ele>
        <time>2021-08-05 16:07:01</time>
      </trkpt>
      <trkpt lat="37.05303" lon="-3.37127">
        <ele>3175.6</ele>
        <time>2021-08-05 16:07:02</time>
      </trkpt>
      <trkpt lat="37.05302" lon="-3.37126">
        <ele>3175.4</ele>
        <time>2021-08-05 16:07:03</time>
      </trkpt>
      <trkpt lat="37.05302" lon="-3.37126">
        <ele>3175.4</ele>
        <time>2021-08-05 16:07:04</time>
      </trkpt>
      <trkpt lat="37.05301" lon="-3.37127">
        <ele>3175.6</ele>
        <time>2021-08-05 16:07:05</time>
      </trkpt>
      <trkpt lat="37.053" lon="-3.37127">
        <ele>3175.6</ele>
        <time>2021-08-05 16:07:06</time>
      </trkpt>
      <trkpt lat="37.05299" lon="-3.37127">
        <ele>3175.6</ele>
        <time>2021-08-05 16:07:07</time>
      </trkpt>
      <trkpt lat="37.05298" lon="-3.37128">
        <ele>3175.8</ele>
        <time>2021-08-05 16:07:08</time>
      </trkpt>
      <trkpt lat="37.05297" lon="-3.37128">
        <ele>3176</ele>
        <time>2021-08-05 16:07:09</time>
      </trkpt>
      <trkpt lat="37.05297" lon="-3.37128">
        <ele>3176.2</ele>
        <time>2021-08-05 16:07:10</time>
      </trkpt>
      <trkpt lat="37.05297" lon="-3.37129">
        <ele>3176.2</ele>
        <time>2021-08-05 16:07:11</time>
      </trkpt>
      <trkpt lat="37.05296" lon="-3.37129">
        <ele>3176.2</ele>
        <time>2021-08-05 16:07:12</time>
      </trkpt>
      <trkpt lat="37.05296" lon="-3.3713">
        <ele>3176.2</ele>
        <time>2021-08-05 16:07:13</time>
      </trkpt>
      <trkpt lat="37.05295" lon="-3.3713">
        <ele>3176.4</ele>
        <time>2021-08-05 16:07:14</time>
      </trkpt>
      <trkpt lat="37.05294" lon="-3.37131">
        <ele>3176.4</ele>
        <time>2021-08-05 16:07:15</time>
      </trkpt>
      <trkpt lat="37.05293" lon="-3.37131">
        <ele>3176.4</ele>
        <time>2021-08-05 16:07:16</time>
      </trkpt>
      <trkpt lat="37.05292" lon="-3.37131">
        <ele>3176.4</ele>
        <time>2021-08-05 16:07:17</time>
      </trkpt>
      <trkpt lat="37.05292" lon="-3.37132">
        <ele>3176.8</ele>
        <time>2021-08-05 16:07:18</time>
      </trkpt>
      <trkpt lat="37.05291" lon="-3.37132">
        <ele>3177</ele>
        <time>2021-08-05 16:07:19</time>
      </trkpt>
      <trkpt lat="37.05291" lon="-3.37132">
        <ele>3177</ele>
        <time>2021-08-05 16:07:20</time>
      </trkpt>
      <trkpt lat="37.0529" lon="-3.37132">
        <ele>3177.2</ele>
        <time>2021-08-05 16:07:21</time>
      </trkpt>
      <trkpt lat="37.05289" lon="-3.37132">
        <ele>3177.2</ele>
        <time>2021-08-05 16:07:22</time>
      </trkpt>
      <trkpt lat="37.05289" lon="-3.37132">
        <ele>3177.2</ele>
        <time>2021-08-05 16:07:23</time>
      </trkpt>
      <trkpt lat="37.05288" lon="-3.37133">
        <ele>3177.4</ele>
        <time>2021-08-05 16:07:24</time>
      </trkpt>
      <trkpt lat="37.05288" lon="-3.37133">
        <ele>3177.4</ele>
        <time>2021-08-05 16:07:25</time>
      </trkpt>
      <trkpt lat="37.05288" lon="-3.37133">
        <ele>3177.4</ele>
        <time>2021-08-05 16:07:26</time>
      </trkpt>
      <trkpt lat="37.05287" lon="-3.37134">
        <ele>3177.4</ele>
        <time>2021-08-05 16:07:27</time>
      </trkpt>
      <trkpt lat="37.05287" lon="-3.37134">
        <ele>3177.4</ele>
        <time>2021-08-05 16:07:28</time>
      </trkpt>
      <trkpt lat="37.05286" lon="-3.37134">
        <ele>3177.4</ele>
        <time>2021-08-05 16:07:29</time>
      </trkpt>
      <trkpt lat="37.05285" lon="-3.37134">
        <ele>3177.6</ele>
        <time>2021-08-05 16:07:30</time>
      </trkpt>
      <trkpt lat="37.05284" lon="-3.37135">
        <ele>3177.6</ele>
        <time>2021-08-05 16:07:31</time>
      </trkpt>
      <trkpt lat="37.05284" lon="-3.37135">
        <ele>3177.6</ele>
        <time>2021-08-05 16:07:32</time>
      </trkpt>
      <trkpt lat="37.05282" lon="-3.37136">
        <ele>3178</ele>
        <time>2021-08-05 16:07:33</time>
      </trkpt>
      <trkpt lat="37.05281" lon="-3.37137">
        <ele>3178</ele>
        <time>2021-08-05 16:07:34</time>
      </trkpt>
      <trkpt lat="37.0528" lon="-3.37138">
        <ele>3178</ele>
        <time>2021-08-05 16:07:35</time>
      </trkpt>
      <trkpt lat="37.05279" lon="-3.37139">
        <ele>3178.2</ele>
        <time>2021-08-05 16:07:36</time>
      </trkpt>
      <trkpt lat="37.0528" lon="-3.37142">
        <ele>3178.4</ele>
        <time>2021-08-05 16:07:37</time>
      </trkpt>
      <trkpt lat="37.05279" lon="-3.37142">
        <ele>3178.4</ele>
        <time>2021-08-05 16:07:38</time>
      </trkpt>
      <trkpt lat="37.05277" lon="-3.37142">
        <ele>3178.4</ele>
        <time>2021-08-05 16:07:39</time>
      </trkpt>
      <trkpt lat="37.05276" lon="-3.37143">
        <ele>3178.4</ele>
        <time>2021-08-05 16:07:40</time>
      </trkpt>
      <trkpt lat="37.05276" lon="-3.37144">
        <ele>3178.6</ele>
        <time>2021-08-05 16:07:41</time>
      </trkpt>
      <trkpt lat="37.05275" lon="-3.37145">
        <ele>3178.6</ele>
        <time>2021-08-05 16:07:42</time>
      </trkpt>
      <trkpt lat="37.05275" lon="-3.37145">
        <ele>3178.8</ele>
        <time>2021-08-05 16:07:43</time>
      </trkpt>
      <trkpt lat="37.05274" lon="-3.37146">
        <ele>3178.8</ele>
        <time>2021-08-05 16:07:44</time>
      </trkpt>
      <trkpt lat="37.05273" lon="-3.37145">
        <ele>3178.8</ele>
        <time>2021-08-05 16:07:45</time>
      </trkpt>
      <trkpt lat="37.05272" lon="-3.37146">
        <ele>3178.8</ele>
        <time>2021-08-05 16:07:46</time>
      </trkpt>
      <trkpt lat="37.05271" lon="-3.37145">
        <ele>3178.8</ele>
        <time>2021-08-05 16:07:47</time>
      </trkpt>
      <trkpt lat="37.05271" lon="-3.37145">
        <ele>3178.8</ele>
        <time>2021-08-05 16:07:48</time>
      </trkpt>
      <trkpt lat="37.0527" lon="-3.37145">
        <ele>3179</ele>
        <time>2021-08-05 16:07:49</time>
      </trkpt>
      <trkpt lat="37.05269" lon="-3.37145">
        <ele>3178.8</ele>
        <time>2021-08-05 16:07:50</time>
      </trkpt>
      <trkpt lat="37.05268" lon="-3.37145">
        <ele>3178.8</ele>
        <time>2021-08-05 16:07:51</time>
      </trkpt>
      <trkpt lat="37.05267" lon="-3.37145">
        <ele>3179</ele>
        <time>2021-08-05 16:07:52</time>
      </trkpt>
      <trkpt lat="37.05266" lon="-3.37145">
        <ele>3179</ele>
        <time>2021-08-05 16:07:53</time>
      </trkpt>
      <trkpt lat="37.05266" lon="-3.37145">
        <ele>3179</ele>
        <time>2021-08-05 16:07:54</time>
      </trkpt>
      <trkpt lat="37.05265" lon="-3.37146">
        <ele>3179</ele>
        <time>2021-08-05 16:07:55</time>
      </trkpt>
      <trkpt lat="37.05264" lon="-3.37146">
        <ele>3179</ele>
        <time>2021-08-05 16:07:56</time>
      </trkpt>
      <trkpt lat="37.05264" lon="-3.37146">
        <ele>3179.2</ele>
        <time>2021-08-05 16:07:57</time>
      </trkpt>
      <trkpt lat="37.05263" lon="-3.37147">
        <ele>3179.4</ele>
        <time>2021-08-05 16:07:58</time>
      </trkpt>
      <trkpt lat="37.05262" lon="-3.37147">
        <ele>3179.6</ele>
        <time>2021-08-05 16:07:59</time>
      </trkpt>
      <trkpt lat="37.05262" lon="-3.37148">
        <ele>3179.6</ele>
        <time>2021-08-05 16:08:00</time>
      </trkpt>
      <trkpt lat="37.05261" lon="-3.37147">
        <ele>3179.6</ele>
        <time>2021-08-05 16:08:01</time>
      </trkpt>
      <trkpt lat="37.05261" lon="-3.37147">
        <ele>3179.8</ele>
        <time>2021-08-05 16:08:02</time>
      </trkpt>
      <trkpt lat="37.0526" lon="-3.37147">
        <ele>3179.8</ele>
        <time>2021-08-05 16:08:03</time>
      </trkpt>
      <trkpt lat="37.0526" lon="-3.37146">
        <ele>3180</ele>
        <time>2021-08-05 16:08:04</time>
      </trkpt>
      <trkpt lat="37.0526" lon="-3.37146">
        <ele>3180</ele>
        <time>2021-08-05 16:08:05</time>
      </trkpt>
      <trkpt lat="37.0526" lon="-3.37145">
        <ele>3180</ele>
        <time>2021-08-05 16:08:06</time>
      </trkpt>
      <trkpt lat="37.0526" lon="-3.37145">
        <ele>3180.2</ele>
        <time>2021-08-05 16:08:07</time>
      </trkpt>
      <trkpt lat="37.05259" lon="-3.37146">
        <ele>3180</ele>
        <time>2021-08-05 16:08:08</time>
      </trkpt>
      <trkpt lat="37.05259" lon="-3.37146">
        <ele>3180</ele>
        <time>2021-08-05 16:08:09</time>
      </trkpt>
      <trkpt lat="37.05258" lon="-3.37147">
        <ele>3179.8</ele>
        <time>2021-08-05 16:08:10</time>
      </trkpt>
      <trkpt lat="37.05257" lon="-3.37147">
        <ele>3179.8</ele>
        <time>2021-08-05 16:08:11</time>
      </trkpt>
      <trkpt lat="37.05256" lon="-3.37148">
        <ele>3179.8</ele>
        <time>2021-08-05 16:08:12</time>
      </trkpt>
      <trkpt lat="37.05255" lon="-3.37148">
        <ele>3179.6</ele>
        <time>2021-08-05 16:08:13</time>
      </trkpt>
      <trkpt lat="37.05254" lon="-3.37149">
        <ele>3179.6</ele>
        <time>2021-08-05 16:08:14</time>
      </trkpt>
      <trkpt lat="37.05254" lon="-3.37149">
        <ele>3179.6</ele>
        <time>2021-08-05 16:08:15</time>
      </trkpt>
      <trkpt lat="37.05253" lon="-3.37149">
        <ele>3179.6</ele>
        <time>2021-08-05 16:08:16</time>
      </trkpt>
      <trkpt lat="37.05252" lon="-3.37149">
        <ele>3179.8</ele>
        <time>2021-08-05 16:08:17</time>
      </trkpt>
      <trkpt lat="37.05251" lon="-3.3715">
        <ele>3180.2</ele>
        <time>2021-08-05 16:08:18</time>
      </trkpt>
      <trkpt lat="37.05251" lon="-3.3715">
        <ele>3180.4</ele>
        <time>2021-08-05 16:08:19</time>
      </trkpt>
      <trkpt lat="37.0525" lon="-3.3715">
        <ele>3180.6</ele>
        <time>2021-08-05 16:08:20</time>
      </trkpt>
      <trkpt lat="37.05249" lon="-3.3715">
        <ele>3180.6</ele>
        <time>2021-08-05 16:08:21</time>
      </trkpt>
      <trkpt lat="37.05248" lon="-3.3715">
        <ele>3180.6</ele>
        <time>2021-08-05 16:08:22</time>
      </trkpt>
      <trkpt lat="37.05247" lon="-3.37151">
        <ele>3180.6</ele>
        <time>2021-08-05 16:08:23</time>
      </trkpt>
      <trkpt lat="37.05246" lon="-3.37151">
        <ele>3180.8</ele>
        <time>2021-08-05 16:08:24</time>
      </trkpt>
      <trkpt lat="37.05245" lon="-3.37152">
        <ele>3180.6</ele>
        <time>2021-08-05 16:08:25</time>
      </trkpt>
      <trkpt lat="37.05244" lon="-3.37152">
        <ele>3180.6</ele>
        <time>2021-08-05 16:08:26</time>
      </trkpt>
      <trkpt lat="37.05243" lon="-3.37152">
        <ele>3180.6</ele>
        <time>2021-08-05 16:08:27</time>
      </trkpt>
      <trkpt lat="37.05242" lon="-3.37152">
        <ele>3180.6</ele>
        <time>2021-08-05 16:08:28</time>
      </trkpt>
      <trkpt lat="37.05242" lon="-3.37152">
        <ele>3180.6</ele>
        <time>2021-08-05 16:08:29</time>
      </trkpt>
      <trkpt lat="37.05241" lon="-3.37152">
        <ele>3180.6</ele>
        <time>2021-08-05 16:08:30</time>
      </trkpt>
      <trkpt lat="37.0524" lon="-3.37152">
        <ele>3180.6</ele>
        <time>2021-08-05 16:08:31</time>
      </trkpt>
      <trkpt lat="37.0524" lon="-3.37152">
        <ele>3180.6</ele>
        <time>2021-08-05 16:08:32</time>
      </trkpt>
      <trkpt lat="37.05239" lon="-3.37152">
        <ele>3180.6</ele>
        <time>2021-08-05 16:08:33</time>
      </trkpt>
      <trkpt lat="37.05238" lon="-3.37152">
        <ele>3180.6</ele>
        <time>2021-08-05 16:08:34</time>
      </trkpt>
      <trkpt lat="37.05237" lon="-3.37152">
        <ele>3180.6</ele>
        <time>2021-08-05 16:08:35</time>
      </trkpt>
      <trkpt lat="37.05236" lon="-3.37153">
        <ele>3181</ele>
        <time>2021-08-05 16:08:36</time>
      </trkpt>
      <trkpt lat="37.05235" lon="-3.37153">
        <ele>3181.2</ele>
        <time>2021-08-05 16:08:37</time>
      </trkpt>
      <trkpt lat="37.05234" lon="-3.37153">
        <ele>3181.2</ele>
        <time>2021-08-05 16:08:38</time>
      </trkpt>
      <trkpt lat="37.05233" lon="-3.37153">
        <ele>3181.4</ele>
        <time>2021-08-05 16:08:39</time>
      </trkpt>
      <trkpt lat="37.05232" lon="-3.37153">
        <ele>3181.4</ele>
        <time>2021-08-05 16:08:40</time>
      </trkpt>
      <trkpt lat="37.05231" lon="-3.37153">
        <ele>3181.4</ele>
        <time>2021-08-05 16:08:41</time>
      </trkpt>
      <trkpt lat="37.05231" lon="-3.37154">
        <ele>3181.4</ele>
        <time>2021-08-05 16:08:42</time>
      </trkpt>
      <trkpt lat="37.0523" lon="-3.37154">
        <ele>3181.6</ele>
        <time>2021-08-05 16:08:43</time>
      </trkpt>
      <trkpt lat="37.0523" lon="-3.37155">
        <ele>3181.8</ele>
        <time>2021-08-05 16:08:44</time>
      </trkpt>
      <trkpt lat="37.05229" lon="-3.37155">
        <ele>3182</ele>
        <time>2021-08-05 16:08:45</time>
      </trkpt>
      <trkpt lat="37.05229" lon="-3.37155">
        <ele>3182.2</ele>
        <time>2021-08-05 16:08:46</time>
      </trkpt>
      <trkpt lat="37.05228" lon="-3.37154">
        <ele>3182.2</ele>
        <time>2021-08-05 16:08:47</time>
      </trkpt>
      <trkpt lat="37.05227" lon="-3.37154">
        <ele>3182.2</ele>
        <time>2021-08-05 16:08:48</time>
      </trkpt>
      <trkpt lat="37.05227" lon="-3.37153">
        <ele>3182.2</ele>
        <time>2021-08-05 16:08:49</time>
      </trkpt>
      <trkpt lat="37.05226" lon="-3.37153">
        <ele>3182.2</ele>
        <time>2021-08-05 16:08:50</time>
      </trkpt>
      <trkpt lat="37.05226" lon="-3.37153">
        <ele>3182.2</ele>
        <time>2021-08-05 16:08:51</time>
      </trkpt>
      <trkpt lat="37.05226" lon="-3.37153">
        <ele>3182.2</ele>
        <time>2021-08-05 16:08:52</time>
      </trkpt>
      <trkpt lat="37.05225" lon="-3.37153">
        <ele>3182</ele>
        <time>2021-08-05 16:08:53</time>
      </trkpt>
      <trkpt lat="37.05224" lon="-3.37153">
        <ele>3182</ele>
        <time>2021-08-05 16:08:54</time>
      </trkpt>
      <trkpt lat="37.05224" lon="-3.37153">
        <ele>3182</ele>
        <time>2021-08-05 16:08:55</time>
      </trkpt>
      <trkpt lat="37.05223" lon="-3.37153">
        <ele>3181.8</ele>
        <time>2021-08-05 16:08:56</time>
      </trkpt>
      <trkpt lat="37.05222" lon="-3.37153">
        <ele>3181.8</ele>
        <time>2021-08-05 16:08:57</time>
      </trkpt>
      <trkpt lat="37.05222" lon="-3.37153">
        <ele>3182</ele>
        <time>2021-08-05 16:08:58</time>
      </trkpt>
      <trkpt lat="37.05221" lon="-3.37154">
        <ele>3182.2</ele>
        <time>2021-08-05 16:08:59</time>
      </trkpt>
      <trkpt lat="37.0522" lon="-3.37154">
        <ele>3182.2</ele>
        <time>2021-08-05 16:09:00</time>
      </trkpt>
      <trkpt lat="37.05219" lon="-3.37155">
        <ele>3182.2</ele>
        <time>2021-08-05 16:09:01</time>
      </trkpt>
      <trkpt lat="37.05218" lon="-3.37155">
        <ele>3182.4</ele>
        <time>2021-08-05 16:09:02</time>
      </trkpt>
      <trkpt lat="37.05218" lon="-3.37155">
        <ele>3182.4</ele>
        <time>2021-08-05 16:09:03</time>
      </trkpt>
      <trkpt lat="37.05217" lon="-3.37156">
        <ele>3182.4</ele>
        <time>2021-08-05 16:09:04</time>
      </trkpt>
      <trkpt lat="37.05216" lon="-3.37156">
        <ele>3182.4</ele>
        <time>2021-08-05 16:09:05</time>
      </trkpt>
      <trkpt lat="37.05216" lon="-3.37156">
        <ele>3182.4</ele>
        <time>2021-08-05 16:09:06</time>
      </trkpt>
      <trkpt lat="37.05215" lon="-3.37156">
        <ele>3182.6</ele>
        <time>2021-08-05 16:09:07</time>
      </trkpt>
      <trkpt lat="37.05214" lon="-3.37156">
        <ele>3182.8</ele>
        <time>2021-08-05 16:09:08</time>
      </trkpt>
      <trkpt lat="37.05213" lon="-3.37156">
        <ele>3183</ele>
        <time>2021-08-05 16:09:09</time>
      </trkpt>
      <trkpt lat="37.05213" lon="-3.37156">
        <ele>3183.2</ele>
        <time>2021-08-05 16:09:10</time>
      </trkpt>
      <trkpt lat="37.05213" lon="-3.37156">
        <ele>3183.4</ele>
        <time>2021-08-05 16:09:11</time>
      </trkpt>
      <trkpt lat="37.05212" lon="-3.37156">
        <ele>3183.4</ele>
        <time>2021-08-05 16:09:12</time>
      </trkpt>
      <trkpt lat="37.05211" lon="-3.37156">
        <ele>3183.4</ele>
        <time>2021-08-05 16:09:13</time>
      </trkpt>
      <trkpt lat="37.0521" lon="-3.37156">
        <ele>3183.6</ele>
        <time>2021-08-05 16:09:14</time>
      </trkpt>
      <trkpt lat="37.05209" lon="-3.37156">
        <ele>3183.6</ele>
        <time>2021-08-05 16:09:15</time>
      </trkpt>
      <trkpt lat="37.05209" lon="-3.37156">
        <ele>3183.6</ele>
        <time>2021-08-05 16:09:16</time>
      </trkpt>
      <trkpt lat="37.05208" lon="-3.37156">
        <ele>3183.8</ele>
        <time>2021-08-05 16:09:17</time>
      </trkpt>
      <trkpt lat="37.05207" lon="-3.37156">
        <ele>3183.8</ele>
        <time>2021-08-05 16:09:18</time>
      </trkpt>
      <trkpt lat="37.05206" lon="-3.37156">
        <ele>3183.8</ele>
        <time>2021-08-05 16:09:19</time>
      </trkpt>
      <trkpt lat="37.05205" lon="-3.37156">
        <ele>3183.8</ele>
        <time>2021-08-05 16:09:20</time>
      </trkpt>
      <trkpt lat="37.05204" lon="-3.37157">
        <ele>3183.8</ele>
        <time>2021-08-05 16:09:21</time>
      </trkpt>
      <trkpt lat="37.05203" lon="-3.37156">
        <ele>3183.6</ele>
        <time>2021-08-05 16:09:22</time>
      </trkpt>
      <trkpt lat="37.05202" lon="-3.37156">
        <ele>3183.6</ele>
        <time>2021-08-05 16:09:23</time>
      </trkpt>
      <trkpt lat="37.05201" lon="-3.37156">
        <ele>3183.6</ele>
        <time>2021-08-05 16:09:24</time>
      </trkpt>
      <trkpt lat="37.052" lon="-3.37156">
        <ele>3183.6</ele>
        <time>2021-08-05 16:09:25</time>
      </trkpt>
      <trkpt lat="37.05199" lon="-3.37155">
        <ele>3183.6</ele>
        <time>2021-08-05 16:09:26</time>
      </trkpt>
      <trkpt lat="37.05198" lon="-3.37155">
        <ele>3183.6</ele>
        <time>2021-08-05 16:09:27</time>
      </trkpt>
      <trkpt lat="37.05198" lon="-3.37155">
        <ele>3183.8</ele>
        <time>2021-08-05 16:09:28</time>
      </trkpt>
      <trkpt lat="37.05196" lon="-3.37155">
        <ele>3184</ele>
        <time>2021-08-05 16:09:29</time>
      </trkpt>
      <trkpt lat="37.05195" lon="-3.37155">
        <ele>3184</ele>
        <time>2021-08-05 16:09:30</time>
      </trkpt>
      <trkpt lat="37.05195" lon="-3.37155">
        <ele>3184</ele>
        <time>2021-08-05 16:09:31</time>
      </trkpt>
      <trkpt lat="37.05194" lon="-3.37156">
        <ele>3184.2</ele>
        <time>2021-08-05 16:09:32</time>
      </trkpt>
      <trkpt lat="37.05194" lon="-3.37157">
        <ele>3184.2</ele>
        <time>2021-08-05 16:09:33</time>
      </trkpt>
      <trkpt lat="37.05194" lon="-3.37157">
        <ele>3184.4</ele>
        <time>2021-08-05 16:09:34</time>
      </trkpt>
      <trkpt lat="37.05193" lon="-3.37159">
        <ele>3184.4</ele>
        <time>2021-08-05 16:09:35</time>
      </trkpt>
      <trkpt lat="37.05193" lon="-3.37159">
        <ele>3184.4</ele>
        <time>2021-08-05 16:09:36</time>
      </trkpt>
      <trkpt lat="37.05192" lon="-3.3716">
        <ele>3184.4</ele>
        <time>2021-08-05 16:09:37</time>
      </trkpt>
      <trkpt lat="37.05192" lon="-3.3716">
        <ele>3184.2</ele>
        <time>2021-08-05 16:09:38</time>
      </trkpt>
      <trkpt lat="37.05191" lon="-3.3716">
        <ele>3184.2</ele>
        <time>2021-08-05 16:09:39</time>
      </trkpt>
      <trkpt lat="37.0519" lon="-3.3716">
        <ele>3184</ele>
        <time>2021-08-05 16:09:40</time>
      </trkpt>
      <trkpt lat="37.0519" lon="-3.3716">
        <ele>3184.2</ele>
        <time>2021-08-05 16:09:41</time>
      </trkpt>
      <trkpt lat="37.05188" lon="-3.37159">
        <ele>3184.2</ele>
        <time>2021-08-05 16:09:42</time>
      </trkpt>
      <trkpt lat="37.05187" lon="-3.37159">
        <ele>3184.2</ele>
        <time>2021-08-05 16:09:43</time>
      </trkpt>
      <trkpt lat="37.05186" lon="-3.37159">
        <ele>3184.4</ele>
        <time>2021-08-05 16:09:44</time>
      </trkpt>
      <trkpt lat="37.05185" lon="-3.37159">
        <ele>3184.4</ele>
        <time>2021-08-05 16:09:45</time>
      </trkpt>
      <trkpt lat="37.05184" lon="-3.37159">
        <ele>3184.4</ele>
        <time>2021-08-05 16:09:46</time>
      </trkpt>
      <trkpt lat="37.05183" lon="-3.37158">
        <ele>3184.6</ele>
        <time>2021-08-05 16:09:47</time>
      </trkpt>
      <trkpt lat="37.05182" lon="-3.37157">
        <ele>3184.6</ele>
        <time>2021-08-05 16:09:48</time>
      </trkpt>
      <trkpt lat="37.05181" lon="-3.37157">
        <ele>3184.8</ele>
        <time>2021-08-05 16:09:49</time>
      </trkpt>
      <trkpt lat="37.0518" lon="-3.37156">
        <ele>3184.8</ele>
        <time>2021-08-05 16:09:50</time>
      </trkpt>
      <trkpt lat="37.05179" lon="-3.37157">
        <ele>3185</ele>
        <time>2021-08-05 16:09:51</time>
      </trkpt>
      <trkpt lat="37.05177" lon="-3.37157">
        <ele>3185</ele>
        <time>2021-08-05 16:09:52</time>
      </trkpt>
      <trkpt lat="37.05176" lon="-3.37157">
        <ele>3185.2</ele>
        <time>2021-08-05 16:09:53</time>
      </trkpt>
      <trkpt lat="37.05175" lon="-3.37157">
        <ele>3185.2</ele>
        <time>2021-08-05 16:09:54</time>
      </trkpt>
      <trkpt lat="37.05174" lon="-3.37157">
        <ele>3185.4</ele>
        <time>2021-08-05 16:09:55</time>
      </trkpt>
      <trkpt lat="37.05173" lon="-3.37158">
        <ele>3185.4</ele>
        <time>2021-08-05 16:09:56</time>
      </trkpt>
      <trkpt lat="37.05172" lon="-3.37158">
        <ele>3185.6</ele>
        <time>2021-08-05 16:09:57</time>
      </trkpt>
      <trkpt lat="37.0517" lon="-3.37159">
        <ele>3185.6</ele>
        <time>2021-08-05 16:09:58</time>
      </trkpt>
      <trkpt lat="37.05169" lon="-3.37159">
        <ele>3185.8</ele>
        <time>2021-08-05 16:09:59</time>
      </trkpt>
      <trkpt lat="37.05168" lon="-3.37159">
        <ele>3186</ele>
        <time>2021-08-05 16:10:00</time>
      </trkpt>
      <trkpt lat="37.05167" lon="-3.37159">
        <ele>3186</ele>
        <time>2021-08-05 16:10:01</time>
      </trkpt>
      <trkpt lat="37.05167" lon="-3.37159">
        <ele>3186</ele>
        <time>2021-08-05 16:10:02</time>
      </trkpt>
      <trkpt lat="37.05166" lon="-3.37159">
        <ele>3185.8</ele>
        <time>2021-08-05 16:10:03</time>
      </trkpt>
      <trkpt lat="37.05166" lon="-3.37159">
        <ele>3185.6</ele>
        <time>2021-08-05 16:10:04</time>
      </trkpt>
      <trkpt lat="37.05165" lon="-3.37158">
        <ele>3185.8</ele>
        <time>2021-08-05 16:10:05</time>
      </trkpt>
      <trkpt lat="37.05164" lon="-3.37158">
        <ele>3186.2</ele>
        <time>2021-08-05 16:10:06</time>
      </trkpt>
      <trkpt lat="37.05163" lon="-3.37158">
        <ele>3186.2</ele>
        <time>2021-08-05 16:10:07</time>
      </trkpt>
      <trkpt lat="37.05163" lon="-3.37157">
        <ele>3186.4</ele>
        <time>2021-08-05 16:10:08</time>
      </trkpt>
      <trkpt lat="37.05162" lon="-3.37157">
        <ele>3186.6</ele>
        <time>2021-08-05 16:10:09</time>
      </trkpt>
      <trkpt lat="37.05162" lon="-3.37157">
        <ele>3186.6</ele>
        <time>2021-08-05 16:10:10</time>
      </trkpt>
      <trkpt lat="37.05161" lon="-3.37157">
        <ele>3186.6</ele>
        <time>2021-08-05 16:10:11</time>
      </trkpt>
      <trkpt lat="37.05161" lon="-3.37157">
        <ele>3186.8</ele>
        <time>2021-08-05 16:10:12</time>
      </trkpt>
      <trkpt lat="37.05161" lon="-3.37157">
        <ele>3186.8</ele>
        <time>2021-08-05 16:10:13</time>
      </trkpt>
      <trkpt lat="37.0516" lon="-3.37158">
        <ele>3187</ele>
        <time>2021-08-05 16:10:14</time>
      </trkpt>
      <trkpt lat="37.0516" lon="-3.37158">
        <ele>3187</ele>
        <time>2021-08-05 16:10:15</time>
      </trkpt>
      <trkpt lat="37.0516" lon="-3.37158">
        <ele>3187.2</ele>
        <time>2021-08-05 16:10:16</time>
      </trkpt>
      <trkpt lat="37.0516" lon="-3.37158">
        <ele>3187.4</ele>
        <time>2021-08-05 16:10:17</time>
      </trkpt>
      <trkpt lat="37.0516" lon="-3.37159">
        <ele>3187.4</ele>
        <time>2021-08-05 16:10:18</time>
      </trkpt>
      <trkpt lat="37.05159" lon="-3.37159">
        <ele>3187.4</ele>
        <time>2021-08-05 16:10:19</time>
      </trkpt>
      <trkpt lat="37.05159" lon="-3.37159">
        <ele>3187.4</ele>
        <time>2021-08-05 16:10:20</time>
      </trkpt>
      <trkpt lat="37.05159" lon="-3.37159">
        <ele>3187.2</ele>
        <time>2021-08-05 16:10:21</time>
      </trkpt>
      <trkpt lat="37.05159" lon="-3.37158">
        <ele>3187.2</ele>
        <time>2021-08-05 16:10:22</time>
      </trkpt>
      <trkpt lat="37.0516" lon="-3.37159">
        <ele>3187.2</ele>
        <time>2021-08-05 16:10:23</time>
      </trkpt>
      <trkpt lat="37.05159" lon="-3.37159">
        <ele>3187.2</ele>
        <time>2021-08-05 16:10:24</time>
      </trkpt>
      <trkpt lat="37.05159" lon="-3.3716">
        <ele>3187.2</ele>
        <time>2021-08-05 16:10:25</time>
      </trkpt>
      <trkpt lat="37.05159" lon="-3.37159">
        <ele>3187.2</ele>
        <time>2021-08-05 16:10:26</time>
      </trkpt>
      <trkpt lat="37.05159" lon="-3.37159">
        <ele>3187.6</ele>
        <time>2021-08-05 16:10:27</time>
      </trkpt>
      <trkpt lat="37.05159" lon="-3.37159">
        <ele>3187.8</ele>
        <time>2021-08-05 16:10:28</time>
      </trkpt>
      <trkpt lat="37.05159" lon="-3.3716">
        <ele>3187.8</ele>
        <time>2021-08-05 16:10:29</time>
      </trkpt>
      <trkpt lat="37.05159" lon="-3.37159">
        <ele>3187.8</ele>
        <time>2021-08-05 16:10:30</time>
      </trkpt>
      <trkpt lat="37.05159" lon="-3.37159">
        <ele>3187.8</ele>
        <time>2021-08-05 16:10:31</time>
      </trkpt>
      <trkpt lat="37.05159" lon="-3.37159">
        <ele>3187.8</ele>
        <time>2021-08-05 16:10:32</time>
      </trkpt>
      <trkpt lat="37.05159" lon="-3.37159">
        <ele>3187.6</ele>
        <time>2021-08-05 16:10:33</time>
      </trkpt>
      <trkpt lat="37.05159" lon="-3.37159">
        <ele>3187.6</ele>
        <time>2021-08-05 16:10:34</time>
      </trkpt>
      <trkpt lat="37.05159" lon="-3.37159">
        <ele>3187.6</ele>
        <time>2021-08-05 16:10:35</time>
      </trkpt>
      <trkpt lat="37.05159" lon="-3.37159">
        <ele>3187.4</ele>
        <time>2021-08-05 16:10:36</time>
      </trkpt>
      <trkpt lat="37.05159" lon="-3.37159">
        <ele>3187.4</ele>
        <time>2021-08-05 16:10:37</time>
      </trkpt>
      <trkpt lat="37.05159" lon="-3.37159">
        <ele>3187.4</ele>
        <time>2021-08-05 16:10:38</time>
      </trkpt>
      <trkpt lat="37.05159" lon="-3.37158">
        <ele>3187.6</ele>
        <time>2021-08-05 16:10:39</time>
      </trkpt>
      <trkpt lat="37.0516" lon="-3.37159">
        <ele>3187.6</ele>
        <time>2021-08-05 16:10:40</time>
      </trkpt>
      <trkpt lat="37.0516" lon="-3.37159">
        <ele>3187.8</ele>
        <time>2021-08-05 16:10:41</time>
      </trkpt>
      <trkpt lat="37.0516" lon="-3.37158">
        <ele>3187.8</ele>
        <time>2021-08-05 16:10:42</time>
      </trkpt>
      <trkpt lat="37.05161" lon="-3.37158">
        <ele>3187.8</ele>
        <time>2021-08-05 16:10:43</time>
      </trkpt>
      <trkpt lat="37.05161" lon="-3.37157">
        <ele>3187.8</ele>
        <time>2021-08-05 16:10:44</time>
      </trkpt>
      <trkpt lat="37.05162" lon="-3.37157">
        <ele>3188</ele>
        <time>2021-08-05 16:10:45</time>
      </trkpt>
      <trkpt lat="37.05162" lon="-3.37157">
        <ele>3188</ele>
        <time>2021-08-05 16:10:46</time>
      </trkpt>
      <trkpt lat="37.05162" lon="-3.37157">
        <ele>3188</ele>
        <time>2021-08-05 16:10:47</time>
      </trkpt>
      <trkpt lat="37.05162" lon="-3.37158">
        <ele>3188</ele>
        <time>2021-08-05 16:10:48</time>
      </trkpt>
      <trkpt lat="37.05161" lon="-3.37159">
        <ele>3188</ele>
        <time>2021-08-05 16:10:49</time>
      </trkpt>
      <trkpt lat="37.0516" lon="-3.37159">
        <ele>3188</ele>
        <time>2021-08-05 16:10:50</time>
      </trkpt>
      <trkpt lat="37.0516" lon="-3.37159">
        <ele>3188</ele>
        <time>2021-08-05 16:10:51</time>
      </trkpt>
      <trkpt lat="37.0516" lon="-3.3716">
        <ele>3188</ele>
        <time>2021-08-05 16:10:52</time>
      </trkpt>
      <trkpt lat="37.0516" lon="-3.3716">
        <ele>3188</ele>
        <time>2021-08-05 16:10:53</time>
      </trkpt>
      <trkpt lat="37.05161" lon="-3.3716">
        <ele>3188.2</ele>
        <time>2021-08-05 16:10:54</time>
      </trkpt>
      <trkpt lat="37.05161" lon="-3.3716">
        <ele>3188.2</ele>
        <time>2021-08-05 16:10:55</time>
      </trkpt>
      <trkpt lat="37.05161" lon="-3.3716">
        <ele>3188</ele>
        <time>2021-08-05 16:10:56</time>
      </trkpt>
      <trkpt lat="37.0516" lon="-3.37159">
        <ele>3187.6</ele>
        <time>2021-08-05 16:10:57</time>
      </trkpt>
      <trkpt lat="37.0516" lon="-3.37159">
        <ele>3187.8</ele>
        <time>2021-08-05 16:10:58</time>
      </trkpt>
      <trkpt lat="37.0516" lon="-3.37159">
        <ele>3187.6</ele>
        <time>2021-08-05 16:10:59</time>
      </trkpt>
      <trkpt lat="37.0516" lon="-3.37159">
        <ele>3187.4</ele>
        <time>2021-08-05 16:11:00</time>
      </trkpt>
      <trkpt lat="37.05159" lon="-3.37159">
        <ele>3187.2</ele>
        <time>2021-08-05 16:11:01</time>
      </trkpt>
      <trkpt lat="37.05158" lon="-3.37158">
        <ele>3187</ele>
        <time>2021-08-05 16:11:02</time>
      </trkpt>
      <trkpt lat="37.05157" lon="-3.37158">
        <ele>3187</ele>
        <time>2021-08-05 16:11:03</time>
      </trkpt>
      <trkpt lat="37.05157" lon="-3.37157">
        <ele>3187</ele>
        <time>2021-08-05 16:11:04</time>
      </trkpt>
      <trkpt lat="37.05156" lon="-3.37157">
        <ele>3187</ele>
        <time>2021-08-05 16:11:05</time>
      </trkpt>
      <trkpt lat="37.05156" lon="-3.37156">
        <ele>3187</ele>
        <time>2021-08-05 16:11:06</time>
      </trkpt>
      <trkpt lat="37.05156" lon="-3.37156">
        <ele>3187</ele>
        <time>2021-08-05 16:11:07</time>
      </trkpt>
      <trkpt lat="37.05155" lon="-3.37156">
        <ele>3187.2</ele>
        <time>2021-08-05 16:11:08</time>
      </trkpt>
      <trkpt lat="37.05155" lon="-3.37156">
        <ele>3187.2</ele>
        <time>2021-08-05 16:11:09</time>
      </trkpt>
      <trkpt lat="37.05155" lon="-3.37156">
        <ele>3187.6</ele>
        <time>2021-08-05 16:11:10</time>
      </trkpt>
      <trkpt lat="37.05154" lon="-3.37156">
        <ele>3187.8</ele>
        <time>2021-08-05 16:11:11</time>
      </trkpt>
      <trkpt lat="37.05154" lon="-3.37155">
        <ele>3187.8</ele>
        <time>2021-08-05 16:11:12</time>
      </trkpt>
      <trkpt lat="37.05153" lon="-3.37154">
        <ele>3188</ele>
        <time>2021-08-05 16:11:13</time>
      </trkpt>
      <trkpt lat="37.05152" lon="-3.37154">
        <ele>3188.2</ele>
        <time>2021-08-05 16:11:14</time>
      </trkpt>
      <trkpt lat="37.05151" lon="-3.37153">
        <ele>3188.2</ele>
        <time>2021-08-05 16:11:15</time>
      </trkpt>
      <trkpt lat="37.05151" lon="-3.37153">
        <ele>3188.2</ele>
        <time>2021-08-05 16:11:16</time>
      </trkpt>
      <trkpt lat="37.0515" lon="-3.37152">
        <ele>3188.4</ele>
        <time>2021-08-05 16:11:17</time>
      </trkpt>
      <trkpt lat="37.05149" lon="-3.37152">
        <ele>3188.4</ele>
        <time>2021-08-05 16:11:18</time>
      </trkpt>
      <trkpt lat="37.05148" lon="-3.37151">
        <ele>3188.6</ele>
        <time>2021-08-05 16:11:19</time>
      </trkpt>
      <trkpt lat="37.05148" lon="-3.37151">
        <ele>3188.6</ele>
        <time>2021-08-05 16:11:20</time>
      </trkpt>
      <trkpt lat="37.05147" lon="-3.37151">
        <ele>3188.8</ele>
        <time>2021-08-05 16:11:21</time>
      </trkpt>
      <trkpt lat="37.05147" lon="-3.37152">
        <ele>3188.8</ele>
        <time>2021-08-05 16:11:22</time>
      </trkpt>
      <trkpt lat="37.05146" lon="-3.37151">
        <ele>3188.8</ele>
        <time>2021-08-05 16:11:23</time>
      </trkpt>
      <trkpt lat="37.05145" lon="-3.37151">
        <ele>3189</ele>
        <time>2021-08-05 16:11:24</time>
      </trkpt>
      <trkpt lat="37.05144" lon="-3.37152">
        <ele>3189.2</ele>
        <time>2021-08-05 16:11:25</time>
      </trkpt>
      <trkpt lat="37.05143" lon="-3.37152">
        <ele>3189.4</ele>
        <time>2021-08-05 16:11:26</time>
      </trkpt>
      <trkpt lat="37.05142" lon="-3.37152">
        <ele>3189.6</ele>
        <time>2021-08-05 16:11:27</time>
      </trkpt>
      <trkpt lat="37.05141" lon="-3.37151">
        <ele>3189.6</ele>
        <time>2021-08-05 16:11:28</time>
      </trkpt>
      <trkpt lat="37.0514" lon="-3.3715">
        <ele>3190</ele>
        <time>2021-08-05 16:11:29</time>
      </trkpt>
      <trkpt lat="37.05139" lon="-3.37149">
        <ele>3190.2</ele>
        <time>2021-08-05 16:11:30</time>
      </trkpt>
      <trkpt lat="37.05139" lon="-3.37148">
        <ele>3190.2</ele>
        <time>2021-08-05 16:11:31</time>
      </trkpt>
      <trkpt lat="37.05139" lon="-3.37147">
        <ele>3190.4</ele>
        <time>2021-08-05 16:11:32</time>
      </trkpt>
      <trkpt lat="37.05138" lon="-3.37146">
        <ele>3190.6</ele>
        <time>2021-08-05 16:11:33</time>
      </trkpt>
      <trkpt lat="37.05138" lon="-3.37146">
        <ele>3190.6</ele>
        <time>2021-08-05 16:11:34</time>
      </trkpt>
      <trkpt lat="37.05137" lon="-3.37146">
        <ele>3190.6</ele>
        <time>2021-08-05 16:11:35</time>
      </trkpt>
      <trkpt lat="37.05137" lon="-3.37145">
        <ele>3190.6</ele>
        <time>2021-08-05 16:11:36</time>
      </trkpt>
      <trkpt lat="37.05136" lon="-3.37145">
        <ele>3190.8</ele>
        <time>2021-08-05 16:11:37</time>
      </trkpt>
      <trkpt lat="37.05135" lon="-3.37145">
        <ele>3190.8</ele>
        <time>2021-08-05 16:11:38</time>
      </trkpt>
      <trkpt lat="37.05135" lon="-3.37144">
        <ele>3190.8</ele>
        <time>2021-08-05 16:11:39</time>
      </trkpt>
      <trkpt lat="37.05134" lon="-3.37144">
        <ele>3191</ele>
        <time>2021-08-05 16:11:40</time>
      </trkpt>
      <trkpt lat="37.05133" lon="-3.37143">
        <ele>3191.2</ele>
        <time>2021-08-05 16:11:41</time>
      </trkpt>
      <trkpt lat="37.05133" lon="-3.37143">
        <ele>3191.4</ele>
        <time>2021-08-05 16:11:42</time>
      </trkpt>
      <trkpt lat="37.05132" lon="-3.37142">
        <ele>3191.4</ele>
        <time>2021-08-05 16:11:43</time>
      </trkpt>
      <trkpt lat="37.05132" lon="-3.37142">
        <ele>3191.4</ele>
        <time>2021-08-05 16:11:44</time>
      </trkpt>
      <trkpt lat="37.05132" lon="-3.37141">
        <ele>3191.6</ele>
        <time>2021-08-05 16:11:45</time>
      </trkpt>
      <trkpt lat="37.05132" lon="-3.37141">
        <ele>3191.6</ele>
        <time>2021-08-05 16:11:46</time>
      </trkpt>
      <trkpt lat="37.05131" lon="-3.3714">
        <ele>3191.6</ele>
        <time>2021-08-05 16:11:47</time>
      </trkpt>
      <trkpt lat="37.05131" lon="-3.37139">
        <ele>3191.6</ele>
        <time>2021-08-05 16:11:48</time>
      </trkpt>
      <trkpt lat="37.05131" lon="-3.37138">
        <ele>3191.6</ele>
        <time>2021-08-05 16:11:49</time>
      </trkpt>
      <trkpt lat="37.0513" lon="-3.37137">
        <ele>3191.6</ele>
        <time>2021-08-05 16:11:50</time>
      </trkpt>
      <trkpt lat="37.0513" lon="-3.37136">
        <ele>3191.6</ele>
        <time>2021-08-05 16:11:51</time>
      </trkpt>
      <trkpt lat="37.05128" lon="-3.37136">
        <ele>3191.6</ele>
        <time>2021-08-05 16:11:52</time>
      </trkpt>
      <trkpt lat="37.05127" lon="-3.37135">
        <ele>3191.4</ele>
        <time>2021-08-05 16:11:53</time>
      </trkpt>
      <trkpt lat="37.05126" lon="-3.37135">
        <ele>3191.4</ele>
        <time>2021-08-05 16:11:54</time>
      </trkpt>
      <trkpt lat="37.05126" lon="-3.37134">
        <ele>3191.4</ele>
        <time>2021-08-05 16:11:55</time>
      </trkpt>
      <trkpt lat="37.05125" lon="-3.37133">
        <ele>3191.6</ele>
        <time>2021-08-05 16:11:56</time>
      </trkpt>
      <trkpt lat="37.05125" lon="-3.37132">
        <ele>3191.6</ele>
        <time>2021-08-05 16:11:57</time>
      </trkpt>
      <trkpt lat="37.05125" lon="-3.37131">
        <ele>3191.6</ele>
        <time>2021-08-05 16:11:58</time>
      </trkpt>
      <trkpt lat="37.05125" lon="-3.3713">
        <ele>3191.8</ele>
        <time>2021-08-05 16:11:59</time>
      </trkpt>
      <trkpt lat="37.05125" lon="-3.37129">
        <ele>3191.8</ele>
        <time>2021-08-05 16:12:00</time>
      </trkpt>
      <trkpt lat="37.05125" lon="-3.37128">
        <ele>3192</ele>
        <time>2021-08-05 16:12:01</time>
      </trkpt>
      <trkpt lat="37.05125" lon="-3.37127">
        <ele>3192</ele>
        <time>2021-08-05 16:12:02</time>
      </trkpt>
      <trkpt lat="37.05125" lon="-3.37126">
        <ele>3192.2</ele>
        <time>2021-08-05 16:12:03</time>
      </trkpt>
      <trkpt lat="37.05125" lon="-3.37125">
        <ele>3192.2</ele>
        <time>2021-08-05 16:12:04</time>
      </trkpt>
      <trkpt lat="37.05125" lon="-3.37125">
        <ele>3192.2</ele>
        <time>2021-08-05 16:12:05</time>
      </trkpt>
      <trkpt lat="37.05126" lon="-3.37124">
        <ele>3192.2</ele>
        <time>2021-08-05 16:12:06</time>
      </trkpt>
      <trkpt lat="37.05126" lon="-3.37124">
        <ele>3192.2</ele>
        <time>2021-08-05 16:12:07</time>
      </trkpt>
      <trkpt lat="37.05126" lon="-3.37123">
        <ele>3192.2</ele>
        <time>2021-08-05 16:12:08</time>
      </trkpt>
      <trkpt lat="37.05126" lon="-3.37123">
        <ele>3192.2</ele>
        <time>2021-08-05 16:12:09</time>
      </trkpt>
      <trkpt lat="37.05126" lon="-3.37123">
        <ele>3192.2</ele>
        <time>2021-08-05 16:12:10</time>
      </trkpt>
      <trkpt lat="37.05126" lon="-3.37122">
        <ele>3192.2</ele>
        <time>2021-08-05 16:12:11</time>
      </trkpt>
      <trkpt lat="37.05127" lon="-3.37121">
        <ele>3192.2</ele>
        <time>2021-08-05 16:12:12</time>
      </trkpt>
      <trkpt lat="37.05127" lon="-3.37121">
        <ele>3192.2</ele>
        <time>2021-08-05 16:12:13</time>
      </trkpt>
      <trkpt lat="37.05128" lon="-3.37121">
        <ele>3192.2</ele>
        <time>2021-08-05 16:12:14</time>
      </trkpt>
      <trkpt lat="37.05128" lon="-3.3712">
        <ele>3192.2</ele>
        <time>2021-08-05 16:12:15</time>
      </trkpt>
      <trkpt lat="37.05128" lon="-3.3712">
        <ele>3192.2</ele>
        <time>2021-08-05 16:12:16</time>
      </trkpt>
      <trkpt lat="37.05128" lon="-3.37121">
        <ele>3192.4</ele>
        <time>2021-08-05 16:12:17</time>
      </trkpt>
      <trkpt lat="37.05128" lon="-3.37121">
        <ele>3192.4</ele>
        <time>2021-08-05 16:12:18</time>
      </trkpt>
      <trkpt lat="37.05128" lon="-3.37121">
        <ele>3192.4</ele>
        <time>2021-08-05 16:12:19</time>
      </trkpt>
      <trkpt lat="37.05129" lon="-3.37121">
        <ele>3192.2</ele>
        <time>2021-08-05 16:12:20</time>
      </trkpt>
      <trkpt lat="37.05129" lon="-3.37121">
        <ele>3192.2</ele>
        <time>2021-08-05 16:12:21</time>
      </trkpt>
      <trkpt lat="37.05129" lon="-3.37121">
        <ele>3192.2</ele>
        <time>2021-08-05 16:12:22</time>
      </trkpt>
      <trkpt lat="37.05129" lon="-3.37121">
        <ele>3192.2</ele>
        <time>2021-08-05 16:12:23</time>
      </trkpt>
      <trkpt lat="37.05129" lon="-3.37121">
        <ele>3192</ele>
        <time>2021-08-05 16:12:24</time>
      </trkpt>
      <trkpt lat="37.05129" lon="-3.37121">
        <ele>3192</ele>
        <time>2021-08-05 16:12:25</time>
      </trkpt>
      <trkpt lat="37.0513" lon="-3.37121">
        <ele>3192</ele>
        <time>2021-08-05 16:12:26</time>
      </trkpt>
      <trkpt lat="37.0513" lon="-3.37121">
        <ele>3192</ele>
        <time>2021-08-05 16:12:27</time>
      </trkpt>
      <trkpt lat="37.05131" lon="-3.37121">
        <ele>3192</ele>
        <time>2021-08-05 16:12:28</time>
      </trkpt>
      <trkpt lat="37.05131" lon="-3.37121">
        <ele>3192</ele>
        <time>2021-08-05 16:12:29</time>
      </trkpt>
      <trkpt lat="37.05131" lon="-3.37121">
        <ele>3192</ele>
        <time>2021-08-05 16:12:30</time>
      </trkpt>
      <trkpt lat="37.05131" lon="-3.37121">
        <ele>3192</ele>
        <time>2021-08-05 16:12:31</time>
      </trkpt>
      <trkpt lat="37.05132" lon="-3.37122">
        <ele>3192</ele>
        <time>2021-08-05 16:12:32</time>
      </trkpt>
      <trkpt lat="37.05132" lon="-3.37122">
        <ele>3191.8</ele>
        <time>2021-08-05 16:12:33</time>
      </trkpt>
      <trkpt lat="37.05131" lon="-3.37122">
        <ele>3191.8</ele>
        <time>2021-08-05 16:12:34</time>
      </trkpt>
      <trkpt lat="37.05131" lon="-3.37122">
        <ele>3191.8</ele>
        <time>2021-08-05 16:12:35</time>
      </trkpt>
      <trkpt lat="37.05131" lon="-3.37122">
        <ele>3191.8</ele>
        <time>2021-08-05 16:12:36</time>
      </trkpt>
      <trkpt lat="37.05131" lon="-3.37122">
        <ele>3191.8</ele>
        <time>2021-08-05 16:12:37</time>
      </trkpt>
      <trkpt lat="37.05131" lon="-3.37122">
        <ele>3192</ele>
        <time>2021-08-05 16:12:38</time>
      </trkpt>
      <trkpt lat="37.0513" lon="-3.37122">
        <ele>3192.2</ele>
        <time>2021-08-05 16:12:39</time>
      </trkpt>
      <trkpt lat="37.0513" lon="-3.37122">
        <ele>3192.4</ele>
        <time>2021-08-05 16:12:40</time>
      </trkpt>
      <trkpt lat="37.0513" lon="-3.37122">
        <ele>3192.4</ele>
        <time>2021-08-05 16:12:41</time>
      </trkpt>
      <trkpt lat="37.0513" lon="-3.37123">
        <ele>3192.4</ele>
        <time>2021-08-05 16:12:42</time>
      </trkpt>
      <trkpt lat="37.05128" lon="-3.37124">
        <ele>3192.2</ele>
        <time>2021-08-05 16:12:43</time>
      </trkpt>
      <trkpt lat="37.05128" lon="-3.37124">
        <ele>3192</ele>
        <time>2021-08-05 16:12:44</time>
      </trkpt>
      <trkpt lat="37.05128" lon="-3.37124">
        <ele>3192</ele>
        <time>2021-08-05 16:12:45</time>
      </trkpt>
      <trkpt lat="37.05127" lon="-3.37125">
        <ele>3191.8</ele>
        <time>2021-08-05 16:12:46</time>
      </trkpt>
      <trkpt lat="37.05127" lon="-3.37125">
        <ele>3191.8</ele>
        <time>2021-08-05 16:12:47</time>
      </trkpt>
      <trkpt lat="37.05125" lon="-3.37123">
        <ele>3191.8</ele>
        <time>2021-08-05 16:12:48</time>
      </trkpt>
      <trkpt lat="37.05126" lon="-3.37123">
        <ele>3191.8</ele>
        <time>2021-08-05 16:12:49</time>
      </trkpt>
      <trkpt lat="37.05126" lon="-3.37123">
        <ele>3191.8</ele>
        <time>2021-08-05 16:12:50</time>
      </trkpt>
      <trkpt lat="37.05126" lon="-3.37123">
        <ele>3191.8</ele>
        <time>2021-08-05 16:12:51</time>
      </trkpt>
      <trkpt lat="37.05126" lon="-3.37122">
        <ele>3192</ele>
        <time>2021-08-05 16:12:52</time>
      </trkpt>
      <trkpt lat="37.05126" lon="-3.37122">
        <ele>3192</ele>
        <time>2021-08-05 16:12:53</time>
      </trkpt>
      <trkpt lat="37.05127" lon="-3.37123">
        <ele>3192</ele>
        <time>2021-08-05 16:12:54</time>
      </trkpt>
      <trkpt lat="37.05127" lon="-3.37122">
        <ele>3192</ele>
        <time>2021-08-05 16:12:55</time>
      </trkpt>
      <trkpt lat="37.05127" lon="-3.37122">
        <ele>3192</ele>
        <time>2021-08-05 16:12:56</time>
      </trkpt>
      <trkpt lat="37.05127" lon="-3.37123">
        <ele>3192</ele>
        <time>2021-08-05 16:12:57</time>
      </trkpt>
      <trkpt lat="37.05127" lon="-3.37123">
        <ele>3192.2</ele>
        <time>2021-08-05 16:12:58</time>
      </trkpt>
      <trkpt lat="37.05127" lon="-3.37123">
        <ele>3192.2</ele>
        <time>2021-08-05 16:12:59</time>
      </trkpt>
      <trkpt lat="37.05128" lon="-3.37122">
        <ele>3192.2</ele>
        <time>2021-08-05 16:13:00</time>
      </trkpt>
      <trkpt lat="37.05129" lon="-3.37121">
        <ele>3192.2</ele>
        <time>2021-08-05 16:13:01</time>
      </trkpt>
      <trkpt lat="37.0513" lon="-3.37121">
        <ele>3192.2</ele>
        <time>2021-08-05 16:13:02</time>
      </trkpt>
      <trkpt lat="37.0513" lon="-3.37121">
        <ele>3192</ele>
        <time>2021-08-05 16:13:03</time>
      </trkpt>
      <trkpt lat="37.0513" lon="-3.37122">
        <ele>3192</ele>
        <time>2021-08-05 16:13:04</time>
      </trkpt>
      <trkpt lat="37.05129" lon="-3.37122">
        <ele>3191.8</ele>
        <time>2021-08-05 16:13:05</time>
      </trkpt>
      <trkpt lat="37.05128" lon="-3.37123">
        <ele>3192</ele>
        <time>2021-08-05 16:13:06</time>
      </trkpt>
      <trkpt lat="37.05127" lon="-3.37123">
        <ele>3192</ele>
        <time>2021-08-05 16:13:07</time>
      </trkpt>
      <trkpt lat="37.05127" lon="-3.37123">
        <ele>3192</ele>
        <time>2021-08-05 16:13:08</time>
      </trkpt>
      <trkpt lat="37.05127" lon="-3.37123">
        <ele>3192.2</ele>
        <time>2021-08-05 16:13:09</time>
      </trkpt>
      <trkpt lat="37.05127" lon="-3.37123">
        <ele>3192.2</ele>
        <time>2021-08-05 16:13:10</time>
      </trkpt>
      <trkpt lat="37.05127" lon="-3.37123">
        <ele>3192.2</ele>
        <time>2021-08-05 16:13:11</time>
      </trkpt>
      <trkpt lat="37.05126" lon="-3.37124">
        <ele>3192.4</ele>
        <time>2021-08-05 16:13:12</time>
      </trkpt>
      <trkpt lat="37.05126" lon="-3.37124">
        <ele>3192.4</ele>
        <time>2021-08-05 16:13:13</time>
      </trkpt>
      <trkpt lat="37.05126" lon="-3.37124">
        <ele>3192.4</ele>
        <time>2021-08-05 16:13:14</time>
      </trkpt>
      <trkpt lat="37.05125" lon="-3.37126">
        <ele>3192.4</ele>
        <time>2021-08-05 16:13:15</time>
      </trkpt>
      <trkpt lat="37.05125" lon="-3.37127">
        <ele>3192.4</ele>
        <time>2021-08-05 16:13:16</time>
      </trkpt>
      <trkpt lat="37.05124" lon="-3.37128">
        <ele>3192.4</ele>
        <time>2021-08-05 16:13:17</time>
      </trkpt>
      <trkpt lat="37.05123" lon="-3.37128">
        <ele>3192.4</ele>
        <time>2021-08-05 16:13:18</time>
      </trkpt>
      <trkpt lat="37.05123" lon="-3.37127">
        <ele>3192.4</ele>
        <time>2021-08-05 16:13:19</time>
      </trkpt>
      <trkpt lat="37.05123" lon="-3.37126">
        <ele>3192.4</ele>
        <time>2021-08-05 16:13:20</time>
      </trkpt>
      <trkpt lat="37.05123" lon="-3.37126">
        <ele>3192.4</ele>
        <time>2021-08-05 16:13:21</time>
      </trkpt>
      <trkpt lat="37.05124" lon="-3.37127">
        <ele>3192.6</ele>
        <time>2021-08-05 16:13:22</time>
      </trkpt>
      <trkpt lat="37.05125" lon="-3.37127">
        <ele>3192.8</ele>
        <time>2021-08-05 16:13:23</time>
      </trkpt>
      <trkpt lat="37.05126" lon="-3.37126">
        <ele>3192.8</ele>
        <time>2021-08-05 16:13:24</time>
      </trkpt>
      <trkpt lat="37.05126" lon="-3.37126">
        <ele>3192.8</ele>
        <time>2021-08-05 16:13:25</time>
      </trkpt>
      <trkpt lat="37.05127" lon="-3.37126">
        <ele>3192.8</ele>
        <time>2021-08-05 16:13:26</time>
      </trkpt>
      <trkpt lat="37.05127" lon="-3.37127">
        <ele>3192.8</ele>
        <time>2021-08-05 16:13:27</time>
      </trkpt>
      <trkpt lat="37.05127" lon="-3.37126">
        <ele>3192.4</ele>
        <time>2021-08-05 16:13:28</time>
      </trkpt>
      <trkpt lat="37.05126" lon="-3.37125">
        <ele>3192.4</ele>
        <time>2021-08-05 16:13:29</time>
      </trkpt>
      <trkpt lat="37.05126" lon="-3.37125">
        <ele>3191.8</ele>
        <time>2021-08-05 16:13:30</time>
      </trkpt>
      <trkpt lat="37.05126" lon="-3.37125">
        <ele>3191.6</ele>
        <time>2021-08-05 16:13:31</time>
      </trkpt>
      <trkpt lat="37.05126" lon="-3.37125">
        <ele>3191.4</ele>
        <time>2021-08-05 16:13:32</time>
      </trkpt>
      <trkpt lat="37.05126" lon="-3.37125">
        <ele>3191.2</ele>
        <time>2021-08-05 16:13:33</time>
      </trkpt>
      <trkpt lat="37.05125" lon="-3.37125">
        <ele>3191.2</ele>
        <time>2021-08-05 16:13:34</time>
      </trkpt>
      <trkpt lat="37.05125" lon="-3.37126">
        <ele>3191</ele>
        <time>2021-08-05 16:13:35</time>
      </trkpt>
      <trkpt lat="37.05125" lon="-3.37126">
        <ele>3191</ele>
        <time>2021-08-05 16:13:36</time>
      </trkpt>
      <trkpt lat="37.05125" lon="-3.37125">
        <ele>3191</ele>
        <time>2021-08-05 16:13:37</time>
      </trkpt>
      <trkpt lat="37.05125" lon="-3.37125">
        <ele>3191</ele>
        <time>2021-08-05 16:13:38</time>
      </trkpt>
      <trkpt lat="37.05125" lon="-3.37125">
        <ele>3190.8</ele>
        <time>2021-08-05 16:13:39</time>
      </trkpt>
      <trkpt lat="37.05125" lon="-3.37125">
        <ele>3190.8</ele>
        <time>2021-08-05 16:13:40</time>
      </trkpt>
      <trkpt lat="37.05125" lon="-3.37125">
        <ele>3191.4</ele>
        <time>2021-08-05 16:13:41</time>
      </trkpt>
      <trkpt lat="37.05125" lon="-3.37125">
        <ele>3191.4</ele>
        <time>2021-08-05 16:13:42</time>
      </trkpt>
      <trkpt lat="37.05125" lon="-3.37125">
        <ele>3191.4</ele>
        <time>2021-08-05 16:13:43</time>
      </trkpt>
      <trkpt lat="37.05125" lon="-3.37124">
        <ele>3191.4</ele>
        <time>2021-08-05 16:13:44</time>
      </trkpt>
      <trkpt lat="37.05125" lon="-3.37124">
        <ele>3191.4</ele>
        <time>2021-08-05 16:13:45</time>
      </trkpt>
      <trkpt lat="37.05125" lon="-3.37124">
        <ele>3191.4</ele>
        <time>2021-08-05 16:13:46</time>
      </trkpt>
      <trkpt lat="37.05126" lon="-3.37124">
        <ele>3191.4</ele>
        <time>2021-08-05 16:13:47</time>
      </trkpt>
      <trkpt lat="37.05126" lon="-3.37124">
        <ele>3191.4</ele>
        <time>2021-08-05 16:13:48</time>
      </trkpt>
      <trkpt lat="37.05126" lon="-3.37124">
        <ele>3191.4</ele>
        <time>2021-08-05 16:13:49</time>
      </trkpt>
      <trkpt lat="37.05126" lon="-3.37124">
        <ele>3191.4</ele>
        <time>2021-08-05 16:13:50</time>
      </trkpt>
      <trkpt lat="37.05126" lon="-3.37124">
        <ele>3191.4</ele>
        <time>2021-08-05 16:13:51</time>
      </trkpt>
      <trkpt lat="37.05126" lon="-3.37124">
        <ele>3191.4</ele>
        <time>2021-08-05 16:13:52</time>
      </trkpt>
      <trkpt lat="37.05126" lon="-3.37124">
        <ele>3191.4</ele>
        <time>2021-08-05 16:13:53</time>
      </trkpt>
      <trkpt lat="37.05126" lon="-3.37124">
        <ele>3191.4</ele>
        <time>2021-08-05 16:13:54</time>
      </trkpt>
      <trkpt lat="37.05126" lon="-3.37124">
        <ele>3191.4</ele>
        <time>2021-08-05 16:13:55</time>
      </trkpt>
      <trkpt lat="37.05126" lon="-3.37124">
        <ele>3191.4</ele>
        <time>2021-08-05 16:13:56</time>
      </trkpt>
      <trkpt lat="37.05126" lon="-3.37124">
        <ele>3191.4</ele>
        <time>2021-08-05 16:13:57</time>
      </trkpt>
      <trkpt lat="37.05126" lon="-3.37124">
        <ele>3191.4</ele>
        <time>2021-08-05 16:13:58</time>
      </trkpt>
      <trkpt lat="37.05126" lon="-3.37124">
        <ele>3191.4</ele>
        <time>2021-08-05 16:13:59</time>
      </trkpt>
      <trkpt lat="37.05126" lon="-3.37124">
        <ele>3191.4</ele>
        <time>2021-08-05 16:14:00</time>
      </trkpt>
      <trkpt lat="37.05126" lon="-3.37125">
        <ele>3191.4</ele>
        <time>2021-08-05 16:14:01</time>
      </trkpt>
      <trkpt lat="37.05126" lon="-3.37124">
        <ele>3191.4</ele>
        <time>2021-08-05 16:14:02</time>
      </trkpt>
      <trkpt lat="37.05126" lon="-3.37124">
        <ele>3191.4</ele>
        <time>2021-08-05 16:14:03</time>
      </trkpt>
      <trkpt lat="37.05126" lon="-3.37125">
        <ele>3191.4</ele>
        <time>2021-08-05 16:14:04</time>
      </trkpt>
      <trkpt lat="37.05126" lon="-3.37124">
        <ele>3191.4</ele>
        <time>2021-08-05 16:14:05</time>
      </trkpt>
      <trkpt lat="37.05126" lon="-3.37124">
        <ele>3191.4</ele>
        <time>2021-08-05 16:14:06</time>
      </trkpt>
      <trkpt lat="37.05126" lon="-3.37124">
        <ele>3191.4</ele>
        <time>2021-08-05 16:14:07</time>
      </trkpt>
      <trkpt lat="37.05125" lon="-3.37124">
        <ele>3191.4</ele>
        <time>2021-08-05 16:14:08</time>
      </trkpt>
      <trkpt lat="37.05125" lon="-3.37124">
        <ele>3191.4</ele>
        <time>2021-08-05 16:14:09</time>
      </trkpt>
      <trkpt lat="37.05126" lon="-3.37124">
        <ele>3191.4</ele>
        <time>2021-08-05 16:14:10</time>
      </trkpt>
      <trkpt lat="37.05126" lon="-3.37124">
        <ele>3191.4</ele>
        <time>2021-08-05 16:14:11</time>
      </trkpt>
      <trkpt lat="37.05126" lon="-3.37124">
        <ele>3191.4</ele>
        <time>2021-08-05 16:14:12</time>
      </trkpt>
      <trkpt lat="37.05126" lon="-3.37124">
        <ele>3191.4</ele>
        <time>2021-08-05 16:14:13</time>
      </trkpt>
      <trkpt lat="37.05126" lon="-3.37124">
        <ele>3191.4</ele>
        <time>2021-08-05 16:14:14</time>
      </trkpt>
      <trkpt lat="37.05126" lon="-3.37124">
        <ele>3191.4</ele>
        <time>2021-08-05 16:14:15</time>
      </trkpt>
      <trkpt lat="37.05126" lon="-3.37124">
        <ele>3191.4</ele>
        <time>2021-08-05 16:14:16</time>
      </trkpt>
      <trkpt lat="37.05126" lon="-3.37124">
        <ele>3191.4</ele>
        <time>2021-08-05 16:14:17</time>
      </trkpt>
      <trkpt lat="37.05126" lon="-3.37124">
        <ele>3191.4</ele>
        <time>2021-08-05 16:14:18</time>
      </trkpt>
      <trkpt lat="37.05126" lon="-3.37124">
        <ele>3191.4</ele>
        <time>2021-08-05 16:14:19</time>
      </trkpt>
      <trkpt lat="37.05126" lon="-3.37124">
        <ele>3191.4</ele>
        <time>2021-08-05 16:14:20</time>
      </trkpt>
      <trkpt lat="37.05126" lon="-3.37124">
        <ele>3191.4</ele>
        <time>2021-08-05 16:14:21</time>
      </trkpt>
      <trkpt lat="37.05126" lon="-3.37124">
        <ele>3191.4</ele>
        <time>2021-08-05 16:14:22</time>
      </trkpt>
      <trkpt lat="37.05126" lon="-3.37124">
        <ele>3191.4</ele>
        <time>2021-08-05 16:14:23</time>
      </trkpt>
      <trkpt lat="37.05126" lon="-3.37125">
        <ele>3191.4</ele>
        <time>2021-08-05 16:14:24</time>
      </trkpt>
      <trkpt lat="37.05126" lon="-3.37125">
        <ele>3191.4</ele>
        <time>2021-08-05 16:14:25</time>
      </trkpt>
      <trkpt lat="37.05125" lon="-3.37125">
        <ele>3191.4</ele>
        <time>2021-08-05 16:14:26</time>
      </trkpt>
      <trkpt lat="37.05125" lon="-3.37125">
        <ele>3191.4</ele>
        <time>2021-08-05 16:14:27</time>
      </trkpt>
      <trkpt lat="37.05125" lon="-3.37125">
        <ele>3191.4</ele>
        <time>2021-08-05 16:14:28</time>
      </trkpt>
      <trkpt lat="37.05125" lon="-3.37125">
        <ele>3191.4</ele>
        <time>2021-08-05 16:14:29</time>
      </trkpt>
      <trkpt lat="37.05125" lon="-3.37125">
        <ele>3191.4</ele>
        <time>2021-08-05 16:14:30</time>
      </trkpt>
      <trkpt lat="37.05125" lon="-3.37125">
        <ele>3191.4</ele>
        <time>2021-08-05 16:14:31</time>
      </trkpt>
      <trkpt lat="37.05126" lon="-3.37125">
        <ele>3191.4</ele>
        <time>2021-08-05 16:14:32</time>
      </trkpt>
      <trkpt lat="37.05126" lon="-3.37125">
        <ele>3191.4</ele>
        <time>2021-08-05 16:14:33</time>
      </trkpt>
      <trkpt lat="37.05126" lon="-3.37125">
        <ele>3191.4</ele>
        <time>2021-08-05 16:14:34</time>
      </trkpt>
      <trkpt lat="37.05126" lon="-3.37125">
        <ele>3191.4</ele>
        <time>2021-08-05 16:14:35</time>
      </trkpt>
      <trkpt lat="37.05125" lon="-3.37125">
        <ele>3191.4</ele>
        <time>2021-08-05 16:14:36</time>
      </trkpt>
      <trkpt lat="37.05126" lon="-3.37125">
        <ele>3191.4</ele>
        <time>2021-08-05 16:14:37</time>
      </trkpt>
      <trkpt lat="37.05126" lon="-3.37125">
        <ele>3191.4</ele>
        <time>2021-08-05 16:14:38</time>
      </trkpt>
      <trkpt lat="37.05126" lon="-3.37125">
        <ele>3191.4</ele>
        <time>2021-08-05 16:14:39</time>
      </trkpt>
      <trkpt lat="37.05126" lon="-3.37125">
        <ele>3191.4</ele>
        <time>2021-08-05 16:14:40</time>
      </trkpt>
      <trkpt lat="37.05126" lon="-3.37125">
        <ele>3191.4</ele>
        <time>2021-08-05 16:14:41</time>
      </trkpt>
      <trkpt lat="37.05126" lon="-3.37125">
        <ele>3191.4</ele>
        <time>2021-08-05 16:14:42</time>
      </trkpt>
      <trkpt lat="37.05126" lon="-3.37125">
        <ele>3191.4</ele>
        <time>2021-08-05 16:14:43</time>
      </trkpt>
      <trkpt lat="37.05126" lon="-3.37125">
        <ele>3191.4</ele>
        <time>2021-08-05 16:14:44</time>
      </trkpt>
      <trkpt lat="37.05126" lon="-3.37125">
        <ele>3191.4</ele>
        <time>2021-08-05 16:14:45</time>
      </trkpt>
      <trkpt lat="37.05126" lon="-3.37125">
        <ele>3191.4</ele>
        <time>2021-08-05 16:14:46</time>
      </trkpt>
      <trkpt lat="37.05126" lon="-3.37125">
        <ele>3191.4</ele>
        <time>2021-08-05 16:14:47</time>
      </trkpt>
      <trkpt lat="37.05126" lon="-3.37125">
        <ele>3191.4</ele>
        <time>2021-08-05 16:14:48</time>
      </trkpt>
      <trkpt lat="37.05125" lon="-3.37125">
        <ele>3191.4</ele>
        <time>2021-08-05 16:14:49</time>
      </trkpt>
      <trkpt lat="37.05126" lon="-3.37125">
        <ele>3191.4</ele>
        <time>2021-08-05 16:14:50</time>
      </trkpt>
      <trkpt lat="37.05126" lon="-3.37125">
        <ele>3191.4</ele>
        <time>2021-08-05 16:14:51</time>
      </trkpt>
      <trkpt lat="37.05126" lon="-3.37125">
        <ele>3191.4</ele>
        <time>2021-08-05 16:14:52</time>
      </trkpt>
      <trkpt lat="37.05126" lon="-3.37125">
        <ele>3191.4</ele>
        <time>2021-08-05 16:14:53</time>
      </trkpt>
      <trkpt lat="37.05126" lon="-3.37125">
        <ele>3191.4</ele>
        <time>2021-08-05 16:14:54</time>
      </trkpt>
      <trkpt lat="37.05125" lon="-3.37125">
        <ele>3191.4</ele>
        <time>2021-08-05 16:14:55</time>
      </trkpt>
      <trkpt lat="37.05125" lon="-3.37125">
        <ele>3191.4</ele>
        <time>2021-08-05 16:14:56</time>
      </trkpt>
      <trkpt lat="37.05125" lon="-3.37125">
        <ele>3191.4</ele>
        <time>2021-08-05 16:14:57</time>
      </trkpt>
      <trkpt lat="37.05125" lon="-3.37125">
        <ele>3191.4</ele>
        <time>2021-08-05 16:14:58</time>
      </trkpt>
      <trkpt lat="37.05126" lon="-3.37125">
        <ele>3191.4</ele>
        <time>2021-08-05 16:14:59</time>
      </trkpt>
      <trkpt lat="37.05125" lon="-3.37125">
        <ele>3191.4</ele>
        <time>2021-08-05 16:15:00</time>
      </trkpt>
      <trkpt lat="37.05126" lon="-3.37125">
        <ele>3191.4</ele>
        <time>2021-08-05 16:15:01</time>
      </trkpt>
      <trkpt lat="37.05126" lon="-3.37125">
        <ele>3191.4</ele>
        <time>2021-08-05 16:15:02</time>
      </trkpt>
      <trkpt lat="37.05126" lon="-3.37124">
        <ele>3191.4</ele>
        <time>2021-08-05 16:15:03</time>
      </trkpt>
      <trkpt lat="37.05127" lon="-3.37124">
        <ele>3191.4</ele>
        <time>2021-08-05 16:15:04</time>
      </trkpt>
      <trkpt lat="37.05127" lon="-3.37124">
        <ele>3191.4</ele>
        <time>2021-08-05 16:15:05</time>
      </trkpt>
      <trkpt lat="37.05127" lon="-3.37125">
        <ele>3191.4</ele>
        <time>2021-08-05 16:15:06</time>
      </trkpt>
      <trkpt lat="37.05127" lon="-3.37125">
        <ele>3191.4</ele>
        <time>2021-08-05 16:15:07</time>
      </trkpt>
      <trkpt lat="37.05127" lon="-3.37125">
        <ele>3191.4</ele>
        <time>2021-08-05 16:15:08</time>
      </trkpt>
      <trkpt lat="37.05127" lon="-3.37126">
        <ele>3191.4</ele>
        <time>2021-08-05 16:15:09</time>
      </trkpt>
      <trkpt lat="37.05127" lon="-3.37126">
        <ele>3191.4</ele>
        <time>2021-08-05 16:15:10</time>
      </trkpt>
      <trkpt lat="37.05127" lon="-3.37126">
        <ele>3191.4</ele>
        <time>2021-08-05 16:15:11</time>
      </trkpt>
      <trkpt lat="37.05127" lon="-3.37126">
        <ele>3191.4</ele>
        <time>2021-08-05 16:15:12</time>
      </trkpt>
      <trkpt lat="37.05127" lon="-3.37126">
        <ele>3191.4</ele>
        <time>2021-08-05 16:15:13</time>
      </trkpt>
      <trkpt lat="37.05127" lon="-3.37127">
        <ele>3191.4</ele>
        <time>2021-08-05 16:15:14</time>
      </trkpt>
      <trkpt lat="37.05127" lon="-3.37127">
        <ele>3191.4</ele>
        <time>2021-08-05 16:15:15</time>
      </trkpt>
      <trkpt lat="37.05127" lon="-3.37128">
        <ele>3191.4</ele>
        <time>2021-08-05 16:15:16</time>
      </trkpt>
      <trkpt lat="37.05127" lon="-3.37127">
        <ele>3191.4</ele>
        <time>2021-08-05 16:15:17</time>
      </trkpt>
      <trkpt lat="37.05126" lon="-3.37127">
        <ele>3191.4</ele>
        <time>2021-08-05 16:15:18</time>
      </trkpt>
      <trkpt lat="37.05126" lon="-3.37127">
        <ele>3191.4</ele>
        <time>2021-08-05 16:15:19</time>
      </trkpt>
      <trkpt lat="37.05126" lon="-3.37127">
        <ele>3191.4</ele>
        <time>2021-08-05 16:15:20</time>
      </trkpt>
      <trkpt lat="37.05125" lon="-3.37127">
        <ele>3191.4</ele>
        <time>2021-08-05 16:15:21</time>
      </trkpt>
      <trkpt lat="37.05125" lon="-3.37128">
        <ele>3191.4</ele>
        <time>2021-08-05 16:15:22</time>
      </trkpt>
      <trkpt lat="37.05125" lon="-3.37128">
        <ele>3191.4</ele>
        <time>2021-08-05 16:15:23</time>
      </trkpt>
      <trkpt lat="37.05125" lon="-3.37128">
        <ele>3191.4</ele>
        <time>2021-08-05 16:15:24</time>
      </trkpt>
      <trkpt lat="37.05125" lon="-3.37129">
        <ele>3191.4</ele>
        <time>2021-08-05 16:15:25</time>
      </trkpt>
      <trkpt lat="37.05125" lon="-3.37129">
        <ele>3191.4</ele>
        <time>2021-08-05 16:15:26</time>
      </trkpt>
      <trkpt lat="37.05125" lon="-3.37128">
        <ele>3191.4</ele>
        <time>2021-08-05 16:15:27</time>
      </trkpt>
      <trkpt lat="37.05125" lon="-3.37128">
        <ele>3191.4</ele>
        <time>2021-08-05 16:15:28</time>
      </trkpt>
      <trkpt lat="37.05125" lon="-3.37128">
        <ele>3191.4</ele>
        <time>2021-08-05 16:15:29</time>
      </trkpt>
      <trkpt lat="37.05125" lon="-3.37128">
        <ele>3191.4</ele>
        <time>2021-08-05 16:15:30</time>
      </trkpt>
      <trkpt lat="37.05125" lon="-3.37127">
        <ele>3191.4</ele>
        <time>2021-08-05 16:15:31</time>
      </trkpt>
      <trkpt lat="37.05125" lon="-3.37126">
        <ele>3191.4</ele>
        <time>2021-08-05 16:15:32</time>
      </trkpt>
      <trkpt lat="37.05125" lon="-3.37125">
        <ele>3191.4</ele>
        <time>2021-08-05 16:15:33</time>
      </trkpt>
      <trkpt lat="37.05125" lon="-3.37125">
        <ele>3191.4</ele>
        <time>2021-08-05 16:15:34</time>
      </trkpt>
      <trkpt lat="37.05125" lon="-3.37125">
        <ele>3191.4</ele>
        <time>2021-08-05 16:15:35</time>
      </trkpt>
      <trkpt lat="37.05125" lon="-3.37125">
        <ele>3191.4</ele>
        <time>2021-08-05 16:15:36</time>
      </trkpt>
      <trkpt lat="37.05125" lon="-3.37125">
        <ele>3191.4</ele>
        <time>2021-08-05 16:15:37</time>
      </trkpt>
      <trkpt lat="37.05125" lon="-3.37125">
        <ele>3191.4</ele>
        <time>2021-08-05 16:15:38</time>
      </trkpt>
      <trkpt lat="37.05125" lon="-3.37124">
        <ele>3191.4</ele>
        <time>2021-08-05 16:15:39</time>
      </trkpt>
      <trkpt lat="37.05125" lon="-3.37124">
        <ele>3191.4</ele>
        <time>2021-08-05 16:15:40</time>
      </trkpt>
      <trkpt lat="37.05125" lon="-3.37125">
        <ele>3191.4</ele>
        <time>2021-08-05 16:15:41</time>
      </trkpt>
      <trkpt lat="37.05125" lon="-3.37125">
        <ele>3191.4</ele>
        <time>2021-08-05 16:15:42</time>
      </trkpt>
      <trkpt lat="37.05125" lon="-3.37125">
        <ele>3191.4</ele>
        <time>2021-08-05 16:15:43</time>
      </trkpt>
      <trkpt lat="37.05125" lon="-3.37125">
        <ele>3191.4</ele>
        <time>2021-08-05 16:15:44</time>
      </trkpt>
      <trkpt lat="37.05125" lon="-3.37125">
        <ele>3191.4</ele>
        <time>2021-08-05 16:15:45</time>
      </trkpt>
      <trkpt lat="37.05125" lon="-3.37125">
        <ele>3191.4</ele>
        <time>2021-08-05 16:15:46</time>
      </trkpt>
      <trkpt lat="37.05125" lon="-3.37125">
        <ele>3191.4</ele>
        <time>2021-08-05 16:15:47</time>
      </trkpt>
      <trkpt lat="37.05125" lon="-3.37125">
        <ele>3191.4</ele>
        <time>2021-08-05 16:15:48</time>
      </trkpt>
      <trkpt lat="37.05125" lon="-3.37125">
        <ele>3191.4</ele>
        <time>2021-08-05 16:15:49</time>
      </trkpt>
      <trkpt lat="37.05125" lon="-3.37125">
        <ele>3191.4</ele>
        <time>2021-08-05 16:15:50</time>
      </trkpt>
      <trkpt lat="37.05126" lon="-3.37125">
        <ele>3191.4</ele>
        <time>2021-08-05 16:15:51</time>
      </trkpt>
      <trkpt lat="37.05126" lon="-3.37125">
        <ele>3191.4</ele>
        <time>2021-08-05 16:15:52</time>
      </trkpt>
      <trkpt lat="37.05126" lon="-3.37125">
        <ele>3191.4</ele>
        <time>2021-08-05 16:15:53</time>
      </trkpt>
      <trkpt lat="37.05126" lon="-3.37125">
        <ele>3191.4</ele>
        <time>2021-08-05 16:15:54</time>
      </trkpt>
      <trkpt lat="37.05126" lon="-3.37125">
        <ele>3191.4</ele>
        <time>2021-08-05 16:15:55</time>
      </trkpt>
      <trkpt lat="37.05126" lon="-3.37125">
        <ele>3191.4</ele>
        <time>2021-08-05 16:15:56</time>
      </trkpt>
      <trkpt lat="37.05126" lon="-3.37125">
        <ele>3191.4</ele>
        <time>2021-08-05 16:15:57</time>
      </trkpt>
      <trkpt lat="37.05126" lon="-3.37126">
        <ele>3191.4</ele>
        <time>2021-08-05 16:15:58</time>
      </trkpt>
      <trkpt lat="37.05127" lon="-3.37126">
        <ele>3191.4</ele>
        <time>2021-08-05 16:15:59</time>
      </trkpt>
      <trkpt lat="37.05127" lon="-3.37126">
        <ele>3191.4</ele>
        <time>2021-08-05 16:16:00</time>
      </trkpt>
      <trkpt lat="37.05127" lon="-3.37126">
        <ele>3191.4</ele>
        <time>2021-08-05 16:16:01</time>
      </trkpt>
      <trkpt lat="37.05127" lon="-3.37126">
        <ele>3191.4</ele>
        <time>2021-08-05 16:16:02</time>
      </trkpt>
      <trkpt lat="37.05127" lon="-3.37126">
        <ele>3191.4</ele>
        <time>2021-08-05 16:16:03</time>
      </trkpt>
      <trkpt lat="37.05127" lon="-3.37126">
        <ele>3191.4</ele>
        <time>2021-08-05 16:16:04</time>
      </trkpt>
      <trkpt lat="37.05127" lon="-3.37126">
        <ele>3191.4</ele>
        <time>2021-08-05 16:16:05</time>
      </trkpt>
      <trkpt lat="37.05127" lon="-3.37126">
        <ele>3191.4</ele>
        <time>2021-08-05 16:16:06</time>
      </trkpt>
      <trkpt lat="37.05127" lon="-3.37126">
        <ele>3191.4</ele>
        <time>2021-08-05 16:16:07</time>
      </trkpt>
      <trkpt lat="37.05127" lon="-3.37126">
        <ele>3191.4</ele>
        <time>2021-08-05 16:16:08</time>
      </trkpt>
      <trkpt lat="37.05127" lon="-3.37127">
        <ele>3191.4</ele>
        <time>2021-08-05 16:16:09</time>
      </trkpt>
      <trkpt lat="37.05126" lon="-3.37127">
        <ele>3191.4</ele>
        <time>2021-08-05 16:16:10</time>
      </trkpt>
      <trkpt lat="37.05126" lon="-3.37127">
        <ele>3191.4</ele>
        <time>2021-08-05 16:16:11</time>
      </trkpt>
      <trkpt lat="37.05126" lon="-3.37128">
        <ele>3191.4</ele>
        <time>2021-08-05 16:16:12</time>
      </trkpt>
      <trkpt lat="37.05126" lon="-3.37128">
        <ele>3191.4</ele>
        <time>2021-08-05 16:16:13</time>
      </trkpt>
      <trkpt lat="37.05126" lon="-3.37128">
        <ele>3191.4</ele>
        <time>2021-08-05 16:16:14</time>
      </trkpt>
      <trkpt lat="37.05126" lon="-3.37128">
        <ele>3191.4</ele>
        <time>2021-08-05 16:16:15</time>
      </trkpt>
      <trkpt lat="37.05126" lon="-3.37128">
        <ele>3191.4</ele>
        <time>2021-08-05 16:16:16</time>
      </trkpt>
      <trkpt lat="37.05126" lon="-3.37128">
        <ele>3191.4</ele>
        <time>2021-08-05 16:16:17</time>
      </trkpt>
      <trkpt lat="37.05126" lon="-3.37128">
        <ele>3191.4</ele>
        <time>2021-08-05 16:16:18</time>
      </trkpt>
      <trkpt lat="37.05126" lon="-3.37128">
        <ele>3191.4</ele>
        <time>2021-08-05 16:16:19</time>
      </trkpt>
      <trkpt lat="37.05125" lon="-3.37128">
        <ele>3191.4</ele>
        <time>2021-08-05 16:16:20</time>
      </trkpt>
      <trkpt lat="37.05125" lon="-3.37128">
        <ele>3191.4</ele>
        <time>2021-08-05 16:16:21</time>
      </trkpt>
      <trkpt lat="37.05125" lon="-3.37128">
        <ele>3191.4</ele>
        <time>2021-08-05 16:16:22</time>
      </trkpt>
      <trkpt lat="37.05125" lon="-3.37127">
        <ele>3191.4</ele>
        <time>2021-08-05 16:16:23</time>
      </trkpt>
      <trkpt lat="37.05125" lon="-3.37127">
        <ele>3191.4</ele>
        <time>2021-08-05 16:16:24</time>
      </trkpt>
      <trkpt lat="37.05125" lon="-3.37127">
        <ele>3191.4</ele>
        <time>2021-08-05 16:16:25</time>
      </trkpt>
      <trkpt lat="37.05125" lon="-3.37127">
        <ele>3191.4</ele>
        <time>2021-08-05 16:16:26</time>
      </trkpt>
      <trkpt lat="37.05125" lon="-3.37127">
        <ele>3191.4</ele>
        <time>2021-08-05 16:16:27</time>
      </trkpt>
      <trkpt lat="37.05125" lon="-3.37127">
        <ele>3191.4</ele>
        <time>2021-08-05 16:16:28</time>
      </trkpt>
      <trkpt lat="37.05125" lon="-3.37127">
        <ele>3191.4</ele>
        <time>2021-08-05 16:16:29</time>
      </trkpt>
      <trkpt lat="37.05125" lon="-3.37127">
        <ele>3191.4</ele>
        <time>2021-08-05 16:16:30</time>
      </trkpt>
      <trkpt lat="37.05125" lon="-3.37126">
        <ele>3191.4</ele>
        <time>2021-08-05 16:16:31</time>
      </trkpt>
      <trkpt lat="37.05125" lon="-3.37126">
        <ele>3191.4</ele>
        <time>2021-08-05 16:16:32</time>
      </trkpt>
      <trkpt lat="37.05125" lon="-3.37126">
        <ele>3191.4</ele>
        <time>2021-08-05 16:16:33</time>
      </trkpt>
      <trkpt lat="37.05125" lon="-3.37126">
        <ele>3191.4</ele>
        <time>2021-08-05 16:16:34</time>
      </trkpt>
      <trkpt lat="37.05125" lon="-3.37126">
        <ele>3191.4</ele>
        <time>2021-08-05 16:16:35</time>
      </trkpt>
      <trkpt lat="37.05125" lon="-3.37126">
        <ele>3191.4</ele>
        <time>2021-08-05 16:16:36</time>
      </trkpt>
      <trkpt lat="37.05125" lon="-3.37126">
        <ele>3191.4</ele>
        <time>2021-08-05 16:16:37</time>
      </trkpt>
      <trkpt lat="37.05125" lon="-3.37126">
        <ele>3191.4</ele>
        <time>2021-08-05 16:16:38</time>
      </trkpt>
      <trkpt lat="37.05125" lon="-3.37126">
        <ele>3191.4</ele>
        <time>2021-08-05 16:16:39</time>
      </trkpt>
      <trkpt lat="37.05125" lon="-3.37126">
        <ele>3191.4</ele>
        <time>2021-08-05 16:16:40</time>
      </trkpt>
      <trkpt lat="37.05125" lon="-3.37126">
        <ele>3191.4</ele>
        <time>2021-08-05 16:16:41</time>
      </trkpt>
      <trkpt lat="37.05125" lon="-3.37126">
        <ele>3191.4</ele>
        <time>2021-08-05 16:16:42</time>
      </trkpt>
      <trkpt lat="37.05125" lon="-3.37126">
        <ele>3191.4</ele>
        <time>2021-08-05 16:16:43</time>
      </trkpt>
      <trkpt lat="37.05125" lon="-3.37126">
        <ele>3191.4</ele>
        <time>2021-08-05 16:16:44</time>
      </trkpt>
      <trkpt lat="37.05124" lon="-3.37126">
        <ele>3191.4</ele>
        <time>2021-08-05 16:16:45</time>
      </trkpt>
      <trkpt lat="37.05124" lon="-3.37126">
        <ele>3191.4</ele>
        <time>2021-08-05 16:16:46</time>
      </trkpt>
      <trkpt lat="37.05124" lon="-3.37126">
        <ele>3191.4</ele>
        <time>2021-08-05 16:16:47</time>
      </trkpt>
      <trkpt lat="37.05124" lon="-3.37126">
        <ele>3191.4</ele>
        <time>2021-08-05 16:16:48</time>
      </trkpt>
      <trkpt lat="37.05125" lon="-3.37126">
        <ele>3191.4</ele>
        <time>2021-08-05 16:16:49</time>
      </trkpt>
      <trkpt lat="37.05124" lon="-3.37127">
        <ele>3191.4</ele>
        <time>2021-08-05 16:16:50</time>
      </trkpt>
      <trkpt lat="37.05124" lon="-3.37127">
        <ele>3191.4</ele>
        <time>2021-08-05 16:16:51</time>
      </trkpt>
      <trkpt lat="37.05124" lon="-3.37127">
        <ele>3191.4</ele>
        <time>2021-08-05 16:16:52</time>
      </trkpt>
      <trkpt lat="37.05124" lon="-3.37127">
        <ele>3191.4</ele>
        <time>2021-08-05 16:16:53</time>
      </trkpt>
      <trkpt lat="37.05124" lon="-3.37128">
        <ele>3191.4</ele>
        <time>2021-08-05 16:16:54</time>
      </trkpt>
      <trkpt lat="37.05124" lon="-3.37128">
        <ele>3191.4</ele>
        <time>2021-08-05 16:16:55</time>
      </trkpt>
      <trkpt lat="37.05124" lon="-3.37128">
        <ele>3191.4</ele>
        <time>2021-08-05 16:16:56</time>
      </trkpt>
      <trkpt lat="37.05124" lon="-3.37129">
        <ele>3191.4</ele>
        <time>2021-08-05 16:16:57</time>
      </trkpt>
      <trkpt lat="37.05124" lon="-3.37128">
        <ele>3191.4</ele>
        <time>2021-08-05 16:16:58</time>
      </trkpt>
      <trkpt lat="37.05124" lon="-3.37128">
        <ele>3191.4</ele>
        <time>2021-08-05 16:16:59</time>
      </trkpt>
      <trkpt lat="37.05124" lon="-3.37128">
        <ele>3191.4</ele>
        <time>2021-08-05 16:17:00</time>
      </trkpt>
      <trkpt lat="37.05124" lon="-3.37128">
        <ele>3191.4</ele>
        <time>2021-08-05 16:17:01</time>
      </trkpt>
      <trkpt lat="37.05124" lon="-3.37128">
        <ele>3191.4</ele>
        <time>2021-08-05 16:17:02</time>
      </trkpt>
      <trkpt lat="37.05124" lon="-3.37128">
        <ele>3191.4</ele>
        <time>2021-08-05 16:17:03</time>
      </trkpt>
      <trkpt lat="37.05124" lon="-3.37128">
        <ele>3191.4</ele>
        <time>2021-08-05 16:17:04</time>
      </trkpt>
      <trkpt lat="37.05124" lon="-3.37129">
        <ele>3191.4</ele>
        <time>2021-08-05 16:17:05</time>
      </trkpt>
      <trkpt lat="37.05124" lon="-3.37129">
        <ele>3191.4</ele>
        <time>2021-08-05 16:17:06</time>
      </trkpt>
      <trkpt lat="37.05124" lon="-3.37128">
        <ele>3191.4</ele>
        <time>2021-08-05 16:17:07</time>
      </trkpt>
      <trkpt lat="37.05123" lon="-3.37128">
        <ele>3191.4</ele>
        <time>2021-08-05 16:17:08</time>
      </trkpt>
      <trkpt lat="37.05123" lon="-3.37128">
        <ele>3191.4</ele>
        <time>2021-08-05 16:17:09</time>
      </trkpt>
      <trkpt lat="37.05123" lon="-3.37128">
        <ele>3191.4</ele>
        <time>2021-08-05 16:17:10</time>
      </trkpt>
      <trkpt lat="37.05123" lon="-3.37128">
        <ele>3191.4</ele>
        <time>2021-08-05 16:17:11</time>
      </trkpt>
      <trkpt lat="37.05124" lon="-3.37129">
        <ele>3191.4</ele>
        <time>2021-08-05 16:17:12</time>
      </trkpt>
      <trkpt lat="37.05124" lon="-3.37128">
        <ele>3191.4</ele>
        <time>2021-08-05 16:17:13</time>
      </trkpt>
      <trkpt lat="37.05124" lon="-3.37128">
        <ele>3191.4</ele>
        <time>2021-08-05 16:17:14</time>
      </trkpt>
      <trkpt lat="37.05124" lon="-3.37128">
        <ele>3191.4</ele>
        <time>2021-08-05 16:17:15</time>
      </trkpt>
      <trkpt lat="37.05124" lon="-3.37128">
        <ele>3191.4</ele>
        <time>2021-08-05 16:17:16</time>
      </trkpt>
      <trkpt lat="37.05124" lon="-3.37128">
        <ele>3191.4</ele>
        <time>2021-08-05 16:17:17</time>
      </trkpt>
      <trkpt lat="37.05124" lon="-3.37128">
        <ele>3191.4</ele>
        <time>2021-08-05 16:17:18</time>
      </trkpt>
      <trkpt lat="37.05124" lon="-3.37128">
        <ele>3191.4</ele>
        <time>2021-08-05 16:17:19</time>
      </trkpt>
      <trkpt lat="37.05124" lon="-3.37128">
        <ele>3191.4</ele>
        <time>2021-08-05 16:17:20</time>
      </trkpt>
      <trkpt lat="37.05124" lon="-3.37128">
        <ele>3191.4</ele>
        <time>2021-08-05 16:17:21</time>
      </trkpt>
      <trkpt lat="37.05124" lon="-3.37128">
        <ele>3191.4</ele>
        <time>2021-08-05 16:17:22</time>
      </trkpt>
      <trkpt lat="37.05124" lon="-3.37128">
        <ele>3191.4</ele>
        <time>2021-08-05 16:17:23</time>
      </trkpt>
      <trkpt lat="37.05124" lon="-3.37128">
        <ele>3191.4</ele>
        <time>2021-08-05 16:17:24</time>
      </trkpt>
      <trkpt lat="37.05124" lon="-3.37128">
        <ele>3191.4</ele>
        <time>2021-08-05 16:17:25</time>
      </trkpt>
      <trkpt lat="37.05124" lon="-3.37128">
        <ele>3191.4</ele>
        <time>2021-08-05 16:17:26</time>
      </trkpt>
      <trkpt lat="37.05124" lon="-3.37128">
        <ele>3191.4</ele>
        <time>2021-08-05 16:17:27</time>
      </trkpt>
      <trkpt lat="37.05125" lon="-3.37128">
        <ele>3191.4</ele>
        <time>2021-08-05 16:17:28</time>
      </trkpt>
      <trkpt lat="37.05125" lon="-3.37128">
        <ele>3191.4</ele>
        <time>2021-08-05 16:17:29</time>
      </trkpt>
      <trkpt lat="37.05124" lon="-3.37128">
        <ele>3191.4</ele>
        <time>2021-08-05 16:17:30</time>
      </trkpt>
      <trkpt lat="37.05124" lon="-3.37128">
        <ele>3191.4</ele>
        <time>2021-08-05 16:17:31</time>
      </trkpt>
      <trkpt lat="37.05124" lon="-3.37128">
        <ele>3191.4</ele>
        <time>2021-08-05 16:17:32</time>
      </trkpt>
      <trkpt lat="37.05124" lon="-3.37128">
        <ele>3191.4</ele>
        <time>2021-08-05 16:17:33</time>
      </trkpt>
      <trkpt lat="37.05123" lon="-3.37129">
        <ele>3191.4</ele>
        <time>2021-08-05 16:17:34</time>
      </trkpt>
      <trkpt lat="37.05123" lon="-3.37128">
        <ele>3191.4</ele>
        <time>2021-08-05 16:17:35</time>
      </trkpt>
      <trkpt lat="37.05123" lon="-3.37128">
        <ele>3191.4</ele>
        <time>2021-08-05 16:17:36</time>
      </trkpt>
      <trkpt lat="37.05123" lon="-3.37128">
        <ele>3191.4</ele>
        <time>2021-08-05 16:17:37</time>
      </trkpt>
      <trkpt lat="37.05123" lon="-3.37128">
        <ele>3191.4</ele>
        <time>2021-08-05 16:17:38</time>
      </trkpt>
      <trkpt lat="37.05123" lon="-3.37128">
        <ele>3191.4</ele>
        <time>2021-08-05 16:17:39</time>
      </trkpt>
      <trkpt lat="37.05123" lon="-3.37127">
        <ele>3191.4</ele>
        <time>2021-08-05 16:17:40</time>
      </trkpt>
      <trkpt lat="37.05124" lon="-3.37127">
        <ele>3191.4</ele>
        <time>2021-08-05 16:17:41</time>
      </trkpt>
      <trkpt lat="37.05125" lon="-3.37126">
        <ele>3191.4</ele>
        <time>2021-08-05 16:17:42</time>
      </trkpt>
      <trkpt lat="37.05126" lon="-3.37125">
        <ele>3191.4</ele>
        <time>2021-08-05 16:17:43</time>
      </trkpt>
      <trkpt lat="37.05127" lon="-3.37124">
        <ele>3191.4</ele>
        <time>2021-08-05 16:17:44</time>
      </trkpt>
      <trkpt lat="37.05127" lon="-3.37124">
        <ele>3194.4</ele>
        <time>2021-08-05 16:17:45</time>
      </trkpt>
      <trkpt lat="37.05128" lon="-3.37123">
        <ele>3194.4</ele>
        <time>2021-08-05 16:17:46</time>
      </trkpt>
      <trkpt lat="37.05128" lon="-3.37123">
        <ele>3194.4</ele>
        <time>2021-08-05 16:17:47</time>
      </trkpt>
      <trkpt lat="37.05128" lon="-3.37123">
        <ele>3194.4</ele>
        <time>2021-08-05 16:17:48</time>
      </trkpt>
      <trkpt lat="37.05128" lon="-3.37123">
        <ele>3194</ele>
        <time>2021-08-05 16:17:49</time>
      </trkpt>
      <trkpt lat="37.05128" lon="-3.37123">
        <ele>3193.8</ele>
        <time>2021-08-05 16:17:50</time>
      </trkpt>
      <trkpt lat="37.05128" lon="-3.37123">
        <ele>3193.8</ele>
        <time>2021-08-05 16:17:51</time>
      </trkpt>
      <trkpt lat="37.05128" lon="-3.37123">
        <ele>3193.8</ele>
        <time>2021-08-05 16:17:52</time>
      </trkpt>
      <trkpt lat="37.05126" lon="-3.37124">
        <ele>3193.8</ele>
        <time>2021-08-05 16:17:53</time>
      </trkpt>
      <trkpt lat="37.05125" lon="-3.37124">
        <ele>3193.6</ele>
        <time>2021-08-05 16:17:54</time>
      </trkpt>
      <trkpt lat="37.05125" lon="-3.37124">
        <ele>3193.8</ele>
        <time>2021-08-05 16:17:55</time>
      </trkpt>
      <trkpt lat="37.05125" lon="-3.37125">
        <ele>3193.8</ele>
        <time>2021-08-05 16:17:56</time>
      </trkpt>
      <trkpt lat="37.05124" lon="-3.37126">
        <ele>3193.8</ele>
        <time>2021-08-05 16:17:57</time>
      </trkpt>
      <trkpt lat="37.05124" lon="-3.37126">
        <ele>3193.8</ele>
        <time>2021-08-05 16:17:58</time>
      </trkpt>
      <trkpt lat="37.05124" lon="-3.37126">
        <ele>3194</ele>
        <time>2021-08-05 16:17:59</time>
      </trkpt>
      <trkpt lat="37.05124" lon="-3.37127">
        <ele>3194</ele>
        <time>2021-08-05 16:18:00</time>
      </trkpt>
      <trkpt lat="37.05124" lon="-3.37126">
        <ele>3194</ele>
        <time>2021-08-05 16:18:01</time>
      </trkpt>
      <trkpt lat="37.05124" lon="-3.37127">
        <ele>3194</ele>
        <time>2021-08-05 16:18:02</time>
      </trkpt>
      <trkpt lat="37.05124" lon="-3.37127">
        <ele>3193.8</ele>
        <time>2021-08-05 16:18:03</time>
      </trkpt>
      <trkpt lat="37.05124" lon="-3.37127">
        <ele>3193.6</ele>
        <time>2021-08-05 16:18:04</time>
      </trkpt>
      <trkpt lat="37.05125" lon="-3.37127">
        <ele>3193.4</ele>
        <time>2021-08-05 16:18:05</time>
      </trkpt>
      <trkpt lat="37.05125" lon="-3.37127">
        <ele>3193.4</ele>
        <time>2021-08-05 16:18:06</time>
      </trkpt>
      <trkpt lat="37.05125" lon="-3.37128">
        <ele>3193.2</ele>
        <time>2021-08-05 16:18:07</time>
      </trkpt>
      <trkpt lat="37.05125" lon="-3.37128">
        <ele>3193</ele>
        <time>2021-08-05 16:18:08</time>
      </trkpt>
      <trkpt lat="37.05125" lon="-3.37127">
        <ele>3193</ele>
        <time>2021-08-05 16:18:09</time>
      </trkpt>
      <trkpt lat="37.05125" lon="-3.37127">
        <ele>3193</ele>
        <time>2021-08-05 16:18:10</time>
      </trkpt>
      <trkpt lat="37.05125" lon="-3.37127">
        <ele>3193</ele>
        <time>2021-08-05 16:18:11</time>
      </trkpt>
      <trkpt lat="37.05125" lon="-3.37127">
        <ele>3193</ele>
        <time>2021-08-05 16:18:12</time>
      </trkpt>
      <trkpt lat="37.05125" lon="-3.37128">
        <ele>3192.8</ele>
        <time>2021-08-05 16:18:13</time>
      </trkpt>
      <trkpt lat="37.05125" lon="-3.37128">
        <ele>3192.8</ele>
        <time>2021-08-05 16:18:14</time>
      </trkpt>
      <trkpt lat="37.05125" lon="-3.37128">
        <ele>3192.8</ele>
        <time>2021-08-05 16:18:15</time>
      </trkpt>
      <trkpt lat="37.05125" lon="-3.37128">
        <ele>3192.8</ele>
        <time>2021-08-05 16:18:16</time>
      </trkpt>
      <trkpt lat="37.05125" lon="-3.37129">
        <ele>3192.8</ele>
        <time>2021-08-05 16:18:17</time>
      </trkpt>
      <trkpt lat="37.05125" lon="-3.37128">
        <ele>3192.8</ele>
        <time>2021-08-05 16:18:18</time>
      </trkpt>
      <trkpt lat="37.05126" lon="-3.37128">
        <ele>3192.8</ele>
        <time>2021-08-05 16:18:19</time>
      </trkpt>
      <trkpt lat="37.05126" lon="-3.37127">
        <ele>3193</ele>
        <time>2021-08-05 16:18:20</time>
      </trkpt>
      <trkpt lat="37.05126" lon="-3.37127">
        <ele>3192.6</ele>
        <time>2021-08-05 16:18:21</time>
      </trkpt>
      <trkpt lat="37.05127" lon="-3.37126">
        <ele>3192.6</ele>
        <time>2021-08-05 16:18:22</time>
      </trkpt>
      <trkpt lat="37.05127" lon="-3.37126">
        <ele>3192.4</ele>
        <time>2021-08-05 16:18:23</time>
      </trkpt>
      <trkpt lat="37.05127" lon="-3.37126">
        <ele>3192.2</ele>
        <time>2021-08-05 16:18:24</time>
      </trkpt>
      <trkpt lat="37.05128" lon="-3.37126">
        <ele>3192.4</ele>
        <time>2021-08-05 16:18:25</time>
      </trkpt>
      <trkpt lat="37.05128" lon="-3.37125">
        <ele>3192.4</ele>
        <time>2021-08-05 16:18:26</time>
      </trkpt>
      <trkpt lat="37.05128" lon="-3.37125">
        <ele>3192.4</ele>
        <time>2021-08-05 16:18:27</time>
      </trkpt>
      <trkpt lat="37.05128" lon="-3.37125">
        <ele>3192.4</ele>
        <time>2021-08-05 16:18:28</time>
      </trkpt>
      <trkpt lat="37.05129" lon="-3.37125">
        <ele>3192.4</ele>
        <time>2021-08-05 16:18:29</time>
      </trkpt>
      <trkpt lat="37.05129" lon="-3.37125">
        <ele>3192.4</ele>
        <time>2021-08-05 16:18:30</time>
      </trkpt>
      <trkpt lat="37.05129" lon="-3.37124">
        <ele>3192.4</ele>
        <time>2021-08-05 16:18:31</time>
      </trkpt>
      <trkpt lat="37.0513" lon="-3.37125">
        <ele>3192.2</ele>
        <time>2021-08-05 16:18:32</time>
      </trkpt>
      <trkpt lat="37.0513" lon="-3.37124">
        <ele>3192.2</ele>
        <time>2021-08-05 16:18:33</time>
      </trkpt>
      <trkpt lat="37.0513" lon="-3.37124">
        <ele>3192.2</ele>
        <time>2021-08-05 16:18:34</time>
      </trkpt>
      <trkpt lat="37.0513" lon="-3.37124">
        <ele>3192</ele>
        <time>2021-08-05 16:18:35</time>
      </trkpt>
      <trkpt lat="37.05129" lon="-3.37124">
        <ele>3192</ele>
        <time>2021-08-05 16:18:36</time>
      </trkpt>
      <trkpt lat="37.05129" lon="-3.37124">
        <ele>3191.8</ele>
        <time>2021-08-05 16:18:37</time>
      </trkpt>
      <trkpt lat="37.05129" lon="-3.37124">
        <ele>3192</ele>
        <time>2021-08-05 16:18:38</time>
      </trkpt>
      <trkpt lat="37.05129" lon="-3.37124">
        <ele>3192.2</ele>
        <time>2021-08-05 16:18:39</time>
      </trkpt>
      <trkpt lat="37.05129" lon="-3.37124">
        <ele>3192.2</ele>
        <time>2021-08-05 16:18:40</time>
      </trkpt>
      <trkpt lat="37.05129" lon="-3.37124">
        <ele>3192.4</ele>
        <time>2021-08-05 16:18:41</time>
      </trkpt>
      <trkpt lat="37.05129" lon="-3.37124">
        <ele>3192.4</ele>
        <time>2021-08-05 16:18:42</time>
      </trkpt>
      <trkpt lat="37.05129" lon="-3.37124">
        <ele>3192.4</ele>
        <time>2021-08-05 16:18:43</time>
      </trkpt>
      <trkpt lat="37.05129" lon="-3.37124">
        <ele>3192.4</ele>
        <time>2021-08-05 16:18:44</time>
      </trkpt>
      <trkpt lat="37.05128" lon="-3.37124">
        <ele>3192.6</ele>
        <time>2021-08-05 16:18:45</time>
      </trkpt>
      <trkpt lat="37.05128" lon="-3.37124">
        <ele>3192.6</ele>
        <time>2021-08-05 16:18:46</time>
      </trkpt>
      <trkpt lat="37.05127" lon="-3.37124">
        <ele>3192.6</ele>
        <time>2021-08-05 16:18:47</time>
      </trkpt>
      <trkpt lat="37.05126" lon="-3.37124">
        <ele>3192.6</ele>
        <time>2021-08-05 16:18:48</time>
      </trkpt>
      <trkpt lat="37.05126" lon="-3.37122">
        <ele>3192.8</ele>
        <time>2021-08-05 16:18:49</time>
      </trkpt>
      <trkpt lat="37.05126" lon="-3.37122">
        <ele>3193</ele>
        <time>2021-08-05 16:18:50</time>
      </trkpt>
      <trkpt lat="37.05126" lon="-3.37122">
        <ele>3193.2</ele>
        <time>2021-08-05 16:18:51</time>
      </trkpt>
      <trkpt lat="37.05126" lon="-3.37122">
        <ele>3193.2</ele>
        <time>2021-08-05 16:18:52</time>
      </trkpt>
      <trkpt lat="37.05126" lon="-3.37122">
        <ele>3193.4</ele>
        <time>2021-08-05 16:18:53</time>
      </trkpt>
      <trkpt lat="37.05126" lon="-3.37123">
        <ele>3193.4</ele>
        <time>2021-08-05 16:18:54</time>
      </trkpt>
      <trkpt lat="37.05126" lon="-3.37123">
        <ele>3193.4</ele>
        <time>2021-08-05 16:18:55</time>
      </trkpt>
      <trkpt lat="37.05126" lon="-3.37123">
        <ele>3193.2</ele>
        <time>2021-08-05 16:18:56</time>
      </trkpt>
      <trkpt lat="37.05127" lon="-3.37124">
        <ele>3193.2</ele>
        <time>2021-08-05 16:18:57</time>
      </trkpt>
      <trkpt lat="37.05127" lon="-3.37124">
        <ele>3193.2</ele>
        <time>2021-08-05 16:18:58</time>
      </trkpt>
      <trkpt lat="37.05127" lon="-3.37124">
        <ele>3193.2</ele>
        <time>2021-08-05 16:18:59</time>
      </trkpt>
      <trkpt lat="37.05128" lon="-3.37123">
        <ele>3193.2</ele>
        <time>2021-08-05 16:19:00</time>
      </trkpt>
      <trkpt lat="37.05128" lon="-3.37123">
        <ele>3193.2</ele>
        <time>2021-08-05 16:19:01</time>
      </trkpt>
      <trkpt lat="37.05128" lon="-3.37123">
        <ele>3193.2</ele>
        <time>2021-08-05 16:19:02</time>
      </trkpt>
      <trkpt lat="37.05129" lon="-3.37123">
        <ele>3193.2</ele>
        <time>2021-08-05 16:19:03</time>
      </trkpt>
      <trkpt lat="37.05129" lon="-3.37123">
        <ele>3193.4</ele>
        <time>2021-08-05 16:19:04</time>
      </trkpt>
      <trkpt lat="37.05129" lon="-3.37123">
        <ele>3193.6</ele>
        <time>2021-08-05 16:19:05</time>
      </trkpt>
      <trkpt lat="37.05129" lon="-3.37123">
        <ele>3193.6</ele>
        <time>2021-08-05 16:19:06</time>
      </trkpt>
      <trkpt lat="37.05129" lon="-3.37123">
        <ele>3193.6</ele>
        <time>2021-08-05 16:19:07</time>
      </trkpt>
      <trkpt lat="37.05129" lon="-3.37123">
        <ele>3193.6</ele>
        <time>2021-08-05 16:19:08</time>
      </trkpt>
      <trkpt lat="37.05129" lon="-3.37123">
        <ele>3193.6</ele>
        <time>2021-08-05 16:19:09</time>
      </trkpt>
      <trkpt lat="37.05129" lon="-3.37124">
        <ele>3193.6</ele>
        <time>2021-08-05 16:19:10</time>
      </trkpt>
      <trkpt lat="37.05128" lon="-3.37124">
        <ele>3193.6</ele>
        <time>2021-08-05 16:19:11</time>
      </trkpt>
      <trkpt lat="37.05128" lon="-3.37124">
        <ele>3193.6</ele>
        <time>2021-08-05 16:19:12</time>
      </trkpt>
      <trkpt lat="37.05128" lon="-3.37123">
        <ele>3193.6</ele>
        <time>2021-08-05 16:19:13</time>
      </trkpt>
      <trkpt lat="37.05127" lon="-3.37123">
        <ele>3193.8</ele>
        <time>2021-08-05 16:19:14</time>
      </trkpt>
      <trkpt lat="37.05127" lon="-3.37122">
        <ele>3193.6</ele>
        <time>2021-08-05 16:19:15</time>
      </trkpt>
      <trkpt lat="37.05127" lon="-3.37122">
        <ele>3193.6</ele>
        <time>2021-08-05 16:19:16</time>
      </trkpt>
      <trkpt lat="37.05127" lon="-3.37121">
        <ele>3193.6</ele>
        <time>2021-08-05 16:19:17</time>
      </trkpt>
      <trkpt lat="37.05127" lon="-3.37121">
        <ele>3193.4</ele>
        <time>2021-08-05 16:19:18</time>
      </trkpt>
      <trkpt lat="37.05127" lon="-3.37121">
        <ele>3193.4</ele>
        <time>2021-08-05 16:19:19</time>
      </trkpt>
      <trkpt lat="37.05127" lon="-3.37121">
        <ele>3193.4</ele>
        <time>2021-08-05 16:19:20</time>
      </trkpt>
      <trkpt lat="37.05127" lon="-3.37121">
        <ele>3193.4</ele>
        <time>2021-08-05 16:19:21</time>
      </trkpt>
      <trkpt lat="37.05127" lon="-3.37121">
        <ele>3193.4</ele>
        <time>2021-08-05 16:19:22</time>
      </trkpt>
      <trkpt lat="37.05127" lon="-3.37121">
        <ele>3193.4</ele>
        <time>2021-08-05 16:19:23</time>
      </trkpt>
      <trkpt lat="37.05127" lon="-3.37121">
        <ele>3193.4</ele>
        <time>2021-08-05 16:19:24</time>
      </trkpt>
      <trkpt lat="37.05127" lon="-3.37121">
        <ele>3193.4</ele>
        <time>2021-08-05 16:19:25</time>
      </trkpt>
      <trkpt lat="37.05127" lon="-3.37121">
        <ele>3193.4</ele>
        <time>2021-08-05 16:19:26</time>
      </trkpt>
      <trkpt lat="37.05127" lon="-3.37121">
        <ele>3193.4</ele>
        <time>2021-08-05 16:19:27</time>
      </trkpt>
      <trkpt lat="37.05128" lon="-3.37121">
        <ele>3193.4</ele>
        <time>2021-08-05 16:19:28</time>
      </trkpt>
      <trkpt lat="37.05128" lon="-3.37121">
        <ele>3193.4</ele>
        <time>2021-08-05 16:19:29</time>
      </trkpt>
      <trkpt lat="37.05128" lon="-3.37122">
        <ele>3193.4</ele>
        <time>2021-08-05 16:19:30</time>
      </trkpt>
      <trkpt lat="37.05128" lon="-3.37122">
        <ele>3193.6</ele>
        <time>2021-08-05 16:19:31</time>
      </trkpt>
      <trkpt lat="37.05129" lon="-3.37122">
        <ele>3193.6</ele>
        <time>2021-08-05 16:19:32</time>
      </trkpt>
      <trkpt lat="37.05129" lon="-3.37122">
        <ele>3193.6</ele>
        <time>2021-08-05 16:19:33</time>
      </trkpt>
      <trkpt lat="37.05129" lon="-3.37123">
        <ele>3193.6</ele>
        <time>2021-08-05 16:19:34</time>
      </trkpt>
      <trkpt lat="37.05129" lon="-3.37123">
        <ele>3193.4</ele>
        <time>2021-08-05 16:19:35</time>
      </trkpt>
      <trkpt lat="37.05129" lon="-3.37123">
        <ele>3193.4</ele>
        <time>2021-08-05 16:19:36</time>
      </trkpt>
      <trkpt lat="37.05129" lon="-3.37123">
        <ele>3193.4</ele>
        <time>2021-08-05 16:19:37</time>
      </trkpt>
      <trkpt lat="37.05129" lon="-3.37123">
        <ele>3193.4</ele>
        <time>2021-08-05 16:19:38</time>
      </trkpt>
      <trkpt lat="37.0513" lon="-3.37122">
        <ele>3193.2</ele>
        <time>2021-08-05 16:19:39</time>
      </trkpt>
      <trkpt lat="37.05129" lon="-3.37122">
        <ele>3193.2</ele>
        <time>2021-08-05 16:19:40</time>
      </trkpt>
      <trkpt lat="37.05129" lon="-3.37123">
        <ele>3193</ele>
        <time>2021-08-05 16:19:41</time>
      </trkpt>
      <trkpt lat="37.05129" lon="-3.37123">
        <ele>3193</ele>
        <time>2021-08-05 16:19:42</time>
      </trkpt>
      <trkpt lat="37.05128" lon="-3.37123">
        <ele>3193</ele>
        <time>2021-08-05 16:19:43</time>
      </trkpt>
      <trkpt lat="37.05128" lon="-3.37124">
        <ele>3193</ele>
        <time>2021-08-05 16:19:44</time>
      </trkpt>
      <trkpt lat="37.05128" lon="-3.37125">
        <ele>3193</ele>
        <time>2021-08-05 16:19:45</time>
      </trkpt>
      <trkpt lat="37.05128" lon="-3.37126">
        <ele>3192.8</ele>
        <time>2021-08-05 16:19:46</time>
      </trkpt>
      <trkpt lat="37.05128" lon="-3.37126">
        <ele>3192.4</ele>
        <time>2021-08-05 16:19:47</time>
      </trkpt>
      <trkpt lat="37.05128" lon="-3.37126">
        <ele>3192.4</ele>
        <time>2021-08-05 16:19:48</time>
      </trkpt>
      <trkpt lat="37.05128" lon="-3.37126">
        <ele>3192.4</ele>
        <time>2021-08-05 16:19:49</time>
      </trkpt>
      <trkpt lat="37.05127" lon="-3.37127">
        <ele>3192.4</ele>
        <time>2021-08-05 16:19:50</time>
      </trkpt>
      <trkpt lat="37.05127" lon="-3.37127">
        <ele>3192.4</ele>
        <time>2021-08-05 16:19:51</time>
      </trkpt>
      <trkpt lat="37.05127" lon="-3.37127">
        <ele>3192.4</ele>
        <time>2021-08-05 16:19:52</time>
      </trkpt>
      <trkpt lat="37.05127" lon="-3.37127">
        <ele>3192.4</ele>
        <time>2021-08-05 16:19:53</time>
      </trkpt>
      <trkpt lat="37.05127" lon="-3.37127">
        <ele>3192.4</ele>
        <time>2021-08-05 16:19:54</time>
      </trkpt>
      <trkpt lat="37.05127" lon="-3.37128">
        <ele>3192.4</ele>
        <time>2021-08-05 16:19:55</time>
      </trkpt>
      <trkpt lat="37.05127" lon="-3.37128">
        <ele>3192.4</ele>
        <time>2021-08-05 16:19:56</time>
      </trkpt>
      <trkpt lat="37.05127" lon="-3.37127">
        <ele>3192.4</ele>
        <time>2021-08-05 16:19:57</time>
      </trkpt>
      <trkpt lat="37.05128" lon="-3.37126">
        <ele>3192.4</ele>
        <time>2021-08-05 16:19:58</time>
      </trkpt>
      <trkpt lat="37.05128" lon="-3.37125">
        <ele>3192.4</ele>
        <time>2021-08-05 16:19:59</time>
      </trkpt>
      <trkpt lat="37.05129" lon="-3.37124">
        <ele>3192.4</ele>
        <time>2021-08-05 16:20:00</time>
      </trkpt>
      <trkpt lat="37.05128" lon="-3.37124">
        <ele>3192.4</ele>
        <time>2021-08-05 16:20:01</time>
      </trkpt>
      <trkpt lat="37.05128" lon="-3.37124">
        <ele>3192.4</ele>
        <time>2021-08-05 16:20:02</time>
      </trkpt>
      <trkpt lat="37.05128" lon="-3.37123">
        <ele>3192.4</ele>
        <time>2021-08-05 16:20:03</time>
      </trkpt>
      <trkpt lat="37.05128" lon="-3.37123">
        <ele>3192.4</ele>
        <time>2021-08-05 16:20:04</time>
      </trkpt>
      <trkpt lat="37.05128" lon="-3.37123">
        <ele>3192.4</ele>
        <time>2021-08-05 16:20:05</time>
      </trkpt>
      <trkpt lat="37.05127" lon="-3.37123">
        <ele>3192.4</ele>
        <time>2021-08-05 16:20:06</time>
      </trkpt>
      <trkpt lat="37.05127" lon="-3.37123">
        <ele>3192.4</ele>
        <time>2021-08-05 16:20:07</time>
      </trkpt>
      <trkpt lat="37.05127" lon="-3.37123">
        <ele>3192.4</ele>
        <time>2021-08-05 16:20:08</time>
      </trkpt>
      <trkpt lat="37.05127" lon="-3.37123">
        <ele>3192.4</ele>
        <time>2021-08-05 16:20:09</time>
      </trkpt>
      <trkpt lat="37.05127" lon="-3.37123">
        <ele>3192.4</ele>
        <time>2021-08-05 16:20:10</time>
      </trkpt>
      <trkpt lat="37.05128" lon="-3.37123">
        <ele>3192.4</ele>
        <time>2021-08-05 16:20:11</time>
      </trkpt>
      <trkpt lat="37.05127" lon="-3.37123">
        <ele>3192.4</ele>
        <time>2021-08-05 16:20:12</time>
      </trkpt>
      <trkpt lat="37.05128" lon="-3.37123">
        <ele>3192.4</ele>
        <time>2021-08-05 16:20:13</time>
      </trkpt>
      <trkpt lat="37.05128" lon="-3.37123">
        <ele>3192.4</ele>
        <time>2021-08-05 16:20:14</time>
      </trkpt>
      <trkpt lat="37.05128" lon="-3.37123">
        <ele>3192.4</ele>
        <time>2021-08-05 16:20:15</time>
      </trkpt>
      <trkpt lat="37.05128" lon="-3.37123">
        <ele>3192.4</ele>
        <time>2021-08-05 16:20:16</time>
      </trkpt>
      <trkpt lat="37.05127" lon="-3.37122">
        <ele>3192.4</ele>
        <time>2021-08-05 16:20:17</time>
      </trkpt>
      <trkpt lat="37.05127" lon="-3.37122">
        <ele>3192.4</ele>
        <time>2021-08-05 16:20:18</time>
      </trkpt>
      <trkpt lat="37.05127" lon="-3.37123">
        <ele>3192.4</ele>
        <time>2021-08-05 16:20:19</time>
      </trkpt>
      <trkpt lat="37.05127" lon="-3.37122">
        <ele>3192.4</ele>
        <time>2021-08-05 16:20:20</time>
      </trkpt>
      <trkpt lat="37.05127" lon="-3.37123">
        <ele>3192.4</ele>
        <time>2021-08-05 16:20:21</time>
      </trkpt>
      <trkpt lat="37.05127" lon="-3.37123">
        <ele>3192.4</ele>
        <time>2021-08-05 16:20:22</time>
      </trkpt>
      <trkpt lat="37.05126" lon="-3.37123">
        <ele>3192.4</ele>
        <time>2021-08-05 16:20:23</time>
      </trkpt>
      <trkpt lat="37.05126" lon="-3.37123">
        <ele>3192.4</ele>
        <time>2021-08-05 16:20:24</time>
      </trkpt>
      <trkpt lat="37.05127" lon="-3.37123">
        <ele>3192.4</ele>
        <time>2021-08-05 16:20:25</time>
      </trkpt>
      <trkpt lat="37.05127" lon="-3.37123">
        <ele>3192.4</ele>
        <time>2021-08-05 16:20:26</time>
      </trkpt>
      <trkpt lat="37.05127" lon="-3.37123">
        <ele>3192.4</ele>
        <time>2021-08-05 16:20:27</time>
      </trkpt>
      <trkpt lat="37.05127" lon="-3.37122">
        <ele>3192.4</ele>
        <time>2021-08-05 16:20:28</time>
      </trkpt>
      <trkpt lat="37.05127" lon="-3.37122">
        <ele>3192.4</ele>
        <time>2021-08-05 16:20:29</time>
      </trkpt>
      <trkpt lat="37.05127" lon="-3.37122">
        <ele>3192.4</ele>
        <time>2021-08-05 16:20:30</time>
      </trkpt>
      <trkpt lat="37.05127" lon="-3.37122">
        <ele>3192.4</ele>
        <time>2021-08-05 16:20:31</time>
      </trkpt>
      <trkpt lat="37.05127" lon="-3.37122">
        <ele>3192.4</ele>
        <time>2021-08-05 16:20:32</time>
      </trkpt>
      <trkpt lat="37.05127" lon="-3.37122">
        <ele>3192.4</ele>
        <time>2021-08-05 16:20:33</time>
      </trkpt>
      <trkpt lat="37.05127" lon="-3.37122">
        <ele>3192.4</ele>
        <time>2021-08-05 16:20:34</time>
      </trkpt>
      <trkpt lat="37.05127" lon="-3.37122">
        <ele>3192.4</ele>
        <time>2021-08-05 16:20:35</time>
      </trkpt>
      <trkpt lat="37.05127" lon="-3.37122">
        <ele>3192.4</ele>
        <time>2021-08-05 16:20:36</time>
      </trkpt>
      <trkpt lat="37.05127" lon="-3.37122">
        <ele>3192.4</ele>
        <time>2021-08-05 16:20:37</time>
      </trkpt>
      <trkpt lat="37.05127" lon="-3.37123">
        <ele>3192.4</ele>
        <time>2021-08-05 16:20:38</time>
      </trkpt>
      <trkpt lat="37.05127" lon="-3.37123">
        <ele>3192.4</ele>
        <time>2021-08-05 16:20:39</time>
      </trkpt>
      <trkpt lat="37.05127" lon="-3.37123">
        <ele>3192.4</ele>
        <time>2021-08-05 16:20:40</time>
      </trkpt>
      <trkpt lat="37.05127" lon="-3.37123">
        <ele>3192.4</ele>
        <time>2021-08-05 16:20:41</time>
      </trkpt>
      <trkpt lat="37.05127" lon="-3.37123">
        <ele>3192.4</ele>
        <time>2021-08-05 16:20:42</time>
      </trkpt>
      <trkpt lat="37.05127" lon="-3.37123">
        <ele>3192.4</ele>
        <time>2021-08-05 16:20:43</time>
      </trkpt>
      <trkpt lat="37.05127" lon="-3.37123">
        <ele>3192.4</ele>
        <time>2021-08-05 16:20:44</time>
      </trkpt>
      <trkpt lat="37.05127" lon="-3.37123">
        <ele>3192.4</ele>
        <time>2021-08-05 16:20:45</time>
      </trkpt>
      <trkpt lat="37.05127" lon="-3.37123">
        <ele>3192.4</ele>
        <time>2021-08-05 16:20:46</time>
      </trkpt>
      <trkpt lat="37.05127" lon="-3.37123">
        <ele>3192.4</ele>
        <time>2021-08-05 16:20:47</time>
      </trkpt>
      <trkpt lat="37.05127" lon="-3.37123">
        <ele>3192.4</ele>
        <time>2021-08-05 16:20:48</time>
      </trkpt>
      <trkpt lat="37.05127" lon="-3.37123">
        <ele>3192.4</ele>
        <time>2021-08-05 16:20:49</time>
      </trkpt>
      <trkpt lat="37.05127" lon="-3.37123">
        <ele>3192.4</ele>
        <time>2021-08-05 16:20:50</time>
      </trkpt>
      <trkpt lat="37.05127" lon="-3.37122">
        <ele>3192.4</ele>
        <time>2021-08-05 16:20:51</time>
      </trkpt>
      <trkpt lat="37.05127" lon="-3.37122">
        <ele>3192.4</ele>
        <time>2021-08-05 16:20:52</time>
      </trkpt>
      <trkpt lat="37.05127" lon="-3.37122">
        <ele>3192.4</ele>
        <time>2021-08-05 16:20:53</time>
      </trkpt>
      <trkpt lat="37.05127" lon="-3.37122">
        <ele>3192.4</ele>
        <time>2021-08-05 16:20:54</time>
      </trkpt>
      <trkpt lat="37.05127" lon="-3.37122">
        <ele>3192.4</ele>
        <time>2021-08-05 16:20:55</time>
      </trkpt>
      <trkpt lat="37.05127" lon="-3.37121">
        <ele>3192.4</ele>
        <time>2021-08-05 16:20:56</time>
      </trkpt>
      <trkpt lat="37.05127" lon="-3.37121">
        <ele>3192.4</ele>
        <time>2021-08-05 16:20:57</time>
      </trkpt>
      <trkpt lat="37.05127" lon="-3.37121">
        <ele>3192.4</ele>
        <time>2021-08-05 16:20:58</time>
      </trkpt>
      <trkpt lat="37.05127" lon="-3.37121">
        <ele>3192.4</ele>
        <time>2021-08-05 16:20:59</time>
      </trkpt>
      <trkpt lat="37.05127" lon="-3.37121">
        <ele>3192.4</ele>
        <time>2021-08-05 16:21:00</time>
      </trkpt>
      <trkpt lat="37.05127" lon="-3.37121">
        <ele>3192.4</ele>
        <time>2021-08-05 16:21:01</time>
      </trkpt>
      <trkpt lat="37.05127" lon="-3.37121">
        <ele>3192.4</ele>
        <time>2021-08-05 16:21:02</time>
      </trkpt>
      <trkpt lat="37.05127" lon="-3.37122">
        <ele>3192.4</ele>
        <time>2021-08-05 16:21:03</time>
      </trkpt>
      <trkpt lat="37.05127" lon="-3.37121">
        <ele>3192.4</ele>
        <time>2021-08-05 16:21:04</time>
      </trkpt>
      <trkpt lat="37.05128" lon="-3.37121">
        <ele>3192.4</ele>
        <time>2021-08-05 16:21:05</time>
      </trkpt>
      <trkpt lat="37.05128" lon="-3.37121">
        <ele>3192.4</ele>
        <time>2021-08-05 16:21:06</time>
      </trkpt>
      <trkpt lat="37.05128" lon="-3.37121">
        <ele>3192.4</ele>
        <time>2021-08-05 16:21:07</time>
      </trkpt>
      <trkpt lat="37.05128" lon="-3.37121">
        <ele>3192.4</ele>
        <time>2021-08-05 16:21:08</time>
      </trkpt>
      <trkpt lat="37.05128" lon="-3.37122">
        <ele>3192.4</ele>
        <time>2021-08-05 16:21:09</time>
      </trkpt>
      <trkpt lat="37.05128" lon="-3.37122">
        <ele>3192.4</ele>
        <time>2021-08-05 16:21:10</time>
      </trkpt>
      <trkpt lat="37.05128" lon="-3.37122">
        <ele>3192.4</ele>
        <time>2021-08-05 16:21:11</time>
      </trkpt>
      <trkpt lat="37.05127" lon="-3.37122">
        <ele>3192.4</ele>
        <time>2021-08-05 16:21:12</time>
      </trkpt>
      <trkpt lat="37.05127" lon="-3.37122">
        <ele>3192.4</ele>
        <time>2021-08-05 16:21:13</time>
      </trkpt>
      <trkpt lat="37.05127" lon="-3.37122">
        <ele>3192.4</ele>
        <time>2021-08-05 16:21:14</time>
      </trkpt>
      <trkpt lat="37.05127" lon="-3.37122">
        <ele>3192.4</ele>
        <time>2021-08-05 16:21:15</time>
      </trkpt>
      <trkpt lat="37.05127" lon="-3.37122">
        <ele>3192.4</ele>
        <time>2021-08-05 16:21:16</time>
      </trkpt>
      <trkpt lat="37.05127" lon="-3.37122">
        <ele>3192.4</ele>
        <time>2021-08-05 16:21:17</time>
      </trkpt>
      <trkpt lat="37.05127" lon="-3.37122">
        <ele>3192.4</ele>
        <time>2021-08-05 16:21:18</time>
      </trkpt>
      <trkpt lat="37.05127" lon="-3.37122">
        <ele>3192.4</ele>
        <time>2021-08-05 16:21:19</time>
      </trkpt>
      <trkpt lat="37.05128" lon="-3.37123">
        <ele>3192.4</ele>
        <time>2021-08-05 16:21:20</time>
      </trkpt>
      <trkpt lat="37.05127" lon="-3.37123">
        <ele>3192.4</ele>
        <time>2021-08-05 16:21:21</time>
      </trkpt>
      <trkpt lat="37.05127" lon="-3.37123">
        <ele>3192.4</ele>
        <time>2021-08-05 16:21:22</time>
      </trkpt>
      <trkpt lat="37.05127" lon="-3.37123">
        <ele>3192.4</ele>
        <time>2021-08-05 16:21:23</time>
      </trkpt>
      <trkpt lat="37.05127" lon="-3.37123">
        <ele>3192.4</ele>
        <time>2021-08-05 16:21:24</time>
      </trkpt>
      <trkpt lat="37.05127" lon="-3.37124">
        <ele>3192.4</ele>
        <time>2021-08-05 16:21:25</time>
      </trkpt>
      <trkpt lat="37.05127" lon="-3.37124">
        <ele>3192.4</ele>
        <time>2021-08-05 16:21:26</time>
      </trkpt>
      <trkpt lat="37.05128" lon="-3.37124">
        <ele>3192.4</ele>
        <time>2021-08-05 16:21:27</time>
      </trkpt>
      <trkpt lat="37.05128" lon="-3.37125">
        <ele>3192.4</ele>
        <time>2021-08-05 16:21:28</time>
      </trkpt>
      <trkpt lat="37.05128" lon="-3.37125">
        <ele>3192.4</ele>
        <time>2021-08-05 16:21:29</time>
      </trkpt>
      <trkpt lat="37.05128" lon="-3.37125">
        <ele>3192.4</ele>
        <time>2021-08-05 16:21:30</time>
      </trkpt>
      <trkpt lat="37.05128" lon="-3.37125">
        <ele>3192.4</ele>
        <time>2021-08-05 16:21:31</time>
      </trkpt>
      <trkpt lat="37.05127" lon="-3.37126">
        <ele>3192.4</ele>
        <time>2021-08-05 16:21:32</time>
      </trkpt>
      <trkpt lat="37.05127" lon="-3.37126">
        <ele>3192.4</ele>
        <time>2021-08-05 16:21:33</time>
      </trkpt>
      <trkpt lat="37.05127" lon="-3.37127">
        <ele>3192.4</ele>
        <time>2021-08-05 16:21:34</time>
      </trkpt>
      <trkpt lat="37.05127" lon="-3.37127">
        <ele>3192.4</ele>
        <time>2021-08-05 16:21:35</time>
      </trkpt>
      <trkpt lat="37.05127" lon="-3.37127">
        <ele>3192.4</ele>
        <time>2021-08-05 16:21:36</time>
      </trkpt>
      <trkpt lat="37.05126" lon="-3.37127">
        <ele>3192.4</ele>
        <time>2021-08-05 16:21:37</time>
      </trkpt>
      <trkpt lat="37.05126" lon="-3.37127">
        <ele>3192.4</ele>
        <time>2021-08-05 16:21:38</time>
      </trkpt>
      <trkpt lat="37.05126" lon="-3.37126">
        <ele>3192.4</ele>
        <time>2021-08-05 16:21:39</time>
      </trkpt>
      <trkpt lat="37.05126" lon="-3.37126">
        <ele>3192.4</ele>
        <time>2021-08-05 16:21:40</time>
      </trkpt>
      <trkpt lat="37.05125" lon="-3.37126">
        <ele>3192.4</ele>
        <time>2021-08-05 16:21:41</time>
      </trkpt>
      <trkpt lat="37.05125" lon="-3.37126">
        <ele>3192.4</ele>
        <time>2021-08-05 16:21:42</time>
      </trkpt>
      <trkpt lat="37.05125" lon="-3.37126">
        <ele>3192.4</ele>
        <time>2021-08-05 16:21:43</time>
      </trkpt>
      <trkpt lat="37.05126" lon="-3.37125">
        <ele>3192.4</ele>
        <time>2021-08-05 16:21:44</time>
      </trkpt>
      <trkpt lat="37.05126" lon="-3.37126">
        <ele>3192.4</ele>
        <time>2021-08-05 16:21:45</time>
      </trkpt>
      <trkpt lat="37.05126" lon="-3.37126">
        <ele>3192.4</ele>
        <time>2021-08-05 16:21:46</time>
      </trkpt>
      <trkpt lat="37.05126" lon="-3.37126">
        <ele>3192.4</ele>
        <time>2021-08-05 16:21:47</time>
      </trkpt>
      <trkpt lat="37.05126" lon="-3.37126">
        <ele>3192.4</ele>
        <time>2021-08-05 16:21:48</time>
      </trkpt>
      <trkpt lat="37.05126" lon="-3.37126">
        <ele>3192.4</ele>
        <time>2021-08-05 16:21:49</time>
      </trkpt>
      <trkpt lat="37.05127" lon="-3.37124">
        <ele>3192.4</ele>
        <time>2021-08-05 16:21:50</time>
      </trkpt>
      <trkpt lat="37.05127" lon="-3.37124">
        <ele>3192.4</ele>
        <time>2021-08-05 16:21:51</time>
      </trkpt>
      <trkpt lat="37.05127" lon="-3.37124">
        <ele>3192.4</ele>
        <time>2021-08-05 16:21:52</time>
      </trkpt>
      <trkpt lat="37.05126" lon="-3.37124">
        <ele>3192.4</ele>
        <time>2021-08-05 16:21:53</time>
      </trkpt>
      <trkpt lat="37.05126" lon="-3.37125">
        <ele>3192.4</ele>
        <time>2021-08-05 16:21:54</time>
      </trkpt>
      <trkpt lat="37.05125" lon="-3.37126">
        <ele>3192.4</ele>
        <time>2021-08-05 16:21:55</time>
      </trkpt>
      <trkpt lat="37.05125" lon="-3.37126">
        <ele>3192.4</ele>
        <time>2021-08-05 16:21:56</time>
      </trkpt>
      <trkpt lat="37.05125" lon="-3.37126">
        <ele>3192.4</ele>
        <time>2021-08-05 16:21:57</time>
      </trkpt>
      <trkpt lat="37.05125" lon="-3.37125">
        <ele>3192.4</ele>
        <time>2021-08-05 16:21:58</time>
      </trkpt>
      <trkpt lat="37.05126" lon="-3.37125">
        <ele>3192.4</ele>
        <time>2021-08-05 16:21:59</time>
      </trkpt>
      <trkpt lat="37.05128" lon="-3.37127">
        <ele>3192.4</ele>
        <time>2021-08-05 16:22:00</time>
      </trkpt>
      <trkpt lat="37.05128" lon="-3.37126">
        <ele>3192.4</ele>
        <time>2021-08-05 16:22:01</time>
      </trkpt>
      <trkpt lat="37.05128" lon="-3.37126">
        <ele>3192.4</ele>
        <time>2021-08-05 16:22:02</time>
      </trkpt>
      <trkpt lat="37.05128" lon="-3.37126">
        <ele>3192.4</ele>
        <time>2021-08-05 16:22:03</time>
      </trkpt>
      <trkpt lat="37.05128" lon="-3.37126">
        <ele>3192.4</ele>
        <time>2021-08-05 16:22:04</time>
      </trkpt>
      <trkpt lat="37.05129" lon="-3.37126">
        <ele>3192.4</ele>
        <time>2021-08-05 16:22:05</time>
      </trkpt>
      <trkpt lat="37.05129" lon="-3.37126">
        <ele>3192.4</ele>
        <time>2021-08-05 16:22:06</time>
      </trkpt>
      <trkpt lat="37.05129" lon="-3.37126">
        <ele>3192.4</ele>
        <time>2021-08-05 16:22:07</time>
      </trkpt>
      <trkpt lat="37.05129" lon="-3.37126">
        <ele>3192.4</ele>
        <time>2021-08-05 16:22:08</time>
      </trkpt>
      <trkpt lat="37.05129" lon="-3.37126">
        <ele>3192.4</ele>
        <time>2021-08-05 16:22:09</time>
      </trkpt>
      <trkpt lat="37.05129" lon="-3.37126">
        <ele>3192.4</ele>
        <time>2021-08-05 16:22:10</time>
      </trkpt>
      <trkpt lat="37.05129" lon="-3.37126">
        <ele>3192.4</ele>
        <time>2021-08-05 16:22:11</time>
      </trkpt>
      <trkpt lat="37.05129" lon="-3.37126">
        <ele>3192.4</ele>
        <time>2021-08-05 16:22:12</time>
      </trkpt>
      <trkpt lat="37.05129" lon="-3.37126">
        <ele>3192.4</ele>
        <time>2021-08-05 16:22:13</time>
      </trkpt>
      <trkpt lat="37.05129" lon="-3.37126">
        <ele>3192.4</ele>
        <time>2021-08-05 16:22:14</time>
      </trkpt>
      <trkpt lat="37.05129" lon="-3.37126">
        <ele>3192.4</ele>
        <time>2021-08-05 16:22:15</time>
      </trkpt>
      <trkpt lat="37.05128" lon="-3.37126">
        <ele>3192.4</ele>
        <time>2021-08-05 16:22:16</time>
      </trkpt>
      <trkpt lat="37.05128" lon="-3.37126">
        <ele>3192.4</ele>
        <time>2021-08-05 16:22:17</time>
      </trkpt>
      <trkpt lat="37.05128" lon="-3.37126">
        <ele>3192.4</ele>
        <time>2021-08-05 16:22:18</time>
      </trkpt>
      <trkpt lat="37.05127" lon="-3.37125">
        <ele>3192.4</ele>
        <time>2021-08-05 16:22:19</time>
      </trkpt>
      <trkpt lat="37.05127" lon="-3.37125">
        <ele>3192.4</ele>
        <time>2021-08-05 16:22:20</time>
      </trkpt>
      <trkpt lat="37.05127" lon="-3.37125">
        <ele>3192.4</ele>
        <time>2021-08-05 16:22:21</time>
      </trkpt>
      <trkpt lat="37.05127" lon="-3.37125">
        <ele>3192.4</ele>
        <time>2021-08-05 16:22:22</time>
      </trkpt>
      <trkpt lat="37.05127" lon="-3.37124">
        <ele>3192.4</ele>
        <time>2021-08-05 16:22:23</time>
      </trkpt>
      <trkpt lat="37.05127" lon="-3.37124">
        <ele>3192.4</ele>
        <time>2021-08-05 16:22:24</time>
      </trkpt>
      <trkpt lat="37.05127" lon="-3.37124">
        <ele>3192.4</ele>
        <time>2021-08-05 16:22:25</time>
      </trkpt>
      <trkpt lat="37.05127" lon="-3.37124">
        <ele>3192.4</ele>
        <time>2021-08-05 16:22:26</time>
      </trkpt>
      <trkpt lat="37.05127" lon="-3.37123">
        <ele>3192.4</ele>
        <time>2021-08-05 16:22:27</time>
      </trkpt>
      <trkpt lat="37.05127" lon="-3.37123">
        <ele>3192.4</ele>
        <time>2021-08-05 16:22:28</time>
      </trkpt>
      <trkpt lat="37.05127" lon="-3.37123">
        <ele>3192.4</ele>
        <time>2021-08-05 16:22:29</time>
      </trkpt>
      <trkpt lat="37.05127" lon="-3.37123">
        <ele>3192.4</ele>
        <time>2021-08-05 16:22:30</time>
      </trkpt>
      <trkpt lat="37.05127" lon="-3.37123">
        <ele>3192.4</ele>
        <time>2021-08-05 16:22:31</time>
      </trkpt>
      <trkpt lat="37.05127" lon="-3.37123">
        <ele>3192.4</ele>
        <time>2021-08-05 16:22:32</time>
      </trkpt>
      <trkpt lat="37.05127" lon="-3.37123">
        <ele>3192.4</ele>
        <time>2021-08-05 16:22:33</time>
      </trkpt>
      <trkpt lat="37.05127" lon="-3.37124">
        <ele>3192.4</ele>
        <time>2021-08-05 16:22:34</time>
      </trkpt>
      <trkpt lat="37.05127" lon="-3.37124">
        <ele>3192.4</ele>
        <time>2021-08-05 16:22:35</time>
      </trkpt>
      <trkpt lat="37.05127" lon="-3.37124">
        <ele>3192.4</ele>
        <time>2021-08-05 16:22:36</time>
      </trkpt>
      <trkpt lat="37.05127" lon="-3.37124">
        <ele>3192.4</ele>
        <time>2021-08-05 16:22:37</time>
      </trkpt>
      <trkpt lat="37.05127" lon="-3.37124">
        <ele>3192.4</ele>
        <time>2021-08-05 16:22:38</time>
      </trkpt>
      <trkpt lat="37.05127" lon="-3.37124">
        <ele>3192.4</ele>
        <time>2021-08-05 16:22:39</time>
      </trkpt>
      <trkpt lat="37.05127" lon="-3.37124">
        <ele>3192.4</ele>
        <time>2021-08-05 16:22:40</time>
      </trkpt>
      <trkpt lat="37.05127" lon="-3.37123">
        <ele>3192.4</ele>
        <time>2021-08-05 16:22:41</time>
      </trkpt>
      <trkpt lat="37.05127" lon="-3.37123">
        <ele>3192.4</ele>
        <time>2021-08-05 16:22:42</time>
      </trkpt>
      <trkpt lat="37.05126" lon="-3.37123">
        <ele>3192.4</ele>
        <time>2021-08-05 16:22:43</time>
      </trkpt>
      <trkpt lat="37.05126" lon="-3.37124">
        <ele>3192.4</ele>
        <time>2021-08-05 16:22:44</time>
      </trkpt>
      <trkpt lat="37.05126" lon="-3.37124">
        <ele>3192.4</ele>
        <time>2021-08-05 16:22:45</time>
      </trkpt>
      <trkpt lat="37.05126" lon="-3.37124">
        <ele>3192.4</ele>
        <time>2021-08-05 16:22:46</time>
      </trkpt>
      <trkpt lat="37.05126" lon="-3.37124">
        <ele>3192.4</ele>
        <time>2021-08-05 16:22:47</time>
      </trkpt>
      <trkpt lat="37.05126" lon="-3.37124">
        <ele>3192.4</ele>
        <time>2021-08-05 16:22:48</time>
      </trkpt>
      <trkpt lat="37.05126" lon="-3.37124">
        <ele>3192.4</ele>
        <time>2021-08-05 16:22:49</time>
      </trkpt>
      <trkpt lat="37.05126" lon="-3.37124">
        <ele>3192.4</ele>
        <time>2021-08-05 16:22:50</time>
      </trkpt>
      <trkpt lat="37.05126" lon="-3.37124">
        <ele>3192.4</ele>
        <time>2021-08-05 16:22:51</time>
      </trkpt>
      <trkpt lat="37.05125" lon="-3.37124">
        <ele>3192.4</ele>
        <time>2021-08-05 16:22:52</time>
      </trkpt>
      <trkpt lat="37.05124" lon="-3.37123">
        <ele>3192.4</ele>
        <time>2021-08-05 16:22:53</time>
      </trkpt>
      <trkpt lat="37.05124" lon="-3.37122">
        <ele>3192.4</ele>
        <time>2021-08-05 16:22:54</time>
      </trkpt>
      <trkpt lat="37.05123" lon="-3.37121">
        <ele>3192.4</ele>
        <time>2021-08-05 16:22:55</time>
      </trkpt>
      <trkpt lat="37.05122" lon="-3.3712">
        <ele>3192.4</ele>
        <time>2021-08-05 16:22:56</time>
      </trkpt>
      <trkpt lat="37.05121" lon="-3.37119">
        <ele>3192.4</ele>
        <time>2021-08-05 16:22:57</time>
      </trkpt>
      <trkpt lat="37.0512" lon="-3.37118">
        <ele>3192.4</ele>
        <time>2021-08-05 16:22:58</time>
      </trkpt>
      <trkpt lat="37.05119" lon="-3.37117">
        <ele>3192.4</ele>
        <time>2021-08-05 16:22:59</time>
      </trkpt>
      <trkpt lat="37.05118" lon="-3.37116">
        <ele>3192.4</ele>
        <time>2021-08-05 16:23:00</time>
      </trkpt>
      <trkpt lat="37.05117" lon="-3.37115">
        <ele>3192.4</ele>
        <time>2021-08-05 16:23:01</time>
      </trkpt>
      <trkpt lat="37.05115" lon="-3.37116">
        <ele>3192.4</ele>
        <time>2021-08-05 16:23:02</time>
      </trkpt>
      <trkpt lat="37.05115" lon="-3.37115">
        <ele>3192.8</ele>
        <time>2021-08-05 16:23:03</time>
      </trkpt>
      <trkpt lat="37.05115" lon="-3.37114">
        <ele>3193.2</ele>
        <time>2021-08-05 16:23:04</time>
      </trkpt>
      <trkpt lat="37.05114" lon="-3.37114">
        <ele>3193.6</ele>
        <time>2021-08-05 16:23:05</time>
      </trkpt>
      <trkpt lat="37.05114" lon="-3.37114">
        <ele>3193.8</ele>
        <time>2021-08-05 16:23:06</time>
      </trkpt>
      <trkpt lat="37.05113" lon="-3.37112">
        <ele>3194</ele>
        <time>2021-08-05 16:23:07</time>
      </trkpt>
      <trkpt lat="37.05113" lon="-3.37112">
        <ele>3194</ele>
        <time>2021-08-05 16:23:08</time>
      </trkpt>
      <trkpt lat="37.05113" lon="-3.37111">
        <ele>3194</ele>
        <time>2021-08-05 16:23:09</time>
      </trkpt>
      <trkpt lat="37.05113" lon="-3.37111">
        <ele>3194</ele>
        <time>2021-08-05 16:23:10</time>
      </trkpt>
      <trkpt lat="37.05112" lon="-3.3711">
        <ele>3194.2</ele>
        <time>2021-08-05 16:23:11</time>
      </trkpt>
      <trkpt lat="37.05112" lon="-3.37109">
        <ele>3194.4</ele>
        <time>2021-08-05 16:23:12</time>
      </trkpt>
      <trkpt lat="37.05111" lon="-3.37108">
        <ele>3194.4</ele>
        <time>2021-08-05 16:23:13</time>
      </trkpt>
      <trkpt lat="37.05111" lon="-3.37108">
        <ele>3194.4</ele>
        <time>2021-08-05 16:23:14</time>
      </trkpt>
      <trkpt lat="37.05111" lon="-3.37107">
        <ele>3194.4</ele>
        <time>2021-08-05 16:23:15</time>
      </trkpt>
      <trkpt lat="37.0511" lon="-3.37106">
        <ele>3194.6</ele>
        <time>2021-08-05 16:23:16</time>
      </trkpt>
      <trkpt lat="37.0511" lon="-3.37106">
        <ele>3194.6</ele>
        <time>2021-08-05 16:23:17</time>
      </trkpt>
      <trkpt lat="37.0511" lon="-3.37105">
        <ele>3194.6</ele>
        <time>2021-08-05 16:23:18</time>
      </trkpt>
      <trkpt lat="37.0511" lon="-3.37104">
        <ele>3194.8</ele>
        <time>2021-08-05 16:23:19</time>
      </trkpt>
      <trkpt lat="37.05109" lon="-3.37103">
        <ele>3194.8</ele>
        <time>2021-08-05 16:23:20</time>
      </trkpt>
      <trkpt lat="37.05109" lon="-3.37103">
        <ele>3195</ele>
        <time>2021-08-05 16:23:21</time>
      </trkpt>
      <trkpt lat="37.05109" lon="-3.37102">
        <ele>3195</ele>
        <time>2021-08-05 16:23:22</time>
      </trkpt>
      <trkpt lat="37.05108" lon="-3.37101">
        <ele>3195</ele>
        <time>2021-08-05 16:23:23</time>
      </trkpt>
      <trkpt lat="37.05108" lon="-3.371">
        <ele>3195.2</ele>
        <time>2021-08-05 16:23:24</time>
      </trkpt>
      <trkpt lat="37.05108" lon="-3.37099">
        <ele>3195.2</ele>
        <time>2021-08-05 16:23:25</time>
      </trkpt>
      <trkpt lat="37.05107" lon="-3.37099">
        <ele>3195.2</ele>
        <time>2021-08-05 16:23:26</time>
      </trkpt>
      <trkpt lat="37.05107" lon="-3.37098">
        <ele>3195.4</ele>
        <time>2021-08-05 16:23:27</time>
      </trkpt>
      <trkpt lat="37.05106" lon="-3.37097">
        <ele>3195.4</ele>
        <time>2021-08-05 16:23:28</time>
      </trkpt>
      <trkpt lat="37.05106" lon="-3.37097">
        <ele>3195.4</ele>
        <time>2021-08-05 16:23:29</time>
      </trkpt>
      <trkpt lat="37.05105" lon="-3.37096">
        <ele>3195.4</ele>
        <time>2021-08-05 16:23:30</time>
      </trkpt>
      <trkpt lat="37.05105" lon="-3.37095">
        <ele>3195.4</ele>
        <time>2021-08-05 16:23:31</time>
      </trkpt>
      <trkpt lat="37.05104" lon="-3.37094">
        <ele>3195.4</ele>
        <time>2021-08-05 16:23:32</time>
      </trkpt>
      <trkpt lat="37.05104" lon="-3.37094">
        <ele>3195.6</ele>
        <time>2021-08-05 16:23:33</time>
      </trkpt>
      <trkpt lat="37.05103" lon="-3.37094">
        <ele>3195.6</ele>
        <time>2021-08-05 16:23:34</time>
      </trkpt>
      <trkpt lat="37.05103" lon="-3.37093">
        <ele>3195.6</ele>
        <time>2021-08-05 16:23:35</time>
      </trkpt>
      <trkpt lat="37.05103" lon="-3.37093">
        <ele>3195.6</ele>
        <time>2021-08-05 16:23:36</time>
      </trkpt>
      <trkpt lat="37.05103" lon="-3.37092">
        <ele>3195.6</ele>
        <time>2021-08-05 16:23:37</time>
      </trkpt>
      <trkpt lat="37.05103" lon="-3.37091">
        <ele>3195.8</ele>
        <time>2021-08-05 16:23:38</time>
      </trkpt>
      <trkpt lat="37.05103" lon="-3.3709">
        <ele>3196.2</ele>
        <time>2021-08-05 16:23:39</time>
      </trkpt>
      <trkpt lat="37.05102" lon="-3.37089">
        <ele>3196.4</ele>
        <time>2021-08-05 16:23:40</time>
      </trkpt>
      <trkpt lat="37.05102" lon="-3.37089">
        <ele>3196.4</ele>
        <time>2021-08-05 16:23:41</time>
      </trkpt>
      <trkpt lat="37.05102" lon="-3.37088">
        <ele>3196.4</ele>
        <time>2021-08-05 16:23:42</time>
      </trkpt>
      <trkpt lat="37.05102" lon="-3.37088">
        <ele>3196.4</ele>
        <time>2021-08-05 16:23:43</time>
      </trkpt>
      <trkpt lat="37.05102" lon="-3.37088">
        <ele>3196.4</ele>
        <time>2021-08-05 16:23:44</time>
      </trkpt>
      <trkpt lat="37.05102" lon="-3.37088">
        <ele>3196.4</ele>
        <time>2021-08-05 16:23:45</time>
      </trkpt>
      <trkpt lat="37.05102" lon="-3.37087">
        <ele>3196.6</ele>
        <time>2021-08-05 16:23:46</time>
      </trkpt>
      <trkpt lat="37.05101" lon="-3.37087">
        <ele>3196.4</ele>
        <time>2021-08-05 16:23:47</time>
      </trkpt>
      <trkpt lat="37.05101" lon="-3.37086">
        <ele>3196.4</ele>
        <time>2021-08-05 16:23:48</time>
      </trkpt>
      <trkpt lat="37.051" lon="-3.37086">
        <ele>3196.4</ele>
        <time>2021-08-05 16:23:49</time>
      </trkpt>
      <trkpt lat="37.05101" lon="-3.37085">
        <ele>3196.4</ele>
        <time>2021-08-05 16:23:50</time>
      </trkpt>
      <trkpt lat="37.05101" lon="-3.37084">
        <ele>3196.4</ele>
        <time>2021-08-05 16:23:51</time>
      </trkpt>
      <trkpt lat="37.05101" lon="-3.37084">
        <ele>3196.4</ele>
        <time>2021-08-05 16:23:52</time>
      </trkpt>
      <trkpt lat="37.05101" lon="-3.37083">
        <ele>3196.6</ele>
        <time>2021-08-05 16:23:53</time>
      </trkpt>
      <trkpt lat="37.05101" lon="-3.37083">
        <ele>3196.6</ele>
        <time>2021-08-05 16:23:54</time>
      </trkpt>
      <trkpt lat="37.05101" lon="-3.37082">
        <ele>3196.6</ele>
        <time>2021-08-05 16:23:55</time>
      </trkpt>
      <trkpt lat="37.05102" lon="-3.37082">
        <ele>3196.8</ele>
        <time>2021-08-05 16:23:56</time>
      </trkpt>
      <trkpt lat="37.05102" lon="-3.37081">
        <ele>3196.8</ele>
        <time>2021-08-05 16:23:57</time>
      </trkpt>
      <trkpt lat="37.05102" lon="-3.37081">
        <ele>3196.8</ele>
        <time>2021-08-05 16:23:58</time>
      </trkpt>
      <trkpt lat="37.05102" lon="-3.3708">
        <ele>3196.6</ele>
        <time>2021-08-05 16:23:59</time>
      </trkpt>
      <trkpt lat="37.05102" lon="-3.3708">
        <ele>3196.6</ele>
        <time>2021-08-05 16:24:00</time>
      </trkpt>
      <trkpt lat="37.05103" lon="-3.37079">
        <ele>3196.6</ele>
        <time>2021-08-05 16:24:01</time>
      </trkpt>
      <trkpt lat="37.05103" lon="-3.37078">
        <ele>3196.8</ele>
        <time>2021-08-05 16:24:02</time>
      </trkpt>
      <trkpt lat="37.05103" lon="-3.37078">
        <ele>3196.8</ele>
        <time>2021-08-05 16:24:03</time>
      </trkpt>
      <trkpt lat="37.05103" lon="-3.37077">
        <ele>3196.8</ele>
        <time>2021-08-05 16:24:04</time>
      </trkpt>
      <trkpt lat="37.05103" lon="-3.37078">
        <ele>3196.8</ele>
        <time>2021-08-05 16:24:05</time>
      </trkpt>
      <trkpt lat="37.05103" lon="-3.37077">
        <ele>3197</ele>
        <time>2021-08-05 16:24:06</time>
      </trkpt>
      <trkpt lat="37.05104" lon="-3.37077">
        <ele>3197.2</ele>
        <time>2021-08-05 16:24:07</time>
      </trkpt>
      <trkpt lat="37.05104" lon="-3.37076">
        <ele>3197.2</ele>
        <time>2021-08-05 16:24:08</time>
      </trkpt>
      <trkpt lat="37.05104" lon="-3.37075">
        <ele>3197.2</ele>
        <time>2021-08-05 16:24:09</time>
      </trkpt>
      <trkpt lat="37.05104" lon="-3.37074">
        <ele>3197.4</ele>
        <time>2021-08-05 16:24:10</time>
      </trkpt>
      <trkpt lat="37.05104" lon="-3.37073">
        <ele>3197.6</ele>
        <time>2021-08-05 16:24:11</time>
      </trkpt>
      <trkpt lat="37.05105" lon="-3.37072">
        <ele>3197.8</ele>
        <time>2021-08-05 16:24:12</time>
      </trkpt>
      <trkpt lat="37.05105" lon="-3.37071">
        <ele>3198</ele>
        <time>2021-08-05 16:24:13</time>
      </trkpt>
      <trkpt lat="37.05105" lon="-3.3707">
        <ele>3198</ele>
        <time>2021-08-05 16:24:14</time>
      </trkpt>
      <trkpt lat="37.05105" lon="-3.3707">
        <ele>3198.2</ele>
        <time>2021-08-05 16:24:15</time>
      </trkpt>
      <trkpt lat="37.05106" lon="-3.3707">
        <ele>3198.2</ele>
        <time>2021-08-05 16:24:16</time>
      </trkpt>
      <trkpt lat="37.05106" lon="-3.3707">
        <ele>3198.4</ele>
        <time>2021-08-05 16:24:17</time>
      </trkpt>
      <trkpt lat="37.05105" lon="-3.3707">
        <ele>3198.6</ele>
        <time>2021-08-05 16:24:18</time>
      </trkpt>
      <trkpt lat="37.05105" lon="-3.3707">
        <ele>3198.6</ele>
        <time>2021-08-05 16:24:19</time>
      </trkpt>
      <trkpt lat="37.05105" lon="-3.3707">
        <ele>3198.8</ele>
        <time>2021-08-05 16:24:20</time>
      </trkpt>
      <trkpt lat="37.05105" lon="-3.3707">
        <ele>3198.8</ele>
        <time>2021-08-05 16:24:21</time>
      </trkpt>
      <trkpt lat="37.05105" lon="-3.37069">
        <ele>3198.8</ele>
        <time>2021-08-05 16:24:22</time>
      </trkpt>
      <trkpt lat="37.05103" lon="-3.37068">
        <ele>3198.8</ele>
        <time>2021-08-05 16:24:23</time>
      </trkpt>
      <trkpt lat="37.05103" lon="-3.37068">
        <ele>3198.8</ele>
        <time>2021-08-05 16:24:24</time>
      </trkpt>
      <trkpt lat="37.05104" lon="-3.37067">
        <ele>3198.8</ele>
        <time>2021-08-05 16:24:25</time>
      </trkpt>
      <trkpt lat="37.05104" lon="-3.37067">
        <ele>3198.8</ele>
        <time>2021-08-05 16:24:26</time>
      </trkpt>
      <trkpt lat="37.05104" lon="-3.37067">
        <ele>3198.8</ele>
        <time>2021-08-05 16:24:27</time>
      </trkpt>
      <trkpt lat="37.05104" lon="-3.37068">
        <ele>3198.8</ele>
        <time>2021-08-05 16:24:28</time>
      </trkpt>
      <trkpt lat="37.05104" lon="-3.37068">
        <ele>3199</ele>
        <time>2021-08-05 16:24:29</time>
      </trkpt>
      <trkpt lat="37.05106" lon="-3.37068">
        <ele>3199</ele>
        <time>2021-08-05 16:24:30</time>
      </trkpt>
      <trkpt lat="37.05106" lon="-3.37068">
        <ele>3199</ele>
        <time>2021-08-05 16:24:31</time>
      </trkpt>
      <trkpt lat="37.05107" lon="-3.37068">
        <ele>3199.2</ele>
        <time>2021-08-05 16:24:32</time>
      </trkpt>
      <trkpt lat="37.05108" lon="-3.37068">
        <ele>3199.2</ele>
        <time>2021-08-05 16:24:33</time>
      </trkpt>
      <trkpt lat="37.05108" lon="-3.37067">
        <ele>3199.2</ele>
        <time>2021-08-05 16:24:34</time>
      </trkpt>
      <trkpt lat="37.05109" lon="-3.37068">
        <ele>3199.2</ele>
        <time>2021-08-05 16:24:35</time>
      </trkpt>
      <trkpt lat="37.05111" lon="-3.37068">
        <ele>3199.2</ele>
        <time>2021-08-05 16:24:36</time>
      </trkpt>
      <trkpt lat="37.05113" lon="-3.37069">
        <ele>3199.2</ele>
        <time>2021-08-05 16:24:37</time>
      </trkpt>
      <trkpt lat="37.05113" lon="-3.3707">
        <ele>3199</ele>
        <time>2021-08-05 16:24:38</time>
      </trkpt>
      <trkpt lat="37.05114" lon="-3.37071">
        <ele>3199</ele>
        <time>2021-08-05 16:24:39</time>
      </trkpt>
      <trkpt lat="37.05115" lon="-3.37072">
        <ele>3198.8</ele>
        <time>2021-08-05 16:24:40</time>
      </trkpt>
      <trkpt lat="37.05116" lon="-3.37072">
        <ele>3199</ele>
        <time>2021-08-05 16:24:41</time>
      </trkpt>
      <trkpt lat="37.05116" lon="-3.37074">
        <ele>3199.2</ele>
        <time>2021-08-05 16:24:42</time>
      </trkpt>
      <trkpt lat="37.05117" lon="-3.37074">
        <ele>3199.4</ele>
        <time>2021-08-05 16:24:43</time>
      </trkpt>
      <trkpt lat="37.05117" lon="-3.37075">
        <ele>3199.6</ele>
        <time>2021-08-05 16:24:44</time>
      </trkpt>
      <trkpt lat="37.05118" lon="-3.37075">
        <ele>3199.8</ele>
        <time>2021-08-05 16:24:45</time>
      </trkpt>
      <trkpt lat="37.05119" lon="-3.37075">
        <ele>3200</ele>
        <time>2021-08-05 16:24:46</time>
      </trkpt>
      <trkpt lat="37.05119" lon="-3.37075">
        <ele>3200</ele>
        <time>2021-08-05 16:24:47</time>
      </trkpt>
      <trkpt lat="37.05119" lon="-3.37076">
        <ele>3200</ele>
        <time>2021-08-05 16:24:48</time>
      </trkpt>
      <trkpt lat="37.0512" lon="-3.37077">
        <ele>3200.2</ele>
        <time>2021-08-05 16:24:49</time>
      </trkpt>
      <trkpt lat="37.05121" lon="-3.37077">
        <ele>3200.2</ele>
        <time>2021-08-05 16:24:50</time>
      </trkpt>
      <trkpt lat="37.05121" lon="-3.37077">
        <ele>3200.4</ele>
        <time>2021-08-05 16:24:51</time>
      </trkpt>
      <trkpt lat="37.05122" lon="-3.37078">
        <ele>3200.4</ele>
        <time>2021-08-05 16:24:52</time>
      </trkpt>
      <trkpt lat="37.05122" lon="-3.37078">
        <ele>3200.4</ele>
        <time>2021-08-05 16:24:53</time>
      </trkpt>
      <trkpt lat="37.05122" lon="-3.37077">
        <ele>3200.4</ele>
        <time>2021-08-05 16:24:54</time>
      </trkpt>
      <trkpt lat="37.05122" lon="-3.37078">
        <ele>3200.4</ele>
        <time>2021-08-05 16:24:55</time>
      </trkpt>
      <trkpt lat="37.05122" lon="-3.37078">
        <ele>3200.4</ele>
        <time>2021-08-05 16:24:56</time>
      </trkpt>
      <trkpt lat="37.05123" lon="-3.37079">
        <ele>3200.4</ele>
        <time>2021-08-05 16:24:57</time>
      </trkpt>
      <trkpt lat="37.05123" lon="-3.37079">
        <ele>3200.4</ele>
        <time>2021-08-05 16:24:58</time>
      </trkpt>
      <trkpt lat="37.05124" lon="-3.3708">
        <ele>3200.4</ele>
        <time>2021-08-05 16:24:59</time>
      </trkpt>
      <trkpt lat="37.05125" lon="-3.37081">
        <ele>3200.6</ele>
        <time>2021-08-05 16:25:00</time>
      </trkpt>
      <trkpt lat="37.05126" lon="-3.37082">
        <ele>3200.6</ele>
        <time>2021-08-05 16:25:01</time>
      </trkpt>
      <trkpt lat="37.05127" lon="-3.37082">
        <ele>3200.8</ele>
        <time>2021-08-05 16:25:02</time>
      </trkpt>
      <trkpt lat="37.05127" lon="-3.37083">
        <ele>3200.8</ele>
        <time>2021-08-05 16:25:03</time>
      </trkpt>
      <trkpt lat="37.05128" lon="-3.37084">
        <ele>3200.6</ele>
        <time>2021-08-05 16:25:04</time>
      </trkpt>
      <trkpt lat="37.05129" lon="-3.37084">
        <ele>3200.8</ele>
        <time>2021-08-05 16:25:05</time>
      </trkpt>
      <trkpt lat="37.0513" lon="-3.37084">
        <ele>3200.8</ele>
        <time>2021-08-05 16:25:06</time>
      </trkpt>
      <trkpt lat="37.05131" lon="-3.37085">
        <ele>3200.8</ele>
        <time>2021-08-05 16:25:07</time>
      </trkpt>
      <trkpt lat="37.05132" lon="-3.37085">
        <ele>3201</ele>
        <time>2021-08-05 16:25:08</time>
      </trkpt>
      <trkpt lat="37.05133" lon="-3.37085">
        <ele>3201</ele>
        <time>2021-08-05 16:25:09</time>
      </trkpt>
      <trkpt lat="37.05134" lon="-3.37085">
        <ele>3201</ele>
        <time>2021-08-05 16:25:10</time>
      </trkpt>
      <trkpt lat="37.05135" lon="-3.37086">
        <ele>3201</ele>
        <time>2021-08-05 16:25:11</time>
      </trkpt>
      <trkpt lat="37.05136" lon="-3.37086">
        <ele>3201.2</ele>
        <time>2021-08-05 16:25:12</time>
      </trkpt>
      <trkpt lat="37.05137" lon="-3.37086">
        <ele>3201.2</ele>
        <time>2021-08-05 16:25:13</time>
      </trkpt>
      <trkpt lat="37.05138" lon="-3.37086">
        <ele>3201.4</ele>
        <time>2021-08-05 16:25:14</time>
      </trkpt>
      <trkpt lat="37.05139" lon="-3.37086">
        <ele>3201.6</ele>
        <time>2021-08-05 16:25:15</time>
      </trkpt>
      <trkpt lat="37.0514" lon="-3.37086">
        <ele>3201.8</ele>
        <time>2021-08-05 16:25:16</time>
      </trkpt>
      <trkpt lat="37.0514" lon="-3.37086">
        <ele>3202</ele>
        <time>2021-08-05 16:25:17</time>
      </trkpt>
      <trkpt lat="37.0514" lon="-3.37086">
        <ele>3202.2</ele>
        <time>2021-08-05 16:25:18</time>
      </trkpt>
      <trkpt lat="37.05141" lon="-3.37087">
        <ele>3202.4</ele>
        <time>2021-08-05 16:25:19</time>
      </trkpt>
      <trkpt lat="37.05142" lon="-3.37087">
        <ele>3202.6</ele>
        <time>2021-08-05 16:25:20</time>
      </trkpt>
      <trkpt lat="37.05143" lon="-3.37087">
        <ele>3202.8</ele>
        <time>2021-08-05 16:25:21</time>
      </trkpt>
      <trkpt lat="37.05143" lon="-3.37087">
        <ele>3202.8</ele>
        <time>2021-08-05 16:25:22</time>
      </trkpt>
      <trkpt lat="37.05145" lon="-3.37087">
        <ele>3202.8</ele>
        <time>2021-08-05 16:25:23</time>
      </trkpt>
      <trkpt lat="37.05146" lon="-3.37086">
        <ele>3202.8</ele>
        <time>2021-08-05 16:25:24</time>
      </trkpt>
      <trkpt lat="37.05147" lon="-3.37086">
        <ele>3202.8</ele>
        <time>2021-08-05 16:25:25</time>
      </trkpt>
      <trkpt lat="37.05147" lon="-3.37086">
        <ele>3202.8</ele>
        <time>2021-08-05 16:25:26</time>
      </trkpt>
      <trkpt lat="37.05149" lon="-3.37085">
        <ele>3203</ele>
        <time>2021-08-05 16:25:27</time>
      </trkpt>
      <trkpt lat="37.0515" lon="-3.37085">
        <ele>3203</ele>
        <time>2021-08-05 16:25:28</time>
      </trkpt>
      <trkpt lat="37.05151" lon="-3.37085">
        <ele>3203</ele>
        <time>2021-08-05 16:25:29</time>
      </trkpt>
      <trkpt lat="37.05151" lon="-3.37085">
        <ele>3203</ele>
        <time>2021-08-05 16:25:30</time>
      </trkpt>
      <trkpt lat="37.05152" lon="-3.37085">
        <ele>3203</ele>
        <time>2021-08-05 16:25:31</time>
      </trkpt>
      <trkpt lat="37.05152" lon="-3.37084">
        <ele>3203</ele>
        <time>2021-08-05 16:25:32</time>
      </trkpt>
      <trkpt lat="37.05153" lon="-3.37084">
        <ele>3203</ele>
        <time>2021-08-05 16:25:33</time>
      </trkpt>
      <trkpt lat="37.05154" lon="-3.37084">
        <ele>3203</ele>
        <time>2021-08-05 16:25:34</time>
      </trkpt>
      <trkpt lat="37.05154" lon="-3.37084">
        <ele>3203.2</ele>
        <time>2021-08-05 16:25:35</time>
      </trkpt>
      <trkpt lat="37.05155" lon="-3.37083">
        <ele>3203.4</ele>
        <time>2021-08-05 16:25:36</time>
      </trkpt>
      <trkpt lat="37.05156" lon="-3.37082">
        <ele>3203.6</ele>
        <time>2021-08-05 16:25:37</time>
      </trkpt>
      <trkpt lat="37.05157" lon="-3.37082">
        <ele>3203.6</ele>
        <time>2021-08-05 16:25:38</time>
      </trkpt>
      <trkpt lat="37.05158" lon="-3.37081">
        <ele>3203.6</ele>
        <time>2021-08-05 16:25:39</time>
      </trkpt>
      <trkpt lat="37.05158" lon="-3.3708">
        <ele>3203.6</ele>
        <time>2021-08-05 16:25:40</time>
      </trkpt>
      <trkpt lat="37.05159" lon="-3.3708">
        <ele>3203.6</ele>
        <time>2021-08-05 16:25:41</time>
      </trkpt>
      <trkpt lat="37.05159" lon="-3.3708">
        <ele>3203.6</ele>
        <time>2021-08-05 16:25:42</time>
      </trkpt>
      <trkpt lat="37.0516" lon="-3.3708">
        <ele>3203.8</ele>
        <time>2021-08-05 16:25:43</time>
      </trkpt>
      <trkpt lat="37.05161" lon="-3.37079">
        <ele>3203.8</ele>
        <time>2021-08-05 16:25:44</time>
      </trkpt>
      <trkpt lat="37.05162" lon="-3.37079">
        <ele>3203.8</ele>
        <time>2021-08-05 16:25:45</time>
      </trkpt>
      <trkpt lat="37.05162" lon="-3.37079">
        <ele>3204</ele>
        <time>2021-08-05 16:25:46</time>
      </trkpt>
      <trkpt lat="37.05163" lon="-3.37078">
        <ele>3204</ele>
        <time>2021-08-05 16:25:47</time>
      </trkpt>
      <trkpt lat="37.05164" lon="-3.37078">
        <ele>3204</ele>
        <time>2021-08-05 16:25:48</time>
      </trkpt>
      <trkpt lat="37.05165" lon="-3.37077">
        <ele>3204</ele>
        <time>2021-08-05 16:25:49</time>
      </trkpt>
      <trkpt lat="37.05166" lon="-3.37076">
        <ele>3204.2</ele>
        <time>2021-08-05 16:25:50</time>
      </trkpt>
      <trkpt lat="37.05166" lon="-3.37076">
        <ele>3204.2</ele>
        <time>2021-08-05 16:25:51</time>
      </trkpt>
      <trkpt lat="37.05167" lon="-3.37075">
        <ele>3204.4</ele>
        <time>2021-08-05 16:25:52</time>
      </trkpt>
      <trkpt lat="37.05168" lon="-3.37075">
        <ele>3204.6</ele>
        <time>2021-08-05 16:25:53</time>
      </trkpt>
      <trkpt lat="37.05169" lon="-3.37074">
        <ele>3204.6</ele>
        <time>2021-08-05 16:25:54</time>
      </trkpt>
      <trkpt lat="37.05169" lon="-3.37074">
        <ele>3204.6</ele>
        <time>2021-08-05 16:25:55</time>
      </trkpt>
      <trkpt lat="37.0517" lon="-3.37074">
        <ele>3204.8</ele>
        <time>2021-08-05 16:25:56</time>
      </trkpt>
      <trkpt lat="37.0517" lon="-3.37073">
        <ele>3204.8</ele>
        <time>2021-08-05 16:25:57</time>
      </trkpt>
      <trkpt lat="37.05171" lon="-3.37073">
        <ele>3204.8</ele>
        <time>2021-08-05 16:25:58</time>
      </trkpt>
      <trkpt lat="37.05172" lon="-3.37072">
        <ele>3204.8</ele>
        <time>2021-08-05 16:25:59</time>
      </trkpt>
      <trkpt lat="37.05172" lon="-3.37072">
        <ele>3204.8</ele>
        <time>2021-08-05 16:26:00</time>
      </trkpt>
      <trkpt lat="37.05173" lon="-3.37072">
        <ele>3204.8</ele>
        <time>2021-08-05 16:26:01</time>
      </trkpt>
      <trkpt lat="37.05174" lon="-3.37072">
        <ele>3205</ele>
        <time>2021-08-05 16:26:02</time>
      </trkpt>
      <trkpt lat="37.05174" lon="-3.37072">
        <ele>3205</ele>
        <time>2021-08-05 16:26:03</time>
      </trkpt>
      <trkpt lat="37.05175" lon="-3.37072">
        <ele>3205</ele>
        <time>2021-08-05 16:26:04</time>
      </trkpt>
      <trkpt lat="37.05175" lon="-3.37072">
        <ele>3204.8</ele>
        <time>2021-08-05 16:26:05</time>
      </trkpt>
      <trkpt lat="37.05176" lon="-3.37072">
        <ele>3204.8</ele>
        <time>2021-08-05 16:26:06</time>
      </trkpt>
      <trkpt lat="37.05176" lon="-3.37072">
        <ele>3204.8</ele>
        <time>2021-08-05 16:26:07</time>
      </trkpt>
      <trkpt lat="37.05177" lon="-3.37072">
        <ele>3204.8</ele>
        <time>2021-08-05 16:26:08</time>
      </trkpt>
      <trkpt lat="37.05178" lon="-3.37072">
        <ele>3205</ele>
        <time>2021-08-05 16:26:09</time>
      </trkpt>
      <trkpt lat="37.05178" lon="-3.37071">
        <ele>3204.8</ele>
        <time>2021-08-05 16:26:10</time>
      </trkpt>
      <trkpt lat="37.05179" lon="-3.37071">
        <ele>3204.8</ele>
        <time>2021-08-05 16:26:11</time>
      </trkpt>
      <trkpt lat="37.0518" lon="-3.3707">
        <ele>3205</ele>
        <time>2021-08-05 16:26:12</time>
      </trkpt>
      <trkpt lat="37.05181" lon="-3.37069">
        <ele>3205</ele>
        <time>2021-08-05 16:26:13</time>
      </trkpt>
      <trkpt lat="37.05182" lon="-3.37069">
        <ele>3205.2</ele>
        <time>2021-08-05 16:26:14</time>
      </trkpt>
      <trkpt lat="37.05183" lon="-3.37068">
        <ele>3205.6</ele>
        <time>2021-08-05 16:26:15</time>
      </trkpt>
      <trkpt lat="37.05184" lon="-3.37067">
        <ele>3206.2</ele>
        <time>2021-08-05 16:26:16</time>
      </trkpt>
      <trkpt lat="37.05185" lon="-3.37067">
        <ele>3206.4</ele>
        <time>2021-08-05 16:26:17</time>
      </trkpt>
      <trkpt lat="37.05185" lon="-3.37066">
        <ele>3206.4</ele>
        <time>2021-08-05 16:26:18</time>
      </trkpt>
      <trkpt lat="37.05185" lon="-3.37066">
        <ele>3206.4</ele>
        <time>2021-08-05 16:26:19</time>
      </trkpt>
      <trkpt lat="37.05186" lon="-3.37066">
        <ele>3206.4</ele>
        <time>2021-08-05 16:26:20</time>
      </trkpt>
      <trkpt lat="37.05186" lon="-3.37066">
        <ele>3206.2</ele>
        <time>2021-08-05 16:26:21</time>
      </trkpt>
      <trkpt lat="37.05187" lon="-3.37065">
        <ele>3206.2</ele>
        <time>2021-08-05 16:26:22</time>
      </trkpt>
      <trkpt lat="37.05186" lon="-3.37065">
        <ele>3206.2</ele>
        <time>2021-08-05 16:26:23</time>
      </trkpt>
      <trkpt lat="37.05187" lon="-3.37065">
        <ele>3206.2</ele>
        <time>2021-08-05 16:26:24</time>
      </trkpt>
      <trkpt lat="37.05187" lon="-3.37064">
        <ele>3206.2</ele>
        <time>2021-08-05 16:26:25</time>
      </trkpt>
      <trkpt lat="37.05187" lon="-3.37064">
        <ele>3206.4</ele>
        <time>2021-08-05 16:26:26</time>
      </trkpt>
      <trkpt lat="37.05187" lon="-3.37064">
        <ele>3206.4</ele>
        <time>2021-08-05 16:26:27</time>
      </trkpt>
      <trkpt lat="37.05188" lon="-3.37064">
        <ele>3206.4</ele>
        <time>2021-08-05 16:26:28</time>
      </trkpt>
      <trkpt lat="37.05191" lon="-3.37064">
        <ele>3206.4</ele>
        <time>2021-08-05 16:26:29</time>
      </trkpt>
      <trkpt lat="37.05193" lon="-3.37064">
        <ele>3206.6</ele>
        <time>2021-08-05 16:26:30</time>
      </trkpt>
      <trkpt lat="37.05194" lon="-3.37063">
        <ele>3206.6</ele>
        <time>2021-08-05 16:26:31</time>
      </trkpt>
      <trkpt lat="37.05195" lon="-3.37062">
        <ele>3206.8</ele>
        <time>2021-08-05 16:26:32</time>
      </trkpt>
      <trkpt lat="37.05196" lon="-3.37062">
        <ele>3207</ele>
        <time>2021-08-05 16:26:33</time>
      </trkpt>
      <trkpt lat="37.05197" lon="-3.37062">
        <ele>3207.2</ele>
        <time>2021-08-05 16:26:34</time>
      </trkpt>
      <trkpt lat="37.05198" lon="-3.37061">
        <ele>3207.2</ele>
        <time>2021-08-05 16:26:35</time>
      </trkpt>
      <trkpt lat="37.05198" lon="-3.37061">
        <ele>3207.4</ele>
        <time>2021-08-05 16:26:36</time>
      </trkpt>
      <trkpt lat="37.05199" lon="-3.3706">
        <ele>3207.4</ele>
        <time>2021-08-05 16:26:37</time>
      </trkpt>
      <trkpt lat="37.052" lon="-3.3706">
        <ele>3207.6</ele>
        <time>2021-08-05 16:26:38</time>
      </trkpt>
      <trkpt lat="37.052" lon="-3.3706">
        <ele>3207.6</ele>
        <time>2021-08-05 16:26:39</time>
      </trkpt>
      <trkpt lat="37.05202" lon="-3.3706">
        <ele>3207.6</ele>
        <time>2021-08-05 16:26:40</time>
      </trkpt>
      <trkpt lat="37.05203" lon="-3.3706">
        <ele>3207.6</ele>
        <time>2021-08-05 16:26:41</time>
      </trkpt>
      <trkpt lat="37.05204" lon="-3.3706">
        <ele>3207.8</ele>
        <time>2021-08-05 16:26:42</time>
      </trkpt>
      <trkpt lat="37.05205" lon="-3.3706">
        <ele>3207.8</ele>
        <time>2021-08-05 16:26:43</time>
      </trkpt>
      <trkpt lat="37.05206" lon="-3.3706">
        <ele>3207.8</ele>
        <time>2021-08-05 16:26:44</time>
      </trkpt>
      <trkpt lat="37.05207" lon="-3.3706">
        <ele>3207.6</ele>
        <time>2021-08-05 16:26:45</time>
      </trkpt>
      <trkpt lat="37.05208" lon="-3.37059">
        <ele>3207.8</ele>
        <time>2021-08-05 16:26:46</time>
      </trkpt>
      <trkpt lat="37.05208" lon="-3.37059">
        <ele>3207.8</ele>
        <time>2021-08-05 16:26:47</time>
      </trkpt>
      <trkpt lat="37.05209" lon="-3.37059">
        <ele>3208</ele>
        <time>2021-08-05 16:26:48</time>
      </trkpt>
      <trkpt lat="37.05209" lon="-3.37058">
        <ele>3208</ele>
        <time>2021-08-05 16:26:49</time>
      </trkpt>
      <trkpt lat="37.0521" lon="-3.37058">
        <ele>3208</ele>
        <time>2021-08-05 16:26:50</time>
      </trkpt>
      <trkpt lat="37.05211" lon="-3.37057">
        <ele>3208.2</ele>
        <time>2021-08-05 16:26:51</time>
      </trkpt>
      <trkpt lat="37.05211" lon="-3.37057">
        <ele>3208.4</ele>
        <time>2021-08-05 16:26:52</time>
      </trkpt>
      <trkpt lat="37.05211" lon="-3.37057">
        <ele>3208.6</ele>
        <time>2021-08-05 16:26:53</time>
      </trkpt>
      <trkpt lat="37.05213" lon="-3.37057">
        <ele>3208.8</ele>
        <time>2021-08-05 16:26:54</time>
      </trkpt>
      <trkpt lat="37.05214" lon="-3.37057">
        <ele>3208.8</ele>
        <time>2021-08-05 16:26:55</time>
      </trkpt>
      <trkpt lat="37.05213" lon="-3.37057">
        <ele>3209</ele>
        <time>2021-08-05 16:26:56</time>
      </trkpt>
      <trkpt lat="37.05213" lon="-3.37057">
        <ele>3209</ele>
        <time>2021-08-05 16:26:57</time>
      </trkpt>
      <trkpt lat="37.05214" lon="-3.37057">
        <ele>3209.2</ele>
        <time>2021-08-05 16:26:58</time>
      </trkpt>
      <trkpt lat="37.05215" lon="-3.37057">
        <ele>3209.2</ele>
        <time>2021-08-05 16:26:59</time>
      </trkpt>
      <trkpt lat="37.05215" lon="-3.37056">
        <ele>3209.2</ele>
        <time>2021-08-05 16:27:00</time>
      </trkpt>
      <trkpt lat="37.05216" lon="-3.37055">
        <ele>3209.4</ele>
        <time>2021-08-05 16:27:01</time>
      </trkpt>
      <trkpt lat="37.05217" lon="-3.37055">
        <ele>3209.4</ele>
        <time>2021-08-05 16:27:02</time>
      </trkpt>
      <trkpt lat="37.05218" lon="-3.37055">
        <ele>3209.6</ele>
        <time>2021-08-05 16:27:03</time>
      </trkpt>
      <trkpt lat="37.05219" lon="-3.37055">
        <ele>3209.6</ele>
        <time>2021-08-05 16:27:04</time>
      </trkpt>
      <trkpt lat="37.05219" lon="-3.37055">
        <ele>3209.6</ele>
        <time>2021-08-05 16:27:05</time>
      </trkpt>
      <trkpt lat="37.0522" lon="-3.37054">
        <ele>3209.8</ele>
        <time>2021-08-05 16:27:06</time>
      </trkpt>
      <trkpt lat="37.05221" lon="-3.37054">
        <ele>3210</ele>
        <time>2021-08-05 16:27:07</time>
      </trkpt>
      <trkpt lat="37.05222" lon="-3.37054">
        <ele>3210.6</ele>
        <time>2021-08-05 16:27:08</time>
      </trkpt>
      <trkpt lat="37.05223" lon="-3.37054">
        <ele>3210.8</ele>
        <time>2021-08-05 16:27:09</time>
      </trkpt>
      <trkpt lat="37.05224" lon="-3.37054">
        <ele>3211</ele>
        <time>2021-08-05 16:27:10</time>
      </trkpt>
      <trkpt lat="37.05225" lon="-3.37053">
        <ele>3211.2</ele>
        <time>2021-08-05 16:27:11</time>
      </trkpt>
      <trkpt lat="37.05226" lon="-3.37053">
        <ele>3211</ele>
        <time>2021-08-05 16:27:12</time>
      </trkpt>
      <trkpt lat="37.05227" lon="-3.37053">
        <ele>3210.8</ele>
        <time>2021-08-05 16:27:13</time>
      </trkpt>
      <trkpt lat="37.05227" lon="-3.37053">
        <ele>3210.8</ele>
        <time>2021-08-05 16:27:14</time>
      </trkpt>
      <trkpt lat="37.05228" lon="-3.37053">
        <ele>3210.8</ele>
        <time>2021-08-05 16:27:15</time>
      </trkpt>
      <trkpt lat="37.05229" lon="-3.37052">
        <ele>3210.8</ele>
        <time>2021-08-05 16:27:16</time>
      </trkpt>
      <trkpt lat="37.0523" lon="-3.37051">
        <ele>3210.8</ele>
        <time>2021-08-05 16:27:17</time>
      </trkpt>
      <trkpt lat="37.0523" lon="-3.37051">
        <ele>3210.8</ele>
        <time>2021-08-05 16:27:18</time>
      </trkpt>
      <trkpt lat="37.05231" lon="-3.3705">
        <ele>3210.8</ele>
        <time>2021-08-05 16:27:19</time>
      </trkpt>
      <trkpt lat="37.05232" lon="-3.37049">
        <ele>3210.8</ele>
        <time>2021-08-05 16:27:20</time>
      </trkpt>
      <trkpt lat="37.05232" lon="-3.37048">
        <ele>3210.8</ele>
        <time>2021-08-05 16:27:21</time>
      </trkpt>
      <trkpt lat="37.05233" lon="-3.37047">
        <ele>3211</ele>
        <time>2021-08-05 16:27:22</time>
      </trkpt>
      <trkpt lat="37.05233" lon="-3.37046">
        <ele>3211.2</ele>
        <time>2021-08-05 16:27:23</time>
      </trkpt>
      <trkpt lat="37.05234" lon="-3.37045">
        <ele>3211.2</ele>
        <time>2021-08-05 16:27:24</time>
      </trkpt>
      <trkpt lat="37.05235" lon="-3.37045">
        <ele>3211.2</ele>
        <time>2021-08-05 16:27:25</time>
      </trkpt>
      <trkpt lat="37.05235" lon="-3.37044">
        <ele>3211.2</ele>
        <time>2021-08-05 16:27:26</time>
      </trkpt>
      <trkpt lat="37.05236" lon="-3.37043">
        <ele>3211.4</ele>
        <time>2021-08-05 16:27:27</time>
      </trkpt>
      <trkpt lat="37.05236" lon="-3.37042">
        <ele>3211.2</ele>
        <time>2021-08-05 16:27:28</time>
      </trkpt>
      <trkpt lat="37.05237" lon="-3.37042">
        <ele>3211.2</ele>
        <time>2021-08-05 16:27:29</time>
      </trkpt>
      <trkpt lat="37.05237" lon="-3.37041">
        <ele>3211.2</ele>
        <time>2021-08-05 16:27:30</time>
      </trkpt>
      <trkpt lat="37.05238" lon="-3.37041">
        <ele>3211.2</ele>
        <time>2021-08-05 16:27:31</time>
      </trkpt>
      <trkpt lat="37.05239" lon="-3.3704">
        <ele>3211.4</ele>
        <time>2021-08-05 16:27:32</time>
      </trkpt>
      <trkpt lat="37.05239" lon="-3.37039">
        <ele>3211.4</ele>
        <time>2021-08-05 16:27:33</time>
      </trkpt>
      <trkpt lat="37.0524" lon="-3.37038">
        <ele>3211.6</ele>
        <time>2021-08-05 16:27:34</time>
      </trkpt>
      <trkpt lat="37.0524" lon="-3.37037">
        <ele>3211.6</ele>
        <time>2021-08-05 16:27:35</time>
      </trkpt>
      <trkpt lat="37.05241" lon="-3.37036">
        <ele>3212</ele>
        <time>2021-08-05 16:27:36</time>
      </trkpt>
      <trkpt lat="37.05241" lon="-3.37035">
        <ele>3212.2</ele>
        <time>2021-08-05 16:27:37</time>
      </trkpt>
      <trkpt lat="37.05242" lon="-3.37034">
        <ele>3212.4</ele>
        <time>2021-08-05 16:27:38</time>
      </trkpt>
      <trkpt lat="37.05242" lon="-3.37033">
        <ele>3212.8</ele>
        <time>2021-08-05 16:27:39</time>
      </trkpt>
      <trkpt lat="37.05242" lon="-3.37033">
        <ele>3213</ele>
        <time>2021-08-05 16:27:40</time>
      </trkpt>
      <trkpt lat="37.05243" lon="-3.37032">
        <ele>3213</ele>
        <time>2021-08-05 16:27:41</time>
      </trkpt>
      <trkpt lat="37.05244" lon="-3.37031">
        <ele>3213</ele>
        <time>2021-08-05 16:27:42</time>
      </trkpt>
      <trkpt lat="37.05244" lon="-3.3703">
        <ele>3213</ele>
        <time>2021-08-05 16:27:43</time>
      </trkpt>
      <trkpt lat="37.05244" lon="-3.3703">
        <ele>3213</ele>
        <time>2021-08-05 16:27:44</time>
      </trkpt>
      <trkpt lat="37.05245" lon="-3.3703">
        <ele>3213.2</ele>
        <time>2021-08-05 16:27:45</time>
      </trkpt>
      <trkpt lat="37.05245" lon="-3.3703">
        <ele>3213.2</ele>
        <time>2021-08-05 16:27:46</time>
      </trkpt>
      <trkpt lat="37.05245" lon="-3.3703">
        <ele>3213.2</ele>
        <time>2021-08-05 16:27:47</time>
      </trkpt>
      <trkpt lat="37.05245" lon="-3.3703">
        <ele>3213.2</ele>
        <time>2021-08-05 16:27:48</time>
      </trkpt>
      <trkpt lat="37.05245" lon="-3.37031">
        <ele>3213.4</ele>
        <time>2021-08-05 16:27:49</time>
      </trkpt>
      <trkpt lat="37.05245" lon="-3.3703">
        <ele>3213.2</ele>
        <time>2021-08-05 16:27:50</time>
      </trkpt>
      <trkpt lat="37.05246" lon="-3.37029">
        <ele>3213.2</ele>
        <time>2021-08-05 16:27:51</time>
      </trkpt>
      <trkpt lat="37.05246" lon="-3.37029">
        <ele>3213</ele>
        <time>2021-08-05 16:27:52</time>
      </trkpt>
      <trkpt lat="37.05246" lon="-3.37028">
        <ele>3213.2</ele>
        <time>2021-08-05 16:27:53</time>
      </trkpt>
      <trkpt lat="37.05246" lon="-3.37028">
        <ele>3213.2</ele>
        <time>2021-08-05 16:27:54</time>
      </trkpt>
      <trkpt lat="37.05246" lon="-3.37028">
        <ele>3213.4</ele>
        <time>2021-08-05 16:27:55</time>
      </trkpt>
      <trkpt lat="37.05246" lon="-3.37027">
        <ele>3213.4</ele>
        <time>2021-08-05 16:27:56</time>
      </trkpt>
      <trkpt lat="37.05246" lon="-3.37026">
        <ele>3213.4</ele>
        <time>2021-08-05 16:27:57</time>
      </trkpt>
      <trkpt lat="37.05246" lon="-3.37025">
        <ele>3213.6</ele>
        <time>2021-08-05 16:27:58</time>
      </trkpt>
      <trkpt lat="37.05247" lon="-3.37025">
        <ele>3213.6</ele>
        <time>2021-08-05 16:27:59</time>
      </trkpt>
      <trkpt lat="37.05247" lon="-3.37025">
        <ele>3213.8</ele>
        <time>2021-08-05 16:28:00</time>
      </trkpt>
      <trkpt lat="37.05249" lon="-3.37024">
        <ele>3213.8</ele>
        <time>2021-08-05 16:28:01</time>
      </trkpt>
      <trkpt lat="37.05249" lon="-3.37025">
        <ele>3213.8</ele>
        <time>2021-08-05 16:28:02</time>
      </trkpt>
      <trkpt lat="37.0525" lon="-3.37025">
        <ele>3214</ele>
        <time>2021-08-05 16:28:03</time>
      </trkpt>
      <trkpt lat="37.05251" lon="-3.37024">
        <ele>3214</ele>
        <time>2021-08-05 16:28:04</time>
      </trkpt>
      <trkpt lat="37.05251" lon="-3.37024">
        <ele>3214</ele>
        <time>2021-08-05 16:28:05</time>
      </trkpt>
      <trkpt lat="37.05251" lon="-3.37023">
        <ele>3214.2</ele>
        <time>2021-08-05 16:28:06</time>
      </trkpt>
      <trkpt lat="37.05251" lon="-3.37022">
        <ele>3214.4</ele>
        <time>2021-08-05 16:28:07</time>
      </trkpt>
      <trkpt lat="37.05251" lon="-3.37021">
        <ele>3214.8</ele>
        <time>2021-08-05 16:28:08</time>
      </trkpt>
      <trkpt lat="37.0525" lon="-3.3702">
        <ele>3215</ele>
        <time>2021-08-05 16:28:09</time>
      </trkpt>
      <trkpt lat="37.0525" lon="-3.3702">
        <ele>3215</ele>
        <time>2021-08-05 16:28:10</time>
      </trkpt>
      <trkpt lat="37.0525" lon="-3.37019">
        <ele>3215</ele>
        <time>2021-08-05 16:28:11</time>
      </trkpt>
      <trkpt lat="37.0525" lon="-3.37018">
        <ele>3215.2</ele>
        <time>2021-08-05 16:28:12</time>
      </trkpt>
      <trkpt lat="37.05252" lon="-3.37017">
        <ele>3215.2</ele>
        <time>2021-08-05 16:28:13</time>
      </trkpt>
      <trkpt lat="37.05253" lon="-3.37016">
        <ele>3215.4</ele>
        <time>2021-08-05 16:28:14</time>
      </trkpt>
      <trkpt lat="37.05253" lon="-3.37015">
        <ele>3215.4</ele>
        <time>2021-08-05 16:28:15</time>
      </trkpt>
      <trkpt lat="37.05253" lon="-3.37014">
        <ele>3215.4</ele>
        <time>2021-08-05 16:28:16</time>
      </trkpt>
      <trkpt lat="37.05254" lon="-3.37014">
        <ele>3215.6</ele>
        <time>2021-08-05 16:28:17</time>
      </trkpt>
      <trkpt lat="37.05255" lon="-3.37013">
        <ele>3215.6</ele>
        <time>2021-08-05 16:28:18</time>
      </trkpt>
      <trkpt lat="37.05255" lon="-3.37012">
        <ele>3215.8</ele>
        <time>2021-08-05 16:28:19</time>
      </trkpt>
      <trkpt lat="37.05255" lon="-3.37011">
        <ele>3216</ele>
        <time>2021-08-05 16:28:20</time>
      </trkpt>
      <trkpt lat="37.05255" lon="-3.37011">
        <ele>3216.2</ele>
        <time>2021-08-05 16:28:21</time>
      </trkpt>
      <trkpt lat="37.05255" lon="-3.37011">
        <ele>3216.4</ele>
        <time>2021-08-05 16:28:22</time>
      </trkpt>
      <trkpt lat="37.05254" lon="-3.3701">
        <ele>3216.4</ele>
        <time>2021-08-05 16:28:23</time>
      </trkpt>
      <trkpt lat="37.05254" lon="-3.37009">
        <ele>3216.6</ele>
        <time>2021-08-05 16:28:24</time>
      </trkpt>
      <trkpt lat="37.05254" lon="-3.37008">
        <ele>3216.8</ele>
        <time>2021-08-05 16:28:25</time>
      </trkpt>
      <trkpt lat="37.05254" lon="-3.37007">
        <ele>3216.8</ele>
        <time>2021-08-05 16:28:26</time>
      </trkpt>
      <trkpt lat="37.05254" lon="-3.37007">
        <ele>3217.2</ele>
        <time>2021-08-05 16:28:27</time>
      </trkpt>
      <trkpt lat="37.05253" lon="-3.37008">
        <ele>3217.2</ele>
        <time>2021-08-05 16:28:28</time>
      </trkpt>
      <trkpt lat="37.05252" lon="-3.37007">
        <ele>3217.4</ele>
        <time>2021-08-05 16:28:29</time>
      </trkpt>
      <trkpt lat="37.05252" lon="-3.37007">
        <ele>3217.4</ele>
        <time>2021-08-05 16:28:30</time>
      </trkpt>
      <trkpt lat="37.05253" lon="-3.37007">
        <ele>3217.6</ele>
        <time>2021-08-05 16:28:31</time>
      </trkpt>
      <trkpt lat="37.05253" lon="-3.37006">
        <ele>3217.6</ele>
        <time>2021-08-05 16:28:32</time>
      </trkpt>
      <trkpt lat="37.05253" lon="-3.37005">
        <ele>3217.6</ele>
        <time>2021-08-05 16:28:33</time>
      </trkpt>
      <trkpt lat="37.05252" lon="-3.37004">
        <ele>3217.6</ele>
        <time>2021-08-05 16:28:34</time>
      </trkpt>
      <trkpt lat="37.05253" lon="-3.37004">
        <ele>3217.8</ele>
        <time>2021-08-05 16:28:35</time>
      </trkpt>
      <trkpt lat="37.05253" lon="-3.37003">
        <ele>3218</ele>
        <time>2021-08-05 16:28:36</time>
      </trkpt>
      <trkpt lat="37.05253" lon="-3.37002">
        <ele>3218.2</ele>
        <time>2021-08-05 16:28:37</time>
      </trkpt>
      <trkpt lat="37.05253" lon="-3.37001">
        <ele>3218.2</ele>
        <time>2021-08-05 16:28:38</time>
      </trkpt>
      <trkpt lat="37.05254" lon="-3.37">
        <ele>3218.4</ele>
        <time>2021-08-05 16:28:39</time>
      </trkpt>
      <trkpt lat="37.05254" lon="-3.37">
        <ele>3218.6</ele>
        <time>2021-08-05 16:28:40</time>
      </trkpt>
      <trkpt lat="37.05255" lon="-3.36999">
        <ele>3218.6</ele>
        <time>2021-08-05 16:28:41</time>
      </trkpt>
      <trkpt lat="37.05255" lon="-3.36998">
        <ele>3218.8</ele>
        <time>2021-08-05 16:28:42</time>
      </trkpt>
      <trkpt lat="37.05256" lon="-3.36998">
        <ele>3218.8</ele>
        <time>2021-08-05 16:28:43</time>
      </trkpt>
      <trkpt lat="37.05257" lon="-3.36997">
        <ele>3219</ele>
        <time>2021-08-05 16:28:44</time>
      </trkpt>
      <trkpt lat="37.05256" lon="-3.36996">
        <ele>3219</ele>
        <time>2021-08-05 16:28:45</time>
      </trkpt>
      <trkpt lat="37.05256" lon="-3.36996">
        <ele>3219.4</ele>
        <time>2021-08-05 16:28:46</time>
      </trkpt>
      <trkpt lat="37.05256" lon="-3.36995">
        <ele>3219.4</ele>
        <time>2021-08-05 16:28:47</time>
      </trkpt>
      <trkpt lat="37.05255" lon="-3.36995">
        <ele>3219.6</ele>
        <time>2021-08-05 16:28:48</time>
      </trkpt>
      <trkpt lat="37.05255" lon="-3.36995">
        <ele>3219.6</ele>
        <time>2021-08-05 16:28:49</time>
      </trkpt>
      <trkpt lat="37.05256" lon="-3.36994">
        <ele>3219.6</ele>
        <time>2021-08-05 16:28:50</time>
      </trkpt>
      <trkpt lat="37.05255" lon="-3.36994">
        <ele>3219.8</ele>
        <time>2021-08-05 16:28:51</time>
      </trkpt>
      <trkpt lat="37.05256" lon="-3.36994">
        <ele>3219.8</ele>
        <time>2021-08-05 16:28:52</time>
      </trkpt>
      <trkpt lat="37.05256" lon="-3.36993">
        <ele>3219.8</ele>
        <time>2021-08-05 16:28:53</time>
      </trkpt>
      <trkpt lat="37.05256" lon="-3.36993">
        <ele>3219.8</ele>
        <time>2021-08-05 16:28:54</time>
      </trkpt>
      <trkpt lat="37.05256" lon="-3.36992">
        <ele>3219.8</ele>
        <time>2021-08-05 16:28:55</time>
      </trkpt>
      <trkpt lat="37.05256" lon="-3.36992">
        <ele>3220</ele>
        <time>2021-08-05 16:28:56</time>
      </trkpt>
      <trkpt lat="37.05256" lon="-3.36992">
        <ele>3220</ele>
        <time>2021-08-05 16:28:57</time>
      </trkpt>
      <trkpt lat="37.05256" lon="-3.36992">
        <ele>3220</ele>
        <time>2021-08-05 16:28:58</time>
      </trkpt>
      <trkpt lat="37.05256" lon="-3.36992">
        <ele>3220</ele>
        <time>2021-08-05 16:28:59</time>
      </trkpt>
      <trkpt lat="37.05255" lon="-3.36991">
        <ele>3220.2</ele>
        <time>2021-08-05 16:29:00</time>
      </trkpt>
      <trkpt lat="37.05255" lon="-3.3699">
        <ele>3220.2</ele>
        <time>2021-08-05 16:29:01</time>
      </trkpt>
      <trkpt lat="37.05255" lon="-3.36989">
        <ele>3220.2</ele>
        <time>2021-08-05 16:29:02</time>
      </trkpt>
      <trkpt lat="37.05256" lon="-3.36988">
        <ele>3220.2</ele>
        <time>2021-08-05 16:29:03</time>
      </trkpt>
      <trkpt lat="37.05256" lon="-3.36987">
        <ele>3220.4</ele>
        <time>2021-08-05 16:29:04</time>
      </trkpt>
      <trkpt lat="37.05256" lon="-3.36987">
        <ele>3220.4</ele>
        <time>2021-08-05 16:29:05</time>
      </trkpt>
      <trkpt lat="37.05256" lon="-3.36986">
        <ele>3220.6</ele>
        <time>2021-08-05 16:29:06</time>
      </trkpt>
      <trkpt lat="37.05256" lon="-3.36986">
        <ele>3220.6</ele>
        <time>2021-08-05 16:29:07</time>
      </trkpt>
      <trkpt lat="37.05256" lon="-3.36986">
        <ele>3220.8</ele>
        <time>2021-08-05 16:29:08</time>
      </trkpt>
      <trkpt lat="37.05256" lon="-3.36986">
        <ele>3220.8</ele>
        <time>2021-08-05 16:29:09</time>
      </trkpt>
      <trkpt lat="37.05256" lon="-3.36986">
        <ele>3220.8</ele>
        <time>2021-08-05 16:29:10</time>
      </trkpt>
      <trkpt lat="37.05256" lon="-3.36985">
        <ele>3220.8</ele>
        <time>2021-08-05 16:29:11</time>
      </trkpt>
      <trkpt lat="37.05257" lon="-3.36985">
        <ele>3220.8</ele>
        <time>2021-08-05 16:29:12</time>
      </trkpt>
      <trkpt lat="37.05258" lon="-3.36984">
        <ele>3221</ele>
        <time>2021-08-05 16:29:13</time>
      </trkpt>
      <trkpt lat="37.05257" lon="-3.36983">
        <ele>3221.4</ele>
        <time>2021-08-05 16:29:14</time>
      </trkpt>
      <trkpt lat="37.05257" lon="-3.36982">
        <ele>3221.6</ele>
        <time>2021-08-05 16:29:15</time>
      </trkpt>
      <trkpt lat="37.05257" lon="-3.36981">
        <ele>3221.8</ele>
        <time>2021-08-05 16:29:16</time>
      </trkpt>
      <trkpt lat="37.05257" lon="-3.3698">
        <ele>3222</ele>
        <time>2021-08-05 16:29:17</time>
      </trkpt>
      <trkpt lat="37.05257" lon="-3.36979">
        <ele>3222.4</ele>
        <time>2021-08-05 16:29:18</time>
      </trkpt>
      <trkpt lat="37.05257" lon="-3.36977">
        <ele>3222.8</ele>
        <time>2021-08-05 16:29:19</time>
      </trkpt>
      <trkpt lat="37.05257" lon="-3.36976">
        <ele>3223</ele>
        <time>2021-08-05 16:29:20</time>
      </trkpt>
      <trkpt lat="37.05257" lon="-3.36975">
        <ele>3223</ele>
        <time>2021-08-05 16:29:21</time>
      </trkpt>
      <trkpt lat="37.05257" lon="-3.36974">
        <ele>3223.2</ele>
        <time>2021-08-05 16:29:22</time>
      </trkpt>
      <trkpt lat="37.05257" lon="-3.36973">
        <ele>3223.2</ele>
        <time>2021-08-05 16:29:23</time>
      </trkpt>
      <trkpt lat="37.05256" lon="-3.36972">
        <ele>3223.2</ele>
        <time>2021-08-05 16:29:24</time>
      </trkpt>
      <trkpt lat="37.05256" lon="-3.3697">
        <ele>3223</ele>
        <time>2021-08-05 16:29:25</time>
      </trkpt>
      <trkpt lat="37.05256" lon="-3.36969">
        <ele>3223</ele>
        <time>2021-08-05 16:29:26</time>
      </trkpt>
      <trkpt lat="37.05255" lon="-3.36969">
        <ele>3223</ele>
        <time>2021-08-05 16:29:27</time>
      </trkpt>
      <trkpt lat="37.05255" lon="-3.36969">
        <ele>3222.8</ele>
        <time>2021-08-05 16:29:28</time>
      </trkpt>
      <trkpt lat="37.05255" lon="-3.36968">
        <ele>3222.6</ele>
        <time>2021-08-05 16:29:29</time>
      </trkpt>
      <trkpt lat="37.05254" lon="-3.36968">
        <ele>3222.6</ele>
        <time>2021-08-05 16:29:30</time>
      </trkpt>
      <trkpt lat="37.05255" lon="-3.36968">
        <ele>3222.4</ele>
        <time>2021-08-05 16:29:31</time>
      </trkpt>
      <trkpt lat="37.05255" lon="-3.36968">
        <ele>3222.4</ele>
        <time>2021-08-05 16:29:32</time>
      </trkpt>
      <trkpt lat="37.05255" lon="-3.36967">
        <ele>3222.6</ele>
        <time>2021-08-05 16:29:33</time>
      </trkpt>
      <trkpt lat="37.05255" lon="-3.36967">
        <ele>3222.6</ele>
        <time>2021-08-05 16:29:34</time>
      </trkpt>
      <trkpt lat="37.05254" lon="-3.36967">
        <ele>3222.6</ele>
        <time>2021-08-05 16:29:35</time>
      </trkpt>
      <trkpt lat="37.05255" lon="-3.36967">
        <ele>3222.6</ele>
        <time>2021-08-05 16:29:36</time>
      </trkpt>
      <trkpt lat="37.05254" lon="-3.36969">
        <ele>3222.6</ele>
        <time>2021-08-05 16:29:37</time>
      </trkpt>
      <trkpt lat="37.05255" lon="-3.36969">
        <ele>3222.6</ele>
        <time>2021-08-05 16:29:38</time>
      </trkpt>
      <trkpt lat="37.05255" lon="-3.36971">
        <ele>3222.6</ele>
        <time>2021-08-05 16:29:39</time>
      </trkpt>
      <trkpt lat="37.05255" lon="-3.3697">
        <ele>3222.4</ele>
        <time>2021-08-05 16:29:40</time>
      </trkpt>
      <trkpt lat="37.05256" lon="-3.3697">
        <ele>3222.4</ele>
        <time>2021-08-05 16:29:41</time>
      </trkpt>
      <trkpt lat="37.05256" lon="-3.36971">
        <ele>3222.4</ele>
        <time>2021-08-05 16:29:42</time>
      </trkpt>
      <trkpt lat="37.05256" lon="-3.36971">
        <ele>3222.4</ele>
        <time>2021-08-05 16:29:43</time>
      </trkpt>
      <trkpt lat="37.05256" lon="-3.3697">
        <ele>3222.4</ele>
        <time>2021-08-05 16:29:44</time>
      </trkpt>
      <trkpt lat="37.05257" lon="-3.3697">
        <ele>3222.4</ele>
        <time>2021-08-05 16:29:45</time>
      </trkpt>
      <trkpt lat="37.05257" lon="-3.3697">
        <ele>3222.2</ele>
        <time>2021-08-05 16:29:46</time>
      </trkpt>
      <trkpt lat="37.05258" lon="-3.3697">
        <ele>3222.4</ele>
        <time>2021-08-05 16:29:47</time>
      </trkpt>
      <trkpt lat="37.05258" lon="-3.36969">
        <ele>3222.4</ele>
        <time>2021-08-05 16:29:48</time>
      </trkpt>
      <trkpt lat="37.05258" lon="-3.36969">
        <ele>3222.4</ele>
        <time>2021-08-05 16:29:49</time>
      </trkpt>
      <trkpt lat="37.05257" lon="-3.36968">
        <ele>3222.2</ele>
        <time>2021-08-05 16:29:50</time>
      </trkpt>
      <trkpt lat="37.05257" lon="-3.36968">
        <ele>3222.2</ele>
        <time>2021-08-05 16:29:51</time>
      </trkpt>
      <trkpt lat="37.05256" lon="-3.36967">
        <ele>3222.2</ele>
        <time>2021-08-05 16:29:52</time>
      </trkpt>
      <trkpt lat="37.05256" lon="-3.36969">
        <ele>3222</ele>
        <time>2021-08-05 16:29:53</time>
      </trkpt>
      <trkpt lat="37.05256" lon="-3.36969">
        <ele>3222</ele>
        <time>2021-08-05 16:29:54</time>
      </trkpt>
      <trkpt lat="37.05256" lon="-3.36969">
        <ele>3222</ele>
        <time>2021-08-05 16:29:55</time>
      </trkpt>
      <trkpt lat="37.05257" lon="-3.3697">
        <ele>3222</ele>
        <time>2021-08-05 16:29:56</time>
      </trkpt>
      <trkpt lat="37.05257" lon="-3.3697">
        <ele>3222</ele>
        <time>2021-08-05 16:29:57</time>
      </trkpt>
      <trkpt lat="37.05257" lon="-3.36969">
        <ele>3222</ele>
        <time>2021-08-05 16:29:58</time>
      </trkpt>
      <trkpt lat="37.05256" lon="-3.36969">
        <ele>3222</ele>
        <time>2021-08-05 16:29:59</time>
      </trkpt>
      <trkpt lat="37.05256" lon="-3.36968">
        <ele>3222</ele>
        <time>2021-08-05 16:30:00</time>
      </trkpt>
      <trkpt lat="37.05256" lon="-3.36968">
        <ele>3222</ele>
        <time>2021-08-05 16:30:01</time>
      </trkpt>
      <trkpt lat="37.05256" lon="-3.36968">
        <ele>3222</ele>
        <time>2021-08-05 16:30:02</time>
      </trkpt>
      <trkpt lat="37.05256" lon="-3.36968">
        <ele>3222.2</ele>
        <time>2021-08-05 16:30:03</time>
      </trkpt>
      <trkpt lat="37.05256" lon="-3.36968">
        <ele>3222.2</ele>
        <time>2021-08-05 16:30:04</time>
      </trkpt>
      <trkpt lat="37.05255" lon="-3.36968">
        <ele>3222.4</ele>
        <time>2021-08-05 16:30:05</time>
      </trkpt>
      <trkpt lat="37.05255" lon="-3.36967">
        <ele>3222.2</ele>
        <time>2021-08-05 16:30:06</time>
      </trkpt>
      <trkpt lat="37.05255" lon="-3.36967">
        <ele>3222.4</ele>
        <time>2021-08-05 16:30:07</time>
      </trkpt>
      <trkpt lat="37.05254" lon="-3.36967">
        <ele>3222.4</ele>
        <time>2021-08-05 16:30:08</time>
      </trkpt>
      <trkpt lat="37.05255" lon="-3.36968">
        <ele>3222.4</ele>
        <time>2021-08-05 16:30:09</time>
      </trkpt>
      <trkpt lat="37.05255" lon="-3.36968">
        <ele>3222.4</ele>
        <time>2021-08-05 16:30:10</time>
      </trkpt>
      <trkpt lat="37.05255" lon="-3.36968">
        <ele>3222.2</ele>
        <time>2021-08-05 16:30:11</time>
      </trkpt>
      <trkpt lat="37.05255" lon="-3.36968">
        <ele>3222.2</ele>
        <time>2021-08-05 16:30:12</time>
      </trkpt>
      <trkpt lat="37.05255" lon="-3.36968">
        <ele>3222.2</ele>
        <time>2021-08-05 16:30:13</time>
      </trkpt>
      <trkpt lat="37.05255" lon="-3.36968">
        <ele>3222.2</ele>
        <time>2021-08-05 16:30:14</time>
      </trkpt>
      <trkpt lat="37.05255" lon="-3.36968">
        <ele>3222</ele>
        <time>2021-08-05 16:30:15</time>
      </trkpt>
      <trkpt lat="37.05256" lon="-3.36968">
        <ele>3222</ele>
        <time>2021-08-05 16:30:16</time>
      </trkpt>
      <trkpt lat="37.05255" lon="-3.36967">
        <ele>3221.8</ele>
        <time>2021-08-05 16:30:17</time>
      </trkpt>
      <trkpt lat="37.05255" lon="-3.36967">
        <ele>3221.8</ele>
        <time>2021-08-05 16:30:18</time>
      </trkpt>
      <trkpt lat="37.05255" lon="-3.36966">
        <ele>3221.8</ele>
        <time>2021-08-05 16:30:19</time>
      </trkpt>
      <trkpt lat="37.05255" lon="-3.36966">
        <ele>3221.8</ele>
        <time>2021-08-05 16:30:20</time>
      </trkpt>
      <trkpt lat="37.05255" lon="-3.36965">
        <ele>3221.8</ele>
        <time>2021-08-05 16:30:21</time>
      </trkpt>
      <trkpt lat="37.05255" lon="-3.36965">
        <ele>3221.8</ele>
        <time>2021-08-05 16:30:22</time>
      </trkpt>
      <trkpt lat="37.05255" lon="-3.36964">
        <ele>3221.8</ele>
        <time>2021-08-05 16:30:23</time>
      </trkpt>
      <trkpt lat="37.05255" lon="-3.36963">
        <ele>3222</ele>
        <time>2021-08-05 16:30:24</time>
      </trkpt>
      <trkpt lat="37.05255" lon="-3.36963">
        <ele>3222.2</ele>
        <time>2021-08-05 16:30:25</time>
      </trkpt>
      <trkpt lat="37.05255" lon="-3.36962">
        <ele>3222.4</ele>
        <time>2021-08-05 16:30:26</time>
      </trkpt>
      <trkpt lat="37.05255" lon="-3.36961">
        <ele>3222.8</ele>
        <time>2021-08-05 16:30:27</time>
      </trkpt>
      <trkpt lat="37.05255" lon="-3.36961">
        <ele>3223</ele>
        <time>2021-08-05 16:30:28</time>
      </trkpt>
      <trkpt lat="37.05255" lon="-3.3696">
        <ele>3223.2</ele>
        <time>2021-08-05 16:30:29</time>
      </trkpt>
      <trkpt lat="37.05254" lon="-3.3696">
        <ele>3223.2</ele>
        <time>2021-08-05 16:30:30</time>
      </trkpt>
      <trkpt lat="37.05255" lon="-3.3696">
        <ele>3223.2</ele>
        <time>2021-08-05 16:30:31</time>
      </trkpt>
      <trkpt lat="37.05254" lon="-3.3696">
        <ele>3223.2</ele>
        <time>2021-08-05 16:30:32</time>
      </trkpt>
      <trkpt lat="37.05254" lon="-3.3696">
        <ele>3223.2</ele>
        <time>2021-08-05 16:30:33</time>
      </trkpt>
      <trkpt lat="37.05254" lon="-3.3696">
        <ele>3223</ele>
        <time>2021-08-05 16:30:34</time>
      </trkpt>
      <trkpt lat="37.05254" lon="-3.3696">
        <ele>3223</ele>
        <time>2021-08-05 16:30:35</time>
      </trkpt>
      <trkpt lat="37.05253" lon="-3.3696">
        <ele>3223</ele>
        <time>2021-08-05 16:30:36</time>
      </trkpt>
      <trkpt lat="37.05253" lon="-3.36961">
        <ele>3223</ele>
        <time>2021-08-05 16:30:37</time>
      </trkpt>
      <trkpt lat="37.05253" lon="-3.36961">
        <ele>3223.2</ele>
        <time>2021-08-05 16:30:38</time>
      </trkpt>
      <trkpt lat="37.05253" lon="-3.36961">
        <ele>3223.2</ele>
        <time>2021-08-05 16:30:39</time>
      </trkpt>
      <trkpt lat="37.05253" lon="-3.36962">
        <ele>3223.4</ele>
        <time>2021-08-05 16:30:40</time>
      </trkpt>
      <trkpt lat="37.05253" lon="-3.36962">
        <ele>3223.4</ele>
        <time>2021-08-05 16:30:41</time>
      </trkpt>
      <trkpt lat="37.05253" lon="-3.36962">
        <ele>3223.6</ele>
        <time>2021-08-05 16:30:42</time>
      </trkpt>
      <trkpt lat="37.05253" lon="-3.36963">
        <ele>3223.6</ele>
        <time>2021-08-05 16:30:43</time>
      </trkpt>
      <trkpt lat="37.05253" lon="-3.36963">
        <ele>3223.6</ele>
        <time>2021-08-05 16:30:44</time>
      </trkpt>
      <trkpt lat="37.05254" lon="-3.36963">
        <ele>3223.6</ele>
        <time>2021-08-05 16:30:45</time>
      </trkpt>
      <trkpt lat="37.05254" lon="-3.36963">
        <ele>3223.6</ele>
        <time>2021-08-05 16:30:46</time>
      </trkpt>
      <trkpt lat="37.05255" lon="-3.36962">
        <ele>3223.6</ele>
        <time>2021-08-05 16:30:47</time>
      </trkpt>
      <trkpt lat="37.05255" lon="-3.36962">
        <ele>3223.6</ele>
        <time>2021-08-05 16:30:48</time>
      </trkpt>
      <trkpt lat="37.05255" lon="-3.36961">
        <ele>3223.6</ele>
        <time>2021-08-05 16:30:49</time>
      </trkpt>
      <trkpt lat="37.05255" lon="-3.36959">
        <ele>3223.6</ele>
        <time>2021-08-05 16:30:50</time>
      </trkpt>
      <trkpt lat="37.05255" lon="-3.36959">
        <ele>3223.4</ele>
        <time>2021-08-05 16:30:51</time>
      </trkpt>
      <trkpt lat="37.05255" lon="-3.36958">
        <ele>3223.4</ele>
        <time>2021-08-05 16:30:52</time>
      </trkpt>
      <trkpt lat="37.05255" lon="-3.36957">
        <ele>3223.4</ele>
        <time>2021-08-05 16:30:53</time>
      </trkpt>
      <trkpt lat="37.05256" lon="-3.36957">
        <ele>3223.4</ele>
        <time>2021-08-05 16:30:54</time>
      </trkpt>
      <trkpt lat="37.05256" lon="-3.36956">
        <ele>3223.4</ele>
        <time>2021-08-05 16:30:55</time>
      </trkpt>
      <trkpt lat="37.05256" lon="-3.36956">
        <ele>3223.4</ele>
        <time>2021-08-05 16:30:56</time>
      </trkpt>
      <trkpt lat="37.05254" lon="-3.36956">
        <ele>3223.4</ele>
        <time>2021-08-05 16:30:57</time>
      </trkpt>
      <trkpt lat="37.05254" lon="-3.36956">
        <ele>3223.4</ele>
        <time>2021-08-05 16:30:58</time>
      </trkpt>
      <trkpt lat="37.05254" lon="-3.36955">
        <ele>3223.4</ele>
        <time>2021-08-05 16:30:59</time>
      </trkpt>
      <trkpt lat="37.05254" lon="-3.36955">
        <ele>3223.4</ele>
        <time>2021-08-05 16:31:00</time>
      </trkpt>
      <trkpt lat="37.05255" lon="-3.36954">
        <ele>3223.4</ele>
        <time>2021-08-05 16:31:01</time>
      </trkpt>
      <trkpt lat="37.05254" lon="-3.36954">
        <ele>3223.6</ele>
        <time>2021-08-05 16:31:02</time>
      </trkpt>
      <trkpt lat="37.05254" lon="-3.36953">
        <ele>3223.8</ele>
        <time>2021-08-05 16:31:03</time>
      </trkpt>
      <trkpt lat="37.05253" lon="-3.36953">
        <ele>3223.8</ele>
        <time>2021-08-05 16:31:04</time>
      </trkpt>
      <trkpt lat="37.05253" lon="-3.36953">
        <ele>3223.8</ele>
        <time>2021-08-05 16:31:05</time>
      </trkpt>
      <trkpt lat="37.05253" lon="-3.36953">
        <ele>3223.8</ele>
        <time>2021-08-05 16:31:06</time>
      </trkpt>
      <trkpt lat="37.05253" lon="-3.36952">
        <ele>3224</ele>
        <time>2021-08-05 16:31:07</time>
      </trkpt>
      <trkpt lat="37.05253" lon="-3.36951">
        <ele>3224</ele>
        <time>2021-08-05 16:31:08</time>
      </trkpt>
      <trkpt lat="37.05255" lon="-3.36951">
        <ele>3224.2</ele>
        <time>2021-08-05 16:31:09</time>
      </trkpt>
      <trkpt lat="37.05255" lon="-3.3695">
        <ele>3224.4</ele>
        <time>2021-08-05 16:31:10</time>
      </trkpt>
      <trkpt lat="37.05258" lon="-3.36951">
        <ele>3224.6</ele>
        <time>2021-08-05 16:31:11</time>
      </trkpt>
      <trkpt lat="37.05259" lon="-3.3695">
        <ele>3224.6</ele>
        <time>2021-08-05 16:31:12</time>
      </trkpt>
      <trkpt lat="37.05259" lon="-3.3695">
        <ele>3224.8</ele>
        <time>2021-08-05 16:31:13</time>
      </trkpt>
      <trkpt lat="37.05259" lon="-3.36949">
        <ele>3224.8</ele>
        <time>2021-08-05 16:31:14</time>
      </trkpt>
      <trkpt lat="37.05259" lon="-3.36948">
        <ele>3224.8</ele>
        <time>2021-08-05 16:31:15</time>
      </trkpt>
      <trkpt lat="37.05258" lon="-3.36948">
        <ele>3224.8</ele>
        <time>2021-08-05 16:31:16</time>
      </trkpt>
      <trkpt lat="37.05258" lon="-3.36948">
        <ele>3224.8</ele>
        <time>2021-08-05 16:31:17</time>
      </trkpt>
      <trkpt lat="37.05257" lon="-3.36947">
        <ele>3224.8</ele>
        <time>2021-08-05 16:31:18</time>
      </trkpt>
      <trkpt lat="37.05257" lon="-3.36947">
        <ele>3224.8</ele>
        <time>2021-08-05 16:31:19</time>
      </trkpt>
      <trkpt lat="37.05257" lon="-3.36946">
        <ele>3224.8</ele>
        <time>2021-08-05 16:31:20</time>
      </trkpt>
      <trkpt lat="37.05257" lon="-3.36945">
        <ele>3225</ele>
        <time>2021-08-05 16:31:21</time>
      </trkpt>
      <trkpt lat="37.05257" lon="-3.36945">
        <ele>3225</ele>
        <time>2021-08-05 16:31:22</time>
      </trkpt>
      <trkpt lat="37.05256" lon="-3.36944">
        <ele>3225.2</ele>
        <time>2021-08-05 16:31:23</time>
      </trkpt>
      <trkpt lat="37.05256" lon="-3.36944">
        <ele>3225.2</ele>
        <time>2021-08-05 16:31:24</time>
      </trkpt>
      <trkpt lat="37.05255" lon="-3.36944">
        <ele>3225.4</ele>
        <time>2021-08-05 16:31:25</time>
      </trkpt>
      <trkpt lat="37.05255" lon="-3.36943">
        <ele>3225.2</ele>
        <time>2021-08-05 16:31:26</time>
      </trkpt>
      <trkpt lat="37.05254" lon="-3.36943">
        <ele>3225</ele>
        <time>2021-08-05 16:31:27</time>
      </trkpt>
      <trkpt lat="37.05254" lon="-3.36942">
        <ele>3225.2</ele>
        <time>2021-08-05 16:31:28</time>
      </trkpt>
      <trkpt lat="37.05254" lon="-3.36942">
        <ele>3225.4</ele>
        <time>2021-08-05 16:31:29</time>
      </trkpt>
      <trkpt lat="37.05254" lon="-3.36941">
        <ele>3225.4</ele>
        <time>2021-08-05 16:31:30</time>
      </trkpt>
      <trkpt lat="37.05254" lon="-3.3694">
        <ele>3225.4</ele>
        <time>2021-08-05 16:31:31</time>
      </trkpt>
      <trkpt lat="37.05255" lon="-3.3694">
        <ele>3225.4</ele>
        <time>2021-08-05 16:31:32</time>
      </trkpt>
      <trkpt lat="37.05255" lon="-3.36939">
        <ele>3225.4</ele>
        <time>2021-08-05 16:31:33</time>
      </trkpt>
      <trkpt lat="37.05255" lon="-3.36939">
        <ele>3225.6</ele>
        <time>2021-08-05 16:31:34</time>
      </trkpt>
      <trkpt lat="37.05255" lon="-3.36939">
        <ele>3225.8</ele>
        <time>2021-08-05 16:31:35</time>
      </trkpt>
      <trkpt lat="37.05255" lon="-3.36938">
        <ele>3225.8</ele>
        <time>2021-08-05 16:31:36</time>
      </trkpt>
      <trkpt lat="37.05255" lon="-3.36937">
        <ele>3225.8</ele>
        <time>2021-08-05 16:31:37</time>
      </trkpt>
      <trkpt lat="37.05254" lon="-3.36936">
        <ele>3226</ele>
        <time>2021-08-05 16:31:38</time>
      </trkpt>
      <trkpt lat="37.05254" lon="-3.36935">
        <ele>3226</ele>
        <time>2021-08-05 16:31:39</time>
      </trkpt>
      <trkpt lat="37.05254" lon="-3.36936">
        <ele>3226</ele>
        <time>2021-08-05 16:31:40</time>
      </trkpt>
      <trkpt lat="37.05255" lon="-3.36936">
        <ele>3226.2</ele>
        <time>2021-08-05 16:31:41</time>
      </trkpt>
      <trkpt lat="37.05255" lon="-3.36936">
        <ele>3226.2</ele>
        <time>2021-08-05 16:31:42</time>
      </trkpt>
      <trkpt lat="37.05256" lon="-3.36934">
        <ele>3226.4</ele>
        <time>2021-08-05 16:31:43</time>
      </trkpt>
      <trkpt lat="37.05256" lon="-3.36934">
        <ele>3226.6</ele>
        <time>2021-08-05 16:31:44</time>
      </trkpt>
      <trkpt lat="37.05255" lon="-3.36932">
        <ele>3226.6</ele>
        <time>2021-08-05 16:31:45</time>
      </trkpt>
      <trkpt lat="37.05254" lon="-3.36932">
        <ele>3226.8</ele>
        <time>2021-08-05 16:31:46</time>
      </trkpt>
      <trkpt lat="37.05254" lon="-3.36932">
        <ele>3227</ele>
        <time>2021-08-05 16:31:47</time>
      </trkpt>
      <trkpt lat="37.05254" lon="-3.36931">
        <ele>3227</ele>
        <time>2021-08-05 16:31:48</time>
      </trkpt>
      <trkpt lat="37.05254" lon="-3.36931">
        <ele>3227.2</ele>
        <time>2021-08-05 16:31:49</time>
      </trkpt>
      <trkpt lat="37.05254" lon="-3.3693">
        <ele>3227.2</ele>
        <time>2021-08-05 16:31:50</time>
      </trkpt>
      <trkpt lat="37.05254" lon="-3.36929">
        <ele>3227.2</ele>
        <time>2021-08-05 16:31:51</time>
      </trkpt>
      <trkpt lat="37.05254" lon="-3.36929">
        <ele>3227.4</ele>
        <time>2021-08-05 16:31:52</time>
      </trkpt>
      <trkpt lat="37.05255" lon="-3.36928">
        <ele>3227.4</ele>
        <time>2021-08-05 16:31:53</time>
      </trkpt>
      <trkpt lat="37.05257" lon="-3.36928">
        <ele>3227.4</ele>
        <time>2021-08-05 16:31:54</time>
      </trkpt>
      <trkpt lat="37.05257" lon="-3.36927">
        <ele>3227.4</ele>
        <time>2021-08-05 16:31:55</time>
      </trkpt>
      <trkpt lat="37.05257" lon="-3.36927">
        <ele>3227.4</ele>
        <time>2021-08-05 16:31:56</time>
      </trkpt>
      <trkpt lat="37.05258" lon="-3.36927">
        <ele>3227.4</ele>
        <time>2021-08-05 16:31:57</time>
      </trkpt>
      <trkpt lat="37.05259" lon="-3.36928">
        <ele>3227.4</ele>
        <time>2021-08-05 16:31:58</time>
      </trkpt>
      <trkpt lat="37.05259" lon="-3.36928">
        <ele>3227.6</ele>
        <time>2021-08-05 16:31:59</time>
      </trkpt>
      <trkpt lat="37.05259" lon="-3.36927">
        <ele>3227.6</ele>
        <time>2021-08-05 16:32:00</time>
      </trkpt>
      <trkpt lat="37.05259" lon="-3.36927">
        <ele>3227.6</ele>
        <time>2021-08-05 16:32:01</time>
      </trkpt>
      <trkpt lat="37.0526" lon="-3.36926">
        <ele>3227.8</ele>
        <time>2021-08-05 16:32:02</time>
      </trkpt>
      <trkpt lat="37.0526" lon="-3.36926">
        <ele>3227.8</ele>
        <time>2021-08-05 16:32:03</time>
      </trkpt>
      <trkpt lat="37.0526" lon="-3.36926">
        <ele>3228</ele>
        <time>2021-08-05 16:32:04</time>
      </trkpt>
      <trkpt lat="37.05261" lon="-3.36925">
        <ele>3228.2</ele>
        <time>2021-08-05 16:32:05</time>
      </trkpt>
      <trkpt lat="37.05261" lon="-3.36925">
        <ele>3228.2</ele>
        <time>2021-08-05 16:32:06</time>
      </trkpt>
      <trkpt lat="37.05259" lon="-3.36925">
        <ele>3228.4</ele>
        <time>2021-08-05 16:32:07</time>
      </trkpt>
      <trkpt lat="37.05259" lon="-3.36925">
        <ele>3228.4</ele>
        <time>2021-08-05 16:32:08</time>
      </trkpt>
      <trkpt lat="37.05259" lon="-3.36924">
        <ele>3228.6</ele>
        <time>2021-08-05 16:32:09</time>
      </trkpt>
      <trkpt lat="37.0526" lon="-3.36924">
        <ele>3228.8</ele>
        <time>2021-08-05 16:32:10</time>
      </trkpt>
      <trkpt lat="37.05261" lon="-3.36924">
        <ele>3229.2</ele>
        <time>2021-08-05 16:32:11</time>
      </trkpt>
      <trkpt lat="37.05264" lon="-3.36923">
        <ele>3229.4</ele>
        <time>2021-08-05 16:32:12</time>
      </trkpt>
      <trkpt lat="37.05265" lon="-3.36922">
        <ele>3229.6</ele>
        <time>2021-08-05 16:32:13</time>
      </trkpt>
      <trkpt lat="37.05266" lon="-3.36921">
        <ele>3229.8</ele>
        <time>2021-08-05 16:32:14</time>
      </trkpt>
      <trkpt lat="37.05267" lon="-3.3692">
        <ele>3230.2</ele>
        <time>2021-08-05 16:32:15</time>
      </trkpt>
      <trkpt lat="37.05267" lon="-3.36919">
        <ele>3230.4</ele>
        <time>2021-08-05 16:32:16</time>
      </trkpt>
      <trkpt lat="37.05267" lon="-3.36919">
        <ele>3230.4</ele>
        <time>2021-08-05 16:32:17</time>
      </trkpt>
      <trkpt lat="37.05268" lon="-3.36918">
        <ele>3230.4</ele>
        <time>2021-08-05 16:32:18</time>
      </trkpt>
      <trkpt lat="37.05268" lon="-3.36918">
        <ele>3230.6</ele>
        <time>2021-08-05 16:32:19</time>
      </trkpt>
      <trkpt lat="37.05269" lon="-3.36917">
        <ele>3230.6</ele>
        <time>2021-08-05 16:32:20</time>
      </trkpt>
      <trkpt lat="37.05269" lon="-3.36915">
        <ele>3230.6</ele>
        <time>2021-08-05 16:32:21</time>
      </trkpt>
      <trkpt lat="37.05269" lon="-3.36914">
        <ele>3230.8</ele>
        <time>2021-08-05 16:32:22</time>
      </trkpt>
      <trkpt lat="37.05269" lon="-3.36913">
        <ele>3231</ele>
        <time>2021-08-05 16:32:23</time>
      </trkpt>
      <trkpt lat="37.05269" lon="-3.36911">
        <ele>3231.2</ele>
        <time>2021-08-05 16:32:24</time>
      </trkpt>
      <trkpt lat="37.05269" lon="-3.36907">
        <ele>3231.6</ele>
        <time>2021-08-05 16:32:25</time>
      </trkpt>
      <trkpt lat="37.05269" lon="-3.36906">
        <ele>3231.8</ele>
        <time>2021-08-05 16:32:26</time>
      </trkpt>
      <trkpt lat="37.05269" lon="-3.36905">
        <ele>3232</ele>
        <time>2021-08-05 16:32:27</time>
      </trkpt>
      <trkpt lat="37.05269" lon="-3.36905">
        <ele>3232</ele>
        <time>2021-08-05 16:32:28</time>
      </trkpt>
      <trkpt lat="37.05268" lon="-3.36905">
        <ele>3232.2</ele>
        <time>2021-08-05 16:32:29</time>
      </trkpt>
      <trkpt lat="37.05268" lon="-3.36905">
        <ele>3232.2</ele>
        <time>2021-08-05 16:32:30</time>
      </trkpt>
      <trkpt lat="37.05268" lon="-3.36907">
        <ele>3232.2</ele>
        <time>2021-08-05 16:32:31</time>
      </trkpt>
      <trkpt lat="37.05268" lon="-3.36908">
        <ele>3232</ele>
        <time>2021-08-05 16:32:32</time>
      </trkpt>
      <trkpt lat="37.05268" lon="-3.36909">
        <ele>3231.8</ele>
        <time>2021-08-05 16:32:33</time>
      </trkpt>
      <trkpt lat="37.05267" lon="-3.36911">
        <ele>3231.8</ele>
        <time>2021-08-05 16:32:34</time>
      </trkpt>
      <trkpt lat="37.05267" lon="-3.36911">
        <ele>3231.8</ele>
        <time>2021-08-05 16:32:35</time>
      </trkpt>
      <trkpt lat="37.05268" lon="-3.36911">
        <ele>3231.8</ele>
        <time>2021-08-05 16:32:36</time>
      </trkpt>
      <trkpt lat="37.05268" lon="-3.36911">
        <ele>3231.8</ele>
        <time>2021-08-05 16:32:37</time>
      </trkpt>
      <trkpt lat="37.05268" lon="-3.36911">
        <ele>3231.8</ele>
        <time>2021-08-05 16:32:38</time>
      </trkpt>
      <trkpt lat="37.05269" lon="-3.36911">
        <ele>3231.8</ele>
        <time>2021-08-05 16:32:39</time>
      </trkpt>
      <trkpt lat="37.05268" lon="-3.36912">
        <ele>3231.8</ele>
        <time>2021-08-05 16:32:40</time>
      </trkpt>
      <trkpt lat="37.05267" lon="-3.36912">
        <ele>3231.8</ele>
        <time>2021-08-05 16:32:41</time>
      </trkpt>
      <trkpt lat="37.05267" lon="-3.36912">
        <ele>3231.8</ele>
        <time>2021-08-05 16:32:42</time>
      </trkpt>
      <trkpt lat="37.05267" lon="-3.36912">
        <ele>3231.8</ele>
        <time>2021-08-05 16:32:43</time>
      </trkpt>
      <trkpt lat="37.05266" lon="-3.36912">
        <ele>3231.4</ele>
        <time>2021-08-05 16:32:44</time>
      </trkpt>
      <trkpt lat="37.05266" lon="-3.36912">
        <ele>3231.2</ele>
        <time>2021-08-05 16:32:45</time>
      </trkpt>
      <trkpt lat="37.05266" lon="-3.36911">
        <ele>3231.2</ele>
        <time>2021-08-05 16:32:46</time>
      </trkpt>
      <trkpt lat="37.05266" lon="-3.36911">
        <ele>3231</ele>
        <time>2021-08-05 16:32:47</time>
      </trkpt>
      <trkpt lat="37.05266" lon="-3.36911">
        <ele>3231</ele>
        <time>2021-08-05 16:32:48</time>
      </trkpt>
      <trkpt lat="37.05267" lon="-3.36911">
        <ele>3231</ele>
        <time>2021-08-05 16:32:49</time>
      </trkpt>
      <trkpt lat="37.05267" lon="-3.3691">
        <ele>3231</ele>
        <time>2021-08-05 16:32:50</time>
      </trkpt>
      <trkpt lat="37.05269" lon="-3.3691">
        <ele>3231.2</ele>
        <time>2021-08-05 16:32:51</time>
      </trkpt>
      <trkpt lat="37.0527" lon="-3.36909">
        <ele>3231.2</ele>
        <time>2021-08-05 16:32:52</time>
      </trkpt>
      <trkpt lat="37.05271" lon="-3.36909">
        <ele>3231.2</ele>
        <time>2021-08-05 16:32:53</time>
      </trkpt>
      <trkpt lat="37.05272" lon="-3.36909">
        <ele>3231.2</ele>
        <time>2021-08-05 16:32:54</time>
      </trkpt>
      <trkpt lat="37.05272" lon="-3.36908">
        <ele>3231.4</ele>
        <time>2021-08-05 16:32:55</time>
      </trkpt>
      <trkpt lat="37.05274" lon="-3.36908">
        <ele>3231.4</ele>
        <time>2021-08-05 16:32:56</time>
      </trkpt>
      <trkpt lat="37.05275" lon="-3.36907">
        <ele>3231.6</ele>
        <time>2021-08-05 16:32:57</time>
      </trkpt>
      <trkpt lat="37.05276" lon="-3.36907">
        <ele>3232</ele>
        <time>2021-08-05 16:32:58</time>
      </trkpt>
      <trkpt lat="37.05277" lon="-3.36907">
        <ele>3232.2</ele>
        <time>2021-08-05 16:32:59</time>
      </trkpt>
      <trkpt lat="37.05277" lon="-3.36907">
        <ele>3232.4</ele>
        <time>2021-08-05 16:33:00</time>
      </trkpt>
      <trkpt lat="37.05278" lon="-3.36907">
        <ele>3232.4</ele>
        <time>2021-08-05 16:33:01</time>
      </trkpt>
      <trkpt lat="37.05279" lon="-3.36907">
        <ele>3232.4</ele>
        <time>2021-08-05 16:33:02</time>
      </trkpt>
      <trkpt lat="37.0528" lon="-3.36908">
        <ele>3232.4</ele>
        <time>2021-08-05 16:33:03</time>
      </trkpt>
      <trkpt lat="37.05281" lon="-3.36908">
        <ele>3232.4</ele>
        <time>2021-08-05 16:33:04</time>
      </trkpt>
      <trkpt lat="37.05283" lon="-3.36907">
        <ele>3232.2</ele>
        <time>2021-08-05 16:33:05</time>
      </trkpt>
      <trkpt lat="37.05284" lon="-3.36908">
        <ele>3232.2</ele>
        <time>2021-08-05 16:33:06</time>
      </trkpt>
      <trkpt lat="37.05285" lon="-3.36907">
        <ele>3232.2</ele>
        <time>2021-08-05 16:33:07</time>
      </trkpt>
      <trkpt lat="37.05287" lon="-3.36907">
        <ele>3232.2</ele>
        <time>2021-08-05 16:33:08</time>
      </trkpt>
      <trkpt lat="37.05288" lon="-3.36907">
        <ele>3232.4</ele>
        <time>2021-08-05 16:33:09</time>
      </trkpt>
      <trkpt lat="37.05289" lon="-3.36906">
        <ele>3232.6</ele>
        <time>2021-08-05 16:33:10</time>
      </trkpt>
      <trkpt lat="37.0529" lon="-3.36906">
        <ele>3232.8</ele>
        <time>2021-08-05 16:33:11</time>
      </trkpt>
      <trkpt lat="37.05291" lon="-3.36906">
        <ele>3232.6</ele>
        <time>2021-08-05 16:33:12</time>
      </trkpt>
      <trkpt lat="37.05292" lon="-3.36905">
        <ele>3232.8</ele>
        <time>2021-08-05 16:33:13</time>
      </trkpt>
      <trkpt lat="37.05292" lon="-3.36906">
        <ele>3232.8</ele>
        <time>2021-08-05 16:33:14</time>
      </trkpt>
      <trkpt lat="37.05292" lon="-3.36907">
        <ele>3232.8</ele>
        <time>2021-08-05 16:33:15</time>
      </trkpt>
      <trkpt lat="37.05293" lon="-3.36907">
        <ele>3232.6</ele>
        <time>2021-08-05 16:33:16</time>
      </trkpt>
      <trkpt lat="37.05293" lon="-3.36909">
        <ele>3232.6</ele>
        <time>2021-08-05 16:33:17</time>
      </trkpt>
      <trkpt lat="37.05295" lon="-3.36909">
        <ele>3232.8</ele>
        <time>2021-08-05 16:33:18</time>
      </trkpt>
      <trkpt lat="37.05295" lon="-3.3691">
        <ele>3232.8</ele>
        <time>2021-08-05 16:33:19</time>
      </trkpt>
      <trkpt lat="37.05296" lon="-3.36909">
        <ele>3233</ele>
        <time>2021-08-05 16:33:20</time>
      </trkpt>
      <trkpt lat="37.05297" lon="-3.36905">
        <ele>3233.2</ele>
        <time>2021-08-05 16:33:21</time>
      </trkpt>
      <trkpt lat="37.05297" lon="-3.36904">
        <ele>3233.4</ele>
        <time>2021-08-05 16:33:22</time>
      </trkpt>
      <trkpt lat="37.05296" lon="-3.36903">
        <ele>3233.4</ele>
        <time>2021-08-05 16:33:23</time>
      </trkpt>
      <trkpt lat="37.05295" lon="-3.36902">
        <ele>3233.8</ele>
        <time>2021-08-05 16:33:24</time>
      </trkpt>
      <trkpt lat="37.05295" lon="-3.36902">
        <ele>3234</ele>
        <time>2021-08-05 16:33:25</time>
      </trkpt>
      <trkpt lat="37.05295" lon="-3.36901">
        <ele>3234.2</ele>
        <time>2021-08-05 16:33:26</time>
      </trkpt>
      <trkpt lat="37.05296" lon="-3.36901">
        <ele>3234.2</ele>
        <time>2021-08-05 16:33:27</time>
      </trkpt>
      <trkpt lat="37.05296" lon="-3.369">
        <ele>3234.4</ele>
        <time>2021-08-05 16:33:28</time>
      </trkpt>
      <trkpt lat="37.05296" lon="-3.36901">
        <ele>3234.4</ele>
        <time>2021-08-05 16:33:29</time>
      </trkpt>
      <trkpt lat="37.05296" lon="-3.36902">
        <ele>3234.6</ele>
        <time>2021-08-05 16:33:30</time>
      </trkpt>
      <trkpt lat="37.05297" lon="-3.36901">
        <ele>3234.6</ele>
        <time>2021-08-05 16:33:31</time>
      </trkpt>
      <trkpt lat="37.05297" lon="-3.36902">
        <ele>3234.8</ele>
        <time>2021-08-05 16:33:32</time>
      </trkpt>
      <trkpt lat="37.05297" lon="-3.36902">
        <ele>3234.8</ele>
        <time>2021-08-05 16:33:33</time>
      </trkpt>
      <trkpt lat="37.05298" lon="-3.36902">
        <ele>3234.8</ele>
        <time>2021-08-05 16:33:34</time>
      </trkpt>
      <trkpt lat="37.05299" lon="-3.36902">
        <ele>3234.8</ele>
        <time>2021-08-05 16:33:35</time>
      </trkpt>
      <trkpt lat="37.05299" lon="-3.36902">
        <ele>3235</ele>
        <time>2021-08-05 16:33:36</time>
      </trkpt>
      <trkpt lat="37.053" lon="-3.36902">
        <ele>3235</ele>
        <time>2021-08-05 16:33:37</time>
      </trkpt>
      <trkpt lat="37.053" lon="-3.36902">
        <ele>3235.2</ele>
        <time>2021-08-05 16:33:38</time>
      </trkpt>
      <trkpt lat="37.053" lon="-3.36902">
        <ele>3235.2</ele>
        <time>2021-08-05 16:33:39</time>
      </trkpt>
      <trkpt lat="37.05301" lon="-3.36902">
        <ele>3235.2</ele>
        <time>2021-08-05 16:33:40</time>
      </trkpt>
      <trkpt lat="37.05302" lon="-3.36902">
        <ele>3235.4</ele>
        <time>2021-08-05 16:33:41</time>
      </trkpt>
      <trkpt lat="37.05302" lon="-3.36902">
        <ele>3235.4</ele>
        <time>2021-08-05 16:33:42</time>
      </trkpt>
      <trkpt lat="37.05303" lon="-3.36902">
        <ele>3235.4</ele>
        <time>2021-08-05 16:33:43</time>
      </trkpt>
      <trkpt lat="37.05303" lon="-3.36904">
        <ele>3235.4</ele>
        <time>2021-08-05 16:33:44</time>
      </trkpt>
      <trkpt lat="37.05303" lon="-3.36905">
        <ele>3235.4</ele>
        <time>2021-08-05 16:33:45</time>
      </trkpt>
      <trkpt lat="37.05304" lon="-3.36905">
        <ele>3235.4</ele>
        <time>2021-08-05 16:33:46</time>
      </trkpt>
      <trkpt lat="37.05304" lon="-3.36906">
        <ele>3235.4</ele>
        <time>2021-08-05 16:33:47</time>
      </trkpt>
      <trkpt lat="37.05304" lon="-3.36905">
        <ele>3235.6</ele>
        <time>2021-08-05 16:33:48</time>
      </trkpt>
      <trkpt lat="37.05305" lon="-3.36904">
        <ele>3235.8</ele>
        <time>2021-08-05 16:33:49</time>
      </trkpt>
      <trkpt lat="37.05305" lon="-3.36904">
        <ele>3236</ele>
        <time>2021-08-05 16:33:50</time>
      </trkpt>
      <trkpt lat="37.05305" lon="-3.36903">
        <ele>3236</ele>
        <time>2021-08-05 16:33:51</time>
      </trkpt>
      <trkpt lat="37.05305" lon="-3.36903">
        <ele>3236.2</ele>
        <time>2021-08-05 16:33:52</time>
      </trkpt>
      <trkpt lat="37.05306" lon="-3.36903">
        <ele>3236.2</ele>
        <time>2021-08-05 16:33:53</time>
      </trkpt>
      <trkpt lat="37.05307" lon="-3.36902">
        <ele>3236.2</ele>
        <time>2021-08-05 16:33:54</time>
      </trkpt>
      <trkpt lat="37.05307" lon="-3.36902">
        <ele>3236.4</ele>
        <time>2021-08-05 16:33:55</time>
      </trkpt>
      <trkpt lat="37.0531" lon="-3.36902">
        <ele>3236.4</ele>
        <time>2021-08-05 16:33:56</time>
      </trkpt>
      <trkpt lat="37.0531" lon="-3.36902">
        <ele>3236.4</ele>
        <time>2021-08-05 16:33:57</time>
      </trkpt>
      <trkpt lat="37.05311" lon="-3.36901">
        <ele>3236.6</ele>
        <time>2021-08-05 16:33:58</time>
      </trkpt>
      <trkpt lat="37.0531" lon="-3.369">
        <ele>3236.6</ele>
        <time>2021-08-05 16:33:59</time>
      </trkpt>
      <trkpt lat="37.05311" lon="-3.369">
        <ele>3236.6</ele>
        <time>2021-08-05 16:34:00</time>
      </trkpt>
      <trkpt lat="37.05311" lon="-3.36901">
        <ele>3236.6</ele>
        <time>2021-08-05 16:34:01</time>
      </trkpt>
      <trkpt lat="37.05311" lon="-3.36901">
        <ele>3236.6</ele>
        <time>2021-08-05 16:34:02</time>
      </trkpt>
      <trkpt lat="37.05311" lon="-3.36901">
        <ele>3236.6</ele>
        <time>2021-08-05 16:34:03</time>
      </trkpt>
      <trkpt lat="37.05312" lon="-3.36902">
        <ele>3236.6</ele>
        <time>2021-08-05 16:34:04</time>
      </trkpt>
      <trkpt lat="37.05312" lon="-3.36903">
        <ele>3236.8</ele>
        <time>2021-08-05 16:34:05</time>
      </trkpt>
      <trkpt lat="37.05312" lon="-3.36903">
        <ele>3237</ele>
        <time>2021-08-05 16:34:06</time>
      </trkpt>
      <trkpt lat="37.05312" lon="-3.36904">
        <ele>3237.2</ele>
        <time>2021-08-05 16:34:07</time>
      </trkpt>
      <trkpt lat="37.05313" lon="-3.36903">
        <ele>3237.4</ele>
        <time>2021-08-05 16:34:08</time>
      </trkpt>
      <trkpt lat="37.05312" lon="-3.36903">
        <ele>3237.6</ele>
        <time>2021-08-05 16:34:09</time>
      </trkpt>
      <trkpt lat="37.05312" lon="-3.36903">
        <ele>3237.8</ele>
        <time>2021-08-05 16:34:10</time>
      </trkpt>
      <trkpt lat="37.05313" lon="-3.36902">
        <ele>3238</ele>
        <time>2021-08-05 16:34:11</time>
      </trkpt>
      <trkpt lat="37.05313" lon="-3.36902">
        <ele>3238.2</ele>
        <time>2021-08-05 16:34:12</time>
      </trkpt>
      <trkpt lat="37.05313" lon="-3.36902">
        <ele>3238.4</ele>
        <time>2021-08-05 16:34:13</time>
      </trkpt>
      <trkpt lat="37.05314" lon="-3.36901">
        <ele>3238.4</ele>
        <time>2021-08-05 16:34:14</time>
      </trkpt>
      <trkpt lat="37.05315" lon="-3.369">
        <ele>3238.6</ele>
        <time>2021-08-05 16:34:15</time>
      </trkpt>
      <trkpt lat="37.05316" lon="-3.36901">
        <ele>3238.8</ele>
        <time>2021-08-05 16:34:16</time>
      </trkpt>
      <trkpt lat="37.05316" lon="-3.36901">
        <ele>3238.8</ele>
        <time>2021-08-05 16:34:17</time>
      </trkpt>
      <trkpt lat="37.05316" lon="-3.36901">
        <ele>3238.8</ele>
        <time>2021-08-05 16:34:18</time>
      </trkpt>
      <trkpt lat="37.05316" lon="-3.36901">
        <ele>3238.8</ele>
        <time>2021-08-05 16:34:19</time>
      </trkpt>
      <trkpt lat="37.05316" lon="-3.36902">
        <ele>3238.8</ele>
        <time>2021-08-05 16:34:20</time>
      </trkpt>
      <trkpt lat="37.05315" lon="-3.36901">
        <ele>3239</ele>
        <time>2021-08-05 16:34:21</time>
      </trkpt>
      <trkpt lat="37.05316" lon="-3.36901">
        <ele>3239.2</ele>
        <time>2021-08-05 16:34:22</time>
      </trkpt>
      <trkpt lat="37.05316" lon="-3.36901">
        <ele>3239.4</ele>
        <time>2021-08-05 16:34:23</time>
      </trkpt>
      <trkpt lat="37.05321" lon="-3.36901">
        <ele>3239.6</ele>
        <time>2021-08-05 16:34:24</time>
      </trkpt>
      <trkpt lat="37.05324" lon="-3.369">
        <ele>3239.8</ele>
        <time>2021-08-05 16:34:25</time>
      </trkpt>
      <trkpt lat="37.05325" lon="-3.369">
        <ele>3239.8</ele>
        <time>2021-08-05 16:34:26</time>
      </trkpt>
      <trkpt lat="37.05326" lon="-3.36899">
        <ele>3239.8</ele>
        <time>2021-08-05 16:34:27</time>
      </trkpt>
      <trkpt lat="37.05327" lon="-3.36899">
        <ele>3240</ele>
        <time>2021-08-05 16:34:28</time>
      </trkpt>
      <trkpt lat="37.05328" lon="-3.36899">
        <ele>3240</ele>
        <time>2021-08-05 16:34:29</time>
      </trkpt>
      <trkpt lat="37.05328" lon="-3.36899">
        <ele>3240</ele>
        <time>2021-08-05 16:34:30</time>
      </trkpt>
      <trkpt lat="37.05328" lon="-3.36899">
        <ele>3240</ele>
        <time>2021-08-05 16:34:31</time>
      </trkpt>
      <trkpt lat="37.05328" lon="-3.369">
        <ele>3240.2</ele>
        <time>2021-08-05 16:34:32</time>
      </trkpt>
      <trkpt lat="37.05328" lon="-3.369">
        <ele>3240.2</ele>
        <time>2021-08-05 16:34:33</time>
      </trkpt>
      <trkpt lat="37.05328" lon="-3.369">
        <ele>3240.4</ele>
        <time>2021-08-05 16:34:34</time>
      </trkpt>
      <trkpt lat="37.05329" lon="-3.369">
        <ele>3240.6</ele>
        <time>2021-08-05 16:34:35</time>
      </trkpt>
      <trkpt lat="37.05329" lon="-3.369">
        <ele>3240.6</ele>
        <time>2021-08-05 16:34:36</time>
      </trkpt>
      <trkpt lat="37.05329" lon="-3.369">
        <ele>3240.8</ele>
        <time>2021-08-05 16:34:37</time>
      </trkpt>
      <trkpt lat="37.05329" lon="-3.369">
        <ele>3241</ele>
        <time>2021-08-05 16:34:38</time>
      </trkpt>
      <trkpt lat="37.0533" lon="-3.36899">
        <ele>3241.2</ele>
        <time>2021-08-05 16:34:39</time>
      </trkpt>
      <trkpt lat="37.05331" lon="-3.36899">
        <ele>3241.4</ele>
        <time>2021-08-05 16:34:40</time>
      </trkpt>
      <trkpt lat="37.05331" lon="-3.36898">
        <ele>3241.4</ele>
        <time>2021-08-05 16:34:41</time>
      </trkpt>
      <trkpt lat="37.05332" lon="-3.36898">
        <ele>3241.4</ele>
        <time>2021-08-05 16:34:42</time>
      </trkpt>
      <trkpt lat="37.0533" lon="-3.36898">
        <ele>3241.6</ele>
        <time>2021-08-05 16:34:43</time>
      </trkpt>
      <trkpt lat="37.0533" lon="-3.36898">
        <ele>3241.6</ele>
        <time>2021-08-05 16:34:44</time>
      </trkpt>
      <trkpt lat="37.0533" lon="-3.36897">
        <ele>3241.6</ele>
        <time>2021-08-05 16:34:45</time>
      </trkpt>
      <trkpt lat="37.05331" lon="-3.36897">
        <ele>3241.8</ele>
        <time>2021-08-05 16:34:46</time>
      </trkpt>
      <trkpt lat="37.05331" lon="-3.36896">
        <ele>3241.8</ele>
        <time>2021-08-05 16:34:47</time>
      </trkpt>
      <trkpt lat="37.05332" lon="-3.36896">
        <ele>3242</ele>
        <time>2021-08-05 16:34:48</time>
      </trkpt>
      <trkpt lat="37.05332" lon="-3.36896">
        <ele>3242</ele>
        <time>2021-08-05 16:34:49</time>
      </trkpt>
      <trkpt lat="37.05333" lon="-3.36896">
        <ele>3242.2</ele>
        <time>2021-08-05 16:34:50</time>
      </trkpt>
      <trkpt lat="37.05333" lon="-3.36896">
        <ele>3242.4</ele>
        <time>2021-08-05 16:34:51</time>
      </trkpt>
      <trkpt lat="37.05334" lon="-3.36894">
        <ele>3242.6</ele>
        <time>2021-08-05 16:34:52</time>
      </trkpt>
      <trkpt lat="37.05334" lon="-3.36894">
        <ele>3242.6</ele>
        <time>2021-08-05 16:34:53</time>
      </trkpt>
      <trkpt lat="37.05336" lon="-3.36894">
        <ele>3242.6</ele>
        <time>2021-08-05 16:34:54</time>
      </trkpt>
      <trkpt lat="37.05338" lon="-3.36893">
        <ele>3242.8</ele>
        <time>2021-08-05 16:34:55</time>
      </trkpt>
      <trkpt lat="37.05339" lon="-3.36893">
        <ele>3242.8</ele>
        <time>2021-08-05 16:34:56</time>
      </trkpt>
      <trkpt lat="37.05341" lon="-3.36887">
        <ele>3242.8</ele>
        <time>2021-08-05 16:34:57</time>
      </trkpt>
      <trkpt lat="37.05342" lon="-3.36886">
        <ele>3242.8</ele>
        <time>2021-08-05 16:34:58</time>
      </trkpt>
      <trkpt lat="37.05343" lon="-3.36885">
        <ele>3242.8</ele>
        <time>2021-08-05 16:34:59</time>
      </trkpt>
      <trkpt lat="37.05342" lon="-3.36885">
        <ele>3243</ele>
        <time>2021-08-05 16:35:00</time>
      </trkpt>
      <trkpt lat="37.05342" lon="-3.36884">
        <ele>3243</ele>
        <time>2021-08-05 16:35:01</time>
      </trkpt>
      <trkpt lat="37.05341" lon="-3.36885">
        <ele>3243</ele>
        <time>2021-08-05 16:35:02</time>
      </trkpt>
      <trkpt lat="37.05341" lon="-3.36884">
        <ele>3243.2</ele>
        <time>2021-08-05 16:35:03</time>
      </trkpt>
      <trkpt lat="37.05341" lon="-3.36884">
        <ele>3243.2</ele>
        <time>2021-08-05 16:35:04</time>
      </trkpt>
      <trkpt lat="37.05341" lon="-3.36885">
        <ele>3243.4</ele>
        <time>2021-08-05 16:35:05</time>
      </trkpt>
      <trkpt lat="37.05341" lon="-3.36884">
        <ele>3243.4</ele>
        <time>2021-08-05 16:35:06</time>
      </trkpt>
      <trkpt lat="37.05341" lon="-3.36884">
        <ele>3243.4</ele>
        <time>2021-08-05 16:35:07</time>
      </trkpt>
      <trkpt lat="37.0534" lon="-3.36883">
        <ele>3243.8</ele>
        <time>2021-08-05 16:35:08</time>
      </trkpt>
      <trkpt lat="37.0534" lon="-3.36882">
        <ele>3244</ele>
        <time>2021-08-05 16:35:09</time>
      </trkpt>
      <trkpt lat="37.05339" lon="-3.36881">
        <ele>3244.2</ele>
        <time>2021-08-05 16:35:10</time>
      </trkpt>
      <trkpt lat="37.05339" lon="-3.3688">
        <ele>3244.2</ele>
        <time>2021-08-05 16:35:11</time>
      </trkpt>
      <trkpt lat="37.05339" lon="-3.3688">
        <ele>3244.2</ele>
        <time>2021-08-05 16:35:12</time>
      </trkpt>
      <trkpt lat="37.05339" lon="-3.3688">
        <ele>3244.4</ele>
        <time>2021-08-05 16:35:13</time>
      </trkpt>
      <trkpt lat="37.0534" lon="-3.36879">
        <ele>3244.2</ele>
        <time>2021-08-05 16:35:14</time>
      </trkpt>
      <trkpt lat="37.0534" lon="-3.36879">
        <ele>3244.2</ele>
        <time>2021-08-05 16:35:15</time>
      </trkpt>
      <trkpt lat="37.0534" lon="-3.36879">
        <ele>3244.2</ele>
        <time>2021-08-05 16:35:16</time>
      </trkpt>
      <trkpt lat="37.05339" lon="-3.36878">
        <ele>3244.2</ele>
        <time>2021-08-05 16:35:17</time>
      </trkpt>
      <trkpt lat="37.05338" lon="-3.36878">
        <ele>3244.4</ele>
        <time>2021-08-05 16:35:18</time>
      </trkpt>
      <trkpt lat="37.05338" lon="-3.36878">
        <ele>3244.4</ele>
        <time>2021-08-05 16:35:19</time>
      </trkpt>
      <trkpt lat="37.05338" lon="-3.36877">
        <ele>3244.4</ele>
        <time>2021-08-05 16:35:20</time>
      </trkpt>
      <trkpt lat="37.05338" lon="-3.36876">
        <ele>3244.4</ele>
        <time>2021-08-05 16:35:21</time>
      </trkpt>
      <trkpt lat="37.05338" lon="-3.36876">
        <ele>3244.4</ele>
        <time>2021-08-05 16:35:22</time>
      </trkpt>
      <trkpt lat="37.05339" lon="-3.36875">
        <ele>3244.4</ele>
        <time>2021-08-05 16:35:23</time>
      </trkpt>
      <trkpt lat="37.05339" lon="-3.36875">
        <ele>3244.4</ele>
        <time>2021-08-05 16:35:24</time>
      </trkpt>
      <trkpt lat="37.0534" lon="-3.36874">
        <ele>3244.4</ele>
        <time>2021-08-05 16:35:25</time>
      </trkpt>
      <trkpt lat="37.05341" lon="-3.36874">
        <ele>3244.4</ele>
        <time>2021-08-05 16:35:26</time>
      </trkpt>
      <trkpt lat="37.05341" lon="-3.36873">
        <ele>3244.4</ele>
        <time>2021-08-05 16:35:27</time>
      </trkpt>
      <trkpt lat="37.05341" lon="-3.36872">
        <ele>3244.6</ele>
        <time>2021-08-05 16:35:28</time>
      </trkpt>
      <trkpt lat="37.05342" lon="-3.36872">
        <ele>3244.6</ele>
        <time>2021-08-05 16:35:29</time>
      </trkpt>
      <trkpt lat="37.05343" lon="-3.36871">
        <ele>3244.6</ele>
        <time>2021-08-05 16:35:30</time>
      </trkpt>
      <trkpt lat="37.05343" lon="-3.36871">
        <ele>3244.8</ele>
        <time>2021-08-05 16:35:31</time>
      </trkpt>
      <trkpt lat="37.05343" lon="-3.3687">
        <ele>3244.8</ele>
        <time>2021-08-05 16:35:32</time>
      </trkpt>
      <trkpt lat="37.05343" lon="-3.3687">
        <ele>3244.8</ele>
        <time>2021-08-05 16:35:33</time>
      </trkpt>
      <trkpt lat="37.05343" lon="-3.3687">
        <ele>3244.8</ele>
        <time>2021-08-05 16:35:34</time>
      </trkpt>
      <trkpt lat="37.05343" lon="-3.36871">
        <ele>3245</ele>
        <time>2021-08-05 16:35:35</time>
      </trkpt>
      <trkpt lat="37.05344" lon="-3.36871">
        <ele>3245.2</ele>
        <time>2021-08-05 16:35:36</time>
      </trkpt>
      <trkpt lat="37.05344" lon="-3.3687">
        <ele>3245.4</ele>
        <time>2021-08-05 16:35:37</time>
      </trkpt>
      <trkpt lat="37.05344" lon="-3.3687">
        <ele>3245.6</ele>
        <time>2021-08-05 16:35:38</time>
      </trkpt>
      <trkpt lat="37.05345" lon="-3.3687">
        <ele>3245.6</ele>
        <time>2021-08-05 16:35:39</time>
      </trkpt>
      <trkpt lat="37.05345" lon="-3.3687">
        <ele>3245.8</ele>
        <time>2021-08-05 16:35:40</time>
      </trkpt>
      <trkpt lat="37.05346" lon="-3.3687">
        <ele>3245.8</ele>
        <time>2021-08-05 16:35:41</time>
      </trkpt>
      <trkpt lat="37.05346" lon="-3.36869">
        <ele>3245.8</ele>
        <time>2021-08-05 16:35:42</time>
      </trkpt>
      <trkpt lat="37.05347" lon="-3.36867">
        <ele>3246</ele>
        <time>2021-08-05 16:35:43</time>
      </trkpt>
      <trkpt lat="37.05347" lon="-3.36867">
        <ele>3246</ele>
        <time>2021-08-05 16:35:44</time>
      </trkpt>
      <trkpt lat="37.05349" lon="-3.36867">
        <ele>3246</ele>
        <time>2021-08-05 16:35:45</time>
      </trkpt>
      <trkpt lat="37.05349" lon="-3.36866">
        <ele>3246.2</ele>
        <time>2021-08-05 16:35:46</time>
      </trkpt>
      <trkpt lat="37.05349" lon="-3.36866">
        <ele>3246.4</ele>
        <time>2021-08-05 16:35:47</time>
      </trkpt>
      <trkpt lat="37.05349" lon="-3.36865">
        <ele>3246.4</ele>
        <time>2021-08-05 16:35:48</time>
      </trkpt>
      <trkpt lat="37.05348" lon="-3.36865">
        <ele>3246.4</ele>
        <time>2021-08-05 16:35:49</time>
      </trkpt>
      <trkpt lat="37.05348" lon="-3.36865">
        <ele>3246.4</ele>
        <time>2021-08-05 16:35:50</time>
      </trkpt>
      <trkpt lat="37.05348" lon="-3.36865">
        <ele>3246.4</ele>
        <time>2021-08-05 16:35:51</time>
      </trkpt>
      <trkpt lat="37.05348" lon="-3.36865">
        <ele>3246.6</ele>
        <time>2021-08-05 16:35:52</time>
      </trkpt>
      <trkpt lat="37.05348" lon="-3.36862">
        <ele>3246.8</ele>
        <time>2021-08-05 16:35:53</time>
      </trkpt>
      <trkpt lat="37.05348" lon="-3.36861">
        <ele>3246.8</ele>
        <time>2021-08-05 16:35:54</time>
      </trkpt>
      <trkpt lat="37.05348" lon="-3.36859">
        <ele>3247.2</ele>
        <time>2021-08-05 16:35:55</time>
      </trkpt>
      <trkpt lat="37.05349" lon="-3.36859">
        <ele>3247.6</ele>
        <time>2021-08-05 16:35:56</time>
      </trkpt>
      <trkpt lat="37.0535" lon="-3.36859">
        <ele>3247.8</ele>
        <time>2021-08-05 16:35:57</time>
      </trkpt>
      <trkpt lat="37.05351" lon="-3.36859">
        <ele>3248</ele>
        <time>2021-08-05 16:35:58</time>
      </trkpt>
      <trkpt lat="37.05351" lon="-3.36859">
        <ele>3248.2</ele>
        <time>2021-08-05 16:35:59</time>
      </trkpt>
      <trkpt lat="37.05352" lon="-3.3686">
        <ele>3248.2</ele>
        <time>2021-08-05 16:36:00</time>
      </trkpt>
      <trkpt lat="37.05353" lon="-3.3686">
        <ele>3248.2</ele>
        <time>2021-08-05 16:36:01</time>
      </trkpt>
      <trkpt lat="37.05354" lon="-3.3686">
        <ele>3248.4</ele>
        <time>2021-08-05 16:36:02</time>
      </trkpt>
      <trkpt lat="37.05355" lon="-3.3686">
        <ele>3248.4</ele>
        <time>2021-08-05 16:36:03</time>
      </trkpt>
      <trkpt lat="37.05356" lon="-3.36859">
        <ele>3248.4</ele>
        <time>2021-08-05 16:36:04</time>
      </trkpt>
      <trkpt lat="37.05357" lon="-3.3686">
        <ele>3248.4</ele>
        <time>2021-08-05 16:36:05</time>
      </trkpt>
      <trkpt lat="37.05357" lon="-3.36861">
        <ele>3248.6</ele>
        <time>2021-08-05 16:36:06</time>
      </trkpt>
      <trkpt lat="37.05357" lon="-3.36862">
        <ele>3249</ele>
        <time>2021-08-05 16:36:07</time>
      </trkpt>
      <trkpt lat="37.05357" lon="-3.36863">
        <ele>3249.2</ele>
        <time>2021-08-05 16:36:08</time>
      </trkpt>
      <trkpt lat="37.05357" lon="-3.36862">
        <ele>3249.4</ele>
        <time>2021-08-05 16:36:09</time>
      </trkpt>
      <trkpt lat="37.05358" lon="-3.36862">
        <ele>3249.4</ele>
        <time>2021-08-05 16:36:10</time>
      </trkpt>
      <trkpt lat="37.05358" lon="-3.36861">
        <ele>3249.4</ele>
        <time>2021-08-05 16:36:11</time>
      </trkpt>
      <trkpt lat="37.05357" lon="-3.36861">
        <ele>3249.4</ele>
        <time>2021-08-05 16:36:12</time>
      </trkpt>
      <trkpt lat="37.05356" lon="-3.36859">
        <ele>3249.8</ele>
        <time>2021-08-05 16:36:13</time>
      </trkpt>
      <trkpt lat="37.05355" lon="-3.36858">
        <ele>3250</ele>
        <time>2021-08-05 16:36:14</time>
      </trkpt>
      <trkpt lat="37.05355" lon="-3.36857">
        <ele>3250.2</ele>
        <time>2021-08-05 16:36:15</time>
      </trkpt>
      <trkpt lat="37.05355" lon="-3.36856">
        <ele>3250.2</ele>
        <time>2021-08-05 16:36:16</time>
      </trkpt>
      <trkpt lat="37.05356" lon="-3.36856">
        <ele>3250.2</ele>
        <time>2021-08-05 16:36:17</time>
      </trkpt>
      <trkpt lat="37.05357" lon="-3.36856">
        <ele>3250.4</ele>
        <time>2021-08-05 16:36:18</time>
      </trkpt>
      <trkpt lat="37.05357" lon="-3.36855">
        <ele>3250.4</ele>
        <time>2021-08-05 16:36:19</time>
      </trkpt>
      <trkpt lat="37.05358" lon="-3.36854">
        <ele>3250.4</ele>
        <time>2021-08-05 16:36:20</time>
      </trkpt>
      <trkpt lat="37.05359" lon="-3.36853">
        <ele>3250.4</ele>
        <time>2021-08-05 16:36:21</time>
      </trkpt>
      <trkpt lat="37.0536" lon="-3.36852">
        <ele>3250.4</ele>
        <time>2021-08-05 16:36:22</time>
      </trkpt>
      <trkpt lat="37.05361" lon="-3.36851">
        <ele>3250.6</ele>
        <time>2021-08-05 16:36:23</time>
      </trkpt>
      <trkpt lat="37.05361" lon="-3.3685">
        <ele>3250.6</ele>
        <time>2021-08-05 16:36:24</time>
      </trkpt>
      <trkpt lat="37.05362" lon="-3.36849">
        <ele>3250.6</ele>
        <time>2021-08-05 16:36:25</time>
      </trkpt>
      <trkpt lat="37.05363" lon="-3.36849">
        <ele>3250.8</ele>
        <time>2021-08-05 16:36:26</time>
      </trkpt>
      <trkpt lat="37.05363" lon="-3.36849">
        <ele>3250.8</ele>
        <time>2021-08-05 16:36:27</time>
      </trkpt>
      <trkpt lat="37.05364" lon="-3.36849">
        <ele>3251</ele>
        <time>2021-08-05 16:36:28</time>
      </trkpt>
      <trkpt lat="37.05364" lon="-3.36849">
        <ele>3251</ele>
        <time>2021-08-05 16:36:29</time>
      </trkpt>
      <trkpt lat="37.05365" lon="-3.36848">
        <ele>3251</ele>
        <time>2021-08-05 16:36:30</time>
      </trkpt>
      <trkpt lat="37.05366" lon="-3.36848">
        <ele>3251</ele>
        <time>2021-08-05 16:36:31</time>
      </trkpt>
      <trkpt lat="37.05366" lon="-3.36847">
        <ele>3251.2</ele>
        <time>2021-08-05 16:36:32</time>
      </trkpt>
      <trkpt lat="37.05367" lon="-3.36847">
        <ele>3251.4</ele>
        <time>2021-08-05 16:36:33</time>
      </trkpt>
      <trkpt lat="37.05367" lon="-3.36846">
        <ele>3251.6</ele>
        <time>2021-08-05 16:36:34</time>
      </trkpt>
      <trkpt lat="37.05368" lon="-3.36846">
        <ele>3251.6</ele>
        <time>2021-08-05 16:36:35</time>
      </trkpt>
      <trkpt lat="37.05368" lon="-3.36845">
        <ele>3251.8</ele>
        <time>2021-08-05 16:36:36</time>
      </trkpt>
      <trkpt lat="37.05368" lon="-3.36844">
        <ele>3251.8</ele>
        <time>2021-08-05 16:36:37</time>
      </trkpt>
      <trkpt lat="37.05368" lon="-3.36843">
        <ele>3252</ele>
        <time>2021-08-05 16:36:38</time>
      </trkpt>
      <trkpt lat="37.05369" lon="-3.36843">
        <ele>3252</ele>
        <time>2021-08-05 16:36:39</time>
      </trkpt>
      <trkpt lat="37.05369" lon="-3.36842">
        <ele>3252</ele>
        <time>2021-08-05 16:36:40</time>
      </trkpt>
      <trkpt lat="37.0537" lon="-3.36841">
        <ele>3252.2</ele>
        <time>2021-08-05 16:36:41</time>
      </trkpt>
      <trkpt lat="37.0537" lon="-3.3684">
        <ele>3252.2</ele>
        <time>2021-08-05 16:36:42</time>
      </trkpt>
      <trkpt lat="37.0537" lon="-3.3684">
        <ele>3252.2</ele>
        <time>2021-08-05 16:36:43</time>
      </trkpt>
      <trkpt lat="37.0537" lon="-3.36839">
        <ele>3252.4</ele>
        <time>2021-08-05 16:36:44</time>
      </trkpt>
      <trkpt lat="37.05371" lon="-3.3684">
        <ele>3252.6</ele>
        <time>2021-08-05 16:36:45</time>
      </trkpt>
      <trkpt lat="37.05371" lon="-3.3684">
        <ele>3252.6</ele>
        <time>2021-08-05 16:36:46</time>
      </trkpt>
      <trkpt lat="37.05371" lon="-3.36841">
        <ele>3252.6</ele>
        <time>2021-08-05 16:36:47</time>
      </trkpt>
      <trkpt lat="37.05371" lon="-3.36841">
        <ele>3252.8</ele>
        <time>2021-08-05 16:36:48</time>
      </trkpt>
      <trkpt lat="37.05371" lon="-3.3684">
        <ele>3252.8</ele>
        <time>2021-08-05 16:36:49</time>
      </trkpt>
      <trkpt lat="37.05372" lon="-3.3684">
        <ele>3253</ele>
        <time>2021-08-05 16:36:50</time>
      </trkpt>
      <trkpt lat="37.05372" lon="-3.3684">
        <ele>3253</ele>
        <time>2021-08-05 16:36:51</time>
      </trkpt>
      <trkpt lat="37.05373" lon="-3.3684">
        <ele>3253.2</ele>
        <time>2021-08-05 16:36:52</time>
      </trkpt>
      <trkpt lat="37.05373" lon="-3.3684">
        <ele>3253.2</ele>
        <time>2021-08-05 16:36:53</time>
      </trkpt>
      <trkpt lat="37.05372" lon="-3.3684">
        <ele>3253.4</ele>
        <time>2021-08-05 16:36:54</time>
      </trkpt>
      <trkpt lat="37.05372" lon="-3.3684">
        <ele>3253.4</ele>
        <time>2021-08-05 16:36:55</time>
      </trkpt>
      <trkpt lat="37.05372" lon="-3.3684">
        <ele>3253.6</ele>
        <time>2021-08-05 16:36:56</time>
      </trkpt>
      <trkpt lat="37.05372" lon="-3.3684">
        <ele>3253.8</ele>
        <time>2021-08-05 16:36:57</time>
      </trkpt>
      <trkpt lat="37.05372" lon="-3.36839">
        <ele>3254</ele>
        <time>2021-08-05 16:36:58</time>
      </trkpt>
      <trkpt lat="37.05373" lon="-3.36839">
        <ele>3254.2</ele>
        <time>2021-08-05 16:36:59</time>
      </trkpt>
      <trkpt lat="37.05373" lon="-3.36839">
        <ele>3254.4</ele>
        <time>2021-08-05 16:37:00</time>
      </trkpt>
      <trkpt lat="37.05373" lon="-3.36838">
        <ele>3254.6</ele>
        <time>2021-08-05 16:37:01</time>
      </trkpt>
      <trkpt lat="37.05373" lon="-3.36838">
        <ele>3254.6</ele>
        <time>2021-08-05 16:37:02</time>
      </trkpt>
      <trkpt lat="37.05373" lon="-3.36838">
        <ele>3254.6</ele>
        <time>2021-08-05 16:37:03</time>
      </trkpt>
      <trkpt lat="37.05374" lon="-3.36838">
        <ele>3254.6</ele>
        <time>2021-08-05 16:37:04</time>
      </trkpt>
      <trkpt lat="37.05374" lon="-3.36837">
        <ele>3254.6</ele>
        <time>2021-08-05 16:37:05</time>
      </trkpt>
      <trkpt lat="37.05374" lon="-3.36836">
        <ele>3254.4</ele>
        <time>2021-08-05 16:37:06</time>
      </trkpt>
      <trkpt lat="37.05374" lon="-3.36836">
        <ele>3254.4</ele>
        <time>2021-08-05 16:37:07</time>
      </trkpt>
      <trkpt lat="37.05375" lon="-3.36836">
        <ele>3254.4</ele>
        <time>2021-08-05 16:37:08</time>
      </trkpt>
      <trkpt lat="37.05376" lon="-3.36836">
        <ele>3254.4</ele>
        <time>2021-08-05 16:37:09</time>
      </trkpt>
      <trkpt lat="37.05377" lon="-3.36836">
        <ele>3254.4</ele>
        <time>2021-08-05 16:37:10</time>
      </trkpt>
      <trkpt lat="37.05379" lon="-3.36836">
        <ele>3254.4</ele>
        <time>2021-08-05 16:37:11</time>
      </trkpt>
      <trkpt lat="37.0538" lon="-3.36835">
        <ele>3254.6</ele>
        <time>2021-08-05 16:37:12</time>
      </trkpt>
      <trkpt lat="37.05381" lon="-3.36835">
        <ele>3254.6</ele>
        <time>2021-08-05 16:37:13</time>
      </trkpt>
      <trkpt lat="37.05381" lon="-3.36834">
        <ele>3254.8</ele>
        <time>2021-08-05 16:37:14</time>
      </trkpt>
      <trkpt lat="37.05382" lon="-3.36835">
        <ele>3254.8</ele>
        <time>2021-08-05 16:37:15</time>
      </trkpt>
      <trkpt lat="37.05382" lon="-3.36834">
        <ele>3255</ele>
        <time>2021-08-05 16:37:16</time>
      </trkpt>
      <trkpt lat="37.05383" lon="-3.36834">
        <ele>3255</ele>
        <time>2021-08-05 16:37:17</time>
      </trkpt>
      <trkpt lat="37.05383" lon="-3.36834">
        <ele>3255</ele>
        <time>2021-08-05 16:37:18</time>
      </trkpt>
      <trkpt lat="37.05384" lon="-3.36833">
        <ele>3255</ele>
        <time>2021-08-05 16:37:19</time>
      </trkpt>
      <trkpt lat="37.05385" lon="-3.36833">
        <ele>3255</ele>
        <time>2021-08-05 16:37:20</time>
      </trkpt>
      <trkpt lat="37.05386" lon="-3.36834">
        <ele>3255</ele>
        <time>2021-08-05 16:37:21</time>
      </trkpt>
      <trkpt lat="37.05386" lon="-3.36834">
        <ele>3255</ele>
        <time>2021-08-05 16:37:22</time>
      </trkpt>
      <trkpt lat="37.05387" lon="-3.36833">
        <ele>3255</ele>
        <time>2021-08-05 16:37:23</time>
      </trkpt>
      <trkpt lat="37.05387" lon="-3.36834">
        <ele>3255.2</ele>
        <time>2021-08-05 16:37:24</time>
      </trkpt>
      <trkpt lat="37.05387" lon="-3.36834">
        <ele>3255.4</ele>
        <time>2021-08-05 16:37:25</time>
      </trkpt>
      <trkpt lat="37.05388" lon="-3.36835">
        <ele>3255.4</ele>
        <time>2021-08-05 16:37:26</time>
      </trkpt>
      <trkpt lat="37.05388" lon="-3.36835">
        <ele>3255.2</ele>
        <time>2021-08-05 16:37:27</time>
      </trkpt>
      <trkpt lat="37.05388" lon="-3.36836">
        <ele>3255.2</ele>
        <time>2021-08-05 16:37:28</time>
      </trkpt>
      <trkpt lat="37.05388" lon="-3.36836">
        <ele>3255.2</ele>
        <time>2021-08-05 16:37:29</time>
      </trkpt>
      <trkpt lat="37.05388" lon="-3.36836">
        <ele>3255.2</ele>
        <time>2021-08-05 16:37:30</time>
      </trkpt>
      <trkpt lat="37.05388" lon="-3.36837">
        <ele>3255.2</ele>
        <time>2021-08-05 16:37:31</time>
      </trkpt>
      <trkpt lat="37.05388" lon="-3.36837">
        <ele>3255</ele>
        <time>2021-08-05 16:37:32</time>
      </trkpt>
      <trkpt lat="37.05388" lon="-3.36836">
        <ele>3255</ele>
        <time>2021-08-05 16:37:33</time>
      </trkpt>
      <trkpt lat="37.05388" lon="-3.36836">
        <ele>3255</ele>
        <time>2021-08-05 16:37:34</time>
      </trkpt>
      <trkpt lat="37.05389" lon="-3.36836">
        <ele>3255</ele>
        <time>2021-08-05 16:37:35</time>
      </trkpt>
      <trkpt lat="37.05388" lon="-3.36836">
        <ele>3255</ele>
        <time>2021-08-05 16:37:36</time>
      </trkpt>
      <trkpt lat="37.05388" lon="-3.36837">
        <ele>3254.8</ele>
        <time>2021-08-05 16:37:37</time>
      </trkpt>
      <trkpt lat="37.05388" lon="-3.36837">
        <ele>3254.8</ele>
        <time>2021-08-05 16:37:38</time>
      </trkpt>
      <trkpt lat="37.05388" lon="-3.36837">
        <ele>3254.6</ele>
        <time>2021-08-05 16:37:39</time>
      </trkpt>
      <trkpt lat="37.05388" lon="-3.36837">
        <ele>3254.4</ele>
        <time>2021-08-05 16:37:40</time>
      </trkpt>
      <trkpt lat="37.0539" lon="-3.36838">
        <ele>3254.4</ele>
        <time>2021-08-05 16:37:41</time>
      </trkpt>
      <trkpt lat="37.0539" lon="-3.36838">
        <ele>3254.4</ele>
        <time>2021-08-05 16:37:42</time>
      </trkpt>
      <trkpt lat="37.0539" lon="-3.36838">
        <ele>3254.4</ele>
        <time>2021-08-05 16:37:43</time>
      </trkpt>
      <trkpt lat="37.05392" lon="-3.36832">
        <ele>3254.6</ele>
        <time>2021-08-05 16:37:44</time>
      </trkpt>
      <trkpt lat="37.05392" lon="-3.36832">
        <ele>3254.6</ele>
        <time>2021-08-05 16:37:45</time>
      </trkpt>
      <trkpt lat="37.05392" lon="-3.36833">
        <ele>3254.8</ele>
        <time>2021-08-05 16:37:46</time>
      </trkpt>
      <trkpt lat="37.05392" lon="-3.36833">
        <ele>3254.8</ele>
        <time>2021-08-05 16:37:47</time>
      </trkpt>
      <trkpt lat="37.0539" lon="-3.36834">
        <ele>3254.8</ele>
        <time>2021-08-05 16:37:48</time>
      </trkpt>
      <trkpt lat="37.0539" lon="-3.36834">
        <ele>3254.8</ele>
        <time>2021-08-05 16:37:49</time>
      </trkpt>
      <trkpt lat="37.0539" lon="-3.36835">
        <ele>3255</ele>
        <time>2021-08-05 16:37:50</time>
      </trkpt>
      <trkpt lat="37.05389" lon="-3.36835">
        <ele>3255</ele>
        <time>2021-08-05 16:37:51</time>
      </trkpt>
      <trkpt lat="37.05389" lon="-3.36835">
        <ele>3255</ele>
        <time>2021-08-05 16:37:52</time>
      </trkpt>
      <trkpt lat="37.05388" lon="-3.36835">
        <ele>3255.2</ele>
        <time>2021-08-05 16:37:53</time>
      </trkpt>
      <trkpt lat="37.05388" lon="-3.36836">
        <ele>3255.2</ele>
        <time>2021-08-05 16:37:54</time>
      </trkpt>
      <trkpt lat="37.05387" lon="-3.36838">
        <ele>3255.2</ele>
        <time>2021-08-05 16:37:55</time>
      </trkpt>
      <trkpt lat="37.05387" lon="-3.36838">
        <ele>3255.4</ele>
        <time>2021-08-05 16:37:56</time>
      </trkpt>
      <trkpt lat="37.05387" lon="-3.36838">
        <ele>3255.6</ele>
        <time>2021-08-05 16:37:57</time>
      </trkpt>
      <trkpt lat="37.05386" lon="-3.36838">
        <ele>3255.8</ele>
        <time>2021-08-05 16:37:58</time>
      </trkpt>
      <trkpt lat="37.05386" lon="-3.36838">
        <ele>3255.6</ele>
        <time>2021-08-05 16:37:59</time>
      </trkpt>
      <trkpt lat="37.05386" lon="-3.36838">
        <ele>3255.6</ele>
        <time>2021-08-05 16:38:00</time>
      </trkpt>
      <trkpt lat="37.05385" lon="-3.36838">
        <ele>3255.4</ele>
        <time>2021-08-05 16:38:01</time>
      </trkpt>
      <trkpt lat="37.05386" lon="-3.36838">
        <ele>3255.2</ele>
        <time>2021-08-05 16:38:02</time>
      </trkpt>
      <trkpt lat="37.05386" lon="-3.36836">
        <ele>3255.2</ele>
        <time>2021-08-05 16:38:03</time>
      </trkpt>
      <trkpt lat="37.05386" lon="-3.36836">
        <ele>3255</ele>
        <time>2021-08-05 16:38:04</time>
      </trkpt>
      <trkpt lat="37.05386" lon="-3.36836">
        <ele>3254.8</ele>
        <time>2021-08-05 16:38:05</time>
      </trkpt>
      <trkpt lat="37.05386" lon="-3.36836">
        <ele>3254.6</ele>
        <time>2021-08-05 16:38:06</time>
      </trkpt>
      <trkpt lat="37.05386" lon="-3.36836">
        <ele>3254.6</ele>
        <time>2021-08-05 16:38:07</time>
      </trkpt>
      <trkpt lat="37.05387" lon="-3.36836">
        <ele>3254.4</ele>
        <time>2021-08-05 16:38:08</time>
      </trkpt>
      <trkpt lat="37.05387" lon="-3.36836">
        <ele>3254.4</ele>
        <time>2021-08-05 16:38:09</time>
      </trkpt>
      <trkpt lat="37.05389" lon="-3.36835">
        <ele>3256</ele>
        <time>2021-08-05 16:38:10</time>
      </trkpt>
      <trkpt lat="37.05389" lon="-3.36834">
        <ele>3256.2</ele>
        <time>2021-08-05 16:38:11</time>
      </trkpt>
      <trkpt lat="37.05389" lon="-3.36833">
        <ele>3256.4</ele>
        <time>2021-08-05 16:38:12</time>
      </trkpt>
      <trkpt lat="37.0539" lon="-3.36832">
        <ele>3256.6</ele>
        <time>2021-08-05 16:38:13</time>
      </trkpt>
      <trkpt lat="37.0539" lon="-3.36831">
        <ele>3256.6</ele>
        <time>2021-08-05 16:38:14</time>
      </trkpt>
      <trkpt lat="37.05391" lon="-3.3683">
        <ele>3256.8</ele>
        <time>2021-08-05 16:38:15</time>
      </trkpt>
      <trkpt lat="37.05391" lon="-3.3683">
        <ele>3257</ele>
        <time>2021-08-05 16:44:36</time>
      </trkpt>
      <trkpt lat="37.05391" lon="-3.36829">
        <ele>3257.2</ele>
        <time>2021-08-05 16:44:37</time>
      </trkpt>
      <trkpt lat="37.05391" lon="-3.36828">
        <ele>3257.4</ele>
        <time>2021-08-05 16:44:38</time>
      </trkpt>
      <trkpt lat="37.05391" lon="-3.36828">
        <ele>3257.4</ele>
        <time>2021-08-05 16:44:39</time>
      </trkpt>
      <trkpt lat="37.05391" lon="-3.36827">
        <ele>3257.4</ele>
        <time>2021-08-05 16:44:40</time>
      </trkpt>
      <trkpt lat="37.05392" lon="-3.36827">
        <ele>3257.4</ele>
        <time>2021-08-05 16:44:41</time>
      </trkpt>
      <trkpt lat="37.05392" lon="-3.36826">
        <ele>3257.6</ele>
        <time>2021-08-05 16:44:42</time>
      </trkpt>
      <trkpt lat="37.05392" lon="-3.36826">
        <ele>3257.6</ele>
        <time>2021-08-05 16:44:43</time>
      </trkpt>
      <trkpt lat="37.05391" lon="-3.36828">
        <ele>3257.8</ele>
        <time>2021-08-05 16:44:44</time>
      </trkpt>
      <trkpt lat="37.05391" lon="-3.36828">
        <ele>3258</ele>
        <time>2021-08-05 16:44:45</time>
      </trkpt>
      <trkpt lat="37.05391" lon="-3.36827">
        <ele>3258</ele>
        <time>2021-08-05 16:44:46</time>
      </trkpt>
      <trkpt lat="37.0539" lon="-3.36827">
        <ele>3257.8</ele>
        <time>2021-08-05 16:44:47</time>
      </trkpt>
      <trkpt lat="37.05389" lon="-3.36827">
        <ele>3257.8</ele>
        <time>2021-08-05 16:44:48</time>
      </trkpt>
      <trkpt lat="37.05389" lon="-3.36827">
        <ele>3257.6</ele>
        <time>2021-08-05 16:44:49</time>
      </trkpt>
      <trkpt lat="37.05388" lon="-3.36826">
        <ele>3257.4</ele>
        <time>2021-08-05 16:44:50</time>
      </trkpt>
      <trkpt lat="37.05389" lon="-3.36826">
        <ele>3257.2</ele>
        <time>2021-08-05 16:44:51</time>
      </trkpt>
      <trkpt lat="37.05388" lon="-3.36826">
        <ele>3257.2</ele>
        <time>2021-08-05 16:44:52</time>
      </trkpt>
      <trkpt lat="37.05388" lon="-3.36826">
        <ele>3257.2</ele>
        <time>2021-08-05 16:44:53</time>
      </trkpt>
      <trkpt lat="37.05388" lon="-3.36825">
        <ele>3257.2</ele>
        <time>2021-08-05 16:44:54</time>
      </trkpt>
      <trkpt lat="37.05389" lon="-3.36824">
        <ele>3257.4</ele>
        <time>2021-08-05 16:44:55</time>
      </trkpt>
      <trkpt lat="37.05389" lon="-3.36824">
        <ele>3257.4</ele>
        <time>2021-08-05 16:44:56</time>
      </trkpt>
      <trkpt lat="37.0539" lon="-3.36824">
        <ele>3257.6</ele>
        <time>2021-08-05 16:44:57</time>
      </trkpt>
      <trkpt lat="37.0539" lon="-3.36824">
        <ele>3257.6</ele>
        <time>2021-08-05 16:44:58</time>
      </trkpt>
      <trkpt lat="37.05391" lon="-3.36824">
        <ele>3257.8</ele>
        <time>2021-08-05 16:44:59</time>
      </trkpt>
      <trkpt lat="37.05391" lon="-3.36823">
        <ele>3258</ele>
        <time>2021-08-05 16:45:00</time>
      </trkpt>
      <trkpt lat="37.05392" lon="-3.36823">
        <ele>3258.2</ele>
        <time>2021-08-05 16:45:01</time>
      </trkpt>
      <trkpt lat="37.05393" lon="-3.36822">
        <ele>3258.2</ele>
        <time>2021-08-05 16:45:02</time>
      </trkpt>
      <trkpt lat="37.05393" lon="-3.36821">
        <ele>3258.6</ele>
        <time>2021-08-05 16:45:03</time>
      </trkpt>
      <trkpt lat="37.05393" lon="-3.3682">
        <ele>3258.6</ele>
        <time>2021-08-05 16:45:04</time>
      </trkpt>
      <trkpt lat="37.05394" lon="-3.36819">
        <ele>3258.8</ele>
        <time>2021-08-05 16:45:05</time>
      </trkpt>
      <trkpt lat="37.05394" lon="-3.36818">
        <ele>3259</ele>
        <time>2021-08-05 16:45:06</time>
      </trkpt>
      <trkpt lat="37.05394" lon="-3.36818">
        <ele>3259.6</ele>
        <time>2021-08-05 16:45:07</time>
      </trkpt>
      <trkpt lat="37.05395" lon="-3.36818">
        <ele>3259.8</ele>
        <time>2021-08-05 16:45:08</time>
      </trkpt>
      <trkpt lat="37.05396" lon="-3.36817">
        <ele>3260</ele>
        <time>2021-08-05 16:45:09</time>
      </trkpt>
      <trkpt lat="37.05397" lon="-3.36816">
        <ele>3260</ele>
        <time>2021-08-05 16:45:10</time>
      </trkpt>
      <trkpt lat="37.05397" lon="-3.36816">
        <ele>3260</ele>
        <time>2021-08-05 16:45:11</time>
      </trkpt>
      <trkpt lat="37.05398" lon="-3.36815">
        <ele>3260</ele>
        <time>2021-08-05 16:45:12</time>
      </trkpt>
      <trkpt lat="37.05398" lon="-3.36815">
        <ele>3260</ele>
        <time>2021-08-05 16:45:13</time>
      </trkpt>
      <trkpt lat="37.05399" lon="-3.36815">
        <ele>3260</ele>
        <time>2021-08-05 16:45:14</time>
      </trkpt>
      <trkpt lat="37.05399" lon="-3.36814">
        <ele>3260</ele>
        <time>2021-08-05 16:45:15</time>
      </trkpt>
      <trkpt lat="37.05399" lon="-3.36814">
        <ele>3260</ele>
        <time>2021-08-05 16:45:16</time>
      </trkpt>
      <trkpt lat="37.05399" lon="-3.36814">
        <ele>3260</ele>
        <time>2021-08-05 16:45:17</time>
      </trkpt>
      <trkpt lat="37.05401" lon="-3.36814">
        <ele>3260</ele>
        <time>2021-08-05 16:45:18</time>
      </trkpt>
      <trkpt lat="37.05402" lon="-3.36814">
        <ele>3260.2</ele>
        <time>2021-08-05 16:45:19</time>
      </trkpt>
      <trkpt lat="37.05404" lon="-3.36813">
        <ele>3260.6</ele>
        <time>2021-08-05 16:45:20</time>
      </trkpt>
      <trkpt lat="37.05404" lon="-3.36812">
        <ele>3260.8</ele>
        <time>2021-08-05 16:45:21</time>
      </trkpt>
      <trkpt lat="37.05404" lon="-3.36811">
        <ele>3261</ele>
        <time>2021-08-05 16:45:22</time>
      </trkpt>
      <trkpt lat="37.05404" lon="-3.36811">
        <ele>3261</ele>
        <time>2021-08-05 16:45:23</time>
      </trkpt>
      <trkpt lat="37.05403" lon="-3.3681">
        <ele>3261</ele>
        <time>2021-08-05 16:45:24</time>
      </trkpt>
      <trkpt lat="37.05403" lon="-3.36811">
        <ele>3261.2</ele>
        <time>2021-08-05 16:45:25</time>
      </trkpt>
      <trkpt lat="37.05403" lon="-3.36811">
        <ele>3261.2</ele>
        <time>2021-08-05 16:45:26</time>
      </trkpt>
      <trkpt lat="37.05403" lon="-3.3681">
        <ele>3261.2</ele>
        <time>2021-08-05 16:45:27</time>
      </trkpt>
      <trkpt lat="37.05403" lon="-3.3681">
        <ele>3261.2</ele>
        <time>2021-08-05 16:45:28</time>
      </trkpt>
      <trkpt lat="37.05402" lon="-3.36809">
        <ele>3261.4</ele>
        <time>2021-08-05 16:45:29</time>
      </trkpt>
      <trkpt lat="37.05402" lon="-3.36809">
        <ele>3261.4</ele>
        <time>2021-08-05 16:45:30</time>
      </trkpt>
      <trkpt lat="37.05401" lon="-3.36809">
        <ele>3261.6</ele>
        <time>2021-08-05 16:45:31</time>
      </trkpt>
      <trkpt lat="37.05401" lon="-3.36809">
        <ele>3261.4</ele>
        <time>2021-08-05 16:45:32</time>
      </trkpt>
      <trkpt lat="37.05401" lon="-3.36809">
        <ele>3261.4</ele>
        <time>2021-08-05 16:45:33</time>
      </trkpt>
      <trkpt lat="37.054" lon="-3.36809">
        <ele>3261.4</ele>
        <time>2021-08-05 16:45:34</time>
      </trkpt>
      <trkpt lat="37.05398" lon="-3.36808">
        <ele>3261.4</ele>
        <time>2021-08-05 16:45:35</time>
      </trkpt>
      <trkpt lat="37.054" lon="-3.36807">
        <ele>3261.4</ele>
        <time>2021-08-05 16:45:36</time>
      </trkpt>
      <trkpt lat="37.054" lon="-3.36806">
        <ele>3261.4</ele>
        <time>2021-08-05 16:45:37</time>
      </trkpt>
      <trkpt lat="37.054" lon="-3.36806">
        <ele>3261.4</ele>
        <time>2021-08-05 16:45:38</time>
      </trkpt>
      <trkpt lat="37.054" lon="-3.36805">
        <ele>3261.4</ele>
        <time>2021-08-05 16:45:39</time>
      </trkpt>
      <trkpt lat="37.054" lon="-3.36804">
        <ele>3261.6</ele>
        <time>2021-08-05 16:45:40</time>
      </trkpt>
      <trkpt lat="37.054" lon="-3.36804">
        <ele>3261.6</ele>
        <time>2021-08-05 16:45:41</time>
      </trkpt>
      <trkpt lat="37.05401" lon="-3.36804">
        <ele>3261.6</ele>
        <time>2021-08-05 16:45:42</time>
      </trkpt>
      <trkpt lat="37.05402" lon="-3.36803">
        <ele>3261.6</ele>
        <time>2021-08-05 16:45:43</time>
      </trkpt>
      <trkpt lat="37.05403" lon="-3.36803">
        <ele>3261.6</ele>
        <time>2021-08-05 16:45:44</time>
      </trkpt>
      <trkpt lat="37.05405" lon="-3.36803">
        <ele>3261.8</ele>
        <time>2021-08-05 16:45:45</time>
      </trkpt>
      <trkpt lat="37.05406" lon="-3.36803">
        <ele>3261.8</ele>
        <time>2021-08-05 16:45:46</time>
      </trkpt>
      <trkpt lat="37.05408" lon="-3.36804">
        <ele>3261.8</ele>
        <time>2021-08-05 16:45:47</time>
      </trkpt>
      <trkpt lat="37.05409" lon="-3.36805">
        <ele>3261.8</ele>
        <time>2021-08-05 16:45:48</time>
      </trkpt>
      <trkpt lat="37.0541" lon="-3.36805">
        <ele>3262</ele>
        <time>2021-08-05 16:45:49</time>
      </trkpt>
      <trkpt lat="37.05412" lon="-3.36805">
        <ele>3262.2</ele>
        <time>2021-08-05 16:45:50</time>
      </trkpt>
      <trkpt lat="37.05412" lon="-3.36806">
        <ele>3262.2</ele>
        <time>2021-08-05 16:45:51</time>
      </trkpt>
      <trkpt lat="37.05413" lon="-3.36806">
        <ele>3262.4</ele>
        <time>2021-08-05 16:45:52</time>
      </trkpt>
      <trkpt lat="37.05413" lon="-3.36806">
        <ele>3262.4</ele>
        <time>2021-08-05 16:45:53</time>
      </trkpt>
      <trkpt lat="37.05413" lon="-3.36805">
        <ele>3262.4</ele>
        <time>2021-08-05 16:45:54</time>
      </trkpt>
      <trkpt lat="37.05414" lon="-3.36805">
        <ele>3262.4</ele>
        <time>2021-08-05 16:45:55</time>
      </trkpt>
      <trkpt lat="37.05414" lon="-3.36805">
        <ele>3262.4</ele>
        <time>2021-08-05 16:45:56</time>
      </trkpt>
      <trkpt lat="37.05415" lon="-3.36804">
        <ele>3262.4</ele>
        <time>2021-08-05 16:45:57</time>
      </trkpt>
      <trkpt lat="37.05415" lon="-3.36804">
        <ele>3262.4</ele>
        <time>2021-08-05 16:45:58</time>
      </trkpt>
      <trkpt lat="37.05415" lon="-3.36804">
        <ele>3262.4</ele>
        <time>2021-08-05 16:45:59</time>
      </trkpt>
      <trkpt lat="37.05414" lon="-3.36804">
        <ele>3262.6</ele>
        <time>2021-08-05 16:46:00</time>
      </trkpt>
      <trkpt lat="37.05414" lon="-3.36804">
        <ele>3262.6</ele>
        <time>2021-08-05 16:46:01</time>
      </trkpt>
      <trkpt lat="37.05415" lon="-3.36804">
        <ele>3263</ele>
        <time>2021-08-05 16:46:02</time>
      </trkpt>
      <trkpt lat="37.05416" lon="-3.36804">
        <ele>3263.2</ele>
        <time>2021-08-05 16:46:03</time>
      </trkpt>
      <trkpt lat="37.05417" lon="-3.36804">
        <ele>3263.4</ele>
        <time>2021-08-05 16:46:04</time>
      </trkpt>
      <trkpt lat="37.05417" lon="-3.36804">
        <ele>3263.6</ele>
        <time>2021-08-05 16:46:05</time>
      </trkpt>
      <trkpt lat="37.05419" lon="-3.36804">
        <ele>3263.8</ele>
        <time>2021-08-05 16:46:06</time>
      </trkpt>
      <trkpt lat="37.05419" lon="-3.36804">
        <ele>3263.8</ele>
        <time>2021-08-05 16:46:07</time>
      </trkpt>
      <trkpt lat="37.05419" lon="-3.36804">
        <ele>3264</ele>
        <time>2021-08-05 16:46:08</time>
      </trkpt>
      <trkpt lat="37.0542" lon="-3.36803">
        <ele>3264</ele>
        <time>2021-08-05 16:46:09</time>
      </trkpt>
      <trkpt lat="37.0542" lon="-3.36803">
        <ele>3264</ele>
        <time>2021-08-05 16:46:10</time>
      </trkpt>
      <trkpt lat="37.0542" lon="-3.36803">
        <ele>3264.2</ele>
        <time>2021-08-05 16:46:11</time>
      </trkpt>
      <trkpt lat="37.05419" lon="-3.36803">
        <ele>3264.2</ele>
        <time>2021-08-05 16:46:12</time>
      </trkpt>
      <trkpt lat="37.05419" lon="-3.36802">
        <ele>3264.2</ele>
        <time>2021-08-05 16:46:13</time>
      </trkpt>
      <trkpt lat="37.05418" lon="-3.36801">
        <ele>3264.4</ele>
        <time>2021-08-05 16:46:14</time>
      </trkpt>
      <trkpt lat="37.05418" lon="-3.368">
        <ele>3264.4</ele>
        <time>2021-08-05 16:46:15</time>
      </trkpt>
      <trkpt lat="37.05417" lon="-3.36799">
        <ele>3264.6</ele>
        <time>2021-08-05 16:46:16</time>
      </trkpt>
      <trkpt lat="37.05418" lon="-3.36798">
        <ele>3264.8</ele>
        <time>2021-08-05 16:46:17</time>
      </trkpt>
      <trkpt lat="37.05418" lon="-3.36797">
        <ele>3265.2</ele>
        <time>2021-08-05 16:46:18</time>
      </trkpt>
      <trkpt lat="37.05417" lon="-3.36797">
        <ele>3265.4</ele>
        <time>2021-08-05 16:46:19</time>
      </trkpt>
      <trkpt lat="37.05417" lon="-3.36797">
        <ele>3265.6</ele>
        <time>2021-08-05 16:46:20</time>
      </trkpt>
      <trkpt lat="37.05417" lon="-3.36796">
        <ele>3265.8</ele>
        <time>2021-08-05 16:46:21</time>
      </trkpt>
      <trkpt lat="37.05418" lon="-3.36796">
        <ele>3266</ele>
        <time>2021-08-05 16:46:22</time>
      </trkpt>
      <trkpt lat="37.05419" lon="-3.36795">
        <ele>3266</ele>
        <time>2021-08-05 16:46:23</time>
      </trkpt>
      <trkpt lat="37.05419" lon="-3.36795">
        <ele>3266.2</ele>
        <time>2021-08-05 16:46:24</time>
      </trkpt>
      <trkpt lat="37.0542" lon="-3.36794">
        <ele>3266.2</ele>
        <time>2021-08-05 16:46:25</time>
      </trkpt>
      <trkpt lat="37.0542" lon="-3.36794">
        <ele>3266.4</ele>
        <time>2021-08-05 16:46:26</time>
      </trkpt>
      <trkpt lat="37.0542" lon="-3.36794">
        <ele>3266.4</ele>
        <time>2021-08-05 16:46:27</time>
      </trkpt>
      <trkpt lat="37.0542" lon="-3.36793">
        <ele>3266.6</ele>
        <time>2021-08-05 16:46:28</time>
      </trkpt>
      <trkpt lat="37.05421" lon="-3.36792">
        <ele>3266.6</ele>
        <time>2021-08-05 16:46:29</time>
      </trkpt>
      <trkpt lat="37.05422" lon="-3.36791">
        <ele>3266.6</ele>
        <time>2021-08-05 16:46:30</time>
      </trkpt>
      <trkpt lat="37.05422" lon="-3.3679">
        <ele>3266.6</ele>
        <time>2021-08-05 16:46:31</time>
      </trkpt>
      <trkpt lat="37.05422" lon="-3.3679">
        <ele>3266.8</ele>
        <time>2021-08-05 16:46:32</time>
      </trkpt>
      <trkpt lat="37.05423" lon="-3.36789">
        <ele>3266.8</ele>
        <time>2021-08-05 16:46:33</time>
      </trkpt>
      <trkpt lat="37.05423" lon="-3.36788">
        <ele>3266.8</ele>
        <time>2021-08-05 16:46:34</time>
      </trkpt>
      <trkpt lat="37.05423" lon="-3.36787">
        <ele>3266.8</ele>
        <time>2021-08-05 16:46:35</time>
      </trkpt>
      <trkpt lat="37.05426" lon="-3.36784">
        <ele>3267</ele>
        <time>2021-08-05 16:46:36</time>
      </trkpt>
      <trkpt lat="37.05425" lon="-3.36784">
        <ele>3267.2</ele>
        <time>2021-08-05 16:46:37</time>
      </trkpt>
      <trkpt lat="37.05425" lon="-3.36785">
        <ele>3267.4</ele>
        <time>2021-08-05 16:46:38</time>
      </trkpt>
      <trkpt lat="37.05425" lon="-3.36785">
        <ele>3267.4</ele>
        <time>2021-08-05 16:46:39</time>
      </trkpt>
      <trkpt lat="37.05425" lon="-3.36785">
        <ele>3267.4</ele>
        <time>2021-08-05 16:46:40</time>
      </trkpt>
      <trkpt lat="37.05425" lon="-3.36784">
        <ele>3267.6</ele>
        <time>2021-08-05 16:46:41</time>
      </trkpt>
      <trkpt lat="37.05425" lon="-3.36783">
        <ele>3267.6</ele>
        <time>2021-08-05 16:46:42</time>
      </trkpt>
      <trkpt lat="37.05425" lon="-3.36783">
        <ele>3267.6</ele>
        <time>2021-08-05 16:46:43</time>
      </trkpt>
      <trkpt lat="37.05425" lon="-3.36782">
        <ele>3267.8</ele>
        <time>2021-08-05 16:46:44</time>
      </trkpt>
      <trkpt lat="37.05425" lon="-3.36782">
        <ele>3268</ele>
        <time>2021-08-05 16:46:45</time>
      </trkpt>
      <trkpt lat="37.05425" lon="-3.36782">
        <ele>3268.2</ele>
        <time>2021-08-05 16:46:46</time>
      </trkpt>
      <trkpt lat="37.05425" lon="-3.36781">
        <ele>3268.2</ele>
        <time>2021-08-05 16:46:47</time>
      </trkpt>
      <trkpt lat="37.05425" lon="-3.3678">
        <ele>3268.4</ele>
        <time>2021-08-05 16:46:48</time>
      </trkpt>
      <trkpt lat="37.05425" lon="-3.3678">
        <ele>3268.6</ele>
        <time>2021-08-05 16:46:49</time>
      </trkpt>
      <trkpt lat="37.05426" lon="-3.36779">
        <ele>3268.6</ele>
        <time>2021-08-05 16:46:50</time>
      </trkpt>
      <trkpt lat="37.05426" lon="-3.36779">
        <ele>3268.6</ele>
        <time>2021-08-05 16:46:51</time>
      </trkpt>
      <trkpt lat="37.05426" lon="-3.36778">
        <ele>3268.8</ele>
        <time>2021-08-05 16:46:52</time>
      </trkpt>
      <trkpt lat="37.05427" lon="-3.36777">
        <ele>3269</ele>
        <time>2021-08-05 16:46:53</time>
      </trkpt>
      <trkpt lat="37.05427" lon="-3.36776">
        <ele>3269</ele>
        <time>2021-08-05 16:46:54</time>
      </trkpt>
      <trkpt lat="37.05427" lon="-3.36776">
        <ele>3269.2</ele>
        <time>2021-08-05 16:46:55</time>
      </trkpt>
      <trkpt lat="37.05427" lon="-3.36775">
        <ele>3269.2</ele>
        <time>2021-08-05 16:46:56</time>
      </trkpt>
      <trkpt lat="37.05427" lon="-3.36775">
        <ele>3269</ele>
        <time>2021-08-05 16:46:57</time>
      </trkpt>
      <trkpt lat="37.05427" lon="-3.36774">
        <ele>3269</ele>
        <time>2021-08-05 16:46:58</time>
      </trkpt>
      <trkpt lat="37.05427" lon="-3.36773">
        <ele>3269</ele>
        <time>2021-08-05 16:46:59</time>
      </trkpt>
      <trkpt lat="37.05426" lon="-3.36772">
        <ele>3269</ele>
        <time>2021-08-05 16:47:00</time>
      </trkpt>
      <trkpt lat="37.05426" lon="-3.36771">
        <ele>3269</ele>
        <time>2021-08-05 16:47:01</time>
      </trkpt>
      <trkpt lat="37.05426" lon="-3.36771">
        <ele>3269</ele>
        <time>2021-08-05 16:47:02</time>
      </trkpt>
      <trkpt lat="37.05426" lon="-3.36771">
        <ele>3269</ele>
        <time>2021-08-05 16:47:03</time>
      </trkpt>
      <trkpt lat="37.05425" lon="-3.36772">
        <ele>3269</ele>
        <time>2021-08-05 16:47:04</time>
      </trkpt>
      <trkpt lat="37.05425" lon="-3.36772">
        <ele>3269.2</ele>
        <time>2021-08-05 16:47:05</time>
      </trkpt>
      <trkpt lat="37.05425" lon="-3.36772">
        <ele>3269.2</ele>
        <time>2021-08-05 16:47:06</time>
      </trkpt>
      <trkpt lat="37.05425" lon="-3.36772">
        <ele>3269</ele>
        <time>2021-08-05 16:47:07</time>
      </trkpt>
      <trkpt lat="37.05425" lon="-3.36773">
        <ele>3269</ele>
        <time>2021-08-05 16:47:08</time>
      </trkpt>
      <trkpt lat="37.05425" lon="-3.36773">
        <ele>3269</ele>
        <time>2021-08-05 16:47:09</time>
      </trkpt>
      <trkpt lat="37.05425" lon="-3.36773">
        <ele>3269</ele>
        <time>2021-08-05 16:47:10</time>
      </trkpt>
      <trkpt lat="37.05426" lon="-3.36773">
        <ele>3269</ele>
        <time>2021-08-05 16:47:11</time>
      </trkpt>
      <trkpt lat="37.05426" lon="-3.36773">
        <ele>3269</ele>
        <time>2021-08-05 16:47:12</time>
      </trkpt>
      <trkpt lat="37.05427" lon="-3.36773">
        <ele>3269</ele>
        <time>2021-08-05 16:47:13</time>
      </trkpt>
      <trkpt lat="37.05427" lon="-3.36773">
        <ele>3269</ele>
        <time>2021-08-05 16:47:14</time>
      </trkpt>
      <trkpt lat="37.05427" lon="-3.36773">
        <ele>3269.2</ele>
        <time>2021-08-05 16:47:15</time>
      </trkpt>
      <trkpt lat="37.05427" lon="-3.36773">
        <ele>3269.2</ele>
        <time>2021-08-05 16:47:16</time>
      </trkpt>
      <trkpt lat="37.05427" lon="-3.36773">
        <ele>3269.2</ele>
        <time>2021-08-05 16:47:17</time>
      </trkpt>
      <trkpt lat="37.05427" lon="-3.36773">
        <ele>3269.2</ele>
        <time>2021-08-05 16:47:18</time>
      </trkpt>
      <trkpt lat="37.05427" lon="-3.36773">
        <ele>3269.2</ele>
        <time>2021-08-05 16:47:19</time>
      </trkpt>
      <trkpt lat="37.05425" lon="-3.36772">
        <ele>3269.2</ele>
        <time>2021-08-05 16:47:20</time>
      </trkpt>
      <trkpt lat="37.05424" lon="-3.36771">
        <ele>3269.2</ele>
        <time>2021-08-05 16:47:21</time>
      </trkpt>
      <trkpt lat="37.05423" lon="-3.36772">
        <ele>3269.2</ele>
        <time>2021-08-05 16:47:22</time>
      </trkpt>
      <trkpt lat="37.05423" lon="-3.36771">
        <ele>3269.4</ele>
        <time>2021-08-05 16:47:23</time>
      </trkpt>
      <trkpt lat="37.05423" lon="-3.36771">
        <ele>3269.4</ele>
        <time>2021-08-05 16:47:24</time>
      </trkpt>
      <trkpt lat="37.05424" lon="-3.36771">
        <ele>3269.6</ele>
        <time>2021-08-05 16:47:25</time>
      </trkpt>
      <trkpt lat="37.05426" lon="-3.3677">
        <ele>3269.8</ele>
        <time>2021-08-05 16:47:26</time>
      </trkpt>
      <trkpt lat="37.05427" lon="-3.3677">
        <ele>3270</ele>
        <time>2021-08-05 16:47:27</time>
      </trkpt>
      <trkpt lat="37.05429" lon="-3.3677">
        <ele>3270</ele>
        <time>2021-08-05 16:47:28</time>
      </trkpt>
      <trkpt lat="37.0543" lon="-3.3677">
        <ele>3270</ele>
        <time>2021-08-05 16:47:29</time>
      </trkpt>
      <trkpt lat="37.05431" lon="-3.3677">
        <ele>3270</ele>
        <time>2021-08-05 16:47:30</time>
      </trkpt>
      <trkpt lat="37.05432" lon="-3.3677">
        <ele>3270</ele>
        <time>2021-08-05 16:47:31</time>
      </trkpt>
      <trkpt lat="37.05432" lon="-3.3677">
        <ele>3270.2</ele>
        <time>2021-08-05 16:47:32</time>
      </trkpt>
      <trkpt lat="37.05433" lon="-3.3677">
        <ele>3270.4</ele>
        <time>2021-08-05 16:47:33</time>
      </trkpt>
      <trkpt lat="37.05433" lon="-3.36769">
        <ele>3270.6</ele>
        <time>2021-08-05 16:47:34</time>
      </trkpt>
      <trkpt lat="37.05433" lon="-3.36768">
        <ele>3270.8</ele>
        <time>2021-08-05 16:47:35</time>
      </trkpt>
      <trkpt lat="37.05434" lon="-3.36767">
        <ele>3270.8</ele>
        <time>2021-08-05 16:47:36</time>
      </trkpt>
      <trkpt lat="37.05434" lon="-3.36767">
        <ele>3271</ele>
        <time>2021-08-05 16:47:37</time>
      </trkpt>
      <trkpt lat="37.05433" lon="-3.36766">
        <ele>3271.2</ele>
        <time>2021-08-05 16:47:38</time>
      </trkpt>
      <trkpt lat="37.05433" lon="-3.36766">
        <ele>3271.4</ele>
        <time>2021-08-05 16:47:39</time>
      </trkpt>
      <trkpt lat="37.05434" lon="-3.36766">
        <ele>3271.6</ele>
        <time>2021-08-05 16:47:40</time>
      </trkpt>
      <trkpt lat="37.05434" lon="-3.36767">
        <ele>3271.6</ele>
        <time>2021-08-05 16:47:41</time>
      </trkpt>
      <trkpt lat="37.05435" lon="-3.36767">
        <ele>3271.6</ele>
        <time>2021-08-05 16:47:42</time>
      </trkpt>
      <trkpt lat="37.05435" lon="-3.36767">
        <ele>3271.8</ele>
        <time>2021-08-05 16:47:43</time>
      </trkpt>
      <trkpt lat="37.05435" lon="-3.36767">
        <ele>3271.8</ele>
        <time>2021-08-05 16:47:44</time>
      </trkpt>
      <trkpt lat="37.05436" lon="-3.36767">
        <ele>3271.8</ele>
        <time>2021-08-05 16:47:45</time>
      </trkpt>
      <trkpt lat="37.05436" lon="-3.36766">
        <ele>3271.8</ele>
        <time>2021-08-05 16:47:46</time>
      </trkpt>
      <trkpt lat="37.05436" lon="-3.36765">
        <ele>3271.8</ele>
        <time>2021-08-05 16:47:47</time>
      </trkpt>
      <trkpt lat="37.05437" lon="-3.36766">
        <ele>3271.8</ele>
        <time>2021-08-05 16:47:48</time>
      </trkpt>
      <trkpt lat="37.05437" lon="-3.36766">
        <ele>3272</ele>
        <time>2021-08-05 16:47:49</time>
      </trkpt>
      <trkpt lat="37.05437" lon="-3.36767">
        <ele>3272</ele>
        <time>2021-08-05 16:47:50</time>
      </trkpt>
      <trkpt lat="37.05436" lon="-3.36768">
        <ele>3272</ele>
        <time>2021-08-05 16:47:51</time>
      </trkpt>
      <trkpt lat="37.05436" lon="-3.36769">
        <ele>3272.4</ele>
        <time>2021-08-05 16:47:52</time>
      </trkpt>
      <trkpt lat="37.05436" lon="-3.36769">
        <ele>3272.6</ele>
        <time>2021-08-05 16:47:53</time>
      </trkpt>
      <trkpt lat="37.05436" lon="-3.36769">
        <ele>3272.8</ele>
        <time>2021-08-05 16:47:54</time>
      </trkpt>
      <trkpt lat="37.05436" lon="-3.36768">
        <ele>3272.8</ele>
        <time>2021-08-05 16:47:55</time>
      </trkpt>
      <trkpt lat="37.05435" lon="-3.36767">
        <ele>3273</ele>
        <time>2021-08-05 16:47:56</time>
      </trkpt>
      <trkpt lat="37.05435" lon="-3.36766">
        <ele>3273.2</ele>
        <time>2021-08-05 16:47:57</time>
      </trkpt>
      <trkpt lat="37.05434" lon="-3.36765">
        <ele>3273.4</ele>
        <time>2021-08-05 16:47:58</time>
      </trkpt>
      <trkpt lat="37.05434" lon="-3.36764">
        <ele>3273.6</ele>
        <time>2021-08-05 16:47:59</time>
      </trkpt>
      <trkpt lat="37.05435" lon="-3.36763">
        <ele>3273.8</ele>
        <time>2021-08-05 16:48:00</time>
      </trkpt>
      <trkpt lat="37.05435" lon="-3.36762">
        <ele>3273.8</ele>
        <time>2021-08-05 16:48:01</time>
      </trkpt>
      <trkpt lat="37.05436" lon="-3.36762">
        <ele>3274</ele>
        <time>2021-08-05 16:48:02</time>
      </trkpt>
      <trkpt lat="37.05439" lon="-3.36763">
        <ele>3273.8</ele>
        <time>2021-08-05 16:48:03</time>
      </trkpt>
      <trkpt lat="37.0544" lon="-3.36763">
        <ele>3274</ele>
        <time>2021-08-05 16:48:04</time>
      </trkpt>
      <trkpt lat="37.05442" lon="-3.36763">
        <ele>3274</ele>
        <time>2021-08-05 16:48:05</time>
      </trkpt>
      <trkpt lat="37.05443" lon="-3.36762">
        <ele>3274</ele>
        <time>2021-08-05 16:48:06</time>
      </trkpt>
      <trkpt lat="37.05444" lon="-3.36761">
        <ele>3274</ele>
        <time>2021-08-05 16:48:07</time>
      </trkpt>
      <trkpt lat="37.05445" lon="-3.36759">
        <ele>3274</ele>
        <time>2021-08-05 16:48:08</time>
      </trkpt>
      <trkpt lat="37.05445" lon="-3.36759">
        <ele>3274.2</ele>
        <time>2021-08-05 16:48:09</time>
      </trkpt>
      <trkpt lat="37.05445" lon="-3.36759">
        <ele>3274.2</ele>
        <time>2021-08-05 16:48:10</time>
      </trkpt>
      <trkpt lat="37.05445" lon="-3.36759">
        <ele>3274.2</ele>
        <time>2021-08-05 16:48:11</time>
      </trkpt>
      <trkpt lat="37.05444" lon="-3.36761">
        <ele>3274.2</ele>
        <time>2021-08-05 16:48:12</time>
      </trkpt>
      <trkpt lat="37.05445" lon="-3.3676">
        <ele>3274.2</ele>
        <time>2021-08-05 16:48:13</time>
      </trkpt>
      <trkpt lat="37.05445" lon="-3.3676">
        <ele>3274.2</ele>
        <time>2021-08-05 16:48:14</time>
      </trkpt>
      <trkpt lat="37.05444" lon="-3.3676">
        <ele>3274.2</ele>
        <time>2021-08-05 16:48:15</time>
      </trkpt>
      <trkpt lat="37.05443" lon="-3.36762">
        <ele>3274.4</ele>
        <time>2021-08-05 16:48:16</time>
      </trkpt>
      <trkpt lat="37.05443" lon="-3.36762">
        <ele>3274.6</ele>
        <time>2021-08-05 16:48:17</time>
      </trkpt>
      <trkpt lat="37.05443" lon="-3.36762">
        <ele>3274.8</ele>
        <time>2021-08-05 16:48:18</time>
      </trkpt>
      <trkpt lat="37.05444" lon="-3.36761">
        <ele>3274.8</ele>
        <time>2021-08-05 16:48:19</time>
      </trkpt>
      <trkpt lat="37.05443" lon="-3.36761">
        <ele>3274.8</ele>
        <time>2021-08-05 16:48:20</time>
      </trkpt>
      <trkpt lat="37.05442" lon="-3.36761">
        <ele>3275</ele>
        <time>2021-08-05 16:48:21</time>
      </trkpt>
      <trkpt lat="37.05442" lon="-3.36761">
        <ele>3275</ele>
        <time>2021-08-05 16:48:22</time>
      </trkpt>
      <trkpt lat="37.05442" lon="-3.36761">
        <ele>3275.2</ele>
        <time>2021-08-05 16:48:23</time>
      </trkpt>
      <trkpt lat="37.05442" lon="-3.36761">
        <ele>3275.4</ele>
        <time>2021-08-05 16:48:24</time>
      </trkpt>
      <trkpt lat="37.05442" lon="-3.36761">
        <ele>3275.6</ele>
        <time>2021-08-05 16:48:25</time>
      </trkpt>
      <trkpt lat="37.05443" lon="-3.36762">
        <ele>3275.6</ele>
        <time>2021-08-05 16:48:26</time>
      </trkpt>
      <trkpt lat="37.05443" lon="-3.36762">
        <ele>3275.8</ele>
        <time>2021-08-05 16:48:27</time>
      </trkpt>
      <trkpt lat="37.05443" lon="-3.36761">
        <ele>3275.8</ele>
        <time>2021-08-05 16:48:28</time>
      </trkpt>
      <trkpt lat="37.05442" lon="-3.3676">
        <ele>3276</ele>
        <time>2021-08-05 16:48:29</time>
      </trkpt>
      <trkpt lat="37.05443" lon="-3.3676">
        <ele>3276</ele>
        <time>2021-08-05 16:48:30</time>
      </trkpt>
      <trkpt lat="37.05443" lon="-3.36759">
        <ele>3276</ele>
        <time>2021-08-05 16:48:31</time>
      </trkpt>
      <trkpt lat="37.05444" lon="-3.36758">
        <ele>3276.2</ele>
        <time>2021-08-05 16:48:32</time>
      </trkpt>
      <trkpt lat="37.05445" lon="-3.36758">
        <ele>3276.2</ele>
        <time>2021-08-05 16:48:33</time>
      </trkpt>
      <trkpt lat="37.05445" lon="-3.36758">
        <ele>3276.2</ele>
        <time>2021-08-05 16:48:34</time>
      </trkpt>
      <trkpt lat="37.05446" lon="-3.36758">
        <ele>3276.2</ele>
        <time>2021-08-05 16:48:35</time>
      </trkpt>
      <trkpt lat="37.05447" lon="-3.36758">
        <ele>3276.4</ele>
        <time>2021-08-05 16:48:36</time>
      </trkpt>
      <trkpt lat="37.05447" lon="-3.36759">
        <ele>3276.4</ele>
        <time>2021-08-05 16:48:37</time>
      </trkpt>
      <trkpt lat="37.05448" lon="-3.36758">
        <ele>3276.6</ele>
        <time>2021-08-05 16:48:38</time>
      </trkpt>
      <trkpt lat="37.05448" lon="-3.36758">
        <ele>3276.6</ele>
        <time>2021-08-05 16:48:39</time>
      </trkpt>
      <trkpt lat="37.05449" lon="-3.36758">
        <ele>3277</ele>
        <time>2021-08-05 16:48:40</time>
      </trkpt>
      <trkpt lat="37.05449" lon="-3.36758">
        <ele>3277.4</ele>
        <time>2021-08-05 16:48:41</time>
      </trkpt>
      <trkpt lat="37.05449" lon="-3.36758">
        <ele>3278</ele>
        <time>2021-08-05 16:48:42</time>
      </trkpt>
      <trkpt lat="37.0545" lon="-3.36758">
        <ele>3278.2</ele>
        <time>2021-08-05 16:48:43</time>
      </trkpt>
      <trkpt lat="37.0545" lon="-3.36758">
        <ele>3278.2</ele>
        <time>2021-08-05 16:48:44</time>
      </trkpt>
      <trkpt lat="37.0545" lon="-3.36758">
        <ele>3278.4</ele>
        <time>2021-08-05 16:48:45</time>
      </trkpt>
      <trkpt lat="37.05449" lon="-3.36758">
        <ele>3278.4</ele>
        <time>2021-08-05 16:48:46</time>
      </trkpt>
      <trkpt lat="37.05449" lon="-3.36757">
        <ele>3278.4</ele>
        <time>2021-08-05 16:48:47</time>
      </trkpt>
      <trkpt lat="37.05449" lon="-3.36756">
        <ele>3278.4</ele>
        <time>2021-08-05 16:48:48</time>
      </trkpt>
      <trkpt lat="37.0545" lon="-3.36754">
        <ele>3278.4</ele>
        <time>2021-08-05 16:48:49</time>
      </trkpt>
      <trkpt lat="37.05451" lon="-3.36753">
        <ele>3278.6</ele>
        <time>2021-08-05 16:48:50</time>
      </trkpt>
      <trkpt lat="37.05451" lon="-3.36752">
        <ele>3278.6</ele>
        <time>2021-08-05 16:48:51</time>
      </trkpt>
      <trkpt lat="37.05452" lon="-3.36752">
        <ele>3278.6</ele>
        <time>2021-08-05 16:48:52</time>
      </trkpt>
      <trkpt lat="37.05453" lon="-3.36751">
        <ele>3278.6</ele>
        <time>2021-08-05 16:48:53</time>
      </trkpt>
      <trkpt lat="37.05454" lon="-3.36751">
        <ele>3278.6</ele>
        <time>2021-08-05 16:48:54</time>
      </trkpt>
      <trkpt lat="37.05455" lon="-3.3675">
        <ele>3278.6</ele>
        <time>2021-08-05 16:48:55</time>
      </trkpt>
      <trkpt lat="37.05455" lon="-3.3675">
        <ele>3278.6</ele>
        <time>2021-08-05 16:48:56</time>
      </trkpt>
      <trkpt lat="37.05455" lon="-3.3675">
        <ele>3278.6</ele>
        <time>2021-08-05 16:48:57</time>
      </trkpt>
      <trkpt lat="37.05456" lon="-3.36749">
        <ele>3278.6</ele>
        <time>2021-08-05 16:48:58</time>
      </trkpt>
      <trkpt lat="37.05456" lon="-3.36749">
        <ele>3278.8</ele>
        <time>2021-08-05 16:48:59</time>
      </trkpt>
      <trkpt lat="37.05456" lon="-3.36748">
        <ele>3279</ele>
        <time>2021-08-05 16:49:00</time>
      </trkpt>
      <trkpt lat="37.05456" lon="-3.36748">
        <ele>3279</ele>
        <time>2021-08-05 16:49:01</time>
      </trkpt>
      <trkpt lat="37.05457" lon="-3.36748">
        <ele>3279.2</ele>
        <time>2021-08-05 16:49:02</time>
      </trkpt>
      <trkpt lat="37.05457" lon="-3.36747">
        <ele>3279.4</ele>
        <time>2021-08-05 16:49:03</time>
      </trkpt>
      <trkpt lat="37.05458" lon="-3.36747">
        <ele>3279.6</ele>
        <time>2021-08-05 16:49:04</time>
      </trkpt>
      <trkpt lat="37.05459" lon="-3.36747">
        <ele>3279.8</ele>
        <time>2021-08-05 16:49:05</time>
      </trkpt>
      <trkpt lat="37.05459" lon="-3.36747">
        <ele>3280.2</ele>
        <time>2021-08-05 16:49:06</time>
      </trkpt>
      <trkpt lat="37.05459" lon="-3.36746">
        <ele>3280.2</ele>
        <time>2021-08-05 16:49:07</time>
      </trkpt>
      <trkpt lat="37.05458" lon="-3.36743">
        <ele>3280.4</ele>
        <time>2021-08-05 16:49:08</time>
      </trkpt>
      <trkpt lat="37.05458" lon="-3.36742">
        <ele>3280.4</ele>
        <time>2021-08-05 16:49:09</time>
      </trkpt>
      <trkpt lat="37.05458" lon="-3.36742">
        <ele>3280.4</ele>
        <time>2021-08-05 16:49:10</time>
      </trkpt>
      <trkpt lat="37.05458" lon="-3.36742">
        <ele>3280.4</ele>
        <time>2021-08-05 16:49:11</time>
      </trkpt>
      <trkpt lat="37.05462" lon="-3.36742">
        <ele>3280.4</ele>
        <time>2021-08-05 16:49:12</time>
      </trkpt>
      <trkpt lat="37.05462" lon="-3.36742">
        <ele>3280.2</ele>
        <time>2021-08-05 16:49:13</time>
      </trkpt>
      <trkpt lat="37.05462" lon="-3.36743">
        <ele>3280.2</ele>
        <time>2021-08-05 16:49:14</time>
      </trkpt>
      <trkpt lat="37.05463" lon="-3.36744">
        <ele>3280.2</ele>
        <time>2021-08-05 16:49:15</time>
      </trkpt>
      <trkpt lat="37.05465" lon="-3.36744">
        <ele>3280.2</ele>
        <time>2021-08-05 16:49:16</time>
      </trkpt>
      <trkpt lat="37.05466" lon="-3.36745">
        <ele>3280.2</ele>
        <time>2021-08-05 16:49:17</time>
      </trkpt>
      <trkpt lat="37.05466" lon="-3.36745">
        <ele>3280</ele>
        <time>2021-08-05 16:49:18</time>
      </trkpt>
      <trkpt lat="37.05467" lon="-3.36745">
        <ele>3280.2</ele>
        <time>2021-08-05 16:49:19</time>
      </trkpt>
      <trkpt lat="37.05468" lon="-3.36745">
        <ele>3280.2</ele>
        <time>2021-08-05 16:49:20</time>
      </trkpt>
      <trkpt lat="37.05469" lon="-3.36745">
        <ele>3280.2</ele>
        <time>2021-08-05 16:49:21</time>
      </trkpt>
      <trkpt lat="37.05469" lon="-3.36745">
        <ele>3280.2</ele>
        <time>2021-08-05 16:49:22</time>
      </trkpt>
      <trkpt lat="37.0547" lon="-3.36745">
        <ele>3280.2</ele>
        <time>2021-08-05 16:49:23</time>
      </trkpt>
      <trkpt lat="37.0547" lon="-3.36744">
        <ele>3280.4</ele>
        <time>2021-08-05 16:49:24</time>
      </trkpt>
      <trkpt lat="37.05471" lon="-3.36745">
        <ele>3280.6</ele>
        <time>2021-08-05 16:49:25</time>
      </trkpt>
      <trkpt lat="37.05471" lon="-3.36745">
        <ele>3280.8</ele>
        <time>2021-08-05 16:49:26</time>
      </trkpt>
      <trkpt lat="37.05472" lon="-3.36744">
        <ele>3280.8</ele>
        <time>2021-08-05 16:49:27</time>
      </trkpt>
      <trkpt lat="37.05473" lon="-3.36743">
        <ele>3281</ele>
        <time>2021-08-05 16:49:28</time>
      </trkpt>
      <trkpt lat="37.05474" lon="-3.36742">
        <ele>3281</ele>
        <time>2021-08-05 16:49:29</time>
      </trkpt>
      <trkpt lat="37.05475" lon="-3.36743">
        <ele>3281</ele>
        <time>2021-08-05 16:49:30</time>
      </trkpt>
      <trkpt lat="37.05476" lon="-3.36743">
        <ele>3281</ele>
        <time>2021-08-05 16:49:31</time>
      </trkpt>
      <trkpt lat="37.05477" lon="-3.36743">
        <ele>3281</ele>
        <time>2021-08-05 16:49:32</time>
      </trkpt>
      <trkpt lat="37.05479" lon="-3.36742">
        <ele>3281</ele>
        <time>2021-08-05 16:49:33</time>
      </trkpt>
      <trkpt lat="37.0548" lon="-3.36742">
        <ele>3281</ele>
        <time>2021-08-05 16:49:34</time>
      </trkpt>
      <trkpt lat="37.05482" lon="-3.36743">
        <ele>3281.2</ele>
        <time>2021-08-05 16:49:35</time>
      </trkpt>
      <trkpt lat="37.05483" lon="-3.36743">
        <ele>3281.2</ele>
        <time>2021-08-05 16:49:36</time>
      </trkpt>
      <trkpt lat="37.05483" lon="-3.36744">
        <ele>3281.2</ele>
        <time>2021-08-05 16:49:37</time>
      </trkpt>
      <trkpt lat="37.05483" lon="-3.36745">
        <ele>3281.2</ele>
        <time>2021-08-05 16:49:38</time>
      </trkpt>
      <trkpt lat="37.05483" lon="-3.36747">
        <ele>3281.4</ele>
        <time>2021-08-05 16:49:39</time>
      </trkpt>
      <trkpt lat="37.05484" lon="-3.36748">
        <ele>3281.4</ele>
        <time>2021-08-05 16:49:40</time>
      </trkpt>
      <trkpt lat="37.05484" lon="-3.36749">
        <ele>3281.6</ele>
        <time>2021-08-05 16:49:41</time>
      </trkpt>
      <trkpt lat="37.05485" lon="-3.36749">
        <ele>3281.8</ele>
        <time>2021-08-05 16:49:42</time>
      </trkpt>
      <trkpt lat="37.05485" lon="-3.3675">
        <ele>3281.8</ele>
        <time>2021-08-05 16:49:43</time>
      </trkpt>
      <trkpt lat="37.05486" lon="-3.36751">
        <ele>3281.8</ele>
        <time>2021-08-05 16:49:44</time>
      </trkpt>
      <trkpt lat="37.05487" lon="-3.36751">
        <ele>3281.8</ele>
        <time>2021-08-05 16:49:45</time>
      </trkpt>
      <trkpt lat="37.05488" lon="-3.36751">
        <ele>3281.8</ele>
        <time>2021-08-05 16:49:46</time>
      </trkpt>
      <trkpt lat="37.05488" lon="-3.36751">
        <ele>3282</ele>
        <time>2021-08-05 16:49:47</time>
      </trkpt>
      <trkpt lat="37.05489" lon="-3.36751">
        <ele>3282.2</ele>
        <time>2021-08-05 16:49:48</time>
      </trkpt>
      <trkpt lat="37.05489" lon="-3.36751">
        <ele>3282.2</ele>
        <time>2021-08-05 16:49:49</time>
      </trkpt>
      <trkpt lat="37.0549" lon="-3.36751">
        <ele>3282</ele>
        <time>2021-08-05 16:49:50</time>
      </trkpt>
      <trkpt lat="37.0549" lon="-3.36751">
        <ele>3282</ele>
        <time>2021-08-05 16:49:51</time>
      </trkpt>
      <trkpt lat="37.05491" lon="-3.36751">
        <ele>3282.2</ele>
        <time>2021-08-05 16:49:52</time>
      </trkpt>
      <trkpt lat="37.05491" lon="-3.3675">
        <ele>3282.4</ele>
        <time>2021-08-05 16:49:53</time>
      </trkpt>
      <trkpt lat="37.05492" lon="-3.36749">
        <ele>3282.6</ele>
        <time>2021-08-05 16:49:54</time>
      </trkpt>
      <trkpt lat="37.05493" lon="-3.36748">
        <ele>3282.6</ele>
        <time>2021-08-05 16:49:55</time>
      </trkpt>
      <trkpt lat="37.05494" lon="-3.36748">
        <ele>3282.6</ele>
        <time>2021-08-05 16:49:56</time>
      </trkpt>
      <trkpt lat="37.05494" lon="-3.36748">
        <ele>3282.6</ele>
        <time>2021-08-05 16:49:57</time>
      </trkpt>
      <trkpt lat="37.05495" lon="-3.36747">
        <ele>3282.8</ele>
        <time>2021-08-05 16:49:58</time>
      </trkpt>
      <trkpt lat="37.05496" lon="-3.36747">
        <ele>3282.6</ele>
        <time>2021-08-05 16:49:59</time>
      </trkpt>
      <trkpt lat="37.05497" lon="-3.36747">
        <ele>3282.6</ele>
        <time>2021-08-05 16:50:00</time>
      </trkpt>
      <trkpt lat="37.05498" lon="-3.36747">
        <ele>3282.6</ele>
        <time>2021-08-05 16:50:01</time>
      </trkpt>
      <trkpt lat="37.05498" lon="-3.36747">
        <ele>3282.8</ele>
        <time>2021-08-05 16:50:02</time>
      </trkpt>
      <trkpt lat="37.05499" lon="-3.36747">
        <ele>3282.8</ele>
        <time>2021-08-05 16:50:03</time>
      </trkpt>
      <trkpt lat="37.05499" lon="-3.36748">
        <ele>3282.8</ele>
        <time>2021-08-05 16:50:04</time>
      </trkpt>
      <trkpt lat="37.055" lon="-3.36749">
        <ele>3282.8</ele>
        <time>2021-08-05 16:50:05</time>
      </trkpt>
      <trkpt lat="37.055" lon="-3.36749">
        <ele>3282.8</ele>
        <time>2021-08-05 16:50:06</time>
      </trkpt>
      <trkpt lat="37.05501" lon="-3.36749">
        <ele>3282.8</ele>
        <time>2021-08-05 16:50:07</time>
      </trkpt>
      <trkpt lat="37.05501" lon="-3.3675">
        <ele>3282.8</ele>
        <time>2021-08-05 16:50:08</time>
      </trkpt>
      <trkpt lat="37.05501" lon="-3.36749">
        <ele>3282.8</ele>
        <time>2021-08-05 16:50:09</time>
      </trkpt>
      <trkpt lat="37.05501" lon="-3.3675">
        <ele>3282.6</ele>
        <time>2021-08-05 16:50:10</time>
      </trkpt>
      <trkpt lat="37.05501" lon="-3.36752">
        <ele>3282.8</ele>
        <time>2021-08-05 16:50:11</time>
      </trkpt>
      <trkpt lat="37.05501" lon="-3.36753">
        <ele>3282.8</ele>
        <time>2021-08-05 16:50:12</time>
      </trkpt>
      <trkpt lat="37.05501" lon="-3.36753">
        <ele>3282.8</ele>
        <time>2021-08-05 16:50:13</time>
      </trkpt>
      <trkpt lat="37.05502" lon="-3.36754">
        <ele>3282.6</ele>
        <time>2021-08-05 16:50:14</time>
      </trkpt>
      <trkpt lat="37.05503" lon="-3.36754">
        <ele>3282.4</ele>
        <time>2021-08-05 16:50:15</time>
      </trkpt>
      <trkpt lat="37.05504" lon="-3.36755">
        <ele>3282.4</ele>
        <time>2021-08-05 16:50:16</time>
      </trkpt>
      <trkpt lat="37.05505" lon="-3.36754">
        <ele>3282.6</ele>
        <time>2021-08-05 16:50:17</time>
      </trkpt>
      <trkpt lat="37.05506" lon="-3.36753">
        <ele>3282.8</ele>
        <time>2021-08-05 16:50:18</time>
      </trkpt>
      <trkpt lat="37.05507" lon="-3.36753">
        <ele>3282.8</ele>
        <time>2021-08-05 16:50:19</time>
      </trkpt>
      <trkpt lat="37.05508" lon="-3.36752">
        <ele>3283</ele>
        <time>2021-08-05 16:50:20</time>
      </trkpt>
      <trkpt lat="37.05509" lon="-3.36751">
        <ele>3283</ele>
        <time>2021-08-05 16:50:21</time>
      </trkpt>
      <trkpt lat="37.0551" lon="-3.36751">
        <ele>3283</ele>
        <time>2021-08-05 16:50:22</time>
      </trkpt>
      <trkpt lat="37.05511" lon="-3.36751">
        <ele>3283</ele>
        <time>2021-08-05 16:50:23</time>
      </trkpt>
      <trkpt lat="37.05511" lon="-3.3675">
        <ele>3283</ele>
        <time>2021-08-05 16:50:24</time>
      </trkpt>
      <trkpt lat="37.05512" lon="-3.3675">
        <ele>3283</ele>
        <time>2021-08-05 16:50:25</time>
      </trkpt>
      <trkpt lat="37.05513" lon="-3.3675">
        <ele>3283</ele>
        <time>2021-08-05 16:50:26</time>
      </trkpt>
      <trkpt lat="37.05514" lon="-3.36751">
        <ele>3283</ele>
        <time>2021-08-05 16:50:27</time>
      </trkpt>
      <trkpt lat="37.05515" lon="-3.36751">
        <ele>3283</ele>
        <time>2021-08-05 16:50:28</time>
      </trkpt>
      <trkpt lat="37.05516" lon="-3.36751">
        <ele>3283.2</ele>
        <time>2021-08-05 16:50:29</time>
      </trkpt>
      <trkpt lat="37.05516" lon="-3.36752">
        <ele>3283.4</ele>
        <time>2021-08-05 16:50:30</time>
      </trkpt>
      <trkpt lat="37.05517" lon="-3.36752">
        <ele>3283.6</ele>
        <time>2021-08-05 16:50:31</time>
      </trkpt>
      <trkpt lat="37.05517" lon="-3.36754">
        <ele>3283.8</ele>
        <time>2021-08-05 16:50:32</time>
      </trkpt>
      <trkpt lat="37.05517" lon="-3.36755">
        <ele>3284</ele>
        <time>2021-08-05 16:50:33</time>
      </trkpt>
      <trkpt lat="37.05517" lon="-3.36755">
        <ele>3284.2</ele>
        <time>2021-08-05 16:50:34</time>
      </trkpt>
      <trkpt lat="37.05518" lon="-3.36756">
        <ele>3284.2</ele>
        <time>2021-08-05 16:50:35</time>
      </trkpt>
      <trkpt lat="37.05518" lon="-3.36756">
        <ele>3284.2</ele>
        <time>2021-08-05 16:50:36</time>
      </trkpt>
      <trkpt lat="37.05519" lon="-3.36756">
        <ele>3284.2</ele>
        <time>2021-08-05 16:50:37</time>
      </trkpt>
      <trkpt lat="37.0552" lon="-3.36756">
        <ele>3284.2</ele>
        <time>2021-08-05 16:50:38</time>
      </trkpt>
      <trkpt lat="37.0552" lon="-3.36756">
        <ele>3284</ele>
        <time>2021-08-05 16:50:39</time>
      </trkpt>
      <trkpt lat="37.0552" lon="-3.36757">
        <ele>3284</ele>
        <time>2021-08-05 16:50:40</time>
      </trkpt>
      <trkpt lat="37.05521" lon="-3.36756">
        <ele>3284</ele>
        <time>2021-08-05 16:50:41</time>
      </trkpt>
      <trkpt lat="37.05521" lon="-3.36755">
        <ele>3284.2</ele>
        <time>2021-08-05 16:50:42</time>
      </trkpt>
      <trkpt lat="37.05522" lon="-3.36755">
        <ele>3284.4</ele>
        <time>2021-08-05 16:50:43</time>
      </trkpt>
      <trkpt lat="37.05522" lon="-3.36755">
        <ele>3284.4</ele>
        <time>2021-08-05 16:50:44</time>
      </trkpt>
      <trkpt lat="37.05523" lon="-3.36756">
        <ele>3284.8</ele>
        <time>2021-08-05 16:50:45</time>
      </trkpt>
      <trkpt lat="37.05523" lon="-3.36755">
        <ele>3284.8</ele>
        <time>2021-08-05 16:50:46</time>
      </trkpt>
      <trkpt lat="37.05524" lon="-3.36755">
        <ele>3285</ele>
        <time>2021-08-05 16:50:47</time>
      </trkpt>
      <trkpt lat="37.05524" lon="-3.36754">
        <ele>3285</ele>
        <time>2021-08-05 16:50:48</time>
      </trkpt>
      <trkpt lat="37.05525" lon="-3.36754">
        <ele>3285</ele>
        <time>2021-08-05 16:50:49</time>
      </trkpt>
      <trkpt lat="37.05526" lon="-3.36754">
        <ele>3285</ele>
        <time>2021-08-05 16:50:50</time>
      </trkpt>
      <trkpt lat="37.05526" lon="-3.36753">
        <ele>3285</ele>
        <time>2021-08-05 16:50:51</time>
      </trkpt>
      <trkpt lat="37.05526" lon="-3.36753">
        <ele>3285</ele>
        <time>2021-08-05 16:50:52</time>
      </trkpt>
      <trkpt lat="37.05527" lon="-3.36753">
        <ele>3285</ele>
        <time>2021-08-05 16:50:53</time>
      </trkpt>
      <trkpt lat="37.05528" lon="-3.36753">
        <ele>3285</ele>
        <time>2021-08-05 16:50:54</time>
      </trkpt>
      <trkpt lat="37.05528" lon="-3.36753">
        <ele>3285</ele>
        <time>2021-08-05 16:50:55</time>
      </trkpt>
      <trkpt lat="37.05528" lon="-3.36753">
        <ele>3285</ele>
        <time>2021-08-05 16:50:56</time>
      </trkpt>
      <trkpt lat="37.05529" lon="-3.36753">
        <ele>3285</ele>
        <time>2021-08-05 16:50:57</time>
      </trkpt>
      <trkpt lat="37.05529" lon="-3.36754">
        <ele>3285</ele>
        <time>2021-08-05 16:50:58</time>
      </trkpt>
      <trkpt lat="37.0553" lon="-3.36754">
        <ele>3285.2</ele>
        <time>2021-08-05 16:50:59</time>
      </trkpt>
      <trkpt lat="37.05531" lon="-3.36754">
        <ele>3285.2</ele>
        <time>2021-08-05 16:51:00</time>
      </trkpt>
      <trkpt lat="37.05532" lon="-3.36754">
        <ele>3285.4</ele>
        <time>2021-08-05 16:51:01</time>
      </trkpt>
      <trkpt lat="37.05532" lon="-3.36754">
        <ele>3285.6</ele>
        <time>2021-08-05 16:51:02</time>
      </trkpt>
      <trkpt lat="37.05532" lon="-3.36753">
        <ele>3285.6</ele>
        <time>2021-08-05 16:51:03</time>
      </trkpt>
      <trkpt lat="37.05532" lon="-3.36753">
        <ele>3285.6</ele>
        <time>2021-08-05 16:51:04</time>
      </trkpt>
      <trkpt lat="37.05534" lon="-3.36753">
        <ele>3285.8</ele>
        <time>2021-08-05 16:51:05</time>
      </trkpt>
      <trkpt lat="37.05534" lon="-3.36753">
        <ele>3286</ele>
        <time>2021-08-05 16:51:06</time>
      </trkpt>
      <trkpt lat="37.05532" lon="-3.36753">
        <ele>3286.2</ele>
        <time>2021-08-05 16:51:07</time>
      </trkpt>
      <trkpt lat="37.05532" lon="-3.36753">
        <ele>3286.4</ele>
        <time>2021-08-05 16:51:08</time>
      </trkpt>
      <trkpt lat="37.05532" lon="-3.36753">
        <ele>3286.4</ele>
        <time>2021-08-05 16:51:09</time>
      </trkpt>
      <trkpt lat="37.05532" lon="-3.36753">
        <ele>3286.6</ele>
        <time>2021-08-05 16:51:10</time>
      </trkpt>
      <trkpt lat="37.05532" lon="-3.36753">
        <ele>3286.6</ele>
        <time>2021-08-05 16:51:11</time>
      </trkpt>
      <trkpt lat="37.05533" lon="-3.36753">
        <ele>3286.6</ele>
        <time>2021-08-05 16:51:12</time>
      </trkpt>
      <trkpt lat="37.05534" lon="-3.36754">
        <ele>3286.6</ele>
        <time>2021-08-05 16:51:13</time>
      </trkpt>
      <trkpt lat="37.05535" lon="-3.36754">
        <ele>3286.6</ele>
        <time>2021-08-05 16:51:14</time>
      </trkpt>
      <trkpt lat="37.05537" lon="-3.36755">
        <ele>3286.2</ele>
        <time>2021-08-05 16:51:15</time>
      </trkpt>
      <trkpt lat="37.05538" lon="-3.36756">
        <ele>3286.2</ele>
        <time>2021-08-05 16:51:16</time>
      </trkpt>
      <trkpt lat="37.05539" lon="-3.36756">
        <ele>3286.2</ele>
        <time>2021-08-05 16:51:17</time>
      </trkpt>
      <trkpt lat="37.0554" lon="-3.36756">
        <ele>3286.2</ele>
        <time>2021-08-05 16:51:18</time>
      </trkpt>
      <trkpt lat="37.05542" lon="-3.36755">
        <ele>3286.2</ele>
        <time>2021-08-05 16:51:19</time>
      </trkpt>
      <trkpt lat="37.05543" lon="-3.36755">
        <ele>3286.4</ele>
        <time>2021-08-05 16:51:20</time>
      </trkpt>
      <trkpt lat="37.05543" lon="-3.36756">
        <ele>3286.4</ele>
        <time>2021-08-05 16:51:21</time>
      </trkpt>
      <trkpt lat="37.05544" lon="-3.36756">
        <ele>3286.6</ele>
        <time>2021-08-05 16:51:22</time>
      </trkpt>
      <trkpt lat="37.05545" lon="-3.36757">
        <ele>3286.8</ele>
        <time>2021-08-05 16:51:23</time>
      </trkpt>
      <trkpt lat="37.05546" lon="-3.36757">
        <ele>3286.8</ele>
        <time>2021-08-05 16:51:24</time>
      </trkpt>
      <trkpt lat="37.05547" lon="-3.36758">
        <ele>3287</ele>
        <time>2021-08-05 16:51:25</time>
      </trkpt>
      <trkpt lat="37.05548" lon="-3.36758">
        <ele>3287.2</ele>
        <time>2021-08-05 16:51:26</time>
      </trkpt>
      <trkpt lat="37.05549" lon="-3.36759">
        <ele>3287.2</ele>
        <time>2021-08-05 16:51:27</time>
      </trkpt>
      <trkpt lat="37.05549" lon="-3.36759">
        <ele>3287.4</ele>
        <time>2021-08-05 16:51:28</time>
      </trkpt>
      <trkpt lat="37.0555" lon="-3.3676">
        <ele>3287.6</ele>
        <time>2021-08-05 16:51:29</time>
      </trkpt>
      <trkpt lat="37.05551" lon="-3.3676">
        <ele>3287.8</ele>
        <time>2021-08-05 16:51:30</time>
      </trkpt>
      <trkpt lat="37.05552" lon="-3.3676">
        <ele>3287.8</ele>
        <time>2021-08-05 16:51:31</time>
      </trkpt>
      <trkpt lat="37.05553" lon="-3.36761">
        <ele>3288</ele>
        <time>2021-08-05 16:51:32</time>
      </trkpt>
      <trkpt lat="37.05554" lon="-3.3676">
        <ele>3288</ele>
        <time>2021-08-05 16:51:33</time>
      </trkpt>
      <trkpt lat="37.05554" lon="-3.36761">
        <ele>3288</ele>
        <time>2021-08-05 16:51:34</time>
      </trkpt>
      <trkpt lat="37.05555" lon="-3.3676">
        <ele>3288</ele>
        <time>2021-08-05 16:51:35</time>
      </trkpt>
      <trkpt lat="37.05556" lon="-3.36759">
        <ele>3288</ele>
        <time>2021-08-05 16:51:36</time>
      </trkpt>
      <trkpt lat="37.05556" lon="-3.36759">
        <ele>3288</ele>
        <time>2021-08-05 16:51:37</time>
      </trkpt>
      <trkpt lat="37.05557" lon="-3.36758">
        <ele>3288</ele>
        <time>2021-08-05 16:51:38</time>
      </trkpt>
      <trkpt lat="37.05557" lon="-3.36758">
        <ele>3288</ele>
        <time>2021-08-05 16:51:39</time>
      </trkpt>
      <trkpt lat="37.05558" lon="-3.36758">
        <ele>3288</ele>
        <time>2021-08-05 16:51:40</time>
      </trkpt>
      <trkpt lat="37.05559" lon="-3.36758">
        <ele>3288</ele>
        <time>2021-08-05 16:51:41</time>
      </trkpt>
      <trkpt lat="37.0556" lon="-3.36758">
        <ele>3288</ele>
        <time>2021-08-05 16:51:42</time>
      </trkpt>
      <trkpt lat="37.0556" lon="-3.36758">
        <ele>3288</ele>
        <time>2021-08-05 16:51:43</time>
      </trkpt>
      <trkpt lat="37.0556" lon="-3.36759">
        <ele>3288</ele>
        <time>2021-08-05 16:51:44</time>
      </trkpt>
      <trkpt lat="37.05561" lon="-3.36759">
        <ele>3288</ele>
        <time>2021-08-05 16:51:45</time>
      </trkpt>
      <trkpt lat="37.05561" lon="-3.36759">
        <ele>3288</ele>
        <time>2021-08-05 16:51:46</time>
      </trkpt>
      <trkpt lat="37.05561" lon="-3.36759">
        <ele>3288</ele>
        <time>2021-08-05 16:51:47</time>
      </trkpt>
      <trkpt lat="37.05561" lon="-3.36759">
        <ele>3288</ele>
        <time>2021-08-05 16:51:48</time>
      </trkpt>
      <trkpt lat="37.05561" lon="-3.36759">
        <ele>3288</ele>
        <time>2021-08-05 16:51:49</time>
      </trkpt>
      <trkpt lat="37.05561" lon="-3.36759">
        <ele>3288.2</ele>
        <time>2021-08-05 16:51:50</time>
      </trkpt>
      <trkpt lat="37.05561" lon="-3.36759">
        <ele>3288.2</ele>
        <time>2021-08-05 16:51:51</time>
      </trkpt>
      <trkpt lat="37.05561" lon="-3.3676">
        <ele>3288.2</ele>
        <time>2021-08-05 16:51:52</time>
      </trkpt>
      <trkpt lat="37.05561" lon="-3.3676">
        <ele>3288.2</ele>
        <time>2021-08-05 16:51:53</time>
      </trkpt>
      <trkpt lat="37.05561" lon="-3.3676">
        <ele>3288.4</ele>
        <time>2021-08-05 16:51:54</time>
      </trkpt>
      <trkpt lat="37.05561" lon="-3.3676">
        <ele>3288.4</ele>
        <time>2021-08-05 16:51:55</time>
      </trkpt>
      <trkpt lat="37.05561" lon="-3.36761">
        <ele>3288.6</ele>
        <time>2021-08-05 16:51:56</time>
      </trkpt>
      <trkpt lat="37.05562" lon="-3.36762">
        <ele>3288.6</ele>
        <time>2021-08-05 16:51:57</time>
      </trkpt>
      <trkpt lat="37.05562" lon="-3.36762">
        <ele>3288.6</ele>
        <time>2021-08-05 16:51:58</time>
      </trkpt>
      <trkpt lat="37.05562" lon="-3.36762">
        <ele>3288.8</ele>
        <time>2021-08-05 16:51:59</time>
      </trkpt>
      <trkpt lat="37.05563" lon="-3.36761">
        <ele>3288.8</ele>
        <time>2021-08-05 16:52:00</time>
      </trkpt>
      <trkpt lat="37.05564" lon="-3.36761">
        <ele>3289</ele>
        <time>2021-08-05 16:52:01</time>
      </trkpt>
      <trkpt lat="37.05565" lon="-3.36761">
        <ele>3289</ele>
        <time>2021-08-05 16:52:02</time>
      </trkpt>
      <trkpt lat="37.05565" lon="-3.36761">
        <ele>3289</ele>
        <time>2021-08-05 16:52:03</time>
      </trkpt>
      <trkpt lat="37.05566" lon="-3.36762">
        <ele>3289.2</ele>
        <time>2021-08-05 16:52:04</time>
      </trkpt>
      <trkpt lat="37.05565" lon="-3.3676">
        <ele>3289.2</ele>
        <time>2021-08-05 16:52:05</time>
      </trkpt>
      <trkpt lat="37.05564" lon="-3.3676">
        <ele>3289.4</ele>
        <time>2021-08-05 16:52:06</time>
      </trkpt>
      <trkpt lat="37.05564" lon="-3.3676">
        <ele>3289.4</ele>
        <time>2021-08-05 16:52:07</time>
      </trkpt>
      <trkpt lat="37.05564" lon="-3.3676">
        <ele>3289.4</ele>
        <time>2021-08-05 16:52:08</time>
      </trkpt>
      <trkpt lat="37.05565" lon="-3.36759">
        <ele>3289.4</ele>
        <time>2021-08-05 16:52:09</time>
      </trkpt>
      <trkpt lat="37.05565" lon="-3.36759">
        <ele>3289.2</ele>
        <time>2021-08-05 16:52:10</time>
      </trkpt>
      <trkpt lat="37.05566" lon="-3.36759">
        <ele>3289.2</ele>
        <time>2021-08-05 16:52:11</time>
      </trkpt>
      <trkpt lat="37.05566" lon="-3.36758">
        <ele>3289</ele>
        <time>2021-08-05 16:52:12</time>
      </trkpt>
      <trkpt lat="37.05566" lon="-3.36758">
        <ele>3289</ele>
        <time>2021-08-05 16:52:13</time>
      </trkpt>
      <trkpt lat="37.05567" lon="-3.36758">
        <ele>3289</ele>
        <time>2021-08-05 16:52:14</time>
      </trkpt>
      <trkpt lat="37.05568" lon="-3.36757">
        <ele>3289.2</ele>
        <time>2021-08-05 16:52:15</time>
      </trkpt>
      <trkpt lat="37.05568" lon="-3.36757">
        <ele>3289.2</ele>
        <time>2021-08-05 16:52:16</time>
      </trkpt>
      <trkpt lat="37.05572" lon="-3.36757">
        <ele>3289.4</ele>
        <time>2021-08-05 16:52:17</time>
      </trkpt>
      <trkpt lat="37.05572" lon="-3.36756">
        <ele>3289.4</ele>
        <time>2021-08-05 16:52:18</time>
      </trkpt>
      <trkpt lat="37.05573" lon="-3.36757">
        <ele>3289.4</ele>
        <time>2021-08-05 16:52:19</time>
      </trkpt>
      <trkpt lat="37.05564" lon="-3.36759">
        <ele>3289.4</ele>
        <time>2021-08-05 16:52:20</time>
      </trkpt>
      <trkpt lat="37.05564" lon="-3.3676">
        <ele>3289.4</ele>
        <time>2021-08-05 16:52:21</time>
      </trkpt>
      <trkpt lat="37.05564" lon="-3.3676">
        <ele>3289.4</ele>
        <time>2021-08-05 16:52:22</time>
      </trkpt>
      <trkpt lat="37.05564" lon="-3.3676">
        <ele>3289.4</ele>
        <time>2021-08-05 16:52:23</time>
      </trkpt>
      <trkpt lat="37.05563" lon="-3.36761">
        <ele>3289.6</ele>
        <time>2021-08-05 16:52:24</time>
      </trkpt>
      <trkpt lat="37.05562" lon="-3.36761">
        <ele>3289.8</ele>
        <time>2021-08-05 16:52:25</time>
      </trkpt>
      <trkpt lat="37.05562" lon="-3.36761">
        <ele>3289.8</ele>
        <time>2021-08-05 16:52:26</time>
      </trkpt>
      <trkpt lat="37.05564" lon="-3.3676">
        <ele>3290</ele>
        <time>2021-08-05 16:52:27</time>
      </trkpt>
      <trkpt lat="37.05564" lon="-3.3676">
        <ele>3290</ele>
        <time>2021-08-05 16:52:28</time>
      </trkpt>
      <trkpt lat="37.05565" lon="-3.36759">
        <ele>3290</ele>
        <time>2021-08-05 16:52:29</time>
      </trkpt>
      <trkpt lat="37.05565" lon="-3.3676">
        <ele>3290.2</ele>
        <time>2021-08-05 16:52:30</time>
      </trkpt>
      <trkpt lat="37.05565" lon="-3.36759">
        <ele>3290.2</ele>
        <time>2021-08-05 16:52:31</time>
      </trkpt>
      <trkpt lat="37.05565" lon="-3.36758">
        <ele>3290.2</ele>
        <time>2021-08-05 16:52:32</time>
      </trkpt>
      <trkpt lat="37.05567" lon="-3.36755">
        <ele>3290.2</ele>
        <time>2021-08-05 16:52:33</time>
      </trkpt>
      <trkpt lat="37.0557" lon="-3.36756">
        <ele>3290.2</ele>
        <time>2021-08-05 16:52:34</time>
      </trkpt>
      <trkpt lat="37.05573" lon="-3.36755">
        <ele>3290.2</ele>
        <time>2021-08-05 16:52:35</time>
      </trkpt>
      <trkpt lat="37.05575" lon="-3.36755">
        <ele>3290.2</ele>
        <time>2021-08-05 16:52:36</time>
      </trkpt>
      <trkpt lat="37.05577" lon="-3.36755">
        <ele>3290.2</ele>
        <time>2021-08-05 16:52:37</time>
      </trkpt>
      <trkpt lat="37.05578" lon="-3.36755">
        <ele>3290.2</ele>
        <time>2021-08-05 16:52:38</time>
      </trkpt>
      <trkpt lat="37.0558" lon="-3.36755">
        <ele>3290.4</ele>
        <time>2021-08-05 16:52:39</time>
      </trkpt>
      <trkpt lat="37.05581" lon="-3.36756">
        <ele>3290.2</ele>
        <time>2021-08-05 16:52:40</time>
      </trkpt>
      <trkpt lat="37.05584" lon="-3.36757">
        <ele>3290.6</ele>
        <time>2021-08-05 16:52:41</time>
      </trkpt>
      <trkpt lat="37.05586" lon="-3.36758">
        <ele>3290.6</ele>
        <time>2021-08-05 16:52:42</time>
      </trkpt>
      <trkpt lat="37.05587" lon="-3.36758">
        <ele>3290.8</ele>
        <time>2021-08-05 16:52:43</time>
      </trkpt>
      <trkpt lat="37.05588" lon="-3.36758">
        <ele>3290.8</ele>
        <time>2021-08-05 16:52:44</time>
      </trkpt>
      <trkpt lat="37.05589" lon="-3.36758">
        <ele>3291</ele>
        <time>2021-08-05 16:52:45</time>
      </trkpt>
      <trkpt lat="37.05591" lon="-3.36758">
        <ele>3291.2</ele>
        <time>2021-08-05 16:52:46</time>
      </trkpt>
      <trkpt lat="37.05592" lon="-3.36758">
        <ele>3291.2</ele>
        <time>2021-08-05 16:52:47</time>
      </trkpt>
      <trkpt lat="37.05595" lon="-3.36759">
        <ele>3291.2</ele>
        <time>2021-08-05 16:52:48</time>
      </trkpt>
      <trkpt lat="37.05597" lon="-3.3676">
        <ele>3291.2</ele>
        <time>2021-08-05 16:52:49</time>
      </trkpt>
      <trkpt lat="37.05598" lon="-3.3676">
        <ele>3291.2</ele>
        <time>2021-08-05 16:52:50</time>
      </trkpt>
      <trkpt lat="37.056" lon="-3.3676">
        <ele>3291.2</ele>
        <time>2021-08-05 16:52:51</time>
      </trkpt>
      <trkpt lat="37.05602" lon="-3.3676">
        <ele>3291.2</ele>
        <time>2021-08-05 16:52:52</time>
      </trkpt>
      <trkpt lat="37.05603" lon="-3.3676">
        <ele>3291.4</ele>
        <time>2021-08-05 16:52:53</time>
      </trkpt>
      <trkpt lat="37.05603" lon="-3.3676">
        <ele>3291.4</ele>
        <time>2021-08-05 16:52:54</time>
      </trkpt>
      <trkpt lat="37.05604" lon="-3.3676">
        <ele>3291.6</ele>
        <time>2021-08-05 16:52:55</time>
      </trkpt>
      <trkpt lat="37.05605" lon="-3.3676">
        <ele>3291.6</ele>
        <time>2021-08-05 16:52:56</time>
      </trkpt>
      <trkpt lat="37.05606" lon="-3.36761">
        <ele>3291.8</ele>
        <time>2021-08-05 16:52:57</time>
      </trkpt>
      <trkpt lat="37.05607" lon="-3.3676">
        <ele>3291.8</ele>
        <time>2021-08-05 16:52:58</time>
      </trkpt>
      <trkpt lat="37.05608" lon="-3.36761">
        <ele>3292</ele>
        <time>2021-08-05 16:52:59</time>
      </trkpt>
      <trkpt lat="37.05609" lon="-3.36761">
        <ele>3292</ele>
        <time>2021-08-05 16:53:00</time>
      </trkpt>
      <trkpt lat="37.05609" lon="-3.3676">
        <ele>3292</ele>
        <time>2021-08-05 16:53:01</time>
      </trkpt>
      <trkpt lat="37.05609" lon="-3.36761">
        <ele>3292</ele>
        <time>2021-08-05 16:53:02</time>
      </trkpt>
      <trkpt lat="37.0561" lon="-3.36761">
        <ele>3292</ele>
        <time>2021-08-05 16:53:03</time>
      </trkpt>
      <trkpt lat="37.05611" lon="-3.3676">
        <ele>3292.2</ele>
        <time>2021-08-05 16:53:04</time>
      </trkpt>
      <trkpt lat="37.05612" lon="-3.3676">
        <ele>3292.2</ele>
        <time>2021-08-05 16:53:05</time>
      </trkpt>
      <trkpt lat="37.05612" lon="-3.36761">
        <ele>3292.4</ele>
        <time>2021-08-05 16:53:06</time>
      </trkpt>
      <trkpt lat="37.05613" lon="-3.3676">
        <ele>3292.4</ele>
        <time>2021-08-05 16:53:07</time>
      </trkpt>
      <trkpt lat="37.05614" lon="-3.3676">
        <ele>3292.4</ele>
        <time>2021-08-05 16:53:08</time>
      </trkpt>
      <trkpt lat="37.05614" lon="-3.36759">
        <ele>3292.4</ele>
        <time>2021-08-05 16:53:09</time>
      </trkpt>
      <trkpt lat="37.05614" lon="-3.36759">
        <ele>3292.4</ele>
        <time>2021-08-05 16:53:10</time>
      </trkpt>
      <trkpt lat="37.05614" lon="-3.36759">
        <ele>3292.6</ele>
        <time>2021-08-05 16:53:11</time>
      </trkpt>
      <trkpt lat="37.05615" lon="-3.36759">
        <ele>3292.6</ele>
        <time>2021-08-05 16:53:12</time>
      </trkpt>
      <trkpt lat="37.05615" lon="-3.3676">
        <ele>3292.8</ele>
        <time>2021-08-05 16:53:13</time>
      </trkpt>
      <trkpt lat="37.05616" lon="-3.36759">
        <ele>3292.8</ele>
        <time>2021-08-05 16:53:14</time>
      </trkpt>
      <trkpt lat="37.05616" lon="-3.3676">
        <ele>3293</ele>
        <time>2021-08-05 16:53:15</time>
      </trkpt>
      <trkpt lat="37.05616" lon="-3.36759">
        <ele>3293</ele>
        <time>2021-08-05 16:53:16</time>
      </trkpt>
      <trkpt lat="37.05616" lon="-3.36759">
        <ele>3293</ele>
        <time>2021-08-05 16:53:17</time>
      </trkpt>
      <trkpt lat="37.05617" lon="-3.36759">
        <ele>3293</ele>
        <time>2021-08-05 16:53:18</time>
      </trkpt>
      <trkpt lat="37.05618" lon="-3.36759">
        <ele>3293</ele>
        <time>2021-08-05 16:53:19</time>
      </trkpt>
      <trkpt lat="37.05621" lon="-3.36759">
        <ele>3293.2</ele>
        <time>2021-08-05 16:53:20</time>
      </trkpt>
      <trkpt lat="37.05622" lon="-3.36759">
        <ele>3293.2</ele>
        <time>2021-08-05 16:53:21</time>
      </trkpt>
      <trkpt lat="37.05623" lon="-3.3676">
        <ele>3293.4</ele>
        <time>2021-08-05 16:53:22</time>
      </trkpt>
      <trkpt lat="37.05624" lon="-3.3676">
        <ele>3293.4</ele>
        <time>2021-08-05 16:53:23</time>
      </trkpt>
      <trkpt lat="37.05624" lon="-3.3676">
        <ele>3293.4</ele>
        <time>2021-08-05 16:53:24</time>
      </trkpt>
      <trkpt lat="37.05626" lon="-3.3676">
        <ele>3293.6</ele>
        <time>2021-08-05 16:53:25</time>
      </trkpt>
      <trkpt lat="37.05626" lon="-3.3676">
        <ele>3293.6</ele>
        <time>2021-08-05 16:53:26</time>
      </trkpt>
      <trkpt lat="37.05627" lon="-3.36761">
        <ele>3293.6</ele>
        <time>2021-08-05 16:53:27</time>
      </trkpt>
      <trkpt lat="37.05627" lon="-3.36761">
        <ele>3293.4</ele>
        <time>2021-08-05 16:53:28</time>
      </trkpt>
      <trkpt lat="37.05628" lon="-3.36761">
        <ele>3293.6</ele>
        <time>2021-08-05 16:53:29</time>
      </trkpt>
      <trkpt lat="37.05629" lon="-3.36761">
        <ele>3293.6</ele>
        <time>2021-08-05 16:53:30</time>
      </trkpt>
      <trkpt lat="37.0563" lon="-3.36761">
        <ele>3293.6</ele>
        <time>2021-08-05 16:53:31</time>
      </trkpt>
      <trkpt lat="37.05631" lon="-3.36761">
        <ele>3293.6</ele>
        <time>2021-08-05 16:53:32</time>
      </trkpt>
      <trkpt lat="37.05632" lon="-3.36761">
        <ele>3293.6</ele>
        <time>2021-08-05 16:53:33</time>
      </trkpt>
      <trkpt lat="37.05632" lon="-3.36761">
        <ele>3294</ele>
        <time>2021-08-05 16:53:34</time>
      </trkpt>
      <trkpt lat="37.05633" lon="-3.36761">
        <ele>3294</ele>
        <time>2021-08-05 16:53:35</time>
      </trkpt>
      <trkpt lat="37.05633" lon="-3.36762">
        <ele>3294.2</ele>
        <time>2021-08-05 16:53:36</time>
      </trkpt>
      <trkpt lat="37.05634" lon="-3.36762">
        <ele>3294.2</ele>
        <time>2021-08-05 16:53:37</time>
      </trkpt>
      <trkpt lat="37.05636" lon="-3.36762">
        <ele>3294.2</ele>
        <time>2021-08-05 16:53:38</time>
      </trkpt>
      <trkpt lat="37.05637" lon="-3.36761">
        <ele>3294.2</ele>
        <time>2021-08-05 16:53:39</time>
      </trkpt>
      <trkpt lat="37.05637" lon="-3.36762">
        <ele>3294.2</ele>
        <time>2021-08-05 16:53:40</time>
      </trkpt>
      <trkpt lat="37.05638" lon="-3.36762">
        <ele>3294.4</ele>
        <time>2021-08-05 16:53:41</time>
      </trkpt>
      <trkpt lat="37.05639" lon="-3.36762">
        <ele>3294.4</ele>
        <time>2021-08-05 16:53:42</time>
      </trkpt>
      <trkpt lat="37.0564" lon="-3.36763">
        <ele>3294.4</ele>
        <time>2021-08-05 16:53:43</time>
      </trkpt>
      <trkpt lat="37.0564" lon="-3.36762">
        <ele>3294.4</ele>
        <time>2021-08-05 16:53:44</time>
      </trkpt>
      <trkpt lat="37.05641" lon="-3.36762">
        <ele>3294.4</ele>
        <time>2021-08-05 16:53:45</time>
      </trkpt>
      <trkpt lat="37.05642" lon="-3.36762">
        <ele>3294.4</ele>
        <time>2021-08-05 16:53:46</time>
      </trkpt>
      <trkpt lat="37.05642" lon="-3.36762">
        <ele>3294.4</ele>
        <time>2021-08-05 16:53:47</time>
      </trkpt>
      <trkpt lat="37.05642" lon="-3.36761">
        <ele>3294.4</ele>
        <time>2021-08-05 16:53:48</time>
      </trkpt>
      <trkpt lat="37.05643" lon="-3.36761">
        <ele>3294.6</ele>
        <time>2021-08-05 16:53:49</time>
      </trkpt>
      <trkpt lat="37.05643" lon="-3.36761">
        <ele>3294.8</ele>
        <time>2021-08-05 16:53:50</time>
      </trkpt>
      <trkpt lat="37.05642" lon="-3.36761">
        <ele>3294.8</ele>
        <time>2021-08-05 16:53:51</time>
      </trkpt>
      <trkpt lat="37.05643" lon="-3.36761">
        <ele>3295.2</ele>
        <time>2021-08-05 16:53:52</time>
      </trkpt>
      <trkpt lat="37.05643" lon="-3.36762">
        <ele>3295.2</ele>
        <time>2021-08-05 16:53:53</time>
      </trkpt>
      <trkpt lat="37.05644" lon="-3.36762">
        <ele>3295.2</ele>
        <time>2021-08-05 16:53:54</time>
      </trkpt>
      <trkpt lat="37.05644" lon="-3.36762">
        <ele>3295.2</ele>
        <time>2021-08-05 16:53:55</time>
      </trkpt>
      <trkpt lat="37.05644" lon="-3.36762">
        <ele>3295.2</ele>
        <time>2021-08-05 16:53:56</time>
      </trkpt>
      <trkpt lat="37.05645" lon="-3.36762">
        <ele>3295.2</ele>
        <time>2021-08-05 16:53:57</time>
      </trkpt>
      <trkpt lat="37.05645" lon="-3.36762">
        <ele>3295.2</ele>
        <time>2021-08-05 16:53:58</time>
      </trkpt>
      <trkpt lat="37.05646" lon="-3.36762">
        <ele>3295.2</ele>
        <time>2021-08-05 16:53:59</time>
      </trkpt>
      <trkpt lat="37.05647" lon="-3.36762">
        <ele>3295.2</ele>
        <time>2021-08-05 16:54:00</time>
      </trkpt>
      <trkpt lat="37.05648" lon="-3.36762">
        <ele>3295</ele>
        <time>2021-08-05 16:54:01</time>
      </trkpt>
      <trkpt lat="37.05648" lon="-3.36762">
        <ele>3294.8</ele>
        <time>2021-08-05 16:54:02</time>
      </trkpt>
      <trkpt lat="37.05649" lon="-3.36762">
        <ele>3295</ele>
        <time>2021-08-05 16:54:03</time>
      </trkpt>
      <trkpt lat="37.05648" lon="-3.36762">
        <ele>3295.2</ele>
        <time>2021-08-05 16:54:04</time>
      </trkpt>
      <trkpt lat="37.0565" lon="-3.36762">
        <ele>3295.2</ele>
        <time>2021-08-05 16:54:05</time>
      </trkpt>
      <trkpt lat="37.05651" lon="-3.36763">
        <ele>3295.2</ele>
        <time>2021-08-05 16:54:06</time>
      </trkpt>
      <trkpt lat="37.05651" lon="-3.36764">
        <ele>3295.2</ele>
        <time>2021-08-05 16:54:07</time>
      </trkpt>
      <trkpt lat="37.05649" lon="-3.36763">
        <ele>3295.2</ele>
        <time>2021-08-05 16:54:08</time>
      </trkpt>
      <trkpt lat="37.05648" lon="-3.36763">
        <ele>3295.2</ele>
        <time>2021-08-05 16:54:09</time>
      </trkpt>
      <trkpt lat="37.05648" lon="-3.36763">
        <ele>3295.2</ele>
        <time>2021-08-05 16:54:10</time>
      </trkpt>
      <trkpt lat="37.05648" lon="-3.36763">
        <ele>3295.2</ele>
        <time>2021-08-05 16:54:11</time>
      </trkpt>
      <trkpt lat="37.05648" lon="-3.36761">
        <ele>3295.2</ele>
        <time>2021-08-05 16:54:12</time>
      </trkpt>
      <trkpt lat="37.05647" lon="-3.36761">
        <ele>3295</ele>
        <time>2021-08-05 16:54:13</time>
      </trkpt>
      <trkpt lat="37.05648" lon="-3.3676">
        <ele>3295</ele>
        <time>2021-08-05 16:54:14</time>
      </trkpt>
      <trkpt lat="37.05648" lon="-3.36759">
        <ele>3295</ele>
        <time>2021-08-05 16:54:15</time>
      </trkpt>
      <trkpt lat="37.05648" lon="-3.36758">
        <ele>3295</ele>
        <time>2021-08-05 16:54:16</time>
      </trkpt>
      <trkpt lat="37.05648" lon="-3.36758">
        <ele>3295</ele>
        <time>2021-08-05 16:54:17</time>
      </trkpt>
      <trkpt lat="37.05647" lon="-3.36758">
        <ele>3295.2</ele>
        <time>2021-08-05 16:54:18</time>
      </trkpt>
      <trkpt lat="37.05647" lon="-3.36758">
        <ele>3295.2</ele>
        <time>2021-08-05 16:54:19</time>
      </trkpt>
      <trkpt lat="37.05647" lon="-3.36758">
        <ele>3295.2</ele>
        <time>2021-08-05 16:54:20</time>
      </trkpt>
      <trkpt lat="37.05647" lon="-3.36757">
        <ele>3295.2</ele>
        <time>2021-08-05 16:54:21</time>
      </trkpt>
      <trkpt lat="37.05647" lon="-3.36757">
        <ele>3295.4</ele>
        <time>2021-08-05 16:54:22</time>
      </trkpt>
      <trkpt lat="37.05647" lon="-3.36757">
        <ele>3295.6</ele>
        <time>2021-08-05 16:54:23</time>
      </trkpt>
      <trkpt lat="37.05647" lon="-3.36757">
        <ele>3295.6</ele>
        <time>2021-08-05 16:54:24</time>
      </trkpt>
      <trkpt lat="37.05649" lon="-3.36758">
        <ele>3295.6</ele>
        <time>2021-08-05 16:54:25</time>
      </trkpt>
      <trkpt lat="37.0565" lon="-3.36758">
        <ele>3295.6</ele>
        <time>2021-08-05 16:54:26</time>
      </trkpt>
      <trkpt lat="37.05651" lon="-3.36757">
        <ele>3295.6</ele>
        <time>2021-08-05 16:54:27</time>
      </trkpt>
      <trkpt lat="37.05652" lon="-3.36757">
        <ele>3295.6</ele>
        <time>2021-08-05 16:54:28</time>
      </trkpt>
      <trkpt lat="37.05653" lon="-3.36757">
        <ele>3295.8</ele>
        <time>2021-08-05 16:54:29</time>
      </trkpt>
      <trkpt lat="37.05654" lon="-3.36757">
        <ele>3295.8</ele>
        <time>2021-08-05 16:54:30</time>
      </trkpt>
      <trkpt lat="37.05655" lon="-3.36757">
        <ele>3296</ele>
        <time>2021-08-05 16:54:31</time>
      </trkpt>
      <trkpt lat="37.05655" lon="-3.36756">
        <ele>3296.2</ele>
        <time>2021-08-05 16:54:32</time>
      </trkpt>
      <trkpt lat="37.05656" lon="-3.36756">
        <ele>3296.4</ele>
        <time>2021-08-05 16:54:33</time>
      </trkpt>
      <trkpt lat="37.05657" lon="-3.36755">
        <ele>3296.6</ele>
        <time>2021-08-05 16:54:34</time>
      </trkpt>
      <trkpt lat="37.05657" lon="-3.36755">
        <ele>3296.6</ele>
        <time>2021-08-05 16:54:35</time>
      </trkpt>
      <trkpt lat="37.05657" lon="-3.36755">
        <ele>3296.6</ele>
        <time>2021-08-05 16:54:36</time>
      </trkpt>
      <trkpt lat="37.05658" lon="-3.36755">
        <ele>3296.6</ele>
        <time>2021-08-05 16:54:37</time>
      </trkpt>
      <trkpt lat="37.05659" lon="-3.36755">
        <ele>3296.6</ele>
        <time>2021-08-05 16:54:38</time>
      </trkpt>
      <trkpt lat="37.05659" lon="-3.36754">
        <ele>3296.6</ele>
        <time>2021-08-05 16:54:39</time>
      </trkpt>
      <trkpt lat="37.0566" lon="-3.36753">
        <ele>3296.6</ele>
        <time>2021-08-05 16:54:40</time>
      </trkpt>
      <trkpt lat="37.0566" lon="-3.36753">
        <ele>3296.6</ele>
        <time>2021-08-05 16:54:41</time>
      </trkpt>
      <trkpt lat="37.0566" lon="-3.36753">
        <ele>3297</ele>
        <time>2021-08-05 16:54:42</time>
      </trkpt>
      <trkpt lat="37.05661" lon="-3.36753">
        <ele>3297.2</ele>
        <time>2021-08-05 16:54:43</time>
      </trkpt>
      <trkpt lat="37.05661" lon="-3.36753">
        <ele>3297.4</ele>
        <time>2021-08-05 16:54:44</time>
      </trkpt>
      <trkpt lat="37.05662" lon="-3.36753">
        <ele>3297.4</ele>
        <time>2021-08-05 16:54:45</time>
      </trkpt>
      <trkpt lat="37.05663" lon="-3.36753">
        <ele>3297.6</ele>
        <time>2021-08-05 16:54:46</time>
      </trkpt>
      <trkpt lat="37.05663" lon="-3.36752">
        <ele>3297.8</ele>
        <time>2021-08-05 16:54:47</time>
      </trkpt>
      <trkpt lat="37.05666" lon="-3.36749">
        <ele>3298</ele>
        <time>2021-08-05 16:54:48</time>
      </trkpt>
      <trkpt lat="37.05666" lon="-3.36748">
        <ele>3298.2</ele>
        <time>2021-08-05 16:54:49</time>
      </trkpt>
      <trkpt lat="37.05667" lon="-3.36748">
        <ele>3298.2</ele>
        <time>2021-08-05 16:54:50</time>
      </trkpt>
      <trkpt lat="37.05669" lon="-3.36746">
        <ele>3298.2</ele>
        <time>2021-08-05 16:54:51</time>
      </trkpt>
      <trkpt lat="37.05669" lon="-3.36746">
        <ele>3298.2</ele>
        <time>2021-08-05 16:54:52</time>
      </trkpt>
      <trkpt lat="37.0567" lon="-3.36745">
        <ele>3298.4</ele>
        <time>2021-08-05 16:54:53</time>
      </trkpt>
      <trkpt lat="37.0567" lon="-3.36745">
        <ele>3298.8</ele>
        <time>2021-08-05 16:54:54</time>
      </trkpt>
      <trkpt lat="37.05669" lon="-3.36745">
        <ele>3299</ele>
        <time>2021-08-05 16:54:55</time>
      </trkpt>
      <trkpt lat="37.05669" lon="-3.36745">
        <ele>3299.2</ele>
        <time>2021-08-05 16:54:56</time>
      </trkpt>
      <trkpt lat="37.05669" lon="-3.36747">
        <ele>3299.2</ele>
        <time>2021-08-05 16:54:57</time>
      </trkpt>
      <trkpt lat="37.05669" lon="-3.36748">
        <ele>3299.4</ele>
        <time>2021-08-05 16:54:58</time>
      </trkpt>
      <trkpt lat="37.05668" lon="-3.36748">
        <ele>3299.6</ele>
        <time>2021-08-05 16:54:59</time>
      </trkpt>
      <trkpt lat="37.05668" lon="-3.36748">
        <ele>3300</ele>
        <time>2021-08-05 16:55:00</time>
      </trkpt>
      <trkpt lat="37.0567" lon="-3.36747">
        <ele>3300.2</ele>
        <time>2021-08-05 16:55:01</time>
      </trkpt>
      <trkpt lat="37.05669" lon="-3.36747">
        <ele>3300.4</ele>
        <time>2021-08-05 16:55:02</time>
      </trkpt>
      <trkpt lat="37.05669" lon="-3.36746">
        <ele>3300.6</ele>
        <time>2021-08-05 16:55:03</time>
      </trkpt>
      <trkpt lat="37.05669" lon="-3.36746">
        <ele>3300.8</ele>
        <time>2021-08-05 16:55:04</time>
      </trkpt>
      <trkpt lat="37.05669" lon="-3.36745">
        <ele>3301</ele>
        <time>2021-08-05 16:55:05</time>
      </trkpt>
      <trkpt lat="37.05669" lon="-3.36745">
        <ele>3301</ele>
        <time>2021-08-05 16:55:06</time>
      </trkpt>
      <trkpt lat="37.0567" lon="-3.36744">
        <ele>3301.2</ele>
        <time>2021-08-05 16:55:07</time>
      </trkpt>
      <trkpt lat="37.0567" lon="-3.36744">
        <ele>3301.2</ele>
        <time>2021-08-05 16:55:08</time>
      </trkpt>
      <trkpt lat="37.0567" lon="-3.36743">
        <ele>3301.2</ele>
        <time>2021-08-05 16:55:09</time>
      </trkpt>
      <trkpt lat="37.05666" lon="-3.36743">
        <ele>3301.4</ele>
        <time>2021-08-05 16:55:10</time>
      </trkpt>
      <trkpt lat="37.05666" lon="-3.36742">
        <ele>3301.4</ele>
        <time>2021-08-05 16:55:11</time>
      </trkpt>
      <trkpt lat="37.05665" lon="-3.36741">
        <ele>3301.6</ele>
        <time>2021-08-05 16:55:12</time>
      </trkpt>
      <trkpt lat="37.05665" lon="-3.36741">
        <ele>3302</ele>
        <time>2021-08-05 16:55:13</time>
      </trkpt>
      <trkpt lat="37.05664" lon="-3.3674">
        <ele>3302.2</ele>
        <time>2021-08-05 16:55:14</time>
      </trkpt>
      <trkpt lat="37.05663" lon="-3.36739">
        <ele>3302.4</ele>
        <time>2021-08-05 16:55:15</time>
      </trkpt>
      <trkpt lat="37.05662" lon="-3.36735">
        <ele>3302.6</ele>
        <time>2021-08-05 16:55:16</time>
      </trkpt>
      <trkpt lat="37.05662" lon="-3.36734">
        <ele>3302.6</ele>
        <time>2021-08-05 16:55:17</time>
      </trkpt>
      <trkpt lat="37.05662" lon="-3.36734">
        <ele>3302.8</ele>
        <time>2021-08-05 16:55:18</time>
      </trkpt>
      <trkpt lat="37.05661" lon="-3.36734">
        <ele>3302.8</ele>
        <time>2021-08-05 16:55:19</time>
      </trkpt>
      <trkpt lat="37.05661" lon="-3.36734">
        <ele>3302.8</ele>
        <time>2021-08-05 16:55:20</time>
      </trkpt>
      <trkpt lat="37.05663" lon="-3.36734">
        <ele>3302.8</ele>
        <time>2021-08-05 16:55:21</time>
      </trkpt>
      <trkpt lat="37.05663" lon="-3.36734">
        <ele>3302.8</ele>
        <time>2021-08-05 16:55:22</time>
      </trkpt>
      <trkpt lat="37.05664" lon="-3.36734">
        <ele>3303</ele>
        <time>2021-08-05 16:55:23</time>
      </trkpt>
      <trkpt lat="37.05664" lon="-3.36734">
        <ele>3303</ele>
        <time>2021-08-05 16:55:24</time>
      </trkpt>
      <trkpt lat="37.05666" lon="-3.36733">
        <ele>3303</ele>
        <time>2021-08-05 16:55:25</time>
      </trkpt>
      <trkpt lat="37.05666" lon="-3.36733">
        <ele>3303.2</ele>
        <time>2021-08-05 16:55:26</time>
      </trkpt>
      <trkpt lat="37.05666" lon="-3.36733">
        <ele>3303.4</ele>
        <time>2021-08-05 16:55:27</time>
      </trkpt>
      <trkpt lat="37.05665" lon="-3.36733">
        <ele>3303.4</ele>
        <time>2021-08-05 16:55:28</time>
      </trkpt>
      <trkpt lat="37.05665" lon="-3.36733">
        <ele>3303.6</ele>
        <time>2021-08-05 16:55:29</time>
      </trkpt>
      <trkpt lat="37.05665" lon="-3.36732">
        <ele>3303.6</ele>
        <time>2021-08-05 16:55:30</time>
      </trkpt>
      <trkpt lat="37.05665" lon="-3.36732">
        <ele>3303.6</ele>
        <time>2021-08-05 16:55:31</time>
      </trkpt>
      <trkpt lat="37.05664" lon="-3.36732">
        <ele>3303.8</ele>
        <time>2021-08-05 16:55:32</time>
      </trkpt>
      <trkpt lat="37.05664" lon="-3.36732">
        <ele>3303.8</ele>
        <time>2021-08-05 16:55:33</time>
      </trkpt>
      <trkpt lat="37.05663" lon="-3.36731">
        <ele>3304</ele>
        <time>2021-08-05 16:55:34</time>
      </trkpt>
      <trkpt lat="37.05664" lon="-3.36728">
        <ele>3304.2</ele>
        <time>2021-08-05 16:55:35</time>
      </trkpt>
      <trkpt lat="37.05664" lon="-3.36728">
        <ele>3304.4</ele>
        <time>2021-08-05 16:55:36</time>
      </trkpt>
      <trkpt lat="37.05663" lon="-3.36727">
        <ele>3304.4</ele>
        <time>2021-08-05 16:55:37</time>
      </trkpt>
      <trkpt lat="37.05663" lon="-3.36727">
        <ele>3304.8</ele>
        <time>2021-08-05 16:55:38</time>
      </trkpt>
      <trkpt lat="37.05664" lon="-3.36726">
        <ele>3304.8</ele>
        <time>2021-08-05 16:55:39</time>
      </trkpt>
      <trkpt lat="37.05664" lon="-3.36725">
        <ele>3305</ele>
        <time>2021-08-05 16:55:40</time>
      </trkpt>
      <trkpt lat="37.05665" lon="-3.36724">
        <ele>3305</ele>
        <time>2021-08-05 16:55:41</time>
      </trkpt>
      <trkpt lat="37.05665" lon="-3.36725">
        <ele>3305</ele>
        <time>2021-08-05 16:55:42</time>
      </trkpt>
      <trkpt lat="37.05666" lon="-3.36726">
        <ele>3305</ele>
        <time>2021-08-05 16:55:43</time>
      </trkpt>
      <trkpt lat="37.05667" lon="-3.36725">
        <ele>3305</ele>
        <time>2021-08-05 16:55:44</time>
      </trkpt>
      <trkpt lat="37.05667" lon="-3.36725">
        <ele>3305</ele>
        <time>2021-08-05 16:55:45</time>
      </trkpt>
      <trkpt lat="37.05667" lon="-3.36726">
        <ele>3304.8</ele>
        <time>2021-08-05 16:55:46</time>
      </trkpt>
      <trkpt lat="37.05667" lon="-3.36725">
        <ele>3304.8</ele>
        <time>2021-08-05 16:55:47</time>
      </trkpt>
      <trkpt lat="37.05667" lon="-3.36725">
        <ele>3304.8</ele>
        <time>2021-08-05 16:55:48</time>
      </trkpt>
      <trkpt lat="37.05667" lon="-3.36724">
        <ele>3304.8</ele>
        <time>2021-08-05 16:55:49</time>
      </trkpt>
      <trkpt lat="37.05667" lon="-3.36724">
        <ele>3304.8</ele>
        <time>2021-08-05 16:55:50</time>
      </trkpt>
      <trkpt lat="37.05667" lon="-3.36723">
        <ele>3304.8</ele>
        <time>2021-08-05 16:55:51</time>
      </trkpt>
      <trkpt lat="37.05667" lon="-3.36722">
        <ele>3304.8</ele>
        <time>2021-08-05 16:55:52</time>
      </trkpt>
      <trkpt lat="37.05667" lon="-3.36721">
        <ele>3305</ele>
        <time>2021-08-05 16:55:53</time>
      </trkpt>
      <trkpt lat="37.05667" lon="-3.36721">
        <ele>3305.2</ele>
        <time>2021-08-05 16:55:54</time>
      </trkpt>
      <trkpt lat="37.05667" lon="-3.3672">
        <ele>3305.4</ele>
        <time>2021-08-05 16:55:55</time>
      </trkpt>
      <trkpt lat="37.05666" lon="-3.3672">
        <ele>3305.6</ele>
        <time>2021-08-05 16:55:56</time>
      </trkpt>
      <trkpt lat="37.05666" lon="-3.36719">
        <ele>3305.8</ele>
        <time>2021-08-05 16:55:57</time>
      </trkpt>
      <trkpt lat="37.05666" lon="-3.36719">
        <ele>3306</ele>
        <time>2021-08-05 16:55:58</time>
      </trkpt>
      <trkpt lat="37.05666" lon="-3.36719">
        <ele>3306</ele>
        <time>2021-08-05 16:55:59</time>
      </trkpt>
      <trkpt lat="37.05665" lon="-3.36719">
        <ele>3306.2</ele>
        <time>2021-08-05 16:56:00</time>
      </trkpt>
      <trkpt lat="37.05665" lon="-3.36718">
        <ele>3306.4</ele>
        <time>2021-08-05 16:56:01</time>
      </trkpt>
      <trkpt lat="37.05665" lon="-3.36718">
        <ele>3306.4</ele>
        <time>2021-08-05 16:56:02</time>
      </trkpt>
      <trkpt lat="37.05665" lon="-3.36717">
        <ele>3306.4</ele>
        <time>2021-08-05 16:56:03</time>
      </trkpt>
      <trkpt lat="37.05665" lon="-3.36716">
        <ele>3306.4</ele>
        <time>2021-08-05 16:56:04</time>
      </trkpt>
      <trkpt lat="37.05664" lon="-3.36715">
        <ele>3306.6</ele>
        <time>2021-08-05 16:56:05</time>
      </trkpt>
      <trkpt lat="37.05664" lon="-3.36715">
        <ele>3306.8</ele>
        <time>2021-08-05 16:56:06</time>
      </trkpt>
      <trkpt lat="37.05664" lon="-3.36714">
        <ele>3307</ele>
        <time>2021-08-05 16:56:07</time>
      </trkpt>
      <trkpt lat="37.05663" lon="-3.36714">
        <ele>3307</ele>
        <time>2021-08-05 16:56:08</time>
      </trkpt>
      <trkpt lat="37.05663" lon="-3.36713">
        <ele>3307.2</ele>
        <time>2021-08-05 16:56:09</time>
      </trkpt>
      <trkpt lat="37.05663" lon="-3.36713">
        <ele>3307.4</ele>
        <time>2021-08-05 16:56:10</time>
      </trkpt>
      <trkpt lat="37.05662" lon="-3.36712">
        <ele>3307.6</ele>
        <time>2021-08-05 16:56:11</time>
      </trkpt>
      <trkpt lat="37.05662" lon="-3.36711">
        <ele>3307.8</ele>
        <time>2021-08-05 16:56:12</time>
      </trkpt>
      <trkpt lat="37.05662" lon="-3.36711">
        <ele>3308</ele>
        <time>2021-08-05 16:56:13</time>
      </trkpt>
      <trkpt lat="37.05662" lon="-3.36711">
        <ele>3308</ele>
        <time>2021-08-05 16:56:14</time>
      </trkpt>
      <trkpt lat="37.05662" lon="-3.3671">
        <ele>3308.2</ele>
        <time>2021-08-05 16:56:15</time>
      </trkpt>
      <trkpt lat="37.05662" lon="-3.36709">
        <ele>3308.4</ele>
        <time>2021-08-05 16:56:16</time>
      </trkpt>
      <trkpt lat="37.05662" lon="-3.36708">
        <ele>3308.4</ele>
        <time>2021-08-05 16:56:17</time>
      </trkpt>
      <trkpt lat="37.05661" lon="-3.36707">
        <ele>3308.6</ele>
        <time>2021-08-05 16:56:18</time>
      </trkpt>
      <trkpt lat="37.05661" lon="-3.36706">
        <ele>3308.8</ele>
        <time>2021-08-05 16:56:19</time>
      </trkpt>
      <trkpt lat="37.05661" lon="-3.36706">
        <ele>3309</ele>
        <time>2021-08-05 16:56:20</time>
      </trkpt>
      <trkpt lat="37.05661" lon="-3.36705">
        <ele>3309.2</ele>
        <time>2021-08-05 16:56:21</time>
      </trkpt>
      <trkpt lat="37.05661" lon="-3.36705">
        <ele>3309.4</ele>
        <time>2021-08-05 16:56:22</time>
      </trkpt>
      <trkpt lat="37.05661" lon="-3.36705">
        <ele>3309.6</ele>
        <time>2021-08-05 16:56:23</time>
      </trkpt>
      <trkpt lat="37.05661" lon="-3.36704">
        <ele>3309.8</ele>
        <time>2021-08-05 16:56:24</time>
      </trkpt>
      <trkpt lat="37.05661" lon="-3.36704">
        <ele>3310</ele>
        <time>2021-08-05 16:56:25</time>
      </trkpt>
      <trkpt lat="37.05661" lon="-3.36704">
        <ele>3310</ele>
        <time>2021-08-05 16:56:26</time>
      </trkpt>
      <trkpt lat="37.05661" lon="-3.36703">
        <ele>3310</ele>
        <time>2021-08-05 16:56:27</time>
      </trkpt>
      <trkpt lat="37.05661" lon="-3.36703">
        <ele>3310</ele>
        <time>2021-08-05 16:56:28</time>
      </trkpt>
      <trkpt lat="37.05661" lon="-3.36702">
        <ele>3310</ele>
        <time>2021-08-05 16:56:29</time>
      </trkpt>
      <trkpt lat="37.05661" lon="-3.36701">
        <ele>3310.2</ele>
        <time>2021-08-05 16:56:30</time>
      </trkpt>
      <trkpt lat="37.05661" lon="-3.367">
        <ele>3310.4</ele>
        <time>2021-08-05 16:56:31</time>
      </trkpt>
      <trkpt lat="37.0566" lon="-3.36699">
        <ele>3310.4</ele>
        <time>2021-08-05 16:56:32</time>
      </trkpt>
      <trkpt lat="37.05659" lon="-3.36699">
        <ele>3310.4</ele>
        <time>2021-08-05 16:56:33</time>
      </trkpt>
      <trkpt lat="37.05659" lon="-3.36698">
        <ele>3310.6</ele>
        <time>2021-08-05 16:56:34</time>
      </trkpt>
      <trkpt lat="37.05659" lon="-3.36698">
        <ele>3310.6</ele>
        <time>2021-08-05 16:56:35</time>
      </trkpt>
      <trkpt lat="37.05659" lon="-3.36697">
        <ele>3310.6</ele>
        <time>2021-08-05 16:56:36</time>
      </trkpt>
      <trkpt lat="37.05659" lon="-3.36696">
        <ele>3310.6</ele>
        <time>2021-08-05 16:56:37</time>
      </trkpt>
      <trkpt lat="37.05658" lon="-3.36695">
        <ele>3310.8</ele>
        <time>2021-08-05 16:56:38</time>
      </trkpt>
      <trkpt lat="37.05658" lon="-3.36693">
        <ele>3311</ele>
        <time>2021-08-05 16:56:39</time>
      </trkpt>
      <trkpt lat="37.05658" lon="-3.36693">
        <ele>3311.2</ele>
        <time>2021-08-05 16:56:40</time>
      </trkpt>
      <trkpt lat="37.05658" lon="-3.36692">
        <ele>3311.4</ele>
        <time>2021-08-05 16:56:41</time>
      </trkpt>
      <trkpt lat="37.05657" lon="-3.36692">
        <ele>3311.6</ele>
        <time>2021-08-05 16:56:42</time>
      </trkpt>
      <trkpt lat="37.05657" lon="-3.36691">
        <ele>3311.6</ele>
        <time>2021-08-05 16:56:43</time>
      </trkpt>
      <trkpt lat="37.05658" lon="-3.36691">
        <ele>3311.6</ele>
        <time>2021-08-05 16:56:44</time>
      </trkpt>
      <trkpt lat="37.05658" lon="-3.36691">
        <ele>3311.6</ele>
        <time>2021-08-05 16:56:45</time>
      </trkpt>
      <trkpt lat="37.05658" lon="-3.36691">
        <ele>3311.6</ele>
        <time>2021-08-05 16:56:46</time>
      </trkpt>
      <trkpt lat="37.05658" lon="-3.36691">
        <ele>3311.6</ele>
        <time>2021-08-05 16:56:47</time>
      </trkpt>
      <trkpt lat="37.05658" lon="-3.3669">
        <ele>3311.6</ele>
        <time>2021-08-05 16:56:48</time>
      </trkpt>
      <trkpt lat="37.05657" lon="-3.36689">
        <ele>3311.6</ele>
        <time>2021-08-05 16:56:49</time>
      </trkpt>
      <trkpt lat="37.05657" lon="-3.36689">
        <ele>3311.8</ele>
        <time>2021-08-05 16:56:50</time>
      </trkpt>
      <trkpt lat="37.05656" lon="-3.36689">
        <ele>3311.8</ele>
        <time>2021-08-05 16:56:51</time>
      </trkpt>
      <trkpt lat="37.05656" lon="-3.36689">
        <ele>3311.8</ele>
        <time>2021-08-05 16:56:52</time>
      </trkpt>
      <trkpt lat="37.05655" lon="-3.36689">
        <ele>3312</ele>
        <time>2021-08-05 16:56:53</time>
      </trkpt>
      <trkpt lat="37.05655" lon="-3.36689">
        <ele>3312</ele>
        <time>2021-08-05 16:56:54</time>
      </trkpt>
      <trkpt lat="37.05654" lon="-3.36689">
        <ele>3312</ele>
        <time>2021-08-05 16:56:55</time>
      </trkpt>
      <trkpt lat="37.05654" lon="-3.36689">
        <ele>3312.2</ele>
        <time>2021-08-05 16:56:56</time>
      </trkpt>
      <trkpt lat="37.05654" lon="-3.36688">
        <ele>3312.4</ele>
        <time>2021-08-05 16:56:57</time>
      </trkpt>
      <trkpt lat="37.05653" lon="-3.36689">
        <ele>3312.4</ele>
        <time>2021-08-05 16:56:58</time>
      </trkpt>
      <trkpt lat="37.05652" lon="-3.36688">
        <ele>3312.4</ele>
        <time>2021-08-05 16:56:59</time>
      </trkpt>
      <trkpt lat="37.05652" lon="-3.36687">
        <ele>3312.6</ele>
        <time>2021-08-05 16:57:00</time>
      </trkpt>
      <trkpt lat="37.05652" lon="-3.36689">
        <ele>3312.8</ele>
        <time>2021-08-05 16:57:01</time>
      </trkpt>
      <trkpt lat="37.05651" lon="-3.36689">
        <ele>3313</ele>
        <time>2021-08-05 16:57:02</time>
      </trkpt>
      <trkpt lat="37.05651" lon="-3.36687">
        <ele>3313</ele>
        <time>2021-08-05 16:57:03</time>
      </trkpt>
      <trkpt lat="37.05651" lon="-3.36687">
        <ele>3313.2</ele>
        <time>2021-08-05 16:57:04</time>
      </trkpt>
      <trkpt lat="37.05651" lon="-3.36687">
        <ele>3313.2</ele>
        <time>2021-08-05 16:57:05</time>
      </trkpt>
      <trkpt lat="37.05651" lon="-3.36687">
        <ele>3313.2</ele>
        <time>2021-08-05 16:57:06</time>
      </trkpt>
      <trkpt lat="37.05651" lon="-3.36686">
        <ele>3313.4</ele>
        <time>2021-08-05 16:57:07</time>
      </trkpt>
      <trkpt lat="37.05651" lon="-3.36686">
        <ele>3313.4</ele>
        <time>2021-08-05 16:57:08</time>
      </trkpt>
      <trkpt lat="37.05651" lon="-3.36686">
        <ele>3313.4</ele>
        <time>2021-08-05 16:57:09</time>
      </trkpt>
      <trkpt lat="37.05651" lon="-3.36687">
        <ele>3313.4</ele>
        <time>2021-08-05 16:57:10</time>
      </trkpt>
      <trkpt lat="37.05651" lon="-3.36687">
        <ele>3313.4</ele>
        <time>2021-08-05 16:57:11</time>
      </trkpt>
      <trkpt lat="37.05651" lon="-3.36687">
        <ele>3313.4</ele>
        <time>2021-08-05 16:57:12</time>
      </trkpt>
      <trkpt lat="37.05651" lon="-3.36687">
        <ele>3313.4</ele>
        <time>2021-08-05 16:57:13</time>
      </trkpt>
      <trkpt lat="37.05651" lon="-3.36687">
        <ele>3313.4</ele>
        <time>2021-08-05 16:57:14</time>
      </trkpt>
      <trkpt lat="37.05651" lon="-3.36687">
        <ele>3313.4</ele>
        <time>2021-08-05 16:57:15</time>
      </trkpt>
      <trkpt lat="37.05651" lon="-3.36687">
        <ele>3313.4</ele>
        <time>2021-08-05 16:57:16</time>
      </trkpt>
      <trkpt lat="37.05651" lon="-3.36688">
        <ele>3313.4</ele>
        <time>2021-08-05 16:57:17</time>
      </trkpt>
      <trkpt lat="37.05651" lon="-3.36688">
        <ele>3313.4</ele>
        <time>2021-08-05 16:57:18</time>
      </trkpt>
      <trkpt lat="37.05651" lon="-3.36688">
        <ele>3313.4</ele>
        <time>2021-08-05 16:57:19</time>
      </trkpt>
      <trkpt lat="37.05651" lon="-3.36688">
        <ele>3313.4</ele>
        <time>2021-08-05 16:57:20</time>
      </trkpt>
      <trkpt lat="37.0565" lon="-3.3669">
        <ele>3313.4</ele>
        <time>2021-08-05 16:57:21</time>
      </trkpt>
      <trkpt lat="37.0565" lon="-3.3669">
        <ele>3313.4</ele>
        <time>2021-08-05 16:57:22</time>
      </trkpt>
      <trkpt lat="37.0565" lon="-3.3669">
        <ele>3313.6</ele>
        <time>2021-08-05 16:57:23</time>
      </trkpt>
      <trkpt lat="37.0565" lon="-3.36689">
        <ele>3313.6</ele>
        <time>2021-08-05 16:57:24</time>
      </trkpt>
      <trkpt lat="37.0565" lon="-3.36689">
        <ele>3313.6</ele>
        <time>2021-08-05 16:57:25</time>
      </trkpt>
      <trkpt lat="37.0565" lon="-3.36689">
        <ele>3313.6</ele>
        <time>2021-08-05 16:57:26</time>
      </trkpt>
      <trkpt lat="37.0565" lon="-3.36689">
        <ele>3313.6</ele>
        <time>2021-08-05 16:57:27</time>
      </trkpt>
      <trkpt lat="37.0565" lon="-3.3669">
        <ele>3313.6</ele>
        <time>2021-08-05 16:57:28</time>
      </trkpt>
      <trkpt lat="37.0565" lon="-3.3669">
        <ele>3313.6</ele>
        <time>2021-08-05 16:57:29</time>
      </trkpt>
      <trkpt lat="37.0565" lon="-3.3669">
        <ele>3313.8</ele>
        <time>2021-08-05 16:57:30</time>
      </trkpt>
      <trkpt lat="37.0565" lon="-3.36689">
        <ele>3313.8</ele>
        <time>2021-08-05 16:57:31</time>
      </trkpt>
      <trkpt lat="37.0565" lon="-3.36691">
        <ele>3313.8</ele>
        <time>2021-08-05 16:57:32</time>
      </trkpt>
      <trkpt lat="37.05649" lon="-3.36691">
        <ele>3314</ele>
        <time>2021-08-05 16:57:33</time>
      </trkpt>
      <trkpt lat="37.05649" lon="-3.36691">
        <ele>3314</ele>
        <time>2021-08-05 16:57:34</time>
      </trkpt>
      <trkpt lat="37.05649" lon="-3.3669">
        <ele>3314.2</ele>
        <time>2021-08-05 16:57:35</time>
      </trkpt>
      <trkpt lat="37.05648" lon="-3.3669">
        <ele>3314.2</ele>
        <time>2021-08-05 16:57:36</time>
      </trkpt>
      <trkpt lat="37.05648" lon="-3.36688">
        <ele>3314.2</ele>
        <time>2021-08-05 16:57:37</time>
      </trkpt>
      <trkpt lat="37.05648" lon="-3.36687">
        <ele>3314.4</ele>
        <time>2021-08-05 16:57:38</time>
      </trkpt>
      <trkpt lat="37.05647" lon="-3.36687">
        <ele>3314.4</ele>
        <time>2021-08-05 16:57:39</time>
      </trkpt>
      <trkpt lat="37.05647" lon="-3.36686">
        <ele>3314.4</ele>
        <time>2021-08-05 16:57:40</time>
      </trkpt>
      <trkpt lat="37.05646" lon="-3.36685">
        <ele>3314.4</ele>
        <time>2021-08-05 16:57:41</time>
      </trkpt>
      <trkpt lat="37.05646" lon="-3.36685">
        <ele>3314.2</ele>
        <time>2021-08-05 16:57:42</time>
      </trkpt>
      <trkpt lat="37.05646" lon="-3.36684">
        <ele>3314.2</ele>
        <time>2021-08-05 16:57:43</time>
      </trkpt>
      <trkpt lat="37.05645" lon="-3.36683">
        <ele>3314.2</ele>
        <time>2021-08-05 16:57:44</time>
      </trkpt>
      <trkpt lat="37.05645" lon="-3.36683">
        <ele>3314.2</ele>
        <time>2021-08-05 16:57:45</time>
      </trkpt>
      <trkpt lat="37.05644" lon="-3.36683">
        <ele>3314.2</ele>
        <time>2021-08-05 16:57:46</time>
      </trkpt>
      <trkpt lat="37.05643" lon="-3.36683">
        <ele>3314.4</ele>
        <time>2021-08-05 16:57:47</time>
      </trkpt>
      <trkpt lat="37.05643" lon="-3.36682">
        <ele>3314.4</ele>
        <time>2021-08-05 16:57:48</time>
      </trkpt>
      <trkpt lat="37.05642" lon="-3.36683">
        <ele>3314.4</ele>
        <time>2021-08-05 16:57:49</time>
      </trkpt>
      <trkpt lat="37.05642" lon="-3.36682">
        <ele>3314.6</ele>
        <time>2021-08-05 16:57:50</time>
      </trkpt>
      <trkpt lat="37.05641" lon="-3.36681">
        <ele>3314.6</ele>
        <time>2021-08-05 16:57:51</time>
      </trkpt>
      <trkpt lat="37.05641" lon="-3.36681">
        <ele>3314.8</ele>
        <time>2021-08-05 16:57:52</time>
      </trkpt>
      <trkpt lat="37.0564" lon="-3.36681">
        <ele>3314.8</ele>
        <time>2021-08-05 16:57:53</time>
      </trkpt>
      <trkpt lat="37.0564" lon="-3.36681">
        <ele>3315</ele>
        <time>2021-08-05 16:57:54</time>
      </trkpt>
      <trkpt lat="37.05639" lon="-3.36681">
        <ele>3315</ele>
        <time>2021-08-05 16:57:55</time>
      </trkpt>
      <trkpt lat="37.05638" lon="-3.36681">
        <ele>3315.2</ele>
        <time>2021-08-05 16:57:56</time>
      </trkpt>
      <trkpt lat="37.05638" lon="-3.36681">
        <ele>3315.2</ele>
        <time>2021-08-05 16:57:57</time>
      </trkpt>
      <trkpt lat="37.05637" lon="-3.36681">
        <ele>3315.4</ele>
        <time>2021-08-05 16:57:58</time>
      </trkpt>
      <trkpt lat="37.05636" lon="-3.3668">
        <ele>3315.6</ele>
        <time>2021-08-05 16:57:59</time>
      </trkpt>
      <trkpt lat="37.05636" lon="-3.3668">
        <ele>3316</ele>
        <time>2021-08-05 16:58:00</time>
      </trkpt>
      <trkpt lat="37.05636" lon="-3.36681">
        <ele>3316</ele>
        <time>2021-08-05 16:58:01</time>
      </trkpt>
      <trkpt lat="37.05636" lon="-3.36681">
        <ele>3316.2</ele>
        <time>2021-08-05 16:58:02</time>
      </trkpt>
      <trkpt lat="37.05636" lon="-3.36681">
        <ele>3316.2</ele>
        <time>2021-08-05 16:58:03</time>
      </trkpt>
      <trkpt lat="37.05635" lon="-3.36681">
        <ele>3316.2</ele>
        <time>2021-08-05 16:58:04</time>
      </trkpt>
      <trkpt lat="37.05635" lon="-3.3668">
        <ele>3316.2</ele>
        <time>2021-08-05 16:58:05</time>
      </trkpt>
      <trkpt lat="37.05634" lon="-3.3668">
        <ele>3316.2</ele>
        <time>2021-08-05 16:58:06</time>
      </trkpt>
      <trkpt lat="37.05633" lon="-3.3668">
        <ele>3316.4</ele>
        <time>2021-08-05 16:58:07</time>
      </trkpt>
      <trkpt lat="37.05633" lon="-3.36679">
        <ele>3316.4</ele>
        <time>2021-08-05 16:58:08</time>
      </trkpt>
      <trkpt lat="37.05632" lon="-3.36679">
        <ele>3316.4</ele>
        <time>2021-08-05 16:58:09</time>
      </trkpt>
      <trkpt lat="37.05632" lon="-3.36678">
        <ele>3316.4</ele>
        <time>2021-08-05 16:58:10</time>
      </trkpt>
      <trkpt lat="37.05631" lon="-3.36677">
        <ele>3316.4</ele>
        <time>2021-08-05 16:58:11</time>
      </trkpt>
      <trkpt lat="37.05631" lon="-3.36675">
        <ele>3316.6</ele>
        <time>2021-08-05 16:58:12</time>
      </trkpt>
      <trkpt lat="37.0563" lon="-3.36675">
        <ele>3316.6</ele>
        <time>2021-08-05 16:58:13</time>
      </trkpt>
      <trkpt lat="37.0563" lon="-3.36674">
        <ele>3316.8</ele>
        <time>2021-08-05 16:58:14</time>
      </trkpt>
      <trkpt lat="37.05629" lon="-3.36673">
        <ele>3316.8</ele>
        <time>2021-08-05 16:58:15</time>
      </trkpt>
      <trkpt lat="37.05629" lon="-3.36673">
        <ele>3316.8</ele>
        <time>2021-08-05 16:58:16</time>
      </trkpt>
      <trkpt lat="37.05628" lon="-3.36672">
        <ele>3316.8</ele>
        <time>2021-08-05 16:58:17</time>
      </trkpt>
      <trkpt lat="37.05628" lon="-3.36672">
        <ele>3316.8</ele>
        <time>2021-08-05 16:58:18</time>
      </trkpt>
      <trkpt lat="37.05627" lon="-3.36671">
        <ele>3316.8</ele>
        <time>2021-08-05 16:58:19</time>
      </trkpt>
      <trkpt lat="37.05627" lon="-3.3667">
        <ele>3317</ele>
        <time>2021-08-05 16:58:20</time>
      </trkpt>
      <trkpt lat="37.05626" lon="-3.3667">
        <ele>3317</ele>
        <time>2021-08-05 16:58:21</time>
      </trkpt>
      <trkpt lat="37.05625" lon="-3.36669">
        <ele>3317.2</ele>
        <time>2021-08-05 16:58:22</time>
      </trkpt>
      <trkpt lat="37.05625" lon="-3.36668">
        <ele>3317.4</ele>
        <time>2021-08-05 16:58:23</time>
      </trkpt>
      <trkpt lat="37.05624" lon="-3.36667">
        <ele>3317.4</ele>
        <time>2021-08-05 16:58:24</time>
      </trkpt>
      <trkpt lat="37.05624" lon="-3.36667">
        <ele>3317.6</ele>
        <time>2021-08-05 16:58:25</time>
      </trkpt>
      <trkpt lat="37.05623" lon="-3.36667">
        <ele>3317.8</ele>
        <time>2021-08-05 16:58:26</time>
      </trkpt>
      <trkpt lat="37.05623" lon="-3.36667">
        <ele>3318</ele>
        <time>2021-08-05 16:58:27</time>
      </trkpt>
      <trkpt lat="37.05622" lon="-3.36666">
        <ele>3318</ele>
        <time>2021-08-05 16:58:28</time>
      </trkpt>
      <trkpt lat="37.05621" lon="-3.36666">
        <ele>3318</ele>
        <time>2021-08-05 16:58:29</time>
      </trkpt>
      <trkpt lat="37.05621" lon="-3.36666">
        <ele>3318.2</ele>
        <time>2021-08-05 16:58:30</time>
      </trkpt>
      <trkpt lat="37.0562" lon="-3.36665">
        <ele>3318.2</ele>
        <time>2021-08-05 16:58:31</time>
      </trkpt>
      <trkpt lat="37.0562" lon="-3.36665">
        <ele>3318.4</ele>
        <time>2021-08-05 16:58:32</time>
      </trkpt>
      <trkpt lat="37.0562" lon="-3.36664">
        <ele>3318.4</ele>
        <time>2021-08-05 16:58:33</time>
      </trkpt>
      <trkpt lat="37.05619" lon="-3.36664">
        <ele>3318.4</ele>
        <time>2021-08-05 16:58:34</time>
      </trkpt>
      <trkpt lat="37.05619" lon="-3.36663">
        <ele>3318.4</ele>
        <time>2021-08-05 16:58:35</time>
      </trkpt>
      <trkpt lat="37.05619" lon="-3.36662">
        <ele>3318.4</ele>
        <time>2021-08-05 16:58:36</time>
      </trkpt>
      <trkpt lat="37.05619" lon="-3.36662">
        <ele>3318.4</ele>
        <time>2021-08-05 16:58:37</time>
      </trkpt>
      <trkpt lat="37.05619" lon="-3.36662">
        <ele>3318.4</ele>
        <time>2021-08-05 16:58:38</time>
      </trkpt>
      <trkpt lat="37.05618" lon="-3.36662">
        <ele>3318.4</ele>
        <time>2021-08-05 16:58:39</time>
      </trkpt>
      <trkpt lat="37.05618" lon="-3.36663">
        <ele>3318.4</ele>
        <time>2021-08-05 16:58:40</time>
      </trkpt>
      <trkpt lat="37.05618" lon="-3.36663">
        <ele>3318.2</ele>
        <time>2021-08-05 16:58:41</time>
      </trkpt>
      <trkpt lat="37.05618" lon="-3.36663">
        <ele>3318.4</ele>
        <time>2021-08-05 16:58:42</time>
      </trkpt>
      <trkpt lat="37.05618" lon="-3.36663">
        <ele>3318.6</ele>
        <time>2021-08-05 16:58:43</time>
      </trkpt>
      <trkpt lat="37.05618" lon="-3.36662">
        <ele>3318.6</ele>
        <time>2021-08-05 16:58:44</time>
      </trkpt>
      <trkpt lat="37.05617" lon="-3.36661">
        <ele>3318.4</ele>
        <time>2021-08-05 16:58:45</time>
      </trkpt>
      <trkpt lat="37.05617" lon="-3.3666">
        <ele>3318.4</ele>
        <time>2021-08-05 16:58:46</time>
      </trkpt>
      <trkpt lat="37.05616" lon="-3.36658">
        <ele>3318.6</ele>
        <time>2021-08-05 16:58:47</time>
      </trkpt>
      <trkpt lat="37.05615" lon="-3.36658">
        <ele>3319</ele>
        <time>2021-08-05 16:58:48</time>
      </trkpt>
      <trkpt lat="37.05615" lon="-3.36657">
        <ele>3319.2</ele>
        <time>2021-08-05 16:58:49</time>
      </trkpt>
      <trkpt lat="37.05614" lon="-3.36657">
        <ele>3319.2</ele>
        <time>2021-08-05 16:58:50</time>
      </trkpt>
      <trkpt lat="37.05614" lon="-3.36656">
        <ele>3319.6</ele>
        <time>2021-08-05 16:58:51</time>
      </trkpt>
      <trkpt lat="37.05614" lon="-3.36656">
        <ele>3319.8</ele>
        <time>2021-08-05 16:58:52</time>
      </trkpt>
      <trkpt lat="37.05613" lon="-3.36656">
        <ele>3319.8</ele>
        <time>2021-08-05 16:58:53</time>
      </trkpt>
      <trkpt lat="37.05612" lon="-3.36656">
        <ele>3319.6</ele>
        <time>2021-08-05 16:58:54</time>
      </trkpt>
      <trkpt lat="37.05612" lon="-3.36655">
        <ele>3319.6</ele>
        <time>2021-08-05 16:58:55</time>
      </trkpt>
      <trkpt lat="37.05611" lon="-3.36654">
        <ele>3319.4</ele>
        <time>2021-08-05 16:58:56</time>
      </trkpt>
      <trkpt lat="37.0561" lon="-3.36654">
        <ele>3319.6</ele>
        <time>2021-08-05 16:58:57</time>
      </trkpt>
      <trkpt lat="37.0561" lon="-3.36653">
        <ele>3319.8</ele>
        <time>2021-08-05 16:58:58</time>
      </trkpt>
      <trkpt lat="37.0561" lon="-3.36652">
        <ele>3319.8</ele>
        <time>2021-08-05 16:58:59</time>
      </trkpt>
      <trkpt lat="37.05609" lon="-3.36651">
        <ele>3319.8</ele>
        <time>2021-08-05 16:59:00</time>
      </trkpt>
      <trkpt lat="37.05609" lon="-3.36651">
        <ele>3320.2</ele>
        <time>2021-08-05 16:59:01</time>
      </trkpt>
      <trkpt lat="37.05608" lon="-3.3665">
        <ele>3320.2</ele>
        <time>2021-08-05 16:59:02</time>
      </trkpt>
      <trkpt lat="37.05607" lon="-3.36649">
        <ele>3320.2</ele>
        <time>2021-08-05 16:59:03</time>
      </trkpt>
      <trkpt lat="37.05607" lon="-3.36647">
        <ele>3320.4</ele>
        <time>2021-08-05 16:59:04</time>
      </trkpt>
      <trkpt lat="37.05605" lon="-3.36644">
        <ele>3320.4</ele>
        <time>2021-08-05 16:59:05</time>
      </trkpt>
      <trkpt lat="37.05605" lon="-3.36644">
        <ele>3320.6</ele>
        <time>2021-08-05 16:59:06</time>
      </trkpt>
      <trkpt lat="37.05604" lon="-3.36643">
        <ele>3320.6</ele>
        <time>2021-08-05 16:59:07</time>
      </trkpt>
      <trkpt lat="37.05604" lon="-3.36641">
        <ele>3320.6</ele>
        <time>2021-08-05 16:59:08</time>
      </trkpt>
      <trkpt lat="37.05603" lon="-3.36642">
        <ele>3320.8</ele>
        <time>2021-08-05 16:59:09</time>
      </trkpt>
      <trkpt lat="37.05603" lon="-3.36641">
        <ele>3321</ele>
        <time>2021-08-05 16:59:10</time>
      </trkpt>
      <trkpt lat="37.05602" lon="-3.36641">
        <ele>3321</ele>
        <time>2021-08-05 16:59:11</time>
      </trkpt>
      <trkpt lat="37.05602" lon="-3.36641">
        <ele>3321</ele>
        <time>2021-08-05 16:59:12</time>
      </trkpt>
      <trkpt lat="37.05602" lon="-3.36641">
        <ele>3321</ele>
        <time>2021-08-05 16:59:13</time>
      </trkpt>
      <trkpt lat="37.05601" lon="-3.36641">
        <ele>3321.2</ele>
        <time>2021-08-05 16:59:14</time>
      </trkpt>
      <trkpt lat="37.05601" lon="-3.36641">
        <ele>3321.2</ele>
        <time>2021-08-05 16:59:15</time>
      </trkpt>
      <trkpt lat="37.056" lon="-3.36641">
        <ele>3321.2</ele>
        <time>2021-08-05 16:59:16</time>
      </trkpt>
      <trkpt lat="37.056" lon="-3.36641">
        <ele>3321.2</ele>
        <time>2021-08-05 16:59:17</time>
      </trkpt>
      <trkpt lat="37.056" lon="-3.36641">
        <ele>3321.2</ele>
        <time>2021-08-05 16:59:18</time>
      </trkpt>
      <trkpt lat="37.056" lon="-3.36641">
        <ele>3321.2</ele>
        <time>2021-08-05 16:59:19</time>
      </trkpt>
      <trkpt lat="37.05599" lon="-3.3664">
        <ele>3321.2</ele>
        <time>2021-08-05 16:59:20</time>
      </trkpt>
      <trkpt lat="37.05599" lon="-3.3664">
        <ele>3321.2</ele>
        <time>2021-08-05 16:59:21</time>
      </trkpt>
      <trkpt lat="37.056" lon="-3.3664">
        <ele>3321.4</ele>
        <time>2021-08-05 16:59:22</time>
      </trkpt>
      <trkpt lat="37.056" lon="-3.3664">
        <ele>3321.4</ele>
        <time>2021-08-05 16:59:23</time>
      </trkpt>
      <trkpt lat="37.056" lon="-3.3664">
        <ele>3321.8</ele>
        <time>2021-08-05 16:59:24</time>
      </trkpt>
      <trkpt lat="37.056" lon="-3.3664">
        <ele>3321.8</ele>
        <time>2021-08-05 16:59:25</time>
      </trkpt>
      <trkpt lat="37.056" lon="-3.3664">
        <ele>3322</ele>
        <time>2021-08-05 16:59:26</time>
      </trkpt>
      <trkpt lat="37.056" lon="-3.3664">
        <ele>3322</ele>
        <time>2021-08-05 16:59:27</time>
      </trkpt>
      <trkpt lat="37.056" lon="-3.3664">
        <ele>3322.2</ele>
        <time>2021-08-05 16:59:28</time>
      </trkpt>
      <trkpt lat="37.056" lon="-3.36639">
        <ele>3322.4</ele>
        <time>2021-08-05 16:59:29</time>
      </trkpt>
      <trkpt lat="37.056" lon="-3.36639">
        <ele>3322.6</ele>
        <time>2021-08-05 16:59:30</time>
      </trkpt>
      <trkpt lat="37.056" lon="-3.36639">
        <ele>3322.6</ele>
        <time>2021-08-05 16:59:31</time>
      </trkpt>
      <trkpt lat="37.056" lon="-3.36639">
        <ele>3322.8</ele>
        <time>2021-08-05 16:59:32</time>
      </trkpt>
      <trkpt lat="37.056" lon="-3.36639">
        <ele>3323</ele>
        <time>2021-08-05 16:59:33</time>
      </trkpt>
      <trkpt lat="37.056" lon="-3.36639">
        <ele>3323</ele>
        <time>2021-08-05 16:59:34</time>
      </trkpt>
      <trkpt lat="37.056" lon="-3.36638">
        <ele>3323</ele>
        <time>2021-08-05 16:59:35</time>
      </trkpt>
      <trkpt lat="37.056" lon="-3.36638">
        <ele>3323.2</ele>
        <time>2021-08-05 16:59:36</time>
      </trkpt>
      <trkpt lat="37.056" lon="-3.36637">
        <ele>3323.2</ele>
        <time>2021-08-05 16:59:37</time>
      </trkpt>
      <trkpt lat="37.05599" lon="-3.36637">
        <ele>3323.4</ele>
        <time>2021-08-05 16:59:38</time>
      </trkpt>
      <trkpt lat="37.05599" lon="-3.36637">
        <ele>3323.4</ele>
        <time>2021-08-05 16:59:39</time>
      </trkpt>
      <trkpt lat="37.05599" lon="-3.36636">
        <ele>3323.4</ele>
        <time>2021-08-05 16:59:40</time>
      </trkpt>
      <trkpt lat="37.05599" lon="-3.36635">
        <ele>3323.8</ele>
        <time>2021-08-05 16:59:41</time>
      </trkpt>
      <trkpt lat="37.05598" lon="-3.36635">
        <ele>3324</ele>
        <time>2021-08-05 16:59:42</time>
      </trkpt>
      <trkpt lat="37.05598" lon="-3.36634">
        <ele>3324</ele>
        <time>2021-08-05 16:59:43</time>
      </trkpt>
      <trkpt lat="37.05599" lon="-3.36633">
        <ele>3324.2</ele>
        <time>2021-08-05 16:59:44</time>
      </trkpt>
      <trkpt lat="37.05598" lon="-3.36633">
        <ele>3324.4</ele>
        <time>2021-08-05 16:59:45</time>
      </trkpt>
      <trkpt lat="37.05599" lon="-3.36632">
        <ele>3324.6</ele>
        <time>2021-08-05 16:59:46</time>
      </trkpt>
      <trkpt lat="37.05598" lon="-3.36632">
        <ele>3324.6</ele>
        <time>2021-08-05 16:59:47</time>
      </trkpt>
      <trkpt lat="37.05598" lon="-3.36632">
        <ele>3324.8</ele>
        <time>2021-08-05 16:59:48</time>
      </trkpt>
      <trkpt lat="37.05598" lon="-3.36631">
        <ele>3324.8</ele>
        <time>2021-08-05 16:59:49</time>
      </trkpt>
      <trkpt lat="37.05597" lon="-3.36631">
        <ele>3325</ele>
        <time>2021-08-05 16:59:50</time>
      </trkpt>
      <trkpt lat="37.05596" lon="-3.36631">
        <ele>3325.4</ele>
        <time>2021-08-05 16:59:51</time>
      </trkpt>
      <trkpt lat="37.05596" lon="-3.3663">
        <ele>3325.6</ele>
        <time>2021-08-05 16:59:52</time>
      </trkpt>
      <trkpt lat="37.05596" lon="-3.36631">
        <ele>3325.8</ele>
        <time>2021-08-05 16:59:53</time>
      </trkpt>
      <trkpt lat="37.05596" lon="-3.36631">
        <ele>3325.8</ele>
        <time>2021-08-05 16:59:54</time>
      </trkpt>
      <trkpt lat="37.05595" lon="-3.3663">
        <ele>3326</ele>
        <time>2021-08-05 16:59:55</time>
      </trkpt>
      <trkpt lat="37.05595" lon="-3.3663">
        <ele>3326</ele>
        <time>2021-08-05 16:59:56</time>
      </trkpt>
      <trkpt lat="37.05595" lon="-3.36629">
        <ele>3326</ele>
        <time>2021-08-05 16:59:57</time>
      </trkpt>
      <trkpt lat="37.05595" lon="-3.36629">
        <ele>3326.2</ele>
        <time>2021-08-05 16:59:58</time>
      </trkpt>
      <trkpt lat="37.05593" lon="-3.36624">
        <ele>3326.4</ele>
        <time>2021-08-05 16:59:59</time>
      </trkpt>
      <trkpt lat="37.05593" lon="-3.36624">
        <ele>3326.6</ele>
        <time>2021-08-05 17:00:00</time>
      </trkpt>
      <trkpt lat="37.05593" lon="-3.36623">
        <ele>3326.6</ele>
        <time>2021-08-05 17:00:01</time>
      </trkpt>
      <trkpt lat="37.05593" lon="-3.36623">
        <ele>3326.8</ele>
        <time>2021-08-05 17:00:02</time>
      </trkpt>
      <trkpt lat="37.05593" lon="-3.36622">
        <ele>3326.8</ele>
        <time>2021-08-05 17:00:03</time>
      </trkpt>
      <trkpt lat="37.05593" lon="-3.36622">
        <ele>3326.8</ele>
        <time>2021-08-05 17:00:04</time>
      </trkpt>
      <trkpt lat="37.05593" lon="-3.36621">
        <ele>3327</ele>
        <time>2021-08-05 17:00:05</time>
      </trkpt>
      <trkpt lat="37.05592" lon="-3.36621">
        <ele>3327</ele>
        <time>2021-08-05 17:00:06</time>
      </trkpt>
      <trkpt lat="37.05592" lon="-3.36621">
        <ele>3327</ele>
        <time>2021-08-05 17:00:07</time>
      </trkpt>
      <trkpt lat="37.05592" lon="-3.36622">
        <ele>3327.2</ele>
        <time>2021-08-05 17:00:08</time>
      </trkpt>
      <trkpt lat="37.05592" lon="-3.36622">
        <ele>3327.2</ele>
        <time>2021-08-05 17:00:09</time>
      </trkpt>
      <trkpt lat="37.05592" lon="-3.36622">
        <ele>3327.2</ele>
        <time>2021-08-05 17:00:10</time>
      </trkpt>
      <trkpt lat="37.05592" lon="-3.36623">
        <ele>3327.2</ele>
        <time>2021-08-05 17:00:11</time>
      </trkpt>
      <trkpt lat="37.05592" lon="-3.36623">
        <ele>3327.2</ele>
        <time>2021-08-05 17:00:12</time>
      </trkpt>
      <trkpt lat="37.05593" lon="-3.36623">
        <ele>3327.4</ele>
        <time>2021-08-05 17:00:13</time>
      </trkpt>
      <trkpt lat="37.05593" lon="-3.36623">
        <ele>3327.4</ele>
        <time>2021-08-05 17:00:14</time>
      </trkpt>
      <trkpt lat="37.05593" lon="-3.36623">
        <ele>3327.4</ele>
        <time>2021-08-05 17:00:15</time>
      </trkpt>
      <trkpt lat="37.05593" lon="-3.36623">
        <ele>3327.6</ele>
        <time>2021-08-05 17:00:16</time>
      </trkpt>
      <trkpt lat="37.05594" lon="-3.36623">
        <ele>3327.6</ele>
        <time>2021-08-05 17:00:17</time>
      </trkpt>
      <trkpt lat="37.05594" lon="-3.36621">
        <ele>3327.6</ele>
        <time>2021-08-05 17:00:18</time>
      </trkpt>
      <trkpt lat="37.05594" lon="-3.36621">
        <ele>3327.6</ele>
        <time>2021-08-05 17:00:19</time>
      </trkpt>
      <trkpt lat="37.05593" lon="-3.36619">
        <ele>3327.8</ele>
        <time>2021-08-05 17:00:20</time>
      </trkpt>
      <trkpt lat="37.05592" lon="-3.36619">
        <ele>3327.8</ele>
        <time>2021-08-05 17:00:21</time>
      </trkpt>
      <trkpt lat="37.05592" lon="-3.36618">
        <ele>3327.8</ele>
        <time>2021-08-05 17:00:22</time>
      </trkpt>
      <trkpt lat="37.05592" lon="-3.36618">
        <ele>3327.6</ele>
        <time>2021-08-05 17:00:23</time>
      </trkpt>
      <trkpt lat="37.05592" lon="-3.36618">
        <ele>3327.6</ele>
        <time>2021-08-05 17:00:24</time>
      </trkpt>
      <trkpt lat="37.05593" lon="-3.36618">
        <ele>3327.4</ele>
        <time>2021-08-05 17:00:25</time>
      </trkpt>
      <trkpt lat="37.05593" lon="-3.36618">
        <ele>3327.4</ele>
        <time>2021-08-05 17:00:26</time>
      </trkpt>
      <trkpt lat="37.05593" lon="-3.36619">
        <ele>3327.4</ele>
        <time>2021-08-05 17:00:27</time>
      </trkpt>
      <trkpt lat="37.05593" lon="-3.36619">
        <ele>3327.4</ele>
        <time>2021-08-05 17:00:28</time>
      </trkpt>
      <trkpt lat="37.05593" lon="-3.36619">
        <ele>3327.4</ele>
        <time>2021-08-05 17:00:29</time>
      </trkpt>
      <trkpt lat="37.05593" lon="-3.36619">
        <ele>3327.4</ele>
        <time>2021-08-05 17:00:30</time>
      </trkpt>
      <trkpt lat="37.05593" lon="-3.36619">
        <ele>3327.6</ele>
        <time>2021-08-05 17:00:31</time>
      </trkpt>
      <trkpt lat="37.05593" lon="-3.36619">
        <ele>3327.6</ele>
        <time>2021-08-05 17:00:32</time>
      </trkpt>
      <trkpt lat="37.05592" lon="-3.36619">
        <ele>3327.6</ele>
        <time>2021-08-05 17:00:33</time>
      </trkpt>
      <trkpt lat="37.05592" lon="-3.36619">
        <ele>3327.6</ele>
        <time>2021-08-05 17:00:34</time>
      </trkpt>
      <trkpt lat="37.05592" lon="-3.36619">
        <ele>3327.6</ele>
        <time>2021-08-05 17:00:35</time>
      </trkpt>
      <trkpt lat="37.05592" lon="-3.36619">
        <ele>3327.6</ele>
        <time>2021-08-05 17:00:36</time>
      </trkpt>
      <trkpt lat="37.05592" lon="-3.36619">
        <ele>3327.4</ele>
        <time>2021-08-05 17:00:37</time>
      </trkpt>
      <trkpt lat="37.05592" lon="-3.36619">
        <ele>3327.4</ele>
        <time>2021-08-05 17:00:38</time>
      </trkpt>
      <trkpt lat="37.05591" lon="-3.36619">
        <ele>3327.4</ele>
        <time>2021-08-05 17:00:39</time>
      </trkpt>
      <trkpt lat="37.05591" lon="-3.36619">
        <ele>3327.2</ele>
        <time>2021-08-05 17:00:40</time>
      </trkpt>
      <trkpt lat="37.05591" lon="-3.36619">
        <ele>3327.4</ele>
        <time>2021-08-05 17:00:41</time>
      </trkpt>
      <trkpt lat="37.05591" lon="-3.36619">
        <ele>3327.6</ele>
        <time>2021-08-05 17:00:42</time>
      </trkpt>
      <trkpt lat="37.05592" lon="-3.36619">
        <ele>3327.8</ele>
        <time>2021-08-05 17:00:43</time>
      </trkpt>
      <trkpt lat="37.05592" lon="-3.3662">
        <ele>3327.8</ele>
        <time>2021-08-05 17:00:44</time>
      </trkpt>
      <trkpt lat="37.05592" lon="-3.3662">
        <ele>3328</ele>
        <time>2021-08-05 17:00:45</time>
      </trkpt>
      <trkpt lat="37.05592" lon="-3.3662">
        <ele>3328</ele>
        <time>2021-08-05 17:00:46</time>
      </trkpt>
      <trkpt lat="37.05592" lon="-3.3662">
        <ele>3328</ele>
        <time>2021-08-05 17:00:47</time>
      </trkpt>
      <trkpt lat="37.05592" lon="-3.3662">
        <ele>3328</ele>
        <time>2021-08-05 17:00:48</time>
      </trkpt>
      <trkpt lat="37.05592" lon="-3.3662">
        <ele>3328</ele>
        <time>2021-08-05 17:00:49</time>
      </trkpt>
      <trkpt lat="37.05592" lon="-3.3662">
        <ele>3328</ele>
        <time>2021-08-05 17:00:50</time>
      </trkpt>
      <trkpt lat="37.05592" lon="-3.3662">
        <ele>3328</ele>
        <time>2021-08-05 17:00:51</time>
      </trkpt>
      <trkpt lat="37.05592" lon="-3.3662">
        <ele>3328</ele>
        <time>2021-08-05 17:00:52</time>
      </trkpt>
      <trkpt lat="37.05592" lon="-3.3662">
        <ele>3328</ele>
        <time>2021-08-05 17:00:53</time>
      </trkpt>
      <trkpt lat="37.05592" lon="-3.3662">
        <ele>3328.2</ele>
        <time>2021-08-05 17:00:54</time>
      </trkpt>
      <trkpt lat="37.05592" lon="-3.3662">
        <ele>3328.4</ele>
        <time>2021-08-05 17:00:55</time>
      </trkpt>
      <trkpt lat="37.05592" lon="-3.3662">
        <ele>3328.4</ele>
        <time>2021-08-05 17:00:56</time>
      </trkpt>
      <trkpt lat="37.05592" lon="-3.3662">
        <ele>3328.6</ele>
        <time>2021-08-05 17:00:57</time>
      </trkpt>
      <trkpt lat="37.05592" lon="-3.3662">
        <ele>3328.6</ele>
        <time>2021-08-05 17:00:58</time>
      </trkpt>
      <trkpt lat="37.05591" lon="-3.36621">
        <ele>3328.6</ele>
        <time>2021-08-05 17:00:59</time>
      </trkpt>
      <trkpt lat="37.05591" lon="-3.36621">
        <ele>3328.6</ele>
        <time>2021-08-05 17:01:00</time>
      </trkpt>
      <trkpt lat="37.05591" lon="-3.36621">
        <ele>3328.6</ele>
        <time>2021-08-05 17:01:01</time>
      </trkpt>
      <trkpt lat="37.05592" lon="-3.36621">
        <ele>3328.6</ele>
        <time>2021-08-05 17:01:02</time>
      </trkpt>
      <trkpt lat="37.05592" lon="-3.3662">
        <ele>3328.8</ele>
        <time>2021-08-05 17:01:03</time>
      </trkpt>
      <trkpt lat="37.05594" lon="-3.3662">
        <ele>3329</ele>
        <time>2021-08-05 17:01:04</time>
      </trkpt>
      <trkpt lat="37.05593" lon="-3.3662">
        <ele>3329</ele>
        <time>2021-08-05 17:01:05</time>
      </trkpt>
      <trkpt lat="37.05593" lon="-3.3662">
        <ele>3329.2</ele>
        <time>2021-08-05 17:01:06</time>
      </trkpt>
      <trkpt lat="37.05593" lon="-3.36619">
        <ele>3329.6</ele>
        <time>2021-08-05 17:01:07</time>
      </trkpt>
      <trkpt lat="37.05593" lon="-3.36618">
        <ele>3329.8</ele>
        <time>2021-08-05 17:01:08</time>
      </trkpt>
      <trkpt lat="37.05593" lon="-3.36617">
        <ele>3330.2</ele>
        <time>2021-08-05 17:01:09</time>
      </trkpt>
      <trkpt lat="37.05592" lon="-3.36617">
        <ele>3330.2</ele>
        <time>2021-08-05 17:01:10</time>
      </trkpt>
      <trkpt lat="37.05592" lon="-3.36616">
        <ele>3330.4</ele>
        <time>2021-08-05 17:01:11</time>
      </trkpt>
      <trkpt lat="37.05591" lon="-3.36615">
        <ele>3330.6</ele>
        <time>2021-08-05 17:01:12</time>
      </trkpt>
      <trkpt lat="37.05591" lon="-3.36615">
        <ele>3330.6</ele>
        <time>2021-08-05 17:01:13</time>
      </trkpt>
      <trkpt lat="37.05591" lon="-3.36615">
        <ele>3331</ele>
        <time>2021-08-05 17:01:14</time>
      </trkpt>
      <trkpt lat="37.05591" lon="-3.36615">
        <ele>3331</ele>
        <time>2021-08-05 17:01:15</time>
      </trkpt>
      <trkpt lat="37.05591" lon="-3.36615">
        <ele>3331.2</ele>
        <time>2021-08-05 17:01:16</time>
      </trkpt>
      <trkpt lat="37.05592" lon="-3.36614">
        <ele>3331.6</ele>
        <time>2021-08-05 17:01:17</time>
      </trkpt>
      <trkpt lat="37.05593" lon="-3.36614">
        <ele>3331.8</ele>
        <time>2021-08-05 17:01:18</time>
      </trkpt>
      <trkpt lat="37.05594" lon="-3.36613">
        <ele>3332</ele>
        <time>2021-08-05 17:01:19</time>
      </trkpt>
      <trkpt lat="37.05594" lon="-3.36613">
        <ele>3332.4</ele>
        <time>2021-08-05 17:01:20</time>
      </trkpt>
      <trkpt lat="37.05593" lon="-3.36614">
        <ele>3332.8</ele>
        <time>2021-08-05 17:01:21</time>
      </trkpt>
      <trkpt lat="37.05593" lon="-3.36613">
        <ele>3333</ele>
        <time>2021-08-05 17:01:22</time>
      </trkpt>
      <trkpt lat="37.05593" lon="-3.36613">
        <ele>3333</ele>
        <time>2021-08-05 17:01:23</time>
      </trkpt>
      <trkpt lat="37.05593" lon="-3.36612">
        <ele>3333</ele>
        <time>2021-08-05 17:01:24</time>
      </trkpt>
      <trkpt lat="37.05593" lon="-3.36612">
        <ele>3333.2</ele>
        <time>2021-08-05 17:01:25</time>
      </trkpt>
      <trkpt lat="37.05592" lon="-3.36612">
        <ele>3333.2</ele>
        <time>2021-08-05 17:01:26</time>
      </trkpt>
      <trkpt lat="37.05592" lon="-3.36612">
        <ele>3333.2</ele>
        <time>2021-08-05 17:01:27</time>
      </trkpt>
      <trkpt lat="37.05592" lon="-3.36611">
        <ele>3333.2</ele>
        <time>2021-08-05 17:01:28</time>
      </trkpt>
      <trkpt lat="37.05592" lon="-3.36611">
        <ele>3333.4</ele>
        <time>2021-08-05 17:01:29</time>
      </trkpt>
      <trkpt lat="37.05591" lon="-3.36611">
        <ele>3333.4</ele>
        <time>2021-08-05 17:01:30</time>
      </trkpt>
      <trkpt lat="37.05591" lon="-3.3661">
        <ele>3333.6</ele>
        <time>2021-08-05 17:01:31</time>
      </trkpt>
      <trkpt lat="37.05591" lon="-3.3661">
        <ele>3333.6</ele>
        <time>2021-08-05 17:01:32</time>
      </trkpt>
      <trkpt lat="37.05591" lon="-3.36609">
        <ele>3333.6</ele>
        <time>2021-08-05 17:01:33</time>
      </trkpt>
      <trkpt lat="37.05591" lon="-3.36606">
        <ele>3333.6</ele>
        <time>2021-08-05 17:01:34</time>
      </trkpt>
      <trkpt lat="37.05591" lon="-3.36607">
        <ele>3333.8</ele>
        <time>2021-08-05 17:01:35</time>
      </trkpt>
      <trkpt lat="37.05591" lon="-3.36607">
        <ele>3333.8</ele>
        <time>2021-08-05 17:01:36</time>
      </trkpt>
      <trkpt lat="37.05591" lon="-3.36607">
        <ele>3333.8</ele>
        <time>2021-08-05 17:01:37</time>
      </trkpt>
      <trkpt lat="37.05591" lon="-3.36606">
        <ele>3334</ele>
        <time>2021-08-05 17:01:38</time>
      </trkpt>
      <trkpt lat="37.05591" lon="-3.36606">
        <ele>3334.4</ele>
        <time>2021-08-05 17:01:39</time>
      </trkpt>
      <trkpt lat="37.05591" lon="-3.36605">
        <ele>3334.6</ele>
        <time>2021-08-05 17:01:40</time>
      </trkpt>
      <trkpt lat="37.05591" lon="-3.36605">
        <ele>3334.8</ele>
        <time>2021-08-05 17:01:41</time>
      </trkpt>
      <trkpt lat="37.05591" lon="-3.36604">
        <ele>3335</ele>
        <time>2021-08-05 17:01:42</time>
      </trkpt>
      <trkpt lat="37.05591" lon="-3.36604">
        <ele>3335</ele>
        <time>2021-08-05 17:01:43</time>
      </trkpt>
      <trkpt lat="37.05591" lon="-3.36603">
        <ele>3335.4</ele>
        <time>2021-08-05 17:01:44</time>
      </trkpt>
      <trkpt lat="37.05588" lon="-3.36604">
        <ele>3335.4</ele>
        <time>2021-08-05 17:01:45</time>
      </trkpt>
      <trkpt lat="37.05587" lon="-3.36603">
        <ele>3335.4</ele>
        <time>2021-08-05 17:01:46</time>
      </trkpt>
      <trkpt lat="37.05588" lon="-3.36602">
        <ele>3335.4</ele>
        <time>2021-08-05 17:01:47</time>
      </trkpt>
      <trkpt lat="37.05589" lon="-3.36602">
        <ele>3335.4</ele>
        <time>2021-08-05 17:01:48</time>
      </trkpt>
      <trkpt lat="37.05589" lon="-3.36602">
        <ele>3335.2</ele>
        <time>2021-08-05 17:01:49</time>
      </trkpt>
      <trkpt lat="37.05591" lon="-3.36601">
        <ele>3335.4</ele>
        <time>2021-08-05 17:01:50</time>
      </trkpt>
      <trkpt lat="37.05591" lon="-3.366">
        <ele>3335.4</ele>
        <time>2021-08-05 17:01:51</time>
      </trkpt>
      <trkpt lat="37.05592" lon="-3.36599">
        <ele>3335.8</ele>
        <time>2021-08-05 17:01:52</time>
      </trkpt>
      <trkpt lat="37.05592" lon="-3.36598">
        <ele>3335.8</ele>
        <time>2021-08-05 17:01:53</time>
      </trkpt>
      <trkpt lat="37.05594" lon="-3.36597">
        <ele>3336.2</ele>
        <time>2021-08-05 17:01:54</time>
      </trkpt>
      <trkpt lat="37.05595" lon="-3.36597">
        <ele>3336.4</ele>
        <time>2021-08-05 17:01:55</time>
      </trkpt>
      <trkpt lat="37.05596" lon="-3.36597">
        <ele>3336.6</ele>
        <time>2021-08-05 17:01:56</time>
      </trkpt>
      <trkpt lat="37.05598" lon="-3.36597">
        <ele>3336.8</ele>
        <time>2021-08-05 17:01:57</time>
      </trkpt>
      <trkpt lat="37.056" lon="-3.36597">
        <ele>3337</ele>
        <time>2021-08-05 17:01:58</time>
      </trkpt>
      <trkpt lat="37.05601" lon="-3.36597">
        <ele>3337</ele>
        <time>2021-08-05 17:01:59</time>
      </trkpt>
      <trkpt lat="37.05601" lon="-3.36596">
        <ele>3337.2</ele>
        <time>2021-08-05 17:02:00</time>
      </trkpt>
      <trkpt lat="37.05601" lon="-3.36596">
        <ele>3337.2</ele>
        <time>2021-08-05 17:02:01</time>
      </trkpt>
      <trkpt lat="37.05601" lon="-3.36595">
        <ele>3337.2</ele>
        <time>2021-08-05 17:02:02</time>
      </trkpt>
      <trkpt lat="37.05598" lon="-3.36594">
        <ele>3337.6</ele>
        <time>2021-08-05 17:02:03</time>
      </trkpt>
      <trkpt lat="37.05599" lon="-3.36592">
        <ele>3337.8</ele>
        <time>2021-08-05 17:02:04</time>
      </trkpt>
      <trkpt lat="37.05599" lon="-3.36592">
        <ele>3338.2</ele>
        <time>2021-08-05 17:02:05</time>
      </trkpt>
      <trkpt lat="37.056" lon="-3.36591">
        <ele>3338.4</ele>
        <time>2021-08-05 17:02:06</time>
      </trkpt>
      <trkpt lat="37.05601" lon="-3.36591">
        <ele>3338.6</ele>
        <time>2021-08-05 17:02:07</time>
      </trkpt>
      <trkpt lat="37.056" lon="-3.3659">
        <ele>3338.8</ele>
        <time>2021-08-05 17:02:08</time>
      </trkpt>
      <trkpt lat="37.05599" lon="-3.3659">
        <ele>3338.8</ele>
        <time>2021-08-05 17:02:09</time>
      </trkpt>
      <trkpt lat="37.05599" lon="-3.3659">
        <ele>3338.6</ele>
        <time>2021-08-05 17:02:10</time>
      </trkpt>
      <trkpt lat="37.05598" lon="-3.3659">
        <ele>3338.6</ele>
        <time>2021-08-05 17:02:11</time>
      </trkpt>
      <trkpt lat="37.05598" lon="-3.3659">
        <ele>3338.6</ele>
        <time>2021-08-05 17:02:12</time>
      </trkpt>
      <trkpt lat="37.05597" lon="-3.3659">
        <ele>3338.6</ele>
        <time>2021-08-05 17:02:13</time>
      </trkpt>
      <trkpt lat="37.05596" lon="-3.3659">
        <ele>3338.6</ele>
        <time>2021-08-05 17:02:14</time>
      </trkpt>
      <trkpt lat="37.05596" lon="-3.3659">
        <ele>3338.6</ele>
        <time>2021-08-05 17:02:15</time>
      </trkpt>
      <trkpt lat="37.05595" lon="-3.3659">
        <ele>3338.6</ele>
        <time>2021-08-05 17:02:16</time>
      </trkpt>
      <trkpt lat="37.05595" lon="-3.3659">
        <ele>3338.6</ele>
        <time>2021-08-05 17:02:17</time>
      </trkpt>
      <trkpt lat="37.05595" lon="-3.36589">
        <ele>3338.6</ele>
        <time>2021-08-05 17:02:18</time>
      </trkpt>
      <trkpt lat="37.05595" lon="-3.36589">
        <ele>3338.8</ele>
        <time>2021-08-05 17:02:19</time>
      </trkpt>
      <trkpt lat="37.05595" lon="-3.36589">
        <ele>3338.8</ele>
        <time>2021-08-05 17:02:20</time>
      </trkpt>
      <trkpt lat="37.05594" lon="-3.36589">
        <ele>3338.8</ele>
        <time>2021-08-05 17:02:21</time>
      </trkpt>
      <trkpt lat="37.05594" lon="-3.36589">
        <ele>3338.6</ele>
        <time>2021-08-05 17:02:22</time>
      </trkpt>
      <trkpt lat="37.05593" lon="-3.36589">
        <ele>3338.8</ele>
        <time>2021-08-05 17:02:23</time>
      </trkpt>
      <trkpt lat="37.05593" lon="-3.36588">
        <ele>3338.8</ele>
        <time>2021-08-05 17:02:24</time>
      </trkpt>
      <trkpt lat="37.05593" lon="-3.36588">
        <ele>3338.8</ele>
        <time>2021-08-05 17:02:25</time>
      </trkpt>
      <trkpt lat="37.05593" lon="-3.36589">
        <ele>3339</ele>
        <time>2021-08-05 17:02:26</time>
      </trkpt>
      <trkpt lat="37.05592" lon="-3.36587">
        <ele>3339.2</ele>
        <time>2021-08-05 17:02:27</time>
      </trkpt>
      <trkpt lat="37.05592" lon="-3.36586">
        <ele>3339.4</ele>
        <time>2021-08-05 17:02:28</time>
      </trkpt>
      <trkpt lat="37.05592" lon="-3.36586">
        <ele>3339.4</ele>
        <time>2021-08-05 17:02:29</time>
      </trkpt>
      <trkpt lat="37.05592" lon="-3.36586">
        <ele>3339.4</ele>
        <time>2021-08-05 17:02:30</time>
      </trkpt>
      <trkpt lat="37.05592" lon="-3.36585">
        <ele>3339.6</ele>
        <time>2021-08-05 17:02:31</time>
      </trkpt>
      <trkpt lat="37.05592" lon="-3.36585">
        <ele>3339.6</ele>
        <time>2021-08-05 17:02:32</time>
      </trkpt>
      <trkpt lat="37.05592" lon="-3.36585">
        <ele>3339.6</ele>
        <time>2021-08-05 17:02:33</time>
      </trkpt>
      <trkpt lat="37.05592" lon="-3.36585">
        <ele>3339.6</ele>
        <time>2021-08-05 17:02:34</time>
      </trkpt>
      <trkpt lat="37.05592" lon="-3.36585">
        <ele>3339.4</ele>
        <time>2021-08-05 17:02:35</time>
      </trkpt>
      <trkpt lat="37.05592" lon="-3.36584">
        <ele>3339.2</ele>
        <time>2021-08-05 17:02:36</time>
      </trkpt>
      <trkpt lat="37.05591" lon="-3.36583">
        <ele>3339.4</ele>
        <time>2021-08-05 17:02:37</time>
      </trkpt>
      <trkpt lat="37.05591" lon="-3.36583">
        <ele>3339.6</ele>
        <time>2021-08-05 17:02:38</time>
      </trkpt>
      <trkpt lat="37.05591" lon="-3.36582">
        <ele>3339.8</ele>
        <time>2021-08-05 17:02:39</time>
      </trkpt>
      <trkpt lat="37.05591" lon="-3.36581">
        <ele>3340</ele>
        <time>2021-08-05 17:02:40</time>
      </trkpt>
      <trkpt lat="37.05591" lon="-3.3658">
        <ele>3340</ele>
        <time>2021-08-05 17:02:41</time>
      </trkpt>
      <trkpt lat="37.05591" lon="-3.36579">
        <ele>3340.4</ele>
        <time>2021-08-05 17:02:42</time>
      </trkpt>
      <trkpt lat="37.05592" lon="-3.36578">
        <ele>3340.6</ele>
        <time>2021-08-05 17:02:43</time>
      </trkpt>
      <trkpt lat="37.05592" lon="-3.36577">
        <ele>3340.8</ele>
        <time>2021-08-05 17:02:44</time>
      </trkpt>
      <trkpt lat="37.05593" lon="-3.36576">
        <ele>3341</ele>
        <time>2021-08-05 17:02:45</time>
      </trkpt>
      <trkpt lat="37.05593" lon="-3.36575">
        <ele>3341.2</ele>
        <time>2021-08-05 17:02:46</time>
      </trkpt>
      <trkpt lat="37.05593" lon="-3.36575">
        <ele>3341.4</ele>
        <time>2021-08-05 17:02:47</time>
      </trkpt>
      <trkpt lat="37.05594" lon="-3.36574">
        <ele>3341.6</ele>
        <time>2021-08-05 17:02:48</time>
      </trkpt>
      <trkpt lat="37.05594" lon="-3.36574">
        <ele>3341.8</ele>
        <time>2021-08-05 17:02:49</time>
      </trkpt>
      <trkpt lat="37.05594" lon="-3.36574">
        <ele>3341.8</ele>
        <time>2021-08-05 17:02:50</time>
      </trkpt>
      <trkpt lat="37.05594" lon="-3.36574">
        <ele>3341.8</ele>
        <time>2021-08-05 17:02:51</time>
      </trkpt>
      <trkpt lat="37.05594" lon="-3.36574">
        <ele>3341.8</ele>
        <time>2021-08-05 17:02:52</time>
      </trkpt>
      <trkpt lat="37.05594" lon="-3.36573">
        <ele>3341.6</ele>
        <time>2021-08-05 17:02:53</time>
      </trkpt>
      <trkpt lat="37.05594" lon="-3.36573">
        <ele>3341.4</ele>
        <time>2021-08-05 17:02:54</time>
      </trkpt>
      <trkpt lat="37.05594" lon="-3.36573">
        <ele>3341.4</ele>
        <time>2021-08-05 17:02:55</time>
      </trkpt>
      <trkpt lat="37.05594" lon="-3.36573">
        <ele>3341.4</ele>
        <time>2021-08-05 17:02:56</time>
      </trkpt>
      <trkpt lat="37.05594" lon="-3.36572">
        <ele>3341.2</ele>
        <time>2021-08-05 17:02:57</time>
      </trkpt>
      <trkpt lat="37.05593" lon="-3.36573">
        <ele>3341.4</ele>
        <time>2021-08-05 17:02:58</time>
      </trkpt>
      <trkpt lat="37.05593" lon="-3.36573">
        <ele>3341.2</ele>
        <time>2021-08-05 17:02:59</time>
      </trkpt>
      <trkpt lat="37.05593" lon="-3.36573">
        <ele>3341.4</ele>
        <time>2021-08-05 17:03:00</time>
      </trkpt>
      <trkpt lat="37.05592" lon="-3.36573">
        <ele>3341.2</ele>
        <time>2021-08-05 17:03:01</time>
      </trkpt>
      <trkpt lat="37.05592" lon="-3.36573">
        <ele>3341.4</ele>
        <time>2021-08-05 17:03:02</time>
      </trkpt>
      <trkpt lat="37.05592" lon="-3.36573">
        <ele>3341.4</ele>
        <time>2021-08-05 17:03:03</time>
      </trkpt>
      <trkpt lat="37.05592" lon="-3.36573">
        <ele>3341.2</ele>
        <time>2021-08-05 17:03:04</time>
      </trkpt>
      <trkpt lat="37.05593" lon="-3.36573">
        <ele>3341.2</ele>
        <time>2021-08-05 17:03:05</time>
      </trkpt>
      <trkpt lat="37.05593" lon="-3.36573">
        <ele>3341</ele>
        <time>2021-08-05 17:03:06</time>
      </trkpt>
      <trkpt lat="37.05593" lon="-3.36573">
        <ele>3341</ele>
        <time>2021-08-05 17:03:07</time>
      </trkpt>
      <trkpt lat="37.05592" lon="-3.3657">
        <ele>3341</ele>
        <time>2021-08-05 17:03:08</time>
      </trkpt>
      <trkpt lat="37.05592" lon="-3.3657">
        <ele>3341</ele>
        <time>2021-08-05 17:03:09</time>
      </trkpt>
      <trkpt lat="37.05593" lon="-3.36571">
        <ele>3341</ele>
        <time>2021-08-05 17:03:10</time>
      </trkpt>
      <trkpt lat="37.05593" lon="-3.36571">
        <ele>3341.2</ele>
        <time>2021-08-05 17:03:11</time>
      </trkpt>
      <trkpt lat="37.05594" lon="-3.36571">
        <ele>3341.2</ele>
        <time>2021-08-05 17:03:12</time>
      </trkpt>
      <trkpt lat="37.05593" lon="-3.36569">
        <ele>3341.2</ele>
        <time>2021-08-05 17:03:13</time>
      </trkpt>
      <trkpt lat="37.05593" lon="-3.36569">
        <ele>3341.2</ele>
        <time>2021-08-05 17:03:14</time>
      </trkpt>
      <trkpt lat="37.05594" lon="-3.3657">
        <ele>3341.2</ele>
        <time>2021-08-05 17:03:15</time>
      </trkpt>
      <trkpt lat="37.05594" lon="-3.3657">
        <ele>3341.2</ele>
        <time>2021-08-05 17:03:16</time>
      </trkpt>
      <trkpt lat="37.05595" lon="-3.36571">
        <ele>3341</ele>
        <time>2021-08-05 17:03:17</time>
      </trkpt>
      <trkpt lat="37.05595" lon="-3.36571">
        <ele>3340.8</ele>
        <time>2021-08-05 17:03:18</time>
      </trkpt>
      <trkpt lat="37.05596" lon="-3.36571">
        <ele>3340.8</ele>
        <time>2021-08-05 17:03:19</time>
      </trkpt>
      <trkpt lat="37.05596" lon="-3.36571">
        <ele>3340.6</ele>
        <time>2021-08-05 17:03:20</time>
      </trkpt>
      <trkpt lat="37.05596" lon="-3.36571">
        <ele>3340.6</ele>
        <time>2021-08-05 17:03:21</time>
      </trkpt>
      <trkpt lat="37.05596" lon="-3.36571">
        <ele>3340.6</ele>
        <time>2021-08-05 17:03:22</time>
      </trkpt>
      <trkpt lat="37.05597" lon="-3.36572">
        <ele>3340.6</ele>
        <time>2021-08-05 17:03:23</time>
      </trkpt>
      <trkpt lat="37.05597" lon="-3.36572">
        <ele>3340.8</ele>
        <time>2021-08-05 17:03:24</time>
      </trkpt>
      <trkpt lat="37.05597" lon="-3.36572">
        <ele>3340.8</ele>
        <time>2021-08-05 17:03:25</time>
      </trkpt>
      <trkpt lat="37.05597" lon="-3.36573">
        <ele>3340.4</ele>
        <time>2021-08-05 17:03:26</time>
      </trkpt>
      <trkpt lat="37.05597" lon="-3.36573">
        <ele>3340.6</ele>
        <time>2021-08-05 17:03:27</time>
      </trkpt>
      <trkpt lat="37.05597" lon="-3.36573">
        <ele>3340.4</ele>
        <time>2021-08-05 17:03:28</time>
      </trkpt>
      <trkpt lat="37.05596" lon="-3.36573">
        <ele>3340.4</ele>
        <time>2021-08-05 17:03:29</time>
      </trkpt>
      <trkpt lat="37.05596" lon="-3.36574">
        <ele>3340.2</ele>
        <time>2021-08-05 17:03:30</time>
      </trkpt>
      <trkpt lat="37.05596" lon="-3.36574">
        <ele>3340.2</ele>
        <time>2021-08-05 17:03:31</time>
      </trkpt>
      <trkpt lat="37.05596" lon="-3.36574">
        <ele>3340</ele>
        <time>2021-08-05 17:03:32</time>
      </trkpt>
      <trkpt lat="37.05596" lon="-3.36575">
        <ele>3340</ele>
        <time>2021-08-05 17:03:33</time>
      </trkpt>
      <trkpt lat="37.05596" lon="-3.36575">
        <ele>3339.8</ele>
        <time>2021-08-05 17:03:34</time>
      </trkpt>
      <trkpt lat="37.05597" lon="-3.36575">
        <ele>3340</ele>
        <time>2021-08-05 17:03:35</time>
      </trkpt>
      <trkpt lat="37.05597" lon="-3.36575">
        <ele>3340</ele>
        <time>2021-08-05 17:03:36</time>
      </trkpt>
      <trkpt lat="37.05597" lon="-3.36575">
        <ele>3340</ele>
        <time>2021-08-05 17:03:37</time>
      </trkpt>
      <trkpt lat="37.05597" lon="-3.36575">
        <ele>3340</ele>
        <time>2021-08-05 17:03:38</time>
      </trkpt>
      <trkpt lat="37.05596" lon="-3.36575">
        <ele>3340.2</ele>
        <time>2021-08-05 17:03:39</time>
      </trkpt>
      <trkpt lat="37.05596" lon="-3.36575">
        <ele>3340.4</ele>
        <time>2021-08-05 17:03:40</time>
      </trkpt>
      <trkpt lat="37.05596" lon="-3.36575">
        <ele>3340.6</ele>
        <time>2021-08-05 17:03:41</time>
      </trkpt>
      <trkpt lat="37.05596" lon="-3.36575">
        <ele>3340.6</ele>
        <time>2021-08-05 17:03:42</time>
      </trkpt>
      <trkpt lat="37.05596" lon="-3.36575">
        <ele>3340.8</ele>
        <time>2021-08-05 17:03:43</time>
      </trkpt>
      <trkpt lat="37.05596" lon="-3.36575">
        <ele>3341</ele>
        <time>2021-08-05 17:03:44</time>
      </trkpt>
      <trkpt lat="37.05596" lon="-3.36575">
        <ele>3341.2</ele>
        <time>2021-08-05 17:03:45</time>
      </trkpt>
      <trkpt lat="37.05596" lon="-3.36576">
        <ele>3341.4</ele>
        <time>2021-08-05 17:03:46</time>
      </trkpt>
      <trkpt lat="37.05596" lon="-3.36576">
        <ele>3341.4</ele>
        <time>2021-08-05 17:03:47</time>
      </trkpt>
      <trkpt lat="37.05596" lon="-3.36575">
        <ele>3341.4</ele>
        <time>2021-08-05 17:03:48</time>
      </trkpt>
      <trkpt lat="37.05596" lon="-3.36575">
        <ele>3341.2</ele>
        <time>2021-08-05 17:03:49</time>
      </trkpt>
      <trkpt lat="37.05596" lon="-3.36574">
        <ele>3341</ele>
        <time>2021-08-05 17:03:50</time>
      </trkpt>
      <trkpt lat="37.05596" lon="-3.36574">
        <ele>3340.8</ele>
        <time>2021-08-05 17:03:51</time>
      </trkpt>
      <trkpt lat="37.05596" lon="-3.36574">
        <ele>3340.6</ele>
        <time>2021-08-05 17:03:52</time>
      </trkpt>
      <trkpt lat="37.05596" lon="-3.36574">
        <ele>3340.4</ele>
        <time>2021-08-05 17:03:53</time>
      </trkpt>
      <trkpt lat="37.05596" lon="-3.36574">
        <ele>3340.2</ele>
        <time>2021-08-05 17:03:54</time>
      </trkpt>
      <trkpt lat="37.05595" lon="-3.36574">
        <ele>3340</ele>
        <time>2021-08-05 17:03:55</time>
      </trkpt>
      <trkpt lat="37.05595" lon="-3.36574">
        <ele>3340</ele>
        <time>2021-08-05 17:03:56</time>
      </trkpt>
      <trkpt lat="37.05595" lon="-3.36574">
        <ele>3340</ele>
        <time>2021-08-05 17:03:57</time>
      </trkpt>
      <trkpt lat="37.05595" lon="-3.36574">
        <ele>3340.4</ele>
        <time>2021-08-05 17:03:58</time>
      </trkpt>
      <trkpt lat="37.05595" lon="-3.36575">
        <ele>3340.6</ele>
        <time>2021-08-05 17:03:59</time>
      </trkpt>
      <trkpt lat="37.05596" lon="-3.36575">
        <ele>3340.8</ele>
        <time>2021-08-05 17:04:00</time>
      </trkpt>
      <trkpt lat="37.05596" lon="-3.36575">
        <ele>3341</ele>
        <time>2021-08-05 17:04:01</time>
      </trkpt>
      <trkpt lat="37.05577" lon="-3.36616">
        <ele>3341.6</ele>
        <time>2021-08-05 17:04:02</time>
      </trkpt>
      <trkpt lat="37.05582" lon="-3.3661">
        <ele>3341.4</ele>
        <time>2021-08-05 17:04:03</time>
      </trkpt>
      <trkpt lat="37.05584" lon="-3.36607">
        <ele>3341</ele>
        <time>2021-08-05 17:04:04</time>
      </trkpt>
      <trkpt lat="37.05585" lon="-3.36606">
        <ele>3340.8</ele>
        <time>2021-08-05 17:04:05</time>
      </trkpt>
      <trkpt lat="37.05586" lon="-3.36604">
        <ele>3340.4</ele>
        <time>2021-08-05 17:04:06</time>
      </trkpt>
      <trkpt lat="37.05587" lon="-3.36603">
        <ele>3340.2</ele>
        <time>2021-08-05 17:04:07</time>
      </trkpt>
      <trkpt lat="37.05594" lon="-3.36591">
        <ele>3340.2</ele>
        <time>2021-08-05 18:51:17</time>
      </trkpt>
      <trkpt lat="37.05594" lon="-3.3659">
        <ele>3340</ele>
        <time>2021-08-05 18:51:18</time>
      </trkpt>
      <trkpt lat="37.05594" lon="-3.36589">
        <ele>3340.2</ele>
        <time>2021-08-05 18:51:19</time>
      </trkpt>
      <trkpt lat="37.05594" lon="-3.36588">
        <ele>3340</ele>
        <time>2021-08-05 18:51:21</time>
      </trkpt>
      <trkpt lat="37.05593" lon="-3.36588">
        <ele>3340</ele>
        <time>2021-08-05 18:51:22</time>
      </trkpt>
      <trkpt lat="37.05592" lon="-3.36588">
        <ele>3340</ele>
        <time>2021-08-05 18:51:23</time>
      </trkpt>
      <trkpt lat="37.05591" lon="-3.36588">
        <ele>3339.8</ele>
        <time>2021-08-05 18:51:24</time>
      </trkpt>
      <trkpt lat="37.0559" lon="-3.36589">
        <ele>3339.6</ele>
        <time>2021-08-05 18:51:25</time>
      </trkpt>
      <trkpt lat="37.0559" lon="-3.36588">
        <ele>3339.4</ele>
        <time>2021-08-05 18:51:26</time>
      </trkpt>
      <trkpt lat="37.05589" lon="-3.36588">
        <ele>3339.4</ele>
        <time>2021-08-05 18:51:27</time>
      </trkpt>
      <trkpt lat="37.05589" lon="-3.36588">
        <ele>3339.4</ele>
        <time>2021-08-05 18:51:28</time>
      </trkpt>
      <trkpt lat="37.05588" lon="-3.36588">
        <ele>3339.4</ele>
        <time>2021-08-05 18:51:29</time>
      </trkpt>
      <trkpt lat="37.05588" lon="-3.36588">
        <ele>3339.4</ele>
        <time>2021-08-05 18:51:30</time>
      </trkpt>
      <trkpt lat="37.05587" lon="-3.36588">
        <ele>3339.6</ele>
        <time>2021-08-05 18:51:31</time>
      </trkpt>
      <trkpt lat="37.05587" lon="-3.36588">
        <ele>3339.6</ele>
        <time>2021-08-05 18:51:32</time>
      </trkpt>
      <trkpt lat="37.05587" lon="-3.36589">
        <ele>3339.6</ele>
        <time>2021-08-05 18:51:33</time>
      </trkpt>
      <trkpt lat="37.05586" lon="-3.36589">
        <ele>3339.8</ele>
        <time>2021-08-05 18:51:34</time>
      </trkpt>
      <trkpt lat="37.05586" lon="-3.36589">
        <ele>3339.6</ele>
        <time>2021-08-05 18:51:35</time>
      </trkpt>
      <trkpt lat="37.05586" lon="-3.36589">
        <ele>3339.6</ele>
        <time>2021-08-05 18:51:36</time>
      </trkpt>
      <trkpt lat="37.05585" lon="-3.3659">
        <ele>3339.6</ele>
        <time>2021-08-05 18:51:37</time>
      </trkpt>
      <trkpt lat="37.05585" lon="-3.36589">
        <ele>3339.6</ele>
        <time>2021-08-05 18:51:38</time>
      </trkpt>
      <trkpt lat="37.05585" lon="-3.3659">
        <ele>3339.6</ele>
        <time>2021-08-05 18:51:39</time>
      </trkpt>
      <trkpt lat="37.05584" lon="-3.3659">
        <ele>3339.6</ele>
        <time>2021-08-05 18:51:40</time>
      </trkpt>
      <trkpt lat="37.05584" lon="-3.3659">
        <ele>3339.4</ele>
        <time>2021-08-05 18:51:41</time>
      </trkpt>
      <trkpt lat="37.05584" lon="-3.36591">
        <ele>3339.2</ele>
        <time>2021-08-05 18:51:42</time>
      </trkpt>
      <trkpt lat="37.05584" lon="-3.36591">
        <ele>3339</ele>
        <time>2021-08-05 18:51:43</time>
      </trkpt>
      <trkpt lat="37.05584" lon="-3.36591">
        <ele>3338.8</ele>
        <time>2021-08-05 18:51:44</time>
      </trkpt>
      <trkpt lat="37.05583" lon="-3.36591">
        <ele>3338.6</ele>
        <time>2021-08-05 18:51:45</time>
      </trkpt>
      <trkpt lat="37.05583" lon="-3.36592">
        <ele>3338.2</ele>
        <time>2021-08-05 18:51:46</time>
      </trkpt>
      <trkpt lat="37.05582" lon="-3.36592">
        <ele>3338</ele>
        <time>2021-08-05 18:51:47</time>
      </trkpt>
      <trkpt lat="37.05582" lon="-3.36593">
        <ele>3337.8</ele>
        <time>2021-08-05 18:51:48</time>
      </trkpt>
      <trkpt lat="37.05582" lon="-3.36593">
        <ele>3337.8</ele>
        <time>2021-08-05 18:51:49</time>
      </trkpt>
      <trkpt lat="37.05581" lon="-3.36593">
        <ele>3337.8</ele>
        <time>2021-08-05 18:51:50</time>
      </trkpt>
      <trkpt lat="37.05581" lon="-3.36594">
        <ele>3337.8</ele>
        <time>2021-08-05 18:51:51</time>
      </trkpt>
      <trkpt lat="37.05581" lon="-3.36594">
        <ele>3337.6</ele>
        <time>2021-08-05 18:51:52</time>
      </trkpt>
      <trkpt lat="37.05581" lon="-3.36595">
        <ele>3337.4</ele>
        <time>2021-08-05 18:51:53</time>
      </trkpt>
      <trkpt lat="37.0558" lon="-3.36595">
        <ele>3337.4</ele>
        <time>2021-08-05 18:51:54</time>
      </trkpt>
      <trkpt lat="37.0558" lon="-3.36595">
        <ele>3337.2</ele>
        <time>2021-08-05 18:51:55</time>
      </trkpt>
      <trkpt lat="37.0558" lon="-3.36596">
        <ele>3337</ele>
        <time>2021-08-05 18:51:56</time>
      </trkpt>
      <trkpt lat="37.05579" lon="-3.36596">
        <ele>3336.8</ele>
        <time>2021-08-05 18:51:57</time>
      </trkpt>
      <trkpt lat="37.05579" lon="-3.36596">
        <ele>3336.8</ele>
        <time>2021-08-05 18:51:58</time>
      </trkpt>
      <trkpt lat="37.05578" lon="-3.36596">
        <ele>3336.6</ele>
        <time>2021-08-05 18:51:59</time>
      </trkpt>
      <trkpt lat="37.05578" lon="-3.36597">
        <ele>3336.4</ele>
        <time>2021-08-05 18:52:00</time>
      </trkpt>
      <trkpt lat="37.05577" lon="-3.36597">
        <ele>3336.2</ele>
        <time>2021-08-05 18:52:01</time>
      </trkpt>
      <trkpt lat="37.05577" lon="-3.36597">
        <ele>3336</ele>
        <time>2021-08-05 18:52:02</time>
      </trkpt>
      <trkpt lat="37.05577" lon="-3.36598">
        <ele>3335.8</ele>
        <time>2021-08-05 18:52:03</time>
      </trkpt>
      <trkpt lat="37.05577" lon="-3.36598">
        <ele>3335.8</ele>
        <time>2021-08-05 18:52:04</time>
      </trkpt>
      <trkpt lat="37.05577" lon="-3.36598">
        <ele>3335.6</ele>
        <time>2021-08-05 18:52:05</time>
      </trkpt>
      <trkpt lat="37.05577" lon="-3.36599">
        <ele>3335.6</ele>
        <time>2021-08-05 18:52:06</time>
      </trkpt>
      <trkpt lat="37.05577" lon="-3.36599">
        <ele>3335.6</ele>
        <time>2021-08-05 18:52:07</time>
      </trkpt>
      <trkpt lat="37.05576" lon="-3.366">
        <ele>3335.6</ele>
        <time>2021-08-05 18:52:08</time>
      </trkpt>
      <trkpt lat="37.05576" lon="-3.366">
        <ele>3335.6</ele>
        <time>2021-08-05 18:52:09</time>
      </trkpt>
      <trkpt lat="37.05576" lon="-3.36601">
        <ele>3335.4</ele>
        <time>2021-08-05 18:52:10</time>
      </trkpt>
      <trkpt lat="37.05577" lon="-3.36601">
        <ele>3335.2</ele>
        <time>2021-08-05 18:52:11</time>
      </trkpt>
      <trkpt lat="37.05577" lon="-3.36602">
        <ele>3335.4</ele>
        <time>2021-08-05 18:52:12</time>
      </trkpt>
      <trkpt lat="37.05578" lon="-3.36602">
        <ele>3335.4</ele>
        <time>2021-08-05 18:52:13</time>
      </trkpt>
      <trkpt lat="37.05578" lon="-3.36603">
        <ele>3335.2</ele>
        <time>2021-08-05 18:52:14</time>
      </trkpt>
      <trkpt lat="37.05578" lon="-3.36604">
        <ele>3335.2</ele>
        <time>2021-08-05 18:52:15</time>
      </trkpt>
      <trkpt lat="37.05578" lon="-3.36604">
        <ele>3335</ele>
        <time>2021-08-05 18:52:16</time>
      </trkpt>
      <trkpt lat="37.05578" lon="-3.36605">
        <ele>3334.8</ele>
        <time>2021-08-05 18:52:17</time>
      </trkpt>
      <trkpt lat="37.05578" lon="-3.36605">
        <ele>3334.8</ele>
        <time>2021-08-05 18:52:18</time>
      </trkpt>
      <trkpt lat="37.05577" lon="-3.36606">
        <ele>3334.8</ele>
        <time>2021-08-05 18:52:19</time>
      </trkpt>
      <trkpt lat="37.05577" lon="-3.36607">
        <ele>3334.8</ele>
        <time>2021-08-05 18:52:20</time>
      </trkpt>
      <trkpt lat="37.05576" lon="-3.36607">
        <ele>3334.6</ele>
        <time>2021-08-05 18:52:21</time>
      </trkpt>
      <trkpt lat="37.05576" lon="-3.36607">
        <ele>3334.6</ele>
        <time>2021-08-05 18:52:22</time>
      </trkpt>
      <trkpt lat="37.05575" lon="-3.36607">
        <ele>3334.6</ele>
        <time>2021-08-05 18:52:23</time>
      </trkpt>
      <trkpt lat="37.05575" lon="-3.36608">
        <ele>3334.4</ele>
        <time>2021-08-05 18:52:24</time>
      </trkpt>
      <trkpt lat="37.05575" lon="-3.36608">
        <ele>3334.2</ele>
        <time>2021-08-05 18:52:25</time>
      </trkpt>
      <trkpt lat="37.05574" lon="-3.36607">
        <ele>3334.2</ele>
        <time>2021-08-05 18:52:26</time>
      </trkpt>
      <trkpt lat="37.05574" lon="-3.36607">
        <ele>3334</ele>
        <time>2021-08-05 18:52:27</time>
      </trkpt>
      <trkpt lat="37.05574" lon="-3.36607">
        <ele>3334</ele>
        <time>2021-08-05 18:52:28</time>
      </trkpt>
      <trkpt lat="37.05573" lon="-3.36608">
        <ele>3334</ele>
        <time>2021-08-05 18:52:29</time>
      </trkpt>
      <trkpt lat="37.05572" lon="-3.36608">
        <ele>3334</ele>
        <time>2021-08-05 18:52:30</time>
      </trkpt>
      <trkpt lat="37.05572" lon="-3.36608">
        <ele>3333.8</ele>
        <time>2021-08-05 18:52:31</time>
      </trkpt>
      <trkpt lat="37.05571" lon="-3.36608">
        <ele>3333.6</ele>
        <time>2021-08-05 18:52:32</time>
      </trkpt>
      <trkpt lat="37.0557" lon="-3.36609">
        <ele>3333.6</ele>
        <time>2021-08-05 18:52:33</time>
      </trkpt>
      <trkpt lat="37.0557" lon="-3.36609">
        <ele>3333.4</ele>
        <time>2021-08-05 18:52:34</time>
      </trkpt>
      <trkpt lat="37.05569" lon="-3.36609">
        <ele>3333.2</ele>
        <time>2021-08-05 18:52:35</time>
      </trkpt>
      <trkpt lat="37.05568" lon="-3.36609">
        <ele>3333.2</ele>
        <time>2021-08-05 18:52:36</time>
      </trkpt>
      <trkpt lat="37.05568" lon="-3.36609">
        <ele>3333</ele>
        <time>2021-08-05 18:52:37</time>
      </trkpt>
      <trkpt lat="37.05567" lon="-3.36609">
        <ele>3332.8</ele>
        <time>2021-08-05 18:52:38</time>
      </trkpt>
      <trkpt lat="37.05566" lon="-3.36609">
        <ele>3332.8</ele>
        <time>2021-08-05 18:52:39</time>
      </trkpt>
      <trkpt lat="37.05565" lon="-3.3661">
        <ele>3332.6</ele>
        <time>2021-08-05 18:52:40</time>
      </trkpt>
      <trkpt lat="37.05564" lon="-3.3661">
        <ele>3332.8</ele>
        <time>2021-08-05 18:52:41</time>
      </trkpt>
      <trkpt lat="37.05564" lon="-3.3661">
        <ele>3332.8</ele>
        <time>2021-08-05 18:52:42</time>
      </trkpt>
      <trkpt lat="37.05563" lon="-3.3661">
        <ele>3332.6</ele>
        <time>2021-08-05 18:52:43</time>
      </trkpt>
      <trkpt lat="37.05562" lon="-3.36611">
        <ele>3332.6</ele>
        <time>2021-08-05 18:52:44</time>
      </trkpt>
      <trkpt lat="37.05562" lon="-3.36611">
        <ele>3332.6</ele>
        <time>2021-08-05 18:52:45</time>
      </trkpt>
      <trkpt lat="37.05561" lon="-3.36611">
        <ele>3332.6</ele>
        <time>2021-08-05 18:52:46</time>
      </trkpt>
      <trkpt lat="37.05561" lon="-3.36611">
        <ele>3332.2</ele>
        <time>2021-08-05 18:52:47</time>
      </trkpt>
      <trkpt lat="37.0556" lon="-3.36612">
        <ele>3332</ele>
        <time>2021-08-05 18:52:48</time>
      </trkpt>
      <trkpt lat="37.0556" lon="-3.36612">
        <ele>3332</ele>
        <time>2021-08-05 18:52:49</time>
      </trkpt>
      <trkpt lat="37.05559" lon="-3.36612">
        <ele>3331.6</ele>
        <time>2021-08-05 18:52:50</time>
      </trkpt>
      <trkpt lat="37.05558" lon="-3.36613">
        <ele>3331.4</ele>
        <time>2021-08-05 18:52:51</time>
      </trkpt>
      <trkpt lat="37.05557" lon="-3.36613">
        <ele>3331.2</ele>
        <time>2021-08-05 18:52:52</time>
      </trkpt>
      <trkpt lat="37.05557" lon="-3.36613">
        <ele>3331</ele>
        <time>2021-08-05 18:52:53</time>
      </trkpt>
      <trkpt lat="37.05556" lon="-3.36614">
        <ele>3331</ele>
        <time>2021-08-05 18:52:54</time>
      </trkpt>
      <trkpt lat="37.05555" lon="-3.36614">
        <ele>3331</ele>
        <time>2021-08-05 18:52:55</time>
      </trkpt>
      <trkpt lat="37.05554" lon="-3.36615">
        <ele>3330.8</ele>
        <time>2021-08-05 18:52:56</time>
      </trkpt>
      <trkpt lat="37.05553" lon="-3.36615">
        <ele>3330.6</ele>
        <time>2021-08-05 18:52:57</time>
      </trkpt>
      <trkpt lat="37.05553" lon="-3.36615">
        <ele>3330.6</ele>
        <time>2021-08-05 18:52:58</time>
      </trkpt>
      <trkpt lat="37.05552" lon="-3.36615">
        <ele>3330.6</ele>
        <time>2021-08-05 18:52:59</time>
      </trkpt>
      <trkpt lat="37.05551" lon="-3.36614">
        <ele>3330.6</ele>
        <time>2021-08-05 18:53:00</time>
      </trkpt>
      <trkpt lat="37.05551" lon="-3.36614">
        <ele>3330.4</ele>
        <time>2021-08-05 18:53:01</time>
      </trkpt>
      <trkpt lat="37.05551" lon="-3.36614">
        <ele>3330.4</ele>
        <time>2021-08-05 18:53:02</time>
      </trkpt>
      <trkpt lat="37.05552" lon="-3.36616">
        <ele>3330</ele>
        <time>2021-08-05 18:53:03</time>
      </trkpt>
      <trkpt lat="37.05553" lon="-3.36616">
        <ele>3329.8</ele>
        <time>2021-08-05 18:53:04</time>
      </trkpt>
      <trkpt lat="37.05553" lon="-3.36617">
        <ele>3329.6</ele>
        <time>2021-08-05 18:53:05</time>
      </trkpt>
      <trkpt lat="37.05553" lon="-3.36617">
        <ele>3329.6</ele>
        <time>2021-08-05 18:53:06</time>
      </trkpt>
      <trkpt lat="37.05553" lon="-3.36616">
        <ele>3329.4</ele>
        <time>2021-08-05 18:53:07</time>
      </trkpt>
      <trkpt lat="37.05552" lon="-3.36615">
        <ele>3329.4</ele>
        <time>2021-08-05 18:53:08</time>
      </trkpt>
      <trkpt lat="37.05552" lon="-3.36615">
        <ele>3330</ele>
        <time>2021-08-05 18:53:09</time>
      </trkpt>
      <trkpt lat="37.05552" lon="-3.36614">
        <ele>3330.2</ele>
        <time>2021-08-05 18:53:10</time>
      </trkpt>
      <trkpt lat="37.05552" lon="-3.36614">
        <ele>3330.2</ele>
        <time>2021-08-05 18:53:11</time>
      </trkpt>
      <trkpt lat="37.05552" lon="-3.36613">
        <ele>3330.4</ele>
        <time>2021-08-05 18:53:12</time>
      </trkpt>
      <trkpt lat="37.05551" lon="-3.36613">
        <ele>3330.6</ele>
        <time>2021-08-05 18:53:13</time>
      </trkpt>
      <trkpt lat="37.05551" lon="-3.36612">
        <ele>3330.4</ele>
        <time>2021-08-05 18:53:14</time>
      </trkpt>
      <trkpt lat="37.0555" lon="-3.36612">
        <ele>3330.4</ele>
        <time>2021-08-05 18:53:15</time>
      </trkpt>
      <trkpt lat="37.0555" lon="-3.36612">
        <ele>3330.4</ele>
        <time>2021-08-05 18:53:16</time>
      </trkpt>
      <trkpt lat="37.05549" lon="-3.36611">
        <ele>3330.6</ele>
        <time>2021-08-05 18:53:17</time>
      </trkpt>
      <trkpt lat="37.05549" lon="-3.36611">
        <ele>3330.6</ele>
        <time>2021-08-05 18:53:18</time>
      </trkpt>
      <trkpt lat="37.05549" lon="-3.36611">
        <ele>3330.2</ele>
        <time>2021-08-05 18:53:19</time>
      </trkpt>
      <trkpt lat="37.05548" lon="-3.36611">
        <ele>3330.2</ele>
        <time>2021-08-05 18:53:20</time>
      </trkpt>
      <trkpt lat="37.05547" lon="-3.36611">
        <ele>3330</ele>
        <time>2021-08-05 18:53:21</time>
      </trkpt>
      <trkpt lat="37.05547" lon="-3.36612">
        <ele>3330</ele>
        <time>2021-08-05 18:53:22</time>
      </trkpt>
      <trkpt lat="37.05547" lon="-3.36612">
        <ele>3330</ele>
        <time>2021-08-05 18:53:23</time>
      </trkpt>
      <trkpt lat="37.05547" lon="-3.36611">
        <ele>3329.8</ele>
        <time>2021-08-05 18:53:24</time>
      </trkpt>
      <trkpt lat="37.05547" lon="-3.36611">
        <ele>3329.8</ele>
        <time>2021-08-05 18:53:25</time>
      </trkpt>
      <trkpt lat="37.05547" lon="-3.36611">
        <ele>3330</ele>
        <time>2021-08-05 18:53:26</time>
      </trkpt>
      <trkpt lat="37.05547" lon="-3.36611">
        <ele>3330</ele>
        <time>2021-08-05 18:53:27</time>
      </trkpt>
      <trkpt lat="37.05547" lon="-3.36611">
        <ele>3330</ele>
        <time>2021-08-05 18:53:28</time>
      </trkpt>
      <trkpt lat="37.05547" lon="-3.36612">
        <ele>3330</ele>
        <time>2021-08-05 18:53:29</time>
      </trkpt>
      <trkpt lat="37.05546" lon="-3.36613">
        <ele>3330</ele>
        <time>2021-08-05 18:53:30</time>
      </trkpt>
      <trkpt lat="37.05545" lon="-3.36613">
        <ele>3330</ele>
        <time>2021-08-05 18:53:31</time>
      </trkpt>
      <trkpt lat="37.05545" lon="-3.36614">
        <ele>3330</ele>
        <time>2021-08-05 18:53:32</time>
      </trkpt>
      <trkpt lat="37.05544" lon="-3.36614">
        <ele>3330</ele>
        <time>2021-08-05 18:53:33</time>
      </trkpt>
      <trkpt lat="37.05543" lon="-3.36614">
        <ele>3329.8</ele>
        <time>2021-08-05 18:53:34</time>
      </trkpt>
      <trkpt lat="37.05543" lon="-3.36615">
        <ele>3329.8</ele>
        <time>2021-08-05 18:53:35</time>
      </trkpt>
      <trkpt lat="37.05542" lon="-3.36615">
        <ele>3329.8</ele>
        <time>2021-08-05 18:53:36</time>
      </trkpt>
      <trkpt lat="37.05541" lon="-3.36616">
        <ele>3329.6</ele>
        <time>2021-08-05 18:53:37</time>
      </trkpt>
      <trkpt lat="37.05541" lon="-3.36616">
        <ele>3329.6</ele>
        <time>2021-08-05 18:53:38</time>
      </trkpt>
      <trkpt lat="37.0554" lon="-3.36616">
        <ele>3329.4</ele>
        <time>2021-08-05 18:53:39</time>
      </trkpt>
      <trkpt lat="37.05539" lon="-3.36616">
        <ele>3329.4</ele>
        <time>2021-08-05 18:53:40</time>
      </trkpt>
      <trkpt lat="37.05539" lon="-3.36616">
        <ele>3329.4</ele>
        <time>2021-08-05 18:53:41</time>
      </trkpt>
      <trkpt lat="37.0554" lon="-3.36616">
        <ele>3329.4</ele>
        <time>2021-08-05 18:53:42</time>
      </trkpt>
      <trkpt lat="37.0554" lon="-3.36616">
        <ele>3329.4</ele>
        <time>2021-08-05 18:53:43</time>
      </trkpt>
      <trkpt lat="37.0554" lon="-3.36616">
        <ele>3329.4</ele>
        <time>2021-08-05 18:53:44</time>
      </trkpt>
      <trkpt lat="37.0554" lon="-3.36616">
        <ele>3329.2</ele>
        <time>2021-08-05 18:53:45</time>
      </trkpt>
      <trkpt lat="37.0554" lon="-3.36616">
        <ele>3329.2</ele>
        <time>2021-08-05 18:53:46</time>
      </trkpt>
      <trkpt lat="37.0554" lon="-3.36617">
        <ele>3329.4</ele>
        <time>2021-08-05 18:53:47</time>
      </trkpt>
      <trkpt lat="37.0554" lon="-3.36618">
        <ele>3329.4</ele>
        <time>2021-08-05 18:53:48</time>
      </trkpt>
      <trkpt lat="37.0554" lon="-3.36618">
        <ele>3329.2</ele>
        <time>2021-08-05 18:53:49</time>
      </trkpt>
      <trkpt lat="37.0554" lon="-3.36618">
        <ele>3328.8</ele>
        <time>2021-08-05 18:53:50</time>
      </trkpt>
      <trkpt lat="37.0554" lon="-3.36618">
        <ele>3329.2</ele>
        <time>2021-08-05 18:53:51</time>
      </trkpt>
      <trkpt lat="37.0554" lon="-3.36619">
        <ele>3329.4</ele>
        <time>2021-08-05 18:53:52</time>
      </trkpt>
      <trkpt lat="37.05539" lon="-3.36619">
        <ele>3329.2</ele>
        <time>2021-08-05 18:53:53</time>
      </trkpt>
      <trkpt lat="37.05539" lon="-3.36619">
        <ele>3329</ele>
        <time>2021-08-05 18:53:54</time>
      </trkpt>
      <trkpt lat="37.05538" lon="-3.36619">
        <ele>3328.8</ele>
        <time>2021-08-05 18:53:55</time>
      </trkpt>
      <trkpt lat="37.05538" lon="-3.36619">
        <ele>3328.8</ele>
        <time>2021-08-05 18:53:56</time>
      </trkpt>
      <trkpt lat="37.05538" lon="-3.36619">
        <ele>3328.8</ele>
        <time>2021-08-05 18:53:57</time>
      </trkpt>
      <trkpt lat="37.05537" lon="-3.36619">
        <ele>3328.8</ele>
        <time>2021-08-05 18:53:58</time>
      </trkpt>
      <trkpt lat="37.05537" lon="-3.36618">
        <ele>3329</ele>
        <time>2021-08-05 18:53:59</time>
      </trkpt>
      <trkpt lat="37.05537" lon="-3.36619">
        <ele>3329</ele>
        <time>2021-08-05 18:54:00</time>
      </trkpt>
      <trkpt lat="37.05536" lon="-3.36619">
        <ele>3329</ele>
        <time>2021-08-05 18:54:01</time>
      </trkpt>
      <trkpt lat="37.05536" lon="-3.36619">
        <ele>3329</ele>
        <time>2021-08-05 18:54:02</time>
      </trkpt>
      <trkpt lat="37.05536" lon="-3.3662">
        <ele>3329</ele>
        <time>2021-08-05 18:54:03</time>
      </trkpt>
      <trkpt lat="37.05535" lon="-3.3662">
        <ele>3329.2</ele>
        <time>2021-08-05 18:54:04</time>
      </trkpt>
      <trkpt lat="37.05535" lon="-3.36619">
        <ele>3329</ele>
        <time>2021-08-05 18:54:05</time>
      </trkpt>
      <trkpt lat="37.05534" lon="-3.36619">
        <ele>3329</ele>
        <time>2021-08-05 18:54:06</time>
      </trkpt>
      <trkpt lat="37.05534" lon="-3.36619">
        <ele>3328.8</ele>
        <time>2021-08-05 18:54:07</time>
      </trkpt>
      <trkpt lat="37.05533" lon="-3.36619">
        <ele>3328.8</ele>
        <time>2021-08-05 18:54:08</time>
      </trkpt>
      <trkpt lat="37.05532" lon="-3.36619">
        <ele>3328.6</ele>
        <time>2021-08-05 18:54:09</time>
      </trkpt>
      <trkpt lat="37.05532" lon="-3.36619">
        <ele>3328.6</ele>
        <time>2021-08-05 18:54:10</time>
      </trkpt>
      <trkpt lat="37.05532" lon="-3.3662">
        <ele>3328.4</ele>
        <time>2021-08-05 18:54:11</time>
      </trkpt>
      <trkpt lat="37.05532" lon="-3.3662">
        <ele>3328</ele>
        <time>2021-08-05 18:54:12</time>
      </trkpt>
      <trkpt lat="37.05531" lon="-3.36621">
        <ele>3327.8</ele>
        <time>2021-08-05 18:54:13</time>
      </trkpt>
      <trkpt lat="37.05531" lon="-3.36622">
        <ele>3327.6</ele>
        <time>2021-08-05 18:54:14</time>
      </trkpt>
      <trkpt lat="37.05531" lon="-3.36622">
        <ele>3327.6</ele>
        <time>2021-08-05 18:54:15</time>
      </trkpt>
      <trkpt lat="37.0553" lon="-3.36623">
        <ele>3327.4</ele>
        <time>2021-08-05 18:54:16</time>
      </trkpt>
      <trkpt lat="37.0553" lon="-3.36623">
        <ele>3327.4</ele>
        <time>2021-08-05 18:54:17</time>
      </trkpt>
      <trkpt lat="37.05529" lon="-3.36623">
        <ele>3327.4</ele>
        <time>2021-08-05 18:54:18</time>
      </trkpt>
      <trkpt lat="37.05529" lon="-3.36624">
        <ele>3327.4</ele>
        <time>2021-08-05 18:54:19</time>
      </trkpt>
      <trkpt lat="37.05529" lon="-3.36624">
        <ele>3327.4</ele>
        <time>2021-08-05 18:54:20</time>
      </trkpt>
      <trkpt lat="37.05528" lon="-3.36624">
        <ele>3327.2</ele>
        <time>2021-08-05 18:54:21</time>
      </trkpt>
      <trkpt lat="37.05528" lon="-3.36624">
        <ele>3327</ele>
        <time>2021-08-05 18:54:22</time>
      </trkpt>
      <trkpt lat="37.05528" lon="-3.36625">
        <ele>3326.8</ele>
        <time>2021-08-05 18:54:23</time>
      </trkpt>
      <trkpt lat="37.05528" lon="-3.36626">
        <ele>3326.6</ele>
        <time>2021-08-05 18:54:24</time>
      </trkpt>
      <trkpt lat="37.05528" lon="-3.36626">
        <ele>3326.6</ele>
        <time>2021-08-05 18:54:25</time>
      </trkpt>
      <trkpt lat="37.05527" lon="-3.36627">
        <ele>3326.6</ele>
        <time>2021-08-05 18:54:26</time>
      </trkpt>
      <trkpt lat="37.05527" lon="-3.36627">
        <ele>3326.4</ele>
        <time>2021-08-05 18:54:27</time>
      </trkpt>
      <trkpt lat="37.05526" lon="-3.36626">
        <ele>3326.4</ele>
        <time>2021-08-05 18:54:28</time>
      </trkpt>
      <trkpt lat="37.05525" lon="-3.36626">
        <ele>3326.2</ele>
        <time>2021-08-05 18:54:29</time>
      </trkpt>
      <trkpt lat="37.05525" lon="-3.36626">
        <ele>3326</ele>
        <time>2021-08-05 18:54:30</time>
      </trkpt>
      <trkpt lat="37.05524" lon="-3.36626">
        <ele>3326</ele>
        <time>2021-08-05 18:54:31</time>
      </trkpt>
      <trkpt lat="37.05524" lon="-3.36626">
        <ele>3325.8</ele>
        <time>2021-08-05 18:54:32</time>
      </trkpt>
      <trkpt lat="37.05523" lon="-3.36625">
        <ele>3325.8</ele>
        <time>2021-08-05 18:54:33</time>
      </trkpt>
      <trkpt lat="37.05522" lon="-3.36625">
        <ele>3325.6</ele>
        <time>2021-08-05 18:54:34</time>
      </trkpt>
      <trkpt lat="37.05522" lon="-3.36625">
        <ele>3325.6</ele>
        <time>2021-08-05 18:54:35</time>
      </trkpt>
      <trkpt lat="37.05521" lon="-3.36625">
        <ele>3325.6</ele>
        <time>2021-08-05 18:54:36</time>
      </trkpt>
      <trkpt lat="37.0552" lon="-3.36625">
        <ele>3325.6</ele>
        <time>2021-08-05 18:54:37</time>
      </trkpt>
      <trkpt lat="37.0552" lon="-3.36625">
        <ele>3325.4</ele>
        <time>2021-08-05 18:54:38</time>
      </trkpt>
      <trkpt lat="37.0552" lon="-3.36627">
        <ele>3325.4</ele>
        <time>2021-08-05 18:54:39</time>
      </trkpt>
      <trkpt lat="37.05521" lon="-3.36628">
        <ele>3325.4</ele>
        <time>2021-08-05 18:54:40</time>
      </trkpt>
      <trkpt lat="37.05522" lon="-3.3663">
        <ele>3325.2</ele>
        <time>2021-08-05 18:54:41</time>
      </trkpt>
      <trkpt lat="37.05522" lon="-3.3663">
        <ele>3325.2</ele>
        <time>2021-08-05 18:54:42</time>
      </trkpt>
      <trkpt lat="37.05522" lon="-3.36631">
        <ele>3325.2</ele>
        <time>2021-08-05 18:54:43</time>
      </trkpt>
      <trkpt lat="37.05522" lon="-3.36632">
        <ele>3325.4</ele>
        <time>2021-08-05 18:54:44</time>
      </trkpt>
      <trkpt lat="37.05522" lon="-3.36633">
        <ele>3325.4</ele>
        <time>2021-08-05 18:54:45</time>
      </trkpt>
      <trkpt lat="37.05522" lon="-3.36634">
        <ele>3325.4</ele>
        <time>2021-08-05 18:54:46</time>
      </trkpt>
      <trkpt lat="37.05522" lon="-3.36634">
        <ele>3325.2</ele>
        <time>2021-08-05 18:54:47</time>
      </trkpt>
      <trkpt lat="37.05522" lon="-3.36634">
        <ele>3325.4</ele>
        <time>2021-08-05 18:54:48</time>
      </trkpt>
      <trkpt lat="37.05522" lon="-3.36635">
        <ele>3325.2</ele>
        <time>2021-08-05 18:54:49</time>
      </trkpt>
      <trkpt lat="37.05522" lon="-3.36635">
        <ele>3325.2</ele>
        <time>2021-08-05 18:54:50</time>
      </trkpt>
      <trkpt lat="37.05522" lon="-3.36635">
        <ele>3325</ele>
        <time>2021-08-05 18:54:51</time>
      </trkpt>
      <trkpt lat="37.05522" lon="-3.36635">
        <ele>3324.8</ele>
        <time>2021-08-05 18:54:52</time>
      </trkpt>
      <trkpt lat="37.05522" lon="-3.36635">
        <ele>3324.8</ele>
        <time>2021-08-05 18:54:53</time>
      </trkpt>
      <trkpt lat="37.05522" lon="-3.36635">
        <ele>3324.8</ele>
        <time>2021-08-05 18:54:54</time>
      </trkpt>
      <trkpt lat="37.05521" lon="-3.36635">
        <ele>3324.6</ele>
        <time>2021-08-05 18:54:55</time>
      </trkpt>
      <trkpt lat="37.05522" lon="-3.36636">
        <ele>3324.6</ele>
        <time>2021-08-05 18:54:56</time>
      </trkpt>
      <trkpt lat="37.05522" lon="-3.36636">
        <ele>3324.4</ele>
        <time>2021-08-05 18:54:57</time>
      </trkpt>
      <trkpt lat="37.05522" lon="-3.36636">
        <ele>3324.4</ele>
        <time>2021-08-05 18:54:58</time>
      </trkpt>
      <trkpt lat="37.05522" lon="-3.36637">
        <ele>3324.2</ele>
        <time>2021-08-05 18:54:59</time>
      </trkpt>
      <trkpt lat="37.05522" lon="-3.36637">
        <ele>3324</ele>
        <time>2021-08-05 18:55:00</time>
      </trkpt>
      <trkpt lat="37.05521" lon="-3.36638">
        <ele>3323.8</ele>
        <time>2021-08-05 18:55:01</time>
      </trkpt>
      <trkpt lat="37.05521" lon="-3.36638">
        <ele>3323.8</ele>
        <time>2021-08-05 18:55:02</time>
      </trkpt>
      <trkpt lat="37.05521" lon="-3.3664">
        <ele>3323.6</ele>
        <time>2021-08-05 18:55:03</time>
      </trkpt>
      <trkpt lat="37.05521" lon="-3.36641">
        <ele>3323.6</ele>
        <time>2021-08-05 18:55:04</time>
      </trkpt>
      <trkpt lat="37.05521" lon="-3.36642">
        <ele>3323.6</ele>
        <time>2021-08-05 18:55:05</time>
      </trkpt>
      <trkpt lat="37.05521" lon="-3.36643">
        <ele>3323.4</ele>
        <time>2021-08-05 18:55:06</time>
      </trkpt>
      <trkpt lat="37.05521" lon="-3.36644">
        <ele>3323.2</ele>
        <time>2021-08-05 18:55:07</time>
      </trkpt>
      <trkpt lat="37.05521" lon="-3.36645">
        <ele>3323.2</ele>
        <time>2021-08-05 18:55:08</time>
      </trkpt>
      <trkpt lat="37.05522" lon="-3.36646">
        <ele>3323</ele>
        <time>2021-08-05 18:55:09</time>
      </trkpt>
      <trkpt lat="37.05522" lon="-3.36647">
        <ele>3323</ele>
        <time>2021-08-05 18:55:10</time>
      </trkpt>
      <trkpt lat="37.05523" lon="-3.36647">
        <ele>3322.8</ele>
        <time>2021-08-05 18:55:11</time>
      </trkpt>
      <trkpt lat="37.05524" lon="-3.36648">
        <ele>3322.6</ele>
        <time>2021-08-05 18:55:12</time>
      </trkpt>
      <trkpt lat="37.05524" lon="-3.36649">
        <ele>3322.4</ele>
        <time>2021-08-05 18:55:13</time>
      </trkpt>
      <trkpt lat="37.05524" lon="-3.36649">
        <ele>3322.4</ele>
        <time>2021-08-05 18:55:14</time>
      </trkpt>
      <trkpt lat="37.05525" lon="-3.3665">
        <ele>3322.4</ele>
        <time>2021-08-05 18:55:15</time>
      </trkpt>
      <trkpt lat="37.05524" lon="-3.3665">
        <ele>3322.2</ele>
        <time>2021-08-05 18:55:16</time>
      </trkpt>
      <trkpt lat="37.05524" lon="-3.3665">
        <ele>3322</ele>
        <time>2021-08-05 18:55:17</time>
      </trkpt>
      <trkpt lat="37.05524" lon="-3.3665">
        <ele>3322.2</ele>
        <time>2021-08-05 18:55:18</time>
      </trkpt>
      <trkpt lat="37.05524" lon="-3.3665">
        <ele>3322.2</ele>
        <time>2021-08-05 18:55:19</time>
      </trkpt>
      <trkpt lat="37.05524" lon="-3.3665">
        <ele>3322.2</ele>
        <time>2021-08-05 18:55:20</time>
      </trkpt>
      <trkpt lat="37.05524" lon="-3.36651">
        <ele>3322.2</ele>
        <time>2021-08-05 18:55:21</time>
      </trkpt>
      <trkpt lat="37.05524" lon="-3.36651">
        <ele>3322.2</ele>
        <time>2021-08-05 18:55:22</time>
      </trkpt>
      <trkpt lat="37.05524" lon="-3.3665">
        <ele>3322.2</ele>
        <time>2021-08-05 18:55:23</time>
      </trkpt>
      <trkpt lat="37.05523" lon="-3.3665">
        <ele>3322.2</ele>
        <time>2021-08-05 18:55:24</time>
      </trkpt>
      <trkpt lat="37.05523" lon="-3.3665">
        <ele>3322.2</ele>
        <time>2021-08-05 18:55:25</time>
      </trkpt>
      <trkpt lat="37.05523" lon="-3.3665">
        <ele>3322.2</ele>
        <time>2021-08-05 18:55:26</time>
      </trkpt>
      <trkpt lat="37.05524" lon="-3.36651">
        <ele>3322.2</ele>
        <time>2021-08-05 18:55:27</time>
      </trkpt>
      <trkpt lat="37.05524" lon="-3.36651">
        <ele>3322.2</ele>
        <time>2021-08-05 18:55:28</time>
      </trkpt>
      <trkpt lat="37.05524" lon="-3.36651">
        <ele>3322.2</ele>
        <time>2021-08-05 18:55:29</time>
      </trkpt>
      <trkpt lat="37.05525" lon="-3.36652">
        <ele>3322</ele>
        <time>2021-08-05 18:55:30</time>
      </trkpt>
      <trkpt lat="37.05525" lon="-3.36653">
        <ele>3321.8</ele>
        <time>2021-08-05 18:55:31</time>
      </trkpt>
      <trkpt lat="37.05525" lon="-3.36654">
        <ele>3321.6</ele>
        <time>2021-08-05 18:55:32</time>
      </trkpt>
      <trkpt lat="37.05525" lon="-3.36655">
        <ele>3321.4</ele>
        <time>2021-08-05 18:55:33</time>
      </trkpt>
      <trkpt lat="37.05525" lon="-3.36655">
        <ele>3321.4</ele>
        <time>2021-08-05 18:55:34</time>
      </trkpt>
      <trkpt lat="37.05525" lon="-3.36655">
        <ele>3321</ele>
        <time>2021-08-05 18:55:35</time>
      </trkpt>
      <trkpt lat="37.05524" lon="-3.36655">
        <ele>3320.6</ele>
        <time>2021-08-05 18:55:36</time>
      </trkpt>
      <trkpt lat="37.05524" lon="-3.36656">
        <ele>3320.4</ele>
        <time>2021-08-05 18:55:37</time>
      </trkpt>
      <trkpt lat="37.05523" lon="-3.36657">
        <ele>3319.8</ele>
        <time>2021-08-05 18:55:38</time>
      </trkpt>
      <trkpt lat="37.05523" lon="-3.36658">
        <ele>3319.6</ele>
        <time>2021-08-05 18:55:39</time>
      </trkpt>
      <trkpt lat="37.05523" lon="-3.36659">
        <ele>3319.2</ele>
        <time>2021-08-05 18:55:40</time>
      </trkpt>
      <trkpt lat="37.05523" lon="-3.36659">
        <ele>3319</ele>
        <time>2021-08-05 18:55:41</time>
      </trkpt>
      <trkpt lat="37.05522" lon="-3.36659">
        <ele>3318.8</ele>
        <time>2021-08-05 18:55:42</time>
      </trkpt>
      <trkpt lat="37.05521" lon="-3.3666">
        <ele>3318.6</ele>
        <time>2021-08-05 18:55:43</time>
      </trkpt>
      <trkpt lat="37.05521" lon="-3.3666">
        <ele>3318.4</ele>
        <time>2021-08-05 18:55:44</time>
      </trkpt>
      <trkpt lat="37.0552" lon="-3.3666">
        <ele>3318.2</ele>
        <time>2021-08-05 18:55:45</time>
      </trkpt>
      <trkpt lat="37.0552" lon="-3.36661">
        <ele>3318.2</ele>
        <time>2021-08-05 18:55:46</time>
      </trkpt>
      <trkpt lat="37.05519" lon="-3.36661">
        <ele>3318.2</ele>
        <time>2021-08-05 18:55:47</time>
      </trkpt>
      <trkpt lat="37.05519" lon="-3.36661">
        <ele>3318.2</ele>
        <time>2021-08-05 18:55:48</time>
      </trkpt>
      <trkpt lat="37.05519" lon="-3.36662">
        <ele>3318</ele>
        <time>2021-08-05 18:55:49</time>
      </trkpt>
      <trkpt lat="37.05518" lon="-3.36662">
        <ele>3317.8</ele>
        <time>2021-08-05 18:55:50</time>
      </trkpt>
      <trkpt lat="37.05518" lon="-3.36663">
        <ele>3317.2</ele>
        <time>2021-08-05 18:55:51</time>
      </trkpt>
      <trkpt lat="37.05517" lon="-3.36662">
        <ele>3317</ele>
        <time>2021-08-05 18:55:52</time>
      </trkpt>
      <trkpt lat="37.05516" lon="-3.36663">
        <ele>3316.8</ele>
        <time>2021-08-05 18:55:53</time>
      </trkpt>
      <trkpt lat="37.05515" lon="-3.36663">
        <ele>3316.6</ele>
        <time>2021-08-05 18:55:54</time>
      </trkpt>
      <trkpt lat="37.05515" lon="-3.36664">
        <ele>3316.4</ele>
        <time>2021-08-05 18:55:55</time>
      </trkpt>
      <trkpt lat="37.05515" lon="-3.36664">
        <ele>3316.2</ele>
        <time>2021-08-05 18:55:56</time>
      </trkpt>
      <trkpt lat="37.05515" lon="-3.36665">
        <ele>3316.2</ele>
        <time>2021-08-05 18:55:57</time>
      </trkpt>
      <trkpt lat="37.05515" lon="-3.36666">
        <ele>3316.2</ele>
        <time>2021-08-05 18:55:58</time>
      </trkpt>
      <trkpt lat="37.05515" lon="-3.36667">
        <ele>3316.2</ele>
        <time>2021-08-05 18:55:59</time>
      </trkpt>
      <trkpt lat="37.05514" lon="-3.36668">
        <ele>3316.2</ele>
        <time>2021-08-05 18:56:00</time>
      </trkpt>
      <trkpt lat="37.05514" lon="-3.36668">
        <ele>3316.2</ele>
        <time>2021-08-05 18:56:01</time>
      </trkpt>
      <trkpt lat="37.05514" lon="-3.36668">
        <ele>3315.8</ele>
        <time>2021-08-05 18:56:02</time>
      </trkpt>
      <trkpt lat="37.05514" lon="-3.36668">
        <ele>3315.4</ele>
        <time>2021-08-05 18:56:03</time>
      </trkpt>
      <trkpt lat="37.05514" lon="-3.36668">
        <ele>3315.2</ele>
        <time>2021-08-05 18:56:04</time>
      </trkpt>
      <trkpt lat="37.05513" lon="-3.36669">
        <ele>3315.2</ele>
        <time>2021-08-05 18:56:05</time>
      </trkpt>
      <trkpt lat="37.05513" lon="-3.3667">
        <ele>3315</ele>
        <time>2021-08-05 18:56:06</time>
      </trkpt>
      <trkpt lat="37.05513" lon="-3.36671">
        <ele>3315</ele>
        <time>2021-08-05 18:56:07</time>
      </trkpt>
      <trkpt lat="37.05513" lon="-3.36671">
        <ele>3314.8</ele>
        <time>2021-08-05 18:56:08</time>
      </trkpt>
      <trkpt lat="37.05513" lon="-3.36672">
        <ele>3314.8</ele>
        <time>2021-08-05 18:56:09</time>
      </trkpt>
      <trkpt lat="37.05512" lon="-3.36673">
        <ele>3314.6</ele>
        <time>2021-08-05 18:56:10</time>
      </trkpt>
      <trkpt lat="37.05512" lon="-3.36673">
        <ele>3314.6</ele>
        <time>2021-08-05 18:56:11</time>
      </trkpt>
      <trkpt lat="37.05512" lon="-3.36674">
        <ele>3314.2</ele>
        <time>2021-08-05 18:56:12</time>
      </trkpt>
      <trkpt lat="37.05513" lon="-3.36674">
        <ele>3314</ele>
        <time>2021-08-05 18:56:13</time>
      </trkpt>
      <trkpt lat="37.05513" lon="-3.36675">
        <ele>3314</ele>
        <time>2021-08-05 18:56:14</time>
      </trkpt>
      <trkpt lat="37.05512" lon="-3.36676">
        <ele>3314</ele>
        <time>2021-08-05 18:56:15</time>
      </trkpt>
      <trkpt lat="37.05512" lon="-3.36677">
        <ele>3313.8</ele>
        <time>2021-08-05 18:56:16</time>
      </trkpt>
      <trkpt lat="37.05511" lon="-3.36678">
        <ele>3313.8</ele>
        <time>2021-08-05 18:56:17</time>
      </trkpt>
      <trkpt lat="37.0551" lon="-3.36678">
        <ele>3313.4</ele>
        <time>2021-08-05 18:56:18</time>
      </trkpt>
      <trkpt lat="37.05509" lon="-3.36677">
        <ele>3313.2</ele>
        <time>2021-08-05 18:56:19</time>
      </trkpt>
      <trkpt lat="37.05508" lon="-3.36677">
        <ele>3312.8</ele>
        <time>2021-08-05 18:56:20</time>
      </trkpt>
      <trkpt lat="37.05508" lon="-3.36678">
        <ele>3312.6</ele>
        <time>2021-08-05 18:56:21</time>
      </trkpt>
      <trkpt lat="37.05507" lon="-3.36678">
        <ele>3312.4</ele>
        <time>2021-08-05 18:56:22</time>
      </trkpt>
      <trkpt lat="37.05507" lon="-3.36679">
        <ele>3312.2</ele>
        <time>2021-08-05 18:56:23</time>
      </trkpt>
      <trkpt lat="37.05507" lon="-3.36679">
        <ele>3312</ele>
        <time>2021-08-05 18:56:24</time>
      </trkpt>
      <trkpt lat="37.05508" lon="-3.36679">
        <ele>3312</ele>
        <time>2021-08-05 18:56:25</time>
      </trkpt>
      <trkpt lat="37.05509" lon="-3.3668">
        <ele>3312</ele>
        <time>2021-08-05 18:56:26</time>
      </trkpt>
      <trkpt lat="37.05509" lon="-3.3668">
        <ele>3311.8</ele>
        <time>2021-08-05 18:56:27</time>
      </trkpt>
      <trkpt lat="37.0551" lon="-3.36681">
        <ele>3311.2</ele>
        <time>2021-08-05 18:56:28</time>
      </trkpt>
      <trkpt lat="37.05511" lon="-3.36681">
        <ele>3310.8</ele>
        <time>2021-08-05 18:56:29</time>
      </trkpt>
      <trkpt lat="37.05511" lon="-3.36682">
        <ele>3310.6</ele>
        <time>2021-08-05 18:56:30</time>
      </trkpt>
      <trkpt lat="37.05512" lon="-3.36682">
        <ele>3310.4</ele>
        <time>2021-08-05 18:56:31</time>
      </trkpt>
      <trkpt lat="37.05512" lon="-3.36685">
        <ele>3310.2</ele>
        <time>2021-08-05 18:56:32</time>
      </trkpt>
      <trkpt lat="37.05512" lon="-3.36686">
        <ele>3310.2</ele>
        <time>2021-08-05 18:56:33</time>
      </trkpt>
      <trkpt lat="37.05512" lon="-3.36687">
        <ele>3310.4</ele>
        <time>2021-08-05 18:56:34</time>
      </trkpt>
      <trkpt lat="37.05512" lon="-3.36687">
        <ele>3310.4</ele>
        <time>2021-08-05 18:56:35</time>
      </trkpt>
      <trkpt lat="37.05512" lon="-3.36686">
        <ele>3310.2</ele>
        <time>2021-08-05 18:56:36</time>
      </trkpt>
      <trkpt lat="37.05512" lon="-3.36686">
        <ele>3310</ele>
        <time>2021-08-05 18:56:37</time>
      </trkpt>
      <trkpt lat="37.05512" lon="-3.36686">
        <ele>3309.8</ele>
        <time>2021-08-05 18:56:38</time>
      </trkpt>
      <trkpt lat="37.05512" lon="-3.36686">
        <ele>3309.6</ele>
        <time>2021-08-05 18:56:39</time>
      </trkpt>
      <trkpt lat="37.05511" lon="-3.3669">
        <ele>3309.6</ele>
        <time>2021-08-05 18:56:40</time>
      </trkpt>
      <trkpt lat="37.05511" lon="-3.36691">
        <ele>3309.4</ele>
        <time>2021-08-05 18:56:41</time>
      </trkpt>
      <trkpt lat="37.05511" lon="-3.36691">
        <ele>3309.2</ele>
        <time>2021-08-05 18:56:42</time>
      </trkpt>
      <trkpt lat="37.05512" lon="-3.36691">
        <ele>3309.2</ele>
        <time>2021-08-05 18:56:43</time>
      </trkpt>
      <trkpt lat="37.05512" lon="-3.36691">
        <ele>3309.2</ele>
        <time>2021-08-05 18:56:44</time>
      </trkpt>
      <trkpt lat="37.05513" lon="-3.36691">
        <ele>3309.2</ele>
        <time>2021-08-05 18:56:45</time>
      </trkpt>
      <trkpt lat="37.05513" lon="-3.3669">
        <ele>3309</ele>
        <time>2021-08-05 18:56:46</time>
      </trkpt>
      <trkpt lat="37.05513" lon="-3.36689">
        <ele>3309</ele>
        <time>2021-08-05 18:56:47</time>
      </trkpt>
      <trkpt lat="37.05513" lon="-3.36688">
        <ele>3309</ele>
        <time>2021-08-05 18:56:48</time>
      </trkpt>
      <trkpt lat="37.05513" lon="-3.36688">
        <ele>3308.8</ele>
        <time>2021-08-05 18:56:49</time>
      </trkpt>
      <trkpt lat="37.05513" lon="-3.36688">
        <ele>3308.6</ele>
        <time>2021-08-05 18:56:50</time>
      </trkpt>
      <trkpt lat="37.05513" lon="-3.36688">
        <ele>3308.6</ele>
        <time>2021-08-05 18:56:51</time>
      </trkpt>
      <trkpt lat="37.05513" lon="-3.36688">
        <ele>3308.4</ele>
        <time>2021-08-05 18:56:52</time>
      </trkpt>
      <trkpt lat="37.05513" lon="-3.36687">
        <ele>3308</ele>
        <time>2021-08-05 18:56:53</time>
      </trkpt>
      <trkpt lat="37.05513" lon="-3.36687">
        <ele>3308</ele>
        <time>2021-08-05 18:56:54</time>
      </trkpt>
      <trkpt lat="37.05512" lon="-3.36687">
        <ele>3307.8</ele>
        <time>2021-08-05 18:56:55</time>
      </trkpt>
      <trkpt lat="37.05512" lon="-3.36687">
        <ele>3307.6</ele>
        <time>2021-08-05 18:56:56</time>
      </trkpt>
      <trkpt lat="37.05512" lon="-3.36687">
        <ele>3307.6</ele>
        <time>2021-08-05 18:56:57</time>
      </trkpt>
      <trkpt lat="37.05512" lon="-3.36686">
        <ele>3307.6</ele>
        <time>2021-08-05 18:56:58</time>
      </trkpt>
      <trkpt lat="37.05511" lon="-3.36685">
        <ele>3307.4</ele>
        <time>2021-08-05 18:56:59</time>
      </trkpt>
      <trkpt lat="37.05511" lon="-3.36684">
        <ele>3307.2</ele>
        <time>2021-08-05 18:57:00</time>
      </trkpt>
      <trkpt lat="37.05511" lon="-3.36684">
        <ele>3307.2</ele>
        <time>2021-08-05 18:57:01</time>
      </trkpt>
      <trkpt lat="37.05511" lon="-3.36683">
        <ele>3307</ele>
        <time>2021-08-05 18:57:02</time>
      </trkpt>
      <trkpt lat="37.05512" lon="-3.36682">
        <ele>3306.8</ele>
        <time>2021-08-05 18:57:03</time>
      </trkpt>
      <trkpt lat="37.05511" lon="-3.36682">
        <ele>3307</ele>
        <time>2021-08-05 18:57:04</time>
      </trkpt>
      <trkpt lat="37.05511" lon="-3.36681">
        <ele>3307</ele>
        <time>2021-08-05 18:57:05</time>
      </trkpt>
      <trkpt lat="37.05511" lon="-3.36681">
        <ele>3307</ele>
        <time>2021-08-05 18:57:06</time>
      </trkpt>
      <trkpt lat="37.05511" lon="-3.3668">
        <ele>3307.2</ele>
        <time>2021-08-05 18:57:07</time>
      </trkpt>
      <trkpt lat="37.05511" lon="-3.3668">
        <ele>3307.2</ele>
        <time>2021-08-05 18:57:08</time>
      </trkpt>
      <trkpt lat="37.05511" lon="-3.3668">
        <ele>3307.2</ele>
        <time>2021-08-05 18:57:09</time>
      </trkpt>
      <trkpt lat="37.0551" lon="-3.3668">
        <ele>3307.2</ele>
        <time>2021-08-05 18:57:10</time>
      </trkpt>
      <trkpt lat="37.0551" lon="-3.3668">
        <ele>3307</ele>
        <time>2021-08-05 18:57:11</time>
      </trkpt>
      <trkpt lat="37.0551" lon="-3.3668">
        <ele>3307</ele>
        <time>2021-08-05 18:57:12</time>
      </trkpt>
      <trkpt lat="37.05509" lon="-3.3668">
        <ele>3307</ele>
        <time>2021-08-05 18:57:13</time>
      </trkpt>
      <trkpt lat="37.05509" lon="-3.3668">
        <ele>3307</ele>
        <time>2021-08-05 18:57:14</time>
      </trkpt>
      <trkpt lat="37.05509" lon="-3.3668">
        <ele>3307</ele>
        <time>2021-08-05 18:57:15</time>
      </trkpt>
      <trkpt lat="37.05509" lon="-3.3668">
        <ele>3306.8</ele>
        <time>2021-08-05 18:57:16</time>
      </trkpt>
      <trkpt lat="37.05508" lon="-3.3668">
        <ele>3306.8</ele>
        <time>2021-08-05 18:57:17</time>
      </trkpt>
      <trkpt lat="37.05508" lon="-3.3668">
        <ele>3307</ele>
        <time>2021-08-05 18:57:18</time>
      </trkpt>
      <trkpt lat="37.05508" lon="-3.36681">
        <ele>3306.8</ele>
        <time>2021-08-05 18:57:19</time>
      </trkpt>
      <trkpt lat="37.05508" lon="-3.36681">
        <ele>3306.8</ele>
        <time>2021-08-05 18:57:20</time>
      </trkpt>
      <trkpt lat="37.05508" lon="-3.36682">
        <ele>3306.8</ele>
        <time>2021-08-05 18:57:21</time>
      </trkpt>
      <trkpt lat="37.05507" lon="-3.36681">
        <ele>3306.8</ele>
        <time>2021-08-05 18:57:22</time>
      </trkpt>
      <trkpt lat="37.05508" lon="-3.36681">
        <ele>3306.8</ele>
        <time>2021-08-05 18:57:23</time>
      </trkpt>
      <trkpt lat="37.05508" lon="-3.36681">
        <ele>3307</ele>
        <time>2021-08-05 18:57:24</time>
      </trkpt>
      <trkpt lat="37.05508" lon="-3.36682">
        <ele>3307</ele>
        <time>2021-08-05 18:57:25</time>
      </trkpt>
      <trkpt lat="37.05508" lon="-3.36683">
        <ele>3307.2</ele>
        <time>2021-08-05 18:57:26</time>
      </trkpt>
      <trkpt lat="37.05507" lon="-3.36683">
        <ele>3307.4</ele>
        <time>2021-08-05 18:57:27</time>
      </trkpt>
      <trkpt lat="37.05507" lon="-3.36683">
        <ele>3307.4</ele>
        <time>2021-08-05 18:57:28</time>
      </trkpt>
      <trkpt lat="37.05507" lon="-3.36683">
        <ele>3307.4</ele>
        <time>2021-08-05 18:57:29</time>
      </trkpt>
      <trkpt lat="37.05507" lon="-3.36683">
        <ele>3307.4</ele>
        <time>2021-08-05 18:57:30</time>
      </trkpt>
      <trkpt lat="37.05507" lon="-3.36684">
        <ele>3307.4</ele>
        <time>2021-08-05 18:57:31</time>
      </trkpt>
      <trkpt lat="37.05506" lon="-3.36684">
        <ele>3307.4</ele>
        <time>2021-08-05 18:57:32</time>
      </trkpt>
      <trkpt lat="37.05506" lon="-3.36684">
        <ele>3307.4</ele>
        <time>2021-08-05 18:57:33</time>
      </trkpt>
      <trkpt lat="37.05506" lon="-3.36683">
        <ele>3307.4</ele>
        <time>2021-08-05 18:57:34</time>
      </trkpt>
      <trkpt lat="37.05505" lon="-3.36684">
        <ele>3307.2</ele>
        <time>2021-08-05 18:57:35</time>
      </trkpt>
      <trkpt lat="37.05506" lon="-3.36684">
        <ele>3307.2</ele>
        <time>2021-08-05 18:57:36</time>
      </trkpt>
      <trkpt lat="37.05506" lon="-3.36684">
        <ele>3307.2</ele>
        <time>2021-08-05 18:57:37</time>
      </trkpt>
      <trkpt lat="37.05506" lon="-3.36685">
        <ele>3307.4</ele>
        <time>2021-08-05 18:57:38</time>
      </trkpt>
      <trkpt lat="37.05507" lon="-3.36686">
        <ele>3307.6</ele>
        <time>2021-08-05 18:57:39</time>
      </trkpt>
      <trkpt lat="37.05507" lon="-3.36686">
        <ele>3307.6</ele>
        <time>2021-08-05 18:57:40</time>
      </trkpt>
      <trkpt lat="37.05507" lon="-3.36686">
        <ele>3307.6</ele>
        <time>2021-08-05 18:57:41</time>
      </trkpt>
      <trkpt lat="37.05508" lon="-3.36686">
        <ele>3307.6</ele>
        <time>2021-08-05 18:57:42</time>
      </trkpt>
      <trkpt lat="37.05508" lon="-3.36684">
        <ele>3307.6</ele>
        <time>2021-08-05 18:57:43</time>
      </trkpt>
      <trkpt lat="37.05508" lon="-3.36685">
        <ele>3307.6</ele>
        <time>2021-08-05 18:57:44</time>
      </trkpt>
      <trkpt lat="37.05508" lon="-3.36685">
        <ele>3307.6</ele>
        <time>2021-08-05 18:57:45</time>
      </trkpt>
      <trkpt lat="37.05508" lon="-3.36685">
        <ele>3307.6</ele>
        <time>2021-08-05 18:57:46</time>
      </trkpt>
      <trkpt lat="37.05511" lon="-3.36683">
        <ele>3307.6</ele>
        <time>2021-08-05 18:57:47</time>
      </trkpt>
      <trkpt lat="37.05511" lon="-3.36683">
        <ele>3307.8</ele>
        <time>2021-08-05 18:57:48</time>
      </trkpt>
      <trkpt lat="37.05511" lon="-3.36683">
        <ele>3307.8</ele>
        <time>2021-08-05 18:57:49</time>
      </trkpt>
      <trkpt lat="37.0551" lon="-3.36684">
        <ele>3308</ele>
        <time>2021-08-05 18:57:50</time>
      </trkpt>
      <trkpt lat="37.05509" lon="-3.36685">
        <ele>3308.2</ele>
        <time>2021-08-05 18:57:51</time>
      </trkpt>
      <trkpt lat="37.05508" lon="-3.36686">
        <ele>3308.2</ele>
        <time>2021-08-05 18:57:52</time>
      </trkpt>
      <trkpt lat="37.05507" lon="-3.36686">
        <ele>3308.2</ele>
        <time>2021-08-05 18:57:53</time>
      </trkpt>
      <trkpt lat="37.05507" lon="-3.36687">
        <ele>3308</ele>
        <time>2021-08-05 18:57:54</time>
      </trkpt>
      <trkpt lat="37.05506" lon="-3.36686">
        <ele>3308</ele>
        <time>2021-08-05 18:57:55</time>
      </trkpt>
      <trkpt lat="37.05506" lon="-3.36687">
        <ele>3308</ele>
        <time>2021-08-05 18:57:56</time>
      </trkpt>
      <trkpt lat="37.05505" lon="-3.36687">
        <ele>3307.8</ele>
        <time>2021-08-05 18:57:57</time>
      </trkpt>
      <trkpt lat="37.05505" lon="-3.36688">
        <ele>3307.8</ele>
        <time>2021-08-05 18:57:58</time>
      </trkpt>
      <trkpt lat="37.05504" lon="-3.36689">
        <ele>3307.6</ele>
        <time>2021-08-05 18:57:59</time>
      </trkpt>
      <trkpt lat="37.05504" lon="-3.36689">
        <ele>3307.4</ele>
        <time>2021-08-05 18:58:00</time>
      </trkpt>
      <trkpt lat="37.05504" lon="-3.3669">
        <ele>3307.2</ele>
        <time>2021-08-05 18:58:01</time>
      </trkpt>
      <trkpt lat="37.05503" lon="-3.36691">
        <ele>3307</ele>
        <time>2021-08-05 18:58:02</time>
      </trkpt>
      <trkpt lat="37.05503" lon="-3.36691">
        <ele>3306.8</ele>
        <time>2021-08-05 18:58:03</time>
      </trkpt>
      <trkpt lat="37.05502" lon="-3.36691">
        <ele>3306.6</ele>
        <time>2021-08-05 18:58:04</time>
      </trkpt>
      <trkpt lat="37.05502" lon="-3.36692">
        <ele>3306.4</ele>
        <time>2021-08-05 18:58:05</time>
      </trkpt>
      <trkpt lat="37.05501" lon="-3.36692">
        <ele>3306.2</ele>
        <time>2021-08-05 18:58:06</time>
      </trkpt>
      <trkpt lat="37.055" lon="-3.36693">
        <ele>3306</ele>
        <time>2021-08-05 18:58:07</time>
      </trkpt>
      <trkpt lat="37.055" lon="-3.36694">
        <ele>3305.6</ele>
        <time>2021-08-05 18:58:08</time>
      </trkpt>
      <trkpt lat="37.05499" lon="-3.36695">
        <ele>3305.4</ele>
        <time>2021-08-05 18:58:09</time>
      </trkpt>
      <trkpt lat="37.05499" lon="-3.36695">
        <ele>3305.2</ele>
        <time>2021-08-05 18:58:10</time>
      </trkpt>
      <trkpt lat="37.05498" lon="-3.36696">
        <ele>3305.2</ele>
        <time>2021-08-05 18:58:11</time>
      </trkpt>
      <trkpt lat="37.05498" lon="-3.36696">
        <ele>3305</ele>
        <time>2021-08-05 18:58:12</time>
      </trkpt>
      <trkpt lat="37.05497" lon="-3.36696">
        <ele>3304.4</ele>
        <time>2021-08-05 18:58:13</time>
      </trkpt>
      <trkpt lat="37.05497" lon="-3.36695">
        <ele>3304</ele>
        <time>2021-08-05 18:58:14</time>
      </trkpt>
      <trkpt lat="37.05496" lon="-3.36696">
        <ele>3303.8</ele>
        <time>2021-08-05 18:58:15</time>
      </trkpt>
      <trkpt lat="37.05496" lon="-3.36696">
        <ele>3303.6</ele>
        <time>2021-08-05 18:58:16</time>
      </trkpt>
      <trkpt lat="37.05496" lon="-3.36697">
        <ele>3303.4</ele>
        <time>2021-08-05 18:58:17</time>
      </trkpt>
      <trkpt lat="37.05495" lon="-3.36698">
        <ele>3303.4</ele>
        <time>2021-08-05 18:58:18</time>
      </trkpt>
      <trkpt lat="37.05493" lon="-3.36699">
        <ele>3303</ele>
        <time>2021-08-05 18:58:19</time>
      </trkpt>
      <trkpt lat="37.05493" lon="-3.367">
        <ele>3302.6</ele>
        <time>2021-08-05 18:58:20</time>
      </trkpt>
      <trkpt lat="37.05492" lon="-3.36701">
        <ele>3302.4</ele>
        <time>2021-08-05 18:58:21</time>
      </trkpt>
      <trkpt lat="37.05492" lon="-3.36702">
        <ele>3302.2</ele>
        <time>2021-08-05 18:58:22</time>
      </trkpt>
      <trkpt lat="37.05493" lon="-3.36702">
        <ele>3302.2</ele>
        <time>2021-08-05 18:58:23</time>
      </trkpt>
      <trkpt lat="37.05492" lon="-3.36702">
        <ele>3302.2</ele>
        <time>2021-08-05 18:58:24</time>
      </trkpt>
      <trkpt lat="37.05492" lon="-3.36702">
        <ele>3302</ele>
        <time>2021-08-05 18:58:25</time>
      </trkpt>
      <trkpt lat="37.05492" lon="-3.36703">
        <ele>3302</ele>
        <time>2021-08-05 18:58:26</time>
      </trkpt>
      <trkpt lat="37.05492" lon="-3.36703">
        <ele>3302</ele>
        <time>2021-08-05 18:58:27</time>
      </trkpt>
      <trkpt lat="37.05491" lon="-3.36702">
        <ele>3302</ele>
        <time>2021-08-05 18:58:28</time>
      </trkpt>
      <trkpt lat="37.0549" lon="-3.36701">
        <ele>3302</ele>
        <time>2021-08-05 18:58:29</time>
      </trkpt>
      <trkpt lat="37.0549" lon="-3.36701">
        <ele>3301.8</ele>
        <time>2021-08-05 18:58:30</time>
      </trkpt>
      <trkpt lat="37.0549" lon="-3.36702">
        <ele>3301.8</ele>
        <time>2021-08-05 18:58:31</time>
      </trkpt>
      <trkpt lat="37.05489" lon="-3.36703">
        <ele>3301.6</ele>
        <time>2021-08-05 18:58:32</time>
      </trkpt>
      <trkpt lat="37.0549" lon="-3.36704">
        <ele>3301.4</ele>
        <time>2021-08-05 18:58:33</time>
      </trkpt>
      <trkpt lat="37.0549" lon="-3.36704">
        <ele>3301.2</ele>
        <time>2021-08-05 18:58:34</time>
      </trkpt>
      <trkpt lat="37.05491" lon="-3.36704">
        <ele>3301.2</ele>
        <time>2021-08-05 18:58:35</time>
      </trkpt>
      <trkpt lat="37.05492" lon="-3.36703">
        <ele>3301.2</ele>
        <time>2021-08-05 18:58:36</time>
      </trkpt>
      <trkpt lat="37.05492" lon="-3.36703">
        <ele>3301.2</ele>
        <time>2021-08-05 18:58:37</time>
      </trkpt>
      <trkpt lat="37.05493" lon="-3.36704">
        <ele>3301</ele>
        <time>2021-08-05 18:58:38</time>
      </trkpt>
      <trkpt lat="37.05493" lon="-3.36705">
        <ele>3301</ele>
        <time>2021-08-05 18:58:39</time>
      </trkpt>
      <trkpt lat="37.05493" lon="-3.36706">
        <ele>3301</ele>
        <time>2021-08-05 18:58:40</time>
      </trkpt>
      <trkpt lat="37.05493" lon="-3.36707">
        <ele>3301</ele>
        <time>2021-08-05 18:58:41</time>
      </trkpt>
      <trkpt lat="37.05492" lon="-3.36708">
        <ele>3300.8</ele>
        <time>2021-08-05 18:58:42</time>
      </trkpt>
      <trkpt lat="37.05492" lon="-3.36708">
        <ele>3300.4</ele>
        <time>2021-08-05 18:58:43</time>
      </trkpt>
      <trkpt lat="37.05492" lon="-3.36708">
        <ele>3300.2</ele>
        <time>2021-08-05 18:58:44</time>
      </trkpt>
      <trkpt lat="37.05491" lon="-3.36709">
        <ele>3299.8</ele>
        <time>2021-08-05 18:58:45</time>
      </trkpt>
      <trkpt lat="37.05491" lon="-3.36709">
        <ele>3299.6</ele>
        <time>2021-08-05 18:58:46</time>
      </trkpt>
      <trkpt lat="37.05491" lon="-3.36709">
        <ele>3299.4</ele>
        <time>2021-08-05 18:58:47</time>
      </trkpt>
      <trkpt lat="37.05492" lon="-3.36709">
        <ele>3299</ele>
        <time>2021-08-05 18:58:48</time>
      </trkpt>
      <trkpt lat="37.05491" lon="-3.36709">
        <ele>3298.8</ele>
        <time>2021-08-05 18:58:49</time>
      </trkpt>
      <trkpt lat="37.05491" lon="-3.36709">
        <ele>3298.6</ele>
        <time>2021-08-05 18:58:50</time>
      </trkpt>
      <trkpt lat="37.0549" lon="-3.36709">
        <ele>3298.4</ele>
        <time>2021-08-05 18:58:51</time>
      </trkpt>
      <trkpt lat="37.0549" lon="-3.3671">
        <ele>3297.8</ele>
        <time>2021-08-05 18:58:52</time>
      </trkpt>
      <trkpt lat="37.05489" lon="-3.3671">
        <ele>3297.4</ele>
        <time>2021-08-05 18:58:53</time>
      </trkpt>
      <trkpt lat="37.05489" lon="-3.36711">
        <ele>3297</ele>
        <time>2021-08-05 18:58:54</time>
      </trkpt>
      <trkpt lat="37.05488" lon="-3.36712">
        <ele>3296.8</ele>
        <time>2021-08-05 18:58:55</time>
      </trkpt>
      <trkpt lat="37.05488" lon="-3.36712">
        <ele>3296.6</ele>
        <time>2021-08-05 18:58:56</time>
      </trkpt>
      <trkpt lat="37.05487" lon="-3.36712">
        <ele>3296.4</ele>
        <time>2021-08-05 18:58:57</time>
      </trkpt>
      <trkpt lat="37.05487" lon="-3.36712">
        <ele>3296.4</ele>
        <time>2021-08-05 18:58:58</time>
      </trkpt>
      <trkpt lat="37.05486" lon="-3.36712">
        <ele>3296.4</ele>
        <time>2021-08-05 18:58:59</time>
      </trkpt>
      <trkpt lat="37.05485" lon="-3.36712">
        <ele>3296.2</ele>
        <time>2021-08-05 18:59:00</time>
      </trkpt>
      <trkpt lat="37.05484" lon="-3.36712">
        <ele>3296</ele>
        <time>2021-08-05 18:59:01</time>
      </trkpt>
      <trkpt lat="37.05484" lon="-3.36713">
        <ele>3296</ele>
        <time>2021-08-05 18:59:02</time>
      </trkpt>
      <trkpt lat="37.05484" lon="-3.36713">
        <ele>3295.8</ele>
        <time>2021-08-05 18:59:03</time>
      </trkpt>
      <trkpt lat="37.05484" lon="-3.36714">
        <ele>3295.8</ele>
        <time>2021-08-05 18:59:04</time>
      </trkpt>
      <trkpt lat="37.05484" lon="-3.36714">
        <ele>3295.8</ele>
        <time>2021-08-05 18:59:05</time>
      </trkpt>
      <trkpt lat="37.05484" lon="-3.36714">
        <ele>3295.8</ele>
        <time>2021-08-05 18:59:06</time>
      </trkpt>
      <trkpt lat="37.05484" lon="-3.36714">
        <ele>3295.8</ele>
        <time>2021-08-05 18:59:07</time>
      </trkpt>
      <trkpt lat="37.05484" lon="-3.36715">
        <ele>3295.8</ele>
        <time>2021-08-05 18:59:08</time>
      </trkpt>
      <trkpt lat="37.05484" lon="-3.36715">
        <ele>3295.8</ele>
        <time>2021-08-05 18:59:09</time>
      </trkpt>
      <trkpt lat="37.05484" lon="-3.36716">
        <ele>3295.8</ele>
        <time>2021-08-05 18:59:10</time>
      </trkpt>
      <trkpt lat="37.05485" lon="-3.36717">
        <ele>3295.8</ele>
        <time>2021-08-05 18:59:11</time>
      </trkpt>
      <trkpt lat="37.05485" lon="-3.36717">
        <ele>3295.8</ele>
        <time>2021-08-05 18:59:12</time>
      </trkpt>
      <trkpt lat="37.05485" lon="-3.36718">
        <ele>3295.8</ele>
        <time>2021-08-05 18:59:13</time>
      </trkpt>
      <trkpt lat="37.05484" lon="-3.36718">
        <ele>3295.8</ele>
        <time>2021-08-05 18:59:14</time>
      </trkpt>
      <trkpt lat="37.05482" lon="-3.36719">
        <ele>3295.6</ele>
        <time>2021-08-05 18:59:15</time>
      </trkpt>
      <trkpt lat="37.05481" lon="-3.36719">
        <ele>3295.6</ele>
        <time>2021-08-05 18:59:16</time>
      </trkpt>
      <trkpt lat="37.0548" lon="-3.3672">
        <ele>3295.4</ele>
        <time>2021-08-05 18:59:17</time>
      </trkpt>
      <trkpt lat="37.05479" lon="-3.3672">
        <ele>3295.2</ele>
        <time>2021-08-05 18:59:18</time>
      </trkpt>
      <trkpt lat="37.05478" lon="-3.36719">
        <ele>3295</ele>
        <time>2021-08-05 18:59:19</time>
      </trkpt>
      <trkpt lat="37.05478" lon="-3.36719">
        <ele>3294.8</ele>
        <time>2021-08-05 18:59:20</time>
      </trkpt>
      <trkpt lat="37.05477" lon="-3.36719">
        <ele>3294.8</ele>
        <time>2021-08-05 18:59:21</time>
      </trkpt>
      <trkpt lat="37.05476" lon="-3.36719">
        <ele>3294.8</ele>
        <time>2021-08-05 18:59:22</time>
      </trkpt>
      <trkpt lat="37.05475" lon="-3.36719">
        <ele>3294.8</ele>
        <time>2021-08-05 18:59:23</time>
      </trkpt>
      <trkpt lat="37.05474" lon="-3.3672">
        <ele>3294.4</ele>
        <time>2021-08-05 18:59:24</time>
      </trkpt>
      <trkpt lat="37.05473" lon="-3.36721">
        <ele>3294.2</ele>
        <time>2021-08-05 18:59:25</time>
      </trkpt>
      <trkpt lat="37.05472" lon="-3.3672">
        <ele>3294</ele>
        <time>2021-08-05 18:59:26</time>
      </trkpt>
      <trkpt lat="37.05471" lon="-3.3672">
        <ele>3294</ele>
        <time>2021-08-05 18:59:27</time>
      </trkpt>
      <trkpt lat="37.05471" lon="-3.3672">
        <ele>3293.8</ele>
        <time>2021-08-05 18:59:28</time>
      </trkpt>
      <trkpt lat="37.0547" lon="-3.3672">
        <ele>3293.6</ele>
        <time>2021-08-05 18:59:29</time>
      </trkpt>
      <trkpt lat="37.05469" lon="-3.36721">
        <ele>3293.4</ele>
        <time>2021-08-05 18:59:30</time>
      </trkpt>
      <trkpt lat="37.05468" lon="-3.36722">
        <ele>3293</ele>
        <time>2021-08-05 18:59:31</time>
      </trkpt>
      <trkpt lat="37.05467" lon="-3.36721">
        <ele>3293</ele>
        <time>2021-08-05 18:59:32</time>
      </trkpt>
      <trkpt lat="37.05466" lon="-3.36721">
        <ele>3292.8</ele>
        <time>2021-08-05 18:59:33</time>
      </trkpt>
      <trkpt lat="37.05466" lon="-3.36722">
        <ele>3292.6</ele>
        <time>2021-08-05 18:59:34</time>
      </trkpt>
      <trkpt lat="37.05465" lon="-3.36722">
        <ele>3292.4</ele>
        <time>2021-08-05 18:59:35</time>
      </trkpt>
      <trkpt lat="37.05465" lon="-3.36722">
        <ele>3292.2</ele>
        <time>2021-08-05 18:59:36</time>
      </trkpt>
      <trkpt lat="37.05464" lon="-3.36722">
        <ele>3292</ele>
        <time>2021-08-05 18:59:37</time>
      </trkpt>
      <trkpt lat="37.05464" lon="-3.36721">
        <ele>3291.6</ele>
        <time>2021-08-05 18:59:38</time>
      </trkpt>
      <trkpt lat="37.05464" lon="-3.36721">
        <ele>3291.6</ele>
        <time>2021-08-05 18:59:39</time>
      </trkpt>
      <trkpt lat="37.05464" lon="-3.36721">
        <ele>3291.4</ele>
        <time>2021-08-05 18:59:40</time>
      </trkpt>
      <trkpt lat="37.05464" lon="-3.36721">
        <ele>3291.4</ele>
        <time>2021-08-05 18:59:41</time>
      </trkpt>
      <trkpt lat="37.05463" lon="-3.36721">
        <ele>3291</ele>
        <time>2021-08-05 18:59:42</time>
      </trkpt>
      <trkpt lat="37.05463" lon="-3.36721">
        <ele>3290.8</ele>
        <time>2021-08-05 18:59:43</time>
      </trkpt>
      <trkpt lat="37.05463" lon="-3.36721">
        <ele>3290.6</ele>
        <time>2021-08-05 18:59:44</time>
      </trkpt>
      <trkpt lat="37.05462" lon="-3.36721">
        <ele>3290.4</ele>
        <time>2021-08-05 18:59:45</time>
      </trkpt>
      <trkpt lat="37.05462" lon="-3.36721">
        <ele>3290.4</ele>
        <time>2021-08-05 18:59:46</time>
      </trkpt>
      <trkpt lat="37.05461" lon="-3.36721">
        <ele>3290.2</ele>
        <time>2021-08-05 18:59:47</time>
      </trkpt>
      <trkpt lat="37.0546" lon="-3.36721">
        <ele>3290.2</ele>
        <time>2021-08-05 18:59:48</time>
      </trkpt>
      <trkpt lat="37.0546" lon="-3.36722">
        <ele>3290.2</ele>
        <time>2021-08-05 18:59:49</time>
      </trkpt>
      <trkpt lat="37.0546" lon="-3.36723">
        <ele>3290.2</ele>
        <time>2021-08-05 18:59:50</time>
      </trkpt>
      <trkpt lat="37.0546" lon="-3.36724">
        <ele>3290</ele>
        <time>2021-08-05 18:59:51</time>
      </trkpt>
      <trkpt lat="37.0546" lon="-3.36724">
        <ele>3290</ele>
        <time>2021-08-05 18:59:52</time>
      </trkpt>
      <trkpt lat="37.0546" lon="-3.36724">
        <ele>3290</ele>
        <time>2021-08-05 18:59:53</time>
      </trkpt>
      <trkpt lat="37.05459" lon="-3.36725">
        <ele>3289.8</ele>
        <time>2021-08-05 18:59:54</time>
      </trkpt>
      <trkpt lat="37.0546" lon="-3.36725">
        <ele>3289.4</ele>
        <time>2021-08-05 18:59:55</time>
      </trkpt>
      <trkpt lat="37.0546" lon="-3.3673">
        <ele>3289.2</ele>
        <time>2021-08-05 18:59:56</time>
      </trkpt>
      <trkpt lat="37.05459" lon="-3.36731">
        <ele>3289.2</ele>
        <time>2021-08-05 18:59:57</time>
      </trkpt>
      <trkpt lat="37.0546" lon="-3.36731">
        <ele>3289.2</ele>
        <time>2021-08-05 18:59:58</time>
      </trkpt>
      <trkpt lat="37.05459" lon="-3.36733">
        <ele>3289</ele>
        <time>2021-08-05 18:59:59</time>
      </trkpt>
      <trkpt lat="37.05462" lon="-3.36732">
        <ele>3289</ele>
        <time>2021-08-05 19:00:00</time>
      </trkpt>
      <trkpt lat="37.05462" lon="-3.36732">
        <ele>3289</ele>
        <time>2021-08-05 19:00:01</time>
      </trkpt>
      <trkpt lat="37.05461" lon="-3.36732">
        <ele>3289</ele>
        <time>2021-08-05 19:00:02</time>
      </trkpt>
      <trkpt lat="37.05461" lon="-3.36732">
        <ele>3288.8</ele>
        <time>2021-08-05 19:00:03</time>
      </trkpt>
      <trkpt lat="37.0546" lon="-3.36732">
        <ele>3288.6</ele>
        <time>2021-08-05 19:00:04</time>
      </trkpt>
      <trkpt lat="37.0546" lon="-3.3673">
        <ele>3288.4</ele>
        <time>2021-08-05 19:00:05</time>
      </trkpt>
      <trkpt lat="37.0546" lon="-3.3673">
        <ele>3288.2</ele>
        <time>2021-08-05 19:00:06</time>
      </trkpt>
      <trkpt lat="37.0546" lon="-3.3673">
        <ele>3288</ele>
        <time>2021-08-05 19:00:07</time>
      </trkpt>
      <trkpt lat="37.05461" lon="-3.36728">
        <ele>3288</ele>
        <time>2021-08-05 19:00:08</time>
      </trkpt>
      <trkpt lat="37.05461" lon="-3.36728">
        <ele>3287.8</ele>
        <time>2021-08-05 19:00:09</time>
      </trkpt>
      <trkpt lat="37.05461" lon="-3.36729">
        <ele>3287.6</ele>
        <time>2021-08-05 19:00:10</time>
      </trkpt>
      <trkpt lat="37.05462" lon="-3.36729">
        <ele>3287.2</ele>
        <time>2021-08-05 19:00:11</time>
      </trkpt>
      <trkpt lat="37.05463" lon="-3.3673">
        <ele>3286.8</ele>
        <time>2021-08-05 19:00:12</time>
      </trkpt>
      <trkpt lat="37.05464" lon="-3.36729">
        <ele>3286.6</ele>
        <time>2021-08-05 19:00:13</time>
      </trkpt>
      <trkpt lat="37.05464" lon="-3.36729">
        <ele>3286.4</ele>
        <time>2021-08-05 19:00:14</time>
      </trkpt>
      <trkpt lat="37.05465" lon="-3.3673">
        <ele>3286.2</ele>
        <time>2021-08-05 19:00:15</time>
      </trkpt>
      <trkpt lat="37.05465" lon="-3.36731">
        <ele>3286</ele>
        <time>2021-08-05 19:00:16</time>
      </trkpt>
      <trkpt lat="37.05465" lon="-3.36732">
        <ele>3285.8</ele>
        <time>2021-08-05 19:00:17</time>
      </trkpt>
      <trkpt lat="37.05463" lon="-3.36734">
        <ele>3285.6</ele>
        <time>2021-08-05 19:00:18</time>
      </trkpt>
      <trkpt lat="37.05461" lon="-3.36735">
        <ele>3285.4</ele>
        <time>2021-08-05 19:00:19</time>
      </trkpt>
      <trkpt lat="37.0546" lon="-3.36736">
        <ele>3285.2</ele>
        <time>2021-08-05 19:00:20</time>
      </trkpt>
      <trkpt lat="37.0546" lon="-3.36736">
        <ele>3285</ele>
        <time>2021-08-05 19:00:21</time>
      </trkpt>
      <trkpt lat="37.0546" lon="-3.36738">
        <ele>3284.8</ele>
        <time>2021-08-05 19:00:22</time>
      </trkpt>
      <trkpt lat="37.0546" lon="-3.36738">
        <ele>3284.6</ele>
        <time>2021-08-05 19:00:23</time>
      </trkpt>
      <trkpt lat="37.0546" lon="-3.36738">
        <ele>3284.4</ele>
        <time>2021-08-05 19:00:24</time>
      </trkpt>
      <trkpt lat="37.0546" lon="-3.36738">
        <ele>3284.2</ele>
        <time>2021-08-05 19:00:25</time>
      </trkpt>
      <trkpt lat="37.05459" lon="-3.36737">
        <ele>3283.8</ele>
        <time>2021-08-05 19:00:26</time>
      </trkpt>
      <trkpt lat="37.05459" lon="-3.36737">
        <ele>3283.6</ele>
        <time>2021-08-05 19:00:27</time>
      </trkpt>
      <trkpt lat="37.05458" lon="-3.36737">
        <ele>3283.2</ele>
        <time>2021-08-05 19:00:28</time>
      </trkpt>
      <trkpt lat="37.05458" lon="-3.36736">
        <ele>3283</ele>
        <time>2021-08-05 19:00:29</time>
      </trkpt>
      <trkpt lat="37.05457" lon="-3.36734">
        <ele>3283</ele>
        <time>2021-08-05 19:00:30</time>
      </trkpt>
      <trkpt lat="37.05457" lon="-3.36735">
        <ele>3282.8</ele>
        <time>2021-08-05 19:00:31</time>
      </trkpt>
      <trkpt lat="37.05456" lon="-3.36737">
        <ele>3282.6</ele>
        <time>2021-08-05 19:00:32</time>
      </trkpt>
      <trkpt lat="37.05456" lon="-3.36736">
        <ele>3282.4</ele>
        <time>2021-08-05 19:00:33</time>
      </trkpt>
      <trkpt lat="37.05455" lon="-3.36737">
        <ele>3282.2</ele>
        <time>2021-08-05 19:00:34</time>
      </trkpt>
      <trkpt lat="37.05455" lon="-3.36738">
        <ele>3281.6</ele>
        <time>2021-08-05 19:00:35</time>
      </trkpt>
      <trkpt lat="37.05455" lon="-3.3674">
        <ele>3281.4</ele>
        <time>2021-08-05 19:00:36</time>
      </trkpt>
      <trkpt lat="37.05455" lon="-3.36741">
        <ele>3281.2</ele>
        <time>2021-08-05 19:00:37</time>
      </trkpt>
      <trkpt lat="37.05455" lon="-3.36741">
        <ele>3280.8</ele>
        <time>2021-08-05 19:00:38</time>
      </trkpt>
      <trkpt lat="37.05455" lon="-3.36742">
        <ele>3280.6</ele>
        <time>2021-08-05 19:00:39</time>
      </trkpt>
      <trkpt lat="37.05455" lon="-3.36743">
        <ele>3280.4</ele>
        <time>2021-08-05 19:00:40</time>
      </trkpt>
      <trkpt lat="37.05455" lon="-3.36744">
        <ele>3280.4</ele>
        <time>2021-08-05 19:00:41</time>
      </trkpt>
      <trkpt lat="37.05454" lon="-3.36744">
        <ele>3280</ele>
        <time>2021-08-05 19:00:42</time>
      </trkpt>
      <trkpt lat="37.05452" lon="-3.36744">
        <ele>3280.2</ele>
        <time>2021-08-05 19:00:43</time>
      </trkpt>
      <trkpt lat="37.05451" lon="-3.36745">
        <ele>3280</ele>
        <time>2021-08-05 19:00:44</time>
      </trkpt>
      <trkpt lat="37.05449" lon="-3.36746">
        <ele>3279.8</ele>
        <time>2021-08-05 19:00:45</time>
      </trkpt>
      <trkpt lat="37.05447" lon="-3.36745">
        <ele>3279.8</ele>
        <time>2021-08-05 19:00:46</time>
      </trkpt>
      <trkpt lat="37.05447" lon="-3.36745">
        <ele>3279.6</ele>
        <time>2021-08-05 19:00:47</time>
      </trkpt>
      <trkpt lat="37.05446" lon="-3.36746">
        <ele>3279.2</ele>
        <time>2021-08-05 19:00:48</time>
      </trkpt>
      <trkpt lat="37.05446" lon="-3.36746">
        <ele>3279</ele>
        <time>2021-08-05 19:00:49</time>
      </trkpt>
      <trkpt lat="37.05446" lon="-3.36746">
        <ele>3278.8</ele>
        <time>2021-08-05 19:00:50</time>
      </trkpt>
      <trkpt lat="37.05446" lon="-3.36747">
        <ele>3278.8</ele>
        <time>2021-08-05 19:00:51</time>
      </trkpt>
      <trkpt lat="37.05445" lon="-3.36747">
        <ele>3278.6</ele>
        <time>2021-08-05 19:00:52</time>
      </trkpt>
      <trkpt lat="37.05445" lon="-3.36747">
        <ele>3278.8</ele>
        <time>2021-08-05 19:00:53</time>
      </trkpt>
      <trkpt lat="37.05446" lon="-3.36747">
        <ele>3278.8</ele>
        <time>2021-08-05 19:00:54</time>
      </trkpt>
      <trkpt lat="37.05447" lon="-3.36747">
        <ele>3278.8</ele>
        <time>2021-08-05 19:00:55</time>
      </trkpt>
      <trkpt lat="37.05447" lon="-3.36747">
        <ele>3278.8</ele>
        <time>2021-08-05 19:00:56</time>
      </trkpt>
      <trkpt lat="37.05447" lon="-3.36747">
        <ele>3278.8</ele>
        <time>2021-08-05 19:00:57</time>
      </trkpt>
      <trkpt lat="37.05448" lon="-3.36747">
        <ele>3278.8</ele>
        <time>2021-08-05 19:00:58</time>
      </trkpt>
      <trkpt lat="37.05448" lon="-3.36748">
        <ele>3278.8</ele>
        <time>2021-08-05 19:00:59</time>
      </trkpt>
      <trkpt lat="37.05448" lon="-3.36748">
        <ele>3278.8</ele>
        <time>2021-08-05 19:01:00</time>
      </trkpt>
      <trkpt lat="37.05448" lon="-3.36749">
        <ele>3278.8</ele>
        <time>2021-08-05 19:01:01</time>
      </trkpt>
      <trkpt lat="37.05449" lon="-3.36748">
        <ele>3278.8</ele>
        <time>2021-08-05 19:01:02</time>
      </trkpt>
      <trkpt lat="37.05449" lon="-3.36747">
        <ele>3278.8</ele>
        <time>2021-08-05 19:01:03</time>
      </trkpt>
      <trkpt lat="37.05449" lon="-3.36748">
        <ele>3278.6</ele>
        <time>2021-08-05 19:01:04</time>
      </trkpt>
      <trkpt lat="37.05449" lon="-3.36748">
        <ele>3278.6</ele>
        <time>2021-08-05 19:01:05</time>
      </trkpt>
      <trkpt lat="37.05449" lon="-3.36748">
        <ele>3278.6</ele>
        <time>2021-08-05 19:01:06</time>
      </trkpt>
      <trkpt lat="37.05449" lon="-3.36747">
        <ele>3278.8</ele>
        <time>2021-08-05 19:01:07</time>
      </trkpt>
      <trkpt lat="37.05449" lon="-3.36747">
        <ele>3278.8</ele>
        <time>2021-08-05 19:01:08</time>
      </trkpt>
      <trkpt lat="37.05449" lon="-3.36746">
        <ele>3278.8</ele>
        <time>2021-08-05 19:01:09</time>
      </trkpt>
      <trkpt lat="37.05449" lon="-3.36746">
        <ele>3279</ele>
        <time>2021-08-05 19:01:10</time>
      </trkpt>
      <trkpt lat="37.05449" lon="-3.36746">
        <ele>3279</ele>
        <time>2021-08-05 19:01:11</time>
      </trkpt>
      <trkpt lat="37.05449" lon="-3.36747">
        <ele>3279</ele>
        <time>2021-08-05 19:01:12</time>
      </trkpt>
      <trkpt lat="37.05449" lon="-3.36747">
        <ele>3278.8</ele>
        <time>2021-08-05 19:01:13</time>
      </trkpt>
      <trkpt lat="37.05449" lon="-3.36747">
        <ele>3278.8</ele>
        <time>2021-08-05 19:01:14</time>
      </trkpt>
      <trkpt lat="37.05449" lon="-3.36747">
        <ele>3279</ele>
        <time>2021-08-05 19:01:15</time>
      </trkpt>
      <trkpt lat="37.05449" lon="-3.36748">
        <ele>3279</ele>
        <time>2021-08-05 19:01:16</time>
      </trkpt>
      <trkpt lat="37.05448" lon="-3.3675">
        <ele>3279</ele>
        <time>2021-08-05 19:01:17</time>
      </trkpt>
      <trkpt lat="37.05449" lon="-3.36751">
        <ele>3279</ele>
        <time>2021-08-05 19:01:18</time>
      </trkpt>
      <trkpt lat="37.05449" lon="-3.36752">
        <ele>3279</ele>
        <time>2021-08-05 19:01:19</time>
      </trkpt>
      <trkpt lat="37.05449" lon="-3.36753">
        <ele>3279</ele>
        <time>2021-08-05 19:01:20</time>
      </trkpt>
      <trkpt lat="37.05449" lon="-3.36755">
        <ele>3279</ele>
        <time>2021-08-05 19:01:21</time>
      </trkpt>
      <trkpt lat="37.05449" lon="-3.36755">
        <ele>3279</ele>
        <time>2021-08-05 19:01:22</time>
      </trkpt>
      <trkpt lat="37.05449" lon="-3.36756">
        <ele>3279</ele>
        <time>2021-08-05 19:01:23</time>
      </trkpt>
      <trkpt lat="37.05448" lon="-3.36756">
        <ele>3279</ele>
        <time>2021-08-05 19:01:24</time>
      </trkpt>
      <trkpt lat="37.05447" lon="-3.36757">
        <ele>3278.6</ele>
        <time>2021-08-05 19:01:25</time>
      </trkpt>
      <trkpt lat="37.05446" lon="-3.36757">
        <ele>3278.4</ele>
        <time>2021-08-05 19:01:26</time>
      </trkpt>
      <trkpt lat="37.05445" lon="-3.36757">
        <ele>3278.2</ele>
        <time>2021-08-05 19:01:27</time>
      </trkpt>
      <trkpt lat="37.05445" lon="-3.36757">
        <ele>3278.2</ele>
        <time>2021-08-05 19:01:28</time>
      </trkpt>
      <trkpt lat="37.05444" lon="-3.36757">
        <ele>3278</ele>
        <time>2021-08-05 19:01:29</time>
      </trkpt>
      <trkpt lat="37.05443" lon="-3.36756">
        <ele>3277.8</ele>
        <time>2021-08-05 19:01:30</time>
      </trkpt>
      <trkpt lat="37.05442" lon="-3.36756">
        <ele>3277.6</ele>
        <time>2021-08-05 19:01:31</time>
      </trkpt>
      <trkpt lat="37.05442" lon="-3.36757">
        <ele>3277.2</ele>
        <time>2021-08-05 19:01:32</time>
      </trkpt>
      <trkpt lat="37.05441" lon="-3.36758">
        <ele>3276.8</ele>
        <time>2021-08-05 19:01:33</time>
      </trkpt>
      <trkpt lat="37.05441" lon="-3.36758">
        <ele>3276.4</ele>
        <time>2021-08-05 19:01:34</time>
      </trkpt>
      <trkpt lat="37.0544" lon="-3.36759">
        <ele>3276.4</ele>
        <time>2021-08-05 19:01:35</time>
      </trkpt>
      <trkpt lat="37.0544" lon="-3.3676">
        <ele>3276.2</ele>
        <time>2021-08-05 19:01:36</time>
      </trkpt>
      <trkpt lat="37.05439" lon="-3.36761">
        <ele>3276.2</ele>
        <time>2021-08-05 19:01:37</time>
      </trkpt>
      <trkpt lat="37.05438" lon="-3.36761">
        <ele>3276</ele>
        <time>2021-08-05 19:01:38</time>
      </trkpt>
      <trkpt lat="37.05438" lon="-3.36762">
        <ele>3275.2</ele>
        <time>2021-08-05 19:01:39</time>
      </trkpt>
      <trkpt lat="37.05438" lon="-3.36762">
        <ele>3274.8</ele>
        <time>2021-08-05 19:01:40</time>
      </trkpt>
      <trkpt lat="37.05439" lon="-3.36763">
        <ele>3274.6</ele>
        <time>2021-08-05 19:01:41</time>
      </trkpt>
      <trkpt lat="37.0544" lon="-3.36764">
        <ele>3274.2</ele>
        <time>2021-08-05 19:01:42</time>
      </trkpt>
      <trkpt lat="37.0544" lon="-3.36764">
        <ele>3274</ele>
        <time>2021-08-05 19:01:43</time>
      </trkpt>
      <trkpt lat="37.0544" lon="-3.36765">
        <ele>3273.6</ele>
        <time>2021-08-05 19:01:44</time>
      </trkpt>
      <trkpt lat="37.0544" lon="-3.36766">
        <ele>3273.6</ele>
        <time>2021-08-05 19:01:45</time>
      </trkpt>
      <trkpt lat="37.05439" lon="-3.36766">
        <ele>3273.4</ele>
        <time>2021-08-05 19:01:46</time>
      </trkpt>
      <trkpt lat="37.05438" lon="-3.36768">
        <ele>3273.4</ele>
        <time>2021-08-05 19:01:47</time>
      </trkpt>
      <trkpt lat="37.05437" lon="-3.3677">
        <ele>3273.2</ele>
        <time>2021-08-05 19:01:48</time>
      </trkpt>
      <trkpt lat="37.05436" lon="-3.36771">
        <ele>3273</ele>
        <time>2021-08-05 19:01:49</time>
      </trkpt>
      <trkpt lat="37.05435" lon="-3.36772">
        <ele>3273</ele>
        <time>2021-08-05 19:01:50</time>
      </trkpt>
      <trkpt lat="37.05435" lon="-3.36773">
        <ele>3272.8</ele>
        <time>2021-08-05 19:01:51</time>
      </trkpt>
      <trkpt lat="37.05435" lon="-3.36772">
        <ele>3272.8</ele>
        <time>2021-08-05 19:01:52</time>
      </trkpt>
      <trkpt lat="37.05435" lon="-3.36771">
        <ele>3272.8</ele>
        <time>2021-08-05 19:01:53</time>
      </trkpt>
      <trkpt lat="37.05436" lon="-3.36771">
        <ele>3272.6</ele>
        <time>2021-08-05 19:01:54</time>
      </trkpt>
      <trkpt lat="37.05436" lon="-3.3677">
        <ele>3272.6</ele>
        <time>2021-08-05 19:01:55</time>
      </trkpt>
      <trkpt lat="37.05436" lon="-3.3677">
        <ele>3272.4</ele>
        <time>2021-08-05 19:01:56</time>
      </trkpt>
      <trkpt lat="37.05435" lon="-3.3677">
        <ele>3272.2</ele>
        <time>2021-08-05 19:01:57</time>
      </trkpt>
      <trkpt lat="37.05435" lon="-3.36769">
        <ele>3272</ele>
        <time>2021-08-05 19:01:58</time>
      </trkpt>
      <trkpt lat="37.05435" lon="-3.36769">
        <ele>3271.6</ele>
        <time>2021-08-05 19:01:59</time>
      </trkpt>
      <trkpt lat="37.05434" lon="-3.36768">
        <ele>3271.6</ele>
        <time>2021-08-05 19:02:00</time>
      </trkpt>
      <trkpt lat="37.05434" lon="-3.36767">
        <ele>3271.6</ele>
        <time>2021-08-05 19:02:01</time>
      </trkpt>
      <trkpt lat="37.05434" lon="-3.36767">
        <ele>3271.4</ele>
        <time>2021-08-05 19:02:02</time>
      </trkpt>
      <trkpt lat="37.05433" lon="-3.36766">
        <ele>3271.4</ele>
        <time>2021-08-05 19:02:03</time>
      </trkpt>
      <trkpt lat="37.05432" lon="-3.36765">
        <ele>3271.4</ele>
        <time>2021-08-05 19:02:04</time>
      </trkpt>
      <trkpt lat="37.05431" lon="-3.36765">
        <ele>3271.4</ele>
        <time>2021-08-05 19:02:05</time>
      </trkpt>
      <trkpt lat="37.05431" lon="-3.36766">
        <ele>3271.6</ele>
        <time>2021-08-05 19:02:06</time>
      </trkpt>
      <trkpt lat="37.05431" lon="-3.36767">
        <ele>3271.6</ele>
        <time>2021-08-05 19:02:07</time>
      </trkpt>
      <trkpt lat="37.0543" lon="-3.36768">
        <ele>3271.4</ele>
        <time>2021-08-05 19:02:08</time>
      </trkpt>
      <trkpt lat="37.0543" lon="-3.36769">
        <ele>3271.2</ele>
        <time>2021-08-05 19:02:09</time>
      </trkpt>
      <trkpt lat="37.05429" lon="-3.3677">
        <ele>3271</ele>
        <time>2021-08-05 19:02:10</time>
      </trkpt>
      <trkpt lat="37.05429" lon="-3.36771">
        <ele>3270.8</ele>
        <time>2021-08-05 19:02:11</time>
      </trkpt>
      <trkpt lat="37.05429" lon="-3.36771">
        <ele>3270.8</ele>
        <time>2021-08-05 19:02:12</time>
      </trkpt>
      <trkpt lat="37.05429" lon="-3.36772">
        <ele>3270.4</ele>
        <time>2021-08-05 19:02:13</time>
      </trkpt>
      <trkpt lat="37.05428" lon="-3.36773">
        <ele>3270.2</ele>
        <time>2021-08-05 19:02:14</time>
      </trkpt>
      <trkpt lat="37.05428" lon="-3.36774">
        <ele>3270.2</ele>
        <time>2021-08-05 19:02:15</time>
      </trkpt>
      <trkpt lat="37.05428" lon="-3.36775">
        <ele>3270</ele>
        <time>2021-08-05 19:02:16</time>
      </trkpt>
      <trkpt lat="37.05428" lon="-3.36776">
        <ele>3270</ele>
        <time>2021-08-05 19:02:17</time>
      </trkpt>
      <trkpt lat="37.05428" lon="-3.36777">
        <ele>3269.8</ele>
        <time>2021-08-05 19:02:18</time>
      </trkpt>
      <trkpt lat="37.05427" lon="-3.36778">
        <ele>3269.8</ele>
        <time>2021-08-05 19:02:19</time>
      </trkpt>
      <trkpt lat="37.05425" lon="-3.3678">
        <ele>3269.8</ele>
        <time>2021-08-05 19:02:20</time>
      </trkpt>
      <trkpt lat="37.05424" lon="-3.36781">
        <ele>3269.4</ele>
        <time>2021-08-05 19:02:21</time>
      </trkpt>
      <trkpt lat="37.05424" lon="-3.36782">
        <ele>3269.2</ele>
        <time>2021-08-05 19:02:22</time>
      </trkpt>
      <trkpt lat="37.05423" lon="-3.36784">
        <ele>3269.2</ele>
        <time>2021-08-05 19:02:23</time>
      </trkpt>
      <trkpt lat="37.05423" lon="-3.36786">
        <ele>3269</ele>
        <time>2021-08-05 19:02:24</time>
      </trkpt>
      <trkpt lat="37.05424" lon="-3.36787">
        <ele>3269</ele>
        <time>2021-08-05 19:02:25</time>
      </trkpt>
      <trkpt lat="37.05424" lon="-3.36788">
        <ele>3268.8</ele>
        <time>2021-08-05 19:02:26</time>
      </trkpt>
      <trkpt lat="37.05423" lon="-3.36789">
        <ele>3268.4</ele>
        <time>2021-08-05 19:02:27</time>
      </trkpt>
      <trkpt lat="37.05422" lon="-3.3679">
        <ele>3268.2</ele>
        <time>2021-08-05 19:02:28</time>
      </trkpt>
      <trkpt lat="37.05422" lon="-3.36791">
        <ele>3268.2</ele>
        <time>2021-08-05 19:02:29</time>
      </trkpt>
      <trkpt lat="37.05423" lon="-3.36791">
        <ele>3267.8</ele>
        <time>2021-08-05 19:02:30</time>
      </trkpt>
      <trkpt lat="37.05423" lon="-3.36792">
        <ele>3267.6</ele>
        <time>2021-08-05 19:02:31</time>
      </trkpt>
      <trkpt lat="37.05424" lon="-3.36792">
        <ele>3267.2</ele>
        <time>2021-08-05 19:02:32</time>
      </trkpt>
      <trkpt lat="37.05424" lon="-3.36792">
        <ele>3267</ele>
        <time>2021-08-05 19:02:33</time>
      </trkpt>
      <trkpt lat="37.05423" lon="-3.36793">
        <ele>3266.8</ele>
        <time>2021-08-05 19:02:34</time>
      </trkpt>
      <trkpt lat="37.05423" lon="-3.36794">
        <ele>3266.6</ele>
        <time>2021-08-05 19:02:35</time>
      </trkpt>
      <trkpt lat="37.05423" lon="-3.36794">
        <ele>3266.6</ele>
        <time>2021-08-05 19:02:36</time>
      </trkpt>
      <trkpt lat="37.05423" lon="-3.36794">
        <ele>3266.4</ele>
        <time>2021-08-05 19:02:37</time>
      </trkpt>
      <trkpt lat="37.05422" lon="-3.36795">
        <ele>3266.2</ele>
        <time>2021-08-05 19:02:38</time>
      </trkpt>
      <trkpt lat="37.05422" lon="-3.36795">
        <ele>3266.2</ele>
        <time>2021-08-05 19:02:39</time>
      </trkpt>
      <trkpt lat="37.05421" lon="-3.36796">
        <ele>3266</ele>
        <time>2021-08-05 19:02:40</time>
      </trkpt>
      <trkpt lat="37.0542" lon="-3.36798">
        <ele>3266</ele>
        <time>2021-08-05 19:02:41</time>
      </trkpt>
      <trkpt lat="37.0542" lon="-3.36799">
        <ele>3266</ele>
        <time>2021-08-05 19:02:42</time>
      </trkpt>
      <trkpt lat="37.0542" lon="-3.368">
        <ele>3265.8</ele>
        <time>2021-08-05 19:02:43</time>
      </trkpt>
      <trkpt lat="37.05419" lon="-3.368">
        <ele>3265.8</ele>
        <time>2021-08-05 19:02:44</time>
      </trkpt>
      <trkpt lat="37.05418" lon="-3.36801">
        <ele>3265.8</ele>
        <time>2021-08-05 19:02:45</time>
      </trkpt>
      <trkpt lat="37.05417" lon="-3.36803">
        <ele>3265.8</ele>
        <time>2021-08-05 19:02:46</time>
      </trkpt>
      <trkpt lat="37.05419" lon="-3.36801">
        <ele>3265.6</ele>
        <time>2021-08-05 19:02:47</time>
      </trkpt>
      <trkpt lat="37.0542" lon="-3.36801">
        <ele>3265.4</ele>
        <time>2021-08-05 19:02:48</time>
      </trkpt>
      <trkpt lat="37.0542" lon="-3.36801">
        <ele>3265.4</ele>
        <time>2021-08-05 19:02:49</time>
      </trkpt>
      <trkpt lat="37.05419" lon="-3.36801">
        <ele>3265.2</ele>
        <time>2021-08-05 19:02:50</time>
      </trkpt>
      <trkpt lat="37.05419" lon="-3.36801">
        <ele>3265</ele>
        <time>2021-08-05 19:02:51</time>
      </trkpt>
      <trkpt lat="37.05418" lon="-3.36801">
        <ele>3264.6</ele>
        <time>2021-08-05 19:02:52</time>
      </trkpt>
      <trkpt lat="37.05418" lon="-3.36801">
        <ele>3264.4</ele>
        <time>2021-08-05 19:02:53</time>
      </trkpt>
      <trkpt lat="37.05417" lon="-3.36802">
        <ele>3264.4</ele>
        <time>2021-08-05 19:02:54</time>
      </trkpt>
      <trkpt lat="37.05415" lon="-3.36802">
        <ele>3264.2</ele>
        <time>2021-08-05 19:02:55</time>
      </trkpt>
      <trkpt lat="37.05414" lon="-3.36802">
        <ele>3264</ele>
        <time>2021-08-05 19:02:56</time>
      </trkpt>
      <trkpt lat="37.05413" lon="-3.36803">
        <ele>3263.8</ele>
        <time>2021-08-05 19:02:57</time>
      </trkpt>
      <trkpt lat="37.05412" lon="-3.36803">
        <ele>3263.6</ele>
        <time>2021-08-05 19:02:58</time>
      </trkpt>
      <trkpt lat="37.05412" lon="-3.36804">
        <ele>3263.4</ele>
        <time>2021-08-05 19:02:59</time>
      </trkpt>
      <trkpt lat="37.05411" lon="-3.36805">
        <ele>3263.2</ele>
        <time>2021-08-05 19:03:00</time>
      </trkpt>
      <trkpt lat="37.05409" lon="-3.36805">
        <ele>3263</ele>
        <time>2021-08-05 19:03:01</time>
      </trkpt>
      <trkpt lat="37.05408" lon="-3.36805">
        <ele>3262.8</ele>
        <time>2021-08-05 19:03:02</time>
      </trkpt>
      <trkpt lat="37.05407" lon="-3.36805">
        <ele>3262.8</ele>
        <time>2021-08-05 19:03:03</time>
      </trkpt>
      <trkpt lat="37.05406" lon="-3.36805">
        <ele>3262.6</ele>
        <time>2021-08-05 19:03:04</time>
      </trkpt>
      <trkpt lat="37.05405" lon="-3.36804">
        <ele>3262.6</ele>
        <time>2021-08-05 19:03:05</time>
      </trkpt>
      <trkpt lat="37.05405" lon="-3.36804">
        <ele>3262.6</ele>
        <time>2021-08-05 19:03:06</time>
      </trkpt>
      <trkpt lat="37.05404" lon="-3.36803">
        <ele>3262.6</ele>
        <time>2021-08-05 19:03:07</time>
      </trkpt>
      <trkpt lat="37.05404" lon="-3.36803">
        <ele>3262.4</ele>
        <time>2021-08-05 19:03:08</time>
      </trkpt>
      <trkpt lat="37.05403" lon="-3.36803">
        <ele>3262</ele>
        <time>2021-08-05 19:03:09</time>
      </trkpt>
      <trkpt lat="37.05402" lon="-3.36803">
        <ele>3261.8</ele>
        <time>2021-08-05 19:03:10</time>
      </trkpt>
      <trkpt lat="37.05401" lon="-3.36804">
        <ele>3261.6</ele>
        <time>2021-08-05 19:03:11</time>
      </trkpt>
      <trkpt lat="37.05401" lon="-3.36805">
        <ele>3261.6</ele>
        <time>2021-08-05 19:03:12</time>
      </trkpt>
      <trkpt lat="37.054" lon="-3.36806">
        <ele>3261.6</ele>
        <time>2021-08-05 19:03:13</time>
      </trkpt>
      <trkpt lat="37.054" lon="-3.36808">
        <ele>3261.6</ele>
        <time>2021-08-05 19:03:14</time>
      </trkpt>
      <trkpt lat="37.054" lon="-3.36809">
        <ele>3261.6</ele>
        <time>2021-08-05 19:03:15</time>
      </trkpt>
      <trkpt lat="37.05399" lon="-3.3681">
        <ele>3261.6</ele>
        <time>2021-08-05 19:03:16</time>
      </trkpt>
      <trkpt lat="37.05399" lon="-3.36811">
        <ele>3261.6</ele>
        <time>2021-08-05 19:03:17</time>
      </trkpt>
      <trkpt lat="37.05399" lon="-3.36812">
        <ele>3261.6</ele>
        <time>2021-08-05 19:03:18</time>
      </trkpt>
      <trkpt lat="37.05399" lon="-3.36813">
        <ele>3261.6</ele>
        <time>2021-08-05 19:03:19</time>
      </trkpt>
      <trkpt lat="37.05398" lon="-3.36814">
        <ele>3261.4</ele>
        <time>2021-08-05 19:03:20</time>
      </trkpt>
      <trkpt lat="37.05398" lon="-3.36815">
        <ele>3261.4</ele>
        <time>2021-08-05 19:03:21</time>
      </trkpt>
      <trkpt lat="37.05398" lon="-3.36815">
        <ele>3261.2</ele>
        <time>2021-08-05 19:03:22</time>
      </trkpt>
      <trkpt lat="37.05397" lon="-3.36816">
        <ele>3261</ele>
        <time>2021-08-05 19:03:23</time>
      </trkpt>
      <trkpt lat="37.05396" lon="-3.36816">
        <ele>3260.6</ele>
        <time>2021-08-05 19:03:24</time>
      </trkpt>
      <trkpt lat="37.05396" lon="-3.36816">
        <ele>3260.4</ele>
        <time>2021-08-05 19:03:25</time>
      </trkpt>
      <trkpt lat="37.05396" lon="-3.36816">
        <ele>3260.4</ele>
        <time>2021-08-05 19:03:26</time>
      </trkpt>
      <trkpt lat="37.05395" lon="-3.36817">
        <ele>3260.4</ele>
        <time>2021-08-05 19:03:27</time>
      </trkpt>
      <trkpt lat="37.05395" lon="-3.36818">
        <ele>3260.2</ele>
        <time>2021-08-05 19:03:28</time>
      </trkpt>
      <trkpt lat="37.05395" lon="-3.36819">
        <ele>3260</ele>
        <time>2021-08-05 19:03:29</time>
      </trkpt>
      <trkpt lat="37.05394" lon="-3.3682">
        <ele>3259.8</ele>
        <time>2021-08-05 19:03:30</time>
      </trkpt>
      <trkpt lat="37.05394" lon="-3.36821">
        <ele>3259.8</ele>
        <time>2021-08-05 19:03:31</time>
      </trkpt>
      <trkpt lat="37.05394" lon="-3.36822">
        <ele>3259.8</ele>
        <time>2021-08-05 19:03:32</time>
      </trkpt>
      <trkpt lat="37.05393" lon="-3.36823">
        <ele>3259.6</ele>
        <time>2021-08-05 19:03:33</time>
      </trkpt>
      <trkpt lat="37.05393" lon="-3.36824">
        <ele>3259.4</ele>
        <time>2021-08-05 19:03:34</time>
      </trkpt>
      <trkpt lat="37.05392" lon="-3.36825">
        <ele>3259.4</ele>
        <time>2021-08-05 19:03:35</time>
      </trkpt>
      <trkpt lat="37.05392" lon="-3.36825">
        <ele>3259.2</ele>
        <time>2021-08-05 19:03:36</time>
      </trkpt>
      <trkpt lat="37.05391" lon="-3.36826">
        <ele>3259.2</ele>
        <time>2021-08-05 19:03:37</time>
      </trkpt>
      <trkpt lat="37.05391" lon="-3.36827">
        <ele>3258.8</ele>
        <time>2021-08-05 19:03:38</time>
      </trkpt>
      <trkpt lat="37.05391" lon="-3.36828">
        <ele>3258.6</ele>
        <time>2021-08-05 19:03:39</time>
      </trkpt>
      <trkpt lat="37.05391" lon="-3.36829">
        <ele>3258.4</ele>
        <time>2021-08-05 19:03:40</time>
      </trkpt>
      <trkpt lat="37.0539" lon="-3.36829">
        <ele>3258.4</ele>
        <time>2021-08-05 19:03:41</time>
      </trkpt>
      <trkpt lat="37.0539" lon="-3.3683">
        <ele>3258.2</ele>
        <time>2021-08-05 19:03:42</time>
      </trkpt>
      <trkpt lat="37.0539" lon="-3.36831">
        <ele>3258.2</ele>
        <time>2021-08-05 19:03:43</time>
      </trkpt>
      <trkpt lat="37.0539" lon="-3.36832">
        <ele>3258.2</ele>
        <time>2021-08-05 19:03:44</time>
      </trkpt>
      <trkpt lat="37.05389" lon="-3.36833">
        <ele>3258</ele>
        <time>2021-08-05 19:03:45</time>
      </trkpt>
      <trkpt lat="37.05389" lon="-3.36834">
        <ele>3257.4</ele>
        <time>2021-08-05 19:03:46</time>
      </trkpt>
      <trkpt lat="37.05389" lon="-3.36835">
        <ele>3257.2</ele>
        <time>2021-08-05 19:03:47</time>
      </trkpt>
      <trkpt lat="37.05389" lon="-3.36836">
        <ele>3257</ele>
        <time>2021-08-05 19:03:48</time>
      </trkpt>
      <trkpt lat="37.05389" lon="-3.36836">
        <ele>3257</ele>
        <time>2021-08-05 19:03:49</time>
      </trkpt>
      <trkpt lat="37.05388" lon="-3.36837">
        <ele>3257</ele>
        <time>2021-08-05 19:03:50</time>
      </trkpt>
      <trkpt lat="37.05387" lon="-3.36837">
        <ele>3256.8</ele>
        <time>2021-08-05 19:03:51</time>
      </trkpt>
      <trkpt lat="37.05387" lon="-3.36837">
        <ele>3256.8</ele>
        <time>2021-08-05 19:03:52</time>
      </trkpt>
      <trkpt lat="37.05386" lon="-3.36837">
        <ele>3256.6</ele>
        <time>2021-08-05 19:03:53</time>
      </trkpt>
      <trkpt lat="37.05386" lon="-3.36837">
        <ele>3256.6</ele>
        <time>2021-08-05 19:03:54</time>
      </trkpt>
      <trkpt lat="37.05385" lon="-3.36837">
        <ele>3256.4</ele>
        <time>2021-08-05 19:03:55</time>
      </trkpt>
      <trkpt lat="37.05384" lon="-3.36837">
        <ele>3256.4</ele>
        <time>2021-08-05 19:03:56</time>
      </trkpt>
      <trkpt lat="37.05383" lon="-3.36837">
        <ele>3256.4</ele>
        <time>2021-08-05 19:03:57</time>
      </trkpt>
      <trkpt lat="37.05383" lon="-3.36837">
        <ele>3256.2</ele>
        <time>2021-08-05 19:03:58</time>
      </trkpt>
      <trkpt lat="37.05382" lon="-3.36837">
        <ele>3256.2</ele>
        <time>2021-08-05 19:03:59</time>
      </trkpt>
      <trkpt lat="37.05382" lon="-3.36837">
        <ele>3256</ele>
        <time>2021-08-05 19:04:00</time>
      </trkpt>
      <trkpt lat="37.05382" lon="-3.36836">
        <ele>3255.8</ele>
        <time>2021-08-05 19:04:01</time>
      </trkpt>
      <trkpt lat="37.05381" lon="-3.36836">
        <ele>3255.6</ele>
        <time>2021-08-05 19:04:02</time>
      </trkpt>
      <trkpt lat="37.05381" lon="-3.36835">
        <ele>3255.6</ele>
        <time>2021-08-05 19:04:03</time>
      </trkpt>
      <trkpt lat="37.05381" lon="-3.36835">
        <ele>3255.4</ele>
        <time>2021-08-05 19:04:04</time>
      </trkpt>
      <trkpt lat="37.0538" lon="-3.36835">
        <ele>3255.4</ele>
        <time>2021-08-05 19:04:05</time>
      </trkpt>
      <trkpt lat="37.0538" lon="-3.36836">
        <ele>3255.2</ele>
        <time>2021-08-05 19:04:06</time>
      </trkpt>
      <trkpt lat="37.05379" lon="-3.36836">
        <ele>3255.2</ele>
        <time>2021-08-05 19:04:07</time>
      </trkpt>
      <trkpt lat="37.05378" lon="-3.36836">
        <ele>3255</ele>
        <time>2021-08-05 19:04:08</time>
      </trkpt>
      <trkpt lat="37.05377" lon="-3.36836">
        <ele>3254.8</ele>
        <time>2021-08-05 19:04:09</time>
      </trkpt>
      <trkpt lat="37.05377" lon="-3.36837">
        <ele>3254.6</ele>
        <time>2021-08-05 19:04:10</time>
      </trkpt>
      <trkpt lat="37.05376" lon="-3.36837">
        <ele>3254.6</ele>
        <time>2021-08-05 19:04:11</time>
      </trkpt>
      <trkpt lat="37.05375" lon="-3.36837">
        <ele>3254.4</ele>
        <time>2021-08-05 19:04:12</time>
      </trkpt>
      <trkpt lat="37.05375" lon="-3.36838">
        <ele>3254.4</ele>
        <time>2021-08-05 19:04:13</time>
      </trkpt>
      <trkpt lat="37.05374" lon="-3.36838">
        <ele>3254</ele>
        <time>2021-08-05 19:04:14</time>
      </trkpt>
      <trkpt lat="37.05373" lon="-3.36838">
        <ele>3253.8</ele>
        <time>2021-08-05 19:04:15</time>
      </trkpt>
      <trkpt lat="37.05372" lon="-3.36838">
        <ele>3253.6</ele>
        <time>2021-08-05 19:04:16</time>
      </trkpt>
      <trkpt lat="37.05371" lon="-3.36838">
        <ele>3253.6</ele>
        <time>2021-08-05 19:04:17</time>
      </trkpt>
      <trkpt lat="37.0537" lon="-3.36837">
        <ele>3253.4</ele>
        <time>2021-08-05 19:04:18</time>
      </trkpt>
      <trkpt lat="37.05369" lon="-3.36837">
        <ele>3253.4</ele>
        <time>2021-08-05 19:04:19</time>
      </trkpt>
      <trkpt lat="37.05369" lon="-3.36837">
        <ele>3253.2</ele>
        <time>2021-08-05 19:04:20</time>
      </trkpt>
      <trkpt lat="37.05368" lon="-3.36837">
        <ele>3253</ele>
        <time>2021-08-05 19:04:21</time>
      </trkpt>
      <trkpt lat="37.05367" lon="-3.36837">
        <ele>3253</ele>
        <time>2021-08-05 19:04:22</time>
      </trkpt>
      <trkpt lat="37.05366" lon="-3.36837">
        <ele>3252.8</ele>
        <time>2021-08-05 19:04:23</time>
      </trkpt>
      <trkpt lat="37.05366" lon="-3.36837">
        <ele>3252.6</ele>
        <time>2021-08-05 19:04:24</time>
      </trkpt>
      <trkpt lat="37.05364" lon="-3.36836">
        <ele>3252.6</ele>
        <time>2021-08-05 19:04:25</time>
      </trkpt>
      <trkpt lat="37.05364" lon="-3.36837">
        <ele>3252.4</ele>
        <time>2021-08-05 19:04:26</time>
      </trkpt>
      <trkpt lat="37.05363" lon="-3.36837">
        <ele>3252.4</ele>
        <time>2021-08-05 19:04:27</time>
      </trkpt>
      <trkpt lat="37.05361" lon="-3.36837">
        <ele>3252.2</ele>
        <time>2021-08-05 19:04:28</time>
      </trkpt>
      <trkpt lat="37.0536" lon="-3.36837">
        <ele>3251.8</ele>
        <time>2021-08-05 19:04:29</time>
      </trkpt>
      <trkpt lat="37.0536" lon="-3.36839">
        <ele>3251.6</ele>
        <time>2021-08-05 19:04:30</time>
      </trkpt>
      <trkpt lat="37.0536" lon="-3.36839">
        <ele>3251.6</ele>
        <time>2021-08-05 19:04:31</time>
      </trkpt>
      <trkpt lat="37.05359" lon="-3.3684">
        <ele>3251.6</ele>
        <time>2021-08-05 19:04:32</time>
      </trkpt>
      <trkpt lat="37.05358" lon="-3.36841">
        <ele>3251.6</ele>
        <time>2021-08-05 19:04:33</time>
      </trkpt>
      <trkpt lat="37.05357" lon="-3.36842">
        <ele>3251.6</ele>
        <time>2021-08-05 19:04:34</time>
      </trkpt>
      <trkpt lat="37.05356" lon="-3.36842">
        <ele>3251.6</ele>
        <time>2021-08-05 19:04:35</time>
      </trkpt>
      <trkpt lat="37.05355" lon="-3.36842">
        <ele>3251.6</ele>
        <time>2021-08-05 19:04:36</time>
      </trkpt>
      <trkpt lat="37.05354" lon="-3.36842">
        <ele>3251.6</ele>
        <time>2021-08-05 19:04:37</time>
      </trkpt>
      <trkpt lat="37.05354" lon="-3.36841">
        <ele>3251.6</ele>
        <time>2021-08-05 19:04:38</time>
      </trkpt>
      <trkpt lat="37.05353" lon="-3.36841">
        <ele>3251.6</ele>
        <time>2021-08-05 19:04:39</time>
      </trkpt>
      <trkpt lat="37.05352" lon="-3.36841">
        <ele>3251.6</ele>
        <time>2021-08-05 19:04:40</time>
      </trkpt>
      <trkpt lat="37.05352" lon="-3.36841">
        <ele>3251.6</ele>
        <time>2021-08-05 19:04:41</time>
      </trkpt>
      <trkpt lat="37.05351" lon="-3.36841">
        <ele>3251.4</ele>
        <time>2021-08-05 19:04:42</time>
      </trkpt>
      <trkpt lat="37.05351" lon="-3.36843">
        <ele>3251.2</ele>
        <time>2021-08-05 19:04:43</time>
      </trkpt>
      <trkpt lat="37.05351" lon="-3.36843">
        <ele>3251</ele>
        <time>2021-08-05 19:04:44</time>
      </trkpt>
      <trkpt lat="37.05351" lon="-3.36843">
        <ele>3251</ele>
        <time>2021-08-05 19:04:45</time>
      </trkpt>
      <trkpt lat="37.05351" lon="-3.36843">
        <ele>3251</ele>
        <time>2021-08-05 19:04:46</time>
      </trkpt>
      <trkpt lat="37.05351" lon="-3.36843">
        <ele>3250.8</ele>
        <time>2021-08-05 19:04:47</time>
      </trkpt>
      <trkpt lat="37.05351" lon="-3.36843">
        <ele>3250.8</ele>
        <time>2021-08-05 19:04:48</time>
      </trkpt>
      <trkpt lat="37.05352" lon="-3.36843">
        <ele>3250.8</ele>
        <time>2021-08-05 19:04:49</time>
      </trkpt>
      <trkpt lat="37.05352" lon="-3.36843">
        <ele>3250.6</ele>
        <time>2021-08-05 19:04:50</time>
      </trkpt>
      <trkpt lat="37.05352" lon="-3.36843">
        <ele>3250.4</ele>
        <time>2021-08-05 19:04:51</time>
      </trkpt>
      <trkpt lat="37.05352" lon="-3.36844">
        <ele>3250.4</ele>
        <time>2021-08-05 19:04:52</time>
      </trkpt>
      <trkpt lat="37.05352" lon="-3.36844">
        <ele>3250.4</ele>
        <time>2021-08-05 19:04:53</time>
      </trkpt>
      <trkpt lat="37.05353" lon="-3.36844">
        <ele>3250.4</ele>
        <time>2021-08-05 19:04:54</time>
      </trkpt>
      <trkpt lat="37.05353" lon="-3.36843">
        <ele>3250.4</ele>
        <time>2021-08-05 19:04:55</time>
      </trkpt>
      <trkpt lat="37.05353" lon="-3.36843">
        <ele>3250.4</ele>
        <time>2021-08-05 19:04:56</time>
      </trkpt>
      <trkpt lat="37.05353" lon="-3.36843">
        <ele>3250.4</ele>
        <time>2021-08-05 19:04:57</time>
      </trkpt>
      <trkpt lat="37.05353" lon="-3.36844">
        <ele>3250.6</ele>
        <time>2021-08-05 19:04:58</time>
      </trkpt>
      <trkpt lat="37.05353" lon="-3.36844">
        <ele>3250.6</ele>
        <time>2021-08-05 19:04:59</time>
      </trkpt>
      <trkpt lat="37.05353" lon="-3.36844">
        <ele>3250.6</ele>
        <time>2021-08-05 19:05:00</time>
      </trkpt>
      <trkpt lat="37.05353" lon="-3.36844">
        <ele>3250.6</ele>
        <time>2021-08-05 19:05:01</time>
      </trkpt>
      <trkpt lat="37.05354" lon="-3.36845">
        <ele>3250.8</ele>
        <time>2021-08-05 19:05:02</time>
      </trkpt>
      <trkpt lat="37.05354" lon="-3.36846">
        <ele>3250.8</ele>
        <time>2021-08-05 19:05:03</time>
      </trkpt>
      <trkpt lat="37.05354" lon="-3.36846">
        <ele>3250.8</ele>
        <time>2021-08-05 19:05:04</time>
      </trkpt>
      <trkpt lat="37.05354" lon="-3.36846">
        <ele>3251</ele>
        <time>2021-08-05 19:05:05</time>
      </trkpt>
      <trkpt lat="37.05354" lon="-3.36846">
        <ele>3251.2</ele>
        <time>2021-08-05 19:05:06</time>
      </trkpt>
      <trkpt lat="37.05354" lon="-3.36846">
        <ele>3251.4</ele>
        <time>2021-08-05 19:05:07</time>
      </trkpt>
      <trkpt lat="37.05354" lon="-3.36846">
        <ele>3251.4</ele>
        <time>2021-08-05 19:05:08</time>
      </trkpt>
      <trkpt lat="37.05354" lon="-3.36845">
        <ele>3251.4</ele>
        <time>2021-08-05 19:05:09</time>
      </trkpt>
      <trkpt lat="37.05354" lon="-3.36845">
        <ele>3251.4</ele>
        <time>2021-08-05 19:05:10</time>
      </trkpt>
      <trkpt lat="37.05354" lon="-3.36845">
        <ele>3251.2</ele>
        <time>2021-08-05 19:05:11</time>
      </trkpt>
      <trkpt lat="37.05354" lon="-3.36845">
        <ele>3251.2</ele>
        <time>2021-08-05 19:05:12</time>
      </trkpt>
      <trkpt lat="37.05354" lon="-3.36845">
        <ele>3251.2</ele>
        <time>2021-08-05 19:05:13</time>
      </trkpt>
      <trkpt lat="37.05355" lon="-3.36846">
        <ele>3251.2</ele>
        <time>2021-08-05 19:05:14</time>
      </trkpt>
      <trkpt lat="37.05355" lon="-3.36846">
        <ele>3251</ele>
        <time>2021-08-05 19:05:15</time>
      </trkpt>
      <trkpt lat="37.05354" lon="-3.36846">
        <ele>3251</ele>
        <time>2021-08-05 19:05:16</time>
      </trkpt>
      <trkpt lat="37.05354" lon="-3.36846">
        <ele>3250.8</ele>
        <time>2021-08-05 19:05:17</time>
      </trkpt>
      <trkpt lat="37.05354" lon="-3.36846">
        <ele>3250.8</ele>
        <time>2021-08-05 19:05:18</time>
      </trkpt>
      <trkpt lat="37.05354" lon="-3.36845">
        <ele>3250.6</ele>
        <time>2021-08-05 19:05:19</time>
      </trkpt>
      <trkpt lat="37.05353" lon="-3.36845">
        <ele>3250.6</ele>
        <time>2021-08-05 19:05:20</time>
      </trkpt>
      <trkpt lat="37.05353" lon="-3.36844">
        <ele>3250.6</ele>
        <time>2021-08-05 19:05:21</time>
      </trkpt>
      <trkpt lat="37.05352" lon="-3.36844">
        <ele>3250.6</ele>
        <time>2021-08-05 19:05:22</time>
      </trkpt>
      <trkpt lat="37.05353" lon="-3.36844">
        <ele>3250.6</ele>
        <time>2021-08-05 19:05:23</time>
      </trkpt>
      <trkpt lat="37.05353" lon="-3.36844">
        <ele>3250.6</ele>
        <time>2021-08-05 19:05:24</time>
      </trkpt>
      <trkpt lat="37.05353" lon="-3.36844">
        <ele>3250.6</ele>
        <time>2021-08-05 19:05:25</time>
      </trkpt>
      <trkpt lat="37.05353" lon="-3.36844">
        <ele>3250.8</ele>
        <time>2021-08-05 19:05:26</time>
      </trkpt>
      <trkpt lat="37.05352" lon="-3.36844">
        <ele>3250.6</ele>
        <time>2021-08-05 19:05:27</time>
      </trkpt>
      <trkpt lat="37.05352" lon="-3.36844">
        <ele>3250.6</ele>
        <time>2021-08-05 19:05:28</time>
      </trkpt>
      <trkpt lat="37.05352" lon="-3.36844">
        <ele>3250.8</ele>
        <time>2021-08-05 19:05:29</time>
      </trkpt>
      <trkpt lat="37.05352" lon="-3.36844">
        <ele>3251</ele>
        <time>2021-08-05 19:05:30</time>
      </trkpt>
      <trkpt lat="37.05352" lon="-3.36844">
        <ele>3250.8</ele>
        <time>2021-08-05 19:05:31</time>
      </trkpt>
      <trkpt lat="37.05353" lon="-3.36844">
        <ele>3250.6</ele>
        <time>2021-08-05 19:05:32</time>
      </trkpt>
      <trkpt lat="37.05352" lon="-3.36844">
        <ele>3250.6</ele>
        <time>2021-08-05 19:05:33</time>
      </trkpt>
      <trkpt lat="37.05352" lon="-3.36844">
        <ele>3250.8</ele>
        <time>2021-08-05 19:05:34</time>
      </trkpt>
      <trkpt lat="37.05352" lon="-3.36844">
        <ele>3250.8</ele>
        <time>2021-08-05 19:05:35</time>
      </trkpt>
      <trkpt lat="37.05352" lon="-3.36844">
        <ele>3250.6</ele>
        <time>2021-08-05 19:05:36</time>
      </trkpt>
      <trkpt lat="37.05352" lon="-3.36844">
        <ele>3250.8</ele>
        <time>2021-08-05 19:05:37</time>
      </trkpt>
      <trkpt lat="37.05352" lon="-3.36844">
        <ele>3251</ele>
        <time>2021-08-05 19:05:38</time>
      </trkpt>
      <trkpt lat="37.05352" lon="-3.36844">
        <ele>3251.2</ele>
        <time>2021-08-05 19:05:39</time>
      </trkpt>
      <trkpt lat="37.05352" lon="-3.36844">
        <ele>3251.2</ele>
        <time>2021-08-05 19:05:40</time>
      </trkpt>
      <trkpt lat="37.05351" lon="-3.36844">
        <ele>3251.2</ele>
        <time>2021-08-05 19:05:41</time>
      </trkpt>
      <trkpt lat="37.05351" lon="-3.36844">
        <ele>3251.2</ele>
        <time>2021-08-05 19:05:42</time>
      </trkpt>
      <trkpt lat="37.05351" lon="-3.36844">
        <ele>3251.2</ele>
        <time>2021-08-05 19:05:43</time>
      </trkpt>
      <trkpt lat="37.05351" lon="-3.36844">
        <ele>3251.2</ele>
        <time>2021-08-05 19:05:44</time>
      </trkpt>
      <trkpt lat="37.05351" lon="-3.36844">
        <ele>3251.2</ele>
        <time>2021-08-05 19:05:45</time>
      </trkpt>
      <trkpt lat="37.0535" lon="-3.36844">
        <ele>3251</ele>
        <time>2021-08-05 19:05:46</time>
      </trkpt>
      <trkpt lat="37.0535" lon="-3.36844">
        <ele>3250.8</ele>
        <time>2021-08-05 19:05:47</time>
      </trkpt>
      <trkpt lat="37.05349" lon="-3.36846">
        <ele>3250.8</ele>
        <time>2021-08-05 19:05:48</time>
      </trkpt>
      <trkpt lat="37.05349" lon="-3.36847">
        <ele>3250.8</ele>
        <time>2021-08-05 19:05:49</time>
      </trkpt>
      <trkpt lat="37.05349" lon="-3.36847">
        <ele>3250.8</ele>
        <time>2021-08-05 19:05:50</time>
      </trkpt>
      <trkpt lat="37.05349" lon="-3.36848">
        <ele>3250.8</ele>
        <time>2021-08-05 19:05:51</time>
      </trkpt>
      <trkpt lat="37.0535" lon="-3.36849">
        <ele>3250.8</ele>
        <time>2021-08-05 19:05:52</time>
      </trkpt>
      <trkpt lat="37.05349" lon="-3.3685">
        <ele>3250.6</ele>
        <time>2021-08-05 19:05:53</time>
      </trkpt>
      <trkpt lat="37.05349" lon="-3.36852">
        <ele>3250.6</ele>
        <time>2021-08-05 19:05:54</time>
      </trkpt>
      <trkpt lat="37.05349" lon="-3.36853">
        <ele>3250.6</ele>
        <time>2021-08-05 19:05:55</time>
      </trkpt>
      <trkpt lat="37.05349" lon="-3.36854">
        <ele>3250.4</ele>
        <time>2021-08-05 19:05:56</time>
      </trkpt>
      <trkpt lat="37.05349" lon="-3.36854">
        <ele>3250</ele>
        <time>2021-08-05 19:05:57</time>
      </trkpt>
      <trkpt lat="37.05349" lon="-3.36854">
        <ele>3249.8</ele>
        <time>2021-08-05 19:05:58</time>
      </trkpt>
      <trkpt lat="37.05348" lon="-3.36854">
        <ele>3249.8</ele>
        <time>2021-08-05 19:05:59</time>
      </trkpt>
      <trkpt lat="37.05347" lon="-3.36854">
        <ele>3249.8</ele>
        <time>2021-08-05 19:06:00</time>
      </trkpt>
      <trkpt lat="37.05347" lon="-3.36854">
        <ele>3249.6</ele>
        <time>2021-08-05 19:06:01</time>
      </trkpt>
      <trkpt lat="37.05346" lon="-3.36854">
        <ele>3249.6</ele>
        <time>2021-08-05 19:06:02</time>
      </trkpt>
      <trkpt lat="37.05346" lon="-3.36855">
        <ele>3249.6</ele>
        <time>2021-08-05 19:06:03</time>
      </trkpt>
      <trkpt lat="37.05345" lon="-3.36855">
        <ele>3249.6</ele>
        <time>2021-08-05 19:06:04</time>
      </trkpt>
      <trkpt lat="37.05344" lon="-3.36856">
        <ele>3249.2</ele>
        <time>2021-08-05 19:06:05</time>
      </trkpt>
      <trkpt lat="37.05344" lon="-3.36856">
        <ele>3249.2</ele>
        <time>2021-08-05 19:06:06</time>
      </trkpt>
      <trkpt lat="37.05344" lon="-3.36856">
        <ele>3249</ele>
        <time>2021-08-05 19:06:07</time>
      </trkpt>
      <trkpt lat="37.05343" lon="-3.36857">
        <ele>3249</ele>
        <time>2021-08-05 19:06:08</time>
      </trkpt>
      <trkpt lat="37.05343" lon="-3.36857">
        <ele>3249</ele>
        <time>2021-08-05 19:06:09</time>
      </trkpt>
      <trkpt lat="37.05342" lon="-3.36858">
        <ele>3248.6</ele>
        <time>2021-08-05 19:06:10</time>
      </trkpt>
      <trkpt lat="37.05342" lon="-3.36858">
        <ele>3248.6</ele>
        <time>2021-08-05 19:06:11</time>
      </trkpt>
      <trkpt lat="37.05341" lon="-3.36858">
        <ele>3248.4</ele>
        <time>2021-08-05 19:06:12</time>
      </trkpt>
      <trkpt lat="37.05342" lon="-3.36859">
        <ele>3248.4</ele>
        <time>2021-08-05 19:06:13</time>
      </trkpt>
      <trkpt lat="37.05341" lon="-3.36859">
        <ele>3248.4</ele>
        <time>2021-08-05 19:06:14</time>
      </trkpt>
      <trkpt lat="37.05341" lon="-3.36859">
        <ele>3248.2</ele>
        <time>2021-08-05 19:06:15</time>
      </trkpt>
      <trkpt lat="37.0534" lon="-3.36859">
        <ele>3248</ele>
        <time>2021-08-05 19:06:16</time>
      </trkpt>
      <trkpt lat="37.0534" lon="-3.3686">
        <ele>3248</ele>
        <time>2021-08-05 19:06:17</time>
      </trkpt>
      <trkpt lat="37.05341" lon="-3.3686">
        <ele>3247.8</ele>
        <time>2021-08-05 19:06:18</time>
      </trkpt>
      <trkpt lat="37.05341" lon="-3.3686">
        <ele>3247.6</ele>
        <time>2021-08-05 19:06:19</time>
      </trkpt>
      <trkpt lat="37.05341" lon="-3.36861">
        <ele>3247.6</ele>
        <time>2021-08-05 19:06:20</time>
      </trkpt>
      <trkpt lat="37.05341" lon="-3.36861">
        <ele>3247.6</ele>
        <time>2021-08-05 19:06:21</time>
      </trkpt>
      <trkpt lat="37.05341" lon="-3.36861">
        <ele>3247.4</ele>
        <time>2021-08-05 19:06:22</time>
      </trkpt>
      <trkpt lat="37.0534" lon="-3.36861">
        <ele>3247.4</ele>
        <time>2021-08-05 19:06:23</time>
      </trkpt>
      <trkpt lat="37.0534" lon="-3.36862">
        <ele>3247.2</ele>
        <time>2021-08-05 19:06:24</time>
      </trkpt>
      <trkpt lat="37.05339" lon="-3.36862">
        <ele>3247.2</ele>
        <time>2021-08-05 19:06:25</time>
      </trkpt>
      <trkpt lat="37.05338" lon="-3.36862">
        <ele>3246.8</ele>
        <time>2021-08-05 19:06:26</time>
      </trkpt>
      <trkpt lat="37.05337" lon="-3.36862">
        <ele>3246.4</ele>
        <time>2021-08-05 19:06:27</time>
      </trkpt>
      <trkpt lat="37.05337" lon="-3.36863">
        <ele>3246.4</ele>
        <time>2021-08-05 19:06:28</time>
      </trkpt>
      <trkpt lat="37.05336" lon="-3.36863">
        <ele>3246.2</ele>
        <time>2021-08-05 19:06:29</time>
      </trkpt>
      <trkpt lat="37.05335" lon="-3.36863">
        <ele>3246</ele>
        <time>2021-08-05 19:06:30</time>
      </trkpt>
      <trkpt lat="37.05335" lon="-3.36863">
        <ele>3246</ele>
        <time>2021-08-05 19:06:31</time>
      </trkpt>
      <trkpt lat="37.05334" lon="-3.36863">
        <ele>3246</ele>
        <time>2021-08-05 19:06:32</time>
      </trkpt>
      <trkpt lat="37.05334" lon="-3.36864">
        <ele>3246</ele>
        <time>2021-08-05 19:06:33</time>
      </trkpt>
      <trkpt lat="37.05333" lon="-3.36864">
        <ele>3245.8</ele>
        <time>2021-08-05 19:06:34</time>
      </trkpt>
      <trkpt lat="37.05333" lon="-3.36866">
        <ele>3245.6</ele>
        <time>2021-08-05 19:06:35</time>
      </trkpt>
      <trkpt lat="37.05333" lon="-3.36866">
        <ele>3245.2</ele>
        <time>2021-08-05 19:06:36</time>
      </trkpt>
      <trkpt lat="37.05333" lon="-3.36867">
        <ele>3245</ele>
        <time>2021-08-05 19:06:37</time>
      </trkpt>
      <trkpt lat="37.05334" lon="-3.36868">
        <ele>3245</ele>
        <time>2021-08-05 19:06:38</time>
      </trkpt>
      <trkpt lat="37.05334" lon="-3.36869">
        <ele>3245</ele>
        <time>2021-08-05 19:06:39</time>
      </trkpt>
      <trkpt lat="37.05333" lon="-3.36869">
        <ele>3245</ele>
        <time>2021-08-05 19:06:40</time>
      </trkpt>
      <trkpt lat="37.05333" lon="-3.3687">
        <ele>3245</ele>
        <time>2021-08-05 19:06:41</time>
      </trkpt>
      <trkpt lat="37.05332" lon="-3.36871">
        <ele>3245</ele>
        <time>2021-08-05 19:06:42</time>
      </trkpt>
      <trkpt lat="37.05332" lon="-3.36872">
        <ele>3244.8</ele>
        <time>2021-08-05 19:06:43</time>
      </trkpt>
      <trkpt lat="37.05331" lon="-3.36872">
        <ele>3244.6</ele>
        <time>2021-08-05 19:06:44</time>
      </trkpt>
      <trkpt lat="37.05331" lon="-3.36873">
        <ele>3244.6</ele>
        <time>2021-08-05 19:06:45</time>
      </trkpt>
      <trkpt lat="37.05331" lon="-3.36874">
        <ele>3244.4</ele>
        <time>2021-08-05 19:06:46</time>
      </trkpt>
      <trkpt lat="37.0533" lon="-3.36874">
        <ele>3244.4</ele>
        <time>2021-08-05 19:06:47</time>
      </trkpt>
      <trkpt lat="37.0533" lon="-3.36875">
        <ele>3244.4</ele>
        <time>2021-08-05 19:06:48</time>
      </trkpt>
      <trkpt lat="37.0533" lon="-3.36875">
        <ele>3244.2</ele>
        <time>2021-08-05 19:06:49</time>
      </trkpt>
      <trkpt lat="37.05329" lon="-3.36875">
        <ele>3244.2</ele>
        <time>2021-08-05 19:06:50</time>
      </trkpt>
      <trkpt lat="37.05329" lon="-3.36874">
        <ele>3244</ele>
        <time>2021-08-05 19:06:51</time>
      </trkpt>
      <trkpt lat="37.05329" lon="-3.36874">
        <ele>3244</ele>
        <time>2021-08-05 19:06:52</time>
      </trkpt>
      <trkpt lat="37.05329" lon="-3.36874">
        <ele>3244.4</ele>
        <time>2021-08-05 19:06:53</time>
      </trkpt>
      <trkpt lat="37.05328" lon="-3.36873">
        <ele>3244.4</ele>
        <time>2021-08-05 19:06:54</time>
      </trkpt>
      <trkpt lat="37.05328" lon="-3.36874">
        <ele>3244.4</ele>
        <time>2021-08-05 19:06:55</time>
      </trkpt>
      <trkpt lat="37.05328" lon="-3.36874">
        <ele>3244.6</ele>
        <time>2021-08-05 19:06:56</time>
      </trkpt>
      <trkpt lat="37.05328" lon="-3.36875">
        <ele>3244.6</ele>
        <time>2021-08-05 19:06:57</time>
      </trkpt>
      <trkpt lat="37.05327" lon="-3.36877">
        <ele>3244.8</ele>
        <time>2021-08-05 19:06:58</time>
      </trkpt>
      <trkpt lat="37.05327" lon="-3.36877">
        <ele>3244.8</ele>
        <time>2021-08-05 19:06:59</time>
      </trkpt>
      <trkpt lat="37.05327" lon="-3.36879">
        <ele>3244.8</ele>
        <time>2021-08-05 19:07:00</time>
      </trkpt>
      <trkpt lat="37.05328" lon="-3.36881">
        <ele>3244.8</ele>
        <time>2021-08-05 19:07:01</time>
      </trkpt>
      <trkpt lat="37.05328" lon="-3.36881">
        <ele>3244.8</ele>
        <time>2021-08-05 19:07:02</time>
      </trkpt>
      <trkpt lat="37.05328" lon="-3.36881">
        <ele>3245</ele>
        <time>2021-08-05 19:07:03</time>
      </trkpt>
      <trkpt lat="37.05328" lon="-3.36881">
        <ele>3244.8</ele>
        <time>2021-08-05 19:07:04</time>
      </trkpt>
      <trkpt lat="37.05328" lon="-3.36882">
        <ele>3244.8</ele>
        <time>2021-08-05 19:07:05</time>
      </trkpt>
      <trkpt lat="37.05327" lon="-3.36882">
        <ele>3244.8</ele>
        <time>2021-08-05 19:07:06</time>
      </trkpt>
      <trkpt lat="37.05327" lon="-3.36882">
        <ele>3244.6</ele>
        <time>2021-08-05 19:07:07</time>
      </trkpt>
      <trkpt lat="37.05326" lon="-3.36883">
        <ele>3244.8</ele>
        <time>2021-08-05 19:07:08</time>
      </trkpt>
      <trkpt lat="37.05325" lon="-3.36883">
        <ele>3244.8</ele>
        <time>2021-08-05 19:07:09</time>
      </trkpt>
      <trkpt lat="37.05325" lon="-3.36883">
        <ele>3244.6</ele>
        <time>2021-08-05 19:07:10</time>
      </trkpt>
      <trkpt lat="37.05324" lon="-3.36883">
        <ele>3244.8</ele>
        <time>2021-08-05 19:07:11</time>
      </trkpt>
      <trkpt lat="37.05324" lon="-3.36884">
        <ele>3244.4</ele>
        <time>2021-08-05 19:07:12</time>
      </trkpt>
      <trkpt lat="37.05323" lon="-3.36884">
        <ele>3244.2</ele>
        <time>2021-08-05 19:07:13</time>
      </trkpt>
      <trkpt lat="37.05323" lon="-3.36885">
        <ele>3244.2</ele>
        <time>2021-08-05 19:07:14</time>
      </trkpt>
      <trkpt lat="37.05322" lon="-3.36885">
        <ele>3244.2</ele>
        <time>2021-08-05 19:07:15</time>
      </trkpt>
      <trkpt lat="37.05322" lon="-3.36885">
        <ele>3244.2</ele>
        <time>2021-08-05 19:07:16</time>
      </trkpt>
      <trkpt lat="37.05321" lon="-3.36886">
        <ele>3244.2</ele>
        <time>2021-08-05 19:07:17</time>
      </trkpt>
      <trkpt lat="37.05322" lon="-3.36885">
        <ele>3244.2</ele>
        <time>2021-08-05 19:07:18</time>
      </trkpt>
      <trkpt lat="37.05321" lon="-3.36885">
        <ele>3244</ele>
        <time>2021-08-05 19:07:19</time>
      </trkpt>
      <trkpt lat="37.05321" lon="-3.36885">
        <ele>3243.8</ele>
        <time>2021-08-05 19:07:20</time>
      </trkpt>
      <trkpt lat="37.0532" lon="-3.36885">
        <ele>3243.6</ele>
        <time>2021-08-05 19:07:21</time>
      </trkpt>
      <trkpt lat="37.0532" lon="-3.36884">
        <ele>3243.4</ele>
        <time>2021-08-05 19:07:22</time>
      </trkpt>
      <trkpt lat="37.0532" lon="-3.36884">
        <ele>3243.2</ele>
        <time>2021-08-05 19:07:23</time>
      </trkpt>
      <trkpt lat="37.05319" lon="-3.36883">
        <ele>3243</ele>
        <time>2021-08-05 19:07:24</time>
      </trkpt>
      <trkpt lat="37.05319" lon="-3.36883">
        <ele>3243</ele>
        <time>2021-08-05 19:07:25</time>
      </trkpt>
      <trkpt lat="37.05318" lon="-3.36883">
        <ele>3243</ele>
        <time>2021-08-05 19:07:26</time>
      </trkpt>
      <trkpt lat="37.05318" lon="-3.36885">
        <ele>3243</ele>
        <time>2021-08-05 19:07:27</time>
      </trkpt>
      <trkpt lat="37.05318" lon="-3.36886">
        <ele>3243</ele>
        <time>2021-08-05 19:07:28</time>
      </trkpt>
      <trkpt lat="37.05318" lon="-3.36887">
        <ele>3242.8</ele>
        <time>2021-08-05 19:07:29</time>
      </trkpt>
      <trkpt lat="37.05318" lon="-3.36888">
        <ele>3242.4</ele>
        <time>2021-08-05 19:07:30</time>
      </trkpt>
      <trkpt lat="37.05318" lon="-3.36888">
        <ele>3242.4</ele>
        <time>2021-08-05 19:07:31</time>
      </trkpt>
      <trkpt lat="37.05317" lon="-3.3689">
        <ele>3242.4</ele>
        <time>2021-08-05 19:07:32</time>
      </trkpt>
      <trkpt lat="37.05317" lon="-3.36891">
        <ele>3242.2</ele>
        <time>2021-08-05 19:07:33</time>
      </trkpt>
      <trkpt lat="37.05317" lon="-3.36892">
        <ele>3242.2</ele>
        <time>2021-08-05 19:07:34</time>
      </trkpt>
      <trkpt lat="37.05316" lon="-3.36893">
        <ele>3242</ele>
        <time>2021-08-05 19:07:35</time>
      </trkpt>
      <trkpt lat="37.05315" lon="-3.36895">
        <ele>3242</ele>
        <time>2021-08-05 19:07:36</time>
      </trkpt>
      <trkpt lat="37.05315" lon="-3.36896">
        <ele>3241.6</ele>
        <time>2021-08-05 19:07:37</time>
      </trkpt>
      <trkpt lat="37.05314" lon="-3.36896">
        <ele>3241.6</ele>
        <time>2021-08-05 19:07:38</time>
      </trkpt>
      <trkpt lat="37.05313" lon="-3.36896">
        <ele>3241.4</ele>
        <time>2021-08-05 19:07:39</time>
      </trkpt>
      <trkpt lat="37.05312" lon="-3.36896">
        <ele>3241</ele>
        <time>2021-08-05 19:07:40</time>
      </trkpt>
      <trkpt lat="37.05312" lon="-3.36897">
        <ele>3240.4</ele>
        <time>2021-08-05 19:07:41</time>
      </trkpt>
      <trkpt lat="37.05311" lon="-3.36898">
        <ele>3240</ele>
        <time>2021-08-05 19:07:42</time>
      </trkpt>
      <trkpt lat="37.05311" lon="-3.36899">
        <ele>3239.8</ele>
        <time>2021-08-05 19:07:43</time>
      </trkpt>
      <trkpt lat="37.0531" lon="-3.36899">
        <ele>3239.6</ele>
        <time>2021-08-05 19:07:44</time>
      </trkpt>
      <trkpt lat="37.05309" lon="-3.36899">
        <ele>3239.6</ele>
        <time>2021-08-05 19:07:45</time>
      </trkpt>
      <trkpt lat="37.05308" lon="-3.369">
        <ele>3239.4</ele>
        <time>2021-08-05 19:07:46</time>
      </trkpt>
      <trkpt lat="37.05308" lon="-3.369">
        <ele>3239.4</ele>
        <time>2021-08-05 19:07:47</time>
      </trkpt>
      <trkpt lat="37.05307" lon="-3.369">
        <ele>3239.2</ele>
        <time>2021-08-05 19:07:48</time>
      </trkpt>
      <trkpt lat="37.05306" lon="-3.36899">
        <ele>3239.2</ele>
        <time>2021-08-05 19:07:49</time>
      </trkpt>
      <trkpt lat="37.05305" lon="-3.369">
        <ele>3239</ele>
        <time>2021-08-05 19:07:50</time>
      </trkpt>
      <trkpt lat="37.05304" lon="-3.369">
        <ele>3238.8</ele>
        <time>2021-08-05 19:07:51</time>
      </trkpt>
      <trkpt lat="37.05303" lon="-3.369">
        <ele>3238.6</ele>
        <time>2021-08-05 19:07:52</time>
      </trkpt>
      <trkpt lat="37.05303" lon="-3.36901">
        <ele>3238.6</ele>
        <time>2021-08-05 19:07:53</time>
      </trkpt>
      <trkpt lat="37.05302" lon="-3.36901">
        <ele>3238.4</ele>
        <time>2021-08-05 19:07:54</time>
      </trkpt>
      <trkpt lat="37.05301" lon="-3.36902">
        <ele>3238.2</ele>
        <time>2021-08-05 19:07:55</time>
      </trkpt>
      <trkpt lat="37.05301" lon="-3.36902">
        <ele>3238.2</ele>
        <time>2021-08-05 19:07:56</time>
      </trkpt>
      <trkpt lat="37.05301" lon="-3.36903">
        <ele>3238.2</ele>
        <time>2021-08-05 19:07:57</time>
      </trkpt>
      <trkpt lat="37.053" lon="-3.36903">
        <ele>3238</ele>
        <time>2021-08-05 19:07:58</time>
      </trkpt>
      <trkpt lat="37.053" lon="-3.36902">
        <ele>3237.8</ele>
        <time>2021-08-05 19:07:59</time>
      </trkpt>
      <trkpt lat="37.053" lon="-3.36902">
        <ele>3237.6</ele>
        <time>2021-08-05 19:08:00</time>
      </trkpt>
      <trkpt lat="37.053" lon="-3.36903">
        <ele>3237.4</ele>
        <time>2021-08-05 19:08:01</time>
      </trkpt>
      <trkpt lat="37.053" lon="-3.36903">
        <ele>3237.2</ele>
        <time>2021-08-05 19:08:02</time>
      </trkpt>
      <trkpt lat="37.05299" lon="-3.36903">
        <ele>3237</ele>
        <time>2021-08-05 19:08:03</time>
      </trkpt>
      <trkpt lat="37.05299" lon="-3.36903">
        <ele>3237</ele>
        <time>2021-08-05 19:08:04</time>
      </trkpt>
      <trkpt lat="37.05298" lon="-3.36903">
        <ele>3237</ele>
        <time>2021-08-05 19:08:05</time>
      </trkpt>
      <trkpt lat="37.05297" lon="-3.36903">
        <ele>3237</ele>
        <time>2021-08-05 19:08:06</time>
      </trkpt>
      <trkpt lat="37.05297" lon="-3.36902">
        <ele>3236.8</ele>
        <time>2021-08-05 19:08:07</time>
      </trkpt>
      <trkpt lat="37.05296" lon="-3.36902">
        <ele>3236.8</ele>
        <time>2021-08-05 19:08:08</time>
      </trkpt>
      <trkpt lat="37.05296" lon="-3.36901">
        <ele>3236.4</ele>
        <time>2021-08-05 19:08:09</time>
      </trkpt>
      <trkpt lat="37.05295" lon="-3.36901">
        <ele>3236.2</ele>
        <time>2021-08-05 19:08:10</time>
      </trkpt>
      <trkpt lat="37.05294" lon="-3.369">
        <ele>3236</ele>
        <time>2021-08-05 19:08:11</time>
      </trkpt>
      <trkpt lat="37.05293" lon="-3.36901">
        <ele>3236</ele>
        <time>2021-08-05 19:08:12</time>
      </trkpt>
      <trkpt lat="37.05293" lon="-3.36901">
        <ele>3235.8</ele>
        <time>2021-08-05 19:08:13</time>
      </trkpt>
      <trkpt lat="37.05292" lon="-3.36902">
        <ele>3235.6</ele>
        <time>2021-08-05 19:08:14</time>
      </trkpt>
      <trkpt lat="37.05292" lon="-3.36903">
        <ele>3235.6</ele>
        <time>2021-08-05 19:08:15</time>
      </trkpt>
      <trkpt lat="37.05292" lon="-3.36904">
        <ele>3235.6</ele>
        <time>2021-08-05 19:08:16</time>
      </trkpt>
      <trkpt lat="37.05291" lon="-3.36904">
        <ele>3235.4</ele>
        <time>2021-08-05 19:08:17</time>
      </trkpt>
      <trkpt lat="37.05291" lon="-3.36905">
        <ele>3235.2</ele>
        <time>2021-08-05 19:08:18</time>
      </trkpt>
      <trkpt lat="37.0529" lon="-3.36905">
        <ele>3235.2</ele>
        <time>2021-08-05 19:08:19</time>
      </trkpt>
      <trkpt lat="37.05289" lon="-3.36905">
        <ele>3234.8</ele>
        <time>2021-08-05 19:08:20</time>
      </trkpt>
      <trkpt lat="37.05288" lon="-3.36905">
        <ele>3234.6</ele>
        <time>2021-08-05 19:08:21</time>
      </trkpt>
      <trkpt lat="37.05286" lon="-3.36905">
        <ele>3234.6</ele>
        <time>2021-08-05 19:08:22</time>
      </trkpt>
      <trkpt lat="37.05286" lon="-3.36906">
        <ele>3234.4</ele>
        <time>2021-08-05 19:08:23</time>
      </trkpt>
      <trkpt lat="37.05285" lon="-3.36906">
        <ele>3234.2</ele>
        <time>2021-08-05 19:08:24</time>
      </trkpt>
      <trkpt lat="37.05284" lon="-3.36906">
        <ele>3234.2</ele>
        <time>2021-08-05 19:08:25</time>
      </trkpt>
      <trkpt lat="37.05283" lon="-3.36906">
        <ele>3234</ele>
        <time>2021-08-05 19:08:26</time>
      </trkpt>
      <trkpt lat="37.05282" lon="-3.36906">
        <ele>3234</ele>
        <time>2021-08-05 19:08:27</time>
      </trkpt>
      <trkpt lat="37.05281" lon="-3.36906">
        <ele>3233.8</ele>
        <time>2021-08-05 19:08:28</time>
      </trkpt>
      <trkpt lat="37.0528" lon="-3.36906">
        <ele>3233.8</ele>
        <time>2021-08-05 19:08:29</time>
      </trkpt>
      <trkpt lat="37.05279" lon="-3.36906">
        <ele>3233.8</ele>
        <time>2021-08-05 19:08:30</time>
      </trkpt>
      <trkpt lat="37.05279" lon="-3.36906">
        <ele>3233.6</ele>
        <time>2021-08-05 19:08:31</time>
      </trkpt>
      <trkpt lat="37.05278" lon="-3.36906">
        <ele>3233.2</ele>
        <time>2021-08-05 19:08:32</time>
      </trkpt>
      <trkpt lat="37.05277" lon="-3.36906">
        <ele>3233.2</ele>
        <time>2021-08-05 19:08:33</time>
      </trkpt>
      <trkpt lat="37.05276" lon="-3.36906">
        <ele>3233</ele>
        <time>2021-08-05 19:08:34</time>
      </trkpt>
      <trkpt lat="37.05275" lon="-3.36907">
        <ele>3233</ele>
        <time>2021-08-05 19:08:35</time>
      </trkpt>
      <trkpt lat="37.05274" lon="-3.36907">
        <ele>3233</ele>
        <time>2021-08-05 19:08:36</time>
      </trkpt>
      <trkpt lat="37.05273" lon="-3.36907">
        <ele>3233</ele>
        <time>2021-08-05 19:08:37</time>
      </trkpt>
      <trkpt lat="37.05272" lon="-3.36907">
        <ele>3233</ele>
        <time>2021-08-05 19:08:38</time>
      </trkpt>
      <trkpt lat="37.05271" lon="-3.36907">
        <ele>3233</ele>
        <time>2021-08-05 19:08:39</time>
      </trkpt>
      <trkpt lat="37.0527" lon="-3.36907">
        <ele>3233.2</ele>
        <time>2021-08-05 19:08:40</time>
      </trkpt>
      <trkpt lat="37.0527" lon="-3.36908">
        <ele>3233.2</ele>
        <time>2021-08-05 19:08:41</time>
      </trkpt>
      <trkpt lat="37.05269" lon="-3.36909">
        <ele>3233.2</ele>
        <time>2021-08-05 19:08:42</time>
      </trkpt>
      <trkpt lat="37.05268" lon="-3.3691">
        <ele>3233</ele>
        <time>2021-08-05 19:08:43</time>
      </trkpt>
      <trkpt lat="37.05268" lon="-3.3691">
        <ele>3232.8</ele>
        <time>2021-08-05 19:08:44</time>
      </trkpt>
      <trkpt lat="37.05267" lon="-3.36911">
        <ele>3232.6</ele>
        <time>2021-08-05 19:08:45</time>
      </trkpt>
      <trkpt lat="37.05266" lon="-3.36912">
        <ele>3232.4</ele>
        <time>2021-08-05 19:08:46</time>
      </trkpt>
      <trkpt lat="37.05265" lon="-3.36912">
        <ele>3232.4</ele>
        <time>2021-08-05 19:08:47</time>
      </trkpt>
      <trkpt lat="37.05265" lon="-3.36913">
        <ele>3232.2</ele>
        <time>2021-08-05 19:08:48</time>
      </trkpt>
      <trkpt lat="37.05264" lon="-3.36913">
        <ele>3232</ele>
        <time>2021-08-05 19:08:49</time>
      </trkpt>
      <trkpt lat="37.05263" lon="-3.36913">
        <ele>3232</ele>
        <time>2021-08-05 19:08:50</time>
      </trkpt>
      <trkpt lat="37.05262" lon="-3.36914">
        <ele>3231.8</ele>
        <time>2021-08-05 19:08:51</time>
      </trkpt>
      <trkpt lat="37.05261" lon="-3.36914">
        <ele>3231.6</ele>
        <time>2021-08-05 19:08:52</time>
      </trkpt>
      <trkpt lat="37.05261" lon="-3.36914">
        <ele>3231.6</ele>
        <time>2021-08-05 19:08:53</time>
      </trkpt>
      <trkpt lat="37.0526" lon="-3.36914">
        <ele>3231.6</ele>
        <time>2021-08-05 19:08:54</time>
      </trkpt>
      <trkpt lat="37.05259" lon="-3.36915">
        <ele>3231.6</ele>
        <time>2021-08-05 19:08:55</time>
      </trkpt>
      <trkpt lat="37.05258" lon="-3.36915">
        <ele>3231.4</ele>
        <time>2021-08-05 19:08:56</time>
      </trkpt>
      <trkpt lat="37.05257" lon="-3.36916">
        <ele>3231.2</ele>
        <time>2021-08-05 19:08:57</time>
      </trkpt>
      <trkpt lat="37.05257" lon="-3.36916">
        <ele>3231.2</ele>
        <time>2021-08-05 19:08:58</time>
      </trkpt>
      <trkpt lat="37.05256" lon="-3.36917">
        <ele>3231.2</ele>
        <time>2021-08-05 19:08:59</time>
      </trkpt>
      <trkpt lat="37.05255" lon="-3.36917">
        <ele>3231.2</ele>
        <time>2021-08-05 19:09:00</time>
      </trkpt>
      <trkpt lat="37.05255" lon="-3.36917">
        <ele>3231.2</ele>
        <time>2021-08-05 19:09:01</time>
      </trkpt>
      <trkpt lat="37.05255" lon="-3.36917">
        <ele>3231</ele>
        <time>2021-08-05 19:09:02</time>
      </trkpt>
      <trkpt lat="37.05255" lon="-3.36918">
        <ele>3230.8</ele>
        <time>2021-08-05 19:09:03</time>
      </trkpt>
      <trkpt lat="37.05255" lon="-3.36918">
        <ele>3230.8</ele>
        <time>2021-08-05 19:09:04</time>
      </trkpt>
      <trkpt lat="37.05255" lon="-3.36918">
        <ele>3230.4</ele>
        <time>2021-08-05 19:09:05</time>
      </trkpt>
      <trkpt lat="37.05255" lon="-3.36918">
        <ele>3230.4</ele>
        <time>2021-08-05 19:09:06</time>
      </trkpt>
      <trkpt lat="37.05256" lon="-3.36918">
        <ele>3230.2</ele>
        <time>2021-08-05 19:09:07</time>
      </trkpt>
      <trkpt lat="37.05256" lon="-3.36919">
        <ele>3230</ele>
        <time>2021-08-05 19:09:08</time>
      </trkpt>
      <trkpt lat="37.05256" lon="-3.36919">
        <ele>3230</ele>
        <time>2021-08-05 19:09:09</time>
      </trkpt>
      <trkpt lat="37.05256" lon="-3.36919">
        <ele>3230</ele>
        <time>2021-08-05 19:09:10</time>
      </trkpt>
      <trkpt lat="37.05256" lon="-3.36919">
        <ele>3230</ele>
        <time>2021-08-05 19:09:11</time>
      </trkpt>
      <trkpt lat="37.05255" lon="-3.36919">
        <ele>3230</ele>
        <time>2021-08-05 19:09:12</time>
      </trkpt>
      <trkpt lat="37.05255" lon="-3.3692">
        <ele>3230</ele>
        <time>2021-08-05 19:09:13</time>
      </trkpt>
      <trkpt lat="37.05255" lon="-3.36921">
        <ele>3229.8</ele>
        <time>2021-08-05 19:09:14</time>
      </trkpt>
      <trkpt lat="37.05254" lon="-3.36921">
        <ele>3229.8</ele>
        <time>2021-08-05 19:09:15</time>
      </trkpt>
      <trkpt lat="37.05253" lon="-3.36922">
        <ele>3230</ele>
        <time>2021-08-05 19:09:16</time>
      </trkpt>
      <trkpt lat="37.05252" lon="-3.36922">
        <ele>3230</ele>
        <time>2021-08-05 19:09:17</time>
      </trkpt>
      <trkpt lat="37.05251" lon="-3.36921">
        <ele>3230</ele>
        <time>2021-08-05 19:09:18</time>
      </trkpt>
      <trkpt lat="37.05251" lon="-3.36921">
        <ele>3230</ele>
        <time>2021-08-05 19:09:19</time>
      </trkpt>
      <trkpt lat="37.0525" lon="-3.36921">
        <ele>3230</ele>
        <time>2021-08-05 19:09:20</time>
      </trkpt>
      <trkpt lat="37.0525" lon="-3.36921">
        <ele>3230</ele>
        <time>2021-08-05 19:09:21</time>
      </trkpt>
      <trkpt lat="37.0525" lon="-3.36922">
        <ele>3229.8</ele>
        <time>2021-08-05 19:09:22</time>
      </trkpt>
      <trkpt lat="37.0525" lon="-3.36923">
        <ele>3229.8</ele>
        <time>2021-08-05 19:09:23</time>
      </trkpt>
      <trkpt lat="37.05249" lon="-3.36923">
        <ele>3229.6</ele>
        <time>2021-08-05 19:09:24</time>
      </trkpt>
      <trkpt lat="37.05249" lon="-3.36924">
        <ele>3229.6</ele>
        <time>2021-08-05 19:09:25</time>
      </trkpt>
      <trkpt lat="37.05248" lon="-3.36924">
        <ele>3229.6</ele>
        <time>2021-08-05 19:09:26</time>
      </trkpt>
      <trkpt lat="37.05248" lon="-3.36924">
        <ele>3229.6</ele>
        <time>2021-08-05 19:09:27</time>
      </trkpt>
      <trkpt lat="37.05248" lon="-3.36925">
        <ele>3229.4</ele>
        <time>2021-08-05 19:09:28</time>
      </trkpt>
      <trkpt lat="37.05247" lon="-3.36925">
        <ele>3229.4</ele>
        <time>2021-08-05 19:09:29</time>
      </trkpt>
      <trkpt lat="37.05247" lon="-3.36925">
        <ele>3229.4</ele>
        <time>2021-08-05 19:09:30</time>
      </trkpt>
      <trkpt lat="37.05246" lon="-3.36926">
        <ele>3229.4</ele>
        <time>2021-08-05 19:09:31</time>
      </trkpt>
      <trkpt lat="37.05246" lon="-3.36926">
        <ele>3229.4</ele>
        <time>2021-08-05 19:09:32</time>
      </trkpt>
      <trkpt lat="37.05245" lon="-3.36927">
        <ele>3229.4</ele>
        <time>2021-08-05 19:09:33</time>
      </trkpt>
      <trkpt lat="37.05245" lon="-3.36927">
        <ele>3229.2</ele>
        <time>2021-08-05 19:09:34</time>
      </trkpt>
      <trkpt lat="37.05245" lon="-3.36927">
        <ele>3229</ele>
        <time>2021-08-05 19:09:35</time>
      </trkpt>
      <trkpt lat="37.05245" lon="-3.36927">
        <ele>3229</ele>
        <time>2021-08-05 19:09:36</time>
      </trkpt>
      <trkpt lat="37.05245" lon="-3.36927">
        <ele>3228.8</ele>
        <time>2021-08-05 19:09:37</time>
      </trkpt>
      <trkpt lat="37.05245" lon="-3.36927">
        <ele>3228.6</ele>
        <time>2021-08-05 19:09:38</time>
      </trkpt>
      <trkpt lat="37.05245" lon="-3.36927">
        <ele>3228.6</ele>
        <time>2021-08-05 19:09:39</time>
      </trkpt>
      <trkpt lat="37.05245" lon="-3.36927">
        <ele>3228.6</ele>
        <time>2021-08-05 19:09:40</time>
      </trkpt>
      <trkpt lat="37.05245" lon="-3.36928">
        <ele>3228.4</ele>
        <time>2021-08-05 19:09:41</time>
      </trkpt>
      <trkpt lat="37.05245" lon="-3.36928">
        <ele>3228.4</ele>
        <time>2021-08-05 19:09:42</time>
      </trkpt>
      <trkpt lat="37.05244" lon="-3.36929">
        <ele>3228.2</ele>
        <time>2021-08-05 19:09:43</time>
      </trkpt>
      <trkpt lat="37.05243" lon="-3.36929">
        <ele>3228.2</ele>
        <time>2021-08-05 19:09:44</time>
      </trkpt>
      <trkpt lat="37.05243" lon="-3.3693">
        <ele>3228.2</ele>
        <time>2021-08-05 19:09:45</time>
      </trkpt>
      <trkpt lat="37.05242" lon="-3.36931">
        <ele>3228.2</ele>
        <time>2021-08-05 19:09:46</time>
      </trkpt>
      <trkpt lat="37.05242" lon="-3.36932">
        <ele>3228.2</ele>
        <time>2021-08-05 19:09:47</time>
      </trkpt>
      <trkpt lat="37.05242" lon="-3.36932">
        <ele>3228.2</ele>
        <time>2021-08-05 19:09:48</time>
      </trkpt>
      <trkpt lat="37.05242" lon="-3.36933">
        <ele>3228.2</ele>
        <time>2021-08-05 19:09:49</time>
      </trkpt>
      <trkpt lat="37.05241" lon="-3.36934">
        <ele>3228</ele>
        <time>2021-08-05 19:09:50</time>
      </trkpt>
      <trkpt lat="37.05241" lon="-3.36935">
        <ele>3227.8</ele>
        <time>2021-08-05 19:09:51</time>
      </trkpt>
      <trkpt lat="37.05241" lon="-3.36936">
        <ele>3227.6</ele>
        <time>2021-08-05 19:09:52</time>
      </trkpt>
      <trkpt lat="37.0524" lon="-3.36937">
        <ele>3227.4</ele>
        <time>2021-08-05 19:09:53</time>
      </trkpt>
      <trkpt lat="37.05239" lon="-3.36938">
        <ele>3227.4</ele>
        <time>2021-08-05 19:09:54</time>
      </trkpt>
      <trkpt lat="37.05239" lon="-3.36938">
        <ele>3227.2</ele>
        <time>2021-08-05 19:09:55</time>
      </trkpt>
      <trkpt lat="37.05238" lon="-3.36938">
        <ele>3227.2</ele>
        <time>2021-08-05 19:09:56</time>
      </trkpt>
      <trkpt lat="37.05237" lon="-3.36938">
        <ele>3227.2</ele>
        <time>2021-08-05 19:09:57</time>
      </trkpt>
      <trkpt lat="37.05237" lon="-3.36939">
        <ele>3227.2</ele>
        <time>2021-08-05 19:09:58</time>
      </trkpt>
      <trkpt lat="37.05237" lon="-3.3694">
        <ele>3227</ele>
        <time>2021-08-05 19:09:59</time>
      </trkpt>
      <trkpt lat="37.05237" lon="-3.36941">
        <ele>3227</ele>
        <time>2021-08-05 19:10:00</time>
      </trkpt>
      <trkpt lat="37.05239" lon="-3.3694">
        <ele>3227</ele>
        <time>2021-08-05 19:10:01</time>
      </trkpt>
      <trkpt lat="37.05238" lon="-3.3694">
        <ele>3227</ele>
        <time>2021-08-05 19:10:02</time>
      </trkpt>
      <trkpt lat="37.05237" lon="-3.3694">
        <ele>3226.8</ele>
        <time>2021-08-05 19:10:03</time>
      </trkpt>
      <trkpt lat="37.05236" lon="-3.36941">
        <ele>3226.8</ele>
        <time>2021-08-05 19:10:04</time>
      </trkpt>
      <trkpt lat="37.05235" lon="-3.36942">
        <ele>3226.6</ele>
        <time>2021-08-05 19:10:05</time>
      </trkpt>
      <trkpt lat="37.05235" lon="-3.36942">
        <ele>3226.6</ele>
        <time>2021-08-05 19:10:06</time>
      </trkpt>
      <trkpt lat="37.05234" lon="-3.36943">
        <ele>3226.6</ele>
        <time>2021-08-05 19:10:07</time>
      </trkpt>
      <trkpt lat="37.05234" lon="-3.36944">
        <ele>3226.6</ele>
        <time>2021-08-05 19:10:08</time>
      </trkpt>
      <trkpt lat="37.05233" lon="-3.36944">
        <ele>3226.6</ele>
        <time>2021-08-05 19:10:09</time>
      </trkpt>
      <trkpt lat="37.05233" lon="-3.36944">
        <ele>3226.4</ele>
        <time>2021-08-05 19:10:10</time>
      </trkpt>
      <trkpt lat="37.05233" lon="-3.36945">
        <ele>3226.4</ele>
        <time>2021-08-05 19:10:11</time>
      </trkpt>
      <trkpt lat="37.05231" lon="-3.36946">
        <ele>3226.2</ele>
        <time>2021-08-05 19:10:12</time>
      </trkpt>
      <trkpt lat="37.0523" lon="-3.36947">
        <ele>3226.2</ele>
        <time>2021-08-05 19:10:13</time>
      </trkpt>
      <trkpt lat="37.05229" lon="-3.36948">
        <ele>3226.2</ele>
        <time>2021-08-05 19:10:14</time>
      </trkpt>
      <trkpt lat="37.05228" lon="-3.36948">
        <ele>3226.2</ele>
        <time>2021-08-05 19:10:15</time>
      </trkpt>
      <trkpt lat="37.05227" lon="-3.36948">
        <ele>3226.2</ele>
        <time>2021-08-05 19:10:16</time>
      </trkpt>
      <trkpt lat="37.05226" lon="-3.36949">
        <ele>3226.2</ele>
        <time>2021-08-05 19:10:17</time>
      </trkpt>
      <trkpt lat="37.05226" lon="-3.3695">
        <ele>3226.4</ele>
        <time>2021-08-05 19:10:18</time>
      </trkpt>
      <trkpt lat="37.05225" lon="-3.36951">
        <ele>3226.4</ele>
        <time>2021-08-05 19:10:19</time>
      </trkpt>
      <trkpt lat="37.05225" lon="-3.36951">
        <ele>3226.4</ele>
        <time>2021-08-05 19:10:20</time>
      </trkpt>
      <trkpt lat="37.05224" lon="-3.36952">
        <ele>3226.4</ele>
        <time>2021-08-05 19:10:21</time>
      </trkpt>
      <trkpt lat="37.05224" lon="-3.36953">
        <ele>3226</ele>
        <time>2021-08-05 19:10:22</time>
      </trkpt>
      <trkpt lat="37.05224" lon="-3.36953">
        <ele>3225.8</ele>
        <time>2021-08-05 19:10:23</time>
      </trkpt>
      <trkpt lat="37.05223" lon="-3.36954">
        <ele>3225.6</ele>
        <time>2021-08-05 19:10:24</time>
      </trkpt>
      <trkpt lat="37.05223" lon="-3.36954">
        <ele>3225.4</ele>
        <time>2021-08-05 19:10:25</time>
      </trkpt>
      <trkpt lat="37.05222" lon="-3.36955">
        <ele>3225.2</ele>
        <time>2021-08-05 19:10:26</time>
      </trkpt>
      <trkpt lat="37.05221" lon="-3.36956">
        <ele>3225.2</ele>
        <time>2021-08-05 19:10:27</time>
      </trkpt>
      <trkpt lat="37.05221" lon="-3.36957">
        <ele>3225</ele>
        <time>2021-08-05 19:10:28</time>
      </trkpt>
      <trkpt lat="37.05221" lon="-3.36957">
        <ele>3224.4</ele>
        <time>2021-08-05 19:10:29</time>
      </trkpt>
      <trkpt lat="37.0522" lon="-3.36958">
        <ele>3224.2</ele>
        <time>2021-08-05 19:10:30</time>
      </trkpt>
      <trkpt lat="37.0522" lon="-3.36959">
        <ele>3224</ele>
        <time>2021-08-05 19:10:31</time>
      </trkpt>
      <trkpt lat="37.05219" lon="-3.36959">
        <ele>3224</ele>
        <time>2021-08-05 19:10:32</time>
      </trkpt>
      <trkpt lat="37.05219" lon="-3.3696">
        <ele>3224</ele>
        <time>2021-08-05 19:10:33</time>
      </trkpt>
      <trkpt lat="37.05218" lon="-3.3696">
        <ele>3223.8</ele>
        <time>2021-08-05 19:10:34</time>
      </trkpt>
      <trkpt lat="37.05217" lon="-3.36961">
        <ele>3223.8</ele>
        <time>2021-08-05 19:10:35</time>
      </trkpt>
      <trkpt lat="37.05217" lon="-3.36961">
        <ele>3223.8</ele>
        <time>2021-08-05 19:10:36</time>
      </trkpt>
      <trkpt lat="37.05216" lon="-3.36962">
        <ele>3223.6</ele>
        <time>2021-08-05 19:10:37</time>
      </trkpt>
      <trkpt lat="37.05216" lon="-3.36962">
        <ele>3223.6</ele>
        <time>2021-08-05 19:10:38</time>
      </trkpt>
      <trkpt lat="37.05215" lon="-3.36962">
        <ele>3223.4</ele>
        <time>2021-08-05 19:10:39</time>
      </trkpt>
      <trkpt lat="37.05214" lon="-3.36963">
        <ele>3223</ele>
        <time>2021-08-05 19:10:40</time>
      </trkpt>
      <trkpt lat="37.05213" lon="-3.36963">
        <ele>3222.8</ele>
        <time>2021-08-05 19:10:41</time>
      </trkpt>
      <trkpt lat="37.05213" lon="-3.36964">
        <ele>3222.4</ele>
        <time>2021-08-05 19:10:42</time>
      </trkpt>
      <trkpt lat="37.05212" lon="-3.36965">
        <ele>3222.2</ele>
        <time>2021-08-05 19:10:43</time>
      </trkpt>
      <trkpt lat="37.05211" lon="-3.36965">
        <ele>3221.8</ele>
        <time>2021-08-05 19:10:44</time>
      </trkpt>
      <trkpt lat="37.0521" lon="-3.36965">
        <ele>3222</ele>
        <time>2021-08-05 19:10:45</time>
      </trkpt>
      <trkpt lat="37.0521" lon="-3.36967">
        <ele>3222</ele>
        <time>2021-08-05 19:10:46</time>
      </trkpt>
      <trkpt lat="37.0521" lon="-3.36967">
        <ele>3221.8</ele>
        <time>2021-08-05 19:10:47</time>
      </trkpt>
      <trkpt lat="37.0521" lon="-3.36968">
        <ele>3221.6</ele>
        <time>2021-08-05 19:10:48</time>
      </trkpt>
      <trkpt lat="37.05211" lon="-3.36968">
        <ele>3221.6</ele>
        <time>2021-08-05 19:10:49</time>
      </trkpt>
      <trkpt lat="37.0521" lon="-3.36969">
        <ele>3221</ele>
        <time>2021-08-05 19:10:50</time>
      </trkpt>
      <trkpt lat="37.05209" lon="-3.36969">
        <ele>3220.8</ele>
        <time>2021-08-05 19:10:51</time>
      </trkpt>
      <trkpt lat="37.05207" lon="-3.36969">
        <ele>3220.4</ele>
        <time>2021-08-05 19:10:52</time>
      </trkpt>
      <trkpt lat="37.05206" lon="-3.36969">
        <ele>3220</ele>
        <time>2021-08-05 19:10:53</time>
      </trkpt>
      <trkpt lat="37.05205" lon="-3.3697">
        <ele>3219.8</ele>
        <time>2021-08-05 19:10:54</time>
      </trkpt>
      <trkpt lat="37.05204" lon="-3.3697">
        <ele>3219.6</ele>
        <time>2021-08-05 19:10:55</time>
      </trkpt>
      <trkpt lat="37.05203" lon="-3.3697">
        <ele>3219.4</ele>
        <time>2021-08-05 19:10:56</time>
      </trkpt>
      <trkpt lat="37.05202" lon="-3.3697">
        <ele>3219.4</ele>
        <time>2021-08-05 19:10:57</time>
      </trkpt>
      <trkpt lat="37.05201" lon="-3.3697">
        <ele>3219.2</ele>
        <time>2021-08-05 19:10:58</time>
      </trkpt>
      <trkpt lat="37.052" lon="-3.3697">
        <ele>3219.2</ele>
        <time>2021-08-05 19:10:59</time>
      </trkpt>
      <trkpt lat="37.05199" lon="-3.36971">
        <ele>3219</ele>
        <time>2021-08-05 19:11:00</time>
      </trkpt>
      <trkpt lat="37.05199" lon="-3.36973">
        <ele>3219</ele>
        <time>2021-08-05 19:11:01</time>
      </trkpt>
      <trkpt lat="37.05199" lon="-3.36974">
        <ele>3218.8</ele>
        <time>2021-08-05 19:11:02</time>
      </trkpt>
      <trkpt lat="37.05199" lon="-3.36976">
        <ele>3218.8</ele>
        <time>2021-08-05 19:11:03</time>
      </trkpt>
      <trkpt lat="37.05198" lon="-3.36977">
        <ele>3218.8</ele>
        <time>2021-08-05 19:11:04</time>
      </trkpt>
      <trkpt lat="37.05198" lon="-3.36978">
        <ele>3218.8</ele>
        <time>2021-08-05 19:11:05</time>
      </trkpt>
      <trkpt lat="37.05197" lon="-3.36979">
        <ele>3218.8</ele>
        <time>2021-08-05 19:11:06</time>
      </trkpt>
      <trkpt lat="37.05197" lon="-3.3698">
        <ele>3218.8</ele>
        <time>2021-08-05 19:11:07</time>
      </trkpt>
      <trkpt lat="37.05197" lon="-3.3698">
        <ele>3218.8</ele>
        <time>2021-08-05 19:11:08</time>
      </trkpt>
      <trkpt lat="37.05197" lon="-3.3698">
        <ele>3218.8</ele>
        <time>2021-08-05 19:11:09</time>
      </trkpt>
      <trkpt lat="37.05197" lon="-3.3698">
        <ele>3218.8</ele>
        <time>2021-08-05 19:11:10</time>
      </trkpt>
      <trkpt lat="37.05198" lon="-3.3698">
        <ele>3218.6</ele>
        <time>2021-08-05 19:11:11</time>
      </trkpt>
      <trkpt lat="37.05198" lon="-3.3698">
        <ele>3218.6</ele>
        <time>2021-08-05 19:11:12</time>
      </trkpt>
      <trkpt lat="37.05198" lon="-3.36981">
        <ele>3218.4</ele>
        <time>2021-08-05 19:11:13</time>
      </trkpt>
      <trkpt lat="37.05198" lon="-3.36983">
        <ele>3218.4</ele>
        <time>2021-08-05 19:11:14</time>
      </trkpt>
      <trkpt lat="37.05199" lon="-3.36982">
        <ele>3218.2</ele>
        <time>2021-08-05 19:11:15</time>
      </trkpt>
      <trkpt lat="37.052" lon="-3.36982">
        <ele>3218.2</ele>
        <time>2021-08-05 19:11:16</time>
      </trkpt>
      <trkpt lat="37.052" lon="-3.36982">
        <ele>3218.2</ele>
        <time>2021-08-05 19:11:17</time>
      </trkpt>
      <trkpt lat="37.052" lon="-3.36982">
        <ele>3218.2</ele>
        <time>2021-08-05 19:11:18</time>
      </trkpt>
      <trkpt lat="37.052" lon="-3.36982">
        <ele>3218.4</ele>
        <time>2021-08-05 19:11:19</time>
      </trkpt>
      <trkpt lat="37.05201" lon="-3.36982">
        <ele>3218.4</ele>
        <time>2021-08-05 19:11:20</time>
      </trkpt>
      <trkpt lat="37.05199" lon="-3.36981">
        <ele>3218.4</ele>
        <time>2021-08-05 19:11:21</time>
      </trkpt>
      <trkpt lat="37.05199" lon="-3.36981">
        <ele>3218.4</ele>
        <time>2021-08-05 19:11:22</time>
      </trkpt>
      <trkpt lat="37.05198" lon="-3.36982">
        <ele>3218.2</ele>
        <time>2021-08-05 19:11:23</time>
      </trkpt>
      <trkpt lat="37.05197" lon="-3.36982">
        <ele>3218</ele>
        <time>2021-08-05 19:11:24</time>
      </trkpt>
      <trkpt lat="37.05197" lon="-3.36982">
        <ele>3218</ele>
        <time>2021-08-05 19:11:25</time>
      </trkpt>
      <trkpt lat="37.05197" lon="-3.36982">
        <ele>3218</ele>
        <time>2021-08-05 19:11:26</time>
      </trkpt>
      <trkpt lat="37.05196" lon="-3.36982">
        <ele>3218</ele>
        <time>2021-08-05 19:11:27</time>
      </trkpt>
      <trkpt lat="37.05197" lon="-3.36982">
        <ele>3218</ele>
        <time>2021-08-05 19:11:28</time>
      </trkpt>
      <trkpt lat="37.05197" lon="-3.36982">
        <ele>3218</ele>
        <time>2021-08-05 19:11:29</time>
      </trkpt>
      <trkpt lat="37.05197" lon="-3.36982">
        <ele>3218.2</ele>
        <time>2021-08-05 19:11:30</time>
      </trkpt>
      <trkpt lat="37.05197" lon="-3.36982">
        <ele>3218.4</ele>
        <time>2021-08-05 19:11:31</time>
      </trkpt>
      <trkpt lat="37.05197" lon="-3.36981">
        <ele>3218.4</ele>
        <time>2021-08-05 19:11:32</time>
      </trkpt>
      <trkpt lat="37.05197" lon="-3.36981">
        <ele>3218.4</ele>
        <time>2021-08-05 19:11:33</time>
      </trkpt>
      <trkpt lat="37.05197" lon="-3.36981">
        <ele>3218.6</ele>
        <time>2021-08-05 19:11:34</time>
      </trkpt>
      <trkpt lat="37.05198" lon="-3.36981">
        <ele>3218.6</ele>
        <time>2021-08-05 19:11:35</time>
      </trkpt>
      <trkpt lat="37.05198" lon="-3.36981">
        <ele>3218.6</ele>
        <time>2021-08-05 19:11:36</time>
      </trkpt>
      <trkpt lat="37.052" lon="-3.36983">
        <ele>3218.6</ele>
        <time>2021-08-05 19:11:37</time>
      </trkpt>
      <trkpt lat="37.052" lon="-3.36983">
        <ele>3218.8</ele>
        <time>2021-08-05 19:11:38</time>
      </trkpt>
      <trkpt lat="37.052" lon="-3.36983">
        <ele>3218.8</ele>
        <time>2021-08-05 19:11:39</time>
      </trkpt>
      <trkpt lat="37.052" lon="-3.36984">
        <ele>3218.8</ele>
        <time>2021-08-05 19:11:40</time>
      </trkpt>
      <trkpt lat="37.052" lon="-3.36984">
        <ele>3218.8</ele>
        <time>2021-08-05 19:11:41</time>
      </trkpt>
      <trkpt lat="37.052" lon="-3.36984">
        <ele>3218.8</ele>
        <time>2021-08-05 19:11:42</time>
      </trkpt>
      <trkpt lat="37.052" lon="-3.36984">
        <ele>3218.8</ele>
        <time>2021-08-05 19:11:43</time>
      </trkpt>
      <trkpt lat="37.05199" lon="-3.36985">
        <ele>3218.8</ele>
        <time>2021-08-05 19:11:44</time>
      </trkpt>
      <trkpt lat="37.05198" lon="-3.36987">
        <ele>3218.6</ele>
        <time>2021-08-05 19:11:45</time>
      </trkpt>
      <trkpt lat="37.05197" lon="-3.36987">
        <ele>3218.6</ele>
        <time>2021-08-05 19:11:46</time>
      </trkpt>
      <trkpt lat="37.05197" lon="-3.36988">
        <ele>3218.4</ele>
        <time>2021-08-05 19:11:47</time>
      </trkpt>
      <trkpt lat="37.05197" lon="-3.36988">
        <ele>3218.2</ele>
        <time>2021-08-05 19:11:48</time>
      </trkpt>
      <trkpt lat="37.05197" lon="-3.36989">
        <ele>3217.8</ele>
        <time>2021-08-05 19:11:49</time>
      </trkpt>
      <trkpt lat="37.05197" lon="-3.36989">
        <ele>3217.6</ele>
        <time>2021-08-05 19:11:50</time>
      </trkpt>
      <trkpt lat="37.05197" lon="-3.36989">
        <ele>3217.4</ele>
        <time>2021-08-05 19:11:51</time>
      </trkpt>
      <trkpt lat="37.05197" lon="-3.36989">
        <ele>3217.4</ele>
        <time>2021-08-05 19:11:52</time>
      </trkpt>
      <trkpt lat="37.05197" lon="-3.36989">
        <ele>3217.2</ele>
        <time>2021-08-05 19:11:53</time>
      </trkpt>
      <trkpt lat="37.05197" lon="-3.36989">
        <ele>3217.2</ele>
        <time>2021-08-05 19:11:54</time>
      </trkpt>
      <trkpt lat="37.05197" lon="-3.3699">
        <ele>3217.2</ele>
        <time>2021-08-05 19:11:55</time>
      </trkpt>
      <trkpt lat="37.05196" lon="-3.3699">
        <ele>3217.2</ele>
        <time>2021-08-05 19:11:56</time>
      </trkpt>
      <trkpt lat="37.05196" lon="-3.36991">
        <ele>3217.2</ele>
        <time>2021-08-05 19:11:57</time>
      </trkpt>
      <trkpt lat="37.05195" lon="-3.36992">
        <ele>3217.2</ele>
        <time>2021-08-05 19:11:58</time>
      </trkpt>
      <trkpt lat="37.05195" lon="-3.36992">
        <ele>3216.8</ele>
        <time>2021-08-05 19:11:59</time>
      </trkpt>
      <trkpt lat="37.05195" lon="-3.36993">
        <ele>3216.4</ele>
        <time>2021-08-05 19:12:00</time>
      </trkpt>
      <trkpt lat="37.05195" lon="-3.36994">
        <ele>3216.2</ele>
        <time>2021-08-05 19:12:01</time>
      </trkpt>
      <trkpt lat="37.05194" lon="-3.36995">
        <ele>3216.2</ele>
        <time>2021-08-05 19:12:02</time>
      </trkpt>
      <trkpt lat="37.05194" lon="-3.36995">
        <ele>3216.2</ele>
        <time>2021-08-05 19:12:03</time>
      </trkpt>
      <trkpt lat="37.05193" lon="-3.36996">
        <ele>3216.2</ele>
        <time>2021-08-05 19:12:04</time>
      </trkpt>
      <trkpt lat="37.05192" lon="-3.36997">
        <ele>3216.2</ele>
        <time>2021-08-05 19:12:05</time>
      </trkpt>
      <trkpt lat="37.05192" lon="-3.36997">
        <ele>3216.2</ele>
        <time>2021-08-05 19:12:06</time>
      </trkpt>
      <trkpt lat="37.05192" lon="-3.36998">
        <ele>3216.2</ele>
        <time>2021-08-05 19:12:07</time>
      </trkpt>
      <trkpt lat="37.05192" lon="-3.36999">
        <ele>3216.2</ele>
        <time>2021-08-05 19:12:08</time>
      </trkpt>
      <trkpt lat="37.05192" lon="-3.36999">
        <ele>3216.2</ele>
        <time>2021-08-05 19:12:09</time>
      </trkpt>
      <trkpt lat="37.05191" lon="-3.37">
        <ele>3216.2</ele>
        <time>2021-08-05 19:12:10</time>
      </trkpt>
      <trkpt lat="37.05191" lon="-3.37001">
        <ele>3216</ele>
        <time>2021-08-05 19:12:11</time>
      </trkpt>
      <trkpt lat="37.0519" lon="-3.37001">
        <ele>3215.8</ele>
        <time>2021-08-05 19:12:12</time>
      </trkpt>
      <trkpt lat="37.0519" lon="-3.37001">
        <ele>3215.6</ele>
        <time>2021-08-05 19:12:13</time>
      </trkpt>
      <trkpt lat="37.05189" lon="-3.37002">
        <ele>3215.6</ele>
        <time>2021-08-05 19:12:14</time>
      </trkpt>
      <trkpt lat="37.05189" lon="-3.37003">
        <ele>3215.4</ele>
        <time>2021-08-05 19:12:15</time>
      </trkpt>
      <trkpt lat="37.05189" lon="-3.37004">
        <ele>3215.4</ele>
        <time>2021-08-05 19:12:16</time>
      </trkpt>
      <trkpt lat="37.05188" lon="-3.37005">
        <ele>3215.4</ele>
        <time>2021-08-05 19:12:17</time>
      </trkpt>
      <trkpt lat="37.05188" lon="-3.37006">
        <ele>3215.4</ele>
        <time>2021-08-05 19:12:18</time>
      </trkpt>
      <trkpt lat="37.05188" lon="-3.37007">
        <ele>3215.4</ele>
        <time>2021-08-05 19:12:19</time>
      </trkpt>
      <trkpt lat="37.05188" lon="-3.37008">
        <ele>3215.2</ele>
        <time>2021-08-05 19:12:20</time>
      </trkpt>
      <trkpt lat="37.05187" lon="-3.37009">
        <ele>3215.2</ele>
        <time>2021-08-05 19:12:21</time>
      </trkpt>
      <trkpt lat="37.05186" lon="-3.37009">
        <ele>3215</ele>
        <time>2021-08-05 19:12:22</time>
      </trkpt>
      <trkpt lat="37.05185" lon="-3.3701">
        <ele>3215</ele>
        <time>2021-08-05 19:12:23</time>
      </trkpt>
      <trkpt lat="37.05184" lon="-3.3701">
        <ele>3215</ele>
        <time>2021-08-05 19:12:24</time>
      </trkpt>
      <trkpt lat="37.05184" lon="-3.37011">
        <ele>3215</ele>
        <time>2021-08-05 19:12:25</time>
      </trkpt>
      <trkpt lat="37.05183" lon="-3.37011">
        <ele>3215</ele>
        <time>2021-08-05 19:12:26</time>
      </trkpt>
      <trkpt lat="37.05183" lon="-3.37012">
        <ele>3215</ele>
        <time>2021-08-05 19:12:27</time>
      </trkpt>
      <trkpt lat="37.05183" lon="-3.37012">
        <ele>3214.8</ele>
        <time>2021-08-05 19:12:28</time>
      </trkpt>
      <trkpt lat="37.05182" lon="-3.37013">
        <ele>3214.8</ele>
        <time>2021-08-05 19:12:29</time>
      </trkpt>
      <trkpt lat="37.05181" lon="-3.37013">
        <ele>3214.6</ele>
        <time>2021-08-05 19:12:30</time>
      </trkpt>
      <trkpt lat="37.0518" lon="-3.37013">
        <ele>3214.4</ele>
        <time>2021-08-05 19:12:31</time>
      </trkpt>
      <trkpt lat="37.05179" lon="-3.37013">
        <ele>3214.2</ele>
        <time>2021-08-05 19:12:32</time>
      </trkpt>
      <trkpt lat="37.05178" lon="-3.37013">
        <ele>3214.2</ele>
        <time>2021-08-05 19:12:33</time>
      </trkpt>
      <trkpt lat="37.05177" lon="-3.37013">
        <ele>3214</ele>
        <time>2021-08-05 19:12:34</time>
      </trkpt>
      <trkpt lat="37.05177" lon="-3.37013">
        <ele>3214</ele>
        <time>2021-08-05 19:12:35</time>
      </trkpt>
      <trkpt lat="37.05177" lon="-3.37013">
        <ele>3213.8</ele>
        <time>2021-08-05 19:12:36</time>
      </trkpt>
      <trkpt lat="37.05177" lon="-3.37013">
        <ele>3213.8</ele>
        <time>2021-08-05 19:12:37</time>
      </trkpt>
      <trkpt lat="37.05177" lon="-3.37014">
        <ele>3213.8</ele>
        <time>2021-08-05 19:12:38</time>
      </trkpt>
      <trkpt lat="37.05177" lon="-3.37014">
        <ele>3213.8</ele>
        <time>2021-08-05 19:12:39</time>
      </trkpt>
      <trkpt lat="37.05177" lon="-3.37014">
        <ele>3213.8</ele>
        <time>2021-08-05 19:12:40</time>
      </trkpt>
      <trkpt lat="37.05176" lon="-3.37015">
        <ele>3213.8</ele>
        <time>2021-08-05 19:12:41</time>
      </trkpt>
      <trkpt lat="37.05176" lon="-3.37016">
        <ele>3213.8</ele>
        <time>2021-08-05 19:12:42</time>
      </trkpt>
      <trkpt lat="37.05175" lon="-3.37016">
        <ele>3213.4</ele>
        <time>2021-08-05 19:12:43</time>
      </trkpt>
      <trkpt lat="37.05175" lon="-3.37017">
        <ele>3213.4</ele>
        <time>2021-08-05 19:12:44</time>
      </trkpt>
      <trkpt lat="37.05174" lon="-3.37018">
        <ele>3213.4</ele>
        <time>2021-08-05 19:12:45</time>
      </trkpt>
      <trkpt lat="37.05173" lon="-3.37019">
        <ele>3213.2</ele>
        <time>2021-08-05 19:12:46</time>
      </trkpt>
      <trkpt lat="37.05173" lon="-3.3702">
        <ele>3213.2</ele>
        <time>2021-08-05 19:12:47</time>
      </trkpt>
      <trkpt lat="37.05172" lon="-3.37021">
        <ele>3213.2</ele>
        <time>2021-08-05 19:12:48</time>
      </trkpt>
      <trkpt lat="37.05172" lon="-3.37021">
        <ele>3213.4</ele>
        <time>2021-08-05 19:12:49</time>
      </trkpt>
      <trkpt lat="37.05171" lon="-3.37022">
        <ele>3213.6</ele>
        <time>2021-08-05 19:12:50</time>
      </trkpt>
      <trkpt lat="37.0517" lon="-3.37022">
        <ele>3213.6</ele>
        <time>2021-08-05 19:12:51</time>
      </trkpt>
      <trkpt lat="37.0517" lon="-3.37023">
        <ele>3213.6</ele>
        <time>2021-08-05 19:12:52</time>
      </trkpt>
      <trkpt lat="37.05169" lon="-3.37024">
        <ele>3213.6</ele>
        <time>2021-08-05 19:12:53</time>
      </trkpt>
      <trkpt lat="37.05169" lon="-3.37024">
        <ele>3213.6</ele>
        <time>2021-08-05 19:12:54</time>
      </trkpt>
      <trkpt lat="37.05168" lon="-3.37024">
        <ele>3213.4</ele>
        <time>2021-08-05 19:12:55</time>
      </trkpt>
      <trkpt lat="37.05168" lon="-3.37026">
        <ele>3213.4</ele>
        <time>2021-08-05 19:12:56</time>
      </trkpt>
      <trkpt lat="37.05167" lon="-3.37026">
        <ele>3213.4</ele>
        <time>2021-08-05 19:12:57</time>
      </trkpt>
      <trkpt lat="37.05167" lon="-3.37027">
        <ele>3213.4</ele>
        <time>2021-08-05 19:12:58</time>
      </trkpt>
      <trkpt lat="37.05167" lon="-3.37027">
        <ele>3213.2</ele>
        <time>2021-08-05 19:12:59</time>
      </trkpt>
      <trkpt lat="37.05165" lon="-3.37027">
        <ele>3213.2</ele>
        <time>2021-08-05 19:13:00</time>
      </trkpt>
      <trkpt lat="37.05164" lon="-3.37027">
        <ele>3213</ele>
        <time>2021-08-05 19:13:01</time>
      </trkpt>
      <trkpt lat="37.05163" lon="-3.37028">
        <ele>3213</ele>
        <time>2021-08-05 19:13:02</time>
      </trkpt>
      <trkpt lat="37.05163" lon="-3.37028">
        <ele>3213</ele>
        <time>2021-08-05 19:13:03</time>
      </trkpt>
      <trkpt lat="37.05162" lon="-3.37029">
        <ele>3212.8</ele>
        <time>2021-08-05 19:13:04</time>
      </trkpt>
      <trkpt lat="37.05162" lon="-3.3703">
        <ele>3212.8</ele>
        <time>2021-08-05 19:13:05</time>
      </trkpt>
      <trkpt lat="37.05162" lon="-3.3703">
        <ele>3212.4</ele>
        <time>2021-08-05 19:13:06</time>
      </trkpt>
      <trkpt lat="37.05163" lon="-3.37031">
        <ele>3212.2</ele>
        <time>2021-08-05 19:13:07</time>
      </trkpt>
      <trkpt lat="37.05163" lon="-3.37031">
        <ele>3212.2</ele>
        <time>2021-08-05 19:13:08</time>
      </trkpt>
      <trkpt lat="37.05163" lon="-3.37031">
        <ele>3212.2</ele>
        <time>2021-08-05 19:13:09</time>
      </trkpt>
      <trkpt lat="37.05162" lon="-3.37031">
        <ele>3212.2</ele>
        <time>2021-08-05 19:13:10</time>
      </trkpt>
      <trkpt lat="37.05161" lon="-3.37032">
        <ele>3212.2</ele>
        <time>2021-08-05 19:13:11</time>
      </trkpt>
      <trkpt lat="37.05161" lon="-3.37033">
        <ele>3212.2</ele>
        <time>2021-08-05 19:13:12</time>
      </trkpt>
      <trkpt lat="37.05161" lon="-3.37034">
        <ele>3212.2</ele>
        <time>2021-08-05 19:13:13</time>
      </trkpt>
      <trkpt lat="37.05161" lon="-3.37034">
        <ele>3212.2</ele>
        <time>2021-08-05 19:13:14</time>
      </trkpt>
      <trkpt lat="37.0516" lon="-3.37033">
        <ele>3212</ele>
        <time>2021-08-05 19:13:15</time>
      </trkpt>
      <trkpt lat="37.0516" lon="-3.37034">
        <ele>3212</ele>
        <time>2021-08-05 19:13:16</time>
      </trkpt>
      <trkpt lat="37.05159" lon="-3.37034">
        <ele>3211.8</ele>
        <time>2021-08-05 19:13:17</time>
      </trkpt>
      <trkpt lat="37.05157" lon="-3.37034">
        <ele>3211.8</ele>
        <time>2021-08-05 19:13:18</time>
      </trkpt>
      <trkpt lat="37.05157" lon="-3.37035">
        <ele>3211.8</ele>
        <time>2021-08-05 19:13:19</time>
      </trkpt>
      <trkpt lat="37.05157" lon="-3.37036">
        <ele>3212</ele>
        <time>2021-08-05 19:13:20</time>
      </trkpt>
      <trkpt lat="37.05156" lon="-3.37037">
        <ele>3212</ele>
        <time>2021-08-05 19:13:21</time>
      </trkpt>
      <trkpt lat="37.05155" lon="-3.37037">
        <ele>3212</ele>
        <time>2021-08-05 19:13:22</time>
      </trkpt>
      <trkpt lat="37.05154" lon="-3.37037">
        <ele>3212</ele>
        <time>2021-08-05 19:13:23</time>
      </trkpt>
      <trkpt lat="37.05153" lon="-3.37037">
        <ele>3212</ele>
        <time>2021-08-05 19:13:24</time>
      </trkpt>
      <trkpt lat="37.05152" lon="-3.37037">
        <ele>3212</ele>
        <time>2021-08-05 19:13:25</time>
      </trkpt>
      <trkpt lat="37.05151" lon="-3.37037">
        <ele>3211.8</ele>
        <time>2021-08-05 19:13:26</time>
      </trkpt>
      <trkpt lat="37.05151" lon="-3.37037">
        <ele>3211.8</ele>
        <time>2021-08-05 19:13:27</time>
      </trkpt>
      <trkpt lat="37.05149" lon="-3.37037">
        <ele>3211.6</ele>
        <time>2021-08-05 19:13:28</time>
      </trkpt>
      <trkpt lat="37.05147" lon="-3.37037">
        <ele>3211.8</ele>
        <time>2021-08-05 19:13:29</time>
      </trkpt>
      <trkpt lat="37.05146" lon="-3.37037">
        <ele>3211.8</ele>
        <time>2021-08-05 19:13:30</time>
      </trkpt>
      <trkpt lat="37.05146" lon="-3.37037">
        <ele>3211.6</ele>
        <time>2021-08-05 19:13:31</time>
      </trkpt>
      <trkpt lat="37.05146" lon="-3.37037">
        <ele>3211.6</ele>
        <time>2021-08-05 19:13:32</time>
      </trkpt>
      <trkpt lat="37.05146" lon="-3.37037">
        <ele>3211.6</ele>
        <time>2021-08-05 19:13:33</time>
      </trkpt>
      <trkpt lat="37.05145" lon="-3.37037">
        <ele>3211.6</ele>
        <time>2021-08-05 19:13:34</time>
      </trkpt>
      <trkpt lat="37.05146" lon="-3.37037">
        <ele>3211.4</ele>
        <time>2021-08-05 19:13:35</time>
      </trkpt>
      <trkpt lat="37.05145" lon="-3.37036">
        <ele>3211.4</ele>
        <time>2021-08-05 19:13:36</time>
      </trkpt>
      <trkpt lat="37.05145" lon="-3.37037">
        <ele>3211.4</ele>
        <time>2021-08-05 19:13:37</time>
      </trkpt>
      <trkpt lat="37.05144" lon="-3.37037">
        <ele>3211.4</ele>
        <time>2021-08-05 19:13:38</time>
      </trkpt>
      <trkpt lat="37.05144" lon="-3.37037">
        <ele>3211.6</ele>
        <time>2021-08-05 19:13:39</time>
      </trkpt>
      <trkpt lat="37.05143" lon="-3.37038">
        <ele>3211.6</ele>
        <time>2021-08-05 19:13:40</time>
      </trkpt>
      <trkpt lat="37.05143" lon="-3.37039">
        <ele>3211.6</ele>
        <time>2021-08-05 19:13:41</time>
      </trkpt>
      <trkpt lat="37.05142" lon="-3.37039">
        <ele>3211.4</ele>
        <time>2021-08-05 19:13:42</time>
      </trkpt>
      <trkpt lat="37.05142" lon="-3.37039">
        <ele>3211.4</ele>
        <time>2021-08-05 19:13:43</time>
      </trkpt>
      <trkpt lat="37.05141" lon="-3.3704">
        <ele>3211.2</ele>
        <time>2021-08-05 19:13:44</time>
      </trkpt>
      <trkpt lat="37.05141" lon="-3.3704">
        <ele>3211.2</ele>
        <time>2021-08-05 19:13:45</time>
      </trkpt>
      <trkpt lat="37.0514" lon="-3.3704">
        <ele>3211.2</ele>
        <time>2021-08-05 19:13:46</time>
      </trkpt>
      <trkpt lat="37.0514" lon="-3.37041">
        <ele>3211.2</ele>
        <time>2021-08-05 19:13:47</time>
      </trkpt>
      <trkpt lat="37.0514" lon="-3.37041">
        <ele>3211.2</ele>
        <time>2021-08-05 19:13:48</time>
      </trkpt>
      <trkpt lat="37.05139" lon="-3.37042">
        <ele>3211.2</ele>
        <time>2021-08-05 19:13:49</time>
      </trkpt>
      <trkpt lat="37.05139" lon="-3.37043">
        <ele>3211.2</ele>
        <time>2021-08-05 19:13:50</time>
      </trkpt>
      <trkpt lat="37.05139" lon="-3.37043">
        <ele>3211.2</ele>
        <time>2021-08-05 19:13:51</time>
      </trkpt>
      <trkpt lat="37.05138" lon="-3.37044">
        <ele>3211.4</ele>
        <time>2021-08-05 19:13:52</time>
      </trkpt>
      <trkpt lat="37.05137" lon="-3.37044">
        <ele>3211.4</ele>
        <time>2021-08-05 19:13:53</time>
      </trkpt>
      <trkpt lat="37.05137" lon="-3.37045">
        <ele>3211.4</ele>
        <time>2021-08-05 19:13:54</time>
      </trkpt>
      <trkpt lat="37.05137" lon="-3.37046">
        <ele>3211.4</ele>
        <time>2021-08-05 19:13:55</time>
      </trkpt>
      <trkpt lat="37.05138" lon="-3.37048">
        <ele>3211.4</ele>
        <time>2021-08-05 19:13:56</time>
      </trkpt>
      <trkpt lat="37.05138" lon="-3.37049">
        <ele>3211.4</ele>
        <time>2021-08-05 19:13:57</time>
      </trkpt>
      <trkpt lat="37.05138" lon="-3.3705">
        <ele>3211.4</ele>
        <time>2021-08-05 19:13:58</time>
      </trkpt>
      <trkpt lat="37.05137" lon="-3.3705">
        <ele>3211.2</ele>
        <time>2021-08-05 19:13:59</time>
      </trkpt>
      <trkpt lat="37.05137" lon="-3.3705">
        <ele>3211.2</ele>
        <time>2021-08-05 19:14:00</time>
      </trkpt>
      <trkpt lat="37.05136" lon="-3.3705">
        <ele>3211.2</ele>
        <time>2021-08-05 19:14:01</time>
      </trkpt>
      <trkpt lat="37.05135" lon="-3.3705">
        <ele>3211.2</ele>
        <time>2021-08-05 19:14:02</time>
      </trkpt>
      <trkpt lat="37.05134" lon="-3.3705">
        <ele>3211.2</ele>
        <time>2021-08-05 19:14:03</time>
      </trkpt>
      <trkpt lat="37.05133" lon="-3.37051">
        <ele>3211</ele>
        <time>2021-08-05 19:14:04</time>
      </trkpt>
      <trkpt lat="37.05133" lon="-3.37051">
        <ele>3211</ele>
        <time>2021-08-05 19:14:05</time>
      </trkpt>
      <trkpt lat="37.05132" lon="-3.37051">
        <ele>3211</ele>
        <time>2021-08-05 19:14:06</time>
      </trkpt>
      <trkpt lat="37.05132" lon="-3.37051">
        <ele>3210.8</ele>
        <time>2021-08-05 19:14:07</time>
      </trkpt>
      <trkpt lat="37.05131" lon="-3.37052">
        <ele>3210.4</ele>
        <time>2021-08-05 19:14:08</time>
      </trkpt>
      <trkpt lat="37.0513" lon="-3.37053">
        <ele>3210</ele>
        <time>2021-08-05 19:14:09</time>
      </trkpt>
      <trkpt lat="37.0513" lon="-3.37053">
        <ele>3210</ele>
        <time>2021-08-05 19:14:10</time>
      </trkpt>
      <trkpt lat="37.0513" lon="-3.37054">
        <ele>3210</ele>
        <time>2021-08-05 19:14:11</time>
      </trkpt>
      <trkpt lat="37.05129" lon="-3.37054">
        <ele>3210</ele>
        <time>2021-08-05 19:14:12</time>
      </trkpt>
      <trkpt lat="37.0513" lon="-3.37055">
        <ele>3210.2</ele>
        <time>2021-08-05 19:14:13</time>
      </trkpt>
      <trkpt lat="37.05131" lon="-3.37056">
        <ele>3210.2</ele>
        <time>2021-08-05 19:14:14</time>
      </trkpt>
      <trkpt lat="37.05132" lon="-3.37057">
        <ele>3210.2</ele>
        <time>2021-08-05 19:14:15</time>
      </trkpt>
      <trkpt lat="37.05132" lon="-3.37057">
        <ele>3210.2</ele>
        <time>2021-08-05 19:14:16</time>
      </trkpt>
      <trkpt lat="37.05133" lon="-3.37057">
        <ele>3210.2</ele>
        <time>2021-08-05 19:14:17</time>
      </trkpt>
      <trkpt lat="37.05134" lon="-3.37057">
        <ele>3210.4</ele>
        <time>2021-08-05 19:14:18</time>
      </trkpt>
      <trkpt lat="37.05133" lon="-3.37056">
        <ele>3210.2</ele>
        <time>2021-08-05 19:14:19</time>
      </trkpt>
      <trkpt lat="37.05134" lon="-3.37055">
        <ele>3210.4</ele>
        <time>2021-08-05 19:14:20</time>
      </trkpt>
      <trkpt lat="37.05134" lon="-3.37054">
        <ele>3210.4</ele>
        <time>2021-08-05 19:14:21</time>
      </trkpt>
      <trkpt lat="37.05134" lon="-3.37055">
        <ele>3210.4</ele>
        <time>2021-08-05 19:14:22</time>
      </trkpt>
      <trkpt lat="37.05133" lon="-3.37055">
        <ele>3210.2</ele>
        <time>2021-08-05 19:14:23</time>
      </trkpt>
      <trkpt lat="37.05133" lon="-3.37055">
        <ele>3210.2</ele>
        <time>2021-08-05 19:14:24</time>
      </trkpt>
      <trkpt lat="37.05132" lon="-3.37056">
        <ele>3210.2</ele>
        <time>2021-08-05 19:14:25</time>
      </trkpt>
      <trkpt lat="37.05131" lon="-3.37056">
        <ele>3210.2</ele>
        <time>2021-08-05 19:14:26</time>
      </trkpt>
      <trkpt lat="37.05131" lon="-3.37057">
        <ele>3210</ele>
        <time>2021-08-05 19:14:27</time>
      </trkpt>
      <trkpt lat="37.0513" lon="-3.37057">
        <ele>3209.8</ele>
        <time>2021-08-05 19:14:28</time>
      </trkpt>
      <trkpt lat="37.05129" lon="-3.37058">
        <ele>3209.6</ele>
        <time>2021-08-05 19:14:29</time>
      </trkpt>
      <trkpt lat="37.05129" lon="-3.37059">
        <ele>3209.4</ele>
        <time>2021-08-05 19:14:30</time>
      </trkpt>
      <trkpt lat="37.05129" lon="-3.37059">
        <ele>3209.2</ele>
        <time>2021-08-05 19:14:31</time>
      </trkpt>
      <trkpt lat="37.05129" lon="-3.3706">
        <ele>3209.2</ele>
        <time>2021-08-05 19:14:32</time>
      </trkpt>
      <trkpt lat="37.05128" lon="-3.37061">
        <ele>3209</ele>
        <time>2021-08-05 19:14:33</time>
      </trkpt>
      <trkpt lat="37.05128" lon="-3.37062">
        <ele>3208.6</ele>
        <time>2021-08-05 19:14:34</time>
      </trkpt>
      <trkpt lat="37.05127" lon="-3.37062">
        <ele>3208.4</ele>
        <time>2021-08-05 19:14:35</time>
      </trkpt>
      <trkpt lat="37.05127" lon="-3.37063">
        <ele>3208.4</ele>
        <time>2021-08-05 19:14:36</time>
      </trkpt>
      <trkpt lat="37.05126" lon="-3.37063">
        <ele>3208.2</ele>
        <time>2021-08-05 19:14:37</time>
      </trkpt>
      <trkpt lat="37.05125" lon="-3.37062">
        <ele>3208.2</ele>
        <time>2021-08-05 19:14:38</time>
      </trkpt>
      <trkpt lat="37.05124" lon="-3.37062">
        <ele>3208</ele>
        <time>2021-08-05 19:14:39</time>
      </trkpt>
      <trkpt lat="37.05123" lon="-3.37061">
        <ele>3207.6</ele>
        <time>2021-08-05 19:14:40</time>
      </trkpt>
      <trkpt lat="37.05122" lon="-3.37061">
        <ele>3207.4</ele>
        <time>2021-08-05 19:14:41</time>
      </trkpt>
      <trkpt lat="37.05121" lon="-3.3706">
        <ele>3207.2</ele>
        <time>2021-08-05 19:14:42</time>
      </trkpt>
      <trkpt lat="37.05121" lon="-3.37059">
        <ele>3207</ele>
        <time>2021-08-05 19:14:43</time>
      </trkpt>
      <trkpt lat="37.05121" lon="-3.37059">
        <ele>3206.8</ele>
        <time>2021-08-05 19:14:44</time>
      </trkpt>
      <trkpt lat="37.0512" lon="-3.37059">
        <ele>3206.6</ele>
        <time>2021-08-05 19:14:45</time>
      </trkpt>
      <trkpt lat="37.0512" lon="-3.37058">
        <ele>3206.4</ele>
        <time>2021-08-05 19:14:46</time>
      </trkpt>
      <trkpt lat="37.05119" lon="-3.37058">
        <ele>3206.2</ele>
        <time>2021-08-05 19:14:47</time>
      </trkpt>
      <trkpt lat="37.05119" lon="-3.37058">
        <ele>3206.2</ele>
        <time>2021-08-05 19:14:48</time>
      </trkpt>
      <trkpt lat="37.05118" lon="-3.37058">
        <ele>3206.2</ele>
        <time>2021-08-05 19:14:49</time>
      </trkpt>
      <trkpt lat="37.05118" lon="-3.37057">
        <ele>3206.2</ele>
        <time>2021-08-05 19:14:50</time>
      </trkpt>
      <trkpt lat="37.05117" lon="-3.37057">
        <ele>3206.2</ele>
        <time>2021-08-05 19:14:51</time>
      </trkpt>
      <trkpt lat="37.05117" lon="-3.37057">
        <ele>3206</ele>
        <time>2021-08-05 19:14:52</time>
      </trkpt>
      <trkpt lat="37.05117" lon="-3.37058">
        <ele>3206</ele>
        <time>2021-08-05 19:14:53</time>
      </trkpt>
      <trkpt lat="37.05116" lon="-3.37057">
        <ele>3206</ele>
        <time>2021-08-05 19:14:54</time>
      </trkpt>
      <trkpt lat="37.05116" lon="-3.37058">
        <ele>3206.2</ele>
        <time>2021-08-05 19:14:55</time>
      </trkpt>
      <trkpt lat="37.05116" lon="-3.37058">
        <ele>3206.2</ele>
        <time>2021-08-05 19:14:56</time>
      </trkpt>
      <trkpt lat="37.05116" lon="-3.37058">
        <ele>3206.2</ele>
        <time>2021-08-05 19:14:57</time>
      </trkpt>
      <trkpt lat="37.05116" lon="-3.37057">
        <ele>3206</ele>
        <time>2021-08-05 19:14:58</time>
      </trkpt>
      <trkpt lat="37.05116" lon="-3.37057">
        <ele>3206</ele>
        <time>2021-08-05 19:14:59</time>
      </trkpt>
      <trkpt lat="37.05115" lon="-3.37057">
        <ele>3206</ele>
        <time>2021-08-05 19:15:00</time>
      </trkpt>
      <trkpt lat="37.05115" lon="-3.37056">
        <ele>3206</ele>
        <time>2021-08-05 19:15:01</time>
      </trkpt>
      <trkpt lat="37.05116" lon="-3.37056">
        <ele>3205.8</ele>
        <time>2021-08-05 19:15:02</time>
      </trkpt>
      <trkpt lat="37.05116" lon="-3.37056">
        <ele>3205.8</ele>
        <time>2021-08-05 19:15:03</time>
      </trkpt>
      <trkpt lat="37.05115" lon="-3.37056">
        <ele>3205.6</ele>
        <time>2021-08-05 19:15:04</time>
      </trkpt>
      <trkpt lat="37.05115" lon="-3.37056">
        <ele>3205.8</ele>
        <time>2021-08-05 19:15:05</time>
      </trkpt>
      <trkpt lat="37.05115" lon="-3.37056">
        <ele>3205.6</ele>
        <time>2021-08-05 19:15:06</time>
      </trkpt>
      <trkpt lat="37.05114" lon="-3.37056">
        <ele>3205.4</ele>
        <time>2021-08-05 19:15:07</time>
      </trkpt>
      <trkpt lat="37.05114" lon="-3.37056">
        <ele>3205.4</ele>
        <time>2021-08-05 19:15:08</time>
      </trkpt>
      <trkpt lat="37.05113" lon="-3.37055">
        <ele>3205.4</ele>
        <time>2021-08-05 19:15:09</time>
      </trkpt>
      <trkpt lat="37.05112" lon="-3.37057">
        <ele>3205.4</ele>
        <time>2021-08-05 19:15:10</time>
      </trkpt>
      <trkpt lat="37.05112" lon="-3.37057">
        <ele>3205.2</ele>
        <time>2021-08-05 19:15:11</time>
      </trkpt>
      <trkpt lat="37.05112" lon="-3.37056">
        <ele>3205.2</ele>
        <time>2021-08-05 19:15:12</time>
      </trkpt>
      <trkpt lat="37.05112" lon="-3.37056">
        <ele>3205</ele>
        <time>2021-08-05 19:15:13</time>
      </trkpt>
      <trkpt lat="37.05112" lon="-3.37056">
        <ele>3204.8</ele>
        <time>2021-08-05 19:15:14</time>
      </trkpt>
      <trkpt lat="37.05112" lon="-3.37056">
        <ele>3204.6</ele>
        <time>2021-08-05 19:15:15</time>
      </trkpt>
      <trkpt lat="37.05112" lon="-3.37055">
        <ele>3204.6</ele>
        <time>2021-08-05 19:15:16</time>
      </trkpt>
      <trkpt lat="37.05112" lon="-3.37055">
        <ele>3204.4</ele>
        <time>2021-08-05 19:15:17</time>
      </trkpt>
      <trkpt lat="37.05112" lon="-3.37054">
        <ele>3204.4</ele>
        <time>2021-08-05 19:15:18</time>
      </trkpt>
      <trkpt lat="37.05112" lon="-3.37054">
        <ele>3204.4</ele>
        <time>2021-08-05 19:15:19</time>
      </trkpt>
      <trkpt lat="37.05112" lon="-3.37054">
        <ele>3204.4</ele>
        <time>2021-08-05 19:15:20</time>
      </trkpt>
      <trkpt lat="37.05112" lon="-3.37054">
        <ele>3204.4</ele>
        <time>2021-08-05 19:15:21</time>
      </trkpt>
      <trkpt lat="37.05111" lon="-3.37054">
        <ele>3204.4</ele>
        <time>2021-08-05 19:15:22</time>
      </trkpt>
      <trkpt lat="37.05111" lon="-3.37054">
        <ele>3204.4</ele>
        <time>2021-08-05 19:15:23</time>
      </trkpt>
      <trkpt lat="37.05112" lon="-3.37055">
        <ele>3204.4</ele>
        <time>2021-08-05 19:15:24</time>
      </trkpt>
      <trkpt lat="37.05112" lon="-3.37056">
        <ele>3204.4</ele>
        <time>2021-08-05 19:15:25</time>
      </trkpt>
      <trkpt lat="37.05112" lon="-3.37056">
        <ele>3204.6</ele>
        <time>2021-08-05 19:15:26</time>
      </trkpt>
      <trkpt lat="37.05112" lon="-3.37057">
        <ele>3204.6</ele>
        <time>2021-08-05 19:15:27</time>
      </trkpt>
      <trkpt lat="37.05112" lon="-3.37057">
        <ele>3204.6</ele>
        <time>2021-08-05 19:15:28</time>
      </trkpt>
      <trkpt lat="37.05112" lon="-3.37058">
        <ele>3204.6</ele>
        <time>2021-08-05 19:15:29</time>
      </trkpt>
      <trkpt lat="37.05112" lon="-3.37057">
        <ele>3204.6</ele>
        <time>2021-08-05 19:15:30</time>
      </trkpt>
      <trkpt lat="37.05112" lon="-3.37058">
        <ele>3204.6</ele>
        <time>2021-08-05 19:15:31</time>
      </trkpt>
      <trkpt lat="37.05112" lon="-3.37058">
        <ele>3204.6</ele>
        <time>2021-08-05 19:15:32</time>
      </trkpt>
      <trkpt lat="37.05112" lon="-3.37058">
        <ele>3204.6</ele>
        <time>2021-08-05 19:15:33</time>
      </trkpt>
      <trkpt lat="37.05113" lon="-3.37058">
        <ele>3204.6</ele>
        <time>2021-08-05 19:15:34</time>
      </trkpt>
      <trkpt lat="37.05113" lon="-3.37058">
        <ele>3204.6</ele>
        <time>2021-08-05 19:15:35</time>
      </trkpt>
      <trkpt lat="37.05113" lon="-3.37058">
        <ele>3204.4</ele>
        <time>2021-08-05 19:15:36</time>
      </trkpt>
      <trkpt lat="37.05113" lon="-3.37058">
        <ele>3204.4</ele>
        <time>2021-08-05 19:15:37</time>
      </trkpt>
      <trkpt lat="37.05113" lon="-3.37058">
        <ele>3204.2</ele>
        <time>2021-08-05 19:15:38</time>
      </trkpt>
      <trkpt lat="37.05113" lon="-3.37058">
        <ele>3204.2</ele>
        <time>2021-08-05 19:15:39</time>
      </trkpt>
      <trkpt lat="37.05113" lon="-3.37058">
        <ele>3204.2</ele>
        <time>2021-08-05 19:15:40</time>
      </trkpt>
      <trkpt lat="37.05113" lon="-3.37058">
        <ele>3204.2</ele>
        <time>2021-08-05 19:15:41</time>
      </trkpt>
      <trkpt lat="37.05113" lon="-3.37058">
        <ele>3204.4</ele>
        <time>2021-08-05 19:15:42</time>
      </trkpt>
      <trkpt lat="37.05113" lon="-3.37057">
        <ele>3204.4</ele>
        <time>2021-08-05 19:15:43</time>
      </trkpt>
      <trkpt lat="37.05113" lon="-3.37057">
        <ele>3204.4</ele>
        <time>2021-08-05 19:15:44</time>
      </trkpt>
      <trkpt lat="37.05113" lon="-3.37057">
        <ele>3204.4</ele>
        <time>2021-08-05 19:15:45</time>
      </trkpt>
      <trkpt lat="37.05113" lon="-3.37057">
        <ele>3204.4</ele>
        <time>2021-08-05 19:15:46</time>
      </trkpt>
      <trkpt lat="37.05113" lon="-3.37057">
        <ele>3204.4</ele>
        <time>2021-08-05 19:15:47</time>
      </trkpt>
      <trkpt lat="37.05113" lon="-3.37057">
        <ele>3204.4</ele>
        <time>2021-08-05 19:15:48</time>
      </trkpt>
      <trkpt lat="37.05113" lon="-3.37058">
        <ele>3204.4</ele>
        <time>2021-08-05 19:15:49</time>
      </trkpt>
      <trkpt lat="37.05113" lon="-3.37058">
        <ele>3204.6</ele>
        <time>2021-08-05 19:15:50</time>
      </trkpt>
      <trkpt lat="37.05113" lon="-3.37058">
        <ele>3204.6</ele>
        <time>2021-08-05 19:15:51</time>
      </trkpt>
      <trkpt lat="37.05113" lon="-3.37058">
        <ele>3204.6</ele>
        <time>2021-08-05 19:15:52</time>
      </trkpt>
      <trkpt lat="37.05113" lon="-3.37058">
        <ele>3204.6</ele>
        <time>2021-08-05 19:15:53</time>
      </trkpt>
      <trkpt lat="37.05113" lon="-3.37058">
        <ele>3204.6</ele>
        <time>2021-08-05 19:15:54</time>
      </trkpt>
      <trkpt lat="37.05112" lon="-3.37058">
        <ele>3204.4</ele>
        <time>2021-08-05 19:15:55</time>
      </trkpt>
      <trkpt lat="37.05112" lon="-3.37058">
        <ele>3204.4</ele>
        <time>2021-08-05 19:15:56</time>
      </trkpt>
      <trkpt lat="37.05112" lon="-3.37058">
        <ele>3204.4</ele>
        <time>2021-08-05 19:15:57</time>
      </trkpt>
      <trkpt lat="37.05113" lon="-3.37058">
        <ele>3204.4</ele>
        <time>2021-08-05 19:15:58</time>
      </trkpt>
      <trkpt lat="37.05113" lon="-3.37058">
        <ele>3204.8</ele>
        <time>2021-08-05 19:15:59</time>
      </trkpt>
      <trkpt lat="37.05112" lon="-3.37058">
        <ele>3204.6</ele>
        <time>2021-08-05 19:16:00</time>
      </trkpt>
      <trkpt lat="37.05112" lon="-3.37057">
        <ele>3204.6</ele>
        <time>2021-08-05 19:16:01</time>
      </trkpt>
      <trkpt lat="37.05112" lon="-3.37057">
        <ele>3204.6</ele>
        <time>2021-08-05 19:16:02</time>
      </trkpt>
      <trkpt lat="37.05112" lon="-3.37057">
        <ele>3204.6</ele>
        <time>2021-08-05 19:16:03</time>
      </trkpt>
      <trkpt lat="37.05112" lon="-3.37057">
        <ele>3204.6</ele>
        <time>2021-08-05 19:16:04</time>
      </trkpt>
      <trkpt lat="37.05112" lon="-3.37057">
        <ele>3204.6</ele>
        <time>2021-08-05 19:16:05</time>
      </trkpt>
      <trkpt lat="37.05112" lon="-3.37057">
        <ele>3204.6</ele>
        <time>2021-08-05 19:16:06</time>
      </trkpt>
      <trkpt lat="37.05113" lon="-3.37057">
        <ele>3204.6</ele>
        <time>2021-08-05 19:16:07</time>
      </trkpt>
      <trkpt lat="37.05113" lon="-3.37057">
        <ele>3204.6</ele>
        <time>2021-08-05 19:16:08</time>
      </trkpt>
      <trkpt lat="37.05113" lon="-3.37058">
        <ele>3204.4</ele>
        <time>2021-08-05 19:16:09</time>
      </trkpt>
      <trkpt lat="37.05113" lon="-3.37058">
        <ele>3204.6</ele>
        <time>2021-08-05 19:16:10</time>
      </trkpt>
      <trkpt lat="37.05113" lon="-3.37059">
        <ele>3204.8</ele>
        <time>2021-08-05 19:16:11</time>
      </trkpt>
      <trkpt lat="37.05114" lon="-3.37059">
        <ele>3204.8</ele>
        <time>2021-08-05 19:16:12</time>
      </trkpt>
      <trkpt lat="37.05114" lon="-3.37059">
        <ele>3204.8</ele>
        <time>2021-08-05 19:16:13</time>
      </trkpt>
      <trkpt lat="37.05114" lon="-3.37059">
        <ele>3204.8</ele>
        <time>2021-08-05 19:16:14</time>
      </trkpt>
      <trkpt lat="37.05114" lon="-3.37059">
        <ele>3204.8</ele>
        <time>2021-08-05 19:16:15</time>
      </trkpt>
      <trkpt lat="37.05114" lon="-3.37059">
        <ele>3204.8</ele>
        <time>2021-08-05 19:16:16</time>
      </trkpt>
      <trkpt lat="37.05114" lon="-3.37059">
        <ele>3204.8</ele>
        <time>2021-08-05 19:16:17</time>
      </trkpt>
      <trkpt lat="37.05114" lon="-3.3706">
        <ele>3204.8</ele>
        <time>2021-08-05 19:16:18</time>
      </trkpt>
      <trkpt lat="37.05114" lon="-3.3706">
        <ele>3204.8</ele>
        <time>2021-08-05 19:16:19</time>
      </trkpt>
      <trkpt lat="37.05114" lon="-3.3706">
        <ele>3204.8</ele>
        <time>2021-08-05 19:16:20</time>
      </trkpt>
      <trkpt lat="37.05114" lon="-3.3706">
        <ele>3204.8</ele>
        <time>2021-08-05 19:16:21</time>
      </trkpt>
      <trkpt lat="37.05114" lon="-3.3706">
        <ele>3204.8</ele>
        <time>2021-08-05 19:16:22</time>
      </trkpt>
      <trkpt lat="37.05115" lon="-3.3706">
        <ele>3204.8</ele>
        <time>2021-08-05 19:16:23</time>
      </trkpt>
      <trkpt lat="37.05115" lon="-3.37061">
        <ele>3204.8</ele>
        <time>2021-08-05 19:16:24</time>
      </trkpt>
      <trkpt lat="37.05115" lon="-3.37061">
        <ele>3204.8</ele>
        <time>2021-08-05 19:16:25</time>
      </trkpt>
      <trkpt lat="37.05115" lon="-3.37062">
        <ele>3204.8</ele>
        <time>2021-08-05 19:16:26</time>
      </trkpt>
      <trkpt lat="37.05115" lon="-3.37061">
        <ele>3204.8</ele>
        <time>2021-08-05 19:16:27</time>
      </trkpt>
      <trkpt lat="37.05116" lon="-3.37062">
        <ele>3204.8</ele>
        <time>2021-08-05 19:16:28</time>
      </trkpt>
      <trkpt lat="37.05116" lon="-3.37062">
        <ele>3204.8</ele>
        <time>2021-08-05 19:16:29</time>
      </trkpt>
      <trkpt lat="37.05116" lon="-3.37061">
        <ele>3204.8</ele>
        <time>2021-08-05 19:16:30</time>
      </trkpt>
      <trkpt lat="37.05116" lon="-3.37061">
        <ele>3204.8</ele>
        <time>2021-08-05 19:16:31</time>
      </trkpt>
      <trkpt lat="37.05116" lon="-3.37061">
        <ele>3204.8</ele>
        <time>2021-08-05 19:16:32</time>
      </trkpt>
      <trkpt lat="37.05117" lon="-3.37061">
        <ele>3204.8</ele>
        <time>2021-08-05 19:16:33</time>
      </trkpt>
      <trkpt lat="37.05118" lon="-3.3706">
        <ele>3204.8</ele>
        <time>2021-08-05 19:16:34</time>
      </trkpt>
      <trkpt lat="37.05118" lon="-3.3706">
        <ele>3204.8</ele>
        <time>2021-08-05 19:16:35</time>
      </trkpt>
      <trkpt lat="37.05118" lon="-3.3706">
        <ele>3204.8</ele>
        <time>2021-08-05 19:16:36</time>
      </trkpt>
      <trkpt lat="37.05119" lon="-3.37059">
        <ele>3204.8</ele>
        <time>2021-08-05 19:16:37</time>
      </trkpt>
      <trkpt lat="37.05119" lon="-3.37059">
        <ele>3204.8</ele>
        <time>2021-08-05 19:16:38</time>
      </trkpt>
      <trkpt lat="37.05119" lon="-3.37059">
        <ele>3204.8</ele>
        <time>2021-08-05 19:16:39</time>
      </trkpt>
      <trkpt lat="37.05119" lon="-3.37059">
        <ele>3204.8</ele>
        <time>2021-08-05 19:16:40</time>
      </trkpt>
      <trkpt lat="37.05119" lon="-3.37059">
        <ele>3204.8</ele>
        <time>2021-08-05 19:16:41</time>
      </trkpt>
      <trkpt lat="37.05119" lon="-3.37059">
        <ele>3204.8</ele>
        <time>2021-08-05 19:16:42</time>
      </trkpt>
      <trkpt lat="37.05119" lon="-3.37059">
        <ele>3204.8</ele>
        <time>2021-08-05 19:16:43</time>
      </trkpt>
      <trkpt lat="37.05119" lon="-3.37059">
        <ele>3204.8</ele>
        <time>2021-08-05 19:16:44</time>
      </trkpt>
      <trkpt lat="37.05118" lon="-3.37059">
        <ele>3204.8</ele>
        <time>2021-08-05 19:16:45</time>
      </trkpt>
      <trkpt lat="37.05118" lon="-3.37059">
        <ele>3204.8</ele>
        <time>2021-08-05 19:16:46</time>
      </trkpt>
      <trkpt lat="37.05119" lon="-3.37059">
        <ele>3204.8</ele>
        <time>2021-08-05 19:16:47</time>
      </trkpt>
      <trkpt lat="37.05119" lon="-3.37058">
        <ele>3204.8</ele>
        <time>2021-08-05 19:16:48</time>
      </trkpt>
      <trkpt lat="37.05119" lon="-3.37057">
        <ele>3204.8</ele>
        <time>2021-08-05 19:16:49</time>
      </trkpt>
      <trkpt lat="37.05119" lon="-3.37057">
        <ele>3204.8</ele>
        <time>2021-08-05 19:16:50</time>
      </trkpt>
      <trkpt lat="37.05119" lon="-3.37058">
        <ele>3204.8</ele>
        <time>2021-08-05 19:16:51</time>
      </trkpt>
      <trkpt lat="37.05119" lon="-3.37058">
        <ele>3204.8</ele>
        <time>2021-08-05 19:16:52</time>
      </trkpt>
      <trkpt lat="37.05119" lon="-3.37057">
        <ele>3204.8</ele>
        <time>2021-08-05 19:16:53</time>
      </trkpt>
      <trkpt lat="37.05119" lon="-3.37058">
        <ele>3204.8</ele>
        <time>2021-08-05 19:16:54</time>
      </trkpt>
      <trkpt lat="37.05119" lon="-3.37058">
        <ele>3204.8</ele>
        <time>2021-08-05 19:16:55</time>
      </trkpt>
      <trkpt lat="37.05118" lon="-3.37057">
        <ele>3204.8</ele>
        <time>2021-08-05 19:16:56</time>
      </trkpt>
      <trkpt lat="37.05118" lon="-3.37058">
        <ele>3204.8</ele>
        <time>2021-08-05 19:16:57</time>
      </trkpt>
      <trkpt lat="37.05118" lon="-3.37058">
        <ele>3204.8</ele>
        <time>2021-08-05 19:16:58</time>
      </trkpt>
      <trkpt lat="37.05117" lon="-3.37059">
        <ele>3204.8</ele>
        <time>2021-08-05 19:16:59</time>
      </trkpt>
      <trkpt lat="37.05116" lon="-3.3706">
        <ele>3204.8</ele>
        <time>2021-08-05 19:17:00</time>
      </trkpt>
      <trkpt lat="37.05116" lon="-3.3706">
        <ele>3204.8</ele>
        <time>2021-08-05 19:17:01</time>
      </trkpt>
      <trkpt lat="37.05116" lon="-3.3706">
        <ele>3204.8</ele>
        <time>2021-08-05 19:17:02</time>
      </trkpt>
      <trkpt lat="37.05116" lon="-3.3706">
        <ele>3204.8</ele>
        <time>2021-08-05 19:17:03</time>
      </trkpt>
      <trkpt lat="37.05116" lon="-3.3706">
        <ele>3204.8</ele>
        <time>2021-08-05 19:17:04</time>
      </trkpt>
      <trkpt lat="37.05115" lon="-3.37061">
        <ele>3204.8</ele>
        <time>2021-08-05 19:17:05</time>
      </trkpt>
      <trkpt lat="37.05115" lon="-3.37061">
        <ele>3204.8</ele>
        <time>2021-08-05 19:17:06</time>
      </trkpt>
      <trkpt lat="37.05115" lon="-3.37061">
        <ele>3204.8</ele>
        <time>2021-08-05 19:17:07</time>
      </trkpt>
      <trkpt lat="37.05115" lon="-3.37061">
        <ele>3204.8</ele>
        <time>2021-08-05 19:17:08</time>
      </trkpt>
      <trkpt lat="37.05115" lon="-3.37061">
        <ele>3204.8</ele>
        <time>2021-08-05 19:17:09</time>
      </trkpt>
      <trkpt lat="37.05115" lon="-3.37061">
        <ele>3204.8</ele>
        <time>2021-08-05 19:17:10</time>
      </trkpt>
      <trkpt lat="37.05115" lon="-3.37061">
        <ele>3204.8</ele>
        <time>2021-08-05 19:17:11</time>
      </trkpt>
      <trkpt lat="37.05115" lon="-3.37061">
        <ele>3204.8</ele>
        <time>2021-08-05 19:17:12</time>
      </trkpt>
      <trkpt lat="37.05115" lon="-3.37061">
        <ele>3204.8</ele>
        <time>2021-08-05 19:17:13</time>
      </trkpt>
      <trkpt lat="37.05115" lon="-3.3706">
        <ele>3204.8</ele>
        <time>2021-08-05 19:17:14</time>
      </trkpt>
      <trkpt lat="37.05116" lon="-3.3706">
        <ele>3204.8</ele>
        <time>2021-08-05 19:17:15</time>
      </trkpt>
      <trkpt lat="37.05117" lon="-3.3706">
        <ele>3204.8</ele>
        <time>2021-08-05 19:17:16</time>
      </trkpt>
      <trkpt lat="37.05117" lon="-3.3706">
        <ele>3204.8</ele>
        <time>2021-08-05 19:17:17</time>
      </trkpt>
      <trkpt lat="37.05117" lon="-3.3706">
        <ele>3204.8</ele>
        <time>2021-08-05 19:17:18</time>
      </trkpt>
      <trkpt lat="37.05117" lon="-3.3706">
        <ele>3204.8</ele>
        <time>2021-08-05 19:17:19</time>
      </trkpt>
      <trkpt lat="37.05116" lon="-3.37061">
        <ele>3204.8</ele>
        <time>2021-08-05 19:17:20</time>
      </trkpt>
      <trkpt lat="37.05116" lon="-3.37061">
        <ele>3204.8</ele>
        <time>2021-08-05 19:17:21</time>
      </trkpt>
      <trkpt lat="37.05116" lon="-3.37061">
        <ele>3204.8</ele>
        <time>2021-08-05 19:17:22</time>
      </trkpt>
      <trkpt lat="37.05116" lon="-3.37061">
        <ele>3204.8</ele>
        <time>2021-08-05 19:17:23</time>
      </trkpt>
      <trkpt lat="37.05116" lon="-3.37061">
        <ele>3204.8</ele>
        <time>2021-08-05 19:17:24</time>
      </trkpt>
      <trkpt lat="37.05116" lon="-3.37061">
        <ele>3204.8</ele>
        <time>2021-08-05 19:17:25</time>
      </trkpt>
      <trkpt lat="37.05117" lon="-3.3706">
        <ele>3204.8</ele>
        <time>2021-08-05 19:17:26</time>
      </trkpt>
      <trkpt lat="37.05117" lon="-3.3706">
        <ele>3204.8</ele>
        <time>2021-08-05 19:17:27</time>
      </trkpt>
      <trkpt lat="37.05117" lon="-3.3706">
        <ele>3204.8</ele>
        <time>2021-08-05 19:17:28</time>
      </trkpt>
      <trkpt lat="37.05117" lon="-3.3706">
        <ele>3204.8</ele>
        <time>2021-08-05 19:17:29</time>
      </trkpt>
      <trkpt lat="37.05117" lon="-3.3706">
        <ele>3204.8</ele>
        <time>2021-08-05 19:17:30</time>
      </trkpt>
      <trkpt lat="37.05117" lon="-3.3706">
        <ele>3204.8</ele>
        <time>2021-08-05 19:17:31</time>
      </trkpt>
      <trkpt lat="37.05117" lon="-3.37061">
        <ele>3204.8</ele>
        <time>2021-08-05 19:17:32</time>
      </trkpt>
      <trkpt lat="37.05117" lon="-3.37061">
        <ele>3204.8</ele>
        <time>2021-08-05 19:17:33</time>
      </trkpt>
      <trkpt lat="37.05117" lon="-3.37062">
        <ele>3204.8</ele>
        <time>2021-08-05 19:17:34</time>
      </trkpt>
      <trkpt lat="37.05117" lon="-3.37063">
        <ele>3204.8</ele>
        <time>2021-08-05 19:17:35</time>
      </trkpt>
      <trkpt lat="37.05116" lon="-3.37063">
        <ele>3204.8</ele>
        <time>2021-08-05 19:17:36</time>
      </trkpt>
      <trkpt lat="37.05116" lon="-3.37063">
        <ele>3204.8</ele>
        <time>2021-08-05 19:17:37</time>
      </trkpt>
      <trkpt lat="37.05116" lon="-3.37064">
        <ele>3204.8</ele>
        <time>2021-08-05 19:17:38</time>
      </trkpt>
      <trkpt lat="37.05116" lon="-3.37064">
        <ele>3204.8</ele>
        <time>2021-08-05 19:17:39</time>
      </trkpt>
      <trkpt lat="37.05116" lon="-3.37065">
        <ele>3204.8</ele>
        <time>2021-08-05 19:17:40</time>
      </trkpt>
      <trkpt lat="37.05114" lon="-3.37066">
        <ele>3204.8</ele>
        <time>2021-08-05 19:17:41</time>
      </trkpt>
      <trkpt lat="37.05114" lon="-3.37066">
        <ele>3204.8</ele>
        <time>2021-08-05 19:17:42</time>
      </trkpt>
      <trkpt lat="37.05112" lon="-3.37067">
        <ele>3204.8</ele>
        <time>2021-08-05 19:17:43</time>
      </trkpt>
      <trkpt lat="37.05112" lon="-3.37067">
        <ele>3204.8</ele>
        <time>2021-08-05 19:17:44</time>
      </trkpt>
      <trkpt lat="37.05112" lon="-3.37065">
        <ele>3204.8</ele>
        <time>2021-08-05 19:17:45</time>
      </trkpt>
      <trkpt lat="37.05111" lon="-3.37065">
        <ele>3204.8</ele>
        <time>2021-08-05 19:17:46</time>
      </trkpt>
      <trkpt lat="37.05111" lon="-3.37064">
        <ele>3204.8</ele>
        <time>2021-08-05 19:17:47</time>
      </trkpt>
      <trkpt lat="37.05111" lon="-3.37063">
        <ele>3204.8</ele>
        <time>2021-08-05 19:17:48</time>
      </trkpt>
      <trkpt lat="37.05111" lon="-3.37063">
        <ele>3204.8</ele>
        <time>2021-08-05 19:17:49</time>
      </trkpt>
      <trkpt lat="37.05111" lon="-3.37062">
        <ele>3204.8</ele>
        <time>2021-08-05 19:17:50</time>
      </trkpt>
      <trkpt lat="37.05112" lon="-3.37062">
        <ele>3204.8</ele>
        <time>2021-08-05 19:17:51</time>
      </trkpt>
      <trkpt lat="37.05111" lon="-3.37061">
        <ele>3204.8</ele>
        <time>2021-08-05 19:17:52</time>
      </trkpt>
      <trkpt lat="37.05111" lon="-3.37061">
        <ele>3204.8</ele>
        <time>2021-08-05 19:17:53</time>
      </trkpt>
      <trkpt lat="37.05111" lon="-3.37061">
        <ele>3204.8</ele>
        <time>2021-08-05 19:17:54</time>
      </trkpt>
      <trkpt lat="37.05111" lon="-3.37061">
        <ele>3204.8</ele>
        <time>2021-08-05 19:17:55</time>
      </trkpt>
      <trkpt lat="37.05111" lon="-3.37061">
        <ele>3204.8</ele>
        <time>2021-08-05 19:17:56</time>
      </trkpt>
      <trkpt lat="37.05111" lon="-3.37061">
        <ele>3204.8</ele>
        <time>2021-08-05 19:17:57</time>
      </trkpt>
      <trkpt lat="37.0511" lon="-3.37062">
        <ele>3204.8</ele>
        <time>2021-08-05 19:17:58</time>
      </trkpt>
      <trkpt lat="37.05109" lon="-3.37062">
        <ele>3204.8</ele>
        <time>2021-08-05 19:17:59</time>
      </trkpt>
      <trkpt lat="37.05109" lon="-3.37063">
        <ele>3204.8</ele>
        <time>2021-08-05 19:18:00</time>
      </trkpt>
      <trkpt lat="37.05109" lon="-3.37063">
        <ele>3204.8</ele>
        <time>2021-08-05 19:18:01</time>
      </trkpt>
      <trkpt lat="37.05109" lon="-3.37064">
        <ele>3204.8</ele>
        <time>2021-08-05 19:18:02</time>
      </trkpt>
      <trkpt lat="37.05109" lon="-3.37065">
        <ele>3204.8</ele>
        <time>2021-08-05 19:18:03</time>
      </trkpt>
      <trkpt lat="37.05109" lon="-3.37065">
        <ele>3204.8</ele>
        <time>2021-08-05 19:18:04</time>
      </trkpt>
      <trkpt lat="37.05109" lon="-3.37065">
        <ele>3204.8</ele>
        <time>2021-08-05 19:18:05</time>
      </trkpt>
      <trkpt lat="37.05109" lon="-3.37066">
        <ele>3204.8</ele>
        <time>2021-08-05 19:18:06</time>
      </trkpt>
      <trkpt lat="37.05109" lon="-3.37066">
        <ele>3204.8</ele>
        <time>2021-08-05 19:18:07</time>
      </trkpt>
      <trkpt lat="37.0511" lon="-3.37067">
        <ele>3204.8</ele>
        <time>2021-08-05 19:18:08</time>
      </trkpt>
      <trkpt lat="37.0511" lon="-3.37068">
        <ele>3204.8</ele>
        <time>2021-08-05 19:18:09</time>
      </trkpt>
      <trkpt lat="37.05109" lon="-3.37067">
        <ele>3204.8</ele>
        <time>2021-08-05 19:18:10</time>
      </trkpt>
      <trkpt lat="37.05108" lon="-3.37067">
        <ele>3204.8</ele>
        <time>2021-08-05 19:18:11</time>
      </trkpt>
      <trkpt lat="37.05108" lon="-3.37067">
        <ele>3204.8</ele>
        <time>2021-08-05 19:18:12</time>
      </trkpt>
      <trkpt lat="37.05109" lon="-3.37066">
        <ele>3202</ele>
        <time>2021-08-05 19:18:13</time>
      </trkpt>
      <trkpt lat="37.05108" lon="-3.37066">
        <ele>3202</ele>
        <time>2021-08-05 19:18:14</time>
      </trkpt>
      <trkpt lat="37.05107" lon="-3.37066">
        <ele>3202</ele>
        <time>2021-08-05 19:18:15</time>
      </trkpt>
      <trkpt lat="37.05106" lon="-3.37066">
        <ele>3202</ele>
        <time>2021-08-05 19:18:16</time>
      </trkpt>
      <trkpt lat="37.05105" lon="-3.37066">
        <ele>3202</ele>
        <time>2021-08-05 19:18:17</time>
      </trkpt>
      <trkpt lat="37.05104" lon="-3.37066">
        <ele>3202</ele>
        <time>2021-08-05 19:18:18</time>
      </trkpt>
      <trkpt lat="37.05103" lon="-3.37066">
        <ele>3202</ele>
        <time>2021-08-05 19:18:19</time>
      </trkpt>
      <trkpt lat="37.05102" lon="-3.37066">
        <ele>3202</ele>
        <time>2021-08-05 19:18:20</time>
      </trkpt>
      <trkpt lat="37.05102" lon="-3.37067">
        <ele>3201.8</ele>
        <time>2021-08-05 19:18:21</time>
      </trkpt>
      <trkpt lat="37.05101" lon="-3.37067">
        <ele>3201.8</ele>
        <time>2021-08-05 19:18:22</time>
      </trkpt>
      <trkpt lat="37.05101" lon="-3.37068">
        <ele>3201.8</ele>
        <time>2021-08-05 19:18:23</time>
      </trkpt>
      <trkpt lat="37.051" lon="-3.37068">
        <ele>3201.8</ele>
        <time>2021-08-05 19:18:24</time>
      </trkpt>
      <trkpt lat="37.05099" lon="-3.37069">
        <ele>3201.8</ele>
        <time>2021-08-05 19:18:25</time>
      </trkpt>
      <trkpt lat="37.05099" lon="-3.37069">
        <ele>3201.8</ele>
        <time>2021-08-05 19:18:26</time>
      </trkpt>
      <trkpt lat="37.05099" lon="-3.37069">
        <ele>3201.6</ele>
        <time>2021-08-05 19:18:27</time>
      </trkpt>
      <trkpt lat="37.05099" lon="-3.37069">
        <ele>3201.6</ele>
        <time>2021-08-05 19:18:28</time>
      </trkpt>
      <trkpt lat="37.05099" lon="-3.3707">
        <ele>3201.4</ele>
        <time>2021-08-05 19:18:29</time>
      </trkpt>
      <trkpt lat="37.05098" lon="-3.37069">
        <ele>3201.2</ele>
        <time>2021-08-05 19:18:30</time>
      </trkpt>
      <trkpt lat="37.05099" lon="-3.3707">
        <ele>3201.2</ele>
        <time>2021-08-05 19:18:31</time>
      </trkpt>
      <trkpt lat="37.05099" lon="-3.3707">
        <ele>3201</ele>
        <time>2021-08-05 19:18:32</time>
      </trkpt>
      <trkpt lat="37.05099" lon="-3.3707">
        <ele>3200.6</ele>
        <time>2021-08-05 19:18:33</time>
      </trkpt>
      <trkpt lat="37.05099" lon="-3.37071">
        <ele>3200.6</ele>
        <time>2021-08-05 19:18:34</time>
      </trkpt>
      <trkpt lat="37.05099" lon="-3.37072">
        <ele>3200.4</ele>
        <time>2021-08-05 19:18:35</time>
      </trkpt>
      <trkpt lat="37.05099" lon="-3.37071">
        <ele>3200.4</ele>
        <time>2021-08-05 19:18:36</time>
      </trkpt>
      <trkpt lat="37.05099" lon="-3.37072">
        <ele>3200.4</ele>
        <time>2021-08-05 19:18:37</time>
      </trkpt>
      <trkpt lat="37.05099" lon="-3.37072">
        <ele>3201</ele>
        <time>2021-08-05 19:18:38</time>
      </trkpt>
      <trkpt lat="37.05099" lon="-3.37072">
        <ele>3201.4</ele>
        <time>2021-08-05 19:18:39</time>
      </trkpt>
      <trkpt lat="37.051" lon="-3.37072">
        <ele>3201.6</ele>
        <time>2021-08-05 19:18:40</time>
      </trkpt>
      <trkpt lat="37.051" lon="-3.37073">
        <ele>3201.8</ele>
        <time>2021-08-05 19:18:41</time>
      </trkpt>
      <trkpt lat="37.051" lon="-3.37073">
        <ele>3201.8</ele>
        <time>2021-08-05 19:18:42</time>
      </trkpt>
      <trkpt lat="37.051" lon="-3.37072">
        <ele>3201.8</ele>
        <time>2021-08-05 19:18:43</time>
      </trkpt>
      <trkpt lat="37.051" lon="-3.37073">
        <ele>3202</ele>
        <time>2021-08-05 19:18:44</time>
      </trkpt>
      <trkpt lat="37.051" lon="-3.37072">
        <ele>3202</ele>
        <time>2021-08-05 19:18:45</time>
      </trkpt>
      <trkpt lat="37.051" lon="-3.37072">
        <ele>3202</ele>
        <time>2021-08-05 19:18:46</time>
      </trkpt>
      <trkpt lat="37.051" lon="-3.37073">
        <ele>3202</ele>
        <time>2021-08-05 19:18:47</time>
      </trkpt>
      <trkpt lat="37.05099" lon="-3.37074">
        <ele>3202</ele>
        <time>2021-08-05 19:18:48</time>
      </trkpt>
      <trkpt lat="37.05099" lon="-3.37075">
        <ele>3201.8</ele>
        <time>2021-08-05 19:18:49</time>
      </trkpt>
      <trkpt lat="37.05099" lon="-3.37075">
        <ele>3201.8</ele>
        <time>2021-08-05 19:18:50</time>
      </trkpt>
      <trkpt lat="37.05099" lon="-3.37076">
        <ele>3201.8</ele>
        <time>2021-08-05 19:18:51</time>
      </trkpt>
      <trkpt lat="37.05099" lon="-3.37076">
        <ele>3201.6</ele>
        <time>2021-08-05 19:18:52</time>
      </trkpt>
      <trkpt lat="37.05098" lon="-3.37077">
        <ele>3201.6</ele>
        <time>2021-08-05 19:18:53</time>
      </trkpt>
      <trkpt lat="37.05098" lon="-3.37077">
        <ele>3201.4</ele>
        <time>2021-08-05 19:18:54</time>
      </trkpt>
      <trkpt lat="37.05096" lon="-3.37078">
        <ele>3201.4</ele>
        <time>2021-08-05 19:18:55</time>
      </trkpt>
      <trkpt lat="37.05095" lon="-3.37078">
        <ele>3201.2</ele>
        <time>2021-08-05 19:18:56</time>
      </trkpt>
      <trkpt lat="37.05094" lon="-3.37078">
        <ele>3201</ele>
        <time>2021-08-05 19:18:57</time>
      </trkpt>
      <trkpt lat="37.05093" lon="-3.37078">
        <ele>3200.8</ele>
        <time>2021-08-05 19:18:58</time>
      </trkpt>
      <trkpt lat="37.05092" lon="-3.37078">
        <ele>3200.6</ele>
        <time>2021-08-05 19:18:59</time>
      </trkpt>
      <trkpt lat="37.05091" lon="-3.37079">
        <ele>3200.4</ele>
        <time>2021-08-05 19:19:00</time>
      </trkpt>
      <trkpt lat="37.05091" lon="-3.37079">
        <ele>3200.2</ele>
        <time>2021-08-05 19:19:01</time>
      </trkpt>
      <trkpt lat="37.05091" lon="-3.37078">
        <ele>3200.2</ele>
        <time>2021-08-05 19:19:02</time>
      </trkpt>
      <trkpt lat="37.0509" lon="-3.37078">
        <ele>3200</ele>
        <time>2021-08-05 19:19:03</time>
      </trkpt>
      <trkpt lat="37.0509" lon="-3.37079">
        <ele>3199.8</ele>
        <time>2021-08-05 19:19:04</time>
      </trkpt>
      <trkpt lat="37.0509" lon="-3.37081">
        <ele>3199.6</ele>
        <time>2021-08-05 19:19:05</time>
      </trkpt>
      <trkpt lat="37.0509" lon="-3.37081">
        <ele>3199.4</ele>
        <time>2021-08-05 19:19:06</time>
      </trkpt>
      <trkpt lat="37.0509" lon="-3.37082">
        <ele>3199.2</ele>
        <time>2021-08-05 19:19:07</time>
      </trkpt>
      <trkpt lat="37.0509" lon="-3.37082">
        <ele>3199</ele>
        <time>2021-08-05 19:19:08</time>
      </trkpt>
      <trkpt lat="37.0509" lon="-3.37083">
        <ele>3199</ele>
        <time>2021-08-05 19:19:09</time>
      </trkpt>
      <trkpt lat="37.0509" lon="-3.37085">
        <ele>3199</ele>
        <time>2021-08-05 19:19:10</time>
      </trkpt>
      <trkpt lat="37.05091" lon="-3.37085">
        <ele>3198.8</ele>
        <time>2021-08-05 19:19:11</time>
      </trkpt>
      <trkpt lat="37.05091" lon="-3.37086">
        <ele>3198.6</ele>
        <time>2021-08-05 19:19:12</time>
      </trkpt>
      <trkpt lat="37.05091" lon="-3.37086">
        <ele>3198.4</ele>
        <time>2021-08-05 19:19:13</time>
      </trkpt>
      <trkpt lat="37.0509" lon="-3.37086">
        <ele>3198.2</ele>
        <time>2021-08-05 19:19:14</time>
      </trkpt>
      <trkpt lat="37.0509" lon="-3.37086">
        <ele>3198</ele>
        <time>2021-08-05 19:19:15</time>
      </trkpt>
      <trkpt lat="37.0509" lon="-3.37086">
        <ele>3198</ele>
        <time>2021-08-05 19:19:16</time>
      </trkpt>
      <trkpt lat="37.05089" lon="-3.37085">
        <ele>3197.8</ele>
        <time>2021-08-05 19:19:17</time>
      </trkpt>
      <trkpt lat="37.05088" lon="-3.37085">
        <ele>3197.8</ele>
        <time>2021-08-05 19:19:18</time>
      </trkpt>
      <trkpt lat="37.05088" lon="-3.37084">
        <ele>3197.6</ele>
        <time>2021-08-05 19:19:19</time>
      </trkpt>
      <trkpt lat="37.05087" lon="-3.37084">
        <ele>3197.4</ele>
        <time>2021-08-05 19:19:20</time>
      </trkpt>
      <trkpt lat="37.05087" lon="-3.37084">
        <ele>3197.2</ele>
        <time>2021-08-05 19:19:21</time>
      </trkpt>
      <trkpt lat="37.05086" lon="-3.37085">
        <ele>3197.2</ele>
        <time>2021-08-05 19:19:22</time>
      </trkpt>
      <trkpt lat="37.05086" lon="-3.37086">
        <ele>3197.2</ele>
        <time>2021-08-05 19:19:23</time>
      </trkpt>
      <trkpt lat="37.05086" lon="-3.37086">
        <ele>3197</ele>
        <time>2021-08-05 19:19:24</time>
      </trkpt>
      <trkpt lat="37.05085" lon="-3.37087">
        <ele>3196.6</ele>
        <time>2021-08-05 19:19:25</time>
      </trkpt>
      <trkpt lat="37.05085" lon="-3.37088">
        <ele>3196.4</ele>
        <time>2021-08-05 19:19:26</time>
      </trkpt>
      <trkpt lat="37.05084" lon="-3.37089">
        <ele>3196</ele>
        <time>2021-08-05 19:19:27</time>
      </trkpt>
      <trkpt lat="37.05084" lon="-3.3709">
        <ele>3195.8</ele>
        <time>2021-08-05 19:19:28</time>
      </trkpt>
      <trkpt lat="37.05083" lon="-3.37091">
        <ele>3195.8</ele>
        <time>2021-08-05 19:19:29</time>
      </trkpt>
      <trkpt lat="37.05082" lon="-3.37092">
        <ele>3195.6</ele>
        <time>2021-08-05 19:19:30</time>
      </trkpt>
      <trkpt lat="37.05082" lon="-3.37092">
        <ele>3195.4</ele>
        <time>2021-08-05 19:19:31</time>
      </trkpt>
      <trkpt lat="37.05081" lon="-3.37092">
        <ele>3195.4</ele>
        <time>2021-08-05 19:19:32</time>
      </trkpt>
      <trkpt lat="37.05081" lon="-3.37092">
        <ele>3195.2</ele>
        <time>2021-08-05 19:19:33</time>
      </trkpt>
      <trkpt lat="37.0508" lon="-3.37092">
        <ele>3195</ele>
        <time>2021-08-05 19:19:34</time>
      </trkpt>
      <trkpt lat="37.05079" lon="-3.37092">
        <ele>3195</ele>
        <time>2021-08-05 19:19:35</time>
      </trkpt>
      <trkpt lat="37.05078" lon="-3.37093">
        <ele>3195</ele>
        <time>2021-08-05 19:19:36</time>
      </trkpt>
      <trkpt lat="37.05078" lon="-3.37093">
        <ele>3194.8</ele>
        <time>2021-08-05 19:19:37</time>
      </trkpt>
      <trkpt lat="37.05078" lon="-3.37094">
        <ele>3194.8</ele>
        <time>2021-08-05 19:19:38</time>
      </trkpt>
      <trkpt lat="37.05077" lon="-3.37095">
        <ele>3194.6</ele>
        <time>2021-08-05 19:19:39</time>
      </trkpt>
      <trkpt lat="37.05077" lon="-3.37095">
        <ele>3194.6</ele>
        <time>2021-08-05 19:19:40</time>
      </trkpt>
      <trkpt lat="37.05077" lon="-3.37096">
        <ele>3194.6</ele>
        <time>2021-08-05 19:19:41</time>
      </trkpt>
      <trkpt lat="37.05076" lon="-3.37096">
        <ele>3194.6</ele>
        <time>2021-08-05 19:19:42</time>
      </trkpt>
      <trkpt lat="37.05076" lon="-3.37097">
        <ele>3194.6</ele>
        <time>2021-08-05 19:19:43</time>
      </trkpt>
      <trkpt lat="37.05076" lon="-3.37098">
        <ele>3194.4</ele>
        <time>2021-08-05 19:19:44</time>
      </trkpt>
      <trkpt lat="37.05076" lon="-3.371">
        <ele>3194.4</ele>
        <time>2021-08-05 19:19:45</time>
      </trkpt>
      <trkpt lat="37.05076" lon="-3.37101">
        <ele>3194.2</ele>
        <time>2021-08-05 19:19:46</time>
      </trkpt>
      <trkpt lat="37.05076" lon="-3.37102">
        <ele>3194.2</ele>
        <time>2021-08-05 19:19:47</time>
      </trkpt>
      <trkpt lat="37.05077" lon="-3.37103">
        <ele>3194.2</ele>
        <time>2021-08-05 19:19:48</time>
      </trkpt>
      <trkpt lat="37.05077" lon="-3.37104">
        <ele>3194</ele>
        <time>2021-08-05 19:19:49</time>
      </trkpt>
      <trkpt lat="37.05077" lon="-3.37105">
        <ele>3193.8</ele>
        <time>2021-08-05 19:19:50</time>
      </trkpt>
      <trkpt lat="37.05078" lon="-3.37105">
        <ele>3193.8</ele>
        <time>2021-08-05 19:19:51</time>
      </trkpt>
      <trkpt lat="37.05074" lon="-3.37106">
        <ele>3193.6</ele>
        <time>2021-08-05 19:19:52</time>
      </trkpt>
      <trkpt lat="37.05074" lon="-3.37107">
        <ele>3193.4</ele>
        <time>2021-08-05 19:19:53</time>
      </trkpt>
      <trkpt lat="37.05073" lon="-3.37106">
        <ele>3193.2</ele>
        <time>2021-08-05 19:19:54</time>
      </trkpt>
      <trkpt lat="37.05073" lon="-3.37106">
        <ele>3193</ele>
        <time>2021-08-05 19:19:55</time>
      </trkpt>
      <trkpt lat="37.05073" lon="-3.37108">
        <ele>3193</ele>
        <time>2021-08-05 19:19:56</time>
      </trkpt>
      <trkpt lat="37.05073" lon="-3.3711">
        <ele>3193</ele>
        <time>2021-08-05 19:19:57</time>
      </trkpt>
      <trkpt lat="37.05073" lon="-3.37111">
        <ele>3193</ele>
        <time>2021-08-05 19:19:58</time>
      </trkpt>
      <trkpt lat="37.05073" lon="-3.37112">
        <ele>3192.8</ele>
        <time>2021-08-05 19:19:59</time>
      </trkpt>
      <trkpt lat="37.05073" lon="-3.37112">
        <ele>3192.6</ele>
        <time>2021-08-05 19:20:00</time>
      </trkpt>
      <trkpt lat="37.05073" lon="-3.37113">
        <ele>3192.6</ele>
        <time>2021-08-05 19:20:01</time>
      </trkpt>
      <trkpt lat="37.05073" lon="-3.37113">
        <ele>3192.4</ele>
        <time>2021-08-05 19:20:02</time>
      </trkpt>
      <trkpt lat="37.05072" lon="-3.37112">
        <ele>3192.4</ele>
        <time>2021-08-05 19:20:03</time>
      </trkpt>
      <trkpt lat="37.05071" lon="-3.37112">
        <ele>3192.2</ele>
        <time>2021-08-05 19:20:04</time>
      </trkpt>
      <trkpt lat="37.05071" lon="-3.37112">
        <ele>3191.8</ele>
        <time>2021-08-05 19:20:05</time>
      </trkpt>
      <trkpt lat="37.05071" lon="-3.37112">
        <ele>3191.6</ele>
        <time>2021-08-05 19:20:06</time>
      </trkpt>
      <trkpt lat="37.0507" lon="-3.37112">
        <ele>3191.4</ele>
        <time>2021-08-05 19:20:07</time>
      </trkpt>
      <trkpt lat="37.0507" lon="-3.37112">
        <ele>3191.2</ele>
        <time>2021-08-05 19:20:08</time>
      </trkpt>
      <trkpt lat="37.05069" lon="-3.37111">
        <ele>3191</ele>
        <time>2021-08-05 19:20:09</time>
      </trkpt>
      <trkpt lat="37.05069" lon="-3.37111">
        <ele>3190.8</ele>
        <time>2021-08-05 19:20:10</time>
      </trkpt>
      <trkpt lat="37.05069" lon="-3.37112">
        <ele>3190.8</ele>
        <time>2021-08-05 19:20:11</time>
      </trkpt>
      <trkpt lat="37.05068" lon="-3.37112">
        <ele>3190.6</ele>
        <time>2021-08-05 19:20:12</time>
      </trkpt>
      <trkpt lat="37.05068" lon="-3.37112">
        <ele>3190</ele>
        <time>2021-08-05 19:20:13</time>
      </trkpt>
      <trkpt lat="37.05068" lon="-3.37112">
        <ele>3189.8</ele>
        <time>2021-08-05 19:20:14</time>
      </trkpt>
      <trkpt lat="37.05067" lon="-3.37112">
        <ele>3189.6</ele>
        <time>2021-08-05 19:20:15</time>
      </trkpt>
      <trkpt lat="37.05067" lon="-3.37113">
        <ele>3189.4</ele>
        <time>2021-08-05 19:20:16</time>
      </trkpt>
      <trkpt lat="37.05067" lon="-3.37113">
        <ele>3189.4</ele>
        <time>2021-08-05 19:20:17</time>
      </trkpt>
      <trkpt lat="37.05066" lon="-3.37113">
        <ele>3189.2</ele>
        <time>2021-08-05 19:20:18</time>
      </trkpt>
      <trkpt lat="37.05066" lon="-3.37114">
        <ele>3189</ele>
        <time>2021-08-05 19:20:19</time>
      </trkpt>
      <trkpt lat="37.05066" lon="-3.37114">
        <ele>3189</ele>
        <time>2021-08-05 19:20:20</time>
      </trkpt>
      <trkpt lat="37.05064" lon="-3.37115">
        <ele>3189</ele>
        <time>2021-08-05 19:20:21</time>
      </trkpt>
      <trkpt lat="37.05064" lon="-3.37115">
        <ele>3188.8</ele>
        <time>2021-08-05 19:20:22</time>
      </trkpt>
      <trkpt lat="37.05064" lon="-3.37117">
        <ele>3188.6</ele>
        <time>2021-08-05 19:20:23</time>
      </trkpt>
      <trkpt lat="37.05064" lon="-3.37117">
        <ele>3188.2</ele>
        <time>2021-08-05 19:20:24</time>
      </trkpt>
      <trkpt lat="37.05065" lon="-3.37119">
        <ele>3188</ele>
        <time>2021-08-05 19:20:25</time>
      </trkpt>
      <trkpt lat="37.05066" lon="-3.3712">
        <ele>3187.8</ele>
        <time>2021-08-05 19:20:26</time>
      </trkpt>
      <trkpt lat="37.05066" lon="-3.37121">
        <ele>3187.8</ele>
        <time>2021-08-05 19:20:27</time>
      </trkpt>
      <trkpt lat="37.05066" lon="-3.37121">
        <ele>3187.8</ele>
        <time>2021-08-05 19:20:28</time>
      </trkpt>
      <trkpt lat="37.05064" lon="-3.3712">
        <ele>3187.8</ele>
        <time>2021-08-05 19:20:29</time>
      </trkpt>
      <trkpt lat="37.05063" lon="-3.37121">
        <ele>3187.8</ele>
        <time>2021-08-05 19:20:30</time>
      </trkpt>
      <trkpt lat="37.05062" lon="-3.37122">
        <ele>3187.8</ele>
        <time>2021-08-05 19:20:31</time>
      </trkpt>
      <trkpt lat="37.05061" lon="-3.37122">
        <ele>3187.8</ele>
        <time>2021-08-05 19:20:32</time>
      </trkpt>
      <trkpt lat="37.05061" lon="-3.37122">
        <ele>3187.8</ele>
        <time>2021-08-05 19:20:33</time>
      </trkpt>
      <trkpt lat="37.0506" lon="-3.37122">
        <ele>3187.8</ele>
        <time>2021-08-05 19:20:34</time>
      </trkpt>
      <trkpt lat="37.0506" lon="-3.37121">
        <ele>3187.8</ele>
        <time>2021-08-05 19:20:35</time>
      </trkpt>
      <trkpt lat="37.05059" lon="-3.37121">
        <ele>3187.8</ele>
        <time>2021-08-05 19:20:36</time>
      </trkpt>
      <trkpt lat="37.05058" lon="-3.3712">
        <ele>3187.8</ele>
        <time>2021-08-05 19:20:37</time>
      </trkpt>
      <trkpt lat="37.05058" lon="-3.3712">
        <ele>3187.6</ele>
        <time>2021-08-05 19:20:38</time>
      </trkpt>
      <trkpt lat="37.05058" lon="-3.3712">
        <ele>3187.4</ele>
        <time>2021-08-05 19:20:39</time>
      </trkpt>
      <trkpt lat="37.05057" lon="-3.37119">
        <ele>3187.4</ele>
        <time>2021-08-05 19:20:40</time>
      </trkpt>
      <trkpt lat="37.05057" lon="-3.37119">
        <ele>3187.2</ele>
        <time>2021-08-05 19:20:41</time>
      </trkpt>
      <trkpt lat="37.05057" lon="-3.37119">
        <ele>3187.2</ele>
        <time>2021-08-05 19:20:42</time>
      </trkpt>
      <trkpt lat="37.05056" lon="-3.37119">
        <ele>3187.2</ele>
        <time>2021-08-05 19:20:43</time>
      </trkpt>
      <trkpt lat="37.05056" lon="-3.37118">
        <ele>3187.2</ele>
        <time>2021-08-05 19:20:44</time>
      </trkpt>
      <trkpt lat="37.05055" lon="-3.37118">
        <ele>3187.2</ele>
        <time>2021-08-05 19:20:45</time>
      </trkpt>
      <trkpt lat="37.05054" lon="-3.37117">
        <ele>3187.2</ele>
        <time>2021-08-05 19:20:46</time>
      </trkpt>
      <trkpt lat="37.05053" lon="-3.37117">
        <ele>3187.2</ele>
        <time>2021-08-05 19:20:47</time>
      </trkpt>
      <trkpt lat="37.05052" lon="-3.37117">
        <ele>3187.2</ele>
        <time>2021-08-05 19:20:48</time>
      </trkpt>
      <trkpt lat="37.05051" lon="-3.37117">
        <ele>3187.2</ele>
        <time>2021-08-05 19:20:49</time>
      </trkpt>
      <trkpt lat="37.05051" lon="-3.37118">
        <ele>3187.2</ele>
        <time>2021-08-05 19:20:50</time>
      </trkpt>
      <trkpt lat="37.05051" lon="-3.37119">
        <ele>3187.2</ele>
        <time>2021-08-05 19:20:51</time>
      </trkpt>
      <trkpt lat="37.05051" lon="-3.37119">
        <ele>3187.2</ele>
        <time>2021-08-05 19:20:52</time>
      </trkpt>
      <trkpt lat="37.0505" lon="-3.3712">
        <ele>3187.2</ele>
        <time>2021-08-05 19:20:53</time>
      </trkpt>
      <trkpt lat="37.0505" lon="-3.3712">
        <ele>3187.2</ele>
        <time>2021-08-05 19:20:54</time>
      </trkpt>
      <trkpt lat="37.0505" lon="-3.3712">
        <ele>3187.2</ele>
        <time>2021-08-05 19:20:55</time>
      </trkpt>
      <trkpt lat="37.0505" lon="-3.3712">
        <ele>3187</ele>
        <time>2021-08-05 19:20:56</time>
      </trkpt>
      <trkpt lat="37.0505" lon="-3.3712">
        <ele>3187</ele>
        <time>2021-08-05 19:20:57</time>
      </trkpt>
      <trkpt lat="37.05049" lon="-3.3712">
        <ele>3187</ele>
        <time>2021-08-05 19:20:58</time>
      </trkpt>
      <trkpt lat="37.05049" lon="-3.3712">
        <ele>3186.8</ele>
        <time>2021-08-05 19:20:59</time>
      </trkpt>
      <trkpt lat="37.05049" lon="-3.3712">
        <ele>3186.8</ele>
        <time>2021-08-05 19:21:00</time>
      </trkpt>
      <trkpt lat="37.05049" lon="-3.37121">
        <ele>3186.8</ele>
        <time>2021-08-05 19:21:01</time>
      </trkpt>
      <trkpt lat="37.05049" lon="-3.37121">
        <ele>3187</ele>
        <time>2021-08-05 19:21:02</time>
      </trkpt>
      <trkpt lat="37.05048" lon="-3.3712">
        <ele>3187.2</ele>
        <time>2021-08-05 19:21:03</time>
      </trkpt>
      <trkpt lat="37.05047" lon="-3.3712">
        <ele>3187.4</ele>
        <time>2021-08-05 19:21:04</time>
      </trkpt>
      <trkpt lat="37.05047" lon="-3.37119">
        <ele>3187.4</ele>
        <time>2021-08-05 19:21:05</time>
      </trkpt>
      <trkpt lat="37.05047" lon="-3.37119">
        <ele>3187.6</ele>
        <time>2021-08-05 19:21:06</time>
      </trkpt>
      <trkpt lat="37.05047" lon="-3.37119">
        <ele>3187.6</ele>
        <time>2021-08-05 19:21:07</time>
      </trkpt>
      <trkpt lat="37.05046" lon="-3.37119">
        <ele>3187.8</ele>
        <time>2021-08-05 19:21:08</time>
      </trkpt>
      <trkpt lat="37.05046" lon="-3.37119">
        <ele>3187.8</ele>
        <time>2021-08-05 19:21:09</time>
      </trkpt>
      <trkpt lat="37.05047" lon="-3.3712">
        <ele>3188</ele>
        <time>2021-08-05 19:21:10</time>
      </trkpt>
      <trkpt lat="37.05047" lon="-3.3712">
        <ele>3188</ele>
        <time>2021-08-05 19:21:11</time>
      </trkpt>
      <trkpt lat="37.05047" lon="-3.3712">
        <ele>3188</ele>
        <time>2021-08-05 19:21:12</time>
      </trkpt>
      <trkpt lat="37.05047" lon="-3.37121">
        <ele>3188</ele>
        <time>2021-08-05 19:21:13</time>
      </trkpt>
      <trkpt lat="37.05047" lon="-3.37121">
        <ele>3188</ele>
        <time>2021-08-05 19:21:14</time>
      </trkpt>
      <trkpt lat="37.05047" lon="-3.37122">
        <ele>3187.8</ele>
        <time>2021-08-05 19:21:15</time>
      </trkpt>
      <trkpt lat="37.05047" lon="-3.37122">
        <ele>3187.8</ele>
        <time>2021-08-05 19:21:16</time>
      </trkpt>
      <trkpt lat="37.05047" lon="-3.37122">
        <ele>3187.8</ele>
        <time>2021-08-05 19:21:17</time>
      </trkpt>
      <trkpt lat="37.05047" lon="-3.37122">
        <ele>3187.6</ele>
        <time>2021-08-05 19:21:18</time>
      </trkpt>
      <trkpt lat="37.05047" lon="-3.37123">
        <ele>3187.6</ele>
        <time>2021-08-05 19:21:19</time>
      </trkpt>
      <trkpt lat="37.05047" lon="-3.37123">
        <ele>3187.6</ele>
        <time>2021-08-05 19:21:20</time>
      </trkpt>
      <trkpt lat="37.05047" lon="-3.37123">
        <ele>3187.4</ele>
        <time>2021-08-05 19:21:21</time>
      </trkpt>
      <trkpt lat="37.05047" lon="-3.37123">
        <ele>3187.4</ele>
        <time>2021-08-05 19:21:22</time>
      </trkpt>
      <trkpt lat="37.05047" lon="-3.37121">
        <ele>3187.4</ele>
        <time>2021-08-05 19:21:23</time>
      </trkpt>
      <trkpt lat="37.05047" lon="-3.37121">
        <ele>3187.4</ele>
        <time>2021-08-05 19:21:24</time>
      </trkpt>
      <trkpt lat="37.05047" lon="-3.3712">
        <ele>3187.4</ele>
        <time>2021-08-05 19:21:25</time>
      </trkpt>
      <trkpt lat="37.05047" lon="-3.3712">
        <ele>3187.8</ele>
        <time>2021-08-05 19:21:26</time>
      </trkpt>
      <trkpt lat="37.05047" lon="-3.37119">
        <ele>3188</ele>
        <time>2021-08-05 19:21:27</time>
      </trkpt>
      <trkpt lat="37.05047" lon="-3.37118">
        <ele>3188.2</ele>
        <time>2021-08-05 19:21:28</time>
      </trkpt>
      <trkpt lat="37.05047" lon="-3.37118">
        <ele>3188.4</ele>
        <time>2021-08-05 19:21:29</time>
      </trkpt>
      <trkpt lat="37.05047" lon="-3.37118">
        <ele>3188.4</ele>
        <time>2021-08-05 19:21:30</time>
      </trkpt>
      <trkpt lat="37.05047" lon="-3.37118">
        <ele>3188.6</ele>
        <time>2021-08-05 19:21:31</time>
      </trkpt>
      <trkpt lat="37.05048" lon="-3.37118">
        <ele>3188.4</ele>
        <time>2021-08-05 19:21:32</time>
      </trkpt>
      <trkpt lat="37.05048" lon="-3.37118">
        <ele>3188.2</ele>
        <time>2021-08-05 19:21:33</time>
      </trkpt>
      <trkpt lat="37.05048" lon="-3.37118">
        <ele>3188.2</ele>
        <time>2021-08-05 19:21:34</time>
      </trkpt>
      <trkpt lat="37.05047" lon="-3.37118">
        <ele>3188.2</ele>
        <time>2021-08-05 19:21:35</time>
      </trkpt>
      <trkpt lat="37.05047" lon="-3.37118">
        <ele>3188.2</ele>
        <time>2021-08-05 19:21:36</time>
      </trkpt>
      <trkpt lat="37.05047" lon="-3.37118">
        <ele>3188.2</ele>
        <time>2021-08-05 19:21:37</time>
      </trkpt>
      <trkpt lat="37.05047" lon="-3.37117">
        <ele>3188.2</ele>
        <time>2021-08-05 19:21:38</time>
      </trkpt>
      <trkpt lat="37.05047" lon="-3.37118">
        <ele>3187.8</ele>
        <time>2021-08-05 19:21:39</time>
      </trkpt>
      <trkpt lat="37.05047" lon="-3.37118">
        <ele>3187.8</ele>
        <time>2021-08-05 19:21:40</time>
      </trkpt>
      <trkpt lat="37.05048" lon="-3.37118">
        <ele>3187.6</ele>
        <time>2021-08-05 19:21:41</time>
      </trkpt>
      <trkpt lat="37.05048" lon="-3.37119">
        <ele>3187.6</ele>
        <time>2021-08-05 19:21:42</time>
      </trkpt>
      <trkpt lat="37.05048" lon="-3.37119">
        <ele>3187.4</ele>
        <time>2021-08-05 19:21:43</time>
      </trkpt>
      <trkpt lat="37.05048" lon="-3.37119">
        <ele>3187.4</ele>
        <time>2021-08-05 19:21:44</time>
      </trkpt>
      <trkpt lat="37.05048" lon="-3.3712">
        <ele>3187.4</ele>
        <time>2021-08-05 19:21:45</time>
      </trkpt>
      <trkpt lat="37.05048" lon="-3.37119">
        <ele>3187.4</ele>
        <time>2021-08-05 19:21:46</time>
      </trkpt>
      <trkpt lat="37.05048" lon="-3.37119">
        <ele>3187.4</ele>
        <time>2021-08-05 19:21:47</time>
      </trkpt>
      <trkpt lat="37.05047" lon="-3.37119">
        <ele>3187.4</ele>
        <time>2021-08-05 19:21:48</time>
      </trkpt>
      <trkpt lat="37.05046" lon="-3.37118">
        <ele>3187.4</ele>
        <time>2021-08-05 19:21:49</time>
      </trkpt>
      <trkpt lat="37.05046" lon="-3.37118">
        <ele>3187.4</ele>
        <time>2021-08-05 19:21:50</time>
      </trkpt>
      <trkpt lat="37.05046" lon="-3.37117">
        <ele>3187.2</ele>
        <time>2021-08-05 19:21:51</time>
      </trkpt>
      <trkpt lat="37.05045" lon="-3.37117">
        <ele>3187.2</ele>
        <time>2021-08-05 19:21:52</time>
      </trkpt>
      <trkpt lat="37.05045" lon="-3.37117">
        <ele>3187</ele>
        <time>2021-08-05 19:21:53</time>
      </trkpt>
      <trkpt lat="37.05045" lon="-3.37116">
        <ele>3187</ele>
        <time>2021-08-05 19:21:54</time>
      </trkpt>
      <trkpt lat="37.05045" lon="-3.37116">
        <ele>3186.8</ele>
        <time>2021-08-05 19:21:55</time>
      </trkpt>
      <trkpt lat="37.05045" lon="-3.37116">
        <ele>3186.8</ele>
        <time>2021-08-05 19:21:56</time>
      </trkpt>
      <trkpt lat="37.05045" lon="-3.37118">
        <ele>3186.6</ele>
        <time>2021-08-05 19:21:57</time>
      </trkpt>
      <trkpt lat="37.05045" lon="-3.37118">
        <ele>3186.4</ele>
        <time>2021-08-05 19:21:58</time>
      </trkpt>
      <trkpt lat="37.05044" lon="-3.37119">
        <ele>3186</ele>
        <time>2021-08-05 19:21:59</time>
      </trkpt>
      <trkpt lat="37.05044" lon="-3.37119">
        <ele>3186</ele>
        <time>2021-08-05 19:22:00</time>
      </trkpt>
      <trkpt lat="37.05044" lon="-3.37119">
        <ele>3186</ele>
        <time>2021-08-05 19:22:01</time>
      </trkpt>
      <trkpt lat="37.05044" lon="-3.37119">
        <ele>3185.8</ele>
        <time>2021-08-05 19:22:02</time>
      </trkpt>
      <trkpt lat="37.05044" lon="-3.37119">
        <ele>3185.8</ele>
        <time>2021-08-05 19:22:03</time>
      </trkpt>
      <trkpt lat="37.05044" lon="-3.37119">
        <ele>3185.8</ele>
        <time>2021-08-05 19:22:04</time>
      </trkpt>
      <trkpt lat="37.05044" lon="-3.37119">
        <ele>3185.8</ele>
        <time>2021-08-05 19:22:05</time>
      </trkpt>
      <trkpt lat="37.05044" lon="-3.37119">
        <ele>3186</ele>
        <time>2021-08-05 19:22:06</time>
      </trkpt>
      <trkpt lat="37.05044" lon="-3.37119">
        <ele>3186</ele>
        <time>2021-08-05 19:22:07</time>
      </trkpt>
      <trkpt lat="37.05044" lon="-3.37118">
        <ele>3186</ele>
        <time>2021-08-05 19:22:08</time>
      </trkpt>
      <trkpt lat="37.05044" lon="-3.37119">
        <ele>3186</ele>
        <time>2021-08-05 19:22:09</time>
      </trkpt>
      <trkpt lat="37.05044" lon="-3.37119">
        <ele>3186</ele>
        <time>2021-08-05 19:22:10</time>
      </trkpt>
      <trkpt lat="37.05043" lon="-3.37118">
        <ele>3186</ele>
        <time>2021-08-05 19:22:11</time>
      </trkpt>
      <trkpt lat="37.05043" lon="-3.37117">
        <ele>3186</ele>
        <time>2021-08-05 19:22:12</time>
      </trkpt>
      <trkpt lat="37.05042" lon="-3.37117">
        <ele>3185.8</ele>
        <time>2021-08-05 19:22:13</time>
      </trkpt>
      <trkpt lat="37.05042" lon="-3.37117">
        <ele>3185.6</ele>
        <time>2021-08-05 19:22:14</time>
      </trkpt>
      <trkpt lat="37.05042" lon="-3.37117">
        <ele>3185.6</ele>
        <time>2021-08-05 19:22:15</time>
      </trkpt>
      <trkpt lat="37.05042" lon="-3.37116">
        <ele>3185.4</ele>
        <time>2021-08-05 19:22:16</time>
      </trkpt>
      <trkpt lat="37.05042" lon="-3.37117">
        <ele>3185.4</ele>
        <time>2021-08-05 19:22:17</time>
      </trkpt>
      <trkpt lat="37.05042" lon="-3.37117">
        <ele>3185.4</ele>
        <time>2021-08-05 19:22:18</time>
      </trkpt>
      <trkpt lat="37.05042" lon="-3.37116">
        <ele>3185.4</ele>
        <time>2021-08-05 19:22:19</time>
      </trkpt>
      <trkpt lat="37.05042" lon="-3.37116">
        <ele>3185.4</ele>
        <time>2021-08-05 19:22:20</time>
      </trkpt>
      <trkpt lat="37.05041" lon="-3.37116">
        <ele>3185.4</ele>
        <time>2021-08-05 19:22:21</time>
      </trkpt>
      <trkpt lat="37.05041" lon="-3.37116">
        <ele>3185.4</ele>
        <time>2021-08-05 19:22:22</time>
      </trkpt>
      <trkpt lat="37.05041" lon="-3.37116">
        <ele>3185.2</ele>
        <time>2021-08-05 19:22:23</time>
      </trkpt>
      <trkpt lat="37.05041" lon="-3.37115">
        <ele>3185.2</ele>
        <time>2021-08-05 19:22:24</time>
      </trkpt>
      <trkpt lat="37.0504" lon="-3.37116">
        <ele>3185.2</ele>
        <time>2021-08-05 19:22:25</time>
      </trkpt>
      <trkpt lat="37.0504" lon="-3.37117">
        <ele>3185.2</ele>
        <time>2021-08-05 19:22:26</time>
      </trkpt>
      <trkpt lat="37.0504" lon="-3.37117">
        <ele>3185.2</ele>
        <time>2021-08-05 19:22:27</time>
      </trkpt>
      <trkpt lat="37.0504" lon="-3.37118">
        <ele>3185.2</ele>
        <time>2021-08-05 19:22:28</time>
      </trkpt>
      <trkpt lat="37.05039" lon="-3.37119">
        <ele>3185.2</ele>
        <time>2021-08-05 19:22:29</time>
      </trkpt>
      <trkpt lat="37.05039" lon="-3.37119">
        <ele>3185</ele>
        <time>2021-08-05 19:22:30</time>
      </trkpt>
      <trkpt lat="37.0504" lon="-3.37119">
        <ele>3185</ele>
        <time>2021-08-05 19:22:31</time>
      </trkpt>
      <trkpt lat="37.0504" lon="-3.37119">
        <ele>3184.6</ele>
        <time>2021-08-05 19:22:32</time>
      </trkpt>
      <trkpt lat="37.05039" lon="-3.37119">
        <ele>3184.8</ele>
        <time>2021-08-05 19:22:33</time>
      </trkpt>
      <trkpt lat="37.05039" lon="-3.3712">
        <ele>3184.6</ele>
        <time>2021-08-05 19:22:34</time>
      </trkpt>
      <trkpt lat="37.05039" lon="-3.3712">
        <ele>3184.4</ele>
        <time>2021-08-05 19:22:35</time>
      </trkpt>
      <trkpt lat="37.05039" lon="-3.3712">
        <ele>3184.2</ele>
        <time>2021-08-05 19:22:36</time>
      </trkpt>
      <trkpt lat="37.05038" lon="-3.37119">
        <ele>3184.2</ele>
        <time>2021-08-05 19:22:37</time>
      </trkpt>
      <trkpt lat="37.05038" lon="-3.37119">
        <ele>3184</ele>
        <time>2021-08-05 19:22:38</time>
      </trkpt>
      <trkpt lat="37.05038" lon="-3.37119">
        <ele>3183.8</ele>
        <time>2021-08-05 19:22:39</time>
      </trkpt>
      <trkpt lat="37.05037" lon="-3.37119">
        <ele>3183.8</ele>
        <time>2021-08-05 19:22:40</time>
      </trkpt>
      <trkpt lat="37.05037" lon="-3.37119">
        <ele>3183.6</ele>
        <time>2021-08-05 19:22:41</time>
      </trkpt>
      <trkpt lat="37.05037" lon="-3.37119">
        <ele>3183.6</ele>
        <time>2021-08-05 19:22:42</time>
      </trkpt>
      <trkpt lat="37.05036" lon="-3.37119">
        <ele>3183.2</ele>
        <time>2021-08-05 19:22:43</time>
      </trkpt>
      <trkpt lat="37.05036" lon="-3.3712">
        <ele>3183</ele>
        <time>2021-08-05 19:22:44</time>
      </trkpt>
      <trkpt lat="37.05036" lon="-3.3712">
        <ele>3182.8</ele>
        <time>2021-08-05 19:22:45</time>
      </trkpt>
      <trkpt lat="37.05036" lon="-3.3712">
        <ele>3182.6</ele>
        <time>2021-08-05 19:22:46</time>
      </trkpt>
      <trkpt lat="37.05035" lon="-3.3712">
        <ele>3182.4</ele>
        <time>2021-08-05 19:22:47</time>
      </trkpt>
      <trkpt lat="37.05035" lon="-3.3712">
        <ele>3182.4</ele>
        <time>2021-08-05 19:22:48</time>
      </trkpt>
      <trkpt lat="37.05034" lon="-3.3712">
        <ele>3182.4</ele>
        <time>2021-08-05 19:22:49</time>
      </trkpt>
      <trkpt lat="37.05033" lon="-3.3712">
        <ele>3182.4</ele>
        <time>2021-08-05 19:22:50</time>
      </trkpt>
      <trkpt lat="37.05032" lon="-3.3712">
        <ele>3182</ele>
        <time>2021-08-05 19:22:51</time>
      </trkpt>
      <trkpt lat="37.05032" lon="-3.3712">
        <ele>3181.8</ele>
        <time>2021-08-05 19:22:52</time>
      </trkpt>
      <trkpt lat="37.05032" lon="-3.3712">
        <ele>3181.6</ele>
        <time>2021-08-05 19:22:53</time>
      </trkpt>
      <trkpt lat="37.05031" lon="-3.3712">
        <ele>3181.4</ele>
        <time>2021-08-05 19:22:54</time>
      </trkpt>
      <trkpt lat="37.05031" lon="-3.37119">
        <ele>3181.2</ele>
        <time>2021-08-05 19:22:55</time>
      </trkpt>
      <trkpt lat="37.0503" lon="-3.37119">
        <ele>3181.2</ele>
        <time>2021-08-05 19:22:56</time>
      </trkpt>
      <trkpt lat="37.05029" lon="-3.3712">
        <ele>3181.2</ele>
        <time>2021-08-05 19:22:57</time>
      </trkpt>
      <trkpt lat="37.05029" lon="-3.37121">
        <ele>3181</ele>
        <time>2021-08-05 19:22:58</time>
      </trkpt>
      <trkpt lat="37.05029" lon="-3.37122">
        <ele>3181</ele>
        <time>2021-08-05 19:22:59</time>
      </trkpt>
      <trkpt lat="37.05029" lon="-3.37123">
        <ele>3181</ele>
        <time>2021-08-05 19:23:00</time>
      </trkpt>
      <trkpt lat="37.05028" lon="-3.37123">
        <ele>3180.8</ele>
        <time>2021-08-05 19:23:01</time>
      </trkpt>
      <trkpt lat="37.05028" lon="-3.37124">
        <ele>3180.8</ele>
        <time>2021-08-05 19:23:02</time>
      </trkpt>
      <trkpt lat="37.05027" lon="-3.37124">
        <ele>3180.8</ele>
        <time>2021-08-05 19:23:03</time>
      </trkpt>
      <trkpt lat="37.05027" lon="-3.37124">
        <ele>3180.8</ele>
        <time>2021-08-05 19:23:04</time>
      </trkpt>
      <trkpt lat="37.05027" lon="-3.37125">
        <ele>3180.8</ele>
        <time>2021-08-05 19:23:05</time>
      </trkpt>
      <trkpt lat="37.05027" lon="-3.37126">
        <ele>3180.8</ele>
        <time>2021-08-05 19:23:06</time>
      </trkpt>
      <trkpt lat="37.05027" lon="-3.37127">
        <ele>3180.4</ele>
        <time>2021-08-05 19:23:07</time>
      </trkpt>
      <trkpt lat="37.05028" lon="-3.37128">
        <ele>3180.2</ele>
        <time>2021-08-05 19:23:08</time>
      </trkpt>
      <trkpt lat="37.05028" lon="-3.37129">
        <ele>3180</ele>
        <time>2021-08-05 19:23:09</time>
      </trkpt>
      <trkpt lat="37.05027" lon="-3.37128">
        <ele>3180</ele>
        <time>2021-08-05 19:23:10</time>
      </trkpt>
      <trkpt lat="37.05027" lon="-3.37128">
        <ele>3180</ele>
        <time>2021-08-05 19:23:11</time>
      </trkpt>
      <trkpt lat="37.05027" lon="-3.37129">
        <ele>3180</ele>
        <time>2021-08-05 19:23:12</time>
      </trkpt>
      <trkpt lat="37.05027" lon="-3.37129">
        <ele>3180</ele>
        <time>2021-08-05 19:23:13</time>
      </trkpt>
      <trkpt lat="37.05027" lon="-3.37129">
        <ele>3180</ele>
        <time>2021-08-05 19:23:14</time>
      </trkpt>
      <trkpt lat="37.05027" lon="-3.37129">
        <ele>3179.8</ele>
        <time>2021-08-05 19:23:15</time>
      </trkpt>
      <trkpt lat="37.05028" lon="-3.37128">
        <ele>3179.6</ele>
        <time>2021-08-05 19:23:16</time>
      </trkpt>
      <trkpt lat="37.05029" lon="-3.37128">
        <ele>3179.2</ele>
        <time>2021-08-05 19:23:17</time>
      </trkpt>
      <trkpt lat="37.05029" lon="-3.37128">
        <ele>3179</ele>
        <time>2021-08-05 19:23:18</time>
      </trkpt>
      <trkpt lat="37.05029" lon="-3.37129">
        <ele>3179</ele>
        <time>2021-08-05 19:23:19</time>
      </trkpt>
      <trkpt lat="37.05029" lon="-3.37128">
        <ele>3178.6</ele>
        <time>2021-08-05 19:23:20</time>
      </trkpt>
      <trkpt lat="37.05028" lon="-3.37129">
        <ele>3178</ele>
        <time>2021-08-05 19:23:21</time>
      </trkpt>
      <trkpt lat="37.05028" lon="-3.3713">
        <ele>3177.8</ele>
        <time>2021-08-05 19:23:22</time>
      </trkpt>
      <trkpt lat="37.05027" lon="-3.37131">
        <ele>3177.8</ele>
        <time>2021-08-05 19:23:23</time>
      </trkpt>
      <trkpt lat="37.05027" lon="-3.37131">
        <ele>3177.6</ele>
        <time>2021-08-05 19:23:24</time>
      </trkpt>
      <trkpt lat="37.05027" lon="-3.37131">
        <ele>3177.4</ele>
        <time>2021-08-05 19:23:25</time>
      </trkpt>
      <trkpt lat="37.05026" lon="-3.37131">
        <ele>3177.2</ele>
        <time>2021-08-05 19:23:26</time>
      </trkpt>
      <trkpt lat="37.05026" lon="-3.37132">
        <ele>3177.2</ele>
        <time>2021-08-05 19:23:27</time>
      </trkpt>
      <trkpt lat="37.05025" lon="-3.37133">
        <ele>3176.8</ele>
        <time>2021-08-05 19:23:28</time>
      </trkpt>
      <trkpt lat="37.05025" lon="-3.37133">
        <ele>3176.4</ele>
        <time>2021-08-05 19:23:29</time>
      </trkpt>
      <trkpt lat="37.05025" lon="-3.37134">
        <ele>3176.2</ele>
        <time>2021-08-05 19:23:30</time>
      </trkpt>
      <trkpt lat="37.05025" lon="-3.37134">
        <ele>3175.8</ele>
        <time>2021-08-05 19:23:31</time>
      </trkpt>
      <trkpt lat="37.05025" lon="-3.37136">
        <ele>3175.6</ele>
        <time>2021-08-05 19:23:32</time>
      </trkpt>
      <trkpt lat="37.05024" lon="-3.37137">
        <ele>3175.4</ele>
        <time>2021-08-05 19:23:33</time>
      </trkpt>
      <trkpt lat="37.05024" lon="-3.37137">
        <ele>3174.4</ele>
        <time>2021-08-05 19:23:34</time>
      </trkpt>
      <trkpt lat="37.05023" lon="-3.37136">
        <ele>3174</ele>
        <time>2021-08-05 19:23:35</time>
      </trkpt>
      <trkpt lat="37.05022" lon="-3.37136">
        <ele>3173.8</ele>
        <time>2021-08-05 19:23:36</time>
      </trkpt>
      <trkpt lat="37.05021" lon="-3.37136">
        <ele>3173.4</ele>
        <time>2021-08-05 19:23:37</time>
      </trkpt>
      <trkpt lat="37.0502" lon="-3.37136">
        <ele>3173</ele>
        <time>2021-08-05 19:23:38</time>
      </trkpt>
      <trkpt lat="37.05018" lon="-3.37134">
        <ele>3172.8</ele>
        <time>2021-08-05 19:23:39</time>
      </trkpt>
      <trkpt lat="37.05017" lon="-3.37134">
        <ele>3172.6</ele>
        <time>2021-08-05 19:23:40</time>
      </trkpt>
      <trkpt lat="37.05016" lon="-3.37134">
        <ele>3172.2</ele>
        <time>2021-08-05 19:23:41</time>
      </trkpt>
      <trkpt lat="37.05014" lon="-3.37135">
        <ele>3172</ele>
        <time>2021-08-05 19:23:42</time>
      </trkpt>
      <trkpt lat="37.05013" lon="-3.37135">
        <ele>3171.6</ele>
        <time>2021-08-05 19:23:43</time>
      </trkpt>
      <trkpt lat="37.05012" lon="-3.37136">
        <ele>3171.2</ele>
        <time>2021-08-05 19:23:44</time>
      </trkpt>
      <trkpt lat="37.05011" lon="-3.37137">
        <ele>3171</ele>
        <time>2021-08-05 19:23:45</time>
      </trkpt>
      <trkpt lat="37.0501" lon="-3.37137">
        <ele>3170.8</ele>
        <time>2021-08-05 19:23:46</time>
      </trkpt>
      <trkpt lat="37.05009" lon="-3.37137">
        <ele>3170.8</ele>
        <time>2021-08-05 19:23:47</time>
      </trkpt>
      <trkpt lat="37.05009" lon="-3.37137">
        <ele>3170.8</ele>
        <time>2021-08-05 19:23:48</time>
      </trkpt>
      <trkpt lat="37.0501" lon="-3.37135">
        <ele>3170.8</ele>
        <time>2021-08-05 19:23:49</time>
      </trkpt>
      <trkpt lat="37.05009" lon="-3.37135">
        <ele>3170.8</ele>
        <time>2021-08-05 19:23:50</time>
      </trkpt>
      <trkpt lat="37.05008" lon="-3.37134">
        <ele>3170.4</ele>
        <time>2021-08-05 19:23:51</time>
      </trkpt>
      <trkpt lat="37.05008" lon="-3.37135">
        <ele>3170.2</ele>
        <time>2021-08-05 19:23:52</time>
      </trkpt>
      <trkpt lat="37.05007" lon="-3.37136">
        <ele>3170</ele>
        <time>2021-08-05 19:23:53</time>
      </trkpt>
      <trkpt lat="37.05006" lon="-3.37135">
        <ele>3170</ele>
        <time>2021-08-05 19:23:54</time>
      </trkpt>
      <trkpt lat="37.05006" lon="-3.37134">
        <ele>3169.8</ele>
        <time>2021-08-05 19:23:55</time>
      </trkpt>
      <trkpt lat="37.05005" lon="-3.37135">
        <ele>3169.8</ele>
        <time>2021-08-05 19:23:56</time>
      </trkpt>
      <trkpt lat="37.05005" lon="-3.37135">
        <ele>3169.8</ele>
        <time>2021-08-05 19:23:57</time>
      </trkpt>
      <trkpt lat="37.05004" lon="-3.37136">
        <ele>3169.6</ele>
        <time>2021-08-05 19:23:58</time>
      </trkpt>
      <trkpt lat="37.05004" lon="-3.37136">
        <ele>3169.6</ele>
        <time>2021-08-05 19:23:59</time>
      </trkpt>
      <trkpt lat="37.05003" lon="-3.37135">
        <ele>3169.4</ele>
        <time>2021-08-05 19:24:00</time>
      </trkpt>
      <trkpt lat="37.05002" lon="-3.37135">
        <ele>3169.4</ele>
        <time>2021-08-05 19:24:01</time>
      </trkpt>
      <trkpt lat="37.05003" lon="-3.37135">
        <ele>3169.4</ele>
        <time>2021-08-05 19:24:02</time>
      </trkpt>
      <trkpt lat="37.05003" lon="-3.37135">
        <ele>3169.4</ele>
        <time>2021-08-05 19:24:03</time>
      </trkpt>
      <trkpt lat="37.05003" lon="-3.37135">
        <ele>3169.4</ele>
        <time>2021-08-05 19:24:04</time>
      </trkpt>
      <trkpt lat="37.05003" lon="-3.37135">
        <ele>3169.4</ele>
        <time>2021-08-05 19:24:05</time>
      </trkpt>
      <trkpt lat="37.05003" lon="-3.37134">
        <ele>3169.4</ele>
        <time>2021-08-05 19:24:06</time>
      </trkpt>
      <trkpt lat="37.05003" lon="-3.37134">
        <ele>3169.4</ele>
        <time>2021-08-05 19:24:07</time>
      </trkpt>
      <trkpt lat="37.05003" lon="-3.37134">
        <ele>3169.4</ele>
        <time>2021-08-05 19:24:08</time>
      </trkpt>
      <trkpt lat="37.05003" lon="-3.37133">
        <ele>3169.4</ele>
        <time>2021-08-05 19:24:09</time>
      </trkpt>
      <trkpt lat="37.05003" lon="-3.37134">
        <ele>3169.4</ele>
        <time>2021-08-05 19:24:10</time>
      </trkpt>
      <trkpt lat="37.05003" lon="-3.37134">
        <ele>3169.4</ele>
        <time>2021-08-05 19:24:11</time>
      </trkpt>
      <trkpt lat="37.05002" lon="-3.37134">
        <ele>3169.6</ele>
        <time>2021-08-05 19:24:12</time>
      </trkpt>
      <trkpt lat="37.05002" lon="-3.37134">
        <ele>3169.4</ele>
        <time>2021-08-05 19:24:13</time>
      </trkpt>
      <trkpt lat="37.05002" lon="-3.37134">
        <ele>3169.2</ele>
        <time>2021-08-05 19:24:14</time>
      </trkpt>
      <trkpt lat="37.05002" lon="-3.37134">
        <ele>3169.2</ele>
        <time>2021-08-05 19:24:15</time>
      </trkpt>
      <trkpt lat="37.05002" lon="-3.37135">
        <ele>3169.2</ele>
        <time>2021-08-05 19:24:16</time>
      </trkpt>
      <trkpt lat="37.05002" lon="-3.37135">
        <ele>3169.2</ele>
        <time>2021-08-05 19:24:17</time>
      </trkpt>
      <trkpt lat="37.05002" lon="-3.37135">
        <ele>3169.2</ele>
        <time>2021-08-05 19:24:18</time>
      </trkpt>
      <trkpt lat="37.05002" lon="-3.37136">
        <ele>3169.2</ele>
        <time>2021-08-05 19:24:19</time>
      </trkpt>
      <trkpt lat="37.05002" lon="-3.37136">
        <ele>3169.2</ele>
        <time>2021-08-05 19:24:20</time>
      </trkpt>
      <trkpt lat="37.05002" lon="-3.37137">
        <ele>3169.2</ele>
        <time>2021-08-05 19:24:21</time>
      </trkpt>
      <trkpt lat="37.05003" lon="-3.37137">
        <ele>3169.2</ele>
        <time>2021-08-05 19:24:22</time>
      </trkpt>
      <trkpt lat="37.05003" lon="-3.37138">
        <ele>3169.4</ele>
        <time>2021-08-05 19:24:23</time>
      </trkpt>
      <trkpt lat="37.05003" lon="-3.37138">
        <ele>3169.4</ele>
        <time>2021-08-05 19:24:24</time>
      </trkpt>
      <trkpt lat="37.05002" lon="-3.37138">
        <ele>3169.4</ele>
        <time>2021-08-05 19:24:25</time>
      </trkpt>
      <trkpt lat="37.05002" lon="-3.37137">
        <ele>3169.4</ele>
        <time>2021-08-05 19:24:26</time>
      </trkpt>
      <trkpt lat="37.05002" lon="-3.37136">
        <ele>3169.4</ele>
        <time>2021-08-05 19:24:27</time>
      </trkpt>
      <trkpt lat="37.05002" lon="-3.37135">
        <ele>3169.4</ele>
        <time>2021-08-05 19:24:28</time>
      </trkpt>
      <trkpt lat="37.05002" lon="-3.37135">
        <ele>3169.4</ele>
        <time>2021-08-05 19:24:29</time>
      </trkpt>
      <trkpt lat="37.05002" lon="-3.37134">
        <ele>3169.8</ele>
        <time>2021-08-05 19:24:30</time>
      </trkpt>
      <trkpt lat="37.05002" lon="-3.37134">
        <ele>3169.8</ele>
        <time>2021-08-05 19:24:31</time>
      </trkpt>
      <trkpt lat="37.05002" lon="-3.37133">
        <ele>3170</ele>
        <time>2021-08-05 19:24:32</time>
      </trkpt>
      <trkpt lat="37.05002" lon="-3.37133">
        <ele>3170</ele>
        <time>2021-08-05 19:24:33</time>
      </trkpt>
      <trkpt lat="37.05002" lon="-3.37134">
        <ele>3170</ele>
        <time>2021-08-05 19:24:34</time>
      </trkpt>
      <trkpt lat="37.05003" lon="-3.37134">
        <ele>3170</ele>
        <time>2021-08-05 19:24:35</time>
      </trkpt>
      <trkpt lat="37.05003" lon="-3.37135">
        <ele>3169.8</ele>
        <time>2021-08-05 19:24:36</time>
      </trkpt>
      <trkpt lat="37.05003" lon="-3.37135">
        <ele>3169.8</ele>
        <time>2021-08-05 19:24:37</time>
      </trkpt>
      <trkpt lat="37.05003" lon="-3.37136">
        <ele>3169.8</ele>
        <time>2021-08-05 19:24:38</time>
      </trkpt>
      <trkpt lat="37.05001" lon="-3.37136">
        <ele>3169.4</ele>
        <time>2021-08-05 19:24:39</time>
      </trkpt>
      <trkpt lat="37.05" lon="-3.37135">
        <ele>3169.2</ele>
        <time>2021-08-05 19:24:40</time>
      </trkpt>
      <trkpt lat="37.04999" lon="-3.37136">
        <ele>3169</ele>
        <time>2021-08-05 19:24:41</time>
      </trkpt>
      <trkpt lat="37.04999" lon="-3.37136">
        <ele>3168.8</ele>
        <time>2021-08-05 19:24:42</time>
      </trkpt>
      <trkpt lat="37.04997" lon="-3.37135">
        <ele>3168.8</ele>
        <time>2021-08-05 19:24:43</time>
      </trkpt>
      <trkpt lat="37.04996" lon="-3.37135">
        <ele>3168.6</ele>
        <time>2021-08-05 19:24:44</time>
      </trkpt>
      <trkpt lat="37.04996" lon="-3.37135">
        <ele>3168.6</ele>
        <time>2021-08-05 19:24:45</time>
      </trkpt>
      <trkpt lat="37.04995" lon="-3.37136">
        <ele>3168.6</ele>
        <time>2021-08-05 19:24:46</time>
      </trkpt>
      <trkpt lat="37.04994" lon="-3.37136">
        <ele>3168.4</ele>
        <time>2021-08-05 19:24:47</time>
      </trkpt>
      <trkpt lat="37.04993" lon="-3.37136">
        <ele>3168.4</ele>
        <time>2021-08-05 19:24:48</time>
      </trkpt>
      <trkpt lat="37.04993" lon="-3.37136">
        <ele>3168.6</ele>
        <time>2021-08-05 19:24:49</time>
      </trkpt>
      <trkpt lat="37.04992" lon="-3.37136">
        <ele>3168.6</ele>
        <time>2021-08-05 19:24:50</time>
      </trkpt>
      <trkpt lat="37.04991" lon="-3.37136">
        <ele>3168.4</ele>
        <time>2021-08-05 19:24:51</time>
      </trkpt>
      <trkpt lat="37.04991" lon="-3.37136">
        <ele>3168.6</ele>
        <time>2021-08-05 19:24:52</time>
      </trkpt>
      <trkpt lat="37.04991" lon="-3.37137">
        <ele>3168.2</ele>
        <time>2021-08-05 19:24:53</time>
      </trkpt>
      <trkpt lat="37.0499" lon="-3.37137">
        <ele>3168.2</ele>
        <time>2021-08-05 19:24:54</time>
      </trkpt>
      <trkpt lat="37.0499" lon="-3.37138">
        <ele>3168</ele>
        <time>2021-08-05 19:24:55</time>
      </trkpt>
      <trkpt lat="37.04989" lon="-3.37138">
        <ele>3168</ele>
        <time>2021-08-05 19:24:56</time>
      </trkpt>
      <trkpt lat="37.04988" lon="-3.37138">
        <ele>3168</ele>
        <time>2021-08-05 19:24:57</time>
      </trkpt>
      <trkpt lat="37.04988" lon="-3.37138">
        <ele>3168</ele>
        <time>2021-08-05 19:24:58</time>
      </trkpt>
      <trkpt lat="37.04987" lon="-3.37138">
        <ele>3168</ele>
        <time>2021-08-05 19:24:59</time>
      </trkpt>
      <trkpt lat="37.04986" lon="-3.37139">
        <ele>3167.8</ele>
        <time>2021-08-05 19:25:00</time>
      </trkpt>
      <trkpt lat="37.04986" lon="-3.37139">
        <ele>3167.8</ele>
        <time>2021-08-05 19:25:01</time>
      </trkpt>
      <trkpt lat="37.04984" lon="-3.37138">
        <ele>3167.8</ele>
        <time>2021-08-05 19:25:02</time>
      </trkpt>
      <trkpt lat="37.04983" lon="-3.37139">
        <ele>3167.6</ele>
        <time>2021-08-05 19:25:03</time>
      </trkpt>
      <trkpt lat="37.04982" lon="-3.37139">
        <ele>3167.4</ele>
        <time>2021-08-05 19:25:04</time>
      </trkpt>
      <trkpt lat="37.04981" lon="-3.37139">
        <ele>3167.4</ele>
        <time>2021-08-05 19:25:05</time>
      </trkpt>
      <trkpt lat="37.0498" lon="-3.37139">
        <ele>3167</ele>
        <time>2021-08-05 19:25:06</time>
      </trkpt>
      <trkpt lat="37.0498" lon="-3.37139">
        <ele>3166.8</ele>
        <time>2021-08-05 19:25:07</time>
      </trkpt>
      <trkpt lat="37.0498" lon="-3.3714">
        <ele>3166.6</ele>
        <time>2021-08-05 19:25:08</time>
      </trkpt>
      <trkpt lat="37.04979" lon="-3.3714">
        <ele>3166.4</ele>
        <time>2021-08-05 19:25:09</time>
      </trkpt>
      <trkpt lat="37.04979" lon="-3.37141">
        <ele>3166.2</ele>
        <time>2021-08-05 19:25:10</time>
      </trkpt>
      <trkpt lat="37.04978" lon="-3.37141">
        <ele>3166.2</ele>
        <time>2021-08-05 19:25:11</time>
      </trkpt>
      <trkpt lat="37.04976" lon="-3.37141">
        <ele>3166</ele>
        <time>2021-08-05 19:25:12</time>
      </trkpt>
      <trkpt lat="37.04976" lon="-3.37142">
        <ele>3166</ele>
        <time>2021-08-05 19:25:13</time>
      </trkpt>
      <trkpt lat="37.04974" lon="-3.37142">
        <ele>3165.8</ele>
        <time>2021-08-05 19:25:14</time>
      </trkpt>
      <trkpt lat="37.04974" lon="-3.37142">
        <ele>3165.8</ele>
        <time>2021-08-05 19:25:15</time>
      </trkpt>
      <trkpt lat="37.04973" lon="-3.37143">
        <ele>3165.6</ele>
        <time>2021-08-05 19:25:16</time>
      </trkpt>
      <trkpt lat="37.04972" lon="-3.37143">
        <ele>3165.2</ele>
        <time>2021-08-05 19:25:17</time>
      </trkpt>
      <trkpt lat="37.04971" lon="-3.37143">
        <ele>3165.2</ele>
        <time>2021-08-05 19:25:18</time>
      </trkpt>
      <trkpt lat="37.0497" lon="-3.37143">
        <ele>3165</ele>
        <time>2021-08-05 19:25:19</time>
      </trkpt>
      <trkpt lat="37.04969" lon="-3.37143">
        <ele>3165</ele>
        <time>2021-08-05 19:25:20</time>
      </trkpt>
      <trkpt lat="37.04969" lon="-3.37143">
        <ele>3165</ele>
        <time>2021-08-05 19:25:21</time>
      </trkpt>
      <trkpt lat="37.04967" lon="-3.37143">
        <ele>3165</ele>
        <time>2021-08-05 19:25:22</time>
      </trkpt>
      <trkpt lat="37.04967" lon="-3.37143">
        <ele>3165</ele>
        <time>2021-08-05 19:25:23</time>
      </trkpt>
      <trkpt lat="37.04966" lon="-3.37143">
        <ele>3164.8</ele>
        <time>2021-08-05 19:25:24</time>
      </trkpt>
      <trkpt lat="37.04965" lon="-3.37143">
        <ele>3164.4</ele>
        <time>2021-08-05 19:25:25</time>
      </trkpt>
      <trkpt lat="37.04964" lon="-3.37142">
        <ele>3164.6</ele>
        <time>2021-08-05 19:25:26</time>
      </trkpt>
      <trkpt lat="37.04964" lon="-3.37142">
        <ele>3164.4</ele>
        <time>2021-08-05 19:25:27</time>
      </trkpt>
      <trkpt lat="37.04963" lon="-3.37141">
        <ele>3164.2</ele>
        <time>2021-08-05 19:25:28</time>
      </trkpt>
      <trkpt lat="37.04962" lon="-3.37141">
        <ele>3164.2</ele>
        <time>2021-08-05 19:25:29</time>
      </trkpt>
      <trkpt lat="37.04962" lon="-3.3714">
        <ele>3164</ele>
        <time>2021-08-05 19:25:30</time>
      </trkpt>
      <trkpt lat="37.04961" lon="-3.37141">
        <ele>3164</ele>
        <time>2021-08-05 19:25:31</time>
      </trkpt>
      <trkpt lat="37.04961" lon="-3.37141">
        <ele>3164</ele>
        <time>2021-08-05 19:25:32</time>
      </trkpt>
      <trkpt lat="37.0496" lon="-3.37141">
        <ele>3163.8</ele>
        <time>2021-08-05 19:25:33</time>
      </trkpt>
      <trkpt lat="37.04959" lon="-3.37141">
        <ele>3163.8</ele>
        <time>2021-08-05 19:25:34</time>
      </trkpt>
      <trkpt lat="37.04959" lon="-3.37141">
        <ele>3163.8</ele>
        <time>2021-08-05 19:25:35</time>
      </trkpt>
      <trkpt lat="37.04958" lon="-3.3714">
        <ele>3164</ele>
        <time>2021-08-05 19:25:36</time>
      </trkpt>
      <trkpt lat="37.04957" lon="-3.3714">
        <ele>3164</ele>
        <time>2021-08-05 19:25:37</time>
      </trkpt>
      <trkpt lat="37.04957" lon="-3.3714">
        <ele>3164</ele>
        <time>2021-08-05 19:25:38</time>
      </trkpt>
      <trkpt lat="37.04956" lon="-3.3714">
        <ele>3164</ele>
        <time>2021-08-05 19:25:39</time>
      </trkpt>
      <trkpt lat="37.04955" lon="-3.3714">
        <ele>3164</ele>
        <time>2021-08-05 19:25:40</time>
      </trkpt>
      <trkpt lat="37.04955" lon="-3.37141">
        <ele>3163.8</ele>
        <time>2021-08-05 19:25:41</time>
      </trkpt>
      <trkpt lat="37.04955" lon="-3.37141">
        <ele>3163.8</ele>
        <time>2021-08-05 19:25:42</time>
      </trkpt>
      <trkpt lat="37.04954" lon="-3.37142">
        <ele>3163.8</ele>
        <time>2021-08-05 19:25:43</time>
      </trkpt>
      <trkpt lat="37.04954" lon="-3.37142">
        <ele>3163.8</ele>
        <time>2021-08-05 19:25:44</time>
      </trkpt>
      <trkpt lat="37.04954" lon="-3.37142">
        <ele>3163.4</ele>
        <time>2021-08-05 19:25:45</time>
      </trkpt>
      <trkpt lat="37.04953" lon="-3.37143">
        <ele>3163.2</ele>
        <time>2021-08-05 19:25:46</time>
      </trkpt>
      <trkpt lat="37.04952" lon="-3.37143">
        <ele>3163.2</ele>
        <time>2021-08-05 19:25:47</time>
      </trkpt>
      <trkpt lat="37.04952" lon="-3.37143">
        <ele>3163</ele>
        <time>2021-08-05 19:25:48</time>
      </trkpt>
      <trkpt lat="37.04951" lon="-3.37143">
        <ele>3162.6</ele>
        <time>2021-08-05 19:25:49</time>
      </trkpt>
      <trkpt lat="37.04951" lon="-3.37143">
        <ele>3162.2</ele>
        <time>2021-08-05 19:25:50</time>
      </trkpt>
      <trkpt lat="37.0495" lon="-3.37143">
        <ele>3161.8</ele>
        <time>2021-08-05 19:25:51</time>
      </trkpt>
      <trkpt lat="37.0495" lon="-3.37143">
        <ele>3161.6</ele>
        <time>2021-08-05 19:25:52</time>
      </trkpt>
      <trkpt lat="37.04949" lon="-3.37143">
        <ele>3161.6</ele>
        <time>2021-08-05 19:25:53</time>
      </trkpt>
      <trkpt lat="37.04948" lon="-3.37143">
        <ele>3161.6</ele>
        <time>2021-08-05 19:25:54</time>
      </trkpt>
      <trkpt lat="37.04947" lon="-3.37142">
        <ele>3161.6</ele>
        <time>2021-08-05 19:25:55</time>
      </trkpt>
      <trkpt lat="37.04947" lon="-3.37141">
        <ele>3161.6</ele>
        <time>2021-08-05 19:25:56</time>
      </trkpt>
      <trkpt lat="37.04946" lon="-3.3714">
        <ele>3161.6</ele>
        <time>2021-08-05 19:25:57</time>
      </trkpt>
      <trkpt lat="37.04945" lon="-3.3714">
        <ele>3161.6</ele>
        <time>2021-08-05 19:25:58</time>
      </trkpt>
      <trkpt lat="37.04945" lon="-3.37138">
        <ele>3161.6</ele>
        <time>2021-08-05 19:25:59</time>
      </trkpt>
      <trkpt lat="37.04945" lon="-3.37137">
        <ele>3161.4</ele>
        <time>2021-08-05 19:26:00</time>
      </trkpt>
      <trkpt lat="37.04944" lon="-3.37137">
        <ele>3161.4</ele>
        <time>2021-08-05 19:26:01</time>
      </trkpt>
      <trkpt lat="37.04944" lon="-3.37136">
        <ele>3161.4</ele>
        <time>2021-08-05 19:26:02</time>
      </trkpt>
      <trkpt lat="37.04944" lon="-3.37135">
        <ele>3161.4</ele>
        <time>2021-08-05 19:26:03</time>
      </trkpt>
      <trkpt lat="37.04944" lon="-3.37135">
        <ele>3161.6</ele>
        <time>2021-08-05 19:26:04</time>
      </trkpt>
      <trkpt lat="37.04944" lon="-3.37134">
        <ele>3161.6</ele>
        <time>2021-08-05 19:26:05</time>
      </trkpt>
      <trkpt lat="37.04944" lon="-3.37133">
        <ele>3161.8</ele>
        <time>2021-08-05 19:26:06</time>
      </trkpt>
      <trkpt lat="37.04944" lon="-3.37131">
        <ele>3161.8</ele>
        <time>2021-08-05 19:26:07</time>
      </trkpt>
      <trkpt lat="37.04943" lon="-3.3713">
        <ele>3162</ele>
        <time>2021-08-05 19:26:08</time>
      </trkpt>
      <trkpt lat="37.04943" lon="-3.37129">
        <ele>3162</ele>
        <time>2021-08-05 19:26:09</time>
      </trkpt>
      <trkpt lat="37.04942" lon="-3.37128">
        <ele>3162</ele>
        <time>2021-08-05 19:26:10</time>
      </trkpt>
      <trkpt lat="37.04942" lon="-3.37127">
        <ele>3162</ele>
        <time>2021-08-05 19:26:11</time>
      </trkpt>
      <trkpt lat="37.04942" lon="-3.37126">
        <ele>3162.2</ele>
        <time>2021-08-05 19:26:12</time>
      </trkpt>
      <trkpt lat="37.04941" lon="-3.37125">
        <ele>3162.2</ele>
        <time>2021-08-05 19:26:13</time>
      </trkpt>
      <trkpt lat="37.04941" lon="-3.37124">
        <ele>3162</ele>
        <time>2021-08-05 19:26:14</time>
      </trkpt>
      <trkpt lat="37.0494" lon="-3.37122">
        <ele>3162</ele>
        <time>2021-08-05 19:26:15</time>
      </trkpt>
      <trkpt lat="37.0494" lon="-3.37122">
        <ele>3162</ele>
        <time>2021-08-05 19:26:16</time>
      </trkpt>
      <trkpt lat="37.0494" lon="-3.37121">
        <ele>3162</ele>
        <time>2021-08-05 19:26:17</time>
      </trkpt>
      <trkpt lat="37.04941" lon="-3.3712">
        <ele>3162</ele>
        <time>2021-08-05 19:26:18</time>
      </trkpt>
      <trkpt lat="37.04942" lon="-3.37119">
        <ele>3162</ele>
        <time>2021-08-05 19:26:19</time>
      </trkpt>
      <trkpt lat="37.04943" lon="-3.37118">
        <ele>3162</ele>
        <time>2021-08-05 19:26:20</time>
      </trkpt>
      <trkpt lat="37.04943" lon="-3.37118">
        <ele>3162</ele>
        <time>2021-08-05 19:26:21</time>
      </trkpt>
      <trkpt lat="37.04945" lon="-3.37118">
        <ele>3162</ele>
        <time>2021-08-05 19:26:22</time>
      </trkpt>
      <trkpt lat="37.04946" lon="-3.37118">
        <ele>3161.8</ele>
        <time>2021-08-05 19:26:23</time>
      </trkpt>
      <trkpt lat="37.04947" lon="-3.37118">
        <ele>3162</ele>
        <time>2021-08-05 19:26:24</time>
      </trkpt>
      <trkpt lat="37.04947" lon="-3.37117">
        <ele>3162</ele>
        <time>2021-08-05 19:26:25</time>
      </trkpt>
      <trkpt lat="37.04949" lon="-3.37117">
        <ele>3161.8</ele>
        <time>2021-08-05 19:26:26</time>
      </trkpt>
      <trkpt lat="37.04949" lon="-3.37116">
        <ele>3161.8</ele>
        <time>2021-08-05 19:26:27</time>
      </trkpt>
      <trkpt lat="37.0495" lon="-3.37116">
        <ele>3162</ele>
        <time>2021-08-05 19:26:28</time>
      </trkpt>
      <trkpt lat="37.04951" lon="-3.37116">
        <ele>3162.2</ele>
        <time>2021-08-05 19:26:29</time>
      </trkpt>
      <trkpt lat="37.04952" lon="-3.37116">
        <ele>3162.4</ele>
        <time>2021-08-05 19:26:30</time>
      </trkpt>
      <trkpt lat="37.04952" lon="-3.37116">
        <ele>3162.6</ele>
        <time>2021-08-05 19:26:31</time>
      </trkpt>
      <trkpt lat="37.04952" lon="-3.37115">
        <ele>3162.8</ele>
        <time>2021-08-05 19:26:32</time>
      </trkpt>
      <trkpt lat="37.04953" lon="-3.37115">
        <ele>3163</ele>
        <time>2021-08-05 19:26:33</time>
      </trkpt>
      <trkpt lat="37.04952" lon="-3.37115">
        <ele>3163</ele>
        <time>2021-08-05 19:26:34</time>
      </trkpt>
      <trkpt lat="37.04952" lon="-3.37115">
        <ele>3163.2</ele>
        <time>2021-08-05 19:26:35</time>
      </trkpt>
      <trkpt lat="37.04952" lon="-3.37115">
        <ele>3163.2</ele>
        <time>2021-08-05 19:26:36</time>
      </trkpt>
      <trkpt lat="37.04953" lon="-3.37115">
        <ele>3163.4</ele>
        <time>2021-08-05 19:26:37</time>
      </trkpt>
      <trkpt lat="37.04955" lon="-3.37115">
        <ele>3163.4</ele>
        <time>2021-08-05 19:26:38</time>
      </trkpt>
      <trkpt lat="37.04954" lon="-3.37115">
        <ele>3163.4</ele>
        <time>2021-08-05 19:26:39</time>
      </trkpt>
      <trkpt lat="37.04954" lon="-3.37115">
        <ele>3163.2</ele>
        <time>2021-08-05 19:26:40</time>
      </trkpt>
      <trkpt lat="37.04954" lon="-3.37115">
        <ele>3163.2</ele>
        <time>2021-08-05 19:26:41</time>
      </trkpt>
      <trkpt lat="37.04954" lon="-3.37115">
        <ele>3163.2</ele>
        <time>2021-08-05 19:26:42</time>
      </trkpt>
      <trkpt lat="37.04954" lon="-3.37115">
        <ele>3163.2</ele>
        <time>2021-08-05 19:26:43</time>
      </trkpt>
      <trkpt lat="37.04954" lon="-3.37116">
        <ele>3163.2</ele>
        <time>2021-08-05 19:26:44</time>
      </trkpt>
      <trkpt lat="37.04954" lon="-3.37115">
        <ele>3163.2</ele>
        <time>2021-08-05 19:26:45</time>
      </trkpt>
      <trkpt lat="37.04954" lon="-3.37115">
        <ele>3163.2</ele>
        <time>2021-08-05 19:26:46</time>
      </trkpt>
      <trkpt lat="37.04953" lon="-3.37115">
        <ele>3163.2</ele>
        <time>2021-08-05 19:26:47</time>
      </trkpt>
      <trkpt lat="37.04952" lon="-3.37116">
        <ele>3163.4</ele>
        <time>2021-08-05 19:26:48</time>
      </trkpt>
      <trkpt lat="37.04952" lon="-3.37116">
        <ele>3163.6</ele>
        <time>2021-08-05 19:26:49</time>
      </trkpt>
      <trkpt lat="37.04952" lon="-3.37116">
        <ele>3163.4</ele>
        <time>2021-08-05 19:26:50</time>
      </trkpt>
      <trkpt lat="37.04951" lon="-3.37116">
        <ele>3163.4</ele>
        <time>2021-08-05 19:26:51</time>
      </trkpt>
      <trkpt lat="37.04951" lon="-3.37116">
        <ele>3163.4</ele>
        <time>2021-08-05 19:26:52</time>
      </trkpt>
      <trkpt lat="37.04951" lon="-3.37116">
        <ele>3163.4</ele>
        <time>2021-08-05 19:26:53</time>
      </trkpt>
      <trkpt lat="37.04951" lon="-3.37117">
        <ele>3163.4</ele>
        <time>2021-08-05 19:26:54</time>
      </trkpt>
      <trkpt lat="37.04951" lon="-3.37117">
        <ele>3163.4</ele>
        <time>2021-08-05 19:26:55</time>
      </trkpt>
      <trkpt lat="37.04951" lon="-3.37117">
        <ele>3163.2</ele>
        <time>2021-08-05 19:26:56</time>
      </trkpt>
      <trkpt lat="37.04951" lon="-3.37118">
        <ele>3163.2</ele>
        <time>2021-08-05 19:26:57</time>
      </trkpt>
      <trkpt lat="37.0495" lon="-3.37118">
        <ele>3163.2</ele>
        <time>2021-08-05 19:26:58</time>
      </trkpt>
      <trkpt lat="37.0495" lon="-3.37118">
        <ele>3163.2</ele>
        <time>2021-08-05 19:26:59</time>
      </trkpt>
      <trkpt lat="37.0495" lon="-3.37118">
        <ele>3163.2</ele>
        <time>2021-08-05 19:27:00</time>
      </trkpt>
      <trkpt lat="37.0495" lon="-3.37118">
        <ele>3163.2</ele>
        <time>2021-08-05 19:27:01</time>
      </trkpt>
      <trkpt lat="37.04949" lon="-3.37118">
        <ele>3163.2</ele>
        <time>2021-08-05 19:27:02</time>
      </trkpt>
      <trkpt lat="37.04949" lon="-3.37118">
        <ele>3163.4</ele>
        <time>2021-08-05 19:27:03</time>
      </trkpt>
      <trkpt lat="37.04949" lon="-3.37118">
        <ele>3163.6</ele>
        <time>2021-08-05 19:27:04</time>
      </trkpt>
      <trkpt lat="37.04949" lon="-3.37117">
        <ele>3163.8</ele>
        <time>2021-08-05 19:27:05</time>
      </trkpt>
      <trkpt lat="37.04949" lon="-3.37117">
        <ele>3163.8</ele>
        <time>2021-08-05 19:27:06</time>
      </trkpt>
      <trkpt lat="37.04949" lon="-3.37117">
        <ele>3163.8</ele>
        <time>2021-08-05 19:27:07</time>
      </trkpt>
      <trkpt lat="37.04949" lon="-3.37117">
        <ele>3163.8</ele>
        <time>2021-08-05 19:27:08</time>
      </trkpt>
      <trkpt lat="37.04949" lon="-3.37116">
        <ele>3164</ele>
        <time>2021-08-05 19:27:09</time>
      </trkpt>
      <trkpt lat="37.04951" lon="-3.37116">
        <ele>3164</ele>
        <time>2021-08-05 19:27:10</time>
      </trkpt>
      <trkpt lat="37.0495" lon="-3.37116">
        <ele>3163.8</ele>
        <time>2021-08-05 19:27:11</time>
      </trkpt>
      <trkpt lat="37.04951" lon="-3.37116">
        <ele>3163.6</ele>
        <time>2021-08-05 19:27:12</time>
      </trkpt>
      <trkpt lat="37.04952" lon="-3.37115">
        <ele>3163.6</ele>
        <time>2021-08-05 19:27:13</time>
      </trkpt>
      <trkpt lat="37.04952" lon="-3.37115">
        <ele>3163.6</ele>
        <time>2021-08-05 19:27:14</time>
      </trkpt>
      <trkpt lat="37.04952" lon="-3.37115">
        <ele>3163.4</ele>
        <time>2021-08-05 19:27:15</time>
      </trkpt>
      <trkpt lat="37.04951" lon="-3.37115">
        <ele>3163.4</ele>
        <time>2021-08-05 19:27:16</time>
      </trkpt>
      <trkpt lat="37.04951" lon="-3.37114">
        <ele>3163.4</ele>
        <time>2021-08-05 19:27:17</time>
      </trkpt>
      <trkpt lat="37.0495" lon="-3.37114">
        <ele>3163.4</ele>
        <time>2021-08-05 19:27:18</time>
      </trkpt>
      <trkpt lat="37.0495" lon="-3.37114">
        <ele>3163.4</ele>
        <time>2021-08-05 19:27:19</time>
      </trkpt>
      <trkpt lat="37.0495" lon="-3.37115">
        <ele>3163.4</ele>
        <time>2021-08-05 19:27:20</time>
      </trkpt>
      <trkpt lat="37.04951" lon="-3.37117">
        <ele>3163.8</ele>
        <time>2021-08-05 19:27:21</time>
      </trkpt>
      <trkpt lat="37.04952" lon="-3.37117">
        <ele>3163.8</ele>
        <time>2021-08-05 19:27:22</time>
      </trkpt>
      <trkpt lat="37.04952" lon="-3.37117">
        <ele>3164</ele>
        <time>2021-08-05 19:27:23</time>
      </trkpt>
      <trkpt lat="37.04952" lon="-3.37116">
        <ele>3164</ele>
        <time>2021-08-05 19:27:24</time>
      </trkpt>
      <trkpt lat="37.04951" lon="-3.37117">
        <ele>3164</ele>
        <time>2021-08-05 19:27:25</time>
      </trkpt>
      <trkpt lat="37.0495" lon="-3.37117">
        <ele>3164</ele>
        <time>2021-08-05 19:27:26</time>
      </trkpt>
      <trkpt lat="37.04949" lon="-3.37117">
        <ele>3164.2</ele>
        <time>2021-08-05 19:27:27</time>
      </trkpt>
      <trkpt lat="37.04948" lon="-3.37117">
        <ele>3164.2</ele>
        <time>2021-08-05 19:27:28</time>
      </trkpt>
      <trkpt lat="37.04947" lon="-3.37118">
        <ele>3164</ele>
        <time>2021-08-05 19:27:29</time>
      </trkpt>
      <trkpt lat="37.04945" lon="-3.37118">
        <ele>3164.2</ele>
        <time>2021-08-05 19:27:30</time>
      </trkpt>
      <trkpt lat="37.04944" lon="-3.37119">
        <ele>3164.2</ele>
        <time>2021-08-05 19:27:31</time>
      </trkpt>
      <trkpt lat="37.04944" lon="-3.3712">
        <ele>3164.2</ele>
        <time>2021-08-05 19:27:32</time>
      </trkpt>
      <trkpt lat="37.04944" lon="-3.37122">
        <ele>3164.2</ele>
        <time>2021-08-05 19:27:33</time>
      </trkpt>
      <trkpt lat="37.04943" lon="-3.37123">
        <ele>3164.4</ele>
        <time>2021-08-05 19:27:34</time>
      </trkpt>
      <trkpt lat="37.04943" lon="-3.37125">
        <ele>3164.4</ele>
        <time>2021-08-05 19:27:35</time>
      </trkpt>
      <trkpt lat="37.04944" lon="-3.37126">
        <ele>3164.4</ele>
        <time>2021-08-05 19:27:36</time>
      </trkpt>
      <trkpt lat="37.04944" lon="-3.37128">
        <ele>3164.4</ele>
        <time>2021-08-05 19:27:37</time>
      </trkpt>
      <trkpt lat="37.04945" lon="-3.37129">
        <ele>3164.2</ele>
        <time>2021-08-05 19:27:38</time>
      </trkpt>
      <trkpt lat="37.04945" lon="-3.3713">
        <ele>3164</ele>
        <time>2021-08-05 19:27:39</time>
      </trkpt>
      <trkpt lat="37.04946" lon="-3.37131">
        <ele>3163.8</ele>
        <time>2021-08-05 19:27:40</time>
      </trkpt>
      <trkpt lat="37.04946" lon="-3.37132">
        <ele>3163.6</ele>
        <time>2021-08-05 19:27:41</time>
      </trkpt>
      <trkpt lat="37.04947" lon="-3.37134">
        <ele>3163.4</ele>
        <time>2021-08-05 19:27:42</time>
      </trkpt>
      <trkpt lat="37.04948" lon="-3.37135">
        <ele>3163.2</ele>
        <time>2021-08-05 19:27:43</time>
      </trkpt>
      <trkpt lat="37.04948" lon="-3.37136">
        <ele>3163.2</ele>
        <time>2021-08-05 19:27:44</time>
      </trkpt>
      <trkpt lat="37.04949" lon="-3.37137">
        <ele>3163.2</ele>
        <time>2021-08-05 19:27:45</time>
      </trkpt>
      <trkpt lat="37.0495" lon="-3.37139">
        <ele>3163</ele>
        <time>2021-08-05 19:27:46</time>
      </trkpt>
      <trkpt lat="37.04952" lon="-3.3714">
        <ele>3163</ele>
        <time>2021-08-05 19:27:47</time>
      </trkpt>
      <trkpt lat="37.04953" lon="-3.3714">
        <ele>3163.2</ele>
        <time>2021-08-05 19:27:48</time>
      </trkpt>
      <trkpt lat="37.04954" lon="-3.3714">
        <ele>3163.2</ele>
        <time>2021-08-05 19:27:49</time>
      </trkpt>
      <trkpt lat="37.04955" lon="-3.3714">
        <ele>3163.2</ele>
        <time>2021-08-05 19:27:50</time>
      </trkpt>
      <trkpt lat="37.04956" lon="-3.37139">
        <ele>3163.4</ele>
        <time>2021-08-05 19:27:51</time>
      </trkpt>
      <trkpt lat="37.04956" lon="-3.37139">
        <ele>3163.4</ele>
        <time>2021-08-05 19:27:52</time>
      </trkpt>
      <trkpt lat="37.04956" lon="-3.37138">
        <ele>3163.6</ele>
        <time>2021-08-05 19:27:53</time>
      </trkpt>
      <trkpt lat="37.04956" lon="-3.37138">
        <ele>3163.8</ele>
        <time>2021-08-05 19:27:54</time>
      </trkpt>
      <trkpt lat="37.04956" lon="-3.37137">
        <ele>3163.8</ele>
        <time>2021-08-05 19:27:55</time>
      </trkpt>
      <trkpt lat="37.04956" lon="-3.37137">
        <ele>3164.2</ele>
        <time>2021-08-05 19:27:56</time>
      </trkpt>
      <trkpt lat="37.04955" lon="-3.37136">
        <ele>3164.4</ele>
        <time>2021-08-05 19:27:57</time>
      </trkpt>
      <trkpt lat="37.04956" lon="-3.37136">
        <ele>3164.6</ele>
        <time>2021-08-05 19:27:58</time>
      </trkpt>
      <trkpt lat="37.04957" lon="-3.37136">
        <ele>3164.8</ele>
        <time>2021-08-05 19:27:59</time>
      </trkpt>
      <trkpt lat="37.04957" lon="-3.37135">
        <ele>3165</ele>
        <time>2021-08-05 19:28:00</time>
      </trkpt>
      <trkpt lat="37.04957" lon="-3.37134">
        <ele>3165.2</ele>
        <time>2021-08-05 19:28:01</time>
      </trkpt>
      <trkpt lat="37.04957" lon="-3.37134">
        <ele>3165.4</ele>
        <time>2021-08-05 19:28:02</time>
      </trkpt>
      <trkpt lat="37.04958" lon="-3.37133">
        <ele>3165.6</ele>
        <time>2021-08-05 19:28:03</time>
      </trkpt>
      <trkpt lat="37.0496" lon="-3.37133">
        <ele>3166.2</ele>
        <time>2021-08-05 19:28:04</time>
      </trkpt>
      <trkpt lat="37.0496" lon="-3.37133">
        <ele>3166.4</ele>
        <time>2021-08-05 19:28:05</time>
      </trkpt>
      <trkpt lat="37.0496" lon="-3.37132">
        <ele>3166.8</ele>
        <time>2021-08-05 19:28:06</time>
      </trkpt>
      <trkpt lat="37.0496" lon="-3.37132">
        <ele>3167.2</ele>
        <time>2021-08-05 19:28:07</time>
      </trkpt>
      <trkpt lat="37.0496" lon="-3.37131">
        <ele>3167.4</ele>
        <time>2021-08-05 19:28:08</time>
      </trkpt>
      <trkpt lat="37.04961" lon="-3.3713">
        <ele>3167.6</ele>
        <time>2021-08-05 19:28:09</time>
      </trkpt>
      <trkpt lat="37.04961" lon="-3.3713">
        <ele>3167.8</ele>
        <time>2021-08-05 19:28:10</time>
      </trkpt>
      <trkpt lat="37.04962" lon="-3.37129">
        <ele>3168</ele>
        <time>2021-08-05 19:28:11</time>
      </trkpt>
      <trkpt lat="37.04962" lon="-3.37129">
        <ele>3168.2</ele>
        <time>2021-08-05 19:28:12</time>
      </trkpt>
      <trkpt lat="37.04962" lon="-3.37128">
        <ele>3168.4</ele>
        <time>2021-08-05 19:28:13</time>
      </trkpt>
      <trkpt lat="37.04961" lon="-3.37128">
        <ele>3168.4</ele>
        <time>2021-08-05 19:28:14</time>
      </trkpt>
      <trkpt lat="37.04961" lon="-3.37127">
        <ele>3168.6</ele>
        <time>2021-08-05 19:28:15</time>
      </trkpt>
      <trkpt lat="37.04962" lon="-3.37126">
        <ele>3168.8</ele>
        <time>2021-08-05 19:28:16</time>
      </trkpt>
      <trkpt lat="37.04962" lon="-3.37126">
        <ele>3169.2</ele>
        <time>2021-08-05 19:28:17</time>
      </trkpt>
      <trkpt lat="37.04961" lon="-3.37126">
        <ele>3169.4</ele>
        <time>2021-08-05 19:28:18</time>
      </trkpt>
      <trkpt lat="37.04962" lon="-3.37125">
        <ele>3169.4</ele>
        <time>2021-08-05 19:28:19</time>
      </trkpt>
      <trkpt lat="37.04962" lon="-3.37125">
        <ele>3169.6</ele>
        <time>2021-08-05 19:28:20</time>
      </trkpt>
      <trkpt lat="37.04962" lon="-3.37125">
        <ele>3169.8</ele>
        <time>2021-08-05 19:28:21</time>
      </trkpt>
      <trkpt lat="37.04962" lon="-3.37124">
        <ele>3169.8</ele>
        <time>2021-08-05 19:28:22</time>
      </trkpt>
      <trkpt lat="37.04962" lon="-3.37124">
        <ele>3170</ele>
        <time>2021-08-05 19:28:23</time>
      </trkpt>
      <trkpt lat="37.04962" lon="-3.37123">
        <ele>3170.2</ele>
        <time>2021-08-05 19:28:24</time>
      </trkpt>
      <trkpt lat="37.04963" lon="-3.37123">
        <ele>3170.2</ele>
        <time>2021-08-05 19:28:25</time>
      </trkpt>
      <trkpt lat="37.04963" lon="-3.37122">
        <ele>3170.4</ele>
        <time>2021-08-05 19:28:26</time>
      </trkpt>
      <trkpt lat="37.04964" lon="-3.37122">
        <ele>3170.2</ele>
        <time>2021-08-05 19:28:27</time>
      </trkpt>
      <trkpt lat="37.04965" lon="-3.37122">
        <ele>3170.2</ele>
        <time>2021-08-05 19:28:28</time>
      </trkpt>
      <trkpt lat="37.04965" lon="-3.37121">
        <ele>3170.2</ele>
        <time>2021-08-05 19:28:29</time>
      </trkpt>
      <trkpt lat="37.04965" lon="-3.37121">
        <ele>3170.2</ele>
        <time>2021-08-05 19:28:30</time>
      </trkpt>
      <trkpt lat="37.04966" lon="-3.37121">
        <ele>3170.2</ele>
        <time>2021-08-05 19:28:31</time>
      </trkpt>
      <trkpt lat="37.04966" lon="-3.3712">
        <ele>3170.2</ele>
        <time>2021-08-05 19:28:32</time>
      </trkpt>
      <trkpt lat="37.04966" lon="-3.37119">
        <ele>3170.4</ele>
        <time>2021-08-05 19:28:33</time>
      </trkpt>
      <trkpt lat="37.04967" lon="-3.37118">
        <ele>3170.4</ele>
        <time>2021-08-05 19:28:34</time>
      </trkpt>
      <trkpt lat="37.04967" lon="-3.37117">
        <ele>3170.4</ele>
        <time>2021-08-05 19:28:35</time>
      </trkpt>
      <trkpt lat="37.04968" lon="-3.37116">
        <ele>3170.6</ele>
        <time>2021-08-05 19:28:36</time>
      </trkpt>
      <trkpt lat="37.04969" lon="-3.37115">
        <ele>3170.8</ele>
        <time>2021-08-05 19:28:37</time>
      </trkpt>
      <trkpt lat="37.04969" lon="-3.37114">
        <ele>3170.8</ele>
        <time>2021-08-05 19:28:38</time>
      </trkpt>
      <trkpt lat="37.0497" lon="-3.37114">
        <ele>3171</ele>
        <time>2021-08-05 19:28:39</time>
      </trkpt>
      <trkpt lat="37.04972" lon="-3.37113">
        <ele>3171.2</ele>
        <time>2021-08-05 19:28:40</time>
      </trkpt>
      <trkpt lat="37.04973" lon="-3.37113">
        <ele>3171.2</ele>
        <time>2021-08-05 19:28:41</time>
      </trkpt>
      <trkpt lat="37.04973" lon="-3.37113">
        <ele>3171.2</ele>
        <time>2021-08-05 19:28:42</time>
      </trkpt>
      <trkpt lat="37.04973" lon="-3.37112">
        <ele>3171.4</ele>
        <time>2021-08-05 19:28:43</time>
      </trkpt>
      <trkpt lat="37.04974" lon="-3.37113">
        <ele>3171.4</ele>
        <time>2021-08-05 19:28:44</time>
      </trkpt>
      <trkpt lat="37.04974" lon="-3.37113">
        <ele>3171.4</ele>
        <time>2021-08-05 19:28:45</time>
      </trkpt>
      <trkpt lat="37.04974" lon="-3.37113">
        <ele>3171.4</ele>
        <time>2021-08-05 19:28:46</time>
      </trkpt>
      <trkpt lat="37.04974" lon="-3.37114">
        <ele>3171.2</ele>
        <time>2021-08-05 19:28:47</time>
      </trkpt>
      <trkpt lat="37.04974" lon="-3.37114">
        <ele>3171.2</ele>
        <time>2021-08-05 19:28:48</time>
      </trkpt>
      <trkpt lat="37.04974" lon="-3.37114">
        <ele>3171.2</ele>
        <time>2021-08-05 19:28:49</time>
      </trkpt>
      <trkpt lat="37.04974" lon="-3.37114">
        <ele>3171.2</ele>
        <time>2021-08-05 19:28:50</time>
      </trkpt>
      <trkpt lat="37.04972" lon="-3.37114">
        <ele>3171.2</ele>
        <time>2021-08-05 19:28:51</time>
      </trkpt>
      <trkpt lat="37.04971" lon="-3.37114">
        <ele>3171.2</ele>
        <time>2021-08-05 19:28:52</time>
      </trkpt>
      <trkpt lat="37.04971" lon="-3.37115">
        <ele>3171.2</ele>
        <time>2021-08-05 19:28:53</time>
      </trkpt>
      <trkpt lat="37.04971" lon="-3.37115">
        <ele>3171</ele>
        <time>2021-08-05 19:28:54</time>
      </trkpt>
      <trkpt lat="37.04971" lon="-3.37115">
        <ele>3170.8</ele>
        <time>2021-08-05 19:28:55</time>
      </trkpt>
      <trkpt lat="37.04971" lon="-3.37116">
        <ele>3170.6</ele>
        <time>2021-08-05 19:28:56</time>
      </trkpt>
      <trkpt lat="37.04972" lon="-3.37116">
        <ele>3170.4</ele>
        <time>2021-08-05 19:28:57</time>
      </trkpt>
      <trkpt lat="37.04971" lon="-3.37115">
        <ele>3170.4</ele>
        <time>2021-08-05 19:28:58</time>
      </trkpt>
      <trkpt lat="37.04973" lon="-3.37117">
        <ele>3170.4</ele>
        <time>2021-08-05 19:28:59</time>
      </trkpt>
      <trkpt lat="37.04974" lon="-3.37117">
        <ele>3170.6</ele>
        <time>2021-08-05 19:29:00</time>
      </trkpt>
      <trkpt lat="37.04974" lon="-3.37117">
        <ele>3170.8</ele>
        <time>2021-08-05 19:29:01</time>
      </trkpt>
      <trkpt lat="37.04974" lon="-3.37116">
        <ele>3170.8</ele>
        <time>2021-08-05 19:29:02</time>
      </trkpt>
      <trkpt lat="37.04974" lon="-3.37113">
        <ele>3170.8</ele>
        <time>2021-08-05 19:29:03</time>
      </trkpt>
      <trkpt lat="37.04974" lon="-3.37112">
        <ele>3170.8</ele>
        <time>2021-08-05 19:29:04</time>
      </trkpt>
      <trkpt lat="37.04974" lon="-3.37112">
        <ele>3170.6</ele>
        <time>2021-08-05 19:29:05</time>
      </trkpt>
      <trkpt lat="37.04974" lon="-3.37112">
        <ele>3170.4</ele>
        <time>2021-08-05 19:29:06</time>
      </trkpt>
      <trkpt lat="37.04974" lon="-3.37111">
        <ele>3170.4</ele>
        <time>2021-08-05 19:29:07</time>
      </trkpt>
      <trkpt lat="37.04974" lon="-3.37111">
        <ele>3170.2</ele>
        <time>2021-08-05 19:29:08</time>
      </trkpt>
      <trkpt lat="37.04974" lon="-3.37111">
        <ele>3170.2</ele>
        <time>2021-08-05 19:29:09</time>
      </trkpt>
      <trkpt lat="37.04973" lon="-3.37111">
        <ele>3170</ele>
        <time>2021-08-05 19:29:10</time>
      </trkpt>
      <trkpt lat="37.04973" lon="-3.3711">
        <ele>3169.8</ele>
        <time>2021-08-05 19:29:11</time>
      </trkpt>
      <trkpt lat="37.04973" lon="-3.3711">
        <ele>3169.6</ele>
        <time>2021-08-05 19:29:12</time>
      </trkpt>
      <trkpt lat="37.04973" lon="-3.3711">
        <ele>3169.6</ele>
        <time>2021-08-05 19:29:13</time>
      </trkpt>
      <trkpt lat="37.04983" lon="-3.37105">
        <ele>3170.4</ele>
        <time>2021-08-05 19:29:14</time>
      </trkpt>
      <trkpt lat="37.04982" lon="-3.37105">
        <ele>3170.6</ele>
        <time>2021-08-05 19:29:15</time>
      </trkpt>
      <trkpt lat="37.04982" lon="-3.37105">
        <ele>3170.8</ele>
        <time>2021-08-05 19:29:16</time>
      </trkpt>
      <trkpt lat="37.04982" lon="-3.37105">
        <ele>3170.8</ele>
        <time>2021-08-05 19:29:17</time>
      </trkpt>
      <trkpt lat="37.04981" lon="-3.37105">
        <ele>3170.8</ele>
        <time>2021-08-05 19:29:18</time>
      </trkpt>
      <trkpt lat="37.04981" lon="-3.37105">
        <ele>3170.8</ele>
        <time>2021-08-05 19:29:19</time>
      </trkpt>
      <trkpt lat="37.04981" lon="-3.37105">
        <ele>3170.8</ele>
        <time>2021-08-05 19:29:20</time>
      </trkpt>
      <trkpt lat="37.04981" lon="-3.37105">
        <ele>3170.8</ele>
        <time>2021-08-05 19:29:21</time>
      </trkpt>
      <trkpt lat="37.0498" lon="-3.37106">
        <ele>3170.8</ele>
        <time>2021-08-05 19:29:22</time>
      </trkpt>
      <trkpt lat="37.04979" lon="-3.37107">
        <ele>3170.8</ele>
        <time>2021-08-05 19:30:34</time>
      </trkpt>
      <trkpt lat="37.04979" lon="-3.37107">
        <ele>3170.8</ele>
        <time>2021-08-05 19:30:35</time>
      </trkpt>
      <trkpt lat="37.04979" lon="-3.37107">
        <ele>3170.8</ele>
        <time>2021-08-05 19:30:36</time>
      </trkpt>
      <trkpt lat="37.0498" lon="-3.37107">
        <ele>3170.8</ele>
        <time>2021-08-05 19:30:37</time>
      </trkpt>
      <trkpt lat="37.0498" lon="-3.37106">
        <ele>3170.8</ele>
        <time>2021-08-05 19:30:38</time>
      </trkpt>
      <trkpt lat="37.0498" lon="-3.37106">
        <ele>3170.8</ele>
        <time>2021-08-05 19:30:39</time>
      </trkpt>
      <trkpt lat="37.0498" lon="-3.37106">
        <ele>3170.8</ele>
        <time>2021-08-05 19:30:40</time>
      </trkpt>
      <trkpt lat="37.0498" lon="-3.37106">
        <ele>3170.8</ele>
        <time>2021-08-05 19:30:41</time>
      </trkpt>
      <trkpt lat="37.0498" lon="-3.37106">
        <ele>3170.6</ele>
        <time>2021-08-05 19:30:42</time>
      </trkpt>
      <trkpt lat="37.0498" lon="-3.37107">
        <ele>3170.6</ele>
        <time>2021-08-05 19:30:43</time>
      </trkpt>
      <trkpt lat="37.0498" lon="-3.37107">
        <ele>3170.6</ele>
        <time>2021-08-05 19:30:44</time>
      </trkpt>
      <trkpt lat="37.0498" lon="-3.37107">
        <ele>3170.6</ele>
        <time>2021-08-05 19:30:45</time>
      </trkpt>
      <trkpt lat="37.0498" lon="-3.37107">
        <ele>3170.6</ele>
        <time>2021-08-05 19:30:46</time>
      </trkpt>
      <trkpt lat="37.0498" lon="-3.37107">
        <ele>3170.6</ele>
        <time>2021-08-05 19:30:47</time>
      </trkpt>
      <trkpt lat="37.0498" lon="-3.37107">
        <ele>3170.8</ele>
        <time>2021-08-05 19:30:48</time>
      </trkpt>
      <trkpt lat="37.0498" lon="-3.37106">
        <ele>3171</ele>
        <time>2021-08-05 19:30:49</time>
      </trkpt>
      <trkpt lat="37.0498" lon="-3.37106">
        <ele>3171</ele>
        <time>2021-08-05 19:30:50</time>
      </trkpt>
      <trkpt lat="37.0498" lon="-3.37105">
        <ele>3171</ele>
        <time>2021-08-05 19:30:51</time>
      </trkpt>
      <trkpt lat="37.04979" lon="-3.37105">
        <ele>3171</ele>
        <time>2021-08-05 19:30:52</time>
      </trkpt>
      <trkpt lat="37.04979" lon="-3.37106">
        <ele>3171</ele>
        <time>2021-08-05 19:30:53</time>
      </trkpt>
      <trkpt lat="37.04979" lon="-3.37106">
        <ele>3171.2</ele>
        <time>2021-08-05 19:30:54</time>
      </trkpt>
      <trkpt lat="37.04978" lon="-3.37106">
        <ele>3171.2</ele>
        <time>2021-08-05 19:30:55</time>
      </trkpt>
      <trkpt lat="37.04978" lon="-3.37107">
        <ele>3171.2</ele>
        <time>2021-08-05 19:30:56</time>
      </trkpt>
      <trkpt lat="37.04978" lon="-3.37108">
        <ele>3171</ele>
        <time>2021-08-05 19:30:57</time>
      </trkpt>
      <trkpt lat="37.04977" lon="-3.3711">
        <ele>3171.2</ele>
        <time>2021-08-05 19:30:58</time>
      </trkpt>
      <trkpt lat="37.04976" lon="-3.3711">
        <ele>3171.2</ele>
        <time>2021-08-05 19:30:59</time>
      </trkpt>
      <trkpt lat="37.04975" lon="-3.3711">
        <ele>3171.2</ele>
        <time>2021-08-05 19:31:00</time>
      </trkpt>
      <trkpt lat="37.04974" lon="-3.37111">
        <ele>3171.2</ele>
        <time>2021-08-05 19:31:01</time>
      </trkpt>
      <trkpt lat="37.04974" lon="-3.3711">
        <ele>3171.2</ele>
        <time>2021-08-05 19:31:02</time>
      </trkpt>
      <trkpt lat="37.04973" lon="-3.3711">
        <ele>3171</ele>
        <time>2021-08-05 19:31:03</time>
      </trkpt>
      <trkpt lat="37.04972" lon="-3.37109">
        <ele>3171</ele>
        <time>2021-08-05 19:31:04</time>
      </trkpt>
      <trkpt lat="37.04971" lon="-3.37109">
        <ele>3171</ele>
        <time>2021-08-05 19:31:05</time>
      </trkpt>
      <trkpt lat="37.0497" lon="-3.37109">
        <ele>3170.8</ele>
        <time>2021-08-05 19:31:06</time>
      </trkpt>
      <trkpt lat="37.04972" lon="-3.37111">
        <ele>3170.8</ele>
        <time>2021-08-05 19:31:07</time>
      </trkpt>
      <trkpt lat="37.04972" lon="-3.37112">
        <ele>3170.8</ele>
        <time>2021-08-05 19:31:08</time>
      </trkpt>
      <trkpt lat="37.04973" lon="-3.37113">
        <ele>3171</ele>
        <time>2021-08-05 19:31:09</time>
      </trkpt>
      <trkpt lat="37.04973" lon="-3.37113">
        <ele>3171</ele>
        <time>2021-08-05 19:31:10</time>
      </trkpt>
      <trkpt lat="37.04973" lon="-3.37113">
        <ele>3171</ele>
        <time>2021-08-05 19:31:11</time>
      </trkpt>
      <trkpt lat="37.04972" lon="-3.37114">
        <ele>3171</ele>
        <time>2021-08-05 19:31:12</time>
      </trkpt>
      <trkpt lat="37.04972" lon="-3.37113">
        <ele>3171</ele>
        <time>2021-08-05 19:31:13</time>
      </trkpt>
      <trkpt lat="37.04972" lon="-3.37113">
        <ele>3171</ele>
        <time>2021-08-05 19:31:14</time>
      </trkpt>
      <trkpt lat="37.04972" lon="-3.37113">
        <ele>3171</ele>
        <time>2021-08-05 19:31:15</time>
      </trkpt>
      <trkpt lat="37.04972" lon="-3.37113">
        <ele>3171</ele>
        <time>2021-08-05 19:31:16</time>
      </trkpt>
      <trkpt lat="37.04972" lon="-3.37113">
        <ele>3171</ele>
        <time>2021-08-05 19:31:17</time>
      </trkpt>
      <trkpt lat="37.04973" lon="-3.37113">
        <ele>3171</ele>
        <time>2021-08-05 19:31:18</time>
      </trkpt>
      <trkpt lat="37.04973" lon="-3.37113">
        <ele>3171</ele>
        <time>2021-08-05 19:31:19</time>
      </trkpt>
      <trkpt lat="37.04973" lon="-3.37113">
        <ele>3171</ele>
        <time>2021-08-05 19:31:20</time>
      </trkpt>
      <trkpt lat="37.04973" lon="-3.37113">
        <ele>3171</ele>
        <time>2021-08-05 19:31:21</time>
      </trkpt>
      <trkpt lat="37.04973" lon="-3.37113">
        <ele>3171</ele>
        <time>2021-08-05 19:31:22</time>
      </trkpt>
      <trkpt lat="37.04973" lon="-3.37113">
        <ele>3171.2</ele>
        <time>2021-08-05 19:31:23</time>
      </trkpt>
      <trkpt lat="37.04973" lon="-3.37113">
        <ele>3171.2</ele>
        <time>2021-08-05 19:31:24</time>
      </trkpt>
      <trkpt lat="37.04972" lon="-3.37113">
        <ele>3171.4</ele>
        <time>2021-08-05 19:31:25</time>
      </trkpt>
      <trkpt lat="37.04971" lon="-3.37113">
        <ele>3171.4</ele>
        <time>2021-08-05 19:31:26</time>
      </trkpt>
      <trkpt lat="37.04971" lon="-3.37113">
        <ele>3171.4</ele>
        <time>2021-08-05 19:31:27</time>
      </trkpt>
      <trkpt lat="37.0497" lon="-3.37113">
        <ele>3171.4</ele>
        <time>2021-08-05 19:31:28</time>
      </trkpt>
      <trkpt lat="37.0497" lon="-3.37114">
        <ele>3171.6</ele>
        <time>2021-08-05 19:31:29</time>
      </trkpt>
      <trkpt lat="37.04969" lon="-3.37114">
        <ele>3171.8</ele>
        <time>2021-08-05 19:31:30</time>
      </trkpt>
      <trkpt lat="37.04968" lon="-3.37114">
        <ele>3171.8</ele>
        <time>2021-08-05 19:31:31</time>
      </trkpt>
      <trkpt lat="37.04967" lon="-3.37113">
        <ele>3172</ele>
        <time>2021-08-05 19:31:32</time>
      </trkpt>
      <trkpt lat="37.04966" lon="-3.37113">
        <ele>3172</ele>
        <time>2021-08-05 19:31:33</time>
      </trkpt>
      <trkpt lat="37.04966" lon="-3.37113">
        <ele>3172</ele>
        <time>2021-08-05 19:31:34</time>
      </trkpt>
      <trkpt lat="37.04965" lon="-3.37113">
        <ele>3172</ele>
        <time>2021-08-05 19:31:35</time>
      </trkpt>
      <trkpt lat="37.04965" lon="-3.37113">
        <ele>3172</ele>
        <time>2021-08-05 19:31:36</time>
      </trkpt>
      <trkpt lat="37.04965" lon="-3.37112">
        <ele>3171.8</ele>
        <time>2021-08-05 19:31:37</time>
      </trkpt>
      <trkpt lat="37.04965" lon="-3.37112">
        <ele>3171.8</ele>
        <time>2021-08-05 19:31:38</time>
      </trkpt>
      <trkpt lat="37.04965" lon="-3.37111">
        <ele>3171.8</ele>
        <time>2021-08-05 19:31:39</time>
      </trkpt>
      <trkpt lat="37.04965" lon="-3.37112">
        <ele>3171.8</ele>
        <time>2021-08-05 19:31:40</time>
      </trkpt>
      <trkpt lat="37.04966" lon="-3.37114">
        <ele>3171.8</ele>
        <time>2021-08-05 19:31:41</time>
      </trkpt>
      <trkpt lat="37.04966" lon="-3.37115">
        <ele>3171.8</ele>
        <time>2021-08-05 19:31:42</time>
      </trkpt>
      <trkpt lat="37.04955" lon="-3.3711">
        <ele>3164</ele>
        <time>2021-08-05 19:31:43</time>
      </trkpt>
      <trkpt lat="37.04955" lon="-3.3711">
        <ele>3164</ele>
        <time>2021-08-05 19:31:44</time>
      </trkpt>
      <trkpt lat="37.04956" lon="-3.37109">
        <ele>3164</ele>
        <time>2021-08-05 19:31:45</time>
      </trkpt>
      <trkpt lat="37.04956" lon="-3.37108">
        <ele>3164.2</ele>
        <time>2021-08-05 19:31:46</time>
      </trkpt>
      <trkpt lat="37.04957" lon="-3.37108">
        <ele>3164.2</ele>
        <time>2021-08-05 19:31:47</time>
      </trkpt>
      <trkpt lat="37.04958" lon="-3.37107">
        <ele>3164.2</ele>
        <time>2021-08-05 19:31:48</time>
      </trkpt>
      <trkpt lat="37.04959" lon="-3.37105">
        <ele>3164.4</ele>
        <time>2021-08-05 19:31:49</time>
      </trkpt>
      <trkpt lat="37.0496" lon="-3.37105">
        <ele>3164.4</ele>
        <time>2021-08-05 19:31:50</time>
      </trkpt>
      <trkpt lat="37.04961" lon="-3.37104">
        <ele>3164.4</ele>
        <time>2021-08-05 19:31:51</time>
      </trkpt>
      <trkpt lat="37.04962" lon="-3.37103">
        <ele>3164.4</ele>
        <time>2021-08-05 19:37:03</time>
      </trkpt>
      <trkpt lat="37.04963" lon="-3.37103">
        <ele>3164.4</ele>
        <time>2021-08-05 19:37:04</time>
      </trkpt>
      <trkpt lat="37.04963" lon="-3.37103">
        <ele>3164.4</ele>
        <time>2021-08-05 19:37:05</time>
      </trkpt>
      <trkpt lat="37.04964" lon="-3.37103">
        <ele>3164.4</ele>
        <time>2021-08-05 19:37:06</time>
      </trkpt>
      <trkpt lat="37.04965" lon="-3.37103">
        <ele>3164.4</ele>
        <time>2021-08-05 19:37:07</time>
      </trkpt>
      <trkpt lat="37.04966" lon="-3.37102">
        <ele>3164.4</ele>
        <time>2021-08-05 19:37:08</time>
      </trkpt>
      <trkpt lat="37.04967" lon="-3.37101">
        <ele>3164.4</ele>
        <time>2021-08-05 19:37:09</time>
      </trkpt>
      <trkpt lat="37.04967" lon="-3.37101">
        <ele>3164.4</ele>
        <time>2021-08-05 19:37:10</time>
      </trkpt>
      <trkpt lat="37.04968" lon="-3.37101">
        <ele>3164.4</ele>
        <time>2021-08-05 19:37:11</time>
      </trkpt>
      <trkpt lat="37.04968" lon="-3.37101">
        <ele>3164.4</ele>
        <time>2021-08-05 19:37:12</time>
      </trkpt>
      <trkpt lat="37.04969" lon="-3.37101">
        <ele>3164.6</ele>
        <time>2021-08-05 19:37:13</time>
      </trkpt>
      <trkpt lat="37.04969" lon="-3.37101">
        <ele>3164.8</ele>
        <time>2021-08-05 19:37:14</time>
      </trkpt>
      <trkpt lat="37.04969" lon="-3.37101">
        <ele>3164.8</ele>
        <time>2021-08-05 19:37:15</time>
      </trkpt>
      <trkpt lat="37.0497" lon="-3.37101">
        <ele>3164.8</ele>
        <time>2021-08-05 19:37:16</time>
      </trkpt>
      <trkpt lat="37.0497" lon="-3.37101">
        <ele>3164.8</ele>
        <time>2021-08-05 19:37:17</time>
      </trkpt>
      <trkpt lat="37.0497" lon="-3.37101">
        <ele>3164.8</ele>
        <time>2021-08-05 19:37:18</time>
      </trkpt>
      <trkpt lat="37.04971" lon="-3.37101">
        <ele>3164.8</ele>
        <time>2021-08-05 19:37:19</time>
      </trkpt>
      <trkpt lat="37.04971" lon="-3.37101">
        <ele>3164.4</ele>
        <time>2021-08-05 19:37:20</time>
      </trkpt>
      <trkpt lat="37.04971" lon="-3.37101">
        <ele>3164.2</ele>
        <time>2021-08-05 19:37:21</time>
      </trkpt>
      <trkpt lat="37.04971" lon="-3.371">
        <ele>3164</ele>
        <time>2021-08-05 19:37:22</time>
      </trkpt>
      <trkpt lat="37.04971" lon="-3.37101">
        <ele>3164.2</ele>
        <time>2021-08-05 19:37:23</time>
      </trkpt>
      <trkpt lat="37.04971" lon="-3.371">
        <ele>3164.2</ele>
        <time>2021-08-05 19:37:24</time>
      </trkpt>
      <trkpt lat="37.04971" lon="-3.371">
        <ele>3164.2</ele>
        <time>2021-08-05 19:37:25</time>
      </trkpt>
      <trkpt lat="37.04972" lon="-3.371">
        <ele>3164.2</ele>
        <time>2021-08-05 19:37:26</time>
      </trkpt>
      <trkpt lat="37.04972" lon="-3.37099">
        <ele>3164.4</ele>
        <time>2021-08-05 19:37:27</time>
      </trkpt>
      <trkpt lat="37.04973" lon="-3.37099">
        <ele>3164.4</ele>
        <time>2021-08-05 19:37:28</time>
      </trkpt>
      <trkpt lat="37.04974" lon="-3.37098">
        <ele>3164.4</ele>
        <time>2021-08-05 19:37:29</time>
      </trkpt>
      <trkpt lat="37.04975" lon="-3.37098">
        <ele>3164.4</ele>
        <time>2021-08-05 19:37:30</time>
      </trkpt>
      <trkpt lat="37.04975" lon="-3.37097">
        <ele>3164.4</ele>
        <time>2021-08-05 19:37:31</time>
      </trkpt>
      <trkpt lat="37.04976" lon="-3.37096">
        <ele>3164.4</ele>
        <time>2021-08-05 19:37:32</time>
      </trkpt>
      <trkpt lat="37.04977" lon="-3.37096">
        <ele>3164.4</ele>
        <time>2021-08-05 19:37:33</time>
      </trkpt>
      <trkpt lat="37.04978" lon="-3.37095">
        <ele>3164.4</ele>
        <time>2021-08-05 19:37:34</time>
      </trkpt>
      <trkpt lat="37.04979" lon="-3.37095">
        <ele>3164.4</ele>
        <time>2021-08-05 19:37:35</time>
      </trkpt>
      <trkpt lat="37.0498" lon="-3.37094">
        <ele>3164.4</ele>
        <time>2021-08-05 19:37:36</time>
      </trkpt>
      <trkpt lat="37.04982" lon="-3.37094">
        <ele>3164.4</ele>
        <time>2021-08-05 19:37:37</time>
      </trkpt>
      <trkpt lat="37.04983" lon="-3.37093">
        <ele>3164.6</ele>
        <time>2021-08-05 19:37:38</time>
      </trkpt>
      <trkpt lat="37.04983" lon="-3.37092">
        <ele>3164.6</ele>
        <time>2021-08-05 19:37:39</time>
      </trkpt>
      <trkpt lat="37.04983" lon="-3.37091">
        <ele>3164.4</ele>
        <time>2021-08-05 19:37:40</time>
      </trkpt>
      <trkpt lat="37.04984" lon="-3.3709">
        <ele>3164</ele>
        <time>2021-08-05 19:37:41</time>
      </trkpt>
      <trkpt lat="37.04984" lon="-3.37089">
        <ele>3163.8</ele>
        <time>2021-08-05 19:37:42</time>
      </trkpt>
      <trkpt lat="37.04985" lon="-3.37089">
        <ele>3163.6</ele>
        <time>2021-08-05 19:37:43</time>
      </trkpt>
      <trkpt lat="37.04985" lon="-3.37089">
        <ele>3163.4</ele>
        <time>2021-08-05 19:37:44</time>
      </trkpt>
      <trkpt lat="37.04986" lon="-3.37088">
        <ele>3163.2</ele>
        <time>2021-08-05 19:37:45</time>
      </trkpt>
      <trkpt lat="37.04986" lon="-3.37088">
        <ele>3163.2</ele>
        <time>2021-08-05 19:37:46</time>
      </trkpt>
      <trkpt lat="37.04987" lon="-3.37087">
        <ele>3163</ele>
        <time>2021-08-05 19:37:47</time>
      </trkpt>
      <trkpt lat="37.04987" lon="-3.37087">
        <ele>3163</ele>
        <time>2021-08-05 19:37:48</time>
      </trkpt>
      <trkpt lat="37.04988" lon="-3.37087">
        <ele>3163</ele>
        <time>2021-08-05 19:37:49</time>
      </trkpt>
      <trkpt lat="37.04989" lon="-3.37087">
        <ele>3163</ele>
        <time>2021-08-05 19:37:50</time>
      </trkpt>
      <trkpt lat="37.04991" lon="-3.37087">
        <ele>3163</ele>
        <time>2021-08-05 19:37:51</time>
      </trkpt>
      <trkpt lat="37.04992" lon="-3.37087">
        <ele>3163</ele>
        <time>2021-08-05 19:37:52</time>
      </trkpt>
      <trkpt lat="37.04993" lon="-3.37087">
        <ele>3163</ele>
        <time>2021-08-05 19:37:53</time>
      </trkpt>
      <trkpt lat="37.04994" lon="-3.37087">
        <ele>3163</ele>
        <time>2021-08-05 19:37:54</time>
      </trkpt>
      <trkpt lat="37.04995" lon="-3.37087">
        <ele>3162.8</ele>
        <time>2021-08-05 19:37:55</time>
      </trkpt>
      <trkpt lat="37.04995" lon="-3.37087">
        <ele>3162.8</ele>
        <time>2021-08-05 19:37:56</time>
      </trkpt>
      <trkpt lat="37.04996" lon="-3.37087">
        <ele>3162.8</ele>
        <time>2021-08-05 19:37:57</time>
      </trkpt>
      <trkpt lat="37.04996" lon="-3.37087">
        <ele>3162.8</ele>
        <time>2021-08-05 19:37:58</time>
      </trkpt>
      <trkpt lat="37.04996" lon="-3.37087">
        <ele>3162.6</ele>
        <time>2021-08-05 19:37:59</time>
      </trkpt>
      <trkpt lat="37.04996" lon="-3.37087">
        <ele>3162.6</ele>
        <time>2021-08-05 19:38:00</time>
      </trkpt>
      <trkpt lat="37.04996" lon="-3.37087">
        <ele>3162.4</ele>
        <time>2021-08-05 19:38:01</time>
      </trkpt>
      <trkpt lat="37.04996" lon="-3.37086">
        <ele>3162.4</ele>
        <time>2021-08-05 19:38:02</time>
      </trkpt>
      <trkpt lat="37.04996" lon="-3.37086">
        <ele>3162.6</ele>
        <time>2021-08-05 19:38:03</time>
      </trkpt>
      <trkpt lat="37.04996" lon="-3.37086">
        <ele>3162.4</ele>
        <time>2021-08-05 19:38:04</time>
      </trkpt>
      <trkpt lat="37.04996" lon="-3.37086">
        <ele>3162.4</ele>
        <time>2021-08-05 19:38:05</time>
      </trkpt>
      <trkpt lat="37.04996" lon="-3.37085">
        <ele>3162.4</ele>
        <time>2021-08-05 19:38:06</time>
      </trkpt>
      <trkpt lat="37.04996" lon="-3.37085">
        <ele>3162.2</ele>
        <time>2021-08-05 19:38:07</time>
      </trkpt>
      <trkpt lat="37.04996" lon="-3.37084">
        <ele>3162.2</ele>
        <time>2021-08-05 19:38:08</time>
      </trkpt>
      <trkpt lat="37.04996" lon="-3.37084">
        <ele>3162.2</ele>
        <time>2021-08-05 19:38:09</time>
      </trkpt>
      <trkpt lat="37.04996" lon="-3.37083">
        <ele>3162.2</ele>
        <time>2021-08-05 19:38:10</time>
      </trkpt>
      <trkpt lat="37.04996" lon="-3.37083">
        <ele>3162</ele>
        <time>2021-08-05 19:38:11</time>
      </trkpt>
      <trkpt lat="37.04996" lon="-3.37083">
        <ele>3162</ele>
        <time>2021-08-05 19:38:12</time>
      </trkpt>
      <trkpt lat="37.04996" lon="-3.37083">
        <ele>3162</ele>
        <time>2021-08-05 19:38:13</time>
      </trkpt>
      <trkpt lat="37.04996" lon="-3.37083">
        <ele>3162</ele>
        <time>2021-08-05 19:38:14</time>
      </trkpt>
      <trkpt lat="37.04995" lon="-3.37083">
        <ele>3162.2</ele>
        <time>2021-08-05 19:38:15</time>
      </trkpt>
      <trkpt lat="37.04993" lon="-3.37085">
        <ele>3162.2</ele>
        <time>2021-08-05 19:38:16</time>
      </trkpt>
      <trkpt lat="37.04993" lon="-3.37085">
        <ele>3162</ele>
        <time>2021-08-05 19:38:17</time>
      </trkpt>
      <trkpt lat="37.04992" lon="-3.37084">
        <ele>3162.2</ele>
        <time>2021-08-05 19:38:18</time>
      </trkpt>
      <trkpt lat="37.04992" lon="-3.37084">
        <ele>3162.4</ele>
        <time>2021-08-05 19:38:19</time>
      </trkpt>
      <trkpt lat="37.04992" lon="-3.37084">
        <ele>3162.4</ele>
        <time>2021-08-05 19:38:20</time>
      </trkpt>
      <trkpt lat="37.04992" lon="-3.37084">
        <ele>3162.8</ele>
        <time>2021-08-05 19:38:21</time>
      </trkpt>
      <trkpt lat="37.04993" lon="-3.37084">
        <ele>3163</ele>
        <time>2021-08-05 19:38:22</time>
      </trkpt>
      <trkpt lat="37.04994" lon="-3.37086">
        <ele>3162.8</ele>
        <time>2021-08-05 19:38:23</time>
      </trkpt>
      <trkpt lat="37.04995" lon="-3.37087">
        <ele>3162.6</ele>
        <time>2021-08-05 19:38:24</time>
      </trkpt>
      <trkpt lat="37.04996" lon="-3.37088">
        <ele>3162.6</ele>
        <time>2021-08-05 19:38:25</time>
      </trkpt>
      <trkpt lat="37.04996" lon="-3.37088">
        <ele>3162.6</ele>
        <time>2021-08-05 19:38:26</time>
      </trkpt>
      <trkpt lat="37.04996" lon="-3.37088">
        <ele>3162.6</ele>
        <time>2021-08-05 19:38:27</time>
      </trkpt>
      <trkpt lat="37.04996" lon="-3.37087">
        <ele>3162.6</ele>
        <time>2021-08-05 19:38:28</time>
      </trkpt>
      <trkpt lat="37.04996" lon="-3.37087">
        <ele>3162.4</ele>
        <time>2021-08-05 19:38:29</time>
      </trkpt>
      <trkpt lat="37.04996" lon="-3.37087">
        <ele>3162.4</ele>
        <time>2021-08-05 19:38:30</time>
      </trkpt>
      <trkpt lat="37.04995" lon="-3.37086">
        <ele>3162.6</ele>
        <time>2021-08-05 19:38:31</time>
      </trkpt>
      <trkpt lat="37.04995" lon="-3.37085">
        <ele>3162.6</ele>
        <time>2021-08-05 19:38:32</time>
      </trkpt>
      <trkpt lat="37.04996" lon="-3.37085">
        <ele>3162.6</ele>
        <time>2021-08-05 19:38:33</time>
      </trkpt>
      <trkpt lat="37.04997" lon="-3.37085">
        <ele>3162.6</ele>
        <time>2021-08-05 19:38:34</time>
      </trkpt>
      <trkpt lat="37.04998" lon="-3.37085">
        <ele>3162.6</ele>
        <time>2021-08-05 19:38:35</time>
      </trkpt>
      <trkpt lat="37.05" lon="-3.37085">
        <ele>3162.6</ele>
        <time>2021-08-05 19:38:36</time>
      </trkpt>
      <trkpt lat="37.05" lon="-3.37084">
        <ele>3162.4</ele>
        <time>2021-08-05 19:38:37</time>
      </trkpt>
      <trkpt lat="37.05001" lon="-3.37084">
        <ele>3162.4</ele>
        <time>2021-08-05 19:38:38</time>
      </trkpt>
      <trkpt lat="37.05002" lon="-3.37083">
        <ele>3162.4</ele>
        <time>2021-08-05 19:38:39</time>
      </trkpt>
      <trkpt lat="37.05003" lon="-3.37083">
        <ele>3162.4</ele>
        <time>2021-08-05 19:38:40</time>
      </trkpt>
      <trkpt lat="37.05003" lon="-3.37083">
        <ele>3162.2</ele>
        <time>2021-08-05 19:38:41</time>
      </trkpt>
      <trkpt lat="37.05004" lon="-3.37083">
        <ele>3162</ele>
        <time>2021-08-05 19:38:42</time>
      </trkpt>
      <trkpt lat="37.05004" lon="-3.37083">
        <ele>3162</ele>
        <time>2021-08-05 19:38:43</time>
      </trkpt>
      <trkpt lat="37.05005" lon="-3.37082">
        <ele>3161.8</ele>
        <time>2021-08-05 19:38:44</time>
      </trkpt>
      <trkpt lat="37.05006" lon="-3.37081">
        <ele>3161.8</ele>
        <time>2021-08-05 19:38:45</time>
      </trkpt>
      <trkpt lat="37.05006" lon="-3.3708">
        <ele>3161</ele>
        <time>2021-08-05 19:38:46</time>
      </trkpt>
      <trkpt lat="37.05007" lon="-3.3708">
        <ele>3160.6</ele>
        <time>2021-08-05 19:38:47</time>
      </trkpt>
      <trkpt lat="37.05007" lon="-3.37079">
        <ele>3160.6</ele>
        <time>2021-08-05 19:38:48</time>
      </trkpt>
      <trkpt lat="37.05008" lon="-3.37079">
        <ele>3160.4</ele>
        <time>2021-08-05 19:38:49</time>
      </trkpt>
      <trkpt lat="37.05009" lon="-3.37078">
        <ele>3160.2</ele>
        <time>2021-08-05 19:38:50</time>
      </trkpt>
      <trkpt lat="37.05009" lon="-3.37077">
        <ele>3160</ele>
        <time>2021-08-05 19:38:51</time>
      </trkpt>
      <trkpt lat="37.0501" lon="-3.37077">
        <ele>3160.2</ele>
        <time>2021-08-05 19:38:52</time>
      </trkpt>
      <trkpt lat="37.0501" lon="-3.37076">
        <ele>3160.4</ele>
        <time>2021-08-05 19:38:53</time>
      </trkpt>
      <trkpt lat="37.0501" lon="-3.37075">
        <ele>3160.4</ele>
        <time>2021-08-05 19:38:54</time>
      </trkpt>
      <trkpt lat="37.0501" lon="-3.37075">
        <ele>3160.4</ele>
        <time>2021-08-05 19:38:55</time>
      </trkpt>
      <trkpt lat="37.05011" lon="-3.37074">
        <ele>3160.4</ele>
        <time>2021-08-05 19:38:56</time>
      </trkpt>
      <trkpt lat="37.05011" lon="-3.37073">
        <ele>3160.4</ele>
        <time>2021-08-05 19:38:57</time>
      </trkpt>
      <trkpt lat="37.05012" lon="-3.37073">
        <ele>3160</ele>
        <time>2021-08-05 19:38:58</time>
      </trkpt>
      <trkpt lat="37.05013" lon="-3.37072">
        <ele>3160</ele>
        <time>2021-08-05 19:38:59</time>
      </trkpt>
      <trkpt lat="37.05013" lon="-3.37071">
        <ele>3160</ele>
        <time>2021-08-05 19:39:00</time>
      </trkpt>
      <trkpt lat="37.05014" lon="-3.3707">
        <ele>3159.8</ele>
        <time>2021-08-05 19:39:01</time>
      </trkpt>
      <trkpt lat="37.05015" lon="-3.3707">
        <ele>3159.8</ele>
        <time>2021-08-05 19:39:02</time>
      </trkpt>
      <trkpt lat="37.05016" lon="-3.37069">
        <ele>3159.6</ele>
        <time>2021-08-05 19:39:03</time>
      </trkpt>
      <trkpt lat="37.05016" lon="-3.37069">
        <ele>3159.6</ele>
        <time>2021-08-05 19:39:04</time>
      </trkpt>
      <trkpt lat="37.05017" lon="-3.37068">
        <ele>3159.4</ele>
        <time>2021-08-05 19:39:05</time>
      </trkpt>
      <trkpt lat="37.05018" lon="-3.37067">
        <ele>3159.2</ele>
        <time>2021-08-05 19:39:06</time>
      </trkpt>
      <trkpt lat="37.05019" lon="-3.37066">
        <ele>3158.8</ele>
        <time>2021-08-05 19:39:07</time>
      </trkpt>
      <trkpt lat="37.05019" lon="-3.37066">
        <ele>3158.6</ele>
        <time>2021-08-05 19:39:08</time>
      </trkpt>
      <trkpt lat="37.0502" lon="-3.37065">
        <ele>3158.4</ele>
        <time>2021-08-05 19:39:09</time>
      </trkpt>
      <trkpt lat="37.0502" lon="-3.37065">
        <ele>3158.6</ele>
        <time>2021-08-05 19:39:10</time>
      </trkpt>
      <trkpt lat="37.05021" lon="-3.37064">
        <ele>3158.4</ele>
        <time>2021-08-05 19:39:11</time>
      </trkpt>
      <trkpt lat="37.05021" lon="-3.37064">
        <ele>3158.4</ele>
        <time>2021-08-05 19:39:12</time>
      </trkpt>
      <trkpt lat="37.05021" lon="-3.37063">
        <ele>3158.4</ele>
        <time>2021-08-05 19:39:13</time>
      </trkpt>
      <trkpt lat="37.05021" lon="-3.37063">
        <ele>3158.6</ele>
        <time>2021-08-05 19:39:14</time>
      </trkpt>
      <trkpt lat="37.05022" lon="-3.37062">
        <ele>3158.6</ele>
        <time>2021-08-05 19:39:15</time>
      </trkpt>
      <trkpt lat="37.05023" lon="-3.37062">
        <ele>3158.6</ele>
        <time>2021-08-05 19:39:16</time>
      </trkpt>
      <trkpt lat="37.05024" lon="-3.37061">
        <ele>3158.6</ele>
        <time>2021-08-05 19:39:17</time>
      </trkpt>
      <trkpt lat="37.05025" lon="-3.37061">
        <ele>3158.6</ele>
        <time>2021-08-05 19:39:18</time>
      </trkpt>
      <trkpt lat="37.05025" lon="-3.37061">
        <ele>3158.6</ele>
        <time>2021-08-05 19:39:19</time>
      </trkpt>
      <trkpt lat="37.05026" lon="-3.3706">
        <ele>3158.4</ele>
        <time>2021-08-05 19:39:20</time>
      </trkpt>
      <trkpt lat="37.05026" lon="-3.3706">
        <ele>3158.4</ele>
        <time>2021-08-05 19:39:21</time>
      </trkpt>
      <trkpt lat="37.05027" lon="-3.37059">
        <ele>3158.2</ele>
        <time>2021-08-05 19:39:22</time>
      </trkpt>
      <trkpt lat="37.05028" lon="-3.37058">
        <ele>3158.2</ele>
        <time>2021-08-05 19:39:23</time>
      </trkpt>
      <trkpt lat="37.05028" lon="-3.37057">
        <ele>3158</ele>
        <time>2021-08-05 19:39:24</time>
      </trkpt>
      <trkpt lat="37.05029" lon="-3.37057">
        <ele>3157.8</ele>
        <time>2021-08-05 19:39:25</time>
      </trkpt>
      <trkpt lat="37.0503" lon="-3.37056">
        <ele>3157.8</ele>
        <time>2021-08-05 19:39:26</time>
      </trkpt>
      <trkpt lat="37.05031" lon="-3.37055">
        <ele>3157.4</ele>
        <time>2021-08-05 19:39:27</time>
      </trkpt>
      <trkpt lat="37.05032" lon="-3.37055">
        <ele>3157.2</ele>
        <time>2021-08-05 19:39:28</time>
      </trkpt>
      <trkpt lat="37.05034" lon="-3.37055">
        <ele>3157.6</ele>
        <time>2021-08-05 19:39:29</time>
      </trkpt>
      <trkpt lat="37.05034" lon="-3.37055">
        <ele>3157.6</ele>
        <time>2021-08-05 19:39:30</time>
      </trkpt>
      <trkpt lat="37.05036" lon="-3.37054">
        <ele>3157.6</ele>
        <time>2021-08-05 19:39:31</time>
      </trkpt>
      <trkpt lat="37.05036" lon="-3.37053">
        <ele>3157.2</ele>
        <time>2021-08-05 19:39:32</time>
      </trkpt>
      <trkpt lat="37.05037" lon="-3.37052">
        <ele>3157.2</ele>
        <time>2021-08-05 19:39:33</time>
      </trkpt>
      <trkpt lat="37.05038" lon="-3.37051">
        <ele>3157.2</ele>
        <time>2021-08-05 19:39:34</time>
      </trkpt>
      <trkpt lat="37.05039" lon="-3.37051">
        <ele>3157.2</ele>
        <time>2021-08-05 19:39:35</time>
      </trkpt>
      <trkpt lat="37.05039" lon="-3.3705">
        <ele>3157.2</ele>
        <time>2021-08-05 19:39:36</time>
      </trkpt>
      <trkpt lat="37.0504" lon="-3.37049">
        <ele>3157.2</ele>
        <time>2021-08-05 19:39:37</time>
      </trkpt>
      <trkpt lat="37.05041" lon="-3.37048">
        <ele>3157.4</ele>
        <time>2021-08-05 19:39:38</time>
      </trkpt>
      <trkpt lat="37.05042" lon="-3.37047">
        <ele>3157.4</ele>
        <time>2021-08-05 19:39:39</time>
      </trkpt>
      <trkpt lat="37.05043" lon="-3.37046">
        <ele>3157.6</ele>
        <time>2021-08-05 19:39:40</time>
      </trkpt>
      <trkpt lat="37.05044" lon="-3.37045">
        <ele>3157.6</ele>
        <time>2021-08-05 19:39:41</time>
      </trkpt>
      <trkpt lat="37.05045" lon="-3.37044">
        <ele>3157.6</ele>
        <time>2021-08-05 19:39:42</time>
      </trkpt>
      <trkpt lat="37.05046" lon="-3.37043">
        <ele>3157.8</ele>
        <time>2021-08-05 19:39:43</time>
      </trkpt>
      <trkpt lat="37.05048" lon="-3.37042">
        <ele>3157.8</ele>
        <time>2021-08-05 19:39:44</time>
      </trkpt>
      <trkpt lat="37.05049" lon="-3.37042">
        <ele>3157.8</ele>
        <time>2021-08-05 19:39:45</time>
      </trkpt>
      <trkpt lat="37.0505" lon="-3.37041">
        <ele>3157.8</ele>
        <time>2021-08-05 19:39:46</time>
      </trkpt>
      <trkpt lat="37.05051" lon="-3.3704">
        <ele>3158</ele>
        <time>2021-08-05 19:39:47</time>
      </trkpt>
      <trkpt lat="37.05051" lon="-3.37039">
        <ele>3157.8</ele>
        <time>2021-08-05 19:39:48</time>
      </trkpt>
      <trkpt lat="37.05052" lon="-3.37039">
        <ele>3157.8</ele>
        <time>2021-08-05 19:39:49</time>
      </trkpt>
      <trkpt lat="37.05052" lon="-3.37037">
        <ele>3157.8</ele>
        <time>2021-08-05 19:39:50</time>
      </trkpt>
      <trkpt lat="37.05053" lon="-3.37036">
        <ele>3157.8</ele>
        <time>2021-08-05 19:39:51</time>
      </trkpt>
      <trkpt lat="37.05054" lon="-3.37035">
        <ele>3157.8</ele>
        <time>2021-08-05 19:39:52</time>
      </trkpt>
      <trkpt lat="37.05054" lon="-3.37035">
        <ele>3157.6</ele>
        <time>2021-08-05 19:39:53</time>
      </trkpt>
      <trkpt lat="37.05055" lon="-3.37034">
        <ele>3157.6</ele>
        <time>2021-08-05 19:39:54</time>
      </trkpt>
      <trkpt lat="37.05055" lon="-3.37033">
        <ele>3157.8</ele>
        <time>2021-08-05 19:39:55</time>
      </trkpt>
      <trkpt lat="37.05056" lon="-3.37032">
        <ele>3157.8</ele>
        <time>2021-08-05 19:39:56</time>
      </trkpt>
      <trkpt lat="37.05056" lon="-3.37031">
        <ele>3157.6</ele>
        <time>2021-08-05 19:39:57</time>
      </trkpt>
      <trkpt lat="37.05056" lon="-3.3703">
        <ele>3157.6</ele>
        <time>2021-08-05 19:39:58</time>
      </trkpt>
      <trkpt lat="37.05057" lon="-3.37029">
        <ele>3157.6</ele>
        <time>2021-08-05 19:39:59</time>
      </trkpt>
      <trkpt lat="37.05058" lon="-3.37028">
        <ele>3157.6</ele>
        <time>2021-08-05 19:40:00</time>
      </trkpt>
      <trkpt lat="37.05059" lon="-3.37027">
        <ele>3157.6</ele>
        <time>2021-08-05 19:40:01</time>
      </trkpt>
      <trkpt lat="37.0506" lon="-3.37026">
        <ele>3157.4</ele>
        <time>2021-08-05 19:40:02</time>
      </trkpt>
      <trkpt lat="37.0506" lon="-3.37026">
        <ele>3157.2</ele>
        <time>2021-08-05 19:40:03</time>
      </trkpt>
      <trkpt lat="37.05061" lon="-3.37025">
        <ele>3157.4</ele>
        <time>2021-08-05 19:40:04</time>
      </trkpt>
      <trkpt lat="37.05061" lon="-3.37024">
        <ele>3157.4</ele>
        <time>2021-08-05 19:40:05</time>
      </trkpt>
      <trkpt lat="37.05061" lon="-3.37023">
        <ele>3157.2</ele>
        <time>2021-08-05 19:40:06</time>
      </trkpt>
      <trkpt lat="37.05062" lon="-3.37022">
        <ele>3157.2</ele>
        <time>2021-08-05 19:40:07</time>
      </trkpt>
      <trkpt lat="37.05064" lon="-3.37021">
        <ele>3157.2</ele>
        <time>2021-08-05 19:40:08</time>
      </trkpt>
      <trkpt lat="37.05065" lon="-3.3702">
        <ele>3157</ele>
        <time>2021-08-05 19:40:09</time>
      </trkpt>
      <trkpt lat="37.05066" lon="-3.3702">
        <ele>3157</ele>
        <time>2021-08-05 19:40:10</time>
      </trkpt>
      <trkpt lat="37.05066" lon="-3.37019">
        <ele>3157</ele>
        <time>2021-08-05 19:40:11</time>
      </trkpt>
      <trkpt lat="37.05067" lon="-3.37018">
        <ele>3157</ele>
        <time>2021-08-05 19:40:12</time>
      </trkpt>
      <trkpt lat="37.05068" lon="-3.37018">
        <ele>3157</ele>
        <time>2021-08-05 19:40:13</time>
      </trkpt>
      <trkpt lat="37.05069" lon="-3.37017">
        <ele>3157</ele>
        <time>2021-08-05 19:40:14</time>
      </trkpt>
      <trkpt lat="37.0507" lon="-3.37017">
        <ele>3157</ele>
        <time>2021-08-05 19:40:15</time>
      </trkpt>
      <trkpt lat="37.05071" lon="-3.37017">
        <ele>3157</ele>
        <time>2021-08-05 19:40:16</time>
      </trkpt>
      <trkpt lat="37.05073" lon="-3.37017">
        <ele>3157</ele>
        <time>2021-08-05 19:40:17</time>
      </trkpt>
      <trkpt lat="37.05074" lon="-3.37016">
        <ele>3157</ele>
        <time>2021-08-05 19:40:18</time>
      </trkpt>
      <trkpt lat="37.05075" lon="-3.37016">
        <ele>3157</ele>
        <time>2021-08-05 19:40:19</time>
      </trkpt>
      <trkpt lat="37.05077" lon="-3.37015">
        <ele>3157</ele>
        <time>2021-08-05 19:40:20</time>
      </trkpt>
      <trkpt lat="37.05077" lon="-3.37015">
        <ele>3157</ele>
        <time>2021-08-05 19:40:21</time>
      </trkpt>
      <trkpt lat="37.05078" lon="-3.37014">
        <ele>3157.2</ele>
        <time>2021-08-05 19:40:22</time>
      </trkpt>
      <trkpt lat="37.05079" lon="-3.37013">
        <ele>3157.4</ele>
        <time>2021-08-05 19:40:23</time>
      </trkpt>
      <trkpt lat="37.05079" lon="-3.37012">
        <ele>3157.4</ele>
        <time>2021-08-05 19:40:24</time>
      </trkpt>
      <trkpt lat="37.0508" lon="-3.37012">
        <ele>3157.6</ele>
        <time>2021-08-05 19:40:25</time>
      </trkpt>
      <trkpt lat="37.0508" lon="-3.37011">
        <ele>3157.4</ele>
        <time>2021-08-05 19:40:26</time>
      </trkpt>
      <trkpt lat="37.0508" lon="-3.37011">
        <ele>3157.4</ele>
        <time>2021-08-05 19:40:27</time>
      </trkpt>
      <trkpt lat="37.0508" lon="-3.37011">
        <ele>3157.2</ele>
        <time>2021-08-05 19:40:28</time>
      </trkpt>
      <trkpt lat="37.0508" lon="-3.3701">
        <ele>3157.2</ele>
        <time>2021-08-05 19:40:29</time>
      </trkpt>
      <trkpt lat="37.0508" lon="-3.37011">
        <ele>3157.2</ele>
        <time>2021-08-05 19:40:30</time>
      </trkpt>
      <trkpt lat="37.0508" lon="-3.3701">
        <ele>3157.2</ele>
        <time>2021-08-05 19:40:31</time>
      </trkpt>
      <trkpt lat="37.0508" lon="-3.3701">
        <ele>3157</ele>
        <time>2021-08-05 19:40:32</time>
      </trkpt>
      <trkpt lat="37.05081" lon="-3.3701">
        <ele>3157</ele>
        <time>2021-08-05 19:40:33</time>
      </trkpt>
      <trkpt lat="37.05081" lon="-3.3701">
        <ele>3157</ele>
        <time>2021-08-05 19:40:34</time>
      </trkpt>
      <trkpt lat="37.05082" lon="-3.37009">
        <ele>3157</ele>
        <time>2021-08-05 19:40:35</time>
      </trkpt>
      <trkpt lat="37.05082" lon="-3.37008">
        <ele>3157</ele>
        <time>2021-08-05 19:40:36</time>
      </trkpt>
      <trkpt lat="37.05083" lon="-3.37007">
        <ele>3156.8</ele>
        <time>2021-08-05 19:40:37</time>
      </trkpt>
      <trkpt lat="37.05083" lon="-3.37007">
        <ele>3156.8</ele>
        <time>2021-08-05 19:40:38</time>
      </trkpt>
      <trkpt lat="37.05084" lon="-3.37006">
        <ele>3156.8</ele>
        <time>2021-08-05 19:40:39</time>
      </trkpt>
      <trkpt lat="37.05084" lon="-3.37005">
        <ele>3156.6</ele>
        <time>2021-08-05 19:40:40</time>
      </trkpt>
      <trkpt lat="37.05085" lon="-3.37005">
        <ele>3156.4</ele>
        <time>2021-08-05 19:40:41</time>
      </trkpt>
      <trkpt lat="37.05086" lon="-3.37004">
        <ele>3156.4</ele>
        <time>2021-08-05 19:40:42</time>
      </trkpt>
      <trkpt lat="37.05086" lon="-3.37003">
        <ele>3156.4</ele>
        <time>2021-08-05 19:40:43</time>
      </trkpt>
      <trkpt lat="37.05086" lon="-3.37003">
        <ele>3156.4</ele>
        <time>2021-08-05 19:40:44</time>
      </trkpt>
      <trkpt lat="37.05087" lon="-3.37002">
        <ele>3156.4</ele>
        <time>2021-08-05 19:40:45</time>
      </trkpt>
      <trkpt lat="37.05087" lon="-3.37002">
        <ele>3156.4</ele>
        <time>2021-08-05 19:40:46</time>
      </trkpt>
      <trkpt lat="37.05088" lon="-3.37">
        <ele>3156.4</ele>
        <time>2021-08-05 19:40:47</time>
      </trkpt>
      <trkpt lat="37.05088" lon="-3.36999">
        <ele>3156.4</ele>
        <time>2021-08-05 19:40:48</time>
      </trkpt>
      <trkpt lat="37.05088" lon="-3.36999">
        <ele>3156.2</ele>
        <time>2021-08-05 19:40:49</time>
      </trkpt>
      <trkpt lat="37.05089" lon="-3.36998">
        <ele>3156</ele>
        <time>2021-08-05 19:40:50</time>
      </trkpt>
      <trkpt lat="37.05089" lon="-3.36997">
        <ele>3156</ele>
        <time>2021-08-05 19:40:51</time>
      </trkpt>
      <trkpt lat="37.05089" lon="-3.36995">
        <ele>3156</ele>
        <time>2021-08-05 19:40:52</time>
      </trkpt>
      <trkpt lat="37.0509" lon="-3.36994">
        <ele>3156</ele>
        <time>2021-08-05 19:40:53</time>
      </trkpt>
      <trkpt lat="37.05091" lon="-3.36993">
        <ele>3155.8</ele>
        <time>2021-08-05 19:40:54</time>
      </trkpt>
      <trkpt lat="37.05091" lon="-3.36992">
        <ele>3155.6</ele>
        <time>2021-08-05 19:40:55</time>
      </trkpt>
      <trkpt lat="37.05092" lon="-3.36992">
        <ele>3155.4</ele>
        <time>2021-08-05 19:40:56</time>
      </trkpt>
      <trkpt lat="37.05092" lon="-3.36992">
        <ele>3155</ele>
        <time>2021-08-05 19:40:57</time>
      </trkpt>
      <trkpt lat="37.05093" lon="-3.36991">
        <ele>3154.8</ele>
        <time>2021-08-05 19:40:58</time>
      </trkpt>
      <trkpt lat="37.05094" lon="-3.3699">
        <ele>3154.6</ele>
        <time>2021-08-05 19:40:59</time>
      </trkpt>
      <trkpt lat="37.05094" lon="-3.36989">
        <ele>3154.6</ele>
        <time>2021-08-05 19:41:00</time>
      </trkpt>
      <trkpt lat="37.05094" lon="-3.36988">
        <ele>3154.4</ele>
        <time>2021-08-05 19:41:01</time>
      </trkpt>
      <trkpt lat="37.05095" lon="-3.36986">
        <ele>3154.4</ele>
        <time>2021-08-05 19:41:02</time>
      </trkpt>
      <trkpt lat="37.05095" lon="-3.36985">
        <ele>3154.4</ele>
        <time>2021-08-05 19:41:03</time>
      </trkpt>
      <trkpt lat="37.05095" lon="-3.36984">
        <ele>3154.4</ele>
        <time>2021-08-05 19:41:04</time>
      </trkpt>
      <trkpt lat="37.05096" lon="-3.36983">
        <ele>3154.4</ele>
        <time>2021-08-05 19:41:05</time>
      </trkpt>
      <trkpt lat="37.05096" lon="-3.36982">
        <ele>3154.4</ele>
        <time>2021-08-05 19:41:06</time>
      </trkpt>
      <trkpt lat="37.05096" lon="-3.36982">
        <ele>3154.4</ele>
        <time>2021-08-05 19:41:07</time>
      </trkpt>
      <trkpt lat="37.05097" lon="-3.36981">
        <ele>3154.4</ele>
        <time>2021-08-05 19:41:08</time>
      </trkpt>
      <trkpt lat="37.05097" lon="-3.3698">
        <ele>3154.2</ele>
        <time>2021-08-05 19:41:09</time>
      </trkpt>
      <trkpt lat="37.05098" lon="-3.3698">
        <ele>3154.2</ele>
        <time>2021-08-05 19:41:10</time>
      </trkpt>
      <trkpt lat="37.05098" lon="-3.36979">
        <ele>3154</ele>
        <time>2021-08-05 19:41:11</time>
      </trkpt>
      <trkpt lat="37.05099" lon="-3.36978">
        <ele>3154</ele>
        <time>2021-08-05 19:41:12</time>
      </trkpt>
      <trkpt lat="37.05099" lon="-3.36977">
        <ele>3153.8</ele>
        <time>2021-08-05 19:41:13</time>
      </trkpt>
      <trkpt lat="37.051" lon="-3.36976">
        <ele>3153.8</ele>
        <time>2021-08-05 19:41:14</time>
      </trkpt>
      <trkpt lat="37.05101" lon="-3.36975">
        <ele>3153.6</ele>
        <time>2021-08-05 19:41:15</time>
      </trkpt>
      <trkpt lat="37.05101" lon="-3.36974">
        <ele>3153.6</ele>
        <time>2021-08-05 19:41:16</time>
      </trkpt>
      <trkpt lat="37.05102" lon="-3.36972">
        <ele>3153.4</ele>
        <time>2021-08-05 19:41:17</time>
      </trkpt>
      <trkpt lat="37.05103" lon="-3.36971">
        <ele>3153.4</ele>
        <time>2021-08-05 19:41:18</time>
      </trkpt>
      <trkpt lat="37.05104" lon="-3.36971">
        <ele>3153.4</ele>
        <time>2021-08-05 19:41:19</time>
      </trkpt>
      <trkpt lat="37.05105" lon="-3.36969">
        <ele>3153.2</ele>
        <time>2021-08-05 19:41:20</time>
      </trkpt>
      <trkpt lat="37.05105" lon="-3.36968">
        <ele>3153.2</ele>
        <time>2021-08-05 19:41:21</time>
      </trkpt>
      <trkpt lat="37.05105" lon="-3.36967">
        <ele>3153.2</ele>
        <time>2021-08-05 19:41:22</time>
      </trkpt>
      <trkpt lat="37.05105" lon="-3.36966">
        <ele>3153</ele>
        <time>2021-08-05 19:41:23</time>
      </trkpt>
      <trkpt lat="37.05105" lon="-3.36964">
        <ele>3153</ele>
        <time>2021-08-05 19:41:24</time>
      </trkpt>
      <trkpt lat="37.05105" lon="-3.36963">
        <ele>3153</ele>
        <time>2021-08-05 19:41:25</time>
      </trkpt>
      <trkpt lat="37.05106" lon="-3.36962">
        <ele>3153</ele>
        <time>2021-08-05 19:41:26</time>
      </trkpt>
      <trkpt lat="37.05106" lon="-3.36961">
        <ele>3152.8</ele>
        <time>2021-08-05 19:41:27</time>
      </trkpt>
      <trkpt lat="37.05107" lon="-3.3696">
        <ele>3152.8</ele>
        <time>2021-08-05 19:41:28</time>
      </trkpt>
      <trkpt lat="37.05106" lon="-3.3696">
        <ele>3153</ele>
        <time>2021-08-05 19:41:29</time>
      </trkpt>
      <trkpt lat="37.05107" lon="-3.36961">
        <ele>3153</ele>
        <time>2021-08-05 19:41:30</time>
      </trkpt>
      <trkpt lat="37.05108" lon="-3.36961">
        <ele>3153</ele>
        <time>2021-08-05 19:41:31</time>
      </trkpt>
      <trkpt lat="37.05109" lon="-3.36962">
        <ele>3153</ele>
        <time>2021-08-05 19:41:32</time>
      </trkpt>
      <trkpt lat="37.0511" lon="-3.36962">
        <ele>3153</ele>
        <time>2021-08-05 19:41:33</time>
      </trkpt>
      <trkpt lat="37.0511" lon="-3.36962">
        <ele>3153.2</ele>
        <time>2021-08-05 19:41:34</time>
      </trkpt>
      <trkpt lat="37.0511" lon="-3.36961">
        <ele>3153.2</ele>
        <time>2021-08-05 19:41:35</time>
      </trkpt>
      <trkpt lat="37.05111" lon="-3.36961">
        <ele>3153</ele>
        <time>2021-08-05 19:41:36</time>
      </trkpt>
      <trkpt lat="37.05112" lon="-3.3696">
        <ele>3153</ele>
        <time>2021-08-05 19:41:37</time>
      </trkpt>
      <trkpt lat="37.05112" lon="-3.36959">
        <ele>3153.2</ele>
        <time>2021-08-05 19:41:38</time>
      </trkpt>
      <trkpt lat="37.05112" lon="-3.36958">
        <ele>3153.2</ele>
        <time>2021-08-05 19:41:39</time>
      </trkpt>
      <trkpt lat="37.05112" lon="-3.36957">
        <ele>3152.8</ele>
        <time>2021-08-05 19:41:40</time>
      </trkpt>
      <trkpt lat="37.05112" lon="-3.36956">
        <ele>3152.6</ele>
        <time>2021-08-05 19:41:41</time>
      </trkpt>
      <trkpt lat="37.05112" lon="-3.36955">
        <ele>3152.6</ele>
        <time>2021-08-05 19:41:42</time>
      </trkpt>
      <trkpt lat="37.05113" lon="-3.36954">
        <ele>3152.4</ele>
        <time>2021-08-05 19:41:43</time>
      </trkpt>
      <trkpt lat="37.05112" lon="-3.36952">
        <ele>3152.4</ele>
        <time>2021-08-05 19:41:44</time>
      </trkpt>
      <trkpt lat="37.05112" lon="-3.36951">
        <ele>3152.4</ele>
        <time>2021-08-05 19:41:45</time>
      </trkpt>
      <trkpt lat="37.05112" lon="-3.36951">
        <ele>3152.4</ele>
        <time>2021-08-05 19:41:46</time>
      </trkpt>
      <trkpt lat="37.05113" lon="-3.3695">
        <ele>3152.4</ele>
        <time>2021-08-05 19:41:47</time>
      </trkpt>
      <trkpt lat="37.05113" lon="-3.36949">
        <ele>3152.4</ele>
        <time>2021-08-05 19:41:48</time>
      </trkpt>
      <trkpt lat="37.05113" lon="-3.36949">
        <ele>3152.2</ele>
        <time>2021-08-05 19:41:49</time>
      </trkpt>
      <trkpt lat="37.05114" lon="-3.36948">
        <ele>3152</ele>
        <time>2021-08-05 19:41:50</time>
      </trkpt>
      <trkpt lat="37.05114" lon="-3.36947">
        <ele>3152</ele>
        <time>2021-08-05 19:41:51</time>
      </trkpt>
      <trkpt lat="37.05114" lon="-3.36946">
        <ele>3152.2</ele>
        <time>2021-08-05 19:41:52</time>
      </trkpt>
      <trkpt lat="37.05114" lon="-3.36945">
        <ele>3152.2</ele>
        <time>2021-08-05 19:41:53</time>
      </trkpt>
      <trkpt lat="37.05115" lon="-3.36945">
        <ele>3152.2</ele>
        <time>2021-08-05 19:41:54</time>
      </trkpt>
      <trkpt lat="37.05116" lon="-3.36944">
        <ele>3152.2</ele>
        <time>2021-08-05 19:41:55</time>
      </trkpt>
      <trkpt lat="37.05117" lon="-3.36943">
        <ele>3152.2</ele>
        <time>2021-08-05 19:41:56</time>
      </trkpt>
      <trkpt lat="37.05117" lon="-3.36942">
        <ele>3152.4</ele>
        <time>2021-08-05 19:41:57</time>
      </trkpt>
      <trkpt lat="37.05118" lon="-3.36941">
        <ele>3152.4</ele>
        <time>2021-08-05 19:41:58</time>
      </trkpt>
      <trkpt lat="37.05119" lon="-3.36941">
        <ele>3152.4</ele>
        <time>2021-08-05 19:41:59</time>
      </trkpt>
      <trkpt lat="37.05119" lon="-3.36939">
        <ele>3152.4</ele>
        <time>2021-08-05 19:42:00</time>
      </trkpt>
      <trkpt lat="37.0512" lon="-3.36938">
        <ele>3152.4</ele>
        <time>2021-08-05 19:42:01</time>
      </trkpt>
      <trkpt lat="37.0512" lon="-3.36937">
        <ele>3152.2</ele>
        <time>2021-08-05 19:42:02</time>
      </trkpt>
      <trkpt lat="37.0512" lon="-3.36935">
        <ele>3152.2</ele>
        <time>2021-08-05 19:42:03</time>
      </trkpt>
      <trkpt lat="37.0512" lon="-3.36934">
        <ele>3152.2</ele>
        <time>2021-08-05 19:42:04</time>
      </trkpt>
      <trkpt lat="37.05121" lon="-3.36933">
        <ele>3152.2</ele>
        <time>2021-08-05 19:42:05</time>
      </trkpt>
      <trkpt lat="37.05121" lon="-3.36931">
        <ele>3152</ele>
        <time>2021-08-05 19:42:06</time>
      </trkpt>
      <trkpt lat="37.05121" lon="-3.3693">
        <ele>3152</ele>
        <time>2021-08-05 19:42:07</time>
      </trkpt>
      <trkpt lat="37.05122" lon="-3.36928">
        <ele>3152.2</ele>
        <time>2021-08-05 19:42:08</time>
      </trkpt>
      <trkpt lat="37.05122" lon="-3.36927">
        <ele>3152.4</ele>
        <time>2021-08-05 19:42:09</time>
      </trkpt>
      <trkpt lat="37.05122" lon="-3.36926">
        <ele>3152.4</ele>
        <time>2021-08-05 19:42:10</time>
      </trkpt>
      <trkpt lat="37.05122" lon="-3.36925">
        <ele>3152.4</ele>
        <time>2021-08-05 19:42:11</time>
      </trkpt>
      <trkpt lat="37.05122" lon="-3.36924">
        <ele>3152.4</ele>
        <time>2021-08-05 19:42:12</time>
      </trkpt>
      <trkpt lat="37.05123" lon="-3.36923">
        <ele>3152.4</ele>
        <time>2021-08-05 19:42:13</time>
      </trkpt>
      <trkpt lat="37.05123" lon="-3.36922">
        <ele>3152.4</ele>
        <time>2021-08-05 19:42:14</time>
      </trkpt>
      <trkpt lat="37.05123" lon="-3.36921">
        <ele>3152.4</ele>
        <time>2021-08-05 19:42:15</time>
      </trkpt>
      <trkpt lat="37.05123" lon="-3.3692">
        <ele>3152.2</ele>
        <time>2021-08-05 19:42:16</time>
      </trkpt>
      <trkpt lat="37.05122" lon="-3.36918">
        <ele>3152</ele>
        <time>2021-08-05 19:42:17</time>
      </trkpt>
      <trkpt lat="37.05122" lon="-3.36917">
        <ele>3151.8</ele>
        <time>2021-08-05 19:42:18</time>
      </trkpt>
      <trkpt lat="37.05122" lon="-3.36916">
        <ele>3151.6</ele>
        <time>2021-08-05 19:42:19</time>
      </trkpt>
      <trkpt lat="37.05122" lon="-3.36915">
        <ele>3151.6</ele>
        <time>2021-08-05 19:42:20</time>
      </trkpt>
      <trkpt lat="37.05122" lon="-3.36914">
        <ele>3151.6</ele>
        <time>2021-08-05 19:42:21</time>
      </trkpt>
      <trkpt lat="37.05123" lon="-3.36913">
        <ele>3151.6</ele>
        <time>2021-08-05 19:42:22</time>
      </trkpt>
      <trkpt lat="37.05123" lon="-3.36912">
        <ele>3151.6</ele>
        <time>2021-08-05 19:42:23</time>
      </trkpt>
      <trkpt lat="37.05124" lon="-3.36911">
        <ele>3151.6</ele>
        <time>2021-08-05 19:42:24</time>
      </trkpt>
      <trkpt lat="37.05124" lon="-3.36911">
        <ele>3151.6</ele>
        <time>2021-08-05 19:42:25</time>
      </trkpt>
      <trkpt lat="37.05124" lon="-3.36909">
        <ele>3151.6</ele>
        <time>2021-08-05 19:42:26</time>
      </trkpt>
      <trkpt lat="37.05125" lon="-3.36908">
        <ele>3151.6</ele>
        <time>2021-08-05 19:42:27</time>
      </trkpt>
      <trkpt lat="37.05125" lon="-3.36907">
        <ele>3151.6</ele>
        <time>2021-08-05 19:42:28</time>
      </trkpt>
      <trkpt lat="37.05125" lon="-3.36906">
        <ele>3151.6</ele>
        <time>2021-08-05 19:42:29</time>
      </trkpt>
      <trkpt lat="37.05125" lon="-3.36905">
        <ele>3151.6</ele>
        <time>2021-08-05 19:42:30</time>
      </trkpt>
      <trkpt lat="37.05125" lon="-3.36904">
        <ele>3151.4</ele>
        <time>2021-08-05 19:42:31</time>
      </trkpt>
      <trkpt lat="37.05126" lon="-3.36902">
        <ele>3151.4</ele>
        <time>2021-08-05 19:42:32</time>
      </trkpt>
      <trkpt lat="37.05126" lon="-3.36901">
        <ele>3151.4</ele>
        <time>2021-08-05 19:42:33</time>
      </trkpt>
      <trkpt lat="37.05126" lon="-3.36899">
        <ele>3151.2</ele>
        <time>2021-08-05 19:42:34</time>
      </trkpt>
      <trkpt lat="37.05127" lon="-3.36898">
        <ele>3151.2</ele>
        <time>2021-08-05 19:42:35</time>
      </trkpt>
      <trkpt lat="37.05127" lon="-3.36897">
        <ele>3151.2</ele>
        <time>2021-08-05 19:42:36</time>
      </trkpt>
      <trkpt lat="37.05128" lon="-3.36896">
        <ele>3151.2</ele>
        <time>2021-08-05 19:42:37</time>
      </trkpt>
      <trkpt lat="37.05128" lon="-3.36895">
        <ele>3151.2</ele>
        <time>2021-08-05 19:42:38</time>
      </trkpt>
      <trkpt lat="37.05128" lon="-3.36894">
        <ele>3151.4</ele>
        <time>2021-08-05 19:42:39</time>
      </trkpt>
      <trkpt lat="37.05128" lon="-3.36893">
        <ele>3151.4</ele>
        <time>2021-08-05 19:42:40</time>
      </trkpt>
      <trkpt lat="37.05128" lon="-3.36892">
        <ele>3151.4</ele>
        <time>2021-08-05 19:42:41</time>
      </trkpt>
      <trkpt lat="37.05129" lon="-3.36891">
        <ele>3151.4</ele>
        <time>2021-08-05 19:42:42</time>
      </trkpt>
      <trkpt lat="37.05129" lon="-3.3689">
        <ele>3151.2</ele>
        <time>2021-08-05 19:42:43</time>
      </trkpt>
      <trkpt lat="37.0513" lon="-3.36889">
        <ele>3151.2</ele>
        <time>2021-08-05 19:42:44</time>
      </trkpt>
      <trkpt lat="37.05131" lon="-3.36888">
        <ele>3151.2</ele>
        <time>2021-08-05 19:42:45</time>
      </trkpt>
      <trkpt lat="37.05131" lon="-3.36887">
        <ele>3151.2</ele>
        <time>2021-08-05 19:42:46</time>
      </trkpt>
      <trkpt lat="37.05131" lon="-3.36886">
        <ele>3151.2</ele>
        <time>2021-08-05 19:42:47</time>
      </trkpt>
      <trkpt lat="37.05131" lon="-3.36885">
        <ele>3151.2</ele>
        <time>2021-08-05 19:42:48</time>
      </trkpt>
      <trkpt lat="37.05132" lon="-3.36884">
        <ele>3151.2</ele>
        <time>2021-08-05 19:42:49</time>
      </trkpt>
      <trkpt lat="37.05132" lon="-3.36882">
        <ele>3151.2</ele>
        <time>2021-08-05 19:42:50</time>
      </trkpt>
      <trkpt lat="37.05132" lon="-3.36881">
        <ele>3151.2</ele>
        <time>2021-08-05 19:42:51</time>
      </trkpt>
      <trkpt lat="37.05133" lon="-3.3688">
        <ele>3151</ele>
        <time>2021-08-05 19:42:52</time>
      </trkpt>
      <trkpt lat="37.05133" lon="-3.3688">
        <ele>3151</ele>
        <time>2021-08-05 19:42:53</time>
      </trkpt>
      <trkpt lat="37.05133" lon="-3.36879">
        <ele>3150.8</ele>
        <time>2021-08-05 19:42:54</time>
      </trkpt>
      <trkpt lat="37.05133" lon="-3.36877">
        <ele>3150.6</ele>
        <time>2021-08-05 19:42:55</time>
      </trkpt>
      <trkpt lat="37.05133" lon="-3.36876">
        <ele>3150.6</ele>
        <time>2021-08-05 19:42:56</time>
      </trkpt>
      <trkpt lat="37.05133" lon="-3.36875">
        <ele>3150.6</ele>
        <time>2021-08-05 19:42:57</time>
      </trkpt>
      <trkpt lat="37.05134" lon="-3.36874">
        <ele>3150.4</ele>
        <time>2021-08-05 19:42:58</time>
      </trkpt>
      <trkpt lat="37.05134" lon="-3.36873">
        <ele>3150.4</ele>
        <time>2021-08-05 19:42:59</time>
      </trkpt>
      <trkpt lat="37.05134" lon="-3.36872">
        <ele>3150.4</ele>
        <time>2021-08-05 19:43:00</time>
      </trkpt>
      <trkpt lat="37.05135" lon="-3.3687">
        <ele>3150.4</ele>
        <time>2021-08-05 19:43:01</time>
      </trkpt>
      <trkpt lat="37.05135" lon="-3.36869">
        <ele>3150.8</ele>
        <time>2021-08-05 19:43:02</time>
      </trkpt>
      <trkpt lat="37.05136" lon="-3.36868">
        <ele>3150.6</ele>
        <time>2021-08-05 19:43:03</time>
      </trkpt>
      <trkpt lat="37.05136" lon="-3.36867">
        <ele>3150.4</ele>
        <time>2021-08-05 19:43:04</time>
      </trkpt>
      <trkpt lat="37.05136" lon="-3.36865">
        <ele>3150.4</ele>
        <time>2021-08-05 19:43:05</time>
      </trkpt>
      <trkpt lat="37.05136" lon="-3.36864">
        <ele>3150.4</ele>
        <time>2021-08-05 19:43:06</time>
      </trkpt>
      <trkpt lat="37.05136" lon="-3.36862">
        <ele>3150.2</ele>
        <time>2021-08-05 19:43:07</time>
      </trkpt>
      <trkpt lat="37.05137" lon="-3.36861">
        <ele>3150.2</ele>
        <time>2021-08-05 19:43:08</time>
      </trkpt>
      <trkpt lat="37.05137" lon="-3.3686">
        <ele>3150.2</ele>
        <time>2021-08-05 19:43:09</time>
      </trkpt>
      <trkpt lat="37.05137" lon="-3.3686">
        <ele>3150.2</ele>
        <time>2021-08-05 19:43:10</time>
      </trkpt>
      <trkpt lat="37.05137" lon="-3.36859">
        <ele>3150.2</ele>
        <time>2021-08-05 19:43:11</time>
      </trkpt>
      <trkpt lat="37.05137" lon="-3.36858">
        <ele>3150</ele>
        <time>2021-08-05 19:43:12</time>
      </trkpt>
      <trkpt lat="37.05138" lon="-3.36857">
        <ele>3150</ele>
        <time>2021-08-05 19:43:13</time>
      </trkpt>
      <trkpt lat="37.05139" lon="-3.36856">
        <ele>3150</ele>
        <time>2021-08-05 19:43:14</time>
      </trkpt>
      <trkpt lat="37.05139" lon="-3.36855">
        <ele>3150</ele>
        <time>2021-08-05 19:43:15</time>
      </trkpt>
      <trkpt lat="37.05139" lon="-3.36855">
        <ele>3149.8</ele>
        <time>2021-08-05 19:43:16</time>
      </trkpt>
      <trkpt lat="37.0514" lon="-3.36854">
        <ele>3149.8</ele>
        <time>2021-08-05 19:43:17</time>
      </trkpt>
      <trkpt lat="37.0514" lon="-3.36853">
        <ele>3149.8</ele>
        <time>2021-08-05 19:43:18</time>
      </trkpt>
      <trkpt lat="37.0514" lon="-3.36852">
        <ele>3149.8</ele>
        <time>2021-08-05 19:43:19</time>
      </trkpt>
      <trkpt lat="37.0514" lon="-3.36851">
        <ele>3149.6</ele>
        <time>2021-08-05 19:43:20</time>
      </trkpt>
      <trkpt lat="37.0514" lon="-3.36851">
        <ele>3149.6</ele>
        <time>2021-08-05 19:43:21</time>
      </trkpt>
      <trkpt lat="37.05141" lon="-3.3685">
        <ele>3149.4</ele>
        <time>2021-08-05 19:43:22</time>
      </trkpt>
      <trkpt lat="37.05141" lon="-3.36849">
        <ele>3149.4</ele>
        <time>2021-08-05 19:43:23</time>
      </trkpt>
      <trkpt lat="37.05141" lon="-3.36848">
        <ele>3149.4</ele>
        <time>2021-08-05 19:43:24</time>
      </trkpt>
      <trkpt lat="37.05141" lon="-3.36846">
        <ele>3149.4</ele>
        <time>2021-08-05 19:43:25</time>
      </trkpt>
      <trkpt lat="37.05141" lon="-3.36845">
        <ele>3149.4</ele>
        <time>2021-08-05 19:43:26</time>
      </trkpt>
      <trkpt lat="37.05141" lon="-3.36844">
        <ele>3149.4</ele>
        <time>2021-08-05 19:43:27</time>
      </trkpt>
      <trkpt lat="37.05141" lon="-3.36842">
        <ele>3149.4</ele>
        <time>2021-08-05 19:43:28</time>
      </trkpt>
      <trkpt lat="37.05141" lon="-3.36841">
        <ele>3149.2</ele>
        <time>2021-08-05 19:43:29</time>
      </trkpt>
      <trkpt lat="37.0514" lon="-3.36839">
        <ele>3149</ele>
        <time>2021-08-05 19:43:30</time>
      </trkpt>
      <trkpt lat="37.0514" lon="-3.36838">
        <ele>3148.8</ele>
        <time>2021-08-05 19:43:31</time>
      </trkpt>
      <trkpt lat="37.0514" lon="-3.36837">
        <ele>3148.6</ele>
        <time>2021-08-05 19:43:32</time>
      </trkpt>
      <trkpt lat="37.05139" lon="-3.36836">
        <ele>3148.6</ele>
        <time>2021-08-05 19:43:33</time>
      </trkpt>
      <trkpt lat="37.05138" lon="-3.36835">
        <ele>3148.4</ele>
        <time>2021-08-05 19:43:34</time>
      </trkpt>
      <trkpt lat="37.05137" lon="-3.36834">
        <ele>3148.4</ele>
        <time>2021-08-05 19:43:35</time>
      </trkpt>
      <trkpt lat="37.05136" lon="-3.36832">
        <ele>3148.4</ele>
        <time>2021-08-05 19:43:36</time>
      </trkpt>
      <trkpt lat="37.05135" lon="-3.36831">
        <ele>3148.4</ele>
        <time>2021-08-05 19:43:37</time>
      </trkpt>
      <trkpt lat="37.05135" lon="-3.3683">
        <ele>3148.4</ele>
        <time>2021-08-05 19:43:38</time>
      </trkpt>
      <trkpt lat="37.05134" lon="-3.36829">
        <ele>3148.4</ele>
        <time>2021-08-05 19:43:39</time>
      </trkpt>
      <trkpt lat="37.05134" lon="-3.36828">
        <ele>3148.6</ele>
        <time>2021-08-05 19:43:40</time>
      </trkpt>
      <trkpt lat="37.05134" lon="-3.36828">
        <ele>3148.6</ele>
        <time>2021-08-05 19:43:41</time>
      </trkpt>
      <trkpt lat="37.05133" lon="-3.36828">
        <ele>3148.6</ele>
        <time>2021-08-05 19:43:42</time>
      </trkpt>
      <trkpt lat="37.05133" lon="-3.36827">
        <ele>3148.6</ele>
        <time>2021-08-05 19:43:43</time>
      </trkpt>
      <trkpt lat="37.05132" lon="-3.36827">
        <ele>3148.6</ele>
        <time>2021-08-05 19:43:44</time>
      </trkpt>
      <trkpt lat="37.05132" lon="-3.36826">
        <ele>3148.6</ele>
        <time>2021-08-05 19:43:45</time>
      </trkpt>
      <trkpt lat="37.05131" lon="-3.36825">
        <ele>3148.6</ele>
        <time>2021-08-05 19:43:46</time>
      </trkpt>
      <trkpt lat="37.05131" lon="-3.36825">
        <ele>3148.4</ele>
        <time>2021-08-05 19:43:47</time>
      </trkpt>
      <trkpt lat="37.05131" lon="-3.36825">
        <ele>3148.4</ele>
        <time>2021-08-05 19:43:48</time>
      </trkpt>
      <trkpt lat="37.05131" lon="-3.36825">
        <ele>3148.2</ele>
        <time>2021-08-05 19:43:49</time>
      </trkpt>
      <trkpt lat="37.05131" lon="-3.36825">
        <ele>3148.2</ele>
        <time>2021-08-05 19:43:50</time>
      </trkpt>
      <trkpt lat="37.0513" lon="-3.36824">
        <ele>3147.8</ele>
        <time>2021-08-05 19:43:51</time>
      </trkpt>
      <trkpt lat="37.05129" lon="-3.36824">
        <ele>3147.8</ele>
        <time>2021-08-05 19:43:52</time>
      </trkpt>
      <trkpt lat="37.05128" lon="-3.36823">
        <ele>3147.8</ele>
        <time>2021-08-05 19:43:53</time>
      </trkpt>
      <trkpt lat="37.05127" lon="-3.36822">
        <ele>3147.8</ele>
        <time>2021-08-05 19:43:54</time>
      </trkpt>
      <trkpt lat="37.05127" lon="-3.36821">
        <ele>3147.8</ele>
        <time>2021-08-05 19:43:55</time>
      </trkpt>
      <trkpt lat="37.05126" lon="-3.3682">
        <ele>3147.8</ele>
        <time>2021-08-05 19:43:56</time>
      </trkpt>
      <trkpt lat="37.05126" lon="-3.36819">
        <ele>3147.8</ele>
        <time>2021-08-05 19:43:57</time>
      </trkpt>
      <trkpt lat="37.05125" lon="-3.36819">
        <ele>3147.8</ele>
        <time>2021-08-05 19:43:58</time>
      </trkpt>
      <trkpt lat="37.05125" lon="-3.36818">
        <ele>3147.8</ele>
        <time>2021-08-05 19:43:59</time>
      </trkpt>
      <trkpt lat="37.05124" lon="-3.36818">
        <ele>3147.8</ele>
        <time>2021-08-05 19:44:00</time>
      </trkpt>
      <trkpt lat="37.05124" lon="-3.36817">
        <ele>3147.8</ele>
        <time>2021-08-05 19:44:01</time>
      </trkpt>
      <trkpt lat="37.05123" lon="-3.36816">
        <ele>3147.8</ele>
        <time>2021-08-05 19:44:02</time>
      </trkpt>
      <trkpt lat="37.05122" lon="-3.36816">
        <ele>3147.8</ele>
        <time>2021-08-05 19:44:03</time>
      </trkpt>
      <trkpt lat="37.05121" lon="-3.36816">
        <ele>3147.6</ele>
        <time>2021-08-05 19:44:04</time>
      </trkpt>
      <trkpt lat="37.0512" lon="-3.36815">
        <ele>3147.6</ele>
        <time>2021-08-05 19:44:05</time>
      </trkpt>
      <trkpt lat="37.05118" lon="-3.36815">
        <ele>3147.6</ele>
        <time>2021-08-05 19:44:06</time>
      </trkpt>
      <trkpt lat="37.05117" lon="-3.36815">
        <ele>3147.6</ele>
        <time>2021-08-05 19:44:07</time>
      </trkpt>
      <trkpt lat="37.05117" lon="-3.36815">
        <ele>3147.6</ele>
        <time>2021-08-05 19:44:08</time>
      </trkpt>
      <trkpt lat="37.05116" lon="-3.36816">
        <ele>3147</ele>
        <time>2021-08-05 19:44:09</time>
      </trkpt>
      <trkpt lat="37.05117" lon="-3.36818">
        <ele>3147</ele>
        <time>2021-08-05 19:44:10</time>
      </trkpt>
      <trkpt lat="37.05118" lon="-3.3682">
        <ele>3147</ele>
        <time>2021-08-05 19:44:11</time>
      </trkpt>
      <trkpt lat="37.05118" lon="-3.3682">
        <ele>3147.2</ele>
        <time>2021-08-05 19:44:12</time>
      </trkpt>
      <trkpt lat="37.05118" lon="-3.3682">
        <ele>3147.2</ele>
        <time>2021-08-05 19:44:13</time>
      </trkpt>
      <trkpt lat="37.05117" lon="-3.36819">
        <ele>3147.2</ele>
        <time>2021-08-05 19:44:14</time>
      </trkpt>
      <trkpt lat="37.05117" lon="-3.3682">
        <ele>3147.2</ele>
        <time>2021-08-05 19:44:15</time>
      </trkpt>
      <trkpt lat="37.05117" lon="-3.3682">
        <ele>3147.2</ele>
        <time>2021-08-05 19:44:16</time>
      </trkpt>
      <trkpt lat="37.05117" lon="-3.3682">
        <ele>3147.2</ele>
        <time>2021-08-05 19:44:17</time>
      </trkpt>
      <trkpt lat="37.05118" lon="-3.3682">
        <ele>3147</ele>
        <time>2021-08-05 19:44:18</time>
      </trkpt>
      <trkpt lat="37.05117" lon="-3.3682">
        <ele>3147</ele>
        <time>2021-08-05 19:44:19</time>
      </trkpt>
      <trkpt lat="37.05117" lon="-3.3682">
        <ele>3147</ele>
        <time>2021-08-05 19:44:20</time>
      </trkpt>
      <trkpt lat="37.05116" lon="-3.36821">
        <ele>3147</ele>
        <time>2021-08-05 19:44:21</time>
      </trkpt>
      <trkpt lat="37.05115" lon="-3.36822">
        <ele>3147</ele>
        <time>2021-08-05 19:44:22</time>
      </trkpt>
      <trkpt lat="37.05115" lon="-3.36822">
        <ele>3146.8</ele>
        <time>2021-08-05 19:44:23</time>
      </trkpt>
      <trkpt lat="37.05115" lon="-3.36822">
        <ele>3147</ele>
        <time>2021-08-05 19:44:24</time>
      </trkpt>
      <trkpt lat="37.05114" lon="-3.36822">
        <ele>3146.8</ele>
        <time>2021-08-05 19:44:25</time>
      </trkpt>
      <trkpt lat="37.05114" lon="-3.36822">
        <ele>3146.8</ele>
        <time>2021-08-05 19:44:26</time>
      </trkpt>
      <trkpt lat="37.05113" lon="-3.36823">
        <ele>3146.6</ele>
        <time>2021-08-05 19:44:27</time>
      </trkpt>
      <trkpt lat="37.05113" lon="-3.36824">
        <ele>3146.6</ele>
        <time>2021-08-05 19:44:28</time>
      </trkpt>
      <trkpt lat="37.05112" lon="-3.36824">
        <ele>3146.4</ele>
        <time>2021-08-05 19:44:29</time>
      </trkpt>
      <trkpt lat="37.05112" lon="-3.36825">
        <ele>3146.4</ele>
        <time>2021-08-05 19:44:30</time>
      </trkpt>
      <trkpt lat="37.05112" lon="-3.36826">
        <ele>3146.2</ele>
        <time>2021-08-05 19:44:31</time>
      </trkpt>
      <trkpt lat="37.05111" lon="-3.36827">
        <ele>3146.2</ele>
        <time>2021-08-05 19:44:32</time>
      </trkpt>
      <trkpt lat="37.05111" lon="-3.36827">
        <ele>3146</ele>
        <time>2021-08-05 19:44:33</time>
      </trkpt>
      <trkpt lat="37.0511" lon="-3.36828">
        <ele>3145.8</ele>
        <time>2021-08-05 19:44:34</time>
      </trkpt>
      <trkpt lat="37.0511" lon="-3.36828">
        <ele>3145.8</ele>
        <time>2021-08-05 19:44:35</time>
      </trkpt>
      <trkpt lat="37.0511" lon="-3.36829">
        <ele>3145.8</ele>
        <time>2021-08-05 19:44:36</time>
      </trkpt>
      <trkpt lat="37.05109" lon="-3.3683">
        <ele>3145.6</ele>
        <time>2021-08-05 19:44:37</time>
      </trkpt>
      <trkpt lat="37.05108" lon="-3.36831">
        <ele>3145.6</ele>
        <time>2021-08-05 19:44:38</time>
      </trkpt>
      <trkpt lat="37.05108" lon="-3.36832">
        <ele>3145.6</ele>
        <time>2021-08-05 19:44:39</time>
      </trkpt>
      <trkpt lat="37.05107" lon="-3.36833">
        <ele>3145.4</ele>
        <time>2021-08-05 19:44:40</time>
      </trkpt>
      <trkpt lat="37.05106" lon="-3.36834">
        <ele>3145.4</ele>
        <time>2021-08-05 19:44:41</time>
      </trkpt>
      <trkpt lat="37.05105" lon="-3.36834">
        <ele>3145.2</ele>
        <time>2021-08-05 19:44:42</time>
      </trkpt>
      <trkpt lat="37.05103" lon="-3.36836">
        <ele>3145</ele>
        <time>2021-08-05 19:44:43</time>
      </trkpt>
      <trkpt lat="37.05103" lon="-3.36836">
        <ele>3144.8</ele>
        <time>2021-08-05 19:44:44</time>
      </trkpt>
      <trkpt lat="37.05102" lon="-3.36836">
        <ele>3144.8</ele>
        <time>2021-08-05 19:44:45</time>
      </trkpt>
      <trkpt lat="37.05101" lon="-3.36836">
        <ele>3144.6</ele>
        <time>2021-08-05 19:44:46</time>
      </trkpt>
      <trkpt lat="37.05099" lon="-3.36836">
        <ele>3144.6</ele>
        <time>2021-08-05 19:44:47</time>
      </trkpt>
      <trkpt lat="37.05099" lon="-3.36837">
        <ele>3144.6</ele>
        <time>2021-08-05 19:44:48</time>
      </trkpt>
      <trkpt lat="37.05098" lon="-3.36837">
        <ele>3144.6</ele>
        <time>2021-08-05 19:44:49</time>
      </trkpt>
      <trkpt lat="37.05097" lon="-3.36838">
        <ele>3144.4</ele>
        <time>2021-08-05 19:44:50</time>
      </trkpt>
      <trkpt lat="37.05097" lon="-3.36838">
        <ele>3144.4</ele>
        <time>2021-08-05 19:44:51</time>
      </trkpt>
      <trkpt lat="37.05096" lon="-3.36839">
        <ele>3144.2</ele>
        <time>2021-08-05 19:44:52</time>
      </trkpt>
      <trkpt lat="37.05096" lon="-3.36841">
        <ele>3144</ele>
        <time>2021-08-05 19:44:53</time>
      </trkpt>
      <trkpt lat="37.05096" lon="-3.36842">
        <ele>3143.6</ele>
        <time>2021-08-05 19:44:54</time>
      </trkpt>
      <trkpt lat="37.05095" lon="-3.36843">
        <ele>3143.4</ele>
        <time>2021-08-05 19:44:55</time>
      </trkpt>
      <trkpt lat="37.05095" lon="-3.36843">
        <ele>3143</ele>
        <time>2021-08-05 19:44:56</time>
      </trkpt>
      <trkpt lat="37.05095" lon="-3.36844">
        <ele>3142.8</ele>
        <time>2021-08-05 19:44:57</time>
      </trkpt>
      <trkpt lat="37.05094" lon="-3.36845">
        <ele>3142.6</ele>
        <time>2021-08-05 19:44:58</time>
      </trkpt>
      <trkpt lat="37.05093" lon="-3.36846">
        <ele>3142.4</ele>
        <time>2021-08-05 19:44:59</time>
      </trkpt>
      <trkpt lat="37.05093" lon="-3.36846">
        <ele>3142.2</ele>
        <time>2021-08-05 19:45:00</time>
      </trkpt>
      <trkpt lat="37.05092" lon="-3.36847">
        <ele>3142.2</ele>
        <time>2021-08-05 19:45:01</time>
      </trkpt>
      <trkpt lat="37.05091" lon="-3.36848">
        <ele>3142</ele>
        <time>2021-08-05 19:45:02</time>
      </trkpt>
      <trkpt lat="37.05091" lon="-3.36849">
        <ele>3141.8</ele>
        <time>2021-08-05 19:45:03</time>
      </trkpt>
      <trkpt lat="37.0509" lon="-3.36849">
        <ele>3141.8</ele>
        <time>2021-08-05 19:45:04</time>
      </trkpt>
      <trkpt lat="37.05089" lon="-3.3685">
        <ele>3141.8</ele>
        <time>2021-08-05 19:45:05</time>
      </trkpt>
      <trkpt lat="37.05089" lon="-3.36851">
        <ele>3141.6</ele>
        <time>2021-08-05 19:45:06</time>
      </trkpt>
      <trkpt lat="37.05088" lon="-3.36851">
        <ele>3141.6</ele>
        <time>2021-08-05 19:45:07</time>
      </trkpt>
      <trkpt lat="37.05087" lon="-3.36852">
        <ele>3141.6</ele>
        <time>2021-08-05 19:45:08</time>
      </trkpt>
      <trkpt lat="37.05086" lon="-3.36852">
        <ele>3141.4</ele>
        <time>2021-08-05 19:45:09</time>
      </trkpt>
      <trkpt lat="37.05085" lon="-3.36853">
        <ele>3141.2</ele>
        <time>2021-08-05 19:45:10</time>
      </trkpt>
      <trkpt lat="37.05085" lon="-3.36854">
        <ele>3141.2</ele>
        <time>2021-08-05 19:45:11</time>
      </trkpt>
      <trkpt lat="37.05084" lon="-3.36855">
        <ele>3141</ele>
        <time>2021-08-05 19:45:12</time>
      </trkpt>
      <trkpt lat="37.05083" lon="-3.36855">
        <ele>3140.8</ele>
        <time>2021-08-05 19:45:13</time>
      </trkpt>
      <trkpt lat="37.05082" lon="-3.36856">
        <ele>3140.8</ele>
        <time>2021-08-05 19:45:14</time>
      </trkpt>
      <trkpt lat="37.05082" lon="-3.36857">
        <ele>3140.6</ele>
        <time>2021-08-05 19:45:15</time>
      </trkpt>
      <trkpt lat="37.05082" lon="-3.36858">
        <ele>3140.6</ele>
        <time>2021-08-05 19:45:16</time>
      </trkpt>
      <trkpt lat="37.05082" lon="-3.3686">
        <ele>3140.6</ele>
        <time>2021-08-05 19:45:17</time>
      </trkpt>
      <trkpt lat="37.05082" lon="-3.36861">
        <ele>3140.4</ele>
        <time>2021-08-05 19:45:18</time>
      </trkpt>
      <trkpt lat="37.05081" lon="-3.36862">
        <ele>3140.2</ele>
        <time>2021-08-05 19:45:19</time>
      </trkpt>
      <trkpt lat="37.05081" lon="-3.36864">
        <ele>3140.2</ele>
        <time>2021-08-05 19:45:20</time>
      </trkpt>
      <trkpt lat="37.05081" lon="-3.36865">
        <ele>3140</ele>
        <time>2021-08-05 19:45:21</time>
      </trkpt>
      <trkpt lat="37.0508" lon="-3.36866">
        <ele>3140</ele>
        <time>2021-08-05 19:45:22</time>
      </trkpt>
      <trkpt lat="37.0508" lon="-3.36867">
        <ele>3140</ele>
        <time>2021-08-05 19:45:23</time>
      </trkpt>
      <trkpt lat="37.05079" lon="-3.36868">
        <ele>3139.8</ele>
        <time>2021-08-05 19:45:24</time>
      </trkpt>
      <trkpt lat="37.05078" lon="-3.36868">
        <ele>3139.8</ele>
        <time>2021-08-05 19:45:25</time>
      </trkpt>
      <trkpt lat="37.05077" lon="-3.36868">
        <ele>3139.6</ele>
        <time>2021-08-05 19:45:26</time>
      </trkpt>
      <trkpt lat="37.05076" lon="-3.36868">
        <ele>3139.6</ele>
        <time>2021-08-05 19:45:27</time>
      </trkpt>
      <trkpt lat="37.05075" lon="-3.36869">
        <ele>3139.6</ele>
        <time>2021-08-05 19:45:28</time>
      </trkpt>
      <trkpt lat="37.05075" lon="-3.3687">
        <ele>3139.6</ele>
        <time>2021-08-05 19:45:29</time>
      </trkpt>
      <trkpt lat="37.05074" lon="-3.3687">
        <ele>3139.6</ele>
        <time>2021-08-05 19:45:30</time>
      </trkpt>
      <trkpt lat="37.05073" lon="-3.36871">
        <ele>3139.6</ele>
        <time>2021-08-05 19:45:31</time>
      </trkpt>
      <trkpt lat="37.05072" lon="-3.36871">
        <ele>3139.2</ele>
        <time>2021-08-05 19:45:32</time>
      </trkpt>
      <trkpt lat="37.05071" lon="-3.36871">
        <ele>3139.2</ele>
        <time>2021-08-05 19:45:33</time>
      </trkpt>
      <trkpt lat="37.0507" lon="-3.3687">
        <ele>3139</ele>
        <time>2021-08-05 19:45:34</time>
      </trkpt>
      <trkpt lat="37.05069" lon="-3.36871">
        <ele>3139</ele>
        <time>2021-08-05 19:45:35</time>
      </trkpt>
      <trkpt lat="37.05069" lon="-3.36871">
        <ele>3139</ele>
        <time>2021-08-05 19:45:36</time>
      </trkpt>
      <trkpt lat="37.05068" lon="-3.36872">
        <ele>3138.6</ele>
        <time>2021-08-05 19:45:37</time>
      </trkpt>
      <trkpt lat="37.05068" lon="-3.36873">
        <ele>3138.4</ele>
        <time>2021-08-05 19:45:38</time>
      </trkpt>
      <trkpt lat="37.05068" lon="-3.36874">
        <ele>3138.2</ele>
        <time>2021-08-05 19:45:39</time>
      </trkpt>
      <trkpt lat="37.05068" lon="-3.36875">
        <ele>3138.2</ele>
        <time>2021-08-05 19:45:40</time>
      </trkpt>
      <trkpt lat="37.05067" lon="-3.36876">
        <ele>3138</ele>
        <time>2021-08-05 19:45:41</time>
      </trkpt>
      <trkpt lat="37.05067" lon="-3.36877">
        <ele>3137.8</ele>
        <time>2021-08-05 19:45:42</time>
      </trkpt>
      <trkpt lat="37.05067" lon="-3.36878">
        <ele>3137.8</ele>
        <time>2021-08-05 19:45:43</time>
      </trkpt>
      <trkpt lat="37.05066" lon="-3.36878">
        <ele>3137.6</ele>
        <time>2021-08-05 19:45:44</time>
      </trkpt>
      <trkpt lat="37.05066" lon="-3.36879">
        <ele>3137.4</ele>
        <time>2021-08-05 19:45:45</time>
      </trkpt>
      <trkpt lat="37.05067" lon="-3.36879">
        <ele>3137.4</ele>
        <time>2021-08-05 19:45:46</time>
      </trkpt>
      <trkpt lat="37.05067" lon="-3.36879">
        <ele>3137.4</ele>
        <time>2021-08-05 19:45:47</time>
      </trkpt>
      <trkpt lat="37.05067" lon="-3.36879">
        <ele>3137.4</ele>
        <time>2021-08-05 19:45:48</time>
      </trkpt>
      <trkpt lat="37.05067" lon="-3.36879">
        <ele>3137.4</ele>
        <time>2021-08-05 19:45:49</time>
      </trkpt>
      <trkpt lat="37.05067" lon="-3.36879">
        <ele>3137.4</ele>
        <time>2021-08-05 19:45:50</time>
      </trkpt>
      <trkpt lat="37.05067" lon="-3.36879">
        <ele>3137.4</ele>
        <time>2021-08-05 19:45:51</time>
      </trkpt>
      <trkpt lat="37.05067" lon="-3.3688">
        <ele>3137.4</ele>
        <time>2021-08-05 19:45:52</time>
      </trkpt>
      <trkpt lat="37.05067" lon="-3.36881">
        <ele>3137.4</ele>
        <time>2021-08-05 19:45:53</time>
      </trkpt>
      <trkpt lat="37.05067" lon="-3.36882">
        <ele>3137.4</ele>
        <time>2021-08-05 19:45:54</time>
      </trkpt>
      <trkpt lat="37.05066" lon="-3.36882">
        <ele>3137.4</ele>
        <time>2021-08-05 19:45:55</time>
      </trkpt>
      <trkpt lat="37.05065" lon="-3.36882">
        <ele>3137.4</ele>
        <time>2021-08-05 19:45:56</time>
      </trkpt>
      <trkpt lat="37.05065" lon="-3.36883">
        <ele>3137.4</ele>
        <time>2021-08-05 19:45:57</time>
      </trkpt>
      <trkpt lat="37.05065" lon="-3.36883">
        <ele>3137.4</ele>
        <time>2021-08-05 19:45:58</time>
      </trkpt>
      <trkpt lat="37.05065" lon="-3.36883">
        <ele>3137.2</ele>
        <time>2021-08-05 19:45:59</time>
      </trkpt>
      <trkpt lat="37.05065" lon="-3.36884">
        <ele>3137</ele>
        <time>2021-08-05 19:46:00</time>
      </trkpt>
      <trkpt lat="37.05065" lon="-3.36883">
        <ele>3137</ele>
        <time>2021-08-05 19:46:01</time>
      </trkpt>
      <trkpt lat="37.05064" lon="-3.36884">
        <ele>3137</ele>
        <time>2021-08-05 19:46:02</time>
      </trkpt>
      <trkpt lat="37.05064" lon="-3.36884">
        <ele>3137</ele>
        <time>2021-08-05 19:46:03</time>
      </trkpt>
      <trkpt lat="37.05063" lon="-3.36885">
        <ele>3136.8</ele>
        <time>2021-08-05 19:46:04</time>
      </trkpt>
      <trkpt lat="37.05063" lon="-3.36885">
        <ele>3136.6</ele>
        <time>2021-08-05 19:46:05</time>
      </trkpt>
      <trkpt lat="37.05063" lon="-3.36886">
        <ele>3136.6</ele>
        <time>2021-08-05 19:46:06</time>
      </trkpt>
      <trkpt lat="37.05063" lon="-3.36886">
        <ele>3136.4</ele>
        <time>2021-08-05 19:46:07</time>
      </trkpt>
      <trkpt lat="37.05063" lon="-3.36886">
        <ele>3136.2</ele>
        <time>2021-08-05 19:46:08</time>
      </trkpt>
      <trkpt lat="37.05063" lon="-3.36886">
        <ele>3136.2</ele>
        <time>2021-08-05 19:46:09</time>
      </trkpt>
      <trkpt lat="37.05063" lon="-3.36885">
        <ele>3136</ele>
        <time>2021-08-05 19:46:10</time>
      </trkpt>
      <trkpt lat="37.05063" lon="-3.36886">
        <ele>3136</ele>
        <time>2021-08-05 19:46:11</time>
      </trkpt>
      <trkpt lat="37.05063" lon="-3.36886">
        <ele>3136.2</ele>
        <time>2021-08-05 19:46:12</time>
      </trkpt>
      <trkpt lat="37.05062" lon="-3.36885">
        <ele>3136</ele>
        <time>2021-08-05 19:46:13</time>
      </trkpt>
      <trkpt lat="37.05062" lon="-3.36885">
        <ele>3136.2</ele>
        <time>2021-08-05 19:46:14</time>
      </trkpt>
      <trkpt lat="37.05061" lon="-3.36885">
        <ele>3136.2</ele>
        <time>2021-08-05 19:46:15</time>
      </trkpt>
      <trkpt lat="37.05061" lon="-3.36886">
        <ele>3136.4</ele>
        <time>2021-08-05 19:46:16</time>
      </trkpt>
      <trkpt lat="37.0506" lon="-3.36886">
        <ele>3136.4</ele>
        <time>2021-08-05 19:46:17</time>
      </trkpt>
      <trkpt lat="37.05059" lon="-3.36887">
        <ele>3136.2</ele>
        <time>2021-08-05 19:46:18</time>
      </trkpt>
      <trkpt lat="37.05059" lon="-3.36888">
        <ele>3136</ele>
        <time>2021-08-05 19:46:19</time>
      </trkpt>
      <trkpt lat="37.05058" lon="-3.36889">
        <ele>3136</ele>
        <time>2021-08-05 19:46:20</time>
      </trkpt>
      <trkpt lat="37.05058" lon="-3.3689">
        <ele>3135.8</ele>
        <time>2021-08-05 19:46:21</time>
      </trkpt>
      <trkpt lat="37.05058" lon="-3.36891">
        <ele>3135.6</ele>
        <time>2021-08-05 19:46:22</time>
      </trkpt>
      <trkpt lat="37.05057" lon="-3.36891">
        <ele>3135.6</ele>
        <time>2021-08-05 19:46:23</time>
      </trkpt>
      <trkpt lat="37.05057" lon="-3.36892">
        <ele>3135.4</ele>
        <time>2021-08-05 19:46:24</time>
      </trkpt>
      <trkpt lat="37.05056" lon="-3.36893">
        <ele>3135.2</ele>
        <time>2021-08-05 19:46:25</time>
      </trkpt>
      <trkpt lat="37.05056" lon="-3.36895">
        <ele>3135.2</ele>
        <time>2021-08-05 19:46:26</time>
      </trkpt>
      <trkpt lat="37.05056" lon="-3.36896">
        <ele>3135.2</ele>
        <time>2021-08-05 19:46:27</time>
      </trkpt>
      <trkpt lat="37.05055" lon="-3.36896">
        <ele>3135</ele>
        <time>2021-08-05 19:46:28</time>
      </trkpt>
      <trkpt lat="37.05055" lon="-3.36896">
        <ele>3135</ele>
        <time>2021-08-05 19:46:29</time>
      </trkpt>
      <trkpt lat="37.05054" lon="-3.36897">
        <ele>3134.8</ele>
        <time>2021-08-05 19:46:30</time>
      </trkpt>
      <trkpt lat="37.05054" lon="-3.36897">
        <ele>3134.6</ele>
        <time>2021-08-05 19:46:31</time>
      </trkpt>
      <trkpt lat="37.05054" lon="-3.36896">
        <ele>3134.8</ele>
        <time>2021-08-05 19:46:32</time>
      </trkpt>
      <trkpt lat="37.05053" lon="-3.36896">
        <ele>3134.6</ele>
        <time>2021-08-05 19:46:33</time>
      </trkpt>
      <trkpt lat="37.05052" lon="-3.36896">
        <ele>3134.4</ele>
        <time>2021-08-05 19:46:34</time>
      </trkpt>
      <trkpt lat="37.05052" lon="-3.36897">
        <ele>3134.4</ele>
        <time>2021-08-05 19:46:35</time>
      </trkpt>
      <trkpt lat="37.05052" lon="-3.36897">
        <ele>3134.4</ele>
        <time>2021-08-05 19:46:36</time>
      </trkpt>
      <trkpt lat="37.05052" lon="-3.36898">
        <ele>3134.2</ele>
        <time>2021-08-05 19:46:37</time>
      </trkpt>
      <trkpt lat="37.05051" lon="-3.369">
        <ele>3134.2</ele>
        <time>2021-08-05 19:46:38</time>
      </trkpt>
      <trkpt lat="37.05051" lon="-3.36901">
        <ele>3134.2</ele>
        <time>2021-08-05 19:46:39</time>
      </trkpt>
      <trkpt lat="37.0505" lon="-3.36902">
        <ele>3134.2</ele>
        <time>2021-08-05 19:46:40</time>
      </trkpt>
      <trkpt lat="37.0505" lon="-3.36902">
        <ele>3134.2</ele>
        <time>2021-08-05 19:46:41</time>
      </trkpt>
      <trkpt lat="37.05049" lon="-3.36904">
        <ele>3134.2</ele>
        <time>2021-08-05 19:46:42</time>
      </trkpt>
      <trkpt lat="37.05049" lon="-3.36906">
        <ele>3134.2</ele>
        <time>2021-08-05 19:46:43</time>
      </trkpt>
      <trkpt lat="37.05049" lon="-3.36907">
        <ele>3134.2</ele>
        <time>2021-08-05 19:46:44</time>
      </trkpt>
      <trkpt lat="37.05048" lon="-3.36909">
        <ele>3134.2</ele>
        <time>2021-08-05 19:46:45</time>
      </trkpt>
      <trkpt lat="37.05048" lon="-3.3691">
        <ele>3134.2</ele>
        <time>2021-08-05 19:46:46</time>
      </trkpt>
      <trkpt lat="37.05048" lon="-3.36911">
        <ele>3134</ele>
        <time>2021-08-05 19:46:47</time>
      </trkpt>
      <trkpt lat="37.05047" lon="-3.36913">
        <ele>3133.8</ele>
        <time>2021-08-05 19:46:48</time>
      </trkpt>
      <trkpt lat="37.05046" lon="-3.36913">
        <ele>3133.8</ele>
        <time>2021-08-05 19:46:49</time>
      </trkpt>
      <trkpt lat="37.05046" lon="-3.36914">
        <ele>3133.6</ele>
        <time>2021-08-05 19:46:50</time>
      </trkpt>
      <trkpt lat="37.05045" lon="-3.36915">
        <ele>3133.4</ele>
        <time>2021-08-05 19:46:51</time>
      </trkpt>
      <trkpt lat="37.05044" lon="-3.36916">
        <ele>3133.2</ele>
        <time>2021-08-05 19:46:52</time>
      </trkpt>
      <trkpt lat="37.05043" lon="-3.36916">
        <ele>3133.2</ele>
        <time>2021-08-05 19:46:53</time>
      </trkpt>
      <trkpt lat="37.05042" lon="-3.36917">
        <ele>3133</ele>
        <time>2021-08-05 19:46:54</time>
      </trkpt>
      <trkpt lat="37.05041" lon="-3.36917">
        <ele>3132.6</ele>
        <time>2021-08-05 19:46:55</time>
      </trkpt>
      <trkpt lat="37.05041" lon="-3.36918">
        <ele>3132.4</ele>
        <time>2021-08-05 19:46:56</time>
      </trkpt>
      <trkpt lat="37.0504" lon="-3.36917">
        <ele>3132.4</ele>
        <time>2021-08-05 19:46:57</time>
      </trkpt>
      <trkpt lat="37.05039" lon="-3.36918">
        <ele>3132.4</ele>
        <time>2021-08-05 19:46:58</time>
      </trkpt>
      <trkpt lat="37.05037" lon="-3.36917">
        <ele>3132.2</ele>
        <time>2021-08-05 19:46:59</time>
      </trkpt>
      <trkpt lat="37.05036" lon="-3.36917">
        <ele>3132.2</ele>
        <time>2021-08-05 19:47:00</time>
      </trkpt>
      <trkpt lat="37.05035" lon="-3.36918">
        <ele>3132.2</ele>
        <time>2021-08-05 19:47:01</time>
      </trkpt>
      <trkpt lat="37.05035" lon="-3.36918">
        <ele>3132</ele>
        <time>2021-08-05 19:47:02</time>
      </trkpt>
      <trkpt lat="37.05034" lon="-3.36918">
        <ele>3132</ele>
        <time>2021-08-05 19:47:03</time>
      </trkpt>
      <trkpt lat="37.05034" lon="-3.36919">
        <ele>3131.8</ele>
        <time>2021-08-05 19:47:04</time>
      </trkpt>
      <trkpt lat="37.05034" lon="-3.3692">
        <ele>3131.8</ele>
        <time>2021-08-05 19:47:05</time>
      </trkpt>
      <trkpt lat="37.05033" lon="-3.36922">
        <ele>3131.8</ele>
        <time>2021-08-05 19:47:06</time>
      </trkpt>
      <trkpt lat="37.05033" lon="-3.36923">
        <ele>3131.8</ele>
        <time>2021-08-05 19:47:07</time>
      </trkpt>
      <trkpt lat="37.05032" lon="-3.36924">
        <ele>3131.8</ele>
        <time>2021-08-05 19:47:08</time>
      </trkpt>
      <trkpt lat="37.05032" lon="-3.36924">
        <ele>3131.8</ele>
        <time>2021-08-05 19:47:09</time>
      </trkpt>
      <trkpt lat="37.05031" lon="-3.36925">
        <ele>3131.6</ele>
        <time>2021-08-05 19:47:10</time>
      </trkpt>
      <trkpt lat="37.0503" lon="-3.36925">
        <ele>3131.6</ele>
        <time>2021-08-05 19:47:11</time>
      </trkpt>
      <trkpt lat="37.0503" lon="-3.36926">
        <ele>3131.6</ele>
        <time>2021-08-05 19:47:12</time>
      </trkpt>
      <trkpt lat="37.05029" lon="-3.36926">
        <ele>3131.6</ele>
        <time>2021-08-05 19:47:13</time>
      </trkpt>
      <trkpt lat="37.05028" lon="-3.36926">
        <ele>3131.4</ele>
        <time>2021-08-05 19:47:14</time>
      </trkpt>
      <trkpt lat="37.05027" lon="-3.36926">
        <ele>3131.2</ele>
        <time>2021-08-05 19:47:15</time>
      </trkpt>
      <trkpt lat="37.05026" lon="-3.36927">
        <ele>3131</ele>
        <time>2021-08-05 19:47:16</time>
      </trkpt>
      <trkpt lat="37.05025" lon="-3.36927">
        <ele>3131</ele>
        <time>2021-08-05 19:47:17</time>
      </trkpt>
      <trkpt lat="37.05024" lon="-3.36927">
        <ele>3131</ele>
        <time>2021-08-05 19:47:18</time>
      </trkpt>
      <trkpt lat="37.05023" lon="-3.36927">
        <ele>3131</ele>
        <time>2021-08-05 19:47:19</time>
      </trkpt>
      <trkpt lat="37.05022" lon="-3.36928">
        <ele>3130.8</ele>
        <time>2021-08-05 19:47:20</time>
      </trkpt>
      <trkpt lat="37.05022" lon="-3.36929">
        <ele>3130.6</ele>
        <time>2021-08-05 19:47:21</time>
      </trkpt>
      <trkpt lat="37.05021" lon="-3.3693">
        <ele>3130.6</ele>
        <time>2021-08-05 19:47:22</time>
      </trkpt>
      <trkpt lat="37.0502" lon="-3.3693">
        <ele>3130.4</ele>
        <time>2021-08-05 19:47:23</time>
      </trkpt>
      <trkpt lat="37.0502" lon="-3.36931">
        <ele>3130.4</ele>
        <time>2021-08-05 19:47:24</time>
      </trkpt>
      <trkpt lat="37.05019" lon="-3.36932">
        <ele>3130.2</ele>
        <time>2021-08-05 19:47:25</time>
      </trkpt>
      <trkpt lat="37.05019" lon="-3.36933">
        <ele>3130.2</ele>
        <time>2021-08-05 19:47:26</time>
      </trkpt>
      <trkpt lat="37.05018" lon="-3.36934">
        <ele>3130.2</ele>
        <time>2021-08-05 19:47:27</time>
      </trkpt>
      <trkpt lat="37.05017" lon="-3.36935">
        <ele>3130.2</ele>
        <time>2021-08-05 19:47:28</time>
      </trkpt>
      <trkpt lat="37.05017" lon="-3.36936">
        <ele>3130</ele>
        <time>2021-08-05 19:47:29</time>
      </trkpt>
      <trkpt lat="37.05016" lon="-3.36936">
        <ele>3129.8</ele>
        <time>2021-08-05 19:47:30</time>
      </trkpt>
      <trkpt lat="37.05015" lon="-3.36937">
        <ele>3129.6</ele>
        <time>2021-08-05 19:47:31</time>
      </trkpt>
      <trkpt lat="37.05014" lon="-3.36937">
        <ele>3129.6</ele>
        <time>2021-08-05 19:47:32</time>
      </trkpt>
      <trkpt lat="37.05013" lon="-3.36938">
        <ele>3129.2</ele>
        <time>2021-08-05 19:47:33</time>
      </trkpt>
      <trkpt lat="37.05013" lon="-3.36939">
        <ele>3129</ele>
        <time>2021-08-05 19:47:34</time>
      </trkpt>
      <trkpt lat="37.05012" lon="-3.3694">
        <ele>3129</ele>
        <time>2021-08-05 19:47:35</time>
      </trkpt>
      <trkpt lat="37.05011" lon="-3.36941">
        <ele>3129</ele>
        <time>2021-08-05 19:47:36</time>
      </trkpt>
      <trkpt lat="37.0501" lon="-3.36941">
        <ele>3129</ele>
        <time>2021-08-05 19:47:37</time>
      </trkpt>
      <trkpt lat="37.0501" lon="-3.36943">
        <ele>3129</ele>
        <time>2021-08-05 19:47:38</time>
      </trkpt>
      <trkpt lat="37.0501" lon="-3.36944">
        <ele>3129</ele>
        <time>2021-08-05 19:47:39</time>
      </trkpt>
      <trkpt lat="37.05009" lon="-3.36945">
        <ele>3129</ele>
        <time>2021-08-05 19:47:40</time>
      </trkpt>
      <trkpt lat="37.0501" lon="-3.36948">
        <ele>3129</ele>
        <time>2021-08-05 19:47:41</time>
      </trkpt>
      <trkpt lat="37.05009" lon="-3.3695">
        <ele>3128.8</ele>
        <time>2021-08-05 19:47:42</time>
      </trkpt>
      <trkpt lat="37.05008" lon="-3.36951">
        <ele>3128.2</ele>
        <time>2021-08-05 19:47:43</time>
      </trkpt>
      <trkpt lat="37.05008" lon="-3.36952">
        <ele>3128</ele>
        <time>2021-08-05 19:47:44</time>
      </trkpt>
      <trkpt lat="37.05007" lon="-3.36953">
        <ele>3128</ele>
        <time>2021-08-05 19:47:45</time>
      </trkpt>
      <trkpt lat="37.05007" lon="-3.36954">
        <ele>3128</ele>
        <time>2021-08-05 19:47:46</time>
      </trkpt>
      <trkpt lat="37.05006" lon="-3.36955">
        <ele>3128.2</ele>
        <time>2021-08-05 19:47:47</time>
      </trkpt>
      <trkpt lat="37.05006" lon="-3.36956">
        <ele>3128.4</ele>
        <time>2021-08-05 19:47:48</time>
      </trkpt>
      <trkpt lat="37.05005" lon="-3.36956">
        <ele>3128.4</ele>
        <time>2021-08-05 19:47:49</time>
      </trkpt>
      <trkpt lat="37.05004" lon="-3.36957">
        <ele>3128.4</ele>
        <time>2021-08-05 19:47:50</time>
      </trkpt>
      <trkpt lat="37.05003" lon="-3.36957">
        <ele>3128.4</ele>
        <time>2021-08-05 19:47:51</time>
      </trkpt>
      <trkpt lat="37.05002" lon="-3.36958">
        <ele>3128.4</ele>
        <time>2021-08-05 19:47:52</time>
      </trkpt>
      <trkpt lat="37.05002" lon="-3.36958">
        <ele>3128.4</ele>
        <time>2021-08-05 19:47:53</time>
      </trkpt>
      <trkpt lat="37.05001" lon="-3.36958">
        <ele>3128.2</ele>
        <time>2021-08-05 19:47:54</time>
      </trkpt>
      <trkpt lat="37.05001" lon="-3.36959">
        <ele>3127.8</ele>
        <time>2021-08-05 19:47:55</time>
      </trkpt>
      <trkpt lat="37.05" lon="-3.36959">
        <ele>3127.6</ele>
        <time>2021-08-05 19:47:56</time>
      </trkpt>
      <trkpt lat="37.05" lon="-3.36959">
        <ele>3127.2</ele>
        <time>2021-08-05 19:47:57</time>
      </trkpt>
      <trkpt lat="37.04999" lon="-3.3696">
        <ele>3127.2</ele>
        <time>2021-08-05 19:47:58</time>
      </trkpt>
      <trkpt lat="37.04998" lon="-3.3696">
        <ele>3127</ele>
        <time>2021-08-05 19:47:59</time>
      </trkpt>
      <trkpt lat="37.04998" lon="-3.36961">
        <ele>3126.8</ele>
        <time>2021-08-05 19:48:00</time>
      </trkpt>
      <trkpt lat="37.04997" lon="-3.36961">
        <ele>3126.8</ele>
        <time>2021-08-05 19:48:01</time>
      </trkpt>
      <trkpt lat="37.04996" lon="-3.36961">
        <ele>3126.6</ele>
        <time>2021-08-05 19:48:02</time>
      </trkpt>
      <trkpt lat="37.04996" lon="-3.36961">
        <ele>3126.6</ele>
        <time>2021-08-05 19:48:03</time>
      </trkpt>
      <trkpt lat="37.04995" lon="-3.36961">
        <ele>3126.6</ele>
        <time>2021-08-05 19:48:04</time>
      </trkpt>
      <trkpt lat="37.04995" lon="-3.3696">
        <ele>3126.6</ele>
        <time>2021-08-05 19:48:05</time>
      </trkpt>
      <trkpt lat="37.04995" lon="-3.3696">
        <ele>3127</ele>
        <time>2021-08-05 19:48:06</time>
      </trkpt>
      <trkpt lat="37.04995" lon="-3.36959">
        <ele>3127.2</ele>
        <time>2021-08-05 19:48:07</time>
      </trkpt>
      <trkpt lat="37.04995" lon="-3.36958">
        <ele>3127.2</ele>
        <time>2021-08-05 19:48:08</time>
      </trkpt>
      <trkpt lat="37.04995" lon="-3.36958">
        <ele>3127.4</ele>
        <time>2021-08-05 19:48:09</time>
      </trkpt>
      <trkpt lat="37.04995" lon="-3.36958">
        <ele>3127.4</ele>
        <time>2021-08-05 19:48:10</time>
      </trkpt>
      <trkpt lat="37.04995" lon="-3.36958">
        <ele>3127.4</ele>
        <time>2021-08-05 19:48:11</time>
      </trkpt>
      <trkpt lat="37.04995" lon="-3.36957">
        <ele>3127.4</ele>
        <time>2021-08-05 19:48:12</time>
      </trkpt>
      <trkpt lat="37.04994" lon="-3.36958">
        <ele>3127.4</ele>
        <time>2021-08-05 19:48:13</time>
      </trkpt>
      <trkpt lat="37.04994" lon="-3.36957">
        <ele>3127.2</ele>
        <time>2021-08-05 19:48:14</time>
      </trkpt>
      <trkpt lat="37.04994" lon="-3.36957">
        <ele>3127.2</ele>
        <time>2021-08-05 19:48:15</time>
      </trkpt>
      <trkpt lat="37.04994" lon="-3.36958">
        <ele>3127.2</ele>
        <time>2021-08-05 19:48:16</time>
      </trkpt>
      <trkpt lat="37.04994" lon="-3.36958">
        <ele>3127.4</ele>
        <time>2021-08-05 19:48:17</time>
      </trkpt>
      <trkpt lat="37.04994" lon="-3.36958">
        <ele>3127.2</ele>
        <time>2021-08-05 19:48:18</time>
      </trkpt>
      <trkpt lat="37.04995" lon="-3.36961">
        <ele>3127.2</ele>
        <time>2021-08-05 19:48:19</time>
      </trkpt>
      <trkpt lat="37.04994" lon="-3.36961">
        <ele>3127.2</ele>
        <time>2021-08-05 19:48:20</time>
      </trkpt>
      <trkpt lat="37.04993" lon="-3.36962">
        <ele>3127.2</ele>
        <time>2021-08-05 19:48:21</time>
      </trkpt>
      <trkpt lat="37.04993" lon="-3.36963">
        <ele>3127.2</ele>
        <time>2021-08-05 19:48:22</time>
      </trkpt>
      <trkpt lat="37.04992" lon="-3.36964">
        <ele>3127</ele>
        <time>2021-08-05 19:48:23</time>
      </trkpt>
      <trkpt lat="37.04991" lon="-3.36965">
        <ele>3126.8</ele>
        <time>2021-08-05 19:48:24</time>
      </trkpt>
      <trkpt lat="37.04991" lon="-3.36965">
        <ele>3126.6</ele>
        <time>2021-08-05 19:48:25</time>
      </trkpt>
      <trkpt lat="37.0499" lon="-3.36965">
        <ele>3126.6</ele>
        <time>2021-08-05 19:48:26</time>
      </trkpt>
      <trkpt lat="37.0499" lon="-3.36965">
        <ele>3126.4</ele>
        <time>2021-08-05 19:48:27</time>
      </trkpt>
      <trkpt lat="37.04989" lon="-3.36966">
        <ele>3126.4</ele>
        <time>2021-08-05 19:48:28</time>
      </trkpt>
      <trkpt lat="37.04988" lon="-3.36966">
        <ele>3126.4</ele>
        <time>2021-08-05 19:48:29</time>
      </trkpt>
      <trkpt lat="37.04987" lon="-3.36966">
        <ele>3126.2</ele>
        <time>2021-08-05 19:48:30</time>
      </trkpt>
      <trkpt lat="37.04986" lon="-3.36967">
        <ele>3126</ele>
        <time>2021-08-05 19:48:31</time>
      </trkpt>
      <trkpt lat="37.04984" lon="-3.36967">
        <ele>3125.8</ele>
        <time>2021-08-05 19:48:32</time>
      </trkpt>
      <trkpt lat="37.04983" lon="-3.36968">
        <ele>3125.6</ele>
        <time>2021-08-05 19:48:33</time>
      </trkpt>
      <trkpt lat="37.04982" lon="-3.36968">
        <ele>3125.6</ele>
        <time>2021-08-05 19:48:34</time>
      </trkpt>
      <trkpt lat="37.04981" lon="-3.36968">
        <ele>3125.6</ele>
        <time>2021-08-05 19:48:35</time>
      </trkpt>
      <trkpt lat="37.0498" lon="-3.36969">
        <ele>3125.4</ele>
        <time>2021-08-05 19:48:36</time>
      </trkpt>
      <trkpt lat="37.04979" lon="-3.36969">
        <ele>3125.4</ele>
        <time>2021-08-05 19:48:37</time>
      </trkpt>
      <trkpt lat="37.04977" lon="-3.36968">
        <ele>3125.4</ele>
        <time>2021-08-05 19:48:38</time>
      </trkpt>
      <trkpt lat="37.04977" lon="-3.36968">
        <ele>3125.4</ele>
        <time>2021-08-05 19:48:39</time>
      </trkpt>
      <trkpt lat="37.04976" lon="-3.36968">
        <ele>3125.2</ele>
        <time>2021-08-05 19:48:40</time>
      </trkpt>
      <trkpt lat="37.04976" lon="-3.36967">
        <ele>3125</ele>
        <time>2021-08-05 19:48:41</time>
      </trkpt>
      <trkpt lat="37.04976" lon="-3.36967">
        <ele>3124.8</ele>
        <time>2021-08-05 19:48:42</time>
      </trkpt>
      <trkpt lat="37.04976" lon="-3.36968">
        <ele>3124.6</ele>
        <time>2021-08-05 19:48:43</time>
      </trkpt>
      <trkpt lat="37.04976" lon="-3.36969">
        <ele>3124.6</ele>
        <time>2021-08-05 19:48:44</time>
      </trkpt>
      <trkpt lat="37.04976" lon="-3.36969">
        <ele>3124.6</ele>
        <time>2021-08-05 19:48:45</time>
      </trkpt>
      <trkpt lat="37.04975" lon="-3.36971">
        <ele>3124.6</ele>
        <time>2021-08-05 19:48:46</time>
      </trkpt>
      <trkpt lat="37.04975" lon="-3.36972">
        <ele>3124.6</ele>
        <time>2021-08-05 19:48:47</time>
      </trkpt>
      <trkpt lat="37.04975" lon="-3.36972">
        <ele>3124.6</ele>
        <time>2021-08-05 19:48:48</time>
      </trkpt>
      <trkpt lat="37.04974" lon="-3.36972">
        <ele>3124.6</ele>
        <time>2021-08-05 19:48:49</time>
      </trkpt>
      <trkpt lat="37.04973" lon="-3.36972">
        <ele>3124.6</ele>
        <time>2021-08-05 19:48:50</time>
      </trkpt>
      <trkpt lat="37.04973" lon="-3.36972">
        <ele>3124.6</ele>
        <time>2021-08-05 19:48:51</time>
      </trkpt>
      <trkpt lat="37.04972" lon="-3.36972">
        <ele>3124.6</ele>
        <time>2021-08-05 19:48:52</time>
      </trkpt>
      <trkpt lat="37.04972" lon="-3.36973">
        <ele>3124.6</ele>
        <time>2021-08-05 19:48:53</time>
      </trkpt>
      <trkpt lat="37.04971" lon="-3.36972">
        <ele>3124.6</ele>
        <time>2021-08-05 19:48:54</time>
      </trkpt>
      <trkpt lat="37.0497" lon="-3.36972">
        <ele>3124.6</ele>
        <time>2021-08-05 19:48:55</time>
      </trkpt>
      <trkpt lat="37.0497" lon="-3.36972">
        <ele>3124.6</ele>
        <time>2021-08-05 19:48:56</time>
      </trkpt>
      <trkpt lat="37.0497" lon="-3.36972">
        <ele>3124.6</ele>
        <time>2021-08-05 19:48:57</time>
      </trkpt>
      <trkpt lat="37.04969" lon="-3.36972">
        <ele>3124.6</ele>
        <time>2021-08-05 19:48:58</time>
      </trkpt>
      <trkpt lat="37.04969" lon="-3.36972">
        <ele>3124.4</ele>
        <time>2021-08-05 19:48:59</time>
      </trkpt>
      <trkpt lat="37.04969" lon="-3.36973">
        <ele>3124.4</ele>
        <time>2021-08-05 19:49:00</time>
      </trkpt>
      <trkpt lat="37.04968" lon="-3.36973">
        <ele>3124.4</ele>
        <time>2021-08-05 19:49:01</time>
      </trkpt>
      <trkpt lat="37.04967" lon="-3.36973">
        <ele>3124.2</ele>
        <time>2021-08-05 19:49:02</time>
      </trkpt>
      <trkpt lat="37.04967" lon="-3.36974">
        <ele>3124.2</ele>
        <time>2021-08-05 19:49:03</time>
      </trkpt>
      <trkpt lat="37.04967" lon="-3.36974">
        <ele>3124</ele>
        <time>2021-08-05 19:49:04</time>
      </trkpt>
      <trkpt lat="37.04967" lon="-3.36977">
        <ele>3123.8</ele>
        <time>2021-08-05 19:49:05</time>
      </trkpt>
      <trkpt lat="37.04968" lon="-3.36979">
        <ele>3123.6</ele>
        <time>2021-08-05 19:49:06</time>
      </trkpt>
      <trkpt lat="37.04968" lon="-3.3698">
        <ele>3123.4</ele>
        <time>2021-08-05 19:49:07</time>
      </trkpt>
      <trkpt lat="37.04968" lon="-3.3698">
        <ele>3123.2</ele>
        <time>2021-08-05 19:49:08</time>
      </trkpt>
      <trkpt lat="37.04968" lon="-3.3698">
        <ele>3123.2</ele>
        <time>2021-08-05 19:49:09</time>
      </trkpt>
      <trkpt lat="37.04968" lon="-3.3698">
        <ele>3123</ele>
        <time>2021-08-05 19:49:10</time>
      </trkpt>
      <trkpt lat="37.04967" lon="-3.3698">
        <ele>3123</ele>
        <time>2021-08-05 19:49:11</time>
      </trkpt>
      <trkpt lat="37.04967" lon="-3.3698">
        <ele>3123</ele>
        <time>2021-08-05 19:49:12</time>
      </trkpt>
      <trkpt lat="37.04966" lon="-3.3698">
        <ele>3122.8</ele>
        <time>2021-08-05 19:49:13</time>
      </trkpt>
      <trkpt lat="37.04966" lon="-3.36981">
        <ele>3122.8</ele>
        <time>2021-08-05 19:49:14</time>
      </trkpt>
      <trkpt lat="37.04965" lon="-3.36981">
        <ele>3122.8</ele>
        <time>2021-08-05 19:49:15</time>
      </trkpt>
      <trkpt lat="37.04964" lon="-3.36981">
        <ele>3122.8</ele>
        <time>2021-08-05 19:49:16</time>
      </trkpt>
      <trkpt lat="37.04963" lon="-3.36981">
        <ele>3122.8</ele>
        <time>2021-08-05 19:49:17</time>
      </trkpt>
      <trkpt lat="37.04962" lon="-3.36981">
        <ele>3122.8</ele>
        <time>2021-08-05 19:49:18</time>
      </trkpt>
      <trkpt lat="37.04961" lon="-3.36981">
        <ele>3122.8</ele>
        <time>2021-08-05 19:49:19</time>
      </trkpt>
      <trkpt lat="37.04959" lon="-3.36981">
        <ele>3122.8</ele>
        <time>2021-08-05 19:49:20</time>
      </trkpt>
      <trkpt lat="37.04959" lon="-3.3698">
        <ele>3122.6</ele>
        <time>2021-08-05 19:49:21</time>
      </trkpt>
      <trkpt lat="37.04958" lon="-3.3698">
        <ele>3122.6</ele>
        <time>2021-08-05 19:49:22</time>
      </trkpt>
      <trkpt lat="37.04958" lon="-3.3698">
        <ele>3122.6</ele>
        <time>2021-08-05 19:49:23</time>
      </trkpt>
      <trkpt lat="37.04957" lon="-3.3698">
        <ele>3122.6</ele>
        <time>2021-08-05 19:49:24</time>
      </trkpt>
      <trkpt lat="37.04957" lon="-3.3698">
        <ele>3122.4</ele>
        <time>2021-08-05 19:49:25</time>
      </trkpt>
      <trkpt lat="37.04956" lon="-3.36981">
        <ele>3122.4</ele>
        <time>2021-08-05 19:49:26</time>
      </trkpt>
      <trkpt lat="37.04956" lon="-3.36981">
        <ele>3122.2</ele>
        <time>2021-08-05 19:49:27</time>
      </trkpt>
      <trkpt lat="37.04956" lon="-3.36982">
        <ele>3122.2</ele>
        <time>2021-08-05 19:49:28</time>
      </trkpt>
      <trkpt lat="37.04955" lon="-3.36982">
        <ele>3122.2</ele>
        <time>2021-08-05 19:49:29</time>
      </trkpt>
      <trkpt lat="37.04955" lon="-3.36983">
        <ele>3121.8</ele>
        <time>2021-08-05 19:49:30</time>
      </trkpt>
      <trkpt lat="37.04954" lon="-3.36985">
        <ele>3121.8</ele>
        <time>2021-08-05 19:49:31</time>
      </trkpt>
      <trkpt lat="37.04953" lon="-3.36986">
        <ele>3121.8</ele>
        <time>2021-08-05 19:49:32</time>
      </trkpt>
      <trkpt lat="37.04953" lon="-3.36987">
        <ele>3121.6</ele>
        <time>2021-08-05 19:49:33</time>
      </trkpt>
      <trkpt lat="37.04953" lon="-3.36988">
        <ele>3121.6</ele>
        <time>2021-08-05 19:49:34</time>
      </trkpt>
      <trkpt lat="37.04952" lon="-3.36989">
        <ele>3121.4</ele>
        <time>2021-08-05 19:49:35</time>
      </trkpt>
      <trkpt lat="37.04952" lon="-3.3699">
        <ele>3121.2</ele>
        <time>2021-08-05 19:49:36</time>
      </trkpt>
      <trkpt lat="37.04951" lon="-3.3699">
        <ele>3121.2</ele>
        <time>2021-08-05 19:49:37</time>
      </trkpt>
      <trkpt lat="37.04951" lon="-3.3699">
        <ele>3121</ele>
        <time>2021-08-05 19:49:38</time>
      </trkpt>
      <trkpt lat="37.04951" lon="-3.36991">
        <ele>3120.8</ele>
        <time>2021-08-05 19:49:39</time>
      </trkpt>
      <trkpt lat="37.04951" lon="-3.36992">
        <ele>3120.6</ele>
        <time>2021-08-05 19:49:40</time>
      </trkpt>
      <trkpt lat="37.04951" lon="-3.36993">
        <ele>3120.6</ele>
        <time>2021-08-05 19:49:41</time>
      </trkpt>
      <trkpt lat="37.04951" lon="-3.36993">
        <ele>3120.6</ele>
        <time>2021-08-05 19:49:42</time>
      </trkpt>
      <trkpt lat="37.0495" lon="-3.36994">
        <ele>3120.4</ele>
        <time>2021-08-05 19:49:43</time>
      </trkpt>
      <trkpt lat="37.0495" lon="-3.36995">
        <ele>3120.4</ele>
        <time>2021-08-05 19:49:44</time>
      </trkpt>
      <trkpt lat="37.0495" lon="-3.36994">
        <ele>3120.2</ele>
        <time>2021-08-05 19:49:45</time>
      </trkpt>
      <trkpt lat="37.04949" lon="-3.36995">
        <ele>3120.2</ele>
        <time>2021-08-05 19:49:46</time>
      </trkpt>
      <trkpt lat="37.0495" lon="-3.36995">
        <ele>3120.2</ele>
        <time>2021-08-05 19:49:47</time>
      </trkpt>
      <trkpt lat="37.0495" lon="-3.36996">
        <ele>3120.2</ele>
        <time>2021-08-05 19:49:48</time>
      </trkpt>
      <trkpt lat="37.0495" lon="-3.36997">
        <ele>3120</ele>
        <time>2021-08-05 19:49:49</time>
      </trkpt>
      <trkpt lat="37.04949" lon="-3.36998">
        <ele>3120</ele>
        <time>2021-08-05 19:49:50</time>
      </trkpt>
      <trkpt lat="37.04948" lon="-3.36998">
        <ele>3120</ele>
        <time>2021-08-05 19:49:51</time>
      </trkpt>
      <trkpt lat="37.04947" lon="-3.36998">
        <ele>3119.8</ele>
        <time>2021-08-05 19:49:52</time>
      </trkpt>
      <trkpt lat="37.04946" lon="-3.36998">
        <ele>3119.8</ele>
        <time>2021-08-05 19:49:53</time>
      </trkpt>
      <trkpt lat="37.04946" lon="-3.36998">
        <ele>3119.6</ele>
        <time>2021-08-05 19:49:54</time>
      </trkpt>
      <trkpt lat="37.04945" lon="-3.36998">
        <ele>3119.6</ele>
        <time>2021-08-05 19:49:55</time>
      </trkpt>
      <trkpt lat="37.04944" lon="-3.36998">
        <ele>3119.4</ele>
        <time>2021-08-05 19:49:56</time>
      </trkpt>
      <trkpt lat="37.04943" lon="-3.36999">
        <ele>3119.4</ele>
        <time>2021-08-05 19:49:57</time>
      </trkpt>
      <trkpt lat="37.04941" lon="-3.37">
        <ele>3119.4</ele>
        <time>2021-08-05 19:49:58</time>
      </trkpt>
      <trkpt lat="37.04941" lon="-3.37001">
        <ele>3119.2</ele>
        <time>2021-08-05 19:49:59</time>
      </trkpt>
      <trkpt lat="37.0494" lon="-3.37001">
        <ele>3119.2</ele>
        <time>2021-08-05 19:50:00</time>
      </trkpt>
      <trkpt lat="37.04938" lon="-3.37002">
        <ele>3119</ele>
        <time>2021-08-05 19:50:01</time>
      </trkpt>
      <trkpt lat="37.04937" lon="-3.37003">
        <ele>3119</ele>
        <time>2021-08-05 19:50:02</time>
      </trkpt>
      <trkpt lat="37.04937" lon="-3.37003">
        <ele>3118.8</ele>
        <time>2021-08-05 19:50:03</time>
      </trkpt>
      <trkpt lat="37.04936" lon="-3.37003">
        <ele>3118.6</ele>
        <time>2021-08-05 19:50:04</time>
      </trkpt>
      <trkpt lat="37.04936" lon="-3.37003">
        <ele>3118.6</ele>
        <time>2021-08-05 19:50:05</time>
      </trkpt>
      <trkpt lat="37.04935" lon="-3.37004">
        <ele>3118.4</ele>
        <time>2021-08-05 19:50:06</time>
      </trkpt>
      <trkpt lat="37.04935" lon="-3.37004">
        <ele>3118.4</ele>
        <time>2021-08-05 19:50:07</time>
      </trkpt>
      <trkpt lat="37.04934" lon="-3.37005">
        <ele>3118.4</ele>
        <time>2021-08-05 19:50:08</time>
      </trkpt>
      <trkpt lat="37.04933" lon="-3.37005">
        <ele>3118.6</ele>
        <time>2021-08-05 19:50:09</time>
      </trkpt>
      <trkpt lat="37.04933" lon="-3.37006">
        <ele>3118.6</ele>
        <time>2021-08-05 19:50:10</time>
      </trkpt>
      <trkpt lat="37.04932" lon="-3.37007">
        <ele>3118.6</ele>
        <time>2021-08-05 19:50:11</time>
      </trkpt>
      <trkpt lat="37.04932" lon="-3.37007">
        <ele>3118.6</ele>
        <time>2021-08-05 19:50:12</time>
      </trkpt>
      <trkpt lat="37.04931" lon="-3.37007">
        <ele>3118.6</ele>
        <time>2021-08-05 19:50:13</time>
      </trkpt>
      <trkpt lat="37.0493" lon="-3.37008">
        <ele>3118.4</ele>
        <time>2021-08-05 19:50:14</time>
      </trkpt>
      <trkpt lat="37.04929" lon="-3.37008">
        <ele>3118.2</ele>
        <time>2021-08-05 19:50:15</time>
      </trkpt>
      <trkpt lat="37.04929" lon="-3.37009">
        <ele>3118.2</ele>
        <time>2021-08-05 19:50:16</time>
      </trkpt>
      <trkpt lat="37.04928" lon="-3.3701">
        <ele>3118</ele>
        <time>2021-08-05 19:50:17</time>
      </trkpt>
      <trkpt lat="37.04928" lon="-3.37011">
        <ele>3118</ele>
        <time>2021-08-05 19:50:18</time>
      </trkpt>
      <trkpt lat="37.04927" lon="-3.37011">
        <ele>3117.8</ele>
        <time>2021-08-05 19:50:19</time>
      </trkpt>
      <trkpt lat="37.04927" lon="-3.37011">
        <ele>3117.6</ele>
        <time>2021-08-05 19:50:20</time>
      </trkpt>
      <trkpt lat="37.04926" lon="-3.37011">
        <ele>3117.6</ele>
        <time>2021-08-05 19:50:21</time>
      </trkpt>
      <trkpt lat="37.04925" lon="-3.37011">
        <ele>3117.6</ele>
        <time>2021-08-05 19:50:22</time>
      </trkpt>
      <trkpt lat="37.04924" lon="-3.37012">
        <ele>3117.6</ele>
        <time>2021-08-05 19:50:23</time>
      </trkpt>
      <trkpt lat="37.04923" lon="-3.37012">
        <ele>3117.4</ele>
        <time>2021-08-05 19:50:24</time>
      </trkpt>
      <trkpt lat="37.04923" lon="-3.37012">
        <ele>3117.4</ele>
        <time>2021-08-05 19:50:25</time>
      </trkpt>
      <trkpt lat="37.04923" lon="-3.37014">
        <ele>3117.4</ele>
        <time>2021-08-05 19:50:26</time>
      </trkpt>
      <trkpt lat="37.04922" lon="-3.37015">
        <ele>3117.4</ele>
        <time>2021-08-05 19:50:27</time>
      </trkpt>
      <trkpt lat="37.04921" lon="-3.37016">
        <ele>3117</ele>
        <time>2021-08-05 19:50:28</time>
      </trkpt>
      <trkpt lat="37.0492" lon="-3.37016">
        <ele>3116.4</ele>
        <time>2021-08-05 19:50:29</time>
      </trkpt>
      <trkpt lat="37.04919" lon="-3.37016">
        <ele>3116.2</ele>
        <time>2021-08-05 19:50:30</time>
      </trkpt>
      <trkpt lat="37.04919" lon="-3.37016">
        <ele>3116</ele>
        <time>2021-08-05 19:50:31</time>
      </trkpt>
      <trkpt lat="37.04918" lon="-3.37016">
        <ele>3116</ele>
        <time>2021-08-05 19:50:32</time>
      </trkpt>
      <trkpt lat="37.04917" lon="-3.37016">
        <ele>3115.8</ele>
        <time>2021-08-05 19:50:33</time>
      </trkpt>
      <trkpt lat="37.04917" lon="-3.37016">
        <ele>3115.6</ele>
        <time>2021-08-05 19:50:34</time>
      </trkpt>
      <trkpt lat="37.04916" lon="-3.37017">
        <ele>3115.6</ele>
        <time>2021-08-05 19:50:35</time>
      </trkpt>
      <trkpt lat="37.04916" lon="-3.37017">
        <ele>3115.4</ele>
        <time>2021-08-05 19:50:36</time>
      </trkpt>
      <trkpt lat="37.04915" lon="-3.37017">
        <ele>3115.2</ele>
        <time>2021-08-05 19:50:37</time>
      </trkpt>
      <trkpt lat="37.04914" lon="-3.37017">
        <ele>3115.2</ele>
        <time>2021-08-05 19:50:38</time>
      </trkpt>
      <trkpt lat="37.04914" lon="-3.37017">
        <ele>3115.2</ele>
        <time>2021-08-05 19:50:39</time>
      </trkpt>
      <trkpt lat="37.04913" lon="-3.37017">
        <ele>3115</ele>
        <time>2021-08-05 19:50:40</time>
      </trkpt>
      <trkpt lat="37.04913" lon="-3.37018">
        <ele>3115</ele>
        <time>2021-08-05 19:50:41</time>
      </trkpt>
      <trkpt lat="37.04913" lon="-3.37018">
        <ele>3115</ele>
        <time>2021-08-05 19:50:42</time>
      </trkpt>
      <trkpt lat="37.04912" lon="-3.37019">
        <ele>3115</ele>
        <time>2021-08-05 19:50:43</time>
      </trkpt>
      <trkpt lat="37.04912" lon="-3.3702">
        <ele>3114.8</ele>
        <time>2021-08-05 19:50:44</time>
      </trkpt>
      <trkpt lat="37.04911" lon="-3.37021">
        <ele>3114.8</ele>
        <time>2021-08-05 19:50:45</time>
      </trkpt>
      <trkpt lat="37.04911" lon="-3.37021">
        <ele>3114.8</ele>
        <time>2021-08-05 19:50:46</time>
      </trkpt>
      <trkpt lat="37.0491" lon="-3.37022">
        <ele>3114.6</ele>
        <time>2021-08-05 19:50:47</time>
      </trkpt>
      <trkpt lat="37.0491" lon="-3.37022">
        <ele>3114.4</ele>
        <time>2021-08-05 19:50:48</time>
      </trkpt>
      <trkpt lat="37.04909" lon="-3.37022">
        <ele>3114.4</ele>
        <time>2021-08-05 19:50:49</time>
      </trkpt>
      <trkpt lat="37.04909" lon="-3.37023">
        <ele>3114.4</ele>
        <time>2021-08-05 19:50:50</time>
      </trkpt>
      <trkpt lat="37.04908" lon="-3.37023">
        <ele>3114.4</ele>
        <time>2021-08-05 19:50:51</time>
      </trkpt>
      <trkpt lat="37.04908" lon="-3.37023">
        <ele>3114.4</ele>
        <time>2021-08-05 19:50:52</time>
      </trkpt>
      <trkpt lat="37.04907" lon="-3.37024">
        <ele>3114.4</ele>
        <time>2021-08-05 19:50:53</time>
      </trkpt>
      <trkpt lat="37.04906" lon="-3.37024">
        <ele>3114.4</ele>
        <time>2021-08-05 19:50:54</time>
      </trkpt>
      <trkpt lat="37.04905" lon="-3.37024">
        <ele>3114.4</ele>
        <time>2021-08-05 19:50:55</time>
      </trkpt>
      <trkpt lat="37.04905" lon="-3.37024">
        <ele>3114</ele>
        <time>2021-08-05 19:50:56</time>
      </trkpt>
      <trkpt lat="37.04903" lon="-3.37023">
        <ele>3113.8</ele>
        <time>2021-08-05 19:50:57</time>
      </trkpt>
      <trkpt lat="37.04902" lon="-3.37023">
        <ele>3113.6</ele>
        <time>2021-08-05 19:50:58</time>
      </trkpt>
      <trkpt lat="37.04901" lon="-3.37023">
        <ele>3113.6</ele>
        <time>2021-08-05 19:50:59</time>
      </trkpt>
      <trkpt lat="37.049" lon="-3.37023">
        <ele>3113.6</ele>
        <time>2021-08-05 19:51:00</time>
      </trkpt>
      <trkpt lat="37.04899" lon="-3.37023">
        <ele>3113.4</ele>
        <time>2021-08-05 19:51:01</time>
      </trkpt>
      <trkpt lat="37.04898" lon="-3.37023">
        <ele>3113.4</ele>
        <time>2021-08-05 19:51:02</time>
      </trkpt>
      <trkpt lat="37.04897" lon="-3.37022">
        <ele>3113.2</ele>
        <time>2021-08-05 19:51:03</time>
      </trkpt>
      <trkpt lat="37.04896" lon="-3.37022">
        <ele>3113.2</ele>
        <time>2021-08-05 19:51:04</time>
      </trkpt>
      <trkpt lat="37.04896" lon="-3.37023">
        <ele>3113.2</ele>
        <time>2021-08-05 19:51:05</time>
      </trkpt>
      <trkpt lat="37.04895" lon="-3.37023">
        <ele>3113</ele>
        <time>2021-08-05 19:51:06</time>
      </trkpt>
      <trkpt lat="37.04894" lon="-3.37024">
        <ele>3113</ele>
        <time>2021-08-05 19:51:07</time>
      </trkpt>
      <trkpt lat="37.04894" lon="-3.37024">
        <ele>3113</ele>
        <time>2021-08-05 19:51:08</time>
      </trkpt>
      <trkpt lat="37.04893" lon="-3.37024">
        <ele>3112.8</ele>
        <time>2021-08-05 19:51:09</time>
      </trkpt>
      <trkpt lat="37.04892" lon="-3.37024">
        <ele>3112.8</ele>
        <time>2021-08-05 19:51:10</time>
      </trkpt>
      <trkpt lat="37.04891" lon="-3.37024">
        <ele>3112.4</ele>
        <time>2021-08-05 19:51:11</time>
      </trkpt>
      <trkpt lat="37.0489" lon="-3.37024">
        <ele>3112.4</ele>
        <time>2021-08-05 19:51:12</time>
      </trkpt>
      <trkpt lat="37.04888" lon="-3.37024">
        <ele>3112.2</ele>
        <time>2021-08-05 19:51:13</time>
      </trkpt>
      <trkpt lat="37.04887" lon="-3.37024">
        <ele>3112</ele>
        <time>2021-08-05 19:51:14</time>
      </trkpt>
      <trkpt lat="37.04886" lon="-3.37024">
        <ele>3111.8</ele>
        <time>2021-08-05 19:51:15</time>
      </trkpt>
      <trkpt lat="37.04885" lon="-3.37025">
        <ele>3111.8</ele>
        <time>2021-08-05 19:51:16</time>
      </trkpt>
      <trkpt lat="37.04884" lon="-3.37025">
        <ele>3111.8</ele>
        <time>2021-08-05 19:51:17</time>
      </trkpt>
      <trkpt lat="37.04883" lon="-3.37025">
        <ele>3111.8</ele>
        <time>2021-08-05 19:51:18</time>
      </trkpt>
      <trkpt lat="37.04882" lon="-3.37025">
        <ele>3111.8</ele>
        <time>2021-08-05 19:51:19</time>
      </trkpt>
      <trkpt lat="37.04881" lon="-3.37024">
        <ele>3111.8</ele>
        <time>2021-08-05 19:51:20</time>
      </trkpt>
      <trkpt lat="37.0488" lon="-3.37023">
        <ele>3111.6</ele>
        <time>2021-08-05 19:51:21</time>
      </trkpt>
      <trkpt lat="37.04879" lon="-3.37022">
        <ele>3111.4</ele>
        <time>2021-08-05 19:51:22</time>
      </trkpt>
      <trkpt lat="37.04879" lon="-3.37022">
        <ele>3111.4</ele>
        <time>2021-08-05 19:51:23</time>
      </trkpt>
      <trkpt lat="37.04878" lon="-3.37022">
        <ele>3111.4</ele>
        <time>2021-08-05 19:51:24</time>
      </trkpt>
      <trkpt lat="37.04878" lon="-3.37023">
        <ele>3111.4</ele>
        <time>2021-08-05 19:51:25</time>
      </trkpt>
      <trkpt lat="37.04877" lon="-3.37023">
        <ele>3111.4</ele>
        <time>2021-08-05 19:51:26</time>
      </trkpt>
      <trkpt lat="37.04877" lon="-3.37023">
        <ele>3111.4</ele>
        <time>2021-08-05 19:51:27</time>
      </trkpt>
      <trkpt lat="37.04876" lon="-3.37023">
        <ele>3111.2</ele>
        <time>2021-08-05 19:51:28</time>
      </trkpt>
      <trkpt lat="37.04875" lon="-3.37024">
        <ele>3111.2</ele>
        <time>2021-08-05 19:51:29</time>
      </trkpt>
      <trkpt lat="37.04874" lon="-3.37024">
        <ele>3111.2</ele>
        <time>2021-08-05 19:51:30</time>
      </trkpt>
      <trkpt lat="37.04874" lon="-3.37024">
        <ele>3111.2</ele>
        <time>2021-08-05 19:51:31</time>
      </trkpt>
      <trkpt lat="37.04872" lon="-3.37023">
        <ele>3111.2</ele>
        <time>2021-08-05 19:51:32</time>
      </trkpt>
      <trkpt lat="37.04872" lon="-3.37024">
        <ele>3111.2</ele>
        <time>2021-08-05 19:51:33</time>
      </trkpt>
      <trkpt lat="37.04872" lon="-3.37025">
        <ele>3111</ele>
        <time>2021-08-05 19:51:34</time>
      </trkpt>
      <trkpt lat="37.04871" lon="-3.37026">
        <ele>3111</ele>
        <time>2021-08-05 19:51:35</time>
      </trkpt>
      <trkpt lat="37.0487" lon="-3.37027">
        <ele>3110.6</ele>
        <time>2021-08-05 19:51:36</time>
      </trkpt>
      <trkpt lat="37.0487" lon="-3.37027">
        <ele>3110.4</ele>
        <time>2021-08-05 19:51:37</time>
      </trkpt>
      <trkpt lat="37.04869" lon="-3.37028">
        <ele>3110</ele>
        <time>2021-08-05 19:51:38</time>
      </trkpt>
      <trkpt lat="37.04868" lon="-3.37028">
        <ele>3110</ele>
        <time>2021-08-05 19:51:39</time>
      </trkpt>
      <trkpt lat="37.04867" lon="-3.37028">
        <ele>3109.8</ele>
        <time>2021-08-05 19:51:40</time>
      </trkpt>
      <trkpt lat="37.04866" lon="-3.37027">
        <ele>3110</ele>
        <time>2021-08-05 19:51:41</time>
      </trkpt>
      <trkpt lat="37.04866" lon="-3.37027">
        <ele>3109.8</ele>
        <time>2021-08-05 19:51:42</time>
      </trkpt>
      <trkpt lat="37.04865" lon="-3.37027">
        <ele>3109.6</ele>
        <time>2021-08-05 19:51:43</time>
      </trkpt>
      <trkpt lat="37.04865" lon="-3.37027">
        <ele>3109.6</ele>
        <time>2021-08-05 19:51:44</time>
      </trkpt>
      <trkpt lat="37.04864" lon="-3.37026">
        <ele>3109.6</ele>
        <time>2021-08-05 19:51:45</time>
      </trkpt>
      <trkpt lat="37.04865" lon="-3.37025">
        <ele>3109.4</ele>
        <time>2021-08-05 19:51:46</time>
      </trkpt>
      <trkpt lat="37.04865" lon="-3.37025">
        <ele>3109.4</ele>
        <time>2021-08-05 19:51:47</time>
      </trkpt>
      <trkpt lat="37.04864" lon="-3.37024">
        <ele>3109.2</ele>
        <time>2021-08-05 19:51:48</time>
      </trkpt>
      <trkpt lat="37.04863" lon="-3.37023">
        <ele>3109</ele>
        <time>2021-08-05 19:51:49</time>
      </trkpt>
      <trkpt lat="37.04862" lon="-3.37023">
        <ele>3109</ele>
        <time>2021-08-05 19:51:50</time>
      </trkpt>
      <trkpt lat="37.04861" lon="-3.37023">
        <ele>3109</ele>
        <time>2021-08-05 19:51:51</time>
      </trkpt>
      <trkpt lat="37.0486" lon="-3.37023">
        <ele>3109</ele>
        <time>2021-08-05 19:51:52</time>
      </trkpt>
      <trkpt lat="37.04859" lon="-3.37023">
        <ele>3109.2</ele>
        <time>2021-08-05 19:51:53</time>
      </trkpt>
      <trkpt lat="37.04857" lon="-3.37024">
        <ele>3109</ele>
        <time>2021-08-05 19:51:54</time>
      </trkpt>
      <trkpt lat="37.04856" lon="-3.37024">
        <ele>3109</ele>
        <time>2021-08-05 19:51:55</time>
      </trkpt>
      <trkpt lat="37.04855" lon="-3.37024">
        <ele>3108.8</ele>
        <time>2021-08-05 19:51:56</time>
      </trkpt>
      <trkpt lat="37.04854" lon="-3.37024">
        <ele>3109</ele>
        <time>2021-08-05 19:51:57</time>
      </trkpt>
      <trkpt lat="37.04852" lon="-3.37023">
        <ele>3108.8</ele>
        <time>2021-08-05 19:51:58</time>
      </trkpt>
      <trkpt lat="37.04851" lon="-3.37023">
        <ele>3108.8</ele>
        <time>2021-08-05 19:51:59</time>
      </trkpt>
      <trkpt lat="37.0485" lon="-3.37023">
        <ele>3108.6</ele>
        <time>2021-08-05 19:52:00</time>
      </trkpt>
      <trkpt lat="37.04849" lon="-3.37023">
        <ele>3108.6</ele>
        <time>2021-08-05 19:52:01</time>
      </trkpt>
      <trkpt lat="37.04849" lon="-3.37023">
        <ele>3108.2</ele>
        <time>2021-08-05 19:52:02</time>
      </trkpt>
      <trkpt lat="37.04848" lon="-3.37023">
        <ele>3108.2</ele>
        <time>2021-08-05 19:52:03</time>
      </trkpt>
      <trkpt lat="37.04847" lon="-3.37023">
        <ele>3108</ele>
        <time>2021-08-05 19:52:04</time>
      </trkpt>
      <trkpt lat="37.04846" lon="-3.37023">
        <ele>3107.8</ele>
        <time>2021-08-05 19:52:05</time>
      </trkpt>
      <trkpt lat="37.04846" lon="-3.37024">
        <ele>3107.8</ele>
        <time>2021-08-05 19:52:06</time>
      </trkpt>
      <trkpt lat="37.04845" lon="-3.37024">
        <ele>3107.8</ele>
        <time>2021-08-05 19:52:07</time>
      </trkpt>
      <trkpt lat="37.04844" lon="-3.37025">
        <ele>3107.6</ele>
        <time>2021-08-05 19:52:08</time>
      </trkpt>
      <trkpt lat="37.04843" lon="-3.37025">
        <ele>3107.4</ele>
        <time>2021-08-05 19:52:09</time>
      </trkpt>
      <trkpt lat="37.04842" lon="-3.37026">
        <ele>3107.2</ele>
        <time>2021-08-05 19:52:10</time>
      </trkpt>
      <trkpt lat="37.04841" lon="-3.37027">
        <ele>3107</ele>
        <time>2021-08-05 19:52:11</time>
      </trkpt>
      <trkpt lat="37.0484" lon="-3.37027">
        <ele>3107</ele>
        <time>2021-08-05 19:52:12</time>
      </trkpt>
      <trkpt lat="37.04839" lon="-3.37027">
        <ele>3107</ele>
        <time>2021-08-05 19:52:13</time>
      </trkpt>
      <trkpt lat="37.04838" lon="-3.37028">
        <ele>3106.8</ele>
        <time>2021-08-05 19:52:14</time>
      </trkpt>
      <trkpt lat="37.04837" lon="-3.37029">
        <ele>3106.8</ele>
        <time>2021-08-05 19:52:15</time>
      </trkpt>
      <trkpt lat="37.04835" lon="-3.37029">
        <ele>3106.8</ele>
        <time>2021-08-05 19:52:16</time>
      </trkpt>
      <trkpt lat="37.04834" lon="-3.37029">
        <ele>3106.8</ele>
        <time>2021-08-05 19:52:17</time>
      </trkpt>
      <trkpt lat="37.04833" lon="-3.37029">
        <ele>3106.6</ele>
        <time>2021-08-05 19:52:18</time>
      </trkpt>
      <trkpt lat="37.04832" lon="-3.3703">
        <ele>3106.6</ele>
        <time>2021-08-05 19:52:19</time>
      </trkpt>
      <trkpt lat="37.04831" lon="-3.37031">
        <ele>3106.4</ele>
        <time>2021-08-05 19:52:20</time>
      </trkpt>
      <trkpt lat="37.04831" lon="-3.37032">
        <ele>3106.2</ele>
        <time>2021-08-05 19:52:21</time>
      </trkpt>
      <trkpt lat="37.0483" lon="-3.37032">
        <ele>3106</ele>
        <time>2021-08-05 19:52:22</time>
      </trkpt>
      <trkpt lat="37.04829" lon="-3.37032">
        <ele>3106</ele>
        <time>2021-08-05 19:52:23</time>
      </trkpt>
      <trkpt lat="37.04829" lon="-3.37032">
        <ele>3106</ele>
        <time>2021-08-05 19:52:24</time>
      </trkpt>
      <trkpt lat="37.04829" lon="-3.37033">
        <ele>3105.8</ele>
        <time>2021-08-05 19:52:25</time>
      </trkpt>
      <trkpt lat="37.04828" lon="-3.37034">
        <ele>3105.6</ele>
        <time>2021-08-05 19:52:26</time>
      </trkpt>
      <trkpt lat="37.04828" lon="-3.37035">
        <ele>3105.8</ele>
        <time>2021-08-05 19:52:27</time>
      </trkpt>
      <trkpt lat="37.04829" lon="-3.37036">
        <ele>3105.8</ele>
        <time>2021-08-05 19:52:28</time>
      </trkpt>
      <trkpt lat="37.04828" lon="-3.37036">
        <ele>3105.6</ele>
        <time>2021-08-05 19:52:29</time>
      </trkpt>
      <trkpt lat="37.04828" lon="-3.37036">
        <ele>3105.6</ele>
        <time>2021-08-05 19:52:30</time>
      </trkpt>
      <trkpt lat="37.04827" lon="-3.37037">
        <ele>3105.4</ele>
        <time>2021-08-05 19:52:31</time>
      </trkpt>
      <trkpt lat="37.04827" lon="-3.37037">
        <ele>3105.4</ele>
        <time>2021-08-05 19:52:32</time>
      </trkpt>
      <trkpt lat="37.04826" lon="-3.37038">
        <ele>3105.2</ele>
        <time>2021-08-05 19:52:33</time>
      </trkpt>
      <trkpt lat="37.04824" lon="-3.37038">
        <ele>3105.2</ele>
        <time>2021-08-05 19:52:34</time>
      </trkpt>
      <trkpt lat="37.04823" lon="-3.37037">
        <ele>3104.8</ele>
        <time>2021-08-05 19:52:35</time>
      </trkpt>
      <trkpt lat="37.04822" lon="-3.37036">
        <ele>3104.8</ele>
        <time>2021-08-05 19:52:36</time>
      </trkpt>
      <trkpt lat="37.0482" lon="-3.37035">
        <ele>3104.4</ele>
        <time>2021-08-05 19:52:37</time>
      </trkpt>
      <trkpt lat="37.04819" lon="-3.37035">
        <ele>3104.2</ele>
        <time>2021-08-05 19:52:38</time>
      </trkpt>
      <trkpt lat="37.04818" lon="-3.37034">
        <ele>3103.8</ele>
        <time>2021-08-05 19:52:39</time>
      </trkpt>
      <trkpt lat="37.04817" lon="-3.37034">
        <ele>3103.8</ele>
        <time>2021-08-05 19:52:40</time>
      </trkpt>
      <trkpt lat="37.04816" lon="-3.37033">
        <ele>3103.4</ele>
        <time>2021-08-05 19:52:41</time>
      </trkpt>
      <trkpt lat="37.04815" lon="-3.37032">
        <ele>3103.2</ele>
        <time>2021-08-05 19:52:42</time>
      </trkpt>
      <trkpt lat="37.04814" lon="-3.3703">
        <ele>3103</ele>
        <time>2021-08-05 19:52:43</time>
      </trkpt>
      <trkpt lat="37.04813" lon="-3.3703">
        <ele>3103</ele>
        <time>2021-08-05 19:52:44</time>
      </trkpt>
      <trkpt lat="37.04812" lon="-3.3703">
        <ele>3102.8</ele>
        <time>2021-08-05 19:52:45</time>
      </trkpt>
      <trkpt lat="37.04811" lon="-3.3703">
        <ele>3102.8</ele>
        <time>2021-08-05 19:52:46</time>
      </trkpt>
      <trkpt lat="37.0481" lon="-3.3703">
        <ele>3102.8</ele>
        <time>2021-08-05 19:52:47</time>
      </trkpt>
      <trkpt lat="37.04809" lon="-3.3703">
        <ele>3102.8</ele>
        <time>2021-08-05 19:52:48</time>
      </trkpt>
      <trkpt lat="37.04808" lon="-3.3703">
        <ele>3102.8</ele>
        <time>2021-08-05 19:52:49</time>
      </trkpt>
      <trkpt lat="37.04808" lon="-3.3703">
        <ele>3102.8</ele>
        <time>2021-08-05 19:52:50</time>
      </trkpt>
      <trkpt lat="37.04808" lon="-3.37029">
        <ele>3102.8</ele>
        <time>2021-08-05 19:52:51</time>
      </trkpt>
      <trkpt lat="37.04807" lon="-3.37029">
        <ele>3102.8</ele>
        <time>2021-08-05 19:52:52</time>
      </trkpt>
      <trkpt lat="37.04806" lon="-3.37029">
        <ele>3102.6</ele>
        <time>2021-08-05 19:52:53</time>
      </trkpt>
      <trkpt lat="37.04806" lon="-3.37029">
        <ele>3102.6</ele>
        <time>2021-08-05 19:52:54</time>
      </trkpt>
      <trkpt lat="37.04806" lon="-3.37028">
        <ele>3102.4</ele>
        <time>2021-08-05 19:52:55</time>
      </trkpt>
      <trkpt lat="37.04807" lon="-3.3703">
        <ele>3102.4</ele>
        <time>2021-08-05 19:52:56</time>
      </trkpt>
      <trkpt lat="37.04807" lon="-3.3703">
        <ele>3102.4</ele>
        <time>2021-08-05 19:52:57</time>
      </trkpt>
      <trkpt lat="37.04806" lon="-3.37029">
        <ele>3102.4</ele>
        <time>2021-08-05 19:52:58</time>
      </trkpt>
      <trkpt lat="37.04805" lon="-3.37028">
        <ele>3102.4</ele>
        <time>2021-08-05 19:52:59</time>
      </trkpt>
      <trkpt lat="37.04804" lon="-3.37028">
        <ele>3102.4</ele>
        <time>2021-08-05 19:53:00</time>
      </trkpt>
      <trkpt lat="37.04804" lon="-3.37027">
        <ele>3102.4</ele>
        <time>2021-08-05 19:53:01</time>
      </trkpt>
      <trkpt lat="37.04803" lon="-3.37027">
        <ele>3102.4</ele>
        <time>2021-08-05 19:53:02</time>
      </trkpt>
      <trkpt lat="37.04803" lon="-3.37026">
        <ele>3102.2</ele>
        <time>2021-08-05 19:53:03</time>
      </trkpt>
      <trkpt lat="37.04803" lon="-3.37026">
        <ele>3102</ele>
        <time>2021-08-05 19:53:04</time>
      </trkpt>
      <trkpt lat="37.04802" lon="-3.37026">
        <ele>3101.8</ele>
        <time>2021-08-05 19:53:05</time>
      </trkpt>
      <trkpt lat="37.04802" lon="-3.37026">
        <ele>3101.6</ele>
        <time>2021-08-05 19:53:06</time>
      </trkpt>
      <trkpt lat="37.04802" lon="-3.37026">
        <ele>3101.4</ele>
        <time>2021-08-05 19:53:07</time>
      </trkpt>
      <trkpt lat="37.04801" lon="-3.37026">
        <ele>3101.2</ele>
        <time>2021-08-05 19:53:08</time>
      </trkpt>
      <trkpt lat="37.04801" lon="-3.37027">
        <ele>3101</ele>
        <time>2021-08-05 19:53:09</time>
      </trkpt>
      <trkpt lat="37.04802" lon="-3.37027">
        <ele>3101</ele>
        <time>2021-08-05 19:53:10</time>
      </trkpt>
      <trkpt lat="37.04802" lon="-3.37027">
        <ele>3101</ele>
        <time>2021-08-05 19:53:11</time>
      </trkpt>
      <trkpt lat="37.04802" lon="-3.37027">
        <ele>3100.8</ele>
        <time>2021-08-05 19:53:12</time>
      </trkpt>
      <trkpt lat="37.04802" lon="-3.37027">
        <ele>3100.6</ele>
        <time>2021-08-05 19:53:13</time>
      </trkpt>
      <trkpt lat="37.04802" lon="-3.37026">
        <ele>3100.6</ele>
        <time>2021-08-05 19:53:14</time>
      </trkpt>
      <trkpt lat="37.04801" lon="-3.37024">
        <ele>3100.4</ele>
        <time>2021-08-05 19:53:15</time>
      </trkpt>
      <trkpt lat="37.04801" lon="-3.37023">
        <ele>3100.4</ele>
        <time>2021-08-05 19:53:16</time>
      </trkpt>
      <trkpt lat="37.04802" lon="-3.37023">
        <ele>3100</ele>
        <time>2021-08-05 19:53:17</time>
      </trkpt>
      <trkpt lat="37.04802" lon="-3.37023">
        <ele>3099.6</ele>
        <time>2021-08-05 19:53:18</time>
      </trkpt>
      <trkpt lat="37.04802" lon="-3.37023">
        <ele>3099.4</ele>
        <time>2021-08-05 19:53:19</time>
      </trkpt>
      <trkpt lat="37.04801" lon="-3.37022">
        <ele>3099.4</ele>
        <time>2021-08-05 19:53:20</time>
      </trkpt>
      <trkpt lat="37.04801" lon="-3.37022">
        <ele>3099.2</ele>
        <time>2021-08-05 19:53:21</time>
      </trkpt>
      <trkpt lat="37.04801" lon="-3.37022">
        <ele>3099.2</ele>
        <time>2021-08-05 19:53:22</time>
      </trkpt>
      <trkpt lat="37.04801" lon="-3.3702">
        <ele>3099.2</ele>
        <time>2021-08-05 19:53:23</time>
      </trkpt>
      <trkpt lat="37.04801" lon="-3.3702">
        <ele>3099</ele>
        <time>2021-08-05 19:53:24</time>
      </trkpt>
      <trkpt lat="37.04801" lon="-3.3702">
        <ele>3099</ele>
        <time>2021-08-05 19:53:25</time>
      </trkpt>
      <trkpt lat="37.04801" lon="-3.3702">
        <ele>3098.8</ele>
        <time>2021-08-05 19:53:26</time>
      </trkpt>
      <trkpt lat="37.048" lon="-3.3702">
        <ele>3098.8</ele>
        <time>2021-08-05 19:53:27</time>
      </trkpt>
      <trkpt lat="37.048" lon="-3.37019">
        <ele>3098.8</ele>
        <time>2021-08-05 19:53:28</time>
      </trkpt>
      <trkpt lat="37.04799" lon="-3.37019">
        <ele>3098.6</ele>
        <time>2021-08-05 19:53:29</time>
      </trkpt>
      <trkpt lat="37.04799" lon="-3.37018">
        <ele>3098.6</ele>
        <time>2021-08-05 19:53:30</time>
      </trkpt>
      <trkpt lat="37.04799" lon="-3.37018">
        <ele>3098.4</ele>
        <time>2021-08-05 19:53:31</time>
      </trkpt>
      <trkpt lat="37.04799" lon="-3.37018">
        <ele>3098.2</ele>
        <time>2021-08-05 19:53:32</time>
      </trkpt>
      <trkpt lat="37.04799" lon="-3.37017">
        <ele>3098.2</ele>
        <time>2021-08-05 19:53:33</time>
      </trkpt>
      <trkpt lat="37.04799" lon="-3.37016">
        <ele>3098</ele>
        <time>2021-08-05 19:53:34</time>
      </trkpt>
      <trkpt lat="37.048" lon="-3.37015">
        <ele>3097.8</ele>
        <time>2021-08-05 19:53:35</time>
      </trkpt>
      <trkpt lat="37.048" lon="-3.37015">
        <ele>3097.6</ele>
        <time>2021-08-05 19:53:36</time>
      </trkpt>
      <trkpt lat="37.04801" lon="-3.37014">
        <ele>3097.2</ele>
        <time>2021-08-05 19:53:37</time>
      </trkpt>
      <trkpt lat="37.04802" lon="-3.37014">
        <ele>3096.8</ele>
        <time>2021-08-05 19:53:38</time>
      </trkpt>
      <trkpt lat="37.04803" lon="-3.37013">
        <ele>3096.8</ele>
        <time>2021-08-05 19:53:39</time>
      </trkpt>
      <trkpt lat="37.04803" lon="-3.37013">
        <ele>3096.6</ele>
        <time>2021-08-05 19:53:40</time>
      </trkpt>
      <trkpt lat="37.04803" lon="-3.37013">
        <ele>3096.6</ele>
        <time>2021-08-05 19:53:41</time>
      </trkpt>
      <trkpt lat="37.04804" lon="-3.37013">
        <ele>3096.4</ele>
        <time>2021-08-05 19:53:42</time>
      </trkpt>
      <trkpt lat="37.04805" lon="-3.37012">
        <ele>3096.2</ele>
        <time>2021-08-05 19:53:43</time>
      </trkpt>
      <trkpt lat="37.04805" lon="-3.37013">
        <ele>3096.2</ele>
        <time>2021-08-05 19:53:44</time>
      </trkpt>
      <trkpt lat="37.04805" lon="-3.37013">
        <ele>3096.2</ele>
        <time>2021-08-05 19:53:45</time>
      </trkpt>
      <trkpt lat="37.04806" lon="-3.37013">
        <ele>3096.2</ele>
        <time>2021-08-05 19:53:46</time>
      </trkpt>
      <trkpt lat="37.04806" lon="-3.37013">
        <ele>3096</ele>
        <time>2021-08-05 19:53:47</time>
      </trkpt>
      <trkpt lat="37.04807" lon="-3.37014">
        <ele>3096</ele>
        <time>2021-08-05 19:53:48</time>
      </trkpt>
      <trkpt lat="37.04807" lon="-3.37014">
        <ele>3096.2</ele>
        <time>2021-08-05 19:53:49</time>
      </trkpt>
      <trkpt lat="37.04807" lon="-3.37014">
        <ele>3096.2</ele>
        <time>2021-08-05 19:53:50</time>
      </trkpt>
      <trkpt lat="37.04808" lon="-3.37015">
        <ele>3096.2</ele>
        <time>2021-08-05 19:53:51</time>
      </trkpt>
      <trkpt lat="37.04809" lon="-3.37015">
        <ele>3096.2</ele>
        <time>2021-08-05 19:53:52</time>
      </trkpt>
      <trkpt lat="37.0481" lon="-3.37015">
        <ele>3096.2</ele>
        <time>2021-08-05 19:53:53</time>
      </trkpt>
      <trkpt lat="37.04812" lon="-3.37015">
        <ele>3096.2</ele>
        <time>2021-08-05 19:53:54</time>
      </trkpt>
      <trkpt lat="37.04813" lon="-3.37014">
        <ele>3095.8</ele>
        <time>2021-08-05 19:53:55</time>
      </trkpt>
      <trkpt lat="37.04815" lon="-3.37014">
        <ele>3095.6</ele>
        <time>2021-08-05 19:53:56</time>
      </trkpt>
      <trkpt lat="37.04816" lon="-3.37014">
        <ele>3095.4</ele>
        <time>2021-08-05 19:53:57</time>
      </trkpt>
      <trkpt lat="37.04816" lon="-3.37014">
        <ele>3095.2</ele>
        <time>2021-08-05 19:53:58</time>
      </trkpt>
      <trkpt lat="37.04817" lon="-3.37014">
        <ele>3094.8</ele>
        <time>2021-08-05 19:53:59</time>
      </trkpt>
      <trkpt lat="37.04818" lon="-3.37013">
        <ele>3094.6</ele>
        <time>2021-08-05 19:54:00</time>
      </trkpt>
      <trkpt lat="37.04818" lon="-3.37013">
        <ele>3094.4</ele>
        <time>2021-08-05 19:54:01</time>
      </trkpt>
      <trkpt lat="37.04819" lon="-3.37012">
        <ele>3094.4</ele>
        <time>2021-08-05 19:54:02</time>
      </trkpt>
      <trkpt lat="37.0482" lon="-3.37012">
        <ele>3094.4</ele>
        <time>2021-08-05 19:54:03</time>
      </trkpt>
      <trkpt lat="37.04821" lon="-3.37012">
        <ele>3094.4</ele>
        <time>2021-08-05 19:54:04</time>
      </trkpt>
      <trkpt lat="37.04822" lon="-3.37012">
        <ele>3094.4</ele>
        <time>2021-08-05 19:54:05</time>
      </trkpt>
      <trkpt lat="37.04823" lon="-3.37012">
        <ele>3094.4</ele>
        <time>2021-08-05 19:54:06</time>
      </trkpt>
      <trkpt lat="37.04824" lon="-3.37012">
        <ele>3094.4</ele>
        <time>2021-08-05 19:54:07</time>
      </trkpt>
      <trkpt lat="37.04826" lon="-3.37012">
        <ele>3094.4</ele>
        <time>2021-08-05 19:54:08</time>
      </trkpt>
      <trkpt lat="37.04827" lon="-3.37011">
        <ele>3094.4</ele>
        <time>2021-08-05 19:54:09</time>
      </trkpt>
      <trkpt lat="37.04829" lon="-3.37011">
        <ele>3094.4</ele>
        <time>2021-08-05 19:54:10</time>
      </trkpt>
      <trkpt lat="37.0483" lon="-3.37011">
        <ele>3094.4</ele>
        <time>2021-08-05 19:54:11</time>
      </trkpt>
      <trkpt lat="37.04832" lon="-3.37011">
        <ele>3094.2</ele>
        <time>2021-08-05 19:54:12</time>
      </trkpt>
      <trkpt lat="37.04833" lon="-3.37012">
        <ele>3094</ele>
        <time>2021-08-05 19:54:13</time>
      </trkpt>
      <trkpt lat="37.04833" lon="-3.37012">
        <ele>3094</ele>
        <time>2021-08-05 19:54:14</time>
      </trkpt>
      <trkpt lat="37.04834" lon="-3.37012">
        <ele>3093.8</ele>
        <time>2021-08-05 19:54:15</time>
      </trkpt>
      <trkpt lat="37.04835" lon="-3.37012">
        <ele>3093.8</ele>
        <time>2021-08-05 19:54:16</time>
      </trkpt>
      <trkpt lat="37.04836" lon="-3.37012">
        <ele>3093.8</ele>
        <time>2021-08-05 19:54:17</time>
      </trkpt>
      <trkpt lat="37.04837" lon="-3.37012">
        <ele>3093.6</ele>
        <time>2021-08-05 19:54:18</time>
      </trkpt>
      <trkpt lat="37.04838" lon="-3.37012">
        <ele>3093.6</ele>
        <time>2021-08-05 19:54:19</time>
      </trkpt>
      <trkpt lat="37.04839" lon="-3.37012">
        <ele>3093.6</ele>
        <time>2021-08-05 19:54:20</time>
      </trkpt>
      <trkpt lat="37.0484" lon="-3.37012">
        <ele>3093.4</ele>
        <time>2021-08-05 19:54:21</time>
      </trkpt>
      <trkpt lat="37.04841" lon="-3.37012">
        <ele>3093.2</ele>
        <time>2021-08-05 19:54:22</time>
      </trkpt>
      <trkpt lat="37.04842" lon="-3.37011">
        <ele>3093</ele>
        <time>2021-08-05 19:54:23</time>
      </trkpt>
      <trkpt lat="37.04844" lon="-3.37011">
        <ele>3093</ele>
        <time>2021-08-05 19:54:24</time>
      </trkpt>
      <trkpt lat="37.04845" lon="-3.3701">
        <ele>3093</ele>
        <time>2021-08-05 19:54:25</time>
      </trkpt>
      <trkpt lat="37.04846" lon="-3.3701">
        <ele>3093</ele>
        <time>2021-08-05 19:54:26</time>
      </trkpt>
      <trkpt lat="37.04847" lon="-3.3701">
        <ele>3093</ele>
        <time>2021-08-05 19:54:27</time>
      </trkpt>
      <trkpt lat="37.04848" lon="-3.3701">
        <ele>3093</ele>
        <time>2021-08-05 19:54:28</time>
      </trkpt>
      <trkpt lat="37.04849" lon="-3.3701">
        <ele>3093</ele>
        <time>2021-08-05 19:54:29</time>
      </trkpt>
      <trkpt lat="37.04849" lon="-3.3701">
        <ele>3093</ele>
        <time>2021-08-05 19:54:30</time>
      </trkpt>
      <trkpt lat="37.0485" lon="-3.37009">
        <ele>3093</ele>
        <time>2021-08-05 19:54:31</time>
      </trkpt>
      <trkpt lat="37.04851" lon="-3.37008">
        <ele>3093.2</ele>
        <time>2021-08-05 19:54:32</time>
      </trkpt>
      <trkpt lat="37.04853" lon="-3.37009">
        <ele>3093.2</ele>
        <time>2021-08-05 19:54:33</time>
      </trkpt>
      <trkpt lat="37.04855" lon="-3.37009">
        <ele>3093.2</ele>
        <time>2021-08-05 19:54:34</time>
      </trkpt>
      <trkpt lat="37.04856" lon="-3.37009">
        <ele>3093</ele>
        <time>2021-08-05 19:54:35</time>
      </trkpt>
      <trkpt lat="37.04857" lon="-3.37009">
        <ele>3093</ele>
        <time>2021-08-05 19:54:36</time>
      </trkpt>
      <trkpt lat="37.04858" lon="-3.37009">
        <ele>3092.6</ele>
        <time>2021-08-05 19:54:37</time>
      </trkpt>
      <trkpt lat="37.04859" lon="-3.37008">
        <ele>3092.6</ele>
        <time>2021-08-05 19:54:38</time>
      </trkpt>
      <trkpt lat="37.0486" lon="-3.37008">
        <ele>3092.4</ele>
        <time>2021-08-05 19:54:39</time>
      </trkpt>
      <trkpt lat="37.04861" lon="-3.37008">
        <ele>3092.4</ele>
        <time>2021-08-05 19:54:40</time>
      </trkpt>
      <trkpt lat="37.04861" lon="-3.37007">
        <ele>3092.4</ele>
        <time>2021-08-05 19:54:41</time>
      </trkpt>
      <trkpt lat="37.04862" lon="-3.37005">
        <ele>3092.2</ele>
        <time>2021-08-05 19:54:42</time>
      </trkpt>
      <trkpt lat="37.04862" lon="-3.37004">
        <ele>3092.2</ele>
        <time>2021-08-05 19:54:43</time>
      </trkpt>
      <trkpt lat="37.04862" lon="-3.37003">
        <ele>3092</ele>
        <time>2021-08-05 19:54:44</time>
      </trkpt>
      <trkpt lat="37.04863" lon="-3.37002">
        <ele>3092</ele>
        <time>2021-08-05 19:54:45</time>
      </trkpt>
      <trkpt lat="37.04864" lon="-3.37002">
        <ele>3092</ele>
        <time>2021-08-05 19:54:46</time>
      </trkpt>
      <trkpt lat="37.04865" lon="-3.37002">
        <ele>3091.8</ele>
        <time>2021-08-05 19:54:47</time>
      </trkpt>
      <trkpt lat="37.04866" lon="-3.37002">
        <ele>3091.8</ele>
        <time>2021-08-05 19:54:48</time>
      </trkpt>
      <trkpt lat="37.04867" lon="-3.37002">
        <ele>3092</ele>
        <time>2021-08-05 19:54:49</time>
      </trkpt>
      <trkpt lat="37.04868" lon="-3.37001">
        <ele>3092.2</ele>
        <time>2021-08-05 19:54:50</time>
      </trkpt>
      <trkpt lat="37.04869" lon="-3.37001">
        <ele>3092.4</ele>
        <time>2021-08-05 19:54:51</time>
      </trkpt>
      <trkpt lat="37.04869" lon="-3.37001">
        <ele>3092.4</ele>
        <time>2021-08-05 19:54:52</time>
      </trkpt>
      <trkpt lat="37.0487" lon="-3.37">
        <ele>3092.4</ele>
        <time>2021-08-05 19:54:53</time>
      </trkpt>
      <trkpt lat="37.0487" lon="-3.37">
        <ele>3092.4</ele>
        <time>2021-08-05 19:54:54</time>
      </trkpt>
      <trkpt lat="37.0487" lon="-3.37">
        <ele>3092.4</ele>
        <time>2021-08-05 19:54:55</time>
      </trkpt>
      <trkpt lat="37.04871" lon="-3.37">
        <ele>3092.4</ele>
        <time>2021-08-05 19:54:56</time>
      </trkpt>
      <trkpt lat="37.04872" lon="-3.36999">
        <ele>3092.4</ele>
        <time>2021-08-05 19:54:57</time>
      </trkpt>
      <trkpt lat="37.04872" lon="-3.36998">
        <ele>3092.4</ele>
        <time>2021-08-05 19:54:58</time>
      </trkpt>
      <trkpt lat="37.04872" lon="-3.36998">
        <ele>3092.4</ele>
        <time>2021-08-05 19:54:59</time>
      </trkpt>
      <trkpt lat="37.04873" lon="-3.36997">
        <ele>3092.2</ele>
        <time>2021-08-05 19:55:00</time>
      </trkpt>
      <trkpt lat="37.04874" lon="-3.36997">
        <ele>3092</ele>
        <time>2021-08-05 19:55:01</time>
      </trkpt>
      <trkpt lat="37.04874" lon="-3.36995">
        <ele>3092.2</ele>
        <time>2021-08-05 19:55:02</time>
      </trkpt>
      <trkpt lat="37.04874" lon="-3.36994">
        <ele>3092</ele>
        <time>2021-08-05 19:55:03</time>
      </trkpt>
      <trkpt lat="37.04874" lon="-3.3699">
        <ele>3091.8</ele>
        <time>2021-08-05 19:55:04</time>
      </trkpt>
      <trkpt lat="37.04874" lon="-3.36987">
        <ele>3091.6</ele>
        <time>2021-08-05 19:55:05</time>
      </trkpt>
      <trkpt lat="37.04875" lon="-3.36986">
        <ele>3091.6</ele>
        <time>2021-08-05 19:55:06</time>
      </trkpt>
      <trkpt lat="37.04875" lon="-3.36985">
        <ele>3091.6</ele>
        <time>2021-08-05 19:55:07</time>
      </trkpt>
      <trkpt lat="37.04876" lon="-3.36985">
        <ele>3091.4</ele>
        <time>2021-08-05 19:55:08</time>
      </trkpt>
      <trkpt lat="37.04877" lon="-3.36984">
        <ele>3091.4</ele>
        <time>2021-08-05 19:55:09</time>
      </trkpt>
      <trkpt lat="37.04878" lon="-3.36984">
        <ele>3091.4</ele>
        <time>2021-08-05 19:55:10</time>
      </trkpt>
      <trkpt lat="37.04878" lon="-3.36983">
        <ele>3091.2</ele>
        <time>2021-08-05 19:55:11</time>
      </trkpt>
      <trkpt lat="37.0488" lon="-3.36983">
        <ele>3091.2</ele>
        <time>2021-08-05 19:55:12</time>
      </trkpt>
      <trkpt lat="37.04882" lon="-3.36983">
        <ele>3091</ele>
        <time>2021-08-05 19:55:13</time>
      </trkpt>
      <trkpt lat="37.04883" lon="-3.36983">
        <ele>3090.8</ele>
        <time>2021-08-05 19:55:14</time>
      </trkpt>
      <trkpt lat="37.04884" lon="-3.36983">
        <ele>3090.6</ele>
        <time>2021-08-05 19:55:15</time>
      </trkpt>
      <trkpt lat="37.04885" lon="-3.36983">
        <ele>3090.4</ele>
        <time>2021-08-05 19:55:16</time>
      </trkpt>
      <trkpt lat="37.04886" lon="-3.36982">
        <ele>3090.4</ele>
        <time>2021-08-05 19:55:17</time>
      </trkpt>
      <trkpt lat="37.04887" lon="-3.36982">
        <ele>3090.2</ele>
        <time>2021-08-05 19:55:18</time>
      </trkpt>
      <trkpt lat="37.04888" lon="-3.36981">
        <ele>3090.2</ele>
        <time>2021-08-05 19:55:19</time>
      </trkpt>
      <trkpt lat="37.04888" lon="-3.36981">
        <ele>3090.2</ele>
        <time>2021-08-05 19:55:20</time>
      </trkpt>
      <trkpt lat="37.04889" lon="-3.36982">
        <ele>3090.2</ele>
        <time>2021-08-05 19:55:21</time>
      </trkpt>
      <trkpt lat="37.04889" lon="-3.36982">
        <ele>3090.2</ele>
        <time>2021-08-05 19:55:22</time>
      </trkpt>
      <trkpt lat="37.0489" lon="-3.36981">
        <ele>3090.2</ele>
        <time>2021-08-05 19:55:23</time>
      </trkpt>
      <trkpt lat="37.0489" lon="-3.36981">
        <ele>3090.2</ele>
        <time>2021-08-05 19:55:24</time>
      </trkpt>
      <trkpt lat="37.04891" lon="-3.3698">
        <ele>3090.2</ele>
        <time>2021-08-05 19:55:25</time>
      </trkpt>
      <trkpt lat="37.04891" lon="-3.36979">
        <ele>3090</ele>
        <time>2021-08-05 19:55:26</time>
      </trkpt>
      <trkpt lat="37.04892" lon="-3.36977">
        <ele>3090</ele>
        <time>2021-08-05 19:55:27</time>
      </trkpt>
      <trkpt lat="37.04891" lon="-3.36976">
        <ele>3089.8</ele>
        <time>2021-08-05 19:55:28</time>
      </trkpt>
      <trkpt lat="37.04892" lon="-3.36975">
        <ele>3089.8</ele>
        <time>2021-08-05 19:55:29</time>
      </trkpt>
      <trkpt lat="37.04892" lon="-3.36974">
        <ele>3089.8</ele>
        <time>2021-08-05 19:55:30</time>
      </trkpt>
      <trkpt lat="37.04893" lon="-3.36973">
        <ele>3089.8</ele>
        <time>2021-08-05 19:55:31</time>
      </trkpt>
      <trkpt lat="37.04894" lon="-3.36972">
        <ele>3089.8</ele>
        <time>2021-08-05 19:55:32</time>
      </trkpt>
      <trkpt lat="37.04895" lon="-3.36972">
        <ele>3089.8</ele>
        <time>2021-08-05 19:55:33</time>
      </trkpt>
      <trkpt lat="37.04896" lon="-3.36972">
        <ele>3089.8</ele>
        <time>2021-08-05 19:55:34</time>
      </trkpt>
      <trkpt lat="37.04897" lon="-3.36972">
        <ele>3089.6</ele>
        <time>2021-08-05 19:55:35</time>
      </trkpt>
      <trkpt lat="37.04898" lon="-3.36971">
        <ele>3089.6</ele>
        <time>2021-08-05 19:55:36</time>
      </trkpt>
      <trkpt lat="37.04899" lon="-3.36971">
        <ele>3089.8</ele>
        <time>2021-08-05 19:55:37</time>
      </trkpt>
      <trkpt lat="37.049" lon="-3.3697">
        <ele>3089.6</ele>
        <time>2021-08-05 19:55:38</time>
      </trkpt>
      <trkpt lat="37.04902" lon="-3.3697">
        <ele>3089.6</ele>
        <time>2021-08-05 19:55:39</time>
      </trkpt>
      <trkpt lat="37.04903" lon="-3.36969">
        <ele>3089.8</ele>
        <time>2021-08-05 19:55:40</time>
      </trkpt>
      <trkpt lat="37.04903" lon="-3.36968">
        <ele>3089.6</ele>
        <time>2021-08-05 19:55:41</time>
      </trkpt>
      <trkpt lat="37.04904" lon="-3.36967">
        <ele>3089.8</ele>
        <time>2021-08-05 19:55:42</time>
      </trkpt>
      <trkpt lat="37.04905" lon="-3.36967">
        <ele>3089.8</ele>
        <time>2021-08-05 19:55:43</time>
      </trkpt>
      <trkpt lat="37.04906" lon="-3.36966">
        <ele>3089.8</ele>
        <time>2021-08-05 19:55:44</time>
      </trkpt>
      <trkpt lat="37.04907" lon="-3.36965">
        <ele>3089.8</ele>
        <time>2021-08-05 19:55:45</time>
      </trkpt>
      <trkpt lat="37.04908" lon="-3.36965">
        <ele>3089.8</ele>
        <time>2021-08-05 19:55:46</time>
      </trkpt>
      <trkpt lat="37.04909" lon="-3.36965">
        <ele>3089.8</ele>
        <time>2021-08-05 19:55:47</time>
      </trkpt>
      <trkpt lat="37.04909" lon="-3.36965">
        <ele>3089.8</ele>
        <time>2021-08-05 19:55:48</time>
      </trkpt>
      <trkpt lat="37.04909" lon="-3.36964">
        <ele>3089.8</ele>
        <time>2021-08-05 19:55:49</time>
      </trkpt>
      <trkpt lat="37.04909" lon="-3.36963">
        <ele>3089.6</ele>
        <time>2021-08-05 19:55:50</time>
      </trkpt>
      <trkpt lat="37.04911" lon="-3.36964">
        <ele>3089.4</ele>
        <time>2021-08-05 19:55:51</time>
      </trkpt>
      <trkpt lat="37.04912" lon="-3.36964">
        <ele>3089.4</ele>
        <time>2021-08-05 19:55:52</time>
      </trkpt>
      <trkpt lat="37.04914" lon="-3.36965">
        <ele>3089.4</ele>
        <time>2021-08-05 19:55:53</time>
      </trkpt>
      <trkpt lat="37.04916" lon="-3.36965">
        <ele>3089.4</ele>
        <time>2021-08-05 19:55:54</time>
      </trkpt>
      <trkpt lat="37.04918" lon="-3.36965">
        <ele>3089.4</ele>
        <time>2021-08-05 19:55:55</time>
      </trkpt>
      <trkpt lat="37.0492" lon="-3.36964">
        <ele>3089.4</ele>
        <time>2021-08-05 19:55:56</time>
      </trkpt>
      <trkpt lat="37.04921" lon="-3.36963">
        <ele>3089.4</ele>
        <time>2021-08-05 19:55:57</time>
      </trkpt>
      <trkpt lat="37.0492" lon="-3.3696">
        <ele>3089.4</ele>
        <time>2021-08-05 19:55:58</time>
      </trkpt>
      <trkpt lat="37.0492" lon="-3.36959">
        <ele>3089.2</ele>
        <time>2021-08-05 19:55:59</time>
      </trkpt>
      <trkpt lat="37.0492" lon="-3.36957">
        <ele>3089.2</ele>
        <time>2021-08-05 19:56:00</time>
      </trkpt>
      <trkpt lat="37.04921" lon="-3.36956">
        <ele>3089.2</ele>
        <time>2021-08-05 19:56:01</time>
      </trkpt>
      <trkpt lat="37.04921" lon="-3.36955">
        <ele>3089</ele>
        <time>2021-08-05 19:56:02</time>
      </trkpt>
      <trkpt lat="37.04923" lon="-3.36955">
        <ele>3089</ele>
        <time>2021-08-05 19:56:03</time>
      </trkpt>
      <trkpt lat="37.04924" lon="-3.36955">
        <ele>3089</ele>
        <time>2021-08-05 19:56:04</time>
      </trkpt>
      <trkpt lat="37.04925" lon="-3.36955">
        <ele>3088.6</ele>
        <time>2021-08-05 19:56:05</time>
      </trkpt>
      <trkpt lat="37.04926" lon="-3.36954">
        <ele>3088.6</ele>
        <time>2021-08-05 19:56:06</time>
      </trkpt>
      <trkpt lat="37.04928" lon="-3.36955">
        <ele>3088.6</ele>
        <time>2021-08-05 19:56:07</time>
      </trkpt>
      <trkpt lat="37.04929" lon="-3.36955">
        <ele>3088.6</ele>
        <time>2021-08-05 19:56:08</time>
      </trkpt>
      <trkpt lat="37.0493" lon="-3.36955">
        <ele>3088.6</ele>
        <time>2021-08-05 19:56:09</time>
      </trkpt>
      <trkpt lat="37.04931" lon="-3.36954">
        <ele>3088.6</ele>
        <time>2021-08-05 19:56:10</time>
      </trkpt>
      <trkpt lat="37.04931" lon="-3.36954">
        <ele>3088.6</ele>
        <time>2021-08-05 19:56:11</time>
      </trkpt>
      <trkpt lat="37.04932" lon="-3.36953">
        <ele>3088.6</ele>
        <time>2021-08-05 19:56:12</time>
      </trkpt>
      <trkpt lat="37.04932" lon="-3.36953">
        <ele>3088.8</ele>
        <time>2021-08-05 19:56:13</time>
      </trkpt>
      <trkpt lat="37.04932" lon="-3.36952">
        <ele>3089</ele>
        <time>2021-08-05 19:56:14</time>
      </trkpt>
      <trkpt lat="37.04932" lon="-3.36951">
        <ele>3089</ele>
        <time>2021-08-05 19:56:15</time>
      </trkpt>
      <trkpt lat="37.04932" lon="-3.36951">
        <ele>3089</ele>
        <time>2021-08-05 19:56:16</time>
      </trkpt>
      <trkpt lat="37.04932" lon="-3.3695">
        <ele>3089</ele>
        <time>2021-08-05 19:56:17</time>
      </trkpt>
      <trkpt lat="37.04932" lon="-3.36948">
        <ele>3089</ele>
        <time>2021-08-05 19:56:18</time>
      </trkpt>
      <trkpt lat="37.04932" lon="-3.36947">
        <ele>3088.6</ele>
        <time>2021-08-05 19:56:19</time>
      </trkpt>
      <trkpt lat="37.04933" lon="-3.36946">
        <ele>3088.2</ele>
        <time>2021-08-05 19:56:20</time>
      </trkpt>
      <trkpt lat="37.04933" lon="-3.36946">
        <ele>3088.2</ele>
        <time>2021-08-05 19:56:21</time>
      </trkpt>
      <trkpt lat="37.04933" lon="-3.36946">
        <ele>3088.2</ele>
        <time>2021-08-05 19:56:22</time>
      </trkpt>
      <trkpt lat="37.04934" lon="-3.36945">
        <ele>3088.2</ele>
        <time>2021-08-05 19:56:23</time>
      </trkpt>
      <trkpt lat="37.04935" lon="-3.36945">
        <ele>3088.2</ele>
        <time>2021-08-05 19:56:24</time>
      </trkpt>
      <trkpt lat="37.04936" lon="-3.36945">
        <ele>3088.2</ele>
        <time>2021-08-05 19:56:25</time>
      </trkpt>
      <trkpt lat="37.04937" lon="-3.36944">
        <ele>3088</ele>
        <time>2021-08-05 19:56:26</time>
      </trkpt>
      <trkpt lat="37.04938" lon="-3.36944">
        <ele>3088</ele>
        <time>2021-08-05 19:56:27</time>
      </trkpt>
      <trkpt lat="37.04939" lon="-3.36944">
        <ele>3088</ele>
        <time>2021-08-05 19:56:28</time>
      </trkpt>
      <trkpt lat="37.0494" lon="-3.36943">
        <ele>3088</ele>
        <time>2021-08-05 19:56:29</time>
      </trkpt>
      <trkpt lat="37.04939" lon="-3.36942">
        <ele>3088</ele>
        <time>2021-08-05 19:56:30</time>
      </trkpt>
      <trkpt lat="37.04939" lon="-3.36941">
        <ele>3088</ele>
        <time>2021-08-05 19:56:31</time>
      </trkpt>
      <trkpt lat="37.04939" lon="-3.36941">
        <ele>3087.8</ele>
        <time>2021-08-05 19:56:32</time>
      </trkpt>
      <trkpt lat="37.04939" lon="-3.36942">
        <ele>3087.6</ele>
        <time>2021-08-05 19:56:33</time>
      </trkpt>
      <trkpt lat="37.04939" lon="-3.36942">
        <ele>3087.6</ele>
        <time>2021-08-05 19:56:34</time>
      </trkpt>
      <trkpt lat="37.0494" lon="-3.36942">
        <ele>3087.4</ele>
        <time>2021-08-05 19:56:35</time>
      </trkpt>
      <trkpt lat="37.0494" lon="-3.36941">
        <ele>3087.2</ele>
        <time>2021-08-05 19:56:36</time>
      </trkpt>
      <trkpt lat="37.04941" lon="-3.36941">
        <ele>3087.2</ele>
        <time>2021-08-05 19:56:37</time>
      </trkpt>
      <trkpt lat="37.04941" lon="-3.3694">
        <ele>3087.4</ele>
        <time>2021-08-05 19:56:38</time>
      </trkpt>
      <trkpt lat="37.04941" lon="-3.36939">
        <ele>3087.4</ele>
        <time>2021-08-05 19:56:39</time>
      </trkpt>
      <trkpt lat="37.04941" lon="-3.36938">
        <ele>3087.6</ele>
        <time>2021-08-05 19:56:40</time>
      </trkpt>
      <trkpt lat="37.04941" lon="-3.36937">
        <ele>3087.6</ele>
        <time>2021-08-05 19:56:41</time>
      </trkpt>
      <trkpt lat="37.04941" lon="-3.36937">
        <ele>3087.6</ele>
        <time>2021-08-05 19:56:42</time>
      </trkpt>
      <trkpt lat="37.04943" lon="-3.36939">
        <ele>3087.8</ele>
        <time>2021-08-05 19:56:43</time>
      </trkpt>
      <trkpt lat="37.04945" lon="-3.36941">
        <ele>3087.8</ele>
        <time>2021-08-05 19:56:44</time>
      </trkpt>
      <trkpt lat="37.04946" lon="-3.36941">
        <ele>3087.8</ele>
        <time>2021-08-05 19:56:45</time>
      </trkpt>
      <trkpt lat="37.04946" lon="-3.36941">
        <ele>3087.8</ele>
        <time>2021-08-05 19:56:46</time>
      </trkpt>
      <trkpt lat="37.04947" lon="-3.36942">
        <ele>3087.6</ele>
        <time>2021-08-05 19:56:47</time>
      </trkpt>
      <trkpt lat="37.04947" lon="-3.36942">
        <ele>3087.6</ele>
        <time>2021-08-05 19:56:48</time>
      </trkpt>
      <trkpt lat="37.04948" lon="-3.36942">
        <ele>3087.6</ele>
        <time>2021-08-05 19:56:49</time>
      </trkpt>
      <trkpt lat="37.04948" lon="-3.36942">
        <ele>3087.4</ele>
        <time>2021-08-05 19:56:50</time>
      </trkpt>
      <trkpt lat="37.04948" lon="-3.36941">
        <ele>3087.4</ele>
        <time>2021-08-05 19:56:51</time>
      </trkpt>
      <trkpt lat="37.04949" lon="-3.3694">
        <ele>3087.4</ele>
        <time>2021-08-05 19:56:52</time>
      </trkpt>
      <trkpt lat="37.04949" lon="-3.36939">
        <ele>3087.4</ele>
        <time>2021-08-05 19:56:53</time>
      </trkpt>
      <trkpt lat="37.04949" lon="-3.36936">
        <ele>3087.4</ele>
        <time>2021-08-05 19:56:54</time>
      </trkpt>
      <trkpt lat="37.04949" lon="-3.36935">
        <ele>3087.4</ele>
        <time>2021-08-05 19:56:55</time>
      </trkpt>
      <trkpt lat="37.04949" lon="-3.36933">
        <ele>3087.4</ele>
        <time>2021-08-05 19:56:56</time>
      </trkpt>
      <trkpt lat="37.04948" lon="-3.36929">
        <ele>3087.4</ele>
        <time>2021-08-05 19:56:57</time>
      </trkpt>
      <trkpt lat="37.04948" lon="-3.36929">
        <ele>3087.2</ele>
        <time>2021-08-05 19:56:58</time>
      </trkpt>
      <trkpt lat="37.04948" lon="-3.36927">
        <ele>3087.2</ele>
        <time>2021-08-05 19:56:59</time>
      </trkpt>
      <trkpt lat="37.04949" lon="-3.36926">
        <ele>3087.2</ele>
        <time>2021-08-05 19:57:00</time>
      </trkpt>
      <trkpt lat="37.04951" lon="-3.36926">
        <ele>3087.2</ele>
        <time>2021-08-05 19:57:01</time>
      </trkpt>
      <trkpt lat="37.04952" lon="-3.36926">
        <ele>3087.2</ele>
        <time>2021-08-05 19:57:02</time>
      </trkpt>
      <trkpt lat="37.04953" lon="-3.36926">
        <ele>3087.2</ele>
        <time>2021-08-05 19:57:03</time>
      </trkpt>
      <trkpt lat="37.04954" lon="-3.36926">
        <ele>3087.4</ele>
        <time>2021-08-05 19:57:04</time>
      </trkpt>
      <trkpt lat="37.04955" lon="-3.36927">
        <ele>3087.6</ele>
        <time>2021-08-05 19:57:05</time>
      </trkpt>
      <trkpt lat="37.04956" lon="-3.36927">
        <ele>3087.4</ele>
        <time>2021-08-05 19:57:06</time>
      </trkpt>
      <trkpt lat="37.04956" lon="-3.36928">
        <ele>3087.6</ele>
        <time>2021-08-05 19:57:07</time>
      </trkpt>
      <trkpt lat="37.04957" lon="-3.36929">
        <ele>3087.4</ele>
        <time>2021-08-05 19:57:08</time>
      </trkpt>
      <trkpt lat="37.04958" lon="-3.36929">
        <ele>3087.4</ele>
        <time>2021-08-05 19:57:09</time>
      </trkpt>
      <trkpt lat="37.04959" lon="-3.36929">
        <ele>3087.2</ele>
        <time>2021-08-05 19:57:10</time>
      </trkpt>
      <trkpt lat="37.04959" lon="-3.36929">
        <ele>3087.2</ele>
        <time>2021-08-05 19:57:11</time>
      </trkpt>
      <trkpt lat="37.0496" lon="-3.36928">
        <ele>3087.2</ele>
        <time>2021-08-05 19:57:12</time>
      </trkpt>
      <trkpt lat="37.04961" lon="-3.36928">
        <ele>3087</ele>
        <time>2021-08-05 19:57:13</time>
      </trkpt>
      <trkpt lat="37.04963" lon="-3.36927">
        <ele>3087</ele>
        <time>2021-08-05 19:57:14</time>
      </trkpt>
      <trkpt lat="37.04964" lon="-3.36926">
        <ele>3087</ele>
        <time>2021-08-05 19:57:15</time>
      </trkpt>
      <trkpt lat="37.04964" lon="-3.36926">
        <ele>3087</ele>
        <time>2021-08-05 19:57:16</time>
      </trkpt>
      <trkpt lat="37.04966" lon="-3.36925">
        <ele>3087</ele>
        <time>2021-08-05 19:57:17</time>
      </trkpt>
      <trkpt lat="37.04967" lon="-3.36924">
        <ele>3086.8</ele>
        <time>2021-08-05 19:57:18</time>
      </trkpt>
      <trkpt lat="37.04968" lon="-3.36923">
        <ele>3086.8</ele>
        <time>2021-08-05 19:57:19</time>
      </trkpt>
      <trkpt lat="37.04969" lon="-3.36923">
        <ele>3086.4</ele>
        <time>2021-08-05 19:57:20</time>
      </trkpt>
      <trkpt lat="37.0497" lon="-3.36922">
        <ele>3086.4</ele>
        <time>2021-08-05 19:57:21</time>
      </trkpt>
      <trkpt lat="37.0497" lon="-3.36921">
        <ele>3086.4</ele>
        <time>2021-08-05 19:57:22</time>
      </trkpt>
      <trkpt lat="37.0497" lon="-3.36921">
        <ele>3086.2</ele>
        <time>2021-08-05 19:57:23</time>
      </trkpt>
      <trkpt lat="37.04971" lon="-3.36922">
        <ele>3086.4</ele>
        <time>2021-08-05 19:57:24</time>
      </trkpt>
      <trkpt lat="37.04971" lon="-3.36922">
        <ele>3086.4</ele>
        <time>2021-08-05 19:57:25</time>
      </trkpt>
      <trkpt lat="37.04972" lon="-3.36923">
        <ele>3086.6</ele>
        <time>2021-08-05 19:57:26</time>
      </trkpt>
      <trkpt lat="37.04973" lon="-3.36923">
        <ele>3086.8</ele>
        <time>2021-08-05 19:57:27</time>
      </trkpt>
      <trkpt lat="37.04973" lon="-3.36923">
        <ele>3086.8</ele>
        <time>2021-08-05 19:57:28</time>
      </trkpt>
      <trkpt lat="37.04974" lon="-3.36923">
        <ele>3087</ele>
        <time>2021-08-05 19:57:29</time>
      </trkpt>
      <trkpt lat="37.04974" lon="-3.36923">
        <ele>3087</ele>
        <time>2021-08-05 19:57:30</time>
      </trkpt>
      <trkpt lat="37.04975" lon="-3.36922">
        <ele>3087</ele>
        <time>2021-08-05 19:57:31</time>
      </trkpt>
      <trkpt lat="37.04976" lon="-3.36922">
        <ele>3087</ele>
        <time>2021-08-05 19:57:32</time>
      </trkpt>
      <trkpt lat="37.04976" lon="-3.36921">
        <ele>3087</ele>
        <time>2021-08-05 19:57:33</time>
      </trkpt>
      <trkpt lat="37.04977" lon="-3.36921">
        <ele>3087.2</ele>
        <time>2021-08-05 19:57:34</time>
      </trkpt>
      <trkpt lat="37.04977" lon="-3.3692">
        <ele>3087</ele>
        <time>2021-08-05 19:57:35</time>
      </trkpt>
      <trkpt lat="37.04978" lon="-3.3692">
        <ele>3086.8</ele>
        <time>2021-08-05 19:57:36</time>
      </trkpt>
      <trkpt lat="37.04978" lon="-3.36919">
        <ele>3086.8</ele>
        <time>2021-08-05 19:57:37</time>
      </trkpt>
      <trkpt lat="37.04978" lon="-3.36918">
        <ele>3086.8</ele>
        <time>2021-08-05 19:57:38</time>
      </trkpt>
      <trkpt lat="37.04979" lon="-3.36917">
        <ele>3086.6</ele>
        <time>2021-08-05 19:57:39</time>
      </trkpt>
      <trkpt lat="37.04979" lon="-3.36916">
        <ele>3086.6</ele>
        <time>2021-08-05 19:57:40</time>
      </trkpt>
      <trkpt lat="37.0498" lon="-3.36915">
        <ele>3086.4</ele>
        <time>2021-08-05 19:57:41</time>
      </trkpt>
      <trkpt lat="37.04979" lon="-3.36913">
        <ele>3086.4</ele>
        <time>2021-08-05 19:57:42</time>
      </trkpt>
      <trkpt lat="37.0498" lon="-3.36912">
        <ele>3086.4</ele>
        <time>2021-08-05 19:57:43</time>
      </trkpt>
      <trkpt lat="37.0498" lon="-3.36912">
        <ele>3086.4</ele>
        <time>2021-08-05 19:57:44</time>
      </trkpt>
      <trkpt lat="37.04981" lon="-3.36911">
        <ele>3086.4</ele>
        <time>2021-08-05 19:57:45</time>
      </trkpt>
      <trkpt lat="37.04981" lon="-3.3691">
        <ele>3086.4</ele>
        <time>2021-08-05 19:57:46</time>
      </trkpt>
      <trkpt lat="37.04982" lon="-3.3691">
        <ele>3086.4</ele>
        <time>2021-08-05 19:57:47</time>
      </trkpt>
      <trkpt lat="37.04983" lon="-3.3691">
        <ele>3086.4</ele>
        <time>2021-08-05 19:57:48</time>
      </trkpt>
      <trkpt lat="37.04983" lon="-3.3691">
        <ele>3086.4</ele>
        <time>2021-08-05 19:57:49</time>
      </trkpt>
      <trkpt lat="37.04984" lon="-3.36909">
        <ele>3086.4</ele>
        <time>2021-08-05 19:57:50</time>
      </trkpt>
      <trkpt lat="37.04984" lon="-3.36909">
        <ele>3086.4</ele>
        <time>2021-08-05 19:57:51</time>
      </trkpt>
      <trkpt lat="37.04985" lon="-3.36909">
        <ele>3086.4</ele>
        <time>2021-08-05 19:57:52</time>
      </trkpt>
      <trkpt lat="37.04985" lon="-3.36909">
        <ele>3086.2</ele>
        <time>2021-08-05 19:57:53</time>
      </trkpt>
      <trkpt lat="37.04986" lon="-3.36909">
        <ele>3086.2</ele>
        <time>2021-08-05 19:57:54</time>
      </trkpt>
      <trkpt lat="37.04987" lon="-3.36908">
        <ele>3086.2</ele>
        <time>2021-08-05 19:57:55</time>
      </trkpt>
      <trkpt lat="37.04989" lon="-3.36908">
        <ele>3086.4</ele>
        <time>2021-08-05 19:57:56</time>
      </trkpt>
      <trkpt lat="37.04989" lon="-3.36907">
        <ele>3086.2</ele>
        <time>2021-08-05 19:57:57</time>
      </trkpt>
      <trkpt lat="37.0499" lon="-3.36906">
        <ele>3086.2</ele>
        <time>2021-08-05 19:57:58</time>
      </trkpt>
      <trkpt lat="37.04991" lon="-3.36905">
        <ele>3086.2</ele>
        <time>2021-08-05 19:57:59</time>
      </trkpt>
      <trkpt lat="37.04991" lon="-3.36904">
        <ele>3086.2</ele>
        <time>2021-08-05 19:58:00</time>
      </trkpt>
      <trkpt lat="37.04992" lon="-3.36903">
        <ele>3086.2</ele>
        <time>2021-08-05 19:58:01</time>
      </trkpt>
      <trkpt lat="37.04992" lon="-3.36902">
        <ele>3086</ele>
        <time>2021-08-05 19:58:02</time>
      </trkpt>
      <trkpt lat="37.04992" lon="-3.36901">
        <ele>3085.8</ele>
        <time>2021-08-05 19:58:03</time>
      </trkpt>
      <trkpt lat="37.04992" lon="-3.36901">
        <ele>3085.8</ele>
        <time>2021-08-05 19:58:04</time>
      </trkpt>
      <trkpt lat="37.04993" lon="-3.369">
        <ele>3085.8</ele>
        <time>2021-08-05 19:58:05</time>
      </trkpt>
      <trkpt lat="37.04993" lon="-3.369">
        <ele>3085.8</ele>
        <time>2021-08-05 19:58:06</time>
      </trkpt>
      <trkpt lat="37.04994" lon="-3.36899">
        <ele>3085.8</ele>
        <time>2021-08-05 19:58:07</time>
      </trkpt>
      <trkpt lat="37.04995" lon="-3.36899">
        <ele>3085.8</ele>
        <time>2021-08-05 19:58:08</time>
      </trkpt>
      <trkpt lat="37.04996" lon="-3.36898">
        <ele>3085.6</ele>
        <time>2021-08-05 19:58:09</time>
      </trkpt>
      <trkpt lat="37.04996" lon="-3.36897">
        <ele>3085.4</ele>
        <time>2021-08-05 19:58:10</time>
      </trkpt>
      <trkpt lat="37.04997" lon="-3.36895">
        <ele>3085.2</ele>
        <time>2021-08-05 19:58:11</time>
      </trkpt>
      <trkpt lat="37.04998" lon="-3.36894">
        <ele>3085.2</ele>
        <time>2021-08-05 19:58:12</time>
      </trkpt>
      <trkpt lat="37.04998" lon="-3.36893">
        <ele>3085.2</ele>
        <time>2021-08-05 19:58:13</time>
      </trkpt>
      <trkpt lat="37.04999" lon="-3.36892">
        <ele>3085.2</ele>
        <time>2021-08-05 19:58:14</time>
      </trkpt>
      <trkpt lat="37.04999" lon="-3.36892">
        <ele>3085.2</ele>
        <time>2021-08-05 19:58:15</time>
      </trkpt>
      <trkpt lat="37.05" lon="-3.36891">
        <ele>3085.4</ele>
        <time>2021-08-05 19:58:16</time>
      </trkpt>
      <trkpt lat="37.05" lon="-3.3689">
        <ele>3085.6</ele>
        <time>2021-08-05 19:58:17</time>
      </trkpt>
      <trkpt lat="37.05001" lon="-3.36889">
        <ele>3085.6</ele>
        <time>2021-08-05 19:58:18</time>
      </trkpt>
      <trkpt lat="37.05001" lon="-3.36888">
        <ele>3085.8</ele>
        <time>2021-08-05 19:58:19</time>
      </trkpt>
      <trkpt lat="37.05002" lon="-3.36888">
        <ele>3085.8</ele>
        <time>2021-08-05 19:58:20</time>
      </trkpt>
      <trkpt lat="37.05002" lon="-3.36887">
        <ele>3085.8</ele>
        <time>2021-08-05 19:58:21</time>
      </trkpt>
      <trkpt lat="37.05003" lon="-3.36886">
        <ele>3085.6</ele>
        <time>2021-08-05 19:58:22</time>
      </trkpt>
      <trkpt lat="37.05004" lon="-3.36885">
        <ele>3085.4</ele>
        <time>2021-08-05 19:58:23</time>
      </trkpt>
      <trkpt lat="37.05005" lon="-3.36885">
        <ele>3085.2</ele>
        <time>2021-08-05 19:58:24</time>
      </trkpt>
      <trkpt lat="37.05006" lon="-3.36884">
        <ele>3085.2</ele>
        <time>2021-08-05 19:58:25</time>
      </trkpt>
      <trkpt lat="37.05007" lon="-3.36883">
        <ele>3085.2</ele>
        <time>2021-08-05 19:58:26</time>
      </trkpt>
      <trkpt lat="37.05007" lon="-3.36883">
        <ele>3085.2</ele>
        <time>2021-08-05 19:58:27</time>
      </trkpt>
      <trkpt lat="37.05008" lon="-3.36882">
        <ele>3085.2</ele>
        <time>2021-08-05 19:58:28</time>
      </trkpt>
      <trkpt lat="37.05008" lon="-3.36881">
        <ele>3085.2</ele>
        <time>2021-08-05 19:58:29</time>
      </trkpt>
      <trkpt lat="37.05009" lon="-3.36881">
        <ele>3085.4</ele>
        <time>2021-08-05 19:58:30</time>
      </trkpt>
      <trkpt lat="37.05008" lon="-3.3688">
        <ele>3085.4</ele>
        <time>2021-08-05 19:58:31</time>
      </trkpt>
      <trkpt lat="37.05009" lon="-3.36879">
        <ele>3085.4</ele>
        <time>2021-08-05 19:58:32</time>
      </trkpt>
      <trkpt lat="37.0501" lon="-3.36879">
        <ele>3085.2</ele>
        <time>2021-08-05 19:58:33</time>
      </trkpt>
      <trkpt lat="37.05011" lon="-3.36878">
        <ele>3085.2</ele>
        <time>2021-08-05 19:58:34</time>
      </trkpt>
      <trkpt lat="37.05011" lon="-3.36879">
        <ele>3085.2</ele>
        <time>2021-08-05 19:58:35</time>
      </trkpt>
      <trkpt lat="37.05012" lon="-3.36878">
        <ele>3085.2</ele>
        <time>2021-08-05 19:58:36</time>
      </trkpt>
      <trkpt lat="37.05013" lon="-3.36878">
        <ele>3085.2</ele>
        <time>2021-08-05 19:58:37</time>
      </trkpt>
      <trkpt lat="37.05014" lon="-3.36877">
        <ele>3085.2</ele>
        <time>2021-08-05 19:58:38</time>
      </trkpt>
      <trkpt lat="37.05014" lon="-3.36878">
        <ele>3085.2</ele>
        <time>2021-08-05 19:58:39</time>
      </trkpt>
      <trkpt lat="37.05015" lon="-3.36877">
        <ele>3085.2</ele>
        <time>2021-08-05 19:58:40</time>
      </trkpt>
      <trkpt lat="37.05016" lon="-3.36877">
        <ele>3085.2</ele>
        <time>2021-08-05 19:58:41</time>
      </trkpt>
      <trkpt lat="37.05016" lon="-3.36876">
        <ele>3085.2</ele>
        <time>2021-08-05 19:58:42</time>
      </trkpt>
      <trkpt lat="37.05016" lon="-3.36875">
        <ele>3085.2</ele>
        <time>2021-08-05 19:58:43</time>
      </trkpt>
      <trkpt lat="37.05017" lon="-3.36875">
        <ele>3085.2</ele>
        <time>2021-08-05 19:58:44</time>
      </trkpt>
      <trkpt lat="37.05017" lon="-3.36874">
        <ele>3085.2</ele>
        <time>2021-08-05 19:58:45</time>
      </trkpt>
      <trkpt lat="37.05017" lon="-3.36871">
        <ele>3085.2</ele>
        <time>2021-08-05 19:58:46</time>
      </trkpt>
      <trkpt lat="37.05016" lon="-3.36869">
        <ele>3085.2</ele>
        <time>2021-08-05 19:58:47</time>
      </trkpt>
      <trkpt lat="37.05017" lon="-3.36868">
        <ele>3085.2</ele>
        <time>2021-08-05 19:58:48</time>
      </trkpt>
      <trkpt lat="37.05017" lon="-3.36867">
        <ele>3084.8</ele>
        <time>2021-08-05 19:58:49</time>
      </trkpt>
      <trkpt lat="37.05016" lon="-3.36866">
        <ele>3084.8</ele>
        <time>2021-08-05 19:58:50</time>
      </trkpt>
      <trkpt lat="37.05016" lon="-3.36864">
        <ele>3084.6</ele>
        <time>2021-08-05 19:58:51</time>
      </trkpt>
      <trkpt lat="37.05016" lon="-3.36864">
        <ele>3084.6</ele>
        <time>2021-08-05 19:58:52</time>
      </trkpt>
      <trkpt lat="37.05016" lon="-3.36862">
        <ele>3084.6</ele>
        <time>2021-08-05 19:58:53</time>
      </trkpt>
      <trkpt lat="37.05016" lon="-3.3686">
        <ele>3084.6</ele>
        <time>2021-08-05 19:58:54</time>
      </trkpt>
      <trkpt lat="37.05015" lon="-3.36858">
        <ele>3084.8</ele>
        <time>2021-08-05 19:58:55</time>
      </trkpt>
      <trkpt lat="37.05015" lon="-3.36857">
        <ele>3085</ele>
        <time>2021-08-05 19:58:56</time>
      </trkpt>
      <trkpt lat="37.05017" lon="-3.36857">
        <ele>3085</ele>
        <time>2021-08-05 19:58:57</time>
      </trkpt>
      <trkpt lat="37.05017" lon="-3.36857">
        <ele>3085.2</ele>
        <time>2021-08-05 19:58:58</time>
      </trkpt>
      <trkpt lat="37.05018" lon="-3.36856">
        <ele>3085.2</ele>
        <time>2021-08-05 19:58:59</time>
      </trkpt>
      <trkpt lat="37.05018" lon="-3.36856">
        <ele>3085.2</ele>
        <time>2021-08-05 19:59:00</time>
      </trkpt>
      <trkpt lat="37.05019" lon="-3.36855">
        <ele>3085.2</ele>
        <time>2021-08-05 19:59:01</time>
      </trkpt>
      <trkpt lat="37.05019" lon="-3.36854">
        <ele>3085.2</ele>
        <time>2021-08-05 19:59:02</time>
      </trkpt>
      <trkpt lat="37.05019" lon="-3.36853">
        <ele>3085</ele>
        <time>2021-08-05 19:59:03</time>
      </trkpt>
      <trkpt lat="37.05019" lon="-3.36851">
        <ele>3084.8</ele>
        <time>2021-08-05 19:59:04</time>
      </trkpt>
      <trkpt lat="37.0502" lon="-3.3685">
        <ele>3084.8</ele>
        <time>2021-08-05 19:59:05</time>
      </trkpt>
      <trkpt lat="37.0502" lon="-3.36849">
        <ele>3084.8</ele>
        <time>2021-08-05 19:59:06</time>
      </trkpt>
      <trkpt lat="37.05021" lon="-3.36849">
        <ele>3085</ele>
        <time>2021-08-05 19:59:07</time>
      </trkpt>
      <trkpt lat="37.05022" lon="-3.36849">
        <ele>3085.2</ele>
        <time>2021-08-05 19:59:08</time>
      </trkpt>
      <trkpt lat="37.05023" lon="-3.36849">
        <ele>3085.4</ele>
        <time>2021-08-05 19:59:09</time>
      </trkpt>
      <trkpt lat="37.05024" lon="-3.36849">
        <ele>3085.4</ele>
        <time>2021-08-05 19:59:10</time>
      </trkpt>
      <trkpt lat="37.05025" lon="-3.36849">
        <ele>3085.6</ele>
        <time>2021-08-05 19:59:11</time>
      </trkpt>
      <trkpt lat="37.05026" lon="-3.36849">
        <ele>3085.4</ele>
        <time>2021-08-05 19:59:12</time>
      </trkpt>
      <trkpt lat="37.05026" lon="-3.36848">
        <ele>3085.4</ele>
        <time>2021-08-05 19:59:13</time>
      </trkpt>
      <trkpt lat="37.05027" lon="-3.36848">
        <ele>3085.4</ele>
        <time>2021-08-05 19:59:14</time>
      </trkpt>
      <trkpt lat="37.05027" lon="-3.36847">
        <ele>3085.2</ele>
        <time>2021-08-05 19:59:15</time>
      </trkpt>
      <trkpt lat="37.05028" lon="-3.36847">
        <ele>3085.2</ele>
        <time>2021-08-05 19:59:16</time>
      </trkpt>
      <trkpt lat="37.05028" lon="-3.36845">
        <ele>3085.2</ele>
        <time>2021-08-05 19:59:17</time>
      </trkpt>
      <trkpt lat="37.05029" lon="-3.36844">
        <ele>3085.2</ele>
        <time>2021-08-05 19:59:18</time>
      </trkpt>
      <trkpt lat="37.0503" lon="-3.36844">
        <ele>3085.2</ele>
        <time>2021-08-05 19:59:19</time>
      </trkpt>
      <trkpt lat="37.05031" lon="-3.36843">
        <ele>3085.2</ele>
        <time>2021-08-05 19:59:20</time>
      </trkpt>
      <trkpt lat="37.05032" lon="-3.36843">
        <ele>3085.4</ele>
        <time>2021-08-05 19:59:21</time>
      </trkpt>
      <trkpt lat="37.05032" lon="-3.36843">
        <ele>3085.6</ele>
        <time>2021-08-05 19:59:22</time>
      </trkpt>
      <trkpt lat="37.05033" lon="-3.36843">
        <ele>3085.6</ele>
        <time>2021-08-05 19:59:23</time>
      </trkpt>
      <trkpt lat="37.05033" lon="-3.36842">
        <ele>3085.6</ele>
        <time>2021-08-05 19:59:24</time>
      </trkpt>
      <trkpt lat="37.05034" lon="-3.36843">
        <ele>3085.6</ele>
        <time>2021-08-05 19:59:25</time>
      </trkpt>
      <trkpt lat="37.05035" lon="-3.36842">
        <ele>3085.2</ele>
        <time>2021-08-05 19:59:26</time>
      </trkpt>
      <trkpt lat="37.05035" lon="-3.36841">
        <ele>3085.2</ele>
        <time>2021-08-05 19:59:27</time>
      </trkpt>
      <trkpt lat="37.05035" lon="-3.3684">
        <ele>3085</ele>
        <time>2021-08-05 19:59:28</time>
      </trkpt>
      <trkpt lat="37.05034" lon="-3.36838">
        <ele>3085</ele>
        <time>2021-08-05 19:59:29</time>
      </trkpt>
      <trkpt lat="37.05034" lon="-3.36838">
        <ele>3085</ele>
        <time>2021-08-05 19:59:30</time>
      </trkpt>
      <trkpt lat="37.05034" lon="-3.36837">
        <ele>3085</ele>
        <time>2021-08-05 19:59:31</time>
      </trkpt>
      <trkpt lat="37.05034" lon="-3.36837">
        <ele>3085.2</ele>
        <time>2021-08-05 19:59:32</time>
      </trkpt>
      <trkpt lat="37.05035" lon="-3.36837">
        <ele>3085.4</ele>
        <time>2021-08-05 19:59:33</time>
      </trkpt>
      <trkpt lat="37.05036" lon="-3.36837">
        <ele>3085.6</ele>
        <time>2021-08-05 19:59:34</time>
      </trkpt>
      <trkpt lat="37.05036" lon="-3.36837">
        <ele>3085.6</ele>
        <time>2021-08-05 19:59:35</time>
      </trkpt>
      <trkpt lat="37.05036" lon="-3.36838">
        <ele>3085.6</ele>
        <time>2021-08-05 19:59:36</time>
      </trkpt>
      <trkpt lat="37.05036" lon="-3.36838">
        <ele>3085.6</ele>
        <time>2021-08-05 19:59:37</time>
      </trkpt>
      <trkpt lat="37.05037" lon="-3.36837">
        <ele>3085.6</ele>
        <time>2021-08-05 19:59:38</time>
      </trkpt>
      <trkpt lat="37.05037" lon="-3.36837">
        <ele>3085.8</ele>
        <time>2021-08-05 19:59:39</time>
      </trkpt>
      <trkpt lat="37.05038" lon="-3.36838">
        <ele>3085.8</ele>
        <time>2021-08-05 19:59:40</time>
      </trkpt>
      <trkpt lat="37.05038" lon="-3.36838">
        <ele>3085.8</ele>
        <time>2021-08-05 19:59:41</time>
      </trkpt>
      <trkpt lat="37.05038" lon="-3.36838">
        <ele>3085.6</ele>
        <time>2021-08-05 19:59:42</time>
      </trkpt>
      <trkpt lat="37.05039" lon="-3.36838">
        <ele>3085.6</ele>
        <time>2021-08-05 19:59:43</time>
      </trkpt>
      <trkpt lat="37.0504" lon="-3.36837">
        <ele>3085.6</ele>
        <time>2021-08-05 19:59:44</time>
      </trkpt>
      <trkpt lat="37.0504" lon="-3.36837">
        <ele>3085.6</ele>
        <time>2021-08-05 19:59:45</time>
      </trkpt>
      <trkpt lat="37.05042" lon="-3.36838">
        <ele>3085.6</ele>
        <time>2021-08-05 19:59:46</time>
      </trkpt>
      <trkpt lat="37.05043" lon="-3.36838">
        <ele>3085.6</ele>
        <time>2021-08-05 19:59:47</time>
      </trkpt>
      <trkpt lat="37.05043" lon="-3.36837">
        <ele>3085.6</ele>
        <time>2021-08-05 19:59:48</time>
      </trkpt>
      <trkpt lat="37.05044" lon="-3.36836">
        <ele>3085.6</ele>
        <time>2021-08-05 19:59:49</time>
      </trkpt>
      <trkpt lat="37.05046" lon="-3.36839">
        <ele>3085.6</ele>
        <time>2021-08-05 19:59:50</time>
      </trkpt>
      <trkpt lat="37.05047" lon="-3.3684">
        <ele>3085.6</ele>
        <time>2021-08-05 19:59:51</time>
      </trkpt>
      <trkpt lat="37.05048" lon="-3.36841">
        <ele>3085.8</ele>
        <time>2021-08-05 19:59:52</time>
      </trkpt>
      <trkpt lat="37.05047" lon="-3.3684">
        <ele>3085.8</ele>
        <time>2021-08-05 19:59:53</time>
      </trkpt>
      <trkpt lat="37.05047" lon="-3.3684">
        <ele>3086</ele>
        <time>2021-08-05 19:59:54</time>
      </trkpt>
      <trkpt lat="37.05048" lon="-3.3684">
        <ele>3086</ele>
        <time>2021-08-05 19:59:55</time>
      </trkpt>
      <trkpt lat="37.05047" lon="-3.36838">
        <ele>3086.2</ele>
        <time>2021-08-05 19:59:56</time>
      </trkpt>
      <trkpt lat="37.05047" lon="-3.36836">
        <ele>3086.2</ele>
        <time>2021-08-05 19:59:57</time>
      </trkpt>
      <trkpt lat="37.05047" lon="-3.36835">
        <ele>3086.4</ele>
        <time>2021-08-05 19:59:58</time>
      </trkpt>
      <trkpt lat="37.05047" lon="-3.36835">
        <ele>3086.4</ele>
        <time>2021-08-05 19:59:59</time>
      </trkpt>
      <trkpt lat="37.05047" lon="-3.36834">
        <ele>3086.4</ele>
        <time>2021-08-05 20:00:00</time>
      </trkpt>
      <trkpt lat="37.05046" lon="-3.36832">
        <ele>3086.4</ele>
        <time>2021-08-05 20:00:01</time>
      </trkpt>
      <trkpt lat="37.05046" lon="-3.36832">
        <ele>3086.6</ele>
        <time>2021-08-05 20:00:02</time>
      </trkpt>
      <trkpt lat="37.05047" lon="-3.36833">
        <ele>3086.6</ele>
        <time>2021-08-05 20:00:03</time>
      </trkpt>
      <trkpt lat="37.05048" lon="-3.36834">
        <ele>3086.6</ele>
        <time>2021-08-05 20:00:04</time>
      </trkpt>
      <trkpt lat="37.05049" lon="-3.36834">
        <ele>3086.6</ele>
        <time>2021-08-05 20:00:05</time>
      </trkpt>
      <trkpt lat="37.0505" lon="-3.36833">
        <ele>3086.6</ele>
        <time>2021-08-05 20:00:06</time>
      </trkpt>
      <trkpt lat="37.0505" lon="-3.3683">
        <ele>3086.6</ele>
        <time>2021-08-05 20:00:07</time>
      </trkpt>
      <trkpt lat="37.0505" lon="-3.36829">
        <ele>3086.6</ele>
        <time>2021-08-05 20:00:08</time>
      </trkpt>
      <trkpt lat="37.05049" lon="-3.36827">
        <ele>3086.4</ele>
        <time>2021-08-05 20:00:09</time>
      </trkpt>
      <trkpt lat="37.0505" lon="-3.36827">
        <ele>3086.4</ele>
        <time>2021-08-05 20:00:10</time>
      </trkpt>
      <trkpt lat="37.05049" lon="-3.36827">
        <ele>3086.4</ele>
        <time>2021-08-05 20:00:11</time>
      </trkpt>
      <trkpt lat="37.05049" lon="-3.36826">
        <ele>3086.4</ele>
        <time>2021-08-05 20:00:12</time>
      </trkpt>
      <trkpt lat="37.05049" lon="-3.36825">
        <ele>3086.4</ele>
        <time>2021-08-05 20:00:13</time>
      </trkpt>
      <trkpt lat="37.0505" lon="-3.36825">
        <ele>3086.4</ele>
        <time>2021-08-05 20:00:14</time>
      </trkpt>
      <trkpt lat="37.05051" lon="-3.36824">
        <ele>3086.4</ele>
        <time>2021-08-05 20:00:15</time>
      </trkpt>
      <trkpt lat="37.05051" lon="-3.36823">
        <ele>3086.4</ele>
        <time>2021-08-05 20:00:16</time>
      </trkpt>
      <trkpt lat="37.05051" lon="-3.36821">
        <ele>3086.6</ele>
        <time>2021-08-05 20:00:17</time>
      </trkpt>
      <trkpt lat="37.05051" lon="-3.36818">
        <ele>3086.4</ele>
        <time>2021-08-05 20:00:18</time>
      </trkpt>
      <trkpt lat="37.05052" lon="-3.36816">
        <ele>3086.6</ele>
        <time>2021-08-05 20:00:19</time>
      </trkpt>
      <trkpt lat="37.05052" lon="-3.36815">
        <ele>3086.6</ele>
        <time>2021-08-05 20:00:20</time>
      </trkpt>
      <trkpt lat="37.05052" lon="-3.36813">
        <ele>3086.6</ele>
        <time>2021-08-05 20:00:21</time>
      </trkpt>
      <trkpt lat="37.05052" lon="-3.36811">
        <ele>3086.6</ele>
        <time>2021-08-05 20:00:22</time>
      </trkpt>
      <trkpt lat="37.05053" lon="-3.36809">
        <ele>3086.6</ele>
        <time>2021-08-05 20:00:23</time>
      </trkpt>
      <trkpt lat="37.05053" lon="-3.36807">
        <ele>3086.6</ele>
        <time>2021-08-05 20:00:24</time>
      </trkpt>
      <trkpt lat="37.05053" lon="-3.36805">
        <ele>3086.6</ele>
        <time>2021-08-05 20:00:25</time>
      </trkpt>
      <trkpt lat="37.05053" lon="-3.36804">
        <ele>3086.4</ele>
        <time>2021-08-05 20:00:26</time>
      </trkpt>
      <trkpt lat="37.05054" lon="-3.36805">
        <ele>3086.2</ele>
        <time>2021-08-05 20:00:27</time>
      </trkpt>
      <trkpt lat="37.05055" lon="-3.36805">
        <ele>3086</ele>
        <time>2021-08-05 20:00:28</time>
      </trkpt>
      <trkpt lat="37.05055" lon="-3.36803">
        <ele>3085.8</ele>
        <time>2021-08-05 20:00:29</time>
      </trkpt>
      <trkpt lat="37.05055" lon="-3.36801">
        <ele>3085.8</ele>
        <time>2021-08-05 20:00:30</time>
      </trkpt>
      <trkpt lat="37.05055" lon="-3.36799">
        <ele>3085.8</ele>
        <time>2021-08-05 20:00:31</time>
      </trkpt>
      <trkpt lat="37.05056" lon="-3.36798">
        <ele>3086.2</ele>
        <time>2021-08-05 20:00:32</time>
      </trkpt>
      <trkpt lat="37.05056" lon="-3.36798">
        <ele>3086.4</ele>
        <time>2021-08-05 20:00:33</time>
      </trkpt>
      <trkpt lat="37.05057" lon="-3.36797">
        <ele>3086.4</ele>
        <time>2021-08-05 20:00:34</time>
      </trkpt>
      <trkpt lat="37.05058" lon="-3.36798">
        <ele>3086.6</ele>
        <time>2021-08-05 20:00:35</time>
      </trkpt>
      <trkpt lat="37.05059" lon="-3.36799">
        <ele>3086.6</ele>
        <time>2021-08-05 20:00:36</time>
      </trkpt>
      <trkpt lat="37.0506" lon="-3.36798">
        <ele>3086.4</ele>
        <time>2021-08-05 20:00:37</time>
      </trkpt>
      <trkpt lat="37.0506" lon="-3.36797">
        <ele>3086.4</ele>
        <time>2021-08-05 20:00:38</time>
      </trkpt>
      <trkpt lat="37.05061" lon="-3.36797">
        <ele>3086.4</ele>
        <time>2021-08-05 20:00:39</time>
      </trkpt>
      <trkpt lat="37.05061" lon="-3.36796">
        <ele>3086.4</ele>
        <time>2021-08-05 20:00:40</time>
      </trkpt>
      <trkpt lat="37.05062" lon="-3.36795">
        <ele>3086.4</ele>
        <time>2021-08-05 20:00:41</time>
      </trkpt>
      <trkpt lat="37.05062" lon="-3.36794">
        <ele>3086.4</ele>
        <time>2021-08-05 20:00:42</time>
      </trkpt>
      <trkpt lat="37.05063" lon="-3.36794">
        <ele>3086.4</ele>
        <time>2021-08-05 20:00:43</time>
      </trkpt>
      <trkpt lat="37.05064" lon="-3.36793">
        <ele>3086.4</ele>
        <time>2021-08-05 20:00:44</time>
      </trkpt>
      <trkpt lat="37.05064" lon="-3.36792">
        <ele>3086.4</ele>
        <time>2021-08-05 20:00:45</time>
      </trkpt>
      <trkpt lat="37.05063" lon="-3.3679">
        <ele>3086.4</ele>
        <time>2021-08-05 20:00:46</time>
      </trkpt>
      <trkpt lat="37.05064" lon="-3.36788">
        <ele>3086.6</ele>
        <time>2021-08-05 20:00:47</time>
      </trkpt>
      <trkpt lat="37.05064" lon="-3.36787">
        <ele>3086.6</ele>
        <time>2021-08-05 20:00:48</time>
      </trkpt>
      <trkpt lat="37.05065" lon="-3.36787">
        <ele>3086.6</ele>
        <time>2021-08-05 20:00:49</time>
      </trkpt>
      <trkpt lat="37.05066" lon="-3.36787">
        <ele>3086.6</ele>
        <time>2021-08-05 20:00:50</time>
      </trkpt>
      <trkpt lat="37.05066" lon="-3.36787">
        <ele>3086.6</ele>
        <time>2021-08-05 20:00:51</time>
      </trkpt>
      <trkpt lat="37.05067" lon="-3.36787">
        <ele>3086.6</ele>
        <time>2021-08-05 20:00:52</time>
      </trkpt>
      <trkpt lat="37.05067" lon="-3.36788">
        <ele>3086.6</ele>
        <time>2021-08-05 20:00:53</time>
      </trkpt>
      <trkpt lat="37.05068" lon="-3.36788">
        <ele>3086.6</ele>
        <time>2021-08-05 20:00:54</time>
      </trkpt>
      <trkpt lat="37.0507" lon="-3.36789">
        <ele>3086.6</ele>
        <time>2021-08-05 20:00:55</time>
      </trkpt>
      <trkpt lat="37.0507" lon="-3.36788">
        <ele>3086.6</ele>
        <time>2021-08-05 20:00:56</time>
      </trkpt>
      <trkpt lat="37.05071" lon="-3.36789">
        <ele>3086.6</ele>
        <time>2021-08-05 20:00:57</time>
      </trkpt>
      <trkpt lat="37.05071" lon="-3.36788">
        <ele>3086.4</ele>
        <time>2021-08-05 20:00:58</time>
      </trkpt>
      <trkpt lat="37.05072" lon="-3.36787">
        <ele>3086.2</ele>
        <time>2021-08-05 20:00:59</time>
      </trkpt>
      <trkpt lat="37.05073" lon="-3.36786">
        <ele>3086.2</ele>
        <time>2021-08-05 20:01:00</time>
      </trkpt>
      <trkpt lat="37.05074" lon="-3.36786">
        <ele>3086.4</ele>
        <time>2021-08-05 20:01:01</time>
      </trkpt>
      <trkpt lat="37.05075" lon="-3.36786">
        <ele>3086.4</ele>
        <time>2021-08-05 20:01:02</time>
      </trkpt>
      <trkpt lat="37.05076" lon="-3.36786">
        <ele>3086.6</ele>
        <time>2021-08-05 20:01:03</time>
      </trkpt>
      <trkpt lat="37.05077" lon="-3.36786">
        <ele>3086.4</ele>
        <time>2021-08-05 20:01:04</time>
      </trkpt>
      <trkpt lat="37.05078" lon="-3.36785">
        <ele>3086.6</ele>
        <time>2021-08-05 20:01:05</time>
      </trkpt>
      <trkpt lat="37.05078" lon="-3.36785">
        <ele>3086.6</ele>
        <time>2021-08-05 20:01:06</time>
      </trkpt>
      <trkpt lat="37.05078" lon="-3.36783">
        <ele>3086.6</ele>
        <time>2021-08-05 20:01:07</time>
      </trkpt>
      <trkpt lat="37.05079" lon="-3.36783">
        <ele>3086.6</ele>
        <time>2021-08-05 20:01:08</time>
      </trkpt>
      <trkpt lat="37.05079" lon="-3.36782">
        <ele>3086.8</ele>
        <time>2021-08-05 20:01:09</time>
      </trkpt>
      <trkpt lat="37.05079" lon="-3.36781">
        <ele>3086.8</ele>
        <time>2021-08-05 20:01:10</time>
      </trkpt>
      <trkpt lat="37.05078" lon="-3.3678">
        <ele>3087</ele>
        <time>2021-08-05 20:01:11</time>
      </trkpt>
      <trkpt lat="37.05078" lon="-3.36779">
        <ele>3087.2</ele>
        <time>2021-08-05 20:01:12</time>
      </trkpt>
      <trkpt lat="37.05078" lon="-3.36779">
        <ele>3087.2</ele>
        <time>2021-08-05 20:01:13</time>
      </trkpt>
      <trkpt lat="37.05078" lon="-3.36778">
        <ele>3087.2</ele>
        <time>2021-08-05 20:01:14</time>
      </trkpt>
      <trkpt lat="37.05077" lon="-3.36776">
        <ele>3087.2</ele>
        <time>2021-08-05 20:01:15</time>
      </trkpt>
      <trkpt lat="37.05077" lon="-3.36776">
        <ele>3087</ele>
        <time>2021-08-05 20:01:16</time>
      </trkpt>
      <trkpt lat="37.05076" lon="-3.36775">
        <ele>3087.2</ele>
        <time>2021-08-05 20:01:17</time>
      </trkpt>
      <trkpt lat="37.05076" lon="-3.36774">
        <ele>3087.2</ele>
        <time>2021-08-05 20:01:18</time>
      </trkpt>
      <trkpt lat="37.05075" lon="-3.36773">
        <ele>3087.2</ele>
        <time>2021-08-05 20:01:19</time>
      </trkpt>
      <trkpt lat="37.05076" lon="-3.36771">
        <ele>3087.4</ele>
        <time>2021-08-05 20:01:20</time>
      </trkpt>
      <trkpt lat="37.05076" lon="-3.36771">
        <ele>3087.4</ele>
        <time>2021-08-05 20:01:21</time>
      </trkpt>
      <trkpt lat="37.05077" lon="-3.3677">
        <ele>3087.6</ele>
        <time>2021-08-05 20:01:22</time>
      </trkpt>
      <trkpt lat="37.05077" lon="-3.3677">
        <ele>3087.6</ele>
        <time>2021-08-05 20:01:23</time>
      </trkpt>
      <trkpt lat="37.05078" lon="-3.36769">
        <ele>3087.6</ele>
        <time>2021-08-05 20:01:24</time>
      </trkpt>
      <trkpt lat="37.05078" lon="-3.36767">
        <ele>3087.6</ele>
        <time>2021-08-05 20:01:25</time>
      </trkpt>
      <trkpt lat="37.05078" lon="-3.36765">
        <ele>3087.6</ele>
        <time>2021-08-05 20:01:26</time>
      </trkpt>
      <trkpt lat="37.05079" lon="-3.36763">
        <ele>3087.4</ele>
        <time>2021-08-05 20:01:27</time>
      </trkpt>
      <trkpt lat="37.0508" lon="-3.36762">
        <ele>3087.4</ele>
        <time>2021-08-05 20:01:28</time>
      </trkpt>
      <trkpt lat="37.0508" lon="-3.36761">
        <ele>3087.2</ele>
        <time>2021-08-05 20:01:29</time>
      </trkpt>
      <trkpt lat="37.05081" lon="-3.3676">
        <ele>3087.2</ele>
        <time>2021-08-05 20:01:30</time>
      </trkpt>
      <trkpt lat="37.05081" lon="-3.36759">
        <ele>3087.2</ele>
        <time>2021-08-05 20:01:31</time>
      </trkpt>
      <trkpt lat="37.05082" lon="-3.36758">
        <ele>3087.2</ele>
        <time>2021-08-05 20:01:32</time>
      </trkpt>
      <trkpt lat="37.05083" lon="-3.36758">
        <ele>3087.6</ele>
        <time>2021-08-05 20:01:33</time>
      </trkpt>
      <trkpt lat="37.05084" lon="-3.36757">
        <ele>3088</ele>
        <time>2021-08-05 20:01:34</time>
      </trkpt>
      <trkpt lat="37.05085" lon="-3.36756">
        <ele>3088</ele>
        <time>2021-08-05 20:01:35</time>
      </trkpt>
      <trkpt lat="37.05086" lon="-3.36756">
        <ele>3088.2</ele>
        <time>2021-08-05 20:01:36</time>
      </trkpt>
      <trkpt lat="37.05088" lon="-3.36758">
        <ele>3088.2</ele>
        <time>2021-08-05 20:01:37</time>
      </trkpt>
      <trkpt lat="37.0509" lon="-3.3676">
        <ele>3088</ele>
        <time>2021-08-05 20:01:38</time>
      </trkpt>
      <trkpt lat="37.05091" lon="-3.3676">
        <ele>3087.8</ele>
        <time>2021-08-05 20:01:39</time>
      </trkpt>
      <trkpt lat="37.05091" lon="-3.36758">
        <ele>3087.8</ele>
        <time>2021-08-05 20:01:40</time>
      </trkpt>
      <trkpt lat="37.05091" lon="-3.36756">
        <ele>3087.8</ele>
        <time>2021-08-05 20:01:41</time>
      </trkpt>
      <trkpt lat="37.05092" lon="-3.36755">
        <ele>3087.6</ele>
        <time>2021-08-05 20:01:42</time>
      </trkpt>
      <trkpt lat="37.05094" lon="-3.36756">
        <ele>3087.6</ele>
        <time>2021-08-05 20:01:43</time>
      </trkpt>
      <trkpt lat="37.05096" lon="-3.36756">
        <ele>3087.8</ele>
        <time>2021-08-05 20:01:44</time>
      </trkpt>
      <trkpt lat="37.05097" lon="-3.36755">
        <ele>3087.8</ele>
        <time>2021-08-05 20:01:45</time>
      </trkpt>
      <trkpt lat="37.05098" lon="-3.36754">
        <ele>3088</ele>
        <time>2021-08-05 20:01:46</time>
      </trkpt>
      <trkpt lat="37.051" lon="-3.36754">
        <ele>3088</ele>
        <time>2021-08-05 20:01:47</time>
      </trkpt>
      <trkpt lat="37.05101" lon="-3.36754">
        <ele>3088.2</ele>
        <time>2021-08-05 20:01:48</time>
      </trkpt>
      <trkpt lat="37.05102" lon="-3.36753">
        <ele>3088.2</ele>
        <time>2021-08-05 20:01:49</time>
      </trkpt>
      <trkpt lat="37.05103" lon="-3.36752">
        <ele>3088.2</ele>
        <time>2021-08-05 20:01:50</time>
      </trkpt>
      <trkpt lat="37.05103" lon="-3.36752">
        <ele>3088.2</ele>
        <time>2021-08-05 20:01:51</time>
      </trkpt>
      <trkpt lat="37.05104" lon="-3.36751">
        <ele>3088.4</ele>
        <time>2021-08-05 20:01:52</time>
      </trkpt>
      <trkpt lat="37.05105" lon="-3.36751">
        <ele>3088.4</ele>
        <time>2021-08-05 20:01:53</time>
      </trkpt>
      <trkpt lat="37.05105" lon="-3.36751">
        <ele>3088.4</ele>
        <time>2021-08-05 20:01:54</time>
      </trkpt>
      <trkpt lat="37.05105" lon="-3.36751">
        <ele>3088.6</ele>
        <time>2021-08-05 20:01:55</time>
      </trkpt>
      <trkpt lat="37.05104" lon="-3.3675">
        <ele>3088.6</ele>
        <time>2021-08-05 20:01:56</time>
      </trkpt>
      <trkpt lat="37.05104" lon="-3.3675">
        <ele>3088.6</ele>
        <time>2021-08-05 20:01:57</time>
      </trkpt>
      <trkpt lat="37.05103" lon="-3.3675">
        <ele>3088.4</ele>
        <time>2021-08-05 20:01:58</time>
      </trkpt>
      <trkpt lat="37.05102" lon="-3.36751">
        <ele>3088.2</ele>
        <time>2021-08-05 20:01:59</time>
      </trkpt>
      <trkpt lat="37.05102" lon="-3.36752">
        <ele>3088</ele>
        <time>2021-08-05 20:02:00</time>
      </trkpt>
      <trkpt lat="37.05101" lon="-3.36752">
        <ele>3087.8</ele>
        <time>2021-08-05 20:02:01</time>
      </trkpt>
      <trkpt lat="37.05101" lon="-3.36751">
        <ele>3087.8</ele>
        <time>2021-08-05 20:02:02</time>
      </trkpt>
      <trkpt lat="37.05101" lon="-3.36749">
        <ele>3087.8</ele>
        <time>2021-08-05 20:02:03</time>
      </trkpt>
      <trkpt lat="37.05102" lon="-3.36748">
        <ele>3088</ele>
        <time>2021-08-05 20:02:04</time>
      </trkpt>
      <trkpt lat="37.05102" lon="-3.36746">
        <ele>3088</ele>
        <time>2021-08-05 20:02:05</time>
      </trkpt>
      <trkpt lat="37.05102" lon="-3.36745">
        <ele>3088.2</ele>
        <time>2021-08-05 20:02:06</time>
      </trkpt>
      <trkpt lat="37.05103" lon="-3.36744">
        <ele>3088.2</ele>
        <time>2021-08-05 20:02:07</time>
      </trkpt>
      <trkpt lat="37.05103" lon="-3.36742">
        <ele>3088.2</ele>
        <time>2021-08-05 20:02:08</time>
      </trkpt>
      <trkpt lat="37.05103" lon="-3.36741">
        <ele>3088.2</ele>
        <time>2021-08-05 20:02:09</time>
      </trkpt>
      <trkpt lat="37.05103" lon="-3.3674">
        <ele>3088</ele>
        <time>2021-08-05 20:02:10</time>
      </trkpt>
      <trkpt lat="37.05104" lon="-3.36739">
        <ele>3088</ele>
        <time>2021-08-05 20:02:11</time>
      </trkpt>
      <trkpt lat="37.05104" lon="-3.36737">
        <ele>3088</ele>
        <time>2021-08-05 20:02:12</time>
      </trkpt>
      <trkpt lat="37.05105" lon="-3.36736">
        <ele>3087.8</ele>
        <time>2021-08-05 20:02:13</time>
      </trkpt>
      <trkpt lat="37.05104" lon="-3.36735">
        <ele>3087.8</ele>
        <time>2021-08-05 20:02:14</time>
      </trkpt>
      <trkpt lat="37.05105" lon="-3.36734">
        <ele>3087.8</ele>
        <time>2021-08-05 20:02:15</time>
      </trkpt>
      <trkpt lat="37.05106" lon="-3.36733">
        <ele>3087.8</ele>
        <time>2021-08-05 20:02:16</time>
      </trkpt>
      <trkpt lat="37.05107" lon="-3.36732">
        <ele>3087.8</ele>
        <time>2021-08-05 20:02:17</time>
      </trkpt>
      <trkpt lat="37.05107" lon="-3.3673">
        <ele>3088.2</ele>
        <time>2021-08-05 20:02:18</time>
      </trkpt>
      <trkpt lat="37.05107" lon="-3.36729">
        <ele>3088.2</ele>
        <time>2021-08-05 20:02:19</time>
      </trkpt>
      <trkpt lat="37.05106" lon="-3.36728">
        <ele>3088</ele>
        <time>2021-08-05 20:02:20</time>
      </trkpt>
      <trkpt lat="37.05106" lon="-3.36727">
        <ele>3088</ele>
        <time>2021-08-05 20:02:21</time>
      </trkpt>
      <trkpt lat="37.05105" lon="-3.36725">
        <ele>3088</ele>
        <time>2021-08-05 20:02:22</time>
      </trkpt>
      <trkpt lat="37.05105" lon="-3.36724">
        <ele>3088</ele>
        <time>2021-08-05 20:02:23</time>
      </trkpt>
      <trkpt lat="37.05105" lon="-3.36723">
        <ele>3087.8</ele>
        <time>2021-08-05 20:02:24</time>
      </trkpt>
      <trkpt lat="37.05107" lon="-3.36722">
        <ele>3087.8</ele>
        <time>2021-08-05 20:02:25</time>
      </trkpt>
      <trkpt lat="37.05108" lon="-3.36721">
        <ele>3087.6</ele>
        <time>2021-08-05 20:02:26</time>
      </trkpt>
      <trkpt lat="37.05109" lon="-3.36721">
        <ele>3087.6</ele>
        <time>2021-08-05 20:02:27</time>
      </trkpt>
      <trkpt lat="37.0511" lon="-3.36721">
        <ele>3087.8</ele>
        <time>2021-08-05 20:02:28</time>
      </trkpt>
      <trkpt lat="37.05111" lon="-3.36722">
        <ele>3088</ele>
        <time>2021-08-05 20:02:29</time>
      </trkpt>
      <trkpt lat="37.05111" lon="-3.36721">
        <ele>3088</ele>
        <time>2021-08-05 20:02:30</time>
      </trkpt>
      <trkpt lat="37.05112" lon="-3.36722">
        <ele>3088</ele>
        <time>2021-08-05 20:02:31</time>
      </trkpt>
      <trkpt lat="37.05112" lon="-3.36722">
        <ele>3088</ele>
        <time>2021-08-05 20:02:32</time>
      </trkpt>
      <trkpt lat="37.05112" lon="-3.36721">
        <ele>3087.8</ele>
        <time>2021-08-05 20:02:33</time>
      </trkpt>
      <trkpt lat="37.05112" lon="-3.36721">
        <ele>3087.6</ele>
        <time>2021-08-05 20:02:34</time>
      </trkpt>
      <trkpt lat="37.05111" lon="-3.36721">
        <ele>3087.6</ele>
        <time>2021-08-05 20:02:35</time>
      </trkpt>
      <trkpt lat="37.05109" lon="-3.36722">
        <ele>3087.8</ele>
        <time>2021-08-05 20:02:36</time>
      </trkpt>
      <trkpt lat="37.05108" lon="-3.36723">
        <ele>3087.8</ele>
        <time>2021-08-05 20:02:37</time>
      </trkpt>
      <trkpt lat="37.05108" lon="-3.36724">
        <ele>3087.8</ele>
        <time>2021-08-05 20:02:38</time>
      </trkpt>
      <trkpt lat="37.05108" lon="-3.36724">
        <ele>3087.8</ele>
        <time>2021-08-05 20:02:39</time>
      </trkpt>
      <trkpt lat="37.05109" lon="-3.36725">
        <ele>3087.8</ele>
        <time>2021-08-05 20:02:40</time>
      </trkpt>
      <trkpt lat="37.05109" lon="-3.36725">
        <ele>3088</ele>
        <time>2021-08-05 20:02:41</time>
      </trkpt>
      <trkpt lat="37.0511" lon="-3.36725">
        <ele>3088</ele>
        <time>2021-08-05 20:02:42</time>
      </trkpt>
      <trkpt lat="37.0511" lon="-3.36725">
        <ele>3088.2</ele>
        <time>2021-08-05 20:02:43</time>
      </trkpt>
      <trkpt lat="37.05111" lon="-3.36725">
        <ele>3088.2</ele>
        <time>2021-08-05 20:02:44</time>
      </trkpt>
      <trkpt lat="37.05111" lon="-3.36725">
        <ele>3088.2</ele>
        <time>2021-08-05 20:02:45</time>
      </trkpt>
      <trkpt lat="37.05111" lon="-3.36724">
        <ele>3088.2</ele>
        <time>2021-08-05 20:02:46</time>
      </trkpt>
      <trkpt lat="37.05113" lon="-3.36724">
        <ele>3088</ele>
        <time>2021-08-05 20:02:47</time>
      </trkpt>
      <trkpt lat="37.05113" lon="-3.36724">
        <ele>3088</ele>
        <time>2021-08-05 20:02:48</time>
      </trkpt>
      <trkpt lat="37.05113" lon="-3.36723">
        <ele>3088</ele>
        <time>2021-08-05 20:02:49</time>
      </trkpt>
      <trkpt lat="37.05113" lon="-3.36723">
        <ele>3088</ele>
        <time>2021-08-05 20:02:50</time>
      </trkpt>
      <trkpt lat="37.05113" lon="-3.36723">
        <ele>3088</ele>
        <time>2021-08-05 20:02:51</time>
      </trkpt>
      <trkpt lat="37.05113" lon="-3.36723">
        <ele>3088.2</ele>
        <time>2021-08-05 20:02:52</time>
      </trkpt>
      <trkpt lat="37.05113" lon="-3.36723">
        <ele>3088.2</ele>
        <time>2021-08-05 20:02:53</time>
      </trkpt>
      <trkpt lat="37.05112" lon="-3.36723">
        <ele>3088.2</ele>
        <time>2021-08-05 20:02:54</time>
      </trkpt>
      <trkpt lat="37.05112" lon="-3.36723">
        <ele>3088.2</ele>
        <time>2021-08-05 20:02:55</time>
      </trkpt>
      <trkpt lat="37.05111" lon="-3.36722">
        <ele>3088.4</ele>
        <time>2021-08-05 20:02:56</time>
      </trkpt>
      <trkpt lat="37.05111" lon="-3.36721">
        <ele>3088.4</ele>
        <time>2021-08-05 20:02:57</time>
      </trkpt>
      <trkpt lat="37.05109" lon="-3.36718">
        <ele>3088.4</ele>
        <time>2021-08-05 20:02:58</time>
      </trkpt>
      <trkpt lat="37.05109" lon="-3.36717">
        <ele>3088.2</ele>
        <time>2021-08-05 20:02:59</time>
      </trkpt>
      <trkpt lat="37.05109" lon="-3.36715">
        <ele>3088.2</ele>
        <time>2021-08-05 20:03:00</time>
      </trkpt>
      <trkpt lat="37.05108" lon="-3.36714">
        <ele>3088.2</ele>
        <time>2021-08-05 20:03:01</time>
      </trkpt>
      <trkpt lat="37.05108" lon="-3.36714">
        <ele>3088.4</ele>
        <time>2021-08-05 20:03:02</time>
      </trkpt>
      <trkpt lat="37.05109" lon="-3.36714">
        <ele>3088.2</ele>
        <time>2021-08-05 20:03:03</time>
      </trkpt>
      <trkpt lat="37.05111" lon="-3.36714">
        <ele>3088.4</ele>
        <time>2021-08-05 20:03:04</time>
      </trkpt>
      <trkpt lat="37.05112" lon="-3.36714">
        <ele>3088.4</ele>
        <time>2021-08-05 20:03:05</time>
      </trkpt>
      <trkpt lat="37.05113" lon="-3.36714">
        <ele>3088.4</ele>
        <time>2021-08-05 20:03:06</time>
      </trkpt>
      <trkpt lat="37.05114" lon="-3.36714">
        <ele>3088.2</ele>
        <time>2021-08-05 20:03:07</time>
      </trkpt>
      <trkpt lat="37.05113" lon="-3.36714">
        <ele>3088.2</ele>
        <time>2021-08-05 20:03:08</time>
      </trkpt>
      <trkpt lat="37.05113" lon="-3.36714">
        <ele>3088.2</ele>
        <time>2021-08-05 20:03:09</time>
      </trkpt>
      <trkpt lat="37.05112" lon="-3.36713">
        <ele>3088.2</ele>
        <time>2021-08-05 20:03:10</time>
      </trkpt>
      <trkpt lat="37.05111" lon="-3.36712">
        <ele>3088</ele>
        <time>2021-08-05 20:03:11</time>
      </trkpt>
      <trkpt lat="37.05112" lon="-3.36713">
        <ele>3088</ele>
        <time>2021-08-05 20:03:12</time>
      </trkpt>
      <trkpt lat="37.05112" lon="-3.36714">
        <ele>3088</ele>
        <time>2021-08-05 20:03:13</time>
      </trkpt>
      <trkpt lat="37.05111" lon="-3.36715">
        <ele>3088</ele>
        <time>2021-08-05 20:03:14</time>
      </trkpt>
      <trkpt lat="37.05111" lon="-3.36716">
        <ele>3087.8</ele>
        <time>2021-08-05 20:03:15</time>
      </trkpt>
      <trkpt lat="37.0511" lon="-3.36716">
        <ele>3087.8</ele>
        <time>2021-08-05 20:03:16</time>
      </trkpt>
      <trkpt lat="37.0511" lon="-3.36716">
        <ele>3087.6</ele>
        <time>2021-08-05 20:03:17</time>
      </trkpt>
      <trkpt lat="37.0511" lon="-3.36716">
        <ele>3087.4</ele>
        <time>2021-08-05 20:03:18</time>
      </trkpt>
      <trkpt lat="37.0511" lon="-3.36716">
        <ele>3087.4</ele>
        <time>2021-08-05 20:03:19</time>
      </trkpt>
      <trkpt lat="37.05109" lon="-3.36715">
        <ele>3087.2</ele>
        <time>2021-08-05 20:03:20</time>
      </trkpt>
      <trkpt lat="37.05109" lon="-3.36715">
        <ele>3087.2</ele>
        <time>2021-08-05 20:03:21</time>
      </trkpt>
      <trkpt lat="37.0511" lon="-3.36716">
        <ele>3087.2</ele>
        <time>2021-08-05 20:03:22</time>
      </trkpt>
      <trkpt lat="37.0511" lon="-3.36716">
        <ele>3087.2</ele>
        <time>2021-08-05 20:03:23</time>
      </trkpt>
      <trkpt lat="37.0511" lon="-3.36716">
        <ele>3087.2</ele>
        <time>2021-08-05 20:03:24</time>
      </trkpt>
      <trkpt lat="37.05111" lon="-3.36716">
        <ele>3087.2</ele>
        <time>2021-08-05 20:03:25</time>
      </trkpt>
      <trkpt lat="37.05111" lon="-3.36716">
        <ele>3087.2</ele>
        <time>2021-08-05 20:03:26</time>
      </trkpt>
      <trkpt lat="37.0511" lon="-3.36716">
        <ele>3087.2</ele>
        <time>2021-08-05 20:03:27</time>
      </trkpt>
      <trkpt lat="37.0511" lon="-3.36716">
        <ele>3087.2</ele>
        <time>2021-08-05 20:03:28</time>
      </trkpt>
      <trkpt lat="37.0511" lon="-3.36716">
        <ele>3087.2</ele>
        <time>2021-08-05 20:03:29</time>
      </trkpt>
      <trkpt lat="37.0511" lon="-3.36716">
        <ele>3087.2</ele>
        <time>2021-08-05 20:03:30</time>
      </trkpt>
      <trkpt lat="37.0511" lon="-3.36716">
        <ele>3087.4</ele>
        <time>2021-08-05 20:03:31</time>
      </trkpt>
      <trkpt lat="37.0511" lon="-3.36716">
        <ele>3087.4</ele>
        <time>2021-08-05 20:03:32</time>
      </trkpt>
      <trkpt lat="37.0511" lon="-3.36716">
        <ele>3087.6</ele>
        <time>2021-08-05 20:03:33</time>
      </trkpt>
      <trkpt lat="37.0511" lon="-3.36716">
        <ele>3087.6</ele>
        <time>2021-08-05 20:03:34</time>
      </trkpt>
      <trkpt lat="37.0511" lon="-3.36716">
        <ele>3087.6</ele>
        <time>2021-08-05 20:03:35</time>
      </trkpt>
      <trkpt lat="37.0511" lon="-3.36716">
        <ele>3087.8</ele>
        <time>2021-08-05 20:03:36</time>
      </trkpt>
      <trkpt lat="37.0511" lon="-3.36716">
        <ele>3087.8</ele>
        <time>2021-08-05 20:03:37</time>
      </trkpt>
      <trkpt lat="37.0511" lon="-3.36716">
        <ele>3087.6</ele>
        <time>2021-08-05 20:03:38</time>
      </trkpt>
      <trkpt lat="37.05111" lon="-3.36715">
        <ele>3087.6</ele>
        <time>2021-08-05 20:03:39</time>
      </trkpt>
      <trkpt lat="37.05111" lon="-3.36715">
        <ele>3087.4</ele>
        <time>2021-08-05 20:03:40</time>
      </trkpt>
      <trkpt lat="37.05111" lon="-3.36715">
        <ele>3087.4</ele>
        <time>2021-08-05 20:03:41</time>
      </trkpt>
      <trkpt lat="37.05111" lon="-3.36715">
        <ele>3087.6</ele>
        <time>2021-08-05 20:03:42</time>
      </trkpt>
      <trkpt lat="37.05111" lon="-3.36715">
        <ele>3087.6</ele>
        <time>2021-08-05 20:03:43</time>
      </trkpt>
      <trkpt lat="37.05111" lon="-3.36715">
        <ele>3087.6</ele>
        <time>2021-08-05 20:03:44</time>
      </trkpt>
      <trkpt lat="37.05111" lon="-3.36715">
        <ele>3087.6</ele>
        <time>2021-08-05 20:03:45</time>
      </trkpt>
      <trkpt lat="37.05111" lon="-3.36715">
        <ele>3087.6</ele>
        <time>2021-08-05 20:03:46</time>
      </trkpt>
      <trkpt lat="37.0511" lon="-3.36714">
        <ele>3087.6</ele>
        <time>2021-08-05 20:03:47</time>
      </trkpt>
      <trkpt lat="37.0511" lon="-3.36714">
        <ele>3087.4</ele>
        <time>2021-08-05 20:03:48</time>
      </trkpt>
      <trkpt lat="37.0511" lon="-3.36714">
        <ele>3087.4</ele>
        <time>2021-08-05 20:03:49</time>
      </trkpt>
      <trkpt lat="37.0511" lon="-3.36714">
        <ele>3087.4</ele>
        <time>2021-08-05 20:03:50</time>
      </trkpt>
      <trkpt lat="37.0511" lon="-3.36714">
        <ele>3087.4</ele>
        <time>2021-08-05 20:03:51</time>
      </trkpt>
      <trkpt lat="37.0511" lon="-3.36714">
        <ele>3087.4</ele>
        <time>2021-08-05 20:03:52</time>
      </trkpt>
      <trkpt lat="37.0511" lon="-3.36714">
        <ele>3087.4</ele>
        <time>2021-08-05 20:03:53</time>
      </trkpt>
      <trkpt lat="37.0511" lon="-3.36714">
        <ele>3087.4</ele>
        <time>2021-08-05 20:03:54</time>
      </trkpt>
      <trkpt lat="37.0511" lon="-3.36714">
        <ele>3087.2</ele>
        <time>2021-08-05 20:03:55</time>
      </trkpt>
      <trkpt lat="37.0511" lon="-3.36714">
        <ele>3087.2</ele>
        <time>2021-08-05 20:03:56</time>
      </trkpt>
      <trkpt lat="37.0511" lon="-3.36714">
        <ele>3087.2</ele>
        <time>2021-08-05 20:03:57</time>
      </trkpt>
      <trkpt lat="37.05109" lon="-3.36713">
        <ele>3087.2</ele>
        <time>2021-08-05 20:03:58</time>
      </trkpt>
      <trkpt lat="37.05109" lon="-3.36713">
        <ele>3087.4</ele>
        <time>2021-08-05 20:03:59</time>
      </trkpt>
      <trkpt lat="37.05109" lon="-3.36713">
        <ele>3087.2</ele>
        <time>2021-08-05 20:04:00</time>
      </trkpt>
      <trkpt lat="37.05109" lon="-3.36712">
        <ele>3087.2</ele>
        <time>2021-08-05 20:04:01</time>
      </trkpt>
      <trkpt lat="37.05109" lon="-3.36713">
        <ele>3087.2</ele>
        <time>2021-08-05 20:04:02</time>
      </trkpt>
      <trkpt lat="37.05109" lon="-3.36713">
        <ele>3087.4</ele>
        <time>2021-08-05 20:04:03</time>
      </trkpt>
      <trkpt lat="37.05109" lon="-3.36713">
        <ele>3087.4</ele>
        <time>2021-08-05 20:04:04</time>
      </trkpt>
      <trkpt lat="37.05109" lon="-3.36713">
        <ele>3087.2</ele>
        <time>2021-08-05 20:04:05</time>
      </trkpt>
      <trkpt lat="37.05235" lon="-3.36353">
        <ele>3104.2</ele>
        <time>2021-08-05 20:04:06</time>
      </trkpt>
      <trkpt lat="37.05236" lon="-3.36352">
        <ele>3104.4</ele>
        <time>2021-08-05 20:04:07</time>
      </trkpt>
      <trkpt lat="37.05236" lon="-3.36352">
        <ele>3104.6</ele>
        <time>2021-08-05 20:04:08</time>
      </trkpt>
      <trkpt lat="37.05236" lon="-3.36352">
        <ele>3104.8</ele>
        <time>2021-08-05 20:04:09</time>
      </trkpt>
      <trkpt lat="37.05235" lon="-3.36351">
        <ele>3104.8</ele>
        <time>2021-08-05 20:04:10</time>
      </trkpt>
      <trkpt lat="37.05236" lon="-3.36351">
        <ele>3105</ele>
        <time>2021-08-05 20:04:11</time>
      </trkpt>
      <trkpt lat="37.05238" lon="-3.36352">
        <ele>3104.8</ele>
        <time>2021-08-05 20:04:12</time>
      </trkpt>
      <trkpt lat="37.05238" lon="-3.36352">
        <ele>3104.6</ele>
        <time>2021-08-05 20:04:13</time>
      </trkpt>
      <trkpt lat="37.05239" lon="-3.36352">
        <ele>3104.4</ele>
        <time>2021-08-05 20:04:14</time>
      </trkpt>
      <trkpt lat="37.05239" lon="-3.36352">
        <ele>3104.4</ele>
        <time>2021-08-05 20:18:12</time>
      </trkpt>
      <trkpt lat="37.05239" lon="-3.36351">
        <ele>3104.6</ele>
        <time>2021-08-05 20:18:13</time>
      </trkpt>
      <trkpt lat="37.05238" lon="-3.3635">
        <ele>3104.6</ele>
        <time>2021-08-05 20:18:14</time>
      </trkpt>
      <trkpt lat="37.05238" lon="-3.36349">
        <ele>3104.6</ele>
        <time>2021-08-05 20:18:15</time>
      </trkpt>
      <trkpt lat="37.05238" lon="-3.36348">
        <ele>3104.6</ele>
        <time>2021-08-05 20:18:16</time>
      </trkpt>
      <trkpt lat="37.05237" lon="-3.36347">
        <ele>3104.8</ele>
        <time>2021-08-05 20:18:17</time>
      </trkpt>
      <trkpt lat="37.05236" lon="-3.36346">
        <ele>3104.8</ele>
        <time>2021-08-05 20:18:18</time>
      </trkpt>
      <trkpt lat="37.05236" lon="-3.36345">
        <ele>3105</ele>
        <time>2021-08-05 20:18:19</time>
      </trkpt>
      <trkpt lat="37.05235" lon="-3.36344">
        <ele>3104.8</ele>
        <time>2021-08-05 20:18:20</time>
      </trkpt>
      <trkpt lat="37.05234" lon="-3.36342">
        <ele>3105</ele>
        <time>2021-08-05 20:18:21</time>
      </trkpt>
      <trkpt lat="37.05234" lon="-3.36341">
        <ele>3105.2</ele>
        <time>2021-08-05 20:18:22</time>
      </trkpt>
      <trkpt lat="37.05233" lon="-3.3634">
        <ele>3105.2</ele>
        <time>2021-08-05 20:18:23</time>
      </trkpt>
      <trkpt lat="37.05232" lon="-3.36339">
        <ele>3105.2</ele>
        <time>2021-08-05 20:18:24</time>
      </trkpt>
      <trkpt lat="37.05232" lon="-3.36337">
        <ele>3105.2</ele>
        <time>2021-08-05 20:18:25</time>
      </trkpt>
      <trkpt lat="37.05232" lon="-3.36336">
        <ele>3105.4</ele>
        <time>2021-08-05 20:18:26</time>
      </trkpt>
      <trkpt lat="37.05231" lon="-3.36335">
        <ele>3105.4</ele>
        <time>2021-08-05 20:18:27</time>
      </trkpt>
      <trkpt lat="37.05231" lon="-3.36334">
        <ele>3105.6</ele>
        <time>2021-08-05 20:18:28</time>
      </trkpt>
      <trkpt lat="37.0523" lon="-3.36333">
        <ele>3105.6</ele>
        <time>2021-08-05 20:18:29</time>
      </trkpt>
      <trkpt lat="37.0523" lon="-3.36332">
        <ele>3105.6</ele>
        <time>2021-08-05 20:18:30</time>
      </trkpt>
      <trkpt lat="37.05229" lon="-3.36332">
        <ele>3105.8</ele>
        <time>2021-08-05 20:18:31</time>
      </trkpt>
      <trkpt lat="37.05229" lon="-3.36331">
        <ele>3105.8</ele>
        <time>2021-08-05 20:18:32</time>
      </trkpt>
      <trkpt lat="37.05228" lon="-3.3633">
        <ele>3105.8</ele>
        <time>2021-08-05 20:18:33</time>
      </trkpt>
      <trkpt lat="37.05228" lon="-3.36329">
        <ele>3106</ele>
        <time>2021-08-05 20:18:34</time>
      </trkpt>
      <trkpt lat="37.05228" lon="-3.36328">
        <ele>3106</ele>
        <time>2021-08-05 20:18:35</time>
      </trkpt>
      <trkpt lat="37.05227" lon="-3.36327">
        <ele>3106</ele>
        <time>2021-08-05 20:18:36</time>
      </trkpt>
      <trkpt lat="37.05227" lon="-3.36326">
        <ele>3106</ele>
        <time>2021-08-05 20:18:37</time>
      </trkpt>
      <trkpt lat="37.05226" lon="-3.36325">
        <ele>3106</ele>
        <time>2021-08-05 20:18:38</time>
      </trkpt>
      <trkpt lat="37.05225" lon="-3.36324">
        <ele>3106</ele>
        <time>2021-08-05 20:18:39</time>
      </trkpt>
      <trkpt lat="37.05224" lon="-3.36323">
        <ele>3106</ele>
        <time>2021-08-05 20:18:40</time>
      </trkpt>
      <trkpt lat="37.05223" lon="-3.36322">
        <ele>3106.2</ele>
        <time>2021-08-05 20:18:41</time>
      </trkpt>
      <trkpt lat="37.05223" lon="-3.36321">
        <ele>3106.2</ele>
        <time>2021-08-05 20:18:42</time>
      </trkpt>
      <trkpt lat="37.05222" lon="-3.3632">
        <ele>3106.2</ele>
        <time>2021-08-05 20:18:43</time>
      </trkpt>
      <trkpt lat="37.05221" lon="-3.36319">
        <ele>3106.2</ele>
        <time>2021-08-05 20:18:44</time>
      </trkpt>
      <trkpt lat="37.0522" lon="-3.36319">
        <ele>3106.6</ele>
        <time>2021-08-05 20:18:45</time>
      </trkpt>
      <trkpt lat="37.0522" lon="-3.36318">
        <ele>3106.8</ele>
        <time>2021-08-05 20:18:46</time>
      </trkpt>
      <trkpt lat="37.05219" lon="-3.36317">
        <ele>3106.8</ele>
        <time>2021-08-05 20:18:47</time>
      </trkpt>
      <trkpt lat="37.05218" lon="-3.36317">
        <ele>3107</ele>
        <time>2021-08-05 20:18:48</time>
      </trkpt>
      <trkpt lat="37.05217" lon="-3.36316">
        <ele>3107</ele>
        <time>2021-08-05 20:18:49</time>
      </trkpt>
      <trkpt lat="37.05216" lon="-3.36315">
        <ele>3107</ele>
        <time>2021-08-05 20:18:50</time>
      </trkpt>
      <trkpt lat="37.05216" lon="-3.36314">
        <ele>3107</ele>
        <time>2021-08-05 20:18:51</time>
      </trkpt>
      <trkpt lat="37.05216" lon="-3.36313">
        <ele>3107</ele>
        <time>2021-08-05 20:18:52</time>
      </trkpt>
      <trkpt lat="37.05216" lon="-3.36313">
        <ele>3107</ele>
        <time>2021-08-05 20:18:53</time>
      </trkpt>
      <trkpt lat="37.05215" lon="-3.36312">
        <ele>3107</ele>
        <time>2021-08-05 20:18:54</time>
      </trkpt>
      <trkpt lat="37.05215" lon="-3.36311">
        <ele>3107.2</ele>
        <time>2021-08-05 20:18:55</time>
      </trkpt>
      <trkpt lat="37.05215" lon="-3.3631">
        <ele>3107.4</ele>
        <time>2021-08-05 20:18:56</time>
      </trkpt>
      <trkpt lat="37.05214" lon="-3.36309">
        <ele>3107.4</ele>
        <time>2021-08-05 20:18:57</time>
      </trkpt>
      <trkpt lat="37.05214" lon="-3.36308">
        <ele>3107.6</ele>
        <time>2021-08-05 20:18:58</time>
      </trkpt>
      <trkpt lat="37.05214" lon="-3.36307">
        <ele>3107.6</ele>
        <time>2021-08-05 20:18:59</time>
      </trkpt>
      <trkpt lat="37.05214" lon="-3.36307">
        <ele>3107.8</ele>
        <time>2021-08-05 20:19:00</time>
      </trkpt>
      <trkpt lat="37.05214" lon="-3.36306">
        <ele>3108</ele>
        <time>2021-08-05 20:19:01</time>
      </trkpt>
      <trkpt lat="37.05214" lon="-3.36306">
        <ele>3108</ele>
        <time>2021-08-05 20:19:02</time>
      </trkpt>
      <trkpt lat="37.05214" lon="-3.36306">
        <ele>3108.2</ele>
        <time>2021-08-05 20:19:03</time>
      </trkpt>
      <trkpt lat="37.05214" lon="-3.36305">
        <ele>3108.2</ele>
        <time>2021-08-05 20:19:04</time>
      </trkpt>
      <trkpt lat="37.05214" lon="-3.36305">
        <ele>3108.2</ele>
        <time>2021-08-05 20:19:05</time>
      </trkpt>
      <trkpt lat="37.05214" lon="-3.36304">
        <ele>3108</ele>
        <time>2021-08-05 20:19:06</time>
      </trkpt>
      <trkpt lat="37.05214" lon="-3.36304">
        <ele>3108</ele>
        <time>2021-08-05 20:19:07</time>
      </trkpt>
      <trkpt lat="37.05215" lon="-3.36304">
        <ele>3108</ele>
        <time>2021-08-05 20:19:08</time>
      </trkpt>
      <trkpt lat="37.05216" lon="-3.36304">
        <ele>3108</ele>
        <time>2021-08-05 20:19:09</time>
      </trkpt>
      <trkpt lat="37.05216" lon="-3.36304">
        <ele>3108</ele>
        <time>2021-08-05 20:19:10</time>
      </trkpt>
      <trkpt lat="37.05216" lon="-3.36304">
        <ele>3107.8</ele>
        <time>2021-08-05 20:19:11</time>
      </trkpt>
      <trkpt lat="37.05217" lon="-3.36304">
        <ele>3107.8</ele>
        <time>2021-08-05 20:19:12</time>
      </trkpt>
      <trkpt lat="37.05216" lon="-3.36303">
        <ele>3107.8</ele>
        <time>2021-08-05 20:19:13</time>
      </trkpt>
      <trkpt lat="37.05215" lon="-3.36303">
        <ele>3107.8</ele>
        <time>2021-08-05 20:19:14</time>
      </trkpt>
      <trkpt lat="37.05214" lon="-3.36302">
        <ele>3107.8</ele>
        <time>2021-08-05 20:19:15</time>
      </trkpt>
      <trkpt lat="37.05214" lon="-3.36302">
        <ele>3108</ele>
        <time>2021-08-05 20:19:16</time>
      </trkpt>
      <trkpt lat="37.05213" lon="-3.36301">
        <ele>3108</ele>
        <time>2021-08-05 20:19:17</time>
      </trkpt>
      <trkpt lat="37.05213" lon="-3.363">
        <ele>3108.2</ele>
        <time>2021-08-05 20:19:18</time>
      </trkpt>
      <trkpt lat="37.05212" lon="-3.36299">
        <ele>3108.6</ele>
        <time>2021-08-05 20:19:19</time>
      </trkpt>
      <trkpt lat="37.05212" lon="-3.36298">
        <ele>3108.6</ele>
        <time>2021-08-05 20:19:20</time>
      </trkpt>
      <trkpt lat="37.05212" lon="-3.36297">
        <ele>3108.8</ele>
        <time>2021-08-05 20:19:21</time>
      </trkpt>
      <trkpt lat="37.05211" lon="-3.36296">
        <ele>3109</ele>
        <time>2021-08-05 20:19:22</time>
      </trkpt>
      <trkpt lat="37.05211" lon="-3.36295">
        <ele>3109</ele>
        <time>2021-08-05 20:19:23</time>
      </trkpt>
      <trkpt lat="37.0521" lon="-3.36294">
        <ele>3108.8</ele>
        <time>2021-08-05 20:19:24</time>
      </trkpt>
      <trkpt lat="37.0521" lon="-3.36293">
        <ele>3108.8</ele>
        <time>2021-08-05 20:19:25</time>
      </trkpt>
      <trkpt lat="37.05209" lon="-3.36292">
        <ele>3108.8</ele>
        <time>2021-08-05 20:19:26</time>
      </trkpt>
      <trkpt lat="37.05208" lon="-3.36291">
        <ele>3108.8</ele>
        <time>2021-08-05 20:19:27</time>
      </trkpt>
      <trkpt lat="37.05207" lon="-3.3629">
        <ele>3108.8</ele>
        <time>2021-08-05 20:19:28</time>
      </trkpt>
      <trkpt lat="37.05207" lon="-3.36288">
        <ele>3109</ele>
        <time>2021-08-05 20:19:29</time>
      </trkpt>
      <trkpt lat="37.05206" lon="-3.36287">
        <ele>3109</ele>
        <time>2021-08-05 20:19:30</time>
      </trkpt>
      <trkpt lat="37.05206" lon="-3.36286">
        <ele>3109</ele>
        <time>2021-08-05 20:19:31</time>
      </trkpt>
      <trkpt lat="37.05206" lon="-3.36285">
        <ele>3109</ele>
        <time>2021-08-05 20:19:32</time>
      </trkpt>
      <trkpt lat="37.05205" lon="-3.36284">
        <ele>3109</ele>
        <time>2021-08-05 20:19:33</time>
      </trkpt>
      <trkpt lat="37.05205" lon="-3.36283">
        <ele>3109.2</ele>
        <time>2021-08-05 20:19:34</time>
      </trkpt>
      <trkpt lat="37.05204" lon="-3.36282">
        <ele>3109.2</ele>
        <time>2021-08-05 20:19:35</time>
      </trkpt>
      <trkpt lat="37.05204" lon="-3.36281">
        <ele>3109.4</ele>
        <time>2021-08-05 20:19:36</time>
      </trkpt>
      <trkpt lat="37.05204" lon="-3.3628">
        <ele>3109.4</ele>
        <time>2021-08-05 20:19:37</time>
      </trkpt>
      <trkpt lat="37.05203" lon="-3.36279">
        <ele>3109.4</ele>
        <time>2021-08-05 20:19:38</time>
      </trkpt>
      <trkpt lat="37.05203" lon="-3.36278">
        <ele>3109.4</ele>
        <time>2021-08-05 20:19:39</time>
      </trkpt>
      <trkpt lat="37.05202" lon="-3.36277">
        <ele>3109.6</ele>
        <time>2021-08-05 20:19:40</time>
      </trkpt>
      <trkpt lat="37.05201" lon="-3.36277">
        <ele>3109.6</ele>
        <time>2021-08-05 20:19:41</time>
      </trkpt>
      <trkpt lat="37.05201" lon="-3.36276">
        <ele>3109.6</ele>
        <time>2021-08-05 20:19:42</time>
      </trkpt>
      <trkpt lat="37.05201" lon="-3.36276">
        <ele>3109.6</ele>
        <time>2021-08-05 20:19:43</time>
      </trkpt>
      <trkpt lat="37.05201" lon="-3.36276">
        <ele>3109.6</ele>
        <time>2021-08-05 20:19:44</time>
      </trkpt>
      <trkpt lat="37.052" lon="-3.36276">
        <ele>3109.8</ele>
        <time>2021-08-05 20:19:45</time>
      </trkpt>
      <trkpt lat="37.052" lon="-3.36277">
        <ele>3109.8</ele>
        <time>2021-08-05 20:19:46</time>
      </trkpt>
      <trkpt lat="37.05199" lon="-3.36277">
        <ele>3109.8</ele>
        <time>2021-08-05 20:19:47</time>
      </trkpt>
      <trkpt lat="37.05199" lon="-3.36276">
        <ele>3109.8</ele>
        <time>2021-08-05 20:19:48</time>
      </trkpt>
      <trkpt lat="37.05199" lon="-3.36276">
        <ele>3109.8</ele>
        <time>2021-08-05 20:19:49</time>
      </trkpt>
      <trkpt lat="37.05199" lon="-3.36277">
        <ele>3109.6</ele>
        <time>2021-08-05 20:19:50</time>
      </trkpt>
      <trkpt lat="37.05199" lon="-3.36277">
        <ele>3109.8</ele>
        <time>2021-08-05 20:19:51</time>
      </trkpt>
      <trkpt lat="37.05199" lon="-3.36278">
        <ele>3109.8</ele>
        <time>2021-08-05 20:19:52</time>
      </trkpt>
      <trkpt lat="37.05199" lon="-3.36278">
        <ele>3109.8</ele>
        <time>2021-08-05 20:19:53</time>
      </trkpt>
      <trkpt lat="37.05199" lon="-3.36278">
        <ele>3109.8</ele>
        <time>2021-08-05 20:19:54</time>
      </trkpt>
      <trkpt lat="37.05199" lon="-3.36278">
        <ele>3109.6</ele>
        <time>2021-08-05 20:19:55</time>
      </trkpt>
      <trkpt lat="37.05199" lon="-3.36278">
        <ele>3109.6</ele>
        <time>2021-08-05 20:19:56</time>
      </trkpt>
      <trkpt lat="37.052" lon="-3.36278">
        <ele>3109.6</ele>
        <time>2021-08-05 20:19:57</time>
      </trkpt>
      <trkpt lat="37.052" lon="-3.36278">
        <ele>3109.6</ele>
        <time>2021-08-05 20:19:58</time>
      </trkpt>
      <trkpt lat="37.052" lon="-3.36277">
        <ele>3109.6</ele>
        <time>2021-08-05 20:19:59</time>
      </trkpt>
      <trkpt lat="37.052" lon="-3.36277">
        <ele>3109.6</ele>
        <time>2021-08-05 20:20:00</time>
      </trkpt>
      <trkpt lat="37.052" lon="-3.36276">
        <ele>3109.6</ele>
        <time>2021-08-05 20:20:01</time>
      </trkpt>
      <trkpt lat="37.052" lon="-3.36275">
        <ele>3109.6</ele>
        <time>2021-08-05 20:20:02</time>
      </trkpt>
      <trkpt lat="37.052" lon="-3.36274">
        <ele>3109.8</ele>
        <time>2021-08-05 20:20:03</time>
      </trkpt>
      <trkpt lat="37.052" lon="-3.36274">
        <ele>3109.8</ele>
        <time>2021-08-05 20:20:04</time>
      </trkpt>
      <trkpt lat="37.05199" lon="-3.36273">
        <ele>3110</ele>
        <time>2021-08-05 20:20:05</time>
      </trkpt>
      <trkpt lat="37.052" lon="-3.36273">
        <ele>3110.2</ele>
        <time>2021-08-05 20:20:06</time>
      </trkpt>
      <trkpt lat="37.052" lon="-3.36272">
        <ele>3110.2</ele>
        <time>2021-08-05 20:20:07</time>
      </trkpt>
      <trkpt lat="37.052" lon="-3.36272">
        <ele>3110.2</ele>
        <time>2021-08-05 20:20:08</time>
      </trkpt>
      <trkpt lat="37.05199" lon="-3.36271">
        <ele>3110.4</ele>
        <time>2021-08-05 20:20:09</time>
      </trkpt>
      <trkpt lat="37.05199" lon="-3.3627">
        <ele>3110.4</ele>
        <time>2021-08-05 20:20:10</time>
      </trkpt>
      <trkpt lat="37.05199" lon="-3.36269">
        <ele>3110.6</ele>
        <time>2021-08-05 20:20:11</time>
      </trkpt>
      <trkpt lat="37.05198" lon="-3.36268">
        <ele>3110.6</ele>
        <time>2021-08-05 20:20:12</time>
      </trkpt>
      <trkpt lat="37.05197" lon="-3.36267">
        <ele>3110.8</ele>
        <time>2021-08-05 20:20:13</time>
      </trkpt>
      <trkpt lat="37.05195" lon="-3.36265">
        <ele>3110.8</ele>
        <time>2021-08-05 20:20:14</time>
      </trkpt>
      <trkpt lat="37.05194" lon="-3.36264">
        <ele>3110.8</ele>
        <time>2021-08-05 20:20:15</time>
      </trkpt>
      <trkpt lat="37.05195" lon="-3.36263">
        <ele>3111</ele>
        <time>2021-08-05 20:20:16</time>
      </trkpt>
      <trkpt lat="37.05194" lon="-3.36261">
        <ele>3111</ele>
        <time>2021-08-05 20:20:17</time>
      </trkpt>
      <trkpt lat="37.05193" lon="-3.36259">
        <ele>3111</ele>
        <time>2021-08-05 20:20:18</time>
      </trkpt>
      <trkpt lat="37.05192" lon="-3.36258">
        <ele>3111</ele>
        <time>2021-08-05 20:20:19</time>
      </trkpt>
      <trkpt lat="37.05192" lon="-3.36256">
        <ele>3111</ele>
        <time>2021-08-05 20:20:20</time>
      </trkpt>
      <trkpt lat="37.05192" lon="-3.36255">
        <ele>3111</ele>
        <time>2021-08-05 20:20:21</time>
      </trkpt>
      <trkpt lat="37.05192" lon="-3.36253">
        <ele>3111</ele>
        <time>2021-08-05 20:20:22</time>
      </trkpt>
      <trkpt lat="37.05192" lon="-3.36251">
        <ele>3111.2</ele>
        <time>2021-08-05 20:20:23</time>
      </trkpt>
      <trkpt lat="37.05191" lon="-3.3625">
        <ele>3111.2</ele>
        <time>2021-08-05 20:20:24</time>
      </trkpt>
      <trkpt lat="37.05191" lon="-3.36248">
        <ele>3111.2</ele>
        <time>2021-08-05 20:20:25</time>
      </trkpt>
      <trkpt lat="37.05191" lon="-3.36246">
        <ele>3111.6</ele>
        <time>2021-08-05 20:20:26</time>
      </trkpt>
      <trkpt lat="37.0519" lon="-3.36245">
        <ele>3111.6</ele>
        <time>2021-08-05 20:20:27</time>
      </trkpt>
      <trkpt lat="37.05189" lon="-3.36243">
        <ele>3111.8</ele>
        <time>2021-08-05 20:20:28</time>
      </trkpt>
      <trkpt lat="37.05189" lon="-3.36242">
        <ele>3112</ele>
        <time>2021-08-05 20:20:29</time>
      </trkpt>
      <trkpt lat="37.05188" lon="-3.36241">
        <ele>3111.8</ele>
        <time>2021-08-05 20:20:30</time>
      </trkpt>
      <trkpt lat="37.05188" lon="-3.3624">
        <ele>3111.8</ele>
        <time>2021-08-05 20:20:31</time>
      </trkpt>
      <trkpt lat="37.05187" lon="-3.36238">
        <ele>3111.8</ele>
        <time>2021-08-05 20:20:32</time>
      </trkpt>
      <trkpt lat="37.05186" lon="-3.36237">
        <ele>3112</ele>
        <time>2021-08-05 20:20:33</time>
      </trkpt>
      <trkpt lat="37.05185" lon="-3.36235">
        <ele>3112</ele>
        <time>2021-08-05 20:20:34</time>
      </trkpt>
      <trkpt lat="37.05185" lon="-3.36234">
        <ele>3112</ele>
        <time>2021-08-05 20:20:35</time>
      </trkpt>
      <trkpt lat="37.05185" lon="-3.36233">
        <ele>3112</ele>
        <time>2021-08-05 20:20:36</time>
      </trkpt>
      <trkpt lat="37.05184" lon="-3.36232">
        <ele>3112</ele>
        <time>2021-08-05 20:20:37</time>
      </trkpt>
      <trkpt lat="37.05184" lon="-3.3623">
        <ele>3112.2</ele>
        <time>2021-08-05 20:20:38</time>
      </trkpt>
      <trkpt lat="37.05184" lon="-3.36229">
        <ele>3112.2</ele>
        <time>2021-08-05 20:20:39</time>
      </trkpt>
      <trkpt lat="37.05183" lon="-3.36228">
        <ele>3112.4</ele>
        <time>2021-08-05 20:20:40</time>
      </trkpt>
      <trkpt lat="37.05183" lon="-3.36227">
        <ele>3112.4</ele>
        <time>2021-08-05 20:20:41</time>
      </trkpt>
      <trkpt lat="37.05183" lon="-3.36226">
        <ele>3112.4</ele>
        <time>2021-08-05 20:20:42</time>
      </trkpt>
      <trkpt lat="37.05183" lon="-3.36225">
        <ele>3112.4</ele>
        <time>2021-08-05 20:20:43</time>
      </trkpt>
      <trkpt lat="37.05182" lon="-3.36224">
        <ele>3112.4</ele>
        <time>2021-08-05 20:20:44</time>
      </trkpt>
      <trkpt lat="37.05182" lon="-3.36223">
        <ele>3112.4</ele>
        <time>2021-08-05 20:20:45</time>
      </trkpt>
      <trkpt lat="37.05182" lon="-3.36222">
        <ele>3112.4</ele>
        <time>2021-08-05 20:20:46</time>
      </trkpt>
      <trkpt lat="37.05182" lon="-3.3622">
        <ele>3112.4</ele>
        <time>2021-08-05 20:20:47</time>
      </trkpt>
      <trkpt lat="37.05182" lon="-3.36219">
        <ele>3112.6</ele>
        <time>2021-08-05 20:20:48</time>
      </trkpt>
      <trkpt lat="37.05181" lon="-3.36218">
        <ele>3112.6</ele>
        <time>2021-08-05 20:20:49</time>
      </trkpt>
      <trkpt lat="37.05182" lon="-3.36217">
        <ele>3112.6</ele>
        <time>2021-08-05 20:20:50</time>
      </trkpt>
      <trkpt lat="37.05182" lon="-3.36216">
        <ele>3112.8</ele>
        <time>2021-08-05 20:20:51</time>
      </trkpt>
      <trkpt lat="37.05182" lon="-3.36214">
        <ele>3113</ele>
        <time>2021-08-05 20:20:52</time>
      </trkpt>
      <trkpt lat="37.05181" lon="-3.36213">
        <ele>3113</ele>
        <time>2021-08-05 20:20:53</time>
      </trkpt>
      <trkpt lat="37.05181" lon="-3.36212">
        <ele>3113.2</ele>
        <time>2021-08-05 20:20:54</time>
      </trkpt>
      <trkpt lat="37.05182" lon="-3.36211">
        <ele>3113</ele>
        <time>2021-08-05 20:20:55</time>
      </trkpt>
      <trkpt lat="37.05181" lon="-3.36209">
        <ele>3112.8</ele>
        <time>2021-08-05 20:20:56</time>
      </trkpt>
      <trkpt lat="37.05181" lon="-3.36208">
        <ele>3112.6</ele>
        <time>2021-08-05 20:20:57</time>
      </trkpt>
      <trkpt lat="37.05181" lon="-3.36207">
        <ele>3112.4</ele>
        <time>2021-08-05 20:20:58</time>
      </trkpt>
      <trkpt lat="37.05181" lon="-3.36207">
        <ele>3112.6</ele>
        <time>2021-08-05 20:20:59</time>
      </trkpt>
      <trkpt lat="37.05182" lon="-3.36206">
        <ele>3112.6</ele>
        <time>2021-08-05 20:21:00</time>
      </trkpt>
      <trkpt lat="37.05181" lon="-3.36205">
        <ele>3112.6</ele>
        <time>2021-08-05 20:21:01</time>
      </trkpt>
      <trkpt lat="37.05181" lon="-3.36203">
        <ele>3112.6</ele>
        <time>2021-08-05 20:21:02</time>
      </trkpt>
      <trkpt lat="37.05181" lon="-3.36202">
        <ele>3112.6</ele>
        <time>2021-08-05 20:21:03</time>
      </trkpt>
      <trkpt lat="37.05182" lon="-3.36201">
        <ele>3112.8</ele>
        <time>2021-08-05 20:21:04</time>
      </trkpt>
      <trkpt lat="37.05182" lon="-3.362">
        <ele>3112.6</ele>
        <time>2021-08-05 20:21:05</time>
      </trkpt>
      <trkpt lat="37.05182" lon="-3.36199">
        <ele>3112.6</ele>
        <time>2021-08-05 20:21:06</time>
      </trkpt>
      <trkpt lat="37.05182" lon="-3.36198">
        <ele>3112.6</ele>
        <time>2021-08-05 20:21:07</time>
      </trkpt>
      <trkpt lat="37.05182" lon="-3.36197">
        <ele>3112.6</ele>
        <time>2021-08-05 20:21:08</time>
      </trkpt>
      <trkpt lat="37.05182" lon="-3.36196">
        <ele>3112.6</ele>
        <time>2021-08-05 20:21:09</time>
      </trkpt>
      <trkpt lat="37.05183" lon="-3.36195">
        <ele>3112.6</ele>
        <time>2021-08-05 20:21:10</time>
      </trkpt>
      <trkpt lat="37.05183" lon="-3.36195">
        <ele>3112.6</ele>
        <time>2021-08-05 20:21:11</time>
      </trkpt>
      <trkpt lat="37.05183" lon="-3.36194">
        <ele>3112.6</ele>
        <time>2021-08-05 20:21:12</time>
      </trkpt>
      <trkpt lat="37.05183" lon="-3.36193">
        <ele>3112.8</ele>
        <time>2021-08-05 20:21:13</time>
      </trkpt>
      <trkpt lat="37.05184" lon="-3.36192">
        <ele>3113</ele>
        <time>2021-08-05 20:21:14</time>
      </trkpt>
      <trkpt lat="37.05183" lon="-3.36191">
        <ele>3113.2</ele>
        <time>2021-08-05 20:21:15</time>
      </trkpt>
      <trkpt lat="37.05183" lon="-3.36189">
        <ele>3113.4</ele>
        <time>2021-08-05 20:21:16</time>
      </trkpt>
      <trkpt lat="37.05183" lon="-3.36188">
        <ele>3113.4</ele>
        <time>2021-08-05 20:21:17</time>
      </trkpt>
      <trkpt lat="37.05183" lon="-3.36187">
        <ele>3113.6</ele>
        <time>2021-08-05 20:21:18</time>
      </trkpt>
      <trkpt lat="37.05183" lon="-3.36187">
        <ele>3113.6</ele>
        <time>2021-08-05 20:21:19</time>
      </trkpt>
      <trkpt lat="37.05183" lon="-3.36186">
        <ele>3113.8</ele>
        <time>2021-08-05 20:21:20</time>
      </trkpt>
      <trkpt lat="37.05183" lon="-3.36185">
        <ele>3113.8</ele>
        <time>2021-08-05 20:21:21</time>
      </trkpt>
      <trkpt lat="37.05183" lon="-3.36184">
        <ele>3113.8</ele>
        <time>2021-08-05 20:21:22</time>
      </trkpt>
      <trkpt lat="37.05183" lon="-3.36183">
        <ele>3113.8</ele>
        <time>2021-08-05 20:21:23</time>
      </trkpt>
      <trkpt lat="37.05183" lon="-3.36181">
        <ele>3113.8</ele>
        <time>2021-08-05 20:21:24</time>
      </trkpt>
      <trkpt lat="37.05182" lon="-3.3618">
        <ele>3113.8</ele>
        <time>2021-08-05 20:21:25</time>
      </trkpt>
      <trkpt lat="37.05182" lon="-3.36179">
        <ele>3113.8</ele>
        <time>2021-08-05 20:21:26</time>
      </trkpt>
      <trkpt lat="37.05181" lon="-3.36178">
        <ele>3114</ele>
        <time>2021-08-05 20:21:27</time>
      </trkpt>
      <trkpt lat="37.05181" lon="-3.36177">
        <ele>3114.2</ele>
        <time>2021-08-05 20:21:28</time>
      </trkpt>
      <trkpt lat="37.0518" lon="-3.36176">
        <ele>3114.2</ele>
        <time>2021-08-05 20:21:29</time>
      </trkpt>
      <trkpt lat="37.0518" lon="-3.36175">
        <ele>3114.2</ele>
        <time>2021-08-05 20:21:30</time>
      </trkpt>
      <trkpt lat="37.0518" lon="-3.36174">
        <ele>3114.2</ele>
        <time>2021-08-05 20:21:31</time>
      </trkpt>
      <trkpt lat="37.05181" lon="-3.36173">
        <ele>3114.2</ele>
        <time>2021-08-05 20:21:32</time>
      </trkpt>
      <trkpt lat="37.05181" lon="-3.36173">
        <ele>3114.4</ele>
        <time>2021-08-05 20:21:33</time>
      </trkpt>
      <trkpt lat="37.05182" lon="-3.36172">
        <ele>3114.6</ele>
        <time>2021-08-05 20:21:34</time>
      </trkpt>
      <trkpt lat="37.05182" lon="-3.36171">
        <ele>3114.8</ele>
        <time>2021-08-05 20:21:35</time>
      </trkpt>
      <trkpt lat="37.05183" lon="-3.3617">
        <ele>3114.8</ele>
        <time>2021-08-05 20:21:36</time>
      </trkpt>
      <trkpt lat="37.05183" lon="-3.3617">
        <ele>3114.8</ele>
        <time>2021-08-05 20:21:37</time>
      </trkpt>
      <trkpt lat="37.05183" lon="-3.3617">
        <ele>3114.8</ele>
        <time>2021-08-05 20:21:38</time>
      </trkpt>
      <trkpt lat="37.05183" lon="-3.36168">
        <ele>3115</ele>
        <time>2021-08-05 20:21:39</time>
      </trkpt>
      <trkpt lat="37.05183" lon="-3.36167">
        <ele>3115</ele>
        <time>2021-08-05 20:21:40</time>
      </trkpt>
      <trkpt lat="37.05183" lon="-3.36166">
        <ele>3115</ele>
        <time>2021-08-05 20:21:41</time>
      </trkpt>
      <trkpt lat="37.05183" lon="-3.36165">
        <ele>3114.8</ele>
        <time>2021-08-05 20:21:42</time>
      </trkpt>
      <trkpt lat="37.05183" lon="-3.36165">
        <ele>3114.8</ele>
        <time>2021-08-05 20:21:43</time>
      </trkpt>
      <trkpt lat="37.05183" lon="-3.36165">
        <ele>3114.8</ele>
        <time>2021-08-05 20:21:44</time>
      </trkpt>
      <trkpt lat="37.05184" lon="-3.36165">
        <ele>3115</ele>
        <time>2021-08-05 20:21:45</time>
      </trkpt>
      <trkpt lat="37.05184" lon="-3.36164">
        <ele>3115</ele>
        <time>2021-08-05 20:21:46</time>
      </trkpt>
      <trkpt lat="37.05184" lon="-3.36164">
        <ele>3115</ele>
        <time>2021-08-05 20:21:47</time>
      </trkpt>
      <trkpt lat="37.05185" lon="-3.36163">
        <ele>3115</ele>
        <time>2021-08-05 20:21:48</time>
      </trkpt>
      <trkpt lat="37.05185" lon="-3.36162">
        <ele>3115.2</ele>
        <time>2021-08-05 20:21:49</time>
      </trkpt>
      <trkpt lat="37.05185" lon="-3.36161">
        <ele>3115.2</ele>
        <time>2021-08-05 20:21:50</time>
      </trkpt>
      <trkpt lat="37.05185" lon="-3.3616">
        <ele>3115.2</ele>
        <time>2021-08-05 20:21:51</time>
      </trkpt>
      <trkpt lat="37.05185" lon="-3.36159">
        <ele>3115.2</ele>
        <time>2021-08-05 20:21:52</time>
      </trkpt>
      <trkpt lat="37.05184" lon="-3.36158">
        <ele>3115.2</ele>
        <time>2021-08-05 20:21:53</time>
      </trkpt>
      <trkpt lat="37.05184" lon="-3.36157">
        <ele>3115.2</ele>
        <time>2021-08-05 20:21:54</time>
      </trkpt>
      <trkpt lat="37.05184" lon="-3.36156">
        <ele>3115.2</ele>
        <time>2021-08-05 20:21:55</time>
      </trkpt>
      <trkpt lat="37.05184" lon="-3.36155">
        <ele>3115</ele>
        <time>2021-08-05 20:21:56</time>
      </trkpt>
      <trkpt lat="37.05184" lon="-3.36154">
        <ele>3114.6</ele>
        <time>2021-08-05 20:21:57</time>
      </trkpt>
      <trkpt lat="37.05183" lon="-3.36153">
        <ele>3114.6</ele>
        <time>2021-08-05 20:21:58</time>
      </trkpt>
      <trkpt lat="37.05184" lon="-3.36152">
        <ele>3114.4</ele>
        <time>2021-08-05 20:21:59</time>
      </trkpt>
      <trkpt lat="37.05184" lon="-3.36151">
        <ele>3114.4</ele>
        <time>2021-08-05 20:22:00</time>
      </trkpt>
      <trkpt lat="37.05184" lon="-3.3615">
        <ele>3114.6</ele>
        <time>2021-08-05 20:22:01</time>
      </trkpt>
      <trkpt lat="37.05184" lon="-3.36149">
        <ele>3114.6</ele>
        <time>2021-08-05 20:22:02</time>
      </trkpt>
      <trkpt lat="37.05184" lon="-3.36148">
        <ele>3114.8</ele>
        <time>2021-08-05 20:22:03</time>
      </trkpt>
      <trkpt lat="37.05185" lon="-3.36147">
        <ele>3115</ele>
        <time>2021-08-05 20:22:04</time>
      </trkpt>
      <trkpt lat="37.05186" lon="-3.36146">
        <ele>3115</ele>
        <time>2021-08-05 20:22:05</time>
      </trkpt>
      <trkpt lat="37.05186" lon="-3.36145">
        <ele>3115</ele>
        <time>2021-08-05 20:22:06</time>
      </trkpt>
      <trkpt lat="37.05187" lon="-3.36144">
        <ele>3114.8</ele>
        <time>2021-08-05 20:22:07</time>
      </trkpt>
      <trkpt lat="37.05188" lon="-3.36143">
        <ele>3114.8</ele>
        <time>2021-08-05 20:22:08</time>
      </trkpt>
      <trkpt lat="37.05188" lon="-3.36141">
        <ele>3114.8</ele>
        <time>2021-08-05 20:22:09</time>
      </trkpt>
      <trkpt lat="37.05188" lon="-3.3614">
        <ele>3114.8</ele>
        <time>2021-08-05 20:22:10</time>
      </trkpt>
      <trkpt lat="37.05188" lon="-3.36139">
        <ele>3114.8</ele>
        <time>2021-08-05 20:22:11</time>
      </trkpt>
      <trkpt lat="37.05188" lon="-3.36138">
        <ele>3114.8</ele>
        <time>2021-08-05 20:22:12</time>
      </trkpt>
      <trkpt lat="37.05188" lon="-3.36136">
        <ele>3115</ele>
        <time>2021-08-05 20:22:13</time>
      </trkpt>
      <trkpt lat="37.05188" lon="-3.36136">
        <ele>3115</ele>
        <time>2021-08-05 20:22:14</time>
      </trkpt>
      <trkpt lat="37.05188" lon="-3.36136">
        <ele>3115.2</ele>
        <time>2021-08-05 20:22:15</time>
      </trkpt>
      <trkpt lat="37.05188" lon="-3.36135">
        <ele>3115.2</ele>
        <time>2021-08-05 20:22:16</time>
      </trkpt>
      <trkpt lat="37.05188" lon="-3.36135">
        <ele>3115.2</ele>
        <time>2021-08-05 20:22:17</time>
      </trkpt>
      <trkpt lat="37.05188" lon="-3.36134">
        <ele>3115.2</ele>
        <time>2021-08-05 20:22:18</time>
      </trkpt>
      <trkpt lat="37.05187" lon="-3.36133">
        <ele>3115.2</ele>
        <time>2021-08-05 20:22:19</time>
      </trkpt>
      <trkpt lat="37.05187" lon="-3.36132">
        <ele>3115.2</ele>
        <time>2021-08-05 20:22:20</time>
      </trkpt>
      <trkpt lat="37.05188" lon="-3.36131">
        <ele>3115.2</ele>
        <time>2021-08-05 20:22:21</time>
      </trkpt>
      <trkpt lat="37.05187" lon="-3.3613">
        <ele>3115.2</ele>
        <time>2021-08-05 20:22:22</time>
      </trkpt>
      <trkpt lat="37.05187" lon="-3.36128">
        <ele>3115.4</ele>
        <time>2021-08-05 20:22:23</time>
      </trkpt>
      <trkpt lat="37.05187" lon="-3.36127">
        <ele>3115.4</ele>
        <time>2021-08-05 20:22:24</time>
      </trkpt>
      <trkpt lat="37.05186" lon="-3.36125">
        <ele>3115.6</ele>
        <time>2021-08-05 20:22:25</time>
      </trkpt>
      <trkpt lat="37.05187" lon="-3.36123">
        <ele>3115.8</ele>
        <time>2021-08-05 20:22:26</time>
      </trkpt>
      <trkpt lat="37.05188" lon="-3.36122">
        <ele>3115.8</ele>
        <time>2021-08-05 20:22:27</time>
      </trkpt>
      <trkpt lat="37.05188" lon="-3.36121">
        <ele>3115.8</ele>
        <time>2021-08-05 20:22:28</time>
      </trkpt>
      <trkpt lat="37.05188" lon="-3.3612">
        <ele>3115.8</ele>
        <time>2021-08-05 20:22:29</time>
      </trkpt>
      <trkpt lat="37.05188" lon="-3.36119">
        <ele>3115.8</ele>
        <time>2021-08-05 20:22:30</time>
      </trkpt>
      <trkpt lat="37.05189" lon="-3.36118">
        <ele>3115.8</ele>
        <time>2021-08-05 20:22:31</time>
      </trkpt>
      <trkpt lat="37.05189" lon="-3.36118">
        <ele>3115.8</ele>
        <time>2021-08-05 20:22:32</time>
      </trkpt>
      <trkpt lat="37.05189" lon="-3.36117">
        <ele>3115.8</ele>
        <time>2021-08-05 20:22:33</time>
      </trkpt>
      <trkpt lat="37.05189" lon="-3.36116">
        <ele>3115.8</ele>
        <time>2021-08-05 20:22:34</time>
      </trkpt>
      <trkpt lat="37.05189" lon="-3.36116">
        <ele>3115.8</ele>
        <time>2021-08-05 20:22:35</time>
      </trkpt>
      <trkpt lat="37.0519" lon="-3.36115">
        <ele>3115.8</ele>
        <time>2021-08-05 20:22:36</time>
      </trkpt>
      <trkpt lat="37.0519" lon="-3.36114">
        <ele>3115.8</ele>
        <time>2021-08-05 20:22:37</time>
      </trkpt>
      <trkpt lat="37.0519" lon="-3.36113">
        <ele>3116.2</ele>
        <time>2021-08-05 20:22:38</time>
      </trkpt>
      <trkpt lat="37.0519" lon="-3.36112">
        <ele>3116.4</ele>
        <time>2021-08-05 20:22:39</time>
      </trkpt>
      <trkpt lat="37.05191" lon="-3.36111">
        <ele>3116.4</ele>
        <time>2021-08-05 20:22:40</time>
      </trkpt>
      <trkpt lat="37.05192" lon="-3.3611">
        <ele>3116.6</ele>
        <time>2021-08-05 20:22:41</time>
      </trkpt>
      <trkpt lat="37.05192" lon="-3.36109">
        <ele>3116.6</ele>
        <time>2021-08-05 20:22:42</time>
      </trkpt>
      <trkpt lat="37.05193" lon="-3.36108">
        <ele>3116.6</ele>
        <time>2021-08-05 20:22:43</time>
      </trkpt>
      <trkpt lat="37.05193" lon="-3.36107">
        <ele>3116.6</ele>
        <time>2021-08-05 20:22:44</time>
      </trkpt>
      <trkpt lat="37.05194" lon="-3.36106">
        <ele>3116.6</ele>
        <time>2021-08-05 20:22:45</time>
      </trkpt>
      <trkpt lat="37.05195" lon="-3.36105">
        <ele>3116.6</ele>
        <time>2021-08-05 20:22:46</time>
      </trkpt>
      <trkpt lat="37.05195" lon="-3.36105">
        <ele>3116.4</ele>
        <time>2021-08-05 20:22:47</time>
      </trkpt>
      <trkpt lat="37.05196" lon="-3.36104">
        <ele>3116.4</ele>
        <time>2021-08-05 20:22:48</time>
      </trkpt>
      <trkpt lat="37.05196" lon="-3.36104">
        <ele>3116.6</ele>
        <time>2021-08-05 20:22:49</time>
      </trkpt>
      <trkpt lat="37.05196" lon="-3.36103">
        <ele>3116.8</ele>
        <time>2021-08-05 20:22:50</time>
      </trkpt>
      <trkpt lat="37.05196" lon="-3.36103">
        <ele>3116.8</ele>
        <time>2021-08-05 20:22:51</time>
      </trkpt>
      <trkpt lat="37.05197" lon="-3.36103">
        <ele>3116.8</ele>
        <time>2021-08-05 20:22:52</time>
      </trkpt>
      <trkpt lat="37.05197" lon="-3.36102">
        <ele>3116.8</ele>
        <time>2021-08-05 20:22:53</time>
      </trkpt>
      <trkpt lat="37.05198" lon="-3.36102">
        <ele>3117</ele>
        <time>2021-08-05 20:22:54</time>
      </trkpt>
      <trkpt lat="37.05199" lon="-3.36102">
        <ele>3117.2</ele>
        <time>2021-08-05 20:22:55</time>
      </trkpt>
      <trkpt lat="37.052" lon="-3.36101">
        <ele>3117.2</ele>
        <time>2021-08-05 20:22:56</time>
      </trkpt>
      <trkpt lat="37.052" lon="-3.36101">
        <ele>3117.6</ele>
        <time>2021-08-05 20:22:57</time>
      </trkpt>
      <trkpt lat="37.052" lon="-3.361">
        <ele>3117.6</ele>
        <time>2021-08-05 20:22:58</time>
      </trkpt>
      <trkpt lat="37.05201" lon="-3.361">
        <ele>3117.6</ele>
        <time>2021-08-05 20:22:59</time>
      </trkpt>
      <trkpt lat="37.05202" lon="-3.361">
        <ele>3117.6</ele>
        <time>2021-08-05 20:23:00</time>
      </trkpt>
      <trkpt lat="37.05202" lon="-3.36099">
        <ele>3117.6</ele>
        <time>2021-08-05 20:23:01</time>
      </trkpt>
      <trkpt lat="37.05203" lon="-3.36099">
        <ele>3117.6</ele>
        <time>2021-08-05 20:23:02</time>
      </trkpt>
      <trkpt lat="37.05203" lon="-3.36099">
        <ele>3117.8</ele>
        <time>2021-08-05 20:23:03</time>
      </trkpt>
      <trkpt lat="37.05204" lon="-3.36098">
        <ele>3117.6</ele>
        <time>2021-08-05 20:23:04</time>
      </trkpt>
      <trkpt lat="37.05205" lon="-3.36098">
        <ele>3117.8</ele>
        <time>2021-08-05 20:23:05</time>
      </trkpt>
      <trkpt lat="37.05205" lon="-3.36098">
        <ele>3117.8</ele>
        <time>2021-08-05 20:23:06</time>
      </trkpt>
      <trkpt lat="37.05206" lon="-3.36097">
        <ele>3117.8</ele>
        <time>2021-08-05 20:23:07</time>
      </trkpt>
      <trkpt lat="37.05207" lon="-3.36097">
        <ele>3118</ele>
        <time>2021-08-05 20:23:08</time>
      </trkpt>
      <trkpt lat="37.05207" lon="-3.36097">
        <ele>3118.2</ele>
        <time>2021-08-05 20:23:09</time>
      </trkpt>
      <trkpt lat="37.05208" lon="-3.36096">
        <ele>3118.4</ele>
        <time>2021-08-05 20:23:10</time>
      </trkpt>
      <trkpt lat="37.05208" lon="-3.36096">
        <ele>3118.6</ele>
        <time>2021-08-05 20:23:11</time>
      </trkpt>
      <trkpt lat="37.05208" lon="-3.36095">
        <ele>3118.6</ele>
        <time>2021-08-05 20:23:12</time>
      </trkpt>
      <trkpt lat="37.05208" lon="-3.36095">
        <ele>3118.6</ele>
        <time>2021-08-05 20:23:13</time>
      </trkpt>
      <trkpt lat="37.05208" lon="-3.36094">
        <ele>3118.8</ele>
        <time>2021-08-05 20:23:14</time>
      </trkpt>
      <trkpt lat="37.05209" lon="-3.36094">
        <ele>3118.8</ele>
        <time>2021-08-05 20:23:15</time>
      </trkpt>
      <trkpt lat="37.05209" lon="-3.36093">
        <ele>3118.8</ele>
        <time>2021-08-05 20:23:16</time>
      </trkpt>
      <trkpt lat="37.05209" lon="-3.36092">
        <ele>3119</ele>
        <time>2021-08-05 20:23:17</time>
      </trkpt>
      <trkpt lat="37.0521" lon="-3.36091">
        <ele>3119</ele>
        <time>2021-08-05 20:23:18</time>
      </trkpt>
      <trkpt lat="37.0521" lon="-3.36091">
        <ele>3119</ele>
        <time>2021-08-05 20:23:19</time>
      </trkpt>
      <trkpt lat="37.0521" lon="-3.36091">
        <ele>3119</ele>
        <time>2021-08-05 20:23:20</time>
      </trkpt>
      <trkpt lat="37.0521" lon="-3.36091">
        <ele>3119</ele>
        <time>2021-08-05 20:23:21</time>
      </trkpt>
      <trkpt lat="37.0521" lon="-3.36091">
        <ele>3119</ele>
        <time>2021-08-05 20:23:22</time>
      </trkpt>
      <trkpt lat="37.0521" lon="-3.36091">
        <ele>3119</ele>
        <time>2021-08-05 20:23:23</time>
      </trkpt>
      <trkpt lat="37.0521" lon="-3.36091">
        <ele>3119</ele>
        <time>2021-08-05 20:23:24</time>
      </trkpt>
      <trkpt lat="37.0521" lon="-3.36091">
        <ele>3119</ele>
        <time>2021-08-05 20:23:25</time>
      </trkpt>
      <trkpt lat="37.0521" lon="-3.36091">
        <ele>3119</ele>
        <time>2021-08-05 20:23:26</time>
      </trkpt>
      <trkpt lat="37.05211" lon="-3.3609">
        <ele>3119</ele>
        <time>2021-08-05 20:23:27</time>
      </trkpt>
      <trkpt lat="37.05212" lon="-3.3609">
        <ele>3119</ele>
        <time>2021-08-05 20:23:28</time>
      </trkpt>
      <trkpt lat="37.05214" lon="-3.3609">
        <ele>3119.2</ele>
        <time>2021-08-05 20:23:29</time>
      </trkpt>
      <trkpt lat="37.05215" lon="-3.3609">
        <ele>3119.4</ele>
        <time>2021-08-05 20:23:30</time>
      </trkpt>
      <trkpt lat="37.05217" lon="-3.36089">
        <ele>3119.4</ele>
        <time>2021-08-05 20:23:31</time>
      </trkpt>
      <trkpt lat="37.05218" lon="-3.36089">
        <ele>3119.6</ele>
        <time>2021-08-05 20:23:32</time>
      </trkpt>
      <trkpt lat="37.05219" lon="-3.36089">
        <ele>3119.6</ele>
        <time>2021-08-05 20:23:33</time>
      </trkpt>
      <trkpt lat="37.05219" lon="-3.36088">
        <ele>3119.6</ele>
        <time>2021-08-05 20:23:34</time>
      </trkpt>
      <trkpt lat="37.0522" lon="-3.36088">
        <ele>3119.6</ele>
        <time>2021-08-05 20:23:35</time>
      </trkpt>
      <trkpt lat="37.05221" lon="-3.36088">
        <ele>3119.4</ele>
        <time>2021-08-05 20:23:36</time>
      </trkpt>
      <trkpt lat="37.05222" lon="-3.36087">
        <ele>3119.2</ele>
        <time>2021-08-05 20:23:37</time>
      </trkpt>
      <trkpt lat="37.05223" lon="-3.36087">
        <ele>3119</ele>
        <time>2021-08-05 20:23:38</time>
      </trkpt>
      <trkpt lat="37.05223" lon="-3.36085">
        <ele>3119</ele>
        <time>2021-08-05 20:23:39</time>
      </trkpt>
      <trkpt lat="37.05224" lon="-3.36085">
        <ele>3118.8</ele>
        <time>2021-08-05 20:23:40</time>
      </trkpt>
      <trkpt lat="37.05225" lon="-3.36084">
        <ele>3118.8</ele>
        <time>2021-08-05 20:23:41</time>
      </trkpt>
      <trkpt lat="37.05226" lon="-3.36083">
        <ele>3118.8</ele>
        <time>2021-08-05 20:23:42</time>
      </trkpt>
      <trkpt lat="37.05227" lon="-3.36082">
        <ele>3118.8</ele>
        <time>2021-08-05 20:23:43</time>
      </trkpt>
      <trkpt lat="37.05228" lon="-3.36082">
        <ele>3118.8</ele>
        <time>2021-08-05 20:23:44</time>
      </trkpt>
      <trkpt lat="37.05228" lon="-3.36081">
        <ele>3119</ele>
        <time>2021-08-05 20:23:45</time>
      </trkpt>
      <trkpt lat="37.05229" lon="-3.36081">
        <ele>3119.2</ele>
        <time>2021-08-05 20:23:46</time>
      </trkpt>
      <trkpt lat="37.0523" lon="-3.3608">
        <ele>3119.4</ele>
        <time>2021-08-05 20:23:47</time>
      </trkpt>
      <trkpt lat="37.0523" lon="-3.36079">
        <ele>3119.4</ele>
        <time>2021-08-05 20:23:48</time>
      </trkpt>
      <trkpt lat="37.05231" lon="-3.36079">
        <ele>3119.4</ele>
        <time>2021-08-05 20:23:49</time>
      </trkpt>
      <trkpt lat="37.05232" lon="-3.36078">
        <ele>3119.4</ele>
        <time>2021-08-05 20:23:50</time>
      </trkpt>
      <trkpt lat="37.05232" lon="-3.36077">
        <ele>3119.6</ele>
        <time>2021-08-05 20:23:51</time>
      </trkpt>
      <trkpt lat="37.05233" lon="-3.36077">
        <ele>3119.6</ele>
        <time>2021-08-05 20:23:52</time>
      </trkpt>
      <trkpt lat="37.05234" lon="-3.36076">
        <ele>3119.8</ele>
        <time>2021-08-05 20:23:53</time>
      </trkpt>
      <trkpt lat="37.05234" lon="-3.36076">
        <ele>3119.8</ele>
        <time>2021-08-05 20:23:54</time>
      </trkpt>
      <trkpt lat="37.05234" lon="-3.36075">
        <ele>3119.8</ele>
        <time>2021-08-05 20:23:55</time>
      </trkpt>
      <trkpt lat="37.05235" lon="-3.36075">
        <ele>3119.8</ele>
        <time>2021-08-05 20:23:56</time>
      </trkpt>
      <trkpt lat="37.05236" lon="-3.36074">
        <ele>3119.8</ele>
        <time>2021-08-05 20:23:57</time>
      </trkpt>
      <trkpt lat="37.05236" lon="-3.36074">
        <ele>3119.8</ele>
        <time>2021-08-05 20:23:58</time>
      </trkpt>
      <trkpt lat="37.05237" lon="-3.36073">
        <ele>3119.8</ele>
        <time>2021-08-05 20:23:59</time>
      </trkpt>
      <trkpt lat="37.05238" lon="-3.36073">
        <ele>3119.4</ele>
        <time>2021-08-05 20:24:00</time>
      </trkpt>
      <trkpt lat="37.05239" lon="-3.36072">
        <ele>3119.4</ele>
        <time>2021-08-05 20:24:01</time>
      </trkpt>
      <trkpt lat="37.05241" lon="-3.36072">
        <ele>3119.2</ele>
        <time>2021-08-05 20:24:02</time>
      </trkpt>
      <trkpt lat="37.05242" lon="-3.36072">
        <ele>3119.2</ele>
        <time>2021-08-05 20:24:03</time>
      </trkpt>
      <trkpt lat="37.05243" lon="-3.36071">
        <ele>3119.4</ele>
        <time>2021-08-05 20:24:04</time>
      </trkpt>
      <trkpt lat="37.05243" lon="-3.36069">
        <ele>3119.4</ele>
        <time>2021-08-05 20:24:05</time>
      </trkpt>
      <trkpt lat="37.05244" lon="-3.36069">
        <ele>3119.6</ele>
        <time>2021-08-05 20:24:06</time>
      </trkpt>
      <trkpt lat="37.05244" lon="-3.36067">
        <ele>3119.6</ele>
        <time>2021-08-05 20:24:07</time>
      </trkpt>
      <trkpt lat="37.05245" lon="-3.36067">
        <ele>3119.6</ele>
        <time>2021-08-05 20:24:08</time>
      </trkpt>
      <trkpt lat="37.05246" lon="-3.36066">
        <ele>3119.4</ele>
        <time>2021-08-05 20:24:09</time>
      </trkpt>
      <trkpt lat="37.05247" lon="-3.36066">
        <ele>3119.4</ele>
        <time>2021-08-05 20:24:10</time>
      </trkpt>
      <trkpt lat="37.05273" lon="-3.36027">
        <ele>3114.6</ele>
        <time>2021-08-05 20:24:11</time>
      </trkpt>
      <trkpt lat="37.05274" lon="-3.36027">
        <ele>3114.4</ele>
        <time>2021-08-05 20:24:12</time>
      </trkpt>
      <trkpt lat="37.05276" lon="-3.36027">
        <ele>3114.2</ele>
        <time>2021-08-05 20:24:13</time>
      </trkpt>
      <trkpt lat="37.05277" lon="-3.36027">
        <ele>3114</ele>
        <time>2021-08-05 20:24:14</time>
      </trkpt>
      <trkpt lat="37.05279" lon="-3.36027">
        <ele>3113.8</ele>
        <time>2021-08-05 20:24:15</time>
      </trkpt>
      <trkpt lat="37.0528" lon="-3.36027">
        <ele>3113.8</ele>
        <time>2021-08-05 20:24:16</time>
      </trkpt>
      <trkpt lat="37.0528" lon="-3.36027">
        <ele>3113.4</ele>
        <time>2021-08-05 20:24:17</time>
      </trkpt>
      <trkpt lat="37.05281" lon="-3.36026">
        <ele>3113.4</ele>
        <time>2021-08-05 20:24:18</time>
      </trkpt>
      <trkpt lat="37.05281" lon="-3.36025">
        <ele>3113.2</ele>
        <time>2021-08-05 20:24:19</time>
      </trkpt>
      <trkpt lat="37.0528" lon="-3.36024">
        <ele>3113.2</ele>
        <time>2021-08-05 20:24:20</time>
      </trkpt>
      <trkpt lat="37.05285" lon="-3.36002">
        <ele>3113.2</ele>
        <time>2021-08-05 20:24:21</time>
      </trkpt>
      <trkpt lat="37.05286" lon="-3.36003">
        <ele>3113.2</ele>
        <time>2021-08-05 20:24:22</time>
      </trkpt>
      <trkpt lat="37.05287" lon="-3.36004">
        <ele>3112.8</ele>
        <time>2021-08-05 20:24:23</time>
      </trkpt>
      <trkpt lat="37.05288" lon="-3.36006">
        <ele>3112.8</ele>
        <time>2021-08-05 20:24:24</time>
      </trkpt>
      <trkpt lat="37.05291" lon="-3.36009">
        <ele>3112.6</ele>
        <time>2021-08-05 20:24:25</time>
      </trkpt>
      <trkpt lat="37.05296" lon="-3.36017">
        <ele>3112.6</ele>
        <time>2021-08-05 20:24:26</time>
      </trkpt>
      <trkpt lat="37.05297" lon="-3.36018">
        <ele>3112.6</ele>
        <time>2021-08-05 20:24:27</time>
      </trkpt>
      <trkpt lat="37.05297" lon="-3.36018">
        <ele>3112.6</ele>
        <time>2021-08-05 20:24:28</time>
      </trkpt>
      <trkpt lat="37.05297" lon="-3.36019">
        <ele>3112.2</ele>
        <time>2021-08-05 20:24:29</time>
      </trkpt>
      <trkpt lat="37.05298" lon="-3.36019">
        <ele>3112.2</ele>
        <time>2021-08-05 20:24:30</time>
      </trkpt>
      <trkpt lat="37.05299" lon="-3.3602">
        <ele>3112</ele>
        <time>2021-08-05 20:24:31</time>
      </trkpt>
      <trkpt lat="37.05302" lon="-3.36022">
        <ele>3112</ele>
        <time>2021-08-05 20:24:32</time>
      </trkpt>
      <trkpt lat="37.053" lon="-3.36016">
        <ele>3112</ele>
        <time>2021-08-05 20:24:33</time>
      </trkpt>
      <trkpt lat="37.053" lon="-3.36015">
        <ele>3112</ele>
        <time>2021-08-05 20:24:34</time>
      </trkpt>
      <trkpt lat="37.05301" lon="-3.36013">
        <ele>3112</ele>
        <time>2021-08-05 20:24:35</time>
      </trkpt>
      <trkpt lat="37.05302" lon="-3.36012">
        <ele>3112</ele>
        <time>2021-08-05 20:24:36</time>
      </trkpt>
      <trkpt lat="37.05303" lon="-3.36011">
        <ele>3112</ele>
        <time>2021-08-05 20:24:37</time>
      </trkpt>
      <trkpt lat="37.05304" lon="-3.36011">
        <ele>3112</ele>
        <time>2021-08-05 20:24:38</time>
      </trkpt>
      <trkpt lat="37.05304" lon="-3.3601">
        <ele>3112</ele>
        <time>2021-08-05 20:24:39</time>
      </trkpt>
      <trkpt lat="37.05304" lon="-3.36009">
        <ele>3112</ele>
        <time>2021-08-05 20:24:40</time>
      </trkpt>
      <trkpt lat="37.05305" lon="-3.36009">
        <ele>3111.8</ele>
        <time>2021-08-05 20:24:41</time>
      </trkpt>
      <trkpt lat="37.05306" lon="-3.36008">
        <ele>3111.6</ele>
        <time>2021-08-05 20:24:42</time>
      </trkpt>
      <trkpt lat="37.05306" lon="-3.36007">
        <ele>3111.6</ele>
        <time>2021-08-05 20:24:43</time>
      </trkpt>
      <trkpt lat="37.05307" lon="-3.36006">
        <ele>3111.6</ele>
        <time>2021-08-05 20:24:44</time>
      </trkpt>
      <trkpt lat="37.05307" lon="-3.36006">
        <ele>3111.6</ele>
        <time>2021-08-05 20:24:45</time>
      </trkpt>
      <trkpt lat="37.05308" lon="-3.36005">
        <ele>3111.4</ele>
        <time>2021-08-05 20:24:46</time>
      </trkpt>
      <trkpt lat="37.05309" lon="-3.36005">
        <ele>3111.4</ele>
        <time>2021-08-05 20:24:47</time>
      </trkpt>
      <trkpt lat="37.05309" lon="-3.36004">
        <ele>3111.4</ele>
        <time>2021-08-05 20:24:48</time>
      </trkpt>
      <trkpt lat="37.0531" lon="-3.36003">
        <ele>3111.4</ele>
        <time>2021-08-05 20:24:49</time>
      </trkpt>
      <trkpt lat="37.05311" lon="-3.36003">
        <ele>3111.4</ele>
        <time>2021-08-05 20:24:50</time>
      </trkpt>
      <trkpt lat="37.05312" lon="-3.36003">
        <ele>3111.4</ele>
        <time>2021-08-05 20:24:51</time>
      </trkpt>
      <trkpt lat="37.05312" lon="-3.36002">
        <ele>3111.2</ele>
        <time>2021-08-05 20:24:52</time>
      </trkpt>
      <trkpt lat="37.05313" lon="-3.36001">
        <ele>3111.2</ele>
        <time>2021-08-05 20:24:53</time>
      </trkpt>
      <trkpt lat="37.05314" lon="-3.36">
        <ele>3111.2</ele>
        <time>2021-08-05 20:24:54</time>
      </trkpt>
      <trkpt lat="37.05315" lon="-3.35999">
        <ele>3111</ele>
        <time>2021-08-05 20:24:55</time>
      </trkpt>
      <trkpt lat="37.05315" lon="-3.35998">
        <ele>3111</ele>
        <time>2021-08-05 20:24:56</time>
      </trkpt>
      <trkpt lat="37.05316" lon="-3.35997">
        <ele>3111</ele>
        <time>2021-08-05 20:24:57</time>
      </trkpt>
      <trkpt lat="37.05317" lon="-3.35996">
        <ele>3111.2</ele>
        <time>2021-08-05 20:24:58</time>
      </trkpt>
      <trkpt lat="37.05318" lon="-3.35996">
        <ele>3111.2</ele>
        <time>2021-08-05 20:24:59</time>
      </trkpt>
      <trkpt lat="37.05318" lon="-3.35995">
        <ele>3111.2</ele>
        <time>2021-08-05 20:25:00</time>
      </trkpt>
      <trkpt lat="37.05319" lon="-3.35995">
        <ele>3111.2</ele>
        <time>2021-08-05 20:25:01</time>
      </trkpt>
      <trkpt lat="37.0532" lon="-3.35994">
        <ele>3111.4</ele>
        <time>2021-08-05 20:25:02</time>
      </trkpt>
      <trkpt lat="37.05321" lon="-3.35993">
        <ele>3111.4</ele>
        <time>2021-08-05 20:25:03</time>
      </trkpt>
      <trkpt lat="37.05321" lon="-3.35993">
        <ele>3111.4</ele>
        <time>2021-08-05 20:25:04</time>
      </trkpt>
      <trkpt lat="37.05321" lon="-3.35992">
        <ele>3111.4</ele>
        <time>2021-08-05 20:25:05</time>
      </trkpt>
      <trkpt lat="37.05322" lon="-3.35991">
        <ele>3111.2</ele>
        <time>2021-08-05 20:25:06</time>
      </trkpt>
      <trkpt lat="37.05323" lon="-3.3599">
        <ele>3111</ele>
        <time>2021-08-05 20:25:07</time>
      </trkpt>
      <trkpt lat="37.05323" lon="-3.3599">
        <ele>3111</ele>
        <time>2021-08-05 20:25:08</time>
      </trkpt>
      <trkpt lat="37.05324" lon="-3.35989">
        <ele>3110.8</ele>
        <time>2021-08-05 20:25:09</time>
      </trkpt>
      <trkpt lat="37.05324" lon="-3.35988">
        <ele>3110.6</ele>
        <time>2021-08-05 20:25:10</time>
      </trkpt>
      <trkpt lat="37.05325" lon="-3.35986">
        <ele>3110.4</ele>
        <time>2021-08-05 20:25:11</time>
      </trkpt>
      <trkpt lat="37.05325" lon="-3.35986">
        <ele>3110.2</ele>
        <time>2021-08-05 20:25:12</time>
      </trkpt>
      <trkpt lat="37.05326" lon="-3.35985">
        <ele>3110.2</ele>
        <time>2021-08-05 20:25:13</time>
      </trkpt>
      <trkpt lat="37.05326" lon="-3.35984">
        <ele>3110.2</ele>
        <time>2021-08-05 20:25:14</time>
      </trkpt>
      <trkpt lat="37.05327" lon="-3.35983">
        <ele>3110.2</ele>
        <time>2021-08-05 20:25:15</time>
      </trkpt>
      <trkpt lat="37.05328" lon="-3.35983">
        <ele>3110.2</ele>
        <time>2021-08-05 20:25:16</time>
      </trkpt>
      <trkpt lat="37.05327" lon="-3.35983">
        <ele>3110.4</ele>
        <time>2021-08-05 20:25:17</time>
      </trkpt>
      <trkpt lat="37.05327" lon="-3.35984">
        <ele>3110.4</ele>
        <time>2021-08-05 20:25:18</time>
      </trkpt>
      <trkpt lat="37.05327" lon="-3.35984">
        <ele>3110.6</ele>
        <time>2021-08-05 20:25:19</time>
      </trkpt>
      <trkpt lat="37.05327" lon="-3.35984">
        <ele>3110.6</ele>
        <time>2021-08-05 20:25:20</time>
      </trkpt>
      <trkpt lat="37.05328" lon="-3.35985">
        <ele>3110.6</ele>
        <time>2021-08-05 20:25:21</time>
      </trkpt>
      <trkpt lat="37.05328" lon="-3.35986">
        <ele>3110.6</ele>
        <time>2021-08-05 20:25:22</time>
      </trkpt>
      <trkpt lat="37.05327" lon="-3.35986">
        <ele>3110.8</ele>
        <time>2021-08-05 20:25:23</time>
      </trkpt>
      <trkpt lat="37.05327" lon="-3.35987">
        <ele>3110.8</ele>
        <time>2021-08-05 20:25:24</time>
      </trkpt>
      <trkpt lat="37.05327" lon="-3.35987">
        <ele>3110.8</ele>
        <time>2021-08-05 20:25:25</time>
      </trkpt>
      <trkpt lat="37.05326" lon="-3.35987">
        <ele>3111</ele>
        <time>2021-08-05 20:25:26</time>
      </trkpt>
      <trkpt lat="37.05326" lon="-3.35988">
        <ele>3111</ele>
        <time>2021-08-05 20:25:27</time>
      </trkpt>
      <trkpt lat="37.05325" lon="-3.35988">
        <ele>3111</ele>
        <time>2021-08-05 20:25:28</time>
      </trkpt>
      <trkpt lat="37.05325" lon="-3.35988">
        <ele>3111</ele>
        <time>2021-08-05 20:25:29</time>
      </trkpt>
      <trkpt lat="37.05325" lon="-3.35987">
        <ele>3111</ele>
        <time>2021-08-05 20:25:30</time>
      </trkpt>
      <trkpt lat="37.05325" lon="-3.35987">
        <ele>3111</ele>
        <time>2021-08-05 20:25:31</time>
      </trkpt>
      <trkpt lat="37.05325" lon="-3.35987">
        <ele>3111</ele>
        <time>2021-08-05 20:25:32</time>
      </trkpt>
      <trkpt lat="37.05325" lon="-3.35987">
        <ele>3111</ele>
        <time>2021-08-05 20:25:33</time>
      </trkpt>
      <trkpt lat="37.05325" lon="-3.35987">
        <ele>3111</ele>
        <time>2021-08-05 20:25:34</time>
      </trkpt>
      <trkpt lat="37.05325" lon="-3.35986">
        <ele>3111</ele>
        <time>2021-08-05 20:25:35</time>
      </trkpt>
      <trkpt lat="37.05325" lon="-3.35987">
        <ele>3111</ele>
        <time>2021-08-05 20:25:36</time>
      </trkpt>
      <trkpt lat="37.05325" lon="-3.35987">
        <ele>3111</ele>
        <time>2021-08-05 20:25:37</time>
      </trkpt>
      <trkpt lat="37.05325" lon="-3.35987">
        <ele>3111</ele>
        <time>2021-08-05 20:25:38</time>
      </trkpt>
      <trkpt lat="37.05325" lon="-3.35987">
        <ele>3110.8</ele>
        <time>2021-08-05 20:25:39</time>
      </trkpt>
      <trkpt lat="37.05325" lon="-3.35987">
        <ele>3110.8</ele>
        <time>2021-08-05 20:25:40</time>
      </trkpt>
      <trkpt lat="37.05325" lon="-3.35987">
        <ele>3110.8</ele>
        <time>2021-08-05 20:25:41</time>
      </trkpt>
      <trkpt lat="37.05325" lon="-3.35987">
        <ele>3110.6</ele>
        <time>2021-08-05 20:25:42</time>
      </trkpt>
      <trkpt lat="37.05325" lon="-3.35988">
        <ele>3110.6</ele>
        <time>2021-08-05 20:25:43</time>
      </trkpt>
      <trkpt lat="37.05325" lon="-3.35988">
        <ele>3110.8</ele>
        <time>2021-08-05 20:25:44</time>
      </trkpt>
      <trkpt lat="37.05325" lon="-3.35988">
        <ele>3110.8</ele>
        <time>2021-08-05 20:25:45</time>
      </trkpt>
      <trkpt lat="37.05325" lon="-3.35988">
        <ele>3110.8</ele>
        <time>2021-08-05 20:25:46</time>
      </trkpt>
      <trkpt lat="37.05325" lon="-3.35988">
        <ele>3111.2</ele>
        <time>2021-08-05 20:25:47</time>
      </trkpt>
      <trkpt lat="37.05325" lon="-3.35988">
        <ele>3111.4</ele>
        <time>2021-08-05 20:25:48</time>
      </trkpt>
      <trkpt lat="37.05325" lon="-3.35987">
        <ele>3111.4</ele>
        <time>2021-08-05 20:25:49</time>
      </trkpt>
      <trkpt lat="37.05326" lon="-3.35987">
        <ele>3111.2</ele>
        <time>2021-08-05 20:25:50</time>
      </trkpt>
      <trkpt lat="37.05326" lon="-3.35987">
        <ele>3111.2</ele>
        <time>2021-08-05 20:25:51</time>
      </trkpt>
      <trkpt lat="37.05327" lon="-3.35987">
        <ele>3111</ele>
        <time>2021-08-05 20:25:52</time>
      </trkpt>
      <trkpt lat="37.05328" lon="-3.35981">
        <ele>3110.8</ele>
        <time>2021-08-05 20:25:53</time>
      </trkpt>
      <trkpt lat="37.05329" lon="-3.3598">
        <ele>3110.8</ele>
        <time>2021-08-05 20:25:54</time>
      </trkpt>
      <trkpt lat="37.05329" lon="-3.35978">
        <ele>3110.6</ele>
        <time>2021-08-05 20:25:55</time>
      </trkpt>
      <trkpt lat="37.0533" lon="-3.35977">
        <ele>3110.6</ele>
        <time>2021-08-05 20:25:56</time>
      </trkpt>
      <trkpt lat="37.0533" lon="-3.35976">
        <ele>3110.6</ele>
        <time>2021-08-05 20:25:57</time>
      </trkpt>
      <trkpt lat="37.05331" lon="-3.35975">
        <ele>3110.6</ele>
        <time>2021-08-05 20:25:58</time>
      </trkpt>
      <trkpt lat="37.05332" lon="-3.35974">
        <ele>3110.6</ele>
        <time>2021-08-05 20:25:59</time>
      </trkpt>
      <trkpt lat="37.05334" lon="-3.35974">
        <ele>3110.6</ele>
        <time>2021-08-05 20:26:00</time>
      </trkpt>
      <trkpt lat="37.05334" lon="-3.35973">
        <ele>3110.6</ele>
        <time>2021-08-05 20:26:01</time>
      </trkpt>
      <trkpt lat="37.05335" lon="-3.35974">
        <ele>3110.6</ele>
        <time>2021-08-05 20:26:02</time>
      </trkpt>
      <trkpt lat="37.05335" lon="-3.35973">
        <ele>3110.6</ele>
        <time>2021-08-05 20:26:03</time>
      </trkpt>
      <trkpt lat="37.05336" lon="-3.35973">
        <ele>3110.4</ele>
        <time>2021-08-05 20:26:04</time>
      </trkpt>
      <trkpt lat="37.05337" lon="-3.35972">
        <ele>3110.4</ele>
        <time>2021-08-05 20:26:05</time>
      </trkpt>
      <trkpt lat="37.05338" lon="-3.35971">
        <ele>3110.4</ele>
        <time>2021-08-05 20:26:06</time>
      </trkpt>
      <trkpt lat="37.05338" lon="-3.3597">
        <ele>3110.2</ele>
        <time>2021-08-05 20:26:07</time>
      </trkpt>
      <trkpt lat="37.05338" lon="-3.35969">
        <ele>3110.2</ele>
        <time>2021-08-05 20:26:08</time>
      </trkpt>
      <trkpt lat="37.05338" lon="-3.35968">
        <ele>3110.2</ele>
        <time>2021-08-05 20:26:09</time>
      </trkpt>
      <trkpt lat="37.05339" lon="-3.35967">
        <ele>3110.2</ele>
        <time>2021-08-05 20:26:10</time>
      </trkpt>
      <trkpt lat="37.05339" lon="-3.35966">
        <ele>3110.2</ele>
        <time>2021-08-05 20:26:11</time>
      </trkpt>
      <trkpt lat="37.0534" lon="-3.35965">
        <ele>3110.2</ele>
        <time>2021-08-05 20:26:12</time>
      </trkpt>
      <trkpt lat="37.05341" lon="-3.35965">
        <ele>3110.2</ele>
        <time>2021-08-05 20:26:13</time>
      </trkpt>
      <trkpt lat="37.05341" lon="-3.35964">
        <ele>3110.2</ele>
        <time>2021-08-05 20:26:14</time>
      </trkpt>
      <trkpt lat="37.05342" lon="-3.35963">
        <ele>3110.2</ele>
        <time>2021-08-05 20:26:15</time>
      </trkpt>
      <trkpt lat="37.05343" lon="-3.35962">
        <ele>3110.2</ele>
        <time>2021-08-05 20:26:16</time>
      </trkpt>
      <trkpt lat="37.05343" lon="-3.35961">
        <ele>3110.2</ele>
        <time>2021-08-05 20:26:17</time>
      </trkpt>
      <trkpt lat="37.05344" lon="-3.3596">
        <ele>3110</ele>
        <time>2021-08-05 20:26:18</time>
      </trkpt>
      <trkpt lat="37.05345" lon="-3.35959">
        <ele>3110</ele>
        <time>2021-08-05 20:26:19</time>
      </trkpt>
      <trkpt lat="37.05346" lon="-3.35958">
        <ele>3109.8</ele>
        <time>2021-08-05 20:26:20</time>
      </trkpt>
      <trkpt lat="37.05347" lon="-3.35957">
        <ele>3109.8</ele>
        <time>2021-08-05 20:26:21</time>
      </trkpt>
      <trkpt lat="37.05347" lon="-3.35956">
        <ele>3109.8</ele>
        <time>2021-08-05 20:26:22</time>
      </trkpt>
      <trkpt lat="37.05348" lon="-3.35955">
        <ele>3109.8</ele>
        <time>2021-08-05 20:26:23</time>
      </trkpt>
      <trkpt lat="37.05349" lon="-3.35955">
        <ele>3109.8</ele>
        <time>2021-08-05 20:26:24</time>
      </trkpt>
      <trkpt lat="37.05349" lon="-3.35954">
        <ele>3109.6</ele>
        <time>2021-08-05 20:26:25</time>
      </trkpt>
      <trkpt lat="37.0535" lon="-3.35953">
        <ele>3109.6</ele>
        <time>2021-08-05 20:26:26</time>
      </trkpt>
      <trkpt lat="37.05351" lon="-3.35952">
        <ele>3109.4</ele>
        <time>2021-08-05 20:26:27</time>
      </trkpt>
      <trkpt lat="37.05351" lon="-3.3595">
        <ele>3109.4</ele>
        <time>2021-08-05 20:26:28</time>
      </trkpt>
      <trkpt lat="37.05351" lon="-3.3595">
        <ele>3109.4</ele>
        <time>2021-08-05 20:26:29</time>
      </trkpt>
      <trkpt lat="37.05353" lon="-3.35949">
        <ele>3109.4</ele>
        <time>2021-08-05 20:26:30</time>
      </trkpt>
      <trkpt lat="37.05354" lon="-3.35948">
        <ele>3109.4</ele>
        <time>2021-08-05 20:26:31</time>
      </trkpt>
      <trkpt lat="37.05355" lon="-3.35947">
        <ele>3109.4</ele>
        <time>2021-08-05 20:26:32</time>
      </trkpt>
      <trkpt lat="37.05356" lon="-3.35947">
        <ele>3109.4</ele>
        <time>2021-08-05 20:26:33</time>
      </trkpt>
      <trkpt lat="37.05356" lon="-3.35946">
        <ele>3109.4</ele>
        <time>2021-08-05 20:26:34</time>
      </trkpt>
      <trkpt lat="37.05357" lon="-3.35945">
        <ele>3109.4</ele>
        <time>2021-08-05 20:26:35</time>
      </trkpt>
      <trkpt lat="37.05358" lon="-3.35945">
        <ele>3109.4</ele>
        <time>2021-08-05 20:26:36</time>
      </trkpt>
      <trkpt lat="37.05359" lon="-3.35944">
        <ele>3109.2</ele>
        <time>2021-08-05 20:26:37</time>
      </trkpt>
      <trkpt lat="37.0536" lon="-3.35943">
        <ele>3109</ele>
        <time>2021-08-05 20:26:38</time>
      </trkpt>
      <trkpt lat="37.05361" lon="-3.35942">
        <ele>3108.8</ele>
        <time>2021-08-05 20:26:39</time>
      </trkpt>
      <trkpt lat="37.05362" lon="-3.35941">
        <ele>3108.8</ele>
        <time>2021-08-05 20:26:40</time>
      </trkpt>
      <trkpt lat="37.05363" lon="-3.3594">
        <ele>3109</ele>
        <time>2021-08-05 20:26:41</time>
      </trkpt>
      <trkpt lat="37.05364" lon="-3.35939">
        <ele>3108.8</ele>
        <time>2021-08-05 20:26:42</time>
      </trkpt>
      <trkpt lat="37.05365" lon="-3.35938">
        <ele>3108.8</ele>
        <time>2021-08-05 20:26:43</time>
      </trkpt>
      <trkpt lat="37.05366" lon="-3.35937">
        <ele>3108.8</ele>
        <time>2021-08-05 20:26:44</time>
      </trkpt>
      <trkpt lat="37.05366" lon="-3.35935">
        <ele>3108.8</ele>
        <time>2021-08-05 20:26:45</time>
      </trkpt>
      <trkpt lat="37.05367" lon="-3.35934">
        <ele>3108.8</ele>
        <time>2021-08-05 20:26:46</time>
      </trkpt>
      <trkpt lat="37.05367" lon="-3.35933">
        <ele>3108.8</ele>
        <time>2021-08-05 20:26:47</time>
      </trkpt>
      <trkpt lat="37.05367" lon="-3.35932">
        <ele>3108.8</ele>
        <time>2021-08-05 20:26:48</time>
      </trkpt>
      <trkpt lat="37.05367" lon="-3.35931">
        <ele>3108.8</ele>
        <time>2021-08-05 20:26:49</time>
      </trkpt>
      <trkpt lat="37.05368" lon="-3.3593">
        <ele>3108.6</ele>
        <time>2021-08-05 20:26:50</time>
      </trkpt>
      <trkpt lat="37.05369" lon="-3.35928">
        <ele>3108.6</ele>
        <time>2021-08-05 20:26:51</time>
      </trkpt>
      <trkpt lat="37.0537" lon="-3.35927">
        <ele>3108.4</ele>
        <time>2021-08-05 20:26:52</time>
      </trkpt>
      <trkpt lat="37.05371" lon="-3.35926">
        <ele>3108</ele>
        <time>2021-08-05 20:26:53</time>
      </trkpt>
      <trkpt lat="37.05372" lon="-3.35926">
        <ele>3107.8</ele>
        <time>2021-08-05 20:26:54</time>
      </trkpt>
      <trkpt lat="37.05373" lon="-3.35925">
        <ele>3107.6</ele>
        <time>2021-08-05 20:26:55</time>
      </trkpt>
      <trkpt lat="37.05373" lon="-3.35924">
        <ele>3107.6</ele>
        <time>2021-08-05 20:26:56</time>
      </trkpt>
      <trkpt lat="37.05374" lon="-3.35923">
        <ele>3107.2</ele>
        <time>2021-08-05 20:26:57</time>
      </trkpt>
      <trkpt lat="37.05375" lon="-3.35923">
        <ele>3107.2</ele>
        <time>2021-08-05 20:26:58</time>
      </trkpt>
      <trkpt lat="37.05375" lon="-3.35922">
        <ele>3107.2</ele>
        <time>2021-08-05 20:26:59</time>
      </trkpt>
      <trkpt lat="37.05376" lon="-3.35921">
        <ele>3107.2</ele>
        <time>2021-08-05 20:27:00</time>
      </trkpt>
      <trkpt lat="37.05376" lon="-3.3592">
        <ele>3107.4</ele>
        <time>2021-08-05 20:27:01</time>
      </trkpt>
      <trkpt lat="37.05376" lon="-3.35919">
        <ele>3107.2</ele>
        <time>2021-08-05 20:27:02</time>
      </trkpt>
      <trkpt lat="37.05376" lon="-3.35918">
        <ele>3107.2</ele>
        <time>2021-08-05 20:27:03</time>
      </trkpt>
      <trkpt lat="37.05376" lon="-3.35917">
        <ele>3107.2</ele>
        <time>2021-08-05 20:27:04</time>
      </trkpt>
      <trkpt lat="37.05375" lon="-3.35915">
        <ele>3107</ele>
        <time>2021-08-05 20:27:05</time>
      </trkpt>
      <trkpt lat="37.05376" lon="-3.35914">
        <ele>3107.2</ele>
        <time>2021-08-05 20:27:06</time>
      </trkpt>
      <trkpt lat="37.05376" lon="-3.35913">
        <ele>3107.2</ele>
        <time>2021-08-05 20:27:07</time>
      </trkpt>
      <trkpt lat="37.05377" lon="-3.35912">
        <ele>3107</ele>
        <time>2021-08-05 20:27:08</time>
      </trkpt>
      <trkpt lat="37.05377" lon="-3.3591">
        <ele>3107</ele>
        <time>2021-08-05 20:27:09</time>
      </trkpt>
      <trkpt lat="37.05378" lon="-3.35909">
        <ele>3107</ele>
        <time>2021-08-05 20:27:10</time>
      </trkpt>
      <trkpt lat="37.05378" lon="-3.35907">
        <ele>3107</ele>
        <time>2021-08-05 20:27:11</time>
      </trkpt>
      <trkpt lat="37.05379" lon="-3.35906">
        <ele>3107</ele>
        <time>2021-08-05 20:27:12</time>
      </trkpt>
      <trkpt lat="37.0538" lon="-3.35905">
        <ele>3107</ele>
        <time>2021-08-05 20:27:13</time>
      </trkpt>
      <trkpt lat="37.0538" lon="-3.35903">
        <ele>3106.8</ele>
        <time>2021-08-05 20:27:14</time>
      </trkpt>
      <trkpt lat="37.05381" lon="-3.35902">
        <ele>3107</ele>
        <time>2021-08-05 20:27:15</time>
      </trkpt>
      <trkpt lat="37.05382" lon="-3.35901">
        <ele>3107</ele>
        <time>2021-08-05 20:27:16</time>
      </trkpt>
      <trkpt lat="37.05382" lon="-3.359">
        <ele>3106.8</ele>
        <time>2021-08-05 20:27:17</time>
      </trkpt>
      <trkpt lat="37.05383" lon="-3.35898">
        <ele>3106.8</ele>
        <time>2021-08-05 20:27:18</time>
      </trkpt>
      <trkpt lat="37.05384" lon="-3.35897">
        <ele>3106.8</ele>
        <time>2021-08-05 20:27:19</time>
      </trkpt>
      <trkpt lat="37.05384" lon="-3.35896">
        <ele>3106.8</ele>
        <time>2021-08-05 20:27:20</time>
      </trkpt>
      <trkpt lat="37.05385" lon="-3.35894">
        <ele>3106.8</ele>
        <time>2021-08-05 20:27:21</time>
      </trkpt>
      <trkpt lat="37.05386" lon="-3.35893">
        <ele>3106.8</ele>
        <time>2021-08-05 20:27:22</time>
      </trkpt>
      <trkpt lat="37.05388" lon="-3.35892">
        <ele>3106.8</ele>
        <time>2021-08-05 20:27:23</time>
      </trkpt>
      <trkpt lat="37.05388" lon="-3.35891">
        <ele>3106.8</ele>
        <time>2021-08-05 20:27:24</time>
      </trkpt>
      <trkpt lat="37.05389" lon="-3.3589">
        <ele>3106.6</ele>
        <time>2021-08-05 20:27:25</time>
      </trkpt>
      <trkpt lat="37.0539" lon="-3.35889">
        <ele>3107</ele>
        <time>2021-08-05 20:27:26</time>
      </trkpt>
      <trkpt lat="37.05391" lon="-3.35888">
        <ele>3106.8</ele>
        <time>2021-08-05 20:27:27</time>
      </trkpt>
      <trkpt lat="37.05392" lon="-3.35887">
        <ele>3106.6</ele>
        <time>2021-08-05 20:27:28</time>
      </trkpt>
      <trkpt lat="37.05392" lon="-3.35886">
        <ele>3107</ele>
        <time>2021-08-05 20:27:29</time>
      </trkpt>
      <trkpt lat="37.05393" lon="-3.35885">
        <ele>3107</ele>
        <time>2021-08-05 20:27:30</time>
      </trkpt>
      <trkpt lat="37.05394" lon="-3.35885">
        <ele>3107</ele>
        <time>2021-08-05 20:27:31</time>
      </trkpt>
      <trkpt lat="37.05395" lon="-3.35884">
        <ele>3106.8</ele>
        <time>2021-08-05 20:27:32</time>
      </trkpt>
      <trkpt lat="37.05396" lon="-3.35883">
        <ele>3106.4</ele>
        <time>2021-08-05 20:27:33</time>
      </trkpt>
      <trkpt lat="37.05397" lon="-3.35882">
        <ele>3106.4</ele>
        <time>2021-08-05 20:27:34</time>
      </trkpt>
      <trkpt lat="37.05398" lon="-3.35881">
        <ele>3106.2</ele>
        <time>2021-08-05 20:27:35</time>
      </trkpt>
      <trkpt lat="37.05399" lon="-3.3588">
        <ele>3106.2</ele>
        <time>2021-08-05 20:27:36</time>
      </trkpt>
      <trkpt lat="37.054" lon="-3.3588">
        <ele>3106.2</ele>
        <time>2021-08-05 20:27:37</time>
      </trkpt>
      <trkpt lat="37.05401" lon="-3.35878">
        <ele>3106</ele>
        <time>2021-08-05 20:27:38</time>
      </trkpt>
      <trkpt lat="37.05401" lon="-3.35877">
        <ele>3106</ele>
        <time>2021-08-05 20:27:39</time>
      </trkpt>
      <trkpt lat="37.05402" lon="-3.35876">
        <ele>3106</ele>
        <time>2021-08-05 20:27:40</time>
      </trkpt>
      <trkpt lat="37.05402" lon="-3.35874">
        <ele>3106</ele>
        <time>2021-08-05 20:27:41</time>
      </trkpt>
      <trkpt lat="37.05403" lon="-3.35873">
        <ele>3106</ele>
        <time>2021-08-05 20:27:42</time>
      </trkpt>
      <trkpt lat="37.05404" lon="-3.35872">
        <ele>3106</ele>
        <time>2021-08-05 20:27:43</time>
      </trkpt>
      <trkpt lat="37.05404" lon="-3.35871">
        <ele>3106</ele>
        <time>2021-08-05 20:27:44</time>
      </trkpt>
      <trkpt lat="37.05404" lon="-3.3587">
        <ele>3106</ele>
        <time>2021-08-05 20:27:45</time>
      </trkpt>
      <trkpt lat="37.05404" lon="-3.35869">
        <ele>3106.2</ele>
        <time>2021-08-05 20:27:46</time>
      </trkpt>
      <trkpt lat="37.05405" lon="-3.35868">
        <ele>3106.2</ele>
        <time>2021-08-05 20:27:47</time>
      </trkpt>
      <trkpt lat="37.05406" lon="-3.35867">
        <ele>3106</ele>
        <time>2021-08-05 20:27:48</time>
      </trkpt>
      <trkpt lat="37.05406" lon="-3.35867">
        <ele>3106</ele>
        <time>2021-08-05 20:27:49</time>
      </trkpt>
      <trkpt lat="37.05407" lon="-3.35866">
        <ele>3106</ele>
        <time>2021-08-05 20:27:50</time>
      </trkpt>
      <trkpt lat="37.05408" lon="-3.35865">
        <ele>3106</ele>
        <time>2021-08-05 20:27:51</time>
      </trkpt>
      <trkpt lat="37.05409" lon="-3.35865">
        <ele>3106</ele>
        <time>2021-08-05 20:27:52</time>
      </trkpt>
      <trkpt lat="37.0541" lon="-3.35865">
        <ele>3106</ele>
        <time>2021-08-05 20:27:53</time>
      </trkpt>
      <trkpt lat="37.05411" lon="-3.35865">
        <ele>3106</ele>
        <time>2021-08-05 20:27:54</time>
      </trkpt>
      <trkpt lat="37.05412" lon="-3.35866">
        <ele>3105.8</ele>
        <time>2021-08-05 20:27:55</time>
      </trkpt>
      <trkpt lat="37.05412" lon="-3.35866">
        <ele>3105.8</ele>
        <time>2021-08-05 20:27:56</time>
      </trkpt>
      <trkpt lat="37.05413" lon="-3.35866">
        <ele>3105.8</ele>
        <time>2021-08-05 20:27:57</time>
      </trkpt>
      <trkpt lat="37.05413" lon="-3.35866">
        <ele>3105.6</ele>
        <time>2021-08-05 20:27:58</time>
      </trkpt>
      <trkpt lat="37.05413" lon="-3.35866">
        <ele>3105.6</ele>
        <time>2021-08-05 20:27:59</time>
      </trkpt>
      <trkpt lat="37.05412" lon="-3.35866">
        <ele>3105.4</ele>
        <time>2021-08-05 20:28:00</time>
      </trkpt>
      <trkpt lat="37.05412" lon="-3.35866">
        <ele>3105.4</ele>
        <time>2021-08-05 20:28:01</time>
      </trkpt>
      <trkpt lat="37.05411" lon="-3.35866">
        <ele>3105.4</ele>
        <time>2021-08-05 20:28:02</time>
      </trkpt>
      <trkpt lat="37.05411" lon="-3.35866">
        <ele>3105.2</ele>
        <time>2021-08-05 20:28:03</time>
      </trkpt>
      <trkpt lat="37.05412" lon="-3.35866">
        <ele>3105.2</ele>
        <time>2021-08-05 20:28:04</time>
      </trkpt>
      <trkpt lat="37.05412" lon="-3.35866">
        <ele>3105.2</ele>
        <time>2021-08-05 20:28:05</time>
      </trkpt>
      <trkpt lat="37.05413" lon="-3.35866">
        <ele>3105.2</ele>
        <time>2021-08-05 20:28:06</time>
      </trkpt>
      <trkpt lat="37.05413" lon="-3.35865">
        <ele>3105</ele>
        <time>2021-08-05 20:28:07</time>
      </trkpt>
      <trkpt lat="37.05413" lon="-3.35864">
        <ele>3105</ele>
        <time>2021-08-05 20:28:08</time>
      </trkpt>
      <trkpt lat="37.05414" lon="-3.35863">
        <ele>3105</ele>
        <time>2021-08-05 20:28:09</time>
      </trkpt>
      <trkpt lat="37.05415" lon="-3.35863">
        <ele>3104.8</ele>
        <time>2021-08-05 20:28:10</time>
      </trkpt>
      <trkpt lat="37.05417" lon="-3.35863">
        <ele>3104.8</ele>
        <time>2021-08-05 20:28:11</time>
      </trkpt>
      <trkpt lat="37.05418" lon="-3.35862">
        <ele>3104.6</ele>
        <time>2021-08-05 20:28:12</time>
      </trkpt>
      <trkpt lat="37.05419" lon="-3.35861">
        <ele>3104.6</ele>
        <time>2021-08-05 20:28:13</time>
      </trkpt>
      <trkpt lat="37.0542" lon="-3.3586">
        <ele>3104.6</ele>
        <time>2021-08-05 20:28:14</time>
      </trkpt>
      <trkpt lat="37.0542" lon="-3.35859">
        <ele>3104.4</ele>
        <time>2021-08-05 20:28:15</time>
      </trkpt>
      <trkpt lat="37.0542" lon="-3.35857">
        <ele>3104.4</ele>
        <time>2021-08-05 20:28:16</time>
      </trkpt>
      <trkpt lat="37.05421" lon="-3.35856">
        <ele>3104.4</ele>
        <time>2021-08-05 20:28:17</time>
      </trkpt>
      <trkpt lat="37.05421" lon="-3.35855">
        <ele>3104.6</ele>
        <time>2021-08-05 20:28:18</time>
      </trkpt>
      <trkpt lat="37.05422" lon="-3.35854">
        <ele>3104.6</ele>
        <time>2021-08-05 20:28:19</time>
      </trkpt>
      <trkpt lat="37.05422" lon="-3.35853">
        <ele>3104.6</ele>
        <time>2021-08-05 20:28:20</time>
      </trkpt>
      <trkpt lat="37.05423" lon="-3.35852">
        <ele>3104.6</ele>
        <time>2021-08-05 20:28:21</time>
      </trkpt>
      <trkpt lat="37.05423" lon="-3.35851">
        <ele>3104.6</ele>
        <time>2021-08-05 20:28:22</time>
      </trkpt>
      <trkpt lat="37.05423" lon="-3.35849">
        <ele>3104.6</ele>
        <time>2021-08-05 20:28:23</time>
      </trkpt>
      <trkpt lat="37.05423" lon="-3.35848">
        <ele>3104.6</ele>
        <time>2021-08-05 20:28:24</time>
      </trkpt>
      <trkpt lat="37.05424" lon="-3.35847">
        <ele>3104.6</ele>
        <time>2021-08-05 20:28:25</time>
      </trkpt>
      <trkpt lat="37.05424" lon="-3.35845">
        <ele>3104.4</ele>
        <time>2021-08-05 20:28:26</time>
      </trkpt>
      <trkpt lat="37.05424" lon="-3.35844">
        <ele>3104.6</ele>
        <time>2021-08-05 20:28:27</time>
      </trkpt>
      <trkpt lat="37.05425" lon="-3.35843">
        <ele>3104.4</ele>
        <time>2021-08-05 20:28:28</time>
      </trkpt>
      <trkpt lat="37.05426" lon="-3.35842">
        <ele>3104.4</ele>
        <time>2021-08-05 20:28:29</time>
      </trkpt>
      <trkpt lat="37.05426" lon="-3.3584">
        <ele>3104.4</ele>
        <time>2021-08-05 20:28:30</time>
      </trkpt>
      <trkpt lat="37.05427" lon="-3.35839">
        <ele>3104.2</ele>
        <time>2021-08-05 20:28:31</time>
      </trkpt>
      <trkpt lat="37.05427" lon="-3.35838">
        <ele>3104.4</ele>
        <time>2021-08-05 20:28:32</time>
      </trkpt>
      <trkpt lat="37.05427" lon="-3.35837">
        <ele>3104.4</ele>
        <time>2021-08-05 20:28:33</time>
      </trkpt>
      <trkpt lat="37.05428" lon="-3.35836">
        <ele>3104.2</ele>
        <time>2021-08-05 20:28:34</time>
      </trkpt>
      <trkpt lat="37.05428" lon="-3.35835">
        <ele>3104.2</ele>
        <time>2021-08-05 20:28:35</time>
      </trkpt>
      <trkpt lat="37.05429" lon="-3.35834">
        <ele>3104.2</ele>
        <time>2021-08-05 20:28:36</time>
      </trkpt>
      <trkpt lat="37.05429" lon="-3.35833">
        <ele>3104.2</ele>
        <time>2021-08-05 20:28:37</time>
      </trkpt>
      <trkpt lat="37.05428" lon="-3.35831">
        <ele>3104.2</ele>
        <time>2021-08-05 20:28:38</time>
      </trkpt>
      <trkpt lat="37.05429" lon="-3.3583">
        <ele>3104</ele>
        <time>2021-08-05 20:28:39</time>
      </trkpt>
      <trkpt lat="37.05429" lon="-3.35829">
        <ele>3104</ele>
        <time>2021-08-05 20:28:40</time>
      </trkpt>
      <trkpt lat="37.0543" lon="-3.35827">
        <ele>3103.8</ele>
        <time>2021-08-05 20:28:41</time>
      </trkpt>
      <trkpt lat="37.0543" lon="-3.35826">
        <ele>3103.6</ele>
        <time>2021-08-05 20:28:42</time>
      </trkpt>
      <trkpt lat="37.05432" lon="-3.35825">
        <ele>3103.6</ele>
        <time>2021-08-05 20:28:43</time>
      </trkpt>
      <trkpt lat="37.05433" lon="-3.35824">
        <ele>3103.4</ele>
        <time>2021-08-05 20:28:44</time>
      </trkpt>
      <trkpt lat="37.05434" lon="-3.35822">
        <ele>3103.4</ele>
        <time>2021-08-05 20:28:45</time>
      </trkpt>
      <trkpt lat="37.05435" lon="-3.35821">
        <ele>3103.4</ele>
        <time>2021-08-05 20:28:46</time>
      </trkpt>
      <trkpt lat="37.05436" lon="-3.3582">
        <ele>3103.4</ele>
        <time>2021-08-05 20:28:47</time>
      </trkpt>
      <trkpt lat="37.05436" lon="-3.35818">
        <ele>3103.6</ele>
        <time>2021-08-05 20:28:48</time>
      </trkpt>
      <trkpt lat="37.05435" lon="-3.35816">
        <ele>3103.6</ele>
        <time>2021-08-05 20:28:49</time>
      </trkpt>
      <trkpt lat="37.05436" lon="-3.35815">
        <ele>3103.4</ele>
        <time>2021-08-05 20:28:50</time>
      </trkpt>
      <trkpt lat="37.05438" lon="-3.35814">
        <ele>3103.6</ele>
        <time>2021-08-05 20:28:51</time>
      </trkpt>
      <trkpt lat="37.0544" lon="-3.35813">
        <ele>3103.4</ele>
        <time>2021-08-05 20:28:52</time>
      </trkpt>
      <trkpt lat="37.05441" lon="-3.35813">
        <ele>3103.2</ele>
        <time>2021-08-05 20:28:53</time>
      </trkpt>
      <trkpt lat="37.05442" lon="-3.35812">
        <ele>3103</ele>
        <time>2021-08-05 20:28:54</time>
      </trkpt>
      <trkpt lat="37.05443" lon="-3.3581">
        <ele>3102.8</ele>
        <time>2021-08-05 20:28:55</time>
      </trkpt>
      <trkpt lat="37.05443" lon="-3.3581">
        <ele>3102.8</ele>
        <time>2021-08-05 20:28:56</time>
      </trkpt>
      <trkpt lat="37.05444" lon="-3.35809">
        <ele>3102.8</ele>
        <time>2021-08-05 20:28:57</time>
      </trkpt>
      <trkpt lat="37.05445" lon="-3.35808">
        <ele>3102.8</ele>
        <time>2021-08-05 20:28:58</time>
      </trkpt>
      <trkpt lat="37.05445" lon="-3.35808">
        <ele>3102.8</ele>
        <time>2021-08-05 20:28:59</time>
      </trkpt>
      <trkpt lat="37.05446" lon="-3.35808">
        <ele>3102.8</ele>
        <time>2021-08-05 20:29:00</time>
      </trkpt>
      <trkpt lat="37.05445" lon="-3.35808">
        <ele>3103</ele>
        <time>2021-08-05 20:29:01</time>
      </trkpt>
      <trkpt lat="37.05445" lon="-3.35807">
        <ele>3103</ele>
        <time>2021-08-05 20:29:02</time>
      </trkpt>
      <trkpt lat="37.05446" lon="-3.35807">
        <ele>3103.2</ele>
        <time>2021-08-05 20:29:03</time>
      </trkpt>
      <trkpt lat="37.05445" lon="-3.35807">
        <ele>3103.2</ele>
        <time>2021-08-05 20:29:04</time>
      </trkpt>
      <trkpt lat="37.05445" lon="-3.35807">
        <ele>3103.2</ele>
        <time>2021-08-05 20:29:05</time>
      </trkpt>
      <trkpt lat="37.05444" lon="-3.35807">
        <ele>3103.4</ele>
        <time>2021-08-05 20:29:06</time>
      </trkpt>
      <trkpt lat="37.05444" lon="-3.35807">
        <ele>3103.4</ele>
        <time>2021-08-05 20:29:07</time>
      </trkpt>
      <trkpt lat="37.05444" lon="-3.35808">
        <ele>3103.6</ele>
        <time>2021-08-05 20:29:08</time>
      </trkpt>
      <trkpt lat="37.05444" lon="-3.35807">
        <ele>3103.6</ele>
        <time>2021-08-05 20:29:09</time>
      </trkpt>
      <trkpt lat="37.05444" lon="-3.35807">
        <ele>3103.6</ele>
        <time>2021-08-05 20:29:10</time>
      </trkpt>
      <trkpt lat="37.05443" lon="-3.35807">
        <ele>3103.6</ele>
        <time>2021-08-05 20:29:11</time>
      </trkpt>
      <trkpt lat="37.05443" lon="-3.35807">
        <ele>3103.6</ele>
        <time>2021-08-05 20:29:12</time>
      </trkpt>
      <trkpt lat="37.05443" lon="-3.35807">
        <ele>3103.6</ele>
        <time>2021-08-05 20:29:13</time>
      </trkpt>
      <trkpt lat="37.05443" lon="-3.35808">
        <ele>3103.6</ele>
        <time>2021-08-05 20:29:14</time>
      </trkpt>
      <trkpt lat="37.05443" lon="-3.35808">
        <ele>3103.4</ele>
        <time>2021-08-05 20:29:15</time>
      </trkpt>
      <trkpt lat="37.05443" lon="-3.35808">
        <ele>3103.2</ele>
        <time>2021-08-05 20:29:16</time>
      </trkpt>
      <trkpt lat="37.05442" lon="-3.35808">
        <ele>3103</ele>
        <time>2021-08-05 20:29:17</time>
      </trkpt>
      <trkpt lat="37.05442" lon="-3.35808">
        <ele>3102.8</ele>
        <time>2021-08-05 20:29:18</time>
      </trkpt>
      <trkpt lat="37.05441" lon="-3.35808">
        <ele>3103</ele>
        <time>2021-08-05 20:29:19</time>
      </trkpt>
      <trkpt lat="37.05441" lon="-3.35808">
        <ele>3103</ele>
        <time>2021-08-05 20:29:20</time>
      </trkpt>
      <trkpt lat="37.05441" lon="-3.35808">
        <ele>3103</ele>
        <time>2021-08-05 20:29:21</time>
      </trkpt>
      <trkpt lat="37.05441" lon="-3.35808">
        <ele>3103</ele>
        <time>2021-08-05 20:29:22</time>
      </trkpt>
      <trkpt lat="37.05441" lon="-3.35807">
        <ele>3103.2</ele>
        <time>2021-08-05 20:29:23</time>
      </trkpt>
      <trkpt lat="37.0544" lon="-3.35807">
        <ele>3103.4</ele>
        <time>2021-08-05 20:29:24</time>
      </trkpt>
      <trkpt lat="37.0544" lon="-3.35806">
        <ele>3103.2</ele>
        <time>2021-08-05 20:29:25</time>
      </trkpt>
      <trkpt lat="37.05439" lon="-3.35806">
        <ele>3103.2</ele>
        <time>2021-08-05 20:29:26</time>
      </trkpt>
      <trkpt lat="37.05439" lon="-3.35806">
        <ele>3103.2</ele>
        <time>2021-08-05 20:29:27</time>
      </trkpt>
      <trkpt lat="37.05438" lon="-3.35806">
        <ele>3103.2</ele>
        <time>2021-08-05 20:29:28</time>
      </trkpt>
      <trkpt lat="37.05438" lon="-3.35807">
        <ele>3103</ele>
        <time>2021-08-05 20:29:29</time>
      </trkpt>
      <trkpt lat="37.05438" lon="-3.35807">
        <ele>3103</ele>
        <time>2021-08-05 20:29:30</time>
      </trkpt>
      <trkpt lat="37.05438" lon="-3.35808">
        <ele>3103</ele>
        <time>2021-08-05 20:29:31</time>
      </trkpt>
      <trkpt lat="37.05438" lon="-3.35808">
        <ele>3103.2</ele>
        <time>2021-08-05 20:29:32</time>
      </trkpt>
      <trkpt lat="37.05437" lon="-3.35808">
        <ele>3103.2</ele>
        <time>2021-08-05 20:29:33</time>
      </trkpt>
      <trkpt lat="37.05438" lon="-3.35808">
        <ele>3103.2</ele>
        <time>2021-08-05 20:29:34</time>
      </trkpt>
      <trkpt lat="37.05439" lon="-3.35808">
        <ele>3103.2</ele>
        <time>2021-08-05 20:29:35</time>
      </trkpt>
      <trkpt lat="37.05439" lon="-3.35808">
        <ele>3103.2</ele>
        <time>2021-08-05 20:29:36</time>
      </trkpt>
      <trkpt lat="37.0544" lon="-3.35809">
        <ele>3103.4</ele>
        <time>2021-08-05 20:29:37</time>
      </trkpt>
      <trkpt lat="37.05441" lon="-3.3581">
        <ele>3103.4</ele>
        <time>2021-08-05 20:29:38</time>
      </trkpt>
      <trkpt lat="37.05441" lon="-3.35811">
        <ele>3103.4</ele>
        <time>2021-08-05 20:29:39</time>
      </trkpt>
      <trkpt lat="37.05442" lon="-3.35811">
        <ele>3103.4</ele>
        <time>2021-08-05 20:29:40</time>
      </trkpt>
      <trkpt lat="37.05442" lon="-3.3581">
        <ele>3103.4</ele>
        <time>2021-08-05 20:29:41</time>
      </trkpt>
      <trkpt lat="37.05442" lon="-3.3581">
        <ele>3103.4</ele>
        <time>2021-08-05 20:29:42</time>
      </trkpt>
      <trkpt lat="37.05442" lon="-3.3581">
        <ele>3103.2</ele>
        <time>2021-08-05 20:29:43</time>
      </trkpt>
      <trkpt lat="37.05442" lon="-3.3581">
        <ele>3103.2</ele>
        <time>2021-08-05 20:29:44</time>
      </trkpt>
      <trkpt lat="37.05442" lon="-3.35811">
        <ele>3103.4</ele>
        <time>2021-08-05 20:29:45</time>
      </trkpt>
      <trkpt lat="37.05442" lon="-3.3581">
        <ele>3103.4</ele>
        <time>2021-08-05 20:29:46</time>
      </trkpt>
      <trkpt lat="37.05442" lon="-3.3581">
        <ele>3103.4</ele>
        <time>2021-08-05 20:29:47</time>
      </trkpt>
      <trkpt lat="37.05442" lon="-3.35812">
        <ele>3103.4</ele>
        <time>2021-08-05 20:29:48</time>
      </trkpt>
      <trkpt lat="37.05442" lon="-3.35812">
        <ele>3103.4</ele>
        <time>2021-08-05 20:29:49</time>
      </trkpt>
      <trkpt lat="37.05442" lon="-3.35811">
        <ele>3103.4</ele>
        <time>2021-08-05 20:29:50</time>
      </trkpt>
      <trkpt lat="37.05441" lon="-3.35809">
        <ele>3103.4</ele>
        <time>2021-08-05 20:29:51</time>
      </trkpt>
      <trkpt lat="37.05441" lon="-3.35808">
        <ele>3103.4</ele>
        <time>2021-08-05 20:29:52</time>
      </trkpt>
      <trkpt lat="37.05441" lon="-3.35808">
        <ele>3103.6</ele>
        <time>2021-08-05 20:29:53</time>
      </trkpt>
      <trkpt lat="37.05441" lon="-3.35808">
        <ele>3103.6</ele>
        <time>2021-08-05 20:29:54</time>
      </trkpt>
      <trkpt lat="37.05439" lon="-3.35807">
        <ele>3103.6</ele>
        <time>2021-08-05 20:29:55</time>
      </trkpt>
      <trkpt lat="37.05439" lon="-3.35807">
        <ele>3103.6</ele>
        <time>2021-08-05 20:29:56</time>
      </trkpt>
      <trkpt lat="37.05439" lon="-3.35807">
        <ele>3103.6</ele>
        <time>2021-08-05 20:29:57</time>
      </trkpt>
      <trkpt lat="37.05439" lon="-3.35807">
        <ele>3103.6</ele>
        <time>2021-08-05 20:29:58</time>
      </trkpt>
      <trkpt lat="37.05439" lon="-3.35807">
        <ele>3103.4</ele>
        <time>2021-08-05 20:29:59</time>
      </trkpt>
      <trkpt lat="37.05439" lon="-3.35807">
        <ele>3103.2</ele>
        <time>2021-08-05 20:30:00</time>
      </trkpt>
      <trkpt lat="37.05438" lon="-3.35807">
        <ele>3103</ele>
        <time>2021-08-05 20:30:01</time>
      </trkpt>
      <trkpt lat="37.05438" lon="-3.35806">
        <ele>3102.8</ele>
        <time>2021-08-05 20:30:02</time>
      </trkpt>
      <trkpt lat="37.05438" lon="-3.35806">
        <ele>3102.8</ele>
        <time>2021-08-05 20:30:03</time>
      </trkpt>
      <trkpt lat="37.05438" lon="-3.35806">
        <ele>3102.6</ele>
        <time>2021-08-05 20:30:04</time>
      </trkpt>
      <trkpt lat="37.05438" lon="-3.35806">
        <ele>3102.6</ele>
        <time>2021-08-05 20:30:05</time>
      </trkpt>
      <trkpt lat="37.05439" lon="-3.35807">
        <ele>3102.4</ele>
        <time>2021-08-05 20:30:06</time>
      </trkpt>
      <trkpt lat="37.05439" lon="-3.35806">
        <ele>3102.4</ele>
        <time>2021-08-05 20:30:07</time>
      </trkpt>
      <trkpt lat="37.05441" lon="-3.35806">
        <ele>3102.4</ele>
        <time>2021-08-05 20:30:08</time>
      </trkpt>
      <trkpt lat="37.05442" lon="-3.35807">
        <ele>3102.4</ele>
        <time>2021-08-05 20:30:09</time>
      </trkpt>
      <trkpt lat="37.05443" lon="-3.35807">
        <ele>3102.2</ele>
        <time>2021-08-05 20:30:10</time>
      </trkpt>
      <trkpt lat="37.05442" lon="-3.35809">
        <ele>3102.2</ele>
        <time>2021-08-05 20:30:11</time>
      </trkpt>
      <trkpt lat="37.05441" lon="-3.35807">
        <ele>3102.2</ele>
        <time>2021-08-05 20:30:12</time>
      </trkpt>
      <trkpt lat="37.05442" lon="-3.35808">
        <ele>3102.4</ele>
        <time>2021-08-05 20:30:13</time>
      </trkpt>
      <trkpt lat="37.05442" lon="-3.35808">
        <ele>3102.4</ele>
        <time>2021-08-05 20:30:14</time>
      </trkpt>
      <trkpt lat="37.05442" lon="-3.35808">
        <ele>3102.2</ele>
        <time>2021-08-05 20:30:15</time>
      </trkpt>
      <trkpt lat="37.05442" lon="-3.35809">
        <ele>3102.4</ele>
        <time>2021-08-05 20:30:16</time>
      </trkpt>
      <trkpt lat="37.05443" lon="-3.35809">
        <ele>3102.4</ele>
        <time>2021-08-05 20:30:17</time>
      </trkpt>
      <trkpt lat="37.05443" lon="-3.3581">
        <ele>3102.4</ele>
        <time>2021-08-05 20:30:18</time>
      </trkpt>
      <trkpt lat="37.05443" lon="-3.35811">
        <ele>3102.4</ele>
        <time>2021-08-05 20:30:19</time>
      </trkpt>
      <trkpt lat="37.05443" lon="-3.35811">
        <ele>3102.4</ele>
        <time>2021-08-05 20:30:20</time>
      </trkpt>
      <trkpt lat="37.05443" lon="-3.3581">
        <ele>3102.4</ele>
        <time>2021-08-05 20:30:21</time>
      </trkpt>
      <trkpt lat="37.05443" lon="-3.35809">
        <ele>3102.4</ele>
        <time>2021-08-05 20:30:22</time>
      </trkpt>
      <trkpt lat="37.05443" lon="-3.35808">
        <ele>3102.4</ele>
        <time>2021-08-05 20:30:23</time>
      </trkpt>
      <trkpt lat="37.05443" lon="-3.35807">
        <ele>3102.4</ele>
        <time>2021-08-05 20:30:24</time>
      </trkpt>
      <trkpt lat="37.05443" lon="-3.35807">
        <ele>3102.2</ele>
        <time>2021-08-05 20:30:25</time>
      </trkpt>
      <trkpt lat="37.05474" lon="-3.3573">
        <ele>3102</ele>
        <time>2021-08-05 20:30:26</time>
      </trkpt>
      <trkpt lat="37.05474" lon="-3.35729">
        <ele>3102</ele>
        <time>2021-08-05 20:30:27</time>
      </trkpt>
      <trkpt lat="37.05475" lon="-3.35729">
        <ele>3102</ele>
        <time>2021-08-05 20:30:28</time>
      </trkpt>
      <trkpt lat="37.05475" lon="-3.35728">
        <ele>3100.8</ele>
        <time>2021-08-05 20:30:29</time>
      </trkpt>
      <trkpt lat="37.05476" lon="-3.35726">
        <ele>3100.2</ele>
        <time>2021-08-05 20:30:30</time>
      </trkpt>
      <trkpt lat="37.05476" lon="-3.35725">
        <ele>3099.8</ele>
        <time>2021-08-05 20:30:31</time>
      </trkpt>
      <trkpt lat="37.05478" lon="-3.35724">
        <ele>3099.6</ele>
        <time>2021-08-05 20:30:32</time>
      </trkpt>
      <trkpt lat="37.05478" lon="-3.35723">
        <ele>3099.4</ele>
        <time>2021-08-05 20:30:33</time>
      </trkpt>
      <trkpt lat="37.05479" lon="-3.35722">
        <ele>3099.4</ele>
        <time>2021-08-05 20:30:34</time>
      </trkpt>
      <trkpt lat="37.05479" lon="-3.35721">
        <ele>3099.4</ele>
        <time>2021-08-05 20:30:35</time>
      </trkpt>
      <trkpt lat="37.05479" lon="-3.3572">
        <ele>3099.4</ele>
        <time>2021-08-05 20:30:36</time>
      </trkpt>
      <trkpt lat="37.05479" lon="-3.35719">
        <ele>3099.4</ele>
        <time>2021-08-05 20:30:37</time>
      </trkpt>
      <trkpt lat="37.05479" lon="-3.35717">
        <ele>3099.4</ele>
        <time>2021-08-05 20:30:38</time>
      </trkpt>
      <trkpt lat="37.05479" lon="-3.35717">
        <ele>3099.4</ele>
        <time>2021-08-05 20:30:39</time>
      </trkpt>
      <trkpt lat="37.0548" lon="-3.35716">
        <ele>3099.4</ele>
        <time>2021-08-05 20:30:40</time>
      </trkpt>
      <trkpt lat="37.0548" lon="-3.35715">
        <ele>3099.2</ele>
        <time>2021-08-05 20:30:41</time>
      </trkpt>
      <trkpt lat="37.05481" lon="-3.35714">
        <ele>3099.2</ele>
        <time>2021-08-05 20:30:42</time>
      </trkpt>
      <trkpt lat="37.05482" lon="-3.35712">
        <ele>3099.2</ele>
        <time>2021-08-05 20:30:43</time>
      </trkpt>
      <trkpt lat="37.05482" lon="-3.35711">
        <ele>3099.2</ele>
        <time>2021-08-05 20:30:44</time>
      </trkpt>
      <trkpt lat="37.05482" lon="-3.3571">
        <ele>3099.2</ele>
        <time>2021-08-05 20:30:45</time>
      </trkpt>
      <trkpt lat="37.05482" lon="-3.35708">
        <ele>3099.2</ele>
        <time>2021-08-05 20:30:46</time>
      </trkpt>
      <trkpt lat="37.05482" lon="-3.35707">
        <ele>3099.2</ele>
        <time>2021-08-05 20:30:47</time>
      </trkpt>
      <trkpt lat="37.05482" lon="-3.35705">
        <ele>3099.2</ele>
        <time>2021-08-05 20:30:48</time>
      </trkpt>
      <trkpt lat="37.05482" lon="-3.35703">
        <ele>3099.2</ele>
        <time>2021-08-05 20:30:49</time>
      </trkpt>
      <trkpt lat="37.05482" lon="-3.35702">
        <ele>3099.2</ele>
        <time>2021-08-05 20:30:50</time>
      </trkpt>
      <trkpt lat="37.05482" lon="-3.357">
        <ele>3099.2</ele>
        <time>2021-08-05 20:30:51</time>
      </trkpt>
      <trkpt lat="37.05482" lon="-3.35699">
        <ele>3099.2</ele>
        <time>2021-08-05 20:30:52</time>
      </trkpt>
      <trkpt lat="37.05482" lon="-3.35697">
        <ele>3099.2</ele>
        <time>2021-08-05 20:30:53</time>
      </trkpt>
      <trkpt lat="37.05483" lon="-3.35696">
        <ele>3099.4</ele>
        <time>2021-08-05 20:30:54</time>
      </trkpt>
      <trkpt lat="37.05484" lon="-3.35694">
        <ele>3099.2</ele>
        <time>2021-08-05 20:30:55</time>
      </trkpt>
      <trkpt lat="37.05484" lon="-3.35692">
        <ele>3099.2</ele>
        <time>2021-08-05 20:30:56</time>
      </trkpt>
      <trkpt lat="37.05485" lon="-3.35691">
        <ele>3099.2</ele>
        <time>2021-08-05 20:30:57</time>
      </trkpt>
      <trkpt lat="37.05485" lon="-3.3569">
        <ele>3099.2</ele>
        <time>2021-08-05 20:30:58</time>
      </trkpt>
      <trkpt lat="37.05485" lon="-3.35688">
        <ele>3099</ele>
        <time>2021-08-05 20:30:59</time>
      </trkpt>
      <trkpt lat="37.05485" lon="-3.35687">
        <ele>3098.8</ele>
        <time>2021-08-05 20:31:00</time>
      </trkpt>
      <trkpt lat="37.05485" lon="-3.35686">
        <ele>3098.6</ele>
        <time>2021-08-05 20:31:01</time>
      </trkpt>
      <trkpt lat="37.05486" lon="-3.35685">
        <ele>3098.6</ele>
        <time>2021-08-05 20:31:02</time>
      </trkpt>
      <trkpt lat="37.05487" lon="-3.35684">
        <ele>3098.6</ele>
        <time>2021-08-05 20:31:03</time>
      </trkpt>
      <trkpt lat="37.05487" lon="-3.35683">
        <ele>3098.4</ele>
        <time>2021-08-05 20:31:04</time>
      </trkpt>
      <trkpt lat="37.05487" lon="-3.35681">
        <ele>3098.4</ele>
        <time>2021-08-05 20:31:05</time>
      </trkpt>
      <trkpt lat="37.05488" lon="-3.3568">
        <ele>3098.4</ele>
        <time>2021-08-05 20:31:06</time>
      </trkpt>
      <trkpt lat="37.05488" lon="-3.35679">
        <ele>3098.4</ele>
        <time>2021-08-05 20:31:07</time>
      </trkpt>
      <trkpt lat="37.05488" lon="-3.35677">
        <ele>3098.4</ele>
        <time>2021-08-05 20:31:08</time>
      </trkpt>
      <trkpt lat="37.05489" lon="-3.35676">
        <ele>3098.4</ele>
        <time>2021-08-05 20:31:09</time>
      </trkpt>
      <trkpt lat="37.05489" lon="-3.35674">
        <ele>3098.2</ele>
        <time>2021-08-05 20:31:10</time>
      </trkpt>
      <trkpt lat="37.05489" lon="-3.35673">
        <ele>3098.2</ele>
        <time>2021-08-05 20:31:11</time>
      </trkpt>
      <trkpt lat="37.05488" lon="-3.35671">
        <ele>3098.2</ele>
        <time>2021-08-05 20:31:12</time>
      </trkpt>
      <trkpt lat="37.05488" lon="-3.3567">
        <ele>3098.2</ele>
        <time>2021-08-05 20:31:13</time>
      </trkpt>
      <trkpt lat="37.05488" lon="-3.35668">
        <ele>3098.4</ele>
        <time>2021-08-05 20:31:14</time>
      </trkpt>
      <trkpt lat="37.05488" lon="-3.35667">
        <ele>3098.2</ele>
        <time>2021-08-05 20:31:15</time>
      </trkpt>
      <trkpt lat="37.05488" lon="-3.35666">
        <ele>3098.2</ele>
        <time>2021-08-05 20:31:16</time>
      </trkpt>
      <trkpt lat="37.05488" lon="-3.35665">
        <ele>3098</ele>
        <time>2021-08-05 20:31:17</time>
      </trkpt>
      <trkpt lat="37.05488" lon="-3.35663">
        <ele>3098.2</ele>
        <time>2021-08-05 20:31:18</time>
      </trkpt>
      <trkpt lat="37.05488" lon="-3.35662">
        <ele>3098.4</ele>
        <time>2021-08-05 20:31:19</time>
      </trkpt>
      <trkpt lat="37.05488" lon="-3.35661">
        <ele>3098.4</ele>
        <time>2021-08-05 20:31:20</time>
      </trkpt>
      <trkpt lat="37.05488" lon="-3.3566">
        <ele>3098.2</ele>
        <time>2021-08-05 20:31:21</time>
      </trkpt>
      <trkpt lat="37.05488" lon="-3.35659">
        <ele>3098</ele>
        <time>2021-08-05 20:31:22</time>
      </trkpt>
      <trkpt lat="37.05489" lon="-3.35657">
        <ele>3097.8</ele>
        <time>2021-08-05 20:31:23</time>
      </trkpt>
      <trkpt lat="37.05489" lon="-3.35656">
        <ele>3097.8</ele>
        <time>2021-08-05 20:31:24</time>
      </trkpt>
      <trkpt lat="37.0549" lon="-3.35655">
        <ele>3097.6</ele>
        <time>2021-08-05 20:31:25</time>
      </trkpt>
      <trkpt lat="37.0549" lon="-3.35653">
        <ele>3097.6</ele>
        <time>2021-08-05 20:31:26</time>
      </trkpt>
      <trkpt lat="37.0549" lon="-3.35652">
        <ele>3097.6</ele>
        <time>2021-08-05 20:31:27</time>
      </trkpt>
      <trkpt lat="37.0549" lon="-3.35651">
        <ele>3097.8</ele>
        <time>2021-08-05 20:31:28</time>
      </trkpt>
      <trkpt lat="37.0549" lon="-3.35649">
        <ele>3097.8</ele>
        <time>2021-08-05 20:31:29</time>
      </trkpt>
      <trkpt lat="37.0549" lon="-3.35648">
        <ele>3098</ele>
        <time>2021-08-05 20:31:30</time>
      </trkpt>
      <trkpt lat="37.0549" lon="-3.35646">
        <ele>3098.2</ele>
        <time>2021-08-05 20:31:31</time>
      </trkpt>
      <trkpt lat="37.0549" lon="-3.35645">
        <ele>3097.8</ele>
        <time>2021-08-05 20:31:32</time>
      </trkpt>
      <trkpt lat="37.0549" lon="-3.35644">
        <ele>3097.6</ele>
        <time>2021-08-05 20:31:33</time>
      </trkpt>
      <trkpt lat="37.0549" lon="-3.35642">
        <ele>3097.6</ele>
        <time>2021-08-05 20:31:34</time>
      </trkpt>
      <trkpt lat="37.0549" lon="-3.35641">
        <ele>3097.6</ele>
        <time>2021-08-05 20:31:35</time>
      </trkpt>
      <trkpt lat="37.0549" lon="-3.3564">
        <ele>3097.6</ele>
        <time>2021-08-05 20:31:36</time>
      </trkpt>
      <trkpt lat="37.05491" lon="-3.35639">
        <ele>3097.6</ele>
        <time>2021-08-05 20:31:37</time>
      </trkpt>
      <trkpt lat="37.05491" lon="-3.35638">
        <ele>3097.6</ele>
        <time>2021-08-05 20:37:26</time>
      </trkpt>
      <trkpt lat="37.05491" lon="-3.35636">
        <ele>3097.6</ele>
        <time>2021-08-05 20:37:27</time>
      </trkpt>
      <trkpt lat="37.05492" lon="-3.35635">
        <ele>3097.4</ele>
        <time>2021-08-05 20:37:28</time>
      </trkpt>
      <trkpt lat="37.05492" lon="-3.35634">
        <ele>3097.4</ele>
        <time>2021-08-05 20:37:29</time>
      </trkpt>
      <trkpt lat="37.05493" lon="-3.35633">
        <ele>3097.6</ele>
        <time>2021-08-05 20:37:30</time>
      </trkpt>
      <trkpt lat="37.05493" lon="-3.35632">
        <ele>3097.6</ele>
        <time>2021-08-05 20:37:31</time>
      </trkpt>
      <trkpt lat="37.05493" lon="-3.3563">
        <ele>3097.6</ele>
        <time>2021-08-05 20:37:32</time>
      </trkpt>
      <trkpt lat="37.05493" lon="-3.35629">
        <ele>3097.4</ele>
        <time>2021-08-05 20:37:33</time>
      </trkpt>
      <trkpt lat="37.05493" lon="-3.35627">
        <ele>3097.4</ele>
        <time>2021-08-05 20:37:34</time>
      </trkpt>
      <trkpt lat="37.05494" lon="-3.35626">
        <ele>3097.6</ele>
        <time>2021-08-05 20:37:35</time>
      </trkpt>
      <trkpt lat="37.05495" lon="-3.35625">
        <ele>3097.6</ele>
        <time>2021-08-05 20:37:36</time>
      </trkpt>
      <trkpt lat="37.05495" lon="-3.35624">
        <ele>3097.4</ele>
        <time>2021-08-05 20:37:37</time>
      </trkpt>
      <trkpt lat="37.05495" lon="-3.35622">
        <ele>3097.2</ele>
        <time>2021-08-05 20:37:38</time>
      </trkpt>
      <trkpt lat="37.05495" lon="-3.35621">
        <ele>3097.2</ele>
        <time>2021-08-05 20:37:39</time>
      </trkpt>
      <trkpt lat="37.05495" lon="-3.35619">
        <ele>3097.4</ele>
        <time>2021-08-05 20:37:40</time>
      </trkpt>
      <trkpt lat="37.05496" lon="-3.35618">
        <ele>3097.2</ele>
        <time>2021-08-05 20:37:41</time>
      </trkpt>
      <trkpt lat="37.05498" lon="-3.35618">
        <ele>3097.2</ele>
        <time>2021-08-05 20:37:42</time>
      </trkpt>
      <trkpt lat="37.05498" lon="-3.35618">
        <ele>3097.2</ele>
        <time>2021-08-05 20:37:43</time>
      </trkpt>
      <trkpt lat="37.05498" lon="-3.35618">
        <ele>3097.2</ele>
        <time>2021-08-05 20:37:44</time>
      </trkpt>
      <trkpt lat="37.05499" lon="-3.35617">
        <ele>3097.2</ele>
        <time>2021-08-05 20:37:45</time>
      </trkpt>
      <trkpt lat="37.05498" lon="-3.35617">
        <ele>3097.2</ele>
        <time>2021-08-05 20:37:46</time>
      </trkpt>
      <trkpt lat="37.05498" lon="-3.35616">
        <ele>3096.8</ele>
        <time>2021-08-05 20:37:47</time>
      </trkpt>
      <trkpt lat="37.05498" lon="-3.35615">
        <ele>3096.8</ele>
        <time>2021-08-05 20:37:48</time>
      </trkpt>
      <trkpt lat="37.05498" lon="-3.35613">
        <ele>3096.6</ele>
        <time>2021-08-05 20:37:49</time>
      </trkpt>
      <trkpt lat="37.05498" lon="-3.35612">
        <ele>3096.8</ele>
        <time>2021-08-05 20:37:50</time>
      </trkpt>
      <trkpt lat="37.05499" lon="-3.35611">
        <ele>3096.8</ele>
        <time>2021-08-05 20:37:51</time>
      </trkpt>
      <trkpt lat="37.05499" lon="-3.3561">
        <ele>3097</ele>
        <time>2021-08-05 20:37:52</time>
      </trkpt>
      <trkpt lat="37.055" lon="-3.35609">
        <ele>3097</ele>
        <time>2021-08-05 20:37:53</time>
      </trkpt>
      <trkpt lat="37.05499" lon="-3.35608">
        <ele>3097</ele>
        <time>2021-08-05 20:37:54</time>
      </trkpt>
      <trkpt lat="37.055" lon="-3.35607">
        <ele>3097</ele>
        <time>2021-08-05 20:37:55</time>
      </trkpt>
      <trkpt lat="37.055" lon="-3.35606">
        <ele>3097</ele>
        <time>2021-08-05 20:37:56</time>
      </trkpt>
      <trkpt lat="37.055" lon="-3.35605">
        <ele>3096.8</ele>
        <time>2021-08-05 20:37:57</time>
      </trkpt>
      <trkpt lat="37.055" lon="-3.35603">
        <ele>3096.8</ele>
        <time>2021-08-05 20:37:58</time>
      </trkpt>
      <trkpt lat="37.055" lon="-3.35602">
        <ele>3096.8</ele>
        <time>2021-08-05 20:37:59</time>
      </trkpt>
      <trkpt lat="37.055" lon="-3.35601">
        <ele>3096.6</ele>
        <time>2021-08-05 20:38:00</time>
      </trkpt>
      <trkpt lat="37.055" lon="-3.356">
        <ele>3096.4</ele>
        <time>2021-08-05 20:38:01</time>
      </trkpt>
      <trkpt lat="37.05501" lon="-3.35599">
        <ele>3096.4</ele>
        <time>2021-08-05 20:38:02</time>
      </trkpt>
      <trkpt lat="37.05501" lon="-3.35598">
        <ele>3096.4</ele>
        <time>2021-08-05 20:38:03</time>
      </trkpt>
      <trkpt lat="37.05501" lon="-3.35597">
        <ele>3096.4</ele>
        <time>2021-08-05 20:38:04</time>
      </trkpt>
      <trkpt lat="37.05501" lon="-3.35596">
        <ele>3096.4</ele>
        <time>2021-08-05 20:38:05</time>
      </trkpt>
      <trkpt lat="37.05501" lon="-3.35595">
        <ele>3096.4</ele>
        <time>2021-08-05 20:38:06</time>
      </trkpt>
      <trkpt lat="37.05501" lon="-3.35593">
        <ele>3096.4</ele>
        <time>2021-08-05 20:38:07</time>
      </trkpt>
      <trkpt lat="37.05502" lon="-3.35592">
        <ele>3096.6</ele>
        <time>2021-08-05 20:38:08</time>
      </trkpt>
      <trkpt lat="37.05503" lon="-3.35591">
        <ele>3096.6</ele>
        <time>2021-08-05 20:38:09</time>
      </trkpt>
      <trkpt lat="37.05503" lon="-3.3559">
        <ele>3096.6</ele>
        <time>2021-08-05 20:38:10</time>
      </trkpt>
      <trkpt lat="37.05504" lon="-3.35588">
        <ele>3096.8</ele>
        <time>2021-08-05 20:38:11</time>
      </trkpt>
      <trkpt lat="37.05504" lon="-3.35587">
        <ele>3096.8</ele>
        <time>2021-08-05 20:38:12</time>
      </trkpt>
      <trkpt lat="37.05504" lon="-3.35586">
        <ele>3096.8</ele>
        <time>2021-08-05 20:38:13</time>
      </trkpt>
      <trkpt lat="37.05504" lon="-3.35584">
        <ele>3096.6</ele>
        <time>2021-08-05 20:38:14</time>
      </trkpt>
      <trkpt lat="37.05504" lon="-3.35583">
        <ele>3096.4</ele>
        <time>2021-08-05 20:38:15</time>
      </trkpt>
      <trkpt lat="37.05504" lon="-3.35582">
        <ele>3096.4</ele>
        <time>2021-08-05 20:38:16</time>
      </trkpt>
      <trkpt lat="37.05504" lon="-3.35581">
        <ele>3096.6</ele>
        <time>2021-08-05 20:38:17</time>
      </trkpt>
      <trkpt lat="37.05504" lon="-3.3558">
        <ele>3096.6</ele>
        <time>2021-08-05 20:38:18</time>
      </trkpt>
      <trkpt lat="37.05504" lon="-3.35578">
        <ele>3096.6</ele>
        <time>2021-08-05 20:38:19</time>
      </trkpt>
      <trkpt lat="37.05504" lon="-3.35578">
        <ele>3096.6</ele>
        <time>2021-08-05 20:38:20</time>
      </trkpt>
      <trkpt lat="37.05505" lon="-3.35577">
        <ele>3096.6</ele>
        <time>2021-08-05 20:38:21</time>
      </trkpt>
      <trkpt lat="37.05506" lon="-3.35576">
        <ele>3096.6</ele>
        <time>2021-08-05 20:38:22</time>
      </trkpt>
      <trkpt lat="37.05506" lon="-3.35576">
        <ele>3096.6</ele>
        <time>2021-08-05 20:38:23</time>
      </trkpt>
      <trkpt lat="37.05506" lon="-3.35575">
        <ele>3096.6</ele>
        <time>2021-08-05 20:38:24</time>
      </trkpt>
      <trkpt lat="37.05506" lon="-3.35574">
        <ele>3096.4</ele>
        <time>2021-08-05 20:38:25</time>
      </trkpt>
      <trkpt lat="37.05507" lon="-3.35573">
        <ele>3096.2</ele>
        <time>2021-08-05 20:38:26</time>
      </trkpt>
      <trkpt lat="37.05507" lon="-3.35572">
        <ele>3096.4</ele>
        <time>2021-08-05 20:38:27</time>
      </trkpt>
      <trkpt lat="37.05507" lon="-3.35571">
        <ele>3096.4</ele>
        <time>2021-08-05 20:38:28</time>
      </trkpt>
      <trkpt lat="37.05507" lon="-3.35569">
        <ele>3096.4</ele>
        <time>2021-08-05 20:38:29</time>
      </trkpt>
      <trkpt lat="37.05507" lon="-3.35568">
        <ele>3096.2</ele>
        <time>2021-08-05 20:38:30</time>
      </trkpt>
      <trkpt lat="37.05507" lon="-3.35567">
        <ele>3096.2</ele>
        <time>2021-08-05 20:38:31</time>
      </trkpt>
      <trkpt lat="37.05507" lon="-3.35566">
        <ele>3096.4</ele>
        <time>2021-08-05 20:38:32</time>
      </trkpt>
      <trkpt lat="37.05507" lon="-3.35565">
        <ele>3096.2</ele>
        <time>2021-08-05 20:38:33</time>
      </trkpt>
      <trkpt lat="37.05507" lon="-3.35563">
        <ele>3096</ele>
        <time>2021-08-05 20:38:34</time>
      </trkpt>
      <trkpt lat="37.05507" lon="-3.35562">
        <ele>3096</ele>
        <time>2021-08-05 20:38:35</time>
      </trkpt>
      <trkpt lat="37.05508" lon="-3.35561">
        <ele>3096</ele>
        <time>2021-08-05 20:38:36</time>
      </trkpt>
      <trkpt lat="37.05508" lon="-3.35559">
        <ele>3096</ele>
        <time>2021-08-05 20:38:37</time>
      </trkpt>
      <trkpt lat="37.05509" lon="-3.35558">
        <ele>3096</ele>
        <time>2021-08-05 20:38:38</time>
      </trkpt>
      <trkpt lat="37.0551" lon="-3.35557">
        <ele>3095.8</ele>
        <time>2021-08-05 20:38:39</time>
      </trkpt>
      <trkpt lat="37.0551" lon="-3.35556">
        <ele>3095.8</ele>
        <time>2021-08-05 20:38:40</time>
      </trkpt>
      <trkpt lat="37.05511" lon="-3.35555">
        <ele>3095.8</ele>
        <time>2021-08-05 20:38:41</time>
      </trkpt>
      <trkpt lat="37.05512" lon="-3.35554">
        <ele>3095.8</ele>
        <time>2021-08-05 20:38:42</time>
      </trkpt>
      <trkpt lat="37.05513" lon="-3.35552">
        <ele>3095.8</ele>
        <time>2021-08-05 20:38:43</time>
      </trkpt>
      <trkpt lat="37.05514" lon="-3.35551">
        <ele>3095.8</ele>
        <time>2021-08-05 20:38:44</time>
      </trkpt>
      <trkpt lat="37.05515" lon="-3.3555">
        <ele>3095.8</ele>
        <time>2021-08-05 20:38:45</time>
      </trkpt>
      <trkpt lat="37.05516" lon="-3.3555">
        <ele>3095.8</ele>
        <time>2021-08-05 20:38:46</time>
      </trkpt>
      <trkpt lat="37.05517" lon="-3.35549">
        <ele>3095.8</ele>
        <time>2021-08-05 20:38:47</time>
      </trkpt>
      <trkpt lat="37.05518" lon="-3.35548">
        <ele>3095.8</ele>
        <time>2021-08-05 20:38:48</time>
      </trkpt>
      <trkpt lat="37.05519" lon="-3.35547">
        <ele>3095.8</ele>
        <time>2021-08-05 20:38:49</time>
      </trkpt>
      <trkpt lat="37.05521" lon="-3.35546">
        <ele>3095.8</ele>
        <time>2021-08-05 20:38:50</time>
      </trkpt>
      <trkpt lat="37.05521" lon="-3.35545">
        <ele>3095.6</ele>
        <time>2021-08-05 20:38:51</time>
      </trkpt>
      <trkpt lat="37.05522" lon="-3.35544">
        <ele>3095.6</ele>
        <time>2021-08-05 20:38:52</time>
      </trkpt>
      <trkpt lat="37.05523" lon="-3.35543">
        <ele>3095.6</ele>
        <time>2021-08-05 20:38:53</time>
      </trkpt>
      <trkpt lat="37.05522" lon="-3.35542">
        <ele>3095.6</ele>
        <time>2021-08-05 20:38:54</time>
      </trkpt>
      <trkpt lat="37.05523" lon="-3.35541">
        <ele>3095.6</ele>
        <time>2021-08-05 20:38:55</time>
      </trkpt>
      <trkpt lat="37.05524" lon="-3.3554">
        <ele>3095.6</ele>
        <time>2021-08-05 20:38:56</time>
      </trkpt>
      <trkpt lat="37.05524" lon="-3.3554">
        <ele>3095.4</ele>
        <time>2021-08-05 20:38:57</time>
      </trkpt>
      <trkpt lat="37.05524" lon="-3.35539">
        <ele>3095.4</ele>
        <time>2021-08-05 20:38:58</time>
      </trkpt>
      <trkpt lat="37.05524" lon="-3.35537">
        <ele>3095.4</ele>
        <time>2021-08-05 20:38:59</time>
      </trkpt>
      <trkpt lat="37.05524" lon="-3.35537">
        <ele>3095.4</ele>
        <time>2021-08-05 20:39:00</time>
      </trkpt>
      <trkpt lat="37.05525" lon="-3.35536">
        <ele>3095.2</ele>
        <time>2021-08-05 20:39:01</time>
      </trkpt>
      <trkpt lat="37.05526" lon="-3.35535">
        <ele>3095.2</ele>
        <time>2021-08-05 20:39:02</time>
      </trkpt>
      <trkpt lat="37.05526" lon="-3.35534">
        <ele>3095.2</ele>
        <time>2021-08-05 20:39:03</time>
      </trkpt>
      <trkpt lat="37.05527" lon="-3.35532">
        <ele>3095.2</ele>
        <time>2021-08-05 20:39:04</time>
      </trkpt>
      <trkpt lat="37.05527" lon="-3.35531">
        <ele>3095.2</ele>
        <time>2021-08-05 20:39:05</time>
      </trkpt>
      <trkpt lat="37.05528" lon="-3.35531">
        <ele>3095.2</ele>
        <time>2021-08-05 20:39:06</time>
      </trkpt>
      <trkpt lat="37.05528" lon="-3.35529">
        <ele>3095.2</ele>
        <time>2021-08-05 20:39:07</time>
      </trkpt>
      <trkpt lat="37.05529" lon="-3.35528">
        <ele>3095.2</ele>
        <time>2021-08-05 20:39:08</time>
      </trkpt>
      <trkpt lat="37.05529" lon="-3.35527">
        <ele>3094.8</ele>
        <time>2021-08-05 20:39:09</time>
      </trkpt>
      <trkpt lat="37.05529" lon="-3.35526">
        <ele>3094.6</ele>
        <time>2021-08-05 20:39:10</time>
      </trkpt>
      <trkpt lat="37.05529" lon="-3.35526">
        <ele>3094.6</ele>
        <time>2021-08-05 20:39:11</time>
      </trkpt>
      <trkpt lat="37.05529" lon="-3.35525">
        <ele>3094.4</ele>
        <time>2021-08-05 20:39:12</time>
      </trkpt>
      <trkpt lat="37.0553" lon="-3.35524">
        <ele>3094.4</ele>
        <time>2021-08-05 20:39:13</time>
      </trkpt>
      <trkpt lat="37.0553" lon="-3.35523">
        <ele>3094.4</ele>
        <time>2021-08-05 20:39:14</time>
      </trkpt>
      <trkpt lat="37.0553" lon="-3.35522">
        <ele>3094.4</ele>
        <time>2021-08-05 20:39:15</time>
      </trkpt>
      <trkpt lat="37.0553" lon="-3.35521">
        <ele>3094.4</ele>
        <time>2021-08-05 20:39:16</time>
      </trkpt>
      <trkpt lat="37.05531" lon="-3.35521">
        <ele>3094.4</ele>
        <time>2021-08-05 20:39:17</time>
      </trkpt>
      <trkpt lat="37.05531" lon="-3.3552">
        <ele>3094.4</ele>
        <time>2021-08-05 20:39:18</time>
      </trkpt>
      <trkpt lat="37.05532" lon="-3.35518">
        <ele>3094.4</ele>
        <time>2021-08-05 20:39:19</time>
      </trkpt>
      <trkpt lat="37.05533" lon="-3.35516">
        <ele>3094.4</ele>
        <time>2021-08-05 20:39:20</time>
      </trkpt>
      <trkpt lat="37.05534" lon="-3.35514">
        <ele>3094.4</ele>
        <time>2021-08-05 20:39:21</time>
      </trkpt>
      <trkpt lat="37.05535" lon="-3.35513">
        <ele>3094.4</ele>
        <time>2021-08-05 20:39:22</time>
      </trkpt>
      <trkpt lat="37.05537" lon="-3.35512">
        <ele>3094.4</ele>
        <time>2021-08-05 20:39:23</time>
      </trkpt>
      <trkpt lat="37.05539" lon="-3.35511">
        <ele>3094.4</ele>
        <time>2021-08-05 20:39:24</time>
      </trkpt>
      <trkpt lat="37.0554" lon="-3.3551">
        <ele>3094.4</ele>
        <time>2021-08-05 20:39:25</time>
      </trkpt>
      <trkpt lat="37.05541" lon="-3.35508">
        <ele>3094.4</ele>
        <time>2021-08-05 20:39:26</time>
      </trkpt>
      <trkpt lat="37.05542" lon="-3.35507">
        <ele>3094.4</ele>
        <time>2021-08-05 20:39:27</time>
      </trkpt>
      <trkpt lat="37.05543" lon="-3.35505">
        <ele>3094.4</ele>
        <time>2021-08-05 20:39:28</time>
      </trkpt>
      <trkpt lat="37.05543" lon="-3.35504">
        <ele>3094.2</ele>
        <time>2021-08-05 20:39:29</time>
      </trkpt>
      <trkpt lat="37.05544" lon="-3.35502">
        <ele>3094.2</ele>
        <time>2021-08-05 20:39:30</time>
      </trkpt>
      <trkpt lat="37.05544" lon="-3.355">
        <ele>3094.2</ele>
        <time>2021-08-05 20:39:31</time>
      </trkpt>
      <trkpt lat="37.05545" lon="-3.35499">
        <ele>3094.2</ele>
        <time>2021-08-05 20:39:32</time>
      </trkpt>
      <trkpt lat="37.05545" lon="-3.35498">
        <ele>3094.4</ele>
        <time>2021-08-05 20:39:33</time>
      </trkpt>
      <trkpt lat="37.05546" lon="-3.35497">
        <ele>3094</ele>
        <time>2021-08-05 20:39:34</time>
      </trkpt>
      <trkpt lat="37.05546" lon="-3.35496">
        <ele>3094</ele>
        <time>2021-08-05 20:39:35</time>
      </trkpt>
      <trkpt lat="37.05547" lon="-3.35495">
        <ele>3094</ele>
        <time>2021-08-05 20:39:36</time>
      </trkpt>
      <trkpt lat="37.05548" lon="-3.35493">
        <ele>3093.8</ele>
        <time>2021-08-05 20:39:37</time>
      </trkpt>
      <trkpt lat="37.05549" lon="-3.35491">
        <ele>3093.8</ele>
        <time>2021-08-05 20:39:38</time>
      </trkpt>
      <trkpt lat="37.05549" lon="-3.35489">
        <ele>3093.8</ele>
        <time>2021-08-05 20:39:39</time>
      </trkpt>
      <trkpt lat="37.0555" lon="-3.35487">
        <ele>3093.8</ele>
        <time>2021-08-05 20:39:40</time>
      </trkpt>
      <trkpt lat="37.0555" lon="-3.35486">
        <ele>3093.8</ele>
        <time>2021-08-05 20:39:41</time>
      </trkpt>
      <trkpt lat="37.0555" lon="-3.35485">
        <ele>3093.8</ele>
        <time>2021-08-05 20:39:42</time>
      </trkpt>
      <trkpt lat="37.05551" lon="-3.35483">
        <ele>3093.8</ele>
        <time>2021-08-05 20:39:43</time>
      </trkpt>
      <trkpt lat="37.05551" lon="-3.35482">
        <ele>3093.8</ele>
        <time>2021-08-05 20:39:44</time>
      </trkpt>
      <trkpt lat="37.05551" lon="-3.3548">
        <ele>3093.8</ele>
        <time>2021-08-05 20:39:45</time>
      </trkpt>
      <trkpt lat="37.05552" lon="-3.35479">
        <ele>3093.8</ele>
        <time>2021-08-05 20:39:46</time>
      </trkpt>
      <trkpt lat="37.05553" lon="-3.35478">
        <ele>3093.6</ele>
        <time>2021-08-05 20:39:47</time>
      </trkpt>
      <trkpt lat="37.05554" lon="-3.35476">
        <ele>3093.6</ele>
        <time>2021-08-05 20:39:48</time>
      </trkpt>
      <trkpt lat="37.05554" lon="-3.35475">
        <ele>3093.6</ele>
        <time>2021-08-05 20:39:49</time>
      </trkpt>
      <trkpt lat="37.05555" lon="-3.35474">
        <ele>3093.4</ele>
        <time>2021-08-05 20:39:50</time>
      </trkpt>
      <trkpt lat="37.05555" lon="-3.35473">
        <ele>3093.4</ele>
        <time>2021-08-05 20:39:51</time>
      </trkpt>
      <trkpt lat="37.05555" lon="-3.35471">
        <ele>3093.2</ele>
        <time>2021-08-05 20:39:52</time>
      </trkpt>
      <trkpt lat="37.05555" lon="-3.3547">
        <ele>3093.2</ele>
        <time>2021-08-05 20:39:53</time>
      </trkpt>
      <trkpt lat="37.05555" lon="-3.35469">
        <ele>3093.4</ele>
        <time>2021-08-05 20:39:54</time>
      </trkpt>
      <trkpt lat="37.05555" lon="-3.35468">
        <ele>3093.2</ele>
        <time>2021-08-05 20:39:55</time>
      </trkpt>
      <trkpt lat="37.05554" lon="-3.35466">
        <ele>3093.2</ele>
        <time>2021-08-05 20:39:56</time>
      </trkpt>
      <trkpt lat="37.05554" lon="-3.35465">
        <ele>3093.2</ele>
        <time>2021-08-05 20:39:57</time>
      </trkpt>
      <trkpt lat="37.05555" lon="-3.35464">
        <ele>3093</ele>
        <time>2021-08-05 20:39:58</time>
      </trkpt>
      <trkpt lat="37.05556" lon="-3.35463">
        <ele>3093</ele>
        <time>2021-08-05 20:39:59</time>
      </trkpt>
      <trkpt lat="37.05556" lon="-3.35463">
        <ele>3093</ele>
        <time>2021-08-05 20:40:00</time>
      </trkpt>
      <trkpt lat="37.05556" lon="-3.35461">
        <ele>3093</ele>
        <time>2021-08-05 20:40:01</time>
      </trkpt>
      <trkpt lat="37.05556" lon="-3.3546">
        <ele>3093</ele>
        <time>2021-08-05 20:40:02</time>
      </trkpt>
      <trkpt lat="37.05557" lon="-3.35459">
        <ele>3093.2</ele>
        <time>2021-08-05 20:40:03</time>
      </trkpt>
      <trkpt lat="37.05557" lon="-3.35458">
        <ele>3093.4</ele>
        <time>2021-08-05 20:40:04</time>
      </trkpt>
      <trkpt lat="37.05557" lon="-3.35457">
        <ele>3093.6</ele>
        <time>2021-08-05 20:40:05</time>
      </trkpt>
      <trkpt lat="37.05557" lon="-3.35456">
        <ele>3093.6</ele>
        <time>2021-08-05 20:40:06</time>
      </trkpt>
      <trkpt lat="37.05558" lon="-3.35455">
        <ele>3093.6</ele>
        <time>2021-08-05 20:40:07</time>
      </trkpt>
      <trkpt lat="37.05558" lon="-3.35454">
        <ele>3093.6</ele>
        <time>2021-08-05 20:40:08</time>
      </trkpt>
      <trkpt lat="37.05558" lon="-3.35452">
        <ele>3093.8</ele>
        <time>2021-08-05 20:40:09</time>
      </trkpt>
      <trkpt lat="37.05559" lon="-3.35451">
        <ele>3093.8</ele>
        <time>2021-08-05 20:40:10</time>
      </trkpt>
      <trkpt lat="37.05559" lon="-3.3545">
        <ele>3093.4</ele>
        <time>2021-08-05 20:40:11</time>
      </trkpt>
      <trkpt lat="37.05559" lon="-3.35449">
        <ele>3093.2</ele>
        <time>2021-08-05 20:40:12</time>
      </trkpt>
      <trkpt lat="37.0556" lon="-3.35447">
        <ele>3093.2</ele>
        <time>2021-08-05 20:40:13</time>
      </trkpt>
      <trkpt lat="37.05559" lon="-3.35446">
        <ele>3093.2</ele>
        <time>2021-08-05 20:40:14</time>
      </trkpt>
      <trkpt lat="37.0556" lon="-3.35445">
        <ele>3093.2</ele>
        <time>2021-08-05 20:40:15</time>
      </trkpt>
      <trkpt lat="37.05561" lon="-3.35444">
        <ele>3093.2</ele>
        <time>2021-08-05 20:40:16</time>
      </trkpt>
      <trkpt lat="37.05561" lon="-3.35443">
        <ele>3093</ele>
        <time>2021-08-05 20:40:17</time>
      </trkpt>
      <trkpt lat="37.05562" lon="-3.35442">
        <ele>3093</ele>
        <time>2021-08-05 20:40:18</time>
      </trkpt>
      <trkpt lat="37.05562" lon="-3.3544">
        <ele>3093</ele>
        <time>2021-08-05 20:40:19</time>
      </trkpt>
      <trkpt lat="37.05563" lon="-3.35439">
        <ele>3093</ele>
        <time>2021-08-05 20:40:20</time>
      </trkpt>
      <trkpt lat="37.05563" lon="-3.35438">
        <ele>3092.8</ele>
        <time>2021-08-05 20:40:21</time>
      </trkpt>
      <trkpt lat="37.05563" lon="-3.35436">
        <ele>3093</ele>
        <time>2021-08-05 20:40:22</time>
      </trkpt>
      <trkpt lat="37.05563" lon="-3.35435">
        <ele>3093</ele>
        <time>2021-08-05 20:40:23</time>
      </trkpt>
      <trkpt lat="37.05563" lon="-3.35434">
        <ele>3093</ele>
        <time>2021-08-05 20:40:24</time>
      </trkpt>
      <trkpt lat="37.05564" lon="-3.35432">
        <ele>3093.2</ele>
        <time>2021-08-05 20:40:25</time>
      </trkpt>
      <trkpt lat="37.05564" lon="-3.35431">
        <ele>3093</ele>
        <time>2021-08-05 20:40:26</time>
      </trkpt>
      <trkpt lat="37.05564" lon="-3.3543">
        <ele>3093</ele>
        <time>2021-08-05 20:40:27</time>
      </trkpt>
      <trkpt lat="37.05565" lon="-3.35428">
        <ele>3092.8</ele>
        <time>2021-08-05 20:40:28</time>
      </trkpt>
      <trkpt lat="37.05565" lon="-3.35427">
        <ele>3092.8</ele>
        <time>2021-08-05 20:40:29</time>
      </trkpt>
      <trkpt lat="37.05565" lon="-3.35425">
        <ele>3092.8</ele>
        <time>2021-08-05 20:40:30</time>
      </trkpt>
      <trkpt lat="37.05565" lon="-3.35424">
        <ele>3092.6</ele>
        <time>2021-08-05 20:40:31</time>
      </trkpt>
      <trkpt lat="37.05565" lon="-3.35422">
        <ele>3092.6</ele>
        <time>2021-08-05 20:40:32</time>
      </trkpt>
      <trkpt lat="37.05565" lon="-3.3542">
        <ele>3092.6</ele>
        <time>2021-08-05 20:40:33</time>
      </trkpt>
      <trkpt lat="37.05566" lon="-3.35419">
        <ele>3092.6</ele>
        <time>2021-08-05 20:40:34</time>
      </trkpt>
      <trkpt lat="37.05566" lon="-3.35418">
        <ele>3092.6</ele>
        <time>2021-08-05 20:40:35</time>
      </trkpt>
      <trkpt lat="37.05566" lon="-3.35416">
        <ele>3092.6</ele>
        <time>2021-08-05 20:40:36</time>
      </trkpt>
      <trkpt lat="37.05566" lon="-3.35415">
        <ele>3092.6</ele>
        <time>2021-08-05 20:40:37</time>
      </trkpt>
      <trkpt lat="37.05566" lon="-3.35414">
        <ele>3092.6</ele>
        <time>2021-08-05 20:40:38</time>
      </trkpt>
      <trkpt lat="37.05566" lon="-3.35413">
        <ele>3092.4</ele>
        <time>2021-08-05 20:40:39</time>
      </trkpt>
      <trkpt lat="37.05565" lon="-3.35412">
        <ele>3092.4</ele>
        <time>2021-08-05 20:40:40</time>
      </trkpt>
      <trkpt lat="37.05565" lon="-3.35411">
        <ele>3092.4</ele>
        <time>2021-08-05 20:40:41</time>
      </trkpt>
      <trkpt lat="37.05565" lon="-3.35409">
        <ele>3092.4</ele>
        <time>2021-08-05 20:40:42</time>
      </trkpt>
      <trkpt lat="37.05565" lon="-3.35408">
        <ele>3092.4</ele>
        <time>2021-08-05 20:40:43</time>
      </trkpt>
      <trkpt lat="37.05566" lon="-3.35407">
        <ele>3092.4</ele>
        <time>2021-08-05 20:40:44</time>
      </trkpt>
      <trkpt lat="37.05566" lon="-3.35406">
        <ele>3092.4</ele>
        <time>2021-08-05 20:40:45</time>
      </trkpt>
      <trkpt lat="37.05566" lon="-3.35405">
        <ele>3092.2</ele>
        <time>2021-08-05 20:40:46</time>
      </trkpt>
      <trkpt lat="37.05567" lon="-3.35404">
        <ele>3092.4</ele>
        <time>2021-08-05 20:40:47</time>
      </trkpt>
      <trkpt lat="37.05567" lon="-3.35402">
        <ele>3092.2</ele>
        <time>2021-08-05 20:40:48</time>
      </trkpt>
      <trkpt lat="37.05567" lon="-3.354">
        <ele>3092.2</ele>
        <time>2021-08-05 20:40:49</time>
      </trkpt>
      <trkpt lat="37.05567" lon="-3.35399">
        <ele>3092.2</ele>
        <time>2021-08-05 20:40:50</time>
      </trkpt>
      <trkpt lat="37.05566" lon="-3.35398">
        <ele>3092</ele>
        <time>2021-08-05 20:40:51</time>
      </trkpt>
      <trkpt lat="37.05567" lon="-3.35397">
        <ele>3092</ele>
        <time>2021-08-05 20:40:52</time>
      </trkpt>
      <trkpt lat="37.05567" lon="-3.35395">
        <ele>3092</ele>
        <time>2021-08-05 20:40:53</time>
      </trkpt>
      <trkpt lat="37.05567" lon="-3.35394">
        <ele>3092</ele>
        <time>2021-08-05 20:40:54</time>
      </trkpt>
      <trkpt lat="37.05568" lon="-3.35393">
        <ele>3092</ele>
        <time>2021-08-05 20:40:55</time>
      </trkpt>
      <trkpt lat="37.05568" lon="-3.35392">
        <ele>3092</ele>
        <time>2021-08-05 20:40:56</time>
      </trkpt>
      <trkpt lat="37.05568" lon="-3.35391">
        <ele>3091.8</ele>
        <time>2021-08-05 20:40:57</time>
      </trkpt>
      <trkpt lat="37.05568" lon="-3.3539">
        <ele>3091.8</ele>
        <time>2021-08-05 20:40:58</time>
      </trkpt>
      <trkpt lat="37.05568" lon="-3.35389">
        <ele>3091.8</ele>
        <time>2021-08-05 20:40:59</time>
      </trkpt>
      <trkpt lat="37.05569" lon="-3.35388">
        <ele>3091.8</ele>
        <time>2021-08-05 20:41:00</time>
      </trkpt>
      <trkpt lat="37.05569" lon="-3.35387">
        <ele>3091.6</ele>
        <time>2021-08-05 20:41:01</time>
      </trkpt>
      <trkpt lat="37.0557" lon="-3.35386">
        <ele>3091.6</ele>
        <time>2021-08-05 20:41:02</time>
      </trkpt>
      <trkpt lat="37.05569" lon="-3.35385">
        <ele>3091.8</ele>
        <time>2021-08-05 20:41:03</time>
      </trkpt>
      <trkpt lat="37.05569" lon="-3.35384">
        <ele>3091.6</ele>
        <time>2021-08-05 20:41:04</time>
      </trkpt>
      <trkpt lat="37.0557" lon="-3.35383">
        <ele>3091.4</ele>
        <time>2021-08-05 20:41:05</time>
      </trkpt>
      <trkpt lat="37.0557" lon="-3.35381">
        <ele>3091.4</ele>
        <time>2021-08-05 20:41:06</time>
      </trkpt>
      <trkpt lat="37.0557" lon="-3.3538">
        <ele>3091.2</ele>
        <time>2021-08-05 20:41:07</time>
      </trkpt>
      <trkpt lat="37.05569" lon="-3.35379">
        <ele>3091</ele>
        <time>2021-08-05 20:41:08</time>
      </trkpt>
      <trkpt lat="37.05569" lon="-3.35378">
        <ele>3091</ele>
        <time>2021-08-05 20:41:09</time>
      </trkpt>
      <trkpt lat="37.05569" lon="-3.35377">
        <ele>3090.8</ele>
        <time>2021-08-05 20:41:10</time>
      </trkpt>
      <trkpt lat="37.05569" lon="-3.35375">
        <ele>3090.8</ele>
        <time>2021-08-05 20:41:11</time>
      </trkpt>
      <trkpt lat="37.05568" lon="-3.35374">
        <ele>3090.8</ele>
        <time>2021-08-05 20:41:12</time>
      </trkpt>
      <trkpt lat="37.05567" lon="-3.35372">
        <ele>3090.8</ele>
        <time>2021-08-05 20:41:13</time>
      </trkpt>
      <trkpt lat="37.05567" lon="-3.35371">
        <ele>3090.8</ele>
        <time>2021-08-05 20:41:14</time>
      </trkpt>
      <trkpt lat="37.05567" lon="-3.3537">
        <ele>3091</ele>
        <time>2021-08-05 20:41:15</time>
      </trkpt>
      <trkpt lat="37.05567" lon="-3.35369">
        <ele>3091</ele>
        <time>2021-08-05 20:41:16</time>
      </trkpt>
      <trkpt lat="37.05567" lon="-3.35368">
        <ele>3090.8</ele>
        <time>2021-08-05 20:41:17</time>
      </trkpt>
      <trkpt lat="37.05568" lon="-3.35366">
        <ele>3090.8</ele>
        <time>2021-08-05 20:41:18</time>
      </trkpt>
      <trkpt lat="37.05568" lon="-3.35365">
        <ele>3090.6</ele>
        <time>2021-08-05 20:41:19</time>
      </trkpt>
      <trkpt lat="37.05567" lon="-3.35364">
        <ele>3090.4</ele>
        <time>2021-08-05 20:41:20</time>
      </trkpt>
      <trkpt lat="37.05567" lon="-3.35363">
        <ele>3090.4</ele>
        <time>2021-08-05 20:41:21</time>
      </trkpt>
      <trkpt lat="37.05567" lon="-3.35362">
        <ele>3090.2</ele>
        <time>2021-08-05 20:41:22</time>
      </trkpt>
      <trkpt lat="37.05567" lon="-3.3536">
        <ele>3090.2</ele>
        <time>2021-08-05 20:41:23</time>
      </trkpt>
      <trkpt lat="37.05567" lon="-3.35359">
        <ele>3090.2</ele>
        <time>2021-08-05 20:41:24</time>
      </trkpt>
      <trkpt lat="37.05569" lon="-3.35358">
        <ele>3090.2</ele>
        <time>2021-08-05 20:41:25</time>
      </trkpt>
      <trkpt lat="37.05569" lon="-3.35357">
        <ele>3090</ele>
        <time>2021-08-05 20:41:26</time>
      </trkpt>
      <trkpt lat="37.05568" lon="-3.35355">
        <ele>3089.8</ele>
        <time>2021-08-05 20:41:27</time>
      </trkpt>
      <trkpt lat="37.05567" lon="-3.35354">
        <ele>3089.6</ele>
        <time>2021-08-05 20:41:28</time>
      </trkpt>
      <trkpt lat="37.05569" lon="-3.35354">
        <ele>3089.6</ele>
        <time>2021-08-05 20:41:29</time>
      </trkpt>
      <trkpt lat="37.05569" lon="-3.35354">
        <ele>3089.6</ele>
        <time>2021-08-05 20:41:30</time>
      </trkpt>
      <trkpt lat="37.05569" lon="-3.35353">
        <ele>3089.8</ele>
        <time>2021-08-05 20:41:31</time>
      </trkpt>
      <trkpt lat="37.05569" lon="-3.35352">
        <ele>3089.6</ele>
        <time>2021-08-05 20:41:32</time>
      </trkpt>
      <trkpt lat="37.0557" lon="-3.35351">
        <ele>3089.6</ele>
        <time>2021-08-05 20:41:33</time>
      </trkpt>
      <trkpt lat="37.0557" lon="-3.35351">
        <ele>3089.8</ele>
        <time>2021-08-05 20:41:34</time>
      </trkpt>
      <trkpt lat="37.05568" lon="-3.35348">
        <ele>3089.8</ele>
        <time>2021-08-05 20:41:35</time>
      </trkpt>
      <trkpt lat="37.05568" lon="-3.35347">
        <ele>3089.8</ele>
        <time>2021-08-05 20:41:36</time>
      </trkpt>
      <trkpt lat="37.05567" lon="-3.35345">
        <ele>3089.8</ele>
        <time>2021-08-05 20:41:37</time>
      </trkpt>
      <trkpt lat="37.05567" lon="-3.35344">
        <ele>3089.8</ele>
        <time>2021-08-05 20:41:38</time>
      </trkpt>
      <trkpt lat="37.05567" lon="-3.35343">
        <ele>3089.8</ele>
        <time>2021-08-05 20:41:39</time>
      </trkpt>
      <trkpt lat="37.05566" lon="-3.35341">
        <ele>3089.8</ele>
        <time>2021-08-05 20:41:40</time>
      </trkpt>
      <trkpt lat="37.05565" lon="-3.3534">
        <ele>3089.6</ele>
        <time>2021-08-05 20:41:41</time>
      </trkpt>
      <trkpt lat="37.05565" lon="-3.35339">
        <ele>3089.8</ele>
        <time>2021-08-05 20:41:42</time>
      </trkpt>
      <trkpt lat="37.05565" lon="-3.35339">
        <ele>3089.6</ele>
        <time>2021-08-05 20:41:43</time>
      </trkpt>
      <trkpt lat="37.05566" lon="-3.3534">
        <ele>3089.8</ele>
        <time>2021-08-05 20:41:44</time>
      </trkpt>
      <trkpt lat="37.05566" lon="-3.3534">
        <ele>3089.6</ele>
        <time>2021-08-05 20:41:45</time>
      </trkpt>
      <trkpt lat="37.05567" lon="-3.35342">
        <ele>3089.6</ele>
        <time>2021-08-05 20:41:46</time>
      </trkpt>
      <trkpt lat="37.05567" lon="-3.35342">
        <ele>3089.4</ele>
        <time>2021-08-05 20:41:47</time>
      </trkpt>
      <trkpt lat="37.05568" lon="-3.35342">
        <ele>3089.4</ele>
        <time>2021-08-05 20:41:48</time>
      </trkpt>
      <trkpt lat="37.05568" lon="-3.35343">
        <ele>3089.4</ele>
        <time>2021-08-05 20:41:49</time>
      </trkpt>
      <trkpt lat="37.05568" lon="-3.35342">
        <ele>3089.4</ele>
        <time>2021-08-05 20:41:50</time>
      </trkpt>
      <trkpt lat="37.05566" lon="-3.3534">
        <ele>3089.4</ele>
        <time>2021-08-05 20:41:51</time>
      </trkpt>
      <trkpt lat="37.05566" lon="-3.35339">
        <ele>3089.4</ele>
        <time>2021-08-05 20:41:52</time>
      </trkpt>
      <trkpt lat="37.05566" lon="-3.35338">
        <ele>3089.4</ele>
        <time>2021-08-05 20:41:53</time>
      </trkpt>
      <trkpt lat="37.05566" lon="-3.35338">
        <ele>3089.4</ele>
        <time>2021-08-05 20:41:54</time>
      </trkpt>
      <trkpt lat="37.05567" lon="-3.35338">
        <ele>3089.4</ele>
        <time>2021-08-05 20:41:55</time>
      </trkpt>
      <trkpt lat="37.05566" lon="-3.35338">
        <ele>3089.4</ele>
        <time>2021-08-05 20:41:56</time>
      </trkpt>
      <trkpt lat="37.05566" lon="-3.35338">
        <ele>3089.6</ele>
        <time>2021-08-05 20:41:57</time>
      </trkpt>
      <trkpt lat="37.05566" lon="-3.35336">
        <ele>3089.6</ele>
        <time>2021-08-05 20:41:58</time>
      </trkpt>
      <trkpt lat="37.05566" lon="-3.35335">
        <ele>3089.6</ele>
        <time>2021-08-05 20:41:59</time>
      </trkpt>
      <trkpt lat="37.05565" lon="-3.35333">
        <ele>3089.6</ele>
        <time>2021-08-05 20:42:00</time>
      </trkpt>
      <trkpt lat="37.05565" lon="-3.35332">
        <ele>3089.6</ele>
        <time>2021-08-05 20:42:01</time>
      </trkpt>
      <trkpt lat="37.05563" lon="-3.3533">
        <ele>3089.4</ele>
        <time>2021-08-05 20:42:02</time>
      </trkpt>
      <trkpt lat="37.05562" lon="-3.35328">
        <ele>3089.4</ele>
        <time>2021-08-05 20:42:03</time>
      </trkpt>
      <trkpt lat="37.05562" lon="-3.35326">
        <ele>3089.4</ele>
        <time>2021-08-05 20:42:04</time>
      </trkpt>
      <trkpt lat="37.05562" lon="-3.35324">
        <ele>3089.4</ele>
        <time>2021-08-05 20:42:05</time>
      </trkpt>
      <trkpt lat="37.0556" lon="-3.35323">
        <ele>3089.4</ele>
        <time>2021-08-05 20:42:06</time>
      </trkpt>
      <trkpt lat="37.0556" lon="-3.35322">
        <ele>3089.6</ele>
        <time>2021-08-05 20:42:07</time>
      </trkpt>
      <trkpt lat="37.05558" lon="-3.35321">
        <ele>3089.6</ele>
        <time>2021-08-05 20:42:08</time>
      </trkpt>
      <trkpt lat="37.05558" lon="-3.3532">
        <ele>3089.6</ele>
        <time>2021-08-05 20:42:09</time>
      </trkpt>
      <trkpt lat="37.05558" lon="-3.35319">
        <ele>3089.8</ele>
        <time>2021-08-05 20:42:10</time>
      </trkpt>
      <trkpt lat="37.05557" lon="-3.35318">
        <ele>3089.6</ele>
        <time>2021-08-05 20:42:11</time>
      </trkpt>
      <trkpt lat="37.05557" lon="-3.35317">
        <ele>3089.6</ele>
        <time>2021-08-05 20:42:12</time>
      </trkpt>
      <trkpt lat="37.05556" lon="-3.35316">
        <ele>3089.6</ele>
        <time>2021-08-05 20:42:13</time>
      </trkpt>
      <trkpt lat="37.05555" lon="-3.35314">
        <ele>3089.6</ele>
        <time>2021-08-05 20:42:14</time>
      </trkpt>
      <trkpt lat="37.05555" lon="-3.35314">
        <ele>3089.6</ele>
        <time>2021-08-05 20:42:15</time>
      </trkpt>
      <trkpt lat="37.05556" lon="-3.35313">
        <ele>3089.8</ele>
        <time>2021-08-05 20:42:16</time>
      </trkpt>
      <trkpt lat="37.05557" lon="-3.35313">
        <ele>3089.8</ele>
        <time>2021-08-05 20:42:17</time>
      </trkpt>
      <trkpt lat="37.05557" lon="-3.35312">
        <ele>3090</ele>
        <time>2021-08-05 20:42:18</time>
      </trkpt>
      <trkpt lat="37.05558" lon="-3.35312">
        <ele>3090</ele>
        <time>2021-08-05 20:42:19</time>
      </trkpt>
      <trkpt lat="37.05558" lon="-3.35312">
        <ele>3090</ele>
        <time>2021-08-05 20:42:20</time>
      </trkpt>
      <trkpt lat="37.05559" lon="-3.35312">
        <ele>3090</ele>
        <time>2021-08-05 20:42:21</time>
      </trkpt>
      <trkpt lat="37.05559" lon="-3.35312">
        <ele>3089.8</ele>
        <time>2021-08-05 20:42:22</time>
      </trkpt>
      <trkpt lat="37.05559" lon="-3.35312">
        <ele>3089.8</ele>
        <time>2021-08-05 20:42:23</time>
      </trkpt>
      <trkpt lat="37.0556" lon="-3.35312">
        <ele>3089.8</ele>
        <time>2021-08-05 20:42:24</time>
      </trkpt>
      <trkpt lat="37.0556" lon="-3.35312">
        <ele>3089.8</ele>
        <time>2021-08-05 20:42:25</time>
      </trkpt>
      <trkpt lat="37.05559" lon="-3.35313">
        <ele>3089.8</ele>
        <time>2021-08-05 20:42:26</time>
      </trkpt>
      <trkpt lat="37.05558" lon="-3.35314">
        <ele>3089.8</ele>
        <time>2021-08-05 20:42:27</time>
      </trkpt>
      <trkpt lat="37.05558" lon="-3.35315">
        <ele>3089.6</ele>
        <time>2021-08-05 20:42:28</time>
      </trkpt>
      <trkpt lat="37.05558" lon="-3.35316">
        <ele>3089.6</ele>
        <time>2021-08-05 20:42:29</time>
      </trkpt>
      <trkpt lat="37.05558" lon="-3.35317">
        <ele>3089.6</ele>
        <time>2021-08-05 20:42:30</time>
      </trkpt>
      <trkpt lat="37.05558" lon="-3.35317">
        <ele>3089.6</ele>
        <time>2021-08-05 20:42:31</time>
      </trkpt>
      <trkpt lat="37.05557" lon="-3.35318">
        <ele>3089.6</ele>
        <time>2021-08-05 20:42:32</time>
      </trkpt>
      <trkpt lat="37.05557" lon="-3.35318">
        <ele>3089.6</ele>
        <time>2021-08-05 20:42:33</time>
      </trkpt>
      <trkpt lat="37.05557" lon="-3.35318">
        <ele>3089.6</ele>
        <time>2021-08-05 20:42:34</time>
      </trkpt>
      <trkpt lat="37.05557" lon="-3.35318">
        <ele>3089.6</ele>
        <time>2021-08-05 20:42:35</time>
      </trkpt>
      <trkpt lat="37.05557" lon="-3.35319">
        <ele>3089.6</ele>
        <time>2021-08-05 20:42:36</time>
      </trkpt>
      <trkpt lat="37.05557" lon="-3.35319">
        <ele>3089.6</ele>
        <time>2021-08-05 20:42:37</time>
      </trkpt>
      <trkpt lat="37.05557" lon="-3.35318">
        <ele>3089.6</ele>
        <time>2021-08-05 20:42:38</time>
      </trkpt>
      <trkpt lat="37.05557" lon="-3.35318">
        <ele>3089.8</ele>
        <time>2021-08-05 20:42:39</time>
      </trkpt>
      <trkpt lat="37.05557" lon="-3.35318">
        <ele>3090</ele>
        <time>2021-08-05 20:42:40</time>
      </trkpt>
      <trkpt lat="37.05556" lon="-3.35318">
        <ele>3090.2</ele>
        <time>2021-08-05 20:42:41</time>
      </trkpt>
      <trkpt lat="37.05555" lon="-3.35317">
        <ele>3090.2</ele>
        <time>2021-08-05 20:42:42</time>
      </trkpt>
      <trkpt lat="37.05554" lon="-3.35316">
        <ele>3090.4</ele>
        <time>2021-08-05 20:42:43</time>
      </trkpt>
      <trkpt lat="37.05554" lon="-3.35316">
        <ele>3090.4</ele>
        <time>2021-08-05 20:42:44</time>
      </trkpt>
      <trkpt lat="37.05553" lon="-3.35315">
        <ele>3090.4</ele>
        <time>2021-08-05 20:42:45</time>
      </trkpt>
      <trkpt lat="37.05552" lon="-3.35314">
        <ele>3090.4</ele>
        <time>2021-08-05 20:42:46</time>
      </trkpt>
      <trkpt lat="37.05552" lon="-3.35313">
        <ele>3090.4</ele>
        <time>2021-08-05 20:42:47</time>
      </trkpt>
      <trkpt lat="37.05551" lon="-3.35312">
        <ele>3090.4</ele>
        <time>2021-08-05 20:42:48</time>
      </trkpt>
      <trkpt lat="37.05551" lon="-3.35311">
        <ele>3090.4</ele>
        <time>2021-08-05 20:42:49</time>
      </trkpt>
      <trkpt lat="37.0555" lon="-3.3531">
        <ele>3090.6</ele>
        <time>2021-08-05 20:42:50</time>
      </trkpt>
      <trkpt lat="37.0555" lon="-3.35309">
        <ele>3090.6</ele>
        <time>2021-08-05 20:42:51</time>
      </trkpt>
      <trkpt lat="37.05549" lon="-3.35308">
        <ele>3090.4</ele>
        <time>2021-08-05 20:42:52</time>
      </trkpt>
      <trkpt lat="37.05548" lon="-3.35307">
        <ele>3090.4</ele>
        <time>2021-08-05 20:42:53</time>
      </trkpt>
      <trkpt lat="37.05547" lon="-3.35306">
        <ele>3090.4</ele>
        <time>2021-08-05 20:42:54</time>
      </trkpt>
      <trkpt lat="37.05547" lon="-3.35305">
        <ele>3090.4</ele>
        <time>2021-08-05 20:42:55</time>
      </trkpt>
      <trkpt lat="37.05547" lon="-3.35305">
        <ele>3090.4</ele>
        <time>2021-08-05 20:42:56</time>
      </trkpt>
      <trkpt lat="37.05546" lon="-3.35304">
        <ele>3090.6</ele>
        <time>2021-08-05 20:42:57</time>
      </trkpt>
      <trkpt lat="37.05545" lon="-3.35303">
        <ele>3090.6</ele>
        <time>2021-08-05 20:42:58</time>
      </trkpt>
      <trkpt lat="37.05545" lon="-3.35302">
        <ele>3090.6</ele>
        <time>2021-08-05 20:42:59</time>
      </trkpt>
      <trkpt lat="37.05544" lon="-3.35301">
        <ele>3090.8</ele>
        <time>2021-08-05 20:43:00</time>
      </trkpt>
      <trkpt lat="37.05544" lon="-3.35301">
        <ele>3090.8</ele>
        <time>2021-08-05 20:43:01</time>
      </trkpt>
      <trkpt lat="37.05543" lon="-3.35301">
        <ele>3090.8</ele>
        <time>2021-08-05 20:43:02</time>
      </trkpt>
      <trkpt lat="37.05543" lon="-3.353">
        <ele>3091</ele>
        <time>2021-08-05 20:43:03</time>
      </trkpt>
      <trkpt lat="37.05542" lon="-3.35299">
        <ele>3091</ele>
        <time>2021-08-05 20:43:04</time>
      </trkpt>
      <trkpt lat="37.05541" lon="-3.35298">
        <ele>3091</ele>
        <time>2021-08-05 20:43:05</time>
      </trkpt>
      <trkpt lat="37.0554" lon="-3.35297">
        <ele>3091</ele>
        <time>2021-08-05 20:43:06</time>
      </trkpt>
      <trkpt lat="37.05539" lon="-3.35297">
        <ele>3091</ele>
        <time>2021-08-05 20:43:07</time>
      </trkpt>
      <trkpt lat="37.05538" lon="-3.35297">
        <ele>3091</ele>
        <time>2021-08-05 20:43:08</time>
      </trkpt>
      <trkpt lat="37.05537" lon="-3.35294">
        <ele>3091</ele>
        <time>2021-08-05 20:43:09</time>
      </trkpt>
      <trkpt lat="37.05536" lon="-3.35293">
        <ele>3091</ele>
        <time>2021-08-05 20:43:10</time>
      </trkpt>
      <trkpt lat="37.05534" lon="-3.35292">
        <ele>3091.2</ele>
        <time>2021-08-05 20:43:11</time>
      </trkpt>
      <trkpt lat="37.05533" lon="-3.35291">
        <ele>3091.2</ele>
        <time>2021-08-05 20:43:12</time>
      </trkpt>
      <trkpt lat="37.05531" lon="-3.35289">
        <ele>3091.4</ele>
        <time>2021-08-05 20:43:13</time>
      </trkpt>
      <trkpt lat="37.0553" lon="-3.35288">
        <ele>3091.6</ele>
        <time>2021-08-05 20:43:14</time>
      </trkpt>
      <trkpt lat="37.0553" lon="-3.35287">
        <ele>3091.8</ele>
        <time>2021-08-05 20:43:15</time>
      </trkpt>
      <trkpt lat="37.05529" lon="-3.35287">
        <ele>3091.8</ele>
        <time>2021-08-05 20:43:16</time>
      </trkpt>
      <trkpt lat="37.05528" lon="-3.35286">
        <ele>3091.8</ele>
        <time>2021-08-05 20:43:17</time>
      </trkpt>
      <trkpt lat="37.05528" lon="-3.35285">
        <ele>3091.8</ele>
        <time>2021-08-05 20:43:18</time>
      </trkpt>
      <trkpt lat="37.05527" lon="-3.35284">
        <ele>3092</ele>
        <time>2021-08-05 20:43:19</time>
      </trkpt>
      <trkpt lat="37.05526" lon="-3.35284">
        <ele>3092.2</ele>
        <time>2021-08-05 20:43:20</time>
      </trkpt>
      <trkpt lat="37.05525" lon="-3.35283">
        <ele>3092.2</ele>
        <time>2021-08-05 20:43:21</time>
      </trkpt>
      <trkpt lat="37.05524" lon="-3.35282">
        <ele>3092.2</ele>
        <time>2021-08-05 20:43:22</time>
      </trkpt>
      <trkpt lat="37.05523" lon="-3.35281">
        <ele>3092.2</ele>
        <time>2021-08-05 20:43:23</time>
      </trkpt>
      <trkpt lat="37.05523" lon="-3.3528">
        <ele>3092.2</ele>
        <time>2021-08-05 20:43:24</time>
      </trkpt>
      <trkpt lat="37.05522" lon="-3.3528">
        <ele>3092.2</ele>
        <time>2021-08-05 20:43:25</time>
      </trkpt>
      <trkpt lat="37.05522" lon="-3.35279">
        <ele>3092.2</ele>
        <time>2021-08-05 20:43:26</time>
      </trkpt>
      <trkpt lat="37.05521" lon="-3.35279">
        <ele>3092.2</ele>
        <time>2021-08-05 20:43:27</time>
      </trkpt>
      <trkpt lat="37.05521" lon="-3.35279">
        <ele>3092.2</ele>
        <time>2021-08-05 20:43:28</time>
      </trkpt>
      <trkpt lat="37.0552" lon="-3.35278">
        <ele>3092.2</ele>
        <time>2021-08-05 20:43:29</time>
      </trkpt>
      <trkpt lat="37.05519" lon="-3.35278">
        <ele>3092.2</ele>
        <time>2021-08-05 20:43:30</time>
      </trkpt>
      <trkpt lat="37.05518" lon="-3.35278">
        <ele>3092.4</ele>
        <time>2021-08-05 20:43:31</time>
      </trkpt>
      <trkpt lat="37.05518" lon="-3.35278">
        <ele>3092.2</ele>
        <time>2021-08-05 20:43:32</time>
      </trkpt>
      <trkpt lat="37.05517" lon="-3.35277">
        <ele>3092.4</ele>
        <time>2021-08-05 20:43:33</time>
      </trkpt>
      <trkpt lat="37.05517" lon="-3.35277">
        <ele>3092.4</ele>
        <time>2021-08-05 20:43:34</time>
      </trkpt>
      <trkpt lat="37.05516" lon="-3.35277">
        <ele>3092.4</ele>
        <time>2021-08-05 20:43:35</time>
      </trkpt>
      <trkpt lat="37.05516" lon="-3.35277">
        <ele>3092.4</ele>
        <time>2021-08-05 20:43:36</time>
      </trkpt>
      <trkpt lat="37.05515" lon="-3.35277">
        <ele>3092.4</ele>
        <time>2021-08-05 20:43:37</time>
      </trkpt>
      <trkpt lat="37.05514" lon="-3.35276">
        <ele>3092.6</ele>
        <time>2021-08-05 20:43:38</time>
      </trkpt>
      <trkpt lat="37.05513" lon="-3.35276">
        <ele>3092.8</ele>
        <time>2021-08-05 20:43:39</time>
      </trkpt>
      <trkpt lat="37.05513" lon="-3.35275">
        <ele>3092.6</ele>
        <time>2021-08-05 20:43:40</time>
      </trkpt>
      <trkpt lat="37.05512" lon="-3.35274">
        <ele>3092.8</ele>
        <time>2021-08-05 20:43:41</time>
      </trkpt>
      <trkpt lat="37.0551" lon="-3.35272">
        <ele>3092.8</ele>
        <time>2021-08-05 20:43:42</time>
      </trkpt>
      <trkpt lat="37.0551" lon="-3.35271">
        <ele>3092.8</ele>
        <time>2021-08-05 20:43:43</time>
      </trkpt>
      <trkpt lat="37.05509" lon="-3.3527">
        <ele>3092.8</ele>
        <time>2021-08-05 20:43:44</time>
      </trkpt>
      <trkpt lat="37.05508" lon="-3.35269">
        <ele>3092.8</ele>
        <time>2021-08-05 20:43:45</time>
      </trkpt>
      <trkpt lat="37.05507" lon="-3.35268">
        <ele>3092.8</ele>
        <time>2021-08-05 20:43:46</time>
      </trkpt>
      <trkpt lat="37.05506" lon="-3.35267">
        <ele>3092.8</ele>
        <time>2021-08-05 20:43:47</time>
      </trkpt>
      <trkpt lat="37.05506" lon="-3.35267">
        <ele>3092.8</ele>
        <time>2021-08-05 20:43:48</time>
      </trkpt>
      <trkpt lat="37.05505" lon="-3.35266">
        <ele>3092.8</ele>
        <time>2021-08-05 20:43:49</time>
      </trkpt>
      <trkpt lat="37.05505" lon="-3.35265">
        <ele>3093</ele>
        <time>2021-08-05 20:43:50</time>
      </trkpt>
      <trkpt lat="37.05504" lon="-3.35264">
        <ele>3093</ele>
        <time>2021-08-05 20:43:51</time>
      </trkpt>
      <trkpt lat="37.05503" lon="-3.35264">
        <ele>3092.8</ele>
        <time>2021-08-05 20:43:52</time>
      </trkpt>
      <trkpt lat="37.05501" lon="-3.35264">
        <ele>3092.6</ele>
        <time>2021-08-05 20:43:53</time>
      </trkpt>
      <trkpt lat="37.055" lon="-3.35264">
        <ele>3092.4</ele>
        <time>2021-08-05 20:43:54</time>
      </trkpt>
      <trkpt lat="37.055" lon="-3.35263">
        <ele>3092.4</ele>
        <time>2021-08-05 20:43:55</time>
      </trkpt>
      <trkpt lat="37.05499" lon="-3.35264">
        <ele>3092.4</ele>
        <time>2021-08-05 20:43:56</time>
      </trkpt>
      <trkpt lat="37.05498" lon="-3.35264">
        <ele>3092.2</ele>
        <time>2021-08-05 20:43:57</time>
      </trkpt>
      <trkpt lat="37.05498" lon="-3.35265">
        <ele>3092.2</ele>
        <time>2021-08-05 20:43:58</time>
      </trkpt>
      <trkpt lat="37.05497" lon="-3.35265">
        <ele>3092.2</ele>
        <time>2021-08-05 20:43:59</time>
      </trkpt>
      <trkpt lat="37.05497" lon="-3.35265">
        <ele>3092.2</ele>
        <time>2021-08-05 20:44:00</time>
      </trkpt>
      <trkpt lat="37.05496" lon="-3.35265">
        <ele>3092.2</ele>
        <time>2021-08-05 20:44:01</time>
      </trkpt>
      <trkpt lat="37.05494" lon="-3.35265">
        <ele>3092.2</ele>
        <time>2021-08-05 20:44:02</time>
      </trkpt>
      <trkpt lat="37.05494" lon="-3.35265">
        <ele>3092.2</ele>
        <time>2021-08-05 20:44:03</time>
      </trkpt>
      <trkpt lat="37.05492" lon="-3.35264">
        <ele>3092.2</ele>
        <time>2021-08-05 20:44:04</time>
      </trkpt>
      <trkpt lat="37.05491" lon="-3.35264">
        <ele>3092.2</ele>
        <time>2021-08-05 20:44:05</time>
      </trkpt>
      <trkpt lat="37.05489" lon="-3.35261">
        <ele>3092.4</ele>
        <time>2021-08-05 20:44:06</time>
      </trkpt>
      <trkpt lat="37.05489" lon="-3.3526">
        <ele>3092.4</ele>
        <time>2021-08-05 20:44:07</time>
      </trkpt>
      <trkpt lat="37.05488" lon="-3.35259">
        <ele>3092.6</ele>
        <time>2021-08-05 20:44:08</time>
      </trkpt>
      <trkpt lat="37.05487" lon="-3.35258">
        <ele>3092.8</ele>
        <time>2021-08-05 20:44:09</time>
      </trkpt>
      <trkpt lat="37.05486" lon="-3.35255">
        <ele>3092.8</ele>
        <time>2021-08-05 20:44:10</time>
      </trkpt>
      <trkpt lat="37.05485" lon="-3.35254">
        <ele>3093</ele>
        <time>2021-08-05 20:44:11</time>
      </trkpt>
      <trkpt lat="37.05484" lon="-3.35253">
        <ele>3093</ele>
        <time>2021-08-05 20:44:12</time>
      </trkpt>
      <trkpt lat="37.05483" lon="-3.35251">
        <ele>3092.8</ele>
        <time>2021-08-05 20:44:13</time>
      </trkpt>
      <trkpt lat="37.05482" lon="-3.3525">
        <ele>3092.8</ele>
        <time>2021-08-05 20:44:14</time>
      </trkpt>
      <trkpt lat="37.05481" lon="-3.35249">
        <ele>3092.6</ele>
        <time>2021-08-05 20:44:15</time>
      </trkpt>
      <trkpt lat="37.0548" lon="-3.35247">
        <ele>3092.4</ele>
        <time>2021-08-05 20:44:16</time>
      </trkpt>
      <trkpt lat="37.05479" lon="-3.35246">
        <ele>3092.4</ele>
        <time>2021-08-05 20:44:17</time>
      </trkpt>
      <trkpt lat="37.05478" lon="-3.35245">
        <ele>3092.4</ele>
        <time>2021-08-05 20:44:18</time>
      </trkpt>
      <trkpt lat="37.05477" lon="-3.35244">
        <ele>3092.2</ele>
        <time>2021-08-05 20:44:19</time>
      </trkpt>
      <trkpt lat="37.05476" lon="-3.35243">
        <ele>3092.2</ele>
        <time>2021-08-05 20:44:20</time>
      </trkpt>
      <trkpt lat="37.05476" lon="-3.35241">
        <ele>3092.2</ele>
        <time>2021-08-05 20:44:21</time>
      </trkpt>
      <trkpt lat="37.05475" lon="-3.3524">
        <ele>3092.4</ele>
        <time>2021-08-05 20:44:22</time>
      </trkpt>
      <trkpt lat="37.05474" lon="-3.35239">
        <ele>3092.4</ele>
        <time>2021-08-05 20:44:23</time>
      </trkpt>
      <trkpt lat="37.05474" lon="-3.35238">
        <ele>3092.4</ele>
        <time>2021-08-05 20:44:24</time>
      </trkpt>
      <trkpt lat="37.05473" lon="-3.35236">
        <ele>3092.4</ele>
        <time>2021-08-05 20:44:25</time>
      </trkpt>
      <trkpt lat="37.05473" lon="-3.35235">
        <ele>3092.4</ele>
        <time>2021-08-05 20:44:26</time>
      </trkpt>
      <trkpt lat="37.05472" lon="-3.35234">
        <ele>3092.2</ele>
        <time>2021-08-05 20:44:27</time>
      </trkpt>
      <trkpt lat="37.05471" lon="-3.35233">
        <ele>3092</ele>
        <time>2021-08-05 20:44:28</time>
      </trkpt>
      <trkpt lat="37.05471" lon="-3.35233">
        <ele>3092</ele>
        <time>2021-08-05 20:44:29</time>
      </trkpt>
      <trkpt lat="37.05471" lon="-3.35232">
        <ele>3092</ele>
        <time>2021-08-05 20:44:30</time>
      </trkpt>
      <trkpt lat="37.0547" lon="-3.35232">
        <ele>3092</ele>
        <time>2021-08-05 20:44:31</time>
      </trkpt>
      <trkpt lat="37.0547" lon="-3.35232">
        <ele>3092</ele>
        <time>2021-08-05 20:44:32</time>
      </trkpt>
      <trkpt lat="37.0547" lon="-3.35231">
        <ele>3092</ele>
        <time>2021-08-05 20:44:33</time>
      </trkpt>
      <trkpt lat="37.0547" lon="-3.3523">
        <ele>3091.6</ele>
        <time>2021-08-05 20:44:34</time>
      </trkpt>
      <trkpt lat="37.05469" lon="-3.3523">
        <ele>3091.4</ele>
        <time>2021-08-05 20:44:35</time>
      </trkpt>
      <trkpt lat="37.05468" lon="-3.35229">
        <ele>3091.4</ele>
        <time>2021-08-05 20:44:36</time>
      </trkpt>
      <trkpt lat="37.05468" lon="-3.35229">
        <ele>3091.4</ele>
        <time>2021-08-05 20:44:37</time>
      </trkpt>
      <trkpt lat="37.05467" lon="-3.35228">
        <ele>3091.4</ele>
        <time>2021-08-05 20:44:38</time>
      </trkpt>
      <trkpt lat="37.05466" lon="-3.35227">
        <ele>3091.4</ele>
        <time>2021-08-05 20:44:39</time>
      </trkpt>
      <trkpt lat="37.05466" lon="-3.35225">
        <ele>3091.4</ele>
        <time>2021-08-05 20:44:40</time>
      </trkpt>
      <trkpt lat="37.05466" lon="-3.35224">
        <ele>3091.4</ele>
        <time>2021-08-05 20:44:41</time>
      </trkpt>
      <trkpt lat="37.05465" lon="-3.35223">
        <ele>3091.2</ele>
        <time>2021-08-05 20:44:42</time>
      </trkpt>
      <trkpt lat="37.05464" lon="-3.35222">
        <ele>3091.2</ele>
        <time>2021-08-05 20:44:43</time>
      </trkpt>
      <trkpt lat="37.05463" lon="-3.35221">
        <ele>3091.2</ele>
        <time>2021-08-05 20:44:44</time>
      </trkpt>
      <trkpt lat="37.05463" lon="-3.3522">
        <ele>3091</ele>
        <time>2021-08-05 20:44:45</time>
      </trkpt>
      <trkpt lat="37.05462" lon="-3.35218">
        <ele>3091</ele>
        <time>2021-08-05 20:44:46</time>
      </trkpt>
      <trkpt lat="37.05461" lon="-3.35217">
        <ele>3091</ele>
        <time>2021-08-05 20:44:47</time>
      </trkpt>
      <trkpt lat="37.05461" lon="-3.35216">
        <ele>3091</ele>
        <time>2021-08-05 20:44:48</time>
      </trkpt>
      <trkpt lat="37.0546" lon="-3.35216">
        <ele>3091</ele>
        <time>2021-08-05 20:44:49</time>
      </trkpt>
      <trkpt lat="37.0546" lon="-3.35214">
        <ele>3091</ele>
        <time>2021-08-05 20:44:50</time>
      </trkpt>
      <trkpt lat="37.05459" lon="-3.35213">
        <ele>3090.8</ele>
        <time>2021-08-05 20:44:51</time>
      </trkpt>
      <trkpt lat="37.05459" lon="-3.35213">
        <ele>3090.8</ele>
        <time>2021-08-05 20:44:52</time>
      </trkpt>
      <trkpt lat="37.05458" lon="-3.35212">
        <ele>3090.8</ele>
        <time>2021-08-05 20:44:53</time>
      </trkpt>
      <trkpt lat="37.05457" lon="-3.35211">
        <ele>3090.8</ele>
        <time>2021-08-05 20:44:54</time>
      </trkpt>
      <trkpt lat="37.05456" lon="-3.35211">
        <ele>3090.6</ele>
        <time>2021-08-05 20:44:55</time>
      </trkpt>
      <trkpt lat="37.05456" lon="-3.35211">
        <ele>3090.6</ele>
        <time>2021-08-05 20:44:56</time>
      </trkpt>
      <trkpt lat="37.05455" lon="-3.3521">
        <ele>3090.6</ele>
        <time>2021-08-05 20:44:57</time>
      </trkpt>
      <trkpt lat="37.05454" lon="-3.35209">
        <ele>3090.4</ele>
        <time>2021-08-05 20:44:58</time>
      </trkpt>
      <trkpt lat="37.05454" lon="-3.35208">
        <ele>3090.4</ele>
        <time>2021-08-05 20:44:59</time>
      </trkpt>
      <trkpt lat="37.05454" lon="-3.35207">
        <ele>3090.2</ele>
        <time>2021-08-05 20:45:00</time>
      </trkpt>
      <trkpt lat="37.05454" lon="-3.35206">
        <ele>3090</ele>
        <time>2021-08-05 20:45:01</time>
      </trkpt>
      <trkpt lat="37.05454" lon="-3.35205">
        <ele>3090</ele>
        <time>2021-08-05 20:45:02</time>
      </trkpt>
      <trkpt lat="37.05453" lon="-3.35204">
        <ele>3090.2</ele>
        <time>2021-08-05 20:45:03</time>
      </trkpt>
      <trkpt lat="37.05453" lon="-3.35203">
        <ele>3090</ele>
        <time>2021-08-05 20:45:04</time>
      </trkpt>
      <trkpt lat="37.05453" lon="-3.35201">
        <ele>3090</ele>
        <time>2021-08-05 20:45:05</time>
      </trkpt>
      <trkpt lat="37.05453" lon="-3.352">
        <ele>3089.8</ele>
        <time>2021-08-05 20:45:06</time>
      </trkpt>
      <trkpt lat="37.05452" lon="-3.35199">
        <ele>3089.6</ele>
        <time>2021-08-05 20:45:07</time>
      </trkpt>
      <trkpt lat="37.05451" lon="-3.35199">
        <ele>3089.6</ele>
        <time>2021-08-05 20:45:08</time>
      </trkpt>
      <trkpt lat="37.05451" lon="-3.35198">
        <ele>3089.6</ele>
        <time>2021-08-05 20:45:09</time>
      </trkpt>
      <trkpt lat="37.05451" lon="-3.35196">
        <ele>3089.4</ele>
        <time>2021-08-05 20:45:10</time>
      </trkpt>
      <trkpt lat="37.0545" lon="-3.35195">
        <ele>3089.2</ele>
        <time>2021-08-05 20:45:11</time>
      </trkpt>
      <trkpt lat="37.0545" lon="-3.35194">
        <ele>3089.2</ele>
        <time>2021-08-05 20:45:12</time>
      </trkpt>
      <trkpt lat="37.05449" lon="-3.35193">
        <ele>3089</ele>
        <time>2021-08-05 20:45:13</time>
      </trkpt>
      <trkpt lat="37.05449" lon="-3.35191">
        <ele>3089</ele>
        <time>2021-08-05 20:45:14</time>
      </trkpt>
      <trkpt lat="37.05449" lon="-3.3519">
        <ele>3088.8</ele>
        <time>2021-08-05 20:45:15</time>
      </trkpt>
      <trkpt lat="37.05449" lon="-3.35188">
        <ele>3088.8</ele>
        <time>2021-08-05 20:45:16</time>
      </trkpt>
      <trkpt lat="37.05449" lon="-3.35187">
        <ele>3088.8</ele>
        <time>2021-08-05 20:45:17</time>
      </trkpt>
      <trkpt lat="37.05448" lon="-3.35185">
        <ele>3088.6</ele>
        <time>2021-08-05 20:45:18</time>
      </trkpt>
      <trkpt lat="37.05448" lon="-3.35184">
        <ele>3088.4</ele>
        <time>2021-08-05 20:45:19</time>
      </trkpt>
      <trkpt lat="37.05447" lon="-3.35183">
        <ele>3088.2</ele>
        <time>2021-08-05 20:45:20</time>
      </trkpt>
      <trkpt lat="37.05447" lon="-3.35182">
        <ele>3088.2</ele>
        <time>2021-08-05 20:45:21</time>
      </trkpt>
      <trkpt lat="37.05446" lon="-3.35181">
        <ele>3088.2</ele>
        <time>2021-08-05 20:45:22</time>
      </trkpt>
      <trkpt lat="37.05445" lon="-3.3518">
        <ele>3088</ele>
        <time>2021-08-05 20:45:23</time>
      </trkpt>
      <trkpt lat="37.05445" lon="-3.35178">
        <ele>3088</ele>
        <time>2021-08-05 20:45:24</time>
      </trkpt>
      <trkpt lat="37.05445" lon="-3.35177">
        <ele>3087.8</ele>
        <time>2021-08-05 20:45:25</time>
      </trkpt>
      <trkpt lat="37.05444" lon="-3.35176">
        <ele>3087.6</ele>
        <time>2021-08-05 20:45:26</time>
      </trkpt>
      <trkpt lat="37.05444" lon="-3.35175">
        <ele>3087.6</ele>
        <time>2021-08-05 20:45:27</time>
      </trkpt>
      <trkpt lat="37.05443" lon="-3.35173">
        <ele>3087.4</ele>
        <time>2021-08-05 20:45:28</time>
      </trkpt>
      <trkpt lat="37.05442" lon="-3.35172">
        <ele>3087.4</ele>
        <time>2021-08-05 20:45:29</time>
      </trkpt>
      <trkpt lat="37.05442" lon="-3.35171">
        <ele>3087.4</ele>
        <time>2021-08-05 20:45:30</time>
      </trkpt>
      <trkpt lat="37.05441" lon="-3.3517">
        <ele>3087.4</ele>
        <time>2021-08-05 20:45:31</time>
      </trkpt>
      <trkpt lat="37.05441" lon="-3.3517">
        <ele>3087.4</ele>
        <time>2021-08-05 20:45:32</time>
      </trkpt>
      <trkpt lat="37.0544" lon="-3.35169">
        <ele>3087.4</ele>
        <time>2021-08-05 20:45:33</time>
      </trkpt>
      <trkpt lat="37.05439" lon="-3.35168">
        <ele>3087.4</ele>
        <time>2021-08-05 20:45:34</time>
      </trkpt>
      <trkpt lat="37.05438" lon="-3.35168">
        <ele>3087.4</ele>
        <time>2021-08-05 20:45:35</time>
      </trkpt>
      <trkpt lat="37.05437" lon="-3.35167">
        <ele>3087.2</ele>
        <time>2021-08-05 20:45:36</time>
      </trkpt>
      <trkpt lat="37.05437" lon="-3.35166">
        <ele>3087.2</ele>
        <time>2021-08-05 20:45:37</time>
      </trkpt>
      <trkpt lat="37.05436" lon="-3.35165">
        <ele>3087.2</ele>
        <time>2021-08-05 20:45:38</time>
      </trkpt>
      <trkpt lat="37.05435" lon="-3.35164">
        <ele>3087</ele>
        <time>2021-08-05 20:45:39</time>
      </trkpt>
      <trkpt lat="37.05434" lon="-3.35163">
        <ele>3087</ele>
        <time>2021-08-05 20:45:40</time>
      </trkpt>
      <trkpt lat="37.05433" lon="-3.35162">
        <ele>3087</ele>
        <time>2021-08-05 20:45:41</time>
      </trkpt>
      <trkpt lat="37.05433" lon="-3.35164">
        <ele>3087</ele>
        <time>2021-08-05 20:45:42</time>
      </trkpt>
      <trkpt lat="37.05432" lon="-3.35163">
        <ele>3087</ele>
        <time>2021-08-05 20:45:43</time>
      </trkpt>
      <trkpt lat="37.05431" lon="-3.35162">
        <ele>3087</ele>
        <time>2021-08-05 20:45:44</time>
      </trkpt>
      <trkpt lat="37.05431" lon="-3.35161">
        <ele>3087</ele>
        <time>2021-08-05 20:45:45</time>
      </trkpt>
      <trkpt lat="37.05431" lon="-3.3516">
        <ele>3087</ele>
        <time>2021-08-05 20:45:46</time>
      </trkpt>
      <trkpt lat="37.0543" lon="-3.35158">
        <ele>3086.8</ele>
        <time>2021-08-05 20:45:47</time>
      </trkpt>
      <trkpt lat="37.05429" lon="-3.35157">
        <ele>3086.8</ele>
        <time>2021-08-05 20:45:48</time>
      </trkpt>
      <trkpt lat="37.05429" lon="-3.35156">
        <ele>3086.8</ele>
        <time>2021-08-05 20:45:49</time>
      </trkpt>
      <trkpt lat="37.05428" lon="-3.35155">
        <ele>3086.6</ele>
        <time>2021-08-05 20:45:50</time>
      </trkpt>
      <trkpt lat="37.05427" lon="-3.35155">
        <ele>3086.4</ele>
        <time>2021-08-05 20:45:51</time>
      </trkpt>
      <trkpt lat="37.05427" lon="-3.35155">
        <ele>3086.4</ele>
        <time>2021-08-05 20:45:52</time>
      </trkpt>
      <trkpt lat="37.05427" lon="-3.35154">
        <ele>3086.2</ele>
        <time>2021-08-05 20:45:53</time>
      </trkpt>
      <trkpt lat="37.05426" lon="-3.35154">
        <ele>3086.2</ele>
        <time>2021-08-05 20:45:54</time>
      </trkpt>
      <trkpt lat="37.05423" lon="-3.35153">
        <ele>3086</ele>
        <time>2021-08-05 20:45:55</time>
      </trkpt>
      <trkpt lat="37.05422" lon="-3.35152">
        <ele>3085.8</ele>
        <time>2021-08-05 20:45:56</time>
      </trkpt>
      <trkpt lat="37.05422" lon="-3.3515">
        <ele>3085.8</ele>
        <time>2021-08-05 20:45:57</time>
      </trkpt>
      <trkpt lat="37.0542" lon="-3.35147">
        <ele>3085.8</ele>
        <time>2021-08-05 20:45:58</time>
      </trkpt>
      <trkpt lat="37.05419" lon="-3.35146">
        <ele>3085.8</ele>
        <time>2021-08-05 20:45:59</time>
      </trkpt>
      <trkpt lat="37.05418" lon="-3.35145">
        <ele>3085.8</ele>
        <time>2021-08-05 20:46:00</time>
      </trkpt>
      <trkpt lat="37.05418" lon="-3.35144">
        <ele>3085.8</ele>
        <time>2021-08-05 20:46:01</time>
      </trkpt>
      <trkpt lat="37.05418" lon="-3.35144">
        <ele>3085.8</ele>
        <time>2021-08-05 20:46:02</time>
      </trkpt>
      <trkpt lat="37.05417" lon="-3.35143">
        <ele>3085.8</ele>
        <time>2021-08-05 20:46:03</time>
      </trkpt>
      <trkpt lat="37.05417" lon="-3.35142">
        <ele>3085.8</ele>
        <time>2021-08-05 20:46:04</time>
      </trkpt>
      <trkpt lat="37.05417" lon="-3.35142">
        <ele>3085.6</ele>
        <time>2021-08-05 20:46:05</time>
      </trkpt>
      <trkpt lat="37.05416" lon="-3.35141">
        <ele>3085.6</ele>
        <time>2021-08-05 20:46:06</time>
      </trkpt>
      <trkpt lat="37.05416" lon="-3.35139">
        <ele>3085.4</ele>
        <time>2021-08-05 20:46:07</time>
      </trkpt>
      <trkpt lat="37.05415" lon="-3.35138">
        <ele>3085.4</ele>
        <time>2021-08-05 20:46:08</time>
      </trkpt>
      <trkpt lat="37.05415" lon="-3.35137">
        <ele>3085.2</ele>
        <time>2021-08-05 20:46:09</time>
      </trkpt>
      <trkpt lat="37.05414" lon="-3.35136">
        <ele>3085.2</ele>
        <time>2021-08-05 20:46:10</time>
      </trkpt>
      <trkpt lat="37.05414" lon="-3.35135">
        <ele>3085</ele>
        <time>2021-08-05 20:46:11</time>
      </trkpt>
      <trkpt lat="37.05413" lon="-3.35133">
        <ele>3085</ele>
        <time>2021-08-05 20:46:12</time>
      </trkpt>
      <trkpt lat="37.05413" lon="-3.35132">
        <ele>3085</ele>
        <time>2021-08-05 20:46:13</time>
      </trkpt>
      <trkpt lat="37.05413" lon="-3.3513">
        <ele>3084.8</ele>
        <time>2021-08-05 20:46:14</time>
      </trkpt>
      <trkpt lat="37.05413" lon="-3.35129">
        <ele>3084.8</ele>
        <time>2021-08-05 20:46:15</time>
      </trkpt>
      <trkpt lat="37.05413" lon="-3.35128">
        <ele>3084.6</ele>
        <time>2021-08-05 20:46:16</time>
      </trkpt>
      <trkpt lat="37.05412" lon="-3.35126">
        <ele>3084.6</ele>
        <time>2021-08-05 20:46:17</time>
      </trkpt>
      <trkpt lat="37.05412" lon="-3.35126">
        <ele>3084.6</ele>
        <time>2021-08-05 20:46:18</time>
      </trkpt>
      <trkpt lat="37.05411" lon="-3.35126">
        <ele>3084.6</ele>
        <time>2021-08-05 20:46:19</time>
      </trkpt>
      <trkpt lat="37.05412" lon="-3.35124">
        <ele>3084.2</ele>
        <time>2021-08-05 20:46:20</time>
      </trkpt>
      <trkpt lat="37.05412" lon="-3.35123">
        <ele>3084.2</ele>
        <time>2021-08-05 20:46:21</time>
      </trkpt>
      <trkpt lat="37.05411" lon="-3.35121">
        <ele>3084</ele>
        <time>2021-08-05 20:46:22</time>
      </trkpt>
      <trkpt lat="37.0541" lon="-3.3512">
        <ele>3084</ele>
        <time>2021-08-05 20:46:23</time>
      </trkpt>
      <trkpt lat="37.05412" lon="-3.35119">
        <ele>3084</ele>
        <time>2021-08-05 20:46:24</time>
      </trkpt>
      <trkpt lat="37.05413" lon="-3.35119">
        <ele>3083.8</ele>
        <time>2021-08-05 20:46:25</time>
      </trkpt>
      <trkpt lat="37.05413" lon="-3.3512">
        <ele>3083.8</ele>
        <time>2021-08-05 20:46:26</time>
      </trkpt>
      <trkpt lat="37.05412" lon="-3.3512">
        <ele>3083.6</ele>
        <time>2021-08-05 20:46:27</time>
      </trkpt>
      <trkpt lat="37.05413" lon="-3.3512">
        <ele>3083.6</ele>
        <time>2021-08-05 20:46:28</time>
      </trkpt>
      <trkpt lat="37.05413" lon="-3.35121">
        <ele>3083.6</ele>
        <time>2021-08-05 20:46:29</time>
      </trkpt>
      <trkpt lat="37.05413" lon="-3.35121">
        <ele>3083.4</ele>
        <time>2021-08-05 20:46:30</time>
      </trkpt>
      <trkpt lat="37.05414" lon="-3.35122">
        <ele>3083.4</ele>
        <time>2021-08-05 20:46:31</time>
      </trkpt>
      <trkpt lat="37.05414" lon="-3.35123">
        <ele>3083.2</ele>
        <time>2021-08-05 20:46:32</time>
      </trkpt>
      <trkpt lat="37.05414" lon="-3.35122">
        <ele>3083.2</ele>
        <time>2021-08-05 20:46:33</time>
      </trkpt>
      <trkpt lat="37.05413" lon="-3.35123">
        <ele>3083.2</ele>
        <time>2021-08-05 20:46:34</time>
      </trkpt>
      <trkpt lat="37.05413" lon="-3.35123">
        <ele>3083.2</ele>
        <time>2021-08-05 20:46:35</time>
      </trkpt>
      <trkpt lat="37.05413" lon="-3.35122">
        <ele>3083.2</ele>
        <time>2021-08-05 20:46:36</time>
      </trkpt>
      <trkpt lat="37.05413" lon="-3.35122">
        <ele>3083.2</ele>
        <time>2021-08-05 20:46:37</time>
      </trkpt>
      <trkpt lat="37.05412" lon="-3.35122">
        <ele>3083.2</ele>
        <time>2021-08-05 20:46:38</time>
      </trkpt>
      <trkpt lat="37.05412" lon="-3.35121">
        <ele>3083.2</ele>
        <time>2021-08-05 20:46:39</time>
      </trkpt>
      <trkpt lat="37.05412" lon="-3.3512">
        <ele>3083.2</ele>
        <time>2021-08-05 20:46:40</time>
      </trkpt>
      <trkpt lat="37.05412" lon="-3.35118">
        <ele>3083.2</ele>
        <time>2021-08-05 20:46:41</time>
      </trkpt>
      <trkpt lat="37.05411" lon="-3.35117">
        <ele>3083.2</ele>
        <time>2021-08-05 20:46:42</time>
      </trkpt>
      <trkpt lat="37.05411" lon="-3.35115">
        <ele>3083.2</ele>
        <time>2021-08-05 20:46:43</time>
      </trkpt>
      <trkpt lat="37.0541" lon="-3.35114">
        <ele>3083</ele>
        <time>2021-08-05 20:46:44</time>
      </trkpt>
      <trkpt lat="37.05408" lon="-3.35113">
        <ele>3083</ele>
        <time>2021-08-05 20:46:45</time>
      </trkpt>
      <trkpt lat="37.05408" lon="-3.35112">
        <ele>3083</ele>
        <time>2021-08-05 20:46:46</time>
      </trkpt>
      <trkpt lat="37.05408" lon="-3.35111">
        <ele>3083</ele>
        <time>2021-08-05 20:46:47</time>
      </trkpt>
      <trkpt lat="37.05407" lon="-3.3511">
        <ele>3083</ele>
        <time>2021-08-05 20:46:48</time>
      </trkpt>
      <trkpt lat="37.05407" lon="-3.35108">
        <ele>3083</ele>
        <time>2021-08-05 20:46:49</time>
      </trkpt>
      <trkpt lat="37.05406" lon="-3.35106">
        <ele>3083</ele>
        <time>2021-08-05 20:46:50</time>
      </trkpt>
      <trkpt lat="37.05406" lon="-3.35105">
        <ele>3083.2</ele>
        <time>2021-08-05 20:46:51</time>
      </trkpt>
      <trkpt lat="37.05406" lon="-3.35104">
        <ele>3083.2</ele>
        <time>2021-08-05 20:46:52</time>
      </trkpt>
      <trkpt lat="37.05406" lon="-3.35102">
        <ele>3083</ele>
        <time>2021-08-05 20:46:53</time>
      </trkpt>
      <trkpt lat="37.05406" lon="-3.351">
        <ele>3083</ele>
        <time>2021-08-05 20:46:54</time>
      </trkpt>
      <trkpt lat="37.05406" lon="-3.35098">
        <ele>3083</ele>
        <time>2021-08-05 20:46:55</time>
      </trkpt>
      <trkpt lat="37.05406" lon="-3.35098">
        <ele>3082.8</ele>
        <time>2021-08-05 20:46:56</time>
      </trkpt>
      <trkpt lat="37.05406" lon="-3.35097">
        <ele>3082.4</ele>
        <time>2021-08-05 20:46:57</time>
      </trkpt>
      <trkpt lat="37.05405" lon="-3.35096">
        <ele>3082.4</ele>
        <time>2021-08-05 20:46:58</time>
      </trkpt>
      <trkpt lat="37.05406" lon="-3.35094">
        <ele>3082.6</ele>
        <time>2021-08-05 20:46:59</time>
      </trkpt>
      <trkpt lat="37.05405" lon="-3.35093">
        <ele>3082.6</ele>
        <time>2021-08-05 20:47:00</time>
      </trkpt>
      <trkpt lat="37.05405" lon="-3.35094">
        <ele>3082.6</ele>
        <time>2021-08-05 20:47:01</time>
      </trkpt>
      <trkpt lat="37.05405" lon="-3.35093">
        <ele>3082.4</ele>
        <time>2021-08-05 20:47:02</time>
      </trkpt>
      <trkpt lat="37.05404" lon="-3.35093">
        <ele>3082.2</ele>
        <time>2021-08-05 20:47:03</time>
      </trkpt>
      <trkpt lat="37.05404" lon="-3.35092">
        <ele>3082.2</ele>
        <time>2021-08-05 20:47:04</time>
      </trkpt>
      <trkpt lat="37.05404" lon="-3.35092">
        <ele>3082</ele>
        <time>2021-08-05 20:47:05</time>
      </trkpt>
      <trkpt lat="37.05403" lon="-3.35089">
        <ele>3081.8</ele>
        <time>2021-08-05 20:47:06</time>
      </trkpt>
      <trkpt lat="37.05403" lon="-3.35088">
        <ele>3081.6</ele>
        <time>2021-08-05 20:47:07</time>
      </trkpt>
      <trkpt lat="37.05402" lon="-3.35086">
        <ele>3081.6</ele>
        <time>2021-08-05 20:47:08</time>
      </trkpt>
      <trkpt lat="37.05403" lon="-3.35085">
        <ele>3081.4</ele>
        <time>2021-08-05 20:47:09</time>
      </trkpt>
      <trkpt lat="37.05402" lon="-3.35084">
        <ele>3081.4</ele>
        <time>2021-08-05 20:47:10</time>
      </trkpt>
      <trkpt lat="37.05403" lon="-3.35082">
        <ele>3081.2</ele>
        <time>2021-08-05 20:47:11</time>
      </trkpt>
      <trkpt lat="37.05403" lon="-3.35081">
        <ele>3081.4</ele>
        <time>2021-08-05 20:47:12</time>
      </trkpt>
      <trkpt lat="37.05403" lon="-3.35079">
        <ele>3081.4</ele>
        <time>2021-08-05 20:47:13</time>
      </trkpt>
      <trkpt lat="37.05404" lon="-3.35077">
        <ele>3081.4</ele>
        <time>2021-08-05 20:47:14</time>
      </trkpt>
      <trkpt lat="37.05405" lon="-3.35076">
        <ele>3081.4</ele>
        <time>2021-08-05 20:47:15</time>
      </trkpt>
      <trkpt lat="37.05405" lon="-3.35074">
        <ele>3081.4</ele>
        <time>2021-08-05 20:47:16</time>
      </trkpt>
      <trkpt lat="37.05405" lon="-3.35073">
        <ele>3081.2</ele>
        <time>2021-08-05 20:47:17</time>
      </trkpt>
      <trkpt lat="37.05405" lon="-3.35072">
        <ele>3081</ele>
        <time>2021-08-05 20:47:18</time>
      </trkpt>
      <trkpt lat="37.05405" lon="-3.35071">
        <ele>3081</ele>
        <time>2021-08-05 20:47:19</time>
      </trkpt>
      <trkpt lat="37.05405" lon="-3.3507">
        <ele>3081</ele>
        <time>2021-08-05 20:47:20</time>
      </trkpt>
      <trkpt lat="37.05404" lon="-3.35068">
        <ele>3081</ele>
        <time>2021-08-05 20:47:21</time>
      </trkpt>
      <trkpt lat="37.05406" lon="-3.35066">
        <ele>3080.8</ele>
        <time>2021-08-05 20:47:22</time>
      </trkpt>
      <trkpt lat="37.05406" lon="-3.35064">
        <ele>3080.8</ele>
        <time>2021-08-05 20:47:23</time>
      </trkpt>
      <trkpt lat="37.05406" lon="-3.35062">
        <ele>3080.6</ele>
        <time>2021-08-05 20:47:24</time>
      </trkpt>
      <trkpt lat="37.05405" lon="-3.3506">
        <ele>3080.6</ele>
        <time>2021-08-05 20:47:25</time>
      </trkpt>
      <trkpt lat="37.05405" lon="-3.35058">
        <ele>3080.4</ele>
        <time>2021-08-05 20:47:26</time>
      </trkpt>
      <trkpt lat="37.05403" lon="-3.35058">
        <ele>3080.4</ele>
        <time>2021-08-05 20:47:27</time>
      </trkpt>
      <trkpt lat="37.05401" lon="-3.35058">
        <ele>3080.6</ele>
        <time>2021-08-05 20:47:28</time>
      </trkpt>
      <trkpt lat="37.05403" lon="-3.35056">
        <ele>3080.6</ele>
        <time>2021-08-05 20:47:29</time>
      </trkpt>
      <trkpt lat="37.05402" lon="-3.35054">
        <ele>3080.8</ele>
        <time>2021-08-05 20:47:30</time>
      </trkpt>
      <trkpt lat="37.05403" lon="-3.35053">
        <ele>3080.8</ele>
        <time>2021-08-05 20:47:31</time>
      </trkpt>
      <trkpt lat="37.05404" lon="-3.35052">
        <ele>3080.8</ele>
        <time>2021-08-05 20:47:32</time>
      </trkpt>
      <trkpt lat="37.05403" lon="-3.35051">
        <ele>3080.8</ele>
        <time>2021-08-05 20:47:33</time>
      </trkpt>
      <trkpt lat="37.05402" lon="-3.3505">
        <ele>3080.8</ele>
        <time>2021-08-05 20:47:34</time>
      </trkpt>
      <trkpt lat="37.05401" lon="-3.35049">
        <ele>3080.8</ele>
        <time>2021-08-05 20:47:35</time>
      </trkpt>
      <trkpt lat="37.054" lon="-3.35049">
        <ele>3080.8</ele>
        <time>2021-08-05 20:47:36</time>
      </trkpt>
      <trkpt lat="37.05398" lon="-3.35049">
        <ele>3080.6</ele>
        <time>2021-08-05 20:47:37</time>
      </trkpt>
      <trkpt lat="37.05397" lon="-3.35048">
        <ele>3080.6</ele>
        <time>2021-08-05 20:47:38</time>
      </trkpt>
      <trkpt lat="37.05396" lon="-3.35048">
        <ele>3080.6</ele>
        <time>2021-08-05 20:47:39</time>
      </trkpt>
      <trkpt lat="37.05398" lon="-3.35052">
        <ele>3080.6</ele>
        <time>2021-08-05 20:47:40</time>
      </trkpt>
      <trkpt lat="37.05398" lon="-3.35053">
        <ele>3080.6</ele>
        <time>2021-08-05 20:47:41</time>
      </trkpt>
      <trkpt lat="37.05397" lon="-3.35053">
        <ele>3080.6</ele>
        <time>2021-08-05 20:47:42</time>
      </trkpt>
      <trkpt lat="37.05397" lon="-3.35052">
        <ele>3080.6</ele>
        <time>2021-08-05 20:47:43</time>
      </trkpt>
      <trkpt lat="37.05396" lon="-3.35051">
        <ele>3080.6</ele>
        <time>2021-08-05 20:47:44</time>
      </trkpt>
      <trkpt lat="37.05395" lon="-3.35049">
        <ele>3080.6</ele>
        <time>2021-08-05 20:47:45</time>
      </trkpt>
      <trkpt lat="37.05395" lon="-3.35048">
        <ele>3080.4</ele>
        <time>2021-08-05 20:47:46</time>
      </trkpt>
      <trkpt lat="37.05394" lon="-3.35046">
        <ele>3080.4</ele>
        <time>2021-08-05 20:47:47</time>
      </trkpt>
      <trkpt lat="37.05394" lon="-3.35045">
        <ele>3080.4</ele>
        <time>2021-08-05 20:47:48</time>
      </trkpt>
      <trkpt lat="37.05387" lon="-3.35035">
        <ele>3080.4</ele>
        <time>2021-08-05 20:47:49</time>
      </trkpt>
      <trkpt lat="37.05386" lon="-3.35034">
        <ele>3080.4</ele>
        <time>2021-08-05 20:47:50</time>
      </trkpt>
      <trkpt lat="37.05385" lon="-3.35033">
        <ele>3080.4</ele>
        <time>2021-08-05 20:47:51</time>
      </trkpt>
      <trkpt lat="37.05385" lon="-3.35032">
        <ele>3080.4</ele>
        <time>2021-08-05 20:47:52</time>
      </trkpt>
      <trkpt lat="37.05384" lon="-3.35031">
        <ele>3080.4</ele>
        <time>2021-08-05 20:47:53</time>
      </trkpt>
      <trkpt lat="37.05384" lon="-3.3503">
        <ele>3080.4</ele>
        <time>2021-08-05 20:47:54</time>
      </trkpt>
      <trkpt lat="37.05383" lon="-3.35029">
        <ele>3080.4</ele>
        <time>2021-08-05 20:47:55</time>
      </trkpt>
      <trkpt lat="37.05383" lon="-3.35028">
        <ele>3080.4</ele>
        <time>2021-08-05 20:47:56</time>
      </trkpt>
      <trkpt lat="37.05382" lon="-3.35027">
        <ele>3080.4</ele>
        <time>2021-08-05 20:47:57</time>
      </trkpt>
      <trkpt lat="37.05381" lon="-3.35026">
        <ele>3080.2</ele>
        <time>2021-08-05 20:47:58</time>
      </trkpt>
      <trkpt lat="37.0538" lon="-3.35025">
        <ele>3080.2</ele>
        <time>2021-08-05 20:47:59</time>
      </trkpt>
      <trkpt lat="37.0538" lon="-3.35023">
        <ele>3080</ele>
        <time>2021-08-05 20:48:00</time>
      </trkpt>
      <trkpt lat="37.05379" lon="-3.35023">
        <ele>3080.2</ele>
        <time>2021-08-05 20:48:01</time>
      </trkpt>
      <trkpt lat="37.05378" lon="-3.35022">
        <ele>3080.2</ele>
        <time>2021-08-05 20:48:02</time>
      </trkpt>
      <trkpt lat="37.05377" lon="-3.35021">
        <ele>3080</ele>
        <time>2021-08-05 20:48:03</time>
      </trkpt>
      <trkpt lat="37.05377" lon="-3.3502">
        <ele>3080</ele>
        <time>2021-08-05 20:48:04</time>
      </trkpt>
      <trkpt lat="37.05376" lon="-3.3502">
        <ele>3080</ele>
        <time>2021-08-05 20:48:05</time>
      </trkpt>
      <trkpt lat="37.05375" lon="-3.35019">
        <ele>3080</ele>
        <time>2021-08-05 20:48:06</time>
      </trkpt>
      <trkpt lat="37.05374" lon="-3.35018">
        <ele>3079.6</ele>
        <time>2021-08-05 20:48:07</time>
      </trkpt>
      <trkpt lat="37.05373" lon="-3.35017">
        <ele>3079.6</ele>
        <time>2021-08-05 20:48:08</time>
      </trkpt>
      <trkpt lat="37.05372" lon="-3.35017">
        <ele>3079.4</ele>
        <time>2021-08-05 20:48:09</time>
      </trkpt>
      <trkpt lat="37.05371" lon="-3.35016">
        <ele>3079.4</ele>
        <time>2021-08-05 20:48:10</time>
      </trkpt>
      <trkpt lat="37.0537" lon="-3.35015">
        <ele>3079.4</ele>
        <time>2021-08-05 20:48:11</time>
      </trkpt>
      <trkpt lat="37.0537" lon="-3.35014">
        <ele>3079.4</ele>
        <time>2021-08-05 20:48:12</time>
      </trkpt>
      <trkpt lat="37.05369" lon="-3.35013">
        <ele>3079.6</ele>
        <time>2021-08-05 20:48:13</time>
      </trkpt>
      <trkpt lat="37.05369" lon="-3.35013">
        <ele>3079.6</ele>
        <time>2021-08-05 20:48:14</time>
      </trkpt>
      <trkpt lat="37.05368" lon="-3.35012">
        <ele>3079.6</ele>
        <time>2021-08-05 20:48:15</time>
      </trkpt>
      <trkpt lat="37.05367" lon="-3.35012">
        <ele>3079.6</ele>
        <time>2021-08-05 20:48:16</time>
      </trkpt>
      <trkpt lat="37.05366" lon="-3.35011">
        <ele>3079.6</ele>
        <time>2021-08-05 20:48:17</time>
      </trkpt>
      <trkpt lat="37.05365" lon="-3.35011">
        <ele>3079.6</ele>
        <time>2021-08-05 20:48:18</time>
      </trkpt>
      <trkpt lat="37.05364" lon="-3.3501">
        <ele>3079.6</ele>
        <time>2021-08-05 20:48:19</time>
      </trkpt>
      <trkpt lat="37.05363" lon="-3.3501">
        <ele>3079.6</ele>
        <time>2021-08-05 20:48:20</time>
      </trkpt>
      <trkpt lat="37.05363" lon="-3.35009">
        <ele>3079.6</ele>
        <time>2021-08-05 20:48:21</time>
      </trkpt>
      <trkpt lat="37.05362" lon="-3.35009">
        <ele>3079.8</ele>
        <time>2021-08-05 20:48:22</time>
      </trkpt>
      <trkpt lat="37.05361" lon="-3.35008">
        <ele>3079.8</ele>
        <time>2021-08-05 20:48:23</time>
      </trkpt>
      <trkpt lat="37.0536" lon="-3.35007">
        <ele>3079.8</ele>
        <time>2021-08-05 20:48:24</time>
      </trkpt>
      <trkpt lat="37.0536" lon="-3.35005">
        <ele>3079.8</ele>
        <time>2021-08-05 20:48:25</time>
      </trkpt>
      <trkpt lat="37.05359" lon="-3.35004">
        <ele>3079.6</ele>
        <time>2021-08-05 20:48:26</time>
      </trkpt>
      <trkpt lat="37.05358" lon="-3.35002">
        <ele>3079.4</ele>
        <time>2021-08-05 20:48:27</time>
      </trkpt>
      <trkpt lat="37.05357" lon="-3.35">
        <ele>3079.4</ele>
        <time>2021-08-05 20:48:28</time>
      </trkpt>
      <trkpt lat="37.05356" lon="-3.34999">
        <ele>3079.4</ele>
        <time>2021-08-05 20:48:29</time>
      </trkpt>
      <trkpt lat="37.05356" lon="-3.34998">
        <ele>3079.4</ele>
        <time>2021-08-05 20:48:30</time>
      </trkpt>
      <trkpt lat="37.05355" lon="-3.34997">
        <ele>3079.4</ele>
        <time>2021-08-05 20:48:31</time>
      </trkpt>
      <trkpt lat="37.05354" lon="-3.34997">
        <ele>3079.4</ele>
        <time>2021-08-05 20:48:32</time>
      </trkpt>
      <trkpt lat="37.05353" lon="-3.34996">
        <ele>3079.6</ele>
        <time>2021-08-05 20:48:33</time>
      </trkpt>
      <trkpt lat="37.05353" lon="-3.34994">
        <ele>3079.4</ele>
        <time>2021-08-05 20:48:34</time>
      </trkpt>
      <trkpt lat="37.05352" lon="-3.34993">
        <ele>3079.2</ele>
        <time>2021-08-05 20:48:35</time>
      </trkpt>
      <trkpt lat="37.05351" lon="-3.34992">
        <ele>3079.2</ele>
        <time>2021-08-05 20:48:36</time>
      </trkpt>
      <trkpt lat="37.0535" lon="-3.34991">
        <ele>3079</ele>
        <time>2021-08-05 20:48:37</time>
      </trkpt>
      <trkpt lat="37.0535" lon="-3.3499">
        <ele>3078.8</ele>
        <time>2021-08-05 20:48:38</time>
      </trkpt>
      <trkpt lat="37.05349" lon="-3.34989">
        <ele>3078.8</ele>
        <time>2021-08-05 20:48:39</time>
      </trkpt>
      <trkpt lat="37.05348" lon="-3.34989">
        <ele>3078.6</ele>
        <time>2021-08-05 20:48:40</time>
      </trkpt>
      <trkpt lat="37.05348" lon="-3.34988">
        <ele>3078.6</ele>
        <time>2021-08-05 20:48:41</time>
      </trkpt>
      <trkpt lat="37.05347" lon="-3.34987">
        <ele>3078.6</ele>
        <time>2021-08-05 20:48:42</time>
      </trkpt>
      <trkpt lat="37.05347" lon="-3.34986">
        <ele>3078.6</ele>
        <time>2021-08-05 20:48:43</time>
      </trkpt>
      <trkpt lat="37.05346" lon="-3.34986">
        <ele>3078.4</ele>
        <time>2021-08-05 20:48:44</time>
      </trkpt>
      <trkpt lat="37.05346" lon="-3.34985">
        <ele>3078.4</ele>
        <time>2021-08-05 20:48:45</time>
      </trkpt>
      <trkpt lat="37.05345" lon="-3.34985">
        <ele>3078.6</ele>
        <time>2021-08-05 20:48:46</time>
      </trkpt>
      <trkpt lat="37.05345" lon="-3.34985">
        <ele>3078.6</ele>
        <time>2021-08-05 20:48:47</time>
      </trkpt>
      <trkpt lat="37.05344" lon="-3.34984">
        <ele>3078.4</ele>
        <time>2021-08-05 20:48:48</time>
      </trkpt>
      <trkpt lat="37.05344" lon="-3.34984">
        <ele>3078.4</ele>
        <time>2021-08-05 20:48:49</time>
      </trkpt>
      <trkpt lat="37.05343" lon="-3.34983">
        <ele>3078.6</ele>
        <time>2021-08-05 20:48:50</time>
      </trkpt>
      <trkpt lat="37.05343" lon="-3.34982">
        <ele>3078.6</ele>
        <time>2021-08-05 20:48:51</time>
      </trkpt>
      <trkpt lat="37.05342" lon="-3.34981">
        <ele>3078.4</ele>
        <time>2021-08-05 20:48:52</time>
      </trkpt>
      <trkpt lat="37.05341" lon="-3.3498">
        <ele>3078.2</ele>
        <time>2021-08-05 20:48:53</time>
      </trkpt>
      <trkpt lat="37.05341" lon="-3.3498">
        <ele>3078.2</ele>
        <time>2021-08-05 20:48:54</time>
      </trkpt>
      <trkpt lat="37.0534" lon="-3.34979">
        <ele>3078</ele>
        <time>2021-08-05 20:48:55</time>
      </trkpt>
      <trkpt lat="37.05339" lon="-3.34977">
        <ele>3078</ele>
        <time>2021-08-05 20:48:56</time>
      </trkpt>
      <trkpt lat="37.05339" lon="-3.34976">
        <ele>3077.8</ele>
        <time>2021-08-05 20:48:57</time>
      </trkpt>
      <trkpt lat="37.05337" lon="-3.34975">
        <ele>3077.8</ele>
        <time>2021-08-05 20:48:58</time>
      </trkpt>
      <trkpt lat="37.05336" lon="-3.34976">
        <ele>3077.8</ele>
        <time>2021-08-05 20:48:59</time>
      </trkpt>
      <trkpt lat="37.05336" lon="-3.34975">
        <ele>3077.8</ele>
        <time>2021-08-05 20:49:00</time>
      </trkpt>
      <trkpt lat="37.05336" lon="-3.34974">
        <ele>3077.8</ele>
        <time>2021-08-05 20:49:01</time>
      </trkpt>
      <trkpt lat="37.05335" lon="-3.34972">
        <ele>3077.8</ele>
        <time>2021-08-05 20:49:02</time>
      </trkpt>
      <trkpt lat="37.05334" lon="-3.3497">
        <ele>3078</ele>
        <time>2021-08-05 20:49:03</time>
      </trkpt>
      <trkpt lat="37.05333" lon="-3.3497">
        <ele>3078</ele>
        <time>2021-08-05 20:49:04</time>
      </trkpt>
      <trkpt lat="37.05333" lon="-3.34969">
        <ele>3078</ele>
        <time>2021-08-05 20:49:05</time>
      </trkpt>
      <trkpt lat="37.05332" lon="-3.34968">
        <ele>3078</ele>
        <time>2021-08-05 20:49:06</time>
      </trkpt>
      <trkpt lat="37.05331" lon="-3.34967">
        <ele>3078</ele>
        <time>2021-08-05 20:49:07</time>
      </trkpt>
      <trkpt lat="37.05331" lon="-3.34965">
        <ele>3078</ele>
        <time>2021-08-05 20:49:08</time>
      </trkpt>
      <trkpt lat="37.0533" lon="-3.34965">
        <ele>3078</ele>
        <time>2021-08-05 20:49:09</time>
      </trkpt>
      <trkpt lat="37.0533" lon="-3.34964">
        <ele>3078</ele>
        <time>2021-08-05 20:49:10</time>
      </trkpt>
      <trkpt lat="37.05329" lon="-3.34964">
        <ele>3078</ele>
        <time>2021-08-05 20:49:11</time>
      </trkpt>
      <trkpt lat="37.05328" lon="-3.34963">
        <ele>3078</ele>
        <time>2021-08-05 20:49:12</time>
      </trkpt>
      <trkpt lat="37.05328" lon="-3.34962">
        <ele>3078</ele>
        <time>2021-08-05 20:49:13</time>
      </trkpt>
      <trkpt lat="37.05326" lon="-3.34962">
        <ele>3078.2</ele>
        <time>2021-08-05 20:49:14</time>
      </trkpt>
      <trkpt lat="37.05325" lon="-3.34962">
        <ele>3078.4</ele>
        <time>2021-08-05 20:49:15</time>
      </trkpt>
      <trkpt lat="37.05324" lon="-3.34962">
        <ele>3078.4</ele>
        <time>2021-08-05 20:49:16</time>
      </trkpt>
      <trkpt lat="37.05324" lon="-3.34961">
        <ele>3078.4</ele>
        <time>2021-08-05 20:49:17</time>
      </trkpt>
      <trkpt lat="37.05322" lon="-3.34959">
        <ele>3078.6</ele>
        <time>2021-08-05 20:49:18</time>
      </trkpt>
      <trkpt lat="37.05322" lon="-3.34959">
        <ele>3078.6</ele>
        <time>2021-08-05 20:49:19</time>
      </trkpt>
      <trkpt lat="37.05321" lon="-3.34958">
        <ele>3078.6</ele>
        <time>2021-08-05 20:49:20</time>
      </trkpt>
      <trkpt lat="37.0532" lon="-3.34958">
        <ele>3078.6</ele>
        <time>2021-08-05 20:49:21</time>
      </trkpt>
      <trkpt lat="37.0532" lon="-3.34958">
        <ele>3078.8</ele>
        <time>2021-08-05 20:49:22</time>
      </trkpt>
      <trkpt lat="37.05319" lon="-3.34957">
        <ele>3079</ele>
        <time>2021-08-05 20:49:23</time>
      </trkpt>
      <trkpt lat="37.05318" lon="-3.34957">
        <ele>3078.8</ele>
        <time>2021-08-05 20:49:24</time>
      </trkpt>
      <trkpt lat="37.05318" lon="-3.34956">
        <ele>3078.6</ele>
        <time>2021-08-05 20:49:25</time>
      </trkpt>
      <trkpt lat="37.05317" lon="-3.34955">
        <ele>3078.6</ele>
        <time>2021-08-05 20:49:26</time>
      </trkpt>
      <trkpt lat="37.05316" lon="-3.34955">
        <ele>3078.8</ele>
        <time>2021-08-05 20:49:27</time>
      </trkpt>
      <trkpt lat="37.05316" lon="-3.34954">
        <ele>3079</ele>
        <time>2021-08-05 20:49:28</time>
      </trkpt>
      <trkpt lat="37.05315" lon="-3.34954">
        <ele>3079.2</ele>
        <time>2021-08-05 20:49:29</time>
      </trkpt>
      <trkpt lat="37.05315" lon="-3.34954">
        <ele>3079.2</ele>
        <time>2021-08-05 20:49:30</time>
      </trkpt>
      <trkpt lat="37.05314" lon="-3.34953">
        <ele>3079.2</ele>
        <time>2021-08-05 20:49:31</time>
      </trkpt>
      <trkpt lat="37.05316" lon="-3.34952">
        <ele>3079</ele>
        <time>2021-08-05 20:49:32</time>
      </trkpt>
      <trkpt lat="37.05315" lon="-3.34952">
        <ele>3079</ele>
        <time>2021-08-05 20:49:33</time>
      </trkpt>
      <trkpt lat="37.05314" lon="-3.34951">
        <ele>3079</ele>
        <time>2021-08-05 20:49:34</time>
      </trkpt>
      <trkpt lat="37.05313" lon="-3.34951">
        <ele>3079</ele>
        <time>2021-08-05 20:49:35</time>
      </trkpt>
      <trkpt lat="37.05312" lon="-3.3495">
        <ele>3079</ele>
        <time>2021-08-05 20:49:36</time>
      </trkpt>
      <trkpt lat="37.05311" lon="-3.3495">
        <ele>3079</ele>
        <time>2021-08-05 20:49:37</time>
      </trkpt>
      <trkpt lat="37.0531" lon="-3.34949">
        <ele>3079</ele>
        <time>2021-08-05 20:49:38</time>
      </trkpt>
      <trkpt lat="37.0531" lon="-3.34949">
        <ele>3079</ele>
        <time>2021-08-05 20:49:39</time>
      </trkpt>
      <trkpt lat="37.05309" lon="-3.34949">
        <ele>3079</ele>
        <time>2021-08-05 20:49:40</time>
      </trkpt>
      <trkpt lat="37.05308" lon="-3.34949">
        <ele>3079.2</ele>
        <time>2021-08-05 20:49:41</time>
      </trkpt>
      <trkpt lat="37.05308" lon="-3.34949">
        <ele>3079.4</ele>
        <time>2021-08-05 20:49:42</time>
      </trkpt>
      <trkpt lat="37.05307" lon="-3.34949">
        <ele>3079.8</ele>
        <time>2021-08-05 20:49:43</time>
      </trkpt>
      <trkpt lat="37.05307" lon="-3.3495">
        <ele>3080</ele>
        <time>2021-08-05 20:49:44</time>
      </trkpt>
      <trkpt lat="37.05306" lon="-3.3495">
        <ele>3080</ele>
        <time>2021-08-05 20:49:45</time>
      </trkpt>
      <trkpt lat="37.05304" lon="-3.34951">
        <ele>3080</ele>
        <time>2021-08-05 20:49:46</time>
      </trkpt>
      <trkpt lat="37.05303" lon="-3.34951">
        <ele>3080.2</ele>
        <time>2021-08-05 20:49:47</time>
      </trkpt>
      <trkpt lat="37.05303" lon="-3.3495">
        <ele>3080.2</ele>
        <time>2021-08-05 20:49:48</time>
      </trkpt>
      <trkpt lat="37.05302" lon="-3.34949">
        <ele>3080.2</ele>
        <time>2021-08-05 20:49:49</time>
      </trkpt>
      <trkpt lat="37.05301" lon="-3.34949">
        <ele>3080.4</ele>
        <time>2021-08-05 20:49:50</time>
      </trkpt>
      <trkpt lat="37.053" lon="-3.34949">
        <ele>3080.4</ele>
        <time>2021-08-05 20:49:51</time>
      </trkpt>
      <trkpt lat="37.05299" lon="-3.34949">
        <ele>3080.4</ele>
        <time>2021-08-05 20:49:52</time>
      </trkpt>
      <trkpt lat="37.05298" lon="-3.3495">
        <ele>3080.4</ele>
        <time>2021-08-05 20:49:53</time>
      </trkpt>
      <trkpt lat="37.05297" lon="-3.3495">
        <ele>3080.4</ele>
        <time>2021-08-05 20:49:54</time>
      </trkpt>
      <trkpt lat="37.05297" lon="-3.3495">
        <ele>3080.4</ele>
        <time>2021-08-05 20:49:55</time>
      </trkpt>
      <trkpt lat="37.05296" lon="-3.3495">
        <ele>3080.6</ele>
        <time>2021-08-05 20:49:56</time>
      </trkpt>
      <trkpt lat="37.05295" lon="-3.34949">
        <ele>3080.6</ele>
        <time>2021-08-05 20:49:57</time>
      </trkpt>
      <trkpt lat="37.05294" lon="-3.34948">
        <ele>3080.8</ele>
        <time>2021-08-05 20:49:58</time>
      </trkpt>
      <trkpt lat="37.05293" lon="-3.34947">
        <ele>3080.8</ele>
        <time>2021-08-05 20:49:59</time>
      </trkpt>
      <trkpt lat="37.05292" lon="-3.34946">
        <ele>3080.8</ele>
        <time>2021-08-05 20:50:00</time>
      </trkpt>
      <trkpt lat="37.05292" lon="-3.34945">
        <ele>3080.6</ele>
        <time>2021-08-05 20:50:01</time>
      </trkpt>
      <trkpt lat="37.05291" lon="-3.34944">
        <ele>3080.6</ele>
        <time>2021-08-05 20:50:02</time>
      </trkpt>
      <trkpt lat="37.0529" lon="-3.34943">
        <ele>3080.6</ele>
        <time>2021-08-05 20:50:03</time>
      </trkpt>
      <trkpt lat="37.05288" lon="-3.34943">
        <ele>3080.4</ele>
        <time>2021-08-05 20:50:04</time>
      </trkpt>
      <trkpt lat="37.05288" lon="-3.34942">
        <ele>3080.4</ele>
        <time>2021-08-05 20:50:05</time>
      </trkpt>
      <trkpt lat="37.05287" lon="-3.34941">
        <ele>3080.2</ele>
        <time>2021-08-05 20:50:06</time>
      </trkpt>
      <trkpt lat="37.05286" lon="-3.3494">
        <ele>3080.2</ele>
        <time>2021-08-05 20:50:07</time>
      </trkpt>
      <trkpt lat="37.05286" lon="-3.34939">
        <ele>3080.2</ele>
        <time>2021-08-05 20:50:08</time>
      </trkpt>
      <trkpt lat="37.05286" lon="-3.34938">
        <ele>3080.2</ele>
        <time>2021-08-05 20:50:09</time>
      </trkpt>
      <trkpt lat="37.05285" lon="-3.34937">
        <ele>3080.2</ele>
        <time>2021-08-05 20:50:10</time>
      </trkpt>
      <trkpt lat="37.05285" lon="-3.34936">
        <ele>3080.2</ele>
        <time>2021-08-05 20:50:11</time>
      </trkpt>
      <trkpt lat="37.05285" lon="-3.34935">
        <ele>3080</ele>
        <time>2021-08-05 20:50:12</time>
      </trkpt>
      <trkpt lat="37.05287" lon="-3.34934">
        <ele>3080</ele>
        <time>2021-08-05 20:50:13</time>
      </trkpt>
      <trkpt lat="37.05287" lon="-3.34935">
        <ele>3079.8</ele>
        <time>2021-08-05 20:50:14</time>
      </trkpt>
      <trkpt lat="37.05287" lon="-3.34935">
        <ele>3079.8</ele>
        <time>2021-08-05 20:50:15</time>
      </trkpt>
      <trkpt lat="37.05287" lon="-3.34935">
        <ele>3079.8</ele>
        <time>2021-08-05 20:50:16</time>
      </trkpt>
      <trkpt lat="37.05287" lon="-3.34936">
        <ele>3079.8</ele>
        <time>2021-08-05 20:50:17</time>
      </trkpt>
      <trkpt lat="37.05286" lon="-3.34936">
        <ele>3080</ele>
        <time>2021-08-05 20:50:18</time>
      </trkpt>
      <trkpt lat="37.05286" lon="-3.34937">
        <ele>3079.8</ele>
        <time>2021-08-05 20:50:19</time>
      </trkpt>
      <trkpt lat="37.05286" lon="-3.34937">
        <ele>3080.4</ele>
        <time>2021-08-05 20:50:20</time>
      </trkpt>
      <trkpt lat="37.05286" lon="-3.34938">
        <ele>3080.4</ele>
        <time>2021-08-05 20:50:21</time>
      </trkpt>
      <trkpt lat="37.05286" lon="-3.34938">
        <ele>3080.4</ele>
        <time>2021-08-05 20:50:22</time>
      </trkpt>
      <trkpt lat="37.05286" lon="-3.34938">
        <ele>3080.4</ele>
        <time>2021-08-05 20:50:23</time>
      </trkpt>
      <trkpt lat="37.05286" lon="-3.34938">
        <ele>3080.4</ele>
        <time>2021-08-05 20:50:24</time>
      </trkpt>
      <trkpt lat="37.05286" lon="-3.34939">
        <ele>3080.4</ele>
        <time>2021-08-05 20:50:25</time>
      </trkpt>
      <trkpt lat="37.05286" lon="-3.34939">
        <ele>3080.4</ele>
        <time>2021-08-05 20:50:26</time>
      </trkpt>
      <trkpt lat="37.05287" lon="-3.3494">
        <ele>3080.4</ele>
        <time>2021-08-05 20:50:27</time>
      </trkpt>
      <trkpt lat="37.05287" lon="-3.3494">
        <ele>3080.4</ele>
        <time>2021-08-05 20:50:28</time>
      </trkpt>
      <trkpt lat="37.05287" lon="-3.34941">
        <ele>3080.4</ele>
        <time>2021-08-05 20:50:29</time>
      </trkpt>
      <trkpt lat="37.05288" lon="-3.34941">
        <ele>3080.4</ele>
        <time>2021-08-05 20:50:30</time>
      </trkpt>
      <trkpt lat="37.05288" lon="-3.34941">
        <ele>3080.4</ele>
        <time>2021-08-05 20:50:31</time>
      </trkpt>
      <trkpt lat="37.05288" lon="-3.34941">
        <ele>3080.4</ele>
        <time>2021-08-05 20:50:32</time>
      </trkpt>
      <trkpt lat="37.05288" lon="-3.34941">
        <ele>3080.4</ele>
        <time>2021-08-05 20:50:33</time>
      </trkpt>
      <trkpt lat="37.05288" lon="-3.34941">
        <ele>3080.4</ele>
        <time>2021-08-05 20:50:34</time>
      </trkpt>
      <trkpt lat="37.05289" lon="-3.34941">
        <ele>3080.4</ele>
        <time>2021-08-05 20:50:35</time>
      </trkpt>
      <trkpt lat="37.05289" lon="-3.34941">
        <ele>3080.4</ele>
        <time>2021-08-05 20:50:36</time>
      </trkpt>
      <trkpt lat="37.05289" lon="-3.34941">
        <ele>3080.4</ele>
        <time>2021-08-05 20:50:37</time>
      </trkpt>
      <trkpt lat="37.05287" lon="-3.34939">
        <ele>3080.4</ele>
        <time>2021-08-05 20:50:38</time>
      </trkpt>
      <trkpt lat="37.05284" lon="-3.34939">
        <ele>3080.4</ele>
        <time>2021-08-05 20:50:39</time>
      </trkpt>
      <trkpt lat="37.05284" lon="-3.34939">
        <ele>3080.4</ele>
        <time>2021-08-05 20:50:40</time>
      </trkpt>
      <trkpt lat="37.05283" lon="-3.34939">
        <ele>3080.4</ele>
        <time>2021-08-05 20:50:41</time>
      </trkpt>
      <trkpt lat="37.05283" lon="-3.34939">
        <ele>3080.4</ele>
        <time>2021-08-05 20:50:42</time>
      </trkpt>
      <trkpt lat="37.05283" lon="-3.34939">
        <ele>3080.4</ele>
        <time>2021-08-05 20:50:43</time>
      </trkpt>
      <trkpt lat="37.05283" lon="-3.34939">
        <ele>3080.4</ele>
        <time>2021-08-05 20:50:44</time>
      </trkpt>
      <trkpt lat="37.05283" lon="-3.34939">
        <ele>3080.4</ele>
        <time>2021-08-05 20:50:45</time>
      </trkpt>
      <trkpt lat="37.05283" lon="-3.34939">
        <ele>3080.4</ele>
        <time>2021-08-05 20:50:46</time>
      </trkpt>
      <trkpt lat="37.05283" lon="-3.34939">
        <ele>3080.4</ele>
        <time>2021-08-05 20:50:47</time>
      </trkpt>
      <trkpt lat="37.05284" lon="-3.34938">
        <ele>3080.4</ele>
        <time>2021-08-05 20:50:48</time>
      </trkpt>
      <trkpt lat="37.05284" lon="-3.34939">
        <ele>3080.4</ele>
        <time>2021-08-05 20:50:49</time>
      </trkpt>
      <trkpt lat="37.05284" lon="-3.34938">
        <ele>3080.4</ele>
        <time>2021-08-05 20:50:50</time>
      </trkpt>
      <trkpt lat="37.05284" lon="-3.34938">
        <ele>3080.4</ele>
        <time>2021-08-05 20:50:51</time>
      </trkpt>
      <trkpt lat="37.05284" lon="-3.34938">
        <ele>3080.4</ele>
        <time>2021-08-05 20:50:52</time>
      </trkpt>
      <trkpt lat="37.05284" lon="-3.34938">
        <ele>3080.4</ele>
        <time>2021-08-05 20:50:53</time>
      </trkpt>
      <trkpt lat="37.05283" lon="-3.34938">
        <ele>3080.4</ele>
        <time>2021-08-05 20:50:54</time>
      </trkpt>
      <trkpt lat="37.05283" lon="-3.34938">
        <ele>3080.4</ele>
        <time>2021-08-05 20:50:55</time>
      </trkpt>
      <trkpt lat="37.05283" lon="-3.34937">
        <ele>3080.4</ele>
        <time>2021-08-05 20:50:56</time>
      </trkpt>
      <trkpt lat="37.05282" lon="-3.34937">
        <ele>3080.4</ele>
        <time>2021-08-05 20:50:57</time>
      </trkpt>
      <trkpt lat="37.05282" lon="-3.34937">
        <ele>3080.4</ele>
        <time>2021-08-05 20:50:58</time>
      </trkpt>
      <trkpt lat="37.05281" lon="-3.34937">
        <ele>3080.4</ele>
        <time>2021-08-05 20:50:59</time>
      </trkpt>
      <trkpt lat="37.05281" lon="-3.34936">
        <ele>3080.4</ele>
        <time>2021-08-05 20:51:00</time>
      </trkpt>
      <trkpt lat="37.05281" lon="-3.34936">
        <ele>3080.4</ele>
        <time>2021-08-05 20:51:01</time>
      </trkpt>
      <trkpt lat="37.05282" lon="-3.34934">
        <ele>3080.4</ele>
        <time>2021-08-05 20:51:02</time>
      </trkpt>
      <trkpt lat="37.05283" lon="-3.34933">
        <ele>3080.4</ele>
        <time>2021-08-05 20:51:03</time>
      </trkpt>
      <trkpt lat="37.05283" lon="-3.34934">
        <ele>3080.4</ele>
        <time>2021-08-05 20:51:04</time>
      </trkpt>
      <trkpt lat="37.05284" lon="-3.34933">
        <ele>3080.4</ele>
        <time>2021-08-05 20:51:05</time>
      </trkpt>
      <trkpt lat="37.05284" lon="-3.34932">
        <ele>3080.4</ele>
        <time>2021-08-05 20:51:06</time>
      </trkpt>
      <trkpt lat="37.05285" lon="-3.34931">
        <ele>3080.4</ele>
        <time>2021-08-05 20:51:07</time>
      </trkpt>
      <trkpt lat="37.05285" lon="-3.3493">
        <ele>3080.4</ele>
        <time>2021-08-05 20:51:08</time>
      </trkpt>
      <trkpt lat="37.05285" lon="-3.34929">
        <ele>3080.4</ele>
        <time>2021-08-05 20:51:09</time>
      </trkpt>
      <trkpt lat="37.05285" lon="-3.34927">
        <ele>3080.4</ele>
        <time>2021-08-05 20:51:10</time>
      </trkpt>
      <trkpt lat="37.05286" lon="-3.34926">
        <ele>3080.4</ele>
        <time>2021-08-05 20:51:11</time>
      </trkpt>
      <trkpt lat="37.05286" lon="-3.34926">
        <ele>3080.4</ele>
        <time>2021-08-05 20:51:12</time>
      </trkpt>
      <trkpt lat="37.05286" lon="-3.34924">
        <ele>3079.4</ele>
        <time>2021-08-05 20:51:13</time>
      </trkpt>
      <trkpt lat="37.05287" lon="-3.34923">
        <ele>3078.8</ele>
        <time>2021-08-05 20:51:14</time>
      </trkpt>
      <trkpt lat="37.05287" lon="-3.34922">
        <ele>3078.4</ele>
        <time>2021-08-05 20:51:15</time>
      </trkpt>
      <trkpt lat="37.05288" lon="-3.34921">
        <ele>3078.2</ele>
        <time>2021-08-05 20:51:16</time>
      </trkpt>
      <trkpt lat="37.0529" lon="-3.34921">
        <ele>3078.2</ele>
        <time>2021-08-05 20:51:17</time>
      </trkpt>
      <trkpt lat="37.0529" lon="-3.34921">
        <ele>3078.2</ele>
        <time>2021-08-05 20:51:18</time>
      </trkpt>
      <trkpt lat="37.0529" lon="-3.34921">
        <ele>3078</ele>
        <time>2021-08-05 20:51:19</time>
      </trkpt>
      <trkpt lat="37.0529" lon="-3.34921">
        <ele>3078</ele>
        <time>2021-08-05 20:51:20</time>
      </trkpt>
      <trkpt lat="37.0529" lon="-3.3492">
        <ele>3078</ele>
        <time>2021-08-05 20:51:21</time>
      </trkpt>
      <trkpt lat="37.0529" lon="-3.3492">
        <ele>3078</ele>
        <time>2021-08-05 20:51:22</time>
      </trkpt>
      <trkpt lat="37.0529" lon="-3.34921">
        <ele>3078</ele>
        <time>2021-08-05 20:51:23</time>
      </trkpt>
      <trkpt lat="37.05291" lon="-3.3492">
        <ele>3078</ele>
        <time>2021-08-05 20:51:24</time>
      </trkpt>
      <trkpt lat="37.05291" lon="-3.34921">
        <ele>3077.8</ele>
        <time>2021-08-05 20:51:25</time>
      </trkpt>
      <trkpt lat="37.05291" lon="-3.34921">
        <ele>3077.8</ele>
        <time>2021-08-05 20:51:26</time>
      </trkpt>
      <trkpt lat="37.05292" lon="-3.34921">
        <ele>3077.4</ele>
        <time>2021-08-05 20:51:27</time>
      </trkpt>
      <trkpt lat="37.05292" lon="-3.34921">
        <ele>3077.6</ele>
        <time>2021-08-05 20:51:28</time>
      </trkpt>
      <trkpt lat="37.05292" lon="-3.34922">
        <ele>3077.6</ele>
        <time>2021-08-05 20:51:29</time>
      </trkpt>
      <trkpt lat="37.05293" lon="-3.34922">
        <ele>3077.6</ele>
        <time>2021-08-05 20:51:30</time>
      </trkpt>
      <trkpt lat="37.05293" lon="-3.34922">
        <ele>3077.6</ele>
        <time>2021-08-05 20:51:31</time>
      </trkpt>
      <trkpt lat="37.05293" lon="-3.34921">
        <ele>3077.6</ele>
        <time>2021-08-05 20:51:32</time>
      </trkpt>
      <trkpt lat="37.05294" lon="-3.3492">
        <ele>3077.4</ele>
        <time>2021-08-05 20:51:33</time>
      </trkpt>
      <trkpt lat="37.05294" lon="-3.34919">
        <ele>3077.6</ele>
        <time>2021-08-05 20:51:34</time>
      </trkpt>
      <trkpt lat="37.05295" lon="-3.34918">
        <ele>3077.4</ele>
        <time>2021-08-05 20:51:35</time>
      </trkpt>
      <trkpt lat="37.05296" lon="-3.34917">
        <ele>3077.6</ele>
        <time>2021-08-05 20:51:36</time>
      </trkpt>
      <trkpt lat="37.05296" lon="-3.34916">
        <ele>3077.4</ele>
        <time>2021-08-05 20:51:37</time>
      </trkpt>
      <trkpt lat="37.05296" lon="-3.34915">
        <ele>3077.4</ele>
        <time>2021-08-05 20:51:38</time>
      </trkpt>
      <trkpt lat="37.05296" lon="-3.34914">
        <ele>3077.4</ele>
        <time>2021-08-05 20:51:39</time>
      </trkpt>
      <trkpt lat="37.05296" lon="-3.34913">
        <ele>3077.4</ele>
        <time>2021-08-05 20:51:40</time>
      </trkpt>
      <trkpt lat="37.05296" lon="-3.34912">
        <ele>3077.2</ele>
        <time>2021-08-05 20:51:41</time>
      </trkpt>
      <trkpt lat="37.05296" lon="-3.34911">
        <ele>3077.2</ele>
        <time>2021-08-05 20:51:42</time>
      </trkpt>
      <trkpt lat="37.05296" lon="-3.34909">
        <ele>3076.8</ele>
        <time>2021-08-05 20:51:43</time>
      </trkpt>
      <trkpt lat="37.05297" lon="-3.34908">
        <ele>3076.6</ele>
        <time>2021-08-05 20:51:44</time>
      </trkpt>
      <trkpt lat="37.05297" lon="-3.34907">
        <ele>3076.6</ele>
        <time>2021-08-05 20:51:45</time>
      </trkpt>
      <trkpt lat="37.05297" lon="-3.34906">
        <ele>3076.4</ele>
        <time>2021-08-05 20:51:46</time>
      </trkpt>
      <trkpt lat="37.05297" lon="-3.34905">
        <ele>3076.4</ele>
        <time>2021-08-05 20:51:47</time>
      </trkpt>
      <trkpt lat="37.05297" lon="-3.34904">
        <ele>3076</ele>
        <time>2021-08-05 20:51:48</time>
      </trkpt>
      <trkpt lat="37.05298" lon="-3.34903">
        <ele>3075.8</ele>
        <time>2021-08-05 20:51:49</time>
      </trkpt>
      <trkpt lat="37.05298" lon="-3.34902">
        <ele>3075.6</ele>
        <time>2021-08-05 20:51:50</time>
      </trkpt>
      <trkpt lat="37.05299" lon="-3.34901">
        <ele>3075.4</ele>
        <time>2021-08-05 20:51:51</time>
      </trkpt>
      <trkpt lat="37.05299" lon="-3.349">
        <ele>3075.4</ele>
        <time>2021-08-05 20:51:52</time>
      </trkpt>
      <trkpt lat="37.053" lon="-3.34899">
        <ele>3075.2</ele>
        <time>2021-08-05 20:51:53</time>
      </trkpt>
      <trkpt lat="37.053" lon="-3.34898">
        <ele>3075</ele>
        <time>2021-08-05 20:51:54</time>
      </trkpt>
      <trkpt lat="37.053" lon="-3.34897">
        <ele>3075</ele>
        <time>2021-08-05 20:51:55</time>
      </trkpt>
      <trkpt lat="37.053" lon="-3.34896">
        <ele>3075</ele>
        <time>2021-08-05 20:51:56</time>
      </trkpt>
      <trkpt lat="37.053" lon="-3.34895">
        <ele>3074.6</ele>
        <time>2021-08-05 20:51:57</time>
      </trkpt>
      <trkpt lat="37.053" lon="-3.34894">
        <ele>3074.4</ele>
        <time>2021-08-05 20:51:58</time>
      </trkpt>
      <trkpt lat="37.053" lon="-3.34893">
        <ele>3074.4</ele>
        <time>2021-08-05 20:51:59</time>
      </trkpt>
      <trkpt lat="37.05301" lon="-3.34892">
        <ele>3074.2</ele>
        <time>2021-08-05 20:52:00</time>
      </trkpt>
      <trkpt lat="37.05302" lon="-3.34891">
        <ele>3074</ele>
        <time>2021-08-05 20:52:01</time>
      </trkpt>
      <trkpt lat="37.05302" lon="-3.3489">
        <ele>3074</ele>
        <time>2021-08-05 20:52:02</time>
      </trkpt>
      <trkpt lat="37.05303" lon="-3.34889">
        <ele>3074</ele>
        <time>2021-08-05 20:52:03</time>
      </trkpt>
      <trkpt lat="37.05303" lon="-3.34887">
        <ele>3073.6</ele>
        <time>2021-08-05 20:52:04</time>
      </trkpt>
      <trkpt lat="37.05304" lon="-3.34886">
        <ele>3073.4</ele>
        <time>2021-08-05 20:52:05</time>
      </trkpt>
      <trkpt lat="37.05304" lon="-3.34885">
        <ele>3073.2</ele>
        <time>2021-08-05 20:52:06</time>
      </trkpt>
      <trkpt lat="37.05304" lon="-3.34885">
        <ele>3073.2</ele>
        <time>2021-08-05 20:52:07</time>
      </trkpt>
      <trkpt lat="37.05303" lon="-3.34885">
        <ele>3073.2</ele>
        <time>2021-08-05 20:52:08</time>
      </trkpt>
      <trkpt lat="37.05304" lon="-3.34884">
        <ele>3073.2</ele>
        <time>2021-08-05 20:52:09</time>
      </trkpt>
      <trkpt lat="37.05303" lon="-3.34884">
        <ele>3073</ele>
        <time>2021-08-05 20:52:10</time>
      </trkpt>
      <trkpt lat="37.05303" lon="-3.34883">
        <ele>3073.2</ele>
        <time>2021-08-05 20:52:11</time>
      </trkpt>
      <trkpt lat="37.05304" lon="-3.34882">
        <ele>3073.2</ele>
        <time>2021-08-05 20:52:12</time>
      </trkpt>
      <trkpt lat="37.05304" lon="-3.34881">
        <ele>3073</ele>
        <time>2021-08-05 20:52:13</time>
      </trkpt>
      <trkpt lat="37.05304" lon="-3.3488">
        <ele>3073</ele>
        <time>2021-08-05 20:52:14</time>
      </trkpt>
      <trkpt lat="37.05304" lon="-3.34878">
        <ele>3072.8</ele>
        <time>2021-08-05 20:52:15</time>
      </trkpt>
      <trkpt lat="37.05305" lon="-3.34877">
        <ele>3072.8</ele>
        <time>2021-08-05 20:52:16</time>
      </trkpt>
      <trkpt lat="37.05305" lon="-3.34876">
        <ele>3072.6</ele>
        <time>2021-08-05 20:52:17</time>
      </trkpt>
      <trkpt lat="37.05306" lon="-3.34875">
        <ele>3072.4</ele>
        <time>2021-08-05 20:52:18</time>
      </trkpt>
      <trkpt lat="37.05306" lon="-3.34874">
        <ele>3072.6</ele>
        <time>2021-08-05 20:52:19</time>
      </trkpt>
      <trkpt lat="37.05306" lon="-3.34873">
        <ele>3072.4</ele>
        <time>2021-08-05 20:52:20</time>
      </trkpt>
      <trkpt lat="37.05307" lon="-3.34872">
        <ele>3072.4</ele>
        <time>2021-08-05 20:52:21</time>
      </trkpt>
      <trkpt lat="37.05308" lon="-3.34871">
        <ele>3072.4</ele>
        <time>2021-08-05 20:52:22</time>
      </trkpt>
      <trkpt lat="37.05309" lon="-3.34869">
        <ele>3072.4</ele>
        <time>2021-08-05 20:52:23</time>
      </trkpt>
      <trkpt lat="37.0531" lon="-3.34868">
        <ele>3072.2</ele>
        <time>2021-08-05 20:52:24</time>
      </trkpt>
      <trkpt lat="37.05311" lon="-3.34867">
        <ele>3072.2</ele>
        <time>2021-08-05 20:52:25</time>
      </trkpt>
      <trkpt lat="37.05312" lon="-3.34866">
        <ele>3072</ele>
        <time>2021-08-05 20:52:26</time>
      </trkpt>
      <trkpt lat="37.05312" lon="-3.34865">
        <ele>3071.8</ele>
        <time>2021-08-05 20:52:27</time>
      </trkpt>
      <trkpt lat="37.05313" lon="-3.34864">
        <ele>3071.6</ele>
        <time>2021-08-05 20:52:28</time>
      </trkpt>
      <trkpt lat="37.05314" lon="-3.34863">
        <ele>3071.4</ele>
        <time>2021-08-05 20:52:29</time>
      </trkpt>
      <trkpt lat="37.05314" lon="-3.34862">
        <ele>3071.4</ele>
        <time>2021-08-05 20:52:30</time>
      </trkpt>
      <trkpt lat="37.05315" lon="-3.34862">
        <ele>3071.2</ele>
        <time>2021-08-05 20:52:31</time>
      </trkpt>
      <trkpt lat="37.05316" lon="-3.34861">
        <ele>3071</ele>
        <time>2021-08-05 20:52:32</time>
      </trkpt>
      <trkpt lat="37.05316" lon="-3.34861">
        <ele>3071</ele>
        <time>2021-08-05 20:52:33</time>
      </trkpt>
      <trkpt lat="37.05316" lon="-3.34861">
        <ele>3071</ele>
        <time>2021-08-05 20:52:34</time>
      </trkpt>
      <trkpt lat="37.05317" lon="-3.34861">
        <ele>3071</ele>
        <time>2021-08-05 20:52:35</time>
      </trkpt>
      <trkpt lat="37.05317" lon="-3.3486">
        <ele>3070.8</ele>
        <time>2021-08-05 20:52:36</time>
      </trkpt>
      <trkpt lat="37.05317" lon="-3.3486">
        <ele>3070.8</ele>
        <time>2021-08-05 20:52:37</time>
      </trkpt>
      <trkpt lat="37.05317" lon="-3.3486">
        <ele>3070.8</ele>
        <time>2021-08-05 20:52:38</time>
      </trkpt>
      <trkpt lat="37.05317" lon="-3.3486">
        <ele>3070.6</ele>
        <time>2021-08-05 20:52:39</time>
      </trkpt>
      <trkpt lat="37.05317" lon="-3.3486">
        <ele>3070.6</ele>
        <time>2021-08-05 20:52:40</time>
      </trkpt>
      <trkpt lat="37.05317" lon="-3.3486">
        <ele>3070.6</ele>
        <time>2021-08-05 20:52:41</time>
      </trkpt>
      <trkpt lat="37.05317" lon="-3.3486">
        <ele>3070.6</ele>
        <time>2021-08-05 20:52:42</time>
      </trkpt>
      <trkpt lat="37.05317" lon="-3.3486">
        <ele>3070.6</ele>
        <time>2021-08-05 20:52:43</time>
      </trkpt>
      <trkpt lat="37.05317" lon="-3.3486">
        <ele>3070.6</ele>
        <time>2021-08-05 20:52:44</time>
      </trkpt>
      <trkpt lat="37.05317" lon="-3.3486">
        <ele>3070.6</ele>
        <time>2021-08-05 20:52:45</time>
      </trkpt>
      <trkpt lat="37.05317" lon="-3.3486">
        <ele>3070.6</ele>
        <time>2021-08-05 20:52:46</time>
      </trkpt>
      <trkpt lat="37.05317" lon="-3.3486">
        <ele>3070.6</ele>
        <time>2021-08-05 20:52:47</time>
      </trkpt>
      <trkpt lat="37.05318" lon="-3.3486">
        <ele>3070.6</ele>
        <time>2021-08-05 20:52:48</time>
      </trkpt>
      <trkpt lat="37.05318" lon="-3.3486">
        <ele>3070.6</ele>
        <time>2021-08-05 20:52:49</time>
      </trkpt>
      <trkpt lat="37.05318" lon="-3.34861">
        <ele>3070.6</ele>
        <time>2021-08-05 20:52:50</time>
      </trkpt>
      <trkpt lat="37.05318" lon="-3.34861">
        <ele>3070.6</ele>
        <time>2021-08-05 20:52:51</time>
      </trkpt>
      <trkpt lat="37.05318" lon="-3.34861">
        <ele>3070.6</ele>
        <time>2021-08-05 20:52:52</time>
      </trkpt>
      <trkpt lat="37.05318" lon="-3.34861">
        <ele>3070.6</ele>
        <time>2021-08-05 20:52:53</time>
      </trkpt>
      <trkpt lat="37.05317" lon="-3.34861">
        <ele>3070.4</ele>
        <time>2021-08-05 20:52:54</time>
      </trkpt>
      <trkpt lat="37.05316" lon="-3.3486">
        <ele>3070.4</ele>
        <time>2021-08-05 20:52:55</time>
      </trkpt>
      <trkpt lat="37.05316" lon="-3.3486">
        <ele>3070.6</ele>
        <time>2021-08-05 20:52:56</time>
      </trkpt>
      <trkpt lat="37.05316" lon="-3.3486">
        <ele>3070.4</ele>
        <time>2021-08-05 20:52:57</time>
      </trkpt>
      <trkpt lat="37.05317" lon="-3.3486">
        <ele>3070.2</ele>
        <time>2021-08-05 20:52:58</time>
      </trkpt>
      <trkpt lat="37.05318" lon="-3.34861">
        <ele>3070</ele>
        <time>2021-08-05 20:52:59</time>
      </trkpt>
      <trkpt lat="37.05318" lon="-3.34861">
        <ele>3070</ele>
        <time>2021-08-05 20:53:00</time>
      </trkpt>
      <trkpt lat="37.05318" lon="-3.34861">
        <ele>3070.2</ele>
        <time>2021-08-05 20:53:01</time>
      </trkpt>
      <trkpt lat="37.05318" lon="-3.34861">
        <ele>3070.4</ele>
        <time>2021-08-05 20:53:02</time>
      </trkpt>
      <trkpt lat="37.05318" lon="-3.34861">
        <ele>3070.4</ele>
        <time>2021-08-05 20:53:03</time>
      </trkpt>
      <trkpt lat="37.05318" lon="-3.3486">
        <ele>3070.4</ele>
        <time>2021-08-05 20:53:04</time>
      </trkpt>
      <trkpt lat="37.05319" lon="-3.3486">
        <ele>3070.6</ele>
        <time>2021-08-05 20:53:05</time>
      </trkpt>
      <trkpt lat="37.0532" lon="-3.34859">
        <ele>3070.6</ele>
        <time>2021-08-05 20:53:06</time>
      </trkpt>
      <trkpt lat="37.0532" lon="-3.34858">
        <ele>3070.6</ele>
        <time>2021-08-05 20:53:07</time>
      </trkpt>
      <trkpt lat="37.0532" lon="-3.34856">
        <ele>3070.6</ele>
        <time>2021-08-05 20:53:08</time>
      </trkpt>
      <trkpt lat="37.05321" lon="-3.34855">
        <ele>3070.6</ele>
        <time>2021-08-05 20:53:09</time>
      </trkpt>
      <trkpt lat="37.05321" lon="-3.34854">
        <ele>3070.6</ele>
        <time>2021-08-05 20:53:10</time>
      </trkpt>
      <trkpt lat="37.05323" lon="-3.34854">
        <ele>3070.6</ele>
        <time>2021-08-05 20:53:11</time>
      </trkpt>
      <trkpt lat="37.05323" lon="-3.34853">
        <ele>3070.4</ele>
        <time>2021-08-05 20:53:12</time>
      </trkpt>
      <trkpt lat="37.05324" lon="-3.34852">
        <ele>3070.4</ele>
        <time>2021-08-05 20:53:13</time>
      </trkpt>
      <trkpt lat="37.05325" lon="-3.34852">
        <ele>3070.2</ele>
        <time>2021-08-05 20:53:14</time>
      </trkpt>
      <trkpt lat="37.05325" lon="-3.34851">
        <ele>3070.2</ele>
        <time>2021-08-05 20:53:15</time>
      </trkpt>
      <trkpt lat="37.05326" lon="-3.3485">
        <ele>3070</ele>
        <time>2021-08-05 20:53:16</time>
      </trkpt>
      <trkpt lat="37.05326" lon="-3.34849">
        <ele>3070</ele>
        <time>2021-08-05 20:53:17</time>
      </trkpt>
      <trkpt lat="37.05327" lon="-3.34848">
        <ele>3069.8</ele>
        <time>2021-08-05 20:53:18</time>
      </trkpt>
      <trkpt lat="37.05327" lon="-3.34847">
        <ele>3069.8</ele>
        <time>2021-08-05 20:53:19</time>
      </trkpt>
      <trkpt lat="37.05327" lon="-3.34846">
        <ele>3069.6</ele>
        <time>2021-08-05 20:53:20</time>
      </trkpt>
      <trkpt lat="37.05327" lon="-3.34845">
        <ele>3069.6</ele>
        <time>2021-08-05 20:53:21</time>
      </trkpt>
      <trkpt lat="37.05327" lon="-3.34844">
        <ele>3069.8</ele>
        <time>2021-08-05 20:53:22</time>
      </trkpt>
      <trkpt lat="37.05327" lon="-3.34843">
        <ele>3069.8</ele>
        <time>2021-08-05 20:53:23</time>
      </trkpt>
      <trkpt lat="37.05327" lon="-3.34842">
        <ele>3069.8</ele>
        <time>2021-08-05 20:53:24</time>
      </trkpt>
      <trkpt lat="37.05328" lon="-3.34841">
        <ele>3069.6</ele>
        <time>2021-08-05 20:53:25</time>
      </trkpt>
      <trkpt lat="37.05328" lon="-3.3484">
        <ele>3069.4</ele>
        <time>2021-08-05 20:53:26</time>
      </trkpt>
      <trkpt lat="37.05328" lon="-3.34839">
        <ele>3069.2</ele>
        <time>2021-08-05 20:53:27</time>
      </trkpt>
      <trkpt lat="37.05329" lon="-3.34839">
        <ele>3069.2</ele>
        <time>2021-08-05 20:53:28</time>
      </trkpt>
      <trkpt lat="37.0533" lon="-3.34838">
        <ele>3069</ele>
        <time>2021-08-05 20:53:29</time>
      </trkpt>
      <trkpt lat="37.0533" lon="-3.34837">
        <ele>3068.8</ele>
        <time>2021-08-05 20:53:30</time>
      </trkpt>
      <trkpt lat="37.0533" lon="-3.34836">
        <ele>3068.6</ele>
        <time>2021-08-05 20:53:31</time>
      </trkpt>
      <trkpt lat="37.05331" lon="-3.34835">
        <ele>3068.6</ele>
        <time>2021-08-05 20:53:32</time>
      </trkpt>
      <trkpt lat="37.05331" lon="-3.34834">
        <ele>3068.6</ele>
        <time>2021-08-05 20:53:33</time>
      </trkpt>
      <trkpt lat="37.05333" lon="-3.34833">
        <ele>3068.6</ele>
        <time>2021-08-05 20:53:34</time>
      </trkpt>
      <trkpt lat="37.05333" lon="-3.34833">
        <ele>3068.6</ele>
        <time>2021-08-05 20:53:35</time>
      </trkpt>
      <trkpt lat="37.05334" lon="-3.34832">
        <ele>3068.4</ele>
        <time>2021-08-05 20:53:36</time>
      </trkpt>
      <trkpt lat="37.05334" lon="-3.34832">
        <ele>3068.2</ele>
        <time>2021-08-05 20:53:37</time>
      </trkpt>
      <trkpt lat="37.05334" lon="-3.34831">
        <ele>3068.2</ele>
        <time>2021-08-05 20:53:38</time>
      </trkpt>
      <trkpt lat="37.05335" lon="-3.3483">
        <ele>3068.2</ele>
        <time>2021-08-05 20:53:39</time>
      </trkpt>
      <trkpt lat="37.05336" lon="-3.3483">
        <ele>3068.2</ele>
        <time>2021-08-05 20:53:40</time>
      </trkpt>
      <trkpt lat="37.05336" lon="-3.34829">
        <ele>3068</ele>
        <time>2021-08-05 20:53:41</time>
      </trkpt>
      <trkpt lat="37.05336" lon="-3.34828">
        <ele>3068</ele>
        <time>2021-08-05 20:53:42</time>
      </trkpt>
      <trkpt lat="37.05336" lon="-3.34827">
        <ele>3068</ele>
        <time>2021-08-05 20:53:43</time>
      </trkpt>
      <trkpt lat="37.05337" lon="-3.34827">
        <ele>3068</ele>
        <time>2021-08-05 20:53:44</time>
      </trkpt>
      <trkpt lat="37.05337" lon="-3.34826">
        <ele>3067.6</ele>
        <time>2021-08-05 20:53:45</time>
      </trkpt>
      <trkpt lat="37.05337" lon="-3.34825">
        <ele>3067.4</ele>
        <time>2021-08-05 20:53:46</time>
      </trkpt>
      <trkpt lat="37.05338" lon="-3.34824">
        <ele>3067.2</ele>
        <time>2021-08-05 20:53:47</time>
      </trkpt>
      <trkpt lat="37.05338" lon="-3.34823">
        <ele>3067.2</ele>
        <time>2021-08-05 20:53:48</time>
      </trkpt>
      <trkpt lat="37.05338" lon="-3.34822">
        <ele>3067.2</ele>
        <time>2021-08-05 20:53:49</time>
      </trkpt>
      <trkpt lat="37.05339" lon="-3.34822">
        <ele>3067.2</ele>
        <time>2021-08-05 20:53:50</time>
      </trkpt>
      <trkpt lat="37.0534" lon="-3.34821">
        <ele>3067.2</ele>
        <time>2021-08-05 20:53:51</time>
      </trkpt>
      <trkpt lat="37.0534" lon="-3.3482">
        <ele>3067.4</ele>
        <time>2021-08-05 20:53:52</time>
      </trkpt>
      <trkpt lat="37.0534" lon="-3.34819">
        <ele>3067.4</ele>
        <time>2021-08-05 20:53:53</time>
      </trkpt>
      <trkpt lat="37.0534" lon="-3.34818">
        <ele>3067.2</ele>
        <time>2021-08-05 20:53:54</time>
      </trkpt>
      <trkpt lat="37.05341" lon="-3.34817">
        <ele>3067.2</ele>
        <time>2021-08-05 20:53:55</time>
      </trkpt>
      <trkpt lat="37.05341" lon="-3.34816">
        <ele>3067.2</ele>
        <time>2021-08-05 20:53:56</time>
      </trkpt>
      <trkpt lat="37.05342" lon="-3.34814">
        <ele>3067.2</ele>
        <time>2021-08-05 20:53:57</time>
      </trkpt>
      <trkpt lat="37.05342" lon="-3.34813">
        <ele>3067</ele>
        <time>2021-08-05 20:53:58</time>
      </trkpt>
      <trkpt lat="37.05342" lon="-3.34812">
        <ele>3066.8</ele>
        <time>2021-08-05 20:53:59</time>
      </trkpt>
      <trkpt lat="37.05343" lon="-3.34811">
        <ele>3066.6</ele>
        <time>2021-08-05 20:54:00</time>
      </trkpt>
      <trkpt lat="37.05343" lon="-3.34811">
        <ele>3066.6</ele>
        <time>2021-08-05 20:54:01</time>
      </trkpt>
      <trkpt lat="37.05343" lon="-3.3481">
        <ele>3066.4</ele>
        <time>2021-08-05 20:54:02</time>
      </trkpt>
      <trkpt lat="37.05344" lon="-3.34809">
        <ele>3066.4</ele>
        <time>2021-08-05 20:54:03</time>
      </trkpt>
      <trkpt lat="37.05344" lon="-3.34808">
        <ele>3066.4</ele>
        <time>2021-08-05 20:54:04</time>
      </trkpt>
      <trkpt lat="37.05344" lon="-3.34807">
        <ele>3066.4</ele>
        <time>2021-08-05 20:54:05</time>
      </trkpt>
      <trkpt lat="37.05344" lon="-3.34806">
        <ele>3066.4</ele>
        <time>2021-08-05 20:54:06</time>
      </trkpt>
      <trkpt lat="37.05345" lon="-3.34806">
        <ele>3066.4</ele>
        <time>2021-08-05 20:54:07</time>
      </trkpt>
      <trkpt lat="37.05346" lon="-3.34805">
        <ele>3066</ele>
        <time>2021-08-05 20:54:08</time>
      </trkpt>
      <trkpt lat="37.05346" lon="-3.34804">
        <ele>3065.8</ele>
        <time>2021-08-05 20:54:09</time>
      </trkpt>
      <trkpt lat="37.05346" lon="-3.34802">
        <ele>3065.8</ele>
        <time>2021-08-05 20:54:10</time>
      </trkpt>
      <trkpt lat="37.05347" lon="-3.34801">
        <ele>3065.6</ele>
        <time>2021-08-05 20:54:11</time>
      </trkpt>
      <trkpt lat="37.05347" lon="-3.348">
        <ele>3065.6</ele>
        <time>2021-08-05 20:54:12</time>
      </trkpt>
      <trkpt lat="37.05347" lon="-3.34799">
        <ele>3065.6</ele>
        <time>2021-08-05 20:54:13</time>
      </trkpt>
      <trkpt lat="37.05348" lon="-3.34798">
        <ele>3065.4</ele>
        <time>2021-08-05 20:54:14</time>
      </trkpt>
      <trkpt lat="37.05349" lon="-3.34796">
        <ele>3065.4</ele>
        <time>2021-08-05 20:54:15</time>
      </trkpt>
      <trkpt lat="37.0535" lon="-3.34795">
        <ele>3065.4</ele>
        <time>2021-08-05 20:54:16</time>
      </trkpt>
      <trkpt lat="37.0535" lon="-3.34795">
        <ele>3065.4</ele>
        <time>2021-08-05 20:54:17</time>
      </trkpt>
      <trkpt lat="37.05351" lon="-3.34794">
        <ele>3065.4</ele>
        <time>2021-08-05 20:54:18</time>
      </trkpt>
      <trkpt lat="37.05351" lon="-3.34793">
        <ele>3065.2</ele>
        <time>2021-08-05 20:54:19</time>
      </trkpt>
      <trkpt lat="37.05351" lon="-3.34792">
        <ele>3065.2</ele>
        <time>2021-08-05 20:54:20</time>
      </trkpt>
      <trkpt lat="37.05352" lon="-3.34791">
        <ele>3065</ele>
        <time>2021-08-05 20:54:21</time>
      </trkpt>
      <trkpt lat="37.05352" lon="-3.3479">
        <ele>3065</ele>
        <time>2021-08-05 20:54:22</time>
      </trkpt>
      <trkpt lat="37.05353" lon="-3.34789">
        <ele>3064.8</ele>
        <time>2021-08-05 20:54:23</time>
      </trkpt>
      <trkpt lat="37.05354" lon="-3.34789">
        <ele>3064.8</ele>
        <time>2021-08-05 20:54:24</time>
      </trkpt>
      <trkpt lat="37.05354" lon="-3.34788">
        <ele>3064.6</ele>
        <time>2021-08-05 20:54:25</time>
      </trkpt>
      <trkpt lat="37.05354" lon="-3.34788">
        <ele>3064.6</ele>
        <time>2021-08-05 20:54:26</time>
      </trkpt>
      <trkpt lat="37.05354" lon="-3.34787">
        <ele>3064.4</ele>
        <time>2021-08-05 20:54:27</time>
      </trkpt>
      <trkpt lat="37.05355" lon="-3.34787">
        <ele>3064.4</ele>
        <time>2021-08-05 20:54:28</time>
      </trkpt>
      <trkpt lat="37.05355" lon="-3.34786">
        <ele>3064.6</ele>
        <time>2021-08-05 20:54:29</time>
      </trkpt>
      <trkpt lat="37.05356" lon="-3.34786">
        <ele>3064.6</ele>
        <time>2021-08-05 20:54:30</time>
      </trkpt>
      <trkpt lat="37.05356" lon="-3.34785">
        <ele>3064.4</ele>
        <time>2021-08-05 20:54:31</time>
      </trkpt>
      <trkpt lat="37.05357" lon="-3.34785">
        <ele>3064.4</ele>
        <time>2021-08-05 20:54:32</time>
      </trkpt>
      <trkpt lat="37.05358" lon="-3.34784">
        <ele>3064.4</ele>
        <time>2021-08-05 20:54:33</time>
      </trkpt>
      <trkpt lat="37.05358" lon="-3.34784">
        <ele>3064.4</ele>
        <time>2021-08-05 20:54:34</time>
      </trkpt>
      <trkpt lat="37.05359" lon="-3.34783">
        <ele>3064.4</ele>
        <time>2021-08-05 20:54:35</time>
      </trkpt>
      <trkpt lat="37.05359" lon="-3.34781">
        <ele>3064.4</ele>
        <time>2021-08-05 20:54:36</time>
      </trkpt>
      <trkpt lat="37.05359" lon="-3.3478">
        <ele>3064.4</ele>
        <time>2021-08-05 20:54:37</time>
      </trkpt>
      <trkpt lat="37.05359" lon="-3.34779">
        <ele>3064.2</ele>
        <time>2021-08-05 20:54:38</time>
      </trkpt>
      <trkpt lat="37.0536" lon="-3.34779">
        <ele>3064.2</ele>
        <time>2021-08-05 20:54:39</time>
      </trkpt>
      <trkpt lat="37.0536" lon="-3.34778">
        <ele>3064</ele>
        <time>2021-08-05 20:54:40</time>
      </trkpt>
      <trkpt lat="37.05361" lon="-3.34777">
        <ele>3064</ele>
        <time>2021-08-05 20:54:41</time>
      </trkpt>
      <trkpt lat="37.05361" lon="-3.34776">
        <ele>3063.8</ele>
        <time>2021-08-05 20:54:42</time>
      </trkpt>
      <trkpt lat="37.05362" lon="-3.34775">
        <ele>3063.6</ele>
        <time>2021-08-05 20:54:43</time>
      </trkpt>
      <trkpt lat="37.05362" lon="-3.34774">
        <ele>3063.6</ele>
        <time>2021-08-05 20:54:44</time>
      </trkpt>
      <trkpt lat="37.05362" lon="-3.34773">
        <ele>3063.4</ele>
        <time>2021-08-05 20:54:45</time>
      </trkpt>
      <trkpt lat="37.05362" lon="-3.34771">
        <ele>3063.4</ele>
        <time>2021-08-05 20:54:46</time>
      </trkpt>
      <trkpt lat="37.05363" lon="-3.3477">
        <ele>3063.4</ele>
        <time>2021-08-05 20:54:47</time>
      </trkpt>
      <trkpt lat="37.05363" lon="-3.34769">
        <ele>3063.4</ele>
        <time>2021-08-05 20:54:48</time>
      </trkpt>
      <trkpt lat="37.05363" lon="-3.34768">
        <ele>3063.2</ele>
        <time>2021-08-05 20:54:49</time>
      </trkpt>
      <trkpt lat="37.05364" lon="-3.34767">
        <ele>3063</ele>
        <time>2021-08-05 20:54:50</time>
      </trkpt>
      <trkpt lat="37.05364" lon="-3.34766">
        <ele>3063</ele>
        <time>2021-08-05 20:54:51</time>
      </trkpt>
      <trkpt lat="37.05364" lon="-3.34765">
        <ele>3063</ele>
        <time>2021-08-05 20:54:52</time>
      </trkpt>
      <trkpt lat="37.05364" lon="-3.34764">
        <ele>3063</ele>
        <time>2021-08-05 20:54:53</time>
      </trkpt>
      <trkpt lat="37.05364" lon="-3.34763">
        <ele>3062.8</ele>
        <time>2021-08-05 20:54:54</time>
      </trkpt>
      <trkpt lat="37.05364" lon="-3.34762">
        <ele>3062.8</ele>
        <time>2021-08-05 20:54:55</time>
      </trkpt>
      <trkpt lat="37.05365" lon="-3.34761">
        <ele>3062.8</ele>
        <time>2021-08-05 20:54:56</time>
      </trkpt>
      <trkpt lat="37.05365" lon="-3.34761">
        <ele>3062.8</ele>
        <time>2021-08-05 20:54:57</time>
      </trkpt>
      <trkpt lat="37.05365" lon="-3.3476">
        <ele>3062.6</ele>
        <time>2021-08-05 20:54:58</time>
      </trkpt>
      <trkpt lat="37.05365" lon="-3.34759">
        <ele>3062.4</ele>
        <time>2021-08-05 20:54:59</time>
      </trkpt>
      <trkpt lat="37.05366" lon="-3.34758">
        <ele>3062.4</ele>
        <time>2021-08-05 20:55:00</time>
      </trkpt>
      <trkpt lat="37.05365" lon="-3.34757">
        <ele>3062.2</ele>
        <time>2021-08-05 20:55:01</time>
      </trkpt>
      <trkpt lat="37.05366" lon="-3.34756">
        <ele>3062.6</ele>
        <time>2021-08-05 20:55:02</time>
      </trkpt>
      <trkpt lat="37.05366" lon="-3.34755">
        <ele>3062.8</ele>
        <time>2021-08-05 20:55:03</time>
      </trkpt>
      <trkpt lat="37.05366" lon="-3.34754">
        <ele>3062.4</ele>
        <time>2021-08-05 20:55:04</time>
      </trkpt>
      <trkpt lat="37.05366" lon="-3.34753">
        <ele>3062.2</ele>
        <time>2021-08-05 20:55:05</time>
      </trkpt>
      <trkpt lat="37.05366" lon="-3.34752">
        <ele>3062.2</ele>
        <time>2021-08-05 20:55:06</time>
      </trkpt>
      <trkpt lat="37.05366" lon="-3.34751">
        <ele>3062.4</ele>
        <time>2021-08-05 20:55:07</time>
      </trkpt>
      <trkpt lat="37.05366" lon="-3.3475">
        <ele>3062.4</ele>
        <time>2021-08-05 20:55:08</time>
      </trkpt>
      <trkpt lat="37.05366" lon="-3.34749">
        <ele>3062.4</ele>
        <time>2021-08-05 20:55:09</time>
      </trkpt>
      <trkpt lat="37.05367" lon="-3.34748">
        <ele>3062.4</ele>
        <time>2021-08-05 20:55:10</time>
      </trkpt>
      <trkpt lat="37.05367" lon="-3.34748">
        <ele>3062.4</ele>
        <time>2021-08-05 20:55:11</time>
      </trkpt>
      <trkpt lat="37.05367" lon="-3.34747">
        <ele>3062.4</ele>
        <time>2021-08-05 20:55:12</time>
      </trkpt>
      <trkpt lat="37.05367" lon="-3.34746">
        <ele>3062.4</ele>
        <time>2021-08-05 20:55:13</time>
      </trkpt>
      <trkpt lat="37.05368" lon="-3.34745">
        <ele>3062.4</ele>
        <time>2021-08-05 20:55:14</time>
      </trkpt>
      <trkpt lat="37.05368" lon="-3.34744">
        <ele>3062.2</ele>
        <time>2021-08-05 20:55:15</time>
      </trkpt>
      <trkpt lat="37.05368" lon="-3.34743">
        <ele>3062.4</ele>
        <time>2021-08-05 20:55:16</time>
      </trkpt>
      <trkpt lat="37.05368" lon="-3.34743">
        <ele>3062.2</ele>
        <time>2021-08-05 20:55:17</time>
      </trkpt>
      <trkpt lat="37.05369" lon="-3.34743">
        <ele>3062.4</ele>
        <time>2021-08-05 20:55:18</time>
      </trkpt>
      <trkpt lat="37.05369" lon="-3.34743">
        <ele>3062.4</ele>
        <time>2021-08-05 20:55:19</time>
      </trkpt>
      <trkpt lat="37.0537" lon="-3.34743">
        <ele>3062.2</ele>
        <time>2021-08-05 20:55:20</time>
      </trkpt>
      <trkpt lat="37.05371" lon="-3.34742">
        <ele>3062.2</ele>
        <time>2021-08-05 20:55:21</time>
      </trkpt>
      <trkpt lat="37.05372" lon="-3.34741">
        <ele>3062.2</ele>
        <time>2021-08-05 20:55:22</time>
      </trkpt>
      <trkpt lat="37.05373" lon="-3.34741">
        <ele>3062.2</ele>
        <time>2021-08-05 20:55:23</time>
      </trkpt>
      <trkpt lat="37.05373" lon="-3.34739">
        <ele>3062.2</ele>
        <time>2021-08-05 20:55:24</time>
      </trkpt>
      <trkpt lat="37.05373" lon="-3.34739">
        <ele>3062</ele>
        <time>2021-08-05 20:55:25</time>
      </trkpt>
      <trkpt lat="37.05373" lon="-3.34739">
        <ele>3062.2</ele>
        <time>2021-08-05 20:55:26</time>
      </trkpt>
      <trkpt lat="37.05373" lon="-3.34739">
        <ele>3062.2</ele>
        <time>2021-08-05 20:55:27</time>
      </trkpt>
      <trkpt lat="37.05373" lon="-3.34739">
        <ele>3062.2</ele>
        <time>2021-08-05 20:55:28</time>
      </trkpt>
      <trkpt lat="37.05373" lon="-3.34739">
        <ele>3062.2</ele>
        <time>2021-08-05 20:55:29</time>
      </trkpt>
      <trkpt lat="37.05373" lon="-3.34739">
        <ele>3062.2</ele>
        <time>2021-08-05 20:55:30</time>
      </trkpt>
      <trkpt lat="37.05373" lon="-3.34739">
        <ele>3062.2</ele>
        <time>2021-08-05 20:55:31</time>
      </trkpt>
      <trkpt lat="37.05373" lon="-3.3474">
        <ele>3062.2</ele>
        <time>2021-08-05 20:55:32</time>
      </trkpt>
      <trkpt lat="37.05373" lon="-3.3474">
        <ele>3062.2</ele>
        <time>2021-08-05 20:55:33</time>
      </trkpt>
      <trkpt lat="37.05373" lon="-3.3474">
        <ele>3062.4</ele>
        <time>2021-08-05 20:55:34</time>
      </trkpt>
      <trkpt lat="37.05373" lon="-3.34739">
        <ele>3062.2</ele>
        <time>2021-08-05 20:55:35</time>
      </trkpt>
      <trkpt lat="37.05372" lon="-3.34739">
        <ele>3062.2</ele>
        <time>2021-08-05 20:55:36</time>
      </trkpt>
      <trkpt lat="37.05372" lon="-3.34739">
        <ele>3062.2</ele>
        <time>2021-08-05 20:55:37</time>
      </trkpt>
      <trkpt lat="37.05373" lon="-3.3474">
        <ele>3062.2</ele>
        <time>2021-08-05 20:55:38</time>
      </trkpt>
      <trkpt lat="37.05373" lon="-3.3474">
        <ele>3062.4</ele>
        <time>2021-08-05 20:55:39</time>
      </trkpt>
      <trkpt lat="37.05373" lon="-3.3474">
        <ele>3062.4</ele>
        <time>2021-08-05 20:55:40</time>
      </trkpt>
      <trkpt lat="37.05373" lon="-3.3474">
        <ele>3062.4</ele>
        <time>2021-08-05 20:55:41</time>
      </trkpt>
      <trkpt lat="37.05374" lon="-3.3474">
        <ele>3062.2</ele>
        <time>2021-08-05 20:55:42</time>
      </trkpt>
      <trkpt lat="37.05373" lon="-3.3474">
        <ele>3062.4</ele>
        <time>2021-08-05 20:55:43</time>
      </trkpt>
      <trkpt lat="37.05373" lon="-3.3474">
        <ele>3062.4</ele>
        <time>2021-08-05 20:55:44</time>
      </trkpt>
      <trkpt lat="37.05373" lon="-3.3474">
        <ele>3062.2</ele>
        <time>2021-08-05 20:55:45</time>
      </trkpt>
      <trkpt lat="37.05373" lon="-3.3474">
        <ele>3062.2</ele>
        <time>2021-08-05 20:55:46</time>
      </trkpt>
      <trkpt lat="37.05373" lon="-3.3474">
        <ele>3062.2</ele>
        <time>2021-08-05 20:55:47</time>
      </trkpt>
      <trkpt lat="37.05373" lon="-3.3474">
        <ele>3062.4</ele>
        <time>2021-08-05 20:55:48</time>
      </trkpt>
      <trkpt lat="37.05373" lon="-3.3474">
        <ele>3062.4</ele>
        <time>2021-08-05 20:55:49</time>
      </trkpt>
      <trkpt lat="37.05373" lon="-3.3474">
        <ele>3062.4</ele>
        <time>2021-08-05 20:55:50</time>
      </trkpt>
      <trkpt lat="37.05372" lon="-3.3474">
        <ele>3062.4</ele>
        <time>2021-08-05 20:55:51</time>
      </trkpt>
      <trkpt lat="37.05372" lon="-3.34739">
        <ele>3062.4</ele>
        <time>2021-08-05 20:55:52</time>
      </trkpt>
      <trkpt lat="37.05373" lon="-3.34739">
        <ele>3062.6</ele>
        <time>2021-08-05 20:55:53</time>
      </trkpt>
      <trkpt lat="37.05373" lon="-3.3474">
        <ele>3062.6</ele>
        <time>2021-08-05 20:55:54</time>
      </trkpt>
      <trkpt lat="37.05373" lon="-3.34739">
        <ele>3062.6</ele>
        <time>2021-08-05 20:55:55</time>
      </trkpt>
      <trkpt lat="37.05373" lon="-3.34738">
        <ele>3062.4</ele>
        <time>2021-08-05 20:55:56</time>
      </trkpt>
      <trkpt lat="37.05375" lon="-3.34739">
        <ele>3062.4</ele>
        <time>2021-08-05 20:55:57</time>
      </trkpt>
      <trkpt lat="37.05375" lon="-3.34739">
        <ele>3062.6</ele>
        <time>2021-08-05 20:55:58</time>
      </trkpt>
      <trkpt lat="37.05376" lon="-3.34739">
        <ele>3062.6</ele>
        <time>2021-08-05 20:55:59</time>
      </trkpt>
      <trkpt lat="37.05377" lon="-3.3474">
        <ele>3062.8</ele>
        <time>2021-08-05 20:56:00</time>
      </trkpt>
      <trkpt lat="37.05377" lon="-3.34741">
        <ele>3063</ele>
        <time>2021-08-05 20:56:01</time>
      </trkpt>
      <trkpt lat="37.05377" lon="-3.34741">
        <ele>3063</ele>
        <time>2021-08-05 20:56:02</time>
      </trkpt>
      <trkpt lat="37.05378" lon="-3.34741">
        <ele>3063</ele>
        <time>2021-08-05 20:56:03</time>
      </trkpt>
      <trkpt lat="37.05378" lon="-3.34741">
        <ele>3063</ele>
        <time>2021-08-05 20:56:04</time>
      </trkpt>
      <trkpt lat="37.05377" lon="-3.34741">
        <ele>3063</ele>
        <time>2021-08-05 20:56:05</time>
      </trkpt>
      <trkpt lat="37.05377" lon="-3.3474">
        <ele>3062.8</ele>
        <time>2021-08-05 20:56:06</time>
      </trkpt>
      <trkpt lat="37.05376" lon="-3.3474">
        <ele>3062.8</ele>
        <time>2021-08-05 20:56:07</time>
      </trkpt>
      <trkpt lat="37.05376" lon="-3.34739">
        <ele>3062.6</ele>
        <time>2021-08-05 20:56:08</time>
      </trkpt>
      <trkpt lat="37.05376" lon="-3.34739">
        <ele>3062.6</ele>
        <time>2021-08-05 20:56:09</time>
      </trkpt>
      <trkpt lat="37.05376" lon="-3.34739">
        <ele>3062.6</ele>
        <time>2021-08-05 20:56:10</time>
      </trkpt>
      <trkpt lat="37.05375" lon="-3.34739">
        <ele>3062.6</ele>
        <time>2021-08-05 20:56:11</time>
      </trkpt>
      <trkpt lat="37.05375" lon="-3.34739">
        <ele>3062.6</ele>
        <time>2021-08-05 20:56:12</time>
      </trkpt>
      <trkpt lat="37.05375" lon="-3.34738">
        <ele>3062.6</ele>
        <time>2021-08-05 20:56:13</time>
      </trkpt>
      <trkpt lat="37.05375" lon="-3.34738">
        <ele>3062.6</ele>
        <time>2021-08-05 20:56:14</time>
      </trkpt>
      <trkpt lat="37.05375" lon="-3.34738">
        <ele>3062.6</ele>
        <time>2021-08-05 20:56:15</time>
      </trkpt>
      <trkpt lat="37.05375" lon="-3.34738">
        <ele>3062.8</ele>
        <time>2021-08-05 20:56:16</time>
      </trkpt>
      <trkpt lat="37.05375" lon="-3.34738">
        <ele>3062.8</ele>
        <time>2021-08-05 20:56:17</time>
      </trkpt>
      <trkpt lat="37.05375" lon="-3.34738">
        <ele>3062.8</ele>
        <time>2021-08-05 20:56:18</time>
      </trkpt>
      <trkpt lat="37.05375" lon="-3.34738">
        <ele>3062.8</ele>
        <time>2021-08-05 20:56:19</time>
      </trkpt>
      <trkpt lat="37.05375" lon="-3.34738">
        <ele>3062.8</ele>
        <time>2021-08-05 20:56:20</time>
      </trkpt>
      <trkpt lat="37.05375" lon="-3.34738">
        <ele>3062.6</ele>
        <time>2021-08-05 20:56:21</time>
      </trkpt>
      <trkpt lat="37.05374" lon="-3.34738">
        <ele>3062.6</ele>
        <time>2021-08-05 20:56:22</time>
      </trkpt>
      <trkpt lat="37.05375" lon="-3.34738">
        <ele>3062.4</ele>
        <time>2021-08-05 20:56:23</time>
      </trkpt>
      <trkpt lat="37.05375" lon="-3.34738">
        <ele>3062.2</ele>
        <time>2021-08-05 20:56:24</time>
      </trkpt>
      <trkpt lat="37.05375" lon="-3.34738">
        <ele>3062.2</ele>
        <time>2021-08-05 20:56:25</time>
      </trkpt>
      <trkpt lat="37.05375" lon="-3.34738">
        <ele>3062</ele>
        <time>2021-08-05 20:56:26</time>
      </trkpt>
      <trkpt lat="37.05374" lon="-3.34738">
        <ele>3062</ele>
        <time>2021-08-05 20:56:27</time>
      </trkpt>
      <trkpt lat="37.05374" lon="-3.34737">
        <ele>3062.2</ele>
        <time>2021-08-05 20:56:28</time>
      </trkpt>
      <trkpt lat="37.05374" lon="-3.34737">
        <ele>3062.2</ele>
        <time>2021-08-05 20:56:29</time>
      </trkpt>
      <trkpt lat="37.05374" lon="-3.34737">
        <ele>3062.2</ele>
        <time>2021-08-05 20:56:30</time>
      </trkpt>
      <trkpt lat="37.05373" lon="-3.34736">
        <ele>3062.2</ele>
        <time>2021-08-05 20:56:31</time>
      </trkpt>
      <trkpt lat="37.05373" lon="-3.34736">
        <ele>3062</ele>
        <time>2021-08-05 20:56:32</time>
      </trkpt>
      <trkpt lat="37.05373" lon="-3.34735">
        <ele>3061.8</ele>
        <time>2021-08-05 20:56:33</time>
      </trkpt>
      <trkpt lat="37.05374" lon="-3.34735">
        <ele>3061.8</ele>
        <time>2021-08-05 20:56:34</time>
      </trkpt>
      <trkpt lat="37.05374" lon="-3.34738">
        <ele>3061.6</ele>
        <time>2021-08-05 20:56:35</time>
      </trkpt>
      <trkpt lat="37.05375" lon="-3.34739">
        <ele>3061.4</ele>
        <time>2021-08-05 20:56:36</time>
      </trkpt>
      <trkpt lat="37.05375" lon="-3.34739">
        <ele>3061.4</ele>
        <time>2021-08-05 20:56:37</time>
      </trkpt>
      <trkpt lat="37.05375" lon="-3.3474">
        <ele>3061.4</ele>
        <time>2021-08-05 20:56:38</time>
      </trkpt>
      <trkpt lat="37.05375" lon="-3.34739">
        <ele>3061.2</ele>
        <time>2021-08-05 20:56:39</time>
      </trkpt>
      <trkpt lat="37.05376" lon="-3.34739">
        <ele>3061.2</ele>
        <time>2021-08-05 20:56:40</time>
      </trkpt>
      <trkpt lat="37.05376" lon="-3.34739">
        <ele>3061</ele>
        <time>2021-08-05 20:56:41</time>
      </trkpt>
      <trkpt lat="37.05376" lon="-3.34738">
        <ele>3061</ele>
        <time>2021-08-05 20:56:42</time>
      </trkpt>
      <trkpt lat="37.05377" lon="-3.34738">
        <ele>3061</ele>
        <time>2021-08-05 20:56:43</time>
      </trkpt>
      <trkpt lat="37.05378" lon="-3.34739">
        <ele>3061.2</ele>
        <time>2021-08-05 20:56:44</time>
      </trkpt>
      <trkpt lat="37.05377" lon="-3.34738">
        <ele>3061.2</ele>
        <time>2021-08-05 20:56:45</time>
      </trkpt>
      <trkpt lat="37.05377" lon="-3.34738">
        <ele>3061.2</ele>
        <time>2021-08-05 20:56:46</time>
      </trkpt>
      <trkpt lat="37.05377" lon="-3.34738">
        <ele>3061.2</ele>
        <time>2021-08-05 20:56:47</time>
      </trkpt>
      <trkpt lat="37.05377" lon="-3.34738">
        <ele>3060.8</ele>
        <time>2021-08-05 20:56:48</time>
      </trkpt>
      <trkpt lat="37.05377" lon="-3.34738">
        <ele>3060.4</ele>
        <time>2021-08-05 20:56:49</time>
      </trkpt>
      <trkpt lat="37.05391" lon="-3.34229">
        <ele>3043.6</ele>
        <time>2021-08-05 20:56:50</time>
      </trkpt>
      <trkpt lat="37.05392" lon="-3.34228">
        <ele>3043.6</ele>
        <time>2021-08-05 20:56:51</time>
      </trkpt>
      <trkpt lat="37.05392" lon="-3.34227">
        <ele>3043.6</ele>
        <time>2021-08-05 20:56:52</time>
      </trkpt>
      <trkpt lat="37.05392" lon="-3.34226">
        <ele>3043.6</ele>
        <time>2021-08-05 20:56:53</time>
      </trkpt>
      <trkpt lat="37.05392" lon="-3.34225">
        <ele>3043.6</ele>
        <time>2021-08-05 20:56:54</time>
      </trkpt>
      <trkpt lat="37.05393" lon="-3.34223">
        <ele>3043.6</ele>
        <time>2021-08-05 20:56:55</time>
      </trkpt>
      <trkpt lat="37.05393" lon="-3.34223">
        <ele>3043.6</ele>
        <time>2021-08-05 20:56:56</time>
      </trkpt>
      <trkpt lat="37.05393" lon="-3.34222">
        <ele>3043.6</ele>
        <time>2021-08-05 20:56:57</time>
      </trkpt>
      <trkpt lat="37.05393" lon="-3.34221">
        <ele>3043.6</ele>
        <time>2021-08-05 20:56:58</time>
      </trkpt>
      <trkpt lat="37.05393" lon="-3.3422">
        <ele>3043.6</ele>
        <time>2021-08-05 20:56:59</time>
      </trkpt>
      <trkpt lat="37.05392" lon="-3.34219">
        <ele>3043.6</ele>
        <time>2021-08-05 20:57:00</time>
      </trkpt>
      <trkpt lat="37.05392" lon="-3.34218">
        <ele>3043.8</ele>
        <time>2021-08-05 20:57:01</time>
      </trkpt>
      <trkpt lat="37.05392" lon="-3.34217">
        <ele>3043.8</ele>
        <time>2021-08-05 20:57:02</time>
      </trkpt>
      <trkpt lat="37.05392" lon="-3.34215">
        <ele>3044</ele>
        <time>2021-08-05 20:57:03</time>
      </trkpt>
      <trkpt lat="37.05393" lon="-3.34214">
        <ele>3044</ele>
        <time>2021-08-05 20:57:04</time>
      </trkpt>
      <trkpt lat="37.05393" lon="-3.34213">
        <ele>3044</ele>
        <time>2021-08-05 20:57:05</time>
      </trkpt>
      <trkpt lat="37.05393" lon="-3.34211">
        <ele>3044</ele>
        <time>2021-08-05 20:57:06</time>
      </trkpt>
      <trkpt lat="37.05393" lon="-3.3421">
        <ele>3044.2</ele>
        <time>2021-08-05 20:57:07</time>
      </trkpt>
      <trkpt lat="37.05393" lon="-3.34209">
        <ele>3044.2</ele>
        <time>2021-08-05 20:57:08</time>
      </trkpt>
      <trkpt lat="37.05393" lon="-3.34208">
        <ele>3044.2</ele>
        <time>2021-08-05 20:57:09</time>
      </trkpt>
      <trkpt lat="37.05393" lon="-3.34206">
        <ele>3044.2</ele>
        <time>2021-08-05 20:57:10</time>
      </trkpt>
      <trkpt lat="37.05393" lon="-3.34205">
        <ele>3044.2</ele>
        <time>2021-08-05 20:57:11</time>
      </trkpt>
      <trkpt lat="37.05393" lon="-3.34204">
        <ele>3044.2</ele>
        <time>2021-08-05 20:57:12</time>
      </trkpt>
      <trkpt lat="37.05393" lon="-3.34202">
        <ele>3044.2</ele>
        <time>2021-08-05 20:57:13</time>
      </trkpt>
      <trkpt lat="37.05393" lon="-3.34201">
        <ele>3044.2</ele>
        <time>2021-08-05 20:57:14</time>
      </trkpt>
      <trkpt lat="37.05394" lon="-3.342">
        <ele>3044.2</ele>
        <time>2021-08-05 20:57:15</time>
      </trkpt>
      <trkpt lat="37.05394" lon="-3.34198">
        <ele>3044.2</ele>
        <time>2021-08-05 20:57:16</time>
      </trkpt>
      <trkpt lat="37.05393" lon="-3.34197">
        <ele>3044</ele>
        <time>2021-08-05 20:57:17</time>
      </trkpt>
      <trkpt lat="37.05394" lon="-3.34195">
        <ele>3044</ele>
        <time>2021-08-05 20:57:18</time>
      </trkpt>
      <trkpt lat="37.05394" lon="-3.34194">
        <ele>3043.8</ele>
        <time>2021-08-05 20:57:19</time>
      </trkpt>
      <trkpt lat="37.05394" lon="-3.34193">
        <ele>3043.8</ele>
        <time>2021-08-05 20:57:20</time>
      </trkpt>
      <trkpt lat="37.05394" lon="-3.34192">
        <ele>3043.8</ele>
        <time>2021-08-05 20:57:21</time>
      </trkpt>
      <trkpt lat="37.05394" lon="-3.34191">
        <ele>3043.8</ele>
        <time>2021-08-05 20:57:22</time>
      </trkpt>
      <trkpt lat="37.05394" lon="-3.3419">
        <ele>3043.8</ele>
        <time>2021-08-05 20:57:23</time>
      </trkpt>
      <trkpt lat="37.05394" lon="-3.34188">
        <ele>3043.8</ele>
        <time>2021-08-05 20:57:24</time>
      </trkpt>
      <trkpt lat="37.05394" lon="-3.34187">
        <ele>3043.6</ele>
        <time>2021-08-05 20:57:25</time>
      </trkpt>
      <trkpt lat="37.05394" lon="-3.34186">
        <ele>3043.6</ele>
        <time>2021-08-05 20:57:26</time>
      </trkpt>
      <trkpt lat="37.05394" lon="-3.34185">
        <ele>3043.6</ele>
        <time>2021-08-05 20:57:27</time>
      </trkpt>
      <trkpt lat="37.05394" lon="-3.34183">
        <ele>3043.6</ele>
        <time>2021-08-05 20:57:28</time>
      </trkpt>
      <trkpt lat="37.05393" lon="-3.34182">
        <ele>3043.8</ele>
        <time>2021-08-05 20:57:29</time>
      </trkpt>
      <trkpt lat="37.05393" lon="-3.34181">
        <ele>3044</ele>
        <time>2021-08-05 20:57:30</time>
      </trkpt>
      <trkpt lat="37.05393" lon="-3.3418">
        <ele>3044</ele>
        <time>2021-08-05 20:57:31</time>
      </trkpt>
      <trkpt lat="37.05393" lon="-3.34178">
        <ele>3044.2</ele>
        <time>2021-08-05 20:57:32</time>
      </trkpt>
      <trkpt lat="37.05394" lon="-3.34177">
        <ele>3044</ele>
        <time>2021-08-05 20:57:33</time>
      </trkpt>
      <trkpt lat="37.05394" lon="-3.34176">
        <ele>3044</ele>
        <time>2021-08-05 20:57:34</time>
      </trkpt>
      <trkpt lat="37.05394" lon="-3.34175">
        <ele>3044</ele>
        <time>2021-08-05 20:57:35</time>
      </trkpt>
      <trkpt lat="37.05395" lon="-3.34174">
        <ele>3044</ele>
        <time>2021-08-05 20:57:36</time>
      </trkpt>
      <trkpt lat="37.05396" lon="-3.34173">
        <ele>3044</ele>
        <time>2021-08-05 20:57:37</time>
      </trkpt>
      <trkpt lat="37.05396" lon="-3.34172">
        <ele>3044</ele>
        <time>2021-08-05 20:57:38</time>
      </trkpt>
      <trkpt lat="37.05396" lon="-3.34171">
        <ele>3044</ele>
        <time>2021-08-05 20:57:39</time>
      </trkpt>
      <trkpt lat="37.05397" lon="-3.3417">
        <ele>3043.8</ele>
        <time>2021-08-05 20:57:40</time>
      </trkpt>
      <trkpt lat="37.05397" lon="-3.34168">
        <ele>3043.8</ele>
        <time>2021-08-05 20:57:41</time>
      </trkpt>
      <trkpt lat="37.05397" lon="-3.34167">
        <ele>3043.8</ele>
        <time>2021-08-05 20:57:42</time>
      </trkpt>
      <trkpt lat="37.05397" lon="-3.34166">
        <ele>3043.8</ele>
        <time>2021-08-05 20:57:43</time>
      </trkpt>
      <trkpt lat="37.05397" lon="-3.34165">
        <ele>3043.6</ele>
        <time>2021-08-05 20:57:44</time>
      </trkpt>
      <trkpt lat="37.05396" lon="-3.34164">
        <ele>3043.6</ele>
        <time>2021-08-05 20:57:45</time>
      </trkpt>
      <trkpt lat="37.05396" lon="-3.34163">
        <ele>3043.4</ele>
        <time>2021-08-05 20:57:46</time>
      </trkpt>
      <trkpt lat="37.05396" lon="-3.34161">
        <ele>3043.6</ele>
        <time>2021-08-05 20:57:47</time>
      </trkpt>
      <trkpt lat="37.05396" lon="-3.3416">
        <ele>3043.6</ele>
        <time>2021-08-05 20:57:48</time>
      </trkpt>
      <trkpt lat="37.05396" lon="-3.34158">
        <ele>3043.6</ele>
        <time>2021-08-05 20:57:49</time>
      </trkpt>
      <trkpt lat="37.05396" lon="-3.34157">
        <ele>3043.6</ele>
        <time>2021-08-05 20:57:50</time>
      </trkpt>
      <trkpt lat="37.05396" lon="-3.34156">
        <ele>3043.6</ele>
        <time>2021-08-05 20:57:51</time>
      </trkpt>
      <trkpt lat="37.05397" lon="-3.34156">
        <ele>3043.6</ele>
        <time>2021-08-05 20:57:52</time>
      </trkpt>
      <trkpt lat="37.05397" lon="-3.34155">
        <ele>3043.6</ele>
        <time>2021-08-05 20:57:53</time>
      </trkpt>
      <trkpt lat="37.05397" lon="-3.34154">
        <ele>3043.4</ele>
        <time>2021-08-05 20:57:54</time>
      </trkpt>
      <trkpt lat="37.05397" lon="-3.34153">
        <ele>3043.4</ele>
        <time>2021-08-05 20:57:55</time>
      </trkpt>
      <trkpt lat="37.05397" lon="-3.34152">
        <ele>3043.2</ele>
        <time>2021-08-05 20:57:56</time>
      </trkpt>
      <trkpt lat="37.05398" lon="-3.3415">
        <ele>3043.2</ele>
        <time>2021-08-05 20:58:00</time>
      </trkpt>
      <trkpt lat="37.05398" lon="-3.34149">
        <ele>3043.2</ele>
        <time>2021-08-05 20:58:01</time>
      </trkpt>
      <trkpt lat="37.05398" lon="-3.34148">
        <ele>3043</ele>
        <time>2021-08-05 20:58:02</time>
      </trkpt>
      <trkpt lat="37.05399" lon="-3.34146">
        <ele>3043</ele>
        <time>2021-08-05 20:58:03</time>
      </trkpt>
      <trkpt lat="37.05399" lon="-3.34145">
        <ele>3043</ele>
        <time>2021-08-05 20:58:04</time>
      </trkpt>
      <trkpt lat="37.05399" lon="-3.34143">
        <ele>3043</ele>
        <time>2021-08-05 21:11:41</time>
      </trkpt>
      <trkpt lat="37.054" lon="-3.34142">
        <ele>3043</ele>
        <time>2021-08-05 21:11:42</time>
      </trkpt>
      <trkpt lat="37.054" lon="-3.3414">
        <ele>3043.2</ele>
        <time>2021-08-05 21:11:43</time>
      </trkpt>
      <trkpt lat="37.054" lon="-3.34138">
        <ele>3043.2</ele>
        <time>2021-08-05 21:11:44</time>
      </trkpt>
      <trkpt lat="37.054" lon="-3.34137">
        <ele>3043.2</ele>
        <time>2021-08-05 21:11:45</time>
      </trkpt>
      <trkpt lat="37.054" lon="-3.34136">
        <ele>3043.2</ele>
        <time>2021-08-05 21:11:46</time>
      </trkpt>
      <trkpt lat="37.054" lon="-3.34134">
        <ele>3043.2</ele>
        <time>2021-08-05 21:11:47</time>
      </trkpt>
      <trkpt lat="37.054" lon="-3.34133">
        <ele>3043.2</ele>
        <time>2021-08-05 21:11:48</time>
      </trkpt>
      <trkpt lat="37.05401" lon="-3.34132">
        <ele>3043.2</ele>
        <time>2021-08-05 21:11:49</time>
      </trkpt>
      <trkpt lat="37.05401" lon="-3.34131">
        <ele>3043.2</ele>
        <time>2021-08-05 21:11:50</time>
      </trkpt>
      <trkpt lat="37.05401" lon="-3.3413">
        <ele>3043.2</ele>
        <time>2021-08-05 21:11:51</time>
      </trkpt>
      <trkpt lat="37.05402" lon="-3.34129">
        <ele>3043.4</ele>
        <time>2021-08-05 21:11:52</time>
      </trkpt>
      <trkpt lat="37.05402" lon="-3.34127">
        <ele>3043.4</ele>
        <time>2021-08-05 21:11:53</time>
      </trkpt>
      <trkpt lat="37.05403" lon="-3.34126">
        <ele>3043.4</ele>
        <time>2021-08-05 21:11:54</time>
      </trkpt>
      <trkpt lat="37.05403" lon="-3.34125">
        <ele>3043.2</ele>
        <time>2021-08-05 21:11:55</time>
      </trkpt>
      <trkpt lat="37.05403" lon="-3.34124">
        <ele>3043.2</ele>
        <time>2021-08-05 21:11:56</time>
      </trkpt>
      <trkpt lat="37.05404" lon="-3.34122">
        <ele>3043.2</ele>
        <time>2021-08-05 21:11:57</time>
      </trkpt>
      <trkpt lat="37.05404" lon="-3.34121">
        <ele>3043</ele>
        <time>2021-08-05 21:11:58</time>
      </trkpt>
      <trkpt lat="37.05404" lon="-3.3412">
        <ele>3043</ele>
        <time>2021-08-05 21:11:59</time>
      </trkpt>
      <trkpt lat="37.05404" lon="-3.34119">
        <ele>3043</ele>
        <time>2021-08-05 21:12:00</time>
      </trkpt>
      <trkpt lat="37.05404" lon="-3.34118">
        <ele>3043</ele>
        <time>2021-08-05 21:12:01</time>
      </trkpt>
      <trkpt lat="37.05405" lon="-3.34116">
        <ele>3043</ele>
        <time>2021-08-05 21:12:02</time>
      </trkpt>
      <trkpt lat="37.05405" lon="-3.34115">
        <ele>3043</ele>
        <time>2021-08-05 21:12:03</time>
      </trkpt>
      <trkpt lat="37.05405" lon="-3.34114">
        <ele>3043</ele>
        <time>2021-08-05 21:12:04</time>
      </trkpt>
      <trkpt lat="37.05406" lon="-3.34113">
        <ele>3042.8</ele>
        <time>2021-08-05 21:12:05</time>
      </trkpt>
      <trkpt lat="37.05406" lon="-3.34112">
        <ele>3042.4</ele>
        <time>2021-08-05 21:12:06</time>
      </trkpt>
      <trkpt lat="37.05407" lon="-3.34111">
        <ele>3042.4</ele>
        <time>2021-08-05 21:12:07</time>
      </trkpt>
      <trkpt lat="37.05407" lon="-3.3411">
        <ele>3042.2</ele>
        <time>2021-08-05 21:12:08</time>
      </trkpt>
      <trkpt lat="37.05408" lon="-3.34109">
        <ele>3042.2</ele>
        <time>2021-08-05 21:12:09</time>
      </trkpt>
      <trkpt lat="37.05408" lon="-3.34108">
        <ele>3042.2</ele>
        <time>2021-08-05 21:12:10</time>
      </trkpt>
      <trkpt lat="37.05408" lon="-3.34107">
        <ele>3042.2</ele>
        <time>2021-08-05 21:12:11</time>
      </trkpt>
      <trkpt lat="37.05408" lon="-3.34106">
        <ele>3042.2</ele>
        <time>2021-08-05 21:12:12</time>
      </trkpt>
      <trkpt lat="37.05408" lon="-3.34105">
        <ele>3042.2</ele>
        <time>2021-08-05 21:12:13</time>
      </trkpt>
      <trkpt lat="37.05408" lon="-3.34104">
        <ele>3042.2</ele>
        <time>2021-08-05 21:12:14</time>
      </trkpt>
      <trkpt lat="37.05408" lon="-3.34102">
        <ele>3042.2</ele>
        <time>2021-08-05 21:12:15</time>
      </trkpt>
      <trkpt lat="37.05409" lon="-3.34101">
        <ele>3042.2</ele>
        <time>2021-08-05 21:12:16</time>
      </trkpt>
      <trkpt lat="37.05409" lon="-3.341">
        <ele>3042.8</ele>
        <time>2021-08-05 21:12:17</time>
      </trkpt>
      <trkpt lat="37.05409" lon="-3.34098">
        <ele>3043</ele>
        <time>2021-08-05 21:12:18</time>
      </trkpt>
      <trkpt lat="37.05409" lon="-3.34098">
        <ele>3043.2</ele>
        <time>2021-08-05 21:12:19</time>
      </trkpt>
      <trkpt lat="37.05409" lon="-3.34096">
        <ele>3043.2</ele>
        <time>2021-08-05 21:12:20</time>
      </trkpt>
      <trkpt lat="37.05409" lon="-3.34095">
        <ele>3043.4</ele>
        <time>2021-08-05 21:12:21</time>
      </trkpt>
      <trkpt lat="37.0541" lon="-3.34094">
        <ele>3043.4</ele>
        <time>2021-08-05 21:12:22</time>
      </trkpt>
      <trkpt lat="37.0541" lon="-3.34092">
        <ele>3043.2</ele>
        <time>2021-08-05 21:12:23</time>
      </trkpt>
      <trkpt lat="37.05411" lon="-3.34091">
        <ele>3043</ele>
        <time>2021-08-05 21:12:24</time>
      </trkpt>
      <trkpt lat="37.05411" lon="-3.3409">
        <ele>3042.6</ele>
        <time>2021-08-05 21:12:25</time>
      </trkpt>
      <trkpt lat="37.05411" lon="-3.34089">
        <ele>3042.8</ele>
        <time>2021-08-05 21:12:26</time>
      </trkpt>
      <trkpt lat="37.05411" lon="-3.34088">
        <ele>3042.6</ele>
        <time>2021-08-05 21:12:27</time>
      </trkpt>
      <trkpt lat="37.05411" lon="-3.34087">
        <ele>3042.4</ele>
        <time>2021-08-05 21:12:28</time>
      </trkpt>
      <trkpt lat="37.05411" lon="-3.34086">
        <ele>3042.2</ele>
        <time>2021-08-05 21:12:29</time>
      </trkpt>
      <trkpt lat="37.05411" lon="-3.34084">
        <ele>3042.2</ele>
        <time>2021-08-05 21:12:30</time>
      </trkpt>
      <trkpt lat="37.05411" lon="-3.34083">
        <ele>3042.2</ele>
        <time>2021-08-05 21:12:31</time>
      </trkpt>
      <trkpt lat="37.05411" lon="-3.34082">
        <ele>3042</ele>
        <time>2021-08-05 21:12:32</time>
      </trkpt>
      <trkpt lat="37.0541" lon="-3.34081">
        <ele>3042</ele>
        <time>2021-08-05 21:12:33</time>
      </trkpt>
      <trkpt lat="37.05411" lon="-3.34079">
        <ele>3041.8</ele>
        <time>2021-08-05 21:12:34</time>
      </trkpt>
      <trkpt lat="37.0541" lon="-3.34078">
        <ele>3041.8</ele>
        <time>2021-08-05 21:12:35</time>
      </trkpt>
      <trkpt lat="37.0541" lon="-3.34076">
        <ele>3041.8</ele>
        <time>2021-08-05 21:12:36</time>
      </trkpt>
      <trkpt lat="37.0541" lon="-3.34075">
        <ele>3041.8</ele>
        <time>2021-08-05 21:12:37</time>
      </trkpt>
      <trkpt lat="37.05411" lon="-3.34074">
        <ele>3041.8</ele>
        <time>2021-08-05 21:12:38</time>
      </trkpt>
      <trkpt lat="37.05411" lon="-3.34073">
        <ele>3041.6</ele>
        <time>2021-08-05 21:12:39</time>
      </trkpt>
      <trkpt lat="37.05411" lon="-3.34072">
        <ele>3041.6</ele>
        <time>2021-08-05 21:12:40</time>
      </trkpt>
      <trkpt lat="37.05411" lon="-3.3407">
        <ele>3041.4</ele>
        <time>2021-08-05 21:12:41</time>
      </trkpt>
      <trkpt lat="37.05411" lon="-3.34069">
        <ele>3041.4</ele>
        <time>2021-08-05 21:12:42</time>
      </trkpt>
      <trkpt lat="37.05411" lon="-3.34068">
        <ele>3041.4</ele>
        <time>2021-08-05 21:12:43</time>
      </trkpt>
      <trkpt lat="37.05411" lon="-3.34067">
        <ele>3041.6</ele>
        <time>2021-08-05 21:12:44</time>
      </trkpt>
      <trkpt lat="37.05411" lon="-3.34066">
        <ele>3041.6</ele>
        <time>2021-08-05 21:12:45</time>
      </trkpt>
      <trkpt lat="37.05411" lon="-3.34065">
        <ele>3041.6</ele>
        <time>2021-08-05 21:12:46</time>
      </trkpt>
      <trkpt lat="37.0541" lon="-3.34064">
        <ele>3041.4</ele>
        <time>2021-08-05 21:12:47</time>
      </trkpt>
      <trkpt lat="37.0541" lon="-3.34063">
        <ele>3041.4</ele>
        <time>2021-08-05 21:12:48</time>
      </trkpt>
      <trkpt lat="37.05409" lon="-3.34062">
        <ele>3041.4</ele>
        <time>2021-08-05 21:12:49</time>
      </trkpt>
      <trkpt lat="37.05409" lon="-3.34061">
        <ele>3041.2</ele>
        <time>2021-08-05 21:12:50</time>
      </trkpt>
      <trkpt lat="37.05409" lon="-3.34059">
        <ele>3041</ele>
        <time>2021-08-05 21:12:51</time>
      </trkpt>
      <trkpt lat="37.05409" lon="-3.34058">
        <ele>3041</ele>
        <time>2021-08-05 21:12:52</time>
      </trkpt>
      <trkpt lat="37.05409" lon="-3.34057">
        <ele>3040.8</ele>
        <time>2021-08-05 21:12:53</time>
      </trkpt>
      <trkpt lat="37.05408" lon="-3.34056">
        <ele>3040.8</ele>
        <time>2021-08-05 21:12:54</time>
      </trkpt>
      <trkpt lat="37.05408" lon="-3.34055">
        <ele>3040.8</ele>
        <time>2021-08-05 21:12:55</time>
      </trkpt>
      <trkpt lat="37.05408" lon="-3.34054">
        <ele>3040.8</ele>
        <time>2021-08-05 21:12:56</time>
      </trkpt>
      <trkpt lat="37.05408" lon="-3.34052">
        <ele>3040.6</ele>
        <time>2021-08-05 21:12:57</time>
      </trkpt>
      <trkpt lat="37.05407" lon="-3.34051">
        <ele>3040.6</ele>
        <time>2021-08-05 21:12:58</time>
      </trkpt>
      <trkpt lat="37.05407" lon="-3.3405">
        <ele>3040.6</ele>
        <time>2021-08-05 21:12:59</time>
      </trkpt>
      <trkpt lat="37.05407" lon="-3.34049">
        <ele>3040.6</ele>
        <time>2021-08-05 21:13:00</time>
      </trkpt>
      <trkpt lat="37.05407" lon="-3.34048">
        <ele>3040.6</ele>
        <time>2021-08-05 21:13:01</time>
      </trkpt>
      <trkpt lat="37.05407" lon="-3.34047">
        <ele>3040.6</ele>
        <time>2021-08-05 21:13:02</time>
      </trkpt>
      <trkpt lat="37.05407" lon="-3.34047">
        <ele>3040.6</ele>
        <time>2021-08-05 21:13:03</time>
      </trkpt>
      <trkpt lat="37.05407" lon="-3.34046">
        <ele>3040.6</ele>
        <time>2021-08-05 21:13:04</time>
      </trkpt>
      <trkpt lat="37.05407" lon="-3.34045">
        <ele>3040.4</ele>
        <time>2021-08-05 21:13:05</time>
      </trkpt>
      <trkpt lat="37.05407" lon="-3.34044">
        <ele>3040.4</ele>
        <time>2021-08-05 21:13:06</time>
      </trkpt>
      <trkpt lat="37.05407" lon="-3.34043">
        <ele>3040.4</ele>
        <time>2021-08-05 21:13:07</time>
      </trkpt>
      <trkpt lat="37.05407" lon="-3.34042">
        <ele>3040.4</ele>
        <time>2021-08-05 21:13:08</time>
      </trkpt>
      <trkpt lat="37.05406" lon="-3.34041">
        <ele>3040.2</ele>
        <time>2021-08-05 21:13:09</time>
      </trkpt>
      <trkpt lat="37.05406" lon="-3.3404">
        <ele>3040.2</ele>
        <time>2021-08-05 21:13:10</time>
      </trkpt>
      <trkpt lat="37.05406" lon="-3.34039">
        <ele>3040.4</ele>
        <time>2021-08-05 21:13:11</time>
      </trkpt>
      <trkpt lat="37.05406" lon="-3.34038">
        <ele>3040.4</ele>
        <time>2021-08-05 21:13:12</time>
      </trkpt>
      <trkpt lat="37.05406" lon="-3.34037">
        <ele>3040.4</ele>
        <time>2021-08-05 21:13:13</time>
      </trkpt>
      <trkpt lat="37.05405" lon="-3.34035">
        <ele>3040.4</ele>
        <time>2021-08-05 21:13:14</time>
      </trkpt>
      <trkpt lat="37.05405" lon="-3.34034">
        <ele>3040.4</ele>
        <time>2021-08-05 21:13:15</time>
      </trkpt>
      <trkpt lat="37.05405" lon="-3.34033">
        <ele>3040.2</ele>
        <time>2021-08-05 21:13:16</time>
      </trkpt>
      <trkpt lat="37.05404" lon="-3.34032">
        <ele>3040.2</ele>
        <time>2021-08-05 21:13:17</time>
      </trkpt>
      <trkpt lat="37.05404" lon="-3.34031">
        <ele>3040</ele>
        <time>2021-08-05 21:13:18</time>
      </trkpt>
      <trkpt lat="37.05404" lon="-3.34029">
        <ele>3040</ele>
        <time>2021-08-05 21:13:19</time>
      </trkpt>
      <trkpt lat="37.05404" lon="-3.34028">
        <ele>3040</ele>
        <time>2021-08-05 21:13:20</time>
      </trkpt>
      <trkpt lat="37.05404" lon="-3.34027">
        <ele>3040</ele>
        <time>2021-08-05 21:13:21</time>
      </trkpt>
      <trkpt lat="37.05404" lon="-3.34026">
        <ele>3040</ele>
        <time>2021-08-05 21:13:22</time>
      </trkpt>
      <trkpt lat="37.05403" lon="-3.34025">
        <ele>3040.2</ele>
        <time>2021-08-05 21:13:23</time>
      </trkpt>
      <trkpt lat="37.05403" lon="-3.34024">
        <ele>3040.2</ele>
        <time>2021-08-05 21:13:24</time>
      </trkpt>
      <trkpt lat="37.05403" lon="-3.34023">
        <ele>3040.4</ele>
        <time>2021-08-05 21:13:25</time>
      </trkpt>
      <trkpt lat="37.05403" lon="-3.34022">
        <ele>3040.4</ele>
        <time>2021-08-05 21:13:26</time>
      </trkpt>
      <trkpt lat="37.05403" lon="-3.34022">
        <ele>3040.2</ele>
        <time>2021-08-05 21:13:27</time>
      </trkpt>
      <trkpt lat="37.05403" lon="-3.34021">
        <ele>3040</ele>
        <time>2021-08-05 21:13:28</time>
      </trkpt>
      <trkpt lat="37.05403" lon="-3.3402">
        <ele>3039.8</ele>
        <time>2021-08-05 21:13:29</time>
      </trkpt>
      <trkpt lat="37.05403" lon="-3.34019">
        <ele>3039.8</ele>
        <time>2021-08-05 21:13:30</time>
      </trkpt>
      <trkpt lat="37.05403" lon="-3.34018">
        <ele>3039.8</ele>
        <time>2021-08-05 21:13:31</time>
      </trkpt>
      <trkpt lat="37.05403" lon="-3.34018">
        <ele>3039.8</ele>
        <time>2021-08-05 21:13:32</time>
      </trkpt>
      <trkpt lat="37.05403" lon="-3.34017">
        <ele>3039.8</ele>
        <time>2021-08-05 21:13:33</time>
      </trkpt>
      <trkpt lat="37.05403" lon="-3.34017">
        <ele>3039.8</ele>
        <time>2021-08-05 21:13:34</time>
      </trkpt>
      <trkpt lat="37.05403" lon="-3.34017">
        <ele>3040</ele>
        <time>2021-08-05 21:13:35</time>
      </trkpt>
      <trkpt lat="37.05403" lon="-3.34017">
        <ele>3040.2</ele>
        <time>2021-08-05 21:13:36</time>
      </trkpt>
      <trkpt lat="37.05403" lon="-3.34017">
        <ele>3040.2</ele>
        <time>2021-08-05 21:13:37</time>
      </trkpt>
      <trkpt lat="37.05403" lon="-3.34017">
        <ele>3040</ele>
        <time>2021-08-05 21:13:38</time>
      </trkpt>
      <trkpt lat="37.05403" lon="-3.34018">
        <ele>3040</ele>
        <time>2021-08-05 21:13:39</time>
      </trkpt>
      <trkpt lat="37.05404" lon="-3.34018">
        <ele>3039.8</ele>
        <time>2021-08-05 21:13:40</time>
      </trkpt>
      <trkpt lat="37.05404" lon="-3.34019">
        <ele>3039.8</ele>
        <time>2021-08-05 21:13:41</time>
      </trkpt>
      <trkpt lat="37.05404" lon="-3.34019">
        <ele>3039.8</ele>
        <time>2021-08-05 21:13:42</time>
      </trkpt>
      <trkpt lat="37.05404" lon="-3.34019">
        <ele>3039.8</ele>
        <time>2021-08-05 21:13:43</time>
      </trkpt>
      <trkpt lat="37.05404" lon="-3.34019">
        <ele>3039.8</ele>
        <time>2021-08-05 21:13:44</time>
      </trkpt>
      <trkpt lat="37.05404" lon="-3.34019">
        <ele>3039.6</ele>
        <time>2021-08-05 21:13:45</time>
      </trkpt>
      <trkpt lat="37.05404" lon="-3.34019">
        <ele>3039.6</ele>
        <time>2021-08-05 21:13:46</time>
      </trkpt>
      <trkpt lat="37.05404" lon="-3.34018">
        <ele>3039.6</ele>
        <time>2021-08-05 21:13:47</time>
      </trkpt>
      <trkpt lat="37.05405" lon="-3.34018">
        <ele>3039.4</ele>
        <time>2021-08-05 21:13:48</time>
      </trkpt>
      <trkpt lat="37.05405" lon="-3.34018">
        <ele>3039.4</ele>
        <time>2021-08-05 21:13:49</time>
      </trkpt>
      <trkpt lat="37.05405" lon="-3.34018">
        <ele>3039.4</ele>
        <time>2021-08-05 21:13:50</time>
      </trkpt>
      <trkpt lat="37.05405" lon="-3.34018">
        <ele>3039.4</ele>
        <time>2021-08-05 21:13:51</time>
      </trkpt>
      <trkpt lat="37.05405" lon="-3.34018">
        <ele>3039.6</ele>
        <time>2021-08-05 21:13:52</time>
      </trkpt>
      <trkpt lat="37.05406" lon="-3.34018">
        <ele>3039.6</ele>
        <time>2021-08-05 21:13:53</time>
      </trkpt>
      <trkpt lat="37.05406" lon="-3.34018">
        <ele>3039.6</ele>
        <time>2021-08-05 21:13:54</time>
      </trkpt>
      <trkpt lat="37.05406" lon="-3.34018">
        <ele>3039.6</ele>
        <time>2021-08-05 21:13:55</time>
      </trkpt>
      <trkpt lat="37.05406" lon="-3.34018">
        <ele>3039.8</ele>
        <time>2021-08-05 21:13:56</time>
      </trkpt>
      <trkpt lat="37.05406" lon="-3.34018">
        <ele>3039.8</ele>
        <time>2021-08-05 21:13:57</time>
      </trkpt>
      <trkpt lat="37.05406" lon="-3.34018">
        <ele>3039.8</ele>
        <time>2021-08-05 21:13:58</time>
      </trkpt>
      <trkpt lat="37.05406" lon="-3.34018">
        <ele>3040</ele>
        <time>2021-08-05 21:13:59</time>
      </trkpt>
      <trkpt lat="37.05405" lon="-3.34018">
        <ele>3040</ele>
        <time>2021-08-05 21:14:00</time>
      </trkpt>
      <trkpt lat="37.05405" lon="-3.34018">
        <ele>3040.2</ele>
        <time>2021-08-05 21:14:01</time>
      </trkpt>
      <trkpt lat="37.05405" lon="-3.34018">
        <ele>3040.2</ele>
        <time>2021-08-05 21:14:02</time>
      </trkpt>
      <trkpt lat="37.05405" lon="-3.34018">
        <ele>3040</ele>
        <time>2021-08-05 21:14:03</time>
      </trkpt>
      <trkpt lat="37.05406" lon="-3.34017">
        <ele>3040</ele>
        <time>2021-08-05 21:14:04</time>
      </trkpt>
      <trkpt lat="37.05406" lon="-3.34017">
        <ele>3040</ele>
        <time>2021-08-05 21:14:05</time>
      </trkpt>
      <trkpt lat="37.05406" lon="-3.34016">
        <ele>3040</ele>
        <time>2021-08-05 21:14:06</time>
      </trkpt>
      <trkpt lat="37.05406" lon="-3.34016">
        <ele>3039.8</ele>
        <time>2021-08-05 21:14:07</time>
      </trkpt>
      <trkpt lat="37.05406" lon="-3.34016">
        <ele>3039.8</ele>
        <time>2021-08-05 21:14:08</time>
      </trkpt>
      <trkpt lat="37.05406" lon="-3.34015">
        <ele>3039.8</ele>
        <time>2021-08-05 21:14:09</time>
      </trkpt>
      <trkpt lat="37.05406" lon="-3.34015">
        <ele>3039.8</ele>
        <time>2021-08-05 21:14:10</time>
      </trkpt>
      <trkpt lat="37.05406" lon="-3.34015">
        <ele>3039.8</ele>
        <time>2021-08-05 21:14:11</time>
      </trkpt>
      <trkpt lat="37.05406" lon="-3.34015">
        <ele>3039.6</ele>
        <time>2021-08-05 21:14:12</time>
      </trkpt>
      <trkpt lat="37.05406" lon="-3.34014">
        <ele>3039.6</ele>
        <time>2021-08-05 21:14:13</time>
      </trkpt>
      <trkpt lat="37.05406" lon="-3.34014">
        <ele>3039.6</ele>
        <time>2021-08-05 21:14:14</time>
      </trkpt>
      <trkpt lat="37.05406" lon="-3.34013">
        <ele>3039.6</ele>
        <time>2021-08-05 21:14:15</time>
      </trkpt>
      <trkpt lat="37.05406" lon="-3.34013">
        <ele>3039.6</ele>
        <time>2021-08-05 21:14:16</time>
      </trkpt>
      <trkpt lat="37.05406" lon="-3.34013">
        <ele>3039.6</ele>
        <time>2021-08-05 21:14:17</time>
      </trkpt>
      <trkpt lat="37.05405" lon="-3.34014">
        <ele>3039.6</ele>
        <time>2021-08-05 21:14:18</time>
      </trkpt>
      <trkpt lat="37.05405" lon="-3.34013">
        <ele>3039.6</ele>
        <time>2021-08-05 21:14:19</time>
      </trkpt>
      <trkpt lat="37.05405" lon="-3.34012">
        <ele>3039.6</ele>
        <time>2021-08-05 21:14:20</time>
      </trkpt>
      <trkpt lat="37.05405" lon="-3.34012">
        <ele>3039.8</ele>
        <time>2021-08-05 21:14:21</time>
      </trkpt>
      <trkpt lat="37.05406" lon="-3.34012">
        <ele>3039.8</ele>
        <time>2021-08-05 21:14:22</time>
      </trkpt>
      <trkpt lat="37.05404" lon="-3.3401">
        <ele>3039.8</ele>
        <time>2021-08-05 21:14:23</time>
      </trkpt>
      <trkpt lat="37.05404" lon="-3.3401">
        <ele>3040</ele>
        <time>2021-08-05 21:14:24</time>
      </trkpt>
      <trkpt lat="37.05404" lon="-3.3401">
        <ele>3039.8</ele>
        <time>2021-08-05 21:14:25</time>
      </trkpt>
      <trkpt lat="37.05404" lon="-3.3401">
        <ele>3039.8</ele>
        <time>2021-08-05 21:14:26</time>
      </trkpt>
      <trkpt lat="37.05404" lon="-3.34011">
        <ele>3039.8</ele>
        <time>2021-08-05 21:14:27</time>
      </trkpt>
      <trkpt lat="37.05404" lon="-3.34011">
        <ele>3039.6</ele>
        <time>2021-08-05 21:14:28</time>
      </trkpt>
      <trkpt lat="37.05404" lon="-3.34011">
        <ele>3039.6</ele>
        <time>2021-08-05 21:14:29</time>
      </trkpt>
      <trkpt lat="37.05404" lon="-3.34011">
        <ele>3039.6</ele>
        <time>2021-08-05 21:14:30</time>
      </trkpt>
      <trkpt lat="37.05404" lon="-3.34011">
        <ele>3039.6</ele>
        <time>2021-08-05 21:14:31</time>
      </trkpt>
      <trkpt lat="37.05404" lon="-3.34011">
        <ele>3039.6</ele>
        <time>2021-08-05 21:14:32</time>
      </trkpt>
      <trkpt lat="37.05404" lon="-3.3401">
        <ele>3039.6</ele>
        <time>2021-08-05 21:14:33</time>
      </trkpt>
      <trkpt lat="37.05403" lon="-3.3401">
        <ele>3039.6</ele>
        <time>2021-08-05 21:14:34</time>
      </trkpt>
      <trkpt lat="37.05403" lon="-3.34009">
        <ele>3040</ele>
        <time>2021-08-05 21:14:35</time>
      </trkpt>
      <trkpt lat="37.05403" lon="-3.34009">
        <ele>3040.2</ele>
        <time>2021-08-05 21:14:36</time>
      </trkpt>
      <trkpt lat="37.05402" lon="-3.34008">
        <ele>3040.4</ele>
        <time>2021-08-05 21:14:37</time>
      </trkpt>
      <trkpt lat="37.05402" lon="-3.34007">
        <ele>3040.4</ele>
        <time>2021-08-05 21:14:38</time>
      </trkpt>
      <trkpt lat="37.05402" lon="-3.34006">
        <ele>3040.4</ele>
        <time>2021-08-05 21:14:39</time>
      </trkpt>
      <trkpt lat="37.05401" lon="-3.34005">
        <ele>3040.4</ele>
        <time>2021-08-05 21:14:40</time>
      </trkpt>
      <trkpt lat="37.05401" lon="-3.34005">
        <ele>3040.2</ele>
        <time>2021-08-05 21:14:41</time>
      </trkpt>
      <trkpt lat="37.05401" lon="-3.34004">
        <ele>3040.2</ele>
        <time>2021-08-05 21:14:42</time>
      </trkpt>
      <trkpt lat="37.054" lon="-3.34003">
        <ele>3040.2</ele>
        <time>2021-08-05 21:14:43</time>
      </trkpt>
      <trkpt lat="37.054" lon="-3.34002">
        <ele>3040.6</ele>
        <time>2021-08-05 21:14:44</time>
      </trkpt>
      <trkpt lat="37.05399" lon="-3.34001">
        <ele>3040.6</ele>
        <time>2021-08-05 21:14:45</time>
      </trkpt>
      <trkpt lat="37.05399" lon="-3.33999">
        <ele>3040.8</ele>
        <time>2021-08-05 21:14:46</time>
      </trkpt>
      <trkpt lat="37.05399" lon="-3.33998">
        <ele>3040.8</ele>
        <time>2021-08-05 21:14:47</time>
      </trkpt>
      <trkpt lat="37.05399" lon="-3.33997">
        <ele>3040.8</ele>
        <time>2021-08-05 21:14:48</time>
      </trkpt>
      <trkpt lat="37.05399" lon="-3.33996">
        <ele>3040.8</ele>
        <time>2021-08-05 21:14:49</time>
      </trkpt>
      <trkpt lat="37.05399" lon="-3.33994">
        <ele>3040.8</ele>
        <time>2021-08-05 21:14:50</time>
      </trkpt>
      <trkpt lat="37.05399" lon="-3.33993">
        <ele>3040.8</ele>
        <time>2021-08-05 21:14:51</time>
      </trkpt>
      <trkpt lat="37.05399" lon="-3.33992">
        <ele>3040.8</ele>
        <time>2021-08-05 21:14:52</time>
      </trkpt>
      <trkpt lat="37.05398" lon="-3.33991">
        <ele>3040.8</ele>
        <time>2021-08-05 21:14:53</time>
      </trkpt>
      <trkpt lat="37.05398" lon="-3.3399">
        <ele>3040.8</ele>
        <time>2021-08-05 21:14:54</time>
      </trkpt>
      <trkpt lat="37.05398" lon="-3.33989">
        <ele>3041</ele>
        <time>2021-08-05 21:14:55</time>
      </trkpt>
      <trkpt lat="37.05397" lon="-3.33988">
        <ele>3041.2</ele>
        <time>2021-08-05 21:14:56</time>
      </trkpt>
      <trkpt lat="37.05397" lon="-3.33987">
        <ele>3041.2</ele>
        <time>2021-08-05 21:14:57</time>
      </trkpt>
      <trkpt lat="37.05397" lon="-3.33986">
        <ele>3041.2</ele>
        <time>2021-08-05 21:14:58</time>
      </trkpt>
      <trkpt lat="37.05397" lon="-3.33985">
        <ele>3041.4</ele>
        <time>2021-08-05 21:14:59</time>
      </trkpt>
      <trkpt lat="37.05397" lon="-3.33984">
        <ele>3041.6</ele>
        <time>2021-08-05 21:15:00</time>
      </trkpt>
      <trkpt lat="37.05397" lon="-3.33983">
        <ele>3041.4</ele>
        <time>2021-08-05 21:15:01</time>
      </trkpt>
      <trkpt lat="37.05397" lon="-3.33982">
        <ele>3041.6</ele>
        <time>2021-08-05 21:15:02</time>
      </trkpt>
      <trkpt lat="37.05396" lon="-3.3398">
        <ele>3041.6</ele>
        <time>2021-08-05 21:15:03</time>
      </trkpt>
      <trkpt lat="37.05396" lon="-3.33979">
        <ele>3041.4</ele>
        <time>2021-08-05 21:15:04</time>
      </trkpt>
      <trkpt lat="37.05396" lon="-3.33978">
        <ele>3041.4</ele>
        <time>2021-08-05 21:15:05</time>
      </trkpt>
      <trkpt lat="37.05396" lon="-3.33977">
        <ele>3041.4</ele>
        <time>2021-08-05 21:15:06</time>
      </trkpt>
      <trkpt lat="37.05395" lon="-3.33976">
        <ele>3041.4</ele>
        <time>2021-08-05 21:15:07</time>
      </trkpt>
      <trkpt lat="37.05395" lon="-3.33975">
        <ele>3041.6</ele>
        <time>2021-08-05 21:15:08</time>
      </trkpt>
      <trkpt lat="37.05395" lon="-3.33974">
        <ele>3041.6</ele>
        <time>2021-08-05 21:15:09</time>
      </trkpt>
      <trkpt lat="37.05394" lon="-3.33973">
        <ele>3041.6</ele>
        <time>2021-08-05 21:15:10</time>
      </trkpt>
      <trkpt lat="37.05394" lon="-3.33972">
        <ele>3042</ele>
        <time>2021-08-05 21:15:11</time>
      </trkpt>
      <trkpt lat="37.05394" lon="-3.3397">
        <ele>3042.2</ele>
        <time>2021-08-05 21:15:12</time>
      </trkpt>
      <trkpt lat="37.05394" lon="-3.33969">
        <ele>3042.4</ele>
        <time>2021-08-05 21:15:13</time>
      </trkpt>
      <trkpt lat="37.05393" lon="-3.33968">
        <ele>3042.6</ele>
        <time>2021-08-05 21:15:14</time>
      </trkpt>
      <trkpt lat="37.05393" lon="-3.33967">
        <ele>3042.8</ele>
        <time>2021-08-05 21:15:15</time>
      </trkpt>
      <trkpt lat="37.05393" lon="-3.33966">
        <ele>3043</ele>
        <time>2021-08-05 21:15:16</time>
      </trkpt>
      <trkpt lat="37.05393" lon="-3.33966">
        <ele>3043.2</ele>
        <time>2021-08-05 21:15:17</time>
      </trkpt>
      <trkpt lat="37.05393" lon="-3.33965">
        <ele>3043.2</ele>
        <time>2021-08-05 21:15:18</time>
      </trkpt>
      <trkpt lat="37.05393" lon="-3.33964">
        <ele>3043.2</ele>
        <time>2021-08-05 21:15:19</time>
      </trkpt>
      <trkpt lat="37.05393" lon="-3.33963">
        <ele>3043.4</ele>
        <time>2021-08-05 21:15:20</time>
      </trkpt>
      <trkpt lat="37.05394" lon="-3.33962">
        <ele>3043.4</ele>
        <time>2021-08-05 21:15:21</time>
      </trkpt>
      <trkpt lat="37.05394" lon="-3.33961">
        <ele>3043.4</ele>
        <time>2021-08-05 21:15:22</time>
      </trkpt>
      <trkpt lat="37.05394" lon="-3.3396">
        <ele>3043.4</ele>
        <time>2021-08-05 21:15:23</time>
      </trkpt>
      <trkpt lat="37.05393" lon="-3.3396">
        <ele>3043.4</ele>
        <time>2021-08-05 21:15:24</time>
      </trkpt>
      <trkpt lat="37.05393" lon="-3.33959">
        <ele>3043.6</ele>
        <time>2021-08-05 21:15:25</time>
      </trkpt>
      <trkpt lat="37.05393" lon="-3.33958">
        <ele>3043.8</ele>
        <time>2021-08-05 21:15:26</time>
      </trkpt>
      <trkpt lat="37.05393" lon="-3.33957">
        <ele>3043.8</ele>
        <time>2021-08-05 21:15:27</time>
      </trkpt>
      <trkpt lat="37.05393" lon="-3.33956">
        <ele>3043.8</ele>
        <time>2021-08-05 21:15:28</time>
      </trkpt>
      <trkpt lat="37.05393" lon="-3.33955">
        <ele>3044</ele>
        <time>2021-08-05 21:15:29</time>
      </trkpt>
      <trkpt lat="37.05393" lon="-3.33954">
        <ele>3044</ele>
        <time>2021-08-05 21:15:30</time>
      </trkpt>
      <trkpt lat="37.05393" lon="-3.33953">
        <ele>3044.2</ele>
        <time>2021-08-05 21:15:31</time>
      </trkpt>
      <trkpt lat="37.05393" lon="-3.33952">
        <ele>3044.2</ele>
        <time>2021-08-05 21:15:32</time>
      </trkpt>
      <trkpt lat="37.05393" lon="-3.33952">
        <ele>3044.2</ele>
        <time>2021-08-05 21:15:33</time>
      </trkpt>
      <trkpt lat="37.05393" lon="-3.33951">
        <ele>3044.2</ele>
        <time>2021-08-05 21:15:34</time>
      </trkpt>
      <trkpt lat="37.05393" lon="-3.3395">
        <ele>3044.2</ele>
        <time>2021-08-05 21:15:35</time>
      </trkpt>
      <trkpt lat="37.05393" lon="-3.33949">
        <ele>3044.2</ele>
        <time>2021-08-05 21:15:36</time>
      </trkpt>
      <trkpt lat="37.05393" lon="-3.33949">
        <ele>3044.2</ele>
        <time>2021-08-05 21:15:37</time>
      </trkpt>
      <trkpt lat="37.05394" lon="-3.33948">
        <ele>3044.2</ele>
        <time>2021-08-05 21:15:38</time>
      </trkpt>
      <trkpt lat="37.05394" lon="-3.33947">
        <ele>3044.4</ele>
        <time>2021-08-05 21:15:39</time>
      </trkpt>
      <trkpt lat="37.05394" lon="-3.33946">
        <ele>3044.4</ele>
        <time>2021-08-05 21:15:40</time>
      </trkpt>
      <trkpt lat="37.05394" lon="-3.33945">
        <ele>3044.6</ele>
        <time>2021-08-05 21:15:41</time>
      </trkpt>
      <trkpt lat="37.05394" lon="-3.33944">
        <ele>3044.6</ele>
        <time>2021-08-05 21:15:42</time>
      </trkpt>
      <trkpt lat="37.05394" lon="-3.33943">
        <ele>3044.6</ele>
        <time>2021-08-05 21:15:43</time>
      </trkpt>
      <trkpt lat="37.05395" lon="-3.33943">
        <ele>3044.6</ele>
        <time>2021-08-05 21:15:44</time>
      </trkpt>
      <trkpt lat="37.05395" lon="-3.33942">
        <ele>3044.6</ele>
        <time>2021-08-05 21:15:45</time>
      </trkpt>
      <trkpt lat="37.05395" lon="-3.3394">
        <ele>3044.8</ele>
        <time>2021-08-05 21:15:46</time>
      </trkpt>
      <trkpt lat="37.05395" lon="-3.33939">
        <ele>3044.8</ele>
        <time>2021-08-05 21:15:47</time>
      </trkpt>
      <trkpt lat="37.05396" lon="-3.33938">
        <ele>3044.8</ele>
        <time>2021-08-05 21:15:48</time>
      </trkpt>
      <trkpt lat="37.05396" lon="-3.33938">
        <ele>3045</ele>
        <time>2021-08-05 21:15:49</time>
      </trkpt>
      <trkpt lat="37.05396" lon="-3.33937">
        <ele>3045.2</ele>
        <time>2021-08-05 21:15:50</time>
      </trkpt>
      <trkpt lat="37.05396" lon="-3.33936">
        <ele>3045.2</ele>
        <time>2021-08-05 21:15:51</time>
      </trkpt>
      <trkpt lat="37.05396" lon="-3.33935">
        <ele>3045.4</ele>
        <time>2021-08-05 21:15:52</time>
      </trkpt>
      <trkpt lat="37.05396" lon="-3.33934">
        <ele>3045.4</ele>
        <time>2021-08-05 21:15:53</time>
      </trkpt>
      <trkpt lat="37.05396" lon="-3.33934">
        <ele>3045.6</ele>
        <time>2021-08-05 21:15:54</time>
      </trkpt>
      <trkpt lat="37.05396" lon="-3.33933">
        <ele>3045.8</ele>
        <time>2021-08-05 21:15:55</time>
      </trkpt>
      <trkpt lat="37.05396" lon="-3.33932">
        <ele>3046</ele>
        <time>2021-08-05 21:15:56</time>
      </trkpt>
      <trkpt lat="37.05395" lon="-3.33931">
        <ele>3046.2</ele>
        <time>2021-08-05 21:15:57</time>
      </trkpt>
      <trkpt lat="37.05395" lon="-3.3393">
        <ele>3046.4</ele>
        <time>2021-08-05 21:15:58</time>
      </trkpt>
      <trkpt lat="37.05395" lon="-3.3393">
        <ele>3046.6</ele>
        <time>2021-08-05 21:15:59</time>
      </trkpt>
      <trkpt lat="37.05395" lon="-3.33929">
        <ele>3046.6</ele>
        <time>2021-08-05 21:16:00</time>
      </trkpt>
      <trkpt lat="37.05394" lon="-3.33928">
        <ele>3046.6</ele>
        <time>2021-08-05 21:16:01</time>
      </trkpt>
      <trkpt lat="37.05394" lon="-3.33927">
        <ele>3046.6</ele>
        <time>2021-08-05 21:16:02</time>
      </trkpt>
      <trkpt lat="37.05395" lon="-3.33927">
        <ele>3046.6</ele>
        <time>2021-08-05 21:16:03</time>
      </trkpt>
      <trkpt lat="37.05395" lon="-3.33926">
        <ele>3046.4</ele>
        <time>2021-08-05 21:16:04</time>
      </trkpt>
      <trkpt lat="37.05395" lon="-3.33926">
        <ele>3046.4</ele>
        <time>2021-08-05 21:16:05</time>
      </trkpt>
      <trkpt lat="37.05395" lon="-3.33926">
        <ele>3046.4</ele>
        <time>2021-08-05 21:16:06</time>
      </trkpt>
      <trkpt lat="37.05395" lon="-3.33925">
        <ele>3046.6</ele>
        <time>2021-08-05 21:16:07</time>
      </trkpt>
      <trkpt lat="37.05395" lon="-3.33924">
        <ele>3046.6</ele>
        <time>2021-08-05 21:16:08</time>
      </trkpt>
      <trkpt lat="37.05394" lon="-3.33923">
        <ele>3046.8</ele>
        <time>2021-08-05 21:16:09</time>
      </trkpt>
      <trkpt lat="37.05394" lon="-3.33922">
        <ele>3046.8</ele>
        <time>2021-08-05 21:16:10</time>
      </trkpt>
      <trkpt lat="37.05394" lon="-3.3392">
        <ele>3046.8</ele>
        <time>2021-08-05 21:16:11</time>
      </trkpt>
      <trkpt lat="37.05394" lon="-3.33919">
        <ele>3046.8</ele>
        <time>2021-08-05 21:16:12</time>
      </trkpt>
      <trkpt lat="37.05394" lon="-3.33918">
        <ele>3047</ele>
        <time>2021-08-05 21:16:13</time>
      </trkpt>
      <trkpt lat="37.05394" lon="-3.33917">
        <ele>3047</ele>
        <time>2021-08-05 21:16:14</time>
      </trkpt>
      <trkpt lat="37.05394" lon="-3.33916">
        <ele>3047</ele>
        <time>2021-08-05 21:16:15</time>
      </trkpt>
      <trkpt lat="37.05394" lon="-3.33915">
        <ele>3047.2</ele>
        <time>2021-08-05 21:16:16</time>
      </trkpt>
      <trkpt lat="37.05394" lon="-3.33914">
        <ele>3047.4</ele>
        <time>2021-08-05 21:16:17</time>
      </trkpt>
      <trkpt lat="37.05394" lon="-3.33914">
        <ele>3047.8</ele>
        <time>2021-08-05 21:16:18</time>
      </trkpt>
      <trkpt lat="37.05394" lon="-3.33913">
        <ele>3048</ele>
        <time>2021-08-05 21:16:19</time>
      </trkpt>
      <trkpt lat="37.05394" lon="-3.33912">
        <ele>3048</ele>
        <time>2021-08-05 21:16:20</time>
      </trkpt>
      <trkpt lat="37.05394" lon="-3.33911">
        <ele>3048.2</ele>
        <time>2021-08-05 21:16:21</time>
      </trkpt>
      <trkpt lat="37.05394" lon="-3.3391">
        <ele>3048.2</ele>
        <time>2021-08-05 21:16:22</time>
      </trkpt>
      <trkpt lat="37.05394" lon="-3.33909">
        <ele>3048.2</ele>
        <time>2021-08-05 21:16:23</time>
      </trkpt>
      <trkpt lat="37.05394" lon="-3.33908">
        <ele>3048.2</ele>
        <time>2021-08-05 21:16:24</time>
      </trkpt>
      <trkpt lat="37.05394" lon="-3.33907">
        <ele>3048.2</ele>
        <time>2021-08-05 21:16:25</time>
      </trkpt>
      <trkpt lat="37.05394" lon="-3.33906">
        <ele>3048.4</ele>
        <time>2021-08-05 21:16:26</time>
      </trkpt>
      <trkpt lat="37.05394" lon="-3.33905">
        <ele>3048.6</ele>
        <time>2021-08-05 21:16:27</time>
      </trkpt>
      <trkpt lat="37.05393" lon="-3.33904">
        <ele>3048.6</ele>
        <time>2021-08-05 21:16:28</time>
      </trkpt>
      <trkpt lat="37.05393" lon="-3.33903">
        <ele>3048.8</ele>
        <time>2021-08-05 21:16:29</time>
      </trkpt>
      <trkpt lat="37.05393" lon="-3.33902">
        <ele>3049</ele>
        <time>2021-08-05 21:16:30</time>
      </trkpt>
      <trkpt lat="37.05393" lon="-3.33901">
        <ele>3049</ele>
        <time>2021-08-05 21:16:31</time>
      </trkpt>
      <trkpt lat="37.05393" lon="-3.339">
        <ele>3049.2</ele>
        <time>2021-08-05 21:16:32</time>
      </trkpt>
      <trkpt lat="37.05392" lon="-3.33899">
        <ele>3049.2</ele>
        <time>2021-08-05 21:16:33</time>
      </trkpt>
      <trkpt lat="37.05392" lon="-3.33898">
        <ele>3049.2</ele>
        <time>2021-08-05 21:16:34</time>
      </trkpt>
      <trkpt lat="37.05392" lon="-3.33897">
        <ele>3049.2</ele>
        <time>2021-08-05 21:16:35</time>
      </trkpt>
      <trkpt lat="37.05392" lon="-3.33896">
        <ele>3049.2</ele>
        <time>2021-08-05 21:16:36</time>
      </trkpt>
      <trkpt lat="37.05392" lon="-3.33895">
        <ele>3049.2</ele>
        <time>2021-08-05 21:16:37</time>
      </trkpt>
      <trkpt lat="37.05392" lon="-3.33894">
        <ele>3049.4</ele>
        <time>2021-08-05 21:16:38</time>
      </trkpt>
      <trkpt lat="37.05392" lon="-3.33893">
        <ele>3049.4</ele>
        <time>2021-08-05 21:16:39</time>
      </trkpt>
      <trkpt lat="37.05391" lon="-3.33893">
        <ele>3049.6</ele>
        <time>2021-08-05 21:16:40</time>
      </trkpt>
      <trkpt lat="37.05391" lon="-3.33892">
        <ele>3049.6</ele>
        <time>2021-08-05 21:16:41</time>
      </trkpt>
      <trkpt lat="37.05391" lon="-3.33891">
        <ele>3049.8</ele>
        <time>2021-08-05 21:16:42</time>
      </trkpt>
      <trkpt lat="37.05392" lon="-3.3389">
        <ele>3050</ele>
        <time>2021-08-05 21:16:43</time>
      </trkpt>
      <trkpt lat="37.05391" lon="-3.33889">
        <ele>3050</ele>
        <time>2021-08-05 21:16:44</time>
      </trkpt>
      <trkpt lat="37.05391" lon="-3.33888">
        <ele>3050</ele>
        <time>2021-08-05 21:16:45</time>
      </trkpt>
      <trkpt lat="37.05391" lon="-3.33887">
        <ele>3050.2</ele>
        <time>2021-08-05 21:16:46</time>
      </trkpt>
      <trkpt lat="37.05391" lon="-3.33886">
        <ele>3050.2</ele>
        <time>2021-08-05 21:16:47</time>
      </trkpt>
      <trkpt lat="37.05392" lon="-3.33885">
        <ele>3050.2</ele>
        <time>2021-08-05 21:16:48</time>
      </trkpt>
      <trkpt lat="37.05392" lon="-3.33884">
        <ele>3050.2</ele>
        <time>2021-08-05 21:16:49</time>
      </trkpt>
      <trkpt lat="37.05392" lon="-3.33883">
        <ele>3050.2</ele>
        <time>2021-08-05 21:16:50</time>
      </trkpt>
      <trkpt lat="37.05392" lon="-3.33882">
        <ele>3050.2</ele>
        <time>2021-08-05 21:16:51</time>
      </trkpt>
      <trkpt lat="37.05391" lon="-3.33881">
        <ele>3050.4</ele>
        <time>2021-08-05 21:16:52</time>
      </trkpt>
      <trkpt lat="37.05391" lon="-3.3388">
        <ele>3050.8</ele>
        <time>2021-08-05 21:16:53</time>
      </trkpt>
      <trkpt lat="37.05391" lon="-3.3388">
        <ele>3050.8</ele>
        <time>2021-08-05 21:16:54</time>
      </trkpt>
      <trkpt lat="37.05391" lon="-3.33878">
        <ele>3051</ele>
        <time>2021-08-05 21:16:55</time>
      </trkpt>
      <trkpt lat="37.05391" lon="-3.33877">
        <ele>3051</ele>
        <time>2021-08-05 21:16:56</time>
      </trkpt>
      <trkpt lat="37.05391" lon="-3.33876">
        <ele>3051</ele>
        <time>2021-08-05 21:16:57</time>
      </trkpt>
      <trkpt lat="37.0539" lon="-3.33875">
        <ele>3051</ele>
        <time>2021-08-05 21:16:58</time>
      </trkpt>
      <trkpt lat="37.0539" lon="-3.33875">
        <ele>3051</ele>
        <time>2021-08-05 21:16:59</time>
      </trkpt>
      <trkpt lat="37.0539" lon="-3.33875">
        <ele>3050.8</ele>
        <time>2021-08-05 21:17:00</time>
      </trkpt>
      <trkpt lat="37.0539" lon="-3.33875">
        <ele>3050.8</ele>
        <time>2021-08-05 21:17:01</time>
      </trkpt>
      <trkpt lat="37.05389" lon="-3.33874">
        <ele>3050.8</ele>
        <time>2021-08-05 21:17:02</time>
      </trkpt>
      <trkpt lat="37.05389" lon="-3.33874">
        <ele>3051</ele>
        <time>2021-08-05 21:17:03</time>
      </trkpt>
      <trkpt lat="37.05389" lon="-3.33873">
        <ele>3051</ele>
        <time>2021-08-05 21:17:04</time>
      </trkpt>
      <trkpt lat="37.05389" lon="-3.33872">
        <ele>3051</ele>
        <time>2021-08-05 21:17:05</time>
      </trkpt>
      <trkpt lat="37.05389" lon="-3.33871">
        <ele>3051.2</ele>
        <time>2021-08-05 21:17:06</time>
      </trkpt>
      <trkpt lat="37.05389" lon="-3.3387">
        <ele>3051.4</ele>
        <time>2021-08-05 21:17:07</time>
      </trkpt>
      <trkpt lat="37.05389" lon="-3.33868">
        <ele>3051.4</ele>
        <time>2021-08-05 21:17:08</time>
      </trkpt>
      <trkpt lat="37.05389" lon="-3.33867">
        <ele>3051.8</ele>
        <time>2021-08-05 21:17:09</time>
      </trkpt>
      <trkpt lat="37.05388" lon="-3.33866">
        <ele>3051.8</ele>
        <time>2021-08-05 21:17:10</time>
      </trkpt>
      <trkpt lat="37.05388" lon="-3.33865">
        <ele>3052</ele>
        <time>2021-08-05 21:17:11</time>
      </trkpt>
      <trkpt lat="37.05388" lon="-3.33863">
        <ele>3052</ele>
        <time>2021-08-05 21:17:12</time>
      </trkpt>
      <trkpt lat="37.05388" lon="-3.33862">
        <ele>3052.2</ele>
        <time>2021-08-05 21:17:13</time>
      </trkpt>
      <trkpt lat="37.05388" lon="-3.33861">
        <ele>3052</ele>
        <time>2021-08-05 21:17:14</time>
      </trkpt>
      <trkpt lat="37.05388" lon="-3.3386">
        <ele>3051.8</ele>
        <time>2021-08-05 21:17:15</time>
      </trkpt>
      <trkpt lat="37.05388" lon="-3.33859">
        <ele>3051.8</ele>
        <time>2021-08-05 21:17:16</time>
      </trkpt>
      <trkpt lat="37.05388" lon="-3.33858">
        <ele>3051.6</ele>
        <time>2021-08-05 21:17:17</time>
      </trkpt>
      <trkpt lat="37.05388" lon="-3.33856">
        <ele>3051.6</ele>
        <time>2021-08-05 21:17:18</time>
      </trkpt>
      <trkpt lat="37.05388" lon="-3.33855">
        <ele>3051.8</ele>
        <time>2021-08-05 21:17:19</time>
      </trkpt>
      <trkpt lat="37.05388" lon="-3.33854">
        <ele>3051.8</ele>
        <time>2021-08-05 21:17:20</time>
      </trkpt>
      <trkpt lat="37.05388" lon="-3.33853">
        <ele>3051.8</ele>
        <time>2021-08-05 21:17:21</time>
      </trkpt>
      <trkpt lat="37.05388" lon="-3.33852">
        <ele>3052</ele>
        <time>2021-08-05 21:17:22</time>
      </trkpt>
      <trkpt lat="37.05388" lon="-3.33851">
        <ele>3052.4</ele>
        <time>2021-08-05 21:17:23</time>
      </trkpt>
      <trkpt lat="37.05389" lon="-3.3385">
        <ele>3052.6</ele>
        <time>2021-08-05 21:17:24</time>
      </trkpt>
      <trkpt lat="37.05389" lon="-3.33849">
        <ele>3052.8</ele>
        <time>2021-08-05 21:17:25</time>
      </trkpt>
      <trkpt lat="37.05389" lon="-3.33848">
        <ele>3052.6</ele>
        <time>2021-08-05 21:17:26</time>
      </trkpt>
      <trkpt lat="37.05389" lon="-3.33847">
        <ele>3052.8</ele>
        <time>2021-08-05 21:17:27</time>
      </trkpt>
      <trkpt lat="37.05389" lon="-3.33846">
        <ele>3052.8</ele>
        <time>2021-08-05 21:17:28</time>
      </trkpt>
      <trkpt lat="37.05389" lon="-3.33845">
        <ele>3052.8</ele>
        <time>2021-08-05 21:17:29</time>
      </trkpt>
      <trkpt lat="37.05389" lon="-3.33844">
        <ele>3052.8</ele>
        <time>2021-08-05 21:17:30</time>
      </trkpt>
      <trkpt lat="37.0539" lon="-3.33843">
        <ele>3052.8</ele>
        <time>2021-08-05 21:17:31</time>
      </trkpt>
      <trkpt lat="37.0539" lon="-3.33842">
        <ele>3052.6</ele>
        <time>2021-08-05 21:17:32</time>
      </trkpt>
      <trkpt lat="37.0539" lon="-3.33841">
        <ele>3052.8</ele>
        <time>2021-08-05 21:17:33</time>
      </trkpt>
      <trkpt lat="37.05389" lon="-3.3384">
        <ele>3052.6</ele>
        <time>2021-08-05 21:17:34</time>
      </trkpt>
      <trkpt lat="37.05389" lon="-3.33839">
        <ele>3052.6</ele>
        <time>2021-08-05 21:17:35</time>
      </trkpt>
      <trkpt lat="37.05389" lon="-3.33838">
        <ele>3052.6</ele>
        <time>2021-08-05 21:17:36</time>
      </trkpt>
      <trkpt lat="37.05389" lon="-3.33837">
        <ele>3052.6</ele>
        <time>2021-08-05 21:17:37</time>
      </trkpt>
      <trkpt lat="37.05389" lon="-3.33836">
        <ele>3052.6</ele>
        <time>2021-08-05 21:17:38</time>
      </trkpt>
      <trkpt lat="37.05388" lon="-3.33835">
        <ele>3052.8</ele>
        <time>2021-08-05 21:17:39</time>
      </trkpt>
      <trkpt lat="37.05388" lon="-3.33834">
        <ele>3052.8</ele>
        <time>2021-08-05 21:17:40</time>
      </trkpt>
      <trkpt lat="37.05388" lon="-3.33833">
        <ele>3052.8</ele>
        <time>2021-08-05 21:17:41</time>
      </trkpt>
      <trkpt lat="37.05388" lon="-3.33832">
        <ele>3052.8</ele>
        <time>2021-08-05 21:17:42</time>
      </trkpt>
      <trkpt lat="37.05388" lon="-3.33831">
        <ele>3053</ele>
        <time>2021-08-05 21:17:43</time>
      </trkpt>
      <trkpt lat="37.05388" lon="-3.33831">
        <ele>3053.2</ele>
        <time>2021-08-05 21:17:44</time>
      </trkpt>
      <trkpt lat="37.05388" lon="-3.33831">
        <ele>3053.4</ele>
        <time>2021-08-05 21:17:45</time>
      </trkpt>
      <trkpt lat="37.05388" lon="-3.3383">
        <ele>3053.4</ele>
        <time>2021-08-05 21:17:46</time>
      </trkpt>
      <trkpt lat="37.05388" lon="-3.33829">
        <ele>3053.6</ele>
        <time>2021-08-05 21:17:47</time>
      </trkpt>
      <trkpt lat="37.05388" lon="-3.33828">
        <ele>3053.6</ele>
        <time>2021-08-05 21:17:48</time>
      </trkpt>
      <trkpt lat="37.05388" lon="-3.33827">
        <ele>3053.6</ele>
        <time>2021-08-05 21:17:49</time>
      </trkpt>
      <trkpt lat="37.05388" lon="-3.33827">
        <ele>3053.6</ele>
        <time>2021-08-05 21:17:50</time>
      </trkpt>
      <trkpt lat="37.05388" lon="-3.33826">
        <ele>3053.8</ele>
        <time>2021-08-05 21:17:51</time>
      </trkpt>
      <trkpt lat="37.05388" lon="-3.33825">
        <ele>3053.8</ele>
        <time>2021-08-05 21:17:52</time>
      </trkpt>
      <trkpt lat="37.05388" lon="-3.33824">
        <ele>3053.8</ele>
        <time>2021-08-05 21:17:53</time>
      </trkpt>
      <trkpt lat="37.05388" lon="-3.33823">
        <ele>3053.8</ele>
        <time>2021-08-05 21:17:54</time>
      </trkpt>
      <trkpt lat="37.05388" lon="-3.33822">
        <ele>3053.8</ele>
        <time>2021-08-05 21:17:55</time>
      </trkpt>
      <trkpt lat="37.05387" lon="-3.33822">
        <ele>3053.8</ele>
        <time>2021-08-05 21:17:56</time>
      </trkpt>
      <trkpt lat="37.05387" lon="-3.33821">
        <ele>3054</ele>
        <time>2021-08-05 21:17:57</time>
      </trkpt>
      <trkpt lat="37.05387" lon="-3.3382">
        <ele>3054</ele>
        <time>2021-08-05 21:17:58</time>
      </trkpt>
      <trkpt lat="37.05387" lon="-3.33819">
        <ele>3054.2</ele>
        <time>2021-08-05 21:17:59</time>
      </trkpt>
      <trkpt lat="37.05386" lon="-3.33817">
        <ele>3054.4</ele>
        <time>2021-08-05 21:18:00</time>
      </trkpt>
      <trkpt lat="37.05386" lon="-3.33816">
        <ele>3054.4</ele>
        <time>2021-08-05 21:18:01</time>
      </trkpt>
      <trkpt lat="37.05385" lon="-3.33815">
        <ele>3054.6</ele>
        <time>2021-08-05 21:18:02</time>
      </trkpt>
      <trkpt lat="37.05385" lon="-3.33814">
        <ele>3054.6</ele>
        <time>2021-08-05 21:18:03</time>
      </trkpt>
      <trkpt lat="37.05385" lon="-3.33814">
        <ele>3054.6</ele>
        <time>2021-08-05 21:18:04</time>
      </trkpt>
      <trkpt lat="37.05385" lon="-3.33813">
        <ele>3054.6</ele>
        <time>2021-08-05 21:18:05</time>
      </trkpt>
      <trkpt lat="37.05385" lon="-3.33812">
        <ele>3054.8</ele>
        <time>2021-08-05 21:18:06</time>
      </trkpt>
      <trkpt lat="37.05385" lon="-3.33811">
        <ele>3054.8</ele>
        <time>2021-08-05 21:18:07</time>
      </trkpt>
      <trkpt lat="37.05385" lon="-3.33811">
        <ele>3054.8</ele>
        <time>2021-08-05 21:18:08</time>
      </trkpt>
      <trkpt lat="37.05385" lon="-3.3381">
        <ele>3055</ele>
        <time>2021-08-05 21:18:09</time>
      </trkpt>
      <trkpt lat="37.05385" lon="-3.33809">
        <ele>3055</ele>
        <time>2021-08-05 21:18:10</time>
      </trkpt>
      <trkpt lat="37.05385" lon="-3.33809">
        <ele>3055</ele>
        <time>2021-08-05 21:18:11</time>
      </trkpt>
      <trkpt lat="37.05385" lon="-3.33808">
        <ele>3055</ele>
        <time>2021-08-05 21:18:12</time>
      </trkpt>
      <trkpt lat="37.05385" lon="-3.33807">
        <ele>3055</ele>
        <time>2021-08-05 21:18:13</time>
      </trkpt>
      <trkpt lat="37.05385" lon="-3.33807">
        <ele>3055</ele>
        <time>2021-08-05 21:18:14</time>
      </trkpt>
      <trkpt lat="37.05385" lon="-3.33806">
        <ele>3055.2</ele>
        <time>2021-08-05 21:18:15</time>
      </trkpt>
      <trkpt lat="37.05385" lon="-3.33805">
        <ele>3055.2</ele>
        <time>2021-08-05 21:18:16</time>
      </trkpt>
      <trkpt lat="37.05385" lon="-3.33804">
        <ele>3055.2</ele>
        <time>2021-08-05 21:18:17</time>
      </trkpt>
      <trkpt lat="37.05385" lon="-3.33804">
        <ele>3055.2</ele>
        <time>2021-08-05 21:18:18</time>
      </trkpt>
      <trkpt lat="37.05385" lon="-3.33804">
        <ele>3055.4</ele>
        <time>2021-08-05 21:18:19</time>
      </trkpt>
      <trkpt lat="37.05385" lon="-3.33804">
        <ele>3055.6</ele>
        <time>2021-08-05 21:18:20</time>
      </trkpt>
      <trkpt lat="37.05385" lon="-3.33803">
        <ele>3055.6</ele>
        <time>2021-08-05 21:18:21</time>
      </trkpt>
      <trkpt lat="37.05385" lon="-3.33802">
        <ele>3055.8</ele>
        <time>2021-08-05 21:18:22</time>
      </trkpt>
      <trkpt lat="37.05385" lon="-3.33801">
        <ele>3056</ele>
        <time>2021-08-05 21:18:23</time>
      </trkpt>
      <trkpt lat="37.05385" lon="-3.33801">
        <ele>3056</ele>
        <time>2021-08-05 21:18:24</time>
      </trkpt>
      <trkpt lat="37.05385" lon="-3.338">
        <ele>3056</ele>
        <time>2021-08-05 21:18:25</time>
      </trkpt>
      <trkpt lat="37.05385" lon="-3.338">
        <ele>3056.2</ele>
        <time>2021-08-05 21:18:26</time>
      </trkpt>
      <trkpt lat="37.05384" lon="-3.33798">
        <ele>3056.4</ele>
        <time>2021-08-05 21:18:27</time>
      </trkpt>
      <trkpt lat="37.05384" lon="-3.33797">
        <ele>3056.4</ele>
        <time>2021-08-05 21:18:28</time>
      </trkpt>
      <trkpt lat="37.05384" lon="-3.33797">
        <ele>3056.2</ele>
        <time>2021-08-05 21:18:29</time>
      </trkpt>
      <trkpt lat="37.05384" lon="-3.33797">
        <ele>3056</ele>
        <time>2021-08-05 21:18:30</time>
      </trkpt>
      <trkpt lat="37.05384" lon="-3.33797">
        <ele>3056</ele>
        <time>2021-08-05 21:18:31</time>
      </trkpt>
      <trkpt lat="37.05384" lon="-3.33797">
        <ele>3056</ele>
        <time>2021-08-05 21:18:32</time>
      </trkpt>
      <trkpt lat="37.05384" lon="-3.33797">
        <ele>3056</ele>
        <time>2021-08-05 21:18:33</time>
      </trkpt>
      <trkpt lat="37.05384" lon="-3.33797">
        <ele>3055.8</ele>
        <time>2021-08-05 21:18:34</time>
      </trkpt>
      <trkpt lat="37.05384" lon="-3.33797">
        <ele>3055.8</ele>
        <time>2021-08-05 21:18:35</time>
      </trkpt>
      <trkpt lat="37.05384" lon="-3.33797">
        <ele>3055.6</ele>
        <time>2021-08-05 21:18:36</time>
      </trkpt>
      <trkpt lat="37.05384" lon="-3.33797">
        <ele>3055.6</ele>
        <time>2021-08-05 21:18:37</time>
      </trkpt>
      <trkpt lat="37.05384" lon="-3.33797">
        <ele>3055.6</ele>
        <time>2021-08-05 21:18:38</time>
      </trkpt>
      <trkpt lat="37.05384" lon="-3.33797">
        <ele>3055.6</ele>
        <time>2021-08-05 21:18:39</time>
      </trkpt>
      <trkpt lat="37.05384" lon="-3.33798">
        <ele>3055.6</ele>
        <time>2021-08-05 21:18:40</time>
      </trkpt>
      <trkpt lat="37.05384" lon="-3.33798">
        <ele>3055.6</ele>
        <time>2021-08-05 21:18:41</time>
      </trkpt>
      <trkpt lat="37.05384" lon="-3.33798">
        <ele>3055.6</ele>
        <time>2021-08-05 21:18:42</time>
      </trkpt>
      <trkpt lat="37.05384" lon="-3.33798">
        <ele>3055.8</ele>
        <time>2021-08-05 21:18:43</time>
      </trkpt>
      <trkpt lat="37.05385" lon="-3.33798">
        <ele>3055.8</ele>
        <time>2021-08-05 21:18:44</time>
      </trkpt>
      <trkpt lat="37.05385" lon="-3.33798">
        <ele>3055.8</ele>
        <time>2021-08-05 21:18:45</time>
      </trkpt>
      <trkpt lat="37.05385" lon="-3.33798">
        <ele>3055.8</ele>
        <time>2021-08-05 21:18:46</time>
      </trkpt>
      <trkpt lat="37.05385" lon="-3.33798">
        <ele>3055.8</ele>
        <time>2021-08-05 21:18:47</time>
      </trkpt>
      <trkpt lat="37.05384" lon="-3.33799">
        <ele>3055.8</ele>
        <time>2021-08-05 21:18:48</time>
      </trkpt>
      <trkpt lat="37.05382" lon="-3.33799">
        <ele>3055.8</ele>
        <time>2021-08-05 21:18:49</time>
      </trkpt>
      <trkpt lat="37.05382" lon="-3.33799">
        <ele>3055.8</ele>
        <time>2021-08-05 21:18:50</time>
      </trkpt>
      <trkpt lat="37.05383" lon="-3.33799">
        <ele>3055.8</ele>
        <time>2021-08-05 21:18:51</time>
      </trkpt>
      <trkpt lat="37.05383" lon="-3.338">
        <ele>3055.8</ele>
        <time>2021-08-05 21:18:52</time>
      </trkpt>
      <trkpt lat="37.05384" lon="-3.338">
        <ele>3055.8</ele>
        <time>2021-08-05 21:18:53</time>
      </trkpt>
      <trkpt lat="37.05384" lon="-3.338">
        <ele>3055.8</ele>
        <time>2021-08-05 21:18:54</time>
      </trkpt>
      <trkpt lat="37.05384" lon="-3.338">
        <ele>3055.8</ele>
        <time>2021-08-05 21:18:55</time>
      </trkpt>
      <trkpt lat="37.05384" lon="-3.338">
        <ele>3055.8</ele>
        <time>2021-08-05 21:18:56</time>
      </trkpt>
      <trkpt lat="37.05384" lon="-3.338">
        <ele>3055.8</ele>
        <time>2021-08-05 21:18:57</time>
      </trkpt>
      <trkpt lat="37.05385" lon="-3.338">
        <ele>3055.8</ele>
        <time>2021-08-05 21:18:58</time>
      </trkpt>
      <trkpt lat="37.05386" lon="-3.33801">
        <ele>3055.8</ele>
        <time>2021-08-05 21:18:59</time>
      </trkpt>
      <trkpt lat="37.05386" lon="-3.33801">
        <ele>3055.8</ele>
        <time>2021-08-05 21:19:00</time>
      </trkpt>
      <trkpt lat="37.05386" lon="-3.33801">
        <ele>3056</ele>
        <time>2021-08-05 21:19:01</time>
      </trkpt>
      <trkpt lat="37.05387" lon="-3.33802">
        <ele>3056</ele>
        <time>2021-08-05 21:19:02</time>
      </trkpt>
      <trkpt lat="37.05387" lon="-3.33802">
        <ele>3055.8</ele>
        <time>2021-08-05 21:19:03</time>
      </trkpt>
      <trkpt lat="37.05387" lon="-3.33802">
        <ele>3055.8</ele>
        <time>2021-08-05 21:19:04</time>
      </trkpt>
      <trkpt lat="37.05387" lon="-3.33802">
        <ele>3055.8</ele>
        <time>2021-08-05 21:19:05</time>
      </trkpt>
      <trkpt lat="37.05387" lon="-3.33802">
        <ele>3055.6</ele>
        <time>2021-08-05 21:19:06</time>
      </trkpt>
      <trkpt lat="37.05387" lon="-3.33803">
        <ele>3055.6</ele>
        <time>2021-08-05 21:19:07</time>
      </trkpt>
      <trkpt lat="37.05387" lon="-3.33803">
        <ele>3055.4</ele>
        <time>2021-08-05 21:19:08</time>
      </trkpt>
      <trkpt lat="37.05388" lon="-3.33803">
        <ele>3055.4</ele>
        <time>2021-08-05 21:19:09</time>
      </trkpt>
      <trkpt lat="37.05388" lon="-3.33803">
        <ele>3055.4</ele>
        <time>2021-08-05 21:19:10</time>
      </trkpt>
      <trkpt lat="37.05387" lon="-3.33802">
        <ele>3055.6</ele>
        <time>2021-08-05 21:19:11</time>
      </trkpt>
      <trkpt lat="37.05387" lon="-3.33802">
        <ele>3055.6</ele>
        <time>2021-08-05 21:19:12</time>
      </trkpt>
      <trkpt lat="37.05387" lon="-3.33802">
        <ele>3055.6</ele>
        <time>2021-08-05 21:19:13</time>
      </trkpt>
      <trkpt lat="37.05387" lon="-3.33802">
        <ele>3055.6</ele>
        <time>2021-08-05 21:19:14</time>
      </trkpt>
      <trkpt lat="37.05387" lon="-3.33802">
        <ele>3055.8</ele>
        <time>2021-08-05 21:19:15</time>
      </trkpt>
      <trkpt lat="37.05387" lon="-3.33802">
        <ele>3056</ele>
        <time>2021-08-05 21:19:16</time>
      </trkpt>
      <trkpt lat="37.05387" lon="-3.33802">
        <ele>3056.2</ele>
        <time>2021-08-05 21:19:17</time>
      </trkpt>
      <trkpt lat="37.05387" lon="-3.33802">
        <ele>3056</ele>
        <time>2021-08-05 21:19:18</time>
      </trkpt>
      <trkpt lat="37.05387" lon="-3.33802">
        <ele>3055.8</ele>
        <time>2021-08-05 21:19:19</time>
      </trkpt>
      <trkpt lat="37.05386" lon="-3.33801">
        <ele>3055.8</ele>
        <time>2021-08-05 21:19:20</time>
      </trkpt>
      <trkpt lat="37.05386" lon="-3.33801">
        <ele>3055.8</ele>
        <time>2021-08-05 21:19:21</time>
      </trkpt>
      <trkpt lat="37.05387" lon="-3.33801">
        <ele>3055.6</ele>
        <time>2021-08-05 21:19:22</time>
      </trkpt>
      <trkpt lat="37.05387" lon="-3.33801">
        <ele>3055.6</ele>
        <time>2021-08-05 21:19:23</time>
      </trkpt>
      <trkpt lat="37.05387" lon="-3.33801">
        <ele>3055.6</ele>
        <time>2021-08-05 21:19:24</time>
      </trkpt>
      <trkpt lat="37.05386" lon="-3.33801">
        <ele>3056</ele>
        <time>2021-08-05 21:19:25</time>
      </trkpt>
      <trkpt lat="37.05386" lon="-3.338">
        <ele>3056</ele>
        <time>2021-08-05 21:19:26</time>
      </trkpt>
      <trkpt lat="37.05386" lon="-3.338">
        <ele>3056.2</ele>
        <time>2021-08-05 21:19:27</time>
      </trkpt>
      <trkpt lat="37.05386" lon="-3.338">
        <ele>3056.2</ele>
        <time>2021-08-05 21:19:28</time>
      </trkpt>
      <trkpt lat="37.05386" lon="-3.33801">
        <ele>3055.8</ele>
        <time>2021-08-05 21:19:29</time>
      </trkpt>
      <trkpt lat="37.05386" lon="-3.338">
        <ele>3055.6</ele>
        <time>2021-08-05 21:19:30</time>
      </trkpt>
      <trkpt lat="37.05386" lon="-3.338">
        <ele>3055.8</ele>
        <time>2021-08-05 21:19:31</time>
      </trkpt>
      <trkpt lat="37.05386" lon="-3.338">
        <ele>3055.8</ele>
        <time>2021-08-05 21:19:32</time>
      </trkpt>
      <trkpt lat="37.05386" lon="-3.338">
        <ele>3056</ele>
        <time>2021-08-05 21:19:33</time>
      </trkpt>
      <trkpt lat="37.05386" lon="-3.338">
        <ele>3056</ele>
        <time>2021-08-05 21:19:34</time>
      </trkpt>
      <trkpt lat="37.05386" lon="-3.338">
        <ele>3056</ele>
        <time>2021-08-05 21:19:35</time>
      </trkpt>
      <trkpt lat="37.05385" lon="-3.338">
        <ele>3056</ele>
        <time>2021-08-05 21:19:36</time>
      </trkpt>
      <trkpt lat="37.05385" lon="-3.33799">
        <ele>3056</ele>
        <time>2021-08-05 21:19:37</time>
      </trkpt>
      <trkpt lat="37.05384" lon="-3.33799">
        <ele>3056</ele>
        <time>2021-08-05 21:19:38</time>
      </trkpt>
      <trkpt lat="37.05383" lon="-3.33799">
        <ele>3056</ele>
        <time>2021-08-05 21:19:39</time>
      </trkpt>
      <trkpt lat="37.05383" lon="-3.33799">
        <ele>3056</ele>
        <time>2021-08-05 21:19:40</time>
      </trkpt>
      <trkpt lat="37.05383" lon="-3.33799">
        <ele>3056</ele>
        <time>2021-08-05 21:19:41</time>
      </trkpt>
      <trkpt lat="37.05383" lon="-3.33799">
        <ele>3055.8</ele>
        <time>2021-08-05 21:19:42</time>
      </trkpt>
      <trkpt lat="37.05383" lon="-3.33799">
        <ele>3055.6</ele>
        <time>2021-08-05 21:19:43</time>
      </trkpt>
      <trkpt lat="37.05383" lon="-3.33799">
        <ele>3055.6</ele>
        <time>2021-08-05 21:19:44</time>
      </trkpt>
      <trkpt lat="37.05382" lon="-3.33798">
        <ele>3055.6</ele>
        <time>2021-08-05 21:19:45</time>
      </trkpt>
      <trkpt lat="37.05383" lon="-3.33799">
        <ele>3055.6</ele>
        <time>2021-08-05 21:19:46</time>
      </trkpt>
      <trkpt lat="37.05383" lon="-3.33799">
        <ele>3055.6</ele>
        <time>2021-08-05 21:19:47</time>
      </trkpt>
      <trkpt lat="37.05383" lon="-3.33798">
        <ele>3055.6</ele>
        <time>2021-08-05 21:19:48</time>
      </trkpt>
      <trkpt lat="37.05383" lon="-3.33799">
        <ele>3055.6</ele>
        <time>2021-08-05 21:19:49</time>
      </trkpt>
      <trkpt lat="37.05383" lon="-3.33799">
        <ele>3055.6</ele>
        <time>2021-08-05 21:19:50</time>
      </trkpt>
      <trkpt lat="37.05383" lon="-3.338">
        <ele>3055.6</ele>
        <time>2021-08-05 21:19:51</time>
      </trkpt>
      <trkpt lat="37.05384" lon="-3.338">
        <ele>3055.6</ele>
        <time>2021-08-05 21:19:52</time>
      </trkpt>
      <trkpt lat="37.05384" lon="-3.338">
        <ele>3055.6</ele>
        <time>2021-08-05 21:19:53</time>
      </trkpt>
      <trkpt lat="37.05383" lon="-3.338">
        <ele>3055.6</ele>
        <time>2021-08-05 21:19:54</time>
      </trkpt>
      <trkpt lat="37.05384" lon="-3.33801">
        <ele>3055.6</ele>
        <time>2021-08-05 21:19:55</time>
      </trkpt>
      <trkpt lat="37.05384" lon="-3.33801">
        <ele>3055.6</ele>
        <time>2021-08-05 21:19:56</time>
      </trkpt>
      <trkpt lat="37.05384" lon="-3.33801">
        <ele>3055.6</ele>
        <time>2021-08-05 21:19:57</time>
      </trkpt>
      <trkpt lat="37.05384" lon="-3.33801">
        <ele>3055.6</ele>
        <time>2021-08-05 21:19:58</time>
      </trkpt>
      <trkpt lat="37.05384" lon="-3.33801">
        <ele>3055.6</ele>
        <time>2021-08-05 21:19:59</time>
      </trkpt>
      <trkpt lat="37.05384" lon="-3.33801">
        <ele>3055.6</ele>
        <time>2021-08-05 21:20:00</time>
      </trkpt>
      <trkpt lat="37.05384" lon="-3.33801">
        <ele>3055.6</ele>
        <time>2021-08-05 21:20:01</time>
      </trkpt>
      <trkpt lat="37.05384" lon="-3.33801">
        <ele>3055.6</ele>
        <time>2021-08-05 21:20:02</time>
      </trkpt>
      <trkpt lat="37.05384" lon="-3.33801">
        <ele>3055.4</ele>
        <time>2021-08-05 21:20:03</time>
      </trkpt>
      <trkpt lat="37.05384" lon="-3.33801">
        <ele>3055.6</ele>
        <time>2021-08-05 21:20:04</time>
      </trkpt>
      <trkpt lat="37.05384" lon="-3.338">
        <ele>3055.6</ele>
        <time>2021-08-05 21:20:05</time>
      </trkpt>
      <trkpt lat="37.05384" lon="-3.338">
        <ele>3055.4</ele>
        <time>2021-08-05 21:20:06</time>
      </trkpt>
      <trkpt lat="37.05383" lon="-3.33799">
        <ele>3055.4</ele>
        <time>2021-08-05 21:20:07</time>
      </trkpt>
      <trkpt lat="37.05383" lon="-3.33799">
        <ele>3055.4</ele>
        <time>2021-08-05 21:20:08</time>
      </trkpt>
      <trkpt lat="37.05383" lon="-3.33799">
        <ele>3055.4</ele>
        <time>2021-08-05 21:20:09</time>
      </trkpt>
      <trkpt lat="37.05383" lon="-3.33799">
        <ele>3055.6</ele>
        <time>2021-08-05 21:20:10</time>
      </trkpt>
      <trkpt lat="37.05383" lon="-3.33799">
        <ele>3055.6</ele>
        <time>2021-08-05 21:20:11</time>
      </trkpt>
      <trkpt lat="37.05383" lon="-3.33799">
        <ele>3055.4</ele>
        <time>2021-08-05 21:20:12</time>
      </trkpt>
      <trkpt lat="37.05383" lon="-3.33799">
        <ele>3055.4</ele>
        <time>2021-08-05 21:20:13</time>
      </trkpt>
      <trkpt lat="37.05383" lon="-3.338">
        <ele>3055.4</ele>
        <time>2021-08-05 21:20:14</time>
      </trkpt>
      <trkpt lat="37.05384" lon="-3.338">
        <ele>3055.4</ele>
        <time>2021-08-05 21:20:15</time>
      </trkpt>
      <trkpt lat="37.05384" lon="-3.338">
        <ele>3055.4</ele>
        <time>2021-08-05 21:20:16</time>
      </trkpt>
      <trkpt lat="37.05384" lon="-3.338">
        <ele>3055.4</ele>
        <time>2021-08-05 21:20:17</time>
      </trkpt>
      <trkpt lat="37.05384" lon="-3.33801">
        <ele>3055.4</ele>
        <time>2021-08-05 21:20:18</time>
      </trkpt>
      <trkpt lat="37.05385" lon="-3.33802">
        <ele>3055.4</ele>
        <time>2021-08-05 21:20:19</time>
      </trkpt>
      <trkpt lat="37.05385" lon="-3.33802">
        <ele>3055.4</ele>
        <time>2021-08-05 21:20:20</time>
      </trkpt>
      <trkpt lat="37.05385" lon="-3.33803">
        <ele>3055.4</ele>
        <time>2021-08-05 21:20:21</time>
      </trkpt>
      <trkpt lat="37.05386" lon="-3.33803">
        <ele>3055.6</ele>
        <time>2021-08-05 21:20:22</time>
      </trkpt>
      <trkpt lat="37.05386" lon="-3.33803">
        <ele>3055.6</ele>
        <time>2021-08-05 21:20:23</time>
      </trkpt>
      <trkpt lat="37.05386" lon="-3.33803">
        <ele>3055.8</ele>
        <time>2021-08-05 21:20:24</time>
      </trkpt>
      <trkpt lat="37.05386" lon="-3.33802">
        <ele>3055.8</ele>
        <time>2021-08-05 21:20:25</time>
      </trkpt>
      <trkpt lat="37.05386" lon="-3.33802">
        <ele>3055.8</ele>
        <time>2021-08-05 21:20:26</time>
      </trkpt>
      <trkpt lat="37.05385" lon="-3.33801">
        <ele>3055.8</ele>
        <time>2021-08-05 21:20:27</time>
      </trkpt>
      <trkpt lat="37.05385" lon="-3.338">
        <ele>3055.6</ele>
        <time>2021-08-05 21:20:28</time>
      </trkpt>
      <trkpt lat="37.05386" lon="-3.338">
        <ele>3055.6</ele>
        <time>2021-08-05 21:20:29</time>
      </trkpt>
      <trkpt lat="37.05385" lon="-3.33799">
        <ele>3055.6</ele>
        <time>2021-08-05 21:20:30</time>
      </trkpt>
      <trkpt lat="37.05385" lon="-3.33799">
        <ele>3055.6</ele>
        <time>2021-08-05 21:20:31</time>
      </trkpt>
      <trkpt lat="37.05385" lon="-3.33799">
        <ele>3055.6</ele>
        <time>2021-08-05 21:20:32</time>
      </trkpt>
      <trkpt lat="37.05385" lon="-3.33799">
        <ele>3055.6</ele>
        <time>2021-08-05 21:20:33</time>
      </trkpt>
      <trkpt lat="37.05386" lon="-3.33799">
        <ele>3055.6</ele>
        <time>2021-08-05 21:20:34</time>
      </trkpt>
      <trkpt lat="37.05386" lon="-3.33799">
        <ele>3055.6</ele>
        <time>2021-08-05 21:20:35</time>
      </trkpt>
      <trkpt lat="37.05386" lon="-3.338">
        <ele>3055.4</ele>
        <time>2021-08-05 21:20:36</time>
      </trkpt>
      <trkpt lat="37.05386" lon="-3.338">
        <ele>3055.4</ele>
        <time>2021-08-05 21:20:37</time>
      </trkpt>
      <trkpt lat="37.05386" lon="-3.33801">
        <ele>3055.4</ele>
        <time>2021-08-05 21:20:38</time>
      </trkpt>
      <trkpt lat="37.05386" lon="-3.33801">
        <ele>3055.4</ele>
        <time>2021-08-05 21:20:39</time>
      </trkpt>
      <trkpt lat="37.05387" lon="-3.33801">
        <ele>3055.4</ele>
        <time>2021-08-05 21:20:40</time>
      </trkpt>
      <trkpt lat="37.05387" lon="-3.33801">
        <ele>3055.4</ele>
        <time>2021-08-05 21:20:41</time>
      </trkpt>
      <trkpt lat="37.05387" lon="-3.33801">
        <ele>3055.4</ele>
        <time>2021-08-05 21:20:42</time>
      </trkpt>
      <trkpt lat="37.05387" lon="-3.33801">
        <ele>3055.4</ele>
        <time>2021-08-05 21:20:43</time>
      </trkpt>
      <trkpt lat="37.05387" lon="-3.33801">
        <ele>3055.4</ele>
        <time>2021-08-05 21:20:44</time>
      </trkpt>
      <trkpt lat="37.05387" lon="-3.338">
        <ele>3055.4</ele>
        <time>2021-08-05 21:20:45</time>
      </trkpt>
      <trkpt lat="37.05387" lon="-3.338">
        <ele>3055.6</ele>
        <time>2021-08-05 21:20:46</time>
      </trkpt>
      <trkpt lat="37.05386" lon="-3.338">
        <ele>3056.6</ele>
        <time>2021-08-05 21:20:47</time>
      </trkpt>
      <trkpt lat="37.05387" lon="-3.338">
        <ele>3056.6</ele>
        <time>2021-08-05 21:20:48</time>
      </trkpt>
      <trkpt lat="37.05387" lon="-3.33799">
        <ele>3056.6</ele>
        <time>2021-08-05 21:20:49</time>
      </trkpt>
      <trkpt lat="37.05387" lon="-3.33799">
        <ele>3056.6</ele>
        <time>2021-08-05 21:20:50</time>
      </trkpt>
      <trkpt lat="37.05387" lon="-3.338">
        <ele>3056.6</ele>
        <time>2021-08-05 21:20:51</time>
      </trkpt>
      <trkpt lat="37.05387" lon="-3.338">
        <ele>3056.6</ele>
        <time>2021-08-05 21:20:52</time>
      </trkpt>
      <trkpt lat="37.05388" lon="-3.338">
        <ele>3056.6</ele>
        <time>2021-08-05 21:20:53</time>
      </trkpt>
      <trkpt lat="37.05388" lon="-3.338">
        <ele>3056.6</ele>
        <time>2021-08-05 21:20:54</time>
      </trkpt>
      <trkpt lat="37.05388" lon="-3.338">
        <ele>3056.6</ele>
        <time>2021-08-05 21:20:55</time>
      </trkpt>
      <trkpt lat="37.05388" lon="-3.338">
        <ele>3056.6</ele>
        <time>2021-08-05 21:20:56</time>
      </trkpt>
      <trkpt lat="37.05388" lon="-3.338">
        <ele>3056.6</ele>
        <time>2021-08-05 21:20:57</time>
      </trkpt>
      <trkpt lat="37.05388" lon="-3.338">
        <ele>3056.6</ele>
        <time>2021-08-05 21:20:58</time>
      </trkpt>
      <trkpt lat="37.05387" lon="-3.338">
        <ele>3056.6</ele>
        <time>2021-08-05 21:20:59</time>
      </trkpt>
      <trkpt lat="37.05387" lon="-3.338">
        <ele>3056.6</ele>
        <time>2021-08-05 21:21:00</time>
      </trkpt>
      <trkpt lat="37.05387" lon="-3.338">
        <ele>3056.6</ele>
        <time>2021-08-05 21:21:01</time>
      </trkpt>
      <trkpt lat="37.05386" lon="-3.33799">
        <ele>3056.6</ele>
        <time>2021-08-05 21:21:02</time>
      </trkpt>
      <trkpt lat="37.05386" lon="-3.33799">
        <ele>3056.6</ele>
        <time>2021-08-05 21:21:03</time>
      </trkpt>
      <trkpt lat="37.05386" lon="-3.33799">
        <ele>3056.6</ele>
        <time>2021-08-05 21:21:04</time>
      </trkpt>
      <trkpt lat="37.05386" lon="-3.33799">
        <ele>3056.6</ele>
        <time>2021-08-05 21:21:05</time>
      </trkpt>
      <trkpt lat="37.05386" lon="-3.33799">
        <ele>3056.6</ele>
        <time>2021-08-05 21:21:06</time>
      </trkpt>
      <trkpt lat="37.05386" lon="-3.33799">
        <ele>3056.6</ele>
        <time>2021-08-05 21:21:07</time>
      </trkpt>
      <trkpt lat="37.05386" lon="-3.33799">
        <ele>3056.6</ele>
        <time>2021-08-05 21:21:08</time>
      </trkpt>
      <trkpt lat="37.05386" lon="-3.33799">
        <ele>3056.6</ele>
        <time>2021-08-05 21:21:09</time>
      </trkpt>
      <trkpt lat="37.05386" lon="-3.33799">
        <ele>3056.6</ele>
        <time>2021-08-05 21:21:10</time>
      </trkpt>
      <trkpt lat="37.05387" lon="-3.33799">
        <ele>3056.6</ele>
        <time>2021-08-05 21:21:11</time>
      </trkpt>
      <trkpt lat="37.05387" lon="-3.33799">
        <ele>3056.6</ele>
        <time>2021-08-05 21:21:12</time>
      </trkpt>
      <trkpt lat="37.05387" lon="-3.338">
        <ele>3056.6</ele>
        <time>2021-08-05 21:21:13</time>
      </trkpt>
      <trkpt lat="37.05388" lon="-3.338">
        <ele>3056.6</ele>
        <time>2021-08-05 21:21:14</time>
      </trkpt>
      <trkpt lat="37.05388" lon="-3.338">
        <ele>3056.6</ele>
        <time>2021-08-05 21:21:15</time>
      </trkpt>
      <trkpt lat="37.05388" lon="-3.338">
        <ele>3056.6</ele>
        <time>2021-08-05 21:21:16</time>
      </trkpt>
      <trkpt lat="37.05388" lon="-3.338">
        <ele>3056.6</ele>
        <time>2021-08-05 21:21:17</time>
      </trkpt>
      <trkpt lat="37.05388" lon="-3.338">
        <ele>3056.6</ele>
        <time>2021-08-05 21:21:18</time>
      </trkpt>
      <trkpt lat="37.05388" lon="-3.338">
        <ele>3056.6</ele>
        <time>2021-08-05 21:21:19</time>
      </trkpt>
      <trkpt lat="37.05388" lon="-3.33801">
        <ele>3056.6</ele>
        <time>2021-08-05 21:21:20</time>
      </trkpt>
      <trkpt lat="37.05387" lon="-3.33802">
        <ele>3056.6</ele>
        <time>2021-08-05 21:21:21</time>
      </trkpt>
      <trkpt lat="37.05387" lon="-3.33801">
        <ele>3056.6</ele>
        <time>2021-08-05 21:21:22</time>
      </trkpt>
      <trkpt lat="37.05387" lon="-3.33801">
        <ele>3056.6</ele>
        <time>2021-08-05 21:21:23</time>
      </trkpt>
      <trkpt lat="37.05388" lon="-3.33801">
        <ele>3056.6</ele>
        <time>2021-08-05 21:21:24</time>
      </trkpt>
      <trkpt lat="37.05387" lon="-3.33801">
        <ele>3056.6</ele>
        <time>2021-08-05 21:21:25</time>
      </trkpt>
      <trkpt lat="37.05388" lon="-3.33801">
        <ele>3056.6</ele>
        <time>2021-08-05 21:21:26</time>
      </trkpt>
      <trkpt lat="37.05388" lon="-3.33801">
        <ele>3056.6</ele>
        <time>2021-08-05 21:21:27</time>
      </trkpt>
      <trkpt lat="37.05388" lon="-3.338">
        <ele>3056.6</ele>
        <time>2021-08-05 21:21:28</time>
      </trkpt>
      <trkpt lat="37.05388" lon="-3.338">
        <ele>3056.6</ele>
        <time>2021-08-05 21:21:29</time>
      </trkpt>
      <trkpt lat="37.05388" lon="-3.338">
        <ele>3056.6</ele>
        <time>2021-08-05 21:21:30</time>
      </trkpt>
      <trkpt lat="37.05388" lon="-3.338">
        <ele>3056.6</ele>
        <time>2021-08-05 21:21:31</time>
      </trkpt>
      <trkpt lat="37.05388" lon="-3.338">
        <ele>3056.6</ele>
        <time>2021-08-05 21:21:32</time>
      </trkpt>
      <trkpt lat="37.05388" lon="-3.338">
        <ele>3056.6</ele>
        <time>2021-08-05 21:21:33</time>
      </trkpt>
      <trkpt lat="37.05388" lon="-3.338">
        <ele>3056.6</ele>
        <time>2021-08-05 21:21:34</time>
      </trkpt>
      <trkpt lat="37.05388" lon="-3.33801">
        <ele>3056.6</ele>
        <time>2021-08-05 21:21:35</time>
      </trkpt>
      <trkpt lat="37.05388" lon="-3.33801">
        <ele>3056.6</ele>
        <time>2021-08-05 21:21:36</time>
      </trkpt>
      <trkpt lat="37.05388" lon="-3.338">
        <ele>3056.6</ele>
        <time>2021-08-05 21:21:37</time>
      </trkpt>
      <trkpt lat="37.05388" lon="-3.338">
        <ele>3056.6</ele>
        <time>2021-08-05 21:21:38</time>
      </trkpt>
      <trkpt lat="37.05387" lon="-3.338">
        <ele>3056.6</ele>
        <time>2021-08-05 21:21:39</time>
      </trkpt>
      <trkpt lat="37.05387" lon="-3.338">
        <ele>3056.6</ele>
        <time>2021-08-05 21:21:40</time>
      </trkpt>
      <trkpt lat="37.05387" lon="-3.33799">
        <ele>3056.6</ele>
        <time>2021-08-05 21:21:41</time>
      </trkpt>
      <trkpt lat="37.05387" lon="-3.33799">
        <ele>3056.6</ele>
        <time>2021-08-05 21:21:42</time>
      </trkpt>
      <trkpt lat="37.05388" lon="-3.338">
        <ele>3056.6</ele>
        <time>2021-08-05 21:21:43</time>
      </trkpt>
      <trkpt lat="37.05388" lon="-3.338">
        <ele>3056.6</ele>
        <time>2021-08-05 21:21:44</time>
      </trkpt>
      <trkpt lat="37.05387" lon="-3.338">
        <ele>3056.6</ele>
        <time>2021-08-05 21:21:45</time>
      </trkpt>
      <trkpt lat="37.05387" lon="-3.338">
        <ele>3056.6</ele>
        <time>2021-08-05 21:21:46</time>
      </trkpt>
      <trkpt lat="37.05387" lon="-3.338">
        <ele>3056.6</ele>
        <time>2021-08-05 21:21:47</time>
      </trkpt>
      <trkpt lat="37.05387" lon="-3.338">
        <ele>3056.6</ele>
        <time>2021-08-05 21:21:48</time>
      </trkpt>
      <trkpt lat="37.05388" lon="-3.338">
        <ele>3056.6</ele>
        <time>2021-08-05 21:21:49</time>
      </trkpt>
      <trkpt lat="37.05388" lon="-3.338">
        <ele>3056.6</ele>
        <time>2021-08-05 21:21:50</time>
      </trkpt>
      <trkpt lat="37.05388" lon="-3.338">
        <ele>3056.6</ele>
        <time>2021-08-05 21:21:51</time>
      </trkpt>
      <trkpt lat="37.05387" lon="-3.33799">
        <ele>3056.6</ele>
        <time>2021-08-05 21:21:52</time>
      </trkpt>
      <trkpt lat="37.05388" lon="-3.338">
        <ele>3056.6</ele>
        <time>2021-08-05 21:21:53</time>
      </trkpt>
      <trkpt lat="37.05388" lon="-3.338">
        <ele>3056.6</ele>
        <time>2021-08-05 21:21:54</time>
      </trkpt>
      <trkpt lat="37.05388" lon="-3.338">
        <ele>3056.6</ele>
        <time>2021-08-05 21:21:55</time>
      </trkpt>
      <trkpt lat="37.05388" lon="-3.33799">
        <ele>3056.6</ele>
        <time>2021-08-05 21:21:56</time>
      </trkpt>
      <trkpt lat="37.05388" lon="-3.33799">
        <ele>3056.6</ele>
        <time>2021-08-05 21:21:57</time>
      </trkpt>
      <trkpt lat="37.05388" lon="-3.33798">
        <ele>3056.6</ele>
        <time>2021-08-05 21:21:58</time>
      </trkpt>
      <trkpt lat="37.05388" lon="-3.33796">
        <ele>3056.6</ele>
        <time>2021-08-05 21:21:59</time>
      </trkpt>
      <trkpt lat="37.05388" lon="-3.33795">
        <ele>3056.6</ele>
        <time>2021-08-05 21:22:00</time>
      </trkpt>
      <trkpt lat="37.05388" lon="-3.33795">
        <ele>3056.6</ele>
        <time>2021-08-05 21:22:01</time>
      </trkpt>
      <trkpt lat="37.05389" lon="-3.33794">
        <ele>3056.6</ele>
        <time>2021-08-05 21:22:02</time>
      </trkpt>
      <trkpt lat="37.0539" lon="-3.33793">
        <ele>3056.6</ele>
        <time>2021-08-05 21:22:03</time>
      </trkpt>
      <trkpt lat="37.0539" lon="-3.33792">
        <ele>3056.6</ele>
        <time>2021-08-05 21:22:04</time>
      </trkpt>
      <trkpt lat="37.0539" lon="-3.33791">
        <ele>3056.6</ele>
        <time>2021-08-05 21:22:05</time>
      </trkpt>
      <trkpt lat="37.0539" lon="-3.3379">
        <ele>3056.6</ele>
        <time>2021-08-05 21:22:06</time>
      </trkpt>
      <trkpt lat="37.05391" lon="-3.33789">
        <ele>3056.6</ele>
        <time>2021-08-05 21:22:07</time>
      </trkpt>
      <trkpt lat="37.05391" lon="-3.33789">
        <ele>3056.6</ele>
        <time>2021-08-05 21:22:08</time>
      </trkpt>
      <trkpt lat="37.05391" lon="-3.33788">
        <ele>3056.6</ele>
        <time>2021-08-05 21:22:09</time>
      </trkpt>
      <trkpt lat="37.05392" lon="-3.33787">
        <ele>3056.6</ele>
        <time>2021-08-05 21:22:10</time>
      </trkpt>
      <trkpt lat="37.05392" lon="-3.33786">
        <ele>3056.6</ele>
        <time>2021-08-05 21:22:11</time>
      </trkpt>
      <trkpt lat="37.05392" lon="-3.33785">
        <ele>3056.8</ele>
        <time>2021-08-05 21:22:12</time>
      </trkpt>
      <trkpt lat="37.05391" lon="-3.33784">
        <ele>3057.2</ele>
        <time>2021-08-05 21:22:13</time>
      </trkpt>
      <trkpt lat="37.05392" lon="-3.33783">
        <ele>3057.4</ele>
        <time>2021-08-05 21:22:14</time>
      </trkpt>
      <trkpt lat="37.05392" lon="-3.33783">
        <ele>3057.6</ele>
        <time>2021-08-05 21:22:15</time>
      </trkpt>
      <trkpt lat="37.05392" lon="-3.33782">
        <ele>3057.8</ele>
        <time>2021-08-05 21:22:16</time>
      </trkpt>
      <trkpt lat="37.05392" lon="-3.33781">
        <ele>3058</ele>
        <time>2021-08-05 21:22:17</time>
      </trkpt>
      <trkpt lat="37.05392" lon="-3.33781">
        <ele>3058</ele>
        <time>2021-08-05 21:22:18</time>
      </trkpt>
      <trkpt lat="37.05392" lon="-3.3378">
        <ele>3058.4</ele>
        <time>2021-08-05 21:22:19</time>
      </trkpt>
      <trkpt lat="37.05392" lon="-3.3378">
        <ele>3058.6</ele>
        <time>2021-08-05 21:22:20</time>
      </trkpt>
      <trkpt lat="37.05392" lon="-3.3378">
        <ele>3058.6</ele>
        <time>2021-08-05 21:22:21</time>
      </trkpt>
      <trkpt lat="37.05392" lon="-3.33779">
        <ele>3058.6</ele>
        <time>2021-08-05 21:22:22</time>
      </trkpt>
      <trkpt lat="37.05393" lon="-3.33779">
        <ele>3058.6</ele>
        <time>2021-08-05 21:22:23</time>
      </trkpt>
      <trkpt lat="37.05393" lon="-3.33778">
        <ele>3058.8</ele>
        <time>2021-08-05 21:22:24</time>
      </trkpt>
      <trkpt lat="37.05393" lon="-3.33778">
        <ele>3059.2</ele>
        <time>2021-08-05 21:22:25</time>
      </trkpt>
      <trkpt lat="37.05393" lon="-3.33778">
        <ele>3059.6</ele>
        <time>2021-08-05 21:22:26</time>
      </trkpt>
      <trkpt lat="37.05393" lon="-3.33778">
        <ele>3059.6</ele>
        <time>2021-08-05 21:22:27</time>
      </trkpt>
      <trkpt lat="37.05394" lon="-3.33777">
        <ele>3059.8</ele>
        <time>2021-08-05 21:22:28</time>
      </trkpt>
      <trkpt lat="37.05394" lon="-3.33777">
        <ele>3059.8</ele>
        <time>2021-08-05 21:22:29</time>
      </trkpt>
      <trkpt lat="37.05395" lon="-3.33777">
        <ele>3059.8</ele>
        <time>2021-08-05 21:22:30</time>
      </trkpt>
      <trkpt lat="37.05395" lon="-3.33776">
        <ele>3059.8</ele>
        <time>2021-08-05 21:22:31</time>
      </trkpt>
      <trkpt lat="37.05396" lon="-3.33775">
        <ele>3060</ele>
        <time>2021-08-05 21:22:32</time>
      </trkpt>
      <trkpt lat="37.05396" lon="-3.33775">
        <ele>3060.2</ele>
        <time>2021-08-05 21:22:33</time>
      </trkpt>
      <trkpt lat="37.05396" lon="-3.33775">
        <ele>3060.4</ele>
        <time>2021-08-05 21:22:34</time>
      </trkpt>
      <trkpt lat="37.05396" lon="-3.33774">
        <ele>3060.6</ele>
        <time>2021-08-05 21:22:35</time>
      </trkpt>
      <trkpt lat="37.05396" lon="-3.33774">
        <ele>3060.6</ele>
        <time>2021-08-05 21:22:36</time>
      </trkpt>
      <trkpt lat="37.05396" lon="-3.33773">
        <ele>3060.8</ele>
        <time>2021-08-05 21:22:37</time>
      </trkpt>
      <trkpt lat="37.05396" lon="-3.33772">
        <ele>3060.8</ele>
        <time>2021-08-05 21:22:38</time>
      </trkpt>
      <trkpt lat="37.05397" lon="-3.33771">
        <ele>3061</ele>
        <time>2021-08-05 21:22:39</time>
      </trkpt>
      <trkpt lat="37.05397" lon="-3.33771">
        <ele>3061.2</ele>
        <time>2021-08-05 21:22:40</time>
      </trkpt>
      <trkpt lat="37.05397" lon="-3.33771">
        <ele>3061.2</ele>
        <time>2021-08-05 21:22:41</time>
      </trkpt>
      <trkpt lat="37.05397" lon="-3.33771">
        <ele>3061.6</ele>
        <time>2021-08-05 21:22:42</time>
      </trkpt>
      <trkpt lat="37.05397" lon="-3.33771">
        <ele>3062</ele>
        <time>2021-08-05 21:22:43</time>
      </trkpt>
      <trkpt lat="37.05398" lon="-3.33771">
        <ele>3062.4</ele>
        <time>2021-08-05 21:22:44</time>
      </trkpt>
      <trkpt lat="37.05398" lon="-3.33771">
        <ele>3062.6</ele>
        <time>2021-08-05 21:22:45</time>
      </trkpt>
      <trkpt lat="37.05398" lon="-3.3377">
        <ele>3062.6</ele>
        <time>2021-08-05 21:22:46</time>
      </trkpt>
      <trkpt lat="37.05398" lon="-3.33769">
        <ele>3062.8</ele>
        <time>2021-08-05 21:22:47</time>
      </trkpt>
      <trkpt lat="37.05398" lon="-3.33768">
        <ele>3062.8</ele>
        <time>2021-08-05 21:22:48</time>
      </trkpt>
      <trkpt lat="37.05399" lon="-3.33767">
        <ele>3063</ele>
        <time>2021-08-05 21:22:49</time>
      </trkpt>
      <trkpt lat="37.05399" lon="-3.33767">
        <ele>3063.2</ele>
        <time>2021-08-05 21:22:50</time>
      </trkpt>
      <trkpt lat="37.05399" lon="-3.33767">
        <ele>3063.4</ele>
        <time>2021-08-05 21:22:51</time>
      </trkpt>
      <trkpt lat="37.05399" lon="-3.33766">
        <ele>3063.4</ele>
        <time>2021-08-05 21:22:52</time>
      </trkpt>
      <trkpt lat="37.05399" lon="-3.33765">
        <ele>3063.4</ele>
        <time>2021-08-05 21:22:53</time>
      </trkpt>
      <trkpt lat="37.05399" lon="-3.33764">
        <ele>3063.4</ele>
        <time>2021-08-05 21:22:54</time>
      </trkpt>
      <trkpt lat="37.05399" lon="-3.33764">
        <ele>3063.4</ele>
        <time>2021-08-05 21:22:55</time>
      </trkpt>
      <trkpt lat="37.05398" lon="-3.33763">
        <ele>3063.6</ele>
        <time>2021-08-05 21:22:56</time>
      </trkpt>
      <trkpt lat="37.05398" lon="-3.33762">
        <ele>3063.8</ele>
        <time>2021-08-05 21:22:57</time>
      </trkpt>
      <trkpt lat="37.05398" lon="-3.33762">
        <ele>3063.8</ele>
        <time>2021-08-05 21:22:58</time>
      </trkpt>
      <trkpt lat="37.05399" lon="-3.33761">
        <ele>3064</ele>
        <time>2021-08-05 21:22:59</time>
      </trkpt>
      <trkpt lat="37.054" lon="-3.33761">
        <ele>3064.2</ele>
        <time>2021-08-05 21:23:00</time>
      </trkpt>
      <trkpt lat="37.054" lon="-3.3376">
        <ele>3064.2</ele>
        <time>2021-08-05 21:23:01</time>
      </trkpt>
      <trkpt lat="37.054" lon="-3.3376">
        <ele>3064.4</ele>
        <time>2021-08-05 21:23:02</time>
      </trkpt>
      <trkpt lat="37.054" lon="-3.33759">
        <ele>3064.4</ele>
        <time>2021-08-05 21:23:03</time>
      </trkpt>
      <trkpt lat="37.05401" lon="-3.33759">
        <ele>3064.6</ele>
        <time>2021-08-05 21:23:04</time>
      </trkpt>
      <trkpt lat="37.05401" lon="-3.33758">
        <ele>3064.8</ele>
        <time>2021-08-05 21:23:05</time>
      </trkpt>
      <trkpt lat="37.05401" lon="-3.33757">
        <ele>3064.8</ele>
        <time>2021-08-05 21:23:06</time>
      </trkpt>
      <trkpt lat="37.05401" lon="-3.33757">
        <ele>3065.2</ele>
        <time>2021-08-05 21:23:07</time>
      </trkpt>
      <trkpt lat="37.05401" lon="-3.33757">
        <ele>3065.4</ele>
        <time>2021-08-05 21:23:08</time>
      </trkpt>
      <trkpt lat="37.05401" lon="-3.33757">
        <ele>3065.4</ele>
        <time>2021-08-05 21:23:09</time>
      </trkpt>
      <trkpt lat="37.05401" lon="-3.33757">
        <ele>3065.4</ele>
        <time>2021-08-05 21:23:10</time>
      </trkpt>
      <trkpt lat="37.05402" lon="-3.33757">
        <ele>3065.4</ele>
        <time>2021-08-05 21:23:11</time>
      </trkpt>
      <trkpt lat="37.05402" lon="-3.33757">
        <ele>3065.4</ele>
        <time>2021-08-05 21:23:12</time>
      </trkpt>
      <trkpt lat="37.05402" lon="-3.33757">
        <ele>3065.6</ele>
        <time>2021-08-05 21:23:13</time>
      </trkpt>
      <trkpt lat="37.05402" lon="-3.33757">
        <ele>3065.4</ele>
        <time>2021-08-05 21:23:14</time>
      </trkpt>
      <trkpt lat="37.05402" lon="-3.33756">
        <ele>3065.4</ele>
        <time>2021-08-05 21:23:15</time>
      </trkpt>
      <trkpt lat="37.05402" lon="-3.33756">
        <ele>3065.6</ele>
        <time>2021-08-05 21:23:16</time>
      </trkpt>
      <trkpt lat="37.05402" lon="-3.33755">
        <ele>3065.6</ele>
        <time>2021-08-05 21:23:17</time>
      </trkpt>
      <trkpt lat="37.05402" lon="-3.33754">
        <ele>3065.6</ele>
        <time>2021-08-05 21:23:18</time>
      </trkpt>
      <trkpt lat="37.05402" lon="-3.33754">
        <ele>3065.8</ele>
        <time>2021-08-05 21:23:19</time>
      </trkpt>
      <trkpt lat="37.05402" lon="-3.33753">
        <ele>3065.8</ele>
        <time>2021-08-05 21:23:20</time>
      </trkpt>
      <trkpt lat="37.05403" lon="-3.33752">
        <ele>3066</ele>
        <time>2021-08-05 21:23:21</time>
      </trkpt>
      <trkpt lat="37.05403" lon="-3.33752">
        <ele>3066.2</ele>
        <time>2021-08-05 21:23:22</time>
      </trkpt>
      <trkpt lat="37.05404" lon="-3.33751">
        <ele>3066.2</ele>
        <time>2021-08-05 21:23:23</time>
      </trkpt>
      <trkpt lat="37.05404" lon="-3.3375">
        <ele>3066.6</ele>
        <time>2021-08-05 21:23:24</time>
      </trkpt>
      <trkpt lat="37.05404" lon="-3.3375">
        <ele>3066.8</ele>
        <time>2021-08-05 21:23:25</time>
      </trkpt>
      <trkpt lat="37.05405" lon="-3.33749">
        <ele>3067</ele>
        <time>2021-08-05 21:23:26</time>
      </trkpt>
      <trkpt lat="37.05405" lon="-3.33748">
        <ele>3067.2</ele>
        <time>2021-08-05 21:23:27</time>
      </trkpt>
      <trkpt lat="37.05404" lon="-3.33748">
        <ele>3067.2</ele>
        <time>2021-08-05 21:23:28</time>
      </trkpt>
      <trkpt lat="37.05404" lon="-3.33747">
        <ele>3067.4</ele>
        <time>2021-08-05 21:23:29</time>
      </trkpt>
      <trkpt lat="37.05405" lon="-3.33747">
        <ele>3067.6</ele>
        <time>2021-08-05 21:23:30</time>
      </trkpt>
      <trkpt lat="37.05405" lon="-3.33746">
        <ele>3067.8</ele>
        <time>2021-08-05 21:23:31</time>
      </trkpt>
      <trkpt lat="37.05405" lon="-3.33746">
        <ele>3067.6</ele>
        <time>2021-08-05 21:23:32</time>
      </trkpt>
      <trkpt lat="37.05405" lon="-3.33746">
        <ele>3067.6</ele>
        <time>2021-08-05 21:23:33</time>
      </trkpt>
      <trkpt lat="37.05405" lon="-3.33745">
        <ele>3067.6</ele>
        <time>2021-08-05 21:23:34</time>
      </trkpt>
      <trkpt lat="37.05406" lon="-3.33745">
        <ele>3067.6</ele>
        <time>2021-08-05 21:23:35</time>
      </trkpt>
      <trkpt lat="37.05406" lon="-3.33744">
        <ele>3067.6</ele>
        <time>2021-08-05 21:23:36</time>
      </trkpt>
      <trkpt lat="37.05406" lon="-3.33744">
        <ele>3067.6</ele>
        <time>2021-08-05 21:23:37</time>
      </trkpt>
      <trkpt lat="37.05406" lon="-3.33743">
        <ele>3068</ele>
        <time>2021-08-05 21:23:38</time>
      </trkpt>
      <trkpt lat="37.05407" lon="-3.33742">
        <ele>3068.2</ele>
        <time>2021-08-05 21:23:39</time>
      </trkpt>
      <trkpt lat="37.05407" lon="-3.33742">
        <ele>3068.4</ele>
        <time>2021-08-05 21:23:40</time>
      </trkpt>
      <trkpt lat="37.05407" lon="-3.33741">
        <ele>3068.4</ele>
        <time>2021-08-05 21:23:41</time>
      </trkpt>
      <trkpt lat="37.05407" lon="-3.3374">
        <ele>3068.4</ele>
        <time>2021-08-05 21:23:42</time>
      </trkpt>
      <trkpt lat="37.05407" lon="-3.3374">
        <ele>3068.8</ele>
        <time>2021-08-05 21:23:43</time>
      </trkpt>
      <trkpt lat="37.05409" lon="-3.3374">
        <ele>3068.8</ele>
        <time>2021-08-05 21:23:44</time>
      </trkpt>
      <trkpt lat="37.05409" lon="-3.33739">
        <ele>3069</ele>
        <time>2021-08-05 21:23:45</time>
      </trkpt>
      <trkpt lat="37.05409" lon="-3.33738">
        <ele>3069.2</ele>
        <time>2021-08-05 21:23:46</time>
      </trkpt>
      <trkpt lat="37.05409" lon="-3.33737">
        <ele>3069.4</ele>
        <time>2021-08-05 21:23:47</time>
      </trkpt>
      <trkpt lat="37.05409" lon="-3.33737">
        <ele>3069.6</ele>
        <time>2021-08-05 21:23:48</time>
      </trkpt>
      <trkpt lat="37.0541" lon="-3.33736">
        <ele>3069.6</ele>
        <time>2021-08-05 21:23:49</time>
      </trkpt>
      <trkpt lat="37.0541" lon="-3.33736">
        <ele>3069.6</ele>
        <time>2021-08-05 21:23:50</time>
      </trkpt>
      <trkpt lat="37.0541" lon="-3.33736">
        <ele>3069.8</ele>
        <time>2021-08-05 21:23:51</time>
      </trkpt>
      <trkpt lat="37.05411" lon="-3.33736">
        <ele>3069.8</ele>
        <time>2021-08-05 21:23:52</time>
      </trkpt>
      <trkpt lat="37.05411" lon="-3.33736">
        <ele>3069.8</ele>
        <time>2021-08-05 21:23:53</time>
      </trkpt>
      <trkpt lat="37.05411" lon="-3.33736">
        <ele>3069.8</ele>
        <time>2021-08-05 21:23:54</time>
      </trkpt>
      <trkpt lat="37.05411" lon="-3.33735">
        <ele>3069.8</ele>
        <time>2021-08-05 21:23:55</time>
      </trkpt>
      <trkpt lat="37.05411" lon="-3.33735">
        <ele>3070</ele>
        <time>2021-08-05 21:23:56</time>
      </trkpt>
      <trkpt lat="37.05411" lon="-3.33734">
        <ele>3070.2</ele>
        <time>2021-08-05 21:23:57</time>
      </trkpt>
      <trkpt lat="37.05411" lon="-3.33733">
        <ele>3070.4</ele>
        <time>2021-08-05 21:23:58</time>
      </trkpt>
      <trkpt lat="37.05411" lon="-3.33732">
        <ele>3070.6</ele>
        <time>2021-08-05 21:23:59</time>
      </trkpt>
      <trkpt lat="37.05412" lon="-3.33731">
        <ele>3070.6</ele>
        <time>2021-08-05 21:24:00</time>
      </trkpt>
      <trkpt lat="37.05412" lon="-3.33731">
        <ele>3070.8</ele>
        <time>2021-08-05 21:24:01</time>
      </trkpt>
      <trkpt lat="37.05411" lon="-3.3373">
        <ele>3070.8</ele>
        <time>2021-08-05 21:24:02</time>
      </trkpt>
      <trkpt lat="37.05411" lon="-3.33729">
        <ele>3071.2</ele>
        <time>2021-08-05 21:24:03</time>
      </trkpt>
      <trkpt lat="37.05411" lon="-3.33728">
        <ele>3071.4</ele>
        <time>2021-08-05 21:24:04</time>
      </trkpt>
      <trkpt lat="37.05411" lon="-3.33727">
        <ele>3071.6</ele>
        <time>2021-08-05 21:24:05</time>
      </trkpt>
      <trkpt lat="37.05411" lon="-3.33727">
        <ele>3071.6</ele>
        <time>2021-08-05 21:24:06</time>
      </trkpt>
      <trkpt lat="37.0541" lon="-3.33726">
        <ele>3071.8</ele>
        <time>2021-08-05 21:24:07</time>
      </trkpt>
      <trkpt lat="37.05411" lon="-3.33726">
        <ele>3071.8</ele>
        <time>2021-08-05 21:24:08</time>
      </trkpt>
      <trkpt lat="37.0541" lon="-3.33725">
        <ele>3072</ele>
        <time>2021-08-05 21:24:09</time>
      </trkpt>
      <trkpt lat="37.0541" lon="-3.33725">
        <ele>3072</ele>
        <time>2021-08-05 21:24:10</time>
      </trkpt>
      <trkpt lat="37.0541" lon="-3.33724">
        <ele>3072.2</ele>
        <time>2021-08-05 21:24:11</time>
      </trkpt>
      <trkpt lat="37.05411" lon="-3.33725">
        <ele>3072.4</ele>
        <time>2021-08-05 21:24:12</time>
      </trkpt>
      <trkpt lat="37.05411" lon="-3.33725">
        <ele>3072.4</ele>
        <time>2021-08-05 21:24:13</time>
      </trkpt>
      <trkpt lat="37.05411" lon="-3.33725">
        <ele>3072.4</ele>
        <time>2021-08-05 21:24:14</time>
      </trkpt>
      <trkpt lat="37.05412" lon="-3.33724">
        <ele>3072.4</ele>
        <time>2021-08-05 21:24:15</time>
      </trkpt>
      <trkpt lat="37.05412" lon="-3.33724">
        <ele>3072.4</ele>
        <time>2021-08-05 21:24:16</time>
      </trkpt>
      <trkpt lat="37.05411" lon="-3.33725">
        <ele>3072.4</ele>
        <time>2021-08-05 21:24:17</time>
      </trkpt>
      <trkpt lat="37.05412" lon="-3.33726">
        <ele>3072.4</ele>
        <time>2021-08-05 21:24:18</time>
      </trkpt>
      <trkpt lat="37.05411" lon="-3.33726">
        <ele>3072.4</ele>
        <time>2021-08-05 21:24:19</time>
      </trkpt>
      <trkpt lat="37.05411" lon="-3.33727">
        <ele>3072.4</ele>
        <time>2021-08-05 21:24:20</time>
      </trkpt>
      <trkpt lat="37.05411" lon="-3.33728">
        <ele>3072.4</ele>
        <time>2021-08-05 21:24:21</time>
      </trkpt>
      <trkpt lat="37.05411" lon="-3.33728">
        <ele>3072.4</ele>
        <time>2021-08-05 21:24:22</time>
      </trkpt>
      <trkpt lat="37.05411" lon="-3.33728">
        <ele>3072.4</ele>
        <time>2021-08-05 21:24:23</time>
      </trkpt>
      <trkpt lat="37.05411" lon="-3.33728">
        <ele>3072.4</ele>
        <time>2021-08-05 21:24:24</time>
      </trkpt>
      <trkpt lat="37.05411" lon="-3.33728">
        <ele>3072.2</ele>
        <time>2021-08-05 21:24:25</time>
      </trkpt>
      <trkpt lat="37.05411" lon="-3.33728">
        <ele>3072.2</ele>
        <time>2021-08-05 21:24:26</time>
      </trkpt>
      <trkpt lat="37.05411" lon="-3.33728">
        <ele>3072.2</ele>
        <time>2021-08-05 21:24:27</time>
      </trkpt>
      <trkpt lat="37.05411" lon="-3.33728">
        <ele>3072.4</ele>
        <time>2021-08-05 21:24:28</time>
      </trkpt>
      <trkpt lat="37.05411" lon="-3.33728">
        <ele>3072.2</ele>
        <time>2021-08-05 21:24:29</time>
      </trkpt>
      <trkpt lat="37.05411" lon="-3.33728">
        <ele>3072.2</ele>
        <time>2021-08-05 21:24:30</time>
      </trkpt>
      <trkpt lat="37.05411" lon="-3.33728">
        <ele>3072.2</ele>
        <time>2021-08-05 21:24:31</time>
      </trkpt>
      <trkpt lat="37.05411" lon="-3.33729">
        <ele>3072.2</ele>
        <time>2021-08-05 21:24:32</time>
      </trkpt>
      <trkpt lat="37.05411" lon="-3.33729">
        <ele>3072.2</ele>
        <time>2021-08-05 21:24:33</time>
      </trkpt>
      <trkpt lat="37.05411" lon="-3.33727">
        <ele>3072.4</ele>
        <time>2021-08-05 21:24:34</time>
      </trkpt>
      <trkpt lat="37.0541" lon="-3.33726">
        <ele>3072.4</ele>
        <time>2021-08-05 21:24:35</time>
      </trkpt>
      <trkpt lat="37.0541" lon="-3.33725">
        <ele>3072.4</ele>
        <time>2021-08-05 21:24:36</time>
      </trkpt>
      <trkpt lat="37.0541" lon="-3.33724">
        <ele>3072.4</ele>
        <time>2021-08-05 21:24:37</time>
      </trkpt>
      <trkpt lat="37.0541" lon="-3.33724">
        <ele>3072.4</ele>
        <time>2021-08-05 21:24:38</time>
      </trkpt>
      <trkpt lat="37.0541" lon="-3.33723">
        <ele>3072.6</ele>
        <time>2021-08-05 21:24:39</time>
      </trkpt>
      <trkpt lat="37.0541" lon="-3.33722">
        <ele>3072.6</ele>
        <time>2021-08-05 21:24:40</time>
      </trkpt>
      <trkpt lat="37.0541" lon="-3.33721">
        <ele>3072.8</ele>
        <time>2021-08-05 21:24:41</time>
      </trkpt>
      <trkpt lat="37.0541" lon="-3.3372">
        <ele>3073</ele>
        <time>2021-08-05 21:24:42</time>
      </trkpt>
      <trkpt lat="37.05411" lon="-3.33719">
        <ele>3073</ele>
        <time>2021-08-05 21:24:43</time>
      </trkpt>
      <trkpt lat="37.05411" lon="-3.33718">
        <ele>3073.2</ele>
        <time>2021-08-05 21:24:44</time>
      </trkpt>
      <trkpt lat="37.0541" lon="-3.33717">
        <ele>3073.2</ele>
        <time>2021-08-05 21:24:45</time>
      </trkpt>
      <trkpt lat="37.05409" lon="-3.33716">
        <ele>3073.4</ele>
        <time>2021-08-05 21:24:46</time>
      </trkpt>
      <trkpt lat="37.05409" lon="-3.33715">
        <ele>3073.4</ele>
        <time>2021-08-05 21:24:47</time>
      </trkpt>
      <trkpt lat="37.05409" lon="-3.33714">
        <ele>3073.6</ele>
        <time>2021-08-05 21:24:48</time>
      </trkpt>
      <trkpt lat="37.05409" lon="-3.33713">
        <ele>3073.8</ele>
        <time>2021-08-05 21:24:49</time>
      </trkpt>
      <trkpt lat="37.05409" lon="-3.33713">
        <ele>3074</ele>
        <time>2021-08-05 21:24:50</time>
      </trkpt>
      <trkpt lat="37.0541" lon="-3.33712">
        <ele>3074.2</ele>
        <time>2021-08-05 21:24:51</time>
      </trkpt>
      <trkpt lat="37.0541" lon="-3.33711">
        <ele>3074.4</ele>
        <time>2021-08-05 21:24:52</time>
      </trkpt>
      <trkpt lat="37.0541" lon="-3.3371">
        <ele>3074.6</ele>
        <time>2021-08-05 21:24:53</time>
      </trkpt>
      <trkpt lat="37.0541" lon="-3.33709">
        <ele>3074.8</ele>
        <time>2021-08-05 21:24:54</time>
      </trkpt>
      <trkpt lat="37.0541" lon="-3.33708">
        <ele>3074.8</ele>
        <time>2021-08-05 21:24:55</time>
      </trkpt>
      <trkpt lat="37.0541" lon="-3.33707">
        <ele>3075</ele>
        <time>2021-08-05 21:24:56</time>
      </trkpt>
      <trkpt lat="37.05411" lon="-3.33706">
        <ele>3075.2</ele>
        <time>2021-08-05 21:24:57</time>
      </trkpt>
      <trkpt lat="37.05411" lon="-3.33706">
        <ele>3075.2</ele>
        <time>2021-08-05 21:24:58</time>
      </trkpt>
      <trkpt lat="37.05411" lon="-3.33705">
        <ele>3075.4</ele>
        <time>2021-08-05 21:24:59</time>
      </trkpt>
      <trkpt lat="37.05411" lon="-3.33704">
        <ele>3075.4</ele>
        <time>2021-08-05 21:25:00</time>
      </trkpt>
      <trkpt lat="37.05412" lon="-3.33704">
        <ele>3075.4</ele>
        <time>2021-08-05 21:25:01</time>
      </trkpt>
      <trkpt lat="37.05412" lon="-3.33703">
        <ele>3075.2</ele>
        <time>2021-08-05 21:25:02</time>
      </trkpt>
      <trkpt lat="37.05412" lon="-3.33702">
        <ele>3075.2</ele>
        <time>2021-08-05 21:25:03</time>
      </trkpt>
      <trkpt lat="37.05412" lon="-3.33701">
        <ele>3075.4</ele>
        <time>2021-08-05 21:25:04</time>
      </trkpt>
      <trkpt lat="37.05412" lon="-3.337">
        <ele>3075.6</ele>
        <time>2021-08-05 21:25:05</time>
      </trkpt>
      <trkpt lat="37.05412" lon="-3.33699">
        <ele>3075.6</ele>
        <time>2021-08-05 21:25:06</time>
      </trkpt>
      <trkpt lat="37.05411" lon="-3.33699">
        <ele>3075.6</ele>
        <time>2021-08-05 21:25:07</time>
      </trkpt>
      <trkpt lat="37.05411" lon="-3.33697">
        <ele>3075.8</ele>
        <time>2021-08-05 21:25:08</time>
      </trkpt>
      <trkpt lat="37.05411" lon="-3.33697">
        <ele>3075.8</ele>
        <time>2021-08-05 21:25:09</time>
      </trkpt>
      <trkpt lat="37.05411" lon="-3.33696">
        <ele>3076</ele>
        <time>2021-08-05 21:25:10</time>
      </trkpt>
      <trkpt lat="37.05411" lon="-3.33696">
        <ele>3076</ele>
        <time>2021-08-05 21:25:11</time>
      </trkpt>
      <trkpt lat="37.05411" lon="-3.33695">
        <ele>3076</ele>
        <time>2021-08-05 21:25:12</time>
      </trkpt>
      <trkpt lat="37.05411" lon="-3.33695">
        <ele>3076.2</ele>
        <time>2021-08-05 21:25:13</time>
      </trkpt>
      <trkpt lat="37.05411" lon="-3.33694">
        <ele>3076.4</ele>
        <time>2021-08-05 21:25:14</time>
      </trkpt>
      <trkpt lat="37.05411" lon="-3.33693">
        <ele>3076.4</ele>
        <time>2021-08-05 21:25:15</time>
      </trkpt>
      <trkpt lat="37.05411" lon="-3.33692">
        <ele>3076.4</ele>
        <time>2021-08-05 21:25:16</time>
      </trkpt>
      <trkpt lat="37.05411" lon="-3.33692">
        <ele>3076.6</ele>
        <time>2021-08-05 21:25:17</time>
      </trkpt>
      <trkpt lat="37.05411" lon="-3.33691">
        <ele>3076.6</ele>
        <time>2021-08-05 21:25:18</time>
      </trkpt>
      <trkpt lat="37.05412" lon="-3.33691">
        <ele>3076.6</ele>
        <time>2021-08-05 21:25:19</time>
      </trkpt>
      <trkpt lat="37.05412" lon="-3.3369">
        <ele>3076.6</ele>
        <time>2021-08-05 21:25:20</time>
      </trkpt>
      <trkpt lat="37.05412" lon="-3.3369">
        <ele>3076.6</ele>
        <time>2021-08-05 21:25:21</time>
      </trkpt>
      <trkpt lat="37.05412" lon="-3.33689">
        <ele>3076.6</ele>
        <time>2021-08-05 21:25:22</time>
      </trkpt>
      <trkpt lat="37.05412" lon="-3.33689">
        <ele>3076.8</ele>
        <time>2021-08-05 21:25:23</time>
      </trkpt>
      <trkpt lat="37.05412" lon="-3.33689">
        <ele>3077</ele>
        <time>2021-08-05 21:25:24</time>
      </trkpt>
      <trkpt lat="37.05412" lon="-3.33688">
        <ele>3077.2</ele>
        <time>2021-08-05 21:25:25</time>
      </trkpt>
      <trkpt lat="37.05412" lon="-3.33688">
        <ele>3077.2</ele>
        <time>2021-08-05 21:25:26</time>
      </trkpt>
      <trkpt lat="37.05412" lon="-3.33688">
        <ele>3077.4</ele>
        <time>2021-08-05 21:25:27</time>
      </trkpt>
      <trkpt lat="37.05412" lon="-3.33687">
        <ele>3077.6</ele>
        <time>2021-08-05 21:25:28</time>
      </trkpt>
      <trkpt lat="37.05412" lon="-3.33686">
        <ele>3077.8</ele>
        <time>2021-08-05 21:25:29</time>
      </trkpt>
      <trkpt lat="37.05412" lon="-3.33686">
        <ele>3077.8</ele>
        <time>2021-08-05 21:25:30</time>
      </trkpt>
      <trkpt lat="37.05412" lon="-3.33685">
        <ele>3077.8</ele>
        <time>2021-08-05 21:25:31</time>
      </trkpt>
      <trkpt lat="37.05412" lon="-3.33684">
        <ele>3077.8</ele>
        <time>2021-08-05 21:25:32</time>
      </trkpt>
      <trkpt lat="37.05412" lon="-3.33684">
        <ele>3077.8</ele>
        <time>2021-08-05 21:25:33</time>
      </trkpt>
      <trkpt lat="37.05412" lon="-3.33683">
        <ele>3078</ele>
        <time>2021-08-05 21:25:34</time>
      </trkpt>
      <trkpt lat="37.05412" lon="-3.33682">
        <ele>3078.4</ele>
        <time>2021-08-05 21:25:35</time>
      </trkpt>
      <trkpt lat="37.05412" lon="-3.33681">
        <ele>3078.6</ele>
        <time>2021-08-05 21:25:36</time>
      </trkpt>
      <trkpt lat="37.05411" lon="-3.3368">
        <ele>3078.6</ele>
        <time>2021-08-05 21:25:37</time>
      </trkpt>
      <trkpt lat="37.05412" lon="-3.3368">
        <ele>3078.8</ele>
        <time>2021-08-05 21:25:38</time>
      </trkpt>
      <trkpt lat="37.05412" lon="-3.3368">
        <ele>3079</ele>
        <time>2021-08-05 21:25:39</time>
      </trkpt>
      <trkpt lat="37.05412" lon="-3.3368">
        <ele>3079.2</ele>
        <time>2021-08-05 21:25:40</time>
      </trkpt>
      <trkpt lat="37.05413" lon="-3.3368">
        <ele>3079.2</ele>
        <time>2021-08-05 21:25:41</time>
      </trkpt>
      <trkpt lat="37.05413" lon="-3.3368">
        <ele>3079.2</ele>
        <time>2021-08-05 21:25:42</time>
      </trkpt>
      <trkpt lat="37.05413" lon="-3.3368">
        <ele>3079.2</ele>
        <time>2021-08-05 21:25:43</time>
      </trkpt>
      <trkpt lat="37.05412" lon="-3.33679">
        <ele>3079.2</ele>
        <time>2021-08-05 21:25:44</time>
      </trkpt>
      <trkpt lat="37.05413" lon="-3.33679">
        <ele>3079.2</ele>
        <time>2021-08-05 21:25:45</time>
      </trkpt>
      <trkpt lat="37.05413" lon="-3.33679">
        <ele>3079.2</ele>
        <time>2021-08-05 21:25:46</time>
      </trkpt>
      <trkpt lat="37.05414" lon="-3.33678">
        <ele>3079.2</ele>
        <time>2021-08-05 21:25:47</time>
      </trkpt>
      <trkpt lat="37.05414" lon="-3.33678">
        <ele>3079.4</ele>
        <time>2021-08-05 21:25:48</time>
      </trkpt>
      <trkpt lat="37.05414" lon="-3.33677">
        <ele>3079.4</ele>
        <time>2021-08-05 21:25:49</time>
      </trkpt>
      <trkpt lat="37.05415" lon="-3.33677">
        <ele>3079.8</ele>
        <time>2021-08-05 21:25:50</time>
      </trkpt>
      <trkpt lat="37.05415" lon="-3.33676">
        <ele>3079.8</ele>
        <time>2021-08-05 21:25:51</time>
      </trkpt>
      <trkpt lat="37.05416" lon="-3.33676">
        <ele>3080</ele>
        <time>2021-08-05 21:25:52</time>
      </trkpt>
      <trkpt lat="37.05416" lon="-3.33675">
        <ele>3080.2</ele>
        <time>2021-08-05 21:25:53</time>
      </trkpt>
      <trkpt lat="37.05416" lon="-3.33675">
        <ele>3080.4</ele>
        <time>2021-08-05 21:25:54</time>
      </trkpt>
      <trkpt lat="37.05416" lon="-3.33674">
        <ele>3080.4</ele>
        <time>2021-08-05 21:25:55</time>
      </trkpt>
      <trkpt lat="37.05417" lon="-3.33674">
        <ele>3080.4</ele>
        <time>2021-08-05 21:25:56</time>
      </trkpt>
      <trkpt lat="37.05417" lon="-3.33673">
        <ele>3080.4</ele>
        <time>2021-08-05 21:25:57</time>
      </trkpt>
      <trkpt lat="37.05417" lon="-3.33673">
        <ele>3080.4</ele>
        <time>2021-08-05 21:25:58</time>
      </trkpt>
      <trkpt lat="37.05417" lon="-3.33672">
        <ele>3080.4</ele>
        <time>2021-08-05 21:25:59</time>
      </trkpt>
      <trkpt lat="37.05417" lon="-3.33671">
        <ele>3080.6</ele>
        <time>2021-08-05 21:26:00</time>
      </trkpt>
      <trkpt lat="37.05417" lon="-3.33671">
        <ele>3080.6</ele>
        <time>2021-08-05 21:26:01</time>
      </trkpt>
      <trkpt lat="37.05417" lon="-3.3367">
        <ele>3080.8</ele>
        <time>2021-08-05 21:26:02</time>
      </trkpt>
      <trkpt lat="37.05417" lon="-3.3367">
        <ele>3081</ele>
        <time>2021-08-05 21:26:03</time>
      </trkpt>
      <trkpt lat="37.05417" lon="-3.33669">
        <ele>3081.2</ele>
        <time>2021-08-05 21:26:04</time>
      </trkpt>
      <trkpt lat="37.05417" lon="-3.33669">
        <ele>3081.4</ele>
        <time>2021-08-05 21:26:05</time>
      </trkpt>
      <trkpt lat="37.05417" lon="-3.33669">
        <ele>3081.4</ele>
        <time>2021-08-05 21:26:06</time>
      </trkpt>
      <trkpt lat="37.05417" lon="-3.33668">
        <ele>3081.4</ele>
        <time>2021-08-05 21:26:07</time>
      </trkpt>
      <trkpt lat="37.05415" lon="-3.33668">
        <ele>3081.4</ele>
        <time>2021-08-05 21:26:08</time>
      </trkpt>
      <trkpt lat="37.05414" lon="-3.33668">
        <ele>3081.4</ele>
        <time>2021-08-05 21:26:09</time>
      </trkpt>
      <trkpt lat="37.05414" lon="-3.33668">
        <ele>3081.6</ele>
        <time>2021-08-05 21:26:10</time>
      </trkpt>
      <trkpt lat="37.05414" lon="-3.33668">
        <ele>3081.8</ele>
        <time>2021-08-05 21:26:11</time>
      </trkpt>
      <trkpt lat="37.05414" lon="-3.33668">
        <ele>3081.8</ele>
        <time>2021-08-05 21:26:12</time>
      </trkpt>
      <trkpt lat="37.05413" lon="-3.33668">
        <ele>3081.8</ele>
        <time>2021-08-05 21:26:13</time>
      </trkpt>
      <trkpt lat="37.05413" lon="-3.33668">
        <ele>3081.8</ele>
        <time>2021-08-05 21:26:14</time>
      </trkpt>
      <trkpt lat="37.05412" lon="-3.33667">
        <ele>3081.8</ele>
        <time>2021-08-05 21:26:15</time>
      </trkpt>
      <trkpt lat="37.05412" lon="-3.33667">
        <ele>3082</ele>
        <time>2021-08-05 21:26:16</time>
      </trkpt>
      <trkpt lat="37.05412" lon="-3.33667">
        <ele>3082</ele>
        <time>2021-08-05 21:26:17</time>
      </trkpt>
      <trkpt lat="37.05412" lon="-3.33666">
        <ele>3082</ele>
        <time>2021-08-05 21:26:18</time>
      </trkpt>
      <trkpt lat="37.05412" lon="-3.33666">
        <ele>3082</ele>
        <time>2021-08-05 21:26:19</time>
      </trkpt>
      <trkpt lat="37.05413" lon="-3.33665">
        <ele>3082</ele>
        <time>2021-08-05 21:26:20</time>
      </trkpt>
      <trkpt lat="37.05413" lon="-3.33665">
        <ele>3082.2</ele>
        <time>2021-08-05 21:26:21</time>
      </trkpt>
      <trkpt lat="37.05414" lon="-3.33664">
        <ele>3082.2</ele>
        <time>2021-08-05 21:26:22</time>
      </trkpt>
      <trkpt lat="37.05415" lon="-3.33663">
        <ele>3082.4</ele>
        <time>2021-08-05 21:26:23</time>
      </trkpt>
      <trkpt lat="37.05415" lon="-3.33662">
        <ele>3082.6</ele>
        <time>2021-08-05 21:26:24</time>
      </trkpt>
      <trkpt lat="37.05415" lon="-3.33661">
        <ele>3083</ele>
        <time>2021-08-05 21:26:25</time>
      </trkpt>
      <trkpt lat="37.05416" lon="-3.3366">
        <ele>3083.4</ele>
        <time>2021-08-05 21:26:26</time>
      </trkpt>
      <trkpt lat="37.05416" lon="-3.3366">
        <ele>3083.6</ele>
        <time>2021-08-05 21:26:27</time>
      </trkpt>
      <trkpt lat="37.05416" lon="-3.3366">
        <ele>3083.6</ele>
        <time>2021-08-05 21:26:28</time>
      </trkpt>
      <trkpt lat="37.05416" lon="-3.33659">
        <ele>3083.8</ele>
        <time>2021-08-05 21:26:29</time>
      </trkpt>
      <trkpt lat="37.05416" lon="-3.33659">
        <ele>3083.8</ele>
        <time>2021-08-05 21:26:30</time>
      </trkpt>
      <trkpt lat="37.05416" lon="-3.33658">
        <ele>3083.8</ele>
        <time>2021-08-05 21:26:31</time>
      </trkpt>
      <trkpt lat="37.05416" lon="-3.33657">
        <ele>3083.8</ele>
        <time>2021-08-05 21:26:32</time>
      </trkpt>
      <trkpt lat="37.05416" lon="-3.33656">
        <ele>3083.8</ele>
        <time>2021-08-05 21:26:33</time>
      </trkpt>
      <trkpt lat="37.05415" lon="-3.33655">
        <ele>3084</ele>
        <time>2021-08-05 21:26:34</time>
      </trkpt>
      <trkpt lat="37.05415" lon="-3.33654">
        <ele>3084.2</ele>
        <time>2021-08-05 21:26:35</time>
      </trkpt>
      <trkpt lat="37.05415" lon="-3.33654">
        <ele>3084.6</ele>
        <time>2021-08-05 21:26:36</time>
      </trkpt>
      <trkpt lat="37.05415" lon="-3.33653">
        <ele>3084.6</ele>
        <time>2021-08-05 21:26:37</time>
      </trkpt>
      <trkpt lat="37.05415" lon="-3.33652">
        <ele>3084.8</ele>
        <time>2021-08-05 21:26:38</time>
      </trkpt>
      <trkpt lat="37.05415" lon="-3.33651">
        <ele>3084.8</ele>
        <time>2021-08-05 21:26:39</time>
      </trkpt>
      <trkpt lat="37.05415" lon="-3.33651">
        <ele>3085</ele>
        <time>2021-08-05 21:26:40</time>
      </trkpt>
      <trkpt lat="37.05415" lon="-3.3365">
        <ele>3084.6</ele>
        <time>2021-08-05 21:26:41</time>
      </trkpt>
      <trkpt lat="37.05415" lon="-3.33649">
        <ele>3084.6</ele>
        <time>2021-08-05 21:26:42</time>
      </trkpt>
      <trkpt lat="37.05415" lon="-3.33648">
        <ele>3084.4</ele>
        <time>2021-08-05 21:26:43</time>
      </trkpt>
      <trkpt lat="37.05414" lon="-3.33647">
        <ele>3084.6</ele>
        <time>2021-08-05 21:26:44</time>
      </trkpt>
      <trkpt lat="37.05414" lon="-3.33647">
        <ele>3085</ele>
        <time>2021-08-05 21:26:45</time>
      </trkpt>
      <trkpt lat="37.05414" lon="-3.33646">
        <ele>3085.2</ele>
        <time>2021-08-05 21:26:46</time>
      </trkpt>
      <trkpt lat="37.05414" lon="-3.33645">
        <ele>3085.4</ele>
        <time>2021-08-05 21:26:47</time>
      </trkpt>
      <trkpt lat="37.05414" lon="-3.33645">
        <ele>3085.4</ele>
        <time>2021-08-05 21:26:48</time>
      </trkpt>
      <trkpt lat="37.05414" lon="-3.33644">
        <ele>3085.6</ele>
        <time>2021-08-05 21:26:49</time>
      </trkpt>
      <trkpt lat="37.05414" lon="-3.33643">
        <ele>3085.6</ele>
        <time>2021-08-05 21:26:50</time>
      </trkpt>
      <trkpt lat="37.05414" lon="-3.33642">
        <ele>3085.6</ele>
        <time>2021-08-05 21:26:51</time>
      </trkpt>
      <trkpt lat="37.05414" lon="-3.33642">
        <ele>3085.6</ele>
        <time>2021-08-05 21:26:52</time>
      </trkpt>
      <trkpt lat="37.05414" lon="-3.33641">
        <ele>3085.8</ele>
        <time>2021-08-05 21:26:53</time>
      </trkpt>
      <trkpt lat="37.05414" lon="-3.33641">
        <ele>3085.8</ele>
        <time>2021-08-05 21:26:54</time>
      </trkpt>
      <trkpt lat="37.05415" lon="-3.33641">
        <ele>3086</ele>
        <time>2021-08-05 21:26:55</time>
      </trkpt>
      <trkpt lat="37.05415" lon="-3.3364">
        <ele>3086.2</ele>
        <time>2021-08-05 21:26:56</time>
      </trkpt>
      <trkpt lat="37.05415" lon="-3.3364">
        <ele>3086.2</ele>
        <time>2021-08-05 21:26:57</time>
      </trkpt>
      <trkpt lat="37.05415" lon="-3.33639">
        <ele>3086.2</ele>
        <time>2021-08-05 21:26:58</time>
      </trkpt>
      <trkpt lat="37.05416" lon="-3.33639">
        <ele>3086.4</ele>
        <time>2021-08-05 21:26:59</time>
      </trkpt>
      <trkpt lat="37.05416" lon="-3.33638">
        <ele>3086.6</ele>
        <time>2021-08-05 21:27:00</time>
      </trkpt>
      <trkpt lat="37.05416" lon="-3.33637">
        <ele>3086.6</ele>
        <time>2021-08-05 21:27:01</time>
      </trkpt>
      <trkpt lat="37.05416" lon="-3.33637">
        <ele>3086.8</ele>
        <time>2021-08-05 21:27:02</time>
      </trkpt>
      <trkpt lat="37.05416" lon="-3.33636">
        <ele>3087</ele>
        <time>2021-08-05 21:27:03</time>
      </trkpt>
      <trkpt lat="37.05416" lon="-3.33636">
        <ele>3087</ele>
        <time>2021-08-05 21:27:04</time>
      </trkpt>
      <trkpt lat="37.05415" lon="-3.33635">
        <ele>3087</ele>
        <time>2021-08-05 21:27:05</time>
      </trkpt>
      <trkpt lat="37.05416" lon="-3.33635">
        <ele>3087.4</ele>
        <time>2021-08-05 21:27:06</time>
      </trkpt>
      <trkpt lat="37.05415" lon="-3.33634">
        <ele>3087.2</ele>
        <time>2021-08-05 21:27:07</time>
      </trkpt>
      <trkpt lat="37.05415" lon="-3.33633">
        <ele>3087.4</ele>
        <time>2021-08-05 21:27:08</time>
      </trkpt>
      <trkpt lat="37.05415" lon="-3.33632">
        <ele>3087.4</ele>
        <time>2021-08-05 21:27:09</time>
      </trkpt>
      <trkpt lat="37.05416" lon="-3.33632">
        <ele>3087.6</ele>
        <time>2021-08-05 21:27:10</time>
      </trkpt>
      <trkpt lat="37.05416" lon="-3.33631">
        <ele>3087.4</ele>
        <time>2021-08-05 21:27:11</time>
      </trkpt>
      <trkpt lat="37.05416" lon="-3.3363">
        <ele>3087.4</ele>
        <time>2021-08-05 21:27:12</time>
      </trkpt>
      <trkpt lat="37.05417" lon="-3.33629">
        <ele>3087.2</ele>
        <time>2021-08-05 21:27:13</time>
      </trkpt>
      <trkpt lat="37.05417" lon="-3.33629">
        <ele>3087.4</ele>
        <time>2021-08-05 21:27:14</time>
      </trkpt>
      <trkpt lat="37.05416" lon="-3.33628">
        <ele>3087.4</ele>
        <time>2021-08-05 21:27:15</time>
      </trkpt>
      <trkpt lat="37.05416" lon="-3.33627">
        <ele>3087.6</ele>
        <time>2021-08-05 21:27:16</time>
      </trkpt>
      <trkpt lat="37.05416" lon="-3.33627">
        <ele>3088</ele>
        <time>2021-08-05 21:27:17</time>
      </trkpt>
      <trkpt lat="37.05416" lon="-3.33627">
        <ele>3088.2</ele>
        <time>2021-08-05 21:27:18</time>
      </trkpt>
      <trkpt lat="37.05416" lon="-3.33627">
        <ele>3088.2</ele>
        <time>2021-08-05 21:27:19</time>
      </trkpt>
      <trkpt lat="37.05415" lon="-3.33626">
        <ele>3088.4</ele>
        <time>2021-08-05 21:27:20</time>
      </trkpt>
      <trkpt lat="37.05416" lon="-3.33626">
        <ele>3088.4</ele>
        <time>2021-08-05 21:27:21</time>
      </trkpt>
      <trkpt lat="37.05416" lon="-3.33626">
        <ele>3088.4</ele>
        <time>2021-08-05 21:27:22</time>
      </trkpt>
      <trkpt lat="37.05416" lon="-3.33625">
        <ele>3088.4</ele>
        <time>2021-08-05 21:27:23</time>
      </trkpt>
      <trkpt lat="37.05416" lon="-3.33624">
        <ele>3088.4</ele>
        <time>2021-08-05 21:27:24</time>
      </trkpt>
      <trkpt lat="37.05416" lon="-3.33624">
        <ele>3088.4</ele>
        <time>2021-08-05 21:27:25</time>
      </trkpt>
      <trkpt lat="37.05417" lon="-3.33624">
        <ele>3088.6</ele>
        <time>2021-08-05 21:27:26</time>
      </trkpt>
      <trkpt lat="37.05417" lon="-3.33623">
        <ele>3088.6</ele>
        <time>2021-08-05 21:27:27</time>
      </trkpt>
      <trkpt lat="37.05418" lon="-3.33623">
        <ele>3088.8</ele>
        <time>2021-08-05 21:27:28</time>
      </trkpt>
      <trkpt lat="37.05418" lon="-3.33623">
        <ele>3089</ele>
        <time>2021-08-05 21:27:29</time>
      </trkpt>
      <trkpt lat="37.05418" lon="-3.33622">
        <ele>3089</ele>
        <time>2021-08-05 21:27:30</time>
      </trkpt>
      <trkpt lat="37.05418" lon="-3.33622">
        <ele>3089.2</ele>
        <time>2021-08-05 21:27:31</time>
      </trkpt>
      <trkpt lat="37.05418" lon="-3.33621">
        <ele>3089.4</ele>
        <time>2021-08-05 21:27:32</time>
      </trkpt>
      <trkpt lat="37.05418" lon="-3.3362">
        <ele>3089.6</ele>
        <time>2021-08-05 21:27:33</time>
      </trkpt>
      <trkpt lat="37.05418" lon="-3.3362">
        <ele>3089.8</ele>
        <time>2021-08-05 21:27:34</time>
      </trkpt>
      <trkpt lat="37.05418" lon="-3.33619">
        <ele>3089.8</ele>
        <time>2021-08-05 21:27:35</time>
      </trkpt>
      <trkpt lat="37.05418" lon="-3.33618">
        <ele>3090</ele>
        <time>2021-08-05 21:27:36</time>
      </trkpt>
      <trkpt lat="37.05418" lon="-3.33617">
        <ele>3090.2</ele>
        <time>2021-08-05 21:27:37</time>
      </trkpt>
      <trkpt lat="37.05419" lon="-3.33617">
        <ele>3090.4</ele>
        <time>2021-08-05 21:27:38</time>
      </trkpt>
      <trkpt lat="37.05418" lon="-3.33616">
        <ele>3090.4</ele>
        <time>2021-08-05 21:27:39</time>
      </trkpt>
      <trkpt lat="37.05418" lon="-3.33616">
        <ele>3090.4</ele>
        <time>2021-08-05 21:27:40</time>
      </trkpt>
      <trkpt lat="37.05418" lon="-3.33616">
        <ele>3090.6</ele>
        <time>2021-08-05 21:27:41</time>
      </trkpt>
      <trkpt lat="37.05418" lon="-3.33615">
        <ele>3090.6</ele>
        <time>2021-08-05 21:27:42</time>
      </trkpt>
      <trkpt lat="37.05418" lon="-3.33615">
        <ele>3090.6</ele>
        <time>2021-08-05 21:27:43</time>
      </trkpt>
      <trkpt lat="37.05418" lon="-3.33615">
        <ele>3090.6</ele>
        <time>2021-08-05 21:27:44</time>
      </trkpt>
      <trkpt lat="37.05418" lon="-3.33614">
        <ele>3090.4</ele>
        <time>2021-08-05 21:27:45</time>
      </trkpt>
      <trkpt lat="37.05418" lon="-3.33614">
        <ele>3090.2</ele>
        <time>2021-08-05 21:27:46</time>
      </trkpt>
      <trkpt lat="37.05418" lon="-3.33613">
        <ele>3090.6</ele>
        <time>2021-08-05 21:27:47</time>
      </trkpt>
      <trkpt lat="37.05418" lon="-3.33612">
        <ele>3091</ele>
        <time>2021-08-05 21:27:48</time>
      </trkpt>
      <trkpt lat="37.05418" lon="-3.33611">
        <ele>3091.2</ele>
        <time>2021-08-05 21:27:49</time>
      </trkpt>
      <trkpt lat="37.05418" lon="-3.33611">
        <ele>3091.4</ele>
        <time>2021-08-05 21:27:50</time>
      </trkpt>
      <trkpt lat="37.05418" lon="-3.3361">
        <ele>3091.4</ele>
        <time>2021-08-05 21:27:51</time>
      </trkpt>
      <trkpt lat="37.05418" lon="-3.33609">
        <ele>3091.4</ele>
        <time>2021-08-05 21:27:52</time>
      </trkpt>
      <trkpt lat="37.05418" lon="-3.33609">
        <ele>3091.4</ele>
        <time>2021-08-05 21:27:53</time>
      </trkpt>
      <trkpt lat="37.05418" lon="-3.33608">
        <ele>3091.4</ele>
        <time>2021-08-05 21:27:54</time>
      </trkpt>
      <trkpt lat="37.05418" lon="-3.33607">
        <ele>3091.6</ele>
        <time>2021-08-05 21:27:55</time>
      </trkpt>
      <trkpt lat="37.05418" lon="-3.33607">
        <ele>3091.6</ele>
        <time>2021-08-05 21:27:56</time>
      </trkpt>
      <trkpt lat="37.05419" lon="-3.33606">
        <ele>3091.6</ele>
        <time>2021-08-05 21:27:57</time>
      </trkpt>
      <trkpt lat="37.0542" lon="-3.33605">
        <ele>3092</ele>
        <time>2021-08-05 21:27:58</time>
      </trkpt>
      <trkpt lat="37.0542" lon="-3.33604">
        <ele>3092.2</ele>
        <time>2021-08-05 21:27:59</time>
      </trkpt>
      <trkpt lat="37.0542" lon="-3.33604">
        <ele>3092.4</ele>
        <time>2021-08-05 21:28:00</time>
      </trkpt>
      <trkpt lat="37.0542" lon="-3.33603">
        <ele>3092.6</ele>
        <time>2021-08-05 21:28:01</time>
      </trkpt>
      <trkpt lat="37.0542" lon="-3.33603">
        <ele>3092.6</ele>
        <time>2021-08-05 21:28:02</time>
      </trkpt>
      <trkpt lat="37.0542" lon="-3.33603">
        <ele>3092.8</ele>
        <time>2021-08-05 21:28:03</time>
      </trkpt>
      <trkpt lat="37.0542" lon="-3.33603">
        <ele>3093</ele>
        <time>2021-08-05 21:28:04</time>
      </trkpt>
      <trkpt lat="37.0542" lon="-3.33603">
        <ele>3093</ele>
        <time>2021-08-05 21:28:05</time>
      </trkpt>
      <trkpt lat="37.0542" lon="-3.33603">
        <ele>3093</ele>
        <time>2021-08-05 21:28:06</time>
      </trkpt>
      <trkpt lat="37.0542" lon="-3.33603">
        <ele>3093.2</ele>
        <time>2021-08-05 21:28:07</time>
      </trkpt>
      <trkpt lat="37.0542" lon="-3.33603">
        <ele>3093</ele>
        <time>2021-08-05 21:28:08</time>
      </trkpt>
      <trkpt lat="37.0542" lon="-3.33603">
        <ele>3093.2</ele>
        <time>2021-08-05 21:28:09</time>
      </trkpt>
      <trkpt lat="37.0542" lon="-3.33603">
        <ele>3093.2</ele>
        <time>2021-08-05 21:28:10</time>
      </trkpt>
      <trkpt lat="37.05421" lon="-3.33603">
        <ele>3093.4</ele>
        <time>2021-08-05 21:28:11</time>
      </trkpt>
      <trkpt lat="37.05421" lon="-3.33603">
        <ele>3093.4</ele>
        <time>2021-08-05 21:28:12</time>
      </trkpt>
      <trkpt lat="37.05421" lon="-3.33603">
        <ele>3093.4</ele>
        <time>2021-08-05 21:28:13</time>
      </trkpt>
      <trkpt lat="37.05421" lon="-3.33603">
        <ele>3093.2</ele>
        <time>2021-08-05 21:28:14</time>
      </trkpt>
      <trkpt lat="37.05421" lon="-3.33602">
        <ele>3093</ele>
        <time>2021-08-05 21:28:15</time>
      </trkpt>
      <trkpt lat="37.05421" lon="-3.33601">
        <ele>3093</ele>
        <time>2021-08-05 21:28:16</time>
      </trkpt>
      <trkpt lat="37.0542" lon="-3.33601">
        <ele>3092.8</ele>
        <time>2021-08-05 21:28:17</time>
      </trkpt>
      <trkpt lat="37.0542" lon="-3.336">
        <ele>3092.8</ele>
        <time>2021-08-05 21:28:18</time>
      </trkpt>
      <trkpt lat="37.0542" lon="-3.336">
        <ele>3092.6</ele>
        <time>2021-08-05 21:28:19</time>
      </trkpt>
      <trkpt lat="37.0542" lon="-3.336">
        <ele>3092.4</ele>
        <time>2021-08-05 21:28:20</time>
      </trkpt>
      <trkpt lat="37.0542" lon="-3.336">
        <ele>3092.4</ele>
        <time>2021-08-05 21:28:21</time>
      </trkpt>
      <trkpt lat="37.0542" lon="-3.33601">
        <ele>3092.4</ele>
        <time>2021-08-05 21:28:22</time>
      </trkpt>
      <trkpt lat="37.0542" lon="-3.33601">
        <ele>3092.2</ele>
        <time>2021-08-05 21:28:23</time>
      </trkpt>
      <trkpt lat="37.0542" lon="-3.33601">
        <ele>3092.2</ele>
        <time>2021-08-05 21:28:24</time>
      </trkpt>
      <trkpt lat="37.0542" lon="-3.33601">
        <ele>3092.4</ele>
        <time>2021-08-05 21:28:25</time>
      </trkpt>
      <trkpt lat="37.05419" lon="-3.33601">
        <ele>3092.6</ele>
        <time>2021-08-05 21:28:26</time>
      </trkpt>
      <trkpt lat="37.05419" lon="-3.33601">
        <ele>3092.4</ele>
        <time>2021-08-05 21:28:27</time>
      </trkpt>
      <trkpt lat="37.05419" lon="-3.33601">
        <ele>3092.6</ele>
        <time>2021-08-05 21:28:28</time>
      </trkpt>
      <trkpt lat="37.0542" lon="-3.33602">
        <ele>3092.6</ele>
        <time>2021-08-05 21:28:29</time>
      </trkpt>
      <trkpt lat="37.0542" lon="-3.33602">
        <ele>3092.6</ele>
        <time>2021-08-05 21:28:30</time>
      </trkpt>
      <trkpt lat="37.0542" lon="-3.33602">
        <ele>3092.6</ele>
        <time>2021-08-05 21:28:31</time>
      </trkpt>
      <trkpt lat="37.0542" lon="-3.33602">
        <ele>3092.4</ele>
        <time>2021-08-05 21:28:32</time>
      </trkpt>
      <trkpt lat="37.0542" lon="-3.33602">
        <ele>3092.4</ele>
        <time>2021-08-05 21:28:33</time>
      </trkpt>
      <trkpt lat="37.0542" lon="-3.33603">
        <ele>3092.6</ele>
        <time>2021-08-05 21:28:34</time>
      </trkpt>
      <trkpt lat="37.0542" lon="-3.33603">
        <ele>3092.4</ele>
        <time>2021-08-05 21:28:35</time>
      </trkpt>
      <trkpt lat="37.0542" lon="-3.33604">
        <ele>3092.4</ele>
        <time>2021-08-05 21:28:36</time>
      </trkpt>
      <trkpt lat="37.0542" lon="-3.33604">
        <ele>3092.4</ele>
        <time>2021-08-05 21:28:37</time>
      </trkpt>
      <trkpt lat="37.0542" lon="-3.33604">
        <ele>3092.2</ele>
        <time>2021-08-05 21:28:38</time>
      </trkpt>
      <trkpt lat="37.0542" lon="-3.33604">
        <ele>3092.4</ele>
        <time>2021-08-05 21:28:39</time>
      </trkpt>
      <trkpt lat="37.0542" lon="-3.33604">
        <ele>3092.6</ele>
        <time>2021-08-05 21:28:40</time>
      </trkpt>
      <trkpt lat="37.05419" lon="-3.33604">
        <ele>3092.4</ele>
        <time>2021-08-05 21:28:41</time>
      </trkpt>
      <trkpt lat="37.05419" lon="-3.33603">
        <ele>3092.6</ele>
        <time>2021-08-05 21:28:42</time>
      </trkpt>
      <trkpt lat="37.05419" lon="-3.33603">
        <ele>3092.6</ele>
        <time>2021-08-05 21:28:43</time>
      </trkpt>
      <trkpt lat="37.05419" lon="-3.33603">
        <ele>3092.6</ele>
        <time>2021-08-05 21:28:44</time>
      </trkpt>
      <trkpt lat="37.05419" lon="-3.33603">
        <ele>3092.6</ele>
        <time>2021-08-05 21:28:45</time>
      </trkpt>
      <trkpt lat="37.05419" lon="-3.33603">
        <ele>3092.4</ele>
        <time>2021-08-05 21:28:46</time>
      </trkpt>
      <trkpt lat="37.05419" lon="-3.33602">
        <ele>3092.4</ele>
        <time>2021-08-05 21:28:47</time>
      </trkpt>
      <trkpt lat="37.05419" lon="-3.33602">
        <ele>3092.4</ele>
        <time>2021-08-05 21:28:48</time>
      </trkpt>
      <trkpt lat="37.05419" lon="-3.33602">
        <ele>3092.4</ele>
        <time>2021-08-05 21:28:49</time>
      </trkpt>
      <trkpt lat="37.05419" lon="-3.33602">
        <ele>3092.4</ele>
        <time>2021-08-05 21:28:50</time>
      </trkpt>
      <trkpt lat="37.05419" lon="-3.33602">
        <ele>3092.4</ele>
        <time>2021-08-05 21:28:51</time>
      </trkpt>
      <trkpt lat="37.05419" lon="-3.33602">
        <ele>3092.6</ele>
        <time>2021-08-05 21:28:52</time>
      </trkpt>
      <trkpt lat="37.05419" lon="-3.33602">
        <ele>3092.6</ele>
        <time>2021-08-05 21:28:53</time>
      </trkpt>
      <trkpt lat="37.05419" lon="-3.33602">
        <ele>3092.6</ele>
        <time>2021-08-05 21:28:54</time>
      </trkpt>
      <trkpt lat="37.05419" lon="-3.33602">
        <ele>3092.8</ele>
        <time>2021-08-05 21:28:55</time>
      </trkpt>
      <trkpt lat="37.05419" lon="-3.33602">
        <ele>3092.8</ele>
        <time>2021-08-05 21:28:56</time>
      </trkpt>
      <trkpt lat="37.05419" lon="-3.33602">
        <ele>3092.8</ele>
        <time>2021-08-05 21:28:57</time>
      </trkpt>
      <trkpt lat="37.05419" lon="-3.33602">
        <ele>3092.8</ele>
        <time>2021-08-05 21:28:58</time>
      </trkpt>
      <trkpt lat="37.05419" lon="-3.33602">
        <ele>3092.6</ele>
        <time>2021-08-05 21:28:59</time>
      </trkpt>
      <trkpt lat="37.05419" lon="-3.33602">
        <ele>3092.6</ele>
        <time>2021-08-05 21:29:00</time>
      </trkpt>
      <trkpt lat="37.05419" lon="-3.33602">
        <ele>3092.4</ele>
        <time>2021-08-05 21:29:01</time>
      </trkpt>
      <trkpt lat="37.05419" lon="-3.33602">
        <ele>3092.2</ele>
        <time>2021-08-05 21:29:02</time>
      </trkpt>
      <trkpt lat="37.05419" lon="-3.33602">
        <ele>3092</ele>
        <time>2021-08-05 21:29:03</time>
      </trkpt>
      <trkpt lat="37.05419" lon="-3.33602">
        <ele>3091.8</ele>
        <time>2021-08-05 21:29:04</time>
      </trkpt>
      <trkpt lat="37.05419" lon="-3.33602">
        <ele>3091.6</ele>
        <time>2021-08-05 21:29:05</time>
      </trkpt>
      <trkpt lat="37.05419" lon="-3.33602">
        <ele>3091.6</ele>
        <time>2021-08-05 21:29:06</time>
      </trkpt>
      <trkpt lat="37.05419" lon="-3.33602">
        <ele>3091.6</ele>
        <time>2021-08-05 21:29:07</time>
      </trkpt>
      <trkpt lat="37.0542" lon="-3.33602">
        <ele>3091.6</ele>
        <time>2021-08-05 21:29:08</time>
      </trkpt>
      <trkpt lat="37.0542" lon="-3.33602">
        <ele>3091.8</ele>
        <time>2021-08-05 21:29:09</time>
      </trkpt>
      <trkpt lat="37.0542" lon="-3.33602">
        <ele>3091.8</ele>
        <time>2021-08-05 21:29:10</time>
      </trkpt>
      <trkpt lat="37.0542" lon="-3.33603">
        <ele>3091.8</ele>
        <time>2021-08-05 21:29:11</time>
      </trkpt>
      <trkpt lat="37.0542" lon="-3.33602">
        <ele>3091.8</ele>
        <time>2021-08-05 21:29:12</time>
      </trkpt>
      <trkpt lat="37.0542" lon="-3.33602">
        <ele>3092</ele>
        <time>2021-08-05 21:29:13</time>
      </trkpt>
      <trkpt lat="37.0542" lon="-3.33602">
        <ele>3092</ele>
        <time>2021-08-05 21:29:14</time>
      </trkpt>
      <trkpt lat="37.0542" lon="-3.33602">
        <ele>3092</ele>
        <time>2021-08-05 21:29:15</time>
      </trkpt>
      <trkpt lat="37.0542" lon="-3.33602">
        <ele>3092</ele>
        <time>2021-08-05 21:29:16</time>
      </trkpt>
      <trkpt lat="37.0542" lon="-3.33602">
        <ele>3092</ele>
        <time>2021-08-05 21:29:17</time>
      </trkpt>
      <trkpt lat="37.0542" lon="-3.33602">
        <ele>3092</ele>
        <time>2021-08-05 21:29:18</time>
      </trkpt>
      <trkpt lat="37.0542" lon="-3.33602">
        <ele>3092</ele>
        <time>2021-08-05 21:29:19</time>
      </trkpt>
      <trkpt lat="37.05419" lon="-3.33602">
        <ele>3092</ele>
        <time>2021-08-05 21:29:20</time>
      </trkpt>
      <trkpt lat="37.05419" lon="-3.33602">
        <ele>3092</ele>
        <time>2021-08-05 21:29:21</time>
      </trkpt>
      <trkpt lat="37.05419" lon="-3.33602">
        <ele>3092</ele>
        <time>2021-08-05 21:29:22</time>
      </trkpt>
      <trkpt lat="37.05419" lon="-3.33602">
        <ele>3092.4</ele>
        <time>2021-08-05 21:29:23</time>
      </trkpt>
      <trkpt lat="37.05419" lon="-3.33602">
        <ele>3092.4</ele>
        <time>2021-08-05 21:29:24</time>
      </trkpt>
      <trkpt lat="37.05419" lon="-3.33602">
        <ele>3093.4</ele>
        <time>2021-08-05 21:29:25</time>
      </trkpt>
      <trkpt lat="37.05419" lon="-3.33601">
        <ele>3093.4</ele>
        <time>2021-08-05 21:29:26</time>
      </trkpt>
      <trkpt lat="37.05419" lon="-3.33601">
        <ele>3093.4</ele>
        <time>2021-08-05 21:29:27</time>
      </trkpt>
      <trkpt lat="37.05418" lon="-3.33601">
        <ele>3093.4</ele>
        <time>2021-08-05 21:29:28</time>
      </trkpt>
      <trkpt lat="37.05418" lon="-3.33601">
        <ele>3093.4</ele>
        <time>2021-08-05 21:29:29</time>
      </trkpt>
      <trkpt lat="37.05419" lon="-3.33601">
        <ele>3093.4</ele>
        <time>2021-08-05 21:29:30</time>
      </trkpt>
      <trkpt lat="37.05419" lon="-3.33601">
        <ele>3093.4</ele>
        <time>2021-08-05 21:29:31</time>
      </trkpt>
      <trkpt lat="37.05419" lon="-3.33602">
        <ele>3093.4</ele>
        <time>2021-08-05 21:29:32</time>
      </trkpt>
      <trkpt lat="37.05419" lon="-3.33602">
        <ele>3093.4</ele>
        <time>2021-08-05 21:29:33</time>
      </trkpt>
      <trkpt lat="37.05419" lon="-3.33602">
        <ele>3093.4</ele>
        <time>2021-08-05 21:29:34</time>
      </trkpt>
      <trkpt lat="37.05419" lon="-3.33602">
        <ele>3093.4</ele>
        <time>2021-08-05 21:29:35</time>
      </trkpt>
      <trkpt lat="37.05419" lon="-3.33602">
        <ele>3093.4</ele>
        <time>2021-08-05 21:29:36</time>
      </trkpt>
      <trkpt lat="37.05419" lon="-3.33602">
        <ele>3093.4</ele>
        <time>2021-08-05 21:29:37</time>
      </trkpt>
      <trkpt lat="37.05419" lon="-3.33602">
        <ele>3093.4</ele>
        <time>2021-08-05 21:29:38</time>
      </trkpt>
      <trkpt lat="37.05419" lon="-3.33602">
        <ele>3093.4</ele>
        <time>2021-08-05 21:29:39</time>
      </trkpt>
      <trkpt lat="37.05419" lon="-3.33602">
        <ele>3093.4</ele>
        <time>2021-08-05 21:29:40</time>
      </trkpt>
      <trkpt lat="37.05419" lon="-3.33602">
        <ele>3093.4</ele>
        <time>2021-08-05 21:29:41</time>
      </trkpt>
      <trkpt lat="37.05419" lon="-3.33602">
        <ele>3093.4</ele>
        <time>2021-08-05 21:29:42</time>
      </trkpt>
      <trkpt lat="37.05419" lon="-3.33602">
        <ele>3093.4</ele>
        <time>2021-08-05 21:29:43</time>
      </trkpt>
      <trkpt lat="37.05419" lon="-3.33602">
        <ele>3093.4</ele>
        <time>2021-08-05 21:29:44</time>
      </trkpt>
      <trkpt lat="37.05419" lon="-3.33602">
        <ele>3093.4</ele>
        <time>2021-08-05 21:29:45</time>
      </trkpt>
      <trkpt lat="37.05419" lon="-3.33602">
        <ele>3093.4</ele>
        <time>2021-08-05 21:29:46</time>
      </trkpt>
      <trkpt lat="37.05419" lon="-3.33602">
        <ele>3093.4</ele>
        <time>2021-08-05 21:29:47</time>
      </trkpt>
      <trkpt lat="37.05418" lon="-3.33602">
        <ele>3093.4</ele>
        <time>2021-08-05 21:29:48</time>
      </trkpt>
      <trkpt lat="37.05418" lon="-3.33602">
        <ele>3093.4</ele>
        <time>2021-08-05 21:29:49</time>
      </trkpt>
      <trkpt lat="37.05418" lon="-3.33602">
        <ele>3093.4</ele>
        <time>2021-08-05 21:29:50</time>
      </trkpt>
      <trkpt lat="37.05418" lon="-3.33602">
        <ele>3093.4</ele>
        <time>2021-08-05 21:29:51</time>
      </trkpt>
      <trkpt lat="37.05418" lon="-3.33602">
        <ele>3093.4</ele>
        <time>2021-08-05 21:29:52</time>
      </trkpt>
      <trkpt lat="37.05418" lon="-3.33602">
        <ele>3093.4</ele>
        <time>2021-08-05 21:29:53</time>
      </trkpt>
      <trkpt lat="37.05418" lon="-3.33602">
        <ele>3093.4</ele>
        <time>2021-08-05 21:29:54</time>
      </trkpt>
      <trkpt lat="37.05418" lon="-3.33602">
        <ele>3093.4</ele>
        <time>2021-08-05 21:29:55</time>
      </trkpt>
      <trkpt lat="37.05418" lon="-3.33602">
        <ele>3093.4</ele>
        <time>2021-08-05 21:29:56</time>
      </trkpt>
      <trkpt lat="37.05418" lon="-3.33602">
        <ele>3093.4</ele>
        <time>2021-08-05 21:29:57</time>
      </trkpt>
      <trkpt lat="37.05418" lon="-3.33602">
        <ele>3093.4</ele>
        <time>2021-08-05 21:29:58</time>
      </trkpt>
      <trkpt lat="37.05418" lon="-3.33602">
        <ele>3093.4</ele>
        <time>2021-08-05 21:29:59</time>
      </trkpt>
      <trkpt lat="37.05418" lon="-3.33602">
        <ele>3093.4</ele>
        <time>2021-08-05 21:30:00</time>
      </trkpt>
      <trkpt lat="37.05418" lon="-3.33602">
        <ele>3093.4</ele>
        <time>2021-08-05 21:30:01</time>
      </trkpt>
      <trkpt lat="37.05418" lon="-3.33602">
        <ele>3093.4</ele>
        <time>2021-08-05 21:30:02</time>
      </trkpt>
      <trkpt lat="37.05418" lon="-3.33602">
        <ele>3093.4</ele>
        <time>2021-08-05 21:30:03</time>
      </trkpt>
      <trkpt lat="37.05418" lon="-3.33602">
        <ele>3093.4</ele>
        <time>2021-08-05 21:30:04</time>
      </trkpt>
      <trkpt lat="37.05418" lon="-3.33602">
        <ele>3093.4</ele>
        <time>2021-08-05 21:30:05</time>
      </trkpt>
      <trkpt lat="37.05418" lon="-3.33602">
        <ele>3093.4</ele>
        <time>2021-08-05 21:30:06</time>
      </trkpt>
      <trkpt lat="37.05418" lon="-3.33602">
        <ele>3093.4</ele>
        <time>2021-08-05 21:30:07</time>
      </trkpt>
      <trkpt lat="37.05418" lon="-3.33602">
        <ele>3093.4</ele>
        <time>2021-08-05 21:30:08</time>
      </trkpt>
      <trkpt lat="37.05418" lon="-3.33602">
        <ele>3093.4</ele>
        <time>2021-08-05 21:30:09</time>
      </trkpt>
      <trkpt lat="37.05418" lon="-3.33602">
        <ele>3093.4</ele>
        <time>2021-08-05 21:30:10</time>
      </trkpt>
      <trkpt lat="37.05418" lon="-3.33602">
        <ele>3093.4</ele>
        <time>2021-08-05 21:30:11</time>
      </trkpt>
      <trkpt lat="37.05418" lon="-3.33602">
        <ele>3093.4</ele>
        <time>2021-08-05 21:30:12</time>
      </trkpt>
      <trkpt lat="37.05418" lon="-3.33602">
        <ele>3093.4</ele>
        <time>2021-08-05 21:30:13</time>
      </trkpt>
      <trkpt lat="37.05418" lon="-3.33602">
        <ele>3093.4</ele>
        <time>2021-08-05 21:30:14</time>
      </trkpt>
      <trkpt lat="37.05418" lon="-3.33602">
        <ele>3093.4</ele>
        <time>2021-08-05 21:30:15</time>
      </trkpt>
      <trkpt lat="37.05418" lon="-3.33602">
        <ele>3093.4</ele>
        <time>2021-08-05 21:30:16</time>
      </trkpt>
      <trkpt lat="37.05418" lon="-3.33602">
        <ele>3093.4</ele>
        <time>2021-08-05 21:30:17</time>
      </trkpt>
      <trkpt lat="37.05418" lon="-3.33602">
        <ele>3093.4</ele>
        <time>2021-08-05 21:30:18</time>
      </trkpt>
      <trkpt lat="37.05418" lon="-3.33602">
        <ele>3093.4</ele>
        <time>2021-08-05 21:30:19</time>
      </trkpt>
      <trkpt lat="37.05418" lon="-3.33602">
        <ele>3093.4</ele>
        <time>2021-08-05 21:30:20</time>
      </trkpt>
      <trkpt lat="37.05418" lon="-3.33602">
        <ele>3093.4</ele>
        <time>2021-08-05 21:30:21</time>
      </trkpt>
      <trkpt lat="37.05418" lon="-3.33602">
        <ele>3093.4</ele>
        <time>2021-08-05 21:30:22</time>
      </trkpt>
      <trkpt lat="37.05418" lon="-3.33602">
        <ele>3093.4</ele>
        <time>2021-08-05 21:30:23</time>
      </trkpt>
      <trkpt lat="37.05418" lon="-3.33602">
        <ele>3093.4</ele>
        <time>2021-08-05 21:30:24</time>
      </trkpt>
      <trkpt lat="37.05418" lon="-3.33602">
        <ele>3093.4</ele>
        <time>2021-08-05 21:30:25</time>
      </trkpt>
      <trkpt lat="37.05418" lon="-3.33602">
        <ele>3093.4</ele>
        <time>2021-08-05 21:30:26</time>
      </trkpt>
      <trkpt lat="37.05418" lon="-3.33602">
        <ele>3093.4</ele>
        <time>2021-08-05 21:30:27</time>
      </trkpt>
      <trkpt lat="37.05418" lon="-3.33602">
        <ele>3093.4</ele>
        <time>2021-08-05 21:30:28</time>
      </trkpt>
      <trkpt lat="37.05418" lon="-3.33602">
        <ele>3093.4</ele>
        <time>2021-08-05 21:30:29</time>
      </trkpt>
      <trkpt lat="37.05418" lon="-3.33602">
        <ele>3093.4</ele>
        <time>2021-08-05 21:30:30</time>
      </trkpt>
      <trkpt lat="37.05418" lon="-3.33602">
        <ele>3093.4</ele>
        <time>2021-08-05 21:30:31</time>
      </trkpt>
      <trkpt lat="37.05418" lon="-3.33602">
        <ele>3093.4</ele>
        <time>2021-08-05 21:30:32</time>
      </trkpt>
      <trkpt lat="37.05418" lon="-3.33602">
        <ele>3093.4</ele>
        <time>2021-08-05 21:30:33</time>
      </trkpt>
      <trkpt lat="37.05418" lon="-3.33602">
        <ele>3093.4</ele>
        <time>2021-08-05 21:30:34</time>
      </trkpt>
      <trkpt lat="37.05418" lon="-3.33602">
        <ele>3093.4</ele>
        <time>2021-08-05 21:30:35</time>
      </trkpt>
      <trkpt lat="37.05418" lon="-3.33602">
        <ele>3093.4</ele>
        <time>2021-08-05 21:30:36</time>
      </trkpt>
      <trkpt lat="37.05418" lon="-3.33602">
        <ele>3093.4</ele>
        <time>2021-08-05 21:30:37</time>
      </trkpt>
      <trkpt lat="37.05418" lon="-3.33602">
        <ele>3093.4</ele>
        <time>2021-08-05 21:30:38</time>
      </trkpt>
      <trkpt lat="37.05418" lon="-3.33602">
        <ele>3093.4</ele>
        <time>2021-08-05 21:30:39</time>
      </trkpt>
      <trkpt lat="37.05418" lon="-3.33602">
        <ele>3093.4</ele>
        <time>2021-08-05 21:30:40</time>
      </trkpt>
      <trkpt lat="37.05418" lon="-3.33602">
        <ele>3093.4</ele>
        <time>2021-08-05 21:30:41</time>
      </trkpt>
      <trkpt lat="37.05418" lon="-3.33602">
        <ele>3093.4</ele>
        <time>2021-08-05 21:30:42</time>
      </trkpt>
      <trkpt lat="37.05418" lon="-3.33602">
        <ele>3093.4</ele>
        <time>2021-08-05 21:30:43</time>
      </trkpt>
      <trkpt lat="37.05419" lon="-3.33602">
        <ele>3093.4</ele>
        <time>2021-08-05 21:30:44</time>
      </trkpt>
      <trkpt lat="37.05419" lon="-3.33602">
        <ele>3093.4</ele>
        <time>2021-08-05 21:30:45</time>
      </trkpt>
      <trkpt lat="37.05419" lon="-3.33602">
        <ele>3093.4</ele>
        <time>2021-08-05 21:30:46</time>
      </trkpt>
      <trkpt lat="37.05419" lon="-3.33601">
        <ele>3093.4</ele>
        <time>2021-08-05 21:30:47</time>
      </trkpt>
      <trkpt lat="37.0542" lon="-3.33601">
        <ele>3093.4</ele>
        <time>2021-08-05 21:30:48</time>
      </trkpt>
      <trkpt lat="37.05419" lon="-3.33601">
        <ele>3093.4</ele>
        <time>2021-08-05 21:30:49</time>
      </trkpt>
      <trkpt lat="37.05419" lon="-3.33601">
        <ele>3093.4</ele>
        <time>2021-08-05 21:30:50</time>
      </trkpt>
      <trkpt lat="37.05419" lon="-3.33602">
        <ele>3093.4</ele>
        <time>2021-08-05 21:30:51</time>
      </trkpt>
      <trkpt lat="37.05419" lon="-3.33602">
        <ele>3093.4</ele>
        <time>2021-08-05 21:30:52</time>
      </trkpt>
      <trkpt lat="37.05418" lon="-3.33602">
        <ele>3093.4</ele>
        <time>2021-08-05 21:30:53</time>
      </trkpt>
      <trkpt lat="37.05418" lon="-3.33602">
        <ele>3093.4</ele>
        <time>2021-08-05 21:30:54</time>
      </trkpt>
      <trkpt lat="37.05418" lon="-3.33602">
        <ele>3093.4</ele>
        <time>2021-08-05 21:30:55</time>
      </trkpt>
      <trkpt lat="37.05418" lon="-3.33602">
        <ele>3093.4</ele>
        <time>2021-08-05 21:30:56</time>
      </trkpt>
      <trkpt lat="37.05418" lon="-3.33602">
        <ele>3093.4</ele>
        <time>2021-08-05 21:30:57</time>
      </trkpt>
      <trkpt lat="37.05418" lon="-3.33602">
        <ele>3093.4</ele>
        <time>2021-08-05 21:30:58</time>
      </trkpt>
      <trkpt lat="37.05418" lon="-3.33602">
        <ele>3093.4</ele>
        <time>2021-08-05 21:30:59</time>
      </trkpt>
      <trkpt lat="37.05418" lon="-3.33602">
        <ele>3093.4</ele>
        <time>2021-08-05 21:31:00</time>
      </trkpt>
      <trkpt lat="37.05417" lon="-3.33602">
        <ele>3093.4</ele>
        <time>2021-08-05 21:31:01</time>
      </trkpt>
      <trkpt lat="37.05417" lon="-3.33601">
        <ele>3093.4</ele>
        <time>2021-08-05 21:31:02</time>
      </trkpt>
      <trkpt lat="37.05417" lon="-3.33601">
        <ele>3093.4</ele>
        <time>2021-08-05 21:31:03</time>
      </trkpt>
      <trkpt lat="37.05417" lon="-3.33601">
        <ele>3093.4</ele>
        <time>2021-08-05 21:31:04</time>
      </trkpt>
      <trkpt lat="37.05417" lon="-3.33601">
        <ele>3093.4</ele>
        <time>2021-08-05 21:31:05</time>
      </trkpt>
      <trkpt lat="37.05417" lon="-3.33601">
        <ele>3093.4</ele>
        <time>2021-08-05 21:31:06</time>
      </trkpt>
      <trkpt lat="37.05417" lon="-3.33601">
        <ele>3093.4</ele>
        <time>2021-08-05 21:31:07</time>
      </trkpt>
      <trkpt lat="37.05417" lon="-3.33601">
        <ele>3093.4</ele>
        <time>2021-08-05 21:31:08</time>
      </trkpt>
      <trkpt lat="37.05417" lon="-3.33601">
        <ele>3093.4</ele>
        <time>2021-08-05 21:31:09</time>
      </trkpt>
      <trkpt lat="37.05417" lon="-3.33601">
        <ele>3093.4</ele>
        <time>2021-08-05 21:31:10</time>
      </trkpt>
      <trkpt lat="37.05417" lon="-3.33601">
        <ele>3093.4</ele>
        <time>2021-08-05 21:31:11</time>
      </trkpt>
      <trkpt lat="37.05417" lon="-3.33601">
        <ele>3093.4</ele>
        <time>2021-08-05 21:31:12</time>
      </trkpt>
      <trkpt lat="37.05417" lon="-3.33601">
        <ele>3093.4</ele>
        <time>2021-08-05 21:31:13</time>
      </trkpt>
      <trkpt lat="37.05417" lon="-3.33601">
        <ele>3093.4</ele>
        <time>2021-08-05 21:31:14</time>
      </trkpt>
      <trkpt lat="37.05417" lon="-3.33601">
        <ele>3093.4</ele>
        <time>2021-08-05 21:31:15</time>
      </trkpt>
      <trkpt lat="37.05417" lon="-3.33601">
        <ele>3093.4</ele>
        <time>2021-08-05 21:31:16</time>
      </trkpt>
      <trkpt lat="37.05417" lon="-3.33602">
        <ele>3093.4</ele>
        <time>2021-08-05 21:31:17</time>
      </trkpt>
      <trkpt lat="37.05417" lon="-3.33602">
        <ele>3093.4</ele>
        <time>2021-08-05 21:31:18</time>
      </trkpt>
      <trkpt lat="37.05417" lon="-3.33602">
        <ele>3093.4</ele>
        <time>2021-08-05 21:31:19</time>
      </trkpt>
      <trkpt lat="37.05417" lon="-3.33603">
        <ele>3093.4</ele>
        <time>2021-08-05 21:31:20</time>
      </trkpt>
      <trkpt lat="37.05417" lon="-3.33603">
        <ele>3093.4</ele>
        <time>2021-08-05 21:31:21</time>
      </trkpt>
      <trkpt lat="37.05417" lon="-3.33603">
        <ele>3093.4</ele>
        <time>2021-08-05 21:31:22</time>
      </trkpt>
      <trkpt lat="37.05418" lon="-3.33603">
        <ele>3093.4</ele>
        <time>2021-08-05 21:31:23</time>
      </trkpt>
      <trkpt lat="37.05418" lon="-3.33603">
        <ele>3093.4</ele>
        <time>2021-08-05 21:31:24</time>
      </trkpt>
      <trkpt lat="37.05418" lon="-3.33603">
        <ele>3093.4</ele>
        <time>2021-08-05 21:31:25</time>
      </trkpt>
      <trkpt lat="37.05418" lon="-3.33604">
        <ele>3093.4</ele>
        <time>2021-08-05 21:31:26</time>
      </trkpt>
      <trkpt lat="37.05419" lon="-3.33604">
        <ele>3093.4</ele>
        <time>2021-08-05 21:31:27</time>
      </trkpt>
      <trkpt lat="37.05418" lon="-3.33603">
        <ele>3093.4</ele>
        <time>2021-08-05 21:31:28</time>
      </trkpt>
      <trkpt lat="37.05418" lon="-3.33603">
        <ele>3093.4</ele>
        <time>2021-08-05 21:31:29</time>
      </trkpt>
      <trkpt lat="37.05418" lon="-3.33603">
        <ele>3093.4</ele>
        <time>2021-08-05 21:31:30</time>
      </trkpt>
      <trkpt lat="37.05418" lon="-3.33603">
        <ele>3093.4</ele>
        <time>2021-08-05 21:31:31</time>
      </trkpt>
      <trkpt lat="37.05418" lon="-3.33603">
        <ele>3093.4</ele>
        <time>2021-08-05 21:31:32</time>
      </trkpt>
      <trkpt lat="37.05419" lon="-3.33604">
        <ele>3093.4</ele>
        <time>2021-08-05 21:31:33</time>
      </trkpt>
      <trkpt lat="37.05419" lon="-3.33604">
        <ele>3093.4</ele>
        <time>2021-08-05 21:31:34</time>
      </trkpt>
      <trkpt lat="37.0542" lon="-3.33605">
        <ele>3093.4</ele>
        <time>2021-08-05 21:31:35</time>
      </trkpt>
      <trkpt lat="37.0542" lon="-3.33605">
        <ele>3093.4</ele>
        <time>2021-08-05 21:31:36</time>
      </trkpt>
      <trkpt lat="37.05421" lon="-3.33605">
        <ele>3093.4</ele>
        <time>2021-08-05 21:31:37</time>
      </trkpt>
      <trkpt lat="37.05421" lon="-3.33605">
        <ele>3093.4</ele>
        <time>2021-08-05 21:31:38</time>
      </trkpt>
      <trkpt lat="37.05421" lon="-3.33605">
        <ele>3093.4</ele>
        <time>2021-08-05 21:31:39</time>
      </trkpt>
      <trkpt lat="37.05421" lon="-3.33605">
        <ele>3093.4</ele>
        <time>2021-08-05 21:31:40</time>
      </trkpt>
      <trkpt lat="37.05421" lon="-3.33605">
        <ele>3093.4</ele>
        <time>2021-08-05 21:31:41</time>
      </trkpt>
      <trkpt lat="37.05421" lon="-3.33605">
        <ele>3093.4</ele>
        <time>2021-08-05 21:31:42</time>
      </trkpt>
      <trkpt lat="37.05421" lon="-3.33605">
        <ele>3093.4</ele>
        <time>2021-08-05 21:31:43</time>
      </trkpt>
      <trkpt lat="37.05421" lon="-3.33605">
        <ele>3093.4</ele>
        <time>2021-08-05 21:31:44</time>
      </trkpt>
      <trkpt lat="37.05421" lon="-3.33605">
        <ele>3093.4</ele>
        <time>2021-08-05 21:31:45</time>
      </trkpt>
      <trkpt lat="37.05422" lon="-3.33605">
        <ele>3093.4</ele>
        <time>2021-08-05 21:31:46</time>
      </trkpt>
      <trkpt lat="37.05422" lon="-3.33605">
        <ele>3093.4</ele>
        <time>2021-08-05 21:31:47</time>
      </trkpt>
      <trkpt lat="37.05422" lon="-3.33605">
        <ele>3093.4</ele>
        <time>2021-08-05 21:31:48</time>
      </trkpt>
      <trkpt lat="37.05422" lon="-3.33605">
        <ele>3093.4</ele>
        <time>2021-08-05 21:31:49</time>
      </trkpt>
      <trkpt lat="37.05421" lon="-3.33605">
        <ele>3093.4</ele>
        <time>2021-08-05 21:31:50</time>
      </trkpt>
      <trkpt lat="37.05421" lon="-3.33605">
        <ele>3093.4</ele>
        <time>2021-08-05 21:31:51</time>
      </trkpt>
      <trkpt lat="37.05421" lon="-3.33605">
        <ele>3093.4</ele>
        <time>2021-08-05 21:31:52</time>
      </trkpt>
      <trkpt lat="37.05421" lon="-3.33605">
        <ele>3093.4</ele>
        <time>2021-08-05 21:31:53</time>
      </trkpt>
      <trkpt lat="37.05421" lon="-3.33605">
        <ele>3093.4</ele>
        <time>2021-08-05 21:31:54</time>
      </trkpt>
      <trkpt lat="37.05421" lon="-3.33605">
        <ele>3093.4</ele>
        <time>2021-08-05 21:31:55</time>
      </trkpt>
      <trkpt lat="37.0542" lon="-3.33605">
        <ele>3093.4</ele>
        <time>2021-08-05 21:31:56</time>
      </trkpt>
      <trkpt lat="37.05421" lon="-3.33605">
        <ele>3093.4</ele>
        <time>2021-08-05 21:31:57</time>
      </trkpt>
      <trkpt lat="37.05421" lon="-3.33606">
        <ele>3093.4</ele>
        <time>2021-08-05 21:31:58</time>
      </trkpt>
      <trkpt lat="37.05421" lon="-3.33606">
        <ele>3093.4</ele>
        <time>2021-08-05 21:31:59</time>
      </trkpt>
      <trkpt lat="37.05421" lon="-3.33605">
        <ele>3093.4</ele>
        <time>2021-08-05 21:32:00</time>
      </trkpt>
      <trkpt lat="37.05421" lon="-3.33606">
        <ele>3093.4</ele>
        <time>2021-08-05 21:32:01</time>
      </trkpt>
      <trkpt lat="37.05422" lon="-3.33606">
        <ele>3093.4</ele>
        <time>2021-08-05 21:32:02</time>
      </trkpt>
      <trkpt lat="37.05422" lon="-3.33607">
        <ele>3093.4</ele>
        <time>2021-08-05 21:32:03</time>
      </trkpt>
      <trkpt lat="37.05423" lon="-3.33608">
        <ele>3093.4</ele>
        <time>2021-08-05 21:32:04</time>
      </trkpt>
      <trkpt lat="37.05423" lon="-3.33608">
        <ele>3093.4</ele>
        <time>2021-08-05 21:32:05</time>
      </trkpt>
      <trkpt lat="37.05424" lon="-3.33609">
        <ele>3093.4</ele>
        <time>2021-08-05 21:32:06</time>
      </trkpt>
      <trkpt lat="37.05425" lon="-3.3361">
        <ele>3093.4</ele>
        <time>2021-08-05 21:32:07</time>
      </trkpt>
      <trkpt lat="37.05425" lon="-3.3361">
        <ele>3093.4</ele>
        <time>2021-08-05 21:32:08</time>
      </trkpt>
      <trkpt lat="37.05425" lon="-3.3361">
        <ele>3093.4</ele>
        <time>2021-08-05 21:32:09</time>
      </trkpt>
      <trkpt lat="37.05426" lon="-3.3361">
        <ele>3093.4</ele>
        <time>2021-08-05 21:32:10</time>
      </trkpt>
      <trkpt lat="37.05426" lon="-3.3361">
        <ele>3093.4</ele>
        <time>2021-08-05 21:32:11</time>
      </trkpt>
      <trkpt lat="37.05425" lon="-3.33608">
        <ele>3093.4</ele>
        <time>2021-08-05 21:32:12</time>
      </trkpt>
      <trkpt lat="37.05424" lon="-3.33608">
        <ele>3093.4</ele>
        <time>2021-08-05 21:32:13</time>
      </trkpt>
      <trkpt lat="37.05424" lon="-3.33607">
        <ele>3093.4</ele>
        <time>2021-08-05 21:32:14</time>
      </trkpt>
      <trkpt lat="37.05424" lon="-3.33608">
        <ele>3093.4</ele>
        <time>2021-08-05 21:32:15</time>
      </trkpt>
      <trkpt lat="37.05425" lon="-3.33608">
        <ele>3093.4</ele>
        <time>2021-08-05 21:32:16</time>
      </trkpt>
      <trkpt lat="37.05425" lon="-3.33608">
        <ele>3093.4</ele>
        <time>2021-08-05 21:32:17</time>
      </trkpt>
      <trkpt lat="37.05425" lon="-3.33608">
        <ele>3093.4</ele>
        <time>2021-08-05 21:32:18</time>
      </trkpt>
      <trkpt lat="37.05425" lon="-3.33608">
        <ele>3093.4</ele>
        <time>2021-08-05 21:32:19</time>
      </trkpt>
      <trkpt lat="37.05424" lon="-3.33608">
        <ele>3093.4</ele>
        <time>2021-08-05 21:32:20</time>
      </trkpt>
      <trkpt lat="37.05424" lon="-3.33608">
        <ele>3093.4</ele>
        <time>2021-08-05 21:32:21</time>
      </trkpt>
      <trkpt lat="37.05425" lon="-3.33608">
        <ele>3093.4</ele>
        <time>2021-08-05 21:32:22</time>
      </trkpt>
      <trkpt lat="37.05425" lon="-3.33607">
        <ele>3093.4</ele>
        <time>2021-08-05 21:32:23</time>
      </trkpt>
      <trkpt lat="37.05424" lon="-3.33607">
        <ele>3093.4</ele>
        <time>2021-08-05 21:32:24</time>
      </trkpt>
      <trkpt lat="37.05424" lon="-3.33607">
        <ele>3093.4</ele>
        <time>2021-08-05 21:32:25</time>
      </trkpt>
      <trkpt lat="37.05424" lon="-3.33607">
        <ele>3093.4</ele>
        <time>2021-08-05 21:32:26</time>
      </trkpt>
      <trkpt lat="37.05423" lon="-3.33606">
        <ele>3093.4</ele>
        <time>2021-08-05 21:32:27</time>
      </trkpt>
      <trkpt lat="37.05423" lon="-3.33606">
        <ele>3093.4</ele>
        <time>2021-08-05 21:32:28</time>
      </trkpt>
      <trkpt lat="37.05423" lon="-3.33606">
        <ele>3093.4</ele>
        <time>2021-08-05 21:32:29</time>
      </trkpt>
      <trkpt lat="37.05423" lon="-3.33606">
        <ele>3093.4</ele>
        <time>2021-08-05 21:32:30</time>
      </trkpt>
      <trkpt lat="37.05423" lon="-3.33606">
        <ele>3093.4</ele>
        <time>2021-08-05 21:32:31</time>
      </trkpt>
      <trkpt lat="37.05423" lon="-3.33606">
        <ele>3093.4</ele>
        <time>2021-08-05 21:32:32</time>
      </trkpt>
      <trkpt lat="37.05423" lon="-3.33606">
        <ele>3093.4</ele>
        <time>2021-08-05 21:32:33</time>
      </trkpt>
      <trkpt lat="37.05423" lon="-3.33606">
        <ele>3093.4</ele>
        <time>2021-08-05 21:32:34</time>
      </trkpt>
      <trkpt lat="37.05423" lon="-3.33606">
        <ele>3093.4</ele>
        <time>2021-08-05 21:32:35</time>
      </trkpt>
      <trkpt lat="37.05423" lon="-3.33606">
        <ele>3093.4</ele>
        <time>2021-08-05 21:32:36</time>
      </trkpt>
      <trkpt lat="37.05423" lon="-3.33606">
        <ele>3093.4</ele>
        <time>2021-08-05 21:32:37</time>
      </trkpt>
      <trkpt lat="37.05423" lon="-3.33606">
        <ele>3093.4</ele>
        <time>2021-08-05 21:32:38</time>
      </trkpt>
      <trkpt lat="37.05423" lon="-3.33606">
        <ele>3093.4</ele>
        <time>2021-08-05 21:32:39</time>
      </trkpt>
      <trkpt lat="37.05422" lon="-3.33605">
        <ele>3093.4</ele>
        <time>2021-08-05 21:32:40</time>
      </trkpt>
      <trkpt lat="37.05422" lon="-3.33605">
        <ele>3093.4</ele>
        <time>2021-08-05 21:32:41</time>
      </trkpt>
      <trkpt lat="37.05422" lon="-3.33605">
        <ele>3093.4</ele>
        <time>2021-08-05 21:32:42</time>
      </trkpt>
      <trkpt lat="37.05422" lon="-3.33604">
        <ele>3093.4</ele>
        <time>2021-08-05 21:32:43</time>
      </trkpt>
      <trkpt lat="37.05422" lon="-3.33604">
        <ele>3093.4</ele>
        <time>2021-08-05 21:32:44</time>
      </trkpt>
      <trkpt lat="37.05422" lon="-3.33604">
        <ele>3093.4</ele>
        <time>2021-08-05 21:32:45</time>
      </trkpt>
      <trkpt lat="37.05422" lon="-3.33604">
        <ele>3093.4</ele>
        <time>2021-08-05 21:32:46</time>
      </trkpt>
      <trkpt lat="37.05421" lon="-3.33604">
        <ele>3093.4</ele>
        <time>2021-08-05 21:32:47</time>
      </trkpt>
      <trkpt lat="37.05421" lon="-3.33604">
        <ele>3093.4</ele>
        <time>2021-08-05 21:32:48</time>
      </trkpt>
      <trkpt lat="37.05421" lon="-3.33604">
        <ele>3093.4</ele>
        <time>2021-08-05 21:32:49</time>
      </trkpt>
      <trkpt lat="37.05421" lon="-3.33604">
        <ele>3093.4</ele>
        <time>2021-08-05 21:32:50</time>
      </trkpt>
      <trkpt lat="37.05421" lon="-3.33603">
        <ele>3093.4</ele>
        <time>2021-08-05 21:32:51</time>
      </trkpt>
      <trkpt lat="37.05421" lon="-3.33603">
        <ele>3093.4</ele>
        <time>2021-08-05 21:32:52</time>
      </trkpt>
      <trkpt lat="37.05421" lon="-3.33603">
        <ele>3093.4</ele>
        <time>2021-08-05 21:32:53</time>
      </trkpt>
      <trkpt lat="37.05421" lon="-3.33603">
        <ele>3093.4</ele>
        <time>2021-08-05 21:32:54</time>
      </trkpt>
      <trkpt lat="37.05421" lon="-3.33604">
        <ele>3093.4</ele>
        <time>2021-08-05 21:32:55</time>
      </trkpt>
      <trkpt lat="37.05421" lon="-3.33603">
        <ele>3093.4</ele>
        <time>2021-08-05 21:32:56</time>
      </trkpt>
      <trkpt lat="37.05421" lon="-3.33603">
        <ele>3093.4</ele>
        <time>2021-08-05 21:32:57</time>
      </trkpt>
      <trkpt lat="37.05421" lon="-3.33603">
        <ele>3093.4</ele>
        <time>2021-08-05 21:32:58</time>
      </trkpt>
      <trkpt lat="37.05421" lon="-3.33603">
        <ele>3093.4</ele>
        <time>2021-08-05 21:32:59</time>
      </trkpt>
      <trkpt lat="37.05421" lon="-3.33603">
        <ele>3093.4</ele>
        <time>2021-08-05 21:33:00</time>
      </trkpt>
      <trkpt lat="37.05421" lon="-3.33602">
        <ele>3093.4</ele>
        <time>2021-08-05 21:33:01</time>
      </trkpt>
      <trkpt lat="37.05421" lon="-3.33602">
        <ele>3093.4</ele>
        <time>2021-08-05 21:33:02</time>
      </trkpt>
      <trkpt lat="37.05421" lon="-3.33602">
        <ele>3093.4</ele>
        <time>2021-08-05 21:33:03</time>
      </trkpt>
      <trkpt lat="37.05421" lon="-3.33602">
        <ele>3093.4</ele>
        <time>2021-08-05 21:33:04</time>
      </trkpt>
      <trkpt lat="37.05421" lon="-3.33602">
        <ele>3093.4</ele>
        <time>2021-08-05 21:33:05</time>
      </trkpt>
      <trkpt lat="37.05421" lon="-3.33602">
        <ele>3093.4</ele>
        <time>2021-08-05 21:33:06</time>
      </trkpt>
      <trkpt lat="37.0542" lon="-3.33601">
        <ele>3093.4</ele>
        <time>2021-08-05 21:33:07</time>
      </trkpt>
      <trkpt lat="37.0542" lon="-3.336">
        <ele>3093.4</ele>
        <time>2021-08-05 21:33:08</time>
      </trkpt>
      <trkpt lat="37.0542" lon="-3.336">
        <ele>3093.4</ele>
        <time>2021-08-05 21:33:09</time>
      </trkpt>
      <trkpt lat="37.0542" lon="-3.33599">
        <ele>3093.4</ele>
        <time>2021-08-05 21:33:10</time>
      </trkpt>
      <trkpt lat="37.05419" lon="-3.33599">
        <ele>3093.4</ele>
        <time>2021-08-05 21:33:11</time>
      </trkpt>
      <trkpt lat="37.05419" lon="-3.33598">
        <ele>3093.4</ele>
        <time>2021-08-05 21:33:12</time>
      </trkpt>
      <trkpt lat="37.05419" lon="-3.33598">
        <ele>3093.4</ele>
        <time>2021-08-05 21:33:13</time>
      </trkpt>
      <trkpt lat="37.05419" lon="-3.33598">
        <ele>3093.4</ele>
        <time>2021-08-05 21:33:14</time>
      </trkpt>
      <trkpt lat="37.05419" lon="-3.33598">
        <ele>3093.4</ele>
        <time>2021-08-05 21:33:15</time>
      </trkpt>
      <trkpt lat="37.0542" lon="-3.33599">
        <ele>3093.4</ele>
        <time>2021-08-05 21:33:16</time>
      </trkpt>
      <trkpt lat="37.0542" lon="-3.336">
        <ele>3093.4</ele>
        <time>2021-08-05 21:33:17</time>
      </trkpt>
      <trkpt lat="37.0542" lon="-3.336">
        <ele>3093.4</ele>
        <time>2021-08-05 21:33:18</time>
      </trkpt>
      <trkpt lat="37.05419" lon="-3.33601">
        <ele>3093.4</ele>
        <time>2021-08-05 21:33:19</time>
      </trkpt>
      <trkpt lat="37.05419" lon="-3.33601">
        <ele>3093.4</ele>
        <time>2021-08-05 21:33:20</time>
      </trkpt>
      <trkpt lat="37.05419" lon="-3.33601">
        <ele>3093.4</ele>
        <time>2021-08-05 21:33:21</time>
      </trkpt>
      <trkpt lat="37.05418" lon="-3.33601">
        <ele>3093.4</ele>
        <time>2021-08-05 21:33:22</time>
      </trkpt>
      <trkpt lat="37.05418" lon="-3.33601">
        <ele>3093.4</ele>
        <time>2021-08-05 21:33:23</time>
      </trkpt>
      <trkpt lat="37.05418" lon="-3.336">
        <ele>3093.4</ele>
        <time>2021-08-05 21:33:24</time>
      </trkpt>
      <trkpt lat="37.05418" lon="-3.336">
        <ele>3093.4</ele>
        <time>2021-08-05 21:33:25</time>
      </trkpt>
      <trkpt lat="37.05417" lon="-3.336">
        <ele>3093.4</ele>
        <time>2021-08-05 21:33:26</time>
      </trkpt>
      <trkpt lat="37.05417" lon="-3.336">
        <ele>3093.4</ele>
        <time>2021-08-05 21:33:27</time>
      </trkpt>
      <trkpt lat="37.05417" lon="-3.33599">
        <ele>3093.4</ele>
        <time>2021-08-05 21:33:28</time>
      </trkpt>
      <trkpt lat="37.05417" lon="-3.33599">
        <ele>3093.4</ele>
        <time>2021-08-05 21:33:29</time>
      </trkpt>
      <trkpt lat="37.05417" lon="-3.33599">
        <ele>3093.4</ele>
        <time>2021-08-05 21:33:30</time>
      </trkpt>
      <trkpt lat="37.05417" lon="-3.33599">
        <ele>3093.4</ele>
        <time>2021-08-05 21:33:31</time>
      </trkpt>
      <trkpt lat="37.05417" lon="-3.33599">
        <ele>3093.4</ele>
        <time>2021-08-05 21:33:32</time>
      </trkpt>
      <trkpt lat="37.05417" lon="-3.33599">
        <ele>3093.4</ele>
        <time>2021-08-05 21:33:33</time>
      </trkpt>
      <trkpt lat="37.05417" lon="-3.33599">
        <ele>3093.4</ele>
        <time>2021-08-05 21:33:34</time>
      </trkpt>
      <trkpt lat="37.05417" lon="-3.33599">
        <ele>3093.4</ele>
        <time>2021-08-05 21:33:35</time>
      </trkpt>
      <trkpt lat="37.05417" lon="-3.336">
        <ele>3093.4</ele>
        <time>2021-08-05 21:33:36</time>
      </trkpt>
      <trkpt lat="37.05417" lon="-3.336">
        <ele>3093.4</ele>
        <time>2021-08-05 21:33:37</time>
      </trkpt>
      <trkpt lat="37.05417" lon="-3.33601">
        <ele>3093.4</ele>
        <time>2021-08-05 21:33:38</time>
      </trkpt>
      <trkpt lat="37.05418" lon="-3.33601">
        <ele>3093.4</ele>
        <time>2021-08-05 21:33:39</time>
      </trkpt>
      <trkpt lat="37.05418" lon="-3.33602">
        <ele>3093.4</ele>
        <time>2021-08-05 21:33:40</time>
      </trkpt>
      <trkpt lat="37.05418" lon="-3.33602">
        <ele>3093.4</ele>
        <time>2021-08-05 21:33:41</time>
      </trkpt>
      <trkpt lat="37.05418" lon="-3.33602">
        <ele>3093.4</ele>
        <time>2021-08-05 21:33:42</time>
      </trkpt>
      <trkpt lat="37.05418" lon="-3.33602">
        <ele>3093.4</ele>
        <time>2021-08-05 21:33:43</time>
      </trkpt>
      <trkpt lat="37.05418" lon="-3.33603">
        <ele>3093.4</ele>
        <time>2021-08-05 21:33:44</time>
      </trkpt>
      <trkpt lat="37.05418" lon="-3.33603">
        <ele>3093.4</ele>
        <time>2021-08-05 21:33:45</time>
      </trkpt>
      <trkpt lat="37.05418" lon="-3.33603">
        <ele>3093.4</ele>
        <time>2021-08-05 21:33:46</time>
      </trkpt>
      <trkpt lat="37.05418" lon="-3.33604">
        <ele>3093.4</ele>
        <time>2021-08-05 21:33:47</time>
      </trkpt>
      <trkpt lat="37.05419" lon="-3.33603">
        <ele>3093.4</ele>
        <time>2021-08-05 21:33:48</time>
      </trkpt>
      <trkpt lat="37.05419" lon="-3.33604">
        <ele>3093.4</ele>
        <time>2021-08-05 21:33:49</time>
      </trkpt>
      <trkpt lat="37.05419" lon="-3.33604">
        <ele>3093.4</ele>
        <time>2021-08-05 21:33:50</time>
      </trkpt>
      <trkpt lat="37.05419" lon="-3.33604">
        <ele>3093.4</ele>
        <time>2021-08-05 21:33:51</time>
      </trkpt>
      <trkpt lat="37.05419" lon="-3.33604">
        <ele>3093.4</ele>
        <time>2021-08-05 21:33:52</time>
      </trkpt>
      <trkpt lat="37.0542" lon="-3.33604">
        <ele>3093.4</ele>
        <time>2021-08-05 21:33:53</time>
      </trkpt>
      <trkpt lat="37.0542" lon="-3.33604">
        <ele>3093.4</ele>
        <time>2021-08-05 21:33:54</time>
      </trkpt>
      <trkpt lat="37.0542" lon="-3.33604">
        <ele>3093.4</ele>
        <time>2021-08-05 21:33:55</time>
      </trkpt>
      <trkpt lat="37.0542" lon="-3.33604">
        <ele>3093.4</ele>
        <time>2021-08-05 21:33:56</time>
      </trkpt>
      <trkpt lat="37.0542" lon="-3.33604">
        <ele>3093.4</ele>
        <time>2021-08-05 21:33:57</time>
      </trkpt>
      <trkpt lat="37.0542" lon="-3.33604">
        <ele>3093.4</ele>
        <time>2021-08-05 21:33:58</time>
      </trkpt>
      <trkpt lat="37.05421" lon="-3.33604">
        <ele>3093.4</ele>
        <time>2021-08-05 21:33:59</time>
      </trkpt>
      <trkpt lat="37.05421" lon="-3.33605">
        <ele>3093.4</ele>
        <time>2021-08-05 21:34:00</time>
      </trkpt>
      <trkpt lat="37.05421" lon="-3.33605">
        <ele>3093.4</ele>
        <time>2021-08-05 21:34:01</time>
      </trkpt>
      <trkpt lat="37.0542" lon="-3.33604">
        <ele>3093.4</ele>
        <time>2021-08-05 21:34:02</time>
      </trkpt>
      <trkpt lat="37.0542" lon="-3.33604">
        <ele>3093.4</ele>
        <time>2021-08-05 21:34:03</time>
      </trkpt>
      <trkpt lat="37.0542" lon="-3.33604">
        <ele>3093.4</ele>
        <time>2021-08-05 21:34:04</time>
      </trkpt>
      <trkpt lat="37.0542" lon="-3.33605">
        <ele>3093.4</ele>
        <time>2021-08-05 21:34:05</time>
      </trkpt>
      <trkpt lat="37.05421" lon="-3.33605">
        <ele>3093.4</ele>
        <time>2021-08-05 21:34:06</time>
      </trkpt>
      <trkpt lat="37.05421" lon="-3.33605">
        <ele>3093.4</ele>
        <time>2021-08-05 21:34:07</time>
      </trkpt>
      <trkpt lat="37.05421" lon="-3.33604">
        <ele>3093.4</ele>
        <time>2021-08-05 21:34:08</time>
      </trkpt>
      <trkpt lat="37.05421" lon="-3.33604">
        <ele>3093.4</ele>
        <time>2021-08-05 21:34:09</time>
      </trkpt>
      <trkpt lat="37.0542" lon="-3.33604">
        <ele>3093.4</ele>
        <time>2021-08-05 21:34:10</time>
      </trkpt>
      <trkpt lat="37.0542" lon="-3.33604">
        <ele>3093.4</ele>
        <time>2021-08-05 21:34:11</time>
      </trkpt>
      <trkpt lat="37.0542" lon="-3.33603">
        <ele>3093.4</ele>
        <time>2021-08-05 21:34:12</time>
      </trkpt>
      <trkpt lat="37.05419" lon="-3.33603">
        <ele>3093.4</ele>
        <time>2021-08-05 21:34:13</time>
      </trkpt>
      <trkpt lat="37.05419" lon="-3.33603">
        <ele>3093.4</ele>
        <time>2021-08-05 21:34:14</time>
      </trkpt>
      <trkpt lat="37.0542" lon="-3.33603">
        <ele>3093.4</ele>
        <time>2021-08-05 21:34:15</time>
      </trkpt>
      <trkpt lat="37.0542" lon="-3.33603">
        <ele>3093.4</ele>
        <time>2021-08-05 21:34:16</time>
      </trkpt>
      <trkpt lat="37.0542" lon="-3.33603">
        <ele>3093.4</ele>
        <time>2021-08-05 21:34:17</time>
      </trkpt>
      <trkpt lat="37.0542" lon="-3.33603">
        <ele>3093.4</ele>
        <time>2021-08-05 21:34:18</time>
      </trkpt>
      <trkpt lat="37.0542" lon="-3.33602">
        <ele>3093.4</ele>
        <time>2021-08-05 21:34:19</time>
      </trkpt>
      <trkpt lat="37.0542" lon="-3.33603">
        <ele>3093.4</ele>
        <time>2021-08-05 21:34:20</time>
      </trkpt>
      <trkpt lat="37.0542" lon="-3.33602">
        <ele>3093.4</ele>
        <time>2021-08-05 21:34:21</time>
      </trkpt>
      <trkpt lat="37.0542" lon="-3.33602">
        <ele>3093.4</ele>
        <time>2021-08-05 21:34:22</time>
      </trkpt>
      <trkpt lat="37.0542" lon="-3.33602">
        <ele>3093.4</ele>
        <time>2021-08-05 21:34:23</time>
      </trkpt>
      <trkpt lat="37.05421" lon="-3.33602">
        <ele>3093.4</ele>
        <time>2021-08-05 21:34:24</time>
      </trkpt>
      <trkpt lat="37.05421" lon="-3.33602">
        <ele>3093.4</ele>
        <time>2021-08-05 21:34:25</time>
      </trkpt>
      <trkpt lat="37.05421" lon="-3.33602">
        <ele>3093.4</ele>
        <time>2021-08-05 21:34:26</time>
      </trkpt>
      <trkpt lat="37.05421" lon="-3.33602">
        <ele>3093.4</ele>
        <time>2021-08-05 21:34:27</time>
      </trkpt>
      <trkpt lat="37.05421" lon="-3.33602">
        <ele>3093.4</ele>
        <time>2021-08-05 21:34:28</time>
      </trkpt>
      <trkpt lat="37.05421" lon="-3.33603">
        <ele>3093.4</ele>
        <time>2021-08-05 21:34:29</time>
      </trkpt>
      <trkpt lat="37.0542" lon="-3.33603">
        <ele>3093.4</ele>
        <time>2021-08-05 21:34:30</time>
      </trkpt>
      <trkpt lat="37.0542" lon="-3.33603">
        <ele>3093.4</ele>
        <time>2021-08-05 21:34:31</time>
      </trkpt>
      <trkpt lat="37.0542" lon="-3.33602">
        <ele>3093.4</ele>
        <time>2021-08-05 21:34:32</time>
      </trkpt>
      <trkpt lat="37.0542" lon="-3.33602">
        <ele>3093.4</ele>
        <time>2021-08-05 21:34:33</time>
      </trkpt>
      <trkpt lat="37.05419" lon="-3.33601">
        <ele>3093.4</ele>
        <time>2021-08-05 21:34:34</time>
      </trkpt>
      <trkpt lat="37.05419" lon="-3.33601">
        <ele>3093.4</ele>
        <time>2021-08-05 21:34:35</time>
      </trkpt>
      <trkpt lat="37.0542" lon="-3.33601">
        <ele>3093.4</ele>
        <time>2021-08-05 21:34:36</time>
      </trkpt>
      <trkpt lat="37.05419" lon="-3.33601">
        <ele>3093.4</ele>
        <time>2021-08-05 21:34:37</time>
      </trkpt>
      <trkpt lat="37.05419" lon="-3.33601">
        <ele>3093.4</ele>
        <time>2021-08-05 21:34:38</time>
      </trkpt>
      <trkpt lat="37.05419" lon="-3.33601">
        <ele>3093.4</ele>
        <time>2021-08-05 21:34:39</time>
      </trkpt>
      <trkpt lat="37.05419" lon="-3.33601">
        <ele>3093.4</ele>
        <time>2021-08-05 21:34:40</time>
      </trkpt>
      <trkpt lat="37.05419" lon="-3.33601">
        <ele>3093.4</ele>
        <time>2021-08-05 21:34:41</time>
      </trkpt>
      <trkpt lat="37.0542" lon="-3.33601">
        <ele>3093.4</ele>
        <time>2021-08-05 21:34:42</time>
      </trkpt>
      <trkpt lat="37.0542" lon="-3.33601">
        <ele>3093.4</ele>
        <time>2021-08-05 21:34:43</time>
      </trkpt>
      <trkpt lat="37.05421" lon="-3.336">
        <ele>3093.4</ele>
        <time>2021-08-05 21:34:44</time>
      </trkpt>
      <trkpt lat="37.05421" lon="-3.336">
        <ele>3093.4</ele>
        <time>2021-08-05 21:34:45</time>
      </trkpt>
      <trkpt lat="37.05422" lon="-3.336">
        <ele>3093.4</ele>
        <time>2021-08-05 21:34:46</time>
      </trkpt>
      <trkpt lat="37.05422" lon="-3.336">
        <ele>3093.4</ele>
        <time>2021-08-05 21:34:47</time>
      </trkpt>
      <trkpt lat="37.05422" lon="-3.336">
        <ele>3093.4</ele>
        <time>2021-08-05 21:34:48</time>
      </trkpt>
      <trkpt lat="37.05422" lon="-3.336">
        <ele>3093.4</ele>
        <time>2021-08-05 21:34:49</time>
      </trkpt>
      <trkpt lat="37.05422" lon="-3.336">
        <ele>3093.4</ele>
        <time>2021-08-05 21:34:50</time>
      </trkpt>
      <trkpt lat="37.05422" lon="-3.336">
        <ele>3093.4</ele>
        <time>2021-08-05 21:34:51</time>
      </trkpt>
      <trkpt lat="37.05422" lon="-3.336">
        <ele>3093.4</ele>
        <time>2021-08-05 21:34:52</time>
      </trkpt>
      <trkpt lat="37.05423" lon="-3.33601">
        <ele>3093.4</ele>
        <time>2021-08-05 21:34:53</time>
      </trkpt>
      <trkpt lat="37.05423" lon="-3.33601">
        <ele>3093.4</ele>
        <time>2021-08-05 21:34:54</time>
      </trkpt>
      <trkpt lat="37.05422" lon="-3.33601">
        <ele>3093.4</ele>
        <time>2021-08-05 21:34:55</time>
      </trkpt>
      <trkpt lat="37.05422" lon="-3.33601">
        <ele>3093.4</ele>
        <time>2021-08-05 21:34:56</time>
      </trkpt>
      <trkpt lat="37.05423" lon="-3.336">
        <ele>3093.4</ele>
        <time>2021-08-05 21:34:57</time>
      </trkpt>
      <trkpt lat="37.05423" lon="-3.336">
        <ele>3093.4</ele>
        <time>2021-08-05 21:34:58</time>
      </trkpt>
      <trkpt lat="37.05423" lon="-3.33599">
        <ele>3093.4</ele>
        <time>2021-08-05 21:34:59</time>
      </trkpt>
      <trkpt lat="37.05423" lon="-3.33599">
        <ele>3093.4</ele>
        <time>2021-08-05 21:35:00</time>
      </trkpt>
      <trkpt lat="37.05423" lon="-3.33598">
        <ele>3093.4</ele>
        <time>2021-08-05 21:35:01</time>
      </trkpt>
      <trkpt lat="37.05422" lon="-3.33596">
        <ele>3093.4</ele>
        <time>2021-08-05 21:35:02</time>
      </trkpt>
      <trkpt lat="37.05421" lon="-3.33596">
        <ele>3093.4</ele>
        <time>2021-08-05 21:35:03</time>
      </trkpt>
      <trkpt lat="37.05421" lon="-3.33596">
        <ele>3093.4</ele>
        <time>2021-08-05 21:35:04</time>
      </trkpt>
      <trkpt lat="37.05421" lon="-3.33596">
        <ele>3093.4</ele>
        <time>2021-08-05 21:35:05</time>
      </trkpt>
      <trkpt lat="37.05421" lon="-3.33595">
        <ele>3093.4</ele>
        <time>2021-08-05 21:35:06</time>
      </trkpt>
      <trkpt lat="37.0542" lon="-3.33594">
        <ele>3093.4</ele>
        <time>2021-08-05 21:35:07</time>
      </trkpt>
      <trkpt lat="37.0542" lon="-3.33593">
        <ele>3094</ele>
        <time>2021-08-05 21:35:08</time>
      </trkpt>
      <trkpt lat="37.0542" lon="-3.33592">
        <ele>3094.6</ele>
        <time>2021-08-05 21:35:09</time>
      </trkpt>
      <trkpt lat="37.0542" lon="-3.33591">
        <ele>3095</ele>
        <time>2021-08-05 21:35:10</time>
      </trkpt>
      <trkpt lat="37.0542" lon="-3.3359">
        <ele>3095.2</ele>
        <time>2021-08-05 21:35:11</time>
      </trkpt>
      <trkpt lat="37.0542" lon="-3.33589">
        <ele>3095.4</ele>
        <time>2021-08-05 21:35:12</time>
      </trkpt>
      <trkpt lat="37.0542" lon="-3.33588">
        <ele>3095.6</ele>
        <time>2021-08-05 21:35:13</time>
      </trkpt>
      <trkpt lat="37.05419" lon="-3.33588">
        <ele>3095.6</ele>
        <time>2021-08-05 21:35:14</time>
      </trkpt>
      <trkpt lat="37.05419" lon="-3.33588">
        <ele>3095.8</ele>
        <time>2021-08-05 21:35:15</time>
      </trkpt>
      <trkpt lat="37.05419" lon="-3.33587">
        <ele>3095.8</ele>
        <time>2021-08-05 21:35:16</time>
      </trkpt>
      <trkpt lat="37.05419" lon="-3.33587">
        <ele>3096</ele>
        <time>2021-08-05 21:35:17</time>
      </trkpt>
      <trkpt lat="37.05419" lon="-3.33588">
        <ele>3096.4</ele>
        <time>2021-08-05 21:35:18</time>
      </trkpt>
      <trkpt lat="37.05419" lon="-3.33588">
        <ele>3096.6</ele>
        <time>2021-08-05 21:35:19</time>
      </trkpt>
      <trkpt lat="37.0542" lon="-3.33588">
        <ele>3096.6</ele>
        <time>2021-08-05 21:35:20</time>
      </trkpt>
      <trkpt lat="37.05421" lon="-3.33587">
        <ele>3096.6</ele>
        <time>2021-08-05 21:35:21</time>
      </trkpt>
      <trkpt lat="37.05421" lon="-3.33586">
        <ele>3096.8</ele>
        <time>2021-08-05 21:35:22</time>
      </trkpt>
      <trkpt lat="37.05422" lon="-3.33585">
        <ele>3097</ele>
        <time>2021-08-05 21:35:23</time>
      </trkpt>
      <trkpt lat="37.05422" lon="-3.33584">
        <ele>3097</ele>
        <time>2021-08-05 21:35:24</time>
      </trkpt>
      <trkpt lat="37.05422" lon="-3.33583">
        <ele>3097.4</ele>
        <time>2021-08-05 21:35:25</time>
      </trkpt>
      <trkpt lat="37.05422" lon="-3.33582">
        <ele>3097.6</ele>
        <time>2021-08-05 21:35:26</time>
      </trkpt>
      <trkpt lat="37.05423" lon="-3.33581">
        <ele>3097.6</ele>
        <time>2021-08-05 21:35:27</time>
      </trkpt>
      <trkpt lat="37.05423" lon="-3.3358">
        <ele>3097.8</ele>
        <time>2021-08-05 21:35:28</time>
      </trkpt>
      <trkpt lat="37.05423" lon="-3.33579">
        <ele>3097.8</ele>
        <time>2021-08-05 21:35:29</time>
      </trkpt>
      <trkpt lat="37.05424" lon="-3.33578">
        <ele>3098</ele>
        <time>2021-08-05 21:35:30</time>
      </trkpt>
      <trkpt lat="37.05423" lon="-3.33577">
        <ele>3098.2</ele>
        <time>2021-08-05 21:35:31</time>
      </trkpt>
      <trkpt lat="37.05422" lon="-3.33576">
        <ele>3098.4</ele>
        <time>2021-08-05 21:35:32</time>
      </trkpt>
      <trkpt lat="37.05422" lon="-3.33575">
        <ele>3098.6</ele>
        <time>2021-08-05 21:35:33</time>
      </trkpt>
      <trkpt lat="37.05422" lon="-3.33574">
        <ele>3098.8</ele>
        <time>2021-08-05 21:35:34</time>
      </trkpt>
      <trkpt lat="37.05422" lon="-3.33573">
        <ele>3098.8</ele>
        <time>2021-08-05 21:35:35</time>
      </trkpt>
      <trkpt lat="37.05422" lon="-3.33572">
        <ele>3098.8</ele>
        <time>2021-08-05 21:35:36</time>
      </trkpt>
      <trkpt lat="37.05423" lon="-3.33571">
        <ele>3099</ele>
        <time>2021-08-05 21:35:37</time>
      </trkpt>
      <trkpt lat="37.05423" lon="-3.3357">
        <ele>3099.2</ele>
        <time>2021-08-05 21:35:38</time>
      </trkpt>
      <trkpt lat="37.05423" lon="-3.33568">
        <ele>3099.4</ele>
        <time>2021-08-05 21:35:39</time>
      </trkpt>
      <trkpt lat="37.05424" lon="-3.33567">
        <ele>3099.6</ele>
        <time>2021-08-05 21:35:40</time>
      </trkpt>
      <trkpt lat="37.05424" lon="-3.33566">
        <ele>3099.8</ele>
        <time>2021-08-05 21:35:41</time>
      </trkpt>
      <trkpt lat="37.05424" lon="-3.33566">
        <ele>3099.8</ele>
        <time>2021-08-05 21:35:42</time>
      </trkpt>
      <trkpt lat="37.05424" lon="-3.33565">
        <ele>3099.8</ele>
        <time>2021-08-05 21:35:43</time>
      </trkpt>
      <trkpt lat="37.05424" lon="-3.33564">
        <ele>3100</ele>
        <time>2021-08-05 21:35:44</time>
      </trkpt>
      <trkpt lat="37.05424" lon="-3.33563">
        <ele>3100.4</ele>
        <time>2021-08-05 21:35:45</time>
      </trkpt>
      <trkpt lat="37.05424" lon="-3.33562">
        <ele>3100.4</ele>
        <time>2021-08-05 21:35:46</time>
      </trkpt>
      <trkpt lat="37.05424" lon="-3.33561">
        <ele>3100.8</ele>
        <time>2021-08-05 21:35:47</time>
      </trkpt>
      <trkpt lat="37.05424" lon="-3.3356">
        <ele>3100.8</ele>
        <time>2021-08-05 21:35:48</time>
      </trkpt>
      <trkpt lat="37.05424" lon="-3.33559">
        <ele>3101</ele>
        <time>2021-08-05 21:35:49</time>
      </trkpt>
      <trkpt lat="37.05424" lon="-3.33558">
        <ele>3101</ele>
        <time>2021-08-05 21:35:50</time>
      </trkpt>
      <trkpt lat="37.05424" lon="-3.33558">
        <ele>3101</ele>
        <time>2021-08-05 21:35:51</time>
      </trkpt>
      <trkpt lat="37.05424" lon="-3.33557">
        <ele>3101</ele>
        <time>2021-08-05 21:35:52</time>
      </trkpt>
      <trkpt lat="37.05424" lon="-3.33556">
        <ele>3101</ele>
        <time>2021-08-05 21:35:53</time>
      </trkpt>
      <trkpt lat="37.05424" lon="-3.33555">
        <ele>3101.2</ele>
        <time>2021-08-05 21:35:54</time>
      </trkpt>
      <trkpt lat="37.05424" lon="-3.33555">
        <ele>3101.4</ele>
        <time>2021-08-05 21:35:55</time>
      </trkpt>
      <trkpt lat="37.05424" lon="-3.33554">
        <ele>3101.2</ele>
        <time>2021-08-05 21:35:56</time>
      </trkpt>
      <trkpt lat="37.05423" lon="-3.33553">
        <ele>3101.6</ele>
        <time>2021-08-05 21:35:57</time>
      </trkpt>
      <trkpt lat="37.05423" lon="-3.33552">
        <ele>3101.8</ele>
        <time>2021-08-05 21:35:58</time>
      </trkpt>
      <trkpt lat="37.05423" lon="-3.33552">
        <ele>3101.8</ele>
        <time>2021-08-05 21:35:59</time>
      </trkpt>
      <trkpt lat="37.05423" lon="-3.33551">
        <ele>3102.2</ele>
        <time>2021-08-05 21:36:00</time>
      </trkpt>
      <trkpt lat="37.05423" lon="-3.3355">
        <ele>3102.4</ele>
        <time>2021-08-05 21:36:01</time>
      </trkpt>
      <trkpt lat="37.05423" lon="-3.33549">
        <ele>3102.6</ele>
        <time>2021-08-05 21:36:02</time>
      </trkpt>
      <trkpt lat="37.05423" lon="-3.33548">
        <ele>3102.6</ele>
        <time>2021-08-05 21:36:03</time>
      </trkpt>
      <trkpt lat="37.05424" lon="-3.33548">
        <ele>3102.8</ele>
        <time>2021-08-05 21:36:04</time>
      </trkpt>
      <trkpt lat="37.05425" lon="-3.33547">
        <ele>3102.8</ele>
        <time>2021-08-05 21:36:05</time>
      </trkpt>
      <trkpt lat="37.05425" lon="-3.33546">
        <ele>3102.8</ele>
        <time>2021-08-05 21:36:06</time>
      </trkpt>
      <trkpt lat="37.05425" lon="-3.33546">
        <ele>3102.8</ele>
        <time>2021-08-05 21:36:07</time>
      </trkpt>
      <trkpt lat="37.05425" lon="-3.33546">
        <ele>3102.8</ele>
        <time>2021-08-05 21:36:08</time>
      </trkpt>
      <trkpt lat="37.05425" lon="-3.33546">
        <ele>3103</ele>
        <time>2021-08-05 21:36:09</time>
      </trkpt>
      <trkpt lat="37.05425" lon="-3.33546">
        <ele>3103.2</ele>
        <time>2021-08-05 21:36:10</time>
      </trkpt>
      <trkpt lat="37.05424" lon="-3.33546">
        <ele>3103.2</ele>
        <time>2021-08-05 21:36:11</time>
      </trkpt>
      <trkpt lat="37.05424" lon="-3.33546">
        <ele>3103.2</ele>
        <time>2021-08-05 21:36:12</time>
      </trkpt>
      <trkpt lat="37.05424" lon="-3.33546">
        <ele>3103.2</ele>
        <time>2021-08-05 21:36:13</time>
      </trkpt>
      <trkpt lat="37.05424" lon="-3.33546">
        <ele>3103.2</ele>
        <time>2021-08-05 21:36:14</time>
      </trkpt>
      <trkpt lat="37.05424" lon="-3.33545">
        <ele>3103.2</ele>
        <time>2021-08-05 21:36:15</time>
      </trkpt>
      <trkpt lat="37.05424" lon="-3.33545">
        <ele>3103.2</ele>
        <time>2021-08-05 21:36:16</time>
      </trkpt>
      <trkpt lat="37.05424" lon="-3.33546">
        <ele>3103.2</ele>
        <time>2021-08-05 21:36:17</time>
      </trkpt>
      <trkpt lat="37.05424" lon="-3.33546">
        <ele>3103.4</ele>
        <time>2021-08-05 21:36:18</time>
      </trkpt>
      <trkpt lat="37.05424" lon="-3.33546">
        <ele>3103.4</ele>
        <time>2021-08-05 21:36:19</time>
      </trkpt>
      <trkpt lat="37.05424" lon="-3.33545">
        <ele>3103.4</ele>
        <time>2021-08-05 21:36:20</time>
      </trkpt>
      <trkpt lat="37.05424" lon="-3.33545">
        <ele>3103.4</ele>
        <time>2021-08-05 21:36:21</time>
      </trkpt>
      <trkpt lat="37.05424" lon="-3.33544">
        <ele>3103.4</ele>
        <time>2021-08-05 21:36:22</time>
      </trkpt>
      <trkpt lat="37.05424" lon="-3.33544">
        <ele>3103.4</ele>
        <time>2021-08-05 21:36:23</time>
      </trkpt>
      <trkpt lat="37.05424" lon="-3.33543">
        <ele>3103.6</ele>
        <time>2021-08-05 21:36:24</time>
      </trkpt>
      <trkpt lat="37.05424" lon="-3.33542">
        <ele>3103.4</ele>
        <time>2021-08-05 21:36:25</time>
      </trkpt>
      <trkpt lat="37.05424" lon="-3.3354">
        <ele>3103.4</ele>
        <time>2021-08-05 21:36:26</time>
      </trkpt>
      <trkpt lat="37.05424" lon="-3.33539">
        <ele>3103.4</ele>
        <time>2021-08-05 21:36:27</time>
      </trkpt>
      <trkpt lat="37.05424" lon="-3.33539">
        <ele>3103.6</ele>
        <time>2021-08-05 21:36:28</time>
      </trkpt>
      <trkpt lat="37.05424" lon="-3.33538">
        <ele>3104</ele>
        <time>2021-08-05 21:36:29</time>
      </trkpt>
      <trkpt lat="37.05424" lon="-3.33537">
        <ele>3104</ele>
        <time>2021-08-05 21:36:30</time>
      </trkpt>
      <trkpt lat="37.05424" lon="-3.33536">
        <ele>3104.2</ele>
        <time>2021-08-05 21:36:31</time>
      </trkpt>
      <trkpt lat="37.05424" lon="-3.33536">
        <ele>3104.2</ele>
        <time>2021-08-05 21:36:32</time>
      </trkpt>
      <trkpt lat="37.05424" lon="-3.33535">
        <ele>3104.4</ele>
        <time>2021-08-05 21:36:33</time>
      </trkpt>
      <trkpt lat="37.05424" lon="-3.33534">
        <ele>3104.6</ele>
        <time>2021-08-05 21:36:34</time>
      </trkpt>
      <trkpt lat="37.05424" lon="-3.33534">
        <ele>3104.6</ele>
        <time>2021-08-05 21:36:35</time>
      </trkpt>
      <trkpt lat="37.05425" lon="-3.33533">
        <ele>3104.6</ele>
        <time>2021-08-05 21:36:36</time>
      </trkpt>
      <trkpt lat="37.05425" lon="-3.33532">
        <ele>3104.6</ele>
        <time>2021-08-05 21:36:37</time>
      </trkpt>
      <trkpt lat="37.05425" lon="-3.33532">
        <ele>3104.8</ele>
        <time>2021-08-05 21:36:38</time>
      </trkpt>
      <trkpt lat="37.05425" lon="-3.33531">
        <ele>3104.8</ele>
        <time>2021-08-05 21:36:39</time>
      </trkpt>
      <trkpt lat="37.05425" lon="-3.33531">
        <ele>3104.8</ele>
        <time>2021-08-05 21:36:40</time>
      </trkpt>
      <trkpt lat="37.05425" lon="-3.3353">
        <ele>3104.8</ele>
        <time>2021-08-05 21:36:41</time>
      </trkpt>
      <trkpt lat="37.05425" lon="-3.3353">
        <ele>3105</ele>
        <time>2021-08-05 21:36:42</time>
      </trkpt>
      <trkpt lat="37.05425" lon="-3.33529">
        <ele>3104.8</ele>
        <time>2021-08-05 21:36:43</time>
      </trkpt>
      <trkpt lat="37.05424" lon="-3.33528">
        <ele>3105</ele>
        <time>2021-08-05 21:36:44</time>
      </trkpt>
      <trkpt lat="37.05424" lon="-3.33527">
        <ele>3105.2</ele>
        <time>2021-08-05 21:36:45</time>
      </trkpt>
      <trkpt lat="37.05423" lon="-3.33526">
        <ele>3105.2</ele>
        <time>2021-08-05 21:36:46</time>
      </trkpt>
      <trkpt lat="37.05423" lon="-3.33526">
        <ele>3105.2</ele>
        <time>2021-08-05 21:36:47</time>
      </trkpt>
      <trkpt lat="37.05423" lon="-3.33525">
        <ele>3105.2</ele>
        <time>2021-08-05 21:36:48</time>
      </trkpt>
      <trkpt lat="37.05423" lon="-3.33524">
        <ele>3105.4</ele>
        <time>2021-08-05 21:36:49</time>
      </trkpt>
      <trkpt lat="37.05423" lon="-3.33523">
        <ele>3105.6</ele>
        <time>2021-08-05 21:36:50</time>
      </trkpt>
      <trkpt lat="37.05423" lon="-3.33522">
        <ele>3105.8</ele>
        <time>2021-08-05 21:36:51</time>
      </trkpt>
      <trkpt lat="37.05422" lon="-3.33522">
        <ele>3105.8</ele>
        <time>2021-08-05 21:36:52</time>
      </trkpt>
      <trkpt lat="37.05422" lon="-3.33521">
        <ele>3106</ele>
        <time>2021-08-05 21:36:53</time>
      </trkpt>
      <trkpt lat="37.05422" lon="-3.3352">
        <ele>3106.2</ele>
        <time>2021-08-05 21:36:54</time>
      </trkpt>
      <trkpt lat="37.05421" lon="-3.33519">
        <ele>3106.4</ele>
        <time>2021-08-05 21:36:55</time>
      </trkpt>
      <trkpt lat="37.05421" lon="-3.33518">
        <ele>3106.6</ele>
        <time>2021-08-05 21:36:56</time>
      </trkpt>
      <trkpt lat="37.05421" lon="-3.33518">
        <ele>3106.8</ele>
        <time>2021-08-05 21:36:57</time>
      </trkpt>
      <trkpt lat="37.0542" lon="-3.33517">
        <ele>3106.8</ele>
        <time>2021-08-05 21:36:58</time>
      </trkpt>
      <trkpt lat="37.0542" lon="-3.33516">
        <ele>3107</ele>
        <time>2021-08-05 21:36:59</time>
      </trkpt>
      <trkpt lat="37.0542" lon="-3.33515">
        <ele>3107</ele>
        <time>2021-08-05 21:37:00</time>
      </trkpt>
      <trkpt lat="37.0542" lon="-3.33515">
        <ele>3107</ele>
        <time>2021-08-05 21:37:01</time>
      </trkpt>
      <trkpt lat="37.0542" lon="-3.33514">
        <ele>3107</ele>
        <time>2021-08-05 21:37:02</time>
      </trkpt>
      <trkpt lat="37.0542" lon="-3.33513">
        <ele>3107</ele>
        <time>2021-08-05 21:37:03</time>
      </trkpt>
      <trkpt lat="37.0542" lon="-3.33513">
        <ele>3107.2</ele>
        <time>2021-08-05 21:37:04</time>
      </trkpt>
      <trkpt lat="37.05421" lon="-3.33512">
        <ele>3107.4</ele>
        <time>2021-08-05 21:37:05</time>
      </trkpt>
      <trkpt lat="37.05422" lon="-3.33512">
        <ele>3107.4</ele>
        <time>2021-08-05 21:37:06</time>
      </trkpt>
      <trkpt lat="37.05422" lon="-3.33511">
        <ele>3107.6</ele>
        <time>2021-08-05 21:37:07</time>
      </trkpt>
      <trkpt lat="37.05423" lon="-3.3351">
        <ele>3107.6</ele>
        <time>2021-08-05 21:37:08</time>
      </trkpt>
      <trkpt lat="37.05423" lon="-3.3351">
        <ele>3107.6</ele>
        <time>2021-08-05 21:37:09</time>
      </trkpt>
      <trkpt lat="37.05423" lon="-3.33509">
        <ele>3107.8</ele>
        <time>2021-08-05 21:37:10</time>
      </trkpt>
      <trkpt lat="37.05422" lon="-3.33508">
        <ele>3108.2</ele>
        <time>2021-08-05 21:37:11</time>
      </trkpt>
      <trkpt lat="37.05422" lon="-3.33507">
        <ele>3108.2</ele>
        <time>2021-08-05 21:37:12</time>
      </trkpt>
      <trkpt lat="37.05422" lon="-3.33506">
        <ele>3108.4</ele>
        <time>2021-08-05 21:37:13</time>
      </trkpt>
      <trkpt lat="37.05422" lon="-3.33505">
        <ele>3108.6</ele>
        <time>2021-08-05 21:37:14</time>
      </trkpt>
      <trkpt lat="37.05422" lon="-3.33505">
        <ele>3108.8</ele>
        <time>2021-08-05 21:37:15</time>
      </trkpt>
      <trkpt lat="37.05421" lon="-3.33504">
        <ele>3108.8</ele>
        <time>2021-08-05 21:37:16</time>
      </trkpt>
      <trkpt lat="37.0542" lon="-3.33503">
        <ele>3108.8</ele>
        <time>2021-08-05 21:37:17</time>
      </trkpt>
      <trkpt lat="37.05419" lon="-3.33503">
        <ele>3108.8</ele>
        <time>2021-08-05 21:37:18</time>
      </trkpt>
      <trkpt lat="37.05419" lon="-3.33503">
        <ele>3108.8</ele>
        <time>2021-08-05 21:37:19</time>
      </trkpt>
      <trkpt lat="37.05419" lon="-3.33503">
        <ele>3109</ele>
        <time>2021-08-05 21:37:20</time>
      </trkpt>
      <trkpt lat="37.05419" lon="-3.33502">
        <ele>3109</ele>
        <time>2021-08-05 21:37:21</time>
      </trkpt>
      <trkpt lat="37.05419" lon="-3.33502">
        <ele>3109.2</ele>
        <time>2021-08-05 21:37:22</time>
      </trkpt>
      <trkpt lat="37.05419" lon="-3.33501">
        <ele>3109.4</ele>
        <time>2021-08-05 21:37:23</time>
      </trkpt>
      <trkpt lat="37.05419" lon="-3.335">
        <ele>3109.6</ele>
        <time>2021-08-05 21:37:24</time>
      </trkpt>
      <trkpt lat="37.05419" lon="-3.33499">
        <ele>3109.6</ele>
        <time>2021-08-05 21:37:25</time>
      </trkpt>
      <trkpt lat="37.05419" lon="-3.33499">
        <ele>3109.8</ele>
        <time>2021-08-05 21:37:26</time>
      </trkpt>
      <trkpt lat="37.05418" lon="-3.33498">
        <ele>3109.8</ele>
        <time>2021-08-05 21:37:27</time>
      </trkpt>
      <trkpt lat="37.05417" lon="-3.33497">
        <ele>3110</ele>
        <time>2021-08-05 21:37:28</time>
      </trkpt>
      <trkpt lat="37.05417" lon="-3.33496">
        <ele>3110.2</ele>
        <time>2021-08-05 21:37:29</time>
      </trkpt>
      <trkpt lat="37.05416" lon="-3.33495">
        <ele>3110.2</ele>
        <time>2021-08-05 21:37:30</time>
      </trkpt>
      <trkpt lat="37.05417" lon="-3.33494">
        <ele>3110.4</ele>
        <time>2021-08-05 21:37:31</time>
      </trkpt>
      <trkpt lat="37.05417" lon="-3.33493">
        <ele>3110.4</ele>
        <time>2021-08-05 21:37:32</time>
      </trkpt>
      <trkpt lat="37.05417" lon="-3.33492">
        <ele>3110.4</ele>
        <time>2021-08-05 21:37:33</time>
      </trkpt>
      <trkpt lat="37.05418" lon="-3.33491">
        <ele>3110.8</ele>
        <time>2021-08-05 21:37:34</time>
      </trkpt>
      <trkpt lat="37.05418" lon="-3.33491">
        <ele>3111</ele>
        <time>2021-08-05 21:37:35</time>
      </trkpt>
      <trkpt lat="37.05418" lon="-3.3349">
        <ele>3111</ele>
        <time>2021-08-05 21:37:36</time>
      </trkpt>
      <trkpt lat="37.05418" lon="-3.33489">
        <ele>3111</ele>
        <time>2021-08-05 21:37:37</time>
      </trkpt>
      <trkpt lat="37.05418" lon="-3.33488">
        <ele>3111.2</ele>
        <time>2021-08-05 21:37:38</time>
      </trkpt>
      <trkpt lat="37.05417" lon="-3.33487">
        <ele>3111.2</ele>
        <time>2021-08-05 21:37:39</time>
      </trkpt>
      <trkpt lat="37.05417" lon="-3.33486">
        <ele>3111.2</ele>
        <time>2021-08-05 21:37:40</time>
      </trkpt>
      <trkpt lat="37.05417" lon="-3.33486">
        <ele>3111.2</ele>
        <time>2021-08-05 21:37:41</time>
      </trkpt>
      <trkpt lat="37.05417" lon="-3.33486">
        <ele>3111.2</ele>
        <time>2021-08-05 21:37:42</time>
      </trkpt>
      <trkpt lat="37.05417" lon="-3.33486">
        <ele>3111.2</ele>
        <time>2021-08-05 21:37:43</time>
      </trkpt>
      <trkpt lat="37.05417" lon="-3.33486">
        <ele>3111.6</ele>
        <time>2021-08-05 21:37:44</time>
      </trkpt>
      <trkpt lat="37.05417" lon="-3.33486">
        <ele>3111.8</ele>
        <time>2021-08-05 21:37:45</time>
      </trkpt>
      <trkpt lat="37.05417" lon="-3.33486">
        <ele>3111.8</ele>
        <time>2021-08-05 21:37:46</time>
      </trkpt>
      <trkpt lat="37.05416" lon="-3.33486">
        <ele>3111.8</ele>
        <time>2021-08-05 21:37:47</time>
      </trkpt>
      <trkpt lat="37.05416" lon="-3.33485">
        <ele>3111.8</ele>
        <time>2021-08-05 21:37:48</time>
      </trkpt>
      <trkpt lat="37.05417" lon="-3.33485">
        <ele>3111.8</ele>
        <time>2021-08-05 21:37:49</time>
      </trkpt>
      <trkpt lat="37.05416" lon="-3.33485">
        <ele>3111.8</ele>
        <time>2021-08-05 21:37:50</time>
      </trkpt>
      <trkpt lat="37.05416" lon="-3.33485">
        <ele>3111.8</ele>
        <time>2021-08-05 21:37:51</time>
      </trkpt>
      <trkpt lat="37.05416" lon="-3.33485">
        <ele>3111.6</ele>
        <time>2021-08-05 21:37:52</time>
      </trkpt>
      <trkpt lat="37.05416" lon="-3.33485">
        <ele>3111.6</ele>
        <time>2021-08-05 21:37:53</time>
      </trkpt>
      <trkpt lat="37.05416" lon="-3.33485">
        <ele>3111.8</ele>
        <time>2021-08-05 21:37:54</time>
      </trkpt>
      <trkpt lat="37.05416" lon="-3.33485">
        <ele>3112</ele>
        <time>2021-08-05 21:37:55</time>
      </trkpt>
      <trkpt lat="37.05416" lon="-3.33485">
        <ele>3112.2</ele>
        <time>2021-08-05 21:37:56</time>
      </trkpt>
      <trkpt lat="37.05416" lon="-3.33485">
        <ele>3112</ele>
        <time>2021-08-05 21:37:57</time>
      </trkpt>
      <trkpt lat="37.05416" lon="-3.33485">
        <ele>3112</ele>
        <time>2021-08-05 21:37:58</time>
      </trkpt>
      <trkpt lat="37.05416" lon="-3.33485">
        <ele>3112</ele>
        <time>2021-08-05 21:37:59</time>
      </trkpt>
      <trkpt lat="37.05416" lon="-3.33485">
        <ele>3112</ele>
        <time>2021-08-05 21:38:00</time>
      </trkpt>
      <trkpt lat="37.05416" lon="-3.33484">
        <ele>3111.8</ele>
        <time>2021-08-05 21:38:01</time>
      </trkpt>
      <trkpt lat="37.05416" lon="-3.33484">
        <ele>3111.8</ele>
        <time>2021-08-05 21:38:02</time>
      </trkpt>
      <trkpt lat="37.05417" lon="-3.33487">
        <ele>3111.8</ele>
        <time>2021-08-05 21:38:03</time>
      </trkpt>
      <trkpt lat="37.05417" lon="-3.33487">
        <ele>3111.8</ele>
        <time>2021-08-05 21:38:04</time>
      </trkpt>
      <trkpt lat="37.05416" lon="-3.33487">
        <ele>3111.8</ele>
        <time>2021-08-05 21:38:05</time>
      </trkpt>
      <trkpt lat="37.05416" lon="-3.33487">
        <ele>3112</ele>
        <time>2021-08-05 21:38:06</time>
      </trkpt>
      <trkpt lat="37.05416" lon="-3.33487">
        <ele>3112.2</ele>
        <time>2021-08-05 21:38:07</time>
      </trkpt>
      <trkpt lat="37.05415" lon="-3.33487">
        <ele>3112.4</ele>
        <time>2021-08-05 21:38:08</time>
      </trkpt>
      <trkpt lat="37.05415" lon="-3.33488">
        <ele>3112.4</ele>
        <time>2021-08-05 21:38:09</time>
      </trkpt>
      <trkpt lat="37.05415" lon="-3.33488">
        <ele>3112.4</ele>
        <time>2021-08-05 21:38:10</time>
      </trkpt>
      <trkpt lat="37.05415" lon="-3.33487">
        <ele>3112.4</ele>
        <time>2021-08-05 21:38:11</time>
      </trkpt>
      <trkpt lat="37.05415" lon="-3.33487">
        <ele>3112.2</ele>
        <time>2021-08-05 21:38:12</time>
      </trkpt>
      <trkpt lat="37.05415" lon="-3.33487">
        <ele>3112</ele>
        <time>2021-08-05 21:38:13</time>
      </trkpt>
      <trkpt lat="37.05415" lon="-3.33487">
        <ele>3111.8</ele>
        <time>2021-08-05 21:38:14</time>
      </trkpt>
      <trkpt lat="37.05416" lon="-3.33487">
        <ele>3111.8</ele>
        <time>2021-08-05 21:38:15</time>
      </trkpt>
      <trkpt lat="37.05416" lon="-3.33487">
        <ele>3111.6</ele>
        <time>2021-08-05 21:38:16</time>
      </trkpt>
      <trkpt lat="37.05416" lon="-3.33486">
        <ele>3111.6</ele>
        <time>2021-08-05 21:38:17</time>
      </trkpt>
      <trkpt lat="37.05417" lon="-3.33486">
        <ele>3111.6</ele>
        <time>2021-08-05 21:38:18</time>
      </trkpt>
      <trkpt lat="37.05417" lon="-3.33486">
        <ele>3111.8</ele>
        <time>2021-08-05 21:38:19</time>
      </trkpt>
      <trkpt lat="37.05417" lon="-3.33486">
        <ele>3111.8</ele>
        <time>2021-08-05 21:38:20</time>
      </trkpt>
      <trkpt lat="37.05417" lon="-3.33486">
        <ele>3112</ele>
        <time>2021-08-05 21:38:21</time>
      </trkpt>
      <trkpt lat="37.05417" lon="-3.33486">
        <ele>3112</ele>
        <time>2021-08-05 21:38:22</time>
      </trkpt>
      <trkpt lat="37.05418" lon="-3.33486">
        <ele>3112.2</ele>
        <time>2021-08-05 21:38:23</time>
      </trkpt>
      <trkpt lat="37.05417" lon="-3.33485">
        <ele>3112.2</ele>
        <time>2021-08-05 21:38:24</time>
      </trkpt>
      <trkpt lat="37.05417" lon="-3.33485">
        <ele>3112.2</ele>
        <time>2021-08-05 21:38:25</time>
      </trkpt>
      <trkpt lat="37.05417" lon="-3.33485">
        <ele>3112.2</ele>
        <time>2021-08-05 21:38:26</time>
      </trkpt>
      <trkpt lat="37.05417" lon="-3.33485">
        <ele>3112.2</ele>
        <time>2021-08-05 21:38:27</time>
      </trkpt>
      <trkpt lat="37.05417" lon="-3.33485">
        <ele>3112.2</ele>
        <time>2021-08-05 21:38:28</time>
      </trkpt>
      <trkpt lat="37.05416" lon="-3.33485">
        <ele>3112.2</ele>
        <time>2021-08-05 21:38:29</time>
      </trkpt>
      <trkpt lat="37.05416" lon="-3.33485">
        <ele>3112</ele>
        <time>2021-08-05 21:38:30</time>
      </trkpt>
      <trkpt lat="37.05416" lon="-3.33485">
        <ele>3112</ele>
        <time>2021-08-05 21:38:31</time>
      </trkpt>
      <trkpt lat="37.05416" lon="-3.33484">
        <ele>3112</ele>
        <time>2021-08-05 21:38:32</time>
      </trkpt>
      <trkpt lat="37.05416" lon="-3.33484">
        <ele>3112</ele>
        <time>2021-08-05 21:38:33</time>
      </trkpt>
      <trkpt lat="37.05416" lon="-3.33483">
        <ele>3112</ele>
        <time>2021-08-05 21:38:34</time>
      </trkpt>
      <trkpt lat="37.05416" lon="-3.33482">
        <ele>3112</ele>
        <time>2021-08-05 21:38:35</time>
      </trkpt>
      <trkpt lat="37.05416" lon="-3.33482">
        <ele>3112</ele>
        <time>2021-08-05 21:38:36</time>
      </trkpt>
      <trkpt lat="37.05416" lon="-3.33481">
        <ele>3112</ele>
        <time>2021-08-05 21:38:37</time>
      </trkpt>
      <trkpt lat="37.05416" lon="-3.3348">
        <ele>3112.2</ele>
        <time>2021-08-05 21:38:38</time>
      </trkpt>
      <trkpt lat="37.05416" lon="-3.3348">
        <ele>3112.2</ele>
        <time>2021-08-05 21:38:39</time>
      </trkpt>
      <trkpt lat="37.05417" lon="-3.33479">
        <ele>3112.4</ele>
        <time>2021-08-05 21:38:40</time>
      </trkpt>
      <trkpt lat="37.05417" lon="-3.33479">
        <ele>3112.4</ele>
        <time>2021-08-05 21:38:41</time>
      </trkpt>
      <trkpt lat="37.05417" lon="-3.33478">
        <ele>3112.8</ele>
        <time>2021-08-05 21:38:42</time>
      </trkpt>
      <trkpt lat="37.05417" lon="-3.33477">
        <ele>3113</ele>
        <time>2021-08-05 21:38:43</time>
      </trkpt>
      <trkpt lat="37.05417" lon="-3.33477">
        <ele>3113.2</ele>
        <time>2021-08-05 21:38:44</time>
      </trkpt>
      <trkpt lat="37.05417" lon="-3.33476">
        <ele>3113.2</ele>
        <time>2021-08-05 21:38:45</time>
      </trkpt>
      <trkpt lat="37.05417" lon="-3.33475">
        <ele>3113.4</ele>
        <time>2021-08-05 21:38:46</time>
      </trkpt>
      <trkpt lat="37.05417" lon="-3.33474">
        <ele>3113.6</ele>
        <time>2021-08-05 21:38:47</time>
      </trkpt>
      <trkpt lat="37.05417" lon="-3.33473">
        <ele>3113.6</ele>
        <time>2021-08-05 21:38:48</time>
      </trkpt>
      <trkpt lat="37.05418" lon="-3.33472">
        <ele>3113.8</ele>
        <time>2021-08-05 21:38:49</time>
      </trkpt>
      <trkpt lat="37.05418" lon="-3.33472">
        <ele>3113.8</ele>
        <time>2021-08-05 21:38:50</time>
      </trkpt>
      <trkpt lat="37.05418" lon="-3.33471">
        <ele>3114</ele>
        <time>2021-08-05 21:38:51</time>
      </trkpt>
      <trkpt lat="37.05419" lon="-3.33471">
        <ele>3114</ele>
        <time>2021-08-05 21:38:52</time>
      </trkpt>
      <trkpt lat="37.05419" lon="-3.3347">
        <ele>3114.2</ele>
        <time>2021-08-05 21:38:53</time>
      </trkpt>
      <trkpt lat="37.0542" lon="-3.33469">
        <ele>3114.4</ele>
        <time>2021-08-05 21:38:54</time>
      </trkpt>
      <trkpt lat="37.0542" lon="-3.33469">
        <ele>3114.6</ele>
        <time>2021-08-05 21:38:55</time>
      </trkpt>
      <trkpt lat="37.0542" lon="-3.33468">
        <ele>3114.6</ele>
        <time>2021-08-05 21:38:56</time>
      </trkpt>
      <trkpt lat="37.0542" lon="-3.33468">
        <ele>3114.8</ele>
        <time>2021-08-05 21:38:57</time>
      </trkpt>
      <trkpt lat="37.0542" lon="-3.33468">
        <ele>3115</ele>
        <time>2021-08-05 21:38:58</time>
      </trkpt>
      <trkpt lat="37.05419" lon="-3.33468">
        <ele>3115</ele>
        <time>2021-08-05 21:38:59</time>
      </trkpt>
      <trkpt lat="37.05419" lon="-3.33468">
        <ele>3114.8</ele>
        <time>2021-08-05 21:39:00</time>
      </trkpt>
      <trkpt lat="37.05419" lon="-3.33468">
        <ele>3115</ele>
        <time>2021-08-05 21:39:01</time>
      </trkpt>
      <trkpt lat="37.05419" lon="-3.33468">
        <ele>3115</ele>
        <time>2021-08-05 21:39:02</time>
      </trkpt>
      <trkpt lat="37.05419" lon="-3.33468">
        <ele>3114.8</ele>
        <time>2021-08-05 21:39:03</time>
      </trkpt>
      <trkpt lat="37.05419" lon="-3.33468">
        <ele>3114.8</ele>
        <time>2021-08-05 21:39:04</time>
      </trkpt>
      <trkpt lat="37.0542" lon="-3.33467">
        <ele>3115</ele>
        <time>2021-08-05 21:39:05</time>
      </trkpt>
      <trkpt lat="37.0542" lon="-3.33467">
        <ele>3115</ele>
        <time>2021-08-05 21:39:06</time>
      </trkpt>
      <trkpt lat="37.0542" lon="-3.33466">
        <ele>3115</ele>
        <time>2021-08-05 21:39:07</time>
      </trkpt>
      <trkpt lat="37.0542" lon="-3.33465">
        <ele>3115.2</ele>
        <time>2021-08-05 21:39:08</time>
      </trkpt>
      <trkpt lat="37.0542" lon="-3.33464">
        <ele>3115.4</ele>
        <time>2021-08-05 21:39:09</time>
      </trkpt>
      <trkpt lat="37.0542" lon="-3.33464">
        <ele>3115.6</ele>
        <time>2021-08-05 21:39:10</time>
      </trkpt>
      <trkpt lat="37.0542" lon="-3.33463">
        <ele>3115.8</ele>
        <time>2021-08-05 21:39:11</time>
      </trkpt>
      <trkpt lat="37.05419" lon="-3.33463">
        <ele>3115.8</ele>
        <time>2021-08-05 21:39:12</time>
      </trkpt>
      <trkpt lat="37.05419" lon="-3.33462">
        <ele>3116</ele>
        <time>2021-08-05 21:39:13</time>
      </trkpt>
      <trkpt lat="37.05419" lon="-3.33461">
        <ele>3116.2</ele>
        <time>2021-08-05 21:39:14</time>
      </trkpt>
      <trkpt lat="37.05419" lon="-3.3346">
        <ele>3116.2</ele>
        <time>2021-08-05 21:39:15</time>
      </trkpt>
      <trkpt lat="37.0542" lon="-3.3346">
        <ele>3116.4</ele>
        <time>2021-08-05 21:39:16</time>
      </trkpt>
      <trkpt lat="37.0542" lon="-3.3346">
        <ele>3116.6</ele>
        <time>2021-08-05 21:39:17</time>
      </trkpt>
      <trkpt lat="37.05421" lon="-3.3346">
        <ele>3116.8</ele>
        <time>2021-08-05 21:39:18</time>
      </trkpt>
      <trkpt lat="37.05422" lon="-3.3346">
        <ele>3116.8</ele>
        <time>2021-08-05 21:39:19</time>
      </trkpt>
      <trkpt lat="37.05422" lon="-3.33459">
        <ele>3116.8</ele>
        <time>2021-08-05 21:39:20</time>
      </trkpt>
      <trkpt lat="37.05423" lon="-3.33459">
        <ele>3116.8</ele>
        <time>2021-08-05 21:39:21</time>
      </trkpt>
      <trkpt lat="37.05423" lon="-3.33458">
        <ele>3116.8</ele>
        <time>2021-08-05 21:39:22</time>
      </trkpt>
      <trkpt lat="37.05424" lon="-3.33457">
        <ele>3117</ele>
        <time>2021-08-05 21:39:23</time>
      </trkpt>
      <trkpt lat="37.05424" lon="-3.33456">
        <ele>3117</ele>
        <time>2021-08-05 21:39:24</time>
      </trkpt>
      <trkpt lat="37.05425" lon="-3.33456">
        <ele>3117.2</ele>
        <time>2021-08-05 21:39:25</time>
      </trkpt>
      <trkpt lat="37.05425" lon="-3.33455">
        <ele>3117.2</ele>
        <time>2021-08-05 21:39:26</time>
      </trkpt>
      <trkpt lat="37.05423" lon="-3.33454">
        <ele>3117.4</ele>
        <time>2021-08-05 21:39:27</time>
      </trkpt>
      <trkpt lat="37.05423" lon="-3.33454">
        <ele>3117.4</ele>
        <time>2021-08-05 21:39:28</time>
      </trkpt>
      <trkpt lat="37.05423" lon="-3.33453">
        <ele>3117.4</ele>
        <time>2021-08-05 21:39:29</time>
      </trkpt>
      <trkpt lat="37.05423" lon="-3.33452">
        <ele>3117.4</ele>
        <time>2021-08-05 21:39:30</time>
      </trkpt>
      <trkpt lat="37.05423" lon="-3.33451">
        <ele>3117.6</ele>
        <time>2021-08-05 21:39:31</time>
      </trkpt>
      <trkpt lat="37.05423" lon="-3.3345">
        <ele>3117.8</ele>
        <time>2021-08-05 21:39:32</time>
      </trkpt>
      <trkpt lat="37.05422" lon="-3.3345">
        <ele>3118</ele>
        <time>2021-08-05 21:39:33</time>
      </trkpt>
      <trkpt lat="37.05423" lon="-3.33449">
        <ele>3118</ele>
        <time>2021-08-05 21:39:34</time>
      </trkpt>
      <trkpt lat="37.05423" lon="-3.33449">
        <ele>3118.4</ele>
        <time>2021-08-05 21:39:35</time>
      </trkpt>
      <trkpt lat="37.05423" lon="-3.33449">
        <ele>3118.6</ele>
        <time>2021-08-05 21:39:36</time>
      </trkpt>
      <trkpt lat="37.05422" lon="-3.33449">
        <ele>3118.6</ele>
        <time>2021-08-05 21:39:37</time>
      </trkpt>
      <trkpt lat="37.05423" lon="-3.33448">
        <ele>3118.6</ele>
        <time>2021-08-05 21:39:38</time>
      </trkpt>
      <trkpt lat="37.05423" lon="-3.33448">
        <ele>3118.8</ele>
        <time>2021-08-05 21:39:39</time>
      </trkpt>
      <trkpt lat="37.05423" lon="-3.33447">
        <ele>3118.8</ele>
        <time>2021-08-05 21:39:40</time>
      </trkpt>
      <trkpt lat="37.05424" lon="-3.33447">
        <ele>3118.8</ele>
        <time>2021-08-05 21:39:41</time>
      </trkpt>
      <trkpt lat="37.05424" lon="-3.33447">
        <ele>3118.8</ele>
        <time>2021-08-05 21:39:42</time>
      </trkpt>
      <trkpt lat="37.05425" lon="-3.33447">
        <ele>3119.2</ele>
        <time>2021-08-05 21:39:43</time>
      </trkpt>
      <trkpt lat="37.05425" lon="-3.33447">
        <ele>3119.4</ele>
        <time>2021-08-05 21:39:44</time>
      </trkpt>
      <trkpt lat="37.05425" lon="-3.33447">
        <ele>3119.4</ele>
        <time>2021-08-05 21:39:45</time>
      </trkpt>
      <trkpt lat="37.05426" lon="-3.33447">
        <ele>3119.6</ele>
        <time>2021-08-05 21:39:46</time>
      </trkpt>
      <trkpt lat="37.05426" lon="-3.33447">
        <ele>3119.6</ele>
        <time>2021-08-05 21:39:47</time>
      </trkpt>
      <trkpt lat="37.05426" lon="-3.33447">
        <ele>3119.6</ele>
        <time>2021-08-05 21:39:48</time>
      </trkpt>
      <trkpt lat="37.05426" lon="-3.33447">
        <ele>3119.6</ele>
        <time>2021-08-05 21:39:49</time>
      </trkpt>
      <trkpt lat="37.05426" lon="-3.33447">
        <ele>3119.6</ele>
        <time>2021-08-05 21:39:50</time>
      </trkpt>
      <trkpt lat="37.05427" lon="-3.33447">
        <ele>3119.6</ele>
        <time>2021-08-05 21:39:51</time>
      </trkpt>
      <trkpt lat="37.05427" lon="-3.33447">
        <ele>3119.6</ele>
        <time>2021-08-05 21:39:52</time>
      </trkpt>
      <trkpt lat="37.05427" lon="-3.33447">
        <ele>3119.6</ele>
        <time>2021-08-05 21:39:53</time>
      </trkpt>
      <trkpt lat="37.05427" lon="-3.33447">
        <ele>3119.6</ele>
        <time>2021-08-05 21:39:54</time>
      </trkpt>
      <trkpt lat="37.05425" lon="-3.33446">
        <ele>3119.8</ele>
        <time>2021-08-05 21:39:55</time>
      </trkpt>
      <trkpt lat="37.05424" lon="-3.33446">
        <ele>3119.6</ele>
        <time>2021-08-05 21:39:56</time>
      </trkpt>
      <trkpt lat="37.05424" lon="-3.33446">
        <ele>3119.6</ele>
        <time>2021-08-05 21:39:57</time>
      </trkpt>
      <trkpt lat="37.05423" lon="-3.33446">
        <ele>3119.6</ele>
        <time>2021-08-05 21:39:58</time>
      </trkpt>
      <trkpt lat="37.05423" lon="-3.33445">
        <ele>3119.6</ele>
        <time>2021-08-05 21:39:59</time>
      </trkpt>
      <trkpt lat="37.05423" lon="-3.33445">
        <ele>3119.8</ele>
        <time>2021-08-05 21:40:00</time>
      </trkpt>
      <trkpt lat="37.05423" lon="-3.33446">
        <ele>3119.6</ele>
        <time>2021-08-05 21:40:01</time>
      </trkpt>
      <trkpt lat="37.05424" lon="-3.33446">
        <ele>3119.4</ele>
        <time>2021-08-05 21:40:02</time>
      </trkpt>
      <trkpt lat="37.05424" lon="-3.33446">
        <ele>3119.4</ele>
        <time>2021-08-05 21:40:03</time>
      </trkpt>
      <trkpt lat="37.05424" lon="-3.33446">
        <ele>3119.4</ele>
        <time>2021-08-05 21:40:04</time>
      </trkpt>
      <trkpt lat="37.05424" lon="-3.33446">
        <ele>3119.4</ele>
        <time>2021-08-05 21:40:05</time>
      </trkpt>
      <trkpt lat="37.05424" lon="-3.33446">
        <ele>3119.4</ele>
        <time>2021-08-05 21:40:06</time>
      </trkpt>
      <trkpt lat="37.05424" lon="-3.33446">
        <ele>3119.2</ele>
        <time>2021-08-05 21:40:07</time>
      </trkpt>
      <trkpt lat="37.05424" lon="-3.33446">
        <ele>3119.2</ele>
        <time>2021-08-05 21:40:08</time>
      </trkpt>
      <trkpt lat="37.05424" lon="-3.33446">
        <ele>3119.4</ele>
        <time>2021-08-05 21:40:09</time>
      </trkpt>
      <trkpt lat="37.05424" lon="-3.33446">
        <ele>3119.4</ele>
        <time>2021-08-05 21:40:10</time>
      </trkpt>
      <trkpt lat="37.05424" lon="-3.33446">
        <ele>3119.2</ele>
        <time>2021-08-05 21:40:11</time>
      </trkpt>
      <trkpt lat="37.05424" lon="-3.33446">
        <ele>3119.2</ele>
        <time>2021-08-05 21:40:12</time>
      </trkpt>
      <trkpt lat="37.05424" lon="-3.33446">
        <ele>3119</ele>
        <time>2021-08-05 21:40:13</time>
      </trkpt>
      <trkpt lat="37.05424" lon="-3.33446">
        <ele>3119.2</ele>
        <time>2021-08-05 21:40:14</time>
      </trkpt>
      <trkpt lat="37.05424" lon="-3.33446">
        <ele>3119.2</ele>
        <time>2021-08-05 21:40:15</time>
      </trkpt>
      <trkpt lat="37.05425" lon="-3.33447">
        <ele>3119</ele>
        <time>2021-08-05 21:40:16</time>
      </trkpt>
      <trkpt lat="37.05425" lon="-3.33447">
        <ele>3119</ele>
        <time>2021-08-05 21:40:17</time>
      </trkpt>
      <trkpt lat="37.05425" lon="-3.33446">
        <ele>3119</ele>
        <time>2021-08-05 21:40:18</time>
      </trkpt>
      <trkpt lat="37.05425" lon="-3.33447">
        <ele>3119</ele>
        <time>2021-08-05 21:40:19</time>
      </trkpt>
      <trkpt lat="37.05425" lon="-3.33447">
        <ele>3119</ele>
        <time>2021-08-05 21:40:20</time>
      </trkpt>
      <trkpt lat="37.05425" lon="-3.33447">
        <ele>3119.2</ele>
        <time>2021-08-05 21:40:21</time>
      </trkpt>
      <trkpt lat="37.05425" lon="-3.33447">
        <ele>3119.2</ele>
        <time>2021-08-05 21:40:22</time>
      </trkpt>
      <trkpt lat="37.05425" lon="-3.33446">
        <ele>3119.2</ele>
        <time>2021-08-05 21:40:23</time>
      </trkpt>
      <trkpt lat="37.05425" lon="-3.33445">
        <ele>3119.2</ele>
        <time>2021-08-05 21:40:24</time>
      </trkpt>
      <trkpt lat="37.05425" lon="-3.33445">
        <ele>3119.2</ele>
        <time>2021-08-05 21:40:25</time>
      </trkpt>
      <trkpt lat="37.05425" lon="-3.33445">
        <ele>3119.4</ele>
        <time>2021-08-05 21:40:26</time>
      </trkpt>
      <trkpt lat="37.05426" lon="-3.33445">
        <ele>3119.4</ele>
        <time>2021-08-05 21:40:27</time>
      </trkpt>
      <trkpt lat="37.05426" lon="-3.33444">
        <ele>3119.2</ele>
        <time>2021-08-05 21:40:28</time>
      </trkpt>
      <trkpt lat="37.05426" lon="-3.33444">
        <ele>3119.2</ele>
        <time>2021-08-05 21:40:29</time>
      </trkpt>
      <trkpt lat="37.05426" lon="-3.33444">
        <ele>3119.2</ele>
        <time>2021-08-05 21:40:30</time>
      </trkpt>
      <trkpt lat="37.05426" lon="-3.33444">
        <ele>3119.2</ele>
        <time>2021-08-05 21:40:31</time>
      </trkpt>
      <trkpt lat="37.05426" lon="-3.33444">
        <ele>3119.2</ele>
        <time>2021-08-05 21:40:32</time>
      </trkpt>
      <trkpt lat="37.05426" lon="-3.33444">
        <ele>3119.2</ele>
        <time>2021-08-05 21:40:33</time>
      </trkpt>
      <trkpt lat="37.05426" lon="-3.33443">
        <ele>3119.4</ele>
        <time>2021-08-05 21:40:34</time>
      </trkpt>
      <trkpt lat="37.05426" lon="-3.33443">
        <ele>3119.4</ele>
        <time>2021-08-05 21:40:35</time>
      </trkpt>
      <trkpt lat="37.05426" lon="-3.33442">
        <ele>3119.6</ele>
        <time>2021-08-05 21:40:36</time>
      </trkpt>
      <trkpt lat="37.05427" lon="-3.33441">
        <ele>3119.8</ele>
        <time>2021-08-05 21:40:37</time>
      </trkpt>
      <trkpt lat="37.05426" lon="-3.33441">
        <ele>3119.8</ele>
        <time>2021-08-05 21:40:38</time>
      </trkpt>
      <trkpt lat="37.05426" lon="-3.3344">
        <ele>3119.8</ele>
        <time>2021-08-05 21:40:39</time>
      </trkpt>
      <trkpt lat="37.05426" lon="-3.3344">
        <ele>3120</ele>
        <time>2021-08-05 21:40:40</time>
      </trkpt>
      <trkpt lat="37.05427" lon="-3.33439">
        <ele>3120</ele>
        <time>2021-08-05 21:40:41</time>
      </trkpt>
      <trkpt lat="37.05427" lon="-3.33438">
        <ele>3120.2</ele>
        <time>2021-08-05 21:40:42</time>
      </trkpt>
      <trkpt lat="37.05428" lon="-3.33438">
        <ele>3120.4</ele>
        <time>2021-08-05 21:40:43</time>
      </trkpt>
      <trkpt lat="37.05428" lon="-3.33437">
        <ele>3120.6</ele>
        <time>2021-08-05 21:40:44</time>
      </trkpt>
      <trkpt lat="37.05428" lon="-3.33436">
        <ele>3120.8</ele>
        <time>2021-08-05 21:40:45</time>
      </trkpt>
      <trkpt lat="37.05427" lon="-3.33435">
        <ele>3121</ele>
        <time>2021-08-05 21:40:46</time>
      </trkpt>
      <trkpt lat="37.05428" lon="-3.33434">
        <ele>3121.4</ele>
        <time>2021-08-05 21:40:47</time>
      </trkpt>
      <trkpt lat="37.05427" lon="-3.33433">
        <ele>3121.4</ele>
        <time>2021-08-05 21:40:48</time>
      </trkpt>
      <trkpt lat="37.05427" lon="-3.33432">
        <ele>3121.4</ele>
        <time>2021-08-05 21:40:49</time>
      </trkpt>
      <trkpt lat="37.05426" lon="-3.33431">
        <ele>3121.8</ele>
        <time>2021-08-05 21:40:50</time>
      </trkpt>
      <trkpt lat="37.05426" lon="-3.33429">
        <ele>3121.8</ele>
        <time>2021-08-05 21:40:51</time>
      </trkpt>
      <trkpt lat="37.05426" lon="-3.33428">
        <ele>3122</ele>
        <time>2021-08-05 21:40:52</time>
      </trkpt>
      <trkpt lat="37.05426" lon="-3.33427">
        <ele>3122.2</ele>
        <time>2021-08-05 21:40:53</time>
      </trkpt>
      <trkpt lat="37.05426" lon="-3.33426">
        <ele>3122.4</ele>
        <time>2021-08-05 21:40:54</time>
      </trkpt>
      <trkpt lat="37.05426" lon="-3.33425">
        <ele>3122.6</ele>
        <time>2021-08-05 21:40:55</time>
      </trkpt>
      <trkpt lat="37.05425" lon="-3.33424">
        <ele>3122.6</ele>
        <time>2021-08-05 21:40:56</time>
      </trkpt>
      <trkpt lat="37.05425" lon="-3.33423">
        <ele>3122.6</ele>
        <time>2021-08-05 21:40:57</time>
      </trkpt>
      <trkpt lat="37.05425" lon="-3.33422">
        <ele>3122.6</ele>
        <time>2021-08-05 21:40:58</time>
      </trkpt>
      <trkpt lat="37.05425" lon="-3.33421">
        <ele>3123</ele>
        <time>2021-08-05 21:40:59</time>
      </trkpt>
      <trkpt lat="37.05425" lon="-3.33419">
        <ele>3123</ele>
        <time>2021-08-05 21:41:00</time>
      </trkpt>
      <trkpt lat="37.05425" lon="-3.33418">
        <ele>3123.2</ele>
        <time>2021-08-05 21:41:01</time>
      </trkpt>
      <trkpt lat="37.05425" lon="-3.33417">
        <ele>3123.6</ele>
        <time>2021-08-05 21:41:02</time>
      </trkpt>
      <trkpt lat="37.05425" lon="-3.33416">
        <ele>3123.8</ele>
        <time>2021-08-05 21:41:03</time>
      </trkpt>
      <trkpt lat="37.05425" lon="-3.33416">
        <ele>3124</ele>
        <time>2021-08-05 21:41:04</time>
      </trkpt>
      <trkpt lat="37.05424" lon="-3.33415">
        <ele>3124.2</ele>
        <time>2021-08-05 21:41:05</time>
      </trkpt>
      <trkpt lat="37.05424" lon="-3.33413">
        <ele>3124.4</ele>
        <time>2021-08-05 21:41:06</time>
      </trkpt>
      <trkpt lat="37.05424" lon="-3.33413">
        <ele>3124.4</ele>
        <time>2021-08-05 21:41:07</time>
      </trkpt>
      <trkpt lat="37.05424" lon="-3.33411">
        <ele>3124.6</ele>
        <time>2021-08-05 21:41:08</time>
      </trkpt>
      <trkpt lat="37.05423" lon="-3.3341">
        <ele>3124.6</ele>
        <time>2021-08-05 21:41:09</time>
      </trkpt>
      <trkpt lat="37.05423" lon="-3.33409">
        <ele>3125</ele>
        <time>2021-08-05 21:41:10</time>
      </trkpt>
      <trkpt lat="37.05423" lon="-3.33408">
        <ele>3125</ele>
        <time>2021-08-05 21:41:11</time>
      </trkpt>
      <trkpt lat="37.05422" lon="-3.33408">
        <ele>3125.2</ele>
        <time>2021-08-05 21:41:12</time>
      </trkpt>
      <trkpt lat="37.05422" lon="-3.33407">
        <ele>3125.2</ele>
        <time>2021-08-05 21:41:13</time>
      </trkpt>
      <trkpt lat="37.05422" lon="-3.33406">
        <ele>3125.4</ele>
        <time>2021-08-05 21:41:14</time>
      </trkpt>
      <trkpt lat="37.05422" lon="-3.33405">
        <ele>3125.4</ele>
        <time>2021-08-05 21:41:15</time>
      </trkpt>
      <trkpt lat="37.05422" lon="-3.33404">
        <ele>3125.4</ele>
        <time>2021-08-05 21:41:16</time>
      </trkpt>
      <trkpt lat="37.05421" lon="-3.33403">
        <ele>3125.4</ele>
        <time>2021-08-05 21:41:17</time>
      </trkpt>
      <trkpt lat="37.05421" lon="-3.33402">
        <ele>3125.4</ele>
        <time>2021-08-05 21:41:18</time>
      </trkpt>
      <trkpt lat="37.05421" lon="-3.33401">
        <ele>3125.4</ele>
        <time>2021-08-05 21:41:19</time>
      </trkpt>
      <trkpt lat="37.05421" lon="-3.334">
        <ele>3125.4</ele>
        <time>2021-08-05 21:41:20</time>
      </trkpt>
      <trkpt lat="37.05421" lon="-3.33399">
        <ele>3125.4</ele>
        <time>2021-08-05 21:41:21</time>
      </trkpt>
      <trkpt lat="37.05421" lon="-3.33398">
        <ele>3125.4</ele>
        <time>2021-08-05 21:41:22</time>
      </trkpt>
      <trkpt lat="37.0542" lon="-3.33397">
        <ele>3125.6</ele>
        <time>2021-08-05 21:41:23</time>
      </trkpt>
      <trkpt lat="37.0542" lon="-3.33397">
        <ele>3126</ele>
        <time>2021-08-05 21:41:24</time>
      </trkpt>
      <trkpt lat="37.05421" lon="-3.33397">
        <ele>3126.2</ele>
        <time>2021-08-05 21:41:25</time>
      </trkpt>
      <trkpt lat="37.05421" lon="-3.33397">
        <ele>3126.4</ele>
        <time>2021-08-05 21:41:26</time>
      </trkpt>
      <trkpt lat="37.05421" lon="-3.33396">
        <ele>3126.6</ele>
        <time>2021-08-05 21:41:27</time>
      </trkpt>
      <trkpt lat="37.05421" lon="-3.33396">
        <ele>3126.8</ele>
        <time>2021-08-05 21:41:28</time>
      </trkpt>
      <trkpt lat="37.05421" lon="-3.33395">
        <ele>3126.8</ele>
        <time>2021-08-05 21:41:29</time>
      </trkpt>
      <trkpt lat="37.05421" lon="-3.33394">
        <ele>3126.8</ele>
        <time>2021-08-05 21:41:30</time>
      </trkpt>
      <trkpt lat="37.05421" lon="-3.33393">
        <ele>3126.8</ele>
        <time>2021-08-05 21:41:31</time>
      </trkpt>
      <trkpt lat="37.05421" lon="-3.33392">
        <ele>3127</ele>
        <time>2021-08-05 21:41:32</time>
      </trkpt>
      <trkpt lat="37.05421" lon="-3.33391">
        <ele>3127</ele>
        <time>2021-08-05 21:41:33</time>
      </trkpt>
      <trkpt lat="37.05421" lon="-3.3339">
        <ele>3127</ele>
        <time>2021-08-05 21:41:34</time>
      </trkpt>
      <trkpt lat="37.0542" lon="-3.3339">
        <ele>3127.2</ele>
        <time>2021-08-05 21:41:35</time>
      </trkpt>
      <trkpt lat="37.0542" lon="-3.33389">
        <ele>3127.2</ele>
        <time>2021-08-05 21:41:36</time>
      </trkpt>
      <trkpt lat="37.05419" lon="-3.33387">
        <ele>3127.4</ele>
        <time>2021-08-05 21:41:37</time>
      </trkpt>
      <trkpt lat="37.05419" lon="-3.33386">
        <ele>3127.6</ele>
        <time>2021-08-05 21:41:38</time>
      </trkpt>
      <trkpt lat="37.05419" lon="-3.33385">
        <ele>3127.8</ele>
        <time>2021-08-05 21:41:39</time>
      </trkpt>
      <trkpt lat="37.05419" lon="-3.33385">
        <ele>3128</ele>
        <time>2021-08-05 21:41:40</time>
      </trkpt>
      <trkpt lat="37.05419" lon="-3.33384">
        <ele>3128.2</ele>
        <time>2021-08-05 21:41:41</time>
      </trkpt>
      <trkpt lat="37.05418" lon="-3.33384">
        <ele>3128.4</ele>
        <time>2021-08-05 21:41:42</time>
      </trkpt>
      <trkpt lat="37.05417" lon="-3.33383">
        <ele>3128.4</ele>
        <time>2021-08-05 21:41:43</time>
      </trkpt>
      <trkpt lat="37.05417" lon="-3.33382">
        <ele>3128.6</ele>
        <time>2021-08-05 21:41:44</time>
      </trkpt>
      <trkpt lat="37.05417" lon="-3.33381">
        <ele>3128.6</ele>
        <time>2021-08-05 21:41:45</time>
      </trkpt>
      <trkpt lat="37.05416" lon="-3.33381">
        <ele>3128.8</ele>
        <time>2021-08-05 21:41:46</time>
      </trkpt>
      <trkpt lat="37.05416" lon="-3.3338">
        <ele>3128.8</ele>
        <time>2021-08-05 21:41:47</time>
      </trkpt>
      <trkpt lat="37.05416" lon="-3.33379">
        <ele>3128.8</ele>
        <time>2021-08-05 21:41:48</time>
      </trkpt>
      <trkpt lat="37.05415" lon="-3.33378">
        <ele>3129</ele>
        <time>2021-08-05 21:41:49</time>
      </trkpt>
      <trkpt lat="37.05415" lon="-3.33377">
        <ele>3129</ele>
        <time>2021-08-05 21:41:50</time>
      </trkpt>
      <trkpt lat="37.05415" lon="-3.33377">
        <ele>3129.2</ele>
        <time>2021-08-05 21:41:51</time>
      </trkpt>
      <trkpt lat="37.05415" lon="-3.33376">
        <ele>3129.4</ele>
        <time>2021-08-05 21:41:52</time>
      </trkpt>
      <trkpt lat="37.05416" lon="-3.33375">
        <ele>3129.6</ele>
        <time>2021-08-05 21:41:53</time>
      </trkpt>
      <trkpt lat="37.05416" lon="-3.33374">
        <ele>3129.6</ele>
        <time>2021-08-05 21:41:54</time>
      </trkpt>
      <trkpt lat="37.05416" lon="-3.33373">
        <ele>3129.6</ele>
        <time>2021-08-05 21:41:55</time>
      </trkpt>
      <trkpt lat="37.05416" lon="-3.33372">
        <ele>3129.8</ele>
        <time>2021-08-05 21:41:56</time>
      </trkpt>
      <trkpt lat="37.05416" lon="-3.33371">
        <ele>3130</ele>
        <time>2021-08-05 21:41:57</time>
      </trkpt>
      <trkpt lat="37.05416" lon="-3.3337">
        <ele>3130</ele>
        <time>2021-08-05 21:41:58</time>
      </trkpt>
      <trkpt lat="37.05416" lon="-3.33369">
        <ele>3130.2</ele>
        <time>2021-08-05 21:41:59</time>
      </trkpt>
      <trkpt lat="37.05417" lon="-3.33368">
        <ele>3130.2</ele>
        <time>2021-08-05 21:42:00</time>
      </trkpt>
      <trkpt lat="37.05417" lon="-3.33366">
        <ele>3130.2</ele>
        <time>2021-08-05 21:42:01</time>
      </trkpt>
      <trkpt lat="37.05417" lon="-3.33365">
        <ele>3130.2</ele>
        <time>2021-08-05 21:42:02</time>
      </trkpt>
      <trkpt lat="37.05417" lon="-3.33364">
        <ele>3130.4</ele>
        <time>2021-08-05 21:42:03</time>
      </trkpt>
      <trkpt lat="37.05416" lon="-3.33363">
        <ele>3130.4</ele>
        <time>2021-08-05 21:42:04</time>
      </trkpt>
      <trkpt lat="37.05416" lon="-3.33362">
        <ele>3130.6</ele>
        <time>2021-08-05 21:42:05</time>
      </trkpt>
      <trkpt lat="37.05415" lon="-3.33362">
        <ele>3130.6</ele>
        <time>2021-08-05 21:42:06</time>
      </trkpt>
      <trkpt lat="37.05415" lon="-3.33361">
        <ele>3130.8</ele>
        <time>2021-08-05 21:42:07</time>
      </trkpt>
      <trkpt lat="37.05415" lon="-3.3336">
        <ele>3131</ele>
        <time>2021-08-05 21:42:08</time>
      </trkpt>
      <trkpt lat="37.05415" lon="-3.33359">
        <ele>3131.2</ele>
        <time>2021-08-05 21:42:09</time>
      </trkpt>
      <trkpt lat="37.05414" lon="-3.33358">
        <ele>3131.2</ele>
        <time>2021-08-05 21:42:10</time>
      </trkpt>
      <trkpt lat="37.05414" lon="-3.33357">
        <ele>3131.2</ele>
        <time>2021-08-05 21:42:11</time>
      </trkpt>
      <trkpt lat="37.05414" lon="-3.33356">
        <ele>3131.2</ele>
        <time>2021-08-05 21:42:12</time>
      </trkpt>
      <trkpt lat="37.05414" lon="-3.33355">
        <ele>3131.4</ele>
        <time>2021-08-05 21:42:13</time>
      </trkpt>
      <trkpt lat="37.05414" lon="-3.33354">
        <ele>3131.4</ele>
        <time>2021-08-05 21:42:14</time>
      </trkpt>
      <trkpt lat="37.05414" lon="-3.33353">
        <ele>3131.4</ele>
        <time>2021-08-05 21:42:15</time>
      </trkpt>
      <trkpt lat="37.05414" lon="-3.33352">
        <ele>3131.6</ele>
        <time>2021-08-05 21:42:16</time>
      </trkpt>
      <trkpt lat="37.05414" lon="-3.33351">
        <ele>3131.6</ele>
        <time>2021-08-05 21:42:17</time>
      </trkpt>
      <trkpt lat="37.05414" lon="-3.3335">
        <ele>3131.8</ele>
        <time>2021-08-05 21:42:18</time>
      </trkpt>
      <trkpt lat="37.05414" lon="-3.33349">
        <ele>3131.8</ele>
        <time>2021-08-05 21:42:19</time>
      </trkpt>
      <trkpt lat="37.05413" lon="-3.33348">
        <ele>3132</ele>
        <time>2021-08-05 21:42:20</time>
      </trkpt>
      <trkpt lat="37.05413" lon="-3.33348">
        <ele>3132</ele>
        <time>2021-08-05 21:42:21</time>
      </trkpt>
      <trkpt lat="37.05413" lon="-3.33347">
        <ele>3132</ele>
        <time>2021-08-05 21:42:22</time>
      </trkpt>
      <trkpt lat="37.05413" lon="-3.33346">
        <ele>3131.6</ele>
        <time>2021-08-05 21:42:23</time>
      </trkpt>
      <trkpt lat="37.05413" lon="-3.33345">
        <ele>3131.8</ele>
        <time>2021-08-05 21:42:24</time>
      </trkpt>
      <trkpt lat="37.05412" lon="-3.33344">
        <ele>3131.8</ele>
        <time>2021-08-05 21:42:25</time>
      </trkpt>
      <trkpt lat="37.05412" lon="-3.33344">
        <ele>3131.8</ele>
        <time>2021-08-05 21:42:26</time>
      </trkpt>
      <trkpt lat="37.05412" lon="-3.33343">
        <ele>3131.6</ele>
        <time>2021-08-05 21:42:27</time>
      </trkpt>
      <trkpt lat="37.05412" lon="-3.33342">
        <ele>3131.6</ele>
        <time>2021-08-05 21:42:28</time>
      </trkpt>
      <trkpt lat="37.05412" lon="-3.33341">
        <ele>3131.8</ele>
        <time>2021-08-05 21:42:29</time>
      </trkpt>
      <trkpt lat="37.05412" lon="-3.3334">
        <ele>3132.2</ele>
        <time>2021-08-05 21:42:30</time>
      </trkpt>
      <trkpt lat="37.05412" lon="-3.33339">
        <ele>3132</ele>
        <time>2021-08-05 21:42:31</time>
      </trkpt>
      <trkpt lat="37.05412" lon="-3.33338">
        <ele>3132.2</ele>
        <time>2021-08-05 21:42:32</time>
      </trkpt>
      <trkpt lat="37.05411" lon="-3.33337">
        <ele>3132.6</ele>
        <time>2021-08-05 21:42:33</time>
      </trkpt>
      <trkpt lat="37.05411" lon="-3.33336">
        <ele>3132.6</ele>
        <time>2021-08-05 21:42:34</time>
      </trkpt>
      <trkpt lat="37.0541" lon="-3.33335">
        <ele>3132.6</ele>
        <time>2021-08-05 21:42:35</time>
      </trkpt>
      <trkpt lat="37.0541" lon="-3.33334">
        <ele>3132.8</ele>
        <time>2021-08-05 21:42:36</time>
      </trkpt>
      <trkpt lat="37.0541" lon="-3.33333">
        <ele>3132.8</ele>
        <time>2021-08-05 21:42:37</time>
      </trkpt>
      <trkpt lat="37.05409" lon="-3.33332">
        <ele>3133</ele>
        <time>2021-08-05 21:42:38</time>
      </trkpt>
      <trkpt lat="37.05408" lon="-3.33331">
        <ele>3133.4</ele>
        <time>2021-08-05 21:42:39</time>
      </trkpt>
      <trkpt lat="37.05408" lon="-3.3333">
        <ele>3133.4</ele>
        <time>2021-08-05 21:42:40</time>
      </trkpt>
      <trkpt lat="37.05408" lon="-3.33329">
        <ele>3133.6</ele>
        <time>2021-08-05 21:42:41</time>
      </trkpt>
      <trkpt lat="37.05408" lon="-3.33328">
        <ele>3133.6</ele>
        <time>2021-08-05 21:42:42</time>
      </trkpt>
      <trkpt lat="37.05408" lon="-3.33327">
        <ele>3133.6</ele>
        <time>2021-08-05 21:42:43</time>
      </trkpt>
      <trkpt lat="37.05408" lon="-3.33326">
        <ele>3133.6</ele>
        <time>2021-08-05 21:42:44</time>
      </trkpt>
      <trkpt lat="37.05408" lon="-3.33324">
        <ele>3133.6</ele>
        <time>2021-08-05 21:42:45</time>
      </trkpt>
      <trkpt lat="37.05408" lon="-3.33323">
        <ele>3133.6</ele>
        <time>2021-08-05 21:42:46</time>
      </trkpt>
      <trkpt lat="37.05409" lon="-3.33322">
        <ele>3133.6</ele>
        <time>2021-08-05 21:42:47</time>
      </trkpt>
      <trkpt lat="37.05409" lon="-3.33321">
        <ele>3133.6</ele>
        <time>2021-08-05 21:42:48</time>
      </trkpt>
      <trkpt lat="37.05409" lon="-3.33321">
        <ele>3133.6</ele>
        <time>2021-08-05 21:42:49</time>
      </trkpt>
      <trkpt lat="37.05409" lon="-3.33321">
        <ele>3133.6</ele>
        <time>2021-08-05 21:42:50</time>
      </trkpt>
      <trkpt lat="37.05409" lon="-3.33321">
        <ele>3133.8</ele>
        <time>2021-08-05 21:42:51</time>
      </trkpt>
      <trkpt lat="37.05409" lon="-3.33321">
        <ele>3133.8</ele>
        <time>2021-08-05 21:42:52</time>
      </trkpt>
      <trkpt lat="37.0541" lon="-3.33321">
        <ele>3133.8</ele>
        <time>2021-08-05 21:42:53</time>
      </trkpt>
      <trkpt lat="37.0541" lon="-3.33322">
        <ele>3133.8</ele>
        <time>2021-08-05 21:42:54</time>
      </trkpt>
      <trkpt lat="37.0541" lon="-3.33322">
        <ele>3134</ele>
        <time>2021-08-05 21:42:55</time>
      </trkpt>
      <trkpt lat="37.0541" lon="-3.33322">
        <ele>3134</ele>
        <time>2021-08-05 21:42:56</time>
      </trkpt>
      <trkpt lat="37.0541" lon="-3.33322">
        <ele>3134</ele>
        <time>2021-08-05 21:42:57</time>
      </trkpt>
      <trkpt lat="37.05409" lon="-3.33322">
        <ele>3134</ele>
        <time>2021-08-05 21:42:58</time>
      </trkpt>
      <trkpt lat="37.05409" lon="-3.33322">
        <ele>3134</ele>
        <time>2021-08-05 21:42:59</time>
      </trkpt>
      <trkpt lat="37.05409" lon="-3.33321">
        <ele>3134</ele>
        <time>2021-08-05 21:43:00</time>
      </trkpt>
      <trkpt lat="37.05409" lon="-3.33321">
        <ele>3134</ele>
        <time>2021-08-05 21:43:01</time>
      </trkpt>
      <trkpt lat="37.05408" lon="-3.33322">
        <ele>3134</ele>
        <time>2021-08-05 21:43:02</time>
      </trkpt>
      <trkpt lat="37.05408" lon="-3.33322">
        <ele>3134</ele>
        <time>2021-08-05 21:43:03</time>
      </trkpt>
      <trkpt lat="37.05408" lon="-3.33322">
        <ele>3133.8</ele>
        <time>2021-08-05 21:43:04</time>
      </trkpt>
      <trkpt lat="37.05408" lon="-3.33322">
        <ele>3133.8</ele>
        <time>2021-08-05 21:43:05</time>
      </trkpt>
      <trkpt lat="37.05408" lon="-3.33322">
        <ele>3133.8</ele>
        <time>2021-08-05 21:43:06</time>
      </trkpt>
      <trkpt lat="37.05408" lon="-3.33322">
        <ele>3133.8</ele>
        <time>2021-08-05 21:43:07</time>
      </trkpt>
      <trkpt lat="37.05408" lon="-3.33322">
        <ele>3133.8</ele>
        <time>2021-08-05 21:43:08</time>
      </trkpt>
      <trkpt lat="37.05408" lon="-3.33322">
        <ele>3133.8</ele>
        <time>2021-08-05 21:43:09</time>
      </trkpt>
      <trkpt lat="37.05409" lon="-3.33322">
        <ele>3133.8</ele>
        <time>2021-08-05 21:43:10</time>
      </trkpt>
      <trkpt lat="37.05409" lon="-3.33322">
        <ele>3134</ele>
        <time>2021-08-05 21:43:11</time>
      </trkpt>
      <trkpt lat="37.05409" lon="-3.33322">
        <ele>3134.2</ele>
        <time>2021-08-05 21:43:12</time>
      </trkpt>
      <trkpt lat="37.05409" lon="-3.33321">
        <ele>3134.2</ele>
        <time>2021-08-05 21:43:13</time>
      </trkpt>
      <trkpt lat="37.05409" lon="-3.3332">
        <ele>3134.2</ele>
        <time>2021-08-05 21:43:14</time>
      </trkpt>
      <trkpt lat="37.05408" lon="-3.3332">
        <ele>3134.2</ele>
        <time>2021-08-05 21:43:15</time>
      </trkpt>
      <trkpt lat="37.05408" lon="-3.33319">
        <ele>3134.2</ele>
        <time>2021-08-05 21:43:16</time>
      </trkpt>
      <trkpt lat="37.05408" lon="-3.33319">
        <ele>3134</ele>
        <time>2021-08-05 21:43:17</time>
      </trkpt>
      <trkpt lat="37.05408" lon="-3.33319">
        <ele>3134</ele>
        <time>2021-08-05 21:43:18</time>
      </trkpt>
      <trkpt lat="37.05408" lon="-3.33319">
        <ele>3133.8</ele>
        <time>2021-08-05 21:43:19</time>
      </trkpt>
      <trkpt lat="37.05408" lon="-3.33318">
        <ele>3133.8</ele>
        <time>2021-08-05 21:43:20</time>
      </trkpt>
      <trkpt lat="37.05408" lon="-3.33318">
        <ele>3133.8</ele>
        <time>2021-08-05 21:43:21</time>
      </trkpt>
      <trkpt lat="37.05408" lon="-3.33319">
        <ele>3133.8</ele>
        <time>2021-08-05 21:43:22</time>
      </trkpt>
      <trkpt lat="37.05407" lon="-3.33319">
        <ele>3133.8</ele>
        <time>2021-08-05 21:43:23</time>
      </trkpt>
      <trkpt lat="37.05407" lon="-3.33319">
        <ele>3133.8</ele>
        <time>2021-08-05 21:43:24</time>
      </trkpt>
      <trkpt lat="37.05406" lon="-3.3332">
        <ele>3133.8</ele>
        <time>2021-08-05 21:43:25</time>
      </trkpt>
      <trkpt lat="37.05406" lon="-3.3332">
        <ele>3134</ele>
        <time>2021-08-05 21:43:26</time>
      </trkpt>
      <trkpt lat="37.05406" lon="-3.3332">
        <ele>3134</ele>
        <time>2021-08-05 21:43:27</time>
      </trkpt>
      <trkpt lat="37.05407" lon="-3.3332">
        <ele>3134</ele>
        <time>2021-08-05 21:43:28</time>
      </trkpt>
      <trkpt lat="37.05408" lon="-3.3332">
        <ele>3134</ele>
        <time>2021-08-05 21:43:29</time>
      </trkpt>
      <trkpt lat="37.05408" lon="-3.33319">
        <ele>3134.2</ele>
        <time>2021-08-05 21:43:30</time>
      </trkpt>
      <trkpt lat="37.05408" lon="-3.33319">
        <ele>3134.2</ele>
        <time>2021-08-05 21:43:31</time>
      </trkpt>
      <trkpt lat="37.05408" lon="-3.3332">
        <ele>3134</ele>
        <time>2021-08-05 21:43:32</time>
      </trkpt>
      <trkpt lat="37.05408" lon="-3.33321">
        <ele>3133.8</ele>
        <time>2021-08-05 21:43:33</time>
      </trkpt>
      <trkpt lat="37.05408" lon="-3.33321">
        <ele>3133.8</ele>
        <time>2021-08-05 21:43:34</time>
      </trkpt>
      <trkpt lat="37.05408" lon="-3.3332">
        <ele>3133.8</ele>
        <time>2021-08-05 21:43:35</time>
      </trkpt>
      <trkpt lat="37.05408" lon="-3.3332">
        <ele>3133.8</ele>
        <time>2021-08-05 21:43:36</time>
      </trkpt>
      <trkpt lat="37.05408" lon="-3.33321">
        <ele>3133.4</ele>
        <time>2021-08-05 21:43:37</time>
      </trkpt>
      <trkpt lat="37.05408" lon="-3.33321">
        <ele>3133.2</ele>
        <time>2021-08-05 21:43:38</time>
      </trkpt>
      <trkpt lat="37.05408" lon="-3.33322">
        <ele>3133.2</ele>
        <time>2021-08-05 21:43:39</time>
      </trkpt>
      <trkpt lat="37.05408" lon="-3.33322">
        <ele>3133.4</ele>
        <time>2021-08-05 21:43:40</time>
      </trkpt>
      <trkpt lat="37.05408" lon="-3.33323">
        <ele>3133.2</ele>
        <time>2021-08-05 21:43:41</time>
      </trkpt>
      <trkpt lat="37.05408" lon="-3.33323">
        <ele>3133.2</ele>
        <time>2021-08-05 21:43:42</time>
      </trkpt>
      <trkpt lat="37.05408" lon="-3.33323">
        <ele>3133.2</ele>
        <time>2021-08-05 21:43:43</time>
      </trkpt>
      <trkpt lat="37.05408" lon="-3.33323">
        <ele>3133.2</ele>
        <time>2021-08-05 21:43:44</time>
      </trkpt>
      <trkpt lat="37.05408" lon="-3.33322">
        <ele>3133.2</ele>
        <time>2021-08-05 21:43:45</time>
      </trkpt>
      <trkpt lat="37.05408" lon="-3.33322">
        <ele>3133</ele>
        <time>2021-08-05 21:43:46</time>
      </trkpt>
      <trkpt lat="37.05408" lon="-3.33322">
        <ele>3133</ele>
        <time>2021-08-05 21:43:47</time>
      </trkpt>
      <trkpt lat="37.05407" lon="-3.33322">
        <ele>3133</ele>
        <time>2021-08-05 21:43:48</time>
      </trkpt>
      <trkpt lat="37.05407" lon="-3.33322">
        <ele>3133</ele>
        <time>2021-08-05 21:43:49</time>
      </trkpt>
      <trkpt lat="37.05407" lon="-3.33322">
        <ele>3133</ele>
        <time>2021-08-05 21:43:50</time>
      </trkpt>
      <trkpt lat="37.05407" lon="-3.33322">
        <ele>3133</ele>
        <time>2021-08-05 21:43:51</time>
      </trkpt>
      <trkpt lat="37.05407" lon="-3.33322">
        <ele>3133</ele>
        <time>2021-08-05 21:43:52</time>
      </trkpt>
      <trkpt lat="37.05407" lon="-3.33322">
        <ele>3133</ele>
        <time>2021-08-05 21:43:53</time>
      </trkpt>
      <trkpt lat="37.05407" lon="-3.33321">
        <ele>3133</ele>
        <time>2021-08-05 21:43:54</time>
      </trkpt>
      <trkpt lat="37.05407" lon="-3.33322">
        <ele>3133</ele>
        <time>2021-08-05 21:43:55</time>
      </trkpt>
      <trkpt lat="37.05408" lon="-3.33322">
        <ele>3133.2</ele>
        <time>2021-08-05 21:43:56</time>
      </trkpt>
      <trkpt lat="37.05408" lon="-3.33321">
        <ele>3133.2</ele>
        <time>2021-08-05 21:43:57</time>
      </trkpt>
      <trkpt lat="37.05408" lon="-3.33321">
        <ele>3133.2</ele>
        <time>2021-08-05 21:43:58</time>
      </trkpt>
      <trkpt lat="37.05408" lon="-3.33321">
        <ele>3133.2</ele>
        <time>2021-08-05 21:43:59</time>
      </trkpt>
      <trkpt lat="37.05408" lon="-3.33321">
        <ele>3133</ele>
        <time>2021-08-05 21:44:00</time>
      </trkpt>
      <trkpt lat="37.05408" lon="-3.33321">
        <ele>3133.2</ele>
        <time>2021-08-05 21:44:01</time>
      </trkpt>
      <trkpt lat="37.05408" lon="-3.33321">
        <ele>3133</ele>
        <time>2021-08-05 21:44:02</time>
      </trkpt>
      <trkpt lat="37.05408" lon="-3.33321">
        <ele>3133</ele>
        <time>2021-08-05 21:44:03</time>
      </trkpt>
      <trkpt lat="37.05408" lon="-3.33321">
        <ele>3132.8</ele>
        <time>2021-08-05 21:44:04</time>
      </trkpt>
      <trkpt lat="37.05408" lon="-3.33321">
        <ele>3132.8</ele>
        <time>2021-08-05 21:44:05</time>
      </trkpt>
      <trkpt lat="37.05408" lon="-3.33321">
        <ele>3132.6</ele>
        <time>2021-08-05 21:44:06</time>
      </trkpt>
      <trkpt lat="37.05408" lon="-3.33321">
        <ele>3132.6</ele>
        <time>2021-08-05 21:44:07</time>
      </trkpt>
      <trkpt lat="37.05408" lon="-3.33321">
        <ele>3132.6</ele>
        <time>2021-08-05 21:44:08</time>
      </trkpt>
      <trkpt lat="37.05408" lon="-3.33321">
        <ele>3132.6</ele>
        <time>2021-08-05 21:44:09</time>
      </trkpt>
      <trkpt lat="37.05408" lon="-3.33321">
        <ele>3132.6</ele>
        <time>2021-08-05 21:44:10</time>
      </trkpt>
      <trkpt lat="37.05408" lon="-3.33321">
        <ele>3134.4</ele>
        <time>2021-08-05 21:44:11</time>
      </trkpt>
      <trkpt lat="37.05408" lon="-3.33321">
        <ele>3134.4</ele>
        <time>2021-08-05 21:44:12</time>
      </trkpt>
      <trkpt lat="37.05408" lon="-3.33321">
        <ele>3134.4</ele>
        <time>2021-08-05 21:44:13</time>
      </trkpt>
      <trkpt lat="37.05408" lon="-3.33321">
        <ele>3134.4</ele>
        <time>2021-08-05 21:44:14</time>
      </trkpt>
      <trkpt lat="37.05408" lon="-3.33321">
        <ele>3134.4</ele>
        <time>2021-08-05 21:44:15</time>
      </trkpt>
      <trkpt lat="37.05408" lon="-3.33321">
        <ele>3134.4</ele>
        <time>2021-08-05 21:44:16</time>
      </trkpt>
      <trkpt lat="37.05408" lon="-3.33321">
        <ele>3134.4</ele>
        <time>2021-08-05 21:44:17</time>
      </trkpt>
      <trkpt lat="37.05408" lon="-3.33321">
        <ele>3134.4</ele>
        <time>2021-08-05 21:44:18</time>
      </trkpt>
      <trkpt lat="37.05408" lon="-3.33321">
        <ele>3134.4</ele>
        <time>2021-08-05 21:44:19</time>
      </trkpt>
      <trkpt lat="37.05408" lon="-3.33321">
        <ele>3134.4</ele>
        <time>2021-08-05 21:44:20</time>
      </trkpt>
      <trkpt lat="37.05408" lon="-3.33321">
        <ele>3134.4</ele>
        <time>2021-08-05 21:44:21</time>
      </trkpt>
      <trkpt lat="37.05408" lon="-3.33321">
        <ele>3134.4</ele>
        <time>2021-08-05 21:44:22</time>
      </trkpt>
      <trkpt lat="37.05408" lon="-3.33321">
        <ele>3134.4</ele>
        <time>2021-08-05 21:44:23</time>
      </trkpt>
      <trkpt lat="37.05408" lon="-3.33321">
        <ele>3134.4</ele>
        <time>2021-08-05 21:44:24</time>
      </trkpt>
      <trkpt lat="37.05408" lon="-3.33321">
        <ele>3134.4</ele>
        <time>2021-08-05 21:44:25</time>
      </trkpt>
      <trkpt lat="37.05408" lon="-3.33321">
        <ele>3134.4</ele>
        <time>2021-08-05 21:44:26</time>
      </trkpt>
      <trkpt lat="37.05408" lon="-3.33321">
        <ele>3134.4</ele>
        <time>2021-08-05 21:44:27</time>
      </trkpt>
      <trkpt lat="37.05408" lon="-3.33321">
        <ele>3134.4</ele>
        <time>2021-08-05 21:44:28</time>
      </trkpt>
      <trkpt lat="37.05408" lon="-3.33321">
        <ele>3134.4</ele>
        <time>2021-08-05 21:44:29</time>
      </trkpt>
      <trkpt lat="37.05407" lon="-3.33321">
        <ele>3134.4</ele>
        <time>2021-08-05 21:44:30</time>
      </trkpt>
      <trkpt lat="37.05407" lon="-3.33321">
        <ele>3134.4</ele>
        <time>2021-08-05 21:44:31</time>
      </trkpt>
      <trkpt lat="37.05407" lon="-3.33321">
        <ele>3134.4</ele>
        <time>2021-08-05 21:44:32</time>
      </trkpt>
      <trkpt lat="37.05407" lon="-3.33321">
        <ele>3134.4</ele>
        <time>2021-08-05 21:44:33</time>
      </trkpt>
      <trkpt lat="37.05407" lon="-3.33321">
        <ele>3134.4</ele>
        <time>2021-08-05 21:44:34</time>
      </trkpt>
      <trkpt lat="37.05407" lon="-3.33321">
        <ele>3134.4</ele>
        <time>2021-08-05 21:44:35</time>
      </trkpt>
      <trkpt lat="37.05407" lon="-3.33322">
        <ele>3134.4</ele>
        <time>2021-08-05 21:44:36</time>
      </trkpt>
      <trkpt lat="37.05407" lon="-3.33307">
        <ele>3167.6</ele>
        <time>2021-08-06 10:08:48</time>
      </trkpt>
      <trkpt lat="37.05407" lon="-3.33307">
        <ele>3167.6</ele>
        <time>2021-08-06 10:08:49</time>
      </trkpt>
      <trkpt lat="37.05407" lon="-3.33307">
        <ele>3167.6</ele>
        <time>2021-08-06 10:08:50</time>
      </trkpt>
      <trkpt lat="37.05406" lon="-3.33307">
        <ele>3167.6</ele>
        <time>2021-08-06 10:08:51</time>
      </trkpt>
      <trkpt lat="37.05406" lon="-3.33307">
        <ele>3167.4</ele>
        <time>2021-08-06 10:08:52</time>
      </trkpt>
      <trkpt lat="37.05406" lon="-3.33307">
        <ele>3167.2</ele>
        <time>2021-08-06 10:08:53</time>
      </trkpt>
      <trkpt lat="37.05406" lon="-3.33307">
        <ele>3167.2</ele>
        <time>2021-08-06 10:08:54</time>
      </trkpt>
      <trkpt lat="37.05409" lon="-3.33308">
        <ele>3167</ele>
        <time>2021-08-06 10:08:55</time>
      </trkpt>
      <trkpt lat="37.05409" lon="-3.33308">
        <ele>3167</ele>
        <time>2021-08-06 10:08:56</time>
      </trkpt>
      <trkpt lat="37.05409" lon="-3.33308">
        <ele>3167</ele>
        <time>2021-08-06 10:08:57</time>
      </trkpt>
      <trkpt lat="37.05409" lon="-3.33308">
        <ele>3167</ele>
        <time>2021-08-06 10:08:58</time>
      </trkpt>
      <trkpt lat="37.05409" lon="-3.33308">
        <ele>3167</ele>
        <time>2021-08-06 10:08:59</time>
      </trkpt>
      <trkpt lat="37.05409" lon="-3.33308">
        <ele>3167</ele>
        <time>2021-08-06 10:09:00</time>
      </trkpt>
      <trkpt lat="37.0541" lon="-3.33308">
        <ele>3166.8</ele>
        <time>2021-08-06 10:09:01</time>
      </trkpt>
      <trkpt lat="37.0541" lon="-3.33307">
        <ele>3166.8</ele>
        <time>2021-08-06 10:09:02</time>
      </trkpt>
      <trkpt lat="37.0541" lon="-3.33307">
        <ele>3166.8</ele>
        <time>2021-08-06 10:09:03</time>
      </trkpt>
      <trkpt lat="37.0541" lon="-3.33307">
        <ele>3166.8</ele>
        <time>2021-08-06 10:09:04</time>
      </trkpt>
      <trkpt lat="37.0541" lon="-3.33307">
        <ele>3166.8</ele>
        <time>2021-08-06 10:09:05</time>
      </trkpt>
      <trkpt lat="37.0541" lon="-3.33307">
        <ele>3166.8</ele>
        <time>2021-08-06 10:09:06</time>
      </trkpt>
      <trkpt lat="37.05409" lon="-3.33306">
        <ele>3167</ele>
        <time>2021-08-06 10:09:07</time>
      </trkpt>
      <trkpt lat="37.0541" lon="-3.33305">
        <ele>3167.2</ele>
        <time>2021-08-06 10:09:08</time>
      </trkpt>
      <trkpt lat="37.0541" lon="-3.33305">
        <ele>3167.2</ele>
        <time>2021-08-06 10:09:09</time>
      </trkpt>
      <trkpt lat="37.05411" lon="-3.33305">
        <ele>3167.4</ele>
        <time>2021-08-06 10:09:10</time>
      </trkpt>
      <trkpt lat="37.05411" lon="-3.33305">
        <ele>3167.4</ele>
        <time>2021-08-06 10:09:11</time>
      </trkpt>
      <trkpt lat="37.05411" lon="-3.33304">
        <ele>3167.6</ele>
        <time>2021-08-06 10:09:12</time>
      </trkpt>
      <trkpt lat="37.05411" lon="-3.33304">
        <ele>3167.4</ele>
        <time>2021-08-06 10:09:13</time>
      </trkpt>
      <trkpt lat="37.05411" lon="-3.33304">
        <ele>3167.6</ele>
        <time>2021-08-06 10:09:14</time>
      </trkpt>
      <trkpt lat="37.05411" lon="-3.33304">
        <ele>3167.6</ele>
        <time>2021-08-06 10:09:15</time>
      </trkpt>
      <trkpt lat="37.05411" lon="-3.33304">
        <ele>3167.6</ele>
        <time>2021-08-06 10:09:16</time>
      </trkpt>
      <trkpt lat="37.05411" lon="-3.33304">
        <ele>3167.6</ele>
        <time>2021-08-06 10:09:17</time>
      </trkpt>
      <trkpt lat="37.05411" lon="-3.33304">
        <ele>3167.2</ele>
        <time>2021-08-06 10:09:18</time>
      </trkpt>
      <trkpt lat="37.05411" lon="-3.33305">
        <ele>3167.4</ele>
        <time>2021-08-06 10:09:19</time>
      </trkpt>
      <trkpt lat="37.05411" lon="-3.33305">
        <ele>3167.4</ele>
        <time>2021-08-06 10:09:20</time>
      </trkpt>
      <trkpt lat="37.05411" lon="-3.33305">
        <ele>3167.4</ele>
        <time>2021-08-06 10:09:21</time>
      </trkpt>
      <trkpt lat="37.05411" lon="-3.33305">
        <ele>3167.2</ele>
        <time>2021-08-06 10:09:22</time>
      </trkpt>
      <trkpt lat="37.05411" lon="-3.33306">
        <ele>3167</ele>
        <time>2021-08-06 10:09:23</time>
      </trkpt>
      <trkpt lat="37.05411" lon="-3.33306">
        <ele>3167</ele>
        <time>2021-08-06 10:09:24</time>
      </trkpt>
      <trkpt lat="37.05411" lon="-3.33306">
        <ele>3167</ele>
        <time>2021-08-06 10:09:25</time>
      </trkpt>
      <trkpt lat="37.0541" lon="-3.33306">
        <ele>3167</ele>
        <time>2021-08-06 10:09:26</time>
      </trkpt>
      <trkpt lat="37.05411" lon="-3.33306">
        <ele>3167</ele>
        <time>2021-08-06 10:09:27</time>
      </trkpt>
      <trkpt lat="37.0541" lon="-3.33306">
        <ele>3167</ele>
        <time>2021-08-06 10:09:28</time>
      </trkpt>
      <trkpt lat="37.0541" lon="-3.33307">
        <ele>3167.2</ele>
        <time>2021-08-06 10:09:29</time>
      </trkpt>
      <trkpt lat="37.0541" lon="-3.33307">
        <ele>3167</ele>
        <time>2021-08-06 10:09:30</time>
      </trkpt>
      <trkpt lat="37.0541" lon="-3.33307">
        <ele>3167</ele>
        <time>2021-08-06 10:09:31</time>
      </trkpt>
      <trkpt lat="37.05409" lon="-3.33307">
        <ele>3167</ele>
        <time>2021-08-06 10:09:32</time>
      </trkpt>
      <trkpt lat="37.05409" lon="-3.33307">
        <ele>3167</ele>
        <time>2021-08-06 10:09:33</time>
      </trkpt>
      <trkpt lat="37.0541" lon="-3.33307">
        <ele>3167</ele>
        <time>2021-08-06 10:09:34</time>
      </trkpt>
      <trkpt lat="37.0541" lon="-3.33307">
        <ele>3167</ele>
        <time>2021-08-06 10:09:35</time>
      </trkpt>
      <trkpt lat="37.0541" lon="-3.33307">
        <ele>3167</ele>
        <time>2021-08-06 10:09:36</time>
      </trkpt>
      <trkpt lat="37.05409" lon="-3.33307">
        <ele>3167</ele>
        <time>2021-08-06 10:09:37</time>
      </trkpt>
      <trkpt lat="37.05409" lon="-3.33307">
        <ele>3167</ele>
        <time>2021-08-06 10:09:38</time>
      </trkpt>
      <trkpt lat="37.05409" lon="-3.33307">
        <ele>3166.8</ele>
        <time>2021-08-06 10:09:39</time>
      </trkpt>
      <trkpt lat="37.05409" lon="-3.33307">
        <ele>3166.8</ele>
        <time>2021-08-06 10:09:40</time>
      </trkpt>
      <trkpt lat="37.05409" lon="-3.33307">
        <ele>3166.6</ele>
        <time>2021-08-06 10:09:41</time>
      </trkpt>
      <trkpt lat="37.05409" lon="-3.33307">
        <ele>3166.6</ele>
        <time>2021-08-06 10:09:42</time>
      </trkpt>
      <trkpt lat="37.05409" lon="-3.33307">
        <ele>3166.4</ele>
        <time>2021-08-06 10:09:43</time>
      </trkpt>
      <trkpt lat="37.0541" lon="-3.33307">
        <ele>3166.4</ele>
        <time>2021-08-06 10:09:44</time>
      </trkpt>
      <trkpt lat="37.0541" lon="-3.33306">
        <ele>3166.6</ele>
        <time>2021-08-06 10:09:45</time>
      </trkpt>
      <trkpt lat="37.0541" lon="-3.33306">
        <ele>3166.6</ele>
        <time>2021-08-06 10:09:46</time>
      </trkpt>
      <trkpt lat="37.05411" lon="-3.33306">
        <ele>3166.6</ele>
        <time>2021-08-06 10:09:47</time>
      </trkpt>
      <trkpt lat="37.05411" lon="-3.33306">
        <ele>3166.6</ele>
        <time>2021-08-06 10:09:48</time>
      </trkpt>
      <trkpt lat="37.05412" lon="-3.33305">
        <ele>3166.6</ele>
        <time>2021-08-06 10:09:49</time>
      </trkpt>
      <trkpt lat="37.05413" lon="-3.33305">
        <ele>3166.8</ele>
        <time>2021-08-06 10:09:50</time>
      </trkpt>
      <trkpt lat="37.05413" lon="-3.33304">
        <ele>3166.8</ele>
        <time>2021-08-06 10:09:51</time>
      </trkpt>
      <trkpt lat="37.05413" lon="-3.33304">
        <ele>3166.8</ele>
        <time>2021-08-06 10:09:52</time>
      </trkpt>
      <trkpt lat="37.05413" lon="-3.33304">
        <ele>3166.8</ele>
        <time>2021-08-06 10:09:53</time>
      </trkpt>
      <trkpt lat="37.05414" lon="-3.33304">
        <ele>3166.8</ele>
        <time>2021-08-06 10:09:54</time>
      </trkpt>
      <trkpt lat="37.05413" lon="-3.33304">
        <ele>3166.8</ele>
        <time>2021-08-06 10:09:55</time>
      </trkpt>
      <trkpt lat="37.05413" lon="-3.33304">
        <ele>3166.8</ele>
        <time>2021-08-06 10:09:56</time>
      </trkpt>
      <trkpt lat="37.05412" lon="-3.33304">
        <ele>3166.8</ele>
        <time>2021-08-06 10:09:57</time>
      </trkpt>
      <trkpt lat="37.05412" lon="-3.33304">
        <ele>3166.8</ele>
        <time>2021-08-06 10:09:58</time>
      </trkpt>
      <trkpt lat="37.05411" lon="-3.33305">
        <ele>3166.8</ele>
        <time>2021-08-06 10:09:59</time>
      </trkpt>
      <trkpt lat="37.05411" lon="-3.33305">
        <ele>3166.8</ele>
        <time>2021-08-06 10:10:00</time>
      </trkpt>
      <trkpt lat="37.0541" lon="-3.33306">
        <ele>3166.8</ele>
        <time>2021-08-06 10:10:01</time>
      </trkpt>
      <trkpt lat="37.05409" lon="-3.33306">
        <ele>3166.8</ele>
        <time>2021-08-06 10:10:02</time>
      </trkpt>
      <trkpt lat="37.0541" lon="-3.33306">
        <ele>3166.8</ele>
        <time>2021-08-06 10:10:03</time>
      </trkpt>
      <trkpt lat="37.05409" lon="-3.33306">
        <ele>3166.8</ele>
        <time>2021-08-06 10:10:04</time>
      </trkpt>
      <trkpt lat="37.0541" lon="-3.33306">
        <ele>3166.8</ele>
        <time>2021-08-06 10:10:05</time>
      </trkpt>
      <trkpt lat="37.05409" lon="-3.33306">
        <ele>3166.8</ele>
        <time>2021-08-06 10:10:06</time>
      </trkpt>
      <trkpt lat="37.0541" lon="-3.33305">
        <ele>3166.8</ele>
        <time>2021-08-06 10:10:07</time>
      </trkpt>
      <trkpt lat="37.0541" lon="-3.33305">
        <ele>3166.8</ele>
        <time>2021-08-06 10:10:08</time>
      </trkpt>
      <trkpt lat="37.0541" lon="-3.33305">
        <ele>3166.8</ele>
        <time>2021-08-06 10:10:09</time>
      </trkpt>
      <trkpt lat="37.0541" lon="-3.33305">
        <ele>3166.8</ele>
        <time>2021-08-06 10:10:10</time>
      </trkpt>
      <trkpt lat="37.0541" lon="-3.33305">
        <ele>3166.8</ele>
        <time>2021-08-06 10:10:11</time>
      </trkpt>
      <trkpt lat="37.0541" lon="-3.33305">
        <ele>3166.8</ele>
        <time>2021-08-06 10:10:12</time>
      </trkpt>
      <trkpt lat="37.0541" lon="-3.33306">
        <ele>3166.8</ele>
        <time>2021-08-06 10:10:13</time>
      </trkpt>
      <trkpt lat="37.0541" lon="-3.33307">
        <ele>3166.8</ele>
        <time>2021-08-06 10:10:14</time>
      </trkpt>
      <trkpt lat="37.0541" lon="-3.33307">
        <ele>3166.8</ele>
        <time>2021-08-06 10:10:15</time>
      </trkpt>
      <trkpt lat="37.0541" lon="-3.33309">
        <ele>3166.8</ele>
        <time>2021-08-06 10:10:16</time>
      </trkpt>
      <trkpt lat="37.05409" lon="-3.33309">
        <ele>3166.8</ele>
        <time>2021-08-06 10:10:17</time>
      </trkpt>
      <trkpt lat="37.05409" lon="-3.33309">
        <ele>3166.8</ele>
        <time>2021-08-06 10:10:18</time>
      </trkpt>
      <trkpt lat="37.05409" lon="-3.33309">
        <ele>3166.8</ele>
        <time>2021-08-06 10:10:19</time>
      </trkpt>
      <trkpt lat="37.05409" lon="-3.3331">
        <ele>3166.8</ele>
        <time>2021-08-06 10:10:20</time>
      </trkpt>
      <trkpt lat="37.05409" lon="-3.3331">
        <ele>3166.8</ele>
        <time>2021-08-06 10:10:21</time>
      </trkpt>
      <trkpt lat="37.05409" lon="-3.3331">
        <ele>3166.8</ele>
        <time>2021-08-06 10:10:22</time>
      </trkpt>
      <trkpt lat="37.05409" lon="-3.33311">
        <ele>3166.8</ele>
        <time>2021-08-06 10:10:23</time>
      </trkpt>
      <trkpt lat="37.05409" lon="-3.33311">
        <ele>3166.8</ele>
        <time>2021-08-06 10:10:24</time>
      </trkpt>
      <trkpt lat="37.05409" lon="-3.33311">
        <ele>3166.8</ele>
        <time>2021-08-06 10:10:25</time>
      </trkpt>
      <trkpt lat="37.05409" lon="-3.33311">
        <ele>3166.8</ele>
        <time>2021-08-06 10:10:26</time>
      </trkpt>
      <trkpt lat="37.05408" lon="-3.3331">
        <ele>3166.8</ele>
        <time>2021-08-06 10:10:27</time>
      </trkpt>
      <trkpt lat="37.05409" lon="-3.3331">
        <ele>3166.8</ele>
        <time>2021-08-06 10:10:28</time>
      </trkpt>
      <trkpt lat="37.05409" lon="-3.3331">
        <ele>3166.8</ele>
        <time>2021-08-06 10:10:29</time>
      </trkpt>
      <trkpt lat="37.05409" lon="-3.3331">
        <ele>3166.8</ele>
        <time>2021-08-06 10:10:30</time>
      </trkpt>
      <trkpt lat="37.0541" lon="-3.3331">
        <ele>3166.8</ele>
        <time>2021-08-06 10:10:31</time>
      </trkpt>
      <trkpt lat="37.0541" lon="-3.33309">
        <ele>3166.8</ele>
        <time>2021-08-06 10:10:32</time>
      </trkpt>
      <trkpt lat="37.05411" lon="-3.33309">
        <ele>3166.8</ele>
        <time>2021-08-06 10:10:33</time>
      </trkpt>
      <trkpt lat="37.05411" lon="-3.33308">
        <ele>3166.8</ele>
        <time>2021-08-06 10:10:34</time>
      </trkpt>
      <trkpt lat="37.05411" lon="-3.33308">
        <ele>3166.8</ele>
        <time>2021-08-06 10:10:35</time>
      </trkpt>
      <trkpt lat="37.05412" lon="-3.33309">
        <ele>3166.8</ele>
        <time>2021-08-06 10:10:36</time>
      </trkpt>
      <trkpt lat="37.05412" lon="-3.3331">
        <ele>3166.8</ele>
        <time>2021-08-06 10:10:37</time>
      </trkpt>
      <trkpt lat="37.05413" lon="-3.3331">
        <ele>3166.8</ele>
        <time>2021-08-06 10:10:38</time>
      </trkpt>
      <trkpt lat="37.05413" lon="-3.3331">
        <ele>3166.8</ele>
        <time>2021-08-06 10:10:39</time>
      </trkpt>
      <trkpt lat="37.05413" lon="-3.33309">
        <ele>3166.8</ele>
        <time>2021-08-06 10:10:40</time>
      </trkpt>
      <trkpt lat="37.05413" lon="-3.33309">
        <ele>3166.8</ele>
        <time>2021-08-06 10:10:41</time>
      </trkpt>
      <trkpt lat="37.05413" lon="-3.33308">
        <ele>3166.8</ele>
        <time>2021-08-06 10:10:42</time>
      </trkpt>
      <trkpt lat="37.05413" lon="-3.33308">
        <ele>3166.8</ele>
        <time>2021-08-06 10:10:43</time>
      </trkpt>
      <trkpt lat="37.05414" lon="-3.33307">
        <ele>3166.8</ele>
        <time>2021-08-06 10:10:44</time>
      </trkpt>
      <trkpt lat="37.05415" lon="-3.33306">
        <ele>3166.8</ele>
        <time>2021-08-06 10:10:45</time>
      </trkpt>
      <trkpt lat="37.05416" lon="-3.33305">
        <ele>3166.8</ele>
        <time>2021-08-06 10:10:46</time>
      </trkpt>
      <trkpt lat="37.05416" lon="-3.33305">
        <ele>3166.8</ele>
        <time>2021-08-06 10:10:47</time>
      </trkpt>
      <trkpt lat="37.05417" lon="-3.33305">
        <ele>3166.8</ele>
        <time>2021-08-06 10:10:48</time>
      </trkpt>
      <trkpt lat="37.05417" lon="-3.33304">
        <ele>3166.8</ele>
        <time>2021-08-06 10:10:49</time>
      </trkpt>
      <trkpt lat="37.05418" lon="-3.33303">
        <ele>3166.8</ele>
        <time>2021-08-06 10:10:50</time>
      </trkpt>
      <trkpt lat="37.05419" lon="-3.33301">
        <ele>3166.8</ele>
        <time>2021-08-06 10:10:51</time>
      </trkpt>
      <trkpt lat="37.0542" lon="-3.333">
        <ele>3166.8</ele>
        <time>2021-08-06 10:10:52</time>
      </trkpt>
      <trkpt lat="37.0542" lon="-3.33299">
        <ele>3166.8</ele>
        <time>2021-08-06 10:10:53</time>
      </trkpt>
      <trkpt lat="37.05421" lon="-3.33299">
        <ele>3166.8</ele>
        <time>2021-08-06 10:10:54</time>
      </trkpt>
      <trkpt lat="37.05421" lon="-3.33298">
        <ele>3166.8</ele>
        <time>2021-08-06 10:10:55</time>
      </trkpt>
      <trkpt lat="37.0542" lon="-3.33298">
        <ele>3166.8</ele>
        <time>2021-08-06 10:10:56</time>
      </trkpt>
      <trkpt lat="37.0542" lon="-3.33298">
        <ele>3165.2</ele>
        <time>2021-08-06 10:10:57</time>
      </trkpt>
      <trkpt lat="37.0542" lon="-3.33297">
        <ele>3164.4</ele>
        <time>2021-08-06 10:10:58</time>
      </trkpt>
      <trkpt lat="37.0542" lon="-3.33297">
        <ele>3164</ele>
        <time>2021-08-06 10:10:59</time>
      </trkpt>
      <trkpt lat="37.0542" lon="-3.33297">
        <ele>3163.8</ele>
        <time>2021-08-06 10:11:00</time>
      </trkpt>
      <trkpt lat="37.0542" lon="-3.33297">
        <ele>3163.8</ele>
        <time>2021-08-06 10:11:01</time>
      </trkpt>
      <trkpt lat="37.0542" lon="-3.33297">
        <ele>3163.8</ele>
        <time>2021-08-06 10:11:02</time>
      </trkpt>
      <trkpt lat="37.0542" lon="-3.33296">
        <ele>3163.8</ele>
        <time>2021-08-06 10:11:03</time>
      </trkpt>
      <trkpt lat="37.0542" lon="-3.33296">
        <ele>3163.8</ele>
        <time>2021-08-06 10:11:04</time>
      </trkpt>
      <trkpt lat="37.0542" lon="-3.33296">
        <ele>3163.6</ele>
        <time>2021-08-06 10:11:05</time>
      </trkpt>
      <trkpt lat="37.05419" lon="-3.33296">
        <ele>3163.6</ele>
        <time>2021-08-06 10:11:06</time>
      </trkpt>
      <trkpt lat="37.05419" lon="-3.33296">
        <ele>3163.6</ele>
        <time>2021-08-06 10:11:07</time>
      </trkpt>
      <trkpt lat="37.05419" lon="-3.33296">
        <ele>3163.6</ele>
        <time>2021-08-06 10:11:08</time>
      </trkpt>
      <trkpt lat="37.05419" lon="-3.33296">
        <ele>3163.6</ele>
        <time>2021-08-06 10:11:09</time>
      </trkpt>
      <trkpt lat="37.05419" lon="-3.33296">
        <ele>3163.6</ele>
        <time>2021-08-06 10:11:10</time>
      </trkpt>
      <trkpt lat="37.0542" lon="-3.33296">
        <ele>3163.6</ele>
        <time>2021-08-06 10:11:11</time>
      </trkpt>
      <trkpt lat="37.0542" lon="-3.33296">
        <ele>3163.4</ele>
        <time>2021-08-06 10:11:12</time>
      </trkpt>
      <trkpt lat="37.0542" lon="-3.33297">
        <ele>3163.2</ele>
        <time>2021-08-06 10:11:13</time>
      </trkpt>
      <trkpt lat="37.05421" lon="-3.33296">
        <ele>3163.2</ele>
        <time>2021-08-06 10:11:14</time>
      </trkpt>
      <trkpt lat="37.05422" lon="-3.33294">
        <ele>3163.2</ele>
        <time>2021-08-06 10:11:15</time>
      </trkpt>
      <trkpt lat="37.05423" lon="-3.33294">
        <ele>3163</ele>
        <time>2021-08-06 10:11:16</time>
      </trkpt>
      <trkpt lat="37.05424" lon="-3.33293">
        <ele>3162.8</ele>
        <time>2021-08-06 10:11:17</time>
      </trkpt>
      <trkpt lat="37.05426" lon="-3.33293">
        <ele>3162.4</ele>
        <time>2021-08-06 10:11:18</time>
      </trkpt>
      <trkpt lat="37.05426" lon="-3.33292">
        <ele>3162.2</ele>
        <time>2021-08-06 10:11:19</time>
      </trkpt>
      <trkpt lat="37.05427" lon="-3.33292">
        <ele>3161.8</ele>
        <time>2021-08-06 10:11:20</time>
      </trkpt>
      <trkpt lat="37.05427" lon="-3.33291">
        <ele>3161.6</ele>
        <time>2021-08-06 10:11:21</time>
      </trkpt>
      <trkpt lat="37.05428" lon="-3.33291">
        <ele>3161.6</ele>
        <time>2021-08-06 10:11:22</time>
      </trkpt>
      <trkpt lat="37.05428" lon="-3.3329">
        <ele>3161.4</ele>
        <time>2021-08-06 10:11:23</time>
      </trkpt>
      <trkpt lat="37.05429" lon="-3.3329">
        <ele>3161.2</ele>
        <time>2021-08-06 10:11:24</time>
      </trkpt>
      <trkpt lat="37.0543" lon="-3.3329">
        <ele>3161</ele>
        <time>2021-08-06 10:11:25</time>
      </trkpt>
      <trkpt lat="37.05431" lon="-3.33289">
        <ele>3160.8</ele>
        <time>2021-08-06 10:11:26</time>
      </trkpt>
      <trkpt lat="37.05433" lon="-3.33289">
        <ele>3160.6</ele>
        <time>2021-08-06 10:11:28</time>
      </trkpt>
      <trkpt lat="37.05433" lon="-3.33289">
        <ele>3160.4</ele>
        <time>2021-08-06 10:11:29</time>
      </trkpt>
      <trkpt lat="37.05434" lon="-3.33288">
        <ele>3160.4</ele>
        <time>2021-08-06 10:11:30</time>
      </trkpt>
      <trkpt lat="37.05434" lon="-3.33288">
        <ele>3160.2</ele>
        <time>2021-08-06 10:11:31</time>
      </trkpt>
      <trkpt lat="37.05436" lon="-3.33288">
        <ele>3160</ele>
        <time>2021-08-06 10:11:32</time>
      </trkpt>
      <trkpt lat="37.05436" lon="-3.33288">
        <ele>3159.8</ele>
        <time>2021-08-06 10:11:33</time>
      </trkpt>
      <trkpt lat="37.05437" lon="-3.33288">
        <ele>3159.8</ele>
        <time>2021-08-06 10:11:34</time>
      </trkpt>
      <trkpt lat="37.05437" lon="-3.33287">
        <ele>3159.6</ele>
        <time>2021-08-06 10:11:35</time>
      </trkpt>
      <trkpt lat="37.05438" lon="-3.33285">
        <ele>3159.4</ele>
        <time>2021-08-06 10:11:36</time>
      </trkpt>
      <trkpt lat="37.05438" lon="-3.33285">
        <ele>3159</ele>
        <time>2021-08-06 10:11:37</time>
      </trkpt>
      <trkpt lat="37.05438" lon="-3.33284">
        <ele>3158.6</ele>
        <time>2021-08-06 10:11:38</time>
      </trkpt>
      <trkpt lat="37.05439" lon="-3.33284">
        <ele>3158.2</ele>
        <time>2021-08-06 10:11:39</time>
      </trkpt>
      <trkpt lat="37.05439" lon="-3.33284">
        <ele>3157.8</ele>
        <time>2021-08-06 10:11:40</time>
      </trkpt>
      <trkpt lat="37.05439" lon="-3.33283">
        <ele>3157.6</ele>
        <time>2021-08-06 10:11:41</time>
      </trkpt>
      <trkpt lat="37.0544" lon="-3.33283">
        <ele>3157.6</ele>
        <time>2021-08-06 10:11:42</time>
      </trkpt>
      <trkpt lat="37.05439" lon="-3.33283">
        <ele>3157.4</ele>
        <time>2021-08-06 10:11:43</time>
      </trkpt>
      <trkpt lat="37.05439" lon="-3.33283">
        <ele>3157.4</ele>
        <time>2021-08-06 10:11:44</time>
      </trkpt>
      <trkpt lat="37.05439" lon="-3.33283">
        <ele>3157.4</ele>
        <time>2021-08-06 10:11:45</time>
      </trkpt>
      <trkpt lat="37.0544" lon="-3.33283">
        <ele>3157</ele>
        <time>2021-08-06 10:11:46</time>
      </trkpt>
      <trkpt lat="37.0544" lon="-3.33282">
        <ele>3156.8</ele>
        <time>2021-08-06 10:11:47</time>
      </trkpt>
      <trkpt lat="37.0544" lon="-3.33283">
        <ele>3156.4</ele>
        <time>2021-08-06 10:11:48</time>
      </trkpt>
      <trkpt lat="37.05439" lon="-3.33283">
        <ele>3156.2</ele>
        <time>2021-08-06 10:11:49</time>
      </trkpt>
      <trkpt lat="37.05439" lon="-3.33282">
        <ele>3156</ele>
        <time>2021-08-06 10:11:50</time>
      </trkpt>
      <trkpt lat="37.05439" lon="-3.33282">
        <ele>3155.8</ele>
        <time>2021-08-06 10:11:51</time>
      </trkpt>
      <trkpt lat="37.05439" lon="-3.33281">
        <ele>3155.8</ele>
        <time>2021-08-06 10:11:52</time>
      </trkpt>
      <trkpt lat="37.05438" lon="-3.3328">
        <ele>3155.6</ele>
        <time>2021-08-06 10:11:53</time>
      </trkpt>
      <trkpt lat="37.05438" lon="-3.33279">
        <ele>3155.4</ele>
        <time>2021-08-06 10:11:54</time>
      </trkpt>
      <trkpt lat="37.05439" lon="-3.33278">
        <ele>3155.4</ele>
        <time>2021-08-06 10:11:55</time>
      </trkpt>
      <trkpt lat="37.05439" lon="-3.33278">
        <ele>3155.2</ele>
        <time>2021-08-06 10:11:56</time>
      </trkpt>
      <trkpt lat="37.0544" lon="-3.33277">
        <ele>3155.2</ele>
        <time>2021-08-06 10:11:57</time>
      </trkpt>
      <trkpt lat="37.05442" lon="-3.33276">
        <ele>3155</ele>
        <time>2021-08-06 10:11:58</time>
      </trkpt>
      <trkpt lat="37.05443" lon="-3.33275">
        <ele>3154.8</ele>
        <time>2021-08-06 10:11:59</time>
      </trkpt>
      <trkpt lat="37.05443" lon="-3.33274">
        <ele>3154.8</ele>
        <time>2021-08-06 10:12:00</time>
      </trkpt>
      <trkpt lat="37.05444" lon="-3.33273">
        <ele>3154.8</ele>
        <time>2021-08-06 10:12:01</time>
      </trkpt>
      <trkpt lat="37.05444" lon="-3.33273">
        <ele>3154.8</ele>
        <time>2021-08-06 10:12:02</time>
      </trkpt>
      <trkpt lat="37.05444" lon="-3.33273">
        <ele>3154.8</ele>
        <time>2021-08-06 10:12:03</time>
      </trkpt>
      <trkpt lat="37.05445" lon="-3.33273">
        <ele>3154.8</ele>
        <time>2021-08-06 10:12:04</time>
      </trkpt>
      <trkpt lat="37.05445" lon="-3.33272">
        <ele>3154.6</ele>
        <time>2021-08-06 10:12:05</time>
      </trkpt>
      <trkpt lat="37.05445" lon="-3.33271">
        <ele>3154.6</ele>
        <time>2021-08-06 10:12:06</time>
      </trkpt>
      <trkpt lat="37.05446" lon="-3.3327">
        <ele>3154.4</ele>
        <time>2021-08-06 10:12:07</time>
      </trkpt>
      <trkpt lat="37.05446" lon="-3.33269">
        <ele>3154</ele>
        <time>2021-08-06 10:12:08</time>
      </trkpt>
      <trkpt lat="37.05446" lon="-3.33269">
        <ele>3153.2</ele>
        <time>2021-08-06 10:12:09</time>
      </trkpt>
      <trkpt lat="37.05447" lon="-3.33268">
        <ele>3152.8</ele>
        <time>2021-08-06 10:12:10</time>
      </trkpt>
      <trkpt lat="37.05447" lon="-3.33268">
        <ele>3152.6</ele>
        <time>2021-08-06 10:12:11</time>
      </trkpt>
      <trkpt lat="37.05447" lon="-3.33267">
        <ele>3152.4</ele>
        <time>2021-08-06 10:12:12</time>
      </trkpt>
      <trkpt lat="37.05448" lon="-3.33267">
        <ele>3152.2</ele>
        <time>2021-08-06 10:12:13</time>
      </trkpt>
      <trkpt lat="37.05449" lon="-3.33267">
        <ele>3152</ele>
        <time>2021-08-06 10:12:14</time>
      </trkpt>
      <trkpt lat="37.05449" lon="-3.33267">
        <ele>3151.8</ele>
        <time>2021-08-06 10:12:15</time>
      </trkpt>
      <trkpt lat="37.05449" lon="-3.33266">
        <ele>3151.6</ele>
        <time>2021-08-06 10:12:16</time>
      </trkpt>
      <trkpt lat="37.05449" lon="-3.33266">
        <ele>3151.4</ele>
        <time>2021-08-06 10:12:17</time>
      </trkpt>
      <trkpt lat="37.0545" lon="-3.33265">
        <ele>3151.4</ele>
        <time>2021-08-06 10:12:18</time>
      </trkpt>
      <trkpt lat="37.0545" lon="-3.33265">
        <ele>3151.2</ele>
        <time>2021-08-06 10:12:19</time>
      </trkpt>
      <trkpt lat="37.0545" lon="-3.33264">
        <ele>3151</ele>
        <time>2021-08-06 10:12:20</time>
      </trkpt>
      <trkpt lat="37.05451" lon="-3.33264">
        <ele>3150.8</ele>
        <time>2021-08-06 10:12:21</time>
      </trkpt>
      <trkpt lat="37.05452" lon="-3.33264">
        <ele>3150.6</ele>
        <time>2021-08-06 10:12:22</time>
      </trkpt>
      <trkpt lat="37.05452" lon="-3.33263">
        <ele>3150.4</ele>
        <time>2021-08-06 10:12:23</time>
      </trkpt>
      <trkpt lat="37.05452" lon="-3.33262">
        <ele>3150</ele>
        <time>2021-08-06 10:12:24</time>
      </trkpt>
      <trkpt lat="37.05453" lon="-3.33262">
        <ele>3149.6</ele>
        <time>2021-08-06 10:12:25</time>
      </trkpt>
      <trkpt lat="37.05453" lon="-3.33262">
        <ele>3149.4</ele>
        <time>2021-08-06 10:12:26</time>
      </trkpt>
      <trkpt lat="37.05453" lon="-3.33261">
        <ele>3149.2</ele>
        <time>2021-08-06 10:12:27</time>
      </trkpt>
      <trkpt lat="37.05453" lon="-3.33262">
        <ele>3149.2</ele>
        <time>2021-08-06 10:12:28</time>
      </trkpt>
      <trkpt lat="37.05453" lon="-3.33261">
        <ele>3149</ele>
        <time>2021-08-06 10:12:29</time>
      </trkpt>
      <trkpt lat="37.05454" lon="-3.33261">
        <ele>3148.8</ele>
        <time>2021-08-06 10:12:30</time>
      </trkpt>
      <trkpt lat="37.05454" lon="-3.33261">
        <ele>3148.2</ele>
        <time>2021-08-06 10:12:31</time>
      </trkpt>
      <trkpt lat="37.05454" lon="-3.3326">
        <ele>3148</ele>
        <time>2021-08-06 10:12:32</time>
      </trkpt>
      <trkpt lat="37.05454" lon="-3.3326">
        <ele>3147.8</ele>
        <time>2021-08-06 10:12:33</time>
      </trkpt>
      <trkpt lat="37.05455" lon="-3.33259">
        <ele>3147.6</ele>
        <time>2021-08-06 10:12:34</time>
      </trkpt>
      <trkpt lat="37.05455" lon="-3.33259">
        <ele>3147.4</ele>
        <time>2021-08-06 10:12:35</time>
      </trkpt>
      <trkpt lat="37.05457" lon="-3.33258">
        <ele>3147</ele>
        <time>2021-08-06 10:12:36</time>
      </trkpt>
      <trkpt lat="37.05458" lon="-3.33258">
        <ele>3146.8</ele>
        <time>2021-08-06 10:12:37</time>
      </trkpt>
      <trkpt lat="37.05459" lon="-3.33257">
        <ele>3146.8</ele>
        <time>2021-08-06 10:12:38</time>
      </trkpt>
      <trkpt lat="37.05459" lon="-3.33256">
        <ele>3146.4</ele>
        <time>2021-08-06 10:12:39</time>
      </trkpt>
      <trkpt lat="37.0546" lon="-3.33256">
        <ele>3146.2</ele>
        <time>2021-08-06 10:12:40</time>
      </trkpt>
      <trkpt lat="37.05462" lon="-3.33256">
        <ele>3146</ele>
        <time>2021-08-06 10:12:41</time>
      </trkpt>
      <trkpt lat="37.05463" lon="-3.33255">
        <ele>3145.8</ele>
        <time>2021-08-06 10:12:42</time>
      </trkpt>
      <trkpt lat="37.05464" lon="-3.33255">
        <ele>3145.8</ele>
        <time>2021-08-06 10:12:43</time>
      </trkpt>
      <trkpt lat="37.05465" lon="-3.33255">
        <ele>3145.6</ele>
        <time>2021-08-06 10:12:44</time>
      </trkpt>
      <trkpt lat="37.05466" lon="-3.33255">
        <ele>3145.6</ele>
        <time>2021-08-06 10:12:45</time>
      </trkpt>
      <trkpt lat="37.05466" lon="-3.33256">
        <ele>3146</ele>
        <time>2021-08-06 10:12:46</time>
      </trkpt>
      <trkpt lat="37.05467" lon="-3.33256">
        <ele>3146.2</ele>
        <time>2021-08-06 10:12:47</time>
      </trkpt>
      <trkpt lat="37.05467" lon="-3.33256">
        <ele>3146.4</ele>
        <time>2021-08-06 10:12:48</time>
      </trkpt>
      <trkpt lat="37.05468" lon="-3.33255">
        <ele>3146.4</ele>
        <time>2021-08-06 10:12:49</time>
      </trkpt>
      <trkpt lat="37.05468" lon="-3.33255">
        <ele>3146.4</ele>
        <time>2021-08-06 10:12:50</time>
      </trkpt>
      <trkpt lat="37.05468" lon="-3.33255">
        <ele>3146.4</ele>
        <time>2021-08-06 10:12:51</time>
      </trkpt>
      <trkpt lat="37.05468" lon="-3.33256">
        <ele>3146.4</ele>
        <time>2021-08-06 10:12:52</time>
      </trkpt>
      <trkpt lat="37.05469" lon="-3.33256">
        <ele>3146.4</ele>
        <time>2021-08-06 10:12:53</time>
      </trkpt>
      <trkpt lat="37.05469" lon="-3.33255">
        <ele>3146.4</ele>
        <time>2021-08-06 10:12:54</time>
      </trkpt>
      <trkpt lat="37.05469" lon="-3.33255">
        <ele>3146.4</ele>
        <time>2021-08-06 10:12:55</time>
      </trkpt>
      <trkpt lat="37.0547" lon="-3.33255">
        <ele>3146.4</ele>
        <time>2021-08-06 10:12:56</time>
      </trkpt>
      <trkpt lat="37.0547" lon="-3.33254">
        <ele>3146.2</ele>
        <time>2021-08-06 10:12:57</time>
      </trkpt>
      <trkpt lat="37.0547" lon="-3.33254">
        <ele>3146</ele>
        <time>2021-08-06 10:12:58</time>
      </trkpt>
      <trkpt lat="37.05471" lon="-3.33253">
        <ele>3146</ele>
        <time>2021-08-06 10:12:59</time>
      </trkpt>
      <trkpt lat="37.05472" lon="-3.33252">
        <ele>3145.8</ele>
        <time>2021-08-06 10:13:00</time>
      </trkpt>
      <trkpt lat="37.05472" lon="-3.33252">
        <ele>3145.6</ele>
        <time>2021-08-06 10:13:01</time>
      </trkpt>
      <trkpt lat="37.05473" lon="-3.33251">
        <ele>3145.4</ele>
        <time>2021-08-06 10:13:02</time>
      </trkpt>
      <trkpt lat="37.05474" lon="-3.3325">
        <ele>3145.4</ele>
        <time>2021-08-06 10:13:03</time>
      </trkpt>
      <trkpt lat="37.05475" lon="-3.3325">
        <ele>3145.4</ele>
        <time>2021-08-06 10:13:04</time>
      </trkpt>
      <trkpt lat="37.05476" lon="-3.33249">
        <ele>3145</ele>
        <time>2021-08-06 10:13:05</time>
      </trkpt>
      <trkpt lat="37.05475" lon="-3.33248">
        <ele>3145</ele>
        <time>2021-08-06 10:13:06</time>
      </trkpt>
      <trkpt lat="37.05476" lon="-3.33247">
        <ele>3144.8</ele>
        <time>2021-08-06 10:13:07</time>
      </trkpt>
      <trkpt lat="37.05476" lon="-3.33247">
        <ele>3144.4</ele>
        <time>2021-08-06 10:13:08</time>
      </trkpt>
      <trkpt lat="37.05478" lon="-3.33246">
        <ele>3144.2</ele>
        <time>2021-08-06 10:13:09</time>
      </trkpt>
      <trkpt lat="37.0548" lon="-3.33245">
        <ele>3144</ele>
        <time>2021-08-06 10:13:10</time>
      </trkpt>
      <trkpt lat="37.05482" lon="-3.33245">
        <ele>3143.6</ele>
        <time>2021-08-06 10:13:11</time>
      </trkpt>
      <trkpt lat="37.05482" lon="-3.33244">
        <ele>3143.4</ele>
        <time>2021-08-06 10:13:12</time>
      </trkpt>
      <trkpt lat="37.05484" lon="-3.33243">
        <ele>3143.2</ele>
        <time>2021-08-06 10:13:13</time>
      </trkpt>
      <trkpt lat="37.05484" lon="-3.33243">
        <ele>3143</ele>
        <time>2021-08-06 10:13:14</time>
      </trkpt>
      <trkpt lat="37.05485" lon="-3.33243">
        <ele>3143</ele>
        <time>2021-08-06 10:13:15</time>
      </trkpt>
      <trkpt lat="37.05486" lon="-3.33243">
        <ele>3143</ele>
        <time>2021-08-06 10:13:16</time>
      </trkpt>
      <trkpt lat="37.05486" lon="-3.33243">
        <ele>3143</ele>
        <time>2021-08-06 10:13:17</time>
      </trkpt>
      <trkpt lat="37.05486" lon="-3.33242">
        <ele>3143.2</ele>
        <time>2021-08-06 10:13:18</time>
      </trkpt>
      <trkpt lat="37.05486" lon="-3.33242">
        <ele>3143.2</ele>
        <time>2021-08-06 10:13:19</time>
      </trkpt>
      <trkpt lat="37.05487" lon="-3.33241">
        <ele>3142.8</ele>
        <time>2021-08-06 10:13:20</time>
      </trkpt>
      <trkpt lat="37.05487" lon="-3.3324">
        <ele>3142.6</ele>
        <time>2021-08-06 10:13:21</time>
      </trkpt>
      <trkpt lat="37.05488" lon="-3.33239">
        <ele>3142.4</ele>
        <time>2021-08-06 10:13:22</time>
      </trkpt>
      <trkpt lat="37.05488" lon="-3.33239">
        <ele>3142.2</ele>
        <time>2021-08-06 10:13:23</time>
      </trkpt>
      <trkpt lat="37.05488" lon="-3.33238">
        <ele>3141.8</ele>
        <time>2021-08-06 10:13:24</time>
      </trkpt>
      <trkpt lat="37.05489" lon="-3.33237">
        <ele>3141.8</ele>
        <time>2021-08-06 10:13:25</time>
      </trkpt>
      <trkpt lat="37.05489" lon="-3.33236">
        <ele>3141.4</ele>
        <time>2021-08-06 10:13:26</time>
      </trkpt>
      <trkpt lat="37.05489" lon="-3.33236">
        <ele>3141.2</ele>
        <time>2021-08-06 10:13:27</time>
      </trkpt>
      <trkpt lat="37.0549" lon="-3.33235">
        <ele>3141</ele>
        <time>2021-08-06 10:13:28</time>
      </trkpt>
      <trkpt lat="37.0549" lon="-3.33235">
        <ele>3141.2</ele>
        <time>2021-08-06 10:13:29</time>
      </trkpt>
      <trkpt lat="37.0549" lon="-3.33235">
        <ele>3141.2</ele>
        <time>2021-08-06 10:13:30</time>
      </trkpt>
      <trkpt lat="37.05491" lon="-3.33235">
        <ele>3141.2</ele>
        <time>2021-08-06 10:13:31</time>
      </trkpt>
      <trkpt lat="37.0549" lon="-3.33234">
        <ele>3141.4</ele>
        <time>2021-08-06 10:13:32</time>
      </trkpt>
      <trkpt lat="37.0549" lon="-3.33234">
        <ele>3143</ele>
        <time>2021-08-06 10:13:33</time>
      </trkpt>
      <trkpt lat="37.0549" lon="-3.33234">
        <ele>3143</ele>
        <time>2021-08-06 10:13:34</time>
      </trkpt>
      <trkpt lat="37.05491" lon="-3.33234">
        <ele>3143.2</ele>
        <time>2021-08-06 10:13:35</time>
      </trkpt>
      <trkpt lat="37.05491" lon="-3.33234">
        <ele>3143</ele>
        <time>2021-08-06 10:13:36</time>
      </trkpt>
      <trkpt lat="37.05492" lon="-3.33233">
        <ele>3143.2</ele>
        <time>2021-08-06 10:13:37</time>
      </trkpt>
      <trkpt lat="37.05493" lon="-3.33233">
        <ele>3143.2</ele>
        <time>2021-08-06 10:13:38</time>
      </trkpt>
      <trkpt lat="37.05493" lon="-3.33232">
        <ele>3143.2</ele>
        <time>2021-08-06 10:13:39</time>
      </trkpt>
      <trkpt lat="37.05493" lon="-3.33231">
        <ele>3143.2</ele>
        <time>2021-08-06 10:13:40</time>
      </trkpt>
      <trkpt lat="37.05493" lon="-3.33229">
        <ele>3143</ele>
        <time>2021-08-06 10:13:41</time>
      </trkpt>
      <trkpt lat="37.05494" lon="-3.33228">
        <ele>3143</ele>
        <time>2021-08-06 10:13:42</time>
      </trkpt>
      <trkpt lat="37.05494" lon="-3.33228">
        <ele>3142.8</ele>
        <time>2021-08-06 10:13:43</time>
      </trkpt>
      <trkpt lat="37.05495" lon="-3.33227">
        <ele>3142.6</ele>
        <time>2021-08-06 10:13:44</time>
      </trkpt>
      <trkpt lat="37.05495" lon="-3.33226">
        <ele>3142.4</ele>
        <time>2021-08-06 10:13:45</time>
      </trkpt>
      <trkpt lat="37.05496" lon="-3.33225">
        <ele>3142.2</ele>
        <time>2021-08-06 10:13:46</time>
      </trkpt>
      <trkpt lat="37.05497" lon="-3.33225">
        <ele>3142</ele>
        <time>2021-08-06 10:13:47</time>
      </trkpt>
      <trkpt lat="37.05497" lon="-3.33226">
        <ele>3143</ele>
        <time>2021-08-06 10:13:48</time>
      </trkpt>
      <trkpt lat="37.05498" lon="-3.33225">
        <ele>3143.2</ele>
        <time>2021-08-06 10:13:49</time>
      </trkpt>
      <trkpt lat="37.05499" lon="-3.33225">
        <ele>3143</ele>
        <time>2021-08-06 10:13:50</time>
      </trkpt>
      <trkpt lat="37.055" lon="-3.33224">
        <ele>3143.2</ele>
        <time>2021-08-06 10:13:51</time>
      </trkpt>
      <trkpt lat="37.055" lon="-3.33224">
        <ele>3143.2</ele>
        <time>2021-08-06 10:13:52</time>
      </trkpt>
      <trkpt lat="37.05501" lon="-3.33225">
        <ele>3143.2</ele>
        <time>2021-08-06 10:13:53</time>
      </trkpt>
      <trkpt lat="37.05502" lon="-3.33225">
        <ele>3143.2</ele>
        <time>2021-08-06 10:13:54</time>
      </trkpt>
      <trkpt lat="37.05503" lon="-3.33226">
        <ele>3143</ele>
        <time>2021-08-06 10:13:55</time>
      </trkpt>
      <trkpt lat="37.05504" lon="-3.33225">
        <ele>3143</ele>
        <time>2021-08-06 10:13:56</time>
      </trkpt>
      <trkpt lat="37.05504" lon="-3.33225">
        <ele>3143</ele>
        <time>2021-08-06 10:13:57</time>
      </trkpt>
      <trkpt lat="37.05505" lon="-3.33224">
        <ele>3143</ele>
        <time>2021-08-06 10:13:58</time>
      </trkpt>
      <trkpt lat="37.05506" lon="-3.33223">
        <ele>3143.2</ele>
        <time>2021-08-06 10:13:59</time>
      </trkpt>
      <trkpt lat="37.05506" lon="-3.33223">
        <ele>3143.2</ele>
        <time>2021-08-06 10:14:00</time>
      </trkpt>
      <trkpt lat="37.05506" lon="-3.33223">
        <ele>3143.2</ele>
        <time>2021-08-06 10:14:01</time>
      </trkpt>
      <trkpt lat="37.05506" lon="-3.33223">
        <ele>3143</ele>
        <time>2021-08-06 10:14:02</time>
      </trkpt>
      <trkpt lat="37.05506" lon="-3.33222">
        <ele>3142.8</ele>
        <time>2021-08-06 10:14:03</time>
      </trkpt>
      <trkpt lat="37.05506" lon="-3.33221">
        <ele>3143</ele>
        <time>2021-08-06 10:14:04</time>
      </trkpt>
      <trkpt lat="37.05507" lon="-3.3322">
        <ele>3143.2</ele>
        <time>2021-08-06 10:14:05</time>
      </trkpt>
      <trkpt lat="37.05507" lon="-3.33219">
        <ele>3143.2</ele>
        <time>2021-08-06 10:14:06</time>
      </trkpt>
      <trkpt lat="37.05507" lon="-3.33219">
        <ele>3143.2</ele>
        <time>2021-08-06 10:14:07</time>
      </trkpt>
      <trkpt lat="37.05507" lon="-3.33218">
        <ele>3143.2</ele>
        <time>2021-08-06 10:14:08</time>
      </trkpt>
      <trkpt lat="37.05508" lon="-3.33218">
        <ele>3143.2</ele>
        <time>2021-08-06 10:14:09</time>
      </trkpt>
      <trkpt lat="37.05508" lon="-3.33218">
        <ele>3143.2</ele>
        <time>2021-08-06 10:14:10</time>
      </trkpt>
      <trkpt lat="37.05509" lon="-3.33219">
        <ele>3143.2</ele>
        <time>2021-08-06 10:14:11</time>
      </trkpt>
      <trkpt lat="37.05509" lon="-3.33218">
        <ele>3143</ele>
        <time>2021-08-06 10:14:12</time>
      </trkpt>
      <trkpt lat="37.05509" lon="-3.33218">
        <ele>3143.2</ele>
        <time>2021-08-06 10:14:13</time>
      </trkpt>
      <trkpt lat="37.0551" lon="-3.33218">
        <ele>3143.2</ele>
        <time>2021-08-06 10:14:14</time>
      </trkpt>
      <trkpt lat="37.0551" lon="-3.33218">
        <ele>3143.2</ele>
        <time>2021-08-06 10:14:15</time>
      </trkpt>
      <trkpt lat="37.0551" lon="-3.33218">
        <ele>3143</ele>
        <time>2021-08-06 10:14:16</time>
      </trkpt>
      <trkpt lat="37.05511" lon="-3.33217">
        <ele>3142.8</ele>
        <time>2021-08-06 10:14:17</time>
      </trkpt>
      <trkpt lat="37.05511" lon="-3.33217">
        <ele>3142.6</ele>
        <time>2021-08-06 10:14:18</time>
      </trkpt>
      <trkpt lat="37.05512" lon="-3.33216">
        <ele>3142.4</ele>
        <time>2021-08-06 10:14:19</time>
      </trkpt>
      <trkpt lat="37.05512" lon="-3.33215">
        <ele>3142.4</ele>
        <time>2021-08-06 10:14:20</time>
      </trkpt>
      <trkpt lat="37.05513" lon="-3.33214">
        <ele>3142.2</ele>
        <time>2021-08-06 10:14:21</time>
      </trkpt>
      <trkpt lat="37.05514" lon="-3.33214">
        <ele>3142</ele>
        <time>2021-08-06 10:14:22</time>
      </trkpt>
      <trkpt lat="37.05514" lon="-3.33213">
        <ele>3141.8</ele>
        <time>2021-08-06 10:14:23</time>
      </trkpt>
      <trkpt lat="37.05514" lon="-3.33212">
        <ele>3141.8</ele>
        <time>2021-08-06 10:14:24</time>
      </trkpt>
      <trkpt lat="37.05514" lon="-3.33211">
        <ele>3141.8</ele>
        <time>2021-08-06 10:14:25</time>
      </trkpt>
      <trkpt lat="37.05514" lon="-3.33211">
        <ele>3141.8</ele>
        <time>2021-08-06 10:14:26</time>
      </trkpt>
      <trkpt lat="37.05515" lon="-3.3321">
        <ele>3143</ele>
        <time>2021-08-06 10:14:27</time>
      </trkpt>
      <trkpt lat="37.05515" lon="-3.33209">
        <ele>3143.2</ele>
        <time>2021-08-06 10:14:28</time>
      </trkpt>
      <trkpt lat="37.05516" lon="-3.33208">
        <ele>3143.2</ele>
        <time>2021-08-06 10:14:29</time>
      </trkpt>
      <trkpt lat="37.05516" lon="-3.33207">
        <ele>3143.2</ele>
        <time>2021-08-06 10:14:30</time>
      </trkpt>
      <trkpt lat="37.05516" lon="-3.33206">
        <ele>3143.2</ele>
        <time>2021-08-06 10:14:31</time>
      </trkpt>
      <trkpt lat="37.05516" lon="-3.33205">
        <ele>3143.4</ele>
        <time>2021-08-06 10:14:32</time>
      </trkpt>
      <trkpt lat="37.05516" lon="-3.33204">
        <ele>3143.6</ele>
        <time>2021-08-06 10:14:33</time>
      </trkpt>
      <trkpt lat="37.05516" lon="-3.33204">
        <ele>3143</ele>
        <time>2021-08-06 10:14:34</time>
      </trkpt>
      <trkpt lat="37.05517" lon="-3.33204">
        <ele>3143.2</ele>
        <time>2021-08-06 10:14:35</time>
      </trkpt>
      <trkpt lat="37.05517" lon="-3.33204">
        <ele>3143.2</ele>
        <time>2021-08-06 10:14:36</time>
      </trkpt>
      <trkpt lat="37.05518" lon="-3.33204">
        <ele>3143.2</ele>
        <time>2021-08-06 10:14:37</time>
      </trkpt>
      <trkpt lat="37.05519" lon="-3.33203">
        <ele>3143.2</ele>
        <time>2021-08-06 10:14:38</time>
      </trkpt>
      <trkpt lat="37.0552" lon="-3.33202">
        <ele>3143</ele>
        <time>2021-08-06 10:14:39</time>
      </trkpt>
      <trkpt lat="37.0552" lon="-3.33202">
        <ele>3142.6</ele>
        <time>2021-08-06 10:14:40</time>
      </trkpt>
      <trkpt lat="37.05521" lon="-3.33201">
        <ele>3142.4</ele>
        <time>2021-08-06 10:14:41</time>
      </trkpt>
      <trkpt lat="37.05521" lon="-3.332">
        <ele>3142.2</ele>
        <time>2021-08-06 10:14:42</time>
      </trkpt>
      <trkpt lat="37.05521" lon="-3.33199">
        <ele>3142.2</ele>
        <time>2021-08-06 10:14:43</time>
      </trkpt>
      <trkpt lat="37.05521" lon="-3.33198">
        <ele>3142.2</ele>
        <time>2021-08-06 10:14:44</time>
      </trkpt>
      <trkpt lat="37.05521" lon="-3.33197">
        <ele>3142</ele>
        <time>2021-08-06 10:14:45</time>
      </trkpt>
      <trkpt lat="37.05521" lon="-3.33197">
        <ele>3142</ele>
        <time>2021-08-06 10:14:46</time>
      </trkpt>
      <trkpt lat="37.05522" lon="-3.33196">
        <ele>3142</ele>
        <time>2021-08-06 10:14:47</time>
      </trkpt>
      <trkpt lat="37.05523" lon="-3.33195">
        <ele>3141.8</ele>
        <time>2021-08-06 10:14:48</time>
      </trkpt>
      <trkpt lat="37.05524" lon="-3.33195">
        <ele>3141.8</ele>
        <time>2021-08-06 10:14:49</time>
      </trkpt>
      <trkpt lat="37.05524" lon="-3.33194">
        <ele>3141.6</ele>
        <time>2021-08-06 10:14:50</time>
      </trkpt>
      <trkpt lat="37.05525" lon="-3.33193">
        <ele>3141.4</ele>
        <time>2021-08-06 10:14:51</time>
      </trkpt>
      <trkpt lat="37.05525" lon="-3.33193">
        <ele>3141.2</ele>
        <time>2021-08-06 10:14:52</time>
      </trkpt>
      <trkpt lat="37.05526" lon="-3.33193">
        <ele>3141.2</ele>
        <time>2021-08-06 10:14:53</time>
      </trkpt>
      <trkpt lat="37.05527" lon="-3.33192">
        <ele>3141.2</ele>
        <time>2021-08-06 10:14:54</time>
      </trkpt>
      <trkpt lat="37.05527" lon="-3.33191">
        <ele>3141</ele>
        <time>2021-08-06 10:14:55</time>
      </trkpt>
      <trkpt lat="37.05528" lon="-3.33191">
        <ele>3141</ele>
        <time>2021-08-06 10:14:56</time>
      </trkpt>
      <trkpt lat="37.05529" lon="-3.3319">
        <ele>3141</ele>
        <time>2021-08-06 10:14:57</time>
      </trkpt>
      <trkpt lat="37.0553" lon="-3.33189">
        <ele>3140.8</ele>
        <time>2021-08-06 10:14:58</time>
      </trkpt>
      <trkpt lat="37.0553" lon="-3.33188">
        <ele>3140.6</ele>
        <time>2021-08-06 10:14:59</time>
      </trkpt>
      <trkpt lat="37.05531" lon="-3.33187">
        <ele>3140.4</ele>
        <time>2021-08-06 10:15:00</time>
      </trkpt>
      <trkpt lat="37.05531" lon="-3.33186">
        <ele>3140.2</ele>
        <time>2021-08-06 10:15:01</time>
      </trkpt>
      <trkpt lat="37.05531" lon="-3.33186">
        <ele>3140</ele>
        <time>2021-08-06 10:15:02</time>
      </trkpt>
      <trkpt lat="37.05532" lon="-3.33185">
        <ele>3139.6</ele>
        <time>2021-08-06 10:15:03</time>
      </trkpt>
      <trkpt lat="37.05532" lon="-3.33184">
        <ele>3139.2</ele>
        <time>2021-08-06 10:15:04</time>
      </trkpt>
      <trkpt lat="37.05532" lon="-3.33184">
        <ele>3138.8</ele>
        <time>2021-08-06 10:15:05</time>
      </trkpt>
      <trkpt lat="37.05532" lon="-3.33182">
        <ele>3166.8</ele>
        <time>2021-08-06 10:15:06</time>
      </trkpt>
      <trkpt lat="37.05533" lon="-3.33181">
        <ele>3166.8</ele>
        <time>2021-08-06 10:15:07</time>
      </trkpt>
      <trkpt lat="37.05533" lon="-3.33181">
        <ele>3166.8</ele>
        <time>2021-08-06 10:15:08</time>
      </trkpt>
      <trkpt lat="37.05533" lon="-3.33179">
        <ele>3166.8</ele>
        <time>2021-08-06 10:15:09</time>
      </trkpt>
      <trkpt lat="37.05534" lon="-3.33178">
        <ele>3166.8</ele>
        <time>2021-08-06 10:15:10</time>
      </trkpt>
      <trkpt lat="37.05534" lon="-3.33177">
        <ele>3166.8</ele>
        <time>2021-08-06 10:15:11</time>
      </trkpt>
      <trkpt lat="37.05535" lon="-3.33176">
        <ele>3166.8</ele>
        <time>2021-08-06 10:15:12</time>
      </trkpt>
      <trkpt lat="37.05535" lon="-3.33174">
        <ele>3166.8</ele>
        <time>2021-08-06 10:15:13</time>
      </trkpt>
      <trkpt lat="37.05536" lon="-3.33173">
        <ele>3166.2</ele>
        <time>2021-08-06 10:15:14</time>
      </trkpt>
      <trkpt lat="37.05537" lon="-3.33172">
        <ele>3165.8</ele>
        <time>2021-08-06 10:15:15</time>
      </trkpt>
      <trkpt lat="37.05537" lon="-3.33172">
        <ele>3165.6</ele>
        <time>2021-08-06 10:15:16</time>
      </trkpt>
      <trkpt lat="37.05538" lon="-3.33171">
        <ele>3165.4</ele>
        <time>2021-08-06 10:15:17</time>
      </trkpt>
      <trkpt lat="37.05538" lon="-3.3317">
        <ele>3165.2</ele>
        <time>2021-08-06 10:15:18</time>
      </trkpt>
      <trkpt lat="37.05538" lon="-3.33169">
        <ele>3165.2</ele>
        <time>2021-08-06 10:15:19</time>
      </trkpt>
      <trkpt lat="37.05539" lon="-3.33168">
        <ele>3165</ele>
        <time>2021-08-06 10:15:20</time>
      </trkpt>
      <trkpt lat="37.05539" lon="-3.33167">
        <ele>3165</ele>
        <time>2021-08-06 10:15:21</time>
      </trkpt>
      <trkpt lat="37.0554" lon="-3.33166">
        <ele>3164.8</ele>
        <time>2021-08-06 10:15:22</time>
      </trkpt>
      <trkpt lat="37.0554" lon="-3.33166">
        <ele>3164.6</ele>
        <time>2021-08-06 10:15:23</time>
      </trkpt>
      <trkpt lat="37.0554" lon="-3.33165">
        <ele>3164.6</ele>
        <time>2021-08-06 10:15:24</time>
      </trkpt>
      <trkpt lat="37.05541" lon="-3.33164">
        <ele>3164.2</ele>
        <time>2021-08-06 10:15:25</time>
      </trkpt>
      <trkpt lat="37.05541" lon="-3.33164">
        <ele>3164</ele>
        <time>2021-08-06 10:15:26</time>
      </trkpt>
      <trkpt lat="37.05541" lon="-3.33163">
        <ele>3164</ele>
        <time>2021-08-06 10:15:27</time>
      </trkpt>
      <trkpt lat="37.05541" lon="-3.33162">
        <ele>3163.8</ele>
        <time>2021-08-06 10:15:28</time>
      </trkpt>
      <trkpt lat="37.05541" lon="-3.33161">
        <ele>3163.6</ele>
        <time>2021-08-06 10:15:29</time>
      </trkpt>
      <trkpt lat="37.05542" lon="-3.3316">
        <ele>3163.4</ele>
        <time>2021-08-06 10:15:30</time>
      </trkpt>
      <trkpt lat="37.05542" lon="-3.33159">
        <ele>3163</ele>
        <time>2021-08-06 10:15:31</time>
      </trkpt>
      <trkpt lat="37.05543" lon="-3.33158">
        <ele>3163</ele>
        <time>2021-08-06 10:15:32</time>
      </trkpt>
      <trkpt lat="37.05543" lon="-3.33158">
        <ele>3162.6</ele>
        <time>2021-08-06 10:15:33</time>
      </trkpt>
      <trkpt lat="37.05544" lon="-3.33156">
        <ele>3134.4</ele>
        <time>2021-08-06 10:15:34</time>
      </trkpt>
      <trkpt lat="37.05545" lon="-3.33155">
        <ele>3134.4</ele>
        <time>2021-08-06 10:15:35</time>
      </trkpt>
      <trkpt lat="37.05545" lon="-3.33155">
        <ele>3134.4</ele>
        <time>2021-08-06 10:15:36</time>
      </trkpt>
      <trkpt lat="37.05546" lon="-3.33154">
        <ele>3134.4</ele>
        <time>2021-08-06 10:15:37</time>
      </trkpt>
      <trkpt lat="37.05546" lon="-3.33153">
        <ele>3134.4</ele>
        <time>2021-08-06 10:15:38</time>
      </trkpt>
      <trkpt lat="37.05547" lon="-3.33152">
        <ele>3134.4</ele>
        <time>2021-08-06 10:15:39</time>
      </trkpt>
      <trkpt lat="37.05548" lon="-3.33152">
        <ele>3134.6</ele>
        <time>2021-08-06 10:15:40</time>
      </trkpt>
      <trkpt lat="37.05548" lon="-3.33152">
        <ele>3134.8</ele>
        <time>2021-08-06 10:15:41</time>
      </trkpt>
      <trkpt lat="37.05549" lon="-3.33152">
        <ele>3134.8</ele>
        <time>2021-08-06 10:15:42</time>
      </trkpt>
      <trkpt lat="37.0555" lon="-3.33152">
        <ele>3134.8</ele>
        <time>2021-08-06 10:15:43</time>
      </trkpt>
      <trkpt lat="37.05551" lon="-3.33151">
        <ele>3134.8</ele>
        <time>2021-08-06 10:15:44</time>
      </trkpt>
      <trkpt lat="37.05552" lon="-3.3315">
        <ele>3134.8</ele>
        <time>2021-08-06 10:15:45</time>
      </trkpt>
      <trkpt lat="37.05552" lon="-3.3315">
        <ele>3135</ele>
        <time>2021-08-06 10:15:46</time>
      </trkpt>
      <trkpt lat="37.05552" lon="-3.33149">
        <ele>3135.2</ele>
        <time>2021-08-06 10:15:47</time>
      </trkpt>
      <trkpt lat="37.05553" lon="-3.33149">
        <ele>3135.2</ele>
        <time>2021-08-06 10:15:48</time>
      </trkpt>
      <trkpt lat="37.05553" lon="-3.33148">
        <ele>3135.4</ele>
        <time>2021-08-06 10:15:49</time>
      </trkpt>
      <trkpt lat="37.05553" lon="-3.33148">
        <ele>3135.4</ele>
        <time>2021-08-06 10:15:50</time>
      </trkpt>
      <trkpt lat="37.05553" lon="-3.33148">
        <ele>3135.4</ele>
        <time>2021-08-06 10:15:51</time>
      </trkpt>
      <trkpt lat="37.05553" lon="-3.33147">
        <ele>3135.4</ele>
        <time>2021-08-06 10:15:52</time>
      </trkpt>
      <trkpt lat="37.05553" lon="-3.33147">
        <ele>3135.4</ele>
        <time>2021-08-06 10:15:53</time>
      </trkpt>
      <trkpt lat="37.05552" lon="-3.33147">
        <ele>3135.6</ele>
        <time>2021-08-06 10:15:54</time>
      </trkpt>
      <trkpt lat="37.05552" lon="-3.33147">
        <ele>3135.6</ele>
        <time>2021-08-06 10:15:55</time>
      </trkpt>
      <trkpt lat="37.05552" lon="-3.33146">
        <ele>3135.6</ele>
        <time>2021-08-06 10:15:56</time>
      </trkpt>
      <trkpt lat="37.05552" lon="-3.33147">
        <ele>3135.6</ele>
        <time>2021-08-06 10:15:57</time>
      </trkpt>
      <trkpt lat="37.05552" lon="-3.33147">
        <ele>3135.6</ele>
        <time>2021-08-06 10:15:58</time>
      </trkpt>
      <trkpt lat="37.05552" lon="-3.33147">
        <ele>3135.4</ele>
        <time>2021-08-06 10:15:59</time>
      </trkpt>
      <trkpt lat="37.05551" lon="-3.33148">
        <ele>3135.4</ele>
        <time>2021-08-06 10:16:00</time>
      </trkpt>
      <trkpt lat="37.05552" lon="-3.33148">
        <ele>3135.4</ele>
        <time>2021-08-06 10:16:01</time>
      </trkpt>
      <trkpt lat="37.05552" lon="-3.33148">
        <ele>3135.2</ele>
        <time>2021-08-06 10:16:02</time>
      </trkpt>
      <trkpt lat="37.05552" lon="-3.33148">
        <ele>3135</ele>
        <time>2021-08-06 10:16:03</time>
      </trkpt>
      <trkpt lat="37.05553" lon="-3.33147">
        <ele>3135</ele>
        <time>2021-08-06 10:16:04</time>
      </trkpt>
      <trkpt lat="37.05553" lon="-3.33146">
        <ele>3135</ele>
        <time>2021-08-06 10:16:05</time>
      </trkpt>
      <trkpt lat="37.05553" lon="-3.33145">
        <ele>3134.8</ele>
        <time>2021-08-06 10:16:06</time>
      </trkpt>
      <trkpt lat="37.05552" lon="-3.33144">
        <ele>3134.8</ele>
        <time>2021-08-06 10:16:07</time>
      </trkpt>
      <trkpt lat="37.05552" lon="-3.33143">
        <ele>3134.6</ele>
        <time>2021-08-06 10:16:08</time>
      </trkpt>
      <trkpt lat="37.05553" lon="-3.33143">
        <ele>3134.2</ele>
        <time>2021-08-06 10:16:09</time>
      </trkpt>
      <trkpt lat="37.05553" lon="-3.33142">
        <ele>3133.8</ele>
        <time>2021-08-06 10:16:10</time>
      </trkpt>
      <trkpt lat="37.05554" lon="-3.33141">
        <ele>3133.4</ele>
        <time>2021-08-06 10:16:11</time>
      </trkpt>
      <trkpt lat="37.05554" lon="-3.33141">
        <ele>3133.2</ele>
        <time>2021-08-06 10:16:12</time>
      </trkpt>
      <trkpt lat="37.05555" lon="-3.3314">
        <ele>3133.2</ele>
        <time>2021-08-06 10:16:13</time>
      </trkpt>
      <trkpt lat="37.05555" lon="-3.3314">
        <ele>3133.2</ele>
        <time>2021-08-06 10:16:14</time>
      </trkpt>
      <trkpt lat="37.05556" lon="-3.33139">
        <ele>3133</ele>
        <time>2021-08-06 10:16:15</time>
      </trkpt>
      <trkpt lat="37.05557" lon="-3.33138">
        <ele>3133</ele>
        <time>2021-08-06 10:16:16</time>
      </trkpt>
      <trkpt lat="37.05558" lon="-3.33137">
        <ele>3132.8</ele>
        <time>2021-08-06 10:16:17</time>
      </trkpt>
      <trkpt lat="37.05559" lon="-3.33136">
        <ele>3132.6</ele>
        <time>2021-08-06 10:16:18</time>
      </trkpt>
      <trkpt lat="37.05559" lon="-3.33136">
        <ele>3132.6</ele>
        <time>2021-08-06 10:16:19</time>
      </trkpt>
      <trkpt lat="37.05559" lon="-3.33135">
        <ele>3132.6</ele>
        <time>2021-08-06 10:16:20</time>
      </trkpt>
      <trkpt lat="37.05559" lon="-3.33134">
        <ele>3132.6</ele>
        <time>2021-08-06 10:16:21</time>
      </trkpt>
      <trkpt lat="37.05559" lon="-3.33134">
        <ele>3132.6</ele>
        <time>2021-08-06 10:16:22</time>
      </trkpt>
      <trkpt lat="37.0556" lon="-3.33135">
        <ele>3132.6</ele>
        <time>2021-08-06 10:16:23</time>
      </trkpt>
      <trkpt lat="37.0556" lon="-3.33135">
        <ele>3132.6</ele>
        <time>2021-08-06 10:16:24</time>
      </trkpt>
      <trkpt lat="37.0556" lon="-3.33135">
        <ele>3132.6</ele>
        <time>2021-08-06 10:16:25</time>
      </trkpt>
      <trkpt lat="37.05561" lon="-3.33135">
        <ele>3132.8</ele>
        <time>2021-08-06 10:16:26</time>
      </trkpt>
      <trkpt lat="37.05562" lon="-3.33134">
        <ele>3132.8</ele>
        <time>2021-08-06 10:16:27</time>
      </trkpt>
      <trkpt lat="37.05562" lon="-3.33133">
        <ele>3133</ele>
        <time>2021-08-06 10:16:28</time>
      </trkpt>
      <trkpt lat="37.05562" lon="-3.33133">
        <ele>3133</ele>
        <time>2021-08-06 10:16:29</time>
      </trkpt>
      <trkpt lat="37.05563" lon="-3.33133">
        <ele>3133</ele>
        <time>2021-08-06 10:16:30</time>
      </trkpt>
      <trkpt lat="37.05563" lon="-3.33132">
        <ele>3133</ele>
        <time>2021-08-06 10:16:31</time>
      </trkpt>
      <trkpt lat="37.05563" lon="-3.33132">
        <ele>3133</ele>
        <time>2021-08-06 10:16:32</time>
      </trkpt>
      <trkpt lat="37.05563" lon="-3.33131">
        <ele>3133</ele>
        <time>2021-08-06 10:16:33</time>
      </trkpt>
      <trkpt lat="37.05564" lon="-3.33131">
        <ele>3132.8</ele>
        <time>2021-08-06 10:16:34</time>
      </trkpt>
      <trkpt lat="37.05564" lon="-3.33131">
        <ele>3132.8</ele>
        <time>2021-08-06 10:16:35</time>
      </trkpt>
      <trkpt lat="37.05563" lon="-3.3313">
        <ele>3132.8</ele>
        <time>2021-08-06 10:16:36</time>
      </trkpt>
      <trkpt lat="37.05564" lon="-3.33129">
        <ele>3132.6</ele>
        <time>2021-08-06 10:16:37</time>
      </trkpt>
      <trkpt lat="37.05564" lon="-3.33127">
        <ele>3132.6</ele>
        <time>2021-08-06 10:16:38</time>
      </trkpt>
      <trkpt lat="37.05564" lon="-3.33126">
        <ele>3132.6</ele>
        <time>2021-08-06 10:16:39</time>
      </trkpt>
      <trkpt lat="37.05564" lon="-3.33126">
        <ele>3132.4</ele>
        <time>2021-08-06 10:16:40</time>
      </trkpt>
      <trkpt lat="37.05564" lon="-3.33125">
        <ele>3132.4</ele>
        <time>2021-08-06 10:16:41</time>
      </trkpt>
      <trkpt lat="37.05564" lon="-3.33125">
        <ele>3132.2</ele>
        <time>2021-08-06 10:16:42</time>
      </trkpt>
      <trkpt lat="37.05565" lon="-3.33124">
        <ele>3132</ele>
        <time>2021-08-06 10:16:43</time>
      </trkpt>
      <trkpt lat="37.05565" lon="-3.33124">
        <ele>3132</ele>
        <time>2021-08-06 10:16:44</time>
      </trkpt>
      <trkpt lat="37.05566" lon="-3.33123">
        <ele>3131.8</ele>
        <time>2021-08-06 10:16:45</time>
      </trkpt>
      <trkpt lat="37.05567" lon="-3.33123">
        <ele>3131.8</ele>
        <time>2021-08-06 10:16:46</time>
      </trkpt>
      <trkpt lat="37.05568" lon="-3.33123">
        <ele>3131.8</ele>
        <time>2021-08-06 10:16:47</time>
      </trkpt>
      <trkpt lat="37.05569" lon="-3.33123">
        <ele>3131.8</ele>
        <time>2021-08-06 10:16:48</time>
      </trkpt>
      <trkpt lat="37.05569" lon="-3.33123">
        <ele>3131.8</ele>
        <time>2021-08-06 10:16:49</time>
      </trkpt>
      <trkpt lat="37.0557" lon="-3.33123">
        <ele>3131.8</ele>
        <time>2021-08-06 10:16:50</time>
      </trkpt>
      <trkpt lat="37.0557" lon="-3.33122">
        <ele>3131.8</ele>
        <time>2021-08-06 10:16:51</time>
      </trkpt>
      <trkpt lat="37.05571" lon="-3.33122">
        <ele>3131.8</ele>
        <time>2021-08-06 10:16:52</time>
      </trkpt>
      <trkpt lat="37.05571" lon="-3.33122">
        <ele>3132</ele>
        <time>2021-08-06 10:16:53</time>
      </trkpt>
      <trkpt lat="37.05572" lon="-3.33122">
        <ele>3132</ele>
        <time>2021-08-06 10:16:54</time>
      </trkpt>
      <trkpt lat="37.05572" lon="-3.33122">
        <ele>3132</ele>
        <time>2021-08-06 10:16:55</time>
      </trkpt>
      <trkpt lat="37.05572" lon="-3.33121">
        <ele>3132</ele>
        <time>2021-08-06 10:16:56</time>
      </trkpt>
      <trkpt lat="37.05572" lon="-3.3312">
        <ele>3132</ele>
        <time>2021-08-06 10:16:57</time>
      </trkpt>
      <trkpt lat="37.05571" lon="-3.3312">
        <ele>3132.2</ele>
        <time>2021-08-06 10:16:58</time>
      </trkpt>
      <trkpt lat="37.0557" lon="-3.3312">
        <ele>3132.2</ele>
        <time>2021-08-06 10:16:59</time>
      </trkpt>
      <trkpt lat="37.0557" lon="-3.33119">
        <ele>3132</ele>
        <time>2021-08-06 10:17:00</time>
      </trkpt>
      <trkpt lat="37.0557" lon="-3.33119">
        <ele>3132</ele>
        <time>2021-08-06 10:17:01</time>
      </trkpt>
      <trkpt lat="37.0557" lon="-3.33118">
        <ele>3132</ele>
        <time>2021-08-06 10:17:02</time>
      </trkpt>
      <trkpt lat="37.05571" lon="-3.33118">
        <ele>3131.8</ele>
        <time>2021-08-06 10:17:03</time>
      </trkpt>
      <trkpt lat="37.05572" lon="-3.33117">
        <ele>3131.8</ele>
        <time>2021-08-06 10:17:04</time>
      </trkpt>
      <trkpt lat="37.05572" lon="-3.33117">
        <ele>3131.6</ele>
        <time>2021-08-06 10:17:05</time>
      </trkpt>
      <trkpt lat="37.05573" lon="-3.33117">
        <ele>3131.6</ele>
        <time>2021-08-06 10:17:06</time>
      </trkpt>
      <trkpt lat="37.05574" lon="-3.33116">
        <ele>3131.6</ele>
        <time>2021-08-06 10:17:07</time>
      </trkpt>
      <trkpt lat="37.05575" lon="-3.33115">
        <ele>3131.6</ele>
        <time>2021-08-06 10:17:08</time>
      </trkpt>
      <trkpt lat="37.05576" lon="-3.33115">
        <ele>3131.6</ele>
        <time>2021-08-06 10:17:09</time>
      </trkpt>
      <trkpt lat="37.05577" lon="-3.33114">
        <ele>3131.6</ele>
        <time>2021-08-06 10:17:10</time>
      </trkpt>
      <trkpt lat="37.05577" lon="-3.33113">
        <ele>3131.6</ele>
        <time>2021-08-06 10:17:11</time>
      </trkpt>
      <trkpt lat="37.05577" lon="-3.33113">
        <ele>3131.6</ele>
        <time>2021-08-06 10:17:12</time>
      </trkpt>
      <trkpt lat="37.05577" lon="-3.33112">
        <ele>3131.4</ele>
        <time>2021-08-06 10:17:13</time>
      </trkpt>
      <trkpt lat="37.05578" lon="-3.3311">
        <ele>3131.4</ele>
        <time>2021-08-06 10:17:14</time>
      </trkpt>
      <trkpt lat="37.05578" lon="-3.33109">
        <ele>3131.4</ele>
        <time>2021-08-06 10:17:15</time>
      </trkpt>
      <trkpt lat="37.05578" lon="-3.33109">
        <ele>3131.2</ele>
        <time>2021-08-06 10:17:16</time>
      </trkpt>
      <trkpt lat="37.05578" lon="-3.33108">
        <ele>3131.2</ele>
        <time>2021-08-06 10:17:17</time>
      </trkpt>
      <trkpt lat="37.05578" lon="-3.33108">
        <ele>3130.8</ele>
        <time>2021-08-06 10:17:18</time>
      </trkpt>
      <trkpt lat="37.05578" lon="-3.33108">
        <ele>3130.6</ele>
        <time>2021-08-06 10:17:19</time>
      </trkpt>
      <trkpt lat="37.05579" lon="-3.33107">
        <ele>3130.6</ele>
        <time>2021-08-06 10:17:20</time>
      </trkpt>
      <trkpt lat="37.0558" lon="-3.33106">
        <ele>3130.6</ele>
        <time>2021-08-06 10:17:21</time>
      </trkpt>
      <trkpt lat="37.0558" lon="-3.33105">
        <ele>3130.6</ele>
        <time>2021-08-06 10:17:22</time>
      </trkpt>
      <trkpt lat="37.05581" lon="-3.33104">
        <ele>3130.2</ele>
        <time>2021-08-06 10:17:23</time>
      </trkpt>
      <trkpt lat="37.05581" lon="-3.33103">
        <ele>3130</ele>
        <time>2021-08-06 10:17:24</time>
      </trkpt>
      <trkpt lat="37.05582" lon="-3.33103">
        <ele>3130</ele>
        <time>2021-08-06 10:17:25</time>
      </trkpt>
      <trkpt lat="37.05583" lon="-3.33102">
        <ele>3130</ele>
        <time>2021-08-06 10:17:26</time>
      </trkpt>
      <trkpt lat="37.05584" lon="-3.33102">
        <ele>3130</ele>
        <time>2021-08-06 10:17:27</time>
      </trkpt>
      <trkpt lat="37.05584" lon="-3.33102">
        <ele>3129.8</ele>
        <time>2021-08-06 10:17:28</time>
      </trkpt>
      <trkpt lat="37.05584" lon="-3.33102">
        <ele>3129.8</ele>
        <time>2021-08-06 10:17:29</time>
      </trkpt>
      <trkpt lat="37.05584" lon="-3.33102">
        <ele>3130.2</ele>
        <time>2021-08-06 10:17:30</time>
      </trkpt>
      <trkpt lat="37.05585" lon="-3.33102">
        <ele>3130.4</ele>
        <time>2021-08-06 10:17:31</time>
      </trkpt>
      <trkpt lat="37.05585" lon="-3.33101">
        <ele>3130.6</ele>
        <time>2021-08-06 10:17:32</time>
      </trkpt>
      <trkpt lat="37.05585" lon="-3.33101">
        <ele>3130.4</ele>
        <time>2021-08-06 10:17:33</time>
      </trkpt>
      <trkpt lat="37.05585" lon="-3.33101">
        <ele>3130.4</ele>
        <time>2021-08-06 10:17:34</time>
      </trkpt>
      <trkpt lat="37.05584" lon="-3.33103">
        <ele>3130.2</ele>
        <time>2021-08-06 10:17:35</time>
      </trkpt>
      <trkpt lat="37.05584" lon="-3.33102">
        <ele>3130.2</ele>
        <time>2021-08-06 10:17:36</time>
      </trkpt>
      <trkpt lat="37.05583" lon="-3.33102">
        <ele>3130</ele>
        <time>2021-08-06 10:17:37</time>
      </trkpt>
      <trkpt lat="37.05582" lon="-3.33102">
        <ele>3130</ele>
        <time>2021-08-06 10:17:38</time>
      </trkpt>
      <trkpt lat="37.05582" lon="-3.33102">
        <ele>3130</ele>
        <time>2021-08-06 10:17:39</time>
      </trkpt>
      <trkpt lat="37.05582" lon="-3.33103">
        <ele>3130</ele>
        <time>2021-08-06 10:17:40</time>
      </trkpt>
      <trkpt lat="37.05582" lon="-3.33103">
        <ele>3130</ele>
        <time>2021-08-06 10:17:41</time>
      </trkpt>
      <trkpt lat="37.05581" lon="-3.33104">
        <ele>3130</ele>
        <time>2021-08-06 10:17:42</time>
      </trkpt>
      <trkpt lat="37.05582" lon="-3.33104">
        <ele>3130.2</ele>
        <time>2021-08-06 10:17:43</time>
      </trkpt>
      <trkpt lat="37.05582" lon="-3.33104">
        <ele>3130.2</ele>
        <time>2021-08-06 10:17:44</time>
      </trkpt>
      <trkpt lat="37.05583" lon="-3.33103">
        <ele>3130.2</ele>
        <time>2021-08-06 10:17:45</time>
      </trkpt>
      <trkpt lat="37.05583" lon="-3.33103">
        <ele>3130</ele>
        <time>2021-08-06 10:17:46</time>
      </trkpt>
      <trkpt lat="37.05583" lon="-3.33103">
        <ele>3130</ele>
        <time>2021-08-06 10:17:47</time>
      </trkpt>
      <trkpt lat="37.05583" lon="-3.33102">
        <ele>3130</ele>
        <time>2021-08-06 10:17:48</time>
      </trkpt>
      <trkpt lat="37.05583" lon="-3.33102">
        <ele>3130</ele>
        <time>2021-08-06 10:17:49</time>
      </trkpt>
      <trkpt lat="37.05583" lon="-3.33101">
        <ele>3129.8</ele>
        <time>2021-08-06 10:17:50</time>
      </trkpt>
      <trkpt lat="37.05585" lon="-3.33099">
        <ele>3129.6</ele>
        <time>2021-08-06 10:17:51</time>
      </trkpt>
      <trkpt lat="37.05585" lon="-3.33098">
        <ele>3129.4</ele>
        <time>2021-08-06 10:17:52</time>
      </trkpt>
      <trkpt lat="37.05586" lon="-3.33097">
        <ele>3129.2</ele>
        <time>2021-08-06 10:17:53</time>
      </trkpt>
      <trkpt lat="37.05587" lon="-3.33097">
        <ele>3129</ele>
        <time>2021-08-06 10:17:54</time>
      </trkpt>
      <trkpt lat="37.05587" lon="-3.33096">
        <ele>3129</ele>
        <time>2021-08-06 10:17:55</time>
      </trkpt>
      <trkpt lat="37.05587" lon="-3.33096">
        <ele>3129.2</ele>
        <time>2021-08-06 10:17:56</time>
      </trkpt>
      <trkpt lat="37.05587" lon="-3.33097">
        <ele>3129.2</ele>
        <time>2021-08-06 10:17:57</time>
      </trkpt>
      <trkpt lat="37.05587" lon="-3.33097">
        <ele>3129.2</ele>
        <time>2021-08-06 10:17:58</time>
      </trkpt>
      <trkpt lat="37.05586" lon="-3.33097">
        <ele>3129.2</ele>
        <time>2021-08-06 10:17:59</time>
      </trkpt>
      <trkpt lat="37.05586" lon="-3.33096">
        <ele>3129</ele>
        <time>2021-08-06 10:18:00</time>
      </trkpt>
      <trkpt lat="37.05586" lon="-3.33096">
        <ele>3129</ele>
        <time>2021-08-06 10:18:01</time>
      </trkpt>
      <trkpt lat="37.05587" lon="-3.33095">
        <ele>3129</ele>
        <time>2021-08-06 10:18:02</time>
      </trkpt>
      <trkpt lat="37.05587" lon="-3.33095">
        <ele>3129</ele>
        <time>2021-08-06 10:18:03</time>
      </trkpt>
      <trkpt lat="37.05587" lon="-3.33095">
        <ele>3128.4</ele>
        <time>2021-08-06 10:18:04</time>
      </trkpt>
      <trkpt lat="37.05587" lon="-3.33094">
        <ele>3128</ele>
        <time>2021-08-06 10:18:05</time>
      </trkpt>
      <trkpt lat="37.05587" lon="-3.33094">
        <ele>3127.8</ele>
        <time>2021-08-06 10:18:06</time>
      </trkpt>
      <trkpt lat="37.05587" lon="-3.33093">
        <ele>3127.6</ele>
        <time>2021-08-06 10:18:07</time>
      </trkpt>
      <trkpt lat="37.05587" lon="-3.33092">
        <ele>3127.4</ele>
        <time>2021-08-06 10:18:08</time>
      </trkpt>
      <trkpt lat="37.05587" lon="-3.33092">
        <ele>3127.2</ele>
        <time>2021-08-06 10:18:09</time>
      </trkpt>
      <trkpt lat="37.05587" lon="-3.33092">
        <ele>3127</ele>
        <time>2021-08-06 10:18:10</time>
      </trkpt>
      <trkpt lat="37.05587" lon="-3.33091">
        <ele>3127</ele>
        <time>2021-08-06 10:18:11</time>
      </trkpt>
      <trkpt lat="37.05587" lon="-3.33091">
        <ele>3126.8</ele>
        <time>2021-08-06 10:18:12</time>
      </trkpt>
      <trkpt lat="37.05587" lon="-3.3309">
        <ele>3126.8</ele>
        <time>2021-08-06 10:18:13</time>
      </trkpt>
      <trkpt lat="37.05587" lon="-3.3309">
        <ele>3126.8</ele>
        <time>2021-08-06 10:18:14</time>
      </trkpt>
      <trkpt lat="37.05587" lon="-3.33089">
        <ele>3126.8</ele>
        <time>2021-08-06 10:18:15</time>
      </trkpt>
      <trkpt lat="37.05586" lon="-3.3309">
        <ele>3126.6</ele>
        <time>2021-08-06 10:18:16</time>
      </trkpt>
      <trkpt lat="37.05586" lon="-3.3309">
        <ele>3126.6</ele>
        <time>2021-08-06 10:18:17</time>
      </trkpt>
      <trkpt lat="37.05586" lon="-3.3309">
        <ele>3126.8</ele>
        <time>2021-08-06 10:18:18</time>
      </trkpt>
      <trkpt lat="37.05586" lon="-3.3309">
        <ele>3126.8</ele>
        <time>2021-08-06 10:18:19</time>
      </trkpt>
      <trkpt lat="37.05586" lon="-3.33089">
        <ele>3126.6</ele>
        <time>2021-08-06 10:18:20</time>
      </trkpt>
      <trkpt lat="37.05586" lon="-3.33089">
        <ele>3126.6</ele>
        <time>2021-08-06 10:18:21</time>
      </trkpt>
      <trkpt lat="37.05587" lon="-3.33089">
        <ele>3126.4</ele>
        <time>2021-08-06 10:18:22</time>
      </trkpt>
      <trkpt lat="37.05588" lon="-3.33089">
        <ele>3126.4</ele>
        <time>2021-08-06 10:18:23</time>
      </trkpt>
      <trkpt lat="37.05588" lon="-3.33089">
        <ele>3126.4</ele>
        <time>2021-08-06 10:18:24</time>
      </trkpt>
      <trkpt lat="37.05589" lon="-3.33089">
        <ele>3126.2</ele>
        <time>2021-08-06 10:18:25</time>
      </trkpt>
      <trkpt lat="37.05589" lon="-3.33088">
        <ele>3126.2</ele>
        <time>2021-08-06 10:18:26</time>
      </trkpt>
      <trkpt lat="37.0559" lon="-3.33088">
        <ele>3126.2</ele>
        <time>2021-08-06 10:18:27</time>
      </trkpt>
      <trkpt lat="37.0559" lon="-3.33087">
        <ele>3126.2</ele>
        <time>2021-08-06 10:18:28</time>
      </trkpt>
      <trkpt lat="37.0559" lon="-3.33087">
        <ele>3126.2</ele>
        <time>2021-08-06 10:18:29</time>
      </trkpt>
      <trkpt lat="37.05591" lon="-3.33087">
        <ele>3126.4</ele>
        <time>2021-08-06 10:18:30</time>
      </trkpt>
      <trkpt lat="37.05591" lon="-3.33086">
        <ele>3126.6</ele>
        <time>2021-08-06 10:18:31</time>
      </trkpt>
      <trkpt lat="37.05591" lon="-3.33086">
        <ele>3126.4</ele>
        <time>2021-08-06 10:18:32</time>
      </trkpt>
      <trkpt lat="37.05591" lon="-3.33085">
        <ele>3126.6</ele>
        <time>2021-08-06 10:18:33</time>
      </trkpt>
      <trkpt lat="37.0559" lon="-3.33085">
        <ele>3126.4</ele>
        <time>2021-08-06 10:18:34</time>
      </trkpt>
      <trkpt lat="37.0559" lon="-3.33085">
        <ele>3126.4</ele>
        <time>2021-08-06 10:18:35</time>
      </trkpt>
      <trkpt lat="37.05589" lon="-3.33085">
        <ele>3126.2</ele>
        <time>2021-08-06 10:18:36</time>
      </trkpt>
      <trkpt lat="37.05589" lon="-3.33085">
        <ele>3125.8</ele>
        <time>2021-08-06 10:18:37</time>
      </trkpt>
      <trkpt lat="37.05589" lon="-3.33085">
        <ele>3125.4</ele>
        <time>2021-08-06 10:18:38</time>
      </trkpt>
      <trkpt lat="37.05589" lon="-3.33084">
        <ele>3125.2</ele>
        <time>2021-08-06 10:18:39</time>
      </trkpt>
      <trkpt lat="37.05589" lon="-3.33084">
        <ele>3125</ele>
        <time>2021-08-06 10:18:40</time>
      </trkpt>
      <trkpt lat="37.05589" lon="-3.33085">
        <ele>3125.2</ele>
        <time>2021-08-06 10:18:41</time>
      </trkpt>
      <trkpt lat="37.05589" lon="-3.33084">
        <ele>3125.2</ele>
        <time>2021-08-06 10:18:42</time>
      </trkpt>
      <trkpt lat="37.05589" lon="-3.33084">
        <ele>3125.2</ele>
        <time>2021-08-06 10:18:43</time>
      </trkpt>
      <trkpt lat="37.05589" lon="-3.33083">
        <ele>3125.4</ele>
        <time>2021-08-06 10:18:44</time>
      </trkpt>
      <trkpt lat="37.0559" lon="-3.33083">
        <ele>3125.4</ele>
        <time>2021-08-06 10:18:45</time>
      </trkpt>
      <trkpt lat="37.0559" lon="-3.33083">
        <ele>3125.6</ele>
        <time>2021-08-06 10:18:46</time>
      </trkpt>
      <trkpt lat="37.0559" lon="-3.33082">
        <ele>3125.6</ele>
        <time>2021-08-06 10:18:47</time>
      </trkpt>
      <trkpt lat="37.0559" lon="-3.33082">
        <ele>3125.8</ele>
        <time>2021-08-06 10:18:48</time>
      </trkpt>
      <trkpt lat="37.0559" lon="-3.33081">
        <ele>3126</ele>
        <time>2021-08-06 10:18:49</time>
      </trkpt>
      <trkpt lat="37.05591" lon="-3.33081">
        <ele>3126</ele>
        <time>2021-08-06 10:18:50</time>
      </trkpt>
      <trkpt lat="37.05591" lon="-3.33081">
        <ele>3126</ele>
        <time>2021-08-06 10:18:51</time>
      </trkpt>
      <trkpt lat="37.05591" lon="-3.33081">
        <ele>3125.8</ele>
        <time>2021-08-06 10:18:52</time>
      </trkpt>
      <trkpt lat="37.0559" lon="-3.3308">
        <ele>3125.8</ele>
        <time>2021-08-06 10:18:53</time>
      </trkpt>
      <trkpt lat="37.0559" lon="-3.33078">
        <ele>3125.8</ele>
        <time>2021-08-06 10:18:54</time>
      </trkpt>
      <trkpt lat="37.0559" lon="-3.33078">
        <ele>3125.6</ele>
        <time>2021-08-06 10:18:55</time>
      </trkpt>
      <trkpt lat="37.0559" lon="-3.33078">
        <ele>3125.4</ele>
        <time>2021-08-06 10:18:56</time>
      </trkpt>
      <trkpt lat="37.0559" lon="-3.33078">
        <ele>3125.4</ele>
        <time>2021-08-06 10:18:57</time>
      </trkpt>
      <trkpt lat="37.05591" lon="-3.33079">
        <ele>3125.2</ele>
        <time>2021-08-06 10:18:58</time>
      </trkpt>
      <trkpt lat="37.05591" lon="-3.33079">
        <ele>3125</ele>
        <time>2021-08-06 10:18:59</time>
      </trkpt>
      <trkpt lat="37.05591" lon="-3.33079">
        <ele>3124.8</ele>
        <time>2021-08-06 10:19:00</time>
      </trkpt>
      <trkpt lat="37.05591" lon="-3.33079">
        <ele>3124.8</ele>
        <time>2021-08-06 10:19:01</time>
      </trkpt>
      <trkpt lat="37.05591" lon="-3.33079">
        <ele>3124.8</ele>
        <time>2021-08-06 10:19:02</time>
      </trkpt>
      <trkpt lat="37.05591" lon="-3.33078">
        <ele>3124.6</ele>
        <time>2021-08-06 10:19:03</time>
      </trkpt>
      <trkpt lat="37.05591" lon="-3.33078">
        <ele>3124.6</ele>
        <time>2021-08-06 10:19:04</time>
      </trkpt>
      <trkpt lat="37.05592" lon="-3.33077">
        <ele>3124.4</ele>
        <time>2021-08-06 10:19:05</time>
      </trkpt>
      <trkpt lat="37.05592" lon="-3.33076">
        <ele>3124</ele>
        <time>2021-08-06 10:19:06</time>
      </trkpt>
      <trkpt lat="37.05592" lon="-3.33076">
        <ele>3124</ele>
        <time>2021-08-06 10:19:07</time>
      </trkpt>
      <trkpt lat="37.05591" lon="-3.33076">
        <ele>3124</ele>
        <time>2021-08-06 10:19:08</time>
      </trkpt>
      <trkpt lat="37.05591" lon="-3.33075">
        <ele>3123.8</ele>
        <time>2021-08-06 10:19:09</time>
      </trkpt>
      <trkpt lat="37.05591" lon="-3.33075">
        <ele>3124.2</ele>
        <time>2021-08-06 10:19:10</time>
      </trkpt>
      <trkpt lat="37.05591" lon="-3.33075">
        <ele>3124</ele>
        <time>2021-08-06 10:19:11</time>
      </trkpt>
      <trkpt lat="37.0559" lon="-3.33075">
        <ele>3124.2</ele>
        <time>2021-08-06 10:19:12</time>
      </trkpt>
      <trkpt lat="37.0559" lon="-3.33076">
        <ele>3124.4</ele>
        <time>2021-08-06 10:19:13</time>
      </trkpt>
      <trkpt lat="37.0559" lon="-3.33076">
        <ele>3124.4</ele>
        <time>2021-08-06 10:19:14</time>
      </trkpt>
      <trkpt lat="37.05589" lon="-3.33077">
        <ele>3124.8</ele>
        <time>2021-08-06 10:19:15</time>
      </trkpt>
      <trkpt lat="37.05589" lon="-3.33078">
        <ele>3125</ele>
        <time>2021-08-06 10:19:16</time>
      </trkpt>
      <trkpt lat="37.05588" lon="-3.33078">
        <ele>3125.8</ele>
        <time>2021-08-06 10:19:17</time>
      </trkpt>
      <trkpt lat="37.05588" lon="-3.33079">
        <ele>3125.8</ele>
        <time>2021-08-06 10:19:18</time>
      </trkpt>
      <trkpt lat="37.05588" lon="-3.3308">
        <ele>3125.8</ele>
        <time>2021-08-06 10:19:19</time>
      </trkpt>
      <trkpt lat="37.05588" lon="-3.33081">
        <ele>3125.8</ele>
        <time>2021-08-06 10:19:20</time>
      </trkpt>
      <trkpt lat="37.05588" lon="-3.33082">
        <ele>3125.6</ele>
        <time>2021-08-06 10:19:21</time>
      </trkpt>
      <trkpt lat="37.05587" lon="-3.33083">
        <ele>3125.2</ele>
        <time>2021-08-06 10:19:22</time>
      </trkpt>
      <trkpt lat="37.05587" lon="-3.33083">
        <ele>3125</ele>
        <time>2021-08-06 10:19:23</time>
      </trkpt>
      <trkpt lat="37.05587" lon="-3.33084">
        <ele>3124.8</ele>
        <time>2021-08-06 10:19:24</time>
      </trkpt>
      <trkpt lat="37.05587" lon="-3.33085">
        <ele>3124.8</ele>
        <time>2021-08-06 10:19:25</time>
      </trkpt>
      <trkpt lat="37.05587" lon="-3.33085">
        <ele>3124.8</ele>
        <time>2021-08-06 10:19:26</time>
      </trkpt>
      <trkpt lat="37.05587" lon="-3.33086">
        <ele>3124.6</ele>
        <time>2021-08-06 10:19:27</time>
      </trkpt>
      <trkpt lat="37.05587" lon="-3.33087">
        <ele>3124.6</ele>
        <time>2021-08-06 10:19:28</time>
      </trkpt>
      <trkpt lat="37.05587" lon="-3.33087">
        <ele>3124.6</ele>
        <time>2021-08-06 10:19:29</time>
      </trkpt>
      <trkpt lat="37.05587" lon="-3.33087">
        <ele>3126.6</ele>
        <time>2021-08-06 10:19:30</time>
      </trkpt>
      <trkpt lat="37.05587" lon="-3.33087">
        <ele>3126.6</ele>
        <time>2021-08-06 10:19:31</time>
      </trkpt>
      <trkpt lat="37.05587" lon="-3.33087">
        <ele>3126.6</ele>
        <time>2021-08-06 10:19:32</time>
      </trkpt>
      <trkpt lat="37.05587" lon="-3.33088">
        <ele>3126.4</ele>
        <time>2021-08-06 10:19:33</time>
      </trkpt>
      <trkpt lat="37.05587" lon="-3.33088">
        <ele>3126.2</ele>
        <time>2021-08-06 10:19:34</time>
      </trkpt>
      <trkpt lat="37.05587" lon="-3.33088">
        <ele>3126</ele>
        <time>2021-08-06 10:19:35</time>
      </trkpt>
      <trkpt lat="37.0559" lon="-3.33086">
        <ele>3126</ele>
        <time>2021-08-06 10:19:36</time>
      </trkpt>
      <trkpt lat="37.0559" lon="-3.33086">
        <ele>3126.4</ele>
        <time>2021-08-06 10:19:37</time>
      </trkpt>
      <trkpt lat="37.05593" lon="-3.33084">
        <ele>3126.4</ele>
        <time>2021-08-06 10:19:38</time>
      </trkpt>
      <trkpt lat="37.05596" lon="-3.33082">
        <ele>3126.4</ele>
        <time>2021-08-06 10:19:39</time>
      </trkpt>
      <trkpt lat="37.05598" lon="-3.3308">
        <ele>3126.4</ele>
        <time>2021-08-06 10:19:40</time>
      </trkpt>
      <trkpt lat="37.05598" lon="-3.33079">
        <ele>3126.4</ele>
        <time>2021-08-06 10:19:41</time>
      </trkpt>
      <trkpt lat="37.05599" lon="-3.33078">
        <ele>3126.4</ele>
        <time>2021-08-06 10:19:42</time>
      </trkpt>
      <trkpt lat="37.056" lon="-3.33078">
        <ele>3126.6</ele>
        <time>2021-08-06 10:19:43</time>
      </trkpt>
      <trkpt lat="37.056" lon="-3.33077">
        <ele>3126.8</ele>
        <time>2021-08-06 10:19:44</time>
      </trkpt>
      <trkpt lat="37.056" lon="-3.33077">
        <ele>3126.8</ele>
        <time>2021-08-06 10:19:45</time>
      </trkpt>
      <trkpt lat="37.056" lon="-3.33075">
        <ele>3126.8</ele>
        <time>2021-08-06 10:19:46</time>
      </trkpt>
      <trkpt lat="37.05601" lon="-3.33074">
        <ele>3126.8</ele>
        <time>2021-08-06 10:19:47</time>
      </trkpt>
      <trkpt lat="37.05601" lon="-3.33074">
        <ele>3126.8</ele>
        <time>2021-08-06 10:19:48</time>
      </trkpt>
      <trkpt lat="37.05601" lon="-3.33073">
        <ele>3126.8</ele>
        <time>2021-08-06 10:19:49</time>
      </trkpt>
      <trkpt lat="37.05601" lon="-3.33073">
        <ele>3126.6</ele>
        <time>2021-08-06 10:19:50</time>
      </trkpt>
      <trkpt lat="37.056" lon="-3.33074">
        <ele>3126.6</ele>
        <time>2021-08-06 10:19:51</time>
      </trkpt>
      <trkpt lat="37.05598" lon="-3.33074">
        <ele>3126.6</ele>
        <time>2021-08-06 10:19:52</time>
      </trkpt>
      <trkpt lat="37.05597" lon="-3.33075">
        <ele>3126.6</ele>
        <time>2021-08-06 10:19:53</time>
      </trkpt>
      <trkpt lat="37.05597" lon="-3.33076">
        <ele>3126.2</ele>
        <time>2021-08-06 10:19:54</time>
      </trkpt>
      <trkpt lat="37.05597" lon="-3.33076">
        <ele>3126</ele>
        <time>2021-08-06 10:19:55</time>
      </trkpt>
      <trkpt lat="37.05597" lon="-3.33076">
        <ele>3126.2</ele>
        <time>2021-08-06 10:19:56</time>
      </trkpt>
      <trkpt lat="37.05596" lon="-3.33076">
        <ele>3126.4</ele>
        <time>2021-08-06 10:19:57</time>
      </trkpt>
      <trkpt lat="37.05596" lon="-3.33075">
        <ele>3126.2</ele>
        <time>2021-08-06 10:19:58</time>
      </trkpt>
      <trkpt lat="37.05596" lon="-3.33075">
        <ele>3126</ele>
        <time>2021-08-06 10:19:59</time>
      </trkpt>
      <trkpt lat="37.05596" lon="-3.33075">
        <ele>3125.8</ele>
        <time>2021-08-06 10:20:00</time>
      </trkpt>
      <trkpt lat="37.05595" lon="-3.33075">
        <ele>3125.8</ele>
        <time>2021-08-06 10:20:01</time>
      </trkpt>
      <trkpt lat="37.05594" lon="-3.33076">
        <ele>3125.8</ele>
        <time>2021-08-06 10:20:02</time>
      </trkpt>
      <trkpt lat="37.05593" lon="-3.33076">
        <ele>3125.8</ele>
        <time>2021-08-06 10:20:03</time>
      </trkpt>
      <trkpt lat="37.05593" lon="-3.33077">
        <ele>3125.8</ele>
        <time>2021-08-06 10:20:04</time>
      </trkpt>
      <trkpt lat="37.05593" lon="-3.33077">
        <ele>3125.8</ele>
        <time>2021-08-06 10:20:05</time>
      </trkpt>
      <trkpt lat="37.05593" lon="-3.33077">
        <ele>3125.8</ele>
        <time>2021-08-06 10:20:06</time>
      </trkpt>
      <trkpt lat="37.05593" lon="-3.33077">
        <ele>3126</ele>
        <time>2021-08-06 10:20:07</time>
      </trkpt>
      <trkpt lat="37.05593" lon="-3.33076">
        <ele>3126.2</ele>
        <time>2021-08-06 10:20:08</time>
      </trkpt>
      <trkpt lat="37.05592" lon="-3.33076">
        <ele>3126.2</ele>
        <time>2021-08-06 10:20:09</time>
      </trkpt>
      <trkpt lat="37.05592" lon="-3.33076">
        <ele>3126.4</ele>
        <time>2021-08-06 10:20:10</time>
      </trkpt>
      <trkpt lat="37.05592" lon="-3.33077">
        <ele>3126.4</ele>
        <time>2021-08-06 10:20:11</time>
      </trkpt>
      <trkpt lat="37.05592" lon="-3.33077">
        <ele>3126.2</ele>
        <time>2021-08-06 10:20:12</time>
      </trkpt>
      <trkpt lat="37.05592" lon="-3.33077">
        <ele>3126.2</ele>
        <time>2021-08-06 10:20:13</time>
      </trkpt>
      <trkpt lat="37.05592" lon="-3.33078">
        <ele>3126.2</ele>
        <time>2021-08-06 10:20:14</time>
      </trkpt>
      <trkpt lat="37.05592" lon="-3.33078">
        <ele>3126.2</ele>
        <time>2021-08-06 10:20:15</time>
      </trkpt>
      <trkpt lat="37.05591" lon="-3.33078">
        <ele>3126</ele>
        <time>2021-08-06 10:20:16</time>
      </trkpt>
      <trkpt lat="37.05591" lon="-3.33078">
        <ele>3126</ele>
        <time>2021-08-06 10:20:17</time>
      </trkpt>
      <trkpt lat="37.05591" lon="-3.33078">
        <ele>3126</ele>
        <time>2021-08-06 10:20:18</time>
      </trkpt>
      <trkpt lat="37.05591" lon="-3.33078">
        <ele>3126</ele>
        <time>2021-08-06 10:20:19</time>
      </trkpt>
      <trkpt lat="37.05592" lon="-3.33078">
        <ele>3126</ele>
        <time>2021-08-06 10:20:20</time>
      </trkpt>
      <trkpt lat="37.05592" lon="-3.33078">
        <ele>3125.8</ele>
        <time>2021-08-06 10:20:21</time>
      </trkpt>
      <trkpt lat="37.05593" lon="-3.33077">
        <ele>3125.6</ele>
        <time>2021-08-06 10:20:22</time>
      </trkpt>
      <trkpt lat="37.05593" lon="-3.33077">
        <ele>3125.6</ele>
        <time>2021-08-06 10:20:23</time>
      </trkpt>
      <trkpt lat="37.05594" lon="-3.33077">
        <ele>3125.6</ele>
        <time>2021-08-06 10:20:24</time>
      </trkpt>
      <trkpt lat="37.05594" lon="-3.33077">
        <ele>3125.8</ele>
        <time>2021-08-06 10:20:25</time>
      </trkpt>
      <trkpt lat="37.05594" lon="-3.33077">
        <ele>3125.8</ele>
        <time>2021-08-06 10:20:26</time>
      </trkpt>
      <trkpt lat="37.05594" lon="-3.33077">
        <ele>3125.8</ele>
        <time>2021-08-06 10:20:27</time>
      </trkpt>
      <trkpt lat="37.05594" lon="-3.33077">
        <ele>3125.8</ele>
        <time>2021-08-06 10:20:28</time>
      </trkpt>
      <trkpt lat="37.05594" lon="-3.33076">
        <ele>3125.6</ele>
        <time>2021-08-06 10:20:29</time>
      </trkpt>
      <trkpt lat="37.05594" lon="-3.33076">
        <ele>3125.4</ele>
        <time>2021-08-06 10:20:30</time>
      </trkpt>
      <trkpt lat="37.05597" lon="-3.33074">
        <ele>3125.2</ele>
        <time>2021-08-06 10:20:31</time>
      </trkpt>
      <trkpt lat="37.05597" lon="-3.33073">
        <ele>3126.6</ele>
        <time>2021-08-06 10:20:32</time>
      </trkpt>
      <trkpt lat="37.05598" lon="-3.33072">
        <ele>3126.6</ele>
        <time>2021-08-06 10:20:33</time>
      </trkpt>
      <trkpt lat="37.05598" lon="-3.33072">
        <ele>3126.6</ele>
        <time>2021-08-06 10:20:34</time>
      </trkpt>
      <trkpt lat="37.05597" lon="-3.33072">
        <ele>3126.4</ele>
        <time>2021-08-06 10:20:35</time>
      </trkpt>
      <trkpt lat="37.05597" lon="-3.33071">
        <ele>3126.2</ele>
        <time>2021-08-06 10:20:36</time>
      </trkpt>
      <trkpt lat="37.05597" lon="-3.33071">
        <ele>3125.8</ele>
        <time>2021-08-06 10:20:37</time>
      </trkpt>
      <trkpt lat="37.05597" lon="-3.3307">
        <ele>3125.6</ele>
        <time>2021-08-06 10:20:38</time>
      </trkpt>
      <trkpt lat="37.05597" lon="-3.3307">
        <ele>3125.2</ele>
        <time>2021-08-06 10:20:39</time>
      </trkpt>
      <trkpt lat="37.05597" lon="-3.33068">
        <ele>3124.8</ele>
        <time>2021-08-06 10:20:40</time>
      </trkpt>
      <trkpt lat="37.05598" lon="-3.33067">
        <ele>3124.4</ele>
        <time>2021-08-06 10:20:41</time>
      </trkpt>
      <trkpt lat="37.05598" lon="-3.33067">
        <ele>3124.4</ele>
        <time>2021-08-06 10:20:42</time>
      </trkpt>
      <trkpt lat="37.05598" lon="-3.33066">
        <ele>3124.2</ele>
        <time>2021-08-06 10:20:43</time>
      </trkpt>
      <trkpt lat="37.05596" lon="-3.33068">
        <ele>3124.2</ele>
        <time>2021-08-06 10:20:44</time>
      </trkpt>
      <trkpt lat="37.05595" lon="-3.33068">
        <ele>3124.2</ele>
        <time>2021-08-06 10:20:45</time>
      </trkpt>
      <trkpt lat="37.05594" lon="-3.3307">
        <ele>3124</ele>
        <time>2021-08-06 10:20:46</time>
      </trkpt>
      <trkpt lat="37.05593" lon="-3.3307">
        <ele>3124</ele>
        <time>2021-08-06 10:20:47</time>
      </trkpt>
      <trkpt lat="37.05593" lon="-3.33071">
        <ele>3124</ele>
        <time>2021-08-06 10:20:48</time>
      </trkpt>
      <trkpt lat="37.05593" lon="-3.3307">
        <ele>3124</ele>
        <time>2021-08-06 10:20:49</time>
      </trkpt>
      <trkpt lat="37.05593" lon="-3.3307">
        <ele>3123.8</ele>
        <time>2021-08-06 10:20:50</time>
      </trkpt>
      <trkpt lat="37.05593" lon="-3.33069">
        <ele>3123.8</ele>
        <time>2021-08-06 10:20:51</time>
      </trkpt>
      <trkpt lat="37.05593" lon="-3.33068">
        <ele>3123.6</ele>
        <time>2021-08-06 10:20:52</time>
      </trkpt>
      <trkpt lat="37.05593" lon="-3.33068">
        <ele>3123.4</ele>
        <time>2021-08-06 10:20:53</time>
      </trkpt>
      <trkpt lat="37.05593" lon="-3.33067">
        <ele>3123.2</ele>
        <time>2021-08-06 10:20:54</time>
      </trkpt>
      <trkpt lat="37.05593" lon="-3.33067">
        <ele>3123</ele>
        <time>2021-08-06 10:20:55</time>
      </trkpt>
      <trkpt lat="37.05594" lon="-3.33065">
        <ele>3122.8</ele>
        <time>2021-08-06 10:20:56</time>
      </trkpt>
      <trkpt lat="37.05595" lon="-3.33064">
        <ele>3122.6</ele>
        <time>2021-08-06 10:20:57</time>
      </trkpt>
      <trkpt lat="37.05595" lon="-3.33064">
        <ele>3122.4</ele>
        <time>2021-08-06 10:20:58</time>
      </trkpt>
      <trkpt lat="37.05595" lon="-3.33063">
        <ele>3122</ele>
        <time>2021-08-06 10:20:59</time>
      </trkpt>
      <trkpt lat="37.05595" lon="-3.33063">
        <ele>3121.8</ele>
        <time>2021-08-06 10:21:00</time>
      </trkpt>
      <trkpt lat="37.05596" lon="-3.33062">
        <ele>3121.8</ele>
        <time>2021-08-06 10:21:01</time>
      </trkpt>
      <trkpt lat="37.05597" lon="-3.33062">
        <ele>3121.6</ele>
        <time>2021-08-06 10:21:02</time>
      </trkpt>
      <trkpt lat="37.05597" lon="-3.33061">
        <ele>3121.4</ele>
        <time>2021-08-06 10:21:03</time>
      </trkpt>
      <trkpt lat="37.05598" lon="-3.33061">
        <ele>3121.4</ele>
        <time>2021-08-06 10:21:04</time>
      </trkpt>
      <trkpt lat="37.05599" lon="-3.3306">
        <ele>3121.2</ele>
        <time>2021-08-06 10:21:05</time>
      </trkpt>
      <trkpt lat="37.05599" lon="-3.3306">
        <ele>3121</ele>
        <time>2021-08-06 10:21:06</time>
      </trkpt>
      <trkpt lat="37.05599" lon="-3.3306">
        <ele>3120.8</ele>
        <time>2021-08-06 10:21:07</time>
      </trkpt>
      <trkpt lat="37.056" lon="-3.3306">
        <ele>3120.6</ele>
        <time>2021-08-06 10:21:08</time>
      </trkpt>
      <trkpt lat="37.056" lon="-3.3306">
        <ele>3120.6</ele>
        <time>2021-08-06 10:21:09</time>
      </trkpt>
      <trkpt lat="37.05601" lon="-3.3306">
        <ele>3120.4</ele>
        <time>2021-08-06 10:21:10</time>
      </trkpt>
      <trkpt lat="37.05601" lon="-3.33061">
        <ele>3120.4</ele>
        <time>2021-08-06 10:21:11</time>
      </trkpt>
      <trkpt lat="37.05602" lon="-3.33061">
        <ele>3120.2</ele>
        <time>2021-08-06 10:21:12</time>
      </trkpt>
      <trkpt lat="37.05601" lon="-3.33062">
        <ele>3120.2</ele>
        <time>2021-08-06 10:21:13</time>
      </trkpt>
      <trkpt lat="37.05601" lon="-3.33062">
        <ele>3120.2</ele>
        <time>2021-08-06 10:21:14</time>
      </trkpt>
      <trkpt lat="37.05602" lon="-3.33062">
        <ele>3120.2</ele>
        <time>2021-08-06 10:21:15</time>
      </trkpt>
      <trkpt lat="37.05602" lon="-3.33062">
        <ele>3120.2</ele>
        <time>2021-08-06 10:21:16</time>
      </trkpt>
      <trkpt lat="37.05601" lon="-3.33061">
        <ele>3120.6</ele>
        <time>2021-08-06 10:21:17</time>
      </trkpt>
      <trkpt lat="37.056" lon="-3.33061">
        <ele>3120.8</ele>
        <time>2021-08-06 10:21:18</time>
      </trkpt>
      <trkpt lat="37.05599" lon="-3.3306">
        <ele>3121</ele>
        <time>2021-08-06 10:21:19</time>
      </trkpt>
      <trkpt lat="37.05598" lon="-3.3306">
        <ele>3121.6</ele>
        <time>2021-08-06 10:21:20</time>
      </trkpt>
      <trkpt lat="37.05598" lon="-3.33059">
        <ele>3121.6</ele>
        <time>2021-08-06 10:21:21</time>
      </trkpt>
      <trkpt lat="37.05598" lon="-3.33059">
        <ele>3120.8</ele>
        <time>2021-08-06 10:21:22</time>
      </trkpt>
      <trkpt lat="37.05597" lon="-3.33059">
        <ele>3120.8</ele>
        <time>2021-08-06 10:21:23</time>
      </trkpt>
      <trkpt lat="37.05597" lon="-3.33059">
        <ele>3120.8</ele>
        <time>2021-08-06 10:21:24</time>
      </trkpt>
      <trkpt lat="37.05597" lon="-3.33059">
        <ele>3120.8</ele>
        <time>2021-08-06 10:21:25</time>
      </trkpt>
      <trkpt lat="37.05597" lon="-3.33058">
        <ele>3120.6</ele>
        <time>2021-08-06 10:21:26</time>
      </trkpt>
      <trkpt lat="37.05599" lon="-3.33056">
        <ele>3120.6</ele>
        <time>2021-08-06 10:21:27</time>
      </trkpt>
      <trkpt lat="37.056" lon="-3.33055">
        <ele>3120.4</ele>
        <time>2021-08-06 10:21:28</time>
      </trkpt>
      <trkpt lat="37.056" lon="-3.33055">
        <ele>3120.2</ele>
        <time>2021-08-06 10:21:29</time>
      </trkpt>
      <trkpt lat="37.056" lon="-3.33055">
        <ele>3119.8</ele>
        <time>2021-08-06 10:21:30</time>
      </trkpt>
      <trkpt lat="37.05601" lon="-3.33054">
        <ele>3119.6</ele>
        <time>2021-08-06 10:21:31</time>
      </trkpt>
      <trkpt lat="37.05601" lon="-3.33054">
        <ele>3119.6</ele>
        <time>2021-08-06 10:21:32</time>
      </trkpt>
      <trkpt lat="37.05602" lon="-3.33053">
        <ele>3119.4</ele>
        <time>2021-08-06 10:21:33</time>
      </trkpt>
      <trkpt lat="37.05603" lon="-3.33052">
        <ele>3119.2</ele>
        <time>2021-08-06 10:21:34</time>
      </trkpt>
      <trkpt lat="37.05604" lon="-3.33051">
        <ele>3119</ele>
        <time>2021-08-06 10:21:35</time>
      </trkpt>
      <trkpt lat="37.05605" lon="-3.33051">
        <ele>3119</ele>
        <time>2021-08-06 10:21:36</time>
      </trkpt>
      <trkpt lat="37.05605" lon="-3.33051">
        <ele>3118.8</ele>
        <time>2021-08-06 10:21:37</time>
      </trkpt>
      <trkpt lat="37.05606" lon="-3.33051">
        <ele>3118.8</ele>
        <time>2021-08-06 10:21:38</time>
      </trkpt>
      <trkpt lat="37.05606" lon="-3.3305">
        <ele>3118.8</ele>
        <time>2021-08-06 10:21:39</time>
      </trkpt>
      <trkpt lat="37.05606" lon="-3.33051">
        <ele>3118.6</ele>
        <time>2021-08-06 10:21:40</time>
      </trkpt>
      <trkpt lat="37.05606" lon="-3.3305">
        <ele>3118.6</ele>
        <time>2021-08-06 10:21:41</time>
      </trkpt>
      <trkpt lat="37.05605" lon="-3.33051">
        <ele>3118.6</ele>
        <time>2021-08-06 10:21:42</time>
      </trkpt>
      <trkpt lat="37.05605" lon="-3.33051">
        <ele>3118.6</ele>
        <time>2021-08-06 10:21:43</time>
      </trkpt>
      <trkpt lat="37.05605" lon="-3.33051">
        <ele>3118.6</ele>
        <time>2021-08-06 10:21:44</time>
      </trkpt>
      <trkpt lat="37.05605" lon="-3.33051">
        <ele>3118.4</ele>
        <time>2021-08-06 10:21:45</time>
      </trkpt>
      <trkpt lat="37.05605" lon="-3.33051">
        <ele>3118.4</ele>
        <time>2021-08-06 10:21:46</time>
      </trkpt>
      <trkpt lat="37.05606" lon="-3.3305">
        <ele>3118.2</ele>
        <time>2021-08-06 10:21:47</time>
      </trkpt>
      <trkpt lat="37.05607" lon="-3.33049">
        <ele>3118.2</ele>
        <time>2021-08-06 10:21:48</time>
      </trkpt>
      <trkpt lat="37.05607" lon="-3.33049">
        <ele>3118.2</ele>
        <time>2021-08-06 10:21:49</time>
      </trkpt>
      <trkpt lat="37.05608" lon="-3.33047">
        <ele>3118.2</ele>
        <time>2021-08-06 10:21:50</time>
      </trkpt>
      <trkpt lat="37.05608" lon="-3.33045">
        <ele>3118</ele>
        <time>2021-08-06 10:21:51</time>
      </trkpt>
      <trkpt lat="37.05608" lon="-3.33043">
        <ele>3118</ele>
        <time>2021-08-06 10:21:52</time>
      </trkpt>
      <trkpt lat="37.05609" lon="-3.33042">
        <ele>3117.8</ele>
        <time>2021-08-06 10:21:53</time>
      </trkpt>
      <trkpt lat="37.05609" lon="-3.33041">
        <ele>3117.4</ele>
        <time>2021-08-06 10:21:54</time>
      </trkpt>
      <trkpt lat="37.05622" lon="-3.33182">
        <ele>3110.4</ele>
        <time>2021-08-06 10:21:55</time>
      </trkpt>
      <trkpt lat="37.05625" lon="-3.33206">
        <ele>3110</ele>
        <time>2021-08-06 10:21:56</time>
      </trkpt>
      <trkpt lat="37.05623" lon="-3.33193">
        <ele>3110</ele>
        <time>2021-08-06 10:21:57</time>
      </trkpt>
      <trkpt lat="37.05622" lon="-3.33188">
        <ele>3109.8</ele>
        <time>2021-08-06 10:21:58</time>
      </trkpt>
      <trkpt lat="37.05622" lon="-3.33183">
        <ele>3109.8</ele>
        <time>2021-08-06 10:21:59</time>
      </trkpt>
      <trkpt lat="37.05621" lon="-3.33174">
        <ele>3109.8</ele>
        <time>2021-08-06 10:22:00</time>
      </trkpt>
      <trkpt lat="37.05622" lon="-3.33172">
        <ele>3109.8</ele>
        <time>2021-08-06 10:22:01</time>
      </trkpt>
      <trkpt lat="37.05622" lon="-3.33171">
        <ele>3109.8</ele>
        <time>2021-08-06 10:22:02</time>
      </trkpt>
      <trkpt lat="37.05623" lon="-3.33161">
        <ele>3109</ele>
        <time>2021-08-06 10:22:03</time>
      </trkpt>
      <trkpt lat="37.05622" lon="-3.33152">
        <ele>3109</ele>
        <time>2021-08-06 10:22:04</time>
      </trkpt>
      <trkpt lat="37.05621" lon="-3.33142">
        <ele>3108.8</ele>
        <time>2021-08-06 10:22:05</time>
      </trkpt>
      <trkpt lat="37.05621" lon="-3.33127">
        <ele>3108.4</ele>
        <time>2021-08-06 10:22:06</time>
      </trkpt>
      <trkpt lat="37.05621" lon="-3.33125">
        <ele>3108.2</ele>
        <time>2021-08-06 10:22:07</time>
      </trkpt>
      <trkpt lat="37.0562" lon="-3.33116">
        <ele>3108</ele>
        <time>2021-08-06 10:22:08</time>
      </trkpt>
      <trkpt lat="37.05619" lon="-3.3311">
        <ele>3107.8</ele>
        <time>2021-08-06 10:22:09</time>
      </trkpt>
      <trkpt lat="37.05618" lon="-3.33106">
        <ele>3107.6</ele>
        <time>2021-08-06 10:22:10</time>
      </trkpt>
      <trkpt lat="37.05618" lon="-3.331">
        <ele>3107.6</ele>
        <time>2021-08-06 10:22:11</time>
      </trkpt>
      <trkpt lat="37.05617" lon="-3.33099">
        <ele>3107.6</ele>
        <time>2021-08-06 10:22:12</time>
      </trkpt>
      <trkpt lat="37.05618" lon="-3.33096">
        <ele>3107.6</ele>
        <time>2021-08-06 10:22:13</time>
      </trkpt>
      <trkpt lat="37.05618" lon="-3.33095">
        <ele>3107.6</ele>
        <time>2021-08-06 10:22:14</time>
      </trkpt>
      <trkpt lat="37.05618" lon="-3.33093">
        <ele>3107.6</ele>
        <time>2021-08-06 10:22:15</time>
      </trkpt>
      <trkpt lat="37.05617" lon="-3.33086">
        <ele>3107.6</ele>
        <time>2021-08-06 10:22:16</time>
      </trkpt>
      <trkpt lat="37.05609" lon="-3.33013">
        <ele>3107.4</ele>
        <time>2021-08-06 10:22:17</time>
      </trkpt>
      <trkpt lat="37.05609" lon="-3.33006">
        <ele>3107.4</ele>
        <time>2021-08-06 10:22:18</time>
      </trkpt>
      <trkpt lat="37.05609" lon="-3.33003">
        <ele>3107.2</ele>
        <time>2021-08-06 10:22:19</time>
      </trkpt>
      <trkpt lat="37.05612" lon="-3.33001">
        <ele>3107</ele>
        <time>2021-08-06 10:22:20</time>
      </trkpt>
      <trkpt lat="37.05612" lon="-3.33001">
        <ele>3107</ele>
        <time>2021-08-06 10:22:21</time>
      </trkpt>
      <trkpt lat="37.05614" lon="-3.32999">
        <ele>3107</ele>
        <time>2021-08-06 10:22:22</time>
      </trkpt>
      <trkpt lat="37.05615" lon="-3.32998">
        <ele>3106.8</ele>
        <time>2021-08-06 10:22:23</time>
      </trkpt>
      <trkpt lat="37.05616" lon="-3.32997">
        <ele>3106.8</ele>
        <time>2021-08-06 10:22:24</time>
      </trkpt>
      <trkpt lat="37.05616" lon="-3.32996">
        <ele>3106.8</ele>
        <time>2021-08-06 10:22:25</time>
      </trkpt>
      <trkpt lat="37.05616" lon="-3.32994">
        <ele>3106.8</ele>
        <time>2021-08-06 10:22:26</time>
      </trkpt>
      <trkpt lat="37.05616" lon="-3.32994">
        <ele>3107</ele>
        <time>2021-08-06 10:22:27</time>
      </trkpt>
      <trkpt lat="37.05617" lon="-3.32992">
        <ele>3107</ele>
        <time>2021-08-06 10:22:28</time>
      </trkpt>
      <trkpt lat="37.05617" lon="-3.32992">
        <ele>3107</ele>
        <time>2021-08-06 10:22:29</time>
      </trkpt>
      <trkpt lat="37.05618" lon="-3.32991">
        <ele>3107</ele>
        <time>2021-08-06 10:22:30</time>
      </trkpt>
      <trkpt lat="37.05618" lon="-3.3299">
        <ele>3106.8</ele>
        <time>2021-08-06 10:22:31</time>
      </trkpt>
      <trkpt lat="37.05618" lon="-3.32989">
        <ele>3106.8</ele>
        <time>2021-08-06 10:22:32</time>
      </trkpt>
      <trkpt lat="37.05619" lon="-3.32989">
        <ele>3106.6</ele>
        <time>2021-08-06 10:22:33</time>
      </trkpt>
      <trkpt lat="37.05619" lon="-3.32987">
        <ele>3106.6</ele>
        <time>2021-08-06 10:22:34</time>
      </trkpt>
      <trkpt lat="37.05619" lon="-3.32986">
        <ele>3106.4</ele>
        <time>2021-08-06 10:22:35</time>
      </trkpt>
      <trkpt lat="37.0562" lon="-3.32985">
        <ele>3106.4</ele>
        <time>2021-08-06 10:22:36</time>
      </trkpt>
      <trkpt lat="37.05621" lon="-3.32984">
        <ele>3106.2</ele>
        <time>2021-08-06 10:22:37</time>
      </trkpt>
      <trkpt lat="37.05621" lon="-3.32984">
        <ele>3106</ele>
        <time>2021-08-06 10:22:38</time>
      </trkpt>
      <trkpt lat="37.05621" lon="-3.32984">
        <ele>3106</ele>
        <time>2021-08-06 10:22:39</time>
      </trkpt>
      <trkpt lat="37.05621" lon="-3.32984">
        <ele>3106</ele>
        <time>2021-08-06 10:22:40</time>
      </trkpt>
      <trkpt lat="37.05621" lon="-3.32985">
        <ele>3106</ele>
        <time>2021-08-06 10:22:41</time>
      </trkpt>
      <trkpt lat="37.0562" lon="-3.32986">
        <ele>3106</ele>
        <time>2021-08-06 10:22:42</time>
      </trkpt>
      <trkpt lat="37.05621" lon="-3.32986">
        <ele>3106.2</ele>
        <time>2021-08-06 10:22:43</time>
      </trkpt>
      <trkpt lat="37.0562" lon="-3.32987">
        <ele>3106</ele>
        <time>2021-08-06 10:22:44</time>
      </trkpt>
      <trkpt lat="37.0562" lon="-3.32987">
        <ele>3106</ele>
        <time>2021-08-06 10:22:45</time>
      </trkpt>
      <trkpt lat="37.05621" lon="-3.32987">
        <ele>3105.8</ele>
        <time>2021-08-06 10:22:46</time>
      </trkpt>
      <trkpt lat="37.05621" lon="-3.32987">
        <ele>3105.6</ele>
        <time>2021-08-06 10:22:47</time>
      </trkpt>
      <trkpt lat="37.05622" lon="-3.32986">
        <ele>3105.2</ele>
        <time>2021-08-06 10:22:48</time>
      </trkpt>
      <trkpt lat="37.05621" lon="-3.32986">
        <ele>3105</ele>
        <time>2021-08-06 10:22:49</time>
      </trkpt>
      <trkpt lat="37.05619" lon="-3.32987">
        <ele>3105</ele>
        <time>2021-08-06 10:22:50</time>
      </trkpt>
      <trkpt lat="37.05618" lon="-3.32986">
        <ele>3106.4</ele>
        <time>2021-08-06 10:22:51</time>
      </trkpt>
      <trkpt lat="37.05617" lon="-3.32987">
        <ele>3106.4</ele>
        <time>2021-08-06 10:22:52</time>
      </trkpt>
      <trkpt lat="37.05618" lon="-3.32987">
        <ele>3106.4</ele>
        <time>2021-08-06 10:22:53</time>
      </trkpt>
      <trkpt lat="37.05617" lon="-3.32987">
        <ele>3106.4</ele>
        <time>2021-08-06 10:22:54</time>
      </trkpt>
      <trkpt lat="37.05617" lon="-3.32987">
        <ele>3106.2</ele>
        <time>2021-08-06 10:22:55</time>
      </trkpt>
      <trkpt lat="37.05617" lon="-3.32987">
        <ele>3106</ele>
        <time>2021-08-06 10:22:56</time>
      </trkpt>
      <trkpt lat="37.05616" lon="-3.32987">
        <ele>3105.6</ele>
        <time>2021-08-06 10:22:57</time>
      </trkpt>
      <trkpt lat="37.05616" lon="-3.32987">
        <ele>3105.4</ele>
        <time>2021-08-06 10:22:58</time>
      </trkpt>
      <trkpt lat="37.05616" lon="-3.32986">
        <ele>3105.4</ele>
        <time>2021-08-06 10:22:59</time>
      </trkpt>
      <trkpt lat="37.05615" lon="-3.32985">
        <ele>3105.4</ele>
        <time>2021-08-06 10:23:00</time>
      </trkpt>
      <trkpt lat="37.05615" lon="-3.32984">
        <ele>3105.4</ele>
        <time>2021-08-06 10:23:01</time>
      </trkpt>
      <trkpt lat="37.05615" lon="-3.32983">
        <ele>3105.2</ele>
        <time>2021-08-06 10:23:02</time>
      </trkpt>
      <trkpt lat="37.05614" lon="-3.32984">
        <ele>3105</ele>
        <time>2021-08-06 10:23:03</time>
      </trkpt>
      <trkpt lat="37.05614" lon="-3.32984">
        <ele>3104.8</ele>
        <time>2021-08-06 10:23:04</time>
      </trkpt>
      <trkpt lat="37.05614" lon="-3.32985">
        <ele>3104.8</ele>
        <time>2021-08-06 10:23:05</time>
      </trkpt>
      <trkpt lat="37.05614" lon="-3.32986">
        <ele>3104.6</ele>
        <time>2021-08-06 10:23:06</time>
      </trkpt>
      <trkpt lat="37.05614" lon="-3.32986">
        <ele>3104.4</ele>
        <time>2021-08-06 10:23:07</time>
      </trkpt>
      <trkpt lat="37.05614" lon="-3.32986">
        <ele>3104.2</ele>
        <time>2021-08-06 10:23:08</time>
      </trkpt>
      <trkpt lat="37.05613" lon="-3.32987">
        <ele>3104.2</ele>
        <time>2021-08-06 10:23:09</time>
      </trkpt>
      <trkpt lat="37.05612" lon="-3.32987">
        <ele>3104.2</ele>
        <time>2021-08-06 10:23:10</time>
      </trkpt>
      <trkpt lat="37.05612" lon="-3.32987">
        <ele>3104</ele>
        <time>2021-08-06 10:23:11</time>
      </trkpt>
      <trkpt lat="37.05612" lon="-3.32987">
        <ele>3104</ele>
        <time>2021-08-06 10:23:12</time>
      </trkpt>
      <trkpt lat="37.05612" lon="-3.32987">
        <ele>3104.2</ele>
        <time>2021-08-06 10:23:13</time>
      </trkpt>
      <trkpt lat="37.05612" lon="-3.32986">
        <ele>3104.2</ele>
        <time>2021-08-06 10:23:14</time>
      </trkpt>
      <trkpt lat="37.05617" lon="-3.32981">
        <ele>3104.2</ele>
        <time>2021-08-06 10:23:15</time>
      </trkpt>
      <trkpt lat="37.05618" lon="-3.3298">
        <ele>3104.2</ele>
        <time>2021-08-06 10:23:16</time>
      </trkpt>
      <trkpt lat="37.05619" lon="-3.32979">
        <ele>3104.2</ele>
        <time>2021-08-06 10:23:17</time>
      </trkpt>
      <trkpt lat="37.05619" lon="-3.32978">
        <ele>3104.2</ele>
        <time>2021-08-06 10:23:18</time>
      </trkpt>
      <trkpt lat="37.05618" lon="-3.32979">
        <ele>3104.2</ele>
        <time>2021-08-06 10:23:19</time>
      </trkpt>
      <trkpt lat="37.05617" lon="-3.32979">
        <ele>3104</ele>
        <time>2021-08-06 10:23:20</time>
      </trkpt>
      <trkpt lat="37.05617" lon="-3.3298">
        <ele>3104</ele>
        <time>2021-08-06 10:23:21</time>
      </trkpt>
      <trkpt lat="37.05617" lon="-3.3298">
        <ele>3104</ele>
        <time>2021-08-06 10:23:22</time>
      </trkpt>
      <trkpt lat="37.05616" lon="-3.3298">
        <ele>3103.8</ele>
        <time>2021-08-06 10:23:23</time>
      </trkpt>
      <trkpt lat="37.05616" lon="-3.32979">
        <ele>3103.8</ele>
        <time>2021-08-06 10:23:24</time>
      </trkpt>
      <trkpt lat="37.05616" lon="-3.32977">
        <ele>3103.6</ele>
        <time>2021-08-06 10:23:25</time>
      </trkpt>
      <trkpt lat="37.05616" lon="-3.32975">
        <ele>3103.2</ele>
        <time>2021-08-06 10:23:26</time>
      </trkpt>
      <trkpt lat="37.05616" lon="-3.32973">
        <ele>3103</ele>
        <time>2021-08-06 10:23:27</time>
      </trkpt>
      <trkpt lat="37.05616" lon="-3.32972">
        <ele>3102.8</ele>
        <time>2021-08-06 10:23:28</time>
      </trkpt>
      <trkpt lat="37.05615" lon="-3.32971">
        <ele>3102.4</ele>
        <time>2021-08-06 10:23:29</time>
      </trkpt>
      <trkpt lat="37.05614" lon="-3.3297">
        <ele>3102.2</ele>
        <time>2021-08-06 10:23:30</time>
      </trkpt>
      <trkpt lat="37.05614" lon="-3.32969">
        <ele>3101.8</ele>
        <time>2021-08-06 10:23:31</time>
      </trkpt>
      <trkpt lat="37.05613" lon="-3.32969">
        <ele>3101.6</ele>
        <time>2021-08-06 10:23:32</time>
      </trkpt>
      <trkpt lat="37.05613" lon="-3.32969">
        <ele>3101.4</ele>
        <time>2021-08-06 10:23:33</time>
      </trkpt>
      <trkpt lat="37.05613" lon="-3.32971">
        <ele>3101</ele>
        <time>2021-08-06 10:23:34</time>
      </trkpt>
      <trkpt lat="37.05614" lon="-3.32971">
        <ele>3100.8</ele>
        <time>2021-08-06 10:23:35</time>
      </trkpt>
      <trkpt lat="37.05613" lon="-3.3297">
        <ele>3100.6</ele>
        <time>2021-08-06 10:23:36</time>
      </trkpt>
      <trkpt lat="37.05613" lon="-3.3297">
        <ele>3100.4</ele>
        <time>2021-08-06 10:23:37</time>
      </trkpt>
      <trkpt lat="37.05613" lon="-3.32969">
        <ele>3100.4</ele>
        <time>2021-08-06 10:23:38</time>
      </trkpt>
      <trkpt lat="37.05614" lon="-3.32967">
        <ele>3100.2</ele>
        <time>2021-08-06 10:23:39</time>
      </trkpt>
      <trkpt lat="37.05615" lon="-3.32965">
        <ele>3100</ele>
        <time>2021-08-06 10:23:40</time>
      </trkpt>
      <trkpt lat="37.05616" lon="-3.32964">
        <ele>3100</ele>
        <time>2021-08-06 10:23:41</time>
      </trkpt>
      <trkpt lat="37.05617" lon="-3.32962">
        <ele>3100</ele>
        <time>2021-08-06 10:23:42</time>
      </trkpt>
      <trkpt lat="37.05617" lon="-3.32962">
        <ele>3100</ele>
        <time>2021-08-06 10:23:43</time>
      </trkpt>
      <trkpt lat="37.05617" lon="-3.32961">
        <ele>3100</ele>
        <time>2021-08-06 10:23:44</time>
      </trkpt>
      <trkpt lat="37.05617" lon="-3.3296">
        <ele>3100</ele>
        <time>2021-08-06 10:23:45</time>
      </trkpt>
      <trkpt lat="37.05616" lon="-3.3296">
        <ele>3100</ele>
        <time>2021-08-06 10:23:46</time>
      </trkpt>
      <trkpt lat="37.05616" lon="-3.3296">
        <ele>3100</ele>
        <time>2021-08-06 10:23:47</time>
      </trkpt>
      <trkpt lat="37.05615" lon="-3.32959">
        <ele>3099.8</ele>
        <time>2021-08-06 10:23:48</time>
      </trkpt>
      <trkpt lat="37.05615" lon="-3.32959">
        <ele>3099.8</ele>
        <time>2021-08-06 10:23:49</time>
      </trkpt>
      <trkpt lat="37.05615" lon="-3.32958">
        <ele>3099.6</ele>
        <time>2021-08-06 10:23:50</time>
      </trkpt>
      <trkpt lat="37.05615" lon="-3.32957">
        <ele>3099.6</ele>
        <time>2021-08-06 10:23:51</time>
      </trkpt>
      <trkpt lat="37.05615" lon="-3.32957">
        <ele>3099.6</ele>
        <time>2021-08-06 10:23:52</time>
      </trkpt>
      <trkpt lat="37.05615" lon="-3.32956">
        <ele>3099.6</ele>
        <time>2021-08-06 10:23:53</time>
      </trkpt>
      <trkpt lat="37.05613" lon="-3.32956">
        <ele>3099.6</ele>
        <time>2021-08-06 10:23:54</time>
      </trkpt>
      <trkpt lat="37.05613" lon="-3.32956">
        <ele>3099.6</ele>
        <time>2021-08-06 10:23:55</time>
      </trkpt>
      <trkpt lat="37.05613" lon="-3.32955">
        <ele>3099.6</ele>
        <time>2021-08-06 10:23:56</time>
      </trkpt>
      <trkpt lat="37.05613" lon="-3.32955">
        <ele>3099.6</ele>
        <time>2021-08-06 10:23:57</time>
      </trkpt>
      <trkpt lat="37.05614" lon="-3.32955">
        <ele>3099.6</ele>
        <time>2021-08-06 10:23:58</time>
      </trkpt>
      <trkpt lat="37.05614" lon="-3.32954">
        <ele>3099.6</ele>
        <time>2021-08-06 10:23:59</time>
      </trkpt>
      <trkpt lat="37.05615" lon="-3.32954">
        <ele>3099.6</ele>
        <time>2021-08-06 10:24:00</time>
      </trkpt>
      <trkpt lat="37.05615" lon="-3.32952">
        <ele>3099.6</ele>
        <time>2021-08-06 10:24:01</time>
      </trkpt>
      <trkpt lat="37.05615" lon="-3.32951">
        <ele>3099.6</ele>
        <time>2021-08-06 10:24:02</time>
      </trkpt>
      <trkpt lat="37.05615" lon="-3.32949">
        <ele>3099.6</ele>
        <time>2021-08-06 10:24:03</time>
      </trkpt>
      <trkpt lat="37.05615" lon="-3.32947">
        <ele>3099.6</ele>
        <time>2021-08-06 10:24:04</time>
      </trkpt>
      <trkpt lat="37.05615" lon="-3.32945">
        <ele>3099.6</ele>
        <time>2021-08-06 10:24:05</time>
      </trkpt>
      <trkpt lat="37.05615" lon="-3.32943">
        <ele>3099.6</ele>
        <time>2021-08-06 10:24:06</time>
      </trkpt>
      <trkpt lat="37.05615" lon="-3.32941">
        <ele>3099.6</ele>
        <time>2021-08-06 10:24:07</time>
      </trkpt>
      <trkpt lat="37.05616" lon="-3.32939">
        <ele>3099.6</ele>
        <time>2021-08-06 10:24:08</time>
      </trkpt>
      <trkpt lat="37.05616" lon="-3.32937">
        <ele>3098.8</ele>
        <time>2021-08-06 10:24:09</time>
      </trkpt>
      <trkpt lat="37.05616" lon="-3.32935">
        <ele>3098.4</ele>
        <time>2021-08-06 10:24:10</time>
      </trkpt>
      <trkpt lat="37.05616" lon="-3.32933">
        <ele>3098.2</ele>
        <time>2021-08-06 10:24:11</time>
      </trkpt>
      <trkpt lat="37.05616" lon="-3.32931">
        <ele>3098</ele>
        <time>2021-08-06 10:24:12</time>
      </trkpt>
      <trkpt lat="37.05616" lon="-3.3293">
        <ele>3098</ele>
        <time>2021-08-06 10:24:13</time>
      </trkpt>
      <trkpt lat="37.05616" lon="-3.3293">
        <ele>3097.8</ele>
        <time>2021-08-06 10:24:14</time>
      </trkpt>
      <trkpt lat="37.05616" lon="-3.32929">
        <ele>3097.8</ele>
        <time>2021-08-06 10:24:15</time>
      </trkpt>
      <trkpt lat="37.05616" lon="-3.32929">
        <ele>3097.6</ele>
        <time>2021-08-06 10:24:16</time>
      </trkpt>
      <trkpt lat="37.05615" lon="-3.32929">
        <ele>3097.2</ele>
        <time>2021-08-06 10:24:17</time>
      </trkpt>
      <trkpt lat="37.05616" lon="-3.32928">
        <ele>3097.2</ele>
        <time>2021-08-06 10:24:18</time>
      </trkpt>
      <trkpt lat="37.05616" lon="-3.32927">
        <ele>3097</ele>
        <time>2021-08-06 10:24:19</time>
      </trkpt>
      <trkpt lat="37.05616" lon="-3.32926">
        <ele>3096.8</ele>
        <time>2021-08-06 10:24:20</time>
      </trkpt>
      <trkpt lat="37.05616" lon="-3.32926">
        <ele>3096.8</ele>
        <time>2021-08-06 10:24:21</time>
      </trkpt>
      <trkpt lat="37.05615" lon="-3.32926">
        <ele>3096.6</ele>
        <time>2021-08-06 10:24:22</time>
      </trkpt>
      <trkpt lat="37.05614" lon="-3.32925">
        <ele>3096.6</ele>
        <time>2021-08-06 10:24:23</time>
      </trkpt>
      <trkpt lat="37.05614" lon="-3.32924">
        <ele>3096.8</ele>
        <time>2021-08-06 10:24:24</time>
      </trkpt>
      <trkpt lat="37.05614" lon="-3.32924">
        <ele>3096.8</ele>
        <time>2021-08-06 10:24:25</time>
      </trkpt>
      <trkpt lat="37.05614" lon="-3.32921">
        <ele>3097</ele>
        <time>2021-08-06 10:24:26</time>
      </trkpt>
      <trkpt lat="37.05614" lon="-3.3292">
        <ele>3097</ele>
        <time>2021-08-06 10:24:27</time>
      </trkpt>
      <trkpt lat="37.05614" lon="-3.32918">
        <ele>3096.8</ele>
        <time>2021-08-06 10:24:28</time>
      </trkpt>
      <trkpt lat="37.05613" lon="-3.32917">
        <ele>3096.8</ele>
        <time>2021-08-06 10:24:29</time>
      </trkpt>
      <trkpt lat="37.05614" lon="-3.32915">
        <ele>3096.8</ele>
        <time>2021-08-06 10:24:30</time>
      </trkpt>
      <trkpt lat="37.05613" lon="-3.32914">
        <ele>3096.8</ele>
        <time>2021-08-06 10:24:31</time>
      </trkpt>
      <trkpt lat="37.05614" lon="-3.32913">
        <ele>3096.6</ele>
        <time>2021-08-06 10:24:32</time>
      </trkpt>
      <trkpt lat="37.05614" lon="-3.32911">
        <ele>3096.4</ele>
        <time>2021-08-06 10:24:33</time>
      </trkpt>
      <trkpt lat="37.05614" lon="-3.32909">
        <ele>3096.4</ele>
        <time>2021-08-06 10:24:34</time>
      </trkpt>
      <trkpt lat="37.05616" lon="-3.32907">
        <ele>3096.4</ele>
        <time>2021-08-06 10:24:35</time>
      </trkpt>
      <trkpt lat="37.05616" lon="-3.32905">
        <ele>3096.4</ele>
        <time>2021-08-06 10:24:36</time>
      </trkpt>
      <trkpt lat="37.05617" lon="-3.32903">
        <ele>3096</ele>
        <time>2021-08-06 10:24:37</time>
      </trkpt>
      <trkpt lat="37.05617" lon="-3.32904">
        <ele>3095.8</ele>
        <time>2021-08-06 10:24:38</time>
      </trkpt>
      <trkpt lat="37.05617" lon="-3.32903">
        <ele>3095.8</ele>
        <time>2021-08-06 10:24:39</time>
      </trkpt>
      <trkpt lat="37.05617" lon="-3.32903">
        <ele>3095.8</ele>
        <time>2021-08-06 10:24:40</time>
      </trkpt>
      <trkpt lat="37.05617" lon="-3.32901">
        <ele>3095.8</ele>
        <time>2021-08-06 10:24:41</time>
      </trkpt>
      <trkpt lat="37.05617" lon="-3.32901">
        <ele>3095.6</ele>
        <time>2021-08-06 10:24:42</time>
      </trkpt>
      <trkpt lat="37.05617" lon="-3.32901">
        <ele>3095.6</ele>
        <time>2021-08-06 10:24:43</time>
      </trkpt>
      <trkpt lat="37.05617" lon="-3.32901">
        <ele>3095.4</ele>
        <time>2021-08-06 10:24:44</time>
      </trkpt>
      <trkpt lat="37.05616" lon="-3.32902">
        <ele>3095.2</ele>
        <time>2021-08-06 10:24:45</time>
      </trkpt>
      <trkpt lat="37.05616" lon="-3.32902">
        <ele>3095.2</ele>
        <time>2021-08-06 10:24:46</time>
      </trkpt>
      <trkpt lat="37.05616" lon="-3.32902">
        <ele>3095.2</ele>
        <time>2021-08-06 10:24:47</time>
      </trkpt>
      <trkpt lat="37.05615" lon="-3.32903">
        <ele>3095.2</ele>
        <time>2021-08-06 10:24:48</time>
      </trkpt>
      <trkpt lat="37.05614" lon="-3.32903">
        <ele>3095</ele>
        <time>2021-08-06 10:24:49</time>
      </trkpt>
      <trkpt lat="37.05613" lon="-3.32903">
        <ele>3095</ele>
        <time>2021-08-06 10:24:50</time>
      </trkpt>
      <trkpt lat="37.05611" lon="-3.32904">
        <ele>3094.8</ele>
        <time>2021-08-06 10:24:51</time>
      </trkpt>
      <trkpt lat="37.05611" lon="-3.32904">
        <ele>3094.8</ele>
        <time>2021-08-06 10:24:52</time>
      </trkpt>
      <trkpt lat="37.05611" lon="-3.32903">
        <ele>3094.6</ele>
        <time>2021-08-06 10:24:53</time>
      </trkpt>
      <trkpt lat="37.05612" lon="-3.32902">
        <ele>3094.6</ele>
        <time>2021-08-06 10:24:54</time>
      </trkpt>
      <trkpt lat="37.05612" lon="-3.32901">
        <ele>3094.4</ele>
        <time>2021-08-06 10:24:55</time>
      </trkpt>
      <trkpt lat="37.05612" lon="-3.329">
        <ele>3094.2</ele>
        <time>2021-08-06 10:24:56</time>
      </trkpt>
      <trkpt lat="37.05613" lon="-3.32899">
        <ele>3094</ele>
        <time>2021-08-06 10:24:57</time>
      </trkpt>
      <trkpt lat="37.05613" lon="-3.32899">
        <ele>3093.8</ele>
        <time>2021-08-06 10:24:58</time>
      </trkpt>
      <trkpt lat="37.05612" lon="-3.32898">
        <ele>3093.6</ele>
        <time>2021-08-06 10:24:59</time>
      </trkpt>
      <trkpt lat="37.05612" lon="-3.32898">
        <ele>3093.4</ele>
        <time>2021-08-06 10:25:00</time>
      </trkpt>
      <trkpt lat="37.05611" lon="-3.32898">
        <ele>3093</ele>
        <time>2021-08-06 10:25:01</time>
      </trkpt>
      <trkpt lat="37.05611" lon="-3.32898">
        <ele>3093</ele>
        <time>2021-08-06 10:25:02</time>
      </trkpt>
      <trkpt lat="37.05609" lon="-3.32898">
        <ele>3093</ele>
        <time>2021-08-06 10:25:03</time>
      </trkpt>
      <trkpt lat="37.05609" lon="-3.32897">
        <ele>3093</ele>
        <time>2021-08-06 10:25:04</time>
      </trkpt>
      <trkpt lat="37.05609" lon="-3.32897">
        <ele>3093</ele>
        <time>2021-08-06 10:25:05</time>
      </trkpt>
      <trkpt lat="37.05609" lon="-3.32896">
        <ele>3093</ele>
        <time>2021-08-06 10:25:06</time>
      </trkpt>
      <trkpt lat="37.05608" lon="-3.32897">
        <ele>3093</ele>
        <time>2021-08-06 10:25:07</time>
      </trkpt>
      <trkpt lat="37.05608" lon="-3.32896">
        <ele>3092.8</ele>
        <time>2021-08-06 10:25:08</time>
      </trkpt>
      <trkpt lat="37.05608" lon="-3.32896">
        <ele>3092.8</ele>
        <time>2021-08-06 10:25:09</time>
      </trkpt>
      <trkpt lat="37.05607" lon="-3.32896">
        <ele>3092.8</ele>
        <time>2021-08-06 10:25:10</time>
      </trkpt>
      <trkpt lat="37.05608" lon="-3.32896">
        <ele>3092.6</ele>
        <time>2021-08-06 10:25:11</time>
      </trkpt>
      <trkpt lat="37.05608" lon="-3.32896">
        <ele>3092.6</ele>
        <time>2021-08-06 10:25:12</time>
      </trkpt>
      <trkpt lat="37.05607" lon="-3.32896">
        <ele>3092.6</ele>
        <time>2021-08-06 10:25:13</time>
      </trkpt>
      <trkpt lat="37.05606" lon="-3.32896">
        <ele>3092.6</ele>
        <time>2021-08-06 10:25:14</time>
      </trkpt>
      <trkpt lat="37.05605" lon="-3.32895">
        <ele>3092.8</ele>
        <time>2021-08-06 10:25:15</time>
      </trkpt>
      <trkpt lat="37.05605" lon="-3.32894">
        <ele>3092.8</ele>
        <time>2021-08-06 10:25:16</time>
      </trkpt>
      <trkpt lat="37.05605" lon="-3.32893">
        <ele>3093</ele>
        <time>2021-08-06 10:25:17</time>
      </trkpt>
      <trkpt lat="37.05604" lon="-3.32892">
        <ele>3093</ele>
        <time>2021-08-06 10:25:18</time>
      </trkpt>
      <trkpt lat="37.05603" lon="-3.32891">
        <ele>3093</ele>
        <time>2021-08-06 10:25:19</time>
      </trkpt>
      <trkpt lat="37.05603" lon="-3.32891">
        <ele>3093</ele>
        <time>2021-08-06 10:25:20</time>
      </trkpt>
      <trkpt lat="37.05601" lon="-3.32891">
        <ele>3093</ele>
        <time>2021-08-06 10:25:21</time>
      </trkpt>
      <trkpt lat="37.05599" lon="-3.32891">
        <ele>3093.2</ele>
        <time>2021-08-06 10:25:22</time>
      </trkpt>
      <trkpt lat="37.05599" lon="-3.3289">
        <ele>3093.4</ele>
        <time>2021-08-06 10:25:23</time>
      </trkpt>
      <trkpt lat="37.05598" lon="-3.32889">
        <ele>3093.4</ele>
        <time>2021-08-06 10:25:24</time>
      </trkpt>
      <trkpt lat="37.05598" lon="-3.32889">
        <ele>3093.6</ele>
        <time>2021-08-06 10:25:25</time>
      </trkpt>
      <trkpt lat="37.05599" lon="-3.32888">
        <ele>3093.6</ele>
        <time>2021-08-06 10:25:26</time>
      </trkpt>
      <trkpt lat="37.05598" lon="-3.32887">
        <ele>3093.6</ele>
        <time>2021-08-06 10:25:27</time>
      </trkpt>
      <trkpt lat="37.05598" lon="-3.32886">
        <ele>3093.8</ele>
        <time>2021-08-06 10:25:28</time>
      </trkpt>
      <trkpt lat="37.05598" lon="-3.32885">
        <ele>3094</ele>
        <time>2021-08-06 10:25:29</time>
      </trkpt>
      <trkpt lat="37.05598" lon="-3.32885">
        <ele>3094</ele>
        <time>2021-08-06 10:25:30</time>
      </trkpt>
      <trkpt lat="37.05598" lon="-3.32884">
        <ele>3094</ele>
        <time>2021-08-06 10:25:31</time>
      </trkpt>
      <trkpt lat="37.05599" lon="-3.32884">
        <ele>3094</ele>
        <time>2021-08-06 10:25:32</time>
      </trkpt>
      <trkpt lat="37.05599" lon="-3.32883">
        <ele>3094.4</ele>
        <time>2021-08-06 10:25:33</time>
      </trkpt>
      <trkpt lat="37.056" lon="-3.32883">
        <ele>3094.2</ele>
        <time>2021-08-06 10:25:34</time>
      </trkpt>
      <trkpt lat="37.056" lon="-3.32882">
        <ele>3094.2</ele>
        <time>2021-08-06 10:25:35</time>
      </trkpt>
      <trkpt lat="37.056" lon="-3.32882">
        <ele>3094.4</ele>
        <time>2021-08-06 10:25:36</time>
      </trkpt>
      <trkpt lat="37.056" lon="-3.32882">
        <ele>3094.4</ele>
        <time>2021-08-06 10:25:37</time>
      </trkpt>
      <trkpt lat="37.056" lon="-3.32882">
        <ele>3094.6</ele>
        <time>2021-08-06 10:25:38</time>
      </trkpt>
      <trkpt lat="37.056" lon="-3.32882">
        <ele>3094.6</ele>
        <time>2021-08-06 10:25:39</time>
      </trkpt>
      <trkpt lat="37.056" lon="-3.32881">
        <ele>3094.4</ele>
        <time>2021-08-06 10:25:40</time>
      </trkpt>
      <trkpt lat="37.05601" lon="-3.32881">
        <ele>3094.4</ele>
        <time>2021-08-06 10:25:41</time>
      </trkpt>
      <trkpt lat="37.05601" lon="-3.32881">
        <ele>3094.4</ele>
        <time>2021-08-06 10:25:42</time>
      </trkpt>
      <trkpt lat="37.056" lon="-3.32882">
        <ele>3094.2</ele>
        <time>2021-08-06 10:25:43</time>
      </trkpt>
      <trkpt lat="37.056" lon="-3.32881">
        <ele>3094.2</ele>
        <time>2021-08-06 10:25:44</time>
      </trkpt>
      <trkpt lat="37.05601" lon="-3.3288">
        <ele>3094</ele>
        <time>2021-08-06 10:25:45</time>
      </trkpt>
      <trkpt lat="37.05601" lon="-3.3288">
        <ele>3094</ele>
        <time>2021-08-06 10:25:46</time>
      </trkpt>
      <trkpt lat="37.05601" lon="-3.32879">
        <ele>3093.8</ele>
        <time>2021-08-06 10:25:47</time>
      </trkpt>
      <trkpt lat="37.05601" lon="-3.32878">
        <ele>3093.8</ele>
        <time>2021-08-06 10:25:48</time>
      </trkpt>
      <trkpt lat="37.05601" lon="-3.32878">
        <ele>3093.6</ele>
        <time>2021-08-06 10:25:49</time>
      </trkpt>
      <trkpt lat="37.05601" lon="-3.32877">
        <ele>3093.6</ele>
        <time>2021-08-06 10:25:50</time>
      </trkpt>
      <trkpt lat="37.056" lon="-3.32876">
        <ele>3093.4</ele>
        <time>2021-08-06 10:25:51</time>
      </trkpt>
      <trkpt lat="37.056" lon="-3.32875">
        <ele>3093.4</ele>
        <time>2021-08-06 10:25:52</time>
      </trkpt>
      <trkpt lat="37.056" lon="-3.32875">
        <ele>3093.4</ele>
        <time>2021-08-06 10:25:53</time>
      </trkpt>
      <trkpt lat="37.05599" lon="-3.32874">
        <ele>3093.4</ele>
        <time>2021-08-06 10:25:54</time>
      </trkpt>
      <trkpt lat="37.05599" lon="-3.32872">
        <ele>3093.2</ele>
        <time>2021-08-06 10:25:55</time>
      </trkpt>
      <trkpt lat="37.05599" lon="-3.32872">
        <ele>3093.2</ele>
        <time>2021-08-06 10:25:56</time>
      </trkpt>
      <trkpt lat="37.05599" lon="-3.32871">
        <ele>3093</ele>
        <time>2021-08-06 10:25:57</time>
      </trkpt>
      <trkpt lat="37.05599" lon="-3.3287">
        <ele>3093</ele>
        <time>2021-08-06 10:25:58</time>
      </trkpt>
      <trkpt lat="37.05598" lon="-3.32869">
        <ele>3093</ele>
        <time>2021-08-06 10:25:59</time>
      </trkpt>
      <trkpt lat="37.05598" lon="-3.32867">
        <ele>3092.8</ele>
        <time>2021-08-06 10:26:00</time>
      </trkpt>
      <trkpt lat="37.05599" lon="-3.32866">
        <ele>3092.8</ele>
        <time>2021-08-06 10:26:01</time>
      </trkpt>
      <trkpt lat="37.05599" lon="-3.32866">
        <ele>3092.8</ele>
        <time>2021-08-06 10:26:02</time>
      </trkpt>
      <trkpt lat="37.056" lon="-3.32865">
        <ele>3092.8</ele>
        <time>2021-08-06 10:26:03</time>
      </trkpt>
      <trkpt lat="37.056" lon="-3.32864">
        <ele>3092.6</ele>
        <time>2021-08-06 10:26:04</time>
      </trkpt>
      <trkpt lat="37.056" lon="-3.32863">
        <ele>3092.6</ele>
        <time>2021-08-06 10:26:05</time>
      </trkpt>
      <trkpt lat="37.056" lon="-3.32862">
        <ele>3092.4</ele>
        <time>2021-08-06 10:26:06</time>
      </trkpt>
      <trkpt lat="37.056" lon="-3.32861">
        <ele>3092.4</ele>
        <time>2021-08-06 10:26:07</time>
      </trkpt>
      <trkpt lat="37.05601" lon="-3.32861">
        <ele>3092.2</ele>
        <time>2021-08-06 10:26:08</time>
      </trkpt>
      <trkpt lat="37.05601" lon="-3.3286">
        <ele>3092</ele>
        <time>2021-08-06 10:26:09</time>
      </trkpt>
      <trkpt lat="37.05601" lon="-3.3286">
        <ele>3092</ele>
        <time>2021-08-06 10:26:10</time>
      </trkpt>
      <trkpt lat="37.05601" lon="-3.32859">
        <ele>3091.8</ele>
        <time>2021-08-06 10:26:11</time>
      </trkpt>
      <trkpt lat="37.05601" lon="-3.32858">
        <ele>3091.4</ele>
        <time>2021-08-06 10:26:12</time>
      </trkpt>
      <trkpt lat="37.05601" lon="-3.32858">
        <ele>3091.2</ele>
        <time>2021-08-06 10:26:13</time>
      </trkpt>
      <trkpt lat="37.05601" lon="-3.32858">
        <ele>3091</ele>
        <time>2021-08-06 10:26:14</time>
      </trkpt>
      <trkpt lat="37.05601" lon="-3.32857">
        <ele>3090.8</ele>
        <time>2021-08-06 10:26:15</time>
      </trkpt>
      <trkpt lat="37.05601" lon="-3.32856">
        <ele>3090.6</ele>
        <time>2021-08-06 10:26:16</time>
      </trkpt>
      <trkpt lat="37.05601" lon="-3.32855">
        <ele>3090.6</ele>
        <time>2021-08-06 10:26:17</time>
      </trkpt>
      <trkpt lat="37.05601" lon="-3.32854">
        <ele>3090.4</ele>
        <time>2021-08-06 10:26:18</time>
      </trkpt>
      <trkpt lat="37.05601" lon="-3.32853">
        <ele>3090.4</ele>
        <time>2021-08-06 10:26:19</time>
      </trkpt>
      <trkpt lat="37.05602" lon="-3.32852">
        <ele>3090.4</ele>
        <time>2021-08-06 10:26:20</time>
      </trkpt>
      <trkpt lat="37.05601" lon="-3.32852">
        <ele>3090.4</ele>
        <time>2021-08-06 10:26:21</time>
      </trkpt>
      <trkpt lat="37.056" lon="-3.32853">
        <ele>3090.2</ele>
        <time>2021-08-06 10:26:22</time>
      </trkpt>
      <trkpt lat="37.056" lon="-3.32852">
        <ele>3090.2</ele>
        <time>2021-08-06 10:26:23</time>
      </trkpt>
      <trkpt lat="37.056" lon="-3.32852">
        <ele>3090.4</ele>
        <time>2021-08-06 10:26:24</time>
      </trkpt>
      <trkpt lat="37.056" lon="-3.32852">
        <ele>3090.4</ele>
        <time>2021-08-06 10:26:25</time>
      </trkpt>
      <trkpt lat="37.056" lon="-3.32851">
        <ele>3090.4</ele>
        <time>2021-08-06 10:26:26</time>
      </trkpt>
      <trkpt lat="37.056" lon="-3.3285">
        <ele>3090.4</ele>
        <time>2021-08-06 10:26:27</time>
      </trkpt>
      <trkpt lat="37.056" lon="-3.3285">
        <ele>3090.4</ele>
        <time>2021-08-06 10:26:28</time>
      </trkpt>
      <trkpt lat="37.05601" lon="-3.32849">
        <ele>3090.2</ele>
        <time>2021-08-06 10:26:29</time>
      </trkpt>
      <trkpt lat="37.05601" lon="-3.32849">
        <ele>3090.2</ele>
        <time>2021-08-06 10:26:30</time>
      </trkpt>
      <trkpt lat="37.05602" lon="-3.32849">
        <ele>3090.2</ele>
        <time>2021-08-06 10:26:31</time>
      </trkpt>
      <trkpt lat="37.05602" lon="-3.32848">
        <ele>3090.2</ele>
        <time>2021-08-06 10:26:32</time>
      </trkpt>
      <trkpt lat="37.05603" lon="-3.32847">
        <ele>3090</ele>
        <time>2021-08-06 10:26:33</time>
      </trkpt>
      <trkpt lat="37.05603" lon="-3.32847">
        <ele>3090</ele>
        <time>2021-08-06 10:26:34</time>
      </trkpt>
      <trkpt lat="37.05603" lon="-3.32847">
        <ele>3090</ele>
        <time>2021-08-06 10:26:35</time>
      </trkpt>
      <trkpt lat="37.05603" lon="-3.32847">
        <ele>3089.8</ele>
        <time>2021-08-06 10:26:36</time>
      </trkpt>
      <trkpt lat="37.05603" lon="-3.32846">
        <ele>3089.6</ele>
        <time>2021-08-06 10:26:37</time>
      </trkpt>
      <trkpt lat="37.05602" lon="-3.32846">
        <ele>3089.6</ele>
        <time>2021-08-06 10:26:38</time>
      </trkpt>
      <trkpt lat="37.05602" lon="-3.32846">
        <ele>3089.4</ele>
        <time>2021-08-06 10:26:39</time>
      </trkpt>
      <trkpt lat="37.05602" lon="-3.32845">
        <ele>3089.4</ele>
        <time>2021-08-06 10:26:40</time>
      </trkpt>
      <trkpt lat="37.05601" lon="-3.32843">
        <ele>3089.4</ele>
        <time>2021-08-06 10:26:41</time>
      </trkpt>
      <trkpt lat="37.05601" lon="-3.32842">
        <ele>3089.4</ele>
        <time>2021-08-06 10:26:42</time>
      </trkpt>
      <trkpt lat="37.056" lon="-3.32841">
        <ele>3089.4</ele>
        <time>2021-08-06 10:26:43</time>
      </trkpt>
      <trkpt lat="37.05599" lon="-3.32841">
        <ele>3089.4</ele>
        <time>2021-08-06 10:26:44</time>
      </trkpt>
      <trkpt lat="37.05599" lon="-3.3284">
        <ele>3089.4</ele>
        <time>2021-08-06 10:26:45</time>
      </trkpt>
      <trkpt lat="37.05598" lon="-3.32841">
        <ele>3089.4</ele>
        <time>2021-08-06 10:26:46</time>
      </trkpt>
      <trkpt lat="37.05598" lon="-3.3284">
        <ele>3089.4</ele>
        <time>2021-08-06 10:26:47</time>
      </trkpt>
      <trkpt lat="37.05598" lon="-3.32839">
        <ele>3089.4</ele>
        <time>2021-08-06 10:26:48</time>
      </trkpt>
      <trkpt lat="37.05598" lon="-3.32838">
        <ele>3089.4</ele>
        <time>2021-08-06 10:26:49</time>
      </trkpt>
      <trkpt lat="37.05597" lon="-3.32838">
        <ele>3089.4</ele>
        <time>2021-08-06 10:26:50</time>
      </trkpt>
      <trkpt lat="37.05596" lon="-3.32838">
        <ele>3089.6</ele>
        <time>2021-08-06 10:26:51</time>
      </trkpt>
      <trkpt lat="37.05595" lon="-3.32839">
        <ele>3089.8</ele>
        <time>2021-08-06 10:26:52</time>
      </trkpt>
      <trkpt lat="37.05594" lon="-3.32839">
        <ele>3089.8</ele>
        <time>2021-08-06 10:26:53</time>
      </trkpt>
      <trkpt lat="37.05593" lon="-3.32839">
        <ele>3089.8</ele>
        <time>2021-08-06 10:26:54</time>
      </trkpt>
      <trkpt lat="37.05593" lon="-3.32839">
        <ele>3089.8</ele>
        <time>2021-08-06 10:26:55</time>
      </trkpt>
      <trkpt lat="37.05593" lon="-3.32839">
        <ele>3089.8</ele>
        <time>2021-08-06 10:26:56</time>
      </trkpt>
      <trkpt lat="37.05593" lon="-3.32839">
        <ele>3089.8</ele>
        <time>2021-08-06 10:26:57</time>
      </trkpt>
      <trkpt lat="37.05593" lon="-3.32838">
        <ele>3089.8</ele>
        <time>2021-08-06 10:26:58</time>
      </trkpt>
      <trkpt lat="37.05592" lon="-3.32838">
        <ele>3089.8</ele>
        <time>2021-08-06 10:26:59</time>
      </trkpt>
      <trkpt lat="37.05591" lon="-3.32838">
        <ele>3089.8</ele>
        <time>2021-08-06 10:27:00</time>
      </trkpt>
      <trkpt lat="37.05591" lon="-3.32837">
        <ele>3089.8</ele>
        <time>2021-08-06 10:27:01</time>
      </trkpt>
      <trkpt lat="37.0559" lon="-3.32836">
        <ele>3089.6</ele>
        <time>2021-08-06 10:27:02</time>
      </trkpt>
      <trkpt lat="37.0559" lon="-3.32836">
        <ele>3089.6</ele>
        <time>2021-08-06 10:27:03</time>
      </trkpt>
      <trkpt lat="37.05589" lon="-3.32834">
        <ele>3089.4</ele>
        <time>2021-08-06 10:27:04</time>
      </trkpt>
      <trkpt lat="37.05589" lon="-3.32832">
        <ele>3089.2</ele>
        <time>2021-08-06 10:27:05</time>
      </trkpt>
      <trkpt lat="37.05591" lon="-3.32829">
        <ele>3089.2</ele>
        <time>2021-08-06 10:27:06</time>
      </trkpt>
      <trkpt lat="37.05591" lon="-3.32827">
        <ele>3089</ele>
        <time>2021-08-06 10:27:07</time>
      </trkpt>
      <trkpt lat="37.05591" lon="-3.32826">
        <ele>3089</ele>
        <time>2021-08-06 10:27:08</time>
      </trkpt>
      <trkpt lat="37.05592" lon="-3.32824">
        <ele>3088.8</ele>
        <time>2021-08-06 10:27:09</time>
      </trkpt>
      <trkpt lat="37.05594" lon="-3.32822">
        <ele>3088.6</ele>
        <time>2021-08-06 10:27:10</time>
      </trkpt>
      <trkpt lat="37.05594" lon="-3.32821">
        <ele>3088.4</ele>
        <time>2021-08-06 10:27:11</time>
      </trkpt>
      <trkpt lat="37.05594" lon="-3.3282">
        <ele>3088.4</ele>
        <time>2021-08-06 10:27:12</time>
      </trkpt>
      <trkpt lat="37.05594" lon="-3.32819">
        <ele>3088.2</ele>
        <time>2021-08-06 10:27:13</time>
      </trkpt>
      <trkpt lat="37.05594" lon="-3.32819">
        <ele>3088</ele>
        <time>2021-08-06 10:27:14</time>
      </trkpt>
      <trkpt lat="37.05593" lon="-3.32819">
        <ele>3088</ele>
        <time>2021-08-06 10:27:15</time>
      </trkpt>
      <trkpt lat="37.05592" lon="-3.32819">
        <ele>3088</ele>
        <time>2021-08-06 10:27:16</time>
      </trkpt>
      <trkpt lat="37.0559" lon="-3.32819">
        <ele>3088</ele>
        <time>2021-08-06 10:27:17</time>
      </trkpt>
      <trkpt lat="37.05589" lon="-3.32818">
        <ele>3088</ele>
        <time>2021-08-06 10:27:18</time>
      </trkpt>
      <trkpt lat="37.05589" lon="-3.32817">
        <ele>3087.8</ele>
        <time>2021-08-06 10:27:19</time>
      </trkpt>
      <trkpt lat="37.05588" lon="-3.32816">
        <ele>3087.8</ele>
        <time>2021-08-06 10:27:20</time>
      </trkpt>
      <trkpt lat="37.05588" lon="-3.32816">
        <ele>3087.8</ele>
        <time>2021-08-06 10:27:21</time>
      </trkpt>
      <trkpt lat="37.05588" lon="-3.32815">
        <ele>3087.6</ele>
        <time>2021-08-06 10:27:22</time>
      </trkpt>
      <trkpt lat="37.05588" lon="-3.32814">
        <ele>3087.4</ele>
        <time>2021-08-06 10:27:23</time>
      </trkpt>
      <trkpt lat="37.05587" lon="-3.32814">
        <ele>3087.4</ele>
        <time>2021-08-06 10:27:24</time>
      </trkpt>
      <trkpt lat="37.05587" lon="-3.32813">
        <ele>3087.4</ele>
        <time>2021-08-06 10:27:25</time>
      </trkpt>
      <trkpt lat="37.05587" lon="-3.32812">
        <ele>3087.4</ele>
        <time>2021-08-06 10:27:26</time>
      </trkpt>
      <trkpt lat="37.05586" lon="-3.32811">
        <ele>3087.2</ele>
        <time>2021-08-06 10:27:27</time>
      </trkpt>
      <trkpt lat="37.05585" lon="-3.3281">
        <ele>3087.2</ele>
        <time>2021-08-06 10:27:28</time>
      </trkpt>
      <trkpt lat="37.05585" lon="-3.32809">
        <ele>3087.2</ele>
        <time>2021-08-06 10:27:29</time>
      </trkpt>
      <trkpt lat="37.05584" lon="-3.32808">
        <ele>3087.2</ele>
        <time>2021-08-06 10:27:30</time>
      </trkpt>
      <trkpt lat="37.05584" lon="-3.32808">
        <ele>3087</ele>
        <time>2021-08-06 10:27:31</time>
      </trkpt>
      <trkpt lat="37.05583" lon="-3.32807">
        <ele>3086.8</ele>
        <time>2021-08-06 10:27:32</time>
      </trkpt>
      <trkpt lat="37.05583" lon="-3.32806">
        <ele>3086.6</ele>
        <time>2021-08-06 10:27:33</time>
      </trkpt>
      <trkpt lat="37.05583" lon="-3.32806">
        <ele>3086.4</ele>
        <time>2021-08-06 10:27:34</time>
      </trkpt>
      <trkpt lat="37.05583" lon="-3.32806">
        <ele>3086.2</ele>
        <time>2021-08-06 10:27:35</time>
      </trkpt>
      <trkpt lat="37.05583" lon="-3.32804">
        <ele>3086.2</ele>
        <time>2021-08-06 10:27:36</time>
      </trkpt>
      <trkpt lat="37.05583" lon="-3.32803">
        <ele>3086</ele>
        <time>2021-08-06 10:27:37</time>
      </trkpt>
      <trkpt lat="37.05583" lon="-3.32802">
        <ele>3086</ele>
        <time>2021-08-06 10:27:38</time>
      </trkpt>
      <trkpt lat="37.05583" lon="-3.32801">
        <ele>3086.2</ele>
        <time>2021-08-06 10:27:39</time>
      </trkpt>
      <trkpt lat="37.05583" lon="-3.328">
        <ele>3085.8</ele>
        <time>2021-08-06 10:27:40</time>
      </trkpt>
      <trkpt lat="37.05583" lon="-3.32799">
        <ele>3085.6</ele>
        <time>2021-08-06 10:27:41</time>
      </trkpt>
      <trkpt lat="37.05583" lon="-3.32798">
        <ele>3085.6</ele>
        <time>2021-08-06 10:27:42</time>
      </trkpt>
      <trkpt lat="37.05583" lon="-3.32797">
        <ele>3085.6</ele>
        <time>2021-08-06 10:27:43</time>
      </trkpt>
      <trkpt lat="37.05583" lon="-3.32796">
        <ele>3085.6</ele>
        <time>2021-08-06 10:27:44</time>
      </trkpt>
      <trkpt lat="37.05584" lon="-3.32795">
        <ele>3085.4</ele>
        <time>2021-08-06 10:27:45</time>
      </trkpt>
      <trkpt lat="37.05584" lon="-3.32794">
        <ele>3085.4</ele>
        <time>2021-08-06 10:27:46</time>
      </trkpt>
      <trkpt lat="37.05585" lon="-3.32793">
        <ele>3085.4</ele>
        <time>2021-08-06 10:27:47</time>
      </trkpt>
      <trkpt lat="37.05585" lon="-3.32793">
        <ele>3085.6</ele>
        <time>2021-08-06 10:27:48</time>
      </trkpt>
      <trkpt lat="37.05585" lon="-3.32792">
        <ele>3085.6</ele>
        <time>2021-08-06 10:27:49</time>
      </trkpt>
      <trkpt lat="37.05585" lon="-3.32791">
        <ele>3085.6</ele>
        <time>2021-08-06 10:27:50</time>
      </trkpt>
      <trkpt lat="37.05585" lon="-3.32791">
        <ele>3085.8</ele>
        <time>2021-08-06 10:27:51</time>
      </trkpt>
      <trkpt lat="37.05585" lon="-3.3279">
        <ele>3085.8</ele>
        <time>2021-08-06 10:27:52</time>
      </trkpt>
      <trkpt lat="37.05585" lon="-3.32789">
        <ele>3086.2</ele>
        <time>2021-08-06 10:27:53</time>
      </trkpt>
      <trkpt lat="37.05584" lon="-3.32788">
        <ele>3086.2</ele>
        <time>2021-08-06 10:27:54</time>
      </trkpt>
      <trkpt lat="37.05583" lon="-3.32788">
        <ele>3086.2</ele>
        <time>2021-08-06 10:27:55</time>
      </trkpt>
      <trkpt lat="37.05582" lon="-3.32787">
        <ele>3086.4</ele>
        <time>2021-08-06 10:27:56</time>
      </trkpt>
      <trkpt lat="37.05581" lon="-3.32787">
        <ele>3086.4</ele>
        <time>2021-08-06 10:27:57</time>
      </trkpt>
      <trkpt lat="37.0558" lon="-3.32787">
        <ele>3086.4</ele>
        <time>2021-08-06 10:27:58</time>
      </trkpt>
      <trkpt lat="37.0558" lon="-3.32786">
        <ele>3086.4</ele>
        <time>2021-08-06 10:27:59</time>
      </trkpt>
      <trkpt lat="37.05579" lon="-3.32785">
        <ele>3086.6</ele>
        <time>2021-08-06 10:28:00</time>
      </trkpt>
      <trkpt lat="37.05579" lon="-3.32784">
        <ele>3086.2</ele>
        <time>2021-08-06 10:28:01</time>
      </trkpt>
      <trkpt lat="37.05578" lon="-3.32784">
        <ele>3086.2</ele>
        <time>2021-08-06 10:28:02</time>
      </trkpt>
      <trkpt lat="37.05577" lon="-3.32783">
        <ele>3086</ele>
        <time>2021-08-06 10:28:03</time>
      </trkpt>
      <trkpt lat="37.05577" lon="-3.32783">
        <ele>3086.2</ele>
        <time>2021-08-06 10:28:04</time>
      </trkpt>
      <trkpt lat="37.05576" lon="-3.32782">
        <ele>3086.2</ele>
        <time>2021-08-06 10:28:05</time>
      </trkpt>
      <trkpt lat="37.05576" lon="-3.32781">
        <ele>3086.4</ele>
        <time>2021-08-06 10:28:06</time>
      </trkpt>
      <trkpt lat="37.05576" lon="-3.3278">
        <ele>3086.4</ele>
        <time>2021-08-06 10:28:07</time>
      </trkpt>
      <trkpt lat="37.05576" lon="-3.32779">
        <ele>3086.2</ele>
        <time>2021-08-06 10:28:08</time>
      </trkpt>
      <trkpt lat="37.05576" lon="-3.32778">
        <ele>3086.4</ele>
        <time>2021-08-06 10:28:09</time>
      </trkpt>
      <trkpt lat="37.05576" lon="-3.32777">
        <ele>3086.6</ele>
        <time>2021-08-06 10:28:10</time>
      </trkpt>
      <trkpt lat="37.05576" lon="-3.32776">
        <ele>3086.6</ele>
        <time>2021-08-06 10:28:11</time>
      </trkpt>
      <trkpt lat="37.05576" lon="-3.32775">
        <ele>3086.8</ele>
        <time>2021-08-06 10:28:12</time>
      </trkpt>
      <trkpt lat="37.05576" lon="-3.32774">
        <ele>3086.8</ele>
        <time>2021-08-06 10:28:13</time>
      </trkpt>
      <trkpt lat="37.05575" lon="-3.32773">
        <ele>3086.8</ele>
        <time>2021-08-06 10:28:14</time>
      </trkpt>
      <trkpt lat="37.05575" lon="-3.32772">
        <ele>3086.8</ele>
        <time>2021-08-06 10:28:15</time>
      </trkpt>
      <trkpt lat="37.05575" lon="-3.32771">
        <ele>3086.8</ele>
        <time>2021-08-06 10:28:16</time>
      </trkpt>
      <trkpt lat="37.05575" lon="-3.3277">
        <ele>3086.8</ele>
        <time>2021-08-06 10:28:17</time>
      </trkpt>
      <trkpt lat="37.05575" lon="-3.32768">
        <ele>3086.6</ele>
        <time>2021-08-06 10:28:18</time>
      </trkpt>
      <trkpt lat="37.05576" lon="-3.32767">
        <ele>3086.2</ele>
        <time>2021-08-06 10:28:19</time>
      </trkpt>
      <trkpt lat="37.05576" lon="-3.32766">
        <ele>3086</ele>
        <time>2021-08-06 10:28:20</time>
      </trkpt>
      <trkpt lat="37.05576" lon="-3.32765">
        <ele>3085.8</ele>
        <time>2021-08-06 10:28:21</time>
      </trkpt>
      <trkpt lat="37.05576" lon="-3.32764">
        <ele>3085.8</ele>
        <time>2021-08-06 10:28:22</time>
      </trkpt>
      <trkpt lat="37.05576" lon="-3.32764">
        <ele>3085.6</ele>
        <time>2021-08-06 10:28:23</time>
      </trkpt>
      <trkpt lat="37.05575" lon="-3.32763">
        <ele>3085.6</ele>
        <time>2021-08-06 10:28:24</time>
      </trkpt>
      <trkpt lat="37.05575" lon="-3.32763">
        <ele>3085.6</ele>
        <time>2021-08-06 10:28:25</time>
      </trkpt>
      <trkpt lat="37.05574" lon="-3.32762">
        <ele>3085.6</ele>
        <time>2021-08-06 10:28:26</time>
      </trkpt>
      <trkpt lat="37.05574" lon="-3.32762">
        <ele>3085.6</ele>
        <time>2021-08-06 10:28:27</time>
      </trkpt>
      <trkpt lat="37.05573" lon="-3.32762">
        <ele>3085.4</ele>
        <time>2021-08-06 10:28:28</time>
      </trkpt>
      <trkpt lat="37.05572" lon="-3.32761">
        <ele>3085.4</ele>
        <time>2021-08-06 10:28:29</time>
      </trkpt>
      <trkpt lat="37.05572" lon="-3.3276">
        <ele>3085.4</ele>
        <time>2021-08-06 10:28:30</time>
      </trkpt>
      <trkpt lat="37.05571" lon="-3.32759">
        <ele>3085.4</ele>
        <time>2021-08-06 10:28:31</time>
      </trkpt>
      <trkpt lat="37.05571" lon="-3.32758">
        <ele>3085.2</ele>
        <time>2021-08-06 10:28:32</time>
      </trkpt>
      <trkpt lat="37.0557" lon="-3.32757">
        <ele>3085.2</ele>
        <time>2021-08-06 10:28:33</time>
      </trkpt>
      <trkpt lat="37.0557" lon="-3.32756">
        <ele>3085.2</ele>
        <time>2021-08-06 10:28:34</time>
      </trkpt>
      <trkpt lat="37.05569" lon="-3.32756">
        <ele>3085.2</ele>
        <time>2021-08-06 10:28:35</time>
      </trkpt>
      <trkpt lat="37.05569" lon="-3.32755">
        <ele>3085.2</ele>
        <time>2021-08-06 10:28:36</time>
      </trkpt>
      <trkpt lat="37.05569" lon="-3.32754">
        <ele>3085.2</ele>
        <time>2021-08-06 10:28:37</time>
      </trkpt>
      <trkpt lat="37.05569" lon="-3.32753">
        <ele>3085.4</ele>
        <time>2021-08-06 10:28:38</time>
      </trkpt>
      <trkpt lat="37.05568" lon="-3.32752">
        <ele>3085.6</ele>
        <time>2021-08-06 10:28:39</time>
      </trkpt>
      <trkpt lat="37.05568" lon="-3.32751">
        <ele>3085.6</ele>
        <time>2021-08-06 10:28:40</time>
      </trkpt>
      <trkpt lat="37.05568" lon="-3.3275">
        <ele>3085.6</ele>
        <time>2021-08-06 10:28:41</time>
      </trkpt>
      <trkpt lat="37.05567" lon="-3.32749">
        <ele>3085.6</ele>
        <time>2021-08-06 10:28:42</time>
      </trkpt>
      <trkpt lat="37.05567" lon="-3.32748">
        <ele>3085.6</ele>
        <time>2021-08-06 10:28:43</time>
      </trkpt>
      <trkpt lat="37.05567" lon="-3.32747">
        <ele>3085.8</ele>
        <time>2021-08-06 10:28:44</time>
      </trkpt>
      <trkpt lat="37.05566" lon="-3.32746">
        <ele>3085.8</ele>
        <time>2021-08-06 10:28:45</time>
      </trkpt>
      <trkpt lat="37.05565" lon="-3.32745">
        <ele>3085.8</ele>
        <time>2021-08-06 10:28:46</time>
      </trkpt>
      <trkpt lat="37.05564" lon="-3.32744">
        <ele>3085.8</ele>
        <time>2021-08-06 10:28:47</time>
      </trkpt>
      <trkpt lat="37.05563" lon="-3.32742">
        <ele>3085.8</ele>
        <time>2021-08-06 10:28:48</time>
      </trkpt>
      <trkpt lat="37.05562" lon="-3.32741">
        <ele>3086</ele>
        <time>2021-08-06 10:28:49</time>
      </trkpt>
      <trkpt lat="37.05562" lon="-3.32739">
        <ele>3086</ele>
        <time>2021-08-06 10:28:50</time>
      </trkpt>
      <trkpt lat="37.05561" lon="-3.32738">
        <ele>3086.2</ele>
        <time>2021-08-06 10:28:51</time>
      </trkpt>
      <trkpt lat="37.05561" lon="-3.32737">
        <ele>3086.4</ele>
        <time>2021-08-06 10:28:52</time>
      </trkpt>
      <trkpt lat="37.05561" lon="-3.32736">
        <ele>3086.6</ele>
        <time>2021-08-06 10:28:53</time>
      </trkpt>
      <trkpt lat="37.05561" lon="-3.32734">
        <ele>3086.8</ele>
        <time>2021-08-06 10:28:54</time>
      </trkpt>
      <trkpt lat="37.05561" lon="-3.32733">
        <ele>3086.8</ele>
        <time>2021-08-06 10:28:55</time>
      </trkpt>
      <trkpt lat="37.0556" lon="-3.32732">
        <ele>3086.8</ele>
        <time>2021-08-06 10:28:56</time>
      </trkpt>
      <trkpt lat="37.0556" lon="-3.32731">
        <ele>3086.8</ele>
        <time>2021-08-06 10:28:57</time>
      </trkpt>
      <trkpt lat="37.05559" lon="-3.3273">
        <ele>3086.8</ele>
        <time>2021-08-06 10:28:58</time>
      </trkpt>
      <trkpt lat="37.05559" lon="-3.32729">
        <ele>3087</ele>
        <time>2021-08-06 10:28:59</time>
      </trkpt>
      <trkpt lat="37.05559" lon="-3.32729">
        <ele>3087</ele>
        <time>2021-08-06 10:29:00</time>
      </trkpt>
      <trkpt lat="37.05559" lon="-3.32728">
        <ele>3087</ele>
        <time>2021-08-06 10:29:01</time>
      </trkpt>
      <trkpt lat="37.05558" lon="-3.32727">
        <ele>3087</ele>
        <time>2021-08-06 10:29:02</time>
      </trkpt>
      <trkpt lat="37.05559" lon="-3.32726">
        <ele>3087</ele>
        <time>2021-08-06 10:29:03</time>
      </trkpt>
      <trkpt lat="37.05559" lon="-3.32725">
        <ele>3087</ele>
        <time>2021-08-06 10:29:04</time>
      </trkpt>
      <trkpt lat="37.05558" lon="-3.32724">
        <ele>3087.2</ele>
        <time>2021-08-06 10:29:05</time>
      </trkpt>
      <trkpt lat="37.05558" lon="-3.32723">
        <ele>3087.4</ele>
        <time>2021-08-06 10:29:06</time>
      </trkpt>
      <trkpt lat="37.05558" lon="-3.32722">
        <ele>3087.4</ele>
        <time>2021-08-06 10:29:07</time>
      </trkpt>
      <trkpt lat="37.05557" lon="-3.32721">
        <ele>3087.4</ele>
        <time>2021-08-06 10:29:08</time>
      </trkpt>
      <trkpt lat="37.05557" lon="-3.3272">
        <ele>3087.6</ele>
        <time>2021-08-06 10:29:09</time>
      </trkpt>
      <trkpt lat="37.05556" lon="-3.32719">
        <ele>3087.8</ele>
        <time>2021-08-06 10:29:10</time>
      </trkpt>
      <trkpt lat="37.05556" lon="-3.32718">
        <ele>3087.8</ele>
        <time>2021-08-06 10:29:11</time>
      </trkpt>
      <trkpt lat="37.05555" lon="-3.32717">
        <ele>3088</ele>
        <time>2021-08-06 10:29:12</time>
      </trkpt>
      <trkpt lat="37.05555" lon="-3.32716">
        <ele>3088</ele>
        <time>2021-08-06 10:29:13</time>
      </trkpt>
      <trkpt lat="37.05554" lon="-3.32715">
        <ele>3088.2</ele>
        <time>2021-08-06 10:29:14</time>
      </trkpt>
      <trkpt lat="37.05553" lon="-3.32714">
        <ele>3088.4</ele>
        <time>2021-08-06 10:29:15</time>
      </trkpt>
      <trkpt lat="37.05552" lon="-3.32712">
        <ele>3088.4</ele>
        <time>2021-08-06 10:29:16</time>
      </trkpt>
      <trkpt lat="37.05552" lon="-3.3271">
        <ele>3088.6</ele>
        <time>2021-08-06 10:29:17</time>
      </trkpt>
      <trkpt lat="37.05551" lon="-3.3271">
        <ele>3088.4</ele>
        <time>2021-08-06 10:29:18</time>
      </trkpt>
      <trkpt lat="37.05551" lon="-3.3271">
        <ele>3088.4</ele>
        <time>2021-08-06 10:29:19</time>
      </trkpt>
      <trkpt lat="37.0555" lon="-3.32709">
        <ele>3088.4</ele>
        <time>2021-08-06 10:29:20</time>
      </trkpt>
      <trkpt lat="37.05549" lon="-3.32708">
        <ele>3088.2</ele>
        <time>2021-08-06 10:29:21</time>
      </trkpt>
      <trkpt lat="37.05548" lon="-3.32706">
        <ele>3088.2</ele>
        <time>2021-08-06 10:29:22</time>
      </trkpt>
      <trkpt lat="37.05547" lon="-3.32705">
        <ele>3088.2</ele>
        <time>2021-08-06 10:29:23</time>
      </trkpt>
      <trkpt lat="37.05547" lon="-3.32703">
        <ele>3088</ele>
        <time>2021-08-06 10:29:24</time>
      </trkpt>
      <trkpt lat="37.05546" lon="-3.32702">
        <ele>3088</ele>
        <time>2021-08-06 10:29:25</time>
      </trkpt>
      <trkpt lat="37.05545" lon="-3.32701">
        <ele>3088</ele>
        <time>2021-08-06 10:29:26</time>
      </trkpt>
      <trkpt lat="37.05545" lon="-3.32699">
        <ele>3087.8</ele>
        <time>2021-08-06 10:29:27</time>
      </trkpt>
      <trkpt lat="37.05544" lon="-3.32699">
        <ele>3087.8</ele>
        <time>2021-08-06 10:29:28</time>
      </trkpt>
      <trkpt lat="37.05543" lon="-3.32698">
        <ele>3087.4</ele>
        <time>2021-08-06 10:29:29</time>
      </trkpt>
      <trkpt lat="37.05542" lon="-3.32697">
        <ele>3087.2</ele>
        <time>2021-08-06 10:29:30</time>
      </trkpt>
      <trkpt lat="37.05541" lon="-3.32696">
        <ele>3087.2</ele>
        <time>2021-08-06 10:29:31</time>
      </trkpt>
      <trkpt lat="37.0554" lon="-3.32695">
        <ele>3087</ele>
        <time>2021-08-06 10:29:32</time>
      </trkpt>
      <trkpt lat="37.05539" lon="-3.32695">
        <ele>3087.2</ele>
        <time>2021-08-06 10:29:33</time>
      </trkpt>
      <trkpt lat="37.05538" lon="-3.32694">
        <ele>3087.2</ele>
        <time>2021-08-06 10:29:34</time>
      </trkpt>
      <trkpt lat="37.05536" lon="-3.32694">
        <ele>3087.2</ele>
        <time>2021-08-06 10:29:35</time>
      </trkpt>
      <trkpt lat="37.05536" lon="-3.32693">
        <ele>3087.2</ele>
        <time>2021-08-06 10:29:36</time>
      </trkpt>
      <trkpt lat="37.05535" lon="-3.32692">
        <ele>3087.2</ele>
        <time>2021-08-06 10:29:37</time>
      </trkpt>
      <trkpt lat="37.05534" lon="-3.32691">
        <ele>3087.2</ele>
        <time>2021-08-06 10:29:38</time>
      </trkpt>
      <trkpt lat="37.05533" lon="-3.3269">
        <ele>3087.2</ele>
        <time>2021-08-06 10:29:39</time>
      </trkpt>
      <trkpt lat="37.05533" lon="-3.32689">
        <ele>3087.2</ele>
        <time>2021-08-06 10:29:40</time>
      </trkpt>
      <trkpt lat="37.05532" lon="-3.32688">
        <ele>3087.2</ele>
        <time>2021-08-06 10:29:41</time>
      </trkpt>
      <trkpt lat="37.05531" lon="-3.32686">
        <ele>3087.2</ele>
        <time>2021-08-06 10:29:42</time>
      </trkpt>
      <trkpt lat="37.05531" lon="-3.32685">
        <ele>3087.4</ele>
        <time>2021-08-06 10:29:43</time>
      </trkpt>
      <trkpt lat="37.0553" lon="-3.32684">
        <ele>3087.4</ele>
        <time>2021-08-06 10:29:44</time>
      </trkpt>
      <trkpt lat="37.05529" lon="-3.32683">
        <ele>3087.4</ele>
        <time>2021-08-06 10:29:45</time>
      </trkpt>
      <trkpt lat="37.05527" lon="-3.32685">
        <ele>3087.6</ele>
        <time>2021-08-06 10:29:46</time>
      </trkpt>
      <trkpt lat="37.05526" lon="-3.32685">
        <ele>3087.6</ele>
        <time>2021-08-06 10:29:47</time>
      </trkpt>
      <trkpt lat="37.05526" lon="-3.32684">
        <ele>3087.8</ele>
        <time>2021-08-06 10:29:48</time>
      </trkpt>
      <trkpt lat="37.05526" lon="-3.32684">
        <ele>3087.8</ele>
        <time>2021-08-06 10:29:49</time>
      </trkpt>
      <trkpt lat="37.05525" lon="-3.32684">
        <ele>3088</ele>
        <time>2021-08-06 10:29:50</time>
      </trkpt>
      <trkpt lat="37.05525" lon="-3.32683">
        <ele>3088</ele>
        <time>2021-08-06 10:29:51</time>
      </trkpt>
      <trkpt lat="37.05524" lon="-3.32682">
        <ele>3088.2</ele>
        <time>2021-08-06 10:29:52</time>
      </trkpt>
      <trkpt lat="37.05524" lon="-3.32681">
        <ele>3088.2</ele>
        <time>2021-08-06 10:29:53</time>
      </trkpt>
      <trkpt lat="37.05523" lon="-3.3268">
        <ele>3088.4</ele>
        <time>2021-08-06 10:29:54</time>
      </trkpt>
      <trkpt lat="37.05522" lon="-3.3268">
        <ele>3088.4</ele>
        <time>2021-08-06 10:29:55</time>
      </trkpt>
      <trkpt lat="37.05522" lon="-3.32678">
        <ele>3088.4</ele>
        <time>2021-08-06 10:29:56</time>
      </trkpt>
      <trkpt lat="37.05521" lon="-3.32676">
        <ele>3088.2</ele>
        <time>2021-08-06 10:29:57</time>
      </trkpt>
      <trkpt lat="37.05521" lon="-3.32674">
        <ele>3088.2</ele>
        <time>2021-08-06 10:29:58</time>
      </trkpt>
      <trkpt lat="37.0552" lon="-3.32673">
        <ele>3088.2</ele>
        <time>2021-08-06 10:29:59</time>
      </trkpt>
      <trkpt lat="37.05519" lon="-3.32671">
        <ele>3088</ele>
        <time>2021-08-06 10:30:00</time>
      </trkpt>
      <trkpt lat="37.05519" lon="-3.3267">
        <ele>3087.8</ele>
        <time>2021-08-06 10:30:01</time>
      </trkpt>
      <trkpt lat="37.05519" lon="-3.32668">
        <ele>3087.8</ele>
        <time>2021-08-06 10:30:02</time>
      </trkpt>
      <trkpt lat="37.05518" lon="-3.32667">
        <ele>3087.6</ele>
        <time>2021-08-06 10:30:03</time>
      </trkpt>
      <trkpt lat="37.05518" lon="-3.32666">
        <ele>3087.6</ele>
        <time>2021-08-06 10:30:04</time>
      </trkpt>
      <trkpt lat="37.05517" lon="-3.32665">
        <ele>3087.6</ele>
        <time>2021-08-06 10:30:05</time>
      </trkpt>
      <trkpt lat="37.05517" lon="-3.32664">
        <ele>3087.6</ele>
        <time>2021-08-06 10:30:06</time>
      </trkpt>
      <trkpt lat="37.05516" lon="-3.32663">
        <ele>3087.8</ele>
        <time>2021-08-06 10:30:07</time>
      </trkpt>
      <trkpt lat="37.05515" lon="-3.32662">
        <ele>3088</ele>
        <time>2021-08-06 10:30:08</time>
      </trkpt>
      <trkpt lat="37.05514" lon="-3.32662">
        <ele>3087.8</ele>
        <time>2021-08-06 10:30:09</time>
      </trkpt>
      <trkpt lat="37.05513" lon="-3.32661">
        <ele>3087.6</ele>
        <time>2021-08-06 10:30:10</time>
      </trkpt>
      <trkpt lat="37.05511" lon="-3.32661">
        <ele>3087.4</ele>
        <time>2021-08-06 10:30:11</time>
      </trkpt>
      <trkpt lat="37.05511" lon="-3.3266">
        <ele>3087.4</ele>
        <time>2021-08-06 10:30:12</time>
      </trkpt>
      <trkpt lat="37.05511" lon="-3.32659">
        <ele>3087</ele>
        <time>2021-08-06 10:30:13</time>
      </trkpt>
      <trkpt lat="37.0551" lon="-3.32658">
        <ele>3086.8</ele>
        <time>2021-08-06 10:30:14</time>
      </trkpt>
      <trkpt lat="37.05509" lon="-3.32658">
        <ele>3086.6</ele>
        <time>2021-08-06 10:30:15</time>
      </trkpt>
      <trkpt lat="37.05508" lon="-3.32658">
        <ele>3086.4</ele>
        <time>2021-08-06 10:30:16</time>
      </trkpt>
      <trkpt lat="37.05507" lon="-3.32657">
        <ele>3086.4</ele>
        <time>2021-08-06 10:30:17</time>
      </trkpt>
      <trkpt lat="37.05506" lon="-3.32656">
        <ele>3086.4</ele>
        <time>2021-08-06 10:30:18</time>
      </trkpt>
      <trkpt lat="37.05505" lon="-3.32656">
        <ele>3086.2</ele>
        <time>2021-08-06 10:30:19</time>
      </trkpt>
      <trkpt lat="37.05505" lon="-3.32654">
        <ele>3086.2</ele>
        <time>2021-08-06 10:30:20</time>
      </trkpt>
      <trkpt lat="37.05504" lon="-3.32653">
        <ele>3086</ele>
        <time>2021-08-06 10:30:21</time>
      </trkpt>
      <trkpt lat="37.05504" lon="-3.32651">
        <ele>3086</ele>
        <time>2021-08-06 10:30:22</time>
      </trkpt>
      <trkpt lat="37.05503" lon="-3.3265">
        <ele>3085.8</ele>
        <time>2021-08-06 10:30:23</time>
      </trkpt>
      <trkpt lat="37.05503" lon="-3.32649">
        <ele>3085.8</ele>
        <time>2021-08-06 10:30:24</time>
      </trkpt>
      <trkpt lat="37.05502" lon="-3.32648">
        <ele>3085.6</ele>
        <time>2021-08-06 10:30:25</time>
      </trkpt>
      <trkpt lat="37.05501" lon="-3.32648">
        <ele>3085.4</ele>
        <time>2021-08-06 10:30:26</time>
      </trkpt>
      <trkpt lat="37.055" lon="-3.32647">
        <ele>3085.4</ele>
        <time>2021-08-06 10:30:27</time>
      </trkpt>
      <trkpt lat="37.05499" lon="-3.32646">
        <ele>3085.2</ele>
        <time>2021-08-06 10:30:28</time>
      </trkpt>
      <trkpt lat="37.05498" lon="-3.32645">
        <ele>3085.2</ele>
        <time>2021-08-06 10:30:29</time>
      </trkpt>
      <trkpt lat="37.05498" lon="-3.32645">
        <ele>3085.2</ele>
        <time>2021-08-06 10:30:30</time>
      </trkpt>
      <trkpt lat="37.05497" lon="-3.32644">
        <ele>3085.2</ele>
        <time>2021-08-06 10:30:31</time>
      </trkpt>
      <trkpt lat="37.05496" lon="-3.32643">
        <ele>3085.2</ele>
        <time>2021-08-06 10:30:32</time>
      </trkpt>
      <trkpt lat="37.05496" lon="-3.32641">
        <ele>3085</ele>
        <time>2021-08-06 10:30:33</time>
      </trkpt>
      <trkpt lat="37.05496" lon="-3.3264">
        <ele>3084.8</ele>
        <time>2021-08-06 10:30:34</time>
      </trkpt>
      <trkpt lat="37.05496" lon="-3.32639">
        <ele>3084.6</ele>
        <time>2021-08-06 10:30:35</time>
      </trkpt>
      <trkpt lat="37.05496" lon="-3.32638">
        <ele>3084.6</ele>
        <time>2021-08-06 10:30:36</time>
      </trkpt>
      <trkpt lat="37.05495" lon="-3.32637">
        <ele>3084.4</ele>
        <time>2021-08-06 10:30:37</time>
      </trkpt>
      <trkpt lat="37.05495" lon="-3.32637">
        <ele>3084.4</ele>
        <time>2021-08-06 10:30:38</time>
      </trkpt>
      <trkpt lat="37.05494" lon="-3.32637">
        <ele>3084.4</ele>
        <time>2021-08-06 10:30:39</time>
      </trkpt>
      <trkpt lat="37.05494" lon="-3.32637">
        <ele>3084.4</ele>
        <time>2021-08-06 10:30:40</time>
      </trkpt>
      <trkpt lat="37.05495" lon="-3.32637">
        <ele>3084.2</ele>
        <time>2021-08-06 10:30:41</time>
      </trkpt>
      <trkpt lat="37.05495" lon="-3.32637">
        <ele>3084.2</ele>
        <time>2021-08-06 10:30:42</time>
      </trkpt>
      <trkpt lat="37.05495" lon="-3.32638">
        <ele>3084</ele>
        <time>2021-08-06 10:30:43</time>
      </trkpt>
      <trkpt lat="37.05495" lon="-3.32638">
        <ele>3083.8</ele>
        <time>2021-08-06 10:30:44</time>
      </trkpt>
      <trkpt lat="37.05495" lon="-3.32638">
        <ele>3083.8</ele>
        <time>2021-08-06 10:30:45</time>
      </trkpt>
      <trkpt lat="37.05495" lon="-3.32638">
        <ele>3083.8</ele>
        <time>2021-08-06 10:30:46</time>
      </trkpt>
      <trkpt lat="37.05496" lon="-3.32637">
        <ele>3083.8</ele>
        <time>2021-08-06 10:30:47</time>
      </trkpt>
      <trkpt lat="37.05496" lon="-3.32636">
        <ele>3083.6</ele>
        <time>2021-08-06 10:30:48</time>
      </trkpt>
      <trkpt lat="37.05497" lon="-3.32635">
        <ele>3083.6</ele>
        <time>2021-08-06 10:30:49</time>
      </trkpt>
      <trkpt lat="37.05497" lon="-3.32635">
        <ele>3083.8</ele>
        <time>2021-08-06 10:30:50</time>
      </trkpt>
      <trkpt lat="37.05498" lon="-3.32635">
        <ele>3083.6</ele>
        <time>2021-08-06 10:30:51</time>
      </trkpt>
      <trkpt lat="37.05498" lon="-3.32635">
        <ele>3083.4</ele>
        <time>2021-08-06 10:30:52</time>
      </trkpt>
      <trkpt lat="37.05497" lon="-3.32634">
        <ele>3083.4</ele>
        <time>2021-08-06 10:30:53</time>
      </trkpt>
      <trkpt lat="37.05497" lon="-3.32633">
        <ele>3083.4</ele>
        <time>2021-08-06 10:30:54</time>
      </trkpt>
      <trkpt lat="37.05497" lon="-3.32634">
        <ele>3083.6</ele>
        <time>2021-08-06 10:30:55</time>
      </trkpt>
      <trkpt lat="37.05497" lon="-3.32633">
        <ele>3083.6</ele>
        <time>2021-08-06 10:30:56</time>
      </trkpt>
      <trkpt lat="37.05496" lon="-3.32632">
        <ele>3083.6</ele>
        <time>2021-08-06 10:30:57</time>
      </trkpt>
      <trkpt lat="37.05495" lon="-3.32632">
        <ele>3083.6</ele>
        <time>2021-08-06 10:30:58</time>
      </trkpt>
      <trkpt lat="37.05494" lon="-3.32631">
        <ele>3083.8</ele>
        <time>2021-08-06 10:30:59</time>
      </trkpt>
      <trkpt lat="37.05493" lon="-3.3263">
        <ele>3084</ele>
        <time>2021-08-06 10:31:00</time>
      </trkpt>
      <trkpt lat="37.05492" lon="-3.32629">
        <ele>3084</ele>
        <time>2021-08-06 10:31:01</time>
      </trkpt>
      <trkpt lat="37.05491" lon="-3.32629">
        <ele>3084</ele>
        <time>2021-08-06 10:31:02</time>
      </trkpt>
      <trkpt lat="37.05489" lon="-3.32629">
        <ele>3083.8</ele>
        <time>2021-08-06 10:31:03</time>
      </trkpt>
      <trkpt lat="37.05488" lon="-3.32629">
        <ele>3084</ele>
        <time>2021-08-06 10:31:04</time>
      </trkpt>
      <trkpt lat="37.05489" lon="-3.32629">
        <ele>3084</ele>
        <time>2021-08-06 10:31:05</time>
      </trkpt>
      <trkpt lat="37.05489" lon="-3.32628">
        <ele>3084</ele>
        <time>2021-08-06 10:31:06</time>
      </trkpt>
      <trkpt lat="37.05488" lon="-3.32628">
        <ele>3084</ele>
        <time>2021-08-06 10:31:07</time>
      </trkpt>
      <trkpt lat="37.05487" lon="-3.32629">
        <ele>3084</ele>
        <time>2021-08-06 10:31:08</time>
      </trkpt>
      <trkpt lat="37.05486" lon="-3.32629">
        <ele>3084</ele>
        <time>2021-08-06 10:31:09</time>
      </trkpt>
      <trkpt lat="37.05485" lon="-3.3263">
        <ele>3084.2</ele>
        <time>2021-08-06 10:31:10</time>
      </trkpt>
      <trkpt lat="37.05483" lon="-3.3264">
        <ele>3087</ele>
        <time>2021-08-06 10:31:11</time>
      </trkpt>
      <trkpt lat="37.05483" lon="-3.3264">
        <ele>3087</ele>
        <time>2021-08-06 10:31:12</time>
      </trkpt>
      <trkpt lat="37.05483" lon="-3.3264">
        <ele>3087</ele>
        <time>2021-08-06 10:31:13</time>
      </trkpt>
      <trkpt lat="37.05482" lon="-3.3264">
        <ele>3087</ele>
        <time>2021-08-06 10:31:14</time>
      </trkpt>
      <trkpt lat="37.05481" lon="-3.3264">
        <ele>3087</ele>
        <time>2021-08-06 10:31:15</time>
      </trkpt>
      <trkpt lat="37.05495" lon="-3.3263">
        <ele>3087.6</ele>
        <time>2021-08-06 10:31:16</time>
      </trkpt>
      <trkpt lat="37.05489" lon="-3.32626">
        <ele>3087.6</ele>
        <time>2021-08-06 10:31:17</time>
      </trkpt>
      <trkpt lat="37.05485" lon="-3.3263">
        <ele>3087</ele>
        <time>2021-08-06 10:31:18</time>
      </trkpt>
      <trkpt lat="37.05485" lon="-3.32629">
        <ele>3087</ele>
        <time>2021-08-06 10:31:19</time>
      </trkpt>
      <trkpt lat="37.05485" lon="-3.32629">
        <ele>3087</ele>
        <time>2021-08-06 10:31:20</time>
      </trkpt>
      <trkpt lat="37.05484" lon="-3.32629">
        <ele>3087</ele>
        <time>2021-08-06 10:31:21</time>
      </trkpt>
      <trkpt lat="37.05484" lon="-3.32628">
        <ele>3087</ele>
        <time>2021-08-06 10:31:22</time>
      </trkpt>
      <trkpt lat="37.05484" lon="-3.32627">
        <ele>3087.2</ele>
        <time>2021-08-06 10:31:23</time>
      </trkpt>
      <trkpt lat="37.05485" lon="-3.32626">
        <ele>3087.2</ele>
        <time>2021-08-06 10:31:24</time>
      </trkpt>
      <trkpt lat="37.05485" lon="-3.32626">
        <ele>3087.2</ele>
        <time>2021-08-06 10:31:25</time>
      </trkpt>
      <trkpt lat="37.05483" lon="-3.32626">
        <ele>3087.2</ele>
        <time>2021-08-06 10:31:26</time>
      </trkpt>
      <trkpt lat="37.05483" lon="-3.32626">
        <ele>3087.2</ele>
        <time>2021-08-06 10:31:27</time>
      </trkpt>
      <trkpt lat="37.05484" lon="-3.32626">
        <ele>3087.2</ele>
        <time>2021-08-06 10:31:28</time>
      </trkpt>
      <trkpt lat="37.05484" lon="-3.32625">
        <ele>3087.2</ele>
        <time>2021-08-06 10:31:29</time>
      </trkpt>
      <trkpt lat="37.05485" lon="-3.32625">
        <ele>3087.2</ele>
        <time>2021-08-06 10:31:30</time>
      </trkpt>
      <trkpt lat="37.05485" lon="-3.32624">
        <ele>3087.2</ele>
        <time>2021-08-06 10:31:31</time>
      </trkpt>
      <trkpt lat="37.05486" lon="-3.32623">
        <ele>3087.2</ele>
        <time>2021-08-06 10:31:32</time>
      </trkpt>
      <trkpt lat="37.05487" lon="-3.32622">
        <ele>3087.2</ele>
        <time>2021-08-06 10:31:33</time>
      </trkpt>
      <trkpt lat="37.05488" lon="-3.32621">
        <ele>3087</ele>
        <time>2021-08-06 10:31:34</time>
      </trkpt>
      <trkpt lat="37.05488" lon="-3.3262">
        <ele>3087</ele>
        <time>2021-08-06 10:31:35</time>
      </trkpt>
      <trkpt lat="37.05489" lon="-3.3262">
        <ele>3087</ele>
        <time>2021-08-06 10:31:36</time>
      </trkpt>
      <trkpt lat="37.0549" lon="-3.32619">
        <ele>3087</ele>
        <time>2021-08-06 10:31:37</time>
      </trkpt>
      <trkpt lat="37.05491" lon="-3.32617">
        <ele>3087</ele>
        <time>2021-08-06 10:31:38</time>
      </trkpt>
      <trkpt lat="37.05492" lon="-3.32616">
        <ele>3087</ele>
        <time>2021-08-06 10:31:39</time>
      </trkpt>
      <trkpt lat="37.05493" lon="-3.32615">
        <ele>3087</ele>
        <time>2021-08-06 10:31:40</time>
      </trkpt>
      <trkpt lat="37.05494" lon="-3.32614">
        <ele>3087</ele>
        <time>2021-08-06 10:31:41</time>
      </trkpt>
      <trkpt lat="37.05494" lon="-3.32613">
        <ele>3087</ele>
        <time>2021-08-06 10:31:42</time>
      </trkpt>
      <trkpt lat="37.05495" lon="-3.32612">
        <ele>3087</ele>
        <time>2021-08-06 10:31:43</time>
      </trkpt>
      <trkpt lat="37.05495" lon="-3.3261">
        <ele>3087</ele>
        <time>2021-08-06 10:31:44</time>
      </trkpt>
      <trkpt lat="37.05495" lon="-3.32609">
        <ele>3086.6</ele>
        <time>2021-08-06 10:31:45</time>
      </trkpt>
      <trkpt lat="37.05495" lon="-3.32608">
        <ele>3086.4</ele>
        <time>2021-08-06 10:31:46</time>
      </trkpt>
      <trkpt lat="37.05496" lon="-3.32607">
        <ele>3086.2</ele>
        <time>2021-08-06 10:31:47</time>
      </trkpt>
      <trkpt lat="37.05496" lon="-3.32605">
        <ele>3086</ele>
        <time>2021-08-06 10:31:48</time>
      </trkpt>
      <trkpt lat="37.05496" lon="-3.32603">
        <ele>3086</ele>
        <time>2021-08-06 10:31:49</time>
      </trkpt>
      <trkpt lat="37.05496" lon="-3.32601">
        <ele>3086</ele>
        <time>2021-08-06 10:31:50</time>
      </trkpt>
      <trkpt lat="37.05497" lon="-3.326">
        <ele>3085.8</ele>
        <time>2021-08-06 10:31:51</time>
      </trkpt>
      <trkpt lat="37.05497" lon="-3.32599">
        <ele>3085.8</ele>
        <time>2021-08-06 10:31:52</time>
      </trkpt>
      <trkpt lat="37.05497" lon="-3.32598">
        <ele>3085.6</ele>
        <time>2021-08-06 10:31:53</time>
      </trkpt>
      <trkpt lat="37.05498" lon="-3.32597">
        <ele>3085.6</ele>
        <time>2021-08-06 10:31:54</time>
      </trkpt>
      <trkpt lat="37.05498" lon="-3.32595">
        <ele>3085.6</ele>
        <time>2021-08-06 10:31:55</time>
      </trkpt>
      <trkpt lat="37.05498" lon="-3.32594">
        <ele>3085.6</ele>
        <time>2021-08-06 10:31:56</time>
      </trkpt>
      <trkpt lat="37.05498" lon="-3.32593">
        <ele>3085.4</ele>
        <time>2021-08-06 10:31:57</time>
      </trkpt>
      <trkpt lat="37.05498" lon="-3.32592">
        <ele>3085.4</ele>
        <time>2021-08-06 10:31:58</time>
      </trkpt>
      <trkpt lat="37.05498" lon="-3.32591">
        <ele>3085</ele>
        <time>2021-08-06 10:31:59</time>
      </trkpt>
      <trkpt lat="37.05498" lon="-3.3259">
        <ele>3084.8</ele>
        <time>2021-08-06 10:32:00</time>
      </trkpt>
      <trkpt lat="37.05498" lon="-3.32589">
        <ele>3084.6</ele>
        <time>2021-08-06 10:32:01</time>
      </trkpt>
      <trkpt lat="37.05497" lon="-3.32588">
        <ele>3084.6</ele>
        <time>2021-08-06 10:32:02</time>
      </trkpt>
      <trkpt lat="37.05497" lon="-3.32587">
        <ele>3084.6</ele>
        <time>2021-08-06 10:32:03</time>
      </trkpt>
      <trkpt lat="37.05497" lon="-3.32586">
        <ele>3084.6</ele>
        <time>2021-08-06 10:32:04</time>
      </trkpt>
      <trkpt lat="37.05498" lon="-3.32586">
        <ele>3084.6</ele>
        <time>2021-08-06 10:32:05</time>
      </trkpt>
      <trkpt lat="37.05498" lon="-3.32585">
        <ele>3084.6</ele>
        <time>2021-08-06 10:32:06</time>
      </trkpt>
      <trkpt lat="37.05498" lon="-3.32584">
        <ele>3084.6</ele>
        <time>2021-08-06 10:32:07</time>
      </trkpt>
      <trkpt lat="37.05498" lon="-3.32583">
        <ele>3084.6</ele>
        <time>2021-08-06 10:32:08</time>
      </trkpt>
      <trkpt lat="37.05498" lon="-3.32582">
        <ele>3084.6</ele>
        <time>2021-08-06 10:32:09</time>
      </trkpt>
      <trkpt lat="37.05499" lon="-3.32581">
        <ele>3084.8</ele>
        <time>2021-08-06 10:32:10</time>
      </trkpt>
      <trkpt lat="37.05499" lon="-3.3258">
        <ele>3085</ele>
        <time>2021-08-06 10:32:11</time>
      </trkpt>
      <trkpt lat="37.05499" lon="-3.3258">
        <ele>3085</ele>
        <time>2021-08-06 10:32:12</time>
      </trkpt>
      <trkpt lat="37.05498" lon="-3.3258">
        <ele>3084.4</ele>
        <time>2021-08-06 10:32:13</time>
      </trkpt>
      <trkpt lat="37.05496" lon="-3.3258">
        <ele>3084.2</ele>
        <time>2021-08-06 10:32:14</time>
      </trkpt>
      <trkpt lat="37.05496" lon="-3.32579">
        <ele>3084</ele>
        <time>2021-08-06 10:32:15</time>
      </trkpt>
      <trkpt lat="37.05496" lon="-3.32579">
        <ele>3084</ele>
        <time>2021-08-06 10:32:16</time>
      </trkpt>
      <trkpt lat="37.05496" lon="-3.32579">
        <ele>3083.8</ele>
        <time>2021-08-06 10:32:17</time>
      </trkpt>
      <trkpt lat="37.05497" lon="-3.32577">
        <ele>3083.8</ele>
        <time>2021-08-06 10:32:18</time>
      </trkpt>
      <trkpt lat="37.05497" lon="-3.32576">
        <ele>3083.8</ele>
        <time>2021-08-06 10:32:19</time>
      </trkpt>
      <trkpt lat="37.05496" lon="-3.32575">
        <ele>3083.8</ele>
        <time>2021-08-06 10:32:20</time>
      </trkpt>
      <trkpt lat="37.05496" lon="-3.32574">
        <ele>3083.8</ele>
        <time>2021-08-06 10:32:21</time>
      </trkpt>
      <trkpt lat="37.05496" lon="-3.32574">
        <ele>3083.6</ele>
        <time>2021-08-06 10:32:22</time>
      </trkpt>
      <trkpt lat="37.05497" lon="-3.32573">
        <ele>3083.6</ele>
        <time>2021-08-06 10:32:23</time>
      </trkpt>
      <trkpt lat="37.05498" lon="-3.32571">
        <ele>3083.6</ele>
        <time>2021-08-06 10:32:24</time>
      </trkpt>
      <trkpt lat="37.05499" lon="-3.3257">
        <ele>3083.6</ele>
        <time>2021-08-06 10:32:25</time>
      </trkpt>
      <trkpt lat="37.05499" lon="-3.32569">
        <ele>3083.6</ele>
        <time>2021-08-06 10:32:26</time>
      </trkpt>
      <trkpt lat="37.05499" lon="-3.32568">
        <ele>3083.4</ele>
        <time>2021-08-06 10:32:27</time>
      </trkpt>
      <trkpt lat="37.05498" lon="-3.32567">
        <ele>3083.4</ele>
        <time>2021-08-06 10:32:28</time>
      </trkpt>
      <trkpt lat="37.05498" lon="-3.32566">
        <ele>3083.4</ele>
        <time>2021-08-06 10:32:29</time>
      </trkpt>
      <trkpt lat="37.05498" lon="-3.32565">
        <ele>3083.4</ele>
        <time>2021-08-06 10:32:30</time>
      </trkpt>
      <trkpt lat="37.05498" lon="-3.32564">
        <ele>3083.2</ele>
        <time>2021-08-06 10:32:31</time>
      </trkpt>
      <trkpt lat="37.05498" lon="-3.32562">
        <ele>3083.4</ele>
        <time>2021-08-06 10:32:32</time>
      </trkpt>
      <trkpt lat="37.05497" lon="-3.32561">
        <ele>3083.4</ele>
        <time>2021-08-06 10:32:33</time>
      </trkpt>
      <trkpt lat="37.05498" lon="-3.3256">
        <ele>3083.6</ele>
        <time>2021-08-06 10:32:34</time>
      </trkpt>
      <trkpt lat="37.05497" lon="-3.32558">
        <ele>3083.6</ele>
        <time>2021-08-06 10:32:35</time>
      </trkpt>
      <trkpt lat="37.05497" lon="-3.32557">
        <ele>3083.8</ele>
        <time>2021-08-06 10:32:36</time>
      </trkpt>
      <trkpt lat="37.05496" lon="-3.32556">
        <ele>3083.8</ele>
        <time>2021-08-06 10:32:37</time>
      </trkpt>
      <trkpt lat="37.05496" lon="-3.32555">
        <ele>3084</ele>
        <time>2021-08-06 10:32:38</time>
      </trkpt>
      <trkpt lat="37.05496" lon="-3.32553">
        <ele>3084</ele>
        <time>2021-08-06 10:32:39</time>
      </trkpt>
      <trkpt lat="37.05495" lon="-3.32551">
        <ele>3084</ele>
        <time>2021-08-06 10:32:40</time>
      </trkpt>
      <trkpt lat="37.05496" lon="-3.3255">
        <ele>3084.2</ele>
        <time>2021-08-06 10:32:41</time>
      </trkpt>
      <trkpt lat="37.05496" lon="-3.3255">
        <ele>3084.2</ele>
        <time>2021-08-06 10:32:42</time>
      </trkpt>
      <trkpt lat="37.05496" lon="-3.32549">
        <ele>3084.4</ele>
        <time>2021-08-06 10:32:43</time>
      </trkpt>
      <trkpt lat="37.05496" lon="-3.32548">
        <ele>3084.4</ele>
        <time>2021-08-06 10:32:44</time>
      </trkpt>
      <trkpt lat="37.05496" lon="-3.32547">
        <ele>3084.4</ele>
        <time>2021-08-06 10:32:45</time>
      </trkpt>
      <trkpt lat="37.05496" lon="-3.32546">
        <ele>3084.4</ele>
        <time>2021-08-06 10:32:46</time>
      </trkpt>
      <trkpt lat="37.05496" lon="-3.32545">
        <ele>3084.6</ele>
        <time>2021-08-06 10:32:47</time>
      </trkpt>
      <trkpt lat="37.05495" lon="-3.32544">
        <ele>3084.6</ele>
        <time>2021-08-06 10:32:48</time>
      </trkpt>
      <trkpt lat="37.05495" lon="-3.32543">
        <ele>3084.6</ele>
        <time>2021-08-06 10:32:49</time>
      </trkpt>
      <trkpt lat="37.05494" lon="-3.32542">
        <ele>3084.8</ele>
        <time>2021-08-06 10:32:50</time>
      </trkpt>
      <trkpt lat="37.05493" lon="-3.32541">
        <ele>3084.6</ele>
        <time>2021-08-06 10:32:51</time>
      </trkpt>
      <trkpt lat="37.05493" lon="-3.32539">
        <ele>3084.8</ele>
        <time>2021-08-06 10:32:52</time>
      </trkpt>
      <trkpt lat="37.05492" lon="-3.32538">
        <ele>3084.8</ele>
        <time>2021-08-06 10:32:53</time>
      </trkpt>
      <trkpt lat="37.05492" lon="-3.32537">
        <ele>3084.8</ele>
        <time>2021-08-06 10:32:54</time>
      </trkpt>
      <trkpt lat="37.05492" lon="-3.32535">
        <ele>3084.8</ele>
        <time>2021-08-06 10:32:55</time>
      </trkpt>
      <trkpt lat="37.05492" lon="-3.32534">
        <ele>3085.2</ele>
        <time>2021-08-06 10:32:56</time>
      </trkpt>
      <trkpt lat="37.05491" lon="-3.32533">
        <ele>3085.4</ele>
        <time>2021-08-06 10:32:57</time>
      </trkpt>
      <trkpt lat="37.05491" lon="-3.32532">
        <ele>3085.4</ele>
        <time>2021-08-06 10:32:58</time>
      </trkpt>
      <trkpt lat="37.0549" lon="-3.32532">
        <ele>3085.4</ele>
        <time>2021-08-06 10:32:59</time>
      </trkpt>
      <trkpt lat="37.0549" lon="-3.3253">
        <ele>3085.6</ele>
        <time>2021-08-06 10:33:00</time>
      </trkpt>
      <trkpt lat="37.05491" lon="-3.3253">
        <ele>3085.4</ele>
        <time>2021-08-06 10:33:01</time>
      </trkpt>
      <trkpt lat="37.05491" lon="-3.32528">
        <ele>3085.4</ele>
        <time>2021-08-06 10:33:02</time>
      </trkpt>
      <trkpt lat="37.0549" lon="-3.32529">
        <ele>3085.2</ele>
        <time>2021-08-06 10:33:03</time>
      </trkpt>
      <trkpt lat="37.0549" lon="-3.32528">
        <ele>3085.2</ele>
        <time>2021-08-06 10:33:04</time>
      </trkpt>
      <trkpt lat="37.0549" lon="-3.32527">
        <ele>3085</ele>
        <time>2021-08-06 10:33:05</time>
      </trkpt>
      <trkpt lat="37.05491" lon="-3.32527">
        <ele>3085</ele>
        <time>2021-08-06 10:33:06</time>
      </trkpt>
      <trkpt lat="37.05491" lon="-3.32526">
        <ele>3085</ele>
        <time>2021-08-06 10:33:07</time>
      </trkpt>
      <trkpt lat="37.05491" lon="-3.32525">
        <ele>3085</ele>
        <time>2021-08-06 10:33:08</time>
      </trkpt>
      <trkpt lat="37.05491" lon="-3.32524">
        <ele>3085</ele>
        <time>2021-08-06 10:33:09</time>
      </trkpt>
      <trkpt lat="37.05492" lon="-3.32523">
        <ele>3085</ele>
        <time>2021-08-06 10:33:10</time>
      </trkpt>
      <trkpt lat="37.05492" lon="-3.32522">
        <ele>3085.2</ele>
        <time>2021-08-06 10:33:11</time>
      </trkpt>
      <trkpt lat="37.05492" lon="-3.32522">
        <ele>3085.2</ele>
        <time>2021-08-06 10:33:12</time>
      </trkpt>
      <trkpt lat="37.05493" lon="-3.32521">
        <ele>3085.2</ele>
        <time>2021-08-06 10:33:13</time>
      </trkpt>
      <trkpt lat="37.05493" lon="-3.32519">
        <ele>3085</ele>
        <time>2021-08-06 10:33:14</time>
      </trkpt>
      <trkpt lat="37.05493" lon="-3.32518">
        <ele>3085</ele>
        <time>2021-08-06 10:33:15</time>
      </trkpt>
      <trkpt lat="37.05493" lon="-3.32517">
        <ele>3085</ele>
        <time>2021-08-06 10:33:16</time>
      </trkpt>
      <trkpt lat="37.05494" lon="-3.32515">
        <ele>3084.8</ele>
        <time>2021-08-06 10:33:17</time>
      </trkpt>
      <trkpt lat="37.05494" lon="-3.32514">
        <ele>3084.8</ele>
        <time>2021-08-06 10:33:18</time>
      </trkpt>
      <trkpt lat="37.05495" lon="-3.32513">
        <ele>3085</ele>
        <time>2021-08-06 10:33:19</time>
      </trkpt>
      <trkpt lat="37.05494" lon="-3.32512">
        <ele>3085</ele>
        <time>2021-08-06 10:33:20</time>
      </trkpt>
      <trkpt lat="37.05494" lon="-3.32511">
        <ele>3084.8</ele>
        <time>2021-08-06 10:33:21</time>
      </trkpt>
      <trkpt lat="37.05495" lon="-3.3251">
        <ele>3084.4</ele>
        <time>2021-08-06 10:33:22</time>
      </trkpt>
      <trkpt lat="37.05495" lon="-3.32509">
        <ele>3084.4</ele>
        <time>2021-08-06 10:33:23</time>
      </trkpt>
      <trkpt lat="37.05495" lon="-3.32508">
        <ele>3084.4</ele>
        <time>2021-08-06 10:33:36</time>
      </trkpt>
      <trkpt lat="37.05495" lon="-3.32506">
        <ele>3084.2</ele>
        <time>2021-08-06 10:33:37</time>
      </trkpt>
      <trkpt lat="37.05496" lon="-3.32505">
        <ele>3084</ele>
        <time>2021-08-06 10:33:38</time>
      </trkpt>
      <trkpt lat="37.05496" lon="-3.32503">
        <ele>3084</ele>
        <time>2021-08-06 10:33:39</time>
      </trkpt>
      <trkpt lat="37.05497" lon="-3.32502">
        <ele>3083.4</ele>
        <time>2021-08-06 10:33:40</time>
      </trkpt>
      <trkpt lat="37.05497" lon="-3.325">
        <ele>3083.2</ele>
        <time>2021-08-06 10:37:26</time>
      </trkpt>
      <trkpt lat="37.05497" lon="-3.325">
        <ele>3083</ele>
        <time>2021-08-06 10:37:27</time>
      </trkpt>
      <trkpt lat="37.05497" lon="-3.32499">
        <ele>3083</ele>
        <time>2021-08-06 10:37:28</time>
      </trkpt>
      <trkpt lat="37.05497" lon="-3.32498">
        <ele>3082.8</ele>
        <time>2021-08-06 10:37:29</time>
      </trkpt>
      <trkpt lat="37.05498" lon="-3.32497">
        <ele>3082.8</ele>
        <time>2021-08-06 10:37:30</time>
      </trkpt>
      <trkpt lat="37.05498" lon="-3.32496">
        <ele>3082.8</ele>
        <time>2021-08-06 10:37:31</time>
      </trkpt>
      <trkpt lat="37.05498" lon="-3.32495">
        <ele>3083</ele>
        <time>2021-08-06 10:37:32</time>
      </trkpt>
      <trkpt lat="37.05499" lon="-3.32495">
        <ele>3082.8</ele>
        <time>2021-08-06 10:37:33</time>
      </trkpt>
      <trkpt lat="37.055" lon="-3.32494">
        <ele>3082.8</ele>
        <time>2021-08-06 10:37:34</time>
      </trkpt>
      <trkpt lat="37.055" lon="-3.32492">
        <ele>3083</ele>
        <time>2021-08-06 10:37:35</time>
      </trkpt>
      <trkpt lat="37.055" lon="-3.32491">
        <ele>3082.8</ele>
        <time>2021-08-06 10:37:36</time>
      </trkpt>
      <trkpt lat="37.05501" lon="-3.3249">
        <ele>3082.8</ele>
        <time>2021-08-06 10:37:37</time>
      </trkpt>
      <trkpt lat="37.05501" lon="-3.3249">
        <ele>3082.8</ele>
        <time>2021-08-06 10:37:38</time>
      </trkpt>
      <trkpt lat="37.05502" lon="-3.32489">
        <ele>3082.8</ele>
        <time>2021-08-06 10:37:39</time>
      </trkpt>
      <trkpt lat="37.05502" lon="-3.32487">
        <ele>3082.8</ele>
        <time>2021-08-06 10:37:40</time>
      </trkpt>
      <trkpt lat="37.05502" lon="-3.32486">
        <ele>3082.8</ele>
        <time>2021-08-06 10:37:41</time>
      </trkpt>
      <trkpt lat="37.05502" lon="-3.32485">
        <ele>3082.8</ele>
        <time>2021-08-06 10:37:42</time>
      </trkpt>
      <trkpt lat="37.05502" lon="-3.32483">
        <ele>3082.6</ele>
        <time>2021-08-06 10:37:43</time>
      </trkpt>
      <trkpt lat="37.05502" lon="-3.32482">
        <ele>3082.6</ele>
        <time>2021-08-06 10:37:44</time>
      </trkpt>
      <trkpt lat="37.05502" lon="-3.3248">
        <ele>3082.6</ele>
        <time>2021-08-06 10:37:45</time>
      </trkpt>
      <trkpt lat="37.05502" lon="-3.32479">
        <ele>3082.6</ele>
        <time>2021-08-06 10:37:46</time>
      </trkpt>
      <trkpt lat="37.05501" lon="-3.32478">
        <ele>3082.6</ele>
        <time>2021-08-06 10:37:47</time>
      </trkpt>
      <trkpt lat="37.05501" lon="-3.32477">
        <ele>3082.6</ele>
        <time>2021-08-06 10:37:48</time>
      </trkpt>
      <trkpt lat="37.05501" lon="-3.32476">
        <ele>3082.6</ele>
        <time>2021-08-06 10:37:49</time>
      </trkpt>
      <trkpt lat="37.055" lon="-3.32475">
        <ele>3082.6</ele>
        <time>2021-08-06 10:37:50</time>
      </trkpt>
      <trkpt lat="37.05501" lon="-3.32474">
        <ele>3082.6</ele>
        <time>2021-08-06 10:37:51</time>
      </trkpt>
      <trkpt lat="37.05501" lon="-3.32473">
        <ele>3082.6</ele>
        <time>2021-08-06 10:37:52</time>
      </trkpt>
      <trkpt lat="37.05501" lon="-3.32473">
        <ele>3082.8</ele>
        <time>2021-08-06 10:37:53</time>
      </trkpt>
      <trkpt lat="37.05501" lon="-3.32472">
        <ele>3082.8</ele>
        <time>2021-08-06 10:37:54</time>
      </trkpt>
      <trkpt lat="37.05501" lon="-3.32471">
        <ele>3083</ele>
        <time>2021-08-06 10:37:55</time>
      </trkpt>
      <trkpt lat="37.05501" lon="-3.32469">
        <ele>3083</ele>
        <time>2021-08-06 10:37:56</time>
      </trkpt>
      <trkpt lat="37.05502" lon="-3.32468">
        <ele>3083</ele>
        <time>2021-08-06 10:37:57</time>
      </trkpt>
      <trkpt lat="37.05502" lon="-3.32468">
        <ele>3083.2</ele>
        <time>2021-08-06 10:37:58</time>
      </trkpt>
      <trkpt lat="37.05503" lon="-3.32468">
        <ele>3083.4</ele>
        <time>2021-08-06 10:37:59</time>
      </trkpt>
      <trkpt lat="37.05503" lon="-3.32468">
        <ele>3083.4</ele>
        <time>2021-08-06 10:38:00</time>
      </trkpt>
      <trkpt lat="37.05502" lon="-3.32467">
        <ele>3083.4</ele>
        <time>2021-08-06 10:38:01</time>
      </trkpt>
      <trkpt lat="37.05502" lon="-3.32467">
        <ele>3083.6</ele>
        <time>2021-08-06 10:38:02</time>
      </trkpt>
      <trkpt lat="37.05503" lon="-3.32467">
        <ele>3083.6</ele>
        <time>2021-08-06 10:38:03</time>
      </trkpt>
      <trkpt lat="37.05503" lon="-3.32466">
        <ele>3083.6</ele>
        <time>2021-08-06 10:38:04</time>
      </trkpt>
      <trkpt lat="37.05503" lon="-3.32466">
        <ele>3083.6</ele>
        <time>2021-08-06 10:38:05</time>
      </trkpt>
      <trkpt lat="37.05503" lon="-3.32466">
        <ele>3083.6</ele>
        <time>2021-08-06 10:38:06</time>
      </trkpt>
      <trkpt lat="37.05503" lon="-3.32465">
        <ele>3083.6</ele>
        <time>2021-08-06 10:38:07</time>
      </trkpt>
      <trkpt lat="37.05503" lon="-3.32465">
        <ele>3083.6</ele>
        <time>2021-08-06 10:38:08</time>
      </trkpt>
      <trkpt lat="37.05503" lon="-3.32464">
        <ele>3083.6</ele>
        <time>2021-08-06 10:38:09</time>
      </trkpt>
      <trkpt lat="37.05504" lon="-3.32463">
        <ele>3083.6</ele>
        <time>2021-08-06 10:38:10</time>
      </trkpt>
      <trkpt lat="37.05505" lon="-3.32462">
        <ele>3083.6</ele>
        <time>2021-08-06 10:38:11</time>
      </trkpt>
      <trkpt lat="37.05506" lon="-3.32461">
        <ele>3083.8</ele>
        <time>2021-08-06 10:38:12</time>
      </trkpt>
      <trkpt lat="37.05505" lon="-3.3246">
        <ele>3083.8</ele>
        <time>2021-08-06 10:38:13</time>
      </trkpt>
      <trkpt lat="37.05506" lon="-3.3246">
        <ele>3083.8</ele>
        <time>2021-08-06 10:38:14</time>
      </trkpt>
      <trkpt lat="37.05505" lon="-3.32459">
        <ele>3083.8</ele>
        <time>2021-08-06 10:38:15</time>
      </trkpt>
      <trkpt lat="37.05506" lon="-3.32458">
        <ele>3083.8</ele>
        <time>2021-08-06 10:38:16</time>
      </trkpt>
      <trkpt lat="37.05506" lon="-3.32457">
        <ele>3083.8</ele>
        <time>2021-08-06 10:38:17</time>
      </trkpt>
      <trkpt lat="37.05506" lon="-3.32457">
        <ele>3083.8</ele>
        <time>2021-08-06 10:38:18</time>
      </trkpt>
      <trkpt lat="37.05506" lon="-3.32456">
        <ele>3083.8</ele>
        <time>2021-08-06 10:38:19</time>
      </trkpt>
      <trkpt lat="37.05506" lon="-3.32456">
        <ele>3083.8</ele>
        <time>2021-08-06 10:38:20</time>
      </trkpt>
      <trkpt lat="37.05506" lon="-3.32456">
        <ele>3083.8</ele>
        <time>2021-08-06 10:38:21</time>
      </trkpt>
      <trkpt lat="37.05506" lon="-3.32456">
        <ele>3084</ele>
        <time>2021-08-06 10:38:22</time>
      </trkpt>
      <trkpt lat="37.05507" lon="-3.32456">
        <ele>3084</ele>
        <time>2021-08-06 10:38:23</time>
      </trkpt>
      <trkpt lat="37.05507" lon="-3.32455">
        <ele>3084</ele>
        <time>2021-08-06 10:38:24</time>
      </trkpt>
      <trkpt lat="37.05507" lon="-3.32455">
        <ele>3083.6</ele>
        <time>2021-08-06 10:38:25</time>
      </trkpt>
      <trkpt lat="37.05507" lon="-3.32455">
        <ele>3083.6</ele>
        <time>2021-08-06 10:38:26</time>
      </trkpt>
      <trkpt lat="37.05508" lon="-3.32454">
        <ele>3083.4</ele>
        <time>2021-08-06 10:38:27</time>
      </trkpt>
      <trkpt lat="37.05509" lon="-3.32455">
        <ele>3083.4</ele>
        <time>2021-08-06 10:38:28</time>
      </trkpt>
      <trkpt lat="37.05509" lon="-3.32455">
        <ele>3083.4</ele>
        <time>2021-08-06 10:38:29</time>
      </trkpt>
      <trkpt lat="37.05509" lon="-3.32454">
        <ele>3083.4</ele>
        <time>2021-08-06 10:38:30</time>
      </trkpt>
      <trkpt lat="37.0551" lon="-3.32454">
        <ele>3083.6</ele>
        <time>2021-08-06 10:38:31</time>
      </trkpt>
      <trkpt lat="37.05511" lon="-3.32453">
        <ele>3083.8</ele>
        <time>2021-08-06 10:38:32</time>
      </trkpt>
      <trkpt lat="37.05511" lon="-3.32453">
        <ele>3083.8</ele>
        <time>2021-08-06 10:38:33</time>
      </trkpt>
      <trkpt lat="37.05512" lon="-3.32453">
        <ele>3083.8</ele>
        <time>2021-08-06 10:38:34</time>
      </trkpt>
      <trkpt lat="37.05512" lon="-3.32452">
        <ele>3084</ele>
        <time>2021-08-06 10:38:35</time>
      </trkpt>
      <trkpt lat="37.05512" lon="-3.32452">
        <ele>3084</ele>
        <time>2021-08-06 10:38:36</time>
      </trkpt>
      <trkpt lat="37.05512" lon="-3.32452">
        <ele>3084</ele>
        <time>2021-08-06 10:38:37</time>
      </trkpt>
      <trkpt lat="37.05512" lon="-3.32451">
        <ele>3084</ele>
        <time>2021-08-06 10:38:38</time>
      </trkpt>
      <trkpt lat="37.05511" lon="-3.32451">
        <ele>3084</ele>
        <time>2021-08-06 10:38:39</time>
      </trkpt>
      <trkpt lat="37.05511" lon="-3.3245">
        <ele>3084</ele>
        <time>2021-08-06 10:38:40</time>
      </trkpt>
      <trkpt lat="37.05511" lon="-3.32449">
        <ele>3084</ele>
        <time>2021-08-06 10:38:41</time>
      </trkpt>
      <trkpt lat="37.05511" lon="-3.32448">
        <ele>3084</ele>
        <time>2021-08-06 10:38:42</time>
      </trkpt>
      <trkpt lat="37.05511" lon="-3.32447">
        <ele>3084</ele>
        <time>2021-08-06 10:38:43</time>
      </trkpt>
      <trkpt lat="37.05511" lon="-3.32447">
        <ele>3084</ele>
        <time>2021-08-06 10:38:44</time>
      </trkpt>
      <trkpt lat="37.0551" lon="-3.32446">
        <ele>3084</ele>
        <time>2021-08-06 10:38:45</time>
      </trkpt>
      <trkpt lat="37.0551" lon="-3.32446">
        <ele>3084</ele>
        <time>2021-08-06 10:38:46</time>
      </trkpt>
      <trkpt lat="37.0551" lon="-3.32445">
        <ele>3084</ele>
        <time>2021-08-06 10:38:47</time>
      </trkpt>
      <trkpt lat="37.0551" lon="-3.32445">
        <ele>3084</ele>
        <time>2021-08-06 10:38:48</time>
      </trkpt>
      <trkpt lat="37.05509" lon="-3.32444">
        <ele>3084</ele>
        <time>2021-08-06 10:38:49</time>
      </trkpt>
      <trkpt lat="37.05509" lon="-3.32443">
        <ele>3084</ele>
        <time>2021-08-06 10:38:50</time>
      </trkpt>
      <trkpt lat="37.05509" lon="-3.32442">
        <ele>3084</ele>
        <time>2021-08-06 10:38:51</time>
      </trkpt>
      <trkpt lat="37.05509" lon="-3.32441">
        <ele>3084</ele>
        <time>2021-08-06 10:38:52</time>
      </trkpt>
      <trkpt lat="37.05508" lon="-3.32441">
        <ele>3084</ele>
        <time>2021-08-06 10:38:53</time>
      </trkpt>
      <trkpt lat="37.05508" lon="-3.3244">
        <ele>3084</ele>
        <time>2021-08-06 10:38:54</time>
      </trkpt>
      <trkpt lat="37.05508" lon="-3.32439">
        <ele>3084.2</ele>
        <time>2021-08-06 10:38:55</time>
      </trkpt>
      <trkpt lat="37.05508" lon="-3.32438">
        <ele>3084.2</ele>
        <time>2021-08-06 10:38:56</time>
      </trkpt>
      <trkpt lat="37.05509" lon="-3.32437">
        <ele>3084.4</ele>
        <time>2021-08-06 10:38:57</time>
      </trkpt>
      <trkpt lat="37.05509" lon="-3.32436">
        <ele>3084.6</ele>
        <time>2021-08-06 10:38:58</time>
      </trkpt>
      <trkpt lat="37.05509" lon="-3.32436">
        <ele>3084.6</ele>
        <time>2021-08-06 10:38:59</time>
      </trkpt>
      <trkpt lat="37.05509" lon="-3.32435">
        <ele>3084.6</ele>
        <time>2021-08-06 10:39:00</time>
      </trkpt>
      <trkpt lat="37.0551" lon="-3.32434">
        <ele>3084.8</ele>
        <time>2021-08-06 10:39:01</time>
      </trkpt>
      <trkpt lat="37.0551" lon="-3.32434">
        <ele>3085</ele>
        <time>2021-08-06 10:39:02</time>
      </trkpt>
      <trkpt lat="37.0551" lon="-3.32433">
        <ele>3085.2</ele>
        <time>2021-08-06 10:39:03</time>
      </trkpt>
      <trkpt lat="37.0551" lon="-3.32432">
        <ele>3085.2</ele>
        <time>2021-08-06 10:39:04</time>
      </trkpt>
      <trkpt lat="37.05511" lon="-3.32431">
        <ele>3085.2</ele>
        <time>2021-08-06 10:39:05</time>
      </trkpt>
      <trkpt lat="37.05511" lon="-3.3243">
        <ele>3085.4</ele>
        <time>2021-08-06 10:39:06</time>
      </trkpt>
      <trkpt lat="37.05511" lon="-3.3243">
        <ele>3085.6</ele>
        <time>2021-08-06 10:39:07</time>
      </trkpt>
      <trkpt lat="37.05511" lon="-3.32429">
        <ele>3086</ele>
        <time>2021-08-06 10:39:08</time>
      </trkpt>
      <trkpt lat="37.05511" lon="-3.32428">
        <ele>3086.2</ele>
        <time>2021-08-06 10:39:09</time>
      </trkpt>
      <trkpt lat="37.05512" lon="-3.32427">
        <ele>3086.4</ele>
        <time>2021-08-06 10:39:10</time>
      </trkpt>
      <trkpt lat="37.05513" lon="-3.32427">
        <ele>3086.4</ele>
        <time>2021-08-06 10:39:11</time>
      </trkpt>
      <trkpt lat="37.05512" lon="-3.32427">
        <ele>3086.4</ele>
        <time>2021-08-06 10:39:12</time>
      </trkpt>
      <trkpt lat="37.05513" lon="-3.32427">
        <ele>3086.6</ele>
        <time>2021-08-06 10:39:13</time>
      </trkpt>
      <trkpt lat="37.05514" lon="-3.32427">
        <ele>3087</ele>
        <time>2021-08-06 10:39:14</time>
      </trkpt>
      <trkpt lat="37.05515" lon="-3.32426">
        <ele>3087.2</ele>
        <time>2021-08-06 10:39:15</time>
      </trkpt>
      <trkpt lat="37.05516" lon="-3.32426">
        <ele>3087.4</ele>
        <time>2021-08-06 10:39:16</time>
      </trkpt>
      <trkpt lat="37.05516" lon="-3.32425">
        <ele>3087.6</ele>
        <time>2021-08-06 10:39:17</time>
      </trkpt>
      <trkpt lat="37.05516" lon="-3.32424">
        <ele>3087.8</ele>
        <time>2021-08-06 10:39:18</time>
      </trkpt>
      <trkpt lat="37.05516" lon="-3.32424">
        <ele>3087.8</ele>
        <time>2021-08-06 10:39:19</time>
      </trkpt>
      <trkpt lat="37.05516" lon="-3.32423">
        <ele>3087.8</ele>
        <time>2021-08-06 10:39:20</time>
      </trkpt>
      <trkpt lat="37.05516" lon="-3.32423">
        <ele>3088</ele>
        <time>2021-08-06 10:39:21</time>
      </trkpt>
      <trkpt lat="37.05515" lon="-3.32422">
        <ele>3088.2</ele>
        <time>2021-08-06 10:39:22</time>
      </trkpt>
      <trkpt lat="37.05515" lon="-3.32422">
        <ele>3088.4</ele>
        <time>2021-08-06 10:39:23</time>
      </trkpt>
      <trkpt lat="37.05514" lon="-3.32422">
        <ele>3088.4</ele>
        <time>2021-08-06 10:39:24</time>
      </trkpt>
      <trkpt lat="37.05513" lon="-3.32421">
        <ele>3088.6</ele>
        <time>2021-08-06 10:39:25</time>
      </trkpt>
      <trkpt lat="37.05512" lon="-3.32421">
        <ele>3088.8</ele>
        <time>2021-08-06 10:39:26</time>
      </trkpt>
      <trkpt lat="37.05512" lon="-3.3242">
        <ele>3088.8</ele>
        <time>2021-08-06 10:39:27</time>
      </trkpt>
      <trkpt lat="37.05512" lon="-3.32419">
        <ele>3089</ele>
        <time>2021-08-06 10:39:28</time>
      </trkpt>
      <trkpt lat="37.05513" lon="-3.32418">
        <ele>3089.2</ele>
        <time>2021-08-06 10:39:29</time>
      </trkpt>
      <trkpt lat="37.05513" lon="-3.32418">
        <ele>3089.2</ele>
        <time>2021-08-06 10:39:30</time>
      </trkpt>
      <trkpt lat="37.05514" lon="-3.32418">
        <ele>3089.2</ele>
        <time>2021-08-06 10:39:31</time>
      </trkpt>
      <trkpt lat="37.05514" lon="-3.32418">
        <ele>3089.4</ele>
        <time>2021-08-06 10:39:32</time>
      </trkpt>
      <trkpt lat="37.05516" lon="-3.32417">
        <ele>3089.4</ele>
        <time>2021-08-06 10:39:33</time>
      </trkpt>
      <trkpt lat="37.05516" lon="-3.32416">
        <ele>3089.4</ele>
        <time>2021-08-06 10:39:34</time>
      </trkpt>
      <trkpt lat="37.05516" lon="-3.32416">
        <ele>3089.8</ele>
        <time>2021-08-06 10:39:35</time>
      </trkpt>
      <trkpt lat="37.05515" lon="-3.32415">
        <ele>3089.8</ele>
        <time>2021-08-06 10:39:36</time>
      </trkpt>
      <trkpt lat="37.05515" lon="-3.32414">
        <ele>3090.2</ele>
        <time>2021-08-06 10:39:37</time>
      </trkpt>
      <trkpt lat="37.05515" lon="-3.32414">
        <ele>3090.4</ele>
        <time>2021-08-06 10:39:38</time>
      </trkpt>
      <trkpt lat="37.05515" lon="-3.32413">
        <ele>3090.6</ele>
        <time>2021-08-06 10:39:39</time>
      </trkpt>
      <trkpt lat="37.05515" lon="-3.32413">
        <ele>3090.8</ele>
        <time>2021-08-06 10:39:40</time>
      </trkpt>
      <trkpt lat="37.05514" lon="-3.32412">
        <ele>3091</ele>
        <time>2021-08-06 10:39:41</time>
      </trkpt>
      <trkpt lat="37.05514" lon="-3.32411">
        <ele>3091.2</ele>
        <time>2021-08-06 10:39:42</time>
      </trkpt>
      <trkpt lat="37.05514" lon="-3.32411">
        <ele>3091.2</ele>
        <time>2021-08-06 10:39:43</time>
      </trkpt>
      <trkpt lat="37.05514" lon="-3.3241">
        <ele>3091.6</ele>
        <time>2021-08-06 10:39:44</time>
      </trkpt>
      <trkpt lat="37.05514" lon="-3.3241">
        <ele>3092</ele>
        <time>2021-08-06 10:39:45</time>
      </trkpt>
      <trkpt lat="37.05515" lon="-3.3241">
        <ele>3092</ele>
        <time>2021-08-06 10:39:46</time>
      </trkpt>
      <trkpt lat="37.05515" lon="-3.3241">
        <ele>3092</ele>
        <time>2021-08-06 10:39:47</time>
      </trkpt>
      <trkpt lat="37.05515" lon="-3.3241">
        <ele>3092.2</ele>
        <time>2021-08-06 10:39:48</time>
      </trkpt>
      <trkpt lat="37.05515" lon="-3.32409">
        <ele>3092.2</ele>
        <time>2021-08-06 10:39:49</time>
      </trkpt>
      <trkpt lat="37.05515" lon="-3.32409">
        <ele>3092.2</ele>
        <time>2021-08-06 10:39:50</time>
      </trkpt>
      <trkpt lat="37.05517" lon="-3.32409">
        <ele>3092.4</ele>
        <time>2021-08-06 10:39:51</time>
      </trkpt>
      <trkpt lat="37.05517" lon="-3.32409">
        <ele>3092.4</ele>
        <time>2021-08-06 10:39:52</time>
      </trkpt>
      <trkpt lat="37.05518" lon="-3.32408">
        <ele>3092.6</ele>
        <time>2021-08-06 10:39:53</time>
      </trkpt>
      <trkpt lat="37.05518" lon="-3.32408">
        <ele>3092.8</ele>
        <time>2021-08-06 10:39:54</time>
      </trkpt>
      <trkpt lat="37.05518" lon="-3.32408">
        <ele>3093</ele>
        <time>2021-08-06 10:39:55</time>
      </trkpt>
      <trkpt lat="37.05518" lon="-3.32407">
        <ele>3093.2</ele>
        <time>2021-08-06 10:39:56</time>
      </trkpt>
      <trkpt lat="37.05518" lon="-3.32407">
        <ele>3093.2</ele>
        <time>2021-08-06 10:39:57</time>
      </trkpt>
      <trkpt lat="37.05518" lon="-3.32407">
        <ele>3093.4</ele>
        <time>2021-08-06 10:39:58</time>
      </trkpt>
      <trkpt lat="37.05518" lon="-3.32407">
        <ele>3093.6</ele>
        <time>2021-08-06 10:39:59</time>
      </trkpt>
      <trkpt lat="37.05519" lon="-3.32406">
        <ele>3093.6</ele>
        <time>2021-08-06 10:40:00</time>
      </trkpt>
      <trkpt lat="37.05519" lon="-3.32406">
        <ele>3093.8</ele>
        <time>2021-08-06 10:40:01</time>
      </trkpt>
      <trkpt lat="37.05519" lon="-3.32405">
        <ele>3093.8</ele>
        <time>2021-08-06 10:40:02</time>
      </trkpt>
      <trkpt lat="37.05519" lon="-3.32405">
        <ele>3094</ele>
        <time>2021-08-06 10:40:03</time>
      </trkpt>
      <trkpt lat="37.05519" lon="-3.32405">
        <ele>3094.2</ele>
        <time>2021-08-06 10:40:04</time>
      </trkpt>
      <trkpt lat="37.05518" lon="-3.32405">
        <ele>3094.2</ele>
        <time>2021-08-06 10:40:05</time>
      </trkpt>
      <trkpt lat="37.05517" lon="-3.32405">
        <ele>3094.4</ele>
        <time>2021-08-06 10:40:06</time>
      </trkpt>
      <trkpt lat="37.05517" lon="-3.32404">
        <ele>3094.6</ele>
        <time>2021-08-06 10:40:07</time>
      </trkpt>
      <trkpt lat="37.05518" lon="-3.32403">
        <ele>3094.8</ele>
        <time>2021-08-06 10:40:08</time>
      </trkpt>
      <trkpt lat="37.05518" lon="-3.32402">
        <ele>3095</ele>
        <time>2021-08-06 10:40:09</time>
      </trkpt>
      <trkpt lat="37.0552" lon="-3.32402">
        <ele>3095.2</ele>
        <time>2021-08-06 10:40:10</time>
      </trkpt>
      <trkpt lat="37.0552" lon="-3.32401">
        <ele>3095.4</ele>
        <time>2021-08-06 10:40:11</time>
      </trkpt>
      <trkpt lat="37.0552" lon="-3.32401">
        <ele>3095.6</ele>
        <time>2021-08-06 10:40:12</time>
      </trkpt>
      <trkpt lat="37.0552" lon="-3.324">
        <ele>3095.8</ele>
        <time>2021-08-06 10:40:13</time>
      </trkpt>
      <trkpt lat="37.0552" lon="-3.324">
        <ele>3096</ele>
        <time>2021-08-06 10:40:14</time>
      </trkpt>
      <trkpt lat="37.05521" lon="-3.32399">
        <ele>3096</ele>
        <time>2021-08-06 10:40:15</time>
      </trkpt>
      <trkpt lat="37.05521" lon="-3.32399">
        <ele>3096</ele>
        <time>2021-08-06 10:40:16</time>
      </trkpt>
      <trkpt lat="37.05521" lon="-3.32399">
        <ele>3096</ele>
        <time>2021-08-06 10:40:17</time>
      </trkpt>
      <trkpt lat="37.05522" lon="-3.32398">
        <ele>3096.2</ele>
        <time>2021-08-06 10:40:18</time>
      </trkpt>
      <trkpt lat="37.05521" lon="-3.32399">
        <ele>3096.2</ele>
        <time>2021-08-06 10:40:19</time>
      </trkpt>
      <trkpt lat="37.05521" lon="-3.32399">
        <ele>3096.2</ele>
        <time>2021-08-06 10:40:20</time>
      </trkpt>
      <trkpt lat="37.0552" lon="-3.324">
        <ele>3096.4</ele>
        <time>2021-08-06 10:40:21</time>
      </trkpt>
      <trkpt lat="37.05521" lon="-3.324">
        <ele>3096.6</ele>
        <time>2021-08-06 10:40:22</time>
      </trkpt>
      <trkpt lat="37.0552" lon="-3.324">
        <ele>3097</ele>
        <time>2021-08-06 10:40:23</time>
      </trkpt>
      <trkpt lat="37.05521" lon="-3.324">
        <ele>3097.2</ele>
        <time>2021-08-06 10:40:24</time>
      </trkpt>
      <trkpt lat="37.0552" lon="-3.32398">
        <ele>3097.4</ele>
        <time>2021-08-06 10:40:25</time>
      </trkpt>
      <trkpt lat="37.0552" lon="-3.32398">
        <ele>3097.4</ele>
        <time>2021-08-06 10:40:26</time>
      </trkpt>
      <trkpt lat="37.0552" lon="-3.32397">
        <ele>3097.6</ele>
        <time>2021-08-06 10:40:27</time>
      </trkpt>
      <trkpt lat="37.0552" lon="-3.32397">
        <ele>3097.6</ele>
        <time>2021-08-06 10:40:28</time>
      </trkpt>
      <trkpt lat="37.05519" lon="-3.32396">
        <ele>3097.8</ele>
        <time>2021-08-06 10:40:29</time>
      </trkpt>
      <trkpt lat="37.05518" lon="-3.32396">
        <ele>3097.8</ele>
        <time>2021-08-06 10:40:30</time>
      </trkpt>
      <trkpt lat="37.05518" lon="-3.32395">
        <ele>3097.8</ele>
        <time>2021-08-06 10:40:31</time>
      </trkpt>
      <trkpt lat="37.05517" lon="-3.32395">
        <ele>3097.8</ele>
        <time>2021-08-06 10:40:32</time>
      </trkpt>
      <trkpt lat="37.05517" lon="-3.32394">
        <ele>3097.8</ele>
        <time>2021-08-06 10:40:33</time>
      </trkpt>
      <trkpt lat="37.05517" lon="-3.32394">
        <ele>3098</ele>
        <time>2021-08-06 10:40:34</time>
      </trkpt>
      <trkpt lat="37.05517" lon="-3.32393">
        <ele>3098.2</ele>
        <time>2021-08-06 10:40:35</time>
      </trkpt>
      <trkpt lat="37.05517" lon="-3.32393">
        <ele>3098.2</ele>
        <time>2021-08-06 10:40:36</time>
      </trkpt>
      <trkpt lat="37.05518" lon="-3.32393">
        <ele>3098.4</ele>
        <time>2021-08-06 10:40:37</time>
      </trkpt>
      <trkpt lat="37.05518" lon="-3.32393">
        <ele>3098.6</ele>
        <time>2021-08-06 10:40:38</time>
      </trkpt>
      <trkpt lat="37.05518" lon="-3.32392">
        <ele>3098.8</ele>
        <time>2021-08-06 10:40:39</time>
      </trkpt>
      <trkpt lat="37.05518" lon="-3.32391">
        <ele>3099</ele>
        <time>2021-08-06 10:40:40</time>
      </trkpt>
      <trkpt lat="37.05518" lon="-3.3239">
        <ele>3099</ele>
        <time>2021-08-06 10:40:41</time>
      </trkpt>
      <trkpt lat="37.05518" lon="-3.32389">
        <ele>3099.2</ele>
        <time>2021-08-06 10:40:42</time>
      </trkpt>
      <trkpt lat="37.05518" lon="-3.32388">
        <ele>3099.2</ele>
        <time>2021-08-06 10:40:43</time>
      </trkpt>
      <trkpt lat="37.05518" lon="-3.32388">
        <ele>3099.4</ele>
        <time>2021-08-06 10:40:44</time>
      </trkpt>
      <trkpt lat="37.05517" lon="-3.32387">
        <ele>3099.4</ele>
        <time>2021-08-06 10:40:45</time>
      </trkpt>
      <trkpt lat="37.05517" lon="-3.32386">
        <ele>3099.4</ele>
        <time>2021-08-06 10:40:46</time>
      </trkpt>
      <trkpt lat="37.05516" lon="-3.32385">
        <ele>3099.4</ele>
        <time>2021-08-06 10:40:47</time>
      </trkpt>
      <trkpt lat="37.05516" lon="-3.32385">
        <ele>3099.6</ele>
        <time>2021-08-06 10:40:48</time>
      </trkpt>
      <trkpt lat="37.05515" lon="-3.32384">
        <ele>3099.8</ele>
        <time>2021-08-06 10:40:49</time>
      </trkpt>
      <trkpt lat="37.05515" lon="-3.32383">
        <ele>3099.8</ele>
        <time>2021-08-06 10:40:50</time>
      </trkpt>
      <trkpt lat="37.05515" lon="-3.32383">
        <ele>3100</ele>
        <time>2021-08-06 10:40:51</time>
      </trkpt>
      <trkpt lat="37.05515" lon="-3.32382">
        <ele>3100</ele>
        <time>2021-08-06 10:40:52</time>
      </trkpt>
      <trkpt lat="37.05515" lon="-3.32381">
        <ele>3100</ele>
        <time>2021-08-06 10:40:53</time>
      </trkpt>
      <trkpt lat="37.05515" lon="-3.32381">
        <ele>3100</ele>
        <time>2021-08-06 10:40:54</time>
      </trkpt>
      <trkpt lat="37.05515" lon="-3.3238">
        <ele>3100.2</ele>
        <time>2021-08-06 10:40:55</time>
      </trkpt>
      <trkpt lat="37.05515" lon="-3.32379">
        <ele>3100.4</ele>
        <time>2021-08-06 10:40:56</time>
      </trkpt>
      <trkpt lat="37.05515" lon="-3.32379">
        <ele>3100.4</ele>
        <time>2021-08-06 10:40:57</time>
      </trkpt>
      <trkpt lat="37.05514" lon="-3.32378">
        <ele>3100.4</ele>
        <time>2021-08-06 10:40:58</time>
      </trkpt>
      <trkpt lat="37.05515" lon="-3.32378">
        <ele>3100.6</ele>
        <time>2021-08-06 10:40:59</time>
      </trkpt>
      <trkpt lat="37.05515" lon="-3.32377">
        <ele>3100.6</ele>
        <time>2021-08-06 10:41:00</time>
      </trkpt>
      <trkpt lat="37.05515" lon="-3.32377">
        <ele>3100.6</ele>
        <time>2021-08-06 10:41:01</time>
      </trkpt>
      <trkpt lat="37.05515" lon="-3.32376">
        <ele>3100.6</ele>
        <time>2021-08-06 10:41:02</time>
      </trkpt>
      <trkpt lat="37.05515" lon="-3.32375">
        <ele>3100.8</ele>
        <time>2021-08-06 10:41:03</time>
      </trkpt>
      <trkpt lat="37.05514" lon="-3.32374">
        <ele>3100.8</ele>
        <time>2021-08-06 10:41:04</time>
      </trkpt>
      <trkpt lat="37.05514" lon="-3.32374">
        <ele>3101.2</ele>
        <time>2021-08-06 10:41:05</time>
      </trkpt>
      <trkpt lat="37.05514" lon="-3.32374">
        <ele>3101.2</ele>
        <time>2021-08-06 10:41:06</time>
      </trkpt>
      <trkpt lat="37.05513" lon="-3.32373">
        <ele>3101.2</ele>
        <time>2021-08-06 10:41:07</time>
      </trkpt>
      <trkpt lat="37.05513" lon="-3.32373">
        <ele>3101.2</ele>
        <time>2021-08-06 10:41:08</time>
      </trkpt>
      <trkpt lat="37.05513" lon="-3.32372">
        <ele>3101.4</ele>
        <time>2021-08-06 10:41:09</time>
      </trkpt>
      <trkpt lat="37.05513" lon="-3.32371">
        <ele>3101.4</ele>
        <time>2021-08-06 10:41:10</time>
      </trkpt>
      <trkpt lat="37.05513" lon="-3.32371">
        <ele>3101.4</ele>
        <time>2021-08-06 10:41:11</time>
      </trkpt>
      <trkpt lat="37.05513" lon="-3.3237">
        <ele>3101.4</ele>
        <time>2021-08-06 10:41:12</time>
      </trkpt>
      <trkpt lat="37.05513" lon="-3.3237">
        <ele>3101.6</ele>
        <time>2021-08-06 10:41:13</time>
      </trkpt>
      <trkpt lat="37.05513" lon="-3.3237">
        <ele>3101.8</ele>
        <time>2021-08-06 10:41:14</time>
      </trkpt>
      <trkpt lat="37.05513" lon="-3.32369">
        <ele>3102</ele>
        <time>2021-08-06 10:41:15</time>
      </trkpt>
      <trkpt lat="37.05513" lon="-3.32369">
        <ele>3102.2</ele>
        <time>2021-08-06 10:41:16</time>
      </trkpt>
      <trkpt lat="37.05514" lon="-3.3237">
        <ele>3102.2</ele>
        <time>2021-08-06 10:41:17</time>
      </trkpt>
      <trkpt lat="37.05514" lon="-3.3237">
        <ele>3102.2</ele>
        <time>2021-08-06 10:41:18</time>
      </trkpt>
      <trkpt lat="37.05514" lon="-3.3237">
        <ele>3102.4</ele>
        <time>2021-08-06 10:41:19</time>
      </trkpt>
      <trkpt lat="37.05514" lon="-3.3237">
        <ele>3102.4</ele>
        <time>2021-08-06 10:41:20</time>
      </trkpt>
      <trkpt lat="37.05514" lon="-3.3237">
        <ele>3102.4</ele>
        <time>2021-08-06 10:41:21</time>
      </trkpt>
      <trkpt lat="37.05514" lon="-3.3237">
        <ele>3102.2</ele>
        <time>2021-08-06 10:41:22</time>
      </trkpt>
      <trkpt lat="37.05515" lon="-3.3237">
        <ele>3102.2</ele>
        <time>2021-08-06 10:41:23</time>
      </trkpt>
      <trkpt lat="37.05515" lon="-3.32371">
        <ele>3102.2</ele>
        <time>2021-08-06 10:41:24</time>
      </trkpt>
      <trkpt lat="37.05515" lon="-3.3237">
        <ele>3102.2</ele>
        <time>2021-08-06 10:41:25</time>
      </trkpt>
      <trkpt lat="37.05515" lon="-3.3237">
        <ele>3102.2</ele>
        <time>2021-08-06 10:41:26</time>
      </trkpt>
      <trkpt lat="37.05514" lon="-3.3237">
        <ele>3102.2</ele>
        <time>2021-08-06 10:41:27</time>
      </trkpt>
      <trkpt lat="37.05514" lon="-3.32369">
        <ele>3102.2</ele>
        <time>2021-08-06 10:41:28</time>
      </trkpt>
      <trkpt lat="37.05514" lon="-3.32369">
        <ele>3102.4</ele>
        <time>2021-08-06 10:41:29</time>
      </trkpt>
      <trkpt lat="37.05513" lon="-3.32369">
        <ele>3102.6</ele>
        <time>2021-08-06 10:41:30</time>
      </trkpt>
      <trkpt lat="37.05513" lon="-3.32369">
        <ele>3102.8</ele>
        <time>2021-08-06 10:41:31</time>
      </trkpt>
      <trkpt lat="37.05512" lon="-3.32369">
        <ele>3103.2</ele>
        <time>2021-08-06 10:41:32</time>
      </trkpt>
      <trkpt lat="37.05512" lon="-3.32369">
        <ele>3103.4</ele>
        <time>2021-08-06 10:41:33</time>
      </trkpt>
      <trkpt lat="37.05511" lon="-3.32366">
        <ele>3103.6</ele>
        <time>2021-08-06 10:41:34</time>
      </trkpt>
      <trkpt lat="37.0551" lon="-3.32365">
        <ele>3103.8</ele>
        <time>2021-08-06 10:41:35</time>
      </trkpt>
      <trkpt lat="37.0551" lon="-3.32365">
        <ele>3104</ele>
        <time>2021-08-06 10:41:36</time>
      </trkpt>
      <trkpt lat="37.0551" lon="-3.32365">
        <ele>3104.2</ele>
        <time>2021-08-06 10:41:37</time>
      </trkpt>
      <trkpt lat="37.05509" lon="-3.32365">
        <ele>3104.4</ele>
        <time>2021-08-06 10:41:38</time>
      </trkpt>
      <trkpt lat="37.05509" lon="-3.32364">
        <ele>3104.6</ele>
        <time>2021-08-06 10:41:39</time>
      </trkpt>
      <trkpt lat="37.05508" lon="-3.32363">
        <ele>3104.6</ele>
        <time>2021-08-06 10:41:40</time>
      </trkpt>
      <trkpt lat="37.05508" lon="-3.32362">
        <ele>3104.6</ele>
        <time>2021-08-06 10:41:41</time>
      </trkpt>
      <trkpt lat="37.05508" lon="-3.32361">
        <ele>3104.8</ele>
        <time>2021-08-06 10:41:42</time>
      </trkpt>
      <trkpt lat="37.05508" lon="-3.3236">
        <ele>3105</ele>
        <time>2021-08-06 10:41:43</time>
      </trkpt>
      <trkpt lat="37.05507" lon="-3.32359">
        <ele>3105</ele>
        <time>2021-08-06 10:41:44</time>
      </trkpt>
      <trkpt lat="37.05507" lon="-3.32357">
        <ele>3105</ele>
        <time>2021-08-06 10:41:45</time>
      </trkpt>
      <trkpt lat="37.05506" lon="-3.32357">
        <ele>3105.2</ele>
        <time>2021-08-06 10:41:46</time>
      </trkpt>
      <trkpt lat="37.05506" lon="-3.32356">
        <ele>3105.4</ele>
        <time>2021-08-06 10:41:47</time>
      </trkpt>
      <trkpt lat="37.05507" lon="-3.32354">
        <ele>3105.4</ele>
        <time>2021-08-06 10:41:48</time>
      </trkpt>
      <trkpt lat="37.05508" lon="-3.32353">
        <ele>3105.8</ele>
        <time>2021-08-06 10:41:49</time>
      </trkpt>
      <trkpt lat="37.05508" lon="-3.32353">
        <ele>3106</ele>
        <time>2021-08-06 10:41:50</time>
      </trkpt>
      <trkpt lat="37.05508" lon="-3.32351">
        <ele>3106.2</ele>
        <time>2021-08-06 10:41:51</time>
      </trkpt>
      <trkpt lat="37.05509" lon="-3.3235">
        <ele>3106.4</ele>
        <time>2021-08-06 10:41:52</time>
      </trkpt>
      <trkpt lat="37.05508" lon="-3.32349">
        <ele>3106.6</ele>
        <time>2021-08-06 10:41:53</time>
      </trkpt>
      <trkpt lat="37.05508" lon="-3.32349">
        <ele>3106.6</ele>
        <time>2021-08-06 10:41:54</time>
      </trkpt>
      <trkpt lat="37.05507" lon="-3.32348">
        <ele>3106.6</ele>
        <time>2021-08-06 10:41:55</time>
      </trkpt>
      <trkpt lat="37.05506" lon="-3.32347">
        <ele>3106.6</ele>
        <time>2021-08-06 10:41:56</time>
      </trkpt>
      <trkpt lat="37.05506" lon="-3.32346">
        <ele>3106.6</ele>
        <time>2021-08-06 10:41:57</time>
      </trkpt>
      <trkpt lat="37.05505" lon="-3.32345">
        <ele>3106.8</ele>
        <time>2021-08-06 10:41:58</time>
      </trkpt>
      <trkpt lat="37.05505" lon="-3.32345">
        <ele>3106.8</ele>
        <time>2021-08-06 10:41:59</time>
      </trkpt>
      <trkpt lat="37.05505" lon="-3.32344">
        <ele>3107</ele>
        <time>2021-08-06 10:42:00</time>
      </trkpt>
      <trkpt lat="37.05505" lon="-3.32343">
        <ele>3107</ele>
        <time>2021-08-06 10:42:01</time>
      </trkpt>
      <trkpt lat="37.05505" lon="-3.32343">
        <ele>3107.2</ele>
        <time>2021-08-06 10:42:02</time>
      </trkpt>
      <trkpt lat="37.05504" lon="-3.32342">
        <ele>3107.2</ele>
        <time>2021-08-06 10:42:03</time>
      </trkpt>
      <trkpt lat="37.05503" lon="-3.32341">
        <ele>3107.4</ele>
        <time>2021-08-06 10:42:04</time>
      </trkpt>
      <trkpt lat="37.05503" lon="-3.32341">
        <ele>3107.6</ele>
        <time>2021-08-06 10:42:05</time>
      </trkpt>
      <trkpt lat="37.05502" lon="-3.32341">
        <ele>3107.6</ele>
        <time>2021-08-06 10:42:06</time>
      </trkpt>
      <trkpt lat="37.05502" lon="-3.32341">
        <ele>3107.6</ele>
        <time>2021-08-06 10:42:07</time>
      </trkpt>
      <trkpt lat="37.05502" lon="-3.32341">
        <ele>3107.8</ele>
        <time>2021-08-06 10:42:08</time>
      </trkpt>
      <trkpt lat="37.05501" lon="-3.3234">
        <ele>3107.6</ele>
        <time>2021-08-06 10:42:09</time>
      </trkpt>
      <trkpt lat="37.05501" lon="-3.32339">
        <ele>3107.6</ele>
        <time>2021-08-06 10:42:10</time>
      </trkpt>
      <trkpt lat="37.05502" lon="-3.32339">
        <ele>3107.6</ele>
        <time>2021-08-06 10:42:11</time>
      </trkpt>
      <trkpt lat="37.05502" lon="-3.32338">
        <ele>3107.6</ele>
        <time>2021-08-06 10:42:12</time>
      </trkpt>
      <trkpt lat="37.05503" lon="-3.32338">
        <ele>3107.6</ele>
        <time>2021-08-06 10:42:13</time>
      </trkpt>
      <trkpt lat="37.05503" lon="-3.32337">
        <ele>3107.8</ele>
        <time>2021-08-06 10:42:14</time>
      </trkpt>
      <trkpt lat="37.05502" lon="-3.32337">
        <ele>3108.2</ele>
        <time>2021-08-06 10:42:15</time>
      </trkpt>
      <trkpt lat="37.05502" lon="-3.32336">
        <ele>3108.2</ele>
        <time>2021-08-06 10:42:16</time>
      </trkpt>
      <trkpt lat="37.05501" lon="-3.32335">
        <ele>3108.4</ele>
        <time>2021-08-06 10:42:17</time>
      </trkpt>
      <trkpt lat="37.055" lon="-3.32335">
        <ele>3108.4</ele>
        <time>2021-08-06 10:42:18</time>
      </trkpt>
      <trkpt lat="37.055" lon="-3.32335">
        <ele>3108.4</ele>
        <time>2021-08-06 10:42:19</time>
      </trkpt>
      <trkpt lat="37.055" lon="-3.32334">
        <ele>3108.4</ele>
        <time>2021-08-06 10:42:20</time>
      </trkpt>
      <trkpt lat="37.055" lon="-3.32334">
        <ele>3108.6</ele>
        <time>2021-08-06 10:42:21</time>
      </trkpt>
      <trkpt lat="37.055" lon="-3.32333">
        <ele>3108.6</ele>
        <time>2021-08-06 10:42:22</time>
      </trkpt>
      <trkpt lat="37.05501" lon="-3.32333">
        <ele>3108.6</ele>
        <time>2021-08-06 10:42:23</time>
      </trkpt>
      <trkpt lat="37.05501" lon="-3.32333">
        <ele>3108.6</ele>
        <time>2021-08-06 10:42:24</time>
      </trkpt>
      <trkpt lat="37.05501" lon="-3.32333">
        <ele>3108.8</ele>
        <time>2021-08-06 10:42:25</time>
      </trkpt>
      <trkpt lat="37.05501" lon="-3.32333">
        <ele>3108.8</ele>
        <time>2021-08-06 10:42:26</time>
      </trkpt>
      <trkpt lat="37.05501" lon="-3.32332">
        <ele>3109</ele>
        <time>2021-08-06 10:42:27</time>
      </trkpt>
      <trkpt lat="37.055" lon="-3.32332">
        <ele>3109.2</ele>
        <time>2021-08-06 10:42:28</time>
      </trkpt>
      <trkpt lat="37.055" lon="-3.32332">
        <ele>3109.2</ele>
        <time>2021-08-06 10:42:29</time>
      </trkpt>
      <trkpt lat="37.055" lon="-3.32332">
        <ele>3109.6</ele>
        <time>2021-08-06 10:42:30</time>
      </trkpt>
      <trkpt lat="37.055" lon="-3.32331">
        <ele>3109.6</ele>
        <time>2021-08-06 10:42:31</time>
      </trkpt>
      <trkpt lat="37.05499" lon="-3.3233">
        <ele>3109.8</ele>
        <time>2021-08-06 10:42:32</time>
      </trkpt>
      <trkpt lat="37.05499" lon="-3.3233">
        <ele>3109.8</ele>
        <time>2021-08-06 10:42:33</time>
      </trkpt>
      <trkpt lat="37.05498" lon="-3.3233">
        <ele>3110</ele>
        <time>2021-08-06 10:42:34</time>
      </trkpt>
      <trkpt lat="37.05499" lon="-3.3233">
        <ele>3110.2</ele>
        <time>2021-08-06 10:42:35</time>
      </trkpt>
      <trkpt lat="37.05498" lon="-3.3233">
        <ele>3110.4</ele>
        <time>2021-08-06 10:42:36</time>
      </trkpt>
      <trkpt lat="37.05498" lon="-3.3233">
        <ele>3110.4</ele>
        <time>2021-08-06 10:42:37</time>
      </trkpt>
      <trkpt lat="37.05498" lon="-3.32329">
        <ele>3110.6</ele>
        <time>2021-08-06 10:42:38</time>
      </trkpt>
      <trkpt lat="37.05498" lon="-3.32329">
        <ele>3110.6</ele>
        <time>2021-08-06 10:42:39</time>
      </trkpt>
      <trkpt lat="37.05498" lon="-3.32328">
        <ele>3110.6</ele>
        <time>2021-08-06 10:42:40</time>
      </trkpt>
      <trkpt lat="37.05497" lon="-3.32329">
        <ele>3110.8</ele>
        <time>2021-08-06 10:42:41</time>
      </trkpt>
      <trkpt lat="37.05497" lon="-3.32329">
        <ele>3110.8</ele>
        <time>2021-08-06 10:42:42</time>
      </trkpt>
      <trkpt lat="37.05496" lon="-3.32328">
        <ele>3110.8</ele>
        <time>2021-08-06 10:42:43</time>
      </trkpt>
      <trkpt lat="37.05496" lon="-3.32328">
        <ele>3111</ele>
        <time>2021-08-06 10:42:44</time>
      </trkpt>
      <trkpt lat="37.05496" lon="-3.32327">
        <ele>3111.2</ele>
        <time>2021-08-06 10:42:45</time>
      </trkpt>
      <trkpt lat="37.05496" lon="-3.32326">
        <ele>3111.4</ele>
        <time>2021-08-06 10:42:46</time>
      </trkpt>
      <trkpt lat="37.05496" lon="-3.32326">
        <ele>3111.4</ele>
        <time>2021-08-06 10:42:47</time>
      </trkpt>
      <trkpt lat="37.05495" lon="-3.32325">
        <ele>3111.4</ele>
        <time>2021-08-06 10:42:48</time>
      </trkpt>
      <trkpt lat="37.05495" lon="-3.32324">
        <ele>3111.4</ele>
        <time>2021-08-06 10:42:49</time>
      </trkpt>
      <trkpt lat="37.05495" lon="-3.32324">
        <ele>3111.4</ele>
        <time>2021-08-06 10:42:50</time>
      </trkpt>
      <trkpt lat="37.05495" lon="-3.32323">
        <ele>3111.4</ele>
        <time>2021-08-06 10:42:51</time>
      </trkpt>
      <trkpt lat="37.05495" lon="-3.32322">
        <ele>3111.4</ele>
        <time>2021-08-06 10:42:52</time>
      </trkpt>
      <trkpt lat="37.05495" lon="-3.32321">
        <ele>3111.4</ele>
        <time>2021-08-06 10:42:53</time>
      </trkpt>
      <trkpt lat="37.05495" lon="-3.32321">
        <ele>3111.4</ele>
        <time>2021-08-06 10:42:54</time>
      </trkpt>
      <trkpt lat="37.05495" lon="-3.3232">
        <ele>3111.4</ele>
        <time>2021-08-06 10:42:55</time>
      </trkpt>
      <trkpt lat="37.05495" lon="-3.32319">
        <ele>3111.4</ele>
        <time>2021-08-06 10:42:56</time>
      </trkpt>
      <trkpt lat="37.05495" lon="-3.32319">
        <ele>3111.6</ele>
        <time>2021-08-06 10:42:57</time>
      </trkpt>
      <trkpt lat="37.05495" lon="-3.32318">
        <ele>3111.6</ele>
        <time>2021-08-06 10:42:58</time>
      </trkpt>
      <trkpt lat="37.05494" lon="-3.32317">
        <ele>3111.6</ele>
        <time>2021-08-06 10:42:59</time>
      </trkpt>
      <trkpt lat="37.05494" lon="-3.32316">
        <ele>3111.8</ele>
        <time>2021-08-06 10:43:00</time>
      </trkpt>
      <trkpt lat="37.05494" lon="-3.32316">
        <ele>3112</ele>
        <time>2021-08-06 10:43:01</time>
      </trkpt>
      <trkpt lat="37.05494" lon="-3.32315">
        <ele>3112</ele>
        <time>2021-08-06 10:43:02</time>
      </trkpt>
      <trkpt lat="37.05494" lon="-3.32315">
        <ele>3112.2</ele>
        <time>2021-08-06 10:43:03</time>
      </trkpt>
      <trkpt lat="37.05494" lon="-3.32314">
        <ele>3112.2</ele>
        <time>2021-08-06 10:43:04</time>
      </trkpt>
      <trkpt lat="37.05494" lon="-3.32312">
        <ele>3112.2</ele>
        <time>2021-08-06 10:43:05</time>
      </trkpt>
      <trkpt lat="37.05494" lon="-3.32311">
        <ele>3112.2</ele>
        <time>2021-08-06 10:43:06</time>
      </trkpt>
      <trkpt lat="37.05493" lon="-3.32311">
        <ele>3112.4</ele>
        <time>2021-08-06 10:43:07</time>
      </trkpt>
      <trkpt lat="37.05492" lon="-3.32309">
        <ele>3112.6</ele>
        <time>2021-08-06 10:43:08</time>
      </trkpt>
      <trkpt lat="37.05492" lon="-3.32309">
        <ele>3112.6</ele>
        <time>2021-08-06 10:43:09</time>
      </trkpt>
      <trkpt lat="37.05492" lon="-3.32308">
        <ele>3112.6</ele>
        <time>2021-08-06 10:43:10</time>
      </trkpt>
      <trkpt lat="37.05492" lon="-3.32307">
        <ele>3112.6</ele>
        <time>2021-08-06 10:43:11</time>
      </trkpt>
      <trkpt lat="37.05493" lon="-3.32306">
        <ele>3112.8</ele>
        <time>2021-08-06 10:43:12</time>
      </trkpt>
      <trkpt lat="37.05493" lon="-3.32306">
        <ele>3113</ele>
        <time>2021-08-06 10:43:13</time>
      </trkpt>
      <trkpt lat="37.05492" lon="-3.32306">
        <ele>3113</ele>
        <time>2021-08-06 10:43:14</time>
      </trkpt>
      <trkpt lat="37.05492" lon="-3.32305">
        <ele>3113.2</ele>
        <time>2021-08-06 10:43:15</time>
      </trkpt>
      <trkpt lat="37.05492" lon="-3.32304">
        <ele>3113.4</ele>
        <time>2021-08-06 10:43:16</time>
      </trkpt>
      <trkpt lat="37.05492" lon="-3.32303">
        <ele>3113.4</ele>
        <time>2021-08-06 10:43:17</time>
      </trkpt>
      <trkpt lat="37.05491" lon="-3.32302">
        <ele>3113.4</ele>
        <time>2021-08-06 10:43:18</time>
      </trkpt>
      <trkpt lat="37.05491" lon="-3.32302">
        <ele>3113.6</ele>
        <time>2021-08-06 10:43:19</time>
      </trkpt>
      <trkpt lat="37.05491" lon="-3.32301">
        <ele>3113.6</ele>
        <time>2021-08-06 10:43:20</time>
      </trkpt>
      <trkpt lat="37.0549" lon="-3.323">
        <ele>3113.8</ele>
        <time>2021-08-06 10:43:21</time>
      </trkpt>
      <trkpt lat="37.0549" lon="-3.32299">
        <ele>3113.8</ele>
        <time>2021-08-06 10:43:22</time>
      </trkpt>
      <trkpt lat="37.05491" lon="-3.32298">
        <ele>3113.8</ele>
        <time>2021-08-06 10:43:23</time>
      </trkpt>
      <trkpt lat="37.05491" lon="-3.32297">
        <ele>3114</ele>
        <time>2021-08-06 10:43:24</time>
      </trkpt>
      <trkpt lat="37.05491" lon="-3.32297">
        <ele>3114</ele>
        <time>2021-08-06 10:43:25</time>
      </trkpt>
      <trkpt lat="37.05491" lon="-3.32296">
        <ele>3114.2</ele>
        <time>2021-08-06 10:43:26</time>
      </trkpt>
      <trkpt lat="37.05491" lon="-3.32295">
        <ele>3114.2</ele>
        <time>2021-08-06 10:43:27</time>
      </trkpt>
      <trkpt lat="37.05491" lon="-3.32295">
        <ele>3114.2</ele>
        <time>2021-08-06 10:43:28</time>
      </trkpt>
      <trkpt lat="37.05491" lon="-3.32294">
        <ele>3114.2</ele>
        <time>2021-08-06 10:43:29</time>
      </trkpt>
      <trkpt lat="37.05492" lon="-3.32294">
        <ele>3114.4</ele>
        <time>2021-08-06 10:43:30</time>
      </trkpt>
      <trkpt lat="37.05492" lon="-3.32294">
        <ele>3114.4</ele>
        <time>2021-08-06 10:43:31</time>
      </trkpt>
      <trkpt lat="37.05491" lon="-3.32293">
        <ele>3114.4</ele>
        <time>2021-08-06 10:43:32</time>
      </trkpt>
      <trkpt lat="37.05492" lon="-3.32293">
        <ele>3114.6</ele>
        <time>2021-08-06 10:43:33</time>
      </trkpt>
      <trkpt lat="37.05492" lon="-3.32292">
        <ele>3114.8</ele>
        <time>2021-08-06 10:43:34</time>
      </trkpt>
      <trkpt lat="37.05492" lon="-3.32292">
        <ele>3115</ele>
        <time>2021-08-06 10:43:35</time>
      </trkpt>
      <trkpt lat="37.05492" lon="-3.32292">
        <ele>3115</ele>
        <time>2021-08-06 10:43:36</time>
      </trkpt>
      <trkpt lat="37.05491" lon="-3.32292">
        <ele>3115.2</ele>
        <time>2021-08-06 10:43:37</time>
      </trkpt>
      <trkpt lat="37.05491" lon="-3.32292">
        <ele>3115.2</ele>
        <time>2021-08-06 10:43:38</time>
      </trkpt>
      <trkpt lat="37.0549" lon="-3.32291">
        <ele>3115.4</ele>
        <time>2021-08-06 10:43:39</time>
      </trkpt>
      <trkpt lat="37.0549" lon="-3.3229">
        <ele>3115.4</ele>
        <time>2021-08-06 10:43:40</time>
      </trkpt>
      <trkpt lat="37.0549" lon="-3.3229">
        <ele>3115.4</ele>
        <time>2021-08-06 10:43:41</time>
      </trkpt>
      <trkpt lat="37.0549" lon="-3.32289">
        <ele>3115.4</ele>
        <time>2021-08-06 10:43:42</time>
      </trkpt>
      <trkpt lat="37.0549" lon="-3.32289">
        <ele>3115.6</ele>
        <time>2021-08-06 10:43:43</time>
      </trkpt>
      <trkpt lat="37.0549" lon="-3.32288">
        <ele>3115.6</ele>
        <time>2021-08-06 10:43:44</time>
      </trkpt>
      <trkpt lat="37.05489" lon="-3.32288">
        <ele>3115.6</ele>
        <time>2021-08-06 10:43:45</time>
      </trkpt>
      <trkpt lat="37.05489" lon="-3.32287">
        <ele>3115.6</ele>
        <time>2021-08-06 10:43:46</time>
      </trkpt>
      <trkpt lat="37.0549" lon="-3.32285">
        <ele>3115.8</ele>
        <time>2021-08-06 10:43:47</time>
      </trkpt>
      <trkpt lat="37.05491" lon="-3.32285">
        <ele>3115.8</ele>
        <time>2021-08-06 10:43:48</time>
      </trkpt>
      <trkpt lat="37.05491" lon="-3.32284">
        <ele>3115.8</ele>
        <time>2021-08-06 10:43:49</time>
      </trkpt>
      <trkpt lat="37.05489" lon="-3.32284">
        <ele>3116</ele>
        <time>2021-08-06 10:43:50</time>
      </trkpt>
      <trkpt lat="37.05489" lon="-3.32284">
        <ele>3116</ele>
        <time>2021-08-06 10:43:51</time>
      </trkpt>
      <trkpt lat="37.05488" lon="-3.32284">
        <ele>3116.2</ele>
        <time>2021-08-06 10:43:52</time>
      </trkpt>
      <trkpt lat="37.05488" lon="-3.32284">
        <ele>3116.4</ele>
        <time>2021-08-06 10:43:53</time>
      </trkpt>
      <trkpt lat="37.05488" lon="-3.32283">
        <ele>3116.8</ele>
        <time>2021-08-06 10:43:54</time>
      </trkpt>
      <trkpt lat="37.05487" lon="-3.32282">
        <ele>3117</ele>
        <time>2021-08-06 10:43:55</time>
      </trkpt>
      <trkpt lat="37.05487" lon="-3.32282">
        <ele>3117.4</ele>
        <time>2021-08-06 10:43:56</time>
      </trkpt>
      <trkpt lat="37.05487" lon="-3.32282">
        <ele>3117.6</ele>
        <time>2021-08-06 10:43:57</time>
      </trkpt>
      <trkpt lat="37.05487" lon="-3.32281">
        <ele>3117.8</ele>
        <time>2021-08-06 10:43:58</time>
      </trkpt>
      <trkpt lat="37.05486" lon="-3.32281">
        <ele>3117.8</ele>
        <time>2021-08-06 10:43:59</time>
      </trkpt>
      <trkpt lat="37.05486" lon="-3.3228">
        <ele>3118</ele>
        <time>2021-08-06 10:44:00</time>
      </trkpt>
      <trkpt lat="37.05485" lon="-3.32279">
        <ele>3118.2</ele>
        <time>2021-08-06 10:44:01</time>
      </trkpt>
      <trkpt lat="37.05485" lon="-3.32279">
        <ele>3118.2</ele>
        <time>2021-08-06 10:44:02</time>
      </trkpt>
      <trkpt lat="37.05485" lon="-3.32278">
        <ele>3118.2</ele>
        <time>2021-08-06 10:44:03</time>
      </trkpt>
      <trkpt lat="37.05485" lon="-3.32278">
        <ele>3118.2</ele>
        <time>2021-08-06 10:44:04</time>
      </trkpt>
      <trkpt lat="37.05486" lon="-3.32278">
        <ele>3118.4</ele>
        <time>2021-08-06 10:44:05</time>
      </trkpt>
      <trkpt lat="37.05486" lon="-3.32277">
        <ele>3118.6</ele>
        <time>2021-08-06 10:44:06</time>
      </trkpt>
      <trkpt lat="37.05486" lon="-3.32277">
        <ele>3118.6</ele>
        <time>2021-08-06 10:44:07</time>
      </trkpt>
      <trkpt lat="37.05486" lon="-3.32276">
        <ele>3118.8</ele>
        <time>2021-08-06 10:44:08</time>
      </trkpt>
      <trkpt lat="37.05486" lon="-3.32276">
        <ele>3118.8</ele>
        <time>2021-08-06 10:44:09</time>
      </trkpt>
      <trkpt lat="37.05485" lon="-3.32275">
        <ele>3118.8</ele>
        <time>2021-08-06 10:44:10</time>
      </trkpt>
      <trkpt lat="37.05485" lon="-3.32275">
        <ele>3119</ele>
        <time>2021-08-06 10:44:11</time>
      </trkpt>
      <trkpt lat="37.05484" lon="-3.32274">
        <ele>3119</ele>
        <time>2021-08-06 10:44:12</time>
      </trkpt>
      <trkpt lat="37.05484" lon="-3.32273">
        <ele>3119.2</ele>
        <time>2021-08-06 10:44:13</time>
      </trkpt>
      <trkpt lat="37.05484" lon="-3.32272">
        <ele>3119.2</ele>
        <time>2021-08-06 10:44:14</time>
      </trkpt>
      <trkpt lat="37.05484" lon="-3.32271">
        <ele>3119.4</ele>
        <time>2021-08-06 10:44:15</time>
      </trkpt>
      <trkpt lat="37.05484" lon="-3.32271">
        <ele>3119.4</ele>
        <time>2021-08-06 10:44:16</time>
      </trkpt>
      <trkpt lat="37.05484" lon="-3.3227">
        <ele>3119.6</ele>
        <time>2021-08-06 10:44:17</time>
      </trkpt>
      <trkpt lat="37.05485" lon="-3.32269">
        <ele>3119.6</ele>
        <time>2021-08-06 10:44:18</time>
      </trkpt>
      <trkpt lat="37.05484" lon="-3.32269">
        <ele>3119.8</ele>
        <time>2021-08-06 10:44:19</time>
      </trkpt>
      <trkpt lat="37.05485" lon="-3.32269">
        <ele>3120</ele>
        <time>2021-08-06 10:44:20</time>
      </trkpt>
      <trkpt lat="37.05485" lon="-3.32268">
        <ele>3120</ele>
        <time>2021-08-06 10:44:21</time>
      </trkpt>
      <trkpt lat="37.05484" lon="-3.32267">
        <ele>3120</ele>
        <time>2021-08-06 10:44:22</time>
      </trkpt>
      <trkpt lat="37.05484" lon="-3.32266">
        <ele>3120.2</ele>
        <time>2021-08-06 10:44:23</time>
      </trkpt>
      <trkpt lat="37.05484" lon="-3.32265">
        <ele>3120.2</ele>
        <time>2021-08-06 10:44:24</time>
      </trkpt>
      <trkpt lat="37.05484" lon="-3.32264">
        <ele>3120.4</ele>
        <time>2021-08-06 10:44:25</time>
      </trkpt>
      <trkpt lat="37.05484" lon="-3.32263">
        <ele>3120.4</ele>
        <time>2021-08-06 10:44:26</time>
      </trkpt>
      <trkpt lat="37.05484" lon="-3.32263">
        <ele>3120.6</ele>
        <time>2021-08-06 10:44:27</time>
      </trkpt>
      <trkpt lat="37.05484" lon="-3.32263">
        <ele>3120.8</ele>
        <time>2021-08-06 10:44:28</time>
      </trkpt>
      <trkpt lat="37.05484" lon="-3.32262">
        <ele>3121</ele>
        <time>2021-08-06 10:44:29</time>
      </trkpt>
      <trkpt lat="37.05483" lon="-3.32261">
        <ele>3121.2</ele>
        <time>2021-08-06 10:44:30</time>
      </trkpt>
      <trkpt lat="37.05483" lon="-3.32261">
        <ele>3121.4</ele>
        <time>2021-08-06 10:44:31</time>
      </trkpt>
      <trkpt lat="37.05482" lon="-3.32261">
        <ele>3121.4</ele>
        <time>2021-08-06 10:44:32</time>
      </trkpt>
      <trkpt lat="37.05482" lon="-3.3226">
        <ele>3121.6</ele>
        <time>2021-08-06 10:44:33</time>
      </trkpt>
      <trkpt lat="37.05482" lon="-3.3226">
        <ele>3121.6</ele>
        <time>2021-08-06 10:44:34</time>
      </trkpt>
      <trkpt lat="37.05482" lon="-3.32259">
        <ele>3121.6</ele>
        <time>2021-08-06 10:44:35</time>
      </trkpt>
      <trkpt lat="37.05482" lon="-3.32258">
        <ele>3121.8</ele>
        <time>2021-08-06 10:44:36</time>
      </trkpt>
      <trkpt lat="37.05483" lon="-3.32258">
        <ele>3121.8</ele>
        <time>2021-08-06 10:44:37</time>
      </trkpt>
      <trkpt lat="37.05483" lon="-3.32257">
        <ele>3122</ele>
        <time>2021-08-06 10:44:38</time>
      </trkpt>
      <trkpt lat="37.05484" lon="-3.32257">
        <ele>3122.2</ele>
        <time>2021-08-06 10:44:39</time>
      </trkpt>
      <trkpt lat="37.05484" lon="-3.32256">
        <ele>3122.4</ele>
        <time>2021-08-06 10:44:40</time>
      </trkpt>
      <trkpt lat="37.05483" lon="-3.32256">
        <ele>3122.4</ele>
        <time>2021-08-06 10:44:41</time>
      </trkpt>
      <trkpt lat="37.05483" lon="-3.32255">
        <ele>3122.4</ele>
        <time>2021-08-06 10:44:42</time>
      </trkpt>
      <trkpt lat="37.05482" lon="-3.32255">
        <ele>3122.4</ele>
        <time>2021-08-06 10:44:43</time>
      </trkpt>
      <trkpt lat="37.05482" lon="-3.32255">
        <ele>3122.4</ele>
        <time>2021-08-06 10:44:44</time>
      </trkpt>
      <trkpt lat="37.05482" lon="-3.32255">
        <ele>3122.4</ele>
        <time>2021-08-06 10:44:45</time>
      </trkpt>
      <trkpt lat="37.05482" lon="-3.32255">
        <ele>3122.4</ele>
        <time>2021-08-06 10:44:46</time>
      </trkpt>
      <trkpt lat="37.05482" lon="-3.32254">
        <ele>3122.6</ele>
        <time>2021-08-06 10:44:47</time>
      </trkpt>
      <trkpt lat="37.05482" lon="-3.32254">
        <ele>3123</ele>
        <time>2021-08-06 10:44:48</time>
      </trkpt>
      <trkpt lat="37.05483" lon="-3.32253">
        <ele>3123.2</ele>
        <time>2021-08-06 10:44:49</time>
      </trkpt>
      <trkpt lat="37.05484" lon="-3.32253">
        <ele>3123.4</ele>
        <time>2021-08-06 10:44:50</time>
      </trkpt>
      <trkpt lat="37.05484" lon="-3.32252">
        <ele>3123.6</ele>
        <time>2021-08-06 10:44:51</time>
      </trkpt>
      <trkpt lat="37.05485" lon="-3.32251">
        <ele>3123.8</ele>
        <time>2021-08-06 10:44:52</time>
      </trkpt>
      <trkpt lat="37.05485" lon="-3.32251">
        <ele>3124</ele>
        <time>2021-08-06 10:44:53</time>
      </trkpt>
      <trkpt lat="37.05485" lon="-3.3225">
        <ele>3124.2</ele>
        <time>2021-08-06 10:44:54</time>
      </trkpt>
      <trkpt lat="37.05485" lon="-3.32249">
        <ele>3124.2</ele>
        <time>2021-08-06 10:44:55</time>
      </trkpt>
      <trkpt lat="37.05488" lon="-3.32248">
        <ele>3124.4</ele>
        <time>2021-08-06 10:44:56</time>
      </trkpt>
      <trkpt lat="37.05489" lon="-3.32248">
        <ele>3124.6</ele>
        <time>2021-08-06 10:44:57</time>
      </trkpt>
      <trkpt lat="37.05489" lon="-3.32248">
        <ele>3124.8</ele>
        <time>2021-08-06 10:44:58</time>
      </trkpt>
      <trkpt lat="37.05489" lon="-3.32247">
        <ele>3125</ele>
        <time>2021-08-06 10:44:59</time>
      </trkpt>
      <trkpt lat="37.0549" lon="-3.32248">
        <ele>3125.2</ele>
        <time>2021-08-06 10:45:00</time>
      </trkpt>
      <trkpt lat="37.0549" lon="-3.32248">
        <ele>3125.2</ele>
        <time>2021-08-06 10:45:01</time>
      </trkpt>
      <trkpt lat="37.05489" lon="-3.32248">
        <ele>3125</ele>
        <time>2021-08-06 10:45:02</time>
      </trkpt>
      <trkpt lat="37.05489" lon="-3.32247">
        <ele>3125</ele>
        <time>2021-08-06 10:45:03</time>
      </trkpt>
      <trkpt lat="37.05489" lon="-3.32246">
        <ele>3125</ele>
        <time>2021-08-06 10:45:04</time>
      </trkpt>
      <trkpt lat="37.05489" lon="-3.32245">
        <ele>3125.2</ele>
        <time>2021-08-06 10:45:05</time>
      </trkpt>
      <trkpt lat="37.05488" lon="-3.32244">
        <ele>3125.4</ele>
        <time>2021-08-06 10:45:06</time>
      </trkpt>
      <trkpt lat="37.05487" lon="-3.32244">
        <ele>3125.4</ele>
        <time>2021-08-06 10:45:07</time>
      </trkpt>
      <trkpt lat="37.05486" lon="-3.32244">
        <ele>3125.4</ele>
        <time>2021-08-06 10:45:08</time>
      </trkpt>
      <trkpt lat="37.05486" lon="-3.32243">
        <ele>3125.4</ele>
        <time>2021-08-06 10:45:09</time>
      </trkpt>
      <trkpt lat="37.05485" lon="-3.32242">
        <ele>3125.4</ele>
        <time>2021-08-06 10:45:10</time>
      </trkpt>
      <trkpt lat="37.05485" lon="-3.32241">
        <ele>3125.4</ele>
        <time>2021-08-06 10:45:11</time>
      </trkpt>
      <trkpt lat="37.05485" lon="-3.3224">
        <ele>3125.6</ele>
        <time>2021-08-06 10:45:12</time>
      </trkpt>
      <trkpt lat="37.05485" lon="-3.32239">
        <ele>3125.8</ele>
        <time>2021-08-06 10:45:13</time>
      </trkpt>
      <trkpt lat="37.05485" lon="-3.32237">
        <ele>3125.8</ele>
        <time>2021-08-06 10:45:14</time>
      </trkpt>
      <trkpt lat="37.05484" lon="-3.32236">
        <ele>3125.8</ele>
        <time>2021-08-06 10:45:15</time>
      </trkpt>
      <trkpt lat="37.05484" lon="-3.32235">
        <ele>3126</ele>
        <time>2021-08-06 10:45:16</time>
      </trkpt>
      <trkpt lat="37.05484" lon="-3.32235">
        <ele>3126</ele>
        <time>2021-08-06 10:45:17</time>
      </trkpt>
      <trkpt lat="37.05483" lon="-3.32235">
        <ele>3126.4</ele>
        <time>2021-08-06 10:45:18</time>
      </trkpt>
      <trkpt lat="37.05483" lon="-3.32234">
        <ele>3126.6</ele>
        <time>2021-08-06 10:45:19</time>
      </trkpt>
      <trkpt lat="37.05482" lon="-3.32234">
        <ele>3126.6</ele>
        <time>2021-08-06 10:45:20</time>
      </trkpt>
      <trkpt lat="37.05482" lon="-3.32233">
        <ele>3126.8</ele>
        <time>2021-08-06 10:45:21</time>
      </trkpt>
      <trkpt lat="37.05482" lon="-3.32231">
        <ele>3126.8</ele>
        <time>2021-08-06 10:45:22</time>
      </trkpt>
      <trkpt lat="37.05482" lon="-3.3223">
        <ele>3127</ele>
        <time>2021-08-06 10:45:23</time>
      </trkpt>
      <trkpt lat="37.05482" lon="-3.32229">
        <ele>3127</ele>
        <time>2021-08-06 10:45:24</time>
      </trkpt>
      <trkpt lat="37.05481" lon="-3.32228">
        <ele>3127</ele>
        <time>2021-08-06 10:45:25</time>
      </trkpt>
      <trkpt lat="37.05481" lon="-3.32228">
        <ele>3127</ele>
        <time>2021-08-06 10:45:26</time>
      </trkpt>
      <trkpt lat="37.05481" lon="-3.32229">
        <ele>3127</ele>
        <time>2021-08-06 10:45:27</time>
      </trkpt>
      <trkpt lat="37.0548" lon="-3.32229">
        <ele>3127</ele>
        <time>2021-08-06 10:45:28</time>
      </trkpt>
      <trkpt lat="37.0548" lon="-3.32228">
        <ele>3127</ele>
        <time>2021-08-06 10:45:29</time>
      </trkpt>
      <trkpt lat="37.0548" lon="-3.32228">
        <ele>3127.2</ele>
        <time>2021-08-06 10:45:30</time>
      </trkpt>
      <trkpt lat="37.05481" lon="-3.32226">
        <ele>3127.4</ele>
        <time>2021-08-06 10:45:31</time>
      </trkpt>
      <trkpt lat="37.05481" lon="-3.32225">
        <ele>3127.6</ele>
        <time>2021-08-06 10:45:32</time>
      </trkpt>
      <trkpt lat="37.05481" lon="-3.32224">
        <ele>3127.8</ele>
        <time>2021-08-06 10:45:33</time>
      </trkpt>
      <trkpt lat="37.05481" lon="-3.32224">
        <ele>3128</ele>
        <time>2021-08-06 10:45:34</time>
      </trkpt>
      <trkpt lat="37.05481" lon="-3.32223">
        <ele>3128</ele>
        <time>2021-08-06 10:45:35</time>
      </trkpt>
      <trkpt lat="37.05482" lon="-3.32223">
        <ele>3128.2</ele>
        <time>2021-08-06 10:45:36</time>
      </trkpt>
      <trkpt lat="37.05483" lon="-3.32222">
        <ele>3128.2</ele>
        <time>2021-08-06 10:45:37</time>
      </trkpt>
      <trkpt lat="37.05483" lon="-3.32222">
        <ele>3128.4</ele>
        <time>2021-08-06 10:45:38</time>
      </trkpt>
      <trkpt lat="37.05483" lon="-3.32222">
        <ele>3128.6</ele>
        <time>2021-08-06 10:45:39</time>
      </trkpt>
      <trkpt lat="37.05483" lon="-3.32221">
        <ele>3128.8</ele>
        <time>2021-08-06 10:45:40</time>
      </trkpt>
      <trkpt lat="37.05483" lon="-3.32221">
        <ele>3129</ele>
        <time>2021-08-06 10:45:41</time>
      </trkpt>
      <trkpt lat="37.05482" lon="-3.3222">
        <ele>3129.2</ele>
        <time>2021-08-06 10:45:42</time>
      </trkpt>
      <trkpt lat="37.05482" lon="-3.3222">
        <ele>3129.4</ele>
        <time>2021-08-06 10:45:43</time>
      </trkpt>
      <trkpt lat="37.05482" lon="-3.32219">
        <ele>3129.4</ele>
        <time>2021-08-06 10:45:44</time>
      </trkpt>
      <trkpt lat="37.05481" lon="-3.32219">
        <ele>3129.6</ele>
        <time>2021-08-06 10:45:45</time>
      </trkpt>
      <trkpt lat="37.05481" lon="-3.32218">
        <ele>3129.8</ele>
        <time>2021-08-06 10:45:46</time>
      </trkpt>
      <trkpt lat="37.05481" lon="-3.32218">
        <ele>3129.8</ele>
        <time>2021-08-06 10:45:47</time>
      </trkpt>
      <trkpt lat="37.0548" lon="-3.32217">
        <ele>3129.8</ele>
        <time>2021-08-06 10:45:48</time>
      </trkpt>
      <trkpt lat="37.0548" lon="-3.32217">
        <ele>3129.8</ele>
        <time>2021-08-06 10:45:49</time>
      </trkpt>
      <trkpt lat="37.05479" lon="-3.32216">
        <ele>3129.8</ele>
        <time>2021-08-06 10:45:50</time>
      </trkpt>
      <trkpt lat="37.05479" lon="-3.32215">
        <ele>3130</ele>
        <time>2021-08-06 10:45:51</time>
      </trkpt>
      <trkpt lat="37.05478" lon="-3.32214">
        <ele>3130.2</ele>
        <time>2021-08-06 10:45:52</time>
      </trkpt>
      <trkpt lat="37.05478" lon="-3.32214">
        <ele>3130.2</ele>
        <time>2021-08-06 10:45:53</time>
      </trkpt>
      <trkpt lat="37.05477" lon="-3.32213">
        <ele>3130.4</ele>
        <time>2021-08-06 10:45:54</time>
      </trkpt>
      <trkpt lat="37.05476" lon="-3.32213">
        <ele>3130.4</ele>
        <time>2021-08-06 10:45:55</time>
      </trkpt>
      <trkpt lat="37.05475" lon="-3.32212">
        <ele>3130.4</ele>
        <time>2021-08-06 10:45:56</time>
      </trkpt>
      <trkpt lat="37.05475" lon="-3.32212">
        <ele>3130.8</ele>
        <time>2021-08-06 10:45:57</time>
      </trkpt>
      <trkpt lat="37.05476" lon="-3.32211">
        <ele>3130.8</ele>
        <time>2021-08-06 10:45:58</time>
      </trkpt>
      <trkpt lat="37.05476" lon="-3.32211">
        <ele>3131</ele>
        <time>2021-08-06 10:45:59</time>
      </trkpt>
      <trkpt lat="37.05476" lon="-3.3221">
        <ele>3131</ele>
        <time>2021-08-06 10:46:00</time>
      </trkpt>
      <trkpt lat="37.05476" lon="-3.3221">
        <ele>3131</ele>
        <time>2021-08-06 10:46:01</time>
      </trkpt>
      <trkpt lat="37.05476" lon="-3.32209">
        <ele>3131</ele>
        <time>2021-08-06 10:46:02</time>
      </trkpt>
      <trkpt lat="37.05476" lon="-3.32209">
        <ele>3131</ele>
        <time>2021-08-06 10:46:03</time>
      </trkpt>
      <trkpt lat="37.05476" lon="-3.32209">
        <ele>3131</ele>
        <time>2021-08-06 10:46:04</time>
      </trkpt>
      <trkpt lat="37.05476" lon="-3.32208">
        <ele>3130.8</ele>
        <time>2021-08-06 10:46:05</time>
      </trkpt>
      <trkpt lat="37.05476" lon="-3.32208">
        <ele>3131</ele>
        <time>2021-08-06 10:46:06</time>
      </trkpt>
      <trkpt lat="37.05476" lon="-3.32207">
        <ele>3131</ele>
        <time>2021-08-06 10:46:07</time>
      </trkpt>
      <trkpt lat="37.05476" lon="-3.32206">
        <ele>3131.2</ele>
        <time>2021-08-06 10:46:08</time>
      </trkpt>
      <trkpt lat="37.05476" lon="-3.32206">
        <ele>3131.4</ele>
        <time>2021-08-06 10:46:09</time>
      </trkpt>
      <trkpt lat="37.05476" lon="-3.32205">
        <ele>3131.6</ele>
        <time>2021-08-06 10:46:10</time>
      </trkpt>
      <trkpt lat="37.05475" lon="-3.32204">
        <ele>3131.8</ele>
        <time>2021-08-06 10:46:11</time>
      </trkpt>
      <trkpt lat="37.05473" lon="-3.32204">
        <ele>3131.8</ele>
        <time>2021-08-06 10:46:12</time>
      </trkpt>
      <trkpt lat="37.05473" lon="-3.32203">
        <ele>3131.8</ele>
        <time>2021-08-06 10:46:13</time>
      </trkpt>
      <trkpt lat="37.05472" lon="-3.32203">
        <ele>3132</ele>
        <time>2021-08-06 10:46:14</time>
      </trkpt>
      <trkpt lat="37.05472" lon="-3.32202">
        <ele>3132</ele>
        <time>2021-08-06 10:46:15</time>
      </trkpt>
      <trkpt lat="37.05472" lon="-3.32201">
        <ele>3132.2</ele>
        <time>2021-08-06 10:46:16</time>
      </trkpt>
      <trkpt lat="37.05472" lon="-3.32201">
        <ele>3132.4</ele>
        <time>2021-08-06 10:46:17</time>
      </trkpt>
      <trkpt lat="37.05472" lon="-3.322">
        <ele>3132.8</ele>
        <time>2021-08-06 10:46:18</time>
      </trkpt>
      <trkpt lat="37.05472" lon="-3.32199">
        <ele>3133</ele>
        <time>2021-08-06 10:46:19</time>
      </trkpt>
      <trkpt lat="37.05471" lon="-3.32199">
        <ele>3133</ele>
        <time>2021-08-06 10:46:20</time>
      </trkpt>
      <trkpt lat="37.05471" lon="-3.32199">
        <ele>3133.2</ele>
        <time>2021-08-06 10:46:21</time>
      </trkpt>
      <trkpt lat="37.05471" lon="-3.32198">
        <ele>3133.2</ele>
        <time>2021-08-06 10:46:22</time>
      </trkpt>
      <trkpt lat="37.0547" lon="-3.32198">
        <ele>3133.2</ele>
        <time>2021-08-06 10:46:23</time>
      </trkpt>
      <trkpt lat="37.05471" lon="-3.32198">
        <ele>3133.2</ele>
        <time>2021-08-06 10:46:24</time>
      </trkpt>
      <trkpt lat="37.05471" lon="-3.32198">
        <ele>3133.2</ele>
        <time>2021-08-06 10:46:25</time>
      </trkpt>
      <trkpt lat="37.05471" lon="-3.32197">
        <ele>3133.2</ele>
        <time>2021-08-06 10:46:26</time>
      </trkpt>
      <trkpt lat="37.05471" lon="-3.32196">
        <ele>3133.4</ele>
        <time>2021-08-06 10:46:27</time>
      </trkpt>
      <trkpt lat="37.05471" lon="-3.32196">
        <ele>3133.4</ele>
        <time>2021-08-06 10:46:28</time>
      </trkpt>
      <trkpt lat="37.05471" lon="-3.32195">
        <ele>3133.6</ele>
        <time>2021-08-06 10:46:29</time>
      </trkpt>
      <trkpt lat="37.05471" lon="-3.32194">
        <ele>3133.6</ele>
        <time>2021-08-06 10:46:30</time>
      </trkpt>
      <trkpt lat="37.05471" lon="-3.32193">
        <ele>3133.6</ele>
        <time>2021-08-06 10:46:31</time>
      </trkpt>
      <trkpt lat="37.0547" lon="-3.32193">
        <ele>3133.8</ele>
        <time>2021-08-06 10:46:32</time>
      </trkpt>
      <trkpt lat="37.0547" lon="-3.32193">
        <ele>3133.8</ele>
        <time>2021-08-06 10:46:33</time>
      </trkpt>
      <trkpt lat="37.0547" lon="-3.32191">
        <ele>3134</ele>
        <time>2021-08-06 10:46:34</time>
      </trkpt>
      <trkpt lat="37.0547" lon="-3.32191">
        <ele>3134.4</ele>
        <time>2021-08-06 10:46:35</time>
      </trkpt>
      <trkpt lat="37.0547" lon="-3.3219">
        <ele>3134.6</ele>
        <time>2021-08-06 10:46:36</time>
      </trkpt>
      <trkpt lat="37.0547" lon="-3.32189">
        <ele>3134.8</ele>
        <time>2021-08-06 10:46:37</time>
      </trkpt>
      <trkpt lat="37.05469" lon="-3.32189">
        <ele>3135</ele>
        <time>2021-08-06 10:46:38</time>
      </trkpt>
      <trkpt lat="37.05469" lon="-3.32188">
        <ele>3135.2</ele>
        <time>2021-08-06 10:46:39</time>
      </trkpt>
      <trkpt lat="37.05468" lon="-3.32187">
        <ele>3135.2</ele>
        <time>2021-08-06 10:46:40</time>
      </trkpt>
      <trkpt lat="37.05468" lon="-3.32187">
        <ele>3135.2</ele>
        <time>2021-08-06 10:46:41</time>
      </trkpt>
      <trkpt lat="37.05467" lon="-3.32187">
        <ele>3135.2</ele>
        <time>2021-08-06 10:46:42</time>
      </trkpt>
      <trkpt lat="37.05467" lon="-3.32186">
        <ele>3135.2</ele>
        <time>2021-08-06 10:46:43</time>
      </trkpt>
      <trkpt lat="37.05466" lon="-3.32186">
        <ele>3135.6</ele>
        <time>2021-08-06 10:46:44</time>
      </trkpt>
      <trkpt lat="37.05466" lon="-3.32185">
        <ele>3135.6</ele>
        <time>2021-08-06 10:46:45</time>
      </trkpt>
      <trkpt lat="37.05465" lon="-3.32184">
        <ele>3135.6</ele>
        <time>2021-08-06 10:46:46</time>
      </trkpt>
      <trkpt lat="37.05465" lon="-3.32183">
        <ele>3135.8</ele>
        <time>2021-08-06 10:46:47</time>
      </trkpt>
      <trkpt lat="37.05465" lon="-3.32182">
        <ele>3135.8</ele>
        <time>2021-08-06 10:46:48</time>
      </trkpt>
      <trkpt lat="37.05465" lon="-3.32182">
        <ele>3136</ele>
        <time>2021-08-06 10:46:49</time>
      </trkpt>
      <trkpt lat="37.05465" lon="-3.32181">
        <ele>3136</ele>
        <time>2021-08-06 10:46:50</time>
      </trkpt>
      <trkpt lat="37.05465" lon="-3.32181">
        <ele>3136</ele>
        <time>2021-08-06 10:46:51</time>
      </trkpt>
      <trkpt lat="37.05465" lon="-3.32181">
        <ele>3136.2</ele>
        <time>2021-08-06 10:46:52</time>
      </trkpt>
      <trkpt lat="37.05465" lon="-3.32181">
        <ele>3136.2</ele>
        <time>2021-08-06 10:46:53</time>
      </trkpt>
      <trkpt lat="37.05464" lon="-3.32181">
        <ele>3136.4</ele>
        <time>2021-08-06 10:46:54</time>
      </trkpt>
      <trkpt lat="37.05464" lon="-3.3218">
        <ele>3136.6</ele>
        <time>2021-08-06 10:46:55</time>
      </trkpt>
      <trkpt lat="37.05464" lon="-3.3218">
        <ele>3136.8</ele>
        <time>2021-08-06 10:46:56</time>
      </trkpt>
      <trkpt lat="37.05464" lon="-3.32179">
        <ele>3136.8</ele>
        <time>2021-08-06 10:46:57</time>
      </trkpt>
      <trkpt lat="37.05463" lon="-3.32179">
        <ele>3137</ele>
        <time>2021-08-06 10:46:58</time>
      </trkpt>
      <trkpt lat="37.05464" lon="-3.32178">
        <ele>3137</ele>
        <time>2021-08-06 10:46:59</time>
      </trkpt>
      <trkpt lat="37.05464" lon="-3.32178">
        <ele>3137</ele>
        <time>2021-08-06 10:47:00</time>
      </trkpt>
      <trkpt lat="37.05464" lon="-3.32177">
        <ele>3137</ele>
        <time>2021-08-06 10:47:01</time>
      </trkpt>
      <trkpt lat="37.05463" lon="-3.32176">
        <ele>3137.2</ele>
        <time>2021-08-06 10:47:02</time>
      </trkpt>
      <trkpt lat="37.05463" lon="-3.32176">
        <ele>3137.2</ele>
        <time>2021-08-06 10:47:03</time>
      </trkpt>
      <trkpt lat="37.05462" lon="-3.32176">
        <ele>3137.4</ele>
        <time>2021-08-06 10:47:04</time>
      </trkpt>
      <trkpt lat="37.05462" lon="-3.32175">
        <ele>3137.4</ele>
        <time>2021-08-06 10:47:05</time>
      </trkpt>
      <trkpt lat="37.05462" lon="-3.32174">
        <ele>3137.6</ele>
        <time>2021-08-06 10:47:06</time>
      </trkpt>
      <trkpt lat="37.05462" lon="-3.32173">
        <ele>3137.8</ele>
        <time>2021-08-06 10:47:07</time>
      </trkpt>
      <trkpt lat="37.05461" lon="-3.32173">
        <ele>3138</ele>
        <time>2021-08-06 10:47:08</time>
      </trkpt>
      <trkpt lat="37.05461" lon="-3.32172">
        <ele>3138</ele>
        <time>2021-08-06 10:47:09</time>
      </trkpt>
      <trkpt lat="37.05461" lon="-3.32171">
        <ele>3138.2</ele>
        <time>2021-08-06 10:47:10</time>
      </trkpt>
      <trkpt lat="37.05461" lon="-3.32171">
        <ele>3138.4</ele>
        <time>2021-08-06 10:47:11</time>
      </trkpt>
      <trkpt lat="37.05461" lon="-3.3217">
        <ele>3138.6</ele>
        <time>2021-08-06 10:47:12</time>
      </trkpt>
      <trkpt lat="37.0546" lon="-3.3217">
        <ele>3138.6</ele>
        <time>2021-08-06 10:47:13</time>
      </trkpt>
      <trkpt lat="37.0546" lon="-3.3217">
        <ele>3138.8</ele>
        <time>2021-08-06 10:47:14</time>
      </trkpt>
      <trkpt lat="37.0546" lon="-3.32169">
        <ele>3138.8</ele>
        <time>2021-08-06 10:47:15</time>
      </trkpt>
      <trkpt lat="37.0546" lon="-3.32169">
        <ele>3138.8</ele>
        <time>2021-08-06 10:47:16</time>
      </trkpt>
      <trkpt lat="37.0546" lon="-3.32168">
        <ele>3138.8</ele>
        <time>2021-08-06 10:47:17</time>
      </trkpt>
      <trkpt lat="37.0546" lon="-3.32168">
        <ele>3138.8</ele>
        <time>2021-08-06 10:47:18</time>
      </trkpt>
      <trkpt lat="37.0546" lon="-3.32167">
        <ele>3138.8</ele>
        <time>2021-08-06 10:47:19</time>
      </trkpt>
      <trkpt lat="37.0546" lon="-3.32167">
        <ele>3138.8</ele>
        <time>2021-08-06 10:47:20</time>
      </trkpt>
      <trkpt lat="37.0546" lon="-3.32166">
        <ele>3138.8</ele>
        <time>2021-08-06 10:47:21</time>
      </trkpt>
      <trkpt lat="37.0546" lon="-3.32165">
        <ele>3138.8</ele>
        <time>2021-08-06 10:47:22</time>
      </trkpt>
      <trkpt lat="37.0546" lon="-3.32165">
        <ele>3138.8</ele>
        <time>2021-08-06 10:47:23</time>
      </trkpt>
      <trkpt lat="37.0546" lon="-3.32164">
        <ele>3138.8</ele>
        <time>2021-08-06 10:47:24</time>
      </trkpt>
      <trkpt lat="37.0546" lon="-3.32164">
        <ele>3139</ele>
        <time>2021-08-06 10:47:25</time>
      </trkpt>
      <trkpt lat="37.0546" lon="-3.32164">
        <ele>3139.2</ele>
        <time>2021-08-06 10:47:26</time>
      </trkpt>
      <trkpt lat="37.05462" lon="-3.32163">
        <ele>3139.2</ele>
        <time>2021-08-06 10:47:27</time>
      </trkpt>
      <trkpt lat="37.05465" lon="-3.32161">
        <ele>3139.2</ele>
        <time>2021-08-06 10:47:28</time>
      </trkpt>
      <trkpt lat="37.05466" lon="-3.3216">
        <ele>3139.4</ele>
        <time>2021-08-06 10:47:29</time>
      </trkpt>
      <trkpt lat="37.05466" lon="-3.3216">
        <ele>3139.6</ele>
        <time>2021-08-06 10:47:30</time>
      </trkpt>
      <trkpt lat="37.05467" lon="-3.32159">
        <ele>3139.8</ele>
        <time>2021-08-06 10:47:31</time>
      </trkpt>
      <trkpt lat="37.05467" lon="-3.32159">
        <ele>3140</ele>
        <time>2021-08-06 10:47:32</time>
      </trkpt>
      <trkpt lat="37.05467" lon="-3.32159">
        <ele>3140.2</ele>
        <time>2021-08-06 10:47:33</time>
      </trkpt>
      <trkpt lat="37.05467" lon="-3.32159">
        <ele>3140.4</ele>
        <time>2021-08-06 10:47:34</time>
      </trkpt>
      <trkpt lat="37.05467" lon="-3.32158">
        <ele>3140.6</ele>
        <time>2021-08-06 10:47:35</time>
      </trkpt>
      <trkpt lat="37.05466" lon="-3.32157">
        <ele>3140.6</ele>
        <time>2021-08-06 10:47:36</time>
      </trkpt>
      <trkpt lat="37.05465" lon="-3.32157">
        <ele>3140.8</ele>
        <time>2021-08-06 10:47:37</time>
      </trkpt>
      <trkpt lat="37.05465" lon="-3.32156">
        <ele>3140.8</ele>
        <time>2021-08-06 10:47:38</time>
      </trkpt>
      <trkpt lat="37.05464" lon="-3.32156">
        <ele>3140.8</ele>
        <time>2021-08-06 10:47:39</time>
      </trkpt>
      <trkpt lat="37.05464" lon="-3.32156">
        <ele>3140.8</ele>
        <time>2021-08-06 10:47:40</time>
      </trkpt>
      <trkpt lat="37.05464" lon="-3.32156">
        <ele>3141</ele>
        <time>2021-08-06 10:47:41</time>
      </trkpt>
      <trkpt lat="37.05463" lon="-3.32156">
        <ele>3141.2</ele>
        <time>2021-08-06 10:47:42</time>
      </trkpt>
      <trkpt lat="37.05463" lon="-3.32156">
        <ele>3141.2</ele>
        <time>2021-08-06 10:47:43</time>
      </trkpt>
      <trkpt lat="37.05463" lon="-3.32156">
        <ele>3141.2</ele>
        <time>2021-08-06 10:47:44</time>
      </trkpt>
      <trkpt lat="37.05463" lon="-3.32155">
        <ele>3141.2</ele>
        <time>2021-08-06 10:47:45</time>
      </trkpt>
      <trkpt lat="37.05463" lon="-3.32155">
        <ele>3141.4</ele>
        <time>2021-08-06 10:47:46</time>
      </trkpt>
      <trkpt lat="37.05463" lon="-3.32155">
        <ele>3141.4</ele>
        <time>2021-08-06 10:47:47</time>
      </trkpt>
      <trkpt lat="37.05462" lon="-3.32154">
        <ele>3141.4</ele>
        <time>2021-08-06 10:47:48</time>
      </trkpt>
      <trkpt lat="37.05462" lon="-3.32154">
        <ele>3141.6</ele>
        <time>2021-08-06 10:47:49</time>
      </trkpt>
      <trkpt lat="37.05462" lon="-3.32154">
        <ele>3141.6</ele>
        <time>2021-08-06 10:47:50</time>
      </trkpt>
      <trkpt lat="37.05462" lon="-3.32153">
        <ele>3141.6</ele>
        <time>2021-08-06 10:47:51</time>
      </trkpt>
      <trkpt lat="37.05462" lon="-3.32153">
        <ele>3141.6</ele>
        <time>2021-08-06 10:47:52</time>
      </trkpt>
      <trkpt lat="37.05461" lon="-3.32152">
        <ele>3141.8</ele>
        <time>2021-08-06 10:47:53</time>
      </trkpt>
      <trkpt lat="37.05461" lon="-3.32152">
        <ele>3142</ele>
        <time>2021-08-06 10:47:54</time>
      </trkpt>
      <trkpt lat="37.05461" lon="-3.32152">
        <ele>3142.2</ele>
        <time>2021-08-06 10:47:55</time>
      </trkpt>
      <trkpt lat="37.05461" lon="-3.32151">
        <ele>3142.4</ele>
        <time>2021-08-06 10:47:56</time>
      </trkpt>
      <trkpt lat="37.05461" lon="-3.3215">
        <ele>3142.4</ele>
        <time>2021-08-06 10:47:57</time>
      </trkpt>
      <trkpt lat="37.05461" lon="-3.3215">
        <ele>3142.6</ele>
        <time>2021-08-06 10:47:58</time>
      </trkpt>
      <trkpt lat="37.05461" lon="-3.3215">
        <ele>3142.6</ele>
        <time>2021-08-06 10:47:59</time>
      </trkpt>
      <trkpt lat="37.0546" lon="-3.32149">
        <ele>3142.6</ele>
        <time>2021-08-06 10:48:00</time>
      </trkpt>
      <trkpt lat="37.0546" lon="-3.32148">
        <ele>3142.8</ele>
        <time>2021-08-06 10:48:01</time>
      </trkpt>
      <trkpt lat="37.0546" lon="-3.32148">
        <ele>3142.8</ele>
        <time>2021-08-06 10:48:02</time>
      </trkpt>
      <trkpt lat="37.0546" lon="-3.32147">
        <ele>3142.8</ele>
        <time>2021-08-06 10:48:03</time>
      </trkpt>
      <trkpt lat="37.05459" lon="-3.32147">
        <ele>3143</ele>
        <time>2021-08-06 10:48:04</time>
      </trkpt>
      <trkpt lat="37.05459" lon="-3.32145">
        <ele>3143.2</ele>
        <time>2021-08-06 10:48:05</time>
      </trkpt>
      <trkpt lat="37.05459" lon="-3.32145">
        <ele>3143.2</ele>
        <time>2021-08-06 10:48:06</time>
      </trkpt>
      <trkpt lat="37.05458" lon="-3.32145">
        <ele>3143.4</ele>
        <time>2021-08-06 10:48:07</time>
      </trkpt>
      <trkpt lat="37.05458" lon="-3.32144">
        <ele>3143.4</ele>
        <time>2021-08-06 10:48:08</time>
      </trkpt>
      <trkpt lat="37.05458" lon="-3.32144">
        <ele>3143.6</ele>
        <time>2021-08-06 10:48:09</time>
      </trkpt>
      <trkpt lat="37.05458" lon="-3.32143">
        <ele>3143.8</ele>
        <time>2021-08-06 10:48:10</time>
      </trkpt>
      <trkpt lat="37.05458" lon="-3.32143">
        <ele>3144</ele>
        <time>2021-08-06 10:48:11</time>
      </trkpt>
      <trkpt lat="37.05459" lon="-3.32142">
        <ele>3144</ele>
        <time>2021-08-06 10:48:12</time>
      </trkpt>
      <trkpt lat="37.05458" lon="-3.32141">
        <ele>3144</ele>
        <time>2021-08-06 10:48:13</time>
      </trkpt>
      <trkpt lat="37.05458" lon="-3.32141">
        <ele>3144.2</ele>
        <time>2021-08-06 10:48:14</time>
      </trkpt>
      <trkpt lat="37.05457" lon="-3.3214">
        <ele>3144.2</ele>
        <time>2021-08-06 10:48:15</time>
      </trkpt>
      <trkpt lat="37.05457" lon="-3.3214">
        <ele>3144.4</ele>
        <time>2021-08-06 10:48:16</time>
      </trkpt>
      <trkpt lat="37.05457" lon="-3.3214">
        <ele>3144.4</ele>
        <time>2021-08-06 10:48:17</time>
      </trkpt>
      <trkpt lat="37.05457" lon="-3.32139">
        <ele>3144.4</ele>
        <time>2021-08-06 10:48:18</time>
      </trkpt>
      <trkpt lat="37.05456" lon="-3.32138">
        <ele>3144.4</ele>
        <time>2021-08-06 10:48:19</time>
      </trkpt>
      <trkpt lat="37.05456" lon="-3.32138">
        <ele>3144.4</ele>
        <time>2021-08-06 10:48:20</time>
      </trkpt>
      <trkpt lat="37.05456" lon="-3.32138">
        <ele>3144.4</ele>
        <time>2021-08-06 10:48:21</time>
      </trkpt>
      <trkpt lat="37.05456" lon="-3.32137">
        <ele>3144.4</ele>
        <time>2021-08-06 10:48:22</time>
      </trkpt>
      <trkpt lat="37.05456" lon="-3.32136">
        <ele>3144.4</ele>
        <time>2021-08-06 10:48:23</time>
      </trkpt>
      <trkpt lat="37.05456" lon="-3.32136">
        <ele>3144.4</ele>
        <time>2021-08-06 10:48:24</time>
      </trkpt>
      <trkpt lat="37.05455" lon="-3.32135">
        <ele>3144.4</ele>
        <time>2021-08-06 10:48:25</time>
      </trkpt>
      <trkpt lat="37.05455" lon="-3.32134">
        <ele>3144.6</ele>
        <time>2021-08-06 10:48:26</time>
      </trkpt>
      <trkpt lat="37.05455" lon="-3.32134">
        <ele>3144.8</ele>
        <time>2021-08-06 10:48:27</time>
      </trkpt>
      <trkpt lat="37.05454" lon="-3.32133">
        <ele>3144.8</ele>
        <time>2021-08-06 10:48:28</time>
      </trkpt>
      <trkpt lat="37.05454" lon="-3.32133">
        <ele>3145</ele>
        <time>2021-08-06 10:48:29</time>
      </trkpt>
      <trkpt lat="37.05454" lon="-3.32132">
        <ele>3145.2</ele>
        <time>2021-08-06 10:48:30</time>
      </trkpt>
      <trkpt lat="37.05453" lon="-3.32132">
        <ele>3145.2</ele>
        <time>2021-08-06 10:48:31</time>
      </trkpt>
      <trkpt lat="37.05453" lon="-3.32132">
        <ele>3145.4</ele>
        <time>2021-08-06 10:48:32</time>
      </trkpt>
      <trkpt lat="37.05453" lon="-3.32131">
        <ele>3145.4</ele>
        <time>2021-08-06 10:48:33</time>
      </trkpt>
      <trkpt lat="37.05452" lon="-3.32131">
        <ele>3145.6</ele>
        <time>2021-08-06 10:48:34</time>
      </trkpt>
      <trkpt lat="37.05452" lon="-3.32131">
        <ele>3145.6</ele>
        <time>2021-08-06 10:48:35</time>
      </trkpt>
      <trkpt lat="37.05451" lon="-3.32132">
        <ele>3145.6</ele>
        <time>2021-08-06 10:48:36</time>
      </trkpt>
      <trkpt lat="37.05451" lon="-3.32131">
        <ele>3145.6</ele>
        <time>2021-08-06 10:48:37</time>
      </trkpt>
      <trkpt lat="37.0545" lon="-3.32131">
        <ele>3145.8</ele>
        <time>2021-08-06 10:48:38</time>
      </trkpt>
      <trkpt lat="37.0545" lon="-3.32131">
        <ele>3145.8</ele>
        <time>2021-08-06 10:48:39</time>
      </trkpt>
      <trkpt lat="37.0545" lon="-3.3213">
        <ele>3146</ele>
        <time>2021-08-06 10:48:40</time>
      </trkpt>
      <trkpt lat="37.0545" lon="-3.32129">
        <ele>3146</ele>
        <time>2021-08-06 10:48:41</time>
      </trkpt>
      <trkpt lat="37.05449" lon="-3.32129">
        <ele>3146</ele>
        <time>2021-08-06 10:48:42</time>
      </trkpt>
      <trkpt lat="37.05449" lon="-3.32129">
        <ele>3146</ele>
        <time>2021-08-06 10:48:43</time>
      </trkpt>
      <trkpt lat="37.05449" lon="-3.32128">
        <ele>3146</ele>
        <time>2021-08-06 10:48:44</time>
      </trkpt>
      <trkpt lat="37.05449" lon="-3.32127">
        <ele>3146</ele>
        <time>2021-08-06 10:48:45</time>
      </trkpt>
      <trkpt lat="37.05449" lon="-3.32127">
        <ele>3146</ele>
        <time>2021-08-06 10:48:46</time>
      </trkpt>
      <trkpt lat="37.05449" lon="-3.32126">
        <ele>3146</ele>
        <time>2021-08-06 10:48:47</time>
      </trkpt>
      <trkpt lat="37.05449" lon="-3.32126">
        <ele>3146.4</ele>
        <time>2021-08-06 10:48:48</time>
      </trkpt>
      <trkpt lat="37.05448" lon="-3.32126">
        <ele>3146.4</ele>
        <time>2021-08-06 10:48:49</time>
      </trkpt>
      <trkpt lat="37.05448" lon="-3.32125">
        <ele>3146.6</ele>
        <time>2021-08-06 10:48:50</time>
      </trkpt>
      <trkpt lat="37.05447" lon="-3.32125">
        <ele>3146.8</ele>
        <time>2021-08-06 10:48:51</time>
      </trkpt>
      <trkpt lat="37.05447" lon="-3.32125">
        <ele>3147.2</ele>
        <time>2021-08-06 10:48:52</time>
      </trkpt>
      <trkpt lat="37.05447" lon="-3.32124">
        <ele>3147.4</ele>
        <time>2021-08-06 10:48:53</time>
      </trkpt>
      <trkpt lat="37.05446" lon="-3.32123">
        <ele>3147.4</ele>
        <time>2021-08-06 10:48:54</time>
      </trkpt>
      <trkpt lat="37.05446" lon="-3.32122">
        <ele>3147.6</ele>
        <time>2021-08-06 10:48:55</time>
      </trkpt>
      <trkpt lat="37.05445" lon="-3.32122">
        <ele>3147.4</ele>
        <time>2021-08-06 10:48:56</time>
      </trkpt>
      <trkpt lat="37.05445" lon="-3.32122">
        <ele>3147.2</ele>
        <time>2021-08-06 10:48:57</time>
      </trkpt>
      <trkpt lat="37.05445" lon="-3.32121">
        <ele>3147.4</ele>
        <time>2021-08-06 10:48:58</time>
      </trkpt>
      <trkpt lat="37.05444" lon="-3.32121">
        <ele>3147.2</ele>
        <time>2021-08-06 10:48:59</time>
      </trkpt>
      <trkpt lat="37.05444" lon="-3.3212">
        <ele>3147.2</ele>
        <time>2021-08-06 10:49:00</time>
      </trkpt>
      <trkpt lat="37.05445" lon="-3.3212">
        <ele>3147.2</ele>
        <time>2021-08-06 10:49:01</time>
      </trkpt>
      <trkpt lat="37.05445" lon="-3.32119">
        <ele>3147.2</ele>
        <time>2021-08-06 10:49:02</time>
      </trkpt>
      <trkpt lat="37.05445" lon="-3.32119">
        <ele>3147.2</ele>
        <time>2021-08-06 10:49:03</time>
      </trkpt>
      <trkpt lat="37.05445" lon="-3.32118">
        <ele>3147.2</ele>
        <time>2021-08-06 10:49:04</time>
      </trkpt>
      <trkpt lat="37.05445" lon="-3.32117">
        <ele>3147.2</ele>
        <time>2021-08-06 10:49:05</time>
      </trkpt>
      <trkpt lat="37.05445" lon="-3.32116">
        <ele>3147.4</ele>
        <time>2021-08-06 10:49:06</time>
      </trkpt>
      <trkpt lat="37.05445" lon="-3.32115">
        <ele>3147.6</ele>
        <time>2021-08-06 10:49:07</time>
      </trkpt>
      <trkpt lat="37.05444" lon="-3.32115">
        <ele>3148</ele>
        <time>2021-08-06 10:49:08</time>
      </trkpt>
      <trkpt lat="37.05444" lon="-3.32114">
        <ele>3148.2</ele>
        <time>2021-08-06 10:49:09</time>
      </trkpt>
      <trkpt lat="37.05444" lon="-3.32114">
        <ele>3148.4</ele>
        <time>2021-08-06 10:49:10</time>
      </trkpt>
      <trkpt lat="37.05443" lon="-3.32113">
        <ele>3148.6</ele>
        <time>2021-08-06 10:49:11</time>
      </trkpt>
      <trkpt lat="37.05443" lon="-3.32113">
        <ele>3148.8</ele>
        <time>2021-08-06 10:49:12</time>
      </trkpt>
      <trkpt lat="37.05443" lon="-3.32113">
        <ele>3148.8</ele>
        <time>2021-08-06 10:49:13</time>
      </trkpt>
      <trkpt lat="37.05443" lon="-3.32113">
        <ele>3148.8</ele>
        <time>2021-08-06 10:49:14</time>
      </trkpt>
      <trkpt lat="37.05443" lon="-3.32112">
        <ele>3148.8</ele>
        <time>2021-08-06 10:49:15</time>
      </trkpt>
      <trkpt lat="37.05442" lon="-3.32112">
        <ele>3148.8</ele>
        <time>2021-08-06 10:49:16</time>
      </trkpt>
      <trkpt lat="37.05442" lon="-3.32111">
        <ele>3148.8</ele>
        <time>2021-08-06 10:49:17</time>
      </trkpt>
      <trkpt lat="37.05442" lon="-3.32111">
        <ele>3148.8</ele>
        <time>2021-08-06 10:49:18</time>
      </trkpt>
      <trkpt lat="37.05442" lon="-3.3211">
        <ele>3148.8</ele>
        <time>2021-08-06 10:49:19</time>
      </trkpt>
      <trkpt lat="37.05441" lon="-3.32109">
        <ele>3149</ele>
        <time>2021-08-06 10:49:20</time>
      </trkpt>
      <trkpt lat="37.05441" lon="-3.32109">
        <ele>3149.2</ele>
        <time>2021-08-06 10:49:21</time>
      </trkpt>
      <trkpt lat="37.0544" lon="-3.32109">
        <ele>3149.4</ele>
        <time>2021-08-06 10:49:22</time>
      </trkpt>
      <trkpt lat="37.0544" lon="-3.32109">
        <ele>3149.4</ele>
        <time>2021-08-06 10:49:23</time>
      </trkpt>
      <trkpt lat="37.0544" lon="-3.32108">
        <ele>3149.6</ele>
        <time>2021-08-06 10:49:24</time>
      </trkpt>
      <trkpt lat="37.0544" lon="-3.32107">
        <ele>3149.6</ele>
        <time>2021-08-06 10:49:25</time>
      </trkpt>
      <trkpt lat="37.0544" lon="-3.32107">
        <ele>3149.8</ele>
        <time>2021-08-06 10:49:26</time>
      </trkpt>
      <trkpt lat="37.0544" lon="-3.32106">
        <ele>3149.8</ele>
        <time>2021-08-06 10:49:27</time>
      </trkpt>
      <trkpt lat="37.0544" lon="-3.32105">
        <ele>3150</ele>
        <time>2021-08-06 10:49:28</time>
      </trkpt>
      <trkpt lat="37.0544" lon="-3.32105">
        <ele>3150.2</ele>
        <time>2021-08-06 10:49:29</time>
      </trkpt>
      <trkpt lat="37.0544" lon="-3.32104">
        <ele>3150.4</ele>
        <time>2021-08-06 10:49:30</time>
      </trkpt>
      <trkpt lat="37.0544" lon="-3.32104">
        <ele>3150.8</ele>
        <time>2021-08-06 10:49:31</time>
      </trkpt>
      <trkpt lat="37.05439" lon="-3.32104">
        <ele>3151</ele>
        <time>2021-08-06 10:49:32</time>
      </trkpt>
      <trkpt lat="37.05439" lon="-3.32103">
        <ele>3151.2</ele>
        <time>2021-08-06 10:49:33</time>
      </trkpt>
      <trkpt lat="37.05438" lon="-3.32102">
        <ele>3151.4</ele>
        <time>2021-08-06 10:49:34</time>
      </trkpt>
      <trkpt lat="37.05438" lon="-3.32101">
        <ele>3151.4</ele>
        <time>2021-08-06 10:49:35</time>
      </trkpt>
      <trkpt lat="37.05438" lon="-3.32101">
        <ele>3151.6</ele>
        <time>2021-08-06 10:49:36</time>
      </trkpt>
      <trkpt lat="37.05438" lon="-3.321">
        <ele>3151.6</ele>
        <time>2021-08-06 10:49:37</time>
      </trkpt>
      <trkpt lat="37.05438" lon="-3.32099">
        <ele>3151.8</ele>
        <time>2021-08-06 10:49:38</time>
      </trkpt>
      <trkpt lat="37.05438" lon="-3.32099">
        <ele>3152.2</ele>
        <time>2021-08-06 10:49:39</time>
      </trkpt>
      <trkpt lat="37.05437" lon="-3.32098">
        <ele>3152.4</ele>
        <time>2021-08-06 10:49:40</time>
      </trkpt>
      <trkpt lat="37.05437" lon="-3.32098">
        <ele>3152.6</ele>
        <time>2021-08-06 10:49:41</time>
      </trkpt>
      <trkpt lat="37.05436" lon="-3.32097">
        <ele>3152.6</ele>
        <time>2021-08-06 10:49:42</time>
      </trkpt>
      <trkpt lat="37.05436" lon="-3.32096">
        <ele>3152.6</ele>
        <time>2021-08-06 10:49:43</time>
      </trkpt>
      <trkpt lat="37.05435" lon="-3.32095">
        <ele>3152.8</ele>
        <time>2021-08-06 10:49:44</time>
      </trkpt>
      <trkpt lat="37.05435" lon="-3.32095">
        <ele>3153</ele>
        <time>2021-08-06 10:49:45</time>
      </trkpt>
      <trkpt lat="37.05434" lon="-3.32094">
        <ele>3153</ele>
        <time>2021-08-06 10:49:46</time>
      </trkpt>
      <trkpt lat="37.05434" lon="-3.32093">
        <ele>3153.2</ele>
        <time>2021-08-06 10:49:47</time>
      </trkpt>
      <trkpt lat="37.05434" lon="-3.32093">
        <ele>3153.4</ele>
        <time>2021-08-06 10:49:48</time>
      </trkpt>
      <trkpt lat="37.05433" lon="-3.32093">
        <ele>3153.4</ele>
        <time>2021-08-06 10:49:49</time>
      </trkpt>
      <trkpt lat="37.05433" lon="-3.32092">
        <ele>3153.6</ele>
        <time>2021-08-06 10:49:50</time>
      </trkpt>
      <trkpt lat="37.05433" lon="-3.32092">
        <ele>3153.6</ele>
        <time>2021-08-06 10:49:51</time>
      </trkpt>
      <trkpt lat="37.05433" lon="-3.32091">
        <ele>3153.8</ele>
        <time>2021-08-06 10:49:52</time>
      </trkpt>
      <trkpt lat="37.05433" lon="-3.32091">
        <ele>3154</ele>
        <time>2021-08-06 10:49:53</time>
      </trkpt>
      <trkpt lat="37.05433" lon="-3.3209">
        <ele>3154</ele>
        <time>2021-08-06 10:49:54</time>
      </trkpt>
      <trkpt lat="37.05433" lon="-3.3209">
        <ele>3154.2</ele>
        <time>2021-08-06 10:49:55</time>
      </trkpt>
      <trkpt lat="37.05432" lon="-3.32088">
        <ele>3154.4</ele>
        <time>2021-08-06 10:49:56</time>
      </trkpt>
      <trkpt lat="37.05433" lon="-3.32087">
        <ele>3154.4</ele>
        <time>2021-08-06 10:49:57</time>
      </trkpt>
      <trkpt lat="37.05432" lon="-3.32086">
        <ele>3154.4</ele>
        <time>2021-08-06 10:49:58</time>
      </trkpt>
      <trkpt lat="37.05432" lon="-3.32086">
        <ele>3154.6</ele>
        <time>2021-08-06 10:49:59</time>
      </trkpt>
      <trkpt lat="37.05432" lon="-3.32085">
        <ele>3154.8</ele>
        <time>2021-08-06 10:50:00</time>
      </trkpt>
      <trkpt lat="37.05431" lon="-3.32084">
        <ele>3154.8</ele>
        <time>2021-08-06 10:50:01</time>
      </trkpt>
      <trkpt lat="37.05431" lon="-3.32083">
        <ele>3154.8</ele>
        <time>2021-08-06 10:50:02</time>
      </trkpt>
      <trkpt lat="37.05431" lon="-3.32083">
        <ele>3155</ele>
        <time>2021-08-06 10:50:03</time>
      </trkpt>
      <trkpt lat="37.0543" lon="-3.32082">
        <ele>3155.2</ele>
        <time>2021-08-06 10:50:04</time>
      </trkpt>
      <trkpt lat="37.0543" lon="-3.32082">
        <ele>3155.4</ele>
        <time>2021-08-06 10:50:05</time>
      </trkpt>
      <trkpt lat="37.0543" lon="-3.32081">
        <ele>3155.4</ele>
        <time>2021-08-06 10:50:06</time>
      </trkpt>
      <trkpt lat="37.0543" lon="-3.32081">
        <ele>3155.4</ele>
        <time>2021-08-06 10:50:07</time>
      </trkpt>
      <trkpt lat="37.0543" lon="-3.3208">
        <ele>3155.4</ele>
        <time>2021-08-06 10:50:08</time>
      </trkpt>
      <trkpt lat="37.0543" lon="-3.3208">
        <ele>3155.6</ele>
        <time>2021-08-06 10:50:09</time>
      </trkpt>
      <trkpt lat="37.05431" lon="-3.32079">
        <ele>3155.8</ele>
        <time>2021-08-06 10:50:10</time>
      </trkpt>
      <trkpt lat="37.05432" lon="-3.32078">
        <ele>3156</ele>
        <time>2021-08-06 10:50:11</time>
      </trkpt>
      <trkpt lat="37.05432" lon="-3.32078">
        <ele>3156</ele>
        <time>2021-08-06 10:50:12</time>
      </trkpt>
      <trkpt lat="37.05432" lon="-3.32077">
        <ele>3156.2</ele>
        <time>2021-08-06 10:50:13</time>
      </trkpt>
      <trkpt lat="37.05431" lon="-3.32077">
        <ele>3156.4</ele>
        <time>2021-08-06 10:50:14</time>
      </trkpt>
      <trkpt lat="37.05431" lon="-3.32077">
        <ele>3156.4</ele>
        <time>2021-08-06 10:50:15</time>
      </trkpt>
      <trkpt lat="37.0543" lon="-3.32076">
        <ele>3156.6</ele>
        <time>2021-08-06 10:50:16</time>
      </trkpt>
      <trkpt lat="37.0543" lon="-3.32075">
        <ele>3156.6</ele>
        <time>2021-08-06 10:50:17</time>
      </trkpt>
      <trkpt lat="37.05429" lon="-3.32074">
        <ele>3156.6</ele>
        <time>2021-08-06 10:50:18</time>
      </trkpt>
      <trkpt lat="37.05429" lon="-3.32074">
        <ele>3156.8</ele>
        <time>2021-08-06 10:50:19</time>
      </trkpt>
      <trkpt lat="37.05428" lon="-3.32073">
        <ele>3156.8</ele>
        <time>2021-08-06 10:50:20</time>
      </trkpt>
      <trkpt lat="37.05428" lon="-3.32072">
        <ele>3157.2</ele>
        <time>2021-08-06 10:50:21</time>
      </trkpt>
      <trkpt lat="37.05428" lon="-3.32072">
        <ele>3157.4</ele>
        <time>2021-08-06 10:50:22</time>
      </trkpt>
      <trkpt lat="37.05427" lon="-3.32072">
        <ele>3157.6</ele>
        <time>2021-08-06 10:50:23</time>
      </trkpt>
      <trkpt lat="37.05427" lon="-3.32071">
        <ele>3157.8</ele>
        <time>2021-08-06 10:50:24</time>
      </trkpt>
      <trkpt lat="37.05427" lon="-3.32071">
        <ele>3157.8</ele>
        <time>2021-08-06 10:50:25</time>
      </trkpt>
      <trkpt lat="37.05427" lon="-3.32071">
        <ele>3157.8</ele>
        <time>2021-08-06 10:50:26</time>
      </trkpt>
      <trkpt lat="37.05427" lon="-3.32071">
        <ele>3157.8</ele>
        <time>2021-08-06 10:50:27</time>
      </trkpt>
      <trkpt lat="37.05427" lon="-3.3207">
        <ele>3158</ele>
        <time>2021-08-06 10:50:28</time>
      </trkpt>
      <trkpt lat="37.05426" lon="-3.3207">
        <ele>3158</ele>
        <time>2021-08-06 10:50:29</time>
      </trkpt>
      <trkpt lat="37.05426" lon="-3.32069">
        <ele>3158.2</ele>
        <time>2021-08-06 10:50:30</time>
      </trkpt>
      <trkpt lat="37.05426" lon="-3.32069">
        <ele>3158.2</ele>
        <time>2021-08-06 10:50:31</time>
      </trkpt>
      <trkpt lat="37.05425" lon="-3.32068">
        <ele>3158.2</ele>
        <time>2021-08-06 10:50:32</time>
      </trkpt>
      <trkpt lat="37.05425" lon="-3.32068">
        <ele>3158.4</ele>
        <time>2021-08-06 10:50:33</time>
      </trkpt>
      <trkpt lat="37.05424" lon="-3.32068">
        <ele>3158.4</ele>
        <time>2021-08-06 10:50:34</time>
      </trkpt>
      <trkpt lat="37.05424" lon="-3.32068">
        <ele>3158.4</ele>
        <time>2021-08-06 10:50:35</time>
      </trkpt>
      <trkpt lat="37.05424" lon="-3.32068">
        <ele>3158.6</ele>
        <time>2021-08-06 10:50:36</time>
      </trkpt>
      <trkpt lat="37.05424" lon="-3.32068">
        <ele>3159</ele>
        <time>2021-08-06 10:50:37</time>
      </trkpt>
      <trkpt lat="37.05424" lon="-3.32067">
        <ele>3159.2</ele>
        <time>2021-08-06 10:50:38</time>
      </trkpt>
      <trkpt lat="37.05424" lon="-3.32067">
        <ele>3159.4</ele>
        <time>2021-08-06 10:50:39</time>
      </trkpt>
      <trkpt lat="37.05424" lon="-3.32067">
        <ele>3159.4</ele>
        <time>2021-08-06 10:50:40</time>
      </trkpt>
      <trkpt lat="37.05424" lon="-3.32066">
        <ele>3159.6</ele>
        <time>2021-08-06 10:50:41</time>
      </trkpt>
      <trkpt lat="37.05424" lon="-3.32066">
        <ele>3159.8</ele>
        <time>2021-08-06 10:50:42</time>
      </trkpt>
      <trkpt lat="37.05424" lon="-3.32065">
        <ele>3159.8</ele>
        <time>2021-08-06 10:50:43</time>
      </trkpt>
      <trkpt lat="37.05424" lon="-3.32064">
        <ele>3160</ele>
        <time>2021-08-06 10:50:44</time>
      </trkpt>
      <trkpt lat="37.05424" lon="-3.32064">
        <ele>3160</ele>
        <time>2021-08-06 10:50:45</time>
      </trkpt>
      <trkpt lat="37.05424" lon="-3.32064">
        <ele>3160.2</ele>
        <time>2021-08-06 10:50:46</time>
      </trkpt>
      <trkpt lat="37.05424" lon="-3.32063">
        <ele>3160.2</ele>
        <time>2021-08-06 10:50:47</time>
      </trkpt>
      <trkpt lat="37.05424" lon="-3.32063">
        <ele>3160.2</ele>
        <time>2021-08-06 10:50:48</time>
      </trkpt>
      <trkpt lat="37.05425" lon="-3.32063">
        <ele>3160.4</ele>
        <time>2021-08-06 10:50:49</time>
      </trkpt>
      <trkpt lat="37.05424" lon="-3.32062">
        <ele>3160.4</ele>
        <time>2021-08-06 10:50:50</time>
      </trkpt>
      <trkpt lat="37.05424" lon="-3.32062">
        <ele>3160.4</ele>
        <time>2021-08-06 10:50:51</time>
      </trkpt>
      <trkpt lat="37.05424" lon="-3.32062">
        <ele>3160.8</ele>
        <time>2021-08-06 10:50:52</time>
      </trkpt>
      <trkpt lat="37.05423" lon="-3.32061">
        <ele>3160.8</ele>
        <time>2021-08-06 10:50:53</time>
      </trkpt>
      <trkpt lat="37.05422" lon="-3.32061">
        <ele>3161</ele>
        <time>2021-08-06 10:50:54</time>
      </trkpt>
      <trkpt lat="37.05422" lon="-3.32061">
        <ele>3161</ele>
        <time>2021-08-06 10:50:55</time>
      </trkpt>
      <trkpt lat="37.05423" lon="-3.3206">
        <ele>3161</ele>
        <time>2021-08-06 10:50:56</time>
      </trkpt>
      <trkpt lat="37.05423" lon="-3.32059">
        <ele>3161</ele>
        <time>2021-08-06 10:50:57</time>
      </trkpt>
      <trkpt lat="37.05423" lon="-3.32059">
        <ele>3161.2</ele>
        <time>2021-08-06 10:50:58</time>
      </trkpt>
      <trkpt lat="37.05423" lon="-3.32059">
        <ele>3161.4</ele>
        <time>2021-08-06 10:50:59</time>
      </trkpt>
      <trkpt lat="37.05422" lon="-3.32059">
        <ele>3161.6</ele>
        <time>2021-08-06 10:51:00</time>
      </trkpt>
      <trkpt lat="37.05422" lon="-3.32058">
        <ele>3161.8</ele>
        <time>2021-08-06 10:51:01</time>
      </trkpt>
      <trkpt lat="37.05421" lon="-3.32058">
        <ele>3161.8</ele>
        <time>2021-08-06 10:51:02</time>
      </trkpt>
      <trkpt lat="37.0542" lon="-3.32057">
        <ele>3161.8</ele>
        <time>2021-08-06 10:51:03</time>
      </trkpt>
      <trkpt lat="37.0542" lon="-3.32057">
        <ele>3161.8</ele>
        <time>2021-08-06 10:51:04</time>
      </trkpt>
      <trkpt lat="37.05419" lon="-3.32056">
        <ele>3161.8</ele>
        <time>2021-08-06 10:51:05</time>
      </trkpt>
      <trkpt lat="37.05418" lon="-3.32056">
        <ele>3162</ele>
        <time>2021-08-06 10:51:06</time>
      </trkpt>
      <trkpt lat="37.05418" lon="-3.32055">
        <ele>3162</ele>
        <time>2021-08-06 10:51:07</time>
      </trkpt>
      <trkpt lat="37.05418" lon="-3.32055">
        <ele>3162</ele>
        <time>2021-08-06 10:51:08</time>
      </trkpt>
      <trkpt lat="37.05418" lon="-3.32054">
        <ele>3162</ele>
        <time>2021-08-06 10:51:09</time>
      </trkpt>
      <trkpt lat="37.05418" lon="-3.32053">
        <ele>3162</ele>
        <time>2021-08-06 10:51:10</time>
      </trkpt>
      <trkpt lat="37.05418" lon="-3.32053">
        <ele>3162.2</ele>
        <time>2021-08-06 10:51:11</time>
      </trkpt>
      <trkpt lat="37.05417" lon="-3.32052">
        <ele>3162.2</ele>
        <time>2021-08-06 10:51:12</time>
      </trkpt>
      <trkpt lat="37.05417" lon="-3.32051">
        <ele>3162.2</ele>
        <time>2021-08-06 10:51:13</time>
      </trkpt>
      <trkpt lat="37.05417" lon="-3.32051">
        <ele>3162.4</ele>
        <time>2021-08-06 10:51:14</time>
      </trkpt>
      <trkpt lat="37.05417" lon="-3.32051">
        <ele>3162.4</ele>
        <time>2021-08-06 10:51:15</time>
      </trkpt>
      <trkpt lat="37.05416" lon="-3.3205">
        <ele>3162.4</ele>
        <time>2021-08-06 10:51:16</time>
      </trkpt>
      <trkpt lat="37.05416" lon="-3.32049">
        <ele>3162.6</ele>
        <time>2021-08-06 10:51:17</time>
      </trkpt>
      <trkpt lat="37.05416" lon="-3.32048">
        <ele>3162.8</ele>
        <time>2021-08-06 10:51:18</time>
      </trkpt>
      <trkpt lat="37.05416" lon="-3.32047">
        <ele>3163</ele>
        <time>2021-08-06 10:51:19</time>
      </trkpt>
      <trkpt lat="37.05415" lon="-3.32046">
        <ele>3163.2</ele>
        <time>2021-08-06 10:51:20</time>
      </trkpt>
      <trkpt lat="37.05415" lon="-3.32045">
        <ele>3163.2</ele>
        <time>2021-08-06 10:51:21</time>
      </trkpt>
      <trkpt lat="37.05414" lon="-3.32045">
        <ele>3163.2</ele>
        <time>2021-08-06 10:51:22</time>
      </trkpt>
      <trkpt lat="37.05414" lon="-3.32044">
        <ele>3163.4</ele>
        <time>2021-08-06 10:51:23</time>
      </trkpt>
      <trkpt lat="37.05414" lon="-3.32043">
        <ele>3163.6</ele>
        <time>2021-08-06 10:51:24</time>
      </trkpt>
      <trkpt lat="37.05414" lon="-3.32042">
        <ele>3163.6</ele>
        <time>2021-08-06 10:51:25</time>
      </trkpt>
      <trkpt lat="37.05414" lon="-3.32041">
        <ele>3164</ele>
        <time>2021-08-06 10:51:26</time>
      </trkpt>
      <trkpt lat="37.05413" lon="-3.32041">
        <ele>3164.2</ele>
        <time>2021-08-06 10:51:27</time>
      </trkpt>
      <trkpt lat="37.05412" lon="-3.32041">
        <ele>3164.4</ele>
        <time>2021-08-06 10:51:28</time>
      </trkpt>
      <trkpt lat="37.05411" lon="-3.32041">
        <ele>3164.4</ele>
        <time>2021-08-06 10:51:29</time>
      </trkpt>
      <trkpt lat="37.05411" lon="-3.32041">
        <ele>3164.4</ele>
        <time>2021-08-06 10:51:30</time>
      </trkpt>
      <trkpt lat="37.0541" lon="-3.3204">
        <ele>3164.4</ele>
        <time>2021-08-06 10:51:31</time>
      </trkpt>
      <trkpt lat="37.0541" lon="-3.3204">
        <ele>3164.4</ele>
        <time>2021-08-06 10:51:32</time>
      </trkpt>
      <trkpt lat="37.05409" lon="-3.32039">
        <ele>3164.4</ele>
        <time>2021-08-06 10:51:33</time>
      </trkpt>
      <trkpt lat="37.05409" lon="-3.32039">
        <ele>3164.6</ele>
        <time>2021-08-06 10:51:34</time>
      </trkpt>
      <trkpt lat="37.05408" lon="-3.32039">
        <ele>3164.6</ele>
        <time>2021-08-06 10:51:35</time>
      </trkpt>
      <trkpt lat="37.05408" lon="-3.32039">
        <ele>3164.6</ele>
        <time>2021-08-06 10:51:36</time>
      </trkpt>
      <trkpt lat="37.05407" lon="-3.3204">
        <ele>3165</ele>
        <time>2021-08-06 10:51:37</time>
      </trkpt>
      <trkpt lat="37.05406" lon="-3.32041">
        <ele>3165</ele>
        <time>2021-08-06 10:51:38</time>
      </trkpt>
      <trkpt lat="37.05407" lon="-3.32041">
        <ele>3165.2</ele>
        <time>2021-08-06 10:51:39</time>
      </trkpt>
      <trkpt lat="37.05407" lon="-3.32041">
        <ele>3165.2</ele>
        <time>2021-08-06 10:51:40</time>
      </trkpt>
      <trkpt lat="37.05407" lon="-3.3204">
        <ele>3165.2</ele>
        <time>2021-08-06 10:51:41</time>
      </trkpt>
      <trkpt lat="37.05407" lon="-3.32039">
        <ele>3165</ele>
        <time>2021-08-06 10:51:42</time>
      </trkpt>
      <trkpt lat="37.05406" lon="-3.32038">
        <ele>3165</ele>
        <time>2021-08-06 10:51:43</time>
      </trkpt>
      <trkpt lat="37.05406" lon="-3.32037">
        <ele>3165</ele>
        <time>2021-08-06 10:51:44</time>
      </trkpt>
      <trkpt lat="37.05406" lon="-3.32036">
        <ele>3165.2</ele>
        <time>2021-08-06 10:51:45</time>
      </trkpt>
      <trkpt lat="37.05406" lon="-3.32035">
        <ele>3165.4</ele>
        <time>2021-08-06 10:51:46</time>
      </trkpt>
      <trkpt lat="37.05406" lon="-3.32034">
        <ele>3165.6</ele>
        <time>2021-08-06 10:51:47</time>
      </trkpt>
      <trkpt lat="37.05406" lon="-3.32033">
        <ele>3165.8</ele>
        <time>2021-08-06 10:51:48</time>
      </trkpt>
      <trkpt lat="37.05405" lon="-3.32032">
        <ele>3166</ele>
        <time>2021-08-06 10:51:49</time>
      </trkpt>
      <trkpt lat="37.05405" lon="-3.32032">
        <ele>3166</ele>
        <time>2021-08-06 10:51:50</time>
      </trkpt>
      <trkpt lat="37.05405" lon="-3.32031">
        <ele>3166.2</ele>
        <time>2021-08-06 10:51:51</time>
      </trkpt>
      <trkpt lat="37.05405" lon="-3.3203">
        <ele>3166.2</ele>
        <time>2021-08-06 10:51:52</time>
      </trkpt>
      <trkpt lat="37.05404" lon="-3.3203">
        <ele>3166.2</ele>
        <time>2021-08-06 10:51:53</time>
      </trkpt>
      <trkpt lat="37.05404" lon="-3.32029">
        <ele>3166.4</ele>
        <time>2021-08-06 10:51:54</time>
      </trkpt>
      <trkpt lat="37.05403" lon="-3.32028">
        <ele>3166.6</ele>
        <time>2021-08-06 10:51:55</time>
      </trkpt>
      <trkpt lat="37.05402" lon="-3.32028">
        <ele>3166.8</ele>
        <time>2021-08-06 10:51:56</time>
      </trkpt>
      <trkpt lat="37.05401" lon="-3.32028">
        <ele>3167</ele>
        <time>2021-08-06 10:51:57</time>
      </trkpt>
      <trkpt lat="37.054" lon="-3.32027">
        <ele>3167.2</ele>
        <time>2021-08-06 10:51:58</time>
      </trkpt>
      <trkpt lat="37.054" lon="-3.32027">
        <ele>3167.2</ele>
        <time>2021-08-06 10:51:59</time>
      </trkpt>
      <trkpt lat="37.05399" lon="-3.32026">
        <ele>3167.2</ele>
        <time>2021-08-06 10:52:00</time>
      </trkpt>
      <trkpt lat="37.05399" lon="-3.32026">
        <ele>3167.4</ele>
        <time>2021-08-06 10:52:01</time>
      </trkpt>
      <trkpt lat="37.05399" lon="-3.32026">
        <ele>3167.8</ele>
        <time>2021-08-06 10:52:02</time>
      </trkpt>
      <trkpt lat="37.05399" lon="-3.32026">
        <ele>3168</ele>
        <time>2021-08-06 10:52:03</time>
      </trkpt>
      <trkpt lat="37.05399" lon="-3.32025">
        <ele>3168.2</ele>
        <time>2021-08-06 10:52:04</time>
      </trkpt>
      <trkpt lat="37.05399" lon="-3.32025">
        <ele>3168.2</ele>
        <time>2021-08-06 10:52:05</time>
      </trkpt>
      <trkpt lat="37.05399" lon="-3.32024">
        <ele>3168.2</ele>
        <time>2021-08-06 10:52:06</time>
      </trkpt>
      <trkpt lat="37.05399" lon="-3.32024">
        <ele>3168.2</ele>
        <time>2021-08-06 10:52:07</time>
      </trkpt>
      <trkpt lat="37.05399" lon="-3.32024">
        <ele>3168.2</ele>
        <time>2021-08-06 10:52:08</time>
      </trkpt>
      <trkpt lat="37.05399" lon="-3.32024">
        <ele>3168.2</ele>
        <time>2021-08-06 10:52:09</time>
      </trkpt>
      <trkpt lat="37.05399" lon="-3.32024">
        <ele>3168.4</ele>
        <time>2021-08-06 10:52:10</time>
      </trkpt>
      <trkpt lat="37.05399" lon="-3.32023">
        <ele>3168.4</ele>
        <time>2021-08-06 10:52:11</time>
      </trkpt>
      <trkpt lat="37.05399" lon="-3.32022">
        <ele>3168.6</ele>
        <time>2021-08-06 10:52:12</time>
      </trkpt>
      <trkpt lat="37.05399" lon="-3.32022">
        <ele>3168.6</ele>
        <time>2021-08-06 10:52:13</time>
      </trkpt>
      <trkpt lat="37.05398" lon="-3.32021">
        <ele>3168.8</ele>
        <time>2021-08-06 10:52:14</time>
      </trkpt>
      <trkpt lat="37.05398" lon="-3.32021">
        <ele>3169</ele>
        <time>2021-08-06 10:52:15</time>
      </trkpt>
      <trkpt lat="37.05398" lon="-3.32021">
        <ele>3169.2</ele>
        <time>2021-08-06 10:52:16</time>
      </trkpt>
      <trkpt lat="37.05398" lon="-3.3202">
        <ele>3169.4</ele>
        <time>2021-08-06 10:52:17</time>
      </trkpt>
      <trkpt lat="37.05398" lon="-3.3202">
        <ele>3169.4</ele>
        <time>2021-08-06 10:52:18</time>
      </trkpt>
      <trkpt lat="37.05397" lon="-3.3202">
        <ele>3169.4</ele>
        <time>2021-08-06 10:52:19</time>
      </trkpt>
      <trkpt lat="37.05398" lon="-3.32019">
        <ele>3169.4</ele>
        <time>2021-08-06 10:52:20</time>
      </trkpt>
      <trkpt lat="37.05398" lon="-3.32018">
        <ele>3169.6</ele>
        <time>2021-08-06 10:52:21</time>
      </trkpt>
      <trkpt lat="37.05398" lon="-3.32018">
        <ele>3169.6</ele>
        <time>2021-08-06 10:52:22</time>
      </trkpt>
      <trkpt lat="37.05398" lon="-3.32017">
        <ele>3169.8</ele>
        <time>2021-08-06 10:52:23</time>
      </trkpt>
      <trkpt lat="37.05398" lon="-3.32016">
        <ele>3170</ele>
        <time>2021-08-06 10:52:24</time>
      </trkpt>
      <trkpt lat="37.05398" lon="-3.32016">
        <ele>3170</ele>
        <time>2021-08-06 10:52:25</time>
      </trkpt>
      <trkpt lat="37.05398" lon="-3.32015">
        <ele>3170.2</ele>
        <time>2021-08-06 10:52:26</time>
      </trkpt>
      <trkpt lat="37.05397" lon="-3.32015">
        <ele>3170.2</ele>
        <time>2021-08-06 10:52:27</time>
      </trkpt>
      <trkpt lat="37.05397" lon="-3.32014">
        <ele>3170.2</ele>
        <time>2021-08-06 10:52:28</time>
      </trkpt>
      <trkpt lat="37.05397" lon="-3.32014">
        <ele>3170.4</ele>
        <time>2021-08-06 10:52:29</time>
      </trkpt>
      <trkpt lat="37.05396" lon="-3.32013">
        <ele>3170.6</ele>
        <time>2021-08-06 10:52:30</time>
      </trkpt>
      <trkpt lat="37.05396" lon="-3.32013">
        <ele>3170.6</ele>
        <time>2021-08-06 10:52:31</time>
      </trkpt>
      <trkpt lat="37.05396" lon="-3.32013">
        <ele>3170.6</ele>
        <time>2021-08-06 10:52:32</time>
      </trkpt>
      <trkpt lat="37.05396" lon="-3.32012">
        <ele>3170.8</ele>
        <time>2021-08-06 10:52:33</time>
      </trkpt>
      <trkpt lat="37.05395" lon="-3.32012">
        <ele>3170.8</ele>
        <time>2021-08-06 10:52:34</time>
      </trkpt>
      <trkpt lat="37.05395" lon="-3.32012">
        <ele>3170.8</ele>
        <time>2021-08-06 10:52:35</time>
      </trkpt>
      <trkpt lat="37.05395" lon="-3.32012">
        <ele>3170.8</ele>
        <time>2021-08-06 10:52:36</time>
      </trkpt>
      <trkpt lat="37.05394" lon="-3.32011">
        <ele>3171</ele>
        <time>2021-08-06 10:52:37</time>
      </trkpt>
      <trkpt lat="37.05394" lon="-3.32011">
        <ele>3171.2</ele>
        <time>2021-08-06 10:52:38</time>
      </trkpt>
      <trkpt lat="37.05394" lon="-3.3201">
        <ele>3171.4</ele>
        <time>2021-08-06 10:52:39</time>
      </trkpt>
      <trkpt lat="37.05393" lon="-3.3201">
        <ele>3171.4</ele>
        <time>2021-08-06 10:52:40</time>
      </trkpt>
      <trkpt lat="37.05393" lon="-3.32009">
        <ele>3171.6</ele>
        <time>2021-08-06 10:52:41</time>
      </trkpt>
      <trkpt lat="37.05392" lon="-3.32008">
        <ele>3171.8</ele>
        <time>2021-08-06 10:52:42</time>
      </trkpt>
      <trkpt lat="37.05393" lon="-3.32008">
        <ele>3171.8</ele>
        <time>2021-08-06 10:52:43</time>
      </trkpt>
      <trkpt lat="37.05393" lon="-3.32007">
        <ele>3172</ele>
        <time>2021-08-06 10:52:44</time>
      </trkpt>
      <trkpt lat="37.05393" lon="-3.32007">
        <ele>3172</ele>
        <time>2021-08-06 10:52:45</time>
      </trkpt>
      <trkpt lat="37.05393" lon="-3.32006">
        <ele>3172</ele>
        <time>2021-08-06 10:52:46</time>
      </trkpt>
      <trkpt lat="37.05392" lon="-3.32006">
        <ele>3172</ele>
        <time>2021-08-06 10:52:47</time>
      </trkpt>
      <trkpt lat="37.05392" lon="-3.32006">
        <ele>3171.8</ele>
        <time>2021-08-06 10:52:48</time>
      </trkpt>
      <trkpt lat="37.05393" lon="-3.32006">
        <ele>3172</ele>
        <time>2021-08-06 10:52:49</time>
      </trkpt>
      <trkpt lat="37.05393" lon="-3.32007">
        <ele>3172</ele>
        <time>2021-08-06 10:52:50</time>
      </trkpt>
      <trkpt lat="37.05393" lon="-3.32006">
        <ele>3172.2</ele>
        <time>2021-08-06 10:52:51</time>
      </trkpt>
      <trkpt lat="37.05393" lon="-3.32006">
        <ele>3172.4</ele>
        <time>2021-08-06 10:52:52</time>
      </trkpt>
      <trkpt lat="37.05393" lon="-3.32006">
        <ele>3172.6</ele>
        <time>2021-08-06 10:52:53</time>
      </trkpt>
      <trkpt lat="37.05393" lon="-3.32005">
        <ele>3173</ele>
        <time>2021-08-06 10:52:54</time>
      </trkpt>
      <trkpt lat="37.05393" lon="-3.32005">
        <ele>3173.2</ele>
        <time>2021-08-06 10:52:55</time>
      </trkpt>
      <trkpt lat="37.05393" lon="-3.32004">
        <ele>3173.2</ele>
        <time>2021-08-06 10:52:56</time>
      </trkpt>
      <trkpt lat="37.05394" lon="-3.32003">
        <ele>3173.4</ele>
        <time>2021-08-06 10:52:57</time>
      </trkpt>
      <trkpt lat="37.05394" lon="-3.32003">
        <ele>3173.4</ele>
        <time>2021-08-06 10:52:58</time>
      </trkpt>
      <trkpt lat="37.05394" lon="-3.32002">
        <ele>3173.4</ele>
        <time>2021-08-06 10:52:59</time>
      </trkpt>
      <trkpt lat="37.05394" lon="-3.32002">
        <ele>3173.4</ele>
        <time>2021-08-06 10:53:00</time>
      </trkpt>
      <trkpt lat="37.05393" lon="-3.32001">
        <ele>3173.6</ele>
        <time>2021-08-06 10:53:01</time>
      </trkpt>
      <trkpt lat="37.05392" lon="-3.32001">
        <ele>3173.6</ele>
        <time>2021-08-06 10:53:02</time>
      </trkpt>
      <trkpt lat="37.05392" lon="-3.32">
        <ele>3173.6</ele>
        <time>2021-08-06 10:53:03</time>
      </trkpt>
      <trkpt lat="37.05392" lon="-3.31999">
        <ele>3173.8</ele>
        <time>2021-08-06 10:53:04</time>
      </trkpt>
      <trkpt lat="37.05393" lon="-3.31999">
        <ele>3173.8</ele>
        <time>2021-08-06 10:53:05</time>
      </trkpt>
      <trkpt lat="37.05393" lon="-3.31997">
        <ele>3174</ele>
        <time>2021-08-06 10:53:06</time>
      </trkpt>
      <trkpt lat="37.05393" lon="-3.31996">
        <ele>3174.2</ele>
        <time>2021-08-06 10:53:07</time>
      </trkpt>
      <trkpt lat="37.05393" lon="-3.31996">
        <ele>3174.6</ele>
        <time>2021-08-06 10:53:08</time>
      </trkpt>
      <trkpt lat="37.05393" lon="-3.31996">
        <ele>3174.8</ele>
        <time>2021-08-06 10:53:09</time>
      </trkpt>
      <trkpt lat="37.05393" lon="-3.31995">
        <ele>3175</ele>
        <time>2021-08-06 10:53:10</time>
      </trkpt>
      <trkpt lat="37.05392" lon="-3.31995">
        <ele>3175.2</ele>
        <time>2021-08-06 10:53:11</time>
      </trkpt>
      <trkpt lat="37.05392" lon="-3.31994">
        <ele>3175.4</ele>
        <time>2021-08-06 10:53:12</time>
      </trkpt>
      <trkpt lat="37.05392" lon="-3.31994">
        <ele>3175.6</ele>
        <time>2021-08-06 10:53:13</time>
      </trkpt>
      <trkpt lat="37.05391" lon="-3.31994">
        <ele>3175.8</ele>
        <time>2021-08-06 10:53:14</time>
      </trkpt>
      <trkpt lat="37.05391" lon="-3.31993">
        <ele>3175.8</ele>
        <time>2021-08-06 10:53:15</time>
      </trkpt>
      <trkpt lat="37.05391" lon="-3.31993">
        <ele>3176</ele>
        <time>2021-08-06 10:53:16</time>
      </trkpt>
      <trkpt lat="37.0539" lon="-3.31992">
        <ele>3176</ele>
        <time>2021-08-06 10:53:17</time>
      </trkpt>
      <trkpt lat="37.0539" lon="-3.31992">
        <ele>3176.2</ele>
        <time>2021-08-06 10:53:18</time>
      </trkpt>
      <trkpt lat="37.0539" lon="-3.31991">
        <ele>3176.2</ele>
        <time>2021-08-06 10:53:19</time>
      </trkpt>
      <trkpt lat="37.0539" lon="-3.31991">
        <ele>3176.6</ele>
        <time>2021-08-06 10:53:20</time>
      </trkpt>
      <trkpt lat="37.0539" lon="-3.31991">
        <ele>3176.8</ele>
        <time>2021-08-06 10:53:21</time>
      </trkpt>
      <trkpt lat="37.0539" lon="-3.3199">
        <ele>3176.8</ele>
        <time>2021-08-06 10:53:22</time>
      </trkpt>
      <trkpt lat="37.05391" lon="-3.3199">
        <ele>3177</ele>
        <time>2021-08-06 10:53:23</time>
      </trkpt>
      <trkpt lat="37.05391" lon="-3.31989">
        <ele>3177</ele>
        <time>2021-08-06 10:53:24</time>
      </trkpt>
      <trkpt lat="37.0539" lon="-3.31988">
        <ele>3177</ele>
        <time>2021-08-06 10:53:25</time>
      </trkpt>
      <trkpt lat="37.0539" lon="-3.31988">
        <ele>3177.2</ele>
        <time>2021-08-06 10:53:26</time>
      </trkpt>
      <trkpt lat="37.0539" lon="-3.31988">
        <ele>3177.2</ele>
        <time>2021-08-06 10:53:27</time>
      </trkpt>
      <trkpt lat="37.05389" lon="-3.31988">
        <ele>3177.4</ele>
        <time>2021-08-06 10:53:28</time>
      </trkpt>
      <trkpt lat="37.05389" lon="-3.31987">
        <ele>3177.4</ele>
        <time>2021-08-06 10:53:29</time>
      </trkpt>
      <trkpt lat="37.05389" lon="-3.31986">
        <ele>3177.6</ele>
        <time>2021-08-06 10:53:30</time>
      </trkpt>
      <trkpt lat="37.05389" lon="-3.31986">
        <ele>3177.8</ele>
        <time>2021-08-06 10:53:31</time>
      </trkpt>
      <trkpt lat="37.05388" lon="-3.31985">
        <ele>3177.8</ele>
        <time>2021-08-06 10:53:32</time>
      </trkpt>
      <trkpt lat="37.05388" lon="-3.31984">
        <ele>3177.8</ele>
        <time>2021-08-06 10:53:33</time>
      </trkpt>
      <trkpt lat="37.05388" lon="-3.31983">
        <ele>3178</ele>
        <time>2021-08-06 10:53:34</time>
      </trkpt>
      <trkpt lat="37.05388" lon="-3.31983">
        <ele>3178.2</ele>
        <time>2021-08-06 10:53:35</time>
      </trkpt>
      <trkpt lat="37.05388" lon="-3.31982">
        <ele>3178.2</ele>
        <time>2021-08-06 10:53:36</time>
      </trkpt>
      <trkpt lat="37.05388" lon="-3.31982">
        <ele>3178.4</ele>
        <time>2021-08-06 10:53:37</time>
      </trkpt>
      <trkpt lat="37.05388" lon="-3.31982">
        <ele>3178.4</ele>
        <time>2021-08-06 10:53:38</time>
      </trkpt>
      <trkpt lat="37.05387" lon="-3.31981">
        <ele>3178.6</ele>
        <time>2021-08-06 10:53:39</time>
      </trkpt>
      <trkpt lat="37.05387" lon="-3.31981">
        <ele>3178.8</ele>
        <time>2021-08-06 10:53:40</time>
      </trkpt>
      <trkpt lat="37.05387" lon="-3.3198">
        <ele>3179</ele>
        <time>2021-08-06 10:53:41</time>
      </trkpt>
      <trkpt lat="37.05387" lon="-3.3198">
        <ele>3179</ele>
        <time>2021-08-06 10:53:42</time>
      </trkpt>
      <trkpt lat="37.05387" lon="-3.31979">
        <ele>3179.2</ele>
        <time>2021-08-06 10:53:43</time>
      </trkpt>
      <trkpt lat="37.05386" lon="-3.31979">
        <ele>3179.2</ele>
        <time>2021-08-06 10:53:44</time>
      </trkpt>
      <trkpt lat="37.05386" lon="-3.31979">
        <ele>3179.2</ele>
        <time>2021-08-06 10:53:45</time>
      </trkpt>
      <trkpt lat="37.05387" lon="-3.31978">
        <ele>3179.4</ele>
        <time>2021-08-06 10:53:46</time>
      </trkpt>
      <trkpt lat="37.05386" lon="-3.31978">
        <ele>3179.4</ele>
        <time>2021-08-06 10:53:47</time>
      </trkpt>
      <trkpt lat="37.05386" lon="-3.31978">
        <ele>3179.4</ele>
        <time>2021-08-06 10:53:48</time>
      </trkpt>
      <trkpt lat="37.05386" lon="-3.31977">
        <ele>3179.6</ele>
        <time>2021-08-06 10:53:49</time>
      </trkpt>
      <trkpt lat="37.05386" lon="-3.31976">
        <ele>3179.8</ele>
        <time>2021-08-06 10:53:50</time>
      </trkpt>
      <trkpt lat="37.05386" lon="-3.31975">
        <ele>3179.8</ele>
        <time>2021-08-06 10:53:51</time>
      </trkpt>
      <trkpt lat="37.05386" lon="-3.31975">
        <ele>3180</ele>
        <time>2021-08-06 10:53:52</time>
      </trkpt>
      <trkpt lat="37.05386" lon="-3.31975">
        <ele>3180</ele>
        <time>2021-08-06 10:53:53</time>
      </trkpt>
      <trkpt lat="37.05385" lon="-3.31974">
        <ele>3180.2</ele>
        <time>2021-08-06 10:53:54</time>
      </trkpt>
      <trkpt lat="37.05386" lon="-3.31974">
        <ele>3180.4</ele>
        <time>2021-08-06 10:53:55</time>
      </trkpt>
      <trkpt lat="37.05387" lon="-3.31973">
        <ele>3180.6</ele>
        <time>2021-08-06 10:53:56</time>
      </trkpt>
      <trkpt lat="37.05386" lon="-3.31973">
        <ele>3180.8</ele>
        <time>2021-08-06 10:53:57</time>
      </trkpt>
      <trkpt lat="37.05386" lon="-3.31972">
        <ele>3181</ele>
        <time>2021-08-06 10:53:58</time>
      </trkpt>
      <trkpt lat="37.05385" lon="-3.31971">
        <ele>3181</ele>
        <time>2021-08-06 10:53:59</time>
      </trkpt>
      <trkpt lat="37.05384" lon="-3.31971">
        <ele>3181.2</ele>
        <time>2021-08-06 10:54:00</time>
      </trkpt>
      <trkpt lat="37.05384" lon="-3.3197">
        <ele>3181.2</ele>
        <time>2021-08-06 10:54:01</time>
      </trkpt>
      <trkpt lat="37.05384" lon="-3.3197">
        <ele>3181.2</ele>
        <time>2021-08-06 10:54:02</time>
      </trkpt>
      <trkpt lat="37.05384" lon="-3.31969">
        <ele>3181.4</ele>
        <time>2021-08-06 10:54:03</time>
      </trkpt>
      <trkpt lat="37.05384" lon="-3.31968">
        <ele>3181.4</ele>
        <time>2021-08-06 10:54:04</time>
      </trkpt>
      <trkpt lat="37.05383" lon="-3.31968">
        <ele>3181.6</ele>
        <time>2021-08-06 10:54:05</time>
      </trkpt>
      <trkpt lat="37.05383" lon="-3.31968">
        <ele>3181.8</ele>
        <time>2021-08-06 10:54:06</time>
      </trkpt>
      <trkpt lat="37.05383" lon="-3.31967">
        <ele>3182</ele>
        <time>2021-08-06 10:54:07</time>
      </trkpt>
      <trkpt lat="37.05382" lon="-3.31966">
        <ele>3182</ele>
        <time>2021-08-06 10:54:08</time>
      </trkpt>
      <trkpt lat="37.05382" lon="-3.31966">
        <ele>3182.2</ele>
        <time>2021-08-06 10:54:09</time>
      </trkpt>
      <trkpt lat="37.05382" lon="-3.31966">
        <ele>3182.4</ele>
        <time>2021-08-06 10:54:10</time>
      </trkpt>
      <trkpt lat="37.05382" lon="-3.31966">
        <ele>3182.4</ele>
        <time>2021-08-06 10:54:11</time>
      </trkpt>
      <trkpt lat="37.05382" lon="-3.31965">
        <ele>3182.6</ele>
        <time>2021-08-06 10:54:12</time>
      </trkpt>
      <trkpt lat="37.05382" lon="-3.31965">
        <ele>3182.8</ele>
        <time>2021-08-06 10:54:13</time>
      </trkpt>
      <trkpt lat="37.05385" lon="-3.31964">
        <ele>3183</ele>
        <time>2021-08-06 10:54:14</time>
      </trkpt>
      <trkpt lat="37.05385" lon="-3.31963">
        <ele>3183</ele>
        <time>2021-08-06 10:54:15</time>
      </trkpt>
      <trkpt lat="37.05385" lon="-3.31964">
        <ele>3183.4</ele>
        <time>2021-08-06 10:54:16</time>
      </trkpt>
      <trkpt lat="37.05385" lon="-3.31963">
        <ele>3183.6</ele>
        <time>2021-08-06 10:54:17</time>
      </trkpt>
      <trkpt lat="37.05386" lon="-3.31963">
        <ele>3183.6</ele>
        <time>2021-08-06 10:54:18</time>
      </trkpt>
      <trkpt lat="37.05386" lon="-3.31962">
        <ele>3183.6</ele>
        <time>2021-08-06 10:54:19</time>
      </trkpt>
      <trkpt lat="37.05386" lon="-3.31962">
        <ele>3183.8</ele>
        <time>2021-08-06 10:54:20</time>
      </trkpt>
      <trkpt lat="37.05385" lon="-3.31961">
        <ele>3183.8</ele>
        <time>2021-08-06 10:54:21</time>
      </trkpt>
      <trkpt lat="37.05386" lon="-3.3196">
        <ele>3184</ele>
        <time>2021-08-06 10:54:22</time>
      </trkpt>
      <trkpt lat="37.05385" lon="-3.3196">
        <ele>3184.2</ele>
        <time>2021-08-06 10:54:23</time>
      </trkpt>
      <trkpt lat="37.05385" lon="-3.3196">
        <ele>3184.2</ele>
        <time>2021-08-06 10:54:24</time>
      </trkpt>
      <trkpt lat="37.05385" lon="-3.31959">
        <ele>3184.2</ele>
        <time>2021-08-06 10:54:25</time>
      </trkpt>
      <trkpt lat="37.05385" lon="-3.31958">
        <ele>3184.2</ele>
        <time>2021-08-06 10:54:26</time>
      </trkpt>
      <trkpt lat="37.05385" lon="-3.31958">
        <ele>3184.2</ele>
        <time>2021-08-06 10:54:27</time>
      </trkpt>
      <trkpt lat="37.05385" lon="-3.31958">
        <ele>3184.2</ele>
        <time>2021-08-06 10:54:28</time>
      </trkpt>
      <trkpt lat="37.05383" lon="-3.31959">
        <ele>3184.4</ele>
        <time>2021-08-06 10:54:29</time>
      </trkpt>
      <trkpt lat="37.05383" lon="-3.3196">
        <ele>3184.4</ele>
        <time>2021-08-06 10:54:30</time>
      </trkpt>
      <trkpt lat="37.05383" lon="-3.3196">
        <ele>3184.4</ele>
        <time>2021-08-06 10:54:31</time>
      </trkpt>
      <trkpt lat="37.05383" lon="-3.3196">
        <ele>3184.6</ele>
        <time>2021-08-06 10:54:32</time>
      </trkpt>
      <trkpt lat="37.05384" lon="-3.31959">
        <ele>3184.6</ele>
        <time>2021-08-06 10:54:33</time>
      </trkpt>
      <trkpt lat="37.05384" lon="-3.31959">
        <ele>3184.6</ele>
        <time>2021-08-06 10:54:34</time>
      </trkpt>
      <trkpt lat="37.05385" lon="-3.31958">
        <ele>3184.6</ele>
        <time>2021-08-06 10:54:35</time>
      </trkpt>
      <trkpt lat="37.05385" lon="-3.31957">
        <ele>3184.6</ele>
        <time>2021-08-06 10:54:36</time>
      </trkpt>
      <trkpt lat="37.05384" lon="-3.31957">
        <ele>3184.8</ele>
        <time>2021-08-06 10:54:37</time>
      </trkpt>
      <trkpt lat="37.05384" lon="-3.31956">
        <ele>3184.8</ele>
        <time>2021-08-06 10:54:38</time>
      </trkpt>
      <trkpt lat="37.05384" lon="-3.31956">
        <ele>3185</ele>
        <time>2021-08-06 10:54:39</time>
      </trkpt>
      <trkpt lat="37.05384" lon="-3.31955">
        <ele>3185</ele>
        <time>2021-08-06 10:54:40</time>
      </trkpt>
      <trkpt lat="37.05384" lon="-3.31954">
        <ele>3185.2</ele>
        <time>2021-08-06 10:54:41</time>
      </trkpt>
      <trkpt lat="37.05384" lon="-3.31954">
        <ele>3185.2</ele>
        <time>2021-08-06 10:54:42</time>
      </trkpt>
      <trkpt lat="37.05384" lon="-3.31953">
        <ele>3185.4</ele>
        <time>2021-08-06 10:54:43</time>
      </trkpt>
      <trkpt lat="37.05384" lon="-3.31952">
        <ele>3185.6</ele>
        <time>2021-08-06 10:54:44</time>
      </trkpt>
      <trkpt lat="37.05384" lon="-3.31951">
        <ele>3185.6</ele>
        <time>2021-08-06 10:54:45</time>
      </trkpt>
      <trkpt lat="37.05384" lon="-3.31951">
        <ele>3186.2</ele>
        <time>2021-08-06 10:54:46</time>
      </trkpt>
      <trkpt lat="37.05384" lon="-3.3195">
        <ele>3186.4</ele>
        <time>2021-08-06 10:54:47</time>
      </trkpt>
      <trkpt lat="37.05384" lon="-3.3195">
        <ele>3186.6</ele>
        <time>2021-08-06 10:54:48</time>
      </trkpt>
      <trkpt lat="37.05384" lon="-3.31949">
        <ele>3186.6</ele>
        <time>2021-08-06 10:54:49</time>
      </trkpt>
      <trkpt lat="37.05384" lon="-3.31948">
        <ele>3186.8</ele>
        <time>2021-08-06 10:54:50</time>
      </trkpt>
      <trkpt lat="37.05384" lon="-3.31947">
        <ele>3186.6</ele>
        <time>2021-08-06 10:54:51</time>
      </trkpt>
      <trkpt lat="37.05384" lon="-3.31946">
        <ele>3186.6</ele>
        <time>2021-08-06 10:54:52</time>
      </trkpt>
      <trkpt lat="37.05384" lon="-3.31945">
        <ele>3186.6</ele>
        <time>2021-08-06 10:54:53</time>
      </trkpt>
      <trkpt lat="37.05383" lon="-3.31945">
        <ele>3187</ele>
        <time>2021-08-06 10:54:54</time>
      </trkpt>
      <trkpt lat="37.05383" lon="-3.31944">
        <ele>3187</ele>
        <time>2021-08-06 10:54:55</time>
      </trkpt>
      <trkpt lat="37.05384" lon="-3.31943">
        <ele>3187.2</ele>
        <time>2021-08-06 10:54:56</time>
      </trkpt>
      <trkpt lat="37.05384" lon="-3.31943">
        <ele>3187.8</ele>
        <time>2021-08-06 10:54:57</time>
      </trkpt>
      <trkpt lat="37.05382" lon="-3.31943">
        <ele>3188</ele>
        <time>2021-08-06 10:54:58</time>
      </trkpt>
      <trkpt lat="37.05382" lon="-3.31942">
        <ele>3188.2</ele>
        <time>2021-08-06 10:54:59</time>
      </trkpt>
      <trkpt lat="37.05381" lon="-3.31942">
        <ele>3188.6</ele>
        <time>2021-08-06 10:55:00</time>
      </trkpt>
      <trkpt lat="37.05381" lon="-3.31942">
        <ele>3188.8</ele>
        <time>2021-08-06 10:55:01</time>
      </trkpt>
      <trkpt lat="37.05381" lon="-3.31941">
        <ele>3188.8</ele>
        <time>2021-08-06 10:55:02</time>
      </trkpt>
      <trkpt lat="37.05381" lon="-3.31941">
        <ele>3189</ele>
        <time>2021-08-06 10:55:03</time>
      </trkpt>
      <trkpt lat="37.0538" lon="-3.3194">
        <ele>3189.2</ele>
        <time>2021-08-06 10:55:04</time>
      </trkpt>
      <trkpt lat="37.0538" lon="-3.31939">
        <ele>3189.2</ele>
        <time>2021-08-06 10:55:05</time>
      </trkpt>
      <trkpt lat="37.0538" lon="-3.31938">
        <ele>3189.2</ele>
        <time>2021-08-06 10:55:06</time>
      </trkpt>
      <trkpt lat="37.0538" lon="-3.31938">
        <ele>3189.4</ele>
        <time>2021-08-06 10:55:07</time>
      </trkpt>
      <trkpt lat="37.0538" lon="-3.31937">
        <ele>3189.6</ele>
        <time>2021-08-06 10:55:08</time>
      </trkpt>
      <trkpt lat="37.0538" lon="-3.31937">
        <ele>3190</ele>
        <time>2021-08-06 10:55:09</time>
      </trkpt>
      <trkpt lat="37.05379" lon="-3.31936">
        <ele>3190.2</ele>
        <time>2021-08-06 10:55:10</time>
      </trkpt>
      <trkpt lat="37.05378" lon="-3.31935">
        <ele>3190.2</ele>
        <time>2021-08-06 10:55:11</time>
      </trkpt>
      <trkpt lat="37.05378" lon="-3.31935">
        <ele>3190.4</ele>
        <time>2021-08-06 10:55:12</time>
      </trkpt>
      <trkpt lat="37.05377" lon="-3.31934">
        <ele>3190.4</ele>
        <time>2021-08-06 10:55:13</time>
      </trkpt>
      <trkpt lat="37.05376" lon="-3.31933">
        <ele>3190.8</ele>
        <time>2021-08-06 10:55:14</time>
      </trkpt>
      <trkpt lat="37.05376" lon="-3.31932">
        <ele>3191</ele>
        <time>2021-08-06 10:55:15</time>
      </trkpt>
      <trkpt lat="37.05376" lon="-3.31932">
        <ele>3191.2</ele>
        <time>2021-08-06 10:55:16</time>
      </trkpt>
      <trkpt lat="37.05375" lon="-3.31931">
        <ele>3191.2</ele>
        <time>2021-08-06 10:55:17</time>
      </trkpt>
      <trkpt lat="37.05375" lon="-3.31931">
        <ele>3191.4</ele>
        <time>2021-08-06 10:55:18</time>
      </trkpt>
      <trkpt lat="37.05375" lon="-3.3193">
        <ele>3191.4</ele>
        <time>2021-08-06 10:55:19</time>
      </trkpt>
      <trkpt lat="37.05374" lon="-3.31929">
        <ele>3191.4</ele>
        <time>2021-08-06 10:55:20</time>
      </trkpt>
      <trkpt lat="37.05374" lon="-3.31928">
        <ele>3191.4</ele>
        <time>2021-08-06 10:55:21</time>
      </trkpt>
      <trkpt lat="37.05373" lon="-3.31928">
        <ele>3191.4</ele>
        <time>2021-08-06 10:55:22</time>
      </trkpt>
      <trkpt lat="37.05373" lon="-3.31927">
        <ele>3191.4</ele>
        <time>2021-08-06 10:55:23</time>
      </trkpt>
      <trkpt lat="37.05373" lon="-3.31927">
        <ele>3191.4</ele>
        <time>2021-08-06 10:55:24</time>
      </trkpt>
      <trkpt lat="37.05373" lon="-3.31926">
        <ele>3191.6</ele>
        <time>2021-08-06 10:55:25</time>
      </trkpt>
      <trkpt lat="37.05372" lon="-3.31926">
        <ele>3191.8</ele>
        <time>2021-08-06 10:55:26</time>
      </trkpt>
      <trkpt lat="37.05372" lon="-3.31925">
        <ele>3192</ele>
        <time>2021-08-06 10:55:27</time>
      </trkpt>
      <trkpt lat="37.05371" lon="-3.31925">
        <ele>3192</ele>
        <time>2021-08-06 10:55:28</time>
      </trkpt>
      <trkpt lat="37.05371" lon="-3.31925">
        <ele>3192.2</ele>
        <time>2021-08-06 10:55:29</time>
      </trkpt>
      <trkpt lat="37.05371" lon="-3.31924">
        <ele>3192.2</ele>
        <time>2021-08-06 10:55:30</time>
      </trkpt>
      <trkpt lat="37.05371" lon="-3.31924">
        <ele>3192.2</ele>
        <time>2021-08-06 10:55:31</time>
      </trkpt>
      <trkpt lat="37.0537" lon="-3.31924">
        <ele>3192.4</ele>
        <time>2021-08-06 10:55:32</time>
      </trkpt>
      <trkpt lat="37.0537" lon="-3.31923">
        <ele>3192.6</ele>
        <time>2021-08-06 10:55:33</time>
      </trkpt>
      <trkpt lat="37.05369" lon="-3.31923">
        <ele>3192.8</ele>
        <time>2021-08-06 10:55:34</time>
      </trkpt>
      <trkpt lat="37.05369" lon="-3.31922">
        <ele>3192.8</ele>
        <time>2021-08-06 10:55:35</time>
      </trkpt>
      <trkpt lat="37.05368" lon="-3.31922">
        <ele>3192.8</ele>
        <time>2021-08-06 10:55:36</time>
      </trkpt>
      <trkpt lat="37.05367" lon="-3.31921">
        <ele>3193</ele>
        <time>2021-08-06 10:55:37</time>
      </trkpt>
      <trkpt lat="37.05366" lon="-3.31921">
        <ele>3193</ele>
        <time>2021-08-06 10:55:38</time>
      </trkpt>
      <trkpt lat="37.05365" lon="-3.3192">
        <ele>3193</ele>
        <time>2021-08-06 10:55:39</time>
      </trkpt>
      <trkpt lat="37.05364" lon="-3.31919">
        <ele>3193.2</ele>
        <time>2021-08-06 10:55:40</time>
      </trkpt>
      <trkpt lat="37.05364" lon="-3.31918">
        <ele>3193.2</ele>
        <time>2021-08-06 10:55:41</time>
      </trkpt>
      <trkpt lat="37.05364" lon="-3.31917">
        <ele>3193.4</ele>
        <time>2021-08-06 10:55:42</time>
      </trkpt>
      <trkpt lat="37.05364" lon="-3.31917">
        <ele>3193.4</ele>
        <time>2021-08-06 10:55:43</time>
      </trkpt>
      <trkpt lat="37.05364" lon="-3.31916">
        <ele>3193.6</ele>
        <time>2021-08-06 10:55:44</time>
      </trkpt>
      <trkpt lat="37.05363" lon="-3.31916">
        <ele>3193.8</ele>
        <time>2021-08-06 10:55:45</time>
      </trkpt>
      <trkpt lat="37.05363" lon="-3.31915">
        <ele>3193.8</ele>
        <time>2021-08-06 10:55:46</time>
      </trkpt>
      <trkpt lat="37.05362" lon="-3.31914">
        <ele>3194</ele>
        <time>2021-08-06 10:55:47</time>
      </trkpt>
      <trkpt lat="37.05362" lon="-3.31913">
        <ele>3194</ele>
        <time>2021-08-06 10:55:48</time>
      </trkpt>
      <trkpt lat="37.05361" lon="-3.31913">
        <ele>3194.2</ele>
        <time>2021-08-06 10:55:49</time>
      </trkpt>
      <trkpt lat="37.05361" lon="-3.31912">
        <ele>3194.4</ele>
        <time>2021-08-06 10:55:50</time>
      </trkpt>
      <trkpt lat="37.0536" lon="-3.31911">
        <ele>3194.6</ele>
        <time>2021-08-06 10:55:51</time>
      </trkpt>
      <trkpt lat="37.0536" lon="-3.3191">
        <ele>3194.6</ele>
        <time>2021-08-06 10:55:52</time>
      </trkpt>
      <trkpt lat="37.0536" lon="-3.31909">
        <ele>3194.6</ele>
        <time>2021-08-06 10:55:53</time>
      </trkpt>
      <trkpt lat="37.0536" lon="-3.31908">
        <ele>3194.6</ele>
        <time>2021-08-06 10:55:54</time>
      </trkpt>
      <trkpt lat="37.05359" lon="-3.31907">
        <ele>3194.8</ele>
        <time>2021-08-06 10:55:55</time>
      </trkpt>
      <trkpt lat="37.05359" lon="-3.31906">
        <ele>3194.8</ele>
        <time>2021-08-06 10:55:56</time>
      </trkpt>
      <trkpt lat="37.05358" lon="-3.31905">
        <ele>3195</ele>
        <time>2021-08-06 10:55:57</time>
      </trkpt>
      <trkpt lat="37.05358" lon="-3.31904">
        <ele>3195</ele>
        <time>2021-08-06 10:55:58</time>
      </trkpt>
      <trkpt lat="37.05357" lon="-3.31904">
        <ele>3195</ele>
        <time>2021-08-06 10:55:59</time>
      </trkpt>
      <trkpt lat="37.05357" lon="-3.31903">
        <ele>3195.4</ele>
        <time>2021-08-06 10:56:00</time>
      </trkpt>
      <trkpt lat="37.05357" lon="-3.31903">
        <ele>3195.4</ele>
        <time>2021-08-06 10:56:01</time>
      </trkpt>
      <trkpt lat="37.05358" lon="-3.31902">
        <ele>3195.6</ele>
        <time>2021-08-06 10:56:02</time>
      </trkpt>
      <trkpt lat="37.05357" lon="-3.31902">
        <ele>3195.6</ele>
        <time>2021-08-06 10:56:03</time>
      </trkpt>
      <trkpt lat="37.05357" lon="-3.31901">
        <ele>3195.8</ele>
        <time>2021-08-06 10:56:04</time>
      </trkpt>
      <trkpt lat="37.05358" lon="-3.31901">
        <ele>3196</ele>
        <time>2021-08-06 10:56:05</time>
      </trkpt>
      <trkpt lat="37.05358" lon="-3.319">
        <ele>3196.2</ele>
        <time>2021-08-06 10:56:06</time>
      </trkpt>
      <trkpt lat="37.05358" lon="-3.319">
        <ele>3196.4</ele>
        <time>2021-08-06 10:56:07</time>
      </trkpt>
      <trkpt lat="37.05357" lon="-3.31901">
        <ele>3196.4</ele>
        <time>2021-08-06 10:56:08</time>
      </trkpt>
      <trkpt lat="37.05357" lon="-3.319">
        <ele>3196.4</ele>
        <time>2021-08-06 10:56:09</time>
      </trkpt>
      <trkpt lat="37.05357" lon="-3.319">
        <ele>3196.4</ele>
        <time>2021-08-06 10:56:10</time>
      </trkpt>
      <trkpt lat="37.05356" lon="-3.319">
        <ele>3196.4</ele>
        <time>2021-08-06 10:56:11</time>
      </trkpt>
      <trkpt lat="37.05356" lon="-3.31899">
        <ele>3196.6</ele>
        <time>2021-08-06 10:56:12</time>
      </trkpt>
      <trkpt lat="37.05355" lon="-3.31899">
        <ele>3196.8</ele>
        <time>2021-08-06 10:56:13</time>
      </trkpt>
      <trkpt lat="37.05355" lon="-3.31898">
        <ele>3196.8</ele>
        <time>2021-08-06 10:56:14</time>
      </trkpt>
      <trkpt lat="37.05355" lon="-3.31898">
        <ele>3196.8</ele>
        <time>2021-08-06 10:56:15</time>
      </trkpt>
      <trkpt lat="37.05354" lon="-3.31897">
        <ele>3196.8</ele>
        <time>2021-08-06 10:56:16</time>
      </trkpt>
      <trkpt lat="37.05353" lon="-3.31897">
        <ele>3197</ele>
        <time>2021-08-06 10:56:17</time>
      </trkpt>
      <trkpt lat="37.05352" lon="-3.31897">
        <ele>3197.4</ele>
        <time>2021-08-06 10:56:18</time>
      </trkpt>
      <trkpt lat="37.05352" lon="-3.31896">
        <ele>3197.4</ele>
        <time>2021-08-06 10:56:19</time>
      </trkpt>
      <trkpt lat="37.05352" lon="-3.31896">
        <ele>3197.6</ele>
        <time>2021-08-06 10:56:20</time>
      </trkpt>
      <trkpt lat="37.05352" lon="-3.31896">
        <ele>3197.8</ele>
        <time>2021-08-06 10:56:21</time>
      </trkpt>
      <trkpt lat="37.05352" lon="-3.31895">
        <ele>3198</ele>
        <time>2021-08-06 10:56:22</time>
      </trkpt>
      <trkpt lat="37.05352" lon="-3.31894">
        <ele>3198.2</ele>
        <time>2021-08-06 10:56:23</time>
      </trkpt>
      <trkpt lat="37.05351" lon="-3.31894">
        <ele>3198.4</ele>
        <time>2021-08-06 10:56:24</time>
      </trkpt>
      <trkpt lat="37.05351" lon="-3.31893">
        <ele>3198.6</ele>
        <time>2021-08-06 10:56:25</time>
      </trkpt>
      <trkpt lat="37.05351" lon="-3.31892">
        <ele>3198.8</ele>
        <time>2021-08-06 10:56:26</time>
      </trkpt>
      <trkpt lat="37.05351" lon="-3.31892">
        <ele>3198.8</ele>
        <time>2021-08-06 10:56:27</time>
      </trkpt>
      <trkpt lat="37.05351" lon="-3.31891">
        <ele>3199</ele>
        <time>2021-08-06 10:56:28</time>
      </trkpt>
      <trkpt lat="37.05351" lon="-3.3189">
        <ele>3199</ele>
        <time>2021-08-06 10:56:29</time>
      </trkpt>
      <trkpt lat="37.05351" lon="-3.31889">
        <ele>3199</ele>
        <time>2021-08-06 10:56:30</time>
      </trkpt>
      <trkpt lat="37.05352" lon="-3.31888">
        <ele>3199.2</ele>
        <time>2021-08-06 10:56:31</time>
      </trkpt>
      <trkpt lat="37.05352" lon="-3.31887">
        <ele>3199.2</ele>
        <time>2021-08-06 10:56:32</time>
      </trkpt>
      <trkpt lat="37.05352" lon="-3.31886">
        <ele>3199.4</ele>
        <time>2021-08-06 10:56:33</time>
      </trkpt>
      <trkpt lat="37.05352" lon="-3.31885">
        <ele>3199.4</ele>
        <time>2021-08-06 10:56:34</time>
      </trkpt>
      <trkpt lat="37.05353" lon="-3.31884">
        <ele>3199.6</ele>
        <time>2021-08-06 10:56:35</time>
      </trkpt>
      <trkpt lat="37.05354" lon="-3.31884">
        <ele>3199.8</ele>
        <time>2021-08-06 10:56:36</time>
      </trkpt>
      <trkpt lat="37.05355" lon="-3.31883">
        <ele>3200</ele>
        <time>2021-08-06 10:56:37</time>
      </trkpt>
      <trkpt lat="37.05355" lon="-3.31882">
        <ele>3200.2</ele>
        <time>2021-08-06 10:56:38</time>
      </trkpt>
      <trkpt lat="37.05353" lon="-3.31882">
        <ele>3200.2</ele>
        <time>2021-08-06 10:56:39</time>
      </trkpt>
      <trkpt lat="37.05353" lon="-3.31882">
        <ele>3200.2</ele>
        <time>2021-08-06 10:56:40</time>
      </trkpt>
      <trkpt lat="37.05352" lon="-3.31882">
        <ele>3200.6</ele>
        <time>2021-08-06 10:56:41</time>
      </trkpt>
      <trkpt lat="37.05351" lon="-3.31881">
        <ele>3200.6</ele>
        <time>2021-08-06 10:56:42</time>
      </trkpt>
      <trkpt lat="37.05351" lon="-3.31881">
        <ele>3200.8</ele>
        <time>2021-08-06 10:56:43</time>
      </trkpt>
      <trkpt lat="37.05351" lon="-3.3188">
        <ele>3201</ele>
        <time>2021-08-06 10:56:44</time>
      </trkpt>
      <trkpt lat="37.05351" lon="-3.31879">
        <ele>3201.4</ele>
        <time>2021-08-06 10:56:45</time>
      </trkpt>
      <trkpt lat="37.0535" lon="-3.31879">
        <ele>3201.8</ele>
        <time>2021-08-06 10:56:46</time>
      </trkpt>
      <trkpt lat="37.0535" lon="-3.31879">
        <ele>3202</ele>
        <time>2021-08-06 10:56:47</time>
      </trkpt>
      <trkpt lat="37.0535" lon="-3.31878">
        <ele>3202.2</ele>
        <time>2021-08-06 10:56:48</time>
      </trkpt>
      <trkpt lat="37.0535" lon="-3.31878">
        <ele>3202.4</ele>
        <time>2021-08-06 10:56:49</time>
      </trkpt>
      <trkpt lat="37.0535" lon="-3.31877">
        <ele>3202.4</ele>
        <time>2021-08-06 10:56:50</time>
      </trkpt>
      <trkpt lat="37.05351" lon="-3.31876">
        <ele>3202.6</ele>
        <time>2021-08-06 10:56:51</time>
      </trkpt>
      <trkpt lat="37.05351" lon="-3.31876">
        <ele>3202.6</ele>
        <time>2021-08-06 10:56:52</time>
      </trkpt>
      <trkpt lat="37.05351" lon="-3.31876">
        <ele>3202.8</ele>
        <time>2021-08-06 10:56:53</time>
      </trkpt>
      <trkpt lat="37.05351" lon="-3.31876">
        <ele>3203</ele>
        <time>2021-08-06 10:56:54</time>
      </trkpt>
      <trkpt lat="37.05351" lon="-3.31875">
        <ele>3203</ele>
        <time>2021-08-06 10:56:55</time>
      </trkpt>
      <trkpt lat="37.0535" lon="-3.31874">
        <ele>3203.6</ele>
        <time>2021-08-06 10:56:56</time>
      </trkpt>
      <trkpt lat="37.0535" lon="-3.31873">
        <ele>3204</ele>
        <time>2021-08-06 10:56:57</time>
      </trkpt>
      <trkpt lat="37.0535" lon="-3.31873">
        <ele>3204.2</ele>
        <time>2021-08-06 10:56:58</time>
      </trkpt>
      <trkpt lat="37.0535" lon="-3.31872">
        <ele>3204.6</ele>
        <time>2021-08-06 10:56:59</time>
      </trkpt>
      <trkpt lat="37.0535" lon="-3.31872">
        <ele>3204.8</ele>
        <time>2021-08-06 10:57:00</time>
      </trkpt>
      <trkpt lat="37.0535" lon="-3.31872">
        <ele>3205</ele>
        <time>2021-08-06 10:57:01</time>
      </trkpt>
      <trkpt lat="37.0535" lon="-3.31871">
        <ele>3205</ele>
        <time>2021-08-06 10:57:02</time>
      </trkpt>
      <trkpt lat="37.0535" lon="-3.3187">
        <ele>3205.2</ele>
        <time>2021-08-06 10:57:03</time>
      </trkpt>
      <trkpt lat="37.0535" lon="-3.3187">
        <ele>3205.2</ele>
        <time>2021-08-06 10:57:04</time>
      </trkpt>
      <trkpt lat="37.0535" lon="-3.3187">
        <ele>3205.2</ele>
        <time>2021-08-06 10:57:05</time>
      </trkpt>
      <trkpt lat="37.0535" lon="-3.31869">
        <ele>3205.4</ele>
        <time>2021-08-06 10:57:06</time>
      </trkpt>
      <trkpt lat="37.0535" lon="-3.31869">
        <ele>3205.4</ele>
        <time>2021-08-06 10:57:07</time>
      </trkpt>
      <trkpt lat="37.0535" lon="-3.31868">
        <ele>3205.4</ele>
        <time>2021-08-06 10:57:08</time>
      </trkpt>
      <trkpt lat="37.0535" lon="-3.31867">
        <ele>3205.4</ele>
        <time>2021-08-06 10:57:09</time>
      </trkpt>
      <trkpt lat="37.05349" lon="-3.31867">
        <ele>3205.6</ele>
        <time>2021-08-06 10:57:10</time>
      </trkpt>
      <trkpt lat="37.05348" lon="-3.31866">
        <ele>3205.8</ele>
        <time>2021-08-06 10:57:11</time>
      </trkpt>
      <trkpt lat="37.05348" lon="-3.31866">
        <ele>3206</ele>
        <time>2021-08-06 10:57:12</time>
      </trkpt>
      <trkpt lat="37.05347" lon="-3.31865">
        <ele>3206</ele>
        <time>2021-08-06 10:57:13</time>
      </trkpt>
      <trkpt lat="37.05347" lon="-3.31865">
        <ele>3206</ele>
        <time>2021-08-06 10:57:14</time>
      </trkpt>
      <trkpt lat="37.05346" lon="-3.31864">
        <ele>3206.2</ele>
        <time>2021-08-06 10:57:15</time>
      </trkpt>
      <trkpt lat="37.05346" lon="-3.31864">
        <ele>3206.4</ele>
        <time>2021-08-06 10:57:16</time>
      </trkpt>
      <trkpt lat="37.05346" lon="-3.31864">
        <ele>3206.4</ele>
        <time>2021-08-06 10:57:17</time>
      </trkpt>
      <trkpt lat="37.05346" lon="-3.31863">
        <ele>3206.6</ele>
        <time>2021-08-06 10:57:18</time>
      </trkpt>
      <trkpt lat="37.05346" lon="-3.31862">
        <ele>3206.8</ele>
        <time>2021-08-06 10:57:19</time>
      </trkpt>
      <trkpt lat="37.05345" lon="-3.31861">
        <ele>3206.8</ele>
        <time>2021-08-06 10:57:20</time>
      </trkpt>
      <trkpt lat="37.05345" lon="-3.3186">
        <ele>3206.8</ele>
        <time>2021-08-06 10:57:21</time>
      </trkpt>
      <trkpt lat="37.05345" lon="-3.31859">
        <ele>3207.2</ele>
        <time>2021-08-06 10:57:22</time>
      </trkpt>
      <trkpt lat="37.05345" lon="-3.31859">
        <ele>3207.4</ele>
        <time>2021-08-06 10:57:23</time>
      </trkpt>
      <trkpt lat="37.05345" lon="-3.31858">
        <ele>3207.6</ele>
        <time>2021-08-06 10:57:24</time>
      </trkpt>
      <trkpt lat="37.05345" lon="-3.31857">
        <ele>3207.8</ele>
        <time>2021-08-06 10:57:25</time>
      </trkpt>
      <trkpt lat="37.05344" lon="-3.31856">
        <ele>3208</ele>
        <time>2021-08-06 10:57:26</time>
      </trkpt>
      <trkpt lat="37.05344" lon="-3.31855">
        <ele>3208</ele>
        <time>2021-08-06 10:57:27</time>
      </trkpt>
      <trkpt lat="37.05344" lon="-3.31855">
        <ele>3208.4</ele>
        <time>2021-08-06 10:57:28</time>
      </trkpt>
      <trkpt lat="37.05344" lon="-3.31854">
        <ele>3208.8</ele>
        <time>2021-08-06 10:57:29</time>
      </trkpt>
      <trkpt lat="37.05344" lon="-3.31853">
        <ele>3209</ele>
        <time>2021-08-06 10:57:30</time>
      </trkpt>
      <trkpt lat="37.05343" lon="-3.31853">
        <ele>3209.2</ele>
        <time>2021-08-06 10:57:31</time>
      </trkpt>
      <trkpt lat="37.05343" lon="-3.31852">
        <ele>3209.2</ele>
        <time>2021-08-06 10:57:32</time>
      </trkpt>
      <trkpt lat="37.05342" lon="-3.31852">
        <ele>3209.2</ele>
        <time>2021-08-06 10:57:33</time>
      </trkpt>
      <trkpt lat="37.05341" lon="-3.31851">
        <ele>3209.2</ele>
        <time>2021-08-06 10:57:34</time>
      </trkpt>
      <trkpt lat="37.05341" lon="-3.31851">
        <ele>3209.4</ele>
        <time>2021-08-06 10:57:35</time>
      </trkpt>
      <trkpt lat="37.0534" lon="-3.3185">
        <ele>3209.2</ele>
        <time>2021-08-06 10:57:36</time>
      </trkpt>
      <trkpt lat="37.0534" lon="-3.3185">
        <ele>3209.4</ele>
        <time>2021-08-06 10:57:37</time>
      </trkpt>
      <trkpt lat="37.0534" lon="-3.31849">
        <ele>3209.4</ele>
        <time>2021-08-06 10:57:38</time>
      </trkpt>
      <trkpt lat="37.05339" lon="-3.31849">
        <ele>3209.4</ele>
        <time>2021-08-06 10:57:39</time>
      </trkpt>
      <trkpt lat="37.05338" lon="-3.31849">
        <ele>3209.6</ele>
        <time>2021-08-06 10:57:40</time>
      </trkpt>
      <trkpt lat="37.05338" lon="-3.31849">
        <ele>3210</ele>
        <time>2021-08-06 10:57:41</time>
      </trkpt>
      <trkpt lat="37.05338" lon="-3.31848">
        <ele>3210.2</ele>
        <time>2021-08-06 10:57:42</time>
      </trkpt>
      <trkpt lat="37.05338" lon="-3.31848">
        <ele>3210.4</ele>
        <time>2021-08-06 10:57:43</time>
      </trkpt>
      <trkpt lat="37.05338" lon="-3.31848">
        <ele>3210.6</ele>
        <time>2021-08-06 10:57:44</time>
      </trkpt>
      <trkpt lat="37.05339" lon="-3.31848">
        <ele>3210.6</ele>
        <time>2021-08-06 10:57:45</time>
      </trkpt>
      <trkpt lat="37.05338" lon="-3.31848">
        <ele>3210.6</ele>
        <time>2021-08-06 10:57:46</time>
      </trkpt>
      <trkpt lat="37.05338" lon="-3.31849">
        <ele>3210.6</ele>
        <time>2021-08-06 10:57:47</time>
      </trkpt>
      <trkpt lat="37.05338" lon="-3.31849">
        <ele>3210.6</ele>
        <time>2021-08-06 10:57:48</time>
      </trkpt>
      <trkpt lat="37.05339" lon="-3.31849">
        <ele>3210.6</ele>
        <time>2021-08-06 10:57:49</time>
      </trkpt>
      <trkpt lat="37.05338" lon="-3.3185">
        <ele>3210.6</ele>
        <time>2021-08-06 10:57:50</time>
      </trkpt>
      <trkpt lat="37.05338" lon="-3.3185">
        <ele>3210.6</ele>
        <time>2021-08-06 10:57:51</time>
      </trkpt>
      <trkpt lat="37.05338" lon="-3.31851">
        <ele>3210.6</ele>
        <time>2021-08-06 10:57:52</time>
      </trkpt>
      <trkpt lat="37.05338" lon="-3.31851">
        <ele>3210.8</ele>
        <time>2021-08-06 10:57:53</time>
      </trkpt>
      <trkpt lat="37.05338" lon="-3.31852">
        <ele>3210.8</ele>
        <time>2021-08-06 10:57:54</time>
      </trkpt>
      <trkpt lat="37.05338" lon="-3.31852">
        <ele>3210.8</ele>
        <time>2021-08-06 10:57:55</time>
      </trkpt>
      <trkpt lat="37.05338" lon="-3.31852">
        <ele>3210.6</ele>
        <time>2021-08-06 10:57:56</time>
      </trkpt>
      <trkpt lat="37.05338" lon="-3.31852">
        <ele>3210.6</ele>
        <time>2021-08-06 10:57:57</time>
      </trkpt>
      <trkpt lat="37.05339" lon="-3.31853">
        <ele>3210.6</ele>
        <time>2021-08-06 10:57:58</time>
      </trkpt>
      <trkpt lat="37.05338" lon="-3.31852">
        <ele>3210.8</ele>
        <time>2021-08-06 10:57:59</time>
      </trkpt>
      <trkpt lat="37.05338" lon="-3.31852">
        <ele>3210.8</ele>
        <time>2021-08-06 10:58:00</time>
      </trkpt>
      <trkpt lat="37.05338" lon="-3.31851">
        <ele>3210.8</ele>
        <time>2021-08-06 10:58:01</time>
      </trkpt>
      <trkpt lat="37.05338" lon="-3.31851">
        <ele>3210.8</ele>
        <time>2021-08-06 10:58:02</time>
      </trkpt>
      <trkpt lat="37.05338" lon="-3.31851">
        <ele>3211</ele>
        <time>2021-08-06 10:58:03</time>
      </trkpt>
      <trkpt lat="37.05337" lon="-3.31851">
        <ele>3211</ele>
        <time>2021-08-06 10:58:04</time>
      </trkpt>
      <trkpt lat="37.05337" lon="-3.3185">
        <ele>3211</ele>
        <time>2021-08-06 10:58:05</time>
      </trkpt>
      <trkpt lat="37.05337" lon="-3.31851">
        <ele>3211</ele>
        <time>2021-08-06 10:58:06</time>
      </trkpt>
      <trkpt lat="37.05336" lon="-3.3185">
        <ele>3211</ele>
        <time>2021-08-06 10:58:07</time>
      </trkpt>
      <trkpt lat="37.05336" lon="-3.3185">
        <ele>3210.8</ele>
        <time>2021-08-06 10:58:08</time>
      </trkpt>
      <trkpt lat="37.05337" lon="-3.3185">
        <ele>3210.6</ele>
        <time>2021-08-06 10:58:09</time>
      </trkpt>
      <trkpt lat="37.05337" lon="-3.3185">
        <ele>3210.6</ele>
        <time>2021-08-06 10:58:10</time>
      </trkpt>
      <trkpt lat="37.05337" lon="-3.3185">
        <ele>3210.2</ele>
        <time>2021-08-06 10:58:11</time>
      </trkpt>
      <trkpt lat="37.05337" lon="-3.3185">
        <ele>3210</ele>
        <time>2021-08-06 10:58:12</time>
      </trkpt>
      <trkpt lat="37.05337" lon="-3.3185">
        <ele>3210</ele>
        <time>2021-08-06 10:58:13</time>
      </trkpt>
      <trkpt lat="37.05337" lon="-3.31851">
        <ele>3209.8</ele>
        <time>2021-08-06 10:58:14</time>
      </trkpt>
      <trkpt lat="37.05337" lon="-3.31851">
        <ele>3209.8</ele>
        <time>2021-08-06 10:58:15</time>
      </trkpt>
      <trkpt lat="37.05337" lon="-3.31851">
        <ele>3209.8</ele>
        <time>2021-08-06 10:58:16</time>
      </trkpt>
      <trkpt lat="37.05337" lon="-3.31851">
        <ele>3209.8</ele>
        <time>2021-08-06 10:58:17</time>
      </trkpt>
      <trkpt lat="37.05337" lon="-3.31851">
        <ele>3209.8</ele>
        <time>2021-08-06 10:58:18</time>
      </trkpt>
      <trkpt lat="37.05337" lon="-3.31851">
        <ele>3210</ele>
        <time>2021-08-06 10:58:19</time>
      </trkpt>
      <trkpt lat="37.05337" lon="-3.31851">
        <ele>3210.2</ele>
        <time>2021-08-06 10:58:20</time>
      </trkpt>
      <trkpt lat="37.05337" lon="-3.31851">
        <ele>3210</ele>
        <time>2021-08-06 10:58:21</time>
      </trkpt>
      <trkpt lat="37.05337" lon="-3.3185">
        <ele>3210</ele>
        <time>2021-08-06 10:58:22</time>
      </trkpt>
      <trkpt lat="37.05337" lon="-3.3185">
        <ele>3210</ele>
        <time>2021-08-06 10:58:23</time>
      </trkpt>
      <trkpt lat="37.05337" lon="-3.3185">
        <ele>3210</ele>
        <time>2021-08-06 10:58:24</time>
      </trkpt>
      <trkpt lat="37.05337" lon="-3.3185">
        <ele>3210</ele>
        <time>2021-08-06 10:58:25</time>
      </trkpt>
      <trkpt lat="37.05336" lon="-3.31849">
        <ele>3210.2</ele>
        <time>2021-08-06 10:58:26</time>
      </trkpt>
      <trkpt lat="37.05336" lon="-3.31849">
        <ele>3210.2</ele>
        <time>2021-08-06 10:58:27</time>
      </trkpt>
      <trkpt lat="37.05336" lon="-3.31849">
        <ele>3210.4</ele>
        <time>2021-08-06 10:58:28</time>
      </trkpt>
      <trkpt lat="37.05337" lon="-3.31849">
        <ele>3210.4</ele>
        <time>2021-08-06 10:58:29</time>
      </trkpt>
      <trkpt lat="37.05337" lon="-3.31849">
        <ele>3210.4</ele>
        <time>2021-08-06 10:58:30</time>
      </trkpt>
      <trkpt lat="37.05338" lon="-3.31849">
        <ele>3210.4</ele>
        <time>2021-08-06 10:58:31</time>
      </trkpt>
      <trkpt lat="37.05338" lon="-3.31849">
        <ele>3210.4</ele>
        <time>2021-08-06 10:58:32</time>
      </trkpt>
      <trkpt lat="37.05338" lon="-3.31849">
        <ele>3210.2</ele>
        <time>2021-08-06 10:58:33</time>
      </trkpt>
      <trkpt lat="37.05337" lon="-3.3185">
        <ele>3210</ele>
        <time>2021-08-06 10:58:34</time>
      </trkpt>
      <trkpt lat="37.05337" lon="-3.3185">
        <ele>3210</ele>
        <time>2021-08-06 10:58:35</time>
      </trkpt>
      <trkpt lat="37.05337" lon="-3.3185">
        <ele>3209.8</ele>
        <time>2021-08-06 10:58:36</time>
      </trkpt>
      <trkpt lat="37.05337" lon="-3.3185">
        <ele>3209.8</ele>
        <time>2021-08-06 10:58:37</time>
      </trkpt>
      <trkpt lat="37.05337" lon="-3.3185">
        <ele>3209.8</ele>
        <time>2021-08-06 10:58:38</time>
      </trkpt>
      <trkpt lat="37.05337" lon="-3.3185">
        <ele>3209.8</ele>
        <time>2021-08-06 10:58:39</time>
      </trkpt>
      <trkpt lat="37.05337" lon="-3.3185">
        <ele>3209.8</ele>
        <time>2021-08-06 10:58:40</time>
      </trkpt>
      <trkpt lat="37.05337" lon="-3.31851">
        <ele>3209.6</ele>
        <time>2021-08-06 10:58:41</time>
      </trkpt>
      <trkpt lat="37.05337" lon="-3.31851">
        <ele>3209.8</ele>
        <time>2021-08-06 10:58:42</time>
      </trkpt>
      <trkpt lat="37.05337" lon="-3.31851">
        <ele>3209.6</ele>
        <time>2021-08-06 10:58:43</time>
      </trkpt>
      <trkpt lat="37.05337" lon="-3.31851">
        <ele>3209.6</ele>
        <time>2021-08-06 10:58:44</time>
      </trkpt>
      <trkpt lat="37.05337" lon="-3.31852">
        <ele>3209.6</ele>
        <time>2021-08-06 10:58:45</time>
      </trkpt>
      <trkpt lat="37.05338" lon="-3.31851">
        <ele>3209.6</ele>
        <time>2021-08-06 10:58:46</time>
      </trkpt>
      <trkpt lat="37.05337" lon="-3.31851">
        <ele>3209.6</ele>
        <time>2021-08-06 10:58:47</time>
      </trkpt>
      <trkpt lat="37.05338" lon="-3.31851">
        <ele>3210</ele>
        <time>2021-08-06 10:58:48</time>
      </trkpt>
      <trkpt lat="37.05338" lon="-3.31852">
        <ele>3209.8</ele>
        <time>2021-08-06 10:58:49</time>
      </trkpt>
      <trkpt lat="37.05338" lon="-3.31852">
        <ele>3209.8</ele>
        <time>2021-08-06 10:58:50</time>
      </trkpt>
      <trkpt lat="37.05338" lon="-3.31851">
        <ele>3209.8</ele>
        <time>2021-08-06 10:58:51</time>
      </trkpt>
      <trkpt lat="37.05337" lon="-3.3185">
        <ele>3209.8</ele>
        <time>2021-08-06 10:58:52</time>
      </trkpt>
      <trkpt lat="37.05337" lon="-3.31849">
        <ele>3210</ele>
        <time>2021-08-06 10:58:53</time>
      </trkpt>
      <trkpt lat="37.05336" lon="-3.31848">
        <ele>3210.2</ele>
        <time>2021-08-06 10:58:54</time>
      </trkpt>
      <trkpt lat="37.05336" lon="-3.31848">
        <ele>3210.8</ele>
        <time>2021-08-06 10:58:55</time>
      </trkpt>
      <trkpt lat="37.05335" lon="-3.31847">
        <ele>3210.8</ele>
        <time>2021-08-06 10:58:56</time>
      </trkpt>
      <trkpt lat="37.05335" lon="-3.31847">
        <ele>3210.8</ele>
        <time>2021-08-06 10:58:57</time>
      </trkpt>
      <trkpt lat="37.05335" lon="-3.31847">
        <ele>3210.8</ele>
        <time>2021-08-06 10:58:58</time>
      </trkpt>
      <trkpt lat="37.05334" lon="-3.31847">
        <ele>3210.8</ele>
        <time>2021-08-06 10:58:59</time>
      </trkpt>
      <trkpt lat="37.05334" lon="-3.31847">
        <ele>3210.8</ele>
        <time>2021-08-06 10:59:00</time>
      </trkpt>
      <trkpt lat="37.05334" lon="-3.31847">
        <ele>3210.8</ele>
        <time>2021-08-06 10:59:01</time>
      </trkpt>
      <trkpt lat="37.05334" lon="-3.31847">
        <ele>3210.8</ele>
        <time>2021-08-06 10:59:02</time>
      </trkpt>
      <trkpt lat="37.05334" lon="-3.31847">
        <ele>3210.8</ele>
        <time>2021-08-06 10:59:03</time>
      </trkpt>
      <trkpt lat="37.05334" lon="-3.31847">
        <ele>3210.8</ele>
        <time>2021-08-06 10:59:04</time>
      </trkpt>
      <trkpt lat="37.05334" lon="-3.31847">
        <ele>3210.8</ele>
        <time>2021-08-06 10:59:05</time>
      </trkpt>
      <trkpt lat="37.05334" lon="-3.31847">
        <ele>3210.8</ele>
        <time>2021-08-06 10:59:06</time>
      </trkpt>
      <trkpt lat="37.05334" lon="-3.31847">
        <ele>3210.8</ele>
        <time>2021-08-06 10:59:07</time>
      </trkpt>
      <trkpt lat="37.05334" lon="-3.31847">
        <ele>3210.8</ele>
        <time>2021-08-06 10:59:08</time>
      </trkpt>
      <trkpt lat="37.05334" lon="-3.31847">
        <ele>3210.8</ele>
        <time>2021-08-06 10:59:09</time>
      </trkpt>
      <trkpt lat="37.05334" lon="-3.31847">
        <ele>3210.8</ele>
        <time>2021-08-06 10:59:10</time>
      </trkpt>
      <trkpt lat="37.05334" lon="-3.31847">
        <ele>3210.8</ele>
        <time>2021-08-06 10:59:11</time>
      </trkpt>
      <trkpt lat="37.05334" lon="-3.31847">
        <ele>3210.8</ele>
        <time>2021-08-06 10:59:12</time>
      </trkpt>
      <trkpt lat="37.05334" lon="-3.31847">
        <ele>3210.8</ele>
        <time>2021-08-06 10:59:13</time>
      </trkpt>
      <trkpt lat="37.05334" lon="-3.31847">
        <ele>3210.8</ele>
        <time>2021-08-06 10:59:14</time>
      </trkpt>
      <trkpt lat="37.05334" lon="-3.31847">
        <ele>3210.8</ele>
        <time>2021-08-06 10:59:15</time>
      </trkpt>
      <trkpt lat="37.05334" lon="-3.31847">
        <ele>3210.8</ele>
        <time>2021-08-06 10:59:16</time>
      </trkpt>
      <trkpt lat="37.05334" lon="-3.31847">
        <ele>3210.8</ele>
        <time>2021-08-06 10:59:17</time>
      </trkpt>
      <trkpt lat="37.05334" lon="-3.31848">
        <ele>3210.8</ele>
        <time>2021-08-06 10:59:18</time>
      </trkpt>
      <trkpt lat="37.05334" lon="-3.31848">
        <ele>3210.8</ele>
        <time>2021-08-06 10:59:19</time>
      </trkpt>
      <trkpt lat="37.05334" lon="-3.31848">
        <ele>3210.8</ele>
        <time>2021-08-06 10:59:20</time>
      </trkpt>
      <trkpt lat="37.05334" lon="-3.31848">
        <ele>3210.8</ele>
        <time>2021-08-06 10:59:21</time>
      </trkpt>
      <trkpt lat="37.05334" lon="-3.31849">
        <ele>3210.8</ele>
        <time>2021-08-06 10:59:22</time>
      </trkpt>
      <trkpt lat="37.05333" lon="-3.31848">
        <ele>3210.8</ele>
        <time>2021-08-06 10:59:23</time>
      </trkpt>
      <trkpt lat="37.05333" lon="-3.31848">
        <ele>3210.8</ele>
        <time>2021-08-06 10:59:24</time>
      </trkpt>
      <trkpt lat="37.05334" lon="-3.31849">
        <ele>3210.8</ele>
        <time>2021-08-06 10:59:25</time>
      </trkpt>
      <trkpt lat="37.05334" lon="-3.31849">
        <ele>3210.8</ele>
        <time>2021-08-06 10:59:26</time>
      </trkpt>
      <trkpt lat="37.05334" lon="-3.31849">
        <ele>3210.8</ele>
        <time>2021-08-06 10:59:27</time>
      </trkpt>
      <trkpt lat="37.05334" lon="-3.31849">
        <ele>3210.8</ele>
        <time>2021-08-06 10:59:28</time>
      </trkpt>
      <trkpt lat="37.05334" lon="-3.31848">
        <ele>3210.8</ele>
        <time>2021-08-06 10:59:29</time>
      </trkpt>
      <trkpt lat="37.05334" lon="-3.31848">
        <ele>3210.8</ele>
        <time>2021-08-06 10:59:30</time>
      </trkpt>
      <trkpt lat="37.05334" lon="-3.31848">
        <ele>3210.8</ele>
        <time>2021-08-06 10:59:31</time>
      </trkpt>
      <trkpt lat="37.05334" lon="-3.31848">
        <ele>3210.8</ele>
        <time>2021-08-06 10:59:32</time>
      </trkpt>
      <trkpt lat="37.05334" lon="-3.31848">
        <ele>3210.8</ele>
        <time>2021-08-06 10:59:33</time>
      </trkpt>
      <trkpt lat="37.05334" lon="-3.31848">
        <ele>3210.8</ele>
        <time>2021-08-06 10:59:34</time>
      </trkpt>
      <trkpt lat="37.05334" lon="-3.31847">
        <ele>3210.8</ele>
        <time>2021-08-06 10:59:35</time>
      </trkpt>
      <trkpt lat="37.05334" lon="-3.31847">
        <ele>3210.8</ele>
        <time>2021-08-06 10:59:36</time>
      </trkpt>
      <trkpt lat="37.05334" lon="-3.31848">
        <ele>3210.8</ele>
        <time>2021-08-06 10:59:37</time>
      </trkpt>
      <trkpt lat="37.05334" lon="-3.31847">
        <ele>3210.8</ele>
        <time>2021-08-06 10:59:38</time>
      </trkpt>
      <trkpt lat="37.05334" lon="-3.31847">
        <ele>3210.8</ele>
        <time>2021-08-06 10:59:39</time>
      </trkpt>
      <trkpt lat="37.05334" lon="-3.31847">
        <ele>3210.8</ele>
        <time>2021-08-06 10:59:40</time>
      </trkpt>
      <trkpt lat="37.05334" lon="-3.31847">
        <ele>3210.8</ele>
        <time>2021-08-06 10:59:41</time>
      </trkpt>
      <trkpt lat="37.05334" lon="-3.31847">
        <ele>3210.8</ele>
        <time>2021-08-06 10:59:42</time>
      </trkpt>
      <trkpt lat="37.05334" lon="-3.31847">
        <ele>3210.8</ele>
        <time>2021-08-06 10:59:43</time>
      </trkpt>
      <trkpt lat="37.05334" lon="-3.31847">
        <ele>3210.8</ele>
        <time>2021-08-06 10:59:44</time>
      </trkpt>
      <trkpt lat="37.05334" lon="-3.31847">
        <ele>3210.8</ele>
        <time>2021-08-06 10:59:45</time>
      </trkpt>
      <trkpt lat="37.05334" lon="-3.31846">
        <ele>3210.8</ele>
        <time>2021-08-06 10:59:46</time>
      </trkpt>
      <trkpt lat="37.05334" lon="-3.31846">
        <ele>3210.8</ele>
        <time>2021-08-06 10:59:47</time>
      </trkpt>
      <trkpt lat="37.05334" lon="-3.31846">
        <ele>3210.8</ele>
        <time>2021-08-06 10:59:48</time>
      </trkpt>
      <trkpt lat="37.05333" lon="-3.31845">
        <ele>3210.8</ele>
        <time>2021-08-06 10:59:49</time>
      </trkpt>
      <trkpt lat="37.05333" lon="-3.31845">
        <ele>3210.8</ele>
        <time>2021-08-06 10:59:50</time>
      </trkpt>
      <trkpt lat="37.05332" lon="-3.31844">
        <ele>3210.8</ele>
        <time>2021-08-06 10:59:51</time>
      </trkpt>
      <trkpt lat="37.05332" lon="-3.31844">
        <ele>3210.8</ele>
        <time>2021-08-06 10:59:52</time>
      </trkpt>
      <trkpt lat="37.05331" lon="-3.31843">
        <ele>3210.8</ele>
        <time>2021-08-06 10:59:53</time>
      </trkpt>
      <trkpt lat="37.0533" lon="-3.31843">
        <ele>3210.8</ele>
        <time>2021-08-06 10:59:54</time>
      </trkpt>
      <trkpt lat="37.0533" lon="-3.31843">
        <ele>3210.8</ele>
        <time>2021-08-06 10:59:55</time>
      </trkpt>
      <trkpt lat="37.05329" lon="-3.31842">
        <ele>3210.8</ele>
        <time>2021-08-06 10:59:56</time>
      </trkpt>
      <trkpt lat="37.05329" lon="-3.31842">
        <ele>3210.8</ele>
        <time>2021-08-06 10:59:57</time>
      </trkpt>
      <trkpt lat="37.05328" lon="-3.31841">
        <ele>3210.8</ele>
        <time>2021-08-06 10:59:58</time>
      </trkpt>
      <trkpt lat="37.05328" lon="-3.3184">
        <ele>3210.8</ele>
        <time>2021-08-06 10:59:59</time>
      </trkpt>
      <trkpt lat="37.05328" lon="-3.31839">
        <ele>3210.8</ele>
        <time>2021-08-06 11:00:00</time>
      </trkpt>
      <trkpt lat="37.05328" lon="-3.31839">
        <ele>3210.8</ele>
        <time>2021-08-06 11:00:01</time>
      </trkpt>
      <trkpt lat="37.05328" lon="-3.31838">
        <ele>3210.8</ele>
        <time>2021-08-06 11:00:02</time>
      </trkpt>
      <trkpt lat="37.05328" lon="-3.31837">
        <ele>3210.8</ele>
        <time>2021-08-06 11:00:03</time>
      </trkpt>
      <trkpt lat="37.05328" lon="-3.31836">
        <ele>3210.8</ele>
        <time>2021-08-06 11:00:04</time>
      </trkpt>
      <trkpt lat="37.05327" lon="-3.31835">
        <ele>3210.8</ele>
        <time>2021-08-06 11:00:05</time>
      </trkpt>
      <trkpt lat="37.05327" lon="-3.31834">
        <ele>3210.8</ele>
        <time>2021-08-06 11:00:06</time>
      </trkpt>
      <trkpt lat="37.05326" lon="-3.31833">
        <ele>3210.8</ele>
        <time>2021-08-06 11:00:07</time>
      </trkpt>
      <trkpt lat="37.05326" lon="-3.31832">
        <ele>3212.6</ele>
        <time>2021-08-06 11:00:08</time>
      </trkpt>
      <trkpt lat="37.05325" lon="-3.31832">
        <ele>3213.6</ele>
        <time>2021-08-06 11:00:09</time>
      </trkpt>
      <trkpt lat="37.05325" lon="-3.31831">
        <ele>3214.2</ele>
        <time>2021-08-06 11:00:10</time>
      </trkpt>
      <trkpt lat="37.05325" lon="-3.3183">
        <ele>3214.6</ele>
        <time>2021-08-06 11:00:11</time>
      </trkpt>
      <trkpt lat="37.05325" lon="-3.31829">
        <ele>3214.8</ele>
        <time>2021-08-06 11:00:12</time>
      </trkpt>
      <trkpt lat="37.05324" lon="-3.31829">
        <ele>3215</ele>
        <time>2021-08-06 11:00:13</time>
      </trkpt>
      <trkpt lat="37.05324" lon="-3.31828">
        <ele>3215.2</ele>
        <time>2021-08-06 11:00:14</time>
      </trkpt>
      <trkpt lat="37.05324" lon="-3.31828">
        <ele>3215.4</ele>
        <time>2021-08-06 11:00:15</time>
      </trkpt>
      <trkpt lat="37.05323" lon="-3.31827">
        <ele>3215.6</ele>
        <time>2021-08-06 11:00:16</time>
      </trkpt>
      <trkpt lat="37.05323" lon="-3.31827">
        <ele>3215.6</ele>
        <time>2021-08-06 11:00:17</time>
      </trkpt>
      <trkpt lat="37.05323" lon="-3.31826">
        <ele>3215.8</ele>
        <time>2021-08-06 11:00:18</time>
      </trkpt>
      <trkpt lat="37.05322" lon="-3.31826">
        <ele>3215.8</ele>
        <time>2021-08-06 11:00:19</time>
      </trkpt>
      <trkpt lat="37.05322" lon="-3.31825">
        <ele>3215.8</ele>
        <time>2021-08-06 11:00:20</time>
      </trkpt>
      <trkpt lat="37.05322" lon="-3.31825">
        <ele>3216</ele>
        <time>2021-08-06 11:00:21</time>
      </trkpt>
      <trkpt lat="37.05321" lon="-3.31824">
        <ele>3216</ele>
        <time>2021-08-06 11:00:22</time>
      </trkpt>
      <trkpt lat="37.05321" lon="-3.31824">
        <ele>3216.2</ele>
        <time>2021-08-06 11:00:23</time>
      </trkpt>
      <trkpt lat="37.0532" lon="-3.31823">
        <ele>3216.4</ele>
        <time>2021-08-06 11:00:24</time>
      </trkpt>
      <trkpt lat="37.0532" lon="-3.31823">
        <ele>3216.6</ele>
        <time>2021-08-06 11:00:25</time>
      </trkpt>
      <trkpt lat="37.0532" lon="-3.31822">
        <ele>3216.8</ele>
        <time>2021-08-06 11:00:26</time>
      </trkpt>
      <trkpt lat="37.0532" lon="-3.31821">
        <ele>3216.8</ele>
        <time>2021-08-06 11:00:27</time>
      </trkpt>
      <trkpt lat="37.05319" lon="-3.3182">
        <ele>3217</ele>
        <time>2021-08-06 11:00:28</time>
      </trkpt>
      <trkpt lat="37.05319" lon="-3.31819">
        <ele>3217.2</ele>
        <time>2021-08-06 11:00:29</time>
      </trkpt>
      <trkpt lat="37.05319" lon="-3.31819">
        <ele>3217.2</ele>
        <time>2021-08-06 11:00:30</time>
      </trkpt>
      <trkpt lat="37.05318" lon="-3.31818">
        <ele>3217.4</ele>
        <time>2021-08-06 11:00:31</time>
      </trkpt>
      <trkpt lat="37.05318" lon="-3.31817">
        <ele>3217.4</ele>
        <time>2021-08-06 11:00:32</time>
      </trkpt>
      <trkpt lat="37.05317" lon="-3.31817">
        <ele>3217.4</ele>
        <time>2021-08-06 11:00:33</time>
      </trkpt>
      <trkpt lat="37.05317" lon="-3.31816">
        <ele>3217.4</ele>
        <time>2021-08-06 11:00:34</time>
      </trkpt>
      <trkpt lat="37.05316" lon="-3.31816">
        <ele>3217.8</ele>
        <time>2021-08-06 11:00:35</time>
      </trkpt>
      <trkpt lat="37.05316" lon="-3.31815">
        <ele>3218.2</ele>
        <time>2021-08-06 11:00:36</time>
      </trkpt>
      <trkpt lat="37.05315" lon="-3.31815">
        <ele>3218.4</ele>
        <time>2021-08-06 11:00:37</time>
      </trkpt>
      <trkpt lat="37.05315" lon="-3.31814">
        <ele>3218.4</ele>
        <time>2021-08-06 11:00:38</time>
      </trkpt>
      <trkpt lat="37.05314" lon="-3.31813">
        <ele>3218.6</ele>
        <time>2021-08-06 11:00:39</time>
      </trkpt>
      <trkpt lat="37.05313" lon="-3.31813">
        <ele>3218.8</ele>
        <time>2021-08-06 11:00:40</time>
      </trkpt>
      <trkpt lat="37.05313" lon="-3.31812">
        <ele>3219</ele>
        <time>2021-08-06 11:00:41</time>
      </trkpt>
      <trkpt lat="37.05313" lon="-3.31811">
        <ele>3219.2</ele>
        <time>2021-08-06 11:00:42</time>
      </trkpt>
      <trkpt lat="37.05313" lon="-3.31811">
        <ele>3219.2</ele>
        <time>2021-08-06 11:00:43</time>
      </trkpt>
      <trkpt lat="37.05312" lon="-3.3181">
        <ele>3219.2</ele>
        <time>2021-08-06 11:00:44</time>
      </trkpt>
      <trkpt lat="37.05312" lon="-3.3181">
        <ele>3219.2</ele>
        <time>2021-08-06 11:00:45</time>
      </trkpt>
      <trkpt lat="37.05311" lon="-3.3181">
        <ele>3219.2</ele>
        <time>2021-08-06 11:00:46</time>
      </trkpt>
      <trkpt lat="37.05311" lon="-3.31809">
        <ele>3219.4</ele>
        <time>2021-08-06 11:00:47</time>
      </trkpt>
      <trkpt lat="37.0531" lon="-3.31809">
        <ele>3219.4</ele>
        <time>2021-08-06 11:00:48</time>
      </trkpt>
      <trkpt lat="37.0531" lon="-3.31809">
        <ele>3219.4</ele>
        <time>2021-08-06 11:00:49</time>
      </trkpt>
      <trkpt lat="37.0531" lon="-3.31808">
        <ele>3219.4</ele>
        <time>2021-08-06 11:00:50</time>
      </trkpt>
      <trkpt lat="37.05309" lon="-3.31808">
        <ele>3219.4</ele>
        <time>2021-08-06 11:00:51</time>
      </trkpt>
      <trkpt lat="37.05309" lon="-3.31808">
        <ele>3219.4</ele>
        <time>2021-08-06 11:00:52</time>
      </trkpt>
      <trkpt lat="37.05309" lon="-3.31807">
        <ele>3219.4</ele>
        <time>2021-08-06 11:00:53</time>
      </trkpt>
      <trkpt lat="37.05308" lon="-3.31807">
        <ele>3219.6</ele>
        <time>2021-08-06 11:00:54</time>
      </trkpt>
      <trkpt lat="37.05308" lon="-3.31806">
        <ele>3219.8</ele>
        <time>2021-08-06 11:00:55</time>
      </trkpt>
      <trkpt lat="37.05308" lon="-3.31806">
        <ele>3219.8</ele>
        <time>2021-08-06 11:00:56</time>
      </trkpt>
      <trkpt lat="37.05307" lon="-3.31805">
        <ele>3219.8</ele>
        <time>2021-08-06 11:00:57</time>
      </trkpt>
      <trkpt lat="37.05307" lon="-3.31805">
        <ele>3219.8</ele>
        <time>2021-08-06 11:00:58</time>
      </trkpt>
      <trkpt lat="37.05306" lon="-3.31804">
        <ele>3220</ele>
        <time>2021-08-06 11:00:59</time>
      </trkpt>
      <trkpt lat="37.05306" lon="-3.31804">
        <ele>3220</ele>
        <time>2021-08-06 11:01:00</time>
      </trkpt>
      <trkpt lat="37.05305" lon="-3.31804">
        <ele>3220.2</ele>
        <time>2021-08-06 11:01:01</time>
      </trkpt>
      <trkpt lat="37.05305" lon="-3.31803">
        <ele>3220.2</ele>
        <time>2021-08-06 11:01:02</time>
      </trkpt>
      <trkpt lat="37.05304" lon="-3.31802">
        <ele>3220.2</ele>
        <time>2021-08-06 11:01:03</time>
      </trkpt>
      <trkpt lat="37.05305" lon="-3.31802">
        <ele>3220.4</ele>
        <time>2021-08-06 11:01:04</time>
      </trkpt>
      <trkpt lat="37.05305" lon="-3.31801">
        <ele>3220.4</ele>
        <time>2021-08-06 11:01:05</time>
      </trkpt>
      <trkpt lat="37.05305" lon="-3.31801">
        <ele>3220.6</ele>
        <time>2021-08-06 11:01:06</time>
      </trkpt>
      <trkpt lat="37.05304" lon="-3.31801">
        <ele>3220.6</ele>
        <time>2021-08-06 11:01:07</time>
      </trkpt>
      <trkpt lat="37.05304" lon="-3.318">
        <ele>3220.6</ele>
        <time>2021-08-06 11:01:08</time>
      </trkpt>
      <trkpt lat="37.05304" lon="-3.318">
        <ele>3220.8</ele>
        <time>2021-08-06 11:01:09</time>
      </trkpt>
      <trkpt lat="37.05304" lon="-3.318">
        <ele>3220.8</ele>
        <time>2021-08-06 11:01:10</time>
      </trkpt>
      <trkpt lat="37.05304" lon="-3.318">
        <ele>3221</ele>
        <time>2021-08-06 11:01:11</time>
      </trkpt>
      <trkpt lat="37.05304" lon="-3.31799">
        <ele>3221.2</ele>
        <time>2021-08-06 11:01:12</time>
      </trkpt>
      <trkpt lat="37.05304" lon="-3.31799">
        <ele>3221.2</ele>
        <time>2021-08-06 11:01:13</time>
      </trkpt>
      <trkpt lat="37.05303" lon="-3.31798">
        <ele>3221.4</ele>
        <time>2021-08-06 11:01:14</time>
      </trkpt>
      <trkpt lat="37.05303" lon="-3.31798">
        <ele>3221.6</ele>
        <time>2021-08-06 11:01:15</time>
      </trkpt>
      <trkpt lat="37.05303" lon="-3.31797">
        <ele>3221.6</ele>
        <time>2021-08-06 11:01:16</time>
      </trkpt>
      <trkpt lat="37.05303" lon="-3.31797">
        <ele>3221.8</ele>
        <time>2021-08-06 11:01:17</time>
      </trkpt>
      <trkpt lat="37.05303" lon="-3.31796">
        <ele>3221.8</ele>
        <time>2021-08-06 11:01:18</time>
      </trkpt>
      <trkpt lat="37.05303" lon="-3.31796">
        <ele>3221.8</ele>
        <time>2021-08-06 11:01:19</time>
      </trkpt>
      <trkpt lat="37.05302" lon="-3.31796">
        <ele>3222</ele>
        <time>2021-08-06 11:01:20</time>
      </trkpt>
      <trkpt lat="37.05302" lon="-3.31795">
        <ele>3222</ele>
        <time>2021-08-06 11:01:21</time>
      </trkpt>
      <trkpt lat="37.05302" lon="-3.31795">
        <ele>3222.2</ele>
        <time>2021-08-06 11:01:22</time>
      </trkpt>
      <trkpt lat="37.05302" lon="-3.31794">
        <ele>3222.2</ele>
        <time>2021-08-06 11:01:23</time>
      </trkpt>
      <trkpt lat="37.05302" lon="-3.31794">
        <ele>3222.2</ele>
        <time>2021-08-06 11:01:24</time>
      </trkpt>
      <trkpt lat="37.05301" lon="-3.31793">
        <ele>3222.2</ele>
        <time>2021-08-06 11:01:25</time>
      </trkpt>
      <trkpt lat="37.05301" lon="-3.31792">
        <ele>3222.4</ele>
        <time>2021-08-06 11:01:26</time>
      </trkpt>
      <trkpt lat="37.053" lon="-3.31792">
        <ele>3222.6</ele>
        <time>2021-08-06 11:01:27</time>
      </trkpt>
      <trkpt lat="37.053" lon="-3.31792">
        <ele>3222.8</ele>
        <time>2021-08-06 11:01:28</time>
      </trkpt>
      <trkpt lat="37.05299" lon="-3.31792">
        <ele>3222.6</ele>
        <time>2021-08-06 11:01:29</time>
      </trkpt>
      <trkpt lat="37.05299" lon="-3.31791">
        <ele>3222.8</ele>
        <time>2021-08-06 11:01:30</time>
      </trkpt>
      <trkpt lat="37.05298" lon="-3.31791">
        <ele>3222.8</ele>
        <time>2021-08-06 11:01:31</time>
      </trkpt>
      <trkpt lat="37.05297" lon="-3.31791">
        <ele>3223</ele>
        <time>2021-08-06 11:01:32</time>
      </trkpt>
      <trkpt lat="37.05297" lon="-3.31791">
        <ele>3223</ele>
        <time>2021-08-06 11:01:33</time>
      </trkpt>
      <trkpt lat="37.05296" lon="-3.3179">
        <ele>3223.2</ele>
        <time>2021-08-06 11:01:34</time>
      </trkpt>
      <trkpt lat="37.05296" lon="-3.3179">
        <ele>3223.2</ele>
        <time>2021-08-06 11:01:35</time>
      </trkpt>
      <trkpt lat="37.05295" lon="-3.31789">
        <ele>3223.4</ele>
        <time>2021-08-06 11:01:36</time>
      </trkpt>
      <trkpt lat="37.05295" lon="-3.31789">
        <ele>3223.6</ele>
        <time>2021-08-06 11:01:37</time>
      </trkpt>
      <trkpt lat="37.05294" lon="-3.31788">
        <ele>3223.6</ele>
        <time>2021-08-06 11:01:38</time>
      </trkpt>
      <trkpt lat="37.05293" lon="-3.31787">
        <ele>3223.8</ele>
        <time>2021-08-06 11:01:39</time>
      </trkpt>
      <trkpt lat="37.05293" lon="-3.31786">
        <ele>3224</ele>
        <time>2021-08-06 11:01:40</time>
      </trkpt>
      <trkpt lat="37.05293" lon="-3.31786">
        <ele>3224</ele>
        <time>2021-08-06 11:01:41</time>
      </trkpt>
      <trkpt lat="37.05292" lon="-3.31785">
        <ele>3224</ele>
        <time>2021-08-06 11:01:42</time>
      </trkpt>
      <trkpt lat="37.05292" lon="-3.31785">
        <ele>3224</ele>
        <time>2021-08-06 11:01:43</time>
      </trkpt>
      <trkpt lat="37.05292" lon="-3.31785">
        <ele>3224.2</ele>
        <time>2021-08-06 11:01:44</time>
      </trkpt>
      <trkpt lat="37.05291" lon="-3.31784">
        <ele>3224.2</ele>
        <time>2021-08-06 11:01:45</time>
      </trkpt>
      <trkpt lat="37.0529" lon="-3.31784">
        <ele>3224.2</ele>
        <time>2021-08-06 11:01:46</time>
      </trkpt>
      <trkpt lat="37.0529" lon="-3.31783">
        <ele>3224.4</ele>
        <time>2021-08-06 11:01:47</time>
      </trkpt>
      <trkpt lat="37.0529" lon="-3.31783">
        <ele>3224.4</ele>
        <time>2021-08-06 11:01:48</time>
      </trkpt>
      <trkpt lat="37.05289" lon="-3.31783">
        <ele>3224.6</ele>
        <time>2021-08-06 11:01:49</time>
      </trkpt>
      <trkpt lat="37.0529" lon="-3.31782">
        <ele>3224.8</ele>
        <time>2021-08-06 11:01:50</time>
      </trkpt>
      <trkpt lat="37.05289" lon="-3.31782">
        <ele>3224.8</ele>
        <time>2021-08-06 11:01:51</time>
      </trkpt>
      <trkpt lat="37.05289" lon="-3.31781">
        <ele>3224.8</ele>
        <time>2021-08-06 11:01:52</time>
      </trkpt>
      <trkpt lat="37.05289" lon="-3.31781">
        <ele>3224.8</ele>
        <time>2021-08-06 11:01:53</time>
      </trkpt>
      <trkpt lat="37.05289" lon="-3.3178">
        <ele>3225</ele>
        <time>2021-08-06 11:01:54</time>
      </trkpt>
      <trkpt lat="37.05289" lon="-3.3178">
        <ele>3225</ele>
        <time>2021-08-06 11:01:55</time>
      </trkpt>
      <trkpt lat="37.05289" lon="-3.31779">
        <ele>3225.2</ele>
        <time>2021-08-06 11:01:56</time>
      </trkpt>
      <trkpt lat="37.05289" lon="-3.31778">
        <ele>3225.4</ele>
        <time>2021-08-06 11:01:57</time>
      </trkpt>
      <trkpt lat="37.05289" lon="-3.31778">
        <ele>3225.6</ele>
        <time>2021-08-06 11:01:58</time>
      </trkpt>
      <trkpt lat="37.05289" lon="-3.31777">
        <ele>3225.8</ele>
        <time>2021-08-06 11:01:59</time>
      </trkpt>
      <trkpt lat="37.05289" lon="-3.31777">
        <ele>3226.2</ele>
        <time>2021-08-06 11:02:00</time>
      </trkpt>
      <trkpt lat="37.05289" lon="-3.31777">
        <ele>3226.4</ele>
        <time>2021-08-06 11:02:01</time>
      </trkpt>
      <trkpt lat="37.05288" lon="-3.31776">
        <ele>3226.6</ele>
        <time>2021-08-06 11:02:02</time>
      </trkpt>
      <trkpt lat="37.05288" lon="-3.31775">
        <ele>3226.8</ele>
        <time>2021-08-06 11:02:03</time>
      </trkpt>
      <trkpt lat="37.05287" lon="-3.31775">
        <ele>3226.8</ele>
        <time>2021-08-06 11:02:04</time>
      </trkpt>
      <trkpt lat="37.05287" lon="-3.31774">
        <ele>3226.8</ele>
        <time>2021-08-06 11:02:05</time>
      </trkpt>
      <trkpt lat="37.05287" lon="-3.31773">
        <ele>3227</ele>
        <time>2021-08-06 11:02:06</time>
      </trkpt>
      <trkpt lat="37.05287" lon="-3.31772">
        <ele>3227</ele>
        <time>2021-08-06 11:02:07</time>
      </trkpt>
      <trkpt lat="37.05286" lon="-3.31772">
        <ele>3227</ele>
        <time>2021-08-06 11:02:08</time>
      </trkpt>
      <trkpt lat="37.05286" lon="-3.31771">
        <ele>3227</ele>
        <time>2021-08-06 11:02:09</time>
      </trkpt>
      <trkpt lat="37.05285" lon="-3.31771">
        <ele>3227.2</ele>
        <time>2021-08-06 11:02:10</time>
      </trkpt>
      <trkpt lat="37.05285" lon="-3.3177">
        <ele>3227.2</ele>
        <time>2021-08-06 11:02:11</time>
      </trkpt>
      <trkpt lat="37.05285" lon="-3.3177">
        <ele>3227.4</ele>
        <time>2021-08-06 11:02:12</time>
      </trkpt>
      <trkpt lat="37.05285" lon="-3.3177">
        <ele>3227.8</ele>
        <time>2021-08-06 11:02:13</time>
      </trkpt>
      <trkpt lat="37.05284" lon="-3.31769">
        <ele>3228.2</ele>
        <time>2021-08-06 11:02:14</time>
      </trkpt>
      <trkpt lat="37.05284" lon="-3.31769">
        <ele>3228.4</ele>
        <time>2021-08-06 11:02:15</time>
      </trkpt>
      <trkpt lat="37.05284" lon="-3.31768">
        <ele>3228.4</ele>
        <time>2021-08-06 11:02:16</time>
      </trkpt>
      <trkpt lat="37.05283" lon="-3.31768">
        <ele>3228.6</ele>
        <time>2021-08-06 11:02:17</time>
      </trkpt>
      <trkpt lat="37.05284" lon="-3.31767">
        <ele>3229</ele>
        <time>2021-08-06 11:02:18</time>
      </trkpt>
      <trkpt lat="37.05284" lon="-3.31766">
        <ele>3229</ele>
        <time>2021-08-06 11:02:19</time>
      </trkpt>
      <trkpt lat="37.05283" lon="-3.31766">
        <ele>3229.2</ele>
        <time>2021-08-06 11:02:20</time>
      </trkpt>
      <trkpt lat="37.05283" lon="-3.31766">
        <ele>3229.2</ele>
        <time>2021-08-06 11:02:21</time>
      </trkpt>
      <trkpt lat="37.05283" lon="-3.31766">
        <ele>3229.4</ele>
        <time>2021-08-06 11:02:22</time>
      </trkpt>
      <trkpt lat="37.05282" lon="-3.31765">
        <ele>3229.4</ele>
        <time>2021-08-06 11:02:23</time>
      </trkpt>
      <trkpt lat="37.05283" lon="-3.31765">
        <ele>3229.6</ele>
        <time>2021-08-06 11:02:24</time>
      </trkpt>
      <trkpt lat="37.05283" lon="-3.31765">
        <ele>3229.8</ele>
        <time>2021-08-06 11:02:25</time>
      </trkpt>
      <trkpt lat="37.05282" lon="-3.31764">
        <ele>3230</ele>
        <time>2021-08-06 11:02:26</time>
      </trkpt>
      <trkpt lat="37.05282" lon="-3.31764">
        <ele>3230.2</ele>
        <time>2021-08-06 11:02:27</time>
      </trkpt>
      <trkpt lat="37.05282" lon="-3.31763">
        <ele>3230.2</ele>
        <time>2021-08-06 11:02:28</time>
      </trkpt>
      <trkpt lat="37.05281" lon="-3.31763">
        <ele>3230.2</ele>
        <time>2021-08-06 11:02:29</time>
      </trkpt>
      <trkpt lat="37.0528" lon="-3.31762">
        <ele>3230.4</ele>
        <time>2021-08-06 11:02:30</time>
      </trkpt>
      <trkpt lat="37.05279" lon="-3.31763">
        <ele>3230.6</ele>
        <time>2021-08-06 11:02:31</time>
      </trkpt>
      <trkpt lat="37.05279" lon="-3.31763">
        <ele>3230.6</ele>
        <time>2021-08-06 11:02:32</time>
      </trkpt>
      <trkpt lat="37.05279" lon="-3.31762">
        <ele>3230.8</ele>
        <time>2021-08-06 11:02:33</time>
      </trkpt>
      <trkpt lat="37.05278" lon="-3.31762">
        <ele>3230.8</ele>
        <time>2021-08-06 11:02:34</time>
      </trkpt>
      <trkpt lat="37.05278" lon="-3.31761">
        <ele>3230.8</ele>
        <time>2021-08-06 11:02:35</time>
      </trkpt>
      <trkpt lat="37.05278" lon="-3.31761">
        <ele>3230.8</ele>
        <time>2021-08-06 11:02:36</time>
      </trkpt>
      <trkpt lat="37.05278" lon="-3.3176">
        <ele>3231</ele>
        <time>2021-08-06 11:02:37</time>
      </trkpt>
      <trkpt lat="37.05278" lon="-3.3176">
        <ele>3231.2</ele>
        <time>2021-08-06 11:02:38</time>
      </trkpt>
      <trkpt lat="37.05277" lon="-3.3176">
        <ele>3231.4</ele>
        <time>2021-08-06 11:02:39</time>
      </trkpt>
      <trkpt lat="37.05277" lon="-3.31759">
        <ele>3231.4</ele>
        <time>2021-08-06 11:02:40</time>
      </trkpt>
      <trkpt lat="37.05276" lon="-3.31759">
        <ele>3231.6</ele>
        <time>2021-08-06 11:02:41</time>
      </trkpt>
      <trkpt lat="37.05276" lon="-3.31758">
        <ele>3231.6</ele>
        <time>2021-08-06 11:02:42</time>
      </trkpt>
      <trkpt lat="37.05275" lon="-3.31757">
        <ele>3231.6</ele>
        <time>2021-08-06 11:02:43</time>
      </trkpt>
      <trkpt lat="37.05275" lon="-3.31756">
        <ele>3231.8</ele>
        <time>2021-08-06 11:02:44</time>
      </trkpt>
      <trkpt lat="37.05275" lon="-3.31756">
        <ele>3232</ele>
        <time>2021-08-06 11:02:45</time>
      </trkpt>
      <trkpt lat="37.05275" lon="-3.31755">
        <ele>3232.4</ele>
        <time>2021-08-06 11:02:46</time>
      </trkpt>
      <trkpt lat="37.05275" lon="-3.31755">
        <ele>3232.8</ele>
        <time>2021-08-06 11:02:47</time>
      </trkpt>
      <trkpt lat="37.05275" lon="-3.31755">
        <ele>3233</ele>
        <time>2021-08-06 11:02:48</time>
      </trkpt>
      <trkpt lat="37.05275" lon="-3.31755">
        <ele>3233</ele>
        <time>2021-08-06 11:02:49</time>
      </trkpt>
      <trkpt lat="37.05274" lon="-3.31755">
        <ele>3233.2</ele>
        <time>2021-08-06 11:02:50</time>
      </trkpt>
      <trkpt lat="37.05274" lon="-3.31755">
        <ele>3233.4</ele>
        <time>2021-08-06 11:02:51</time>
      </trkpt>
      <trkpt lat="37.05274" lon="-3.31755">
        <ele>3233.4</ele>
        <time>2021-08-06 11:02:52</time>
      </trkpt>
      <trkpt lat="37.05273" lon="-3.31754">
        <ele>3233.4</ele>
        <time>2021-08-06 11:02:53</time>
      </trkpt>
      <trkpt lat="37.05273" lon="-3.31754">
        <ele>3233.6</ele>
        <time>2021-08-06 11:02:54</time>
      </trkpt>
      <trkpt lat="37.05273" lon="-3.31753">
        <ele>3233.6</ele>
        <time>2021-08-06 11:02:55</time>
      </trkpt>
      <trkpt lat="37.05272" lon="-3.31753">
        <ele>3233.6</ele>
        <time>2021-08-06 11:02:56</time>
      </trkpt>
      <trkpt lat="37.05272" lon="-3.31752">
        <ele>3233.6</ele>
        <time>2021-08-06 11:02:57</time>
      </trkpt>
      <trkpt lat="37.05271" lon="-3.31752">
        <ele>3233.6</ele>
        <time>2021-08-06 11:02:58</time>
      </trkpt>
      <trkpt lat="37.05271" lon="-3.31752">
        <ele>3233.8</ele>
        <time>2021-08-06 11:02:59</time>
      </trkpt>
      <trkpt lat="37.0527" lon="-3.31751">
        <ele>3234</ele>
        <time>2021-08-06 11:03:00</time>
      </trkpt>
      <trkpt lat="37.0527" lon="-3.31752">
        <ele>3234</ele>
        <time>2021-08-06 11:03:01</time>
      </trkpt>
      <trkpt lat="37.0527" lon="-3.31752">
        <ele>3234.2</ele>
        <time>2021-08-06 11:03:02</time>
      </trkpt>
      <trkpt lat="37.05269" lon="-3.31751">
        <ele>3234.4</ele>
        <time>2021-08-06 11:03:03</time>
      </trkpt>
      <trkpt lat="37.05269" lon="-3.3175">
        <ele>3234.4</ele>
        <time>2021-08-06 11:03:04</time>
      </trkpt>
      <trkpt lat="37.05268" lon="-3.3175">
        <ele>3234.4</ele>
        <time>2021-08-06 11:03:05</time>
      </trkpt>
      <trkpt lat="37.05268" lon="-3.31749">
        <ele>3234.4</ele>
        <time>2021-08-06 11:03:06</time>
      </trkpt>
      <trkpt lat="37.05268" lon="-3.31748">
        <ele>3234.6</ele>
        <time>2021-08-06 11:03:07</time>
      </trkpt>
      <trkpt lat="37.05268" lon="-3.31748">
        <ele>3234.8</ele>
        <time>2021-08-06 11:03:08</time>
      </trkpt>
      <trkpt lat="37.05268" lon="-3.31748">
        <ele>3234.8</ele>
        <time>2021-08-06 11:03:09</time>
      </trkpt>
      <trkpt lat="37.05268" lon="-3.31748">
        <ele>3234.8</ele>
        <time>2021-08-06 11:03:10</time>
      </trkpt>
      <trkpt lat="37.05267" lon="-3.31747">
        <ele>3234.8</ele>
        <time>2021-08-06 11:03:11</time>
      </trkpt>
      <trkpt lat="37.05267" lon="-3.31746">
        <ele>3234.8</ele>
        <time>2021-08-06 11:03:12</time>
      </trkpt>
      <trkpt lat="37.05267" lon="-3.31746">
        <ele>3235</ele>
        <time>2021-08-06 11:03:13</time>
      </trkpt>
      <trkpt lat="37.05267" lon="-3.31746">
        <ele>3235</ele>
        <time>2021-08-06 11:03:14</time>
      </trkpt>
      <trkpt lat="37.05267" lon="-3.31745">
        <ele>3235.4</ele>
        <time>2021-08-06 11:03:15</time>
      </trkpt>
      <trkpt lat="37.05267" lon="-3.31745">
        <ele>3235.6</ele>
        <time>2021-08-06 11:03:16</time>
      </trkpt>
      <trkpt lat="37.05266" lon="-3.31744">
        <ele>3235.8</ele>
        <time>2021-08-06 11:03:17</time>
      </trkpt>
      <trkpt lat="37.05265" lon="-3.31744">
        <ele>3235.8</ele>
        <time>2021-08-06 11:03:18</time>
      </trkpt>
      <trkpt lat="37.05265" lon="-3.31744">
        <ele>3236.2</ele>
        <time>2021-08-06 11:03:19</time>
      </trkpt>
      <trkpt lat="37.05264" lon="-3.31744">
        <ele>3236.4</ele>
        <time>2021-08-06 11:03:20</time>
      </trkpt>
      <trkpt lat="37.05263" lon="-3.31744">
        <ele>3236.6</ele>
        <time>2021-08-06 11:03:21</time>
      </trkpt>
      <trkpt lat="37.05263" lon="-3.31743">
        <ele>3236.6</ele>
        <time>2021-08-06 11:03:22</time>
      </trkpt>
      <trkpt lat="37.05262" lon="-3.31743">
        <ele>3236.8</ele>
        <time>2021-08-06 11:03:23</time>
      </trkpt>
      <trkpt lat="37.05262" lon="-3.31742">
        <ele>3237</ele>
        <time>2021-08-06 11:03:24</time>
      </trkpt>
      <trkpt lat="37.05261" lon="-3.31741">
        <ele>3237.2</ele>
        <time>2021-08-06 11:03:25</time>
      </trkpt>
      <trkpt lat="37.05261" lon="-3.31741">
        <ele>3237.4</ele>
        <time>2021-08-06 11:03:26</time>
      </trkpt>
      <trkpt lat="37.0526" lon="-3.31741">
        <ele>3237.4</ele>
        <time>2021-08-06 11:03:27</time>
      </trkpt>
      <trkpt lat="37.0526" lon="-3.3174">
        <ele>3237.6</ele>
        <time>2021-08-06 11:03:28</time>
      </trkpt>
      <trkpt lat="37.0526" lon="-3.3174">
        <ele>3237.8</ele>
        <time>2021-08-06 11:03:29</time>
      </trkpt>
      <trkpt lat="37.05259" lon="-3.31739">
        <ele>3237.8</ele>
        <time>2021-08-06 11:03:30</time>
      </trkpt>
      <trkpt lat="37.05259" lon="-3.31739">
        <ele>3237.8</ele>
        <time>2021-08-06 11:03:31</time>
      </trkpt>
      <trkpt lat="37.05259" lon="-3.31738">
        <ele>3237.8</ele>
        <time>2021-08-06 11:03:32</time>
      </trkpt>
      <trkpt lat="37.05259" lon="-3.31738">
        <ele>3238.2</ele>
        <time>2021-08-06 11:03:33</time>
      </trkpt>
      <trkpt lat="37.0526" lon="-3.31737">
        <ele>3238.4</ele>
        <time>2021-08-06 11:03:34</time>
      </trkpt>
      <trkpt lat="37.05259" lon="-3.31737">
        <ele>3238.4</ele>
        <time>2021-08-06 11:03:35</time>
      </trkpt>
      <trkpt lat="37.05259" lon="-3.31736">
        <ele>3238.6</ele>
        <time>2021-08-06 11:03:36</time>
      </trkpt>
      <trkpt lat="37.05258" lon="-3.31736">
        <ele>3238.8</ele>
        <time>2021-08-06 11:03:37</time>
      </trkpt>
      <trkpt lat="37.05258" lon="-3.31736">
        <ele>3239</ele>
        <time>2021-08-06 11:03:38</time>
      </trkpt>
      <trkpt lat="37.05257" lon="-3.31736">
        <ele>3239</ele>
        <time>2021-08-06 11:03:39</time>
      </trkpt>
      <trkpt lat="37.05257" lon="-3.31735">
        <ele>3239.2</ele>
        <time>2021-08-06 11:03:40</time>
      </trkpt>
      <trkpt lat="37.05256" lon="-3.31734">
        <ele>3239.4</ele>
        <time>2021-08-06 11:03:41</time>
      </trkpt>
      <trkpt lat="37.05256" lon="-3.31734">
        <ele>3239.4</ele>
        <time>2021-08-06 11:03:42</time>
      </trkpt>
      <trkpt lat="37.05255" lon="-3.31733">
        <ele>3239.6</ele>
        <time>2021-08-06 11:03:43</time>
      </trkpt>
      <trkpt lat="37.05255" lon="-3.31733">
        <ele>3239.6</ele>
        <time>2021-08-06 11:03:44</time>
      </trkpt>
      <trkpt lat="37.05254" lon="-3.31733">
        <ele>3239.8</ele>
        <time>2021-08-06 11:03:45</time>
      </trkpt>
      <trkpt lat="37.05254" lon="-3.31733">
        <ele>3239.8</ele>
        <time>2021-08-06 11:03:46</time>
      </trkpt>
      <trkpt lat="37.05254" lon="-3.31733">
        <ele>3240</ele>
        <time>2021-08-06 11:03:47</time>
      </trkpt>
      <trkpt lat="37.05254" lon="-3.31733">
        <ele>3240.2</ele>
        <time>2021-08-06 11:03:48</time>
      </trkpt>
      <trkpt lat="37.05254" lon="-3.31733">
        <ele>3240.2</ele>
        <time>2021-08-06 11:03:49</time>
      </trkpt>
      <trkpt lat="37.05254" lon="-3.31733">
        <ele>3240.2</ele>
        <time>2021-08-06 11:03:50</time>
      </trkpt>
      <trkpt lat="37.05254" lon="-3.31733">
        <ele>3240.4</ele>
        <time>2021-08-06 11:03:51</time>
      </trkpt>
      <trkpt lat="37.05254" lon="-3.31732">
        <ele>3240.4</ele>
        <time>2021-08-06 11:03:52</time>
      </trkpt>
      <trkpt lat="37.05254" lon="-3.31732">
        <ele>3240.6</ele>
        <time>2021-08-06 11:03:53</time>
      </trkpt>
      <trkpt lat="37.05254" lon="-3.31731">
        <ele>3240.8</ele>
        <time>2021-08-06 11:03:54</time>
      </trkpt>
      <trkpt lat="37.05254" lon="-3.3173">
        <ele>3241</ele>
        <time>2021-08-06 11:03:55</time>
      </trkpt>
      <trkpt lat="37.05254" lon="-3.31729">
        <ele>3241</ele>
        <time>2021-08-06 11:03:56</time>
      </trkpt>
      <trkpt lat="37.05253" lon="-3.31729">
        <ele>3241.4</ele>
        <time>2021-08-06 11:03:57</time>
      </trkpt>
      <trkpt lat="37.05253" lon="-3.31728">
        <ele>3241.6</ele>
        <time>2021-08-06 11:03:58</time>
      </trkpt>
      <trkpt lat="37.05254" lon="-3.31728">
        <ele>3241.6</ele>
        <time>2021-08-06 11:03:59</time>
      </trkpt>
      <trkpt lat="37.05254" lon="-3.31728">
        <ele>3241.8</ele>
        <time>2021-08-06 11:04:00</time>
      </trkpt>
      <trkpt lat="37.05253" lon="-3.31728">
        <ele>3242</ele>
        <time>2021-08-06 11:04:01</time>
      </trkpt>
      <trkpt lat="37.05253" lon="-3.31728">
        <ele>3242.2</ele>
        <time>2021-08-06 11:04:02</time>
      </trkpt>
      <trkpt lat="37.05253" lon="-3.31727">
        <ele>3242.4</ele>
        <time>2021-08-06 11:04:03</time>
      </trkpt>
      <trkpt lat="37.05253" lon="-3.31727">
        <ele>3242.4</ele>
        <time>2021-08-06 11:04:04</time>
      </trkpt>
      <trkpt lat="37.05253" lon="-3.31726">
        <ele>3242.6</ele>
        <time>2021-08-06 11:04:05</time>
      </trkpt>
      <trkpt lat="37.05253" lon="-3.31725">
        <ele>3242.6</ele>
        <time>2021-08-06 11:04:06</time>
      </trkpt>
      <trkpt lat="37.05253" lon="-3.31725">
        <ele>3242.8</ele>
        <time>2021-08-06 11:04:07</time>
      </trkpt>
      <trkpt lat="37.05253" lon="-3.31725">
        <ele>3243</ele>
        <time>2021-08-06 11:04:08</time>
      </trkpt>
      <trkpt lat="37.05253" lon="-3.31725">
        <ele>3243.2</ele>
        <time>2021-08-06 11:04:09</time>
      </trkpt>
      <trkpt lat="37.05253" lon="-3.31725">
        <ele>3243.4</ele>
        <time>2021-08-06 11:04:10</time>
      </trkpt>
      <trkpt lat="37.05253" lon="-3.31725">
        <ele>3243.6</ele>
        <time>2021-08-06 11:04:11</time>
      </trkpt>
      <trkpt lat="37.05253" lon="-3.31725">
        <ele>3243.8</ele>
        <time>2021-08-06 11:04:12</time>
      </trkpt>
      <trkpt lat="37.05252" lon="-3.31724">
        <ele>3243.8</ele>
        <time>2021-08-06 11:04:13</time>
      </trkpt>
      <trkpt lat="37.05251" lon="-3.31724">
        <ele>3244</ele>
        <time>2021-08-06 11:04:14</time>
      </trkpt>
      <trkpt lat="37.05251" lon="-3.31724">
        <ele>3244</ele>
        <time>2021-08-06 11:04:15</time>
      </trkpt>
      <trkpt lat="37.05251" lon="-3.31724">
        <ele>3243.8</ele>
        <time>2021-08-06 11:04:16</time>
      </trkpt>
      <trkpt lat="37.05251" lon="-3.31724">
        <ele>3243.8</ele>
        <time>2021-08-06 11:04:17</time>
      </trkpt>
      <trkpt lat="37.05251" lon="-3.31725">
        <ele>3243.6</ele>
        <time>2021-08-06 11:04:18</time>
      </trkpt>
      <trkpt lat="37.0525" lon="-3.31724">
        <ele>3243.6</ele>
        <time>2021-08-06 11:04:19</time>
      </trkpt>
      <trkpt lat="37.05249" lon="-3.31723">
        <ele>3243.6</ele>
        <time>2021-08-06 11:04:20</time>
      </trkpt>
      <trkpt lat="37.05249" lon="-3.31722">
        <ele>3243.6</ele>
        <time>2021-08-06 11:04:21</time>
      </trkpt>
      <trkpt lat="37.05248" lon="-3.31722">
        <ele>3243.8</ele>
        <time>2021-08-06 11:04:22</time>
      </trkpt>
      <trkpt lat="37.05248" lon="-3.31721">
        <ele>3243.8</ele>
        <time>2021-08-06 11:04:23</time>
      </trkpt>
      <trkpt lat="37.05248" lon="-3.31721">
        <ele>3244</ele>
        <time>2021-08-06 11:04:24</time>
      </trkpt>
      <trkpt lat="37.05248" lon="-3.3172">
        <ele>3244.2</ele>
        <time>2021-08-06 11:04:25</time>
      </trkpt>
      <trkpt lat="37.05247" lon="-3.3172">
        <ele>3244.4</ele>
        <time>2021-08-06 11:04:26</time>
      </trkpt>
      <trkpt lat="37.05247" lon="-3.3172">
        <ele>3244.6</ele>
        <time>2021-08-06 11:04:27</time>
      </trkpt>
      <trkpt lat="37.05246" lon="-3.3172">
        <ele>3244.8</ele>
        <time>2021-08-06 11:04:28</time>
      </trkpt>
      <trkpt lat="37.05246" lon="-3.3172">
        <ele>3245</ele>
        <time>2021-08-06 11:04:29</time>
      </trkpt>
      <trkpt lat="37.05245" lon="-3.31719">
        <ele>3245</ele>
        <time>2021-08-06 11:04:30</time>
      </trkpt>
      <trkpt lat="37.05245" lon="-3.31718">
        <ele>3245.2</ele>
        <time>2021-08-06 11:04:31</time>
      </trkpt>
      <trkpt lat="37.05245" lon="-3.31717">
        <ele>3245.4</ele>
        <time>2021-08-06 11:04:32</time>
      </trkpt>
      <trkpt lat="37.05245" lon="-3.31716">
        <ele>3245.6</ele>
        <time>2021-08-06 11:04:33</time>
      </trkpt>
      <trkpt lat="37.05245" lon="-3.31716">
        <ele>3245.6</ele>
        <time>2021-08-06 11:04:34</time>
      </trkpt>
      <trkpt lat="37.05245" lon="-3.31716">
        <ele>3245.6</ele>
        <time>2021-08-06 11:04:35</time>
      </trkpt>
      <trkpt lat="37.05245" lon="-3.31716">
        <ele>3245.8</ele>
        <time>2021-08-06 11:04:36</time>
      </trkpt>
      <trkpt lat="37.05245" lon="-3.31715">
        <ele>3246</ele>
        <time>2021-08-06 11:04:37</time>
      </trkpt>
      <trkpt lat="37.05244" lon="-3.31715">
        <ele>3246</ele>
        <time>2021-08-06 11:04:38</time>
      </trkpt>
      <trkpt lat="37.05244" lon="-3.31714">
        <ele>3246.2</ele>
        <time>2021-08-06 11:04:39</time>
      </trkpt>
      <trkpt lat="37.05244" lon="-3.31714">
        <ele>3246.2</ele>
        <time>2021-08-06 11:04:40</time>
      </trkpt>
      <trkpt lat="37.05243" lon="-3.31713">
        <ele>3246.6</ele>
        <time>2021-08-06 11:04:41</time>
      </trkpt>
      <trkpt lat="37.05243" lon="-3.31713">
        <ele>3246.6</ele>
        <time>2021-08-06 11:04:42</time>
      </trkpt>
      <trkpt lat="37.05244" lon="-3.31712">
        <ele>3246.8</ele>
        <time>2021-08-06 11:04:43</time>
      </trkpt>
      <trkpt lat="37.05244" lon="-3.31711">
        <ele>3246.8</ele>
        <time>2021-08-06 11:04:44</time>
      </trkpt>
      <trkpt lat="37.05243" lon="-3.31712">
        <ele>3246.8</ele>
        <time>2021-08-06 11:04:45</time>
      </trkpt>
      <trkpt lat="37.05243" lon="-3.31712">
        <ele>3247</ele>
        <time>2021-08-06 11:04:46</time>
      </trkpt>
      <trkpt lat="37.05242" lon="-3.31712">
        <ele>3247.2</ele>
        <time>2021-08-06 11:04:47</time>
      </trkpt>
      <trkpt lat="37.05242" lon="-3.31712">
        <ele>3247.2</ele>
        <time>2021-08-06 11:04:48</time>
      </trkpt>
      <trkpt lat="37.05242" lon="-3.31711">
        <ele>3247.4</ele>
        <time>2021-08-06 11:04:49</time>
      </trkpt>
      <trkpt lat="37.05242" lon="-3.31711">
        <ele>3247.6</ele>
        <time>2021-08-06 11:04:50</time>
      </trkpt>
      <trkpt lat="37.05241" lon="-3.3171">
        <ele>3248</ele>
        <time>2021-08-06 11:04:51</time>
      </trkpt>
      <trkpt lat="37.05241" lon="-3.31709">
        <ele>3248</ele>
        <time>2021-08-06 11:04:52</time>
      </trkpt>
      <trkpt lat="37.05241" lon="-3.31709">
        <ele>3248.4</ele>
        <time>2021-08-06 11:04:53</time>
      </trkpt>
      <trkpt lat="37.05241" lon="-3.31709">
        <ele>3248.6</ele>
        <time>2021-08-06 11:04:54</time>
      </trkpt>
      <trkpt lat="37.0524" lon="-3.31709">
        <ele>3248.8</ele>
        <time>2021-08-06 11:04:55</time>
      </trkpt>
      <trkpt lat="37.0524" lon="-3.31708">
        <ele>3248.8</ele>
        <time>2021-08-06 11:04:56</time>
      </trkpt>
      <trkpt lat="37.0524" lon="-3.31708">
        <ele>3249</ele>
        <time>2021-08-06 11:04:57</time>
      </trkpt>
      <trkpt lat="37.0524" lon="-3.31707">
        <ele>3249</ele>
        <time>2021-08-06 11:04:58</time>
      </trkpt>
      <trkpt lat="37.05239" lon="-3.31707">
        <ele>3249.2</ele>
        <time>2021-08-06 11:04:59</time>
      </trkpt>
      <trkpt lat="37.05239" lon="-3.31706">
        <ele>3249.2</ele>
        <time>2021-08-06 11:05:00</time>
      </trkpt>
      <trkpt lat="37.05238" lon="-3.31706">
        <ele>3249.2</ele>
        <time>2021-08-06 11:05:01</time>
      </trkpt>
      <trkpt lat="37.05238" lon="-3.31705">
        <ele>3249.2</ele>
        <time>2021-08-06 11:05:02</time>
      </trkpt>
      <trkpt lat="37.05238" lon="-3.31705">
        <ele>3249.2</ele>
        <time>2021-08-06 11:05:03</time>
      </trkpt>
      <trkpt lat="37.05239" lon="-3.31705">
        <ele>3249.2</ele>
        <time>2021-08-06 11:05:04</time>
      </trkpt>
      <trkpt lat="37.05239" lon="-3.31705">
        <ele>3249.2</ele>
        <time>2021-08-06 11:05:05</time>
      </trkpt>
      <trkpt lat="37.05239" lon="-3.31705">
        <ele>3249.2</ele>
        <time>2021-08-06 11:05:06</time>
      </trkpt>
      <trkpt lat="37.05238" lon="-3.31705">
        <ele>3249.4</ele>
        <time>2021-08-06 11:05:07</time>
      </trkpt>
      <trkpt lat="37.05238" lon="-3.31705">
        <ele>3249.6</ele>
        <time>2021-08-06 11:05:08</time>
      </trkpt>
      <trkpt lat="37.05238" lon="-3.31704">
        <ele>3249.8</ele>
        <time>2021-08-06 11:05:09</time>
      </trkpt>
      <trkpt lat="37.05238" lon="-3.31703">
        <ele>3249.8</ele>
        <time>2021-08-06 11:05:10</time>
      </trkpt>
      <trkpt lat="37.05238" lon="-3.31703">
        <ele>3250.2</ele>
        <time>2021-08-06 11:05:11</time>
      </trkpt>
      <trkpt lat="37.05238" lon="-3.31702">
        <ele>3250.4</ele>
        <time>2021-08-06 11:05:12</time>
      </trkpt>
      <trkpt lat="37.05238" lon="-3.31701">
        <ele>3250.6</ele>
        <time>2021-08-06 11:05:13</time>
      </trkpt>
      <trkpt lat="37.05237" lon="-3.31701">
        <ele>3250.6</ele>
        <time>2021-08-06 11:05:14</time>
      </trkpt>
      <trkpt lat="37.05237" lon="-3.31701">
        <ele>3250.8</ele>
        <time>2021-08-06 11:05:15</time>
      </trkpt>
      <trkpt lat="37.05237" lon="-3.317">
        <ele>3250.8</ele>
        <time>2021-08-06 11:05:16</time>
      </trkpt>
      <trkpt lat="37.05237" lon="-3.317">
        <ele>3251</ele>
        <time>2021-08-06 11:05:17</time>
      </trkpt>
      <trkpt lat="37.05237" lon="-3.317">
        <ele>3251</ele>
        <time>2021-08-06 11:05:18</time>
      </trkpt>
      <trkpt lat="37.05237" lon="-3.31699">
        <ele>3251.2</ele>
        <time>2021-08-06 11:05:19</time>
      </trkpt>
      <trkpt lat="37.05237" lon="-3.31699">
        <ele>3251.2</ele>
        <time>2021-08-06 11:05:20</time>
      </trkpt>
      <trkpt lat="37.05236" lon="-3.31698">
        <ele>3251.2</ele>
        <time>2021-08-06 11:05:21</time>
      </trkpt>
      <trkpt lat="37.05236" lon="-3.31698">
        <ele>3251.2</ele>
        <time>2021-08-06 11:05:22</time>
      </trkpt>
      <trkpt lat="37.05236" lon="-3.31697">
        <ele>3251.2</ele>
        <time>2021-08-06 11:05:23</time>
      </trkpt>
      <trkpt lat="37.05235" lon="-3.31697">
        <ele>3251.4</ele>
        <time>2021-08-06 11:05:24</time>
      </trkpt>
      <trkpt lat="37.05235" lon="-3.31696">
        <ele>3251.6</ele>
        <time>2021-08-06 11:05:25</time>
      </trkpt>
      <trkpt lat="37.05235" lon="-3.31696">
        <ele>3251.6</ele>
        <time>2021-08-06 11:05:26</time>
      </trkpt>
      <trkpt lat="37.05235" lon="-3.31696">
        <ele>3252</ele>
        <time>2021-08-06 11:05:27</time>
      </trkpt>
      <trkpt lat="37.05235" lon="-3.31695">
        <ele>3252</ele>
        <time>2021-08-06 11:05:28</time>
      </trkpt>
      <trkpt lat="37.05235" lon="-3.31695">
        <ele>3252.2</ele>
        <time>2021-08-06 11:05:29</time>
      </trkpt>
      <trkpt lat="37.05235" lon="-3.31695">
        <ele>3252.4</ele>
        <time>2021-08-06 11:05:30</time>
      </trkpt>
      <trkpt lat="37.05235" lon="-3.31694">
        <ele>3252.4</ele>
        <time>2021-08-06 11:05:31</time>
      </trkpt>
      <trkpt lat="37.05235" lon="-3.31694">
        <ele>3252.4</ele>
        <time>2021-08-06 11:05:32</time>
      </trkpt>
      <trkpt lat="37.05236" lon="-3.31694">
        <ele>3252.4</ele>
        <time>2021-08-06 11:05:33</time>
      </trkpt>
      <trkpt lat="37.05236" lon="-3.31693">
        <ele>3252.4</ele>
        <time>2021-08-06 11:05:34</time>
      </trkpt>
      <trkpt lat="37.05236" lon="-3.31693">
        <ele>3252.4</ele>
        <time>2021-08-06 11:05:35</time>
      </trkpt>
      <trkpt lat="37.05236" lon="-3.31693">
        <ele>3252.4</ele>
        <time>2021-08-06 11:05:36</time>
      </trkpt>
      <trkpt lat="37.05236" lon="-3.31693">
        <ele>3252.2</ele>
        <time>2021-08-06 11:05:37</time>
      </trkpt>
      <trkpt lat="37.05236" lon="-3.31694">
        <ele>3252.2</ele>
        <time>2021-08-06 11:05:38</time>
      </trkpt>
      <trkpt lat="37.05236" lon="-3.31694">
        <ele>3252.2</ele>
        <time>2021-08-06 11:05:39</time>
      </trkpt>
      <trkpt lat="37.05236" lon="-3.31694">
        <ele>3252.2</ele>
        <time>2021-08-06 11:05:40</time>
      </trkpt>
      <trkpt lat="37.05235" lon="-3.31693">
        <ele>3252.4</ele>
        <time>2021-08-06 11:05:41</time>
      </trkpt>
      <trkpt lat="37.05235" lon="-3.31693">
        <ele>3252.4</ele>
        <time>2021-08-06 11:05:42</time>
      </trkpt>
      <trkpt lat="37.05235" lon="-3.31692">
        <ele>3252.6</ele>
        <time>2021-08-06 11:05:43</time>
      </trkpt>
      <trkpt lat="37.05234" lon="-3.31691">
        <ele>3252.6</ele>
        <time>2021-08-06 11:05:44</time>
      </trkpt>
      <trkpt lat="37.05234" lon="-3.31691">
        <ele>3253</ele>
        <time>2021-08-06 11:05:45</time>
      </trkpt>
      <trkpt lat="37.05233" lon="-3.3169">
        <ele>3253.2</ele>
        <time>2021-08-06 11:05:46</time>
      </trkpt>
      <trkpt lat="37.05233" lon="-3.3169">
        <ele>3253.2</ele>
        <time>2021-08-06 11:05:47</time>
      </trkpt>
      <trkpt lat="37.05233" lon="-3.31689">
        <ele>3253.4</ele>
        <time>2021-08-06 11:05:48</time>
      </trkpt>
      <trkpt lat="37.05233" lon="-3.31689">
        <ele>3253.4</ele>
        <time>2021-08-06 11:05:49</time>
      </trkpt>
      <trkpt lat="37.05233" lon="-3.31688">
        <ele>3253.6</ele>
        <time>2021-08-06 11:05:50</time>
      </trkpt>
      <trkpt lat="37.05232" lon="-3.31688">
        <ele>3253.6</ele>
        <time>2021-08-06 11:05:51</time>
      </trkpt>
      <trkpt lat="37.05232" lon="-3.31688">
        <ele>3253.8</ele>
        <time>2021-08-06 11:05:52</time>
      </trkpt>
      <trkpt lat="37.05232" lon="-3.31687">
        <ele>3254</ele>
        <time>2021-08-06 11:05:53</time>
      </trkpt>
      <trkpt lat="37.05231" lon="-3.31687">
        <ele>3254.2</ele>
        <time>2021-08-06 11:05:54</time>
      </trkpt>
      <trkpt lat="37.05231" lon="-3.31686">
        <ele>3254.4</ele>
        <time>2021-08-06 11:05:55</time>
      </trkpt>
      <trkpt lat="37.05231" lon="-3.31686">
        <ele>3254.4</ele>
        <time>2021-08-06 11:05:56</time>
      </trkpt>
      <trkpt lat="37.05231" lon="-3.31685">
        <ele>3254.8</ele>
        <time>2021-08-06 11:05:57</time>
      </trkpt>
      <trkpt lat="37.05231" lon="-3.31685">
        <ele>3254.8</ele>
        <time>2021-08-06 11:05:58</time>
      </trkpt>
      <trkpt lat="37.0523" lon="-3.31684">
        <ele>3255</ele>
        <time>2021-08-06 11:05:59</time>
      </trkpt>
      <trkpt lat="37.0523" lon="-3.31685">
        <ele>3255.2</ele>
        <time>2021-08-06 11:06:00</time>
      </trkpt>
      <trkpt lat="37.0523" lon="-3.31684">
        <ele>3255.2</ele>
        <time>2021-08-06 11:06:01</time>
      </trkpt>
      <trkpt lat="37.0523" lon="-3.31684">
        <ele>3255.2</ele>
        <time>2021-08-06 11:06:02</time>
      </trkpt>
      <trkpt lat="37.05229" lon="-3.31684">
        <ele>3255.6</ele>
        <time>2021-08-06 11:06:03</time>
      </trkpt>
      <trkpt lat="37.05229" lon="-3.31684">
        <ele>3255.8</ele>
        <time>2021-08-06 11:06:04</time>
      </trkpt>
      <trkpt lat="37.05229" lon="-3.31683">
        <ele>3256</ele>
        <time>2021-08-06 11:06:05</time>
      </trkpt>
      <trkpt lat="37.05229" lon="-3.31683">
        <ele>3256</ele>
        <time>2021-08-06 11:06:06</time>
      </trkpt>
      <trkpt lat="37.05229" lon="-3.31682">
        <ele>3256.2</ele>
        <time>2021-08-06 11:06:07</time>
      </trkpt>
      <trkpt lat="37.05229" lon="-3.31681">
        <ele>3256.2</ele>
        <time>2021-08-06 11:06:08</time>
      </trkpt>
      <trkpt lat="37.05228" lon="-3.31681">
        <ele>3256.4</ele>
        <time>2021-08-06 11:06:09</time>
      </trkpt>
      <trkpt lat="37.05228" lon="-3.3168">
        <ele>3256.4</ele>
        <time>2021-08-06 11:06:10</time>
      </trkpt>
      <trkpt lat="37.05228" lon="-3.3168">
        <ele>3256.6</ele>
        <time>2021-08-06 11:06:11</time>
      </trkpt>
      <trkpt lat="37.05228" lon="-3.3168">
        <ele>3256.6</ele>
        <time>2021-08-06 11:06:12</time>
      </trkpt>
      <trkpt lat="37.05228" lon="-3.3168">
        <ele>3256.6</ele>
        <time>2021-08-06 11:06:13</time>
      </trkpt>
      <trkpt lat="37.05228" lon="-3.3168">
        <ele>3256.6</ele>
        <time>2021-08-06 11:06:14</time>
      </trkpt>
      <trkpt lat="37.05229" lon="-3.3168">
        <ele>3256.6</ele>
        <time>2021-08-06 11:06:15</time>
      </trkpt>
      <trkpt lat="37.05229" lon="-3.3168">
        <ele>3257</ele>
        <time>2021-08-06 11:06:16</time>
      </trkpt>
      <trkpt lat="37.05229" lon="-3.31679">
        <ele>3257</ele>
        <time>2021-08-06 11:06:17</time>
      </trkpt>
      <trkpt lat="37.05229" lon="-3.31679">
        <ele>3257.2</ele>
        <time>2021-08-06 11:06:18</time>
      </trkpt>
      <trkpt lat="37.05229" lon="-3.31678">
        <ele>3257.4</ele>
        <time>2021-08-06 11:06:19</time>
      </trkpt>
      <trkpt lat="37.05229" lon="-3.31678">
        <ele>3257.6</ele>
        <time>2021-08-06 11:06:20</time>
      </trkpt>
      <trkpt lat="37.05229" lon="-3.31678">
        <ele>3257.6</ele>
        <time>2021-08-06 11:06:21</time>
      </trkpt>
      <trkpt lat="37.05229" lon="-3.31678">
        <ele>3257.6</ele>
        <time>2021-08-06 11:06:22</time>
      </trkpt>
      <trkpt lat="37.05229" lon="-3.31678">
        <ele>3257.6</ele>
        <time>2021-08-06 11:06:23</time>
      </trkpt>
      <trkpt lat="37.0523" lon="-3.31677">
        <ele>3257.6</ele>
        <time>2021-08-06 11:06:24</time>
      </trkpt>
      <trkpt lat="37.0523" lon="-3.31677">
        <ele>3257.8</ele>
        <time>2021-08-06 11:06:25</time>
      </trkpt>
      <trkpt lat="37.0523" lon="-3.31676">
        <ele>3258</ele>
        <time>2021-08-06 11:06:26</time>
      </trkpt>
      <trkpt lat="37.0523" lon="-3.31676">
        <ele>3258.2</ele>
        <time>2021-08-06 11:06:27</time>
      </trkpt>
      <trkpt lat="37.0523" lon="-3.31676">
        <ele>3258.4</ele>
        <time>2021-08-06 11:06:28</time>
      </trkpt>
      <trkpt lat="37.05231" lon="-3.31676">
        <ele>3258.4</ele>
        <time>2021-08-06 11:06:29</time>
      </trkpt>
      <trkpt lat="37.05231" lon="-3.31676">
        <ele>3258.6</ele>
        <time>2021-08-06 11:06:30</time>
      </trkpt>
      <trkpt lat="37.05231" lon="-3.31676">
        <ele>3258.8</ele>
        <time>2021-08-06 11:06:31</time>
      </trkpt>
      <trkpt lat="37.05231" lon="-3.31675">
        <ele>3259</ele>
        <time>2021-08-06 11:06:32</time>
      </trkpt>
      <trkpt lat="37.05232" lon="-3.31675">
        <ele>3259.2</ele>
        <time>2021-08-06 11:06:33</time>
      </trkpt>
      <trkpt lat="37.05232" lon="-3.31675">
        <ele>3259.4</ele>
        <time>2021-08-06 11:06:34</time>
      </trkpt>
      <trkpt lat="37.05233" lon="-3.31674">
        <ele>3259.4</ele>
        <time>2021-08-06 11:06:35</time>
      </trkpt>
      <trkpt lat="37.05233" lon="-3.31674">
        <ele>3259.6</ele>
        <time>2021-08-06 11:06:36</time>
      </trkpt>
      <trkpt lat="37.05234" lon="-3.31674">
        <ele>3259.6</ele>
        <time>2021-08-06 11:06:37</time>
      </trkpt>
      <trkpt lat="37.05235" lon="-3.31673">
        <ele>3259.6</ele>
        <time>2021-08-06 11:06:38</time>
      </trkpt>
      <trkpt lat="37.05235" lon="-3.31672">
        <ele>3260</ele>
        <time>2021-08-06 11:06:39</time>
      </trkpt>
      <trkpt lat="37.05235" lon="-3.31672">
        <ele>3260.2</ele>
        <time>2021-08-06 11:06:40</time>
      </trkpt>
      <trkpt lat="37.05235" lon="-3.31672">
        <ele>3260.2</ele>
        <time>2021-08-06 11:06:41</time>
      </trkpt>
      <trkpt lat="37.05235" lon="-3.31672">
        <ele>3260.4</ele>
        <time>2021-08-06 11:06:42</time>
      </trkpt>
      <trkpt lat="37.05235" lon="-3.31671">
        <ele>3260.4</ele>
        <time>2021-08-06 11:06:43</time>
      </trkpt>
      <trkpt lat="37.05234" lon="-3.31671">
        <ele>3260.6</ele>
        <time>2021-08-06 11:06:44</time>
      </trkpt>
      <trkpt lat="37.05234" lon="-3.31671">
        <ele>3260.6</ele>
        <time>2021-08-06 11:06:45</time>
      </trkpt>
      <trkpt lat="37.05234" lon="-3.3167">
        <ele>3260.8</ele>
        <time>2021-08-06 11:06:46</time>
      </trkpt>
      <trkpt lat="37.05234" lon="-3.31669">
        <ele>3261</ele>
        <time>2021-08-06 11:06:47</time>
      </trkpt>
      <trkpt lat="37.05234" lon="-3.31669">
        <ele>3261.2</ele>
        <time>2021-08-06 11:06:48</time>
      </trkpt>
      <trkpt lat="37.05233" lon="-3.31668">
        <ele>3261.4</ele>
        <time>2021-08-06 11:06:49</time>
      </trkpt>
      <trkpt lat="37.05233" lon="-3.31668">
        <ele>3261.4</ele>
        <time>2021-08-06 11:06:50</time>
      </trkpt>
      <trkpt lat="37.05233" lon="-3.31668">
        <ele>3261.4</ele>
        <time>2021-08-06 11:06:51</time>
      </trkpt>
      <trkpt lat="37.05233" lon="-3.31668">
        <ele>3261.6</ele>
        <time>2021-08-06 11:06:52</time>
      </trkpt>
      <trkpt lat="37.05233" lon="-3.31667">
        <ele>3261.8</ele>
        <time>2021-08-06 11:06:53</time>
      </trkpt>
      <trkpt lat="37.05233" lon="-3.31667">
        <ele>3262</ele>
        <time>2021-08-06 11:06:54</time>
      </trkpt>
      <trkpt lat="37.05232" lon="-3.31667">
        <ele>3262.6</ele>
        <time>2021-08-06 11:06:55</time>
      </trkpt>
      <trkpt lat="37.05232" lon="-3.31666">
        <ele>3263</ele>
        <time>2021-08-06 11:06:56</time>
      </trkpt>
      <trkpt lat="37.05232" lon="-3.31666">
        <ele>3263.2</ele>
        <time>2021-08-06 11:06:57</time>
      </trkpt>
      <trkpt lat="37.05232" lon="-3.31665">
        <ele>3263.4</ele>
        <time>2021-08-06 11:06:58</time>
      </trkpt>
      <trkpt lat="37.05232" lon="-3.31665">
        <ele>3263.4</ele>
        <time>2021-08-06 11:06:59</time>
      </trkpt>
      <trkpt lat="37.05232" lon="-3.31665">
        <ele>3263.6</ele>
        <time>2021-08-06 11:07:00</time>
      </trkpt>
      <trkpt lat="37.05231" lon="-3.31665">
        <ele>3263.8</ele>
        <time>2021-08-06 11:07:01</time>
      </trkpt>
      <trkpt lat="37.05231" lon="-3.31664">
        <ele>3263.8</ele>
        <time>2021-08-06 11:07:02</time>
      </trkpt>
      <trkpt lat="37.05231" lon="-3.31664">
        <ele>3264</ele>
        <time>2021-08-06 11:07:03</time>
      </trkpt>
      <trkpt lat="37.05231" lon="-3.31664">
        <ele>3264.2</ele>
        <time>2021-08-06 11:07:04</time>
      </trkpt>
      <trkpt lat="37.0523" lon="-3.31664">
        <ele>3264.6</ele>
        <time>2021-08-06 11:07:05</time>
      </trkpt>
      <trkpt lat="37.0523" lon="-3.31664">
        <ele>3264.8</ele>
        <time>2021-08-06 11:07:06</time>
      </trkpt>
      <trkpt lat="37.0523" lon="-3.31663">
        <ele>3265</ele>
        <time>2021-08-06 11:07:07</time>
      </trkpt>
      <trkpt lat="37.05229" lon="-3.31663">
        <ele>3265.4</ele>
        <time>2021-08-06 11:07:08</time>
      </trkpt>
      <trkpt lat="37.05229" lon="-3.31663">
        <ele>3265.6</ele>
        <time>2021-08-06 11:07:09</time>
      </trkpt>
      <trkpt lat="37.05228" lon="-3.31662">
        <ele>3265.8</ele>
        <time>2021-08-06 11:07:10</time>
      </trkpt>
      <trkpt lat="37.05228" lon="-3.31663">
        <ele>3265.8</ele>
        <time>2021-08-06 11:07:11</time>
      </trkpt>
      <trkpt lat="37.05228" lon="-3.31663">
        <ele>3266</ele>
        <time>2021-08-06 11:07:12</time>
      </trkpt>
      <trkpt lat="37.05227" lon="-3.31663">
        <ele>3266</ele>
        <time>2021-08-06 11:07:13</time>
      </trkpt>
      <trkpt lat="37.05227" lon="-3.31663">
        <ele>3266.2</ele>
        <time>2021-08-06 11:07:14</time>
      </trkpt>
      <trkpt lat="37.05227" lon="-3.31664">
        <ele>3266.4</ele>
        <time>2021-08-06 11:07:15</time>
      </trkpt>
      <trkpt lat="37.05227" lon="-3.31664">
        <ele>3266.4</ele>
        <time>2021-08-06 11:07:16</time>
      </trkpt>
      <trkpt lat="37.05226" lon="-3.31664">
        <ele>3266.4</ele>
        <time>2021-08-06 11:07:17</time>
      </trkpt>
      <trkpt lat="37.05226" lon="-3.31663">
        <ele>3266.6</ele>
        <time>2021-08-06 11:07:18</time>
      </trkpt>
      <trkpt lat="37.05226" lon="-3.31663">
        <ele>3266.6</ele>
        <time>2021-08-06 11:07:19</time>
      </trkpt>
      <trkpt lat="37.05226" lon="-3.31662">
        <ele>3266.8</ele>
        <time>2021-08-06 11:07:20</time>
      </trkpt>
      <trkpt lat="37.05225" lon="-3.31661">
        <ele>3266.8</ele>
        <time>2021-08-06 11:07:21</time>
      </trkpt>
      <trkpt lat="37.05224" lon="-3.31661">
        <ele>3266.8</ele>
        <time>2021-08-06 11:07:22</time>
      </trkpt>
      <trkpt lat="37.05224" lon="-3.3166">
        <ele>3267.2</ele>
        <time>2021-08-06 11:07:23</time>
      </trkpt>
      <trkpt lat="37.05224" lon="-3.31659">
        <ele>3267.6</ele>
        <time>2021-08-06 11:07:24</time>
      </trkpt>
      <trkpt lat="37.05223" lon="-3.31658">
        <ele>3267.8</ele>
        <time>2021-08-06 11:07:25</time>
      </trkpt>
      <trkpt lat="37.05223" lon="-3.31657">
        <ele>3268</ele>
        <time>2021-08-06 11:07:26</time>
      </trkpt>
      <trkpt lat="37.05223" lon="-3.31656">
        <ele>3268</ele>
        <time>2021-08-06 11:07:27</time>
      </trkpt>
      <trkpt lat="37.05222" lon="-3.31656">
        <ele>3268.2</ele>
        <time>2021-08-06 11:07:28</time>
      </trkpt>
      <trkpt lat="37.05222" lon="-3.31656">
        <ele>3268.2</ele>
        <time>2021-08-06 11:07:29</time>
      </trkpt>
      <trkpt lat="37.05222" lon="-3.31656">
        <ele>3268.4</ele>
        <time>2021-08-06 11:07:30</time>
      </trkpt>
      <trkpt lat="37.05222" lon="-3.31656">
        <ele>3268.4</ele>
        <time>2021-08-06 11:07:31</time>
      </trkpt>
      <trkpt lat="37.05223" lon="-3.31656">
        <ele>3268.6</ele>
        <time>2021-08-06 11:07:32</time>
      </trkpt>
      <trkpt lat="37.05223" lon="-3.31655">
        <ele>3268.6</ele>
        <time>2021-08-06 11:07:33</time>
      </trkpt>
      <trkpt lat="37.05223" lon="-3.31655">
        <ele>3268.8</ele>
        <time>2021-08-06 11:07:34</time>
      </trkpt>
      <trkpt lat="37.05223" lon="-3.31654">
        <ele>3268.8</ele>
        <time>2021-08-06 11:07:35</time>
      </trkpt>
      <trkpt lat="37.05224" lon="-3.31654">
        <ele>3269.2</ele>
        <time>2021-08-06 11:07:36</time>
      </trkpt>
      <trkpt lat="37.05225" lon="-3.31653">
        <ele>3269.4</ele>
        <time>2021-08-06 11:07:37</time>
      </trkpt>
      <trkpt lat="37.05225" lon="-3.31653">
        <ele>3269.6</ele>
        <time>2021-08-06 11:07:38</time>
      </trkpt>
      <trkpt lat="37.05225" lon="-3.31653">
        <ele>3269.8</ele>
        <time>2021-08-06 11:07:39</time>
      </trkpt>
      <trkpt lat="37.05225" lon="-3.31653">
        <ele>3270</ele>
        <time>2021-08-06 11:07:40</time>
      </trkpt>
      <trkpt lat="37.05225" lon="-3.31654">
        <ele>3270</ele>
        <time>2021-08-06 11:07:41</time>
      </trkpt>
      <trkpt lat="37.05225" lon="-3.31654">
        <ele>3270</ele>
        <time>2021-08-06 11:07:42</time>
      </trkpt>
      <trkpt lat="37.05225" lon="-3.31653">
        <ele>3269.8</ele>
        <time>2021-08-06 11:07:43</time>
      </trkpt>
      <trkpt lat="37.05226" lon="-3.31654">
        <ele>3269.8</ele>
        <time>2021-08-06 11:07:44</time>
      </trkpt>
      <trkpt lat="37.05225" lon="-3.31653">
        <ele>3269.8</ele>
        <time>2021-08-06 11:07:45</time>
      </trkpt>
      <trkpt lat="37.05225" lon="-3.31653">
        <ele>3270.2</ele>
        <time>2021-08-06 11:07:46</time>
      </trkpt>
      <trkpt lat="37.05225" lon="-3.31652">
        <ele>3270.2</ele>
        <time>2021-08-06 11:07:47</time>
      </trkpt>
      <trkpt lat="37.05226" lon="-3.3165">
        <ele>3270.4</ele>
        <time>2021-08-06 11:07:48</time>
      </trkpt>
      <trkpt lat="37.05226" lon="-3.31649">
        <ele>3270.8</ele>
        <time>2021-08-06 11:07:49</time>
      </trkpt>
      <trkpt lat="37.05226" lon="-3.31648">
        <ele>3271</ele>
        <time>2021-08-06 11:07:50</time>
      </trkpt>
      <trkpt lat="37.05226" lon="-3.31648">
        <ele>3271.2</ele>
        <time>2021-08-06 11:07:51</time>
      </trkpt>
      <trkpt lat="37.05226" lon="-3.31647">
        <ele>3271.4</ele>
        <time>2021-08-06 11:07:52</time>
      </trkpt>
      <trkpt lat="37.05226" lon="-3.31647">
        <ele>3271.4</ele>
        <time>2021-08-06 11:07:53</time>
      </trkpt>
      <trkpt lat="37.05225" lon="-3.31647">
        <ele>3271.6</ele>
        <time>2021-08-06 11:07:54</time>
      </trkpt>
      <trkpt lat="37.05225" lon="-3.31647">
        <ele>3271.6</ele>
        <time>2021-08-06 11:07:55</time>
      </trkpt>
      <trkpt lat="37.05224" lon="-3.31647">
        <ele>3272</ele>
        <time>2021-08-06 11:07:56</time>
      </trkpt>
      <trkpt lat="37.05224" lon="-3.31646">
        <ele>3272.2</ele>
        <time>2021-08-06 11:07:57</time>
      </trkpt>
      <trkpt lat="37.05224" lon="-3.31646">
        <ele>3272.4</ele>
        <time>2021-08-06 11:07:58</time>
      </trkpt>
      <trkpt lat="37.05224" lon="-3.31646">
        <ele>3272.6</ele>
        <time>2021-08-06 11:07:59</time>
      </trkpt>
      <trkpt lat="37.05223" lon="-3.31646">
        <ele>3273</ele>
        <time>2021-08-06 11:08:00</time>
      </trkpt>
      <trkpt lat="37.05222" lon="-3.31646">
        <ele>3273.2</ele>
        <time>2021-08-06 11:08:01</time>
      </trkpt>
      <trkpt lat="37.05221" lon="-3.31646">
        <ele>3273.4</ele>
        <time>2021-08-06 11:08:02</time>
      </trkpt>
      <trkpt lat="37.05221" lon="-3.31646">
        <ele>3273.6</ele>
        <time>2021-08-06 11:08:03</time>
      </trkpt>
      <trkpt lat="37.0522" lon="-3.31646">
        <ele>3273.8</ele>
        <time>2021-08-06 11:08:04</time>
      </trkpt>
      <trkpt lat="37.0522" lon="-3.31645">
        <ele>3274</ele>
        <time>2021-08-06 11:08:05</time>
      </trkpt>
      <trkpt lat="37.05219" lon="-3.31645">
        <ele>3274</ele>
        <time>2021-08-06 11:08:06</time>
      </trkpt>
      <trkpt lat="37.05219" lon="-3.31645">
        <ele>3274.2</ele>
        <time>2021-08-06 11:08:07</time>
      </trkpt>
      <trkpt lat="37.05219" lon="-3.31645">
        <ele>3274.6</ele>
        <time>2021-08-06 11:08:08</time>
      </trkpt>
      <trkpt lat="37.05219" lon="-3.31644">
        <ele>3274.8</ele>
        <time>2021-08-06 11:08:09</time>
      </trkpt>
      <trkpt lat="37.05219" lon="-3.31644">
        <ele>3275</ele>
        <time>2021-08-06 11:08:10</time>
      </trkpt>
      <trkpt lat="37.05219" lon="-3.31643">
        <ele>3275.2</ele>
        <time>2021-08-06 11:08:11</time>
      </trkpt>
      <trkpt lat="37.05219" lon="-3.31643">
        <ele>3275.2</ele>
        <time>2021-08-06 11:08:12</time>
      </trkpt>
      <trkpt lat="37.05218" lon="-3.31643">
        <ele>3275.4</ele>
        <time>2021-08-06 11:08:13</time>
      </trkpt>
      <trkpt lat="37.05218" lon="-3.31643">
        <ele>3275.4</ele>
        <time>2021-08-06 11:08:14</time>
      </trkpt>
      <trkpt lat="37.05218" lon="-3.31642">
        <ele>3275.4</ele>
        <time>2021-08-06 11:08:15</time>
      </trkpt>
      <trkpt lat="37.05218" lon="-3.31642">
        <ele>3275.6</ele>
        <time>2021-08-06 11:08:16</time>
      </trkpt>
      <trkpt lat="37.05217" lon="-3.31641">
        <ele>3276</ele>
        <time>2021-08-06 11:08:17</time>
      </trkpt>
      <trkpt lat="37.05217" lon="-3.31641">
        <ele>3276.2</ele>
        <time>2021-08-06 11:08:18</time>
      </trkpt>
      <trkpt lat="37.05217" lon="-3.3164">
        <ele>3276.2</ele>
        <time>2021-08-06 11:08:19</time>
      </trkpt>
      <trkpt lat="37.05217" lon="-3.3164">
        <ele>3276.2</ele>
        <time>2021-08-06 11:08:20</time>
      </trkpt>
      <trkpt lat="37.05217" lon="-3.31639">
        <ele>3276.4</ele>
        <time>2021-08-06 11:08:21</time>
      </trkpt>
      <trkpt lat="37.05216" lon="-3.31638">
        <ele>3276.4</ele>
        <time>2021-08-06 11:08:22</time>
      </trkpt>
      <trkpt lat="37.05216" lon="-3.31638">
        <ele>3276.4</ele>
        <time>2021-08-06 11:08:23</time>
      </trkpt>
      <trkpt lat="37.05216" lon="-3.31637">
        <ele>3276.6</ele>
        <time>2021-08-06 11:08:24</time>
      </trkpt>
      <trkpt lat="37.05216" lon="-3.31637">
        <ele>3276.6</ele>
        <time>2021-08-06 11:08:25</time>
      </trkpt>
      <trkpt lat="37.05216" lon="-3.31637">
        <ele>3276.8</ele>
        <time>2021-08-06 11:08:26</time>
      </trkpt>
      <trkpt lat="37.05216" lon="-3.31636">
        <ele>3277</ele>
        <time>2021-08-06 11:08:27</time>
      </trkpt>
      <trkpt lat="37.05216" lon="-3.31636">
        <ele>3277</ele>
        <time>2021-08-06 11:08:28</time>
      </trkpt>
      <trkpt lat="37.05216" lon="-3.31636">
        <ele>3277</ele>
        <time>2021-08-06 11:08:29</time>
      </trkpt>
      <trkpt lat="37.05217" lon="-3.31636">
        <ele>3277.2</ele>
        <time>2021-08-06 11:08:30</time>
      </trkpt>
      <trkpt lat="37.05217" lon="-3.31635">
        <ele>3277.4</ele>
        <time>2021-08-06 11:08:31</time>
      </trkpt>
      <trkpt lat="37.05217" lon="-3.31635">
        <ele>3277.6</ele>
        <time>2021-08-06 11:08:32</time>
      </trkpt>
      <trkpt lat="37.05217" lon="-3.31634">
        <ele>3277.6</ele>
        <time>2021-08-06 11:08:33</time>
      </trkpt>
      <trkpt lat="37.05217" lon="-3.31634">
        <ele>3277.8</ele>
        <time>2021-08-06 11:08:34</time>
      </trkpt>
      <trkpt lat="37.05217" lon="-3.31634">
        <ele>3278</ele>
        <time>2021-08-06 11:08:35</time>
      </trkpt>
      <trkpt lat="37.05217" lon="-3.31633">
        <ele>3278.2</ele>
        <time>2021-08-06 11:08:36</time>
      </trkpt>
      <trkpt lat="37.05217" lon="-3.31633">
        <ele>3278.2</ele>
        <time>2021-08-06 11:08:37</time>
      </trkpt>
      <trkpt lat="37.05217" lon="-3.31633">
        <ele>3278.4</ele>
        <time>2021-08-06 11:08:38</time>
      </trkpt>
      <trkpt lat="37.05217" lon="-3.31632">
        <ele>3278.4</ele>
        <time>2021-08-06 11:08:39</time>
      </trkpt>
      <trkpt lat="37.05217" lon="-3.31632">
        <ele>3278.6</ele>
        <time>2021-08-06 11:08:40</time>
      </trkpt>
      <trkpt lat="37.05217" lon="-3.31632">
        <ele>3278.8</ele>
        <time>2021-08-06 11:08:41</time>
      </trkpt>
      <trkpt lat="37.05217" lon="-3.31631">
        <ele>3278.8</ele>
        <time>2021-08-06 11:08:42</time>
      </trkpt>
      <trkpt lat="37.05217" lon="-3.31631">
        <ele>3279</ele>
        <time>2021-08-06 11:08:43</time>
      </trkpt>
      <trkpt lat="37.05217" lon="-3.3163">
        <ele>3279</ele>
        <time>2021-08-06 11:08:44</time>
      </trkpt>
      <trkpt lat="37.05217" lon="-3.3163">
        <ele>3279.2</ele>
        <time>2021-08-06 11:08:45</time>
      </trkpt>
      <trkpt lat="37.05217" lon="-3.31629">
        <ele>3279.2</ele>
        <time>2021-08-06 11:08:46</time>
      </trkpt>
      <trkpt lat="37.05217" lon="-3.31628">
        <ele>3279.4</ele>
        <time>2021-08-06 11:08:47</time>
      </trkpt>
      <trkpt lat="37.05217" lon="-3.31628">
        <ele>3279.4</ele>
        <time>2021-08-06 11:08:48</time>
      </trkpt>
      <trkpt lat="37.05217" lon="-3.31627">
        <ele>3279.4</ele>
        <time>2021-08-06 11:08:49</time>
      </trkpt>
      <trkpt lat="37.05217" lon="-3.31627">
        <ele>3279.4</ele>
        <time>2021-08-06 11:08:50</time>
      </trkpt>
      <trkpt lat="37.05217" lon="-3.31626">
        <ele>3279.6</ele>
        <time>2021-08-06 11:08:51</time>
      </trkpt>
      <trkpt lat="37.05217" lon="-3.31626">
        <ele>3279.8</ele>
        <time>2021-08-06 11:08:52</time>
      </trkpt>
      <trkpt lat="37.05217" lon="-3.31625">
        <ele>3280.2</ele>
        <time>2021-08-06 11:08:53</time>
      </trkpt>
      <trkpt lat="37.05217" lon="-3.31625">
        <ele>3280.4</ele>
        <time>2021-08-06 11:08:54</time>
      </trkpt>
      <trkpt lat="37.05217" lon="-3.31625">
        <ele>3280.6</ele>
        <time>2021-08-06 11:08:55</time>
      </trkpt>
      <trkpt lat="37.05217" lon="-3.31624">
        <ele>3280.8</ele>
        <time>2021-08-06 11:08:56</time>
      </trkpt>
      <trkpt lat="37.05217" lon="-3.31624">
        <ele>3281.2</ele>
        <time>2021-08-06 11:08:57</time>
      </trkpt>
      <trkpt lat="37.05217" lon="-3.31624">
        <ele>3281.4</ele>
        <time>2021-08-06 11:08:58</time>
      </trkpt>
      <trkpt lat="37.05216" lon="-3.31624">
        <ele>3281.4</ele>
        <time>2021-08-06 11:08:59</time>
      </trkpt>
      <trkpt lat="37.05216" lon="-3.31624">
        <ele>3281.8</ele>
        <time>2021-08-06 11:09:00</time>
      </trkpt>
      <trkpt lat="37.05215" lon="-3.31623">
        <ele>3282</ele>
        <time>2021-08-06 11:09:01</time>
      </trkpt>
      <trkpt lat="37.05215" lon="-3.31623">
        <ele>3282.2</ele>
        <time>2021-08-06 11:09:02</time>
      </trkpt>
      <trkpt lat="37.05215" lon="-3.31622">
        <ele>3282.4</ele>
        <time>2021-08-06 11:09:03</time>
      </trkpt>
      <trkpt lat="37.05215" lon="-3.31621">
        <ele>3282.6</ele>
        <time>2021-08-06 11:09:04</time>
      </trkpt>
      <trkpt lat="37.05214" lon="-3.31621">
        <ele>3282.8</ele>
        <time>2021-08-06 11:09:05</time>
      </trkpt>
      <trkpt lat="37.05213" lon="-3.31622">
        <ele>3282.8</ele>
        <time>2021-08-06 11:09:06</time>
      </trkpt>
      <trkpt lat="37.05213" lon="-3.31622">
        <ele>3283</ele>
        <time>2021-08-06 11:09:07</time>
      </trkpt>
      <trkpt lat="37.05213" lon="-3.31622">
        <ele>3283</ele>
        <time>2021-08-06 11:09:08</time>
      </trkpt>
      <trkpt lat="37.05213" lon="-3.31622">
        <ele>3283</ele>
        <time>2021-08-06 11:09:09</time>
      </trkpt>
      <trkpt lat="37.05213" lon="-3.31622">
        <ele>3283</ele>
        <time>2021-08-06 11:09:10</time>
      </trkpt>
      <trkpt lat="37.05212" lon="-3.31623">
        <ele>3283</ele>
        <time>2021-08-06 11:09:11</time>
      </trkpt>
      <trkpt lat="37.05212" lon="-3.31623">
        <ele>3283</ele>
        <time>2021-08-06 11:09:12</time>
      </trkpt>
      <trkpt lat="37.05212" lon="-3.31622">
        <ele>3283</ele>
        <time>2021-08-06 11:09:13</time>
      </trkpt>
      <trkpt lat="37.05212" lon="-3.31622">
        <ele>3283</ele>
        <time>2021-08-06 11:09:14</time>
      </trkpt>
      <trkpt lat="37.05212" lon="-3.31621">
        <ele>3283.4</ele>
        <time>2021-08-06 11:09:15</time>
      </trkpt>
      <trkpt lat="37.05212" lon="-3.31621">
        <ele>3283.6</ele>
        <time>2021-08-06 11:09:16</time>
      </trkpt>
      <trkpt lat="37.05212" lon="-3.3162">
        <ele>3283.8</ele>
        <time>2021-08-06 11:09:17</time>
      </trkpt>
      <trkpt lat="37.05212" lon="-3.3162">
        <ele>3284</ele>
        <time>2021-08-06 11:09:18</time>
      </trkpt>
      <trkpt lat="37.05212" lon="-3.31619">
        <ele>3284.2</ele>
        <time>2021-08-06 11:09:19</time>
      </trkpt>
      <trkpt lat="37.05212" lon="-3.31618">
        <ele>3284.2</ele>
        <time>2021-08-06 11:09:20</time>
      </trkpt>
      <trkpt lat="37.05211" lon="-3.31618">
        <ele>3284.4</ele>
        <time>2021-08-06 11:09:21</time>
      </trkpt>
      <trkpt lat="37.05211" lon="-3.31617">
        <ele>3284.6</ele>
        <time>2021-08-06 11:09:22</time>
      </trkpt>
      <trkpt lat="37.05211" lon="-3.31617">
        <ele>3284.8</ele>
        <time>2021-08-06 11:09:23</time>
      </trkpt>
      <trkpt lat="37.05211" lon="-3.31617">
        <ele>3284.8</ele>
        <time>2021-08-06 11:09:24</time>
      </trkpt>
      <trkpt lat="37.05211" lon="-3.31616">
        <ele>3285</ele>
        <time>2021-08-06 11:09:25</time>
      </trkpt>
      <trkpt lat="37.05211" lon="-3.31616">
        <ele>3285</ele>
        <time>2021-08-06 11:09:26</time>
      </trkpt>
      <trkpt lat="37.0521" lon="-3.31616">
        <ele>3285.2</ele>
        <time>2021-08-06 11:09:27</time>
      </trkpt>
      <trkpt lat="37.0521" lon="-3.31616">
        <ele>3285.6</ele>
        <time>2021-08-06 11:09:28</time>
      </trkpt>
      <trkpt lat="37.0521" lon="-3.31616">
        <ele>3285.8</ele>
        <time>2021-08-06 11:09:29</time>
      </trkpt>
      <trkpt lat="37.0521" lon="-3.31615">
        <ele>3285.8</ele>
        <time>2021-08-06 11:09:30</time>
      </trkpt>
      <trkpt lat="37.0521" lon="-3.31615">
        <ele>3286</ele>
        <time>2021-08-06 11:09:31</time>
      </trkpt>
      <trkpt lat="37.0521" lon="-3.31614">
        <ele>3286</ele>
        <time>2021-08-06 11:09:32</time>
      </trkpt>
      <trkpt lat="37.0521" lon="-3.31614">
        <ele>3286.2</ele>
        <time>2021-08-06 11:09:33</time>
      </trkpt>
      <trkpt lat="37.05211" lon="-3.31613">
        <ele>3286.2</ele>
        <time>2021-08-06 11:09:34</time>
      </trkpt>
      <trkpt lat="37.05211" lon="-3.31613">
        <ele>3286.2</ele>
        <time>2021-08-06 11:09:35</time>
      </trkpt>
      <trkpt lat="37.05211" lon="-3.31612">
        <ele>3286.4</ele>
        <time>2021-08-06 11:09:36</time>
      </trkpt>
      <trkpt lat="37.05212" lon="-3.31612">
        <ele>3286.6</ele>
        <time>2021-08-06 11:09:37</time>
      </trkpt>
      <trkpt lat="37.05212" lon="-3.31612">
        <ele>3286.8</ele>
        <time>2021-08-06 11:09:38</time>
      </trkpt>
      <trkpt lat="37.05212" lon="-3.31612">
        <ele>3287.2</ele>
        <time>2021-08-06 11:09:39</time>
      </trkpt>
      <trkpt lat="37.05212" lon="-3.31612">
        <ele>3287.4</ele>
        <time>2021-08-06 11:09:40</time>
      </trkpt>
      <trkpt lat="37.05212" lon="-3.31612">
        <ele>3287.6</ele>
        <time>2021-08-06 11:09:41</time>
      </trkpt>
      <trkpt lat="37.05212" lon="-3.31612">
        <ele>3287.8</ele>
        <time>2021-08-06 11:09:42</time>
      </trkpt>
      <trkpt lat="37.05213" lon="-3.31611">
        <ele>3288</ele>
        <time>2021-08-06 11:09:43</time>
      </trkpt>
      <trkpt lat="37.05213" lon="-3.31611">
        <ele>3288</ele>
        <time>2021-08-06 11:09:44</time>
      </trkpt>
      <trkpt lat="37.05213" lon="-3.3161">
        <ele>3288.2</ele>
        <time>2021-08-06 11:09:45</time>
      </trkpt>
      <trkpt lat="37.05214" lon="-3.3161">
        <ele>3288.4</ele>
        <time>2021-08-06 11:09:46</time>
      </trkpt>
      <trkpt lat="37.05215" lon="-3.31609">
        <ele>3288.6</ele>
        <time>2021-08-06 11:09:47</time>
      </trkpt>
      <trkpt lat="37.05215" lon="-3.31609">
        <ele>3288.6</ele>
        <time>2021-08-06 11:09:48</time>
      </trkpt>
      <trkpt lat="37.05215" lon="-3.31609">
        <ele>3288.6</ele>
        <time>2021-08-06 11:09:49</time>
      </trkpt>
      <trkpt lat="37.05215" lon="-3.31609">
        <ele>3288.8</ele>
        <time>2021-08-06 11:09:50</time>
      </trkpt>
      <trkpt lat="37.05214" lon="-3.31608">
        <ele>3289</ele>
        <time>2021-08-06 11:09:51</time>
      </trkpt>
      <trkpt lat="37.05214" lon="-3.31607">
        <ele>3289.2</ele>
        <time>2021-08-06 11:09:52</time>
      </trkpt>
      <trkpt lat="37.05214" lon="-3.31607">
        <ele>3289.4</ele>
        <time>2021-08-06 11:09:53</time>
      </trkpt>
      <trkpt lat="37.05213" lon="-3.31606">
        <ele>3289.4</ele>
        <time>2021-08-06 11:09:54</time>
      </trkpt>
      <trkpt lat="37.05213" lon="-3.31606">
        <ele>3289.4</ele>
        <time>2021-08-06 11:09:55</time>
      </trkpt>
      <trkpt lat="37.05213" lon="-3.31607">
        <ele>3289.4</ele>
        <time>2021-08-06 11:09:56</time>
      </trkpt>
      <trkpt lat="37.05213" lon="-3.31606">
        <ele>3289.4</ele>
        <time>2021-08-06 11:09:57</time>
      </trkpt>
      <trkpt lat="37.05215" lon="-3.31606">
        <ele>3289.6</ele>
        <time>2021-08-06 11:09:58</time>
      </trkpt>
      <trkpt lat="37.05215" lon="-3.31605">
        <ele>3289.8</ele>
        <time>2021-08-06 11:09:59</time>
      </trkpt>
      <trkpt lat="37.05215" lon="-3.31604">
        <ele>3290</ele>
        <time>2021-08-06 11:10:00</time>
      </trkpt>
      <trkpt lat="37.05215" lon="-3.31604">
        <ele>3290.2</ele>
        <time>2021-08-06 11:10:01</time>
      </trkpt>
      <trkpt lat="37.05215" lon="-3.31604">
        <ele>3290.4</ele>
        <time>2021-08-06 11:10:02</time>
      </trkpt>
      <trkpt lat="37.05215" lon="-3.31603">
        <ele>3290.6</ele>
        <time>2021-08-06 11:10:03</time>
      </trkpt>
      <trkpt lat="37.05215" lon="-3.31603">
        <ele>3290.8</ele>
        <time>2021-08-06 11:10:04</time>
      </trkpt>
      <trkpt lat="37.05214" lon="-3.31603">
        <ele>3290.8</ele>
        <time>2021-08-06 11:10:05</time>
      </trkpt>
      <trkpt lat="37.05214" lon="-3.31603">
        <ele>3290.8</ele>
        <time>2021-08-06 11:10:06</time>
      </trkpt>
      <trkpt lat="37.05213" lon="-3.31603">
        <ele>3291</ele>
        <time>2021-08-06 11:10:07</time>
      </trkpt>
      <trkpt lat="37.05213" lon="-3.31603">
        <ele>3291</ele>
        <time>2021-08-06 11:10:08</time>
      </trkpt>
      <trkpt lat="37.05212" lon="-3.31603">
        <ele>3291.2</ele>
        <time>2021-08-06 11:10:09</time>
      </trkpt>
      <trkpt lat="37.05212" lon="-3.31602">
        <ele>3291.6</ele>
        <time>2021-08-06 11:10:10</time>
      </trkpt>
      <trkpt lat="37.05211" lon="-3.31602">
        <ele>3291.8</ele>
        <time>2021-08-06 11:10:11</time>
      </trkpt>
      <trkpt lat="37.05211" lon="-3.31602">
        <ele>3292</ele>
        <time>2021-08-06 11:10:12</time>
      </trkpt>
      <trkpt lat="37.05211" lon="-3.31602">
        <ele>3292.2</ele>
        <time>2021-08-06 11:10:13</time>
      </trkpt>
      <trkpt lat="37.0521" lon="-3.31602">
        <ele>3292.4</ele>
        <time>2021-08-06 11:10:14</time>
      </trkpt>
      <trkpt lat="37.0521" lon="-3.31602">
        <ele>3292.4</ele>
        <time>2021-08-06 11:10:15</time>
      </trkpt>
      <trkpt lat="37.0521" lon="-3.31602">
        <ele>3292.6</ele>
        <time>2021-08-06 11:10:16</time>
      </trkpt>
      <trkpt lat="37.0521" lon="-3.31601">
        <ele>3292.6</ele>
        <time>2021-08-06 11:10:17</time>
      </trkpt>
      <trkpt lat="37.05209" lon="-3.31601">
        <ele>3292.8</ele>
        <time>2021-08-06 11:10:18</time>
      </trkpt>
      <trkpt lat="37.05209" lon="-3.316">
        <ele>3293.2</ele>
        <time>2021-08-06 11:10:19</time>
      </trkpt>
      <trkpt lat="37.05208" lon="-3.316">
        <ele>3293.6</ele>
        <time>2021-08-06 11:10:20</time>
      </trkpt>
      <trkpt lat="37.05208" lon="-3.316">
        <ele>3293.6</ele>
        <time>2021-08-06 11:10:21</time>
      </trkpt>
      <trkpt lat="37.05208" lon="-3.31599">
        <ele>3293.8</ele>
        <time>2021-08-06 11:10:22</time>
      </trkpt>
      <trkpt lat="37.05208" lon="-3.31599">
        <ele>3293.8</ele>
        <time>2021-08-06 11:10:23</time>
      </trkpt>
      <trkpt lat="37.05208" lon="-3.31598">
        <ele>3293.8</ele>
        <time>2021-08-06 11:10:24</time>
      </trkpt>
      <trkpt lat="37.05208" lon="-3.31597">
        <ele>3293.8</ele>
        <time>2021-08-06 11:10:25</time>
      </trkpt>
      <trkpt lat="37.05209" lon="-3.31597">
        <ele>3293.8</ele>
        <time>2021-08-06 11:10:26</time>
      </trkpt>
      <trkpt lat="37.05208" lon="-3.31596">
        <ele>3294</ele>
        <time>2021-08-06 11:10:27</time>
      </trkpt>
      <trkpt lat="37.05208" lon="-3.31596">
        <ele>3294.2</ele>
        <time>2021-08-06 11:10:28</time>
      </trkpt>
      <trkpt lat="37.05208" lon="-3.31596">
        <ele>3294.4</ele>
        <time>2021-08-06 11:10:29</time>
      </trkpt>
      <trkpt lat="37.05209" lon="-3.31596">
        <ele>3294.6</ele>
        <time>2021-08-06 11:10:30</time>
      </trkpt>
      <trkpt lat="37.05209" lon="-3.31595">
        <ele>3294.6</ele>
        <time>2021-08-06 11:10:31</time>
      </trkpt>
      <trkpt lat="37.0521" lon="-3.31596">
        <ele>3294.8</ele>
        <time>2021-08-06 11:10:32</time>
      </trkpt>
      <trkpt lat="37.0521" lon="-3.31595">
        <ele>3295</ele>
        <time>2021-08-06 11:10:33</time>
      </trkpt>
      <trkpt lat="37.0521" lon="-3.31595">
        <ele>3295</ele>
        <time>2021-08-06 11:10:34</time>
      </trkpt>
      <trkpt lat="37.0521" lon="-3.31595">
        <ele>3295</ele>
        <time>2021-08-06 11:10:35</time>
      </trkpt>
      <trkpt lat="37.05211" lon="-3.31594">
        <ele>3295</ele>
        <time>2021-08-06 11:10:36</time>
      </trkpt>
      <trkpt lat="37.05211" lon="-3.31593">
        <ele>3295</ele>
        <time>2021-08-06 11:10:37</time>
      </trkpt>
      <trkpt lat="37.05211" lon="-3.31593">
        <ele>3295</ele>
        <time>2021-08-06 11:10:38</time>
      </trkpt>
      <trkpt lat="37.05212" lon="-3.31593">
        <ele>3295</ele>
        <time>2021-08-06 11:10:39</time>
      </trkpt>
      <trkpt lat="37.05212" lon="-3.31592">
        <ele>3295.2</ele>
        <time>2021-08-06 11:10:40</time>
      </trkpt>
      <trkpt lat="37.05212" lon="-3.31592">
        <ele>3295.6</ele>
        <time>2021-08-06 11:10:41</time>
      </trkpt>
      <trkpt lat="37.05212" lon="-3.31591">
        <ele>3295.8</ele>
        <time>2021-08-06 11:10:42</time>
      </trkpt>
      <trkpt lat="37.05212" lon="-3.31591">
        <ele>3296</ele>
        <time>2021-08-06 11:10:43</time>
      </trkpt>
      <trkpt lat="37.05213" lon="-3.31591">
        <ele>3296</ele>
        <time>2021-08-06 11:10:44</time>
      </trkpt>
      <trkpt lat="37.05213" lon="-3.3159">
        <ele>3296.2</ele>
        <time>2021-08-06 11:10:45</time>
      </trkpt>
      <trkpt lat="37.05213" lon="-3.3159">
        <ele>3296.4</ele>
        <time>2021-08-06 11:10:46</time>
      </trkpt>
      <trkpt lat="37.05213" lon="-3.3159">
        <ele>3296.4</ele>
        <time>2021-08-06 11:10:47</time>
      </trkpt>
      <trkpt lat="37.05212" lon="-3.31589">
        <ele>3296.4</ele>
        <time>2021-08-06 11:10:48</time>
      </trkpt>
      <trkpt lat="37.05212" lon="-3.31589">
        <ele>3296.6</ele>
        <time>2021-08-06 11:10:49</time>
      </trkpt>
      <trkpt lat="37.05211" lon="-3.31589">
        <ele>3296.8</ele>
        <time>2021-08-06 11:10:50</time>
      </trkpt>
      <trkpt lat="37.05211" lon="-3.31589">
        <ele>3297</ele>
        <time>2021-08-06 11:10:51</time>
      </trkpt>
      <trkpt lat="37.05211" lon="-3.31589">
        <ele>3297.2</ele>
        <time>2021-08-06 11:10:52</time>
      </trkpt>
      <trkpt lat="37.0521" lon="-3.31588">
        <ele>3297.6</ele>
        <time>2021-08-06 11:10:53</time>
      </trkpt>
      <trkpt lat="37.0521" lon="-3.31587">
        <ele>3297.8</ele>
        <time>2021-08-06 11:10:54</time>
      </trkpt>
      <trkpt lat="37.05209" lon="-3.31587">
        <ele>3297.8</ele>
        <time>2021-08-06 11:10:55</time>
      </trkpt>
      <trkpt lat="37.05209" lon="-3.31587">
        <ele>3298.2</ele>
        <time>2021-08-06 11:10:56</time>
      </trkpt>
      <trkpt lat="37.05209" lon="-3.31587">
        <ele>3298.4</ele>
        <time>2021-08-06 11:10:57</time>
      </trkpt>
      <trkpt lat="37.05208" lon="-3.31586">
        <ele>3298.4</ele>
        <time>2021-08-06 11:10:58</time>
      </trkpt>
      <trkpt lat="37.05208" lon="-3.31585">
        <ele>3298.6</ele>
        <time>2021-08-06 11:10:59</time>
      </trkpt>
      <trkpt lat="37.05207" lon="-3.31585">
        <ele>3298.8</ele>
        <time>2021-08-06 11:11:00</time>
      </trkpt>
      <trkpt lat="37.05207" lon="-3.31585">
        <ele>3299</ele>
        <time>2021-08-06 11:11:01</time>
      </trkpt>
      <trkpt lat="37.05207" lon="-3.31585">
        <ele>3299</ele>
        <time>2021-08-06 11:11:02</time>
      </trkpt>
      <trkpt lat="37.05207" lon="-3.31584">
        <ele>3299.2</ele>
        <time>2021-08-06 11:11:03</time>
      </trkpt>
      <trkpt lat="37.05207" lon="-3.31584">
        <ele>3299.2</ele>
        <time>2021-08-06 11:11:04</time>
      </trkpt>
      <trkpt lat="37.05206" lon="-3.31584">
        <ele>3299.2</ele>
        <time>2021-08-06 11:11:05</time>
      </trkpt>
      <trkpt lat="37.05206" lon="-3.31584">
        <ele>3299.2</ele>
        <time>2021-08-06 11:11:06</time>
      </trkpt>
      <trkpt lat="37.05206" lon="-3.31583">
        <ele>3299.4</ele>
        <time>2021-08-06 11:11:07</time>
      </trkpt>
      <trkpt lat="37.05205" lon="-3.31583">
        <ele>3299.4</ele>
        <time>2021-08-06 11:11:08</time>
      </trkpt>
      <trkpt lat="37.05205" lon="-3.31583">
        <ele>3299.4</ele>
        <time>2021-08-06 11:11:09</time>
      </trkpt>
      <trkpt lat="37.05205" lon="-3.31583">
        <ele>3299.6</ele>
        <time>2021-08-06 11:11:10</time>
      </trkpt>
      <trkpt lat="37.05204" lon="-3.31583">
        <ele>3299.6</ele>
        <time>2021-08-06 11:11:11</time>
      </trkpt>
      <trkpt lat="37.05204" lon="-3.31582">
        <ele>3299.6</ele>
        <time>2021-08-06 11:11:12</time>
      </trkpt>
      <trkpt lat="37.05203" lon="-3.31582">
        <ele>3299.6</ele>
        <time>2021-08-06 11:11:13</time>
      </trkpt>
      <trkpt lat="37.05203" lon="-3.31582">
        <ele>3299.8</ele>
        <time>2021-08-06 11:11:14</time>
      </trkpt>
      <trkpt lat="37.05203" lon="-3.31581">
        <ele>3299.8</ele>
        <time>2021-08-06 11:11:15</time>
      </trkpt>
      <trkpt lat="37.05203" lon="-3.31581">
        <ele>3299.8</ele>
        <time>2021-08-06 11:11:16</time>
      </trkpt>
      <trkpt lat="37.05203" lon="-3.31581">
        <ele>3300</ele>
        <time>2021-08-06 11:11:17</time>
      </trkpt>
      <trkpt lat="37.05202" lon="-3.31581">
        <ele>3300.2</ele>
        <time>2021-08-06 11:11:18</time>
      </trkpt>
      <trkpt lat="37.05202" lon="-3.3158">
        <ele>3300.4</ele>
        <time>2021-08-06 11:11:19</time>
      </trkpt>
      <trkpt lat="37.05201" lon="-3.31579">
        <ele>3300.6</ele>
        <time>2021-08-06 11:11:20</time>
      </trkpt>
      <trkpt lat="37.052" lon="-3.31579">
        <ele>3300.6</ele>
        <time>2021-08-06 11:11:21</time>
      </trkpt>
      <trkpt lat="37.05199" lon="-3.31579">
        <ele>3300.6</ele>
        <time>2021-08-06 11:11:22</time>
      </trkpt>
      <trkpt lat="37.05199" lon="-3.31579">
        <ele>3300.6</ele>
        <time>2021-08-06 11:11:23</time>
      </trkpt>
      <trkpt lat="37.05199" lon="-3.31579">
        <ele>3300.6</ele>
        <time>2021-08-06 11:11:24</time>
      </trkpt>
      <trkpt lat="37.05198" lon="-3.31579">
        <ele>3300.8</ele>
        <time>2021-08-06 11:11:25</time>
      </trkpt>
      <trkpt lat="37.05198" lon="-3.31579">
        <ele>3300.8</ele>
        <time>2021-08-06 11:11:26</time>
      </trkpt>
      <trkpt lat="37.05198" lon="-3.31579">
        <ele>3301</ele>
        <time>2021-08-06 11:11:27</time>
      </trkpt>
      <trkpt lat="37.05197" lon="-3.31579">
        <ele>3301</ele>
        <time>2021-08-06 11:11:28</time>
      </trkpt>
      <trkpt lat="37.05197" lon="-3.31579">
        <ele>3301</ele>
        <time>2021-08-06 11:11:29</time>
      </trkpt>
      <trkpt lat="37.05197" lon="-3.31578">
        <ele>3301.4</ele>
        <time>2021-08-06 11:11:30</time>
      </trkpt>
      <trkpt lat="37.05196" lon="-3.31578">
        <ele>3301.6</ele>
        <time>2021-08-06 11:11:31</time>
      </trkpt>
      <trkpt lat="37.05196" lon="-3.31577">
        <ele>3301.8</ele>
        <time>2021-08-06 11:11:32</time>
      </trkpt>
      <trkpt lat="37.05196" lon="-3.31576">
        <ele>3302</ele>
        <time>2021-08-06 11:11:33</time>
      </trkpt>
      <trkpt lat="37.05196" lon="-3.31576">
        <ele>3302.2</ele>
        <time>2021-08-06 11:11:34</time>
      </trkpt>
      <trkpt lat="37.05196" lon="-3.31576">
        <ele>3302.4</ele>
        <time>2021-08-06 11:11:35</time>
      </trkpt>
      <trkpt lat="37.05197" lon="-3.31575">
        <ele>3302.4</ele>
        <time>2021-08-06 11:11:36</time>
      </trkpt>
      <trkpt lat="37.05197" lon="-3.31574">
        <ele>3302.4</ele>
        <time>2021-08-06 11:11:37</time>
      </trkpt>
      <trkpt lat="37.05197" lon="-3.31574">
        <ele>3302.6</ele>
        <time>2021-08-06 11:11:38</time>
      </trkpt>
      <trkpt lat="37.05197" lon="-3.31574">
        <ele>3302.8</ele>
        <time>2021-08-06 11:11:39</time>
      </trkpt>
      <trkpt lat="37.05197" lon="-3.31574">
        <ele>3302.8</ele>
        <time>2021-08-06 11:11:40</time>
      </trkpt>
      <trkpt lat="37.05198" lon="-3.31574">
        <ele>3302.8</ele>
        <time>2021-08-06 11:11:41</time>
      </trkpt>
      <trkpt lat="37.05198" lon="-3.31573">
        <ele>3303</ele>
        <time>2021-08-06 11:11:42</time>
      </trkpt>
      <trkpt lat="37.05198" lon="-3.31573">
        <ele>3303.2</ele>
        <time>2021-08-06 11:11:43</time>
      </trkpt>
      <trkpt lat="37.05198" lon="-3.31573">
        <ele>3303.4</ele>
        <time>2021-08-06 11:11:44</time>
      </trkpt>
      <trkpt lat="37.05198" lon="-3.31572">
        <ele>3303.8</ele>
        <time>2021-08-06 11:11:45</time>
      </trkpt>
      <trkpt lat="37.05198" lon="-3.31572">
        <ele>3304</ele>
        <time>2021-08-06 11:11:46</time>
      </trkpt>
      <trkpt lat="37.05198" lon="-3.31571">
        <ele>3304.2</ele>
        <time>2021-08-06 11:11:47</time>
      </trkpt>
      <trkpt lat="37.05198" lon="-3.31571">
        <ele>3304.4</ele>
        <time>2021-08-06 11:11:48</time>
      </trkpt>
      <trkpt lat="37.05198" lon="-3.31571">
        <ele>3304.4</ele>
        <time>2021-08-06 11:11:49</time>
      </trkpt>
      <trkpt lat="37.05197" lon="-3.3157">
        <ele>3304.4</ele>
        <time>2021-08-06 11:11:50</time>
      </trkpt>
      <trkpt lat="37.05197" lon="-3.3157">
        <ele>3304.4</ele>
        <time>2021-08-06 11:11:51</time>
      </trkpt>
      <trkpt lat="37.05197" lon="-3.31569">
        <ele>3304.8</ele>
        <time>2021-08-06 11:11:52</time>
      </trkpt>
      <trkpt lat="37.05197" lon="-3.31569">
        <ele>3305</ele>
        <time>2021-08-06 11:11:53</time>
      </trkpt>
      <trkpt lat="37.05197" lon="-3.31568">
        <ele>3305</ele>
        <time>2021-08-06 11:11:54</time>
      </trkpt>
      <trkpt lat="37.05197" lon="-3.31568">
        <ele>3305.2</ele>
        <time>2021-08-06 11:11:55</time>
      </trkpt>
      <trkpt lat="37.05196" lon="-3.31567">
        <ele>3305.2</ele>
        <time>2021-08-06 11:11:56</time>
      </trkpt>
      <trkpt lat="37.05196" lon="-3.31567">
        <ele>3305.4</ele>
        <time>2021-08-06 11:11:57</time>
      </trkpt>
      <trkpt lat="37.05195" lon="-3.31566">
        <ele>3305.6</ele>
        <time>2021-08-06 11:11:58</time>
      </trkpt>
      <trkpt lat="37.05195" lon="-3.31566">
        <ele>3305.8</ele>
        <time>2021-08-06 11:11:59</time>
      </trkpt>
      <trkpt lat="37.05195" lon="-3.31566">
        <ele>3305.8</ele>
        <time>2021-08-06 11:12:00</time>
      </trkpt>
      <trkpt lat="37.05195" lon="-3.31565">
        <ele>3306</ele>
        <time>2021-08-06 11:12:01</time>
      </trkpt>
      <trkpt lat="37.05194" lon="-3.31566">
        <ele>3306.2</ele>
        <time>2021-08-06 11:12:02</time>
      </trkpt>
      <trkpt lat="37.05194" lon="-3.31565">
        <ele>3306.2</ele>
        <time>2021-08-06 11:12:03</time>
      </trkpt>
      <trkpt lat="37.05193" lon="-3.31565">
        <ele>3306.4</ele>
        <time>2021-08-06 11:12:04</time>
      </trkpt>
      <trkpt lat="37.05193" lon="-3.31564">
        <ele>3306.4</ele>
        <time>2021-08-06 11:12:05</time>
      </trkpt>
      <trkpt lat="37.05193" lon="-3.31564">
        <ele>3306.6</ele>
        <time>2021-08-06 11:12:06</time>
      </trkpt>
      <trkpt lat="37.05193" lon="-3.31564">
        <ele>3306.8</ele>
        <time>2021-08-06 11:12:07</time>
      </trkpt>
      <trkpt lat="37.05192" lon="-3.31564">
        <ele>3307.2</ele>
        <time>2021-08-06 11:12:08</time>
      </trkpt>
      <trkpt lat="37.05192" lon="-3.31564">
        <ele>3307.4</ele>
        <time>2021-08-06 11:12:09</time>
      </trkpt>
      <trkpt lat="37.05192" lon="-3.31564">
        <ele>3307.6</ele>
        <time>2021-08-06 11:12:10</time>
      </trkpt>
      <trkpt lat="37.05192" lon="-3.31563">
        <ele>3307.6</ele>
        <time>2021-08-06 11:12:11</time>
      </trkpt>
      <trkpt lat="37.05191" lon="-3.31563">
        <ele>3307.8</ele>
        <time>2021-08-06 11:12:12</time>
      </trkpt>
      <trkpt lat="37.05191" lon="-3.31563">
        <ele>3308</ele>
        <time>2021-08-06 11:12:13</time>
      </trkpt>
      <trkpt lat="37.05191" lon="-3.31562">
        <ele>3308.2</ele>
        <time>2021-08-06 11:12:14</time>
      </trkpt>
      <trkpt lat="37.05191" lon="-3.31562">
        <ele>3308.2</ele>
        <time>2021-08-06 11:12:15</time>
      </trkpt>
      <trkpt lat="37.05191" lon="-3.31562">
        <ele>3308.2</ele>
        <time>2021-08-06 11:12:16</time>
      </trkpt>
      <trkpt lat="37.05191" lon="-3.31562">
        <ele>3308.2</ele>
        <time>2021-08-06 11:12:17</time>
      </trkpt>
      <trkpt lat="37.05192" lon="-3.31562">
        <ele>3308.2</ele>
        <time>2021-08-06 11:12:18</time>
      </trkpt>
      <trkpt lat="37.05192" lon="-3.31562">
        <ele>3308.2</ele>
        <time>2021-08-06 11:12:19</time>
      </trkpt>
      <trkpt lat="37.05192" lon="-3.31561">
        <ele>3308.4</ele>
        <time>2021-08-06 11:12:20</time>
      </trkpt>
      <trkpt lat="37.05193" lon="-3.3156">
        <ele>3308.6</ele>
        <time>2021-08-06 11:12:21</time>
      </trkpt>
      <trkpt lat="37.05193" lon="-3.31561">
        <ele>3308.8</ele>
        <time>2021-08-06 11:12:22</time>
      </trkpt>
      <trkpt lat="37.05193" lon="-3.31561">
        <ele>3308.8</ele>
        <time>2021-08-06 11:12:23</time>
      </trkpt>
      <trkpt lat="37.05193" lon="-3.3156">
        <ele>3309</ele>
        <time>2021-08-06 11:12:24</time>
      </trkpt>
      <trkpt lat="37.05194" lon="-3.3156">
        <ele>3309</ele>
        <time>2021-08-06 11:12:25</time>
      </trkpt>
      <trkpt lat="37.05194" lon="-3.3156">
        <ele>3309.2</ele>
        <time>2021-08-06 11:12:26</time>
      </trkpt>
      <trkpt lat="37.05194" lon="-3.31559">
        <ele>3309.4</ele>
        <time>2021-08-06 11:12:27</time>
      </trkpt>
      <trkpt lat="37.05193" lon="-3.31559">
        <ele>3309.6</ele>
        <time>2021-08-06 11:12:28</time>
      </trkpt>
      <trkpt lat="37.05193" lon="-3.31559">
        <ele>3309.8</ele>
        <time>2021-08-06 11:12:29</time>
      </trkpt>
      <trkpt lat="37.05193" lon="-3.31559">
        <ele>3309.8</ele>
        <time>2021-08-06 11:12:30</time>
      </trkpt>
      <trkpt lat="37.05194" lon="-3.31559">
        <ele>3310</ele>
        <time>2021-08-06 11:12:31</time>
      </trkpt>
      <trkpt lat="37.05194" lon="-3.31558">
        <ele>3310</ele>
        <time>2021-08-06 11:12:32</time>
      </trkpt>
      <trkpt lat="37.05194" lon="-3.31558">
        <ele>3310.2</ele>
        <time>2021-08-06 11:12:33</time>
      </trkpt>
      <trkpt lat="37.05195" lon="-3.31557">
        <ele>3310.4</ele>
        <time>2021-08-06 11:12:34</time>
      </trkpt>
      <trkpt lat="37.05196" lon="-3.31557">
        <ele>3310.6</ele>
        <time>2021-08-06 11:12:35</time>
      </trkpt>
      <trkpt lat="37.05196" lon="-3.31556">
        <ele>3310.8</ele>
        <time>2021-08-06 11:12:36</time>
      </trkpt>
      <trkpt lat="37.05195" lon="-3.31556">
        <ele>3311.2</ele>
        <time>2021-08-06 11:12:37</time>
      </trkpt>
      <trkpt lat="37.05196" lon="-3.31556">
        <ele>3311.4</ele>
        <time>2021-08-06 11:12:38</time>
      </trkpt>
      <trkpt lat="37.05196" lon="-3.31555">
        <ele>3311.6</ele>
        <time>2021-08-06 11:12:39</time>
      </trkpt>
      <trkpt lat="37.05196" lon="-3.31555">
        <ele>3311.6</ele>
        <time>2021-08-06 11:12:40</time>
      </trkpt>
      <trkpt lat="37.05195" lon="-3.31554">
        <ele>3311.8</ele>
        <time>2021-08-06 11:12:41</time>
      </trkpt>
      <trkpt lat="37.05195" lon="-3.31554">
        <ele>3311.8</ele>
        <time>2021-08-06 11:12:42</time>
      </trkpt>
      <trkpt lat="37.05195" lon="-3.31553">
        <ele>3312</ele>
        <time>2021-08-06 11:12:43</time>
      </trkpt>
      <trkpt lat="37.05195" lon="-3.31553">
        <ele>3312.2</ele>
        <time>2021-08-06 11:12:44</time>
      </trkpt>
      <trkpt lat="37.05194" lon="-3.31553">
        <ele>3312.2</ele>
        <time>2021-08-06 11:12:45</time>
      </trkpt>
      <trkpt lat="37.05194" lon="-3.31552">
        <ele>3312.4</ele>
        <time>2021-08-06 11:12:46</time>
      </trkpt>
      <trkpt lat="37.05194" lon="-3.31551">
        <ele>3312.4</ele>
        <time>2021-08-06 11:12:47</time>
      </trkpt>
      <trkpt lat="37.05194" lon="-3.31551">
        <ele>3312.4</ele>
        <time>2021-08-06 11:12:48</time>
      </trkpt>
      <trkpt lat="37.05194" lon="-3.31551">
        <ele>3312.6</ele>
        <time>2021-08-06 11:12:49</time>
      </trkpt>
      <trkpt lat="37.05194" lon="-3.3155">
        <ele>3312.6</ele>
        <time>2021-08-06 11:12:50</time>
      </trkpt>
      <trkpt lat="37.05194" lon="-3.3155">
        <ele>3312.8</ele>
        <time>2021-08-06 11:12:51</time>
      </trkpt>
      <trkpt lat="37.05193" lon="-3.31549">
        <ele>3313</ele>
        <time>2021-08-06 11:12:52</time>
      </trkpt>
      <trkpt lat="37.05193" lon="-3.31549">
        <ele>3313.2</ele>
        <time>2021-08-06 11:12:53</time>
      </trkpt>
      <trkpt lat="37.05193" lon="-3.31549">
        <ele>3313.4</ele>
        <time>2021-08-06 11:12:54</time>
      </trkpt>
      <trkpt lat="37.05193" lon="-3.31549">
        <ele>3313.4</ele>
        <time>2021-08-06 11:12:55</time>
      </trkpt>
      <trkpt lat="37.05193" lon="-3.31549">
        <ele>3313.6</ele>
        <time>2021-08-06 11:12:56</time>
      </trkpt>
      <trkpt lat="37.05193" lon="-3.31548">
        <ele>3313.8</ele>
        <time>2021-08-06 11:12:57</time>
      </trkpt>
      <trkpt lat="37.05193" lon="-3.31548">
        <ele>3313.8</ele>
        <time>2021-08-06 11:12:58</time>
      </trkpt>
      <trkpt lat="37.05193" lon="-3.31549">
        <ele>3313.8</ele>
        <time>2021-08-06 11:12:59</time>
      </trkpt>
      <trkpt lat="37.05193" lon="-3.31549">
        <ele>3314</ele>
        <time>2021-08-06 11:13:00</time>
      </trkpt>
      <trkpt lat="37.05193" lon="-3.31549">
        <ele>3314</ele>
        <time>2021-08-06 11:13:01</time>
      </trkpt>
      <trkpt lat="37.05192" lon="-3.31548">
        <ele>3314.2</ele>
        <time>2021-08-06 11:13:02</time>
      </trkpt>
      <trkpt lat="37.05192" lon="-3.31548">
        <ele>3314.2</ele>
        <time>2021-08-06 11:13:03</time>
      </trkpt>
      <trkpt lat="37.05192" lon="-3.31547">
        <ele>3314.4</ele>
        <time>2021-08-06 11:13:04</time>
      </trkpt>
      <trkpt lat="37.05192" lon="-3.31547">
        <ele>3314.6</ele>
        <time>2021-08-06 11:13:05</time>
      </trkpt>
      <trkpt lat="37.05192" lon="-3.31547">
        <ele>3314.6</ele>
        <time>2021-08-06 11:13:06</time>
      </trkpt>
      <trkpt lat="37.05192" lon="-3.31547">
        <ele>3314.8</ele>
        <time>2021-08-06 11:13:07</time>
      </trkpt>
      <trkpt lat="37.05192" lon="-3.31547">
        <ele>3314.8</ele>
        <time>2021-08-06 11:13:08</time>
      </trkpt>
      <trkpt lat="37.05191" lon="-3.31546">
        <ele>3314.8</ele>
        <time>2021-08-06 11:13:09</time>
      </trkpt>
      <trkpt lat="37.05191" lon="-3.31546">
        <ele>3314.8</ele>
        <time>2021-08-06 11:13:10</time>
      </trkpt>
      <trkpt lat="37.05191" lon="-3.31547">
        <ele>3314.8</ele>
        <time>2021-08-06 11:13:11</time>
      </trkpt>
      <trkpt lat="37.05191" lon="-3.31546">
        <ele>3314.8</ele>
        <time>2021-08-06 11:13:12</time>
      </trkpt>
      <trkpt lat="37.05191" lon="-3.31546">
        <ele>3314.8</ele>
        <time>2021-08-06 11:13:13</time>
      </trkpt>
      <trkpt lat="37.05191" lon="-3.31546">
        <ele>3314.8</ele>
        <time>2021-08-06 11:13:14</time>
      </trkpt>
      <trkpt lat="37.05191" lon="-3.31547">
        <ele>3314.8</ele>
        <time>2021-08-06 11:13:15</time>
      </trkpt>
      <trkpt lat="37.05191" lon="-3.31547">
        <ele>3314.8</ele>
        <time>2021-08-06 11:13:16</time>
      </trkpt>
      <trkpt lat="37.05191" lon="-3.31548">
        <ele>3314.6</ele>
        <time>2021-08-06 11:13:17</time>
      </trkpt>
      <trkpt lat="37.05191" lon="-3.31548">
        <ele>3314.6</ele>
        <time>2021-08-06 11:13:18</time>
      </trkpt>
      <trkpt lat="37.05191" lon="-3.31548">
        <ele>3314.6</ele>
        <time>2021-08-06 11:13:19</time>
      </trkpt>
      <trkpt lat="37.05191" lon="-3.31548">
        <ele>3314.6</ele>
        <time>2021-08-06 11:13:20</time>
      </trkpt>
      <trkpt lat="37.05191" lon="-3.31549">
        <ele>3314.4</ele>
        <time>2021-08-06 11:13:21</time>
      </trkpt>
      <trkpt lat="37.05192" lon="-3.31549">
        <ele>3314.4</ele>
        <time>2021-08-06 11:13:22</time>
      </trkpt>
      <trkpt lat="37.05192" lon="-3.31549">
        <ele>3314.4</ele>
        <time>2021-08-06 11:13:23</time>
      </trkpt>
      <trkpt lat="37.05192" lon="-3.31549">
        <ele>3314.4</ele>
        <time>2021-08-06 11:13:24</time>
      </trkpt>
      <trkpt lat="37.05192" lon="-3.3155">
        <ele>3314.4</ele>
        <time>2021-08-06 11:13:25</time>
      </trkpt>
      <trkpt lat="37.05191" lon="-3.31549">
        <ele>3314.4</ele>
        <time>2021-08-06 11:13:26</time>
      </trkpt>
      <trkpt lat="37.05191" lon="-3.31549">
        <ele>3314.2</ele>
        <time>2021-08-06 11:13:27</time>
      </trkpt>
      <trkpt lat="37.05191" lon="-3.31549">
        <ele>3314.2</ele>
        <time>2021-08-06 11:13:28</time>
      </trkpt>
      <trkpt lat="37.05191" lon="-3.31549">
        <ele>3314.2</ele>
        <time>2021-08-06 11:13:29</time>
      </trkpt>
      <trkpt lat="37.05191" lon="-3.31549">
        <ele>3314.2</ele>
        <time>2021-08-06 11:13:30</time>
      </trkpt>
      <trkpt lat="37.05191" lon="-3.31549">
        <ele>3314.2</ele>
        <time>2021-08-06 11:13:31</time>
      </trkpt>
      <trkpt lat="37.05191" lon="-3.31549">
        <ele>3314.2</ele>
        <time>2021-08-06 11:13:32</time>
      </trkpt>
      <trkpt lat="37.05191" lon="-3.31549">
        <ele>3314.2</ele>
        <time>2021-08-06 11:13:33</time>
      </trkpt>
      <trkpt lat="37.05191" lon="-3.31548">
        <ele>3314.2</ele>
        <time>2021-08-06 11:13:34</time>
      </trkpt>
      <trkpt lat="37.05191" lon="-3.31548">
        <ele>3314.2</ele>
        <time>2021-08-06 11:13:35</time>
      </trkpt>
      <trkpt lat="37.05192" lon="-3.31548">
        <ele>3314.2</ele>
        <time>2021-08-06 11:13:36</time>
      </trkpt>
      <trkpt lat="37.05192" lon="-3.31548">
        <ele>3314.2</ele>
        <time>2021-08-06 11:13:37</time>
      </trkpt>
      <trkpt lat="37.05193" lon="-3.31549">
        <ele>3314.2</ele>
        <time>2021-08-06 11:13:38</time>
      </trkpt>
      <trkpt lat="37.05193" lon="-3.31549">
        <ele>3314</ele>
        <time>2021-08-06 11:13:39</time>
      </trkpt>
      <trkpt lat="37.05193" lon="-3.31549">
        <ele>3314.2</ele>
        <time>2021-08-06 11:13:40</time>
      </trkpt>
      <trkpt lat="37.05193" lon="-3.3155">
        <ele>3314</ele>
        <time>2021-08-06 11:13:41</time>
      </trkpt>
      <trkpt lat="37.05193" lon="-3.3155">
        <ele>3313.8</ele>
        <time>2021-08-06 11:13:42</time>
      </trkpt>
      <trkpt lat="37.05193" lon="-3.3155">
        <ele>3313.8</ele>
        <time>2021-08-06 11:13:43</time>
      </trkpt>
      <trkpt lat="37.05192" lon="-3.3155">
        <ele>3314</ele>
        <time>2021-08-06 11:13:44</time>
      </trkpt>
      <trkpt lat="37.05192" lon="-3.31551">
        <ele>3314</ele>
        <time>2021-08-06 11:13:45</time>
      </trkpt>
      <trkpt lat="37.05192" lon="-3.3155">
        <ele>3314</ele>
        <time>2021-08-06 11:13:46</time>
      </trkpt>
      <trkpt lat="37.05192" lon="-3.3155">
        <ele>3313.8</ele>
        <time>2021-08-06 11:13:47</time>
      </trkpt>
      <trkpt lat="37.05192" lon="-3.3155">
        <ele>3314</ele>
        <time>2021-08-06 11:13:48</time>
      </trkpt>
      <trkpt lat="37.05192" lon="-3.3155">
        <ele>3314</ele>
        <time>2021-08-06 11:13:49</time>
      </trkpt>
      <trkpt lat="37.05192" lon="-3.31551">
        <ele>3314</ele>
        <time>2021-08-06 11:13:50</time>
      </trkpt>
      <trkpt lat="37.05193" lon="-3.31551">
        <ele>3314.2</ele>
        <time>2021-08-06 11:13:51</time>
      </trkpt>
      <trkpt lat="37.05193" lon="-3.31551">
        <ele>3314.2</ele>
        <time>2021-08-06 11:13:52</time>
      </trkpt>
      <trkpt lat="37.05193" lon="-3.31551">
        <ele>3314.2</ele>
        <time>2021-08-06 11:13:53</time>
      </trkpt>
      <trkpt lat="37.05193" lon="-3.31551">
        <ele>3314.4</ele>
        <time>2021-08-06 11:13:54</time>
      </trkpt>
      <trkpt lat="37.05193" lon="-3.31551">
        <ele>3314.4</ele>
        <time>2021-08-06 11:13:55</time>
      </trkpt>
      <trkpt lat="37.05193" lon="-3.31551">
        <ele>3314.2</ele>
        <time>2021-08-06 11:13:56</time>
      </trkpt>
      <trkpt lat="37.05193" lon="-3.31551">
        <ele>3314.2</ele>
        <time>2021-08-06 11:13:57</time>
      </trkpt>
      <trkpt lat="37.05193" lon="-3.31551">
        <ele>3314.4</ele>
        <time>2021-08-06 11:13:58</time>
      </trkpt>
      <trkpt lat="37.05193" lon="-3.31551">
        <ele>3314.4</ele>
        <time>2021-08-06 11:13:59</time>
      </trkpt>
      <trkpt lat="37.05193" lon="-3.31551">
        <ele>3314.2</ele>
        <time>2021-08-06 11:14:00</time>
      </trkpt>
      <trkpt lat="37.05193" lon="-3.31551">
        <ele>3314.4</ele>
        <time>2021-08-06 11:14:01</time>
      </trkpt>
      <trkpt lat="37.05193" lon="-3.31551">
        <ele>3314.4</ele>
        <time>2021-08-06 11:14:02</time>
      </trkpt>
      <trkpt lat="37.05193" lon="-3.31551">
        <ele>3314.2</ele>
        <time>2021-08-06 11:14:03</time>
      </trkpt>
      <trkpt lat="37.05193" lon="-3.31551">
        <ele>3314</ele>
        <time>2021-08-06 11:14:04</time>
      </trkpt>
      <trkpt lat="37.05193" lon="-3.31551">
        <ele>3314</ele>
        <time>2021-08-06 11:14:05</time>
      </trkpt>
      <trkpt lat="37.05193" lon="-3.31551">
        <ele>3314</ele>
        <time>2021-08-06 11:14:06</time>
      </trkpt>
      <trkpt lat="37.05193" lon="-3.3155">
        <ele>3314</ele>
        <time>2021-08-06 11:14:07</time>
      </trkpt>
      <trkpt lat="37.05193" lon="-3.3155">
        <ele>3314</ele>
        <time>2021-08-06 11:14:08</time>
      </trkpt>
      <trkpt lat="37.05194" lon="-3.3155">
        <ele>3314</ele>
        <time>2021-08-06 11:14:09</time>
      </trkpt>
      <trkpt lat="37.05194" lon="-3.31549">
        <ele>3314</ele>
        <time>2021-08-06 11:14:10</time>
      </trkpt>
      <trkpt lat="37.05194" lon="-3.31548">
        <ele>3314</ele>
        <time>2021-08-06 11:14:11</time>
      </trkpt>
      <trkpt lat="37.05194" lon="-3.31548">
        <ele>3314</ele>
        <time>2021-08-06 11:14:12</time>
      </trkpt>
      <trkpt lat="37.05194" lon="-3.31548">
        <ele>3314</ele>
        <time>2021-08-06 11:14:13</time>
      </trkpt>
      <trkpt lat="37.05194" lon="-3.31548">
        <ele>3314.2</ele>
        <time>2021-08-06 11:14:14</time>
      </trkpt>
      <trkpt lat="37.05194" lon="-3.31548">
        <ele>3314.2</ele>
        <time>2021-08-06 11:14:15</time>
      </trkpt>
      <trkpt lat="37.05194" lon="-3.31548">
        <ele>3314.2</ele>
        <time>2021-08-06 11:14:16</time>
      </trkpt>
      <trkpt lat="37.05194" lon="-3.31548">
        <ele>3314.2</ele>
        <time>2021-08-06 11:14:17</time>
      </trkpt>
      <trkpt lat="37.05194" lon="-3.31547">
        <ele>3314.4</ele>
        <time>2021-08-06 11:14:18</time>
      </trkpt>
      <trkpt lat="37.05194" lon="-3.31547">
        <ele>3314.4</ele>
        <time>2021-08-06 11:14:19</time>
      </trkpt>
      <trkpt lat="37.05194" lon="-3.31547">
        <ele>3314.4</ele>
        <time>2021-08-06 11:14:20</time>
      </trkpt>
      <trkpt lat="37.05194" lon="-3.31547">
        <ele>3314.4</ele>
        <time>2021-08-06 11:14:21</time>
      </trkpt>
      <trkpt lat="37.05194" lon="-3.31547">
        <ele>3314.4</ele>
        <time>2021-08-06 11:14:22</time>
      </trkpt>
      <trkpt lat="37.05194" lon="-3.31547">
        <ele>3314.4</ele>
        <time>2021-08-06 11:14:23</time>
      </trkpt>
      <trkpt lat="37.05194" lon="-3.31547">
        <ele>3314.4</ele>
        <time>2021-08-06 11:14:24</time>
      </trkpt>
      <trkpt lat="37.05194" lon="-3.31547">
        <ele>3314.4</ele>
        <time>2021-08-06 11:14:25</time>
      </trkpt>
      <trkpt lat="37.05194" lon="-3.31547">
        <ele>3314.4</ele>
        <time>2021-08-06 11:14:26</time>
      </trkpt>
      <trkpt lat="37.05194" lon="-3.31547">
        <ele>3314.4</ele>
        <time>2021-08-06 11:14:27</time>
      </trkpt>
      <trkpt lat="37.05194" lon="-3.31547">
        <ele>3314.4</ele>
        <time>2021-08-06 11:14:28</time>
      </trkpt>
      <trkpt lat="37.05194" lon="-3.31547">
        <ele>3314.4</ele>
        <time>2021-08-06 11:14:29</time>
      </trkpt>
      <trkpt lat="37.05194" lon="-3.31547">
        <ele>3314.4</ele>
        <time>2021-08-06 11:14:30</time>
      </trkpt>
      <trkpt lat="37.05194" lon="-3.31547">
        <ele>3314.4</ele>
        <time>2021-08-06 11:14:31</time>
      </trkpt>
      <trkpt lat="37.05194" lon="-3.31547">
        <ele>3314.4</ele>
        <time>2021-08-06 11:14:32</time>
      </trkpt>
      <trkpt lat="37.05194" lon="-3.31547">
        <ele>3314.4</ele>
        <time>2021-08-06 11:14:33</time>
      </trkpt>
      <trkpt lat="37.05194" lon="-3.31547">
        <ele>3314.4</ele>
        <time>2021-08-06 11:14:34</time>
      </trkpt>
      <trkpt lat="37.05194" lon="-3.31547">
        <ele>3314.4</ele>
        <time>2021-08-06 11:14:35</time>
      </trkpt>
      <trkpt lat="37.05193" lon="-3.31547">
        <ele>3314.4</ele>
        <time>2021-08-06 11:14:36</time>
      </trkpt>
      <trkpt lat="37.05193" lon="-3.31547">
        <ele>3314.4</ele>
        <time>2021-08-06 11:14:37</time>
      </trkpt>
      <trkpt lat="37.05193" lon="-3.31547">
        <ele>3314.4</ele>
        <time>2021-08-06 11:14:38</time>
      </trkpt>
      <trkpt lat="37.05194" lon="-3.31547">
        <ele>3314.4</ele>
        <time>2021-08-06 11:14:39</time>
      </trkpt>
      <trkpt lat="37.05194" lon="-3.31547">
        <ele>3314.4</ele>
        <time>2021-08-06 11:14:40</time>
      </trkpt>
      <trkpt lat="37.05194" lon="-3.31547">
        <ele>3314.4</ele>
        <time>2021-08-06 11:14:41</time>
      </trkpt>
      <trkpt lat="37.05194" lon="-3.31546">
        <ele>3314.4</ele>
        <time>2021-08-06 11:14:42</time>
      </trkpt>
      <trkpt lat="37.05194" lon="-3.31546">
        <ele>3314.4</ele>
        <time>2021-08-06 11:14:43</time>
      </trkpt>
      <trkpt lat="37.05194" lon="-3.31546">
        <ele>3314.4</ele>
        <time>2021-08-06 11:14:44</time>
      </trkpt>
      <trkpt lat="37.05195" lon="-3.31546">
        <ele>3314.4</ele>
        <time>2021-08-06 11:14:45</time>
      </trkpt>
      <trkpt lat="37.05195" lon="-3.31546">
        <ele>3314.4</ele>
        <time>2021-08-06 11:14:46</time>
      </trkpt>
      <trkpt lat="37.05195" lon="-3.31546">
        <ele>3314.4</ele>
        <time>2021-08-06 11:14:47</time>
      </trkpt>
      <trkpt lat="37.05195" lon="-3.31546">
        <ele>3314.4</ele>
        <time>2021-08-06 11:14:48</time>
      </trkpt>
      <trkpt lat="37.05195" lon="-3.31546">
        <ele>3314.4</ele>
        <time>2021-08-06 11:14:49</time>
      </trkpt>
      <trkpt lat="37.05195" lon="-3.31545">
        <ele>3314.4</ele>
        <time>2021-08-06 11:14:50</time>
      </trkpt>
      <trkpt lat="37.05195" lon="-3.31545">
        <ele>3314.4</ele>
        <time>2021-08-06 11:14:51</time>
      </trkpt>
      <trkpt lat="37.05195" lon="-3.31545">
        <ele>3314.4</ele>
        <time>2021-08-06 11:14:52</time>
      </trkpt>
      <trkpt lat="37.05195" lon="-3.31545">
        <ele>3314.4</ele>
        <time>2021-08-06 11:14:53</time>
      </trkpt>
      <trkpt lat="37.05195" lon="-3.31545">
        <ele>3314.4</ele>
        <time>2021-08-06 11:14:54</time>
      </trkpt>
      <trkpt lat="37.05195" lon="-3.31545">
        <ele>3314.4</ele>
        <time>2021-08-06 11:14:55</time>
      </trkpt>
      <trkpt lat="37.05195" lon="-3.31545">
        <ele>3314.4</ele>
        <time>2021-08-06 11:14:56</time>
      </trkpt>
      <trkpt lat="37.05194" lon="-3.31545">
        <ele>3314.4</ele>
        <time>2021-08-06 11:14:57</time>
      </trkpt>
      <trkpt lat="37.05194" lon="-3.31545">
        <ele>3314.4</ele>
        <time>2021-08-06 11:14:58</time>
      </trkpt>
      <trkpt lat="37.05194" lon="-3.31545">
        <ele>3314.4</ele>
        <time>2021-08-06 11:14:59</time>
      </trkpt>
      <trkpt lat="37.05194" lon="-3.31545">
        <ele>3314.4</ele>
        <time>2021-08-06 11:15:00</time>
      </trkpt>
      <trkpt lat="37.05195" lon="-3.31545">
        <ele>3314.4</ele>
        <time>2021-08-06 11:15:01</time>
      </trkpt>
      <trkpt lat="37.05196" lon="-3.31545">
        <ele>3314.4</ele>
        <time>2021-08-06 11:15:02</time>
      </trkpt>
      <trkpt lat="37.05196" lon="-3.31545">
        <ele>3314.4</ele>
        <time>2021-08-06 11:15:03</time>
      </trkpt>
      <trkpt lat="37.05196" lon="-3.31545">
        <ele>3314.4</ele>
        <time>2021-08-06 11:15:04</time>
      </trkpt>
      <trkpt lat="37.05196" lon="-3.31545">
        <ele>3314.4</ele>
        <time>2021-08-06 11:15:05</time>
      </trkpt>
      <trkpt lat="37.05196" lon="-3.31546">
        <ele>3314.4</ele>
        <time>2021-08-06 11:15:06</time>
      </trkpt>
      <trkpt lat="37.05196" lon="-3.31546">
        <ele>3314.4</ele>
        <time>2021-08-06 11:15:07</time>
      </trkpt>
      <trkpt lat="37.05196" lon="-3.31546">
        <ele>3314.4</ele>
        <time>2021-08-06 11:15:08</time>
      </trkpt>
      <trkpt lat="37.05196" lon="-3.31546">
        <ele>3314.4</ele>
        <time>2021-08-06 11:15:09</time>
      </trkpt>
      <trkpt lat="37.05196" lon="-3.31546">
        <ele>3314.4</ele>
        <time>2021-08-06 11:15:10</time>
      </trkpt>
      <trkpt lat="37.05196" lon="-3.31546">
        <ele>3314.4</ele>
        <time>2021-08-06 11:15:11</time>
      </trkpt>
      <trkpt lat="37.05196" lon="-3.31546">
        <ele>3314.4</ele>
        <time>2021-08-06 11:15:12</time>
      </trkpt>
      <trkpt lat="37.05194" lon="-3.31546">
        <ele>3314.4</ele>
        <time>2021-08-06 11:15:13</time>
      </trkpt>
      <trkpt lat="37.05194" lon="-3.31546">
        <ele>3314.4</ele>
        <time>2021-08-06 11:15:14</time>
      </trkpt>
      <trkpt lat="37.05194" lon="-3.31546">
        <ele>3314.4</ele>
        <time>2021-08-06 11:15:15</time>
      </trkpt>
      <trkpt lat="37.05194" lon="-3.31547">
        <ele>3314.4</ele>
        <time>2021-08-06 11:15:16</time>
      </trkpt>
      <trkpt lat="37.05194" lon="-3.31546">
        <ele>3314.4</ele>
        <time>2021-08-06 11:15:17</time>
      </trkpt>
      <trkpt lat="37.05194" lon="-3.31546">
        <ele>3314.4</ele>
        <time>2021-08-06 11:15:18</time>
      </trkpt>
      <trkpt lat="37.05194" lon="-3.31546">
        <ele>3314.4</ele>
        <time>2021-08-06 11:15:19</time>
      </trkpt>
      <trkpt lat="37.05194" lon="-3.31546">
        <ele>3314.4</ele>
        <time>2021-08-06 11:15:20</time>
      </trkpt>
      <trkpt lat="37.05193" lon="-3.31546">
        <ele>3314.4</ele>
        <time>2021-08-06 11:15:21</time>
      </trkpt>
      <trkpt lat="37.05193" lon="-3.31546">
        <ele>3314.4</ele>
        <time>2021-08-06 11:15:22</time>
      </trkpt>
      <trkpt lat="37.05193" lon="-3.31546">
        <ele>3314.4</ele>
        <time>2021-08-06 11:15:23</time>
      </trkpt>
      <trkpt lat="37.05193" lon="-3.31546">
        <ele>3314.4</ele>
        <time>2021-08-06 11:15:24</time>
      </trkpt>
      <trkpt lat="37.05193" lon="-3.31547">
        <ele>3314.4</ele>
        <time>2021-08-06 11:15:25</time>
      </trkpt>
      <trkpt lat="37.05194" lon="-3.31547">
        <ele>3314.4</ele>
        <time>2021-08-06 11:15:26</time>
      </trkpt>
      <trkpt lat="37.05194" lon="-3.31547">
        <ele>3314.4</ele>
        <time>2021-08-06 11:15:27</time>
      </trkpt>
      <trkpt lat="37.05194" lon="-3.31547">
        <ele>3314.4</ele>
        <time>2021-08-06 11:15:28</time>
      </trkpt>
      <trkpt lat="37.05194" lon="-3.31547">
        <ele>3314.4</ele>
        <time>2021-08-06 11:15:29</time>
      </trkpt>
      <trkpt lat="37.05194" lon="-3.31547">
        <ele>3314.4</ele>
        <time>2021-08-06 11:15:30</time>
      </trkpt>
      <trkpt lat="37.05194" lon="-3.31546">
        <ele>3314.4</ele>
        <time>2021-08-06 11:15:31</time>
      </trkpt>
      <trkpt lat="37.05194" lon="-3.31546">
        <ele>3314.4</ele>
        <time>2021-08-06 11:15:32</time>
      </trkpt>
      <trkpt lat="37.05194" lon="-3.31546">
        <ele>3314.4</ele>
        <time>2021-08-06 11:15:33</time>
      </trkpt>
      <trkpt lat="37.05194" lon="-3.31546">
        <ele>3314.4</ele>
        <time>2021-08-06 11:15:34</time>
      </trkpt>
      <trkpt lat="37.05194" lon="-3.31546">
        <ele>3314.4</ele>
        <time>2021-08-06 11:15:35</time>
      </trkpt>
      <trkpt lat="37.05193" lon="-3.31546">
        <ele>3314.4</ele>
        <time>2021-08-06 11:15:36</time>
      </trkpt>
      <trkpt lat="37.05193" lon="-3.31545">
        <ele>3314.4</ele>
        <time>2021-08-06 11:15:37</time>
      </trkpt>
      <trkpt lat="37.05193" lon="-3.31545">
        <ele>3314.4</ele>
        <time>2021-08-06 11:15:38</time>
      </trkpt>
      <trkpt lat="37.05194" lon="-3.31546">
        <ele>3314.4</ele>
        <time>2021-08-06 11:15:39</time>
      </trkpt>
      <trkpt lat="37.05193" lon="-3.31546">
        <ele>3314.4</ele>
        <time>2021-08-06 11:15:40</time>
      </trkpt>
      <trkpt lat="37.05193" lon="-3.31546">
        <ele>3314.4</ele>
        <time>2021-08-06 11:15:41</time>
      </trkpt>
      <trkpt lat="37.05193" lon="-3.31546">
        <ele>3314.4</ele>
        <time>2021-08-06 11:15:42</time>
      </trkpt>
      <trkpt lat="37.05194" lon="-3.31546">
        <ele>3314.4</ele>
        <time>2021-08-06 11:15:43</time>
      </trkpt>
      <trkpt lat="37.05194" lon="-3.31546">
        <ele>3314.4</ele>
        <time>2021-08-06 11:15:44</time>
      </trkpt>
      <trkpt lat="37.05193" lon="-3.31546">
        <ele>3314.4</ele>
        <time>2021-08-06 11:15:45</time>
      </trkpt>
      <trkpt lat="37.05193" lon="-3.31546">
        <ele>3314.4</ele>
        <time>2021-08-06 11:15:46</time>
      </trkpt>
      <trkpt lat="37.05193" lon="-3.31545">
        <ele>3314.4</ele>
        <time>2021-08-06 11:15:47</time>
      </trkpt>
      <trkpt lat="37.05193" lon="-3.31545">
        <ele>3314.4</ele>
        <time>2021-08-06 11:15:48</time>
      </trkpt>
      <trkpt lat="37.05193" lon="-3.31545">
        <ele>3314.4</ele>
        <time>2021-08-06 11:15:49</time>
      </trkpt>
      <trkpt lat="37.05193" lon="-3.31545">
        <ele>3314.4</ele>
        <time>2021-08-06 11:15:50</time>
      </trkpt>
      <trkpt lat="37.05193" lon="-3.31545">
        <ele>3314.4</ele>
        <time>2021-08-06 11:15:51</time>
      </trkpt>
      <trkpt lat="37.05193" lon="-3.31545">
        <ele>3314.4</ele>
        <time>2021-08-06 11:15:52</time>
      </trkpt>
      <trkpt lat="37.05193" lon="-3.31545">
        <ele>3314.4</ele>
        <time>2021-08-06 11:15:53</time>
      </trkpt>
      <trkpt lat="37.05193" lon="-3.31545">
        <ele>3314.4</ele>
        <time>2021-08-06 11:15:54</time>
      </trkpt>
      <trkpt lat="37.05193" lon="-3.31545">
        <ele>3314.4</ele>
        <time>2021-08-06 11:15:55</time>
      </trkpt>
      <trkpt lat="37.05193" lon="-3.31545">
        <ele>3314.4</ele>
        <time>2021-08-06 11:15:56</time>
      </trkpt>
      <trkpt lat="37.05193" lon="-3.31545">
        <ele>3314.4</ele>
        <time>2021-08-06 11:15:57</time>
      </trkpt>
      <trkpt lat="37.05193" lon="-3.31546">
        <ele>3314.4</ele>
        <time>2021-08-06 11:15:58</time>
      </trkpt>
      <trkpt lat="37.05193" lon="-3.31546">
        <ele>3314.4</ele>
        <time>2021-08-06 11:15:59</time>
      </trkpt>
      <trkpt lat="37.05193" lon="-3.31546">
        <ele>3314.4</ele>
        <time>2021-08-06 11:16:00</time>
      </trkpt>
      <trkpt lat="37.05193" lon="-3.31546">
        <ele>3314.4</ele>
        <time>2021-08-06 11:16:01</time>
      </trkpt>
      <trkpt lat="37.05193" lon="-3.31546">
        <ele>3314.4</ele>
        <time>2021-08-06 11:16:02</time>
      </trkpt>
      <trkpt lat="37.05193" lon="-3.31547">
        <ele>3314.4</ele>
        <time>2021-08-06 11:16:03</time>
      </trkpt>
      <trkpt lat="37.05193" lon="-3.31547">
        <ele>3314.4</ele>
        <time>2021-08-06 11:16:04</time>
      </trkpt>
      <trkpt lat="37.05193" lon="-3.31547">
        <ele>3314.4</ele>
        <time>2021-08-06 11:16:05</time>
      </trkpt>
      <trkpt lat="37.05193" lon="-3.31547">
        <ele>3314.4</ele>
        <time>2021-08-06 11:16:06</time>
      </trkpt>
      <trkpt lat="37.05194" lon="-3.31546">
        <ele>3314.4</ele>
        <time>2021-08-06 11:16:07</time>
      </trkpt>
      <trkpt lat="37.05194" lon="-3.31545">
        <ele>3314.4</ele>
        <time>2021-08-06 11:16:08</time>
      </trkpt>
      <trkpt lat="37.05194" lon="-3.31545">
        <ele>3314.4</ele>
        <time>2021-08-06 11:16:09</time>
      </trkpt>
      <trkpt lat="37.05193" lon="-3.31546">
        <ele>3314.4</ele>
        <time>2021-08-06 11:16:10</time>
      </trkpt>
      <trkpt lat="37.05193" lon="-3.31547">
        <ele>3314.4</ele>
        <time>2021-08-06 11:16:11</time>
      </trkpt>
      <trkpt lat="37.05193" lon="-3.31548">
        <ele>3314.4</ele>
        <time>2021-08-06 11:16:12</time>
      </trkpt>
      <trkpt lat="37.05193" lon="-3.31548">
        <ele>3314.4</ele>
        <time>2021-08-06 11:16:13</time>
      </trkpt>
      <trkpt lat="37.05193" lon="-3.31548">
        <ele>3314.4</ele>
        <time>2021-08-06 11:16:14</time>
      </trkpt>
      <trkpt lat="37.05193" lon="-3.31548">
        <ele>3314.4</ele>
        <time>2021-08-06 11:16:15</time>
      </trkpt>
      <trkpt lat="37.05193" lon="-3.31547">
        <ele>3314.4</ele>
        <time>2021-08-06 11:16:16</time>
      </trkpt>
      <trkpt lat="37.05193" lon="-3.31547">
        <ele>3314.4</ele>
        <time>2021-08-06 11:16:17</time>
      </trkpt>
      <trkpt lat="37.05193" lon="-3.31548">
        <ele>3314.4</ele>
        <time>2021-08-06 11:16:18</time>
      </trkpt>
      <trkpt lat="37.05193" lon="-3.31548">
        <ele>3314.4</ele>
        <time>2021-08-06 11:16:19</time>
      </trkpt>
      <trkpt lat="37.05193" lon="-3.31547">
        <ele>3314.4</ele>
        <time>2021-08-06 11:16:20</time>
      </trkpt>
      <trkpt lat="37.05193" lon="-3.31547">
        <ele>3314.4</ele>
        <time>2021-08-06 11:16:21</time>
      </trkpt>
      <trkpt lat="37.05194" lon="-3.31547">
        <ele>3314.4</ele>
        <time>2021-08-06 11:16:22</time>
      </trkpt>
      <trkpt lat="37.05194" lon="-3.31547">
        <ele>3314.4</ele>
        <time>2021-08-06 11:16:23</time>
      </trkpt>
      <trkpt lat="37.05194" lon="-3.31547">
        <ele>3314.4</ele>
        <time>2021-08-06 11:16:24</time>
      </trkpt>
      <trkpt lat="37.05194" lon="-3.31547">
        <ele>3314.4</ele>
        <time>2021-08-06 11:16:25</time>
      </trkpt>
      <trkpt lat="37.05194" lon="-3.31548">
        <ele>3314.4</ele>
        <time>2021-08-06 11:16:26</time>
      </trkpt>
      <trkpt lat="37.05193" lon="-3.31547">
        <ele>3314.4</ele>
        <time>2021-08-06 11:16:27</time>
      </trkpt>
      <trkpt lat="37.05193" lon="-3.31547">
        <ele>3314.4</ele>
        <time>2021-08-06 11:16:28</time>
      </trkpt>
      <trkpt lat="37.05193" lon="-3.31547">
        <ele>3314.4</ele>
        <time>2021-08-06 11:16:29</time>
      </trkpt>
      <trkpt lat="37.05193" lon="-3.31547">
        <ele>3314.4</ele>
        <time>2021-08-06 11:16:30</time>
      </trkpt>
      <trkpt lat="37.05194" lon="-3.31547">
        <ele>3314.4</ele>
        <time>2021-08-06 11:16:31</time>
      </trkpt>
      <trkpt lat="37.05194" lon="-3.31547">
        <ele>3314.4</ele>
        <time>2021-08-06 11:16:32</time>
      </trkpt>
      <trkpt lat="37.05194" lon="-3.31547">
        <ele>3314.4</ele>
        <time>2021-08-06 11:16:33</time>
      </trkpt>
      <trkpt lat="37.05194" lon="-3.31547">
        <ele>3314.4</ele>
        <time>2021-08-06 11:16:34</time>
      </trkpt>
      <trkpt lat="37.05194" lon="-3.31547">
        <ele>3314.4</ele>
        <time>2021-08-06 11:16:35</time>
      </trkpt>
      <trkpt lat="37.05194" lon="-3.31546">
        <ele>3314.4</ele>
        <time>2021-08-06 11:16:36</time>
      </trkpt>
      <trkpt lat="37.05194" lon="-3.31546">
        <ele>3314.4</ele>
        <time>2021-08-06 11:16:37</time>
      </trkpt>
      <trkpt lat="37.05194" lon="-3.31546">
        <ele>3314.4</ele>
        <time>2021-08-06 11:16:38</time>
      </trkpt>
      <trkpt lat="37.05194" lon="-3.31546">
        <ele>3314.4</ele>
        <time>2021-08-06 11:16:39</time>
      </trkpt>
      <trkpt lat="37.05194" lon="-3.31546">
        <ele>3314.4</ele>
        <time>2021-08-06 11:16:40</time>
      </trkpt>
      <trkpt lat="37.05194" lon="-3.31546">
        <ele>3314.4</ele>
        <time>2021-08-06 11:16:41</time>
      </trkpt>
      <trkpt lat="37.05194" lon="-3.31546">
        <ele>3314.4</ele>
        <time>2021-08-06 11:16:42</time>
      </trkpt>
      <trkpt lat="37.05194" lon="-3.31546">
        <ele>3314.4</ele>
        <time>2021-08-06 11:16:43</time>
      </trkpt>
      <trkpt lat="37.05194" lon="-3.31546">
        <ele>3314.4</ele>
        <time>2021-08-06 11:16:44</time>
      </trkpt>
      <trkpt lat="37.05194" lon="-3.31546">
        <ele>3314.4</ele>
        <time>2021-08-06 11:16:45</time>
      </trkpt>
      <trkpt lat="37.05194" lon="-3.31546">
        <ele>3314.4</ele>
        <time>2021-08-06 11:16:46</time>
      </trkpt>
      <trkpt lat="37.05194" lon="-3.31546">
        <ele>3314.4</ele>
        <time>2021-08-06 11:16:47</time>
      </trkpt>
      <trkpt lat="37.05194" lon="-3.31546">
        <ele>3314.4</ele>
        <time>2021-08-06 11:16:48</time>
      </trkpt>
      <trkpt lat="37.05194" lon="-3.31547">
        <ele>3314.4</ele>
        <time>2021-08-06 11:16:49</time>
      </trkpt>
      <trkpt lat="37.05194" lon="-3.31547">
        <ele>3314.4</ele>
        <time>2021-08-06 11:16:50</time>
      </trkpt>
      <trkpt lat="37.05194" lon="-3.31547">
        <ele>3314.4</ele>
        <time>2021-08-06 11:16:51</time>
      </trkpt>
      <trkpt lat="37.05194" lon="-3.31547">
        <ele>3314.4</ele>
        <time>2021-08-06 11:16:52</time>
      </trkpt>
      <trkpt lat="37.05194" lon="-3.31547">
        <ele>3314.4</ele>
        <time>2021-08-06 11:16:53</time>
      </trkpt>
      <trkpt lat="37.05194" lon="-3.31547">
        <ele>3314.4</ele>
        <time>2021-08-06 11:16:54</time>
      </trkpt>
      <trkpt lat="37.05194" lon="-3.31547">
        <ele>3314.4</ele>
        <time>2021-08-06 11:16:55</time>
      </trkpt>
      <trkpt lat="37.05194" lon="-3.31547">
        <ele>3314.4</ele>
        <time>2021-08-06 11:16:56</time>
      </trkpt>
      <trkpt lat="37.05194" lon="-3.31547">
        <ele>3314.4</ele>
        <time>2021-08-06 11:16:57</time>
      </trkpt>
      <trkpt lat="37.05194" lon="-3.31547">
        <ele>3314.4</ele>
        <time>2021-08-06 11:16:58</time>
      </trkpt>
      <trkpt lat="37.05194" lon="-3.31547">
        <ele>3314.4</ele>
        <time>2021-08-06 11:16:59</time>
      </trkpt>
      <trkpt lat="37.05194" lon="-3.31547">
        <ele>3314.4</ele>
        <time>2021-08-06 11:17:00</time>
      </trkpt>
      <trkpt lat="37.05194" lon="-3.31547">
        <ele>3314.4</ele>
        <time>2021-08-06 11:17:01</time>
      </trkpt>
      <trkpt lat="37.05194" lon="-3.31546">
        <ele>3314.4</ele>
        <time>2021-08-06 11:17:02</time>
      </trkpt>
      <trkpt lat="37.05194" lon="-3.31547">
        <ele>3314.4</ele>
        <time>2021-08-06 11:17:03</time>
      </trkpt>
      <trkpt lat="37.05195" lon="-3.31547">
        <ele>3314.4</ele>
        <time>2021-08-06 11:17:04</time>
      </trkpt>
      <trkpt lat="37.05195" lon="-3.31547">
        <ele>3314.4</ele>
        <time>2021-08-06 11:17:05</time>
      </trkpt>
      <trkpt lat="37.05195" lon="-3.31547">
        <ele>3314.4</ele>
        <time>2021-08-06 11:17:06</time>
      </trkpt>
      <trkpt lat="37.05195" lon="-3.31547">
        <ele>3314.4</ele>
        <time>2021-08-06 11:17:07</time>
      </trkpt>
      <trkpt lat="37.05195" lon="-3.31547">
        <ele>3314.4</ele>
        <time>2021-08-06 11:17:08</time>
      </trkpt>
      <trkpt lat="37.05195" lon="-3.31547">
        <ele>3314.4</ele>
        <time>2021-08-06 11:17:09</time>
      </trkpt>
      <trkpt lat="37.05195" lon="-3.31547">
        <ele>3314.4</ele>
        <time>2021-08-06 11:17:10</time>
      </trkpt>
      <trkpt lat="37.05195" lon="-3.31547">
        <ele>3314.4</ele>
        <time>2021-08-06 11:17:11</time>
      </trkpt>
      <trkpt lat="37.05196" lon="-3.31547">
        <ele>3314.4</ele>
        <time>2021-08-06 11:17:12</time>
      </trkpt>
      <trkpt lat="37.05196" lon="-3.31547">
        <ele>3314.4</ele>
        <time>2021-08-06 11:17:13</time>
      </trkpt>
      <trkpt lat="37.05195" lon="-3.31547">
        <ele>3314.4</ele>
        <time>2021-08-06 11:17:14</time>
      </trkpt>
      <trkpt lat="37.05195" lon="-3.31547">
        <ele>3314.4</ele>
        <time>2021-08-06 11:17:15</time>
      </trkpt>
      <trkpt lat="37.05195" lon="-3.31547">
        <ele>3314.4</ele>
        <time>2021-08-06 11:17:16</time>
      </trkpt>
      <trkpt lat="37.05195" lon="-3.31547">
        <ele>3314.4</ele>
        <time>2021-08-06 11:17:17</time>
      </trkpt>
      <trkpt lat="37.05195" lon="-3.31547">
        <ele>3314.4</ele>
        <time>2021-08-06 11:17:18</time>
      </trkpt>
      <trkpt lat="37.05194" lon="-3.31547">
        <ele>3314.4</ele>
        <time>2021-08-06 11:17:19</time>
      </trkpt>
      <trkpt lat="37.05194" lon="-3.31547">
        <ele>3314.4</ele>
        <time>2021-08-06 11:17:20</time>
      </trkpt>
      <trkpt lat="37.05194" lon="-3.31547">
        <ele>3314.4</ele>
        <time>2021-08-06 11:17:21</time>
      </trkpt>
      <trkpt lat="37.05194" lon="-3.31547">
        <ele>3314.4</ele>
        <time>2021-08-06 11:17:22</time>
      </trkpt>
      <trkpt lat="37.05194" lon="-3.31547">
        <ele>3314.4</ele>
        <time>2021-08-06 11:17:23</time>
      </trkpt>
      <trkpt lat="37.05194" lon="-3.31546">
        <ele>3314.4</ele>
        <time>2021-08-06 11:17:24</time>
      </trkpt>
      <trkpt lat="37.05194" lon="-3.31546">
        <ele>3314.4</ele>
        <time>2021-08-06 11:17:25</time>
      </trkpt>
      <trkpt lat="37.05194" lon="-3.31546">
        <ele>3314.4</ele>
        <time>2021-08-06 11:17:26</time>
      </trkpt>
      <trkpt lat="37.05194" lon="-3.31546">
        <ele>3314.4</ele>
        <time>2021-08-06 11:17:27</time>
      </trkpt>
      <trkpt lat="37.05194" lon="-3.31546">
        <ele>3314.4</ele>
        <time>2021-08-06 11:17:28</time>
      </trkpt>
      <trkpt lat="37.05194" lon="-3.31546">
        <ele>3314.4</ele>
        <time>2021-08-06 11:17:29</time>
      </trkpt>
      <trkpt lat="37.05194" lon="-3.31546">
        <ele>3314.4</ele>
        <time>2021-08-06 11:17:30</time>
      </trkpt>
      <trkpt lat="37.05195" lon="-3.31546">
        <ele>3314.4</ele>
        <time>2021-08-06 11:17:31</time>
      </trkpt>
      <trkpt lat="37.05195" lon="-3.31546">
        <ele>3314.4</ele>
        <time>2021-08-06 11:17:32</time>
      </trkpt>
      <trkpt lat="37.05195" lon="-3.31546">
        <ele>3314.4</ele>
        <time>2021-08-06 11:17:33</time>
      </trkpt>
      <trkpt lat="37.05195" lon="-3.31546">
        <ele>3314.4</ele>
        <time>2021-08-06 11:17:34</time>
      </trkpt>
      <trkpt lat="37.05195" lon="-3.31546">
        <ele>3314.4</ele>
        <time>2021-08-06 11:17:35</time>
      </trkpt>
      <trkpt lat="37.05195" lon="-3.31546">
        <ele>3314.4</ele>
        <time>2021-08-06 11:17:36</time>
      </trkpt>
      <trkpt lat="37.05195" lon="-3.31546">
        <ele>3314.4</ele>
        <time>2021-08-06 11:17:37</time>
      </trkpt>
      <trkpt lat="37.05195" lon="-3.31546">
        <ele>3314.4</ele>
        <time>2021-08-06 11:17:38</time>
      </trkpt>
      <trkpt lat="37.05195" lon="-3.31545">
        <ele>3314.4</ele>
        <time>2021-08-06 11:17:39</time>
      </trkpt>
      <trkpt lat="37.05195" lon="-3.31545">
        <ele>3314.4</ele>
        <time>2021-08-06 11:17:40</time>
      </trkpt>
      <trkpt lat="37.05195" lon="-3.31545">
        <ele>3314.4</ele>
        <time>2021-08-06 11:17:41</time>
      </trkpt>
      <trkpt lat="37.05194" lon="-3.31545">
        <ele>3314.4</ele>
        <time>2021-08-06 11:17:42</time>
      </trkpt>
      <trkpt lat="37.05194" lon="-3.31545">
        <ele>3314.4</ele>
        <time>2021-08-06 11:17:43</time>
      </trkpt>
      <trkpt lat="37.05194" lon="-3.31545">
        <ele>3314.4</ele>
        <time>2021-08-06 11:17:44</time>
      </trkpt>
      <trkpt lat="37.05194" lon="-3.31545">
        <ele>3314.4</ele>
        <time>2021-08-06 11:17:45</time>
      </trkpt>
      <trkpt lat="37.05194" lon="-3.31546">
        <ele>3314.4</ele>
        <time>2021-08-06 11:17:46</time>
      </trkpt>
      <trkpt lat="37.05194" lon="-3.31546">
        <ele>3314.4</ele>
        <time>2021-08-06 11:17:47</time>
      </trkpt>
      <trkpt lat="37.05194" lon="-3.31546">
        <ele>3314.4</ele>
        <time>2021-08-06 11:17:48</time>
      </trkpt>
      <trkpt lat="37.05194" lon="-3.31546">
        <ele>3314.4</ele>
        <time>2021-08-06 11:17:49</time>
      </trkpt>
      <trkpt lat="37.05194" lon="-3.31546">
        <ele>3314.4</ele>
        <time>2021-08-06 11:17:50</time>
      </trkpt>
      <trkpt lat="37.05194" lon="-3.31546">
        <ele>3314.4</ele>
        <time>2021-08-06 11:17:51</time>
      </trkpt>
      <trkpt lat="37.05195" lon="-3.31546">
        <ele>3314.4</ele>
        <time>2021-08-06 11:17:52</time>
      </trkpt>
      <trkpt lat="37.05195" lon="-3.31546">
        <ele>3314.4</ele>
        <time>2021-08-06 11:17:53</time>
      </trkpt>
      <trkpt lat="37.05195" lon="-3.31547">
        <ele>3314.4</ele>
        <time>2021-08-06 11:17:54</time>
      </trkpt>
      <trkpt lat="37.05194" lon="-3.31547">
        <ele>3314.4</ele>
        <time>2021-08-06 11:17:55</time>
      </trkpt>
      <trkpt lat="37.05194" lon="-3.31547">
        <ele>3314.4</ele>
        <time>2021-08-06 11:17:56</time>
      </trkpt>
      <trkpt lat="37.05194" lon="-3.31547">
        <ele>3314.4</ele>
        <time>2021-08-06 11:17:57</time>
      </trkpt>
      <trkpt lat="37.05194" lon="-3.31547">
        <ele>3314.4</ele>
        <time>2021-08-06 11:17:58</time>
      </trkpt>
      <trkpt lat="37.05195" lon="-3.31547">
        <ele>3314.4</ele>
        <time>2021-08-06 11:17:59</time>
      </trkpt>
      <trkpt lat="37.05195" lon="-3.31547">
        <ele>3314.4</ele>
        <time>2021-08-06 11:18:00</time>
      </trkpt>
      <trkpt lat="37.05195" lon="-3.31547">
        <ele>3314.4</ele>
        <time>2021-08-06 11:18:01</time>
      </trkpt>
      <trkpt lat="37.05195" lon="-3.31547">
        <ele>3314.4</ele>
        <time>2021-08-06 11:18:02</time>
      </trkpt>
      <trkpt lat="37.05195" lon="-3.31547">
        <ele>3314.4</ele>
        <time>2021-08-06 11:18:03</time>
      </trkpt>
      <trkpt lat="37.05195" lon="-3.31547">
        <ele>3314.4</ele>
        <time>2021-08-06 11:18:04</time>
      </trkpt>
      <trkpt lat="37.05195" lon="-3.31547">
        <ele>3314.4</ele>
        <time>2021-08-06 11:18:05</time>
      </trkpt>
      <trkpt lat="37.05195" lon="-3.31547">
        <ele>3314.4</ele>
        <time>2021-08-06 11:18:06</time>
      </trkpt>
      <trkpt lat="37.05195" lon="-3.31547">
        <ele>3314.4</ele>
        <time>2021-08-06 11:18:07</time>
      </trkpt>
      <trkpt lat="37.05195" lon="-3.31547">
        <ele>3314.4</ele>
        <time>2021-08-06 11:18:08</time>
      </trkpt>
      <trkpt lat="37.05195" lon="-3.31547">
        <ele>3314.4</ele>
        <time>2021-08-06 11:18:09</time>
      </trkpt>
      <trkpt lat="37.05195" lon="-3.31547">
        <ele>3314.4</ele>
        <time>2021-08-06 11:18:10</time>
      </trkpt>
      <trkpt lat="37.05195" lon="-3.31547">
        <ele>3314.4</ele>
        <time>2021-08-06 11:18:11</time>
      </trkpt>
      <trkpt lat="37.05195" lon="-3.31546">
        <ele>3314.4</ele>
        <time>2021-08-06 11:18:12</time>
      </trkpt>
      <trkpt lat="37.05195" lon="-3.31546">
        <ele>3314.4</ele>
        <time>2021-08-06 11:18:13</time>
      </trkpt>
      <trkpt lat="37.05195" lon="-3.31546">
        <ele>3314.4</ele>
        <time>2021-08-06 11:18:14</time>
      </trkpt>
      <trkpt lat="37.05195" lon="-3.31546">
        <ele>3314.4</ele>
        <time>2021-08-06 11:18:15</time>
      </trkpt>
      <trkpt lat="37.05195" lon="-3.31546">
        <ele>3314.4</ele>
        <time>2021-08-06 11:18:16</time>
      </trkpt>
      <trkpt lat="37.05195" lon="-3.31546">
        <ele>3314.4</ele>
        <time>2021-08-06 11:18:17</time>
      </trkpt>
      <trkpt lat="37.05195" lon="-3.31546">
        <ele>3314.4</ele>
        <time>2021-08-06 11:18:18</time>
      </trkpt>
      <trkpt lat="37.05195" lon="-3.31546">
        <ele>3314.4</ele>
        <time>2021-08-06 11:18:19</time>
      </trkpt>
      <trkpt lat="37.05195" lon="-3.31546">
        <ele>3314.4</ele>
        <time>2021-08-06 11:18:20</time>
      </trkpt>
      <trkpt lat="37.05195" lon="-3.31546">
        <ele>3314.4</ele>
        <time>2021-08-06 11:18:21</time>
      </trkpt>
      <trkpt lat="37.05195" lon="-3.31546">
        <ele>3314.4</ele>
        <time>2021-08-06 11:18:22</time>
      </trkpt>
      <trkpt lat="37.05195" lon="-3.31546">
        <ele>3314.4</ele>
        <time>2021-08-06 11:18:23</time>
      </trkpt>
      <trkpt lat="37.05195" lon="-3.31546">
        <ele>3314.4</ele>
        <time>2021-08-06 11:18:24</time>
      </trkpt>
      <trkpt lat="37.05195" lon="-3.31546">
        <ele>3314.4</ele>
        <time>2021-08-06 11:18:25</time>
      </trkpt>
      <trkpt lat="37.05195" lon="-3.31546">
        <ele>3314.4</ele>
        <time>2021-08-06 11:18:26</time>
      </trkpt>
      <trkpt lat="37.05195" lon="-3.31546">
        <ele>3314.4</ele>
        <time>2021-08-06 11:18:27</time>
      </trkpt>
      <trkpt lat="37.05195" lon="-3.31546">
        <ele>3314.4</ele>
        <time>2021-08-06 11:18:28</time>
      </trkpt>
      <trkpt lat="37.05195" lon="-3.31546">
        <ele>3314.4</ele>
        <time>2021-08-06 11:18:29</time>
      </trkpt>
      <trkpt lat="37.05195" lon="-3.31546">
        <ele>3314.4</ele>
        <time>2021-08-06 11:18:30</time>
      </trkpt>
      <trkpt lat="37.05195" lon="-3.31546">
        <ele>3314.4</ele>
        <time>2021-08-06 11:18:31</time>
      </trkpt>
      <trkpt lat="37.05195" lon="-3.31546">
        <ele>3314.4</ele>
        <time>2021-08-06 11:18:32</time>
      </trkpt>
      <trkpt lat="37.05195" lon="-3.31546">
        <ele>3314.4</ele>
        <time>2021-08-06 11:18:33</time>
      </trkpt>
      <trkpt lat="37.05195" lon="-3.31546">
        <ele>3314.4</ele>
        <time>2021-08-06 11:18:34</time>
      </trkpt>
      <trkpt lat="37.05195" lon="-3.31546">
        <ele>3314.4</ele>
        <time>2021-08-06 11:18:35</time>
      </trkpt>
      <trkpt lat="37.05195" lon="-3.31546">
        <ele>3314.4</ele>
        <time>2021-08-06 11:18:36</time>
      </trkpt>
      <trkpt lat="37.05195" lon="-3.31546">
        <ele>3314.4</ele>
        <time>2021-08-06 11:18:37</time>
      </trkpt>
      <trkpt lat="37.05195" lon="-3.31547">
        <ele>3314.4</ele>
        <time>2021-08-06 11:18:38</time>
      </trkpt>
      <trkpt lat="37.05195" lon="-3.31547">
        <ele>3314.4</ele>
        <time>2021-08-06 11:18:39</time>
      </trkpt>
      <trkpt lat="37.05195" lon="-3.31547">
        <ele>3314.4</ele>
        <time>2021-08-06 11:18:40</time>
      </trkpt>
      <trkpt lat="37.05195" lon="-3.31547">
        <ele>3314.4</ele>
        <time>2021-08-06 11:18:41</time>
      </trkpt>
      <trkpt lat="37.05195" lon="-3.31548">
        <ele>3314.4</ele>
        <time>2021-08-06 11:18:42</time>
      </trkpt>
      <trkpt lat="37.05195" lon="-3.31548">
        <ele>3314.4</ele>
        <time>2021-08-06 11:18:43</time>
      </trkpt>
      <trkpt lat="37.05195" lon="-3.31547">
        <ele>3314.4</ele>
        <time>2021-08-06 11:18:44</time>
      </trkpt>
      <trkpt lat="37.05194" lon="-3.31547">
        <ele>3314.4</ele>
        <time>2021-08-06 11:18:45</time>
      </trkpt>
      <trkpt lat="37.05194" lon="-3.31547">
        <ele>3314.4</ele>
        <time>2021-08-06 11:18:46</time>
      </trkpt>
      <trkpt lat="37.05194" lon="-3.31547">
        <ele>3314.4</ele>
        <time>2021-08-06 11:18:47</time>
      </trkpt>
      <trkpt lat="37.05194" lon="-3.31546">
        <ele>3314.4</ele>
        <time>2021-08-06 11:18:48</time>
      </trkpt>
      <trkpt lat="37.05195" lon="-3.31546">
        <ele>3314.4</ele>
        <time>2021-08-06 11:18:49</time>
      </trkpt>
      <trkpt lat="37.05195" lon="-3.31546">
        <ele>3314.4</ele>
        <time>2021-08-06 11:18:50</time>
      </trkpt>
      <trkpt lat="37.05194" lon="-3.31546">
        <ele>3314.4</ele>
        <time>2021-08-06 11:18:51</time>
      </trkpt>
      <trkpt lat="37.05194" lon="-3.31546">
        <ele>3314.4</ele>
        <time>2021-08-06 11:18:52</time>
      </trkpt>
      <trkpt lat="37.05194" lon="-3.31546">
        <ele>3314.4</ele>
        <time>2021-08-06 11:18:53</time>
      </trkpt>
      <trkpt lat="37.05194" lon="-3.31546">
        <ele>3314.4</ele>
        <time>2021-08-06 11:18:54</time>
      </trkpt>
      <trkpt lat="37.05194" lon="-3.31545">
        <ele>3314.4</ele>
        <time>2021-08-06 11:18:55</time>
      </trkpt>
      <trkpt lat="37.05194" lon="-3.31545">
        <ele>3314.4</ele>
        <time>2021-08-06 11:18:56</time>
      </trkpt>
      <trkpt lat="37.05194" lon="-3.31545">
        <ele>3314.4</ele>
        <time>2021-08-06 11:18:57</time>
      </trkpt>
      <trkpt lat="37.05194" lon="-3.31545">
        <ele>3314.4</ele>
        <time>2021-08-06 11:18:58</time>
      </trkpt>
      <trkpt lat="37.05193" lon="-3.31545">
        <ele>3314.4</ele>
        <time>2021-08-06 11:18:59</time>
      </trkpt>
      <trkpt lat="37.05194" lon="-3.31545">
        <ele>3314.4</ele>
        <time>2021-08-06 11:19:00</time>
      </trkpt>
      <trkpt lat="37.05194" lon="-3.31545">
        <ele>3314.4</ele>
        <time>2021-08-06 11:19:01</time>
      </trkpt>
      <trkpt lat="37.05194" lon="-3.31546">
        <ele>3314.4</ele>
        <time>2021-08-06 11:19:02</time>
      </trkpt>
      <trkpt lat="37.05194" lon="-3.31546">
        <ele>3314.4</ele>
        <time>2021-08-06 11:19:03</time>
      </trkpt>
      <trkpt lat="37.05194" lon="-3.31546">
        <ele>3314.4</ele>
        <time>2021-08-06 11:19:04</time>
      </trkpt>
      <trkpt lat="37.05194" lon="-3.31546">
        <ele>3314.4</ele>
        <time>2021-08-06 11:19:05</time>
      </trkpt>
      <trkpt lat="37.05194" lon="-3.31547">
        <ele>3314.4</ele>
        <time>2021-08-06 11:19:06</time>
      </trkpt>
      <trkpt lat="37.05194" lon="-3.31547">
        <ele>3314.4</ele>
        <time>2021-08-06 11:19:07</time>
      </trkpt>
      <trkpt lat="37.05195" lon="-3.31547">
        <ele>3314.4</ele>
        <time>2021-08-06 11:19:08</time>
      </trkpt>
      <trkpt lat="37.05195" lon="-3.31548">
        <ele>3314.4</ele>
        <time>2021-08-06 11:19:09</time>
      </trkpt>
      <trkpt lat="37.05195" lon="-3.31548">
        <ele>3314.4</ele>
        <time>2021-08-06 11:19:10</time>
      </trkpt>
      <trkpt lat="37.05195" lon="-3.31548">
        <ele>3314.4</ele>
        <time>2021-08-06 11:19:11</time>
      </trkpt>
      <trkpt lat="37.05195" lon="-3.31548">
        <ele>3314.4</ele>
        <time>2021-08-06 11:19:12</time>
      </trkpt>
      <trkpt lat="37.05195" lon="-3.31548">
        <ele>3314.4</ele>
        <time>2021-08-06 11:19:13</time>
      </trkpt>
      <trkpt lat="37.05194" lon="-3.31547">
        <ele>3314.4</ele>
        <time>2021-08-06 11:19:14</time>
      </trkpt>
      <trkpt lat="37.05194" lon="-3.31546">
        <ele>3314.4</ele>
        <time>2021-08-06 11:19:15</time>
      </trkpt>
      <trkpt lat="37.05193" lon="-3.31546">
        <ele>3314.4</ele>
        <time>2021-08-06 11:19:16</time>
      </trkpt>
      <trkpt lat="37.05194" lon="-3.31546">
        <ele>3314.4</ele>
        <time>2021-08-06 11:19:17</time>
      </trkpt>
      <trkpt lat="37.05194" lon="-3.31546">
        <ele>3314.4</ele>
        <time>2021-08-06 11:19:18</time>
      </trkpt>
      <trkpt lat="37.05193" lon="-3.31545">
        <ele>3314.4</ele>
        <time>2021-08-06 11:19:19</time>
      </trkpt>
      <trkpt lat="37.05194" lon="-3.31545">
        <ele>3314.4</ele>
        <time>2021-08-06 11:19:20</time>
      </trkpt>
      <trkpt lat="37.05193" lon="-3.31545">
        <ele>3314.4</ele>
        <time>2021-08-06 11:19:21</time>
      </trkpt>
      <trkpt lat="37.05193" lon="-3.31545">
        <ele>3314.4</ele>
        <time>2021-08-06 11:19:22</time>
      </trkpt>
      <trkpt lat="37.05192" lon="-3.31545">
        <ele>3314.4</ele>
        <time>2021-08-06 11:19:23</time>
      </trkpt>
      <trkpt lat="37.05192" lon="-3.31545">
        <ele>3314.4</ele>
        <time>2021-08-06 11:19:24</time>
      </trkpt>
      <trkpt lat="37.05192" lon="-3.31544">
        <ele>3314.4</ele>
        <time>2021-08-06 11:19:25</time>
      </trkpt>
      <trkpt lat="37.05193" lon="-3.31544">
        <ele>3314.4</ele>
        <time>2021-08-06 11:19:26</time>
      </trkpt>
      <trkpt lat="37.05193" lon="-3.31544">
        <ele>3317</ele>
        <time>2021-08-06 11:19:27</time>
      </trkpt>
      <trkpt lat="37.05193" lon="-3.31543">
        <ele>3317</ele>
        <time>2021-08-06 11:19:28</time>
      </trkpt>
      <trkpt lat="37.05193" lon="-3.31543">
        <ele>3317</ele>
        <time>2021-08-06 11:19:29</time>
      </trkpt>
      <trkpt lat="37.05193" lon="-3.31542">
        <ele>3317</ele>
        <time>2021-08-06 11:19:30</time>
      </trkpt>
      <trkpt lat="37.05193" lon="-3.31542">
        <ele>3317</ele>
        <time>2021-08-06 11:19:31</time>
      </trkpt>
      <trkpt lat="37.05194" lon="-3.31542">
        <ele>3317</ele>
        <time>2021-08-06 11:19:32</time>
      </trkpt>
      <trkpt lat="37.05194" lon="-3.31542">
        <ele>3316.8</ele>
        <time>2021-08-06 11:19:33</time>
      </trkpt>
      <trkpt lat="37.05193" lon="-3.31542">
        <ele>3316.8</ele>
        <time>2021-08-06 11:19:34</time>
      </trkpt>
      <trkpt lat="37.05193" lon="-3.31542">
        <ele>3316.8</ele>
        <time>2021-08-06 11:19:35</time>
      </trkpt>
      <trkpt lat="37.05193" lon="-3.31542">
        <ele>3316.8</ele>
        <time>2021-08-06 11:19:36</time>
      </trkpt>
      <trkpt lat="37.05194" lon="-3.31542">
        <ele>3316.8</ele>
        <time>2021-08-06 11:19:37</time>
      </trkpt>
      <trkpt lat="37.05193" lon="-3.31541">
        <ele>3316.8</ele>
        <time>2021-08-06 11:19:38</time>
      </trkpt>
      <trkpt lat="37.05194" lon="-3.31541">
        <ele>3316.8</ele>
        <time>2021-08-06 11:19:39</time>
      </trkpt>
      <trkpt lat="37.05194" lon="-3.31541">
        <ele>3316.8</ele>
        <time>2021-08-06 11:19:40</time>
      </trkpt>
      <trkpt lat="37.05195" lon="-3.31541">
        <ele>3316.8</ele>
        <time>2021-08-06 11:19:41</time>
      </trkpt>
      <trkpt lat="37.05195" lon="-3.31541">
        <ele>3316.8</ele>
        <time>2021-08-06 11:19:42</time>
      </trkpt>
      <trkpt lat="37.05195" lon="-3.31541">
        <ele>3316.8</ele>
        <time>2021-08-06 11:19:43</time>
      </trkpt>
      <trkpt lat="37.05195" lon="-3.31541">
        <ele>3317</ele>
        <time>2021-08-06 11:19:44</time>
      </trkpt>
      <trkpt lat="37.05196" lon="-3.31541">
        <ele>3317</ele>
        <time>2021-08-06 11:19:45</time>
      </trkpt>
      <trkpt lat="37.05196" lon="-3.31541">
        <ele>3317</ele>
        <time>2021-08-06 11:19:46</time>
      </trkpt>
      <trkpt lat="37.05196" lon="-3.31541">
        <ele>3317</ele>
        <time>2021-08-06 11:19:47</time>
      </trkpt>
      <trkpt lat="37.05197" lon="-3.31541">
        <ele>3317</ele>
        <time>2021-08-06 11:19:48</time>
      </trkpt>
      <trkpt lat="37.05196" lon="-3.31541">
        <ele>3317.2</ele>
        <time>2021-08-06 11:19:49</time>
      </trkpt>
      <trkpt lat="37.05196" lon="-3.31541">
        <ele>3317.2</ele>
        <time>2021-08-06 11:19:50</time>
      </trkpt>
      <trkpt lat="37.05196" lon="-3.31541">
        <ele>3317.4</ele>
        <time>2021-08-06 11:19:51</time>
      </trkpt>
      <trkpt lat="37.05196" lon="-3.31541">
        <ele>3317.4</ele>
        <time>2021-08-06 11:19:52</time>
      </trkpt>
      <trkpt lat="37.05196" lon="-3.31541">
        <ele>3317.4</ele>
        <time>2021-08-06 11:19:53</time>
      </trkpt>
      <trkpt lat="37.05196" lon="-3.31541">
        <ele>3317.4</ele>
        <time>2021-08-06 11:19:54</time>
      </trkpt>
      <trkpt lat="37.05196" lon="-3.31541">
        <ele>3317.4</ele>
        <time>2021-08-06 11:19:55</time>
      </trkpt>
      <trkpt lat="37.05196" lon="-3.31541">
        <ele>3317.4</ele>
        <time>2021-08-06 11:19:56</time>
      </trkpt>
      <trkpt lat="37.05196" lon="-3.31541">
        <ele>3317.2</ele>
        <time>2021-08-06 11:19:57</time>
      </trkpt>
      <trkpt lat="37.05197" lon="-3.31542">
        <ele>3317.2</ele>
        <time>2021-08-06 11:19:58</time>
      </trkpt>
      <trkpt lat="37.05197" lon="-3.31542">
        <ele>3317.2</ele>
        <time>2021-08-06 11:19:59</time>
      </trkpt>
      <trkpt lat="37.05197" lon="-3.31542">
        <ele>3317.4</ele>
        <time>2021-08-06 11:20:00</time>
      </trkpt>
      <trkpt lat="37.05197" lon="-3.31542">
        <ele>3317.4</ele>
        <time>2021-08-06 11:20:01</time>
      </trkpt>
      <trkpt lat="37.05197" lon="-3.31542">
        <ele>3317.4</ele>
        <time>2021-08-06 11:20:02</time>
      </trkpt>
      <trkpt lat="37.05197" lon="-3.31542">
        <ele>3317.4</ele>
        <time>2021-08-06 11:20:03</time>
      </trkpt>
      <trkpt lat="37.05197" lon="-3.31542">
        <ele>3317.4</ele>
        <time>2021-08-06 11:20:04</time>
      </trkpt>
      <trkpt lat="37.05197" lon="-3.31542">
        <ele>3317.4</ele>
        <time>2021-08-06 11:20:05</time>
      </trkpt>
      <trkpt lat="37.05197" lon="-3.31542">
        <ele>3317.6</ele>
        <time>2021-08-06 11:20:06</time>
      </trkpt>
      <trkpt lat="37.05197" lon="-3.31541">
        <ele>3317.6</ele>
        <time>2021-08-06 11:20:07</time>
      </trkpt>
      <trkpt lat="37.05198" lon="-3.31541">
        <ele>3317.8</ele>
        <time>2021-08-06 11:20:08</time>
      </trkpt>
      <trkpt lat="37.05198" lon="-3.31541">
        <ele>3317.8</ele>
        <time>2021-08-06 11:20:09</time>
      </trkpt>
      <trkpt lat="37.05197" lon="-3.31541">
        <ele>3317.8</ele>
        <time>2021-08-06 11:20:10</time>
      </trkpt>
      <trkpt lat="37.05197" lon="-3.3154">
        <ele>3318</ele>
        <time>2021-08-06 11:20:11</time>
      </trkpt>
      <trkpt lat="37.05197" lon="-3.3154">
        <ele>3318</ele>
        <time>2021-08-06 11:20:12</time>
      </trkpt>
      <trkpt lat="37.05197" lon="-3.3154">
        <ele>3317.8</ele>
        <time>2021-08-06 11:20:13</time>
      </trkpt>
      <trkpt lat="37.05197" lon="-3.3154">
        <ele>3317.8</ele>
        <time>2021-08-06 11:20:14</time>
      </trkpt>
      <trkpt lat="37.05198" lon="-3.3154">
        <ele>3317.8</ele>
        <time>2021-08-06 11:20:15</time>
      </trkpt>
      <trkpt lat="37.05198" lon="-3.3154">
        <ele>3317.8</ele>
        <time>2021-08-06 11:20:16</time>
      </trkpt>
      <trkpt lat="37.05198" lon="-3.3154">
        <ele>3317.8</ele>
        <time>2021-08-06 11:20:17</time>
      </trkpt>
      <trkpt lat="37.05198" lon="-3.3154">
        <ele>3317.8</ele>
        <time>2021-08-06 11:20:18</time>
      </trkpt>
      <trkpt lat="37.05198" lon="-3.3154">
        <ele>3318</ele>
        <time>2021-08-06 11:20:19</time>
      </trkpt>
      <trkpt lat="37.05198" lon="-3.3154">
        <ele>3318</ele>
        <time>2021-08-06 11:20:20</time>
      </trkpt>
      <trkpt lat="37.05197" lon="-3.31539">
        <ele>3318</ele>
        <time>2021-08-06 11:20:21</time>
      </trkpt>
      <trkpt lat="37.05197" lon="-3.3154">
        <ele>3318</ele>
        <time>2021-08-06 11:20:22</time>
      </trkpt>
      <trkpt lat="37.05197" lon="-3.31541">
        <ele>3318</ele>
        <time>2021-08-06 11:20:23</time>
      </trkpt>
      <trkpt lat="37.05197" lon="-3.31541">
        <ele>3317.8</ele>
        <time>2021-08-06 11:20:24</time>
      </trkpt>
      <trkpt lat="37.05196" lon="-3.31542">
        <ele>3317.6</ele>
        <time>2021-08-06 11:20:25</time>
      </trkpt>
      <trkpt lat="37.05196" lon="-3.31542">
        <ele>3317.6</ele>
        <time>2021-08-06 11:20:26</time>
      </trkpt>
      <trkpt lat="37.05196" lon="-3.31542">
        <ele>3317.4</ele>
        <time>2021-08-06 11:20:27</time>
      </trkpt>
      <trkpt lat="37.05196" lon="-3.31542">
        <ele>3317.4</ele>
        <time>2021-08-06 11:20:28</time>
      </trkpt>
      <trkpt lat="37.05196" lon="-3.31542">
        <ele>3317.4</ele>
        <time>2021-08-06 11:20:29</time>
      </trkpt>
      <trkpt lat="37.05196" lon="-3.31542">
        <ele>3317.6</ele>
        <time>2021-08-06 11:20:30</time>
      </trkpt>
      <trkpt lat="37.05196" lon="-3.31542">
        <ele>3317.8</ele>
        <time>2021-08-06 11:20:31</time>
      </trkpt>
      <trkpt lat="37.05197" lon="-3.31542">
        <ele>3318</ele>
        <time>2021-08-06 11:20:32</time>
      </trkpt>
      <trkpt lat="37.05197" lon="-3.31542">
        <ele>3318</ele>
        <time>2021-08-06 11:20:33</time>
      </trkpt>
      <trkpt lat="37.05197" lon="-3.31542">
        <ele>3318.2</ele>
        <time>2021-08-06 11:20:34</time>
      </trkpt>
      <trkpt lat="37.05197" lon="-3.31542">
        <ele>3318.2</ele>
        <time>2021-08-06 11:20:35</time>
      </trkpt>
      <trkpt lat="37.05197" lon="-3.31542">
        <ele>3318.2</ele>
        <time>2021-08-06 11:20:36</time>
      </trkpt>
      <trkpt lat="37.05197" lon="-3.31542">
        <ele>3318.2</ele>
        <time>2021-08-06 11:20:37</time>
      </trkpt>
      <trkpt lat="37.05197" lon="-3.31542">
        <ele>3318</ele>
        <time>2021-08-06 11:20:38</time>
      </trkpt>
      <trkpt lat="37.05197" lon="-3.31542">
        <ele>3317.8</ele>
        <time>2021-08-06 11:20:39</time>
      </trkpt>
      <trkpt lat="37.05197" lon="-3.31542">
        <ele>3317.6</ele>
        <time>2021-08-06 11:20:40</time>
      </trkpt>
      <trkpt lat="37.05197" lon="-3.31542">
        <ele>3317.4</ele>
        <time>2021-08-06 11:20:41</time>
      </trkpt>
      <trkpt lat="37.05197" lon="-3.31543">
        <ele>3317.4</ele>
        <time>2021-08-06 11:20:42</time>
      </trkpt>
      <trkpt lat="37.05197" lon="-3.31543">
        <ele>3317.4</ele>
        <time>2021-08-06 11:20:43</time>
      </trkpt>
      <trkpt lat="37.05197" lon="-3.31542">
        <ele>3317.6</ele>
        <time>2021-08-06 11:20:44</time>
      </trkpt>
      <trkpt lat="37.05196" lon="-3.31542">
        <ele>3317.6</ele>
        <time>2021-08-06 11:20:45</time>
      </trkpt>
      <trkpt lat="37.05196" lon="-3.31542">
        <ele>3317.8</ele>
        <time>2021-08-06 11:20:46</time>
      </trkpt>
      <trkpt lat="37.05196" lon="-3.31542">
        <ele>3317.8</ele>
        <time>2021-08-06 11:20:47</time>
      </trkpt>
      <trkpt lat="37.05196" lon="-3.31542">
        <ele>3317.8</ele>
        <time>2021-08-06 11:20:48</time>
      </trkpt>
      <trkpt lat="37.05196" lon="-3.31542">
        <ele>3317.8</ele>
        <time>2021-08-06 11:20:49</time>
      </trkpt>
      <trkpt lat="37.05196" lon="-3.31542">
        <ele>3317.8</ele>
        <time>2021-08-06 11:20:50</time>
      </trkpt>
      <trkpt lat="37.05196" lon="-3.31542">
        <ele>3317.6</ele>
        <time>2021-08-06 11:20:51</time>
      </trkpt>
      <trkpt lat="37.05196" lon="-3.31542">
        <ele>3317.6</ele>
        <time>2021-08-06 11:20:52</time>
      </trkpt>
      <trkpt lat="37.05196" lon="-3.31542">
        <ele>3317.6</ele>
        <time>2021-08-06 11:20:53</time>
      </trkpt>
      <trkpt lat="37.05196" lon="-3.31541">
        <ele>3317.6</ele>
        <time>2021-08-06 11:20:54</time>
      </trkpt>
      <trkpt lat="37.05196" lon="-3.31541">
        <ele>3317.6</ele>
        <time>2021-08-06 11:20:55</time>
      </trkpt>
      <trkpt lat="37.05196" lon="-3.31541">
        <ele>3317.6</ele>
        <time>2021-08-06 11:20:56</time>
      </trkpt>
      <trkpt lat="37.05196" lon="-3.31541">
        <ele>3317.6</ele>
        <time>2021-08-06 11:20:57</time>
      </trkpt>
      <trkpt lat="37.05196" lon="-3.31541">
        <ele>3317.6</ele>
        <time>2021-08-06 11:20:58</time>
      </trkpt>
      <trkpt lat="37.05197" lon="-3.31541">
        <ele>3317.6</ele>
        <time>2021-08-06 11:20:59</time>
      </trkpt>
      <trkpt lat="37.05197" lon="-3.31541">
        <ele>3317.8</ele>
        <time>2021-08-06 11:21:00</time>
      </trkpt>
      <trkpt lat="37.05197" lon="-3.31541">
        <ele>3318</ele>
        <time>2021-08-06 11:21:01</time>
      </trkpt>
      <trkpt lat="37.05196" lon="-3.31541">
        <ele>3317.8</ele>
        <time>2021-08-06 11:21:02</time>
      </trkpt>
      <trkpt lat="37.05196" lon="-3.3154">
        <ele>3317.8</ele>
        <time>2021-08-06 11:21:03</time>
      </trkpt>
      <trkpt lat="37.05196" lon="-3.3154">
        <ele>3317.8</ele>
        <time>2021-08-06 11:21:04</time>
      </trkpt>
      <trkpt lat="37.05196" lon="-3.3154">
        <ele>3317.8</ele>
        <time>2021-08-06 11:21:05</time>
      </trkpt>
      <trkpt lat="37.05196" lon="-3.3154">
        <ele>3317.8</ele>
        <time>2021-08-06 11:21:06</time>
      </trkpt>
      <trkpt lat="37.05196" lon="-3.3154">
        <ele>3317.8</ele>
        <time>2021-08-06 11:21:07</time>
      </trkpt>
      <trkpt lat="37.05196" lon="-3.3154">
        <ele>3317.8</ele>
        <time>2021-08-06 11:21:08</time>
      </trkpt>
      <trkpt lat="37.05196" lon="-3.3154">
        <ele>3317.8</ele>
        <time>2021-08-06 11:21:09</time>
      </trkpt>
      <trkpt lat="37.05195" lon="-3.3154">
        <ele>3318</ele>
        <time>2021-08-06 11:21:10</time>
      </trkpt>
      <trkpt lat="37.05195" lon="-3.31539">
        <ele>3318</ele>
        <time>2021-08-06 11:21:11</time>
      </trkpt>
      <trkpt lat="37.05195" lon="-3.31539">
        <ele>3318</ele>
        <time>2021-08-06 11:21:12</time>
      </trkpt>
      <trkpt lat="37.05195" lon="-3.31539">
        <ele>3318</ele>
        <time>2021-08-06 11:21:13</time>
      </trkpt>
      <trkpt lat="37.05196" lon="-3.31539">
        <ele>3318</ele>
        <time>2021-08-06 11:21:14</time>
      </trkpt>
      <trkpt lat="37.05196" lon="-3.31538">
        <ele>3318.4</ele>
        <time>2021-08-06 11:21:15</time>
      </trkpt>
      <trkpt lat="37.05197" lon="-3.31538">
        <ele>3318.6</ele>
        <time>2021-08-06 11:21:16</time>
      </trkpt>
      <trkpt lat="37.05198" lon="-3.31538">
        <ele>3318.8</ele>
        <time>2021-08-06 11:21:17</time>
      </trkpt>
      <trkpt lat="37.05198" lon="-3.31537">
        <ele>3319.4</ele>
        <time>2021-08-06 11:21:18</time>
      </trkpt>
      <trkpt lat="37.05199" lon="-3.31537">
        <ele>3319.8</ele>
        <time>2021-08-06 11:21:19</time>
      </trkpt>
      <trkpt lat="37.05199" lon="-3.31536">
        <ele>3320</ele>
        <time>2021-08-06 11:21:20</time>
      </trkpt>
      <trkpt lat="37.05199" lon="-3.31536">
        <ele>3320</ele>
        <time>2021-08-06 11:21:21</time>
      </trkpt>
      <trkpt lat="37.05199" lon="-3.31536">
        <ele>3320.2</ele>
        <time>2021-08-06 11:21:22</time>
      </trkpt>
      <trkpt lat="37.05199" lon="-3.31535">
        <ele>3320.4</ele>
        <time>2021-08-06 11:21:23</time>
      </trkpt>
      <trkpt lat="37.05199" lon="-3.31535">
        <ele>3320.6</ele>
        <time>2021-08-06 11:21:24</time>
      </trkpt>
      <trkpt lat="37.05199" lon="-3.31534">
        <ele>3320.8</ele>
        <time>2021-08-06 11:21:25</time>
      </trkpt>
      <trkpt lat="37.05198" lon="-3.31534">
        <ele>3320.8</ele>
        <time>2021-08-06 11:21:26</time>
      </trkpt>
      <trkpt lat="37.05199" lon="-3.31534">
        <ele>3321.2</ele>
        <time>2021-08-06 11:21:27</time>
      </trkpt>
      <trkpt lat="37.05199" lon="-3.31533">
        <ele>3321.4</ele>
        <time>2021-08-06 11:21:28</time>
      </trkpt>
      <trkpt lat="37.05199" lon="-3.31533">
        <ele>3321.6</ele>
        <time>2021-08-06 11:21:29</time>
      </trkpt>
      <trkpt lat="37.052" lon="-3.31532">
        <ele>3321.8</ele>
        <time>2021-08-06 11:21:30</time>
      </trkpt>
      <trkpt lat="37.052" lon="-3.31532">
        <ele>3322</ele>
        <time>2021-08-06 11:21:31</time>
      </trkpt>
      <trkpt lat="37.052" lon="-3.31531">
        <ele>3322.2</ele>
        <time>2021-08-06 11:21:32</time>
      </trkpt>
      <trkpt lat="37.05199" lon="-3.31531">
        <ele>3322.2</ele>
        <time>2021-08-06 11:21:33</time>
      </trkpt>
      <trkpt lat="37.052" lon="-3.3153">
        <ele>3322.4</ele>
        <time>2021-08-06 11:21:34</time>
      </trkpt>
      <trkpt lat="37.052" lon="-3.3153">
        <ele>3322.4</ele>
        <time>2021-08-06 11:21:35</time>
      </trkpt>
      <trkpt lat="37.052" lon="-3.31529">
        <ele>3322.6</ele>
        <time>2021-08-06 11:21:36</time>
      </trkpt>
      <trkpt lat="37.05201" lon="-3.31529">
        <ele>3322.8</ele>
        <time>2021-08-06 11:21:37</time>
      </trkpt>
      <trkpt lat="37.05201" lon="-3.31528">
        <ele>3323.2</ele>
        <time>2021-08-06 11:21:38</time>
      </trkpt>
      <trkpt lat="37.05201" lon="-3.31528">
        <ele>3323.4</ele>
        <time>2021-08-06 11:21:39</time>
      </trkpt>
      <trkpt lat="37.052" lon="-3.31527">
        <ele>3323.6</ele>
        <time>2021-08-06 11:21:40</time>
      </trkpt>
      <trkpt lat="37.052" lon="-3.31527">
        <ele>3323.8</ele>
        <time>2021-08-06 11:21:41</time>
      </trkpt>
      <trkpt lat="37.052" lon="-3.31526">
        <ele>3324</ele>
        <time>2021-08-06 11:21:42</time>
      </trkpt>
      <trkpt lat="37.052" lon="-3.31525">
        <ele>3324</ele>
        <time>2021-08-06 11:21:43</time>
      </trkpt>
      <trkpt lat="37.052" lon="-3.31525">
        <ele>3324.2</ele>
        <time>2021-08-06 11:21:44</time>
      </trkpt>
      <trkpt lat="37.052" lon="-3.31525">
        <ele>3324.2</ele>
        <time>2021-08-06 11:21:45</time>
      </trkpt>
      <trkpt lat="37.05199" lon="-3.31525">
        <ele>3324.6</ele>
        <time>2021-08-06 11:21:46</time>
      </trkpt>
      <trkpt lat="37.05199" lon="-3.31525">
        <ele>3324.6</ele>
        <time>2021-08-06 11:21:47</time>
      </trkpt>
      <trkpt lat="37.05199" lon="-3.31524">
        <ele>3324.8</ele>
        <time>2021-08-06 11:21:48</time>
      </trkpt>
      <trkpt lat="37.05198" lon="-3.31524">
        <ele>3325</ele>
        <time>2021-08-06 11:21:49</time>
      </trkpt>
      <trkpt lat="37.05198" lon="-3.31524">
        <ele>3325.4</ele>
        <time>2021-08-06 11:21:50</time>
      </trkpt>
      <trkpt lat="37.05198" lon="-3.31523">
        <ele>3325.6</ele>
        <time>2021-08-06 11:21:51</time>
      </trkpt>
      <trkpt lat="37.05198" lon="-3.31523">
        <ele>3325.8</ele>
        <time>2021-08-06 11:21:52</time>
      </trkpt>
      <trkpt lat="37.05197" lon="-3.31523">
        <ele>3325.8</ele>
        <time>2021-08-06 11:21:53</time>
      </trkpt>
      <trkpt lat="37.05197" lon="-3.31523">
        <ele>3326</ele>
        <time>2021-08-06 11:21:54</time>
      </trkpt>
      <trkpt lat="37.05196" lon="-3.31523">
        <ele>3326.2</ele>
        <time>2021-08-06 11:21:55</time>
      </trkpt>
      <trkpt lat="37.05196" lon="-3.31523">
        <ele>3326.4</ele>
        <time>2021-08-06 11:21:56</time>
      </trkpt>
      <trkpt lat="37.05195" lon="-3.31523">
        <ele>3326.6</ele>
        <time>2021-08-06 11:21:57</time>
      </trkpt>
      <trkpt lat="37.05195" lon="-3.31522">
        <ele>3326.8</ele>
        <time>2021-08-06 11:21:58</time>
      </trkpt>
      <trkpt lat="37.05194" lon="-3.31522">
        <ele>3326.8</ele>
        <time>2021-08-06 11:21:59</time>
      </trkpt>
      <trkpt lat="37.05194" lon="-3.31521">
        <ele>3327</ele>
        <time>2021-08-06 11:22:00</time>
      </trkpt>
      <trkpt lat="37.05193" lon="-3.31521">
        <ele>3327</ele>
        <time>2021-08-06 11:22:01</time>
      </trkpt>
      <trkpt lat="37.05193" lon="-3.31521">
        <ele>3327</ele>
        <time>2021-08-06 11:22:02</time>
      </trkpt>
      <trkpt lat="37.05193" lon="-3.31521">
        <ele>3327</ele>
        <time>2021-08-06 11:22:03</time>
      </trkpt>
      <trkpt lat="37.05193" lon="-3.31521">
        <ele>3327.2</ele>
        <time>2021-08-06 11:22:04</time>
      </trkpt>
      <trkpt lat="37.05192" lon="-3.31521">
        <ele>3327.4</ele>
        <time>2021-08-06 11:22:05</time>
      </trkpt>
      <trkpt lat="37.05192" lon="-3.3152">
        <ele>3327.8</ele>
        <time>2021-08-06 11:22:06</time>
      </trkpt>
      <trkpt lat="37.05192" lon="-3.31519">
        <ele>3328.2</ele>
        <time>2021-08-06 11:22:07</time>
      </trkpt>
      <trkpt lat="37.05191" lon="-3.31518">
        <ele>3328.4</ele>
        <time>2021-08-06 11:22:08</time>
      </trkpt>
      <trkpt lat="37.05191" lon="-3.31517">
        <ele>3328.8</ele>
        <time>2021-08-06 11:22:09</time>
      </trkpt>
      <trkpt lat="37.05191" lon="-3.31517">
        <ele>3329</ele>
        <time>2021-08-06 11:22:10</time>
      </trkpt>
      <trkpt lat="37.05191" lon="-3.31516">
        <ele>3329.2</ele>
        <time>2021-08-06 11:22:11</time>
      </trkpt>
      <trkpt lat="37.05191" lon="-3.31515">
        <ele>3329.4</ele>
        <time>2021-08-06 11:22:12</time>
      </trkpt>
      <trkpt lat="37.05191" lon="-3.31515">
        <ele>3329.4</ele>
        <time>2021-08-06 11:22:13</time>
      </trkpt>
      <trkpt lat="37.0519" lon="-3.31514">
        <ele>3329.4</ele>
        <time>2021-08-06 11:22:14</time>
      </trkpt>
      <trkpt lat="37.05189" lon="-3.31514">
        <ele>3329.4</ele>
        <time>2021-08-06 11:22:15</time>
      </trkpt>
      <trkpt lat="37.05189" lon="-3.31513">
        <ele>3329.6</ele>
        <time>2021-08-06 11:22:16</time>
      </trkpt>
      <trkpt lat="37.0519" lon="-3.31513">
        <ele>3329.6</ele>
        <time>2021-08-06 11:22:17</time>
      </trkpt>
      <trkpt lat="37.0519" lon="-3.31512">
        <ele>3329.6</ele>
        <time>2021-08-06 11:22:18</time>
      </trkpt>
      <trkpt lat="37.05191" lon="-3.31512">
        <ele>3329.8</ele>
        <time>2021-08-06 11:22:19</time>
      </trkpt>
      <trkpt lat="37.05192" lon="-3.31511">
        <ele>3329.8</ele>
        <time>2021-08-06 11:22:20</time>
      </trkpt>
      <trkpt lat="37.05193" lon="-3.31511">
        <ele>3330</ele>
        <time>2021-08-06 11:22:21</time>
      </trkpt>
      <trkpt lat="37.05193" lon="-3.3151">
        <ele>3330</ele>
        <time>2021-08-06 11:22:22</time>
      </trkpt>
      <trkpt lat="37.05194" lon="-3.3151">
        <ele>3330.2</ele>
        <time>2021-08-06 11:22:23</time>
      </trkpt>
      <trkpt lat="37.05194" lon="-3.3151">
        <ele>3330.2</ele>
        <time>2021-08-06 11:22:24</time>
      </trkpt>
      <trkpt lat="37.05195" lon="-3.3151">
        <ele>3330.4</ele>
        <time>2021-08-06 11:22:25</time>
      </trkpt>
      <trkpt lat="37.05195" lon="-3.3151">
        <ele>3330.6</ele>
        <time>2021-08-06 11:22:26</time>
      </trkpt>
      <trkpt lat="37.05196" lon="-3.31509">
        <ele>3330.6</ele>
        <time>2021-08-06 11:22:27</time>
      </trkpt>
      <trkpt lat="37.05196" lon="-3.31509">
        <ele>3330.6</ele>
        <time>2021-08-06 11:22:28</time>
      </trkpt>
      <trkpt lat="37.05196" lon="-3.31509">
        <ele>3330.8</ele>
        <time>2021-08-06 11:22:29</time>
      </trkpt>
      <trkpt lat="37.05196" lon="-3.31509">
        <ele>3330.8</ele>
        <time>2021-08-06 11:22:30</time>
      </trkpt>
      <trkpt lat="37.05196" lon="-3.31508">
        <ele>3331</ele>
        <time>2021-08-06 11:22:31</time>
      </trkpt>
      <trkpt lat="37.05196" lon="-3.31508">
        <ele>3331.2</ele>
        <time>2021-08-06 11:22:32</time>
      </trkpt>
      <trkpt lat="37.05196" lon="-3.31507">
        <ele>3331.4</ele>
        <time>2021-08-06 11:22:33</time>
      </trkpt>
      <trkpt lat="37.05196" lon="-3.31506">
        <ele>3331.6</ele>
        <time>2021-08-06 11:22:34</time>
      </trkpt>
      <trkpt lat="37.05196" lon="-3.31505">
        <ele>3331.6</ele>
        <time>2021-08-06 11:22:35</time>
      </trkpt>
      <trkpt lat="37.05196" lon="-3.31505">
        <ele>3331.8</ele>
        <time>2021-08-06 11:22:36</time>
      </trkpt>
      <trkpt lat="37.05197" lon="-3.31505">
        <ele>3331.8</ele>
        <time>2021-08-06 11:22:37</time>
      </trkpt>
      <trkpt lat="37.05198" lon="-3.31505">
        <ele>3331.8</ele>
        <time>2021-08-06 11:22:38</time>
      </trkpt>
      <trkpt lat="37.05198" lon="-3.31505">
        <ele>3332</ele>
        <time>2021-08-06 11:22:39</time>
      </trkpt>
      <trkpt lat="37.05198" lon="-3.31505">
        <ele>3332.2</ele>
        <time>2021-08-06 11:22:40</time>
      </trkpt>
      <trkpt lat="37.05199" lon="-3.31505">
        <ele>3332.2</ele>
        <time>2021-08-06 11:22:41</time>
      </trkpt>
      <trkpt lat="37.05199" lon="-3.31505">
        <ele>3332.2</ele>
        <time>2021-08-06 11:22:42</time>
      </trkpt>
      <trkpt lat="37.052" lon="-3.31505">
        <ele>3332.2</ele>
        <time>2021-08-06 11:22:43</time>
      </trkpt>
      <trkpt lat="37.052" lon="-3.31505">
        <ele>3332.4</ele>
        <time>2021-08-06 11:22:44</time>
      </trkpt>
      <trkpt lat="37.05201" lon="-3.31506">
        <ele>3332.4</ele>
        <time>2021-08-06 11:22:45</time>
      </trkpt>
      <trkpt lat="37.05202" lon="-3.31506">
        <ele>3332.4</ele>
        <time>2021-08-06 11:22:46</time>
      </trkpt>
      <trkpt lat="37.05203" lon="-3.31506">
        <ele>3332.6</ele>
        <time>2021-08-06 11:22:47</time>
      </trkpt>
      <trkpt lat="37.05204" lon="-3.31507">
        <ele>3332.4</ele>
        <time>2021-08-06 11:22:48</time>
      </trkpt>
      <trkpt lat="37.05204" lon="-3.31508">
        <ele>3332.4</ele>
        <time>2021-08-06 11:22:49</time>
      </trkpt>
      <trkpt lat="37.05205" lon="-3.31508">
        <ele>3332.6</ele>
        <time>2021-08-06 11:22:50</time>
      </trkpt>
      <trkpt lat="37.05206" lon="-3.31507">
        <ele>3332.8</ele>
        <time>2021-08-06 11:22:51</time>
      </trkpt>
      <trkpt lat="37.05207" lon="-3.31508">
        <ele>3332.8</ele>
        <time>2021-08-06 11:22:52</time>
      </trkpt>
      <trkpt lat="37.05207" lon="-3.31509">
        <ele>3332.6</ele>
        <time>2021-08-06 11:22:53</time>
      </trkpt>
      <trkpt lat="37.05208" lon="-3.31509">
        <ele>3332.6</ele>
        <time>2021-08-06 11:22:54</time>
      </trkpt>
      <trkpt lat="37.05209" lon="-3.31509">
        <ele>3332.8</ele>
        <time>2021-08-06 11:22:55</time>
      </trkpt>
      <trkpt lat="37.0521" lon="-3.3151">
        <ele>3333</ele>
        <time>2021-08-06 11:22:56</time>
      </trkpt>
      <trkpt lat="37.0521" lon="-3.3151">
        <ele>3333</ele>
        <time>2021-08-06 11:22:57</time>
      </trkpt>
      <trkpt lat="37.05211" lon="-3.3151">
        <ele>3333</ele>
        <time>2021-08-06 11:22:58</time>
      </trkpt>
      <trkpt lat="37.05212" lon="-3.3151">
        <ele>3333</ele>
        <time>2021-08-06 11:22:59</time>
      </trkpt>
      <trkpt lat="37.05212" lon="-3.31511">
        <ele>3333</ele>
        <time>2021-08-06 11:23:00</time>
      </trkpt>
      <trkpt lat="37.05213" lon="-3.31511">
        <ele>3333.2</ele>
        <time>2021-08-06 11:23:01</time>
      </trkpt>
      <trkpt lat="37.05213" lon="-3.31511">
        <ele>3333.2</ele>
        <time>2021-08-06 11:23:02</time>
      </trkpt>
      <trkpt lat="37.05214" lon="-3.31511">
        <ele>3333.2</ele>
        <time>2021-08-06 11:23:03</time>
      </trkpt>
      <trkpt lat="37.05215" lon="-3.31512">
        <ele>3333.4</ele>
        <time>2021-08-06 11:23:04</time>
      </trkpt>
      <trkpt lat="37.05215" lon="-3.31512">
        <ele>3333.6</ele>
        <time>2021-08-06 11:23:05</time>
      </trkpt>
      <trkpt lat="37.05216" lon="-3.31512">
        <ele>3333.6</ele>
        <time>2021-08-06 11:23:06</time>
      </trkpt>
      <trkpt lat="37.05216" lon="-3.31511">
        <ele>3333.8</ele>
        <time>2021-08-06 11:23:07</time>
      </trkpt>
      <trkpt lat="37.05217" lon="-3.31511">
        <ele>3333.8</ele>
        <time>2021-08-06 11:23:08</time>
      </trkpt>
      <trkpt lat="37.05218" lon="-3.31511">
        <ele>3333.8</ele>
        <time>2021-08-06 11:23:09</time>
      </trkpt>
      <trkpt lat="37.05218" lon="-3.3151">
        <ele>3334</ele>
        <time>2021-08-06 11:23:10</time>
      </trkpt>
      <trkpt lat="37.05219" lon="-3.31509">
        <ele>3334</ele>
        <time>2021-08-06 11:23:11</time>
      </trkpt>
      <trkpt lat="37.0522" lon="-3.31509">
        <ele>3334.4</ele>
        <time>2021-08-06 11:23:12</time>
      </trkpt>
      <trkpt lat="37.0522" lon="-3.31508">
        <ele>3334.6</ele>
        <time>2021-08-06 11:23:13</time>
      </trkpt>
      <trkpt lat="37.05221" lon="-3.31507">
        <ele>3334.6</ele>
        <time>2021-08-06 11:23:14</time>
      </trkpt>
      <trkpt lat="37.05221" lon="-3.31507">
        <ele>3335</ele>
        <time>2021-08-06 11:23:15</time>
      </trkpt>
      <trkpt lat="37.05221" lon="-3.31506">
        <ele>3335</ele>
        <time>2021-08-06 11:23:16</time>
      </trkpt>
      <trkpt lat="37.05221" lon="-3.31504">
        <ele>3335.2</ele>
        <time>2021-08-06 11:23:17</time>
      </trkpt>
      <trkpt lat="37.05221" lon="-3.31503">
        <ele>3335.4</ele>
        <time>2021-08-06 11:23:18</time>
      </trkpt>
      <trkpt lat="37.0522" lon="-3.31502">
        <ele>3335.4</ele>
        <time>2021-08-06 11:23:19</time>
      </trkpt>
      <trkpt lat="37.05219" lon="-3.31501">
        <ele>3335.6</ele>
        <time>2021-08-06 11:23:20</time>
      </trkpt>
      <trkpt lat="37.05218" lon="-3.31501">
        <ele>3335.8</ele>
        <time>2021-08-06 11:23:21</time>
      </trkpt>
      <trkpt lat="37.05219" lon="-3.315">
        <ele>3335.8</ele>
        <time>2021-08-06 11:23:22</time>
      </trkpt>
      <trkpt lat="37.05218" lon="-3.315">
        <ele>3335.8</ele>
        <time>2021-08-06 11:23:23</time>
      </trkpt>
      <trkpt lat="37.05217" lon="-3.31499">
        <ele>3336.2</ele>
        <time>2021-08-06 11:23:24</time>
      </trkpt>
      <trkpt lat="37.05218" lon="-3.31499">
        <ele>3336.2</ele>
        <time>2021-08-06 11:23:25</time>
      </trkpt>
      <trkpt lat="37.05217" lon="-3.31498">
        <ele>3336.6</ele>
        <time>2021-08-06 11:23:26</time>
      </trkpt>
      <trkpt lat="37.05217" lon="-3.31497">
        <ele>3336.8</ele>
        <time>2021-08-06 11:23:27</time>
      </trkpt>
      <trkpt lat="37.05217" lon="-3.31496">
        <ele>3337</ele>
        <time>2021-08-06 11:23:28</time>
      </trkpt>
      <trkpt lat="37.05216" lon="-3.31495">
        <ele>3337</ele>
        <time>2021-08-06 11:23:29</time>
      </trkpt>
      <trkpt lat="37.05217" lon="-3.31495">
        <ele>3337.2</ele>
        <time>2021-08-06 11:23:30</time>
      </trkpt>
      <trkpt lat="37.05216" lon="-3.31494">
        <ele>3337.4</ele>
        <time>2021-08-06 11:23:31</time>
      </trkpt>
      <trkpt lat="37.05215" lon="-3.31493">
        <ele>3337.6</ele>
        <time>2021-08-06 11:23:32</time>
      </trkpt>
      <trkpt lat="37.05215" lon="-3.31492">
        <ele>3337.8</ele>
        <time>2021-08-06 11:23:33</time>
      </trkpt>
      <trkpt lat="37.05214" lon="-3.31491">
        <ele>3338</ele>
        <time>2021-08-06 11:23:34</time>
      </trkpt>
      <trkpt lat="37.05213" lon="-3.31491">
        <ele>3338</ele>
        <time>2021-08-06 11:23:35</time>
      </trkpt>
      <trkpt lat="37.05213" lon="-3.31491">
        <ele>3338.2</ele>
        <time>2021-08-06 11:23:36</time>
      </trkpt>
      <trkpt lat="37.05213" lon="-3.3149">
        <ele>3338.2</ele>
        <time>2021-08-06 11:23:37</time>
      </trkpt>
      <trkpt lat="37.05214" lon="-3.3149">
        <ele>3338.4</ele>
        <time>2021-08-06 11:23:38</time>
      </trkpt>
      <trkpt lat="37.05214" lon="-3.3149">
        <ele>3338.6</ele>
        <time>2021-08-06 11:23:39</time>
      </trkpt>
      <trkpt lat="37.05214" lon="-3.31489">
        <ele>3338.8</ele>
        <time>2021-08-06 11:23:40</time>
      </trkpt>
      <trkpt lat="37.05214" lon="-3.31489">
        <ele>3339</ele>
        <time>2021-08-06 11:23:41</time>
      </trkpt>
      <trkpt lat="37.05213" lon="-3.31488">
        <ele>3339</ele>
        <time>2021-08-06 11:23:42</time>
      </trkpt>
      <trkpt lat="37.05213" lon="-3.31488">
        <ele>3339.2</ele>
        <time>2021-08-06 11:23:43</time>
      </trkpt>
      <trkpt lat="37.05213" lon="-3.31487">
        <ele>3339.2</ele>
        <time>2021-08-06 11:23:44</time>
      </trkpt>
      <trkpt lat="37.05213" lon="-3.31487">
        <ele>3339.2</ele>
        <time>2021-08-06 11:23:45</time>
      </trkpt>
      <trkpt lat="37.05213" lon="-3.31486">
        <ele>3339.2</ele>
        <time>2021-08-06 11:23:46</time>
      </trkpt>
      <trkpt lat="37.05213" lon="-3.31486">
        <ele>3339.2</ele>
        <time>2021-08-06 11:23:47</time>
      </trkpt>
      <trkpt lat="37.05213" lon="-3.31486">
        <ele>3339.4</ele>
        <time>2021-08-06 11:23:48</time>
      </trkpt>
      <trkpt lat="37.05213" lon="-3.31485">
        <ele>3339.6</ele>
        <time>2021-08-06 11:23:49</time>
      </trkpt>
      <trkpt lat="37.05213" lon="-3.31486">
        <ele>3340</ele>
        <time>2021-08-06 11:23:50</time>
      </trkpt>
      <trkpt lat="37.05213" lon="-3.31485">
        <ele>3340.2</ele>
        <time>2021-08-06 11:23:51</time>
      </trkpt>
      <trkpt lat="37.05213" lon="-3.31485">
        <ele>3340.2</ele>
        <time>2021-08-06 11:23:52</time>
      </trkpt>
      <trkpt lat="37.05213" lon="-3.31485">
        <ele>3340.2</ele>
        <time>2021-08-06 11:23:53</time>
      </trkpt>
      <trkpt lat="37.05213" lon="-3.31485">
        <ele>3340.4</ele>
        <time>2021-08-06 11:23:54</time>
      </trkpt>
      <trkpt lat="37.05213" lon="-3.31484">
        <ele>3340.4</ele>
        <time>2021-08-06 11:23:55</time>
      </trkpt>
      <trkpt lat="37.05214" lon="-3.31484">
        <ele>3340.6</ele>
        <time>2021-08-06 11:23:56</time>
      </trkpt>
      <trkpt lat="37.05214" lon="-3.31483">
        <ele>3340.8</ele>
        <time>2021-08-06 11:23:57</time>
      </trkpt>
      <trkpt lat="37.05214" lon="-3.31483">
        <ele>3341</ele>
        <time>2021-08-06 11:23:58</time>
      </trkpt>
      <trkpt lat="37.05214" lon="-3.31482">
        <ele>3341</ele>
        <time>2021-08-06 11:23:59</time>
      </trkpt>
      <trkpt lat="37.05214" lon="-3.31482">
        <ele>3341.2</ele>
        <time>2021-08-06 11:24:00</time>
      </trkpt>
      <trkpt lat="37.05214" lon="-3.31482">
        <ele>3341.4</ele>
        <time>2021-08-06 11:24:01</time>
      </trkpt>
      <trkpt lat="37.05214" lon="-3.31482">
        <ele>3341.6</ele>
        <time>2021-08-06 11:24:02</time>
      </trkpt>
      <trkpt lat="37.05213" lon="-3.31481">
        <ele>3342</ele>
        <time>2021-08-06 11:24:03</time>
      </trkpt>
      <trkpt lat="37.05214" lon="-3.31481">
        <ele>3342.2</ele>
        <time>2021-08-06 11:24:04</time>
      </trkpt>
      <trkpt lat="37.05215" lon="-3.31481">
        <ele>3342.6</ele>
        <time>2021-08-06 11:24:05</time>
      </trkpt>
      <trkpt lat="37.05216" lon="-3.3148">
        <ele>3342.8</ele>
        <time>2021-08-06 11:24:06</time>
      </trkpt>
      <trkpt lat="37.05216" lon="-3.3148">
        <ele>3343</ele>
        <time>2021-08-06 11:24:07</time>
      </trkpt>
      <trkpt lat="37.05216" lon="-3.3148">
        <ele>3343.2</ele>
        <time>2021-08-06 11:24:08</time>
      </trkpt>
      <trkpt lat="37.05217" lon="-3.3148">
        <ele>3343.2</ele>
        <time>2021-08-06 11:24:09</time>
      </trkpt>
      <trkpt lat="37.05217" lon="-3.3148">
        <ele>3343.4</ele>
        <time>2021-08-06 11:24:10</time>
      </trkpt>
      <trkpt lat="37.05218" lon="-3.31479">
        <ele>3343.6</ele>
        <time>2021-08-06 11:24:11</time>
      </trkpt>
      <trkpt lat="37.05218" lon="-3.31479">
        <ele>3343.8</ele>
        <time>2021-08-06 11:24:12</time>
      </trkpt>
      <trkpt lat="37.05218" lon="-3.31479">
        <ele>3344.2</ele>
        <time>2021-08-06 11:24:13</time>
      </trkpt>
      <trkpt lat="37.05217" lon="-3.31479">
        <ele>3344.4</ele>
        <time>2021-08-06 11:24:14</time>
      </trkpt>
      <trkpt lat="37.05217" lon="-3.31478">
        <ele>3344.6</ele>
        <time>2021-08-06 11:24:15</time>
      </trkpt>
      <trkpt lat="37.05217" lon="-3.31478">
        <ele>3344.8</ele>
        <time>2021-08-06 11:24:16</time>
      </trkpt>
      <trkpt lat="37.05216" lon="-3.31477">
        <ele>3345</ele>
        <time>2021-08-06 11:24:17</time>
      </trkpt>
      <trkpt lat="37.05215" lon="-3.31477">
        <ele>3345</ele>
        <time>2021-08-06 11:24:18</time>
      </trkpt>
      <trkpt lat="37.05215" lon="-3.31477">
        <ele>3345.2</ele>
        <time>2021-08-06 11:24:19</time>
      </trkpt>
      <trkpt lat="37.05214" lon="-3.31476">
        <ele>3345.2</ele>
        <time>2021-08-06 11:24:20</time>
      </trkpt>
      <trkpt lat="37.05214" lon="-3.31475">
        <ele>3345.4</ele>
        <time>2021-08-06 11:24:21</time>
      </trkpt>
      <trkpt lat="37.05214" lon="-3.31475">
        <ele>3345.4</ele>
        <time>2021-08-06 11:24:22</time>
      </trkpt>
      <trkpt lat="37.05214" lon="-3.31474">
        <ele>3345.4</ele>
        <time>2021-08-06 11:24:23</time>
      </trkpt>
      <trkpt lat="37.05214" lon="-3.31474">
        <ele>3345.6</ele>
        <time>2021-08-06 11:24:24</time>
      </trkpt>
      <trkpt lat="37.05214" lon="-3.31474">
        <ele>3345.8</ele>
        <time>2021-08-06 11:24:25</time>
      </trkpt>
      <trkpt lat="37.05214" lon="-3.31473">
        <ele>3346.2</ele>
        <time>2021-08-06 11:24:26</time>
      </trkpt>
      <trkpt lat="37.05215" lon="-3.31473">
        <ele>3346.4</ele>
        <time>2021-08-06 11:24:27</time>
      </trkpt>
      <trkpt lat="37.05215" lon="-3.31473">
        <ele>3346.6</ele>
        <time>2021-08-06 11:24:28</time>
      </trkpt>
      <trkpt lat="37.05216" lon="-3.31472">
        <ele>3346.8</ele>
        <time>2021-08-06 11:24:29</time>
      </trkpt>
      <trkpt lat="37.05216" lon="-3.31472">
        <ele>3346.8</ele>
        <time>2021-08-06 11:24:30</time>
      </trkpt>
      <trkpt lat="37.05216" lon="-3.31472">
        <ele>3347</ele>
        <time>2021-08-06 11:24:31</time>
      </trkpt>
      <trkpt lat="37.05216" lon="-3.31472">
        <ele>3347</ele>
        <time>2021-08-06 11:24:32</time>
      </trkpt>
      <trkpt lat="37.05216" lon="-3.31472">
        <ele>3347</ele>
        <time>2021-08-06 11:24:33</time>
      </trkpt>
      <trkpt lat="37.05216" lon="-3.31472">
        <ele>3347.4</ele>
        <time>2021-08-06 11:24:34</time>
      </trkpt>
      <trkpt lat="37.05216" lon="-3.31471">
        <ele>3347.6</ele>
        <time>2021-08-06 11:24:35</time>
      </trkpt>
      <trkpt lat="37.05216" lon="-3.31471">
        <ele>3347.8</ele>
        <time>2021-08-06 11:24:36</time>
      </trkpt>
      <trkpt lat="37.05216" lon="-3.31471">
        <ele>3347.8</ele>
        <time>2021-08-06 11:24:37</time>
      </trkpt>
      <trkpt lat="37.05216" lon="-3.3147">
        <ele>3348</ele>
        <time>2021-08-06 11:24:38</time>
      </trkpt>
      <trkpt lat="37.05216" lon="-3.3147">
        <ele>3348</ele>
        <time>2021-08-06 11:24:39</time>
      </trkpt>
      <trkpt lat="37.05216" lon="-3.31469">
        <ele>3348.2</ele>
        <time>2021-08-06 11:24:40</time>
      </trkpt>
      <trkpt lat="37.05215" lon="-3.31469">
        <ele>3348.2</ele>
        <time>2021-08-06 11:24:41</time>
      </trkpt>
      <trkpt lat="37.05215" lon="-3.31469">
        <ele>3348.2</ele>
        <time>2021-08-06 11:24:42</time>
      </trkpt>
      <trkpt lat="37.05215" lon="-3.31469">
        <ele>3348.2</ele>
        <time>2021-08-06 11:24:43</time>
      </trkpt>
      <trkpt lat="37.05215" lon="-3.31469">
        <ele>3348.4</ele>
        <time>2021-08-06 11:24:44</time>
      </trkpt>
      <trkpt lat="37.05215" lon="-3.31469">
        <ele>3348.6</ele>
        <time>2021-08-06 11:24:45</time>
      </trkpt>
      <trkpt lat="37.05215" lon="-3.31468">
        <ele>3348.6</ele>
        <time>2021-08-06 11:24:46</time>
      </trkpt>
      <trkpt lat="37.05214" lon="-3.31467">
        <ele>3348.8</ele>
        <time>2021-08-06 11:24:47</time>
      </trkpt>
      <trkpt lat="37.05214" lon="-3.31467">
        <ele>3348.8</ele>
        <time>2021-08-06 11:24:48</time>
      </trkpt>
      <trkpt lat="37.05215" lon="-3.31467">
        <ele>3348.8</ele>
        <time>2021-08-06 11:24:49</time>
      </trkpt>
      <trkpt lat="37.05215" lon="-3.31466">
        <ele>3349</ele>
        <time>2021-08-06 11:24:50</time>
      </trkpt>
      <trkpt lat="37.05216" lon="-3.31466">
        <ele>3349.2</ele>
        <time>2021-08-06 11:24:51</time>
      </trkpt>
      <trkpt lat="37.05216" lon="-3.31465">
        <ele>3349.2</ele>
        <time>2021-08-06 11:24:52</time>
      </trkpt>
      <trkpt lat="37.05216" lon="-3.31465">
        <ele>3349.6</ele>
        <time>2021-08-06 11:24:53</time>
      </trkpt>
      <trkpt lat="37.05217" lon="-3.31465">
        <ele>3349.8</ele>
        <time>2021-08-06 11:24:54</time>
      </trkpt>
      <trkpt lat="37.05216" lon="-3.31464">
        <ele>3349.8</ele>
        <time>2021-08-06 11:24:55</time>
      </trkpt>
      <trkpt lat="37.05216" lon="-3.31464">
        <ele>3350.2</ele>
        <time>2021-08-06 11:24:56</time>
      </trkpt>
      <trkpt lat="37.05216" lon="-3.31463">
        <ele>3350.4</ele>
        <time>2021-08-06 11:24:57</time>
      </trkpt>
      <trkpt lat="37.05216" lon="-3.31463">
        <ele>3350.6</ele>
        <time>2021-08-06 11:24:58</time>
      </trkpt>
      <trkpt lat="37.05216" lon="-3.31463">
        <ele>3351</ele>
        <time>2021-08-06 11:24:59</time>
      </trkpt>
      <trkpt lat="37.05216" lon="-3.31463">
        <ele>3351</ele>
        <time>2021-08-06 11:25:00</time>
      </trkpt>
      <trkpt lat="37.05215" lon="-3.31463">
        <ele>3351.2</ele>
        <time>2021-08-06 11:25:01</time>
      </trkpt>
      <trkpt lat="37.05215" lon="-3.31463">
        <ele>3351.4</ele>
        <time>2021-08-06 11:25:02</time>
      </trkpt>
      <trkpt lat="37.05214" lon="-3.31463">
        <ele>3351.4</ele>
        <time>2021-08-06 11:25:03</time>
      </trkpt>
      <trkpt lat="37.05213" lon="-3.31463">
        <ele>3351.6</ele>
        <time>2021-08-06 11:25:04</time>
      </trkpt>
      <trkpt lat="37.05213" lon="-3.31463">
        <ele>3351.8</ele>
        <time>2021-08-06 11:25:05</time>
      </trkpt>
      <trkpt lat="37.05212" lon="-3.31462">
        <ele>3351.8</ele>
        <time>2021-08-06 11:25:06</time>
      </trkpt>
      <trkpt lat="37.05211" lon="-3.31462">
        <ele>3351.8</ele>
        <time>2021-08-06 11:25:07</time>
      </trkpt>
      <trkpt lat="37.05211" lon="-3.31462">
        <ele>3351.8</ele>
        <time>2021-08-06 11:25:08</time>
      </trkpt>
      <trkpt lat="37.05211" lon="-3.31462">
        <ele>3352</ele>
        <time>2021-08-06 11:25:09</time>
      </trkpt>
      <trkpt lat="37.05211" lon="-3.31461">
        <ele>3352</ele>
        <time>2021-08-06 11:25:10</time>
      </trkpt>
      <trkpt lat="37.0521" lon="-3.3146">
        <ele>3352</ele>
        <time>2021-08-06 11:25:11</time>
      </trkpt>
      <trkpt lat="37.0521" lon="-3.3146">
        <ele>3352.2</ele>
        <time>2021-08-06 11:25:12</time>
      </trkpt>
      <trkpt lat="37.0521" lon="-3.3146">
        <ele>3352.2</ele>
        <time>2021-08-06 11:25:13</time>
      </trkpt>
      <trkpt lat="37.0521" lon="-3.31459">
        <ele>3352.4</ele>
        <time>2021-08-06 11:25:14</time>
      </trkpt>
      <trkpt lat="37.0521" lon="-3.31459">
        <ele>3352.4</ele>
        <time>2021-08-06 11:25:15</time>
      </trkpt>
      <trkpt lat="37.0521" lon="-3.31459">
        <ele>3352.8</ele>
        <time>2021-08-06 11:25:16</time>
      </trkpt>
      <trkpt lat="37.0521" lon="-3.31458">
        <ele>3353</ele>
        <time>2021-08-06 11:25:17</time>
      </trkpt>
      <trkpt lat="37.0521" lon="-3.31458">
        <ele>3353.2</ele>
        <time>2021-08-06 11:25:18</time>
      </trkpt>
      <trkpt lat="37.05211" lon="-3.31458">
        <ele>3353.4</ele>
        <time>2021-08-06 11:25:19</time>
      </trkpt>
      <trkpt lat="37.05211" lon="-3.31458">
        <ele>3353.4</ele>
        <time>2021-08-06 11:25:20</time>
      </trkpt>
      <trkpt lat="37.05212" lon="-3.31457">
        <ele>3353.4</ele>
        <time>2021-08-06 11:25:21</time>
      </trkpt>
      <trkpt lat="37.05212" lon="-3.31457">
        <ele>3353.4</ele>
        <time>2021-08-06 11:25:22</time>
      </trkpt>
      <trkpt lat="37.05213" lon="-3.31457">
        <ele>3353.4</ele>
        <time>2021-08-06 11:25:23</time>
      </trkpt>
      <trkpt lat="37.05213" lon="-3.31456">
        <ele>3353.4</ele>
        <time>2021-08-06 11:25:24</time>
      </trkpt>
      <trkpt lat="37.05213" lon="-3.31455">
        <ele>3353.8</ele>
        <time>2021-08-06 11:25:25</time>
      </trkpt>
      <trkpt lat="37.05213" lon="-3.31455">
        <ele>3354.2</ele>
        <time>2021-08-06 11:25:26</time>
      </trkpt>
      <trkpt lat="37.05213" lon="-3.31455">
        <ele>3354.4</ele>
        <time>2021-08-06 11:25:27</time>
      </trkpt>
      <trkpt lat="37.05213" lon="-3.31455">
        <ele>3354.6</ele>
        <time>2021-08-06 11:25:28</time>
      </trkpt>
      <trkpt lat="37.05213" lon="-3.31455">
        <ele>3354.8</ele>
        <time>2021-08-06 11:25:29</time>
      </trkpt>
      <trkpt lat="37.05213" lon="-3.31455">
        <ele>3354.8</ele>
        <time>2021-08-06 11:25:30</time>
      </trkpt>
      <trkpt lat="37.05213" lon="-3.31455">
        <ele>3355</ele>
        <time>2021-08-06 11:25:31</time>
      </trkpt>
      <trkpt lat="37.05213" lon="-3.31455">
        <ele>3355</ele>
        <time>2021-08-06 11:25:32</time>
      </trkpt>
      <trkpt lat="37.05213" lon="-3.31455">
        <ele>3355</ele>
        <time>2021-08-06 11:25:33</time>
      </trkpt>
      <trkpt lat="37.05213" lon="-3.31455">
        <ele>3355</ele>
        <time>2021-08-06 11:25:34</time>
      </trkpt>
      <trkpt lat="37.05213" lon="-3.31455">
        <ele>3355</ele>
        <time>2021-08-06 11:25:35</time>
      </trkpt>
      <trkpt lat="37.05213" lon="-3.31455">
        <ele>3355</ele>
        <time>2021-08-06 11:25:36</time>
      </trkpt>
      <trkpt lat="37.05213" lon="-3.31455">
        <ele>3354.8</ele>
        <time>2021-08-06 11:25:37</time>
      </trkpt>
      <trkpt lat="37.05213" lon="-3.31455">
        <ele>3354.8</ele>
        <time>2021-08-06 11:25:38</time>
      </trkpt>
      <trkpt lat="37.05213" lon="-3.31455">
        <ele>3354.6</ele>
        <time>2021-08-06 11:25:39</time>
      </trkpt>
      <trkpt lat="37.05213" lon="-3.31455">
        <ele>3354.6</ele>
        <time>2021-08-06 11:25:40</time>
      </trkpt>
      <trkpt lat="37.05213" lon="-3.31455">
        <ele>3354.6</ele>
        <time>2021-08-06 11:25:41</time>
      </trkpt>
      <trkpt lat="37.05213" lon="-3.31454">
        <ele>3354.8</ele>
        <time>2021-08-06 11:25:42</time>
      </trkpt>
      <trkpt lat="37.05213" lon="-3.31454">
        <ele>3354.8</ele>
        <time>2021-08-06 11:25:43</time>
      </trkpt>
      <trkpt lat="37.05213" lon="-3.31454">
        <ele>3355</ele>
        <time>2021-08-06 11:25:44</time>
      </trkpt>
      <trkpt lat="37.05213" lon="-3.31453">
        <ele>3355.2</ele>
        <time>2021-08-06 11:25:45</time>
      </trkpt>
      <trkpt lat="37.05213" lon="-3.31453">
        <ele>3355.4</ele>
        <time>2021-08-06 11:25:46</time>
      </trkpt>
      <trkpt lat="37.05213" lon="-3.31452">
        <ele>3355.6</ele>
        <time>2021-08-06 11:25:47</time>
      </trkpt>
      <trkpt lat="37.05214" lon="-3.31452">
        <ele>3355.8</ele>
        <time>2021-08-06 11:25:48</time>
      </trkpt>
      <trkpt lat="37.05215" lon="-3.31452">
        <ele>3355.8</ele>
        <time>2021-08-06 11:25:49</time>
      </trkpt>
      <trkpt lat="37.05215" lon="-3.31452">
        <ele>3356</ele>
        <time>2021-08-06 11:25:50</time>
      </trkpt>
      <trkpt lat="37.05215" lon="-3.31451">
        <ele>3356.2</ele>
        <time>2021-08-06 11:25:51</time>
      </trkpt>
      <trkpt lat="37.05215" lon="-3.31451">
        <ele>3356.4</ele>
        <time>2021-08-06 11:25:52</time>
      </trkpt>
      <trkpt lat="37.05215" lon="-3.31451">
        <ele>3356.6</ele>
        <time>2021-08-06 11:25:53</time>
      </trkpt>
      <trkpt lat="37.05216" lon="-3.31451">
        <ele>3356.6</ele>
        <time>2021-08-06 11:25:54</time>
      </trkpt>
      <trkpt lat="37.05216" lon="-3.31451">
        <ele>3356.8</ele>
        <time>2021-08-06 11:25:55</time>
      </trkpt>
      <trkpt lat="37.05217" lon="-3.3145">
        <ele>3356.8</ele>
        <time>2021-08-06 11:25:56</time>
      </trkpt>
      <trkpt lat="37.05217" lon="-3.3145">
        <ele>3357</ele>
        <time>2021-08-06 11:25:57</time>
      </trkpt>
      <trkpt lat="37.05218" lon="-3.31449">
        <ele>3357.4</ele>
        <time>2021-08-06 11:25:58</time>
      </trkpt>
      <trkpt lat="37.05219" lon="-3.31449">
        <ele>3357.6</ele>
        <time>2021-08-06 11:25:59</time>
      </trkpt>
      <trkpt lat="37.05219" lon="-3.31448">
        <ele>3357.6</ele>
        <time>2021-08-06 11:26:00</time>
      </trkpt>
      <trkpt lat="37.05219" lon="-3.31448">
        <ele>3357.8</ele>
        <time>2021-08-06 11:26:01</time>
      </trkpt>
      <trkpt lat="37.0522" lon="-3.31448">
        <ele>3358</ele>
        <time>2021-08-06 11:26:02</time>
      </trkpt>
      <trkpt lat="37.0522" lon="-3.31448">
        <ele>3358.2</ele>
        <time>2021-08-06 11:26:03</time>
      </trkpt>
      <trkpt lat="37.0522" lon="-3.31449">
        <ele>3358.2</ele>
        <time>2021-08-06 11:26:04</time>
      </trkpt>
      <trkpt lat="37.0522" lon="-3.31449">
        <ele>3358.4</ele>
        <time>2021-08-06 11:26:05</time>
      </trkpt>
      <trkpt lat="37.0522" lon="-3.31449">
        <ele>3358.6</ele>
        <time>2021-08-06 11:26:06</time>
      </trkpt>
      <trkpt lat="37.0522" lon="-3.31449">
        <ele>3358.6</ele>
        <time>2021-08-06 11:26:07</time>
      </trkpt>
      <trkpt lat="37.0522" lon="-3.31449">
        <ele>3358.8</ele>
        <time>2021-08-06 11:26:08</time>
      </trkpt>
      <trkpt lat="37.0522" lon="-3.31448">
        <ele>3358.8</ele>
        <time>2021-08-06 11:26:09</time>
      </trkpt>
      <trkpt lat="37.0522" lon="-3.31447">
        <ele>3358.8</ele>
        <time>2021-08-06 11:26:10</time>
      </trkpt>
      <trkpt lat="37.0522" lon="-3.31447">
        <ele>3358.8</ele>
        <time>2021-08-06 11:26:11</time>
      </trkpt>
      <trkpt lat="37.0522" lon="-3.31447">
        <ele>3358.8</ele>
        <time>2021-08-06 11:26:12</time>
      </trkpt>
      <trkpt lat="37.0522" lon="-3.31446">
        <ele>3359</ele>
        <time>2021-08-06 11:26:13</time>
      </trkpt>
      <trkpt lat="37.0522" lon="-3.31446">
        <ele>3359.2</ele>
        <time>2021-08-06 11:26:14</time>
      </trkpt>
      <trkpt lat="37.0522" lon="-3.31446">
        <ele>3359.4</ele>
        <time>2021-08-06 11:26:15</time>
      </trkpt>
      <trkpt lat="37.05221" lon="-3.31446">
        <ele>3359.4</ele>
        <time>2021-08-06 11:26:16</time>
      </trkpt>
      <trkpt lat="37.05221" lon="-3.31446">
        <ele>3359.4</ele>
        <time>2021-08-06 11:26:17</time>
      </trkpt>
      <trkpt lat="37.05222" lon="-3.31446">
        <ele>3359.4</ele>
        <time>2021-08-06 11:26:18</time>
      </trkpt>
      <trkpt lat="37.05222" lon="-3.31445">
        <ele>3359.8</ele>
        <time>2021-08-06 11:26:19</time>
      </trkpt>
      <trkpt lat="37.05222" lon="-3.31445">
        <ele>3360</ele>
        <time>2021-08-06 11:26:20</time>
      </trkpt>
      <trkpt lat="37.05221" lon="-3.31444">
        <ele>3360.2</ele>
        <time>2021-08-06 11:26:21</time>
      </trkpt>
      <trkpt lat="37.05221" lon="-3.31443">
        <ele>3360.2</ele>
        <time>2021-08-06 11:26:22</time>
      </trkpt>
      <trkpt lat="37.05221" lon="-3.31443">
        <ele>3360.4</ele>
        <time>2021-08-06 11:26:23</time>
      </trkpt>
      <trkpt lat="37.05221" lon="-3.31442">
        <ele>3360.6</ele>
        <time>2021-08-06 11:26:24</time>
      </trkpt>
      <trkpt lat="37.05222" lon="-3.31442">
        <ele>3360.8</ele>
        <time>2021-08-06 11:26:25</time>
      </trkpt>
      <trkpt lat="37.05222" lon="-3.31442">
        <ele>3361.2</ele>
        <time>2021-08-06 11:26:26</time>
      </trkpt>
      <trkpt lat="37.05222" lon="-3.31441">
        <ele>3361.2</ele>
        <time>2021-08-06 11:26:27</time>
      </trkpt>
      <trkpt lat="37.05223" lon="-3.3144">
        <ele>3361.4</ele>
        <time>2021-08-06 11:26:28</time>
      </trkpt>
      <trkpt lat="37.05223" lon="-3.3144">
        <ele>3361.4</ele>
        <time>2021-08-06 11:26:29</time>
      </trkpt>
      <trkpt lat="37.05223" lon="-3.31439">
        <ele>3361.8</ele>
        <time>2021-08-06 11:26:30</time>
      </trkpt>
      <trkpt lat="37.05223" lon="-3.31439">
        <ele>3362</ele>
        <time>2021-08-06 11:26:31</time>
      </trkpt>
      <trkpt lat="37.05223" lon="-3.31438">
        <ele>3362</ele>
        <time>2021-08-06 11:26:32</time>
      </trkpt>
      <trkpt lat="37.05223" lon="-3.31438">
        <ele>3362.2</ele>
        <time>2021-08-06 11:26:33</time>
      </trkpt>
      <trkpt lat="37.05223" lon="-3.31437">
        <ele>3362.4</ele>
        <time>2021-08-06 11:26:34</time>
      </trkpt>
      <trkpt lat="37.05224" lon="-3.31437">
        <ele>3362.4</ele>
        <time>2021-08-06 11:26:35</time>
      </trkpt>
      <trkpt lat="37.05224" lon="-3.31437">
        <ele>3362.4</ele>
        <time>2021-08-06 11:26:36</time>
      </trkpt>
      <trkpt lat="37.05223" lon="-3.31436">
        <ele>3362.2</ele>
        <time>2021-08-06 11:26:37</time>
      </trkpt>
      <trkpt lat="37.05224" lon="-3.31436">
        <ele>3362.4</ele>
        <time>2021-08-06 11:26:38</time>
      </trkpt>
      <trkpt lat="37.05224" lon="-3.31435">
        <ele>3362.6</ele>
        <time>2021-08-06 11:26:39</time>
      </trkpt>
      <trkpt lat="37.05225" lon="-3.31436">
        <ele>3362.6</ele>
        <time>2021-08-06 11:26:40</time>
      </trkpt>
      <trkpt lat="37.05225" lon="-3.31436">
        <ele>3362.6</ele>
        <time>2021-08-06 11:26:41</time>
      </trkpt>
      <trkpt lat="37.05225" lon="-3.31436">
        <ele>3363</ele>
        <time>2021-08-06 11:26:42</time>
      </trkpt>
      <trkpt lat="37.05226" lon="-3.31437">
        <ele>3363</ele>
        <time>2021-08-06 11:26:43</time>
      </trkpt>
      <trkpt lat="37.05226" lon="-3.31437">
        <ele>3363.2</ele>
        <time>2021-08-06 11:26:44</time>
      </trkpt>
      <trkpt lat="37.05226" lon="-3.31436">
        <ele>3363.2</ele>
        <time>2021-08-06 11:26:45</time>
      </trkpt>
      <trkpt lat="37.05227" lon="-3.31436">
        <ele>3363.2</ele>
        <time>2021-08-06 11:26:46</time>
      </trkpt>
      <trkpt lat="37.05228" lon="-3.31435">
        <ele>3363.2</ele>
        <time>2021-08-06 11:26:47</time>
      </trkpt>
      <trkpt lat="37.05228" lon="-3.31435">
        <ele>3363.2</ele>
        <time>2021-08-06 11:26:48</time>
      </trkpt>
      <trkpt lat="37.05228" lon="-3.31435">
        <ele>3363.2</ele>
        <time>2021-08-06 11:26:49</time>
      </trkpt>
      <trkpt lat="37.05228" lon="-3.31434">
        <ele>3363.2</ele>
        <time>2021-08-06 11:26:50</time>
      </trkpt>
      <trkpt lat="37.05228" lon="-3.31434">
        <ele>3363.4</ele>
        <time>2021-08-06 11:26:51</time>
      </trkpt>
      <trkpt lat="37.05228" lon="-3.31432">
        <ele>3363.8</ele>
        <time>2021-08-06 11:26:52</time>
      </trkpt>
      <trkpt lat="37.05228" lon="-3.31432">
        <ele>3364</ele>
        <time>2021-08-06 11:26:53</time>
      </trkpt>
      <trkpt lat="37.05228" lon="-3.31432">
        <ele>3364.2</ele>
        <time>2021-08-06 11:26:54</time>
      </trkpt>
      <trkpt lat="37.05228" lon="-3.31432">
        <ele>3364.2</ele>
        <time>2021-08-06 11:26:55</time>
      </trkpt>
      <trkpt lat="37.05228" lon="-3.31432">
        <ele>3364.4</ele>
        <time>2021-08-06 11:26:56</time>
      </trkpt>
      <trkpt lat="37.05228" lon="-3.31433">
        <ele>3364.4</ele>
        <time>2021-08-06 11:26:57</time>
      </trkpt>
      <trkpt lat="37.05227" lon="-3.31433">
        <ele>3364.4</ele>
        <time>2021-08-06 11:26:58</time>
      </trkpt>
      <trkpt lat="37.05227" lon="-3.31433">
        <ele>3364.4</ele>
        <time>2021-08-06 11:26:59</time>
      </trkpt>
      <trkpt lat="37.05226" lon="-3.31433">
        <ele>3364.4</ele>
        <time>2021-08-06 11:27:00</time>
      </trkpt>
      <trkpt lat="37.05226" lon="-3.31434">
        <ele>3364.4</ele>
        <time>2021-08-06 11:27:01</time>
      </trkpt>
      <trkpt lat="37.05225" lon="-3.31434">
        <ele>3364.4</ele>
        <time>2021-08-06 11:27:02</time>
      </trkpt>
      <trkpt lat="37.05225" lon="-3.31434">
        <ele>3364.4</ele>
        <time>2021-08-06 11:27:03</time>
      </trkpt>
      <trkpt lat="37.05225" lon="-3.31435">
        <ele>3364.4</ele>
        <time>2021-08-06 11:27:04</time>
      </trkpt>
      <trkpt lat="37.05226" lon="-3.31435">
        <ele>3364.4</ele>
        <time>2021-08-06 11:27:05</time>
      </trkpt>
      <trkpt lat="37.05226" lon="-3.31435">
        <ele>3364.4</ele>
        <time>2021-08-06 11:27:06</time>
      </trkpt>
      <trkpt lat="37.05226" lon="-3.31435">
        <ele>3364.6</ele>
        <time>2021-08-06 11:27:07</time>
      </trkpt>
      <trkpt lat="37.05226" lon="-3.31435">
        <ele>3364.6</ele>
        <time>2021-08-06 11:27:08</time>
      </trkpt>
      <trkpt lat="37.05226" lon="-3.31436">
        <ele>3364.6</ele>
        <time>2021-08-06 11:27:09</time>
      </trkpt>
      <trkpt lat="37.05226" lon="-3.31436">
        <ele>3364.6</ele>
        <time>2021-08-06 11:27:10</time>
      </trkpt>
      <trkpt lat="37.05226" lon="-3.31436">
        <ele>3364.8</ele>
        <time>2021-08-06 11:27:11</time>
      </trkpt>
      <trkpt lat="37.05226" lon="-3.31436">
        <ele>3364.8</ele>
        <time>2021-08-06 11:27:12</time>
      </trkpt>
      <trkpt lat="37.05225" lon="-3.31436">
        <ele>3364.8</ele>
        <time>2021-08-06 11:27:13</time>
      </trkpt>
      <trkpt lat="37.05225" lon="-3.31436">
        <ele>3364.8</ele>
        <time>2021-08-06 11:27:14</time>
      </trkpt>
      <trkpt lat="37.05225" lon="-3.31436">
        <ele>3364.8</ele>
        <time>2021-08-06 11:27:15</time>
      </trkpt>
      <trkpt lat="37.05225" lon="-3.31437">
        <ele>3364.8</ele>
        <time>2021-08-06 11:27:16</time>
      </trkpt>
      <trkpt lat="37.05224" lon="-3.31437">
        <ele>3364.8</ele>
        <time>2021-08-06 11:27:17</time>
      </trkpt>
      <trkpt lat="37.05224" lon="-3.31437">
        <ele>3364.8</ele>
        <time>2021-08-06 11:27:18</time>
      </trkpt>
      <trkpt lat="37.05224" lon="-3.31437">
        <ele>3365</ele>
        <time>2021-08-06 11:27:19</time>
      </trkpt>
      <trkpt lat="37.05224" lon="-3.31437">
        <ele>3365</ele>
        <time>2021-08-06 11:27:20</time>
      </trkpt>
      <trkpt lat="37.05224" lon="-3.31437">
        <ele>3364.8</ele>
        <time>2021-08-06 11:27:21</time>
      </trkpt>
      <trkpt lat="37.05224" lon="-3.31438">
        <ele>3364.8</ele>
        <time>2021-08-06 11:27:22</time>
      </trkpt>
      <trkpt lat="37.05224" lon="-3.31438">
        <ele>3365</ele>
        <time>2021-08-06 11:27:23</time>
      </trkpt>
      <trkpt lat="37.05224" lon="-3.31438">
        <ele>3365</ele>
        <time>2021-08-06 11:27:24</time>
      </trkpt>
      <trkpt lat="37.05224" lon="-3.31438">
        <ele>3365</ele>
        <time>2021-08-06 11:27:25</time>
      </trkpt>
      <trkpt lat="37.05224" lon="-3.31438">
        <ele>3365</ele>
        <time>2021-08-06 11:27:26</time>
      </trkpt>
      <trkpt lat="37.05224" lon="-3.31438">
        <ele>3365</ele>
        <time>2021-08-06 11:27:27</time>
      </trkpt>
      <trkpt lat="37.05224" lon="-3.31438">
        <ele>3365</ele>
        <time>2021-08-06 11:27:28</time>
      </trkpt>
      <trkpt lat="37.05224" lon="-3.31438">
        <ele>3364.8</ele>
        <time>2021-08-06 11:27:29</time>
      </trkpt>
      <trkpt lat="37.05224" lon="-3.31438">
        <ele>3364.8</ele>
        <time>2021-08-06 11:27:30</time>
      </trkpt>
      <trkpt lat="37.05224" lon="-3.31438">
        <ele>3364.8</ele>
        <time>2021-08-06 11:27:31</time>
      </trkpt>
      <trkpt lat="37.05224" lon="-3.31438">
        <ele>3364.6</ele>
        <time>2021-08-06 11:27:32</time>
      </trkpt>
      <trkpt lat="37.05224" lon="-3.31439">
        <ele>3364.6</ele>
        <time>2021-08-06 11:27:33</time>
      </trkpt>
      <trkpt lat="37.05225" lon="-3.31439">
        <ele>3364.6</ele>
        <time>2021-08-06 11:27:34</time>
      </trkpt>
      <trkpt lat="37.05225" lon="-3.31439">
        <ele>3364.6</ele>
        <time>2021-08-06 11:27:35</time>
      </trkpt>
      <trkpt lat="37.05225" lon="-3.31439">
        <ele>3364.6</ele>
        <time>2021-08-06 11:27:36</time>
      </trkpt>
      <trkpt lat="37.05224" lon="-3.31439">
        <ele>3364.6</ele>
        <time>2021-08-06 11:27:37</time>
      </trkpt>
      <trkpt lat="37.05224" lon="-3.31439">
        <ele>3364.6</ele>
        <time>2021-08-06 11:27:38</time>
      </trkpt>
      <trkpt lat="37.05225" lon="-3.31439">
        <ele>3364.4</ele>
        <time>2021-08-06 11:27:39</time>
      </trkpt>
      <trkpt lat="37.05225" lon="-3.31439">
        <ele>3364.4</ele>
        <time>2021-08-06 11:27:40</time>
      </trkpt>
      <trkpt lat="37.05225" lon="-3.31439">
        <ele>3364.4</ele>
        <time>2021-08-06 11:27:41</time>
      </trkpt>
      <trkpt lat="37.05224" lon="-3.31439">
        <ele>3364.4</ele>
        <time>2021-08-06 11:27:42</time>
      </trkpt>
      <trkpt lat="37.05225" lon="-3.31439">
        <ele>3364.4</ele>
        <time>2021-08-06 11:27:43</time>
      </trkpt>
      <trkpt lat="37.05225" lon="-3.31439">
        <ele>3364.4</ele>
        <time>2021-08-06 11:27:44</time>
      </trkpt>
      <trkpt lat="37.05225" lon="-3.31439">
        <ele>3364.6</ele>
        <time>2021-08-06 11:27:45</time>
      </trkpt>
      <trkpt lat="37.05225" lon="-3.31439">
        <ele>3364.8</ele>
        <time>2021-08-06 11:27:46</time>
      </trkpt>
      <trkpt lat="37.05225" lon="-3.31439">
        <ele>3364.8</ele>
        <time>2021-08-06 11:27:47</time>
      </trkpt>
      <trkpt lat="37.05225" lon="-3.31439">
        <ele>3365</ele>
        <time>2021-08-06 11:27:48</time>
      </trkpt>
      <trkpt lat="37.05225" lon="-3.3144">
        <ele>3365.2</ele>
        <time>2021-08-06 11:27:49</time>
      </trkpt>
      <trkpt lat="37.05225" lon="-3.3144">
        <ele>3365.2</ele>
        <time>2021-08-06 11:27:50</time>
      </trkpt>
      <trkpt lat="37.05225" lon="-3.3144">
        <ele>3365.4</ele>
        <time>2021-08-06 11:27:51</time>
      </trkpt>
      <trkpt lat="37.05225" lon="-3.3144">
        <ele>3365.4</ele>
        <time>2021-08-06 11:27:52</time>
      </trkpt>
      <trkpt lat="37.05227" lon="-3.31439">
        <ele>3365.4</ele>
        <time>2021-08-06 11:27:53</time>
      </trkpt>
      <trkpt lat="37.05227" lon="-3.31438">
        <ele>3365.4</ele>
        <time>2021-08-06 11:27:54</time>
      </trkpt>
      <trkpt lat="37.05227" lon="-3.31437">
        <ele>3365.6</ele>
        <time>2021-08-06 11:27:55</time>
      </trkpt>
      <trkpt lat="37.05227" lon="-3.31436">
        <ele>3365.6</ele>
        <time>2021-08-06 11:27:56</time>
      </trkpt>
      <trkpt lat="37.05227" lon="-3.31435">
        <ele>3366</ele>
        <time>2021-08-06 11:27:57</time>
      </trkpt>
      <trkpt lat="37.05227" lon="-3.31435">
        <ele>3366.2</ele>
        <time>2021-08-06 11:27:58</time>
      </trkpt>
      <trkpt lat="37.05226" lon="-3.31435">
        <ele>3366.4</ele>
        <time>2021-08-06 11:27:59</time>
      </trkpt>
      <trkpt lat="37.05226" lon="-3.31434">
        <ele>3366.4</ele>
        <time>2021-08-06 11:28:00</time>
      </trkpt>
      <trkpt lat="37.05226" lon="-3.31433">
        <ele>3366.4</ele>
        <time>2021-08-06 11:28:01</time>
      </trkpt>
      <trkpt lat="37.05226" lon="-3.31433">
        <ele>3366.6</ele>
        <time>2021-08-06 11:28:02</time>
      </trkpt>
      <trkpt lat="37.05226" lon="-3.31433">
        <ele>3366.8</ele>
        <time>2021-08-06 11:28:03</time>
      </trkpt>
      <trkpt lat="37.05226" lon="-3.31432">
        <ele>3367</ele>
        <time>2021-08-06 11:28:04</time>
      </trkpt>
      <trkpt lat="37.05226" lon="-3.31431">
        <ele>3367</ele>
        <time>2021-08-06 11:28:05</time>
      </trkpt>
      <trkpt lat="37.05227" lon="-3.31431">
        <ele>3367.2</ele>
        <time>2021-08-06 11:28:06</time>
      </trkpt>
      <trkpt lat="37.05227" lon="-3.3143">
        <ele>3367.2</ele>
        <time>2021-08-06 11:28:07</time>
      </trkpt>
      <trkpt lat="37.05227" lon="-3.3143">
        <ele>3367.2</ele>
        <time>2021-08-06 11:28:08</time>
      </trkpt>
      <trkpt lat="37.05227" lon="-3.3143">
        <ele>3367.2</ele>
        <time>2021-08-06 11:28:09</time>
      </trkpt>
      <trkpt lat="37.05227" lon="-3.31429">
        <ele>3367.4</ele>
        <time>2021-08-06 11:28:10</time>
      </trkpt>
      <trkpt lat="37.05227" lon="-3.31429">
        <ele>3367.4</ele>
        <time>2021-08-06 11:28:11</time>
      </trkpt>
      <trkpt lat="37.05227" lon="-3.31428">
        <ele>3367.6</ele>
        <time>2021-08-06 11:28:12</time>
      </trkpt>
      <trkpt lat="37.05228" lon="-3.31428">
        <ele>3367.6</ele>
        <time>2021-08-06 11:28:13</time>
      </trkpt>
      <trkpt lat="37.05228" lon="-3.31427">
        <ele>3367.6</ele>
        <time>2021-08-06 11:28:14</time>
      </trkpt>
      <trkpt lat="37.05228" lon="-3.31427">
        <ele>3367.8</ele>
        <time>2021-08-06 11:28:15</time>
      </trkpt>
      <trkpt lat="37.05228" lon="-3.31426">
        <ele>3367.8</ele>
        <time>2021-08-06 11:28:16</time>
      </trkpt>
      <trkpt lat="37.05228" lon="-3.31425">
        <ele>3368.2</ele>
        <time>2021-08-06 11:28:17</time>
      </trkpt>
      <trkpt lat="37.05227" lon="-3.31425">
        <ele>3368.6</ele>
        <time>2021-08-06 11:28:18</time>
      </trkpt>
      <trkpt lat="37.05227" lon="-3.31425">
        <ele>3368.8</ele>
        <time>2021-08-06 11:28:19</time>
      </trkpt>
      <trkpt lat="37.05227" lon="-3.31424">
        <ele>3369</ele>
        <time>2021-08-06 11:28:20</time>
      </trkpt>
      <trkpt lat="37.05227" lon="-3.31424">
        <ele>3369.2</ele>
        <time>2021-08-06 11:28:21</time>
      </trkpt>
      <trkpt lat="37.05227" lon="-3.31423">
        <ele>3369.4</ele>
        <time>2021-08-06 11:28:22</time>
      </trkpt>
      <trkpt lat="37.05226" lon="-3.31423">
        <ele>3369.6</ele>
        <time>2021-08-06 11:28:23</time>
      </trkpt>
      <trkpt lat="37.05226" lon="-3.31422">
        <ele>3369.8</ele>
        <time>2021-08-06 11:28:24</time>
      </trkpt>
      <trkpt lat="37.05226" lon="-3.31422">
        <ele>3370</ele>
        <time>2021-08-06 11:28:25</time>
      </trkpt>
      <trkpt lat="37.05225" lon="-3.31421">
        <ele>3370.4</ele>
        <time>2021-08-06 11:28:26</time>
      </trkpt>
      <trkpt lat="37.05225" lon="-3.31421">
        <ele>3370.4</ele>
        <time>2021-08-06 11:28:27</time>
      </trkpt>
      <trkpt lat="37.05225" lon="-3.3142">
        <ele>3370.6</ele>
        <time>2021-08-06 11:28:28</time>
      </trkpt>
      <trkpt lat="37.05225" lon="-3.3142">
        <ele>3370.8</ele>
        <time>2021-08-06 11:28:29</time>
      </trkpt>
      <trkpt lat="37.05225" lon="-3.31419">
        <ele>3371</ele>
        <time>2021-08-06 11:28:30</time>
      </trkpt>
      <trkpt lat="37.05225" lon="-3.31418">
        <ele>3371.2</ele>
        <time>2021-08-06 11:28:31</time>
      </trkpt>
      <trkpt lat="37.05225" lon="-3.31418">
        <ele>3371.2</ele>
        <time>2021-08-06 11:28:32</time>
      </trkpt>
      <trkpt lat="37.05226" lon="-3.31418">
        <ele>3371.4</ele>
        <time>2021-08-06 11:28:33</time>
      </trkpt>
      <trkpt lat="37.05226" lon="-3.31418">
        <ele>3371.6</ele>
        <time>2021-08-06 11:28:34</time>
      </trkpt>
      <trkpt lat="37.05227" lon="-3.31418">
        <ele>3371.6</ele>
        <time>2021-08-06 11:28:35</time>
      </trkpt>
      <trkpt lat="37.05227" lon="-3.31418">
        <ele>3371.8</ele>
        <time>2021-08-06 11:28:36</time>
      </trkpt>
      <trkpt lat="37.05228" lon="-3.31418">
        <ele>3371.8</ele>
        <time>2021-08-06 11:28:37</time>
      </trkpt>
      <trkpt lat="37.05228" lon="-3.31417">
        <ele>3372</ele>
        <time>2021-08-06 11:28:38</time>
      </trkpt>
      <trkpt lat="37.05228" lon="-3.31417">
        <ele>3372</ele>
        <time>2021-08-06 11:28:39</time>
      </trkpt>
      <trkpt lat="37.05229" lon="-3.31417">
        <ele>3372.2</ele>
        <time>2021-08-06 11:28:40</time>
      </trkpt>
      <trkpt lat="37.05229" lon="-3.31417">
        <ele>3372.4</ele>
        <time>2021-08-06 11:28:41</time>
      </trkpt>
      <trkpt lat="37.05229" lon="-3.31417">
        <ele>3372.8</ele>
        <time>2021-08-06 11:28:42</time>
      </trkpt>
      <trkpt lat="37.0523" lon="-3.31417">
        <ele>3373</ele>
        <time>2021-08-06 11:28:43</time>
      </trkpt>
      <trkpt lat="37.05231" lon="-3.31417">
        <ele>3373.2</ele>
        <time>2021-08-06 11:28:44</time>
      </trkpt>
      <trkpt lat="37.05231" lon="-3.31416">
        <ele>3373.4</ele>
        <time>2021-08-06 11:28:45</time>
      </trkpt>
      <trkpt lat="37.05231" lon="-3.31416">
        <ele>3373.4</ele>
        <time>2021-08-06 11:28:46</time>
      </trkpt>
      <trkpt lat="37.05231" lon="-3.31415">
        <ele>3373.4</ele>
        <time>2021-08-06 11:28:47</time>
      </trkpt>
      <trkpt lat="37.05231" lon="-3.31415">
        <ele>3373.6</ele>
        <time>2021-08-06 11:28:48</time>
      </trkpt>
      <trkpt lat="37.05231" lon="-3.31414">
        <ele>3373.6</ele>
        <time>2021-08-06 11:28:49</time>
      </trkpt>
      <trkpt lat="37.05231" lon="-3.31414">
        <ele>3373.8</ele>
        <time>2021-08-06 11:28:50</time>
      </trkpt>
      <trkpt lat="37.05231" lon="-3.31413">
        <ele>3373.8</ele>
        <time>2021-08-06 11:28:51</time>
      </trkpt>
      <trkpt lat="37.05231" lon="-3.31413">
        <ele>3374</ele>
        <time>2021-08-06 11:28:52</time>
      </trkpt>
      <trkpt lat="37.05231" lon="-3.31412">
        <ele>3374.2</ele>
        <time>2021-08-06 11:28:53</time>
      </trkpt>
      <trkpt lat="37.05231" lon="-3.31412">
        <ele>3374.4</ele>
        <time>2021-08-06 11:28:54</time>
      </trkpt>
      <trkpt lat="37.05231" lon="-3.31412">
        <ele>3374.6</ele>
        <time>2021-08-06 11:28:55</time>
      </trkpt>
      <trkpt lat="37.05231" lon="-3.31411">
        <ele>3374.8</ele>
        <time>2021-08-06 11:28:56</time>
      </trkpt>
      <trkpt lat="37.05231" lon="-3.31411">
        <ele>3374.8</ele>
        <time>2021-08-06 11:28:57</time>
      </trkpt>
      <trkpt lat="37.05231" lon="-3.31411">
        <ele>3375</ele>
        <time>2021-08-06 11:28:58</time>
      </trkpt>
      <trkpt lat="37.05231" lon="-3.31411">
        <ele>3375</ele>
        <time>2021-08-06 11:28:59</time>
      </trkpt>
      <trkpt lat="37.0523" lon="-3.31411">
        <ele>3375</ele>
        <time>2021-08-06 11:29:00</time>
      </trkpt>
      <trkpt lat="37.0523" lon="-3.31411">
        <ele>3375</ele>
        <time>2021-08-06 11:29:01</time>
      </trkpt>
      <trkpt lat="37.0523" lon="-3.31411">
        <ele>3375.2</ele>
        <time>2021-08-06 11:29:02</time>
      </trkpt>
      <trkpt lat="37.0523" lon="-3.3141">
        <ele>3375.2</ele>
        <time>2021-08-06 11:29:03</time>
      </trkpt>
      <trkpt lat="37.0523" lon="-3.3141">
        <ele>3375.6</ele>
        <time>2021-08-06 11:29:04</time>
      </trkpt>
      <trkpt lat="37.05229" lon="-3.31409">
        <ele>3375.6</ele>
        <time>2021-08-06 11:29:05</time>
      </trkpt>
      <trkpt lat="37.05229" lon="-3.31409">
        <ele>3375.8</ele>
        <time>2021-08-06 11:29:06</time>
      </trkpt>
      <trkpt lat="37.05229" lon="-3.31408">
        <ele>3376</ele>
        <time>2021-08-06 11:29:07</time>
      </trkpt>
      <trkpt lat="37.05229" lon="-3.31408">
        <ele>3376</ele>
        <time>2021-08-06 11:29:08</time>
      </trkpt>
      <trkpt lat="37.05228" lon="-3.31408">
        <ele>3376.2</ele>
        <time>2021-08-06 11:29:09</time>
      </trkpt>
      <trkpt lat="37.05227" lon="-3.31408">
        <ele>3376.2</ele>
        <time>2021-08-06 11:29:10</time>
      </trkpt>
      <trkpt lat="37.05227" lon="-3.31408">
        <ele>3376.4</ele>
        <time>2021-08-06 11:29:11</time>
      </trkpt>
      <trkpt lat="37.05227" lon="-3.31407">
        <ele>3376.6</ele>
        <time>2021-08-06 11:29:12</time>
      </trkpt>
      <trkpt lat="37.05227" lon="-3.31407">
        <ele>3377</ele>
        <time>2021-08-06 11:29:13</time>
      </trkpt>
      <trkpt lat="37.05227" lon="-3.31406">
        <ele>3377.2</ele>
        <time>2021-08-06 11:29:14</time>
      </trkpt>
      <trkpt lat="37.05228" lon="-3.31405">
        <ele>3377.4</ele>
        <time>2021-08-06 11:29:15</time>
      </trkpt>
      <trkpt lat="37.05227" lon="-3.31405">
        <ele>3377.4</ele>
        <time>2021-08-06 11:29:16</time>
      </trkpt>
      <trkpt lat="37.05226" lon="-3.31405">
        <ele>3377.4</ele>
        <time>2021-08-06 11:29:17</time>
      </trkpt>
      <trkpt lat="37.05226" lon="-3.31405">
        <ele>3377.6</ele>
        <time>2021-08-06 11:29:18</time>
      </trkpt>
      <trkpt lat="37.05226" lon="-3.31405">
        <ele>3377.6</ele>
        <time>2021-08-06 11:29:19</time>
      </trkpt>
      <trkpt lat="37.05226" lon="-3.31405">
        <ele>3377.8</ele>
        <time>2021-08-06 11:29:20</time>
      </trkpt>
      <trkpt lat="37.05226" lon="-3.31405">
        <ele>3377.8</ele>
        <time>2021-08-06 11:29:21</time>
      </trkpt>
      <trkpt lat="37.05226" lon="-3.31405">
        <ele>3378</ele>
        <time>2021-08-06 11:29:22</time>
      </trkpt>
      <trkpt lat="37.05226" lon="-3.31405">
        <ele>3378</ele>
        <time>2021-08-06 11:29:23</time>
      </trkpt>
      <trkpt lat="37.05226" lon="-3.31405">
        <ele>3378</ele>
        <time>2021-08-06 11:29:24</time>
      </trkpt>
      <trkpt lat="37.05226" lon="-3.31405">
        <ele>3378.2</ele>
        <time>2021-08-06 11:29:25</time>
      </trkpt>
      <trkpt lat="37.05227" lon="-3.31405">
        <ele>3378.2</ele>
        <time>2021-08-06 11:29:26</time>
      </trkpt>
      <trkpt lat="37.05228" lon="-3.31404">
        <ele>3378.2</ele>
        <time>2021-08-06 11:29:27</time>
      </trkpt>
      <trkpt lat="37.05228" lon="-3.31404">
        <ele>3378.2</ele>
        <time>2021-08-06 11:29:28</time>
      </trkpt>
      <trkpt lat="37.05228" lon="-3.31404">
        <ele>3378.2</ele>
        <time>2021-08-06 11:29:29</time>
      </trkpt>
      <trkpt lat="37.05228" lon="-3.31404">
        <ele>3378.2</ele>
        <time>2021-08-06 11:29:30</time>
      </trkpt>
      <trkpt lat="37.05228" lon="-3.31403">
        <ele>3378.2</ele>
        <time>2021-08-06 11:29:31</time>
      </trkpt>
      <trkpt lat="37.05228" lon="-3.31402">
        <ele>3378.2</ele>
        <time>2021-08-06 11:29:32</time>
      </trkpt>
      <trkpt lat="37.05228" lon="-3.31402">
        <ele>3378.2</ele>
        <time>2021-08-06 11:29:33</time>
      </trkpt>
      <trkpt lat="37.05227" lon="-3.31401">
        <ele>3378.2</ele>
        <time>2021-08-06 11:29:34</time>
      </trkpt>
      <trkpt lat="37.05227" lon="-3.31401">
        <ele>3378.4</ele>
        <time>2021-08-06 11:29:35</time>
      </trkpt>
      <trkpt lat="37.05227" lon="-3.31401">
        <ele>3378.4</ele>
        <time>2021-08-06 11:29:36</time>
      </trkpt>
      <trkpt lat="37.05227" lon="-3.314">
        <ele>3378.6</ele>
        <time>2021-08-06 11:29:37</time>
      </trkpt>
      <trkpt lat="37.05227" lon="-3.314">
        <ele>3378.6</ele>
        <time>2021-08-06 11:29:38</time>
      </trkpt>
      <trkpt lat="37.05227" lon="-3.31399">
        <ele>3378.8</ele>
        <time>2021-08-06 11:29:39</time>
      </trkpt>
      <trkpt lat="37.05227" lon="-3.31399">
        <ele>3378.8</ele>
        <time>2021-08-06 11:29:40</time>
      </trkpt>
      <trkpt lat="37.05227" lon="-3.31398">
        <ele>3379</ele>
        <time>2021-08-06 11:29:41</time>
      </trkpt>
      <trkpt lat="37.05227" lon="-3.31398">
        <ele>3379.2</ele>
        <time>2021-08-06 11:29:42</time>
      </trkpt>
      <trkpt lat="37.05228" lon="-3.31398">
        <ele>3379.4</ele>
        <time>2021-08-06 11:29:43</time>
      </trkpt>
      <trkpt lat="37.05229" lon="-3.31398">
        <ele>3379.4</ele>
        <time>2021-08-06 11:29:44</time>
      </trkpt>
      <trkpt lat="37.0523" lon="-3.31398">
        <ele>3379.4</ele>
        <time>2021-08-06 11:29:45</time>
      </trkpt>
      <trkpt lat="37.0523" lon="-3.31398">
        <ele>3379.6</ele>
        <time>2021-08-06 11:29:46</time>
      </trkpt>
      <trkpt lat="37.05231" lon="-3.31398">
        <ele>3379.6</ele>
        <time>2021-08-06 11:29:47</time>
      </trkpt>
      <trkpt lat="37.05232" lon="-3.31398">
        <ele>3379.8</ele>
        <time>2021-08-06 11:29:48</time>
      </trkpt>
      <trkpt lat="37.05232" lon="-3.31398">
        <ele>3380</ele>
        <time>2021-08-06 11:29:49</time>
      </trkpt>
      <trkpt lat="37.05232" lon="-3.31397">
        <ele>3380.2</ele>
        <time>2021-08-06 11:29:50</time>
      </trkpt>
      <trkpt lat="37.05232" lon="-3.31396">
        <ele>3380.2</ele>
        <time>2021-08-06 11:29:51</time>
      </trkpt>
      <trkpt lat="37.05232" lon="-3.31396">
        <ele>3380.4</ele>
        <time>2021-08-06 11:29:52</time>
      </trkpt>
      <trkpt lat="37.05232" lon="-3.31396">
        <ele>3380.6</ele>
        <time>2021-08-06 11:29:53</time>
      </trkpt>
      <trkpt lat="37.05233" lon="-3.31396">
        <ele>3380.8</ele>
        <time>2021-08-06 11:29:54</time>
      </trkpt>
      <trkpt lat="37.05233" lon="-3.31395">
        <ele>3381</ele>
        <time>2021-08-06 11:29:55</time>
      </trkpt>
      <trkpt lat="37.05232" lon="-3.31395">
        <ele>3381.2</ele>
        <time>2021-08-06 11:29:56</time>
      </trkpt>
      <trkpt lat="37.05232" lon="-3.31395">
        <ele>3381.4</ele>
        <time>2021-08-06 11:29:57</time>
      </trkpt>
      <trkpt lat="37.05232" lon="-3.31395">
        <ele>3381.6</ele>
        <time>2021-08-06 11:29:58</time>
      </trkpt>
      <trkpt lat="37.05232" lon="-3.31395">
        <ele>3381.8</ele>
        <time>2021-08-06 11:29:59</time>
      </trkpt>
      <trkpt lat="37.05232" lon="-3.31395">
        <ele>3381.8</ele>
        <time>2021-08-06 11:30:00</time>
      </trkpt>
      <trkpt lat="37.05232" lon="-3.31395">
        <ele>3381.8</ele>
        <time>2021-08-06 11:30:01</time>
      </trkpt>
      <trkpt lat="37.05232" lon="-3.31395">
        <ele>3382</ele>
        <time>2021-08-06 11:30:02</time>
      </trkpt>
      <trkpt lat="37.05232" lon="-3.31394">
        <ele>3382.2</ele>
        <time>2021-08-06 11:30:03</time>
      </trkpt>
      <trkpt lat="37.05234" lon="-3.31394">
        <ele>3382.2</ele>
        <time>2021-08-06 11:30:04</time>
      </trkpt>
      <trkpt lat="37.05234" lon="-3.31393">
        <ele>3382.6</ele>
        <time>2021-08-06 11:30:05</time>
      </trkpt>
      <trkpt lat="37.05234" lon="-3.31393">
        <ele>3383</ele>
        <time>2021-08-06 11:30:06</time>
      </trkpt>
      <trkpt lat="37.05235" lon="-3.31393">
        <ele>3383.2</ele>
        <time>2021-08-06 11:30:07</time>
      </trkpt>
      <trkpt lat="37.05235" lon="-3.31392">
        <ele>3383.4</ele>
        <time>2021-08-06 11:30:08</time>
      </trkpt>
      <trkpt lat="37.05235" lon="-3.31392">
        <ele>3383.6</ele>
        <time>2021-08-06 11:30:09</time>
      </trkpt>
      <trkpt lat="37.05234" lon="-3.31392">
        <ele>3383.6</ele>
        <time>2021-08-06 11:30:10</time>
      </trkpt>
      <trkpt lat="37.05234" lon="-3.31391">
        <ele>3383.8</ele>
        <time>2021-08-06 11:30:11</time>
      </trkpt>
      <trkpt lat="37.05234" lon="-3.31391">
        <ele>3384</ele>
        <time>2021-08-06 11:30:12</time>
      </trkpt>
      <trkpt lat="37.05233" lon="-3.31391">
        <ele>3384</ele>
        <time>2021-08-06 11:30:13</time>
      </trkpt>
      <trkpt lat="37.05233" lon="-3.3139">
        <ele>3384</ele>
        <time>2021-08-06 11:30:14</time>
      </trkpt>
      <trkpt lat="37.05233" lon="-3.31389">
        <ele>3384.2</ele>
        <time>2021-08-06 11:30:15</time>
      </trkpt>
      <trkpt lat="37.05232" lon="-3.31389">
        <ele>3384.2</ele>
        <time>2021-08-06 11:30:16</time>
      </trkpt>
      <trkpt lat="37.05232" lon="-3.31388">
        <ele>3384.2</ele>
        <time>2021-08-06 11:30:17</time>
      </trkpt>
      <trkpt lat="37.05232" lon="-3.31387">
        <ele>3384.4</ele>
        <time>2021-08-06 11:30:18</time>
      </trkpt>
      <trkpt lat="37.05231" lon="-3.31387">
        <ele>3384.6</ele>
        <time>2021-08-06 11:30:19</time>
      </trkpt>
      <trkpt lat="37.05231" lon="-3.31386">
        <ele>3384.8</ele>
        <time>2021-08-06 11:30:20</time>
      </trkpt>
      <trkpt lat="37.05231" lon="-3.31386">
        <ele>3385.2</ele>
        <time>2021-08-06 11:30:21</time>
      </trkpt>
      <trkpt lat="37.05231" lon="-3.31386">
        <ele>3385.4</ele>
        <time>2021-08-06 11:30:22</time>
      </trkpt>
      <trkpt lat="37.05231" lon="-3.31385">
        <ele>3385.6</ele>
        <time>2021-08-06 11:30:23</time>
      </trkpt>
      <trkpt lat="37.05231" lon="-3.31385">
        <ele>3385.6</ele>
        <time>2021-08-06 11:30:24</time>
      </trkpt>
      <trkpt lat="37.05231" lon="-3.31384">
        <ele>3385.8</ele>
        <time>2021-08-06 11:30:25</time>
      </trkpt>
      <trkpt lat="37.05231" lon="-3.31384">
        <ele>3386</ele>
        <time>2021-08-06 11:30:26</time>
      </trkpt>
      <trkpt lat="37.0523" lon="-3.31384">
        <ele>3386.4</ele>
        <time>2021-08-06 11:30:27</time>
      </trkpt>
      <trkpt lat="37.0523" lon="-3.31383">
        <ele>3386.6</ele>
        <time>2021-08-06 11:30:28</time>
      </trkpt>
      <trkpt lat="37.0523" lon="-3.31382">
        <ele>3386.6</ele>
        <time>2021-08-06 11:30:29</time>
      </trkpt>
      <trkpt lat="37.0523" lon="-3.31382">
        <ele>3386.6</ele>
        <time>2021-08-06 11:30:30</time>
      </trkpt>
      <trkpt lat="37.0523" lon="-3.31382">
        <ele>3386.6</ele>
        <time>2021-08-06 11:30:31</time>
      </trkpt>
      <trkpt lat="37.0523" lon="-3.31382">
        <ele>3386.8</ele>
        <time>2021-08-06 11:30:32</time>
      </trkpt>
      <trkpt lat="37.0523" lon="-3.31381">
        <ele>3386.8</ele>
        <time>2021-08-06 11:30:33</time>
      </trkpt>
      <trkpt lat="37.05229" lon="-3.31381">
        <ele>3386.8</ele>
        <time>2021-08-06 11:30:34</time>
      </trkpt>
      <trkpt lat="37.05229" lon="-3.31381">
        <ele>3386.8</ele>
        <time>2021-08-06 11:30:35</time>
      </trkpt>
      <trkpt lat="37.05229" lon="-3.31381">
        <ele>3386.8</ele>
        <time>2021-08-06 11:30:36</time>
      </trkpt>
      <trkpt lat="37.05229" lon="-3.31381">
        <ele>3386.6</ele>
        <time>2021-08-06 11:30:37</time>
      </trkpt>
      <trkpt lat="37.05229" lon="-3.31381">
        <ele>3386.6</ele>
        <time>2021-08-06 11:30:38</time>
      </trkpt>
      <trkpt lat="37.05229" lon="-3.3138">
        <ele>3386.6</ele>
        <time>2021-08-06 11:30:39</time>
      </trkpt>
      <trkpt lat="37.0523" lon="-3.31381">
        <ele>3386.6</ele>
        <time>2021-08-06 11:30:40</time>
      </trkpt>
      <trkpt lat="37.05229" lon="-3.31381">
        <ele>3386.8</ele>
        <time>2021-08-06 11:30:41</time>
      </trkpt>
      <trkpt lat="37.05229" lon="-3.3138">
        <ele>3386.8</ele>
        <time>2021-08-06 11:30:42</time>
      </trkpt>
      <trkpt lat="37.0523" lon="-3.3138">
        <ele>3387</ele>
        <time>2021-08-06 11:30:43</time>
      </trkpt>
      <trkpt lat="37.05231" lon="-3.3138">
        <ele>3387.2</ele>
        <time>2021-08-06 11:30:44</time>
      </trkpt>
      <trkpt lat="37.05231" lon="-3.31381">
        <ele>3387.4</ele>
        <time>2021-08-06 11:30:45</time>
      </trkpt>
      <trkpt lat="37.05231" lon="-3.3138">
        <ele>3387.4</ele>
        <time>2021-08-06 11:30:46</time>
      </trkpt>
      <trkpt lat="37.05232" lon="-3.3138">
        <ele>3387.4</ele>
        <time>2021-08-06 11:30:47</time>
      </trkpt>
      <trkpt lat="37.05232" lon="-3.3138">
        <ele>3387.6</ele>
        <time>2021-08-06 11:30:48</time>
      </trkpt>
      <trkpt lat="37.05233" lon="-3.3138">
        <ele>3387.8</ele>
        <time>2021-08-06 11:30:49</time>
      </trkpt>
      <trkpt lat="37.05233" lon="-3.31379">
        <ele>3387.8</ele>
        <time>2021-08-06 11:30:50</time>
      </trkpt>
      <trkpt lat="37.05233" lon="-3.31379">
        <ele>3387.8</ele>
        <time>2021-08-06 11:30:51</time>
      </trkpt>
      <trkpt lat="37.05233" lon="-3.31378">
        <ele>3388</ele>
        <time>2021-08-06 11:30:52</time>
      </trkpt>
      <trkpt lat="37.05232" lon="-3.31378">
        <ele>3388.2</ele>
        <time>2021-08-06 11:30:53</time>
      </trkpt>
      <trkpt lat="37.05232" lon="-3.31378">
        <ele>3388.4</ele>
        <time>2021-08-06 11:30:54</time>
      </trkpt>
      <trkpt lat="37.05232" lon="-3.31377">
        <ele>3388.8</ele>
        <time>2021-08-06 11:30:55</time>
      </trkpt>
      <trkpt lat="37.05233" lon="-3.31377">
        <ele>3389</ele>
        <time>2021-08-06 11:30:56</time>
      </trkpt>
      <trkpt lat="37.05233" lon="-3.31376">
        <ele>3389.2</ele>
        <time>2021-08-06 11:30:57</time>
      </trkpt>
      <trkpt lat="37.05233" lon="-3.31376">
        <ele>3389.4</ele>
        <time>2021-08-06 11:30:58</time>
      </trkpt>
      <trkpt lat="37.05233" lon="-3.31375">
        <ele>3389.4</ele>
        <time>2021-08-06 11:30:59</time>
      </trkpt>
      <trkpt lat="37.05233" lon="-3.31375">
        <ele>3389.6</ele>
        <time>2021-08-06 11:31:00</time>
      </trkpt>
      <trkpt lat="37.05233" lon="-3.31375">
        <ele>3389.8</ele>
        <time>2021-08-06 11:31:01</time>
      </trkpt>
      <trkpt lat="37.05234" lon="-3.31375">
        <ele>3390</ele>
        <time>2021-08-06 11:31:02</time>
      </trkpt>
      <trkpt lat="37.05233" lon="-3.31374">
        <ele>3390.2</ele>
        <time>2021-08-06 11:31:03</time>
      </trkpt>
      <trkpt lat="37.05233" lon="-3.31374">
        <ele>3390.4</ele>
        <time>2021-08-06 11:31:04</time>
      </trkpt>
      <trkpt lat="37.05233" lon="-3.31374">
        <ele>3390.4</ele>
        <time>2021-08-06 11:31:05</time>
      </trkpt>
      <trkpt lat="37.05232" lon="-3.31373">
        <ele>3390.6</ele>
        <time>2021-08-06 11:31:06</time>
      </trkpt>
      <trkpt lat="37.05232" lon="-3.31373">
        <ele>3390.6</ele>
        <time>2021-08-06 11:31:07</time>
      </trkpt>
      <trkpt lat="37.05232" lon="-3.31372">
        <ele>3390.8</ele>
        <time>2021-08-06 11:31:08</time>
      </trkpt>
      <trkpt lat="37.05231" lon="-3.31372">
        <ele>3391.2</ele>
        <time>2021-08-06 11:31:09</time>
      </trkpt>
      <trkpt lat="37.05231" lon="-3.31371">
        <ele>3391.6</ele>
        <time>2021-08-06 11:31:10</time>
      </trkpt>
      <trkpt lat="37.05231" lon="-3.31371">
        <ele>3391.8</ele>
        <time>2021-08-06 11:31:11</time>
      </trkpt>
      <trkpt lat="37.0523" lon="-3.3137">
        <ele>3391.8</ele>
        <time>2021-08-06 11:31:12</time>
      </trkpt>
      <trkpt lat="37.0523" lon="-3.3137">
        <ele>3392</ele>
        <time>2021-08-06 11:31:13</time>
      </trkpt>
      <trkpt lat="37.0523" lon="-3.31369">
        <ele>3392</ele>
        <time>2021-08-06 11:31:14</time>
      </trkpt>
      <trkpt lat="37.05229" lon="-3.31369">
        <ele>3392.2</ele>
        <time>2021-08-06 11:31:15</time>
      </trkpt>
      <trkpt lat="37.05229" lon="-3.31368">
        <ele>3392.2</ele>
        <time>2021-08-06 11:31:16</time>
      </trkpt>
      <trkpt lat="37.0523" lon="-3.31368">
        <ele>3392.2</ele>
        <time>2021-08-06 11:31:17</time>
      </trkpt>
      <trkpt lat="37.05231" lon="-3.31368">
        <ele>3392.4</ele>
        <time>2021-08-06 11:31:18</time>
      </trkpt>
      <trkpt lat="37.05231" lon="-3.31368">
        <ele>3392.4</ele>
        <time>2021-08-06 11:31:19</time>
      </trkpt>
      <trkpt lat="37.05232" lon="-3.31367">
        <ele>3392.6</ele>
        <time>2021-08-06 11:31:20</time>
      </trkpt>
      <trkpt lat="37.05232" lon="-3.31367">
        <ele>3392.8</ele>
        <time>2021-08-06 11:31:21</time>
      </trkpt>
      <trkpt lat="37.05233" lon="-3.31366">
        <ele>3393</ele>
        <time>2021-08-06 11:31:22</time>
      </trkpt>
      <trkpt lat="37.05233" lon="-3.31366">
        <ele>3393</ele>
        <time>2021-08-06 11:31:23</time>
      </trkpt>
      <trkpt lat="37.05233" lon="-3.31366">
        <ele>3393.2</ele>
        <time>2021-08-06 11:31:24</time>
      </trkpt>
      <trkpt lat="37.05233" lon="-3.31365">
        <ele>3393.2</ele>
        <time>2021-08-06 11:31:25</time>
      </trkpt>
      <trkpt lat="37.05233" lon="-3.31365">
        <ele>3393.4</ele>
        <time>2021-08-06 11:31:26</time>
      </trkpt>
      <trkpt lat="37.05234" lon="-3.31365">
        <ele>3393.8</ele>
        <time>2021-08-06 11:31:27</time>
      </trkpt>
      <trkpt lat="37.05234" lon="-3.31365">
        <ele>3393.8</ele>
        <time>2021-08-06 11:31:28</time>
      </trkpt>
      <trkpt lat="37.05235" lon="-3.31365">
        <ele>3394</ele>
        <time>2021-08-06 11:31:29</time>
      </trkpt>
      <trkpt lat="37.05235" lon="-3.31364">
        <ele>3394.4</ele>
        <time>2021-08-06 11:31:30</time>
      </trkpt>
      <trkpt lat="37.05235" lon="-3.31364">
        <ele>3394.4</ele>
        <time>2021-08-06 11:31:31</time>
      </trkpt>
      <trkpt lat="37.05235" lon="-3.31364">
        <ele>3394.6</ele>
        <time>2021-08-06 11:31:32</time>
      </trkpt>
      <trkpt lat="37.05235" lon="-3.31364">
        <ele>3394.6</ele>
        <time>2021-08-06 11:31:33</time>
      </trkpt>
      <trkpt lat="37.05235" lon="-3.31363">
        <ele>3394.8</ele>
        <time>2021-08-06 11:31:34</time>
      </trkpt>
      <trkpt lat="37.05235" lon="-3.31363">
        <ele>3395</ele>
        <time>2021-08-06 11:31:35</time>
      </trkpt>
      <trkpt lat="37.05234" lon="-3.31363">
        <ele>3395</ele>
        <time>2021-08-06 11:31:36</time>
      </trkpt>
      <trkpt lat="37.05234" lon="-3.31362">
        <ele>3395.2</ele>
        <time>2021-08-06 11:31:37</time>
      </trkpt>
      <trkpt lat="37.05234" lon="-3.31362">
        <ele>3395.4</ele>
        <time>2021-08-06 11:31:38</time>
      </trkpt>
      <trkpt lat="37.05233" lon="-3.31362">
        <ele>3395.6</ele>
        <time>2021-08-06 11:31:39</time>
      </trkpt>
      <trkpt lat="37.05233" lon="-3.31361">
        <ele>3395.6</ele>
        <time>2021-08-06 11:31:40</time>
      </trkpt>
      <trkpt lat="37.05232" lon="-3.3136">
        <ele>3395.8</ele>
        <time>2021-08-06 11:31:41</time>
      </trkpt>
      <trkpt lat="37.05232" lon="-3.3136">
        <ele>3396</ele>
        <time>2021-08-06 11:31:42</time>
      </trkpt>
      <trkpt lat="37.05232" lon="-3.31359">
        <ele>3396.2</ele>
        <time>2021-08-06 11:31:43</time>
      </trkpt>
      <trkpt lat="37.05231" lon="-3.31358">
        <ele>3396.4</ele>
        <time>2021-08-06 11:31:44</time>
      </trkpt>
      <trkpt lat="37.05231" lon="-3.31357">
        <ele>3396.6</ele>
        <time>2021-08-06 11:31:45</time>
      </trkpt>
      <trkpt lat="37.05231" lon="-3.31357">
        <ele>3396.8</ele>
        <time>2021-08-06 11:31:46</time>
      </trkpt>
      <trkpt lat="37.05231" lon="-3.31357">
        <ele>3396.8</ele>
        <time>2021-08-06 11:31:47</time>
      </trkpt>
      <trkpt lat="37.05231" lon="-3.31357">
        <ele>3396.8</ele>
        <time>2021-08-06 11:31:48</time>
      </trkpt>
      <trkpt lat="37.05232" lon="-3.31356">
        <ele>3397</ele>
        <time>2021-08-06 11:31:49</time>
      </trkpt>
      <trkpt lat="37.05232" lon="-3.31356">
        <ele>3397</ele>
        <time>2021-08-06 11:31:50</time>
      </trkpt>
      <trkpt lat="37.05233" lon="-3.31356">
        <ele>3397</ele>
        <time>2021-08-06 11:31:51</time>
      </trkpt>
      <trkpt lat="37.05233" lon="-3.31356">
        <ele>3397.2</ele>
        <time>2021-08-06 11:31:52</time>
      </trkpt>
      <trkpt lat="37.05233" lon="-3.31356">
        <ele>3397.2</ele>
        <time>2021-08-06 11:31:53</time>
      </trkpt>
      <trkpt lat="37.05233" lon="-3.31356">
        <ele>3397.2</ele>
        <time>2021-08-06 11:31:54</time>
      </trkpt>
      <trkpt lat="37.05233" lon="-3.31356">
        <ele>3397.2</ele>
        <time>2021-08-06 11:31:55</time>
      </trkpt>
      <trkpt lat="37.05233" lon="-3.31356">
        <ele>3397.2</ele>
        <time>2021-08-06 11:31:56</time>
      </trkpt>
      <trkpt lat="37.05234" lon="-3.31356">
        <ele>3397.2</ele>
        <time>2021-08-06 11:31:57</time>
      </trkpt>
      <trkpt lat="37.05234" lon="-3.31356">
        <ele>3397.2</ele>
        <time>2021-08-06 11:31:58</time>
      </trkpt>
      <trkpt lat="37.05234" lon="-3.31355">
        <ele>3397.2</ele>
        <time>2021-08-06 11:31:59</time>
      </trkpt>
      <trkpt lat="37.05234" lon="-3.31355">
        <ele>3397.2</ele>
        <time>2021-08-06 11:32:00</time>
      </trkpt>
      <trkpt lat="37.05235" lon="-3.31354">
        <ele>3397.4</ele>
        <time>2021-08-06 11:32:01</time>
      </trkpt>
      <trkpt lat="37.05235" lon="-3.31354">
        <ele>3397.8</ele>
        <time>2021-08-06 11:32:02</time>
      </trkpt>
      <trkpt lat="37.05236" lon="-3.31354">
        <ele>3398</ele>
        <time>2021-08-06 11:32:03</time>
      </trkpt>
      <trkpt lat="37.05236" lon="-3.31353">
        <ele>3398</ele>
        <time>2021-08-06 11:32:04</time>
      </trkpt>
      <trkpt lat="37.05237" lon="-3.31353">
        <ele>3398.2</ele>
        <time>2021-08-06 11:32:05</time>
      </trkpt>
      <trkpt lat="37.05237" lon="-3.31352">
        <ele>3398.6</ele>
        <time>2021-08-06 11:32:06</time>
      </trkpt>
      <trkpt lat="37.05238" lon="-3.31352">
        <ele>3398.6</ele>
        <time>2021-08-06 11:32:07</time>
      </trkpt>
      <trkpt lat="37.05239" lon="-3.31352">
        <ele>3398.8</ele>
        <time>2021-08-06 11:32:08</time>
      </trkpt>
      <trkpt lat="37.05239" lon="-3.31351">
        <ele>3399</ele>
        <time>2021-08-06 11:32:09</time>
      </trkpt>
      <trkpt lat="37.05239" lon="-3.31351">
        <ele>3399.2</ele>
        <time>2021-08-06 11:32:10</time>
      </trkpt>
      <trkpt lat="37.05238" lon="-3.3135">
        <ele>3399.2</ele>
        <time>2021-08-06 11:32:11</time>
      </trkpt>
      <trkpt lat="37.05238" lon="-3.3135">
        <ele>3399.4</ele>
        <time>2021-08-06 11:32:12</time>
      </trkpt>
      <trkpt lat="37.05238" lon="-3.31349">
        <ele>3399.4</ele>
        <time>2021-08-06 11:32:13</time>
      </trkpt>
      <trkpt lat="37.05238" lon="-3.31349">
        <ele>3399.8</ele>
        <time>2021-08-06 11:32:14</time>
      </trkpt>
      <trkpt lat="37.05237" lon="-3.31349">
        <ele>3399.8</ele>
        <time>2021-08-06 11:32:15</time>
      </trkpt>
      <trkpt lat="37.05237" lon="-3.31349">
        <ele>3400</ele>
        <time>2021-08-06 11:32:16</time>
      </trkpt>
      <trkpt lat="37.05237" lon="-3.31349">
        <ele>3400.2</ele>
        <time>2021-08-06 11:32:17</time>
      </trkpt>
      <trkpt lat="37.05237" lon="-3.31349">
        <ele>3400.4</ele>
        <time>2021-08-06 11:32:18</time>
      </trkpt>
      <trkpt lat="37.05237" lon="-3.31349">
        <ele>3400.4</ele>
        <time>2021-08-06 11:32:19</time>
      </trkpt>
      <trkpt lat="37.05237" lon="-3.31349">
        <ele>3400.4</ele>
        <time>2021-08-06 11:32:20</time>
      </trkpt>
      <trkpt lat="37.05238" lon="-3.31349">
        <ele>3400.4</ele>
        <time>2021-08-06 11:32:21</time>
      </trkpt>
      <trkpt lat="37.05238" lon="-3.31349">
        <ele>3400.4</ele>
        <time>2021-08-06 11:32:22</time>
      </trkpt>
      <trkpt lat="37.05238" lon="-3.31349">
        <ele>3400.4</ele>
        <time>2021-08-06 11:32:23</time>
      </trkpt>
      <trkpt lat="37.05238" lon="-3.31349">
        <ele>3400.4</ele>
        <time>2021-08-06 11:32:24</time>
      </trkpt>
      <trkpt lat="37.05237" lon="-3.31348">
        <ele>3400.4</ele>
        <time>2021-08-06 11:32:25</time>
      </trkpt>
      <trkpt lat="37.05237" lon="-3.31347">
        <ele>3400.4</ele>
        <time>2021-08-06 11:32:26</time>
      </trkpt>
      <trkpt lat="37.05237" lon="-3.31347">
        <ele>3400.4</ele>
        <time>2021-08-06 11:32:27</time>
      </trkpt>
      <trkpt lat="37.05236" lon="-3.31345">
        <ele>3400.4</ele>
        <time>2021-08-06 11:32:28</time>
      </trkpt>
      <trkpt lat="37.05236" lon="-3.31344">
        <ele>3400.4</ele>
        <time>2021-08-06 11:32:29</time>
      </trkpt>
      <trkpt lat="37.05236" lon="-3.31344">
        <ele>3400.4</ele>
        <time>2021-08-06 11:32:30</time>
      </trkpt>
      <trkpt lat="37.05237" lon="-3.31344">
        <ele>3400.4</ele>
        <time>2021-08-06 11:32:31</time>
      </trkpt>
      <trkpt lat="37.05237" lon="-3.31344">
        <ele>3400.6</ele>
        <time>2021-08-06 11:32:32</time>
      </trkpt>
      <trkpt lat="37.05237" lon="-3.31344">
        <ele>3400.8</ele>
        <time>2021-08-06 11:32:33</time>
      </trkpt>
      <trkpt lat="37.05237" lon="-3.31344">
        <ele>3401</ele>
        <time>2021-08-06 11:32:34</time>
      </trkpt>
      <trkpt lat="37.05238" lon="-3.31344">
        <ele>3401</ele>
        <time>2021-08-06 11:32:35</time>
      </trkpt>
      <trkpt lat="37.05238" lon="-3.31343">
        <ele>3401.2</ele>
        <time>2021-08-06 11:32:36</time>
      </trkpt>
      <trkpt lat="37.05238" lon="-3.31343">
        <ele>3401.2</ele>
        <time>2021-08-06 11:32:37</time>
      </trkpt>
      <trkpt lat="37.05238" lon="-3.31343">
        <ele>3401.2</ele>
        <time>2021-08-06 11:32:38</time>
      </trkpt>
      <trkpt lat="37.05238" lon="-3.31342">
        <ele>3401.4</ele>
        <time>2021-08-06 11:32:39</time>
      </trkpt>
      <trkpt lat="37.05238" lon="-3.31342">
        <ele>3401.4</ele>
        <time>2021-08-06 11:32:40</time>
      </trkpt>
      <trkpt lat="37.05238" lon="-3.31342">
        <ele>3401.8</ele>
        <time>2021-08-06 11:32:41</time>
      </trkpt>
      <trkpt lat="37.05238" lon="-3.31343">
        <ele>3402</ele>
        <time>2021-08-06 11:32:42</time>
      </trkpt>
      <trkpt lat="37.05238" lon="-3.31343">
        <ele>3402</ele>
        <time>2021-08-06 11:32:43</time>
      </trkpt>
      <trkpt lat="37.05238" lon="-3.31342">
        <ele>3402.2</ele>
        <time>2021-08-06 11:32:44</time>
      </trkpt>
      <trkpt lat="37.05238" lon="-3.31342">
        <ele>3402.2</ele>
        <time>2021-08-06 11:32:45</time>
      </trkpt>
      <trkpt lat="37.05238" lon="-3.31342">
        <ele>3402.2</ele>
        <time>2021-08-06 11:32:46</time>
      </trkpt>
      <trkpt lat="37.05237" lon="-3.31342">
        <ele>3402.4</ele>
        <time>2021-08-06 11:32:47</time>
      </trkpt>
      <trkpt lat="37.05237" lon="-3.31342">
        <ele>3402.6</ele>
        <time>2021-08-06 11:32:48</time>
      </trkpt>
      <trkpt lat="37.05237" lon="-3.31342">
        <ele>3402.8</ele>
        <time>2021-08-06 11:32:49</time>
      </trkpt>
      <trkpt lat="37.05237" lon="-3.31342">
        <ele>3402.8</ele>
        <time>2021-08-06 11:32:50</time>
      </trkpt>
      <trkpt lat="37.05237" lon="-3.31341">
        <ele>3403</ele>
        <time>2021-08-06 11:32:51</time>
      </trkpt>
      <trkpt lat="37.05237" lon="-3.31341">
        <ele>3403</ele>
        <time>2021-08-06 11:32:52</time>
      </trkpt>
      <trkpt lat="37.05238" lon="-3.31341">
        <ele>3403.4</ele>
        <time>2021-08-06 11:32:53</time>
      </trkpt>
      <trkpt lat="37.05239" lon="-3.31341">
        <ele>3403.6</ele>
        <time>2021-08-06 11:32:54</time>
      </trkpt>
      <trkpt lat="37.05239" lon="-3.31341">
        <ele>3403.8</ele>
        <time>2021-08-06 11:32:55</time>
      </trkpt>
      <trkpt lat="37.0524" lon="-3.31341">
        <ele>3403.8</ele>
        <time>2021-08-06 11:32:56</time>
      </trkpt>
      <trkpt lat="37.0524" lon="-3.31341">
        <ele>3403.8</ele>
        <time>2021-08-06 11:32:57</time>
      </trkpt>
      <trkpt lat="37.05241" lon="-3.31341">
        <ele>3404</ele>
        <time>2021-08-06 11:32:58</time>
      </trkpt>
      <trkpt lat="37.05241" lon="-3.31341">
        <ele>3404</ele>
        <time>2021-08-06 11:32:59</time>
      </trkpt>
      <trkpt lat="37.05242" lon="-3.3134">
        <ele>3404.2</ele>
        <time>2021-08-06 11:33:00</time>
      </trkpt>
      <trkpt lat="37.05243" lon="-3.3134">
        <ele>3404.2</ele>
        <time>2021-08-06 11:33:01</time>
      </trkpt>
      <trkpt lat="37.05243" lon="-3.31339">
        <ele>3404.2</ele>
        <time>2021-08-06 11:33:02</time>
      </trkpt>
      <trkpt lat="37.05243" lon="-3.31338">
        <ele>3404.6</ele>
        <time>2021-08-06 11:33:03</time>
      </trkpt>
      <trkpt lat="37.05242" lon="-3.31338">
        <ele>3404.8</ele>
        <time>2021-08-06 11:33:04</time>
      </trkpt>
      <trkpt lat="37.05242" lon="-3.31337">
        <ele>3405.2</ele>
        <time>2021-08-06 11:33:05</time>
      </trkpt>
      <trkpt lat="37.05241" lon="-3.31337">
        <ele>3405.4</ele>
        <time>2021-08-06 11:33:06</time>
      </trkpt>
      <trkpt lat="37.05241" lon="-3.31336">
        <ele>3405.6</ele>
        <time>2021-08-06 11:33:07</time>
      </trkpt>
      <trkpt lat="37.05241" lon="-3.31336">
        <ele>3405.8</ele>
        <time>2021-08-06 11:33:08</time>
      </trkpt>
      <trkpt lat="37.05241" lon="-3.31335">
        <ele>3406</ele>
        <time>2021-08-06 11:33:09</time>
      </trkpt>
      <trkpt lat="37.05241" lon="-3.31335">
        <ele>3406.2</ele>
        <time>2021-08-06 11:33:10</time>
      </trkpt>
      <trkpt lat="37.05242" lon="-3.31334">
        <ele>3406.2</ele>
        <time>2021-08-06 11:33:11</time>
      </trkpt>
      <trkpt lat="37.05242" lon="-3.31334">
        <ele>3406.4</ele>
        <time>2021-08-06 11:33:12</time>
      </trkpt>
      <trkpt lat="37.05242" lon="-3.31334">
        <ele>3406.4</ele>
        <time>2021-08-06 11:33:13</time>
      </trkpt>
      <trkpt lat="37.05241" lon="-3.31333">
        <ele>3406.4</ele>
        <time>2021-08-06 11:33:14</time>
      </trkpt>
      <trkpt lat="37.05241" lon="-3.31333">
        <ele>3406.2</ele>
        <time>2021-08-06 11:33:15</time>
      </trkpt>
      <trkpt lat="37.05241" lon="-3.31334">
        <ele>3406.2</ele>
        <time>2021-08-06 11:33:16</time>
      </trkpt>
      <trkpt lat="37.0524" lon="-3.31334">
        <ele>3406.2</ele>
        <time>2021-08-06 11:33:17</time>
      </trkpt>
      <trkpt lat="37.0524" lon="-3.31334">
        <ele>3406</ele>
        <time>2021-08-06 11:33:18</time>
      </trkpt>
      <trkpt lat="37.05239" lon="-3.31333">
        <ele>3406</ele>
        <time>2021-08-06 11:33:19</time>
      </trkpt>
      <trkpt lat="37.05239" lon="-3.31333">
        <ele>3406.2</ele>
        <time>2021-08-06 11:33:20</time>
      </trkpt>
      <trkpt lat="37.05239" lon="-3.31333">
        <ele>3406.2</ele>
        <time>2021-08-06 11:33:21</time>
      </trkpt>
      <trkpt lat="37.05239" lon="-3.31333">
        <ele>3406.4</ele>
        <time>2021-08-06 11:33:22</time>
      </trkpt>
      <trkpt lat="37.05239" lon="-3.31333">
        <ele>3406.4</ele>
        <time>2021-08-06 11:33:23</time>
      </trkpt>
      <trkpt lat="37.05239" lon="-3.31333">
        <ele>3406.6</ele>
        <time>2021-08-06 11:33:24</time>
      </trkpt>
      <trkpt lat="37.05239" lon="-3.31333">
        <ele>3406.6</ele>
        <time>2021-08-06 11:33:25</time>
      </trkpt>
      <trkpt lat="37.05239" lon="-3.31333">
        <ele>3406.6</ele>
        <time>2021-08-06 11:33:26</time>
      </trkpt>
      <trkpt lat="37.05239" lon="-3.31333">
        <ele>3406.6</ele>
        <time>2021-08-06 11:33:27</time>
      </trkpt>
      <trkpt lat="37.0524" lon="-3.31333">
        <ele>3406.8</ele>
        <time>2021-08-06 11:33:28</time>
      </trkpt>
      <trkpt lat="37.0524" lon="-3.31333">
        <ele>3406.8</ele>
        <time>2021-08-06 11:33:29</time>
      </trkpt>
      <trkpt lat="37.0524" lon="-3.31333">
        <ele>3406.8</ele>
        <time>2021-08-06 11:33:30</time>
      </trkpt>
      <trkpt lat="37.0524" lon="-3.31333">
        <ele>3406.8</ele>
        <time>2021-08-06 11:33:31</time>
      </trkpt>
      <trkpt lat="37.0524" lon="-3.31333">
        <ele>3406.6</ele>
        <time>2021-08-06 11:33:32</time>
      </trkpt>
      <trkpt lat="37.05239" lon="-3.31333">
        <ele>3406.6</ele>
        <time>2021-08-06 11:33:33</time>
      </trkpt>
      <trkpt lat="37.05239" lon="-3.31333">
        <ele>3406.6</ele>
        <time>2021-08-06 11:33:34</time>
      </trkpt>
      <trkpt lat="37.05239" lon="-3.31333">
        <ele>3406.6</ele>
        <time>2021-08-06 11:33:35</time>
      </trkpt>
      <trkpt lat="37.05239" lon="-3.31332">
        <ele>3406.6</ele>
        <time>2021-08-06 11:33:36</time>
      </trkpt>
      <trkpt lat="37.0524" lon="-3.31332">
        <ele>3406.4</ele>
        <time>2021-08-06 11:33:37</time>
      </trkpt>
      <trkpt lat="37.0524" lon="-3.31332">
        <ele>3406.4</ele>
        <time>2021-08-06 11:33:38</time>
      </trkpt>
      <trkpt lat="37.0524" lon="-3.31332">
        <ele>3406.4</ele>
        <time>2021-08-06 11:33:39</time>
      </trkpt>
      <trkpt lat="37.0524" lon="-3.31332">
        <ele>3406.4</ele>
        <time>2021-08-06 11:33:40</time>
      </trkpt>
      <trkpt lat="37.0524" lon="-3.31332">
        <ele>3406.4</ele>
        <time>2021-08-06 11:33:41</time>
      </trkpt>
      <trkpt lat="37.0524" lon="-3.31332">
        <ele>3406.4</ele>
        <time>2021-08-06 11:33:42</time>
      </trkpt>
      <trkpt lat="37.0524" lon="-3.31332">
        <ele>3406.4</ele>
        <time>2021-08-06 11:33:43</time>
      </trkpt>
      <trkpt lat="37.0524" lon="-3.31332">
        <ele>3406.6</ele>
        <time>2021-08-06 11:33:44</time>
      </trkpt>
      <trkpt lat="37.0524" lon="-3.31332">
        <ele>3406.6</ele>
        <time>2021-08-06 11:33:45</time>
      </trkpt>
      <trkpt lat="37.0524" lon="-3.31332">
        <ele>3406.8</ele>
        <time>2021-08-06 11:33:46</time>
      </trkpt>
      <trkpt lat="37.0524" lon="-3.31332">
        <ele>3407</ele>
        <time>2021-08-06 11:33:47</time>
      </trkpt>
      <trkpt lat="37.0524" lon="-3.31332">
        <ele>3407</ele>
        <time>2021-08-06 11:33:48</time>
      </trkpt>
      <trkpt lat="37.0524" lon="-3.31333">
        <ele>3407.2</ele>
        <time>2021-08-06 11:33:49</time>
      </trkpt>
      <trkpt lat="37.05241" lon="-3.31333">
        <ele>3407.2</ele>
        <time>2021-08-06 11:33:50</time>
      </trkpt>
      <trkpt lat="37.0524" lon="-3.31333">
        <ele>3407.2</ele>
        <time>2021-08-06 11:33:51</time>
      </trkpt>
      <trkpt lat="37.0524" lon="-3.31333">
        <ele>3407.2</ele>
        <time>2021-08-06 11:33:52</time>
      </trkpt>
      <trkpt lat="37.0524" lon="-3.31333">
        <ele>3407.2</ele>
        <time>2021-08-06 11:33:53</time>
      </trkpt>
      <trkpt lat="37.0524" lon="-3.31332">
        <ele>3407</ele>
        <time>2021-08-06 11:33:54</time>
      </trkpt>
      <trkpt lat="37.0524" lon="-3.31333">
        <ele>3407.2</ele>
        <time>2021-08-06 11:33:55</time>
      </trkpt>
      <trkpt lat="37.0524" lon="-3.31332">
        <ele>3407</ele>
        <time>2021-08-06 11:33:56</time>
      </trkpt>
      <trkpt lat="37.0524" lon="-3.31332">
        <ele>3407</ele>
        <time>2021-08-06 11:33:57</time>
      </trkpt>
      <trkpt lat="37.0524" lon="-3.31331">
        <ele>3407</ele>
        <time>2021-08-06 11:33:58</time>
      </trkpt>
      <trkpt lat="37.05241" lon="-3.31331">
        <ele>3407</ele>
        <time>2021-08-06 11:33:59</time>
      </trkpt>
      <trkpt lat="37.05242" lon="-3.3133">
        <ele>3407</ele>
        <time>2021-08-06 11:34:00</time>
      </trkpt>
      <trkpt lat="37.05243" lon="-3.3133">
        <ele>3407.6</ele>
        <time>2021-08-06 11:34:01</time>
      </trkpt>
      <trkpt lat="37.05244" lon="-3.3133">
        <ele>3407.8</ele>
        <time>2021-08-06 11:34:02</time>
      </trkpt>
      <trkpt lat="37.05244" lon="-3.3133">
        <ele>3408.2</ele>
        <time>2021-08-06 11:34:03</time>
      </trkpt>
      <trkpt lat="37.05245" lon="-3.3133">
        <ele>3408.4</ele>
        <time>2021-08-06 11:34:04</time>
      </trkpt>
      <trkpt lat="37.05245" lon="-3.3133">
        <ele>3408.6</ele>
        <time>2021-08-06 11:34:05</time>
      </trkpt>
      <trkpt lat="37.05246" lon="-3.3133">
        <ele>3408.8</ele>
        <time>2021-08-06 11:34:06</time>
      </trkpt>
      <trkpt lat="37.05246" lon="-3.3133">
        <ele>3409</ele>
        <time>2021-08-06 11:34:07</time>
      </trkpt>
      <trkpt lat="37.05247" lon="-3.3133">
        <ele>3409</ele>
        <time>2021-08-06 11:34:08</time>
      </trkpt>
      <trkpt lat="37.05247" lon="-3.31329">
        <ele>3408.8</ele>
        <time>2021-08-06 11:34:09</time>
      </trkpt>
      <trkpt lat="37.05247" lon="-3.31329">
        <ele>3409</ele>
        <time>2021-08-06 11:34:10</time>
      </trkpt>
      <trkpt lat="37.05247" lon="-3.31329">
        <ele>3409</ele>
        <time>2021-08-06 11:34:11</time>
      </trkpt>
      <trkpt lat="37.05248" lon="-3.31328">
        <ele>3409</ele>
        <time>2021-08-06 11:34:12</time>
      </trkpt>
      <trkpt lat="37.05248" lon="-3.31328">
        <ele>3409</ele>
        <time>2021-08-06 11:34:13</time>
      </trkpt>
      <trkpt lat="37.05248" lon="-3.31328">
        <ele>3409</ele>
        <time>2021-08-06 11:34:14</time>
      </trkpt>
      <trkpt lat="37.05248" lon="-3.31328">
        <ele>3409.2</ele>
        <time>2021-08-06 11:34:15</time>
      </trkpt>
      <trkpt lat="37.05249" lon="-3.31327">
        <ele>3409.4</ele>
        <time>2021-08-06 11:34:16</time>
      </trkpt>
      <trkpt lat="37.05249" lon="-3.31327">
        <ele>3409.4</ele>
        <time>2021-08-06 11:34:17</time>
      </trkpt>
      <trkpt lat="37.05249" lon="-3.31327">
        <ele>3409.8</ele>
        <time>2021-08-06 11:34:18</time>
      </trkpt>
      <trkpt lat="37.05249" lon="-3.31326">
        <ele>3410.2</ele>
        <time>2021-08-06 11:34:19</time>
      </trkpt>
      <trkpt lat="37.05249" lon="-3.31326">
        <ele>3410.4</ele>
        <time>2021-08-06 11:34:20</time>
      </trkpt>
      <trkpt lat="37.05249" lon="-3.31325">
        <ele>3410.8</ele>
        <time>2021-08-06 11:34:21</time>
      </trkpt>
      <trkpt lat="37.05248" lon="-3.31325">
        <ele>3411</ele>
        <time>2021-08-06 11:34:22</time>
      </trkpt>
      <trkpt lat="37.05248" lon="-3.31325">
        <ele>3411</ele>
        <time>2021-08-06 11:34:23</time>
      </trkpt>
      <trkpt lat="37.05247" lon="-3.31324">
        <ele>3411.2</ele>
        <time>2021-08-06 11:34:24</time>
      </trkpt>
      <trkpt lat="37.05247" lon="-3.31323">
        <ele>3411.2</ele>
        <time>2021-08-06 11:34:25</time>
      </trkpt>
      <trkpt lat="37.05248" lon="-3.31323">
        <ele>3411.2</ele>
        <time>2021-08-06 11:34:26</time>
      </trkpt>
      <trkpt lat="37.05248" lon="-3.31322">
        <ele>3411.4</ele>
        <time>2021-08-06 11:34:27</time>
      </trkpt>
      <trkpt lat="37.05248" lon="-3.31322">
        <ele>3411.4</ele>
        <time>2021-08-06 11:34:28</time>
      </trkpt>
      <trkpt lat="37.05248" lon="-3.31322">
        <ele>3411.4</ele>
        <time>2021-08-06 11:34:29</time>
      </trkpt>
      <trkpt lat="37.05249" lon="-3.31322">
        <ele>3411.4</ele>
        <time>2021-08-06 11:34:30</time>
      </trkpt>
      <trkpt lat="37.05249" lon="-3.31322">
        <ele>3411.6</ele>
        <time>2021-08-06 11:34:31</time>
      </trkpt>
      <trkpt lat="37.0525" lon="-3.31322">
        <ele>3411.8</ele>
        <time>2021-08-06 11:34:32</time>
      </trkpt>
      <trkpt lat="37.0525" lon="-3.31322">
        <ele>3412</ele>
        <time>2021-08-06 11:34:33</time>
      </trkpt>
      <trkpt lat="37.05251" lon="-3.31322">
        <ele>3412.2</ele>
        <time>2021-08-06 11:34:34</time>
      </trkpt>
      <trkpt lat="37.0525" lon="-3.31321">
        <ele>3412.4</ele>
        <time>2021-08-06 11:34:35</time>
      </trkpt>
      <trkpt lat="37.0525" lon="-3.31321">
        <ele>3412.4</ele>
        <time>2021-08-06 11:34:36</time>
      </trkpt>
      <trkpt lat="37.0525" lon="-3.3132">
        <ele>3412.8</ele>
        <time>2021-08-06 11:34:37</time>
      </trkpt>
      <trkpt lat="37.0525" lon="-3.31319">
        <ele>3413</ele>
        <time>2021-08-06 11:34:38</time>
      </trkpt>
      <trkpt lat="37.0525" lon="-3.31319">
        <ele>3413.2</ele>
        <time>2021-08-06 11:34:39</time>
      </trkpt>
      <trkpt lat="37.0525" lon="-3.31318">
        <ele>3413.2</ele>
        <time>2021-08-06 11:34:40</time>
      </trkpt>
      <trkpt lat="37.0525" lon="-3.31318">
        <ele>3413.4</ele>
        <time>2021-08-06 11:34:41</time>
      </trkpt>
      <trkpt lat="37.0525" lon="-3.31317">
        <ele>3413.6</ele>
        <time>2021-08-06 11:34:42</time>
      </trkpt>
      <trkpt lat="37.0525" lon="-3.31317">
        <ele>3413.6</ele>
        <time>2021-08-06 11:34:43</time>
      </trkpt>
      <trkpt lat="37.05251" lon="-3.31317">
        <ele>3413.2</ele>
        <time>2021-08-06 11:34:44</time>
      </trkpt>
      <trkpt lat="37.05252" lon="-3.31317">
        <ele>3413.2</ele>
        <time>2021-08-06 11:34:45</time>
      </trkpt>
      <trkpt lat="37.05252" lon="-3.31317">
        <ele>3413.2</ele>
        <time>2021-08-06 11:34:46</time>
      </trkpt>
      <trkpt lat="37.05252" lon="-3.31317">
        <ele>3413.2</ele>
        <time>2021-08-06 11:34:47</time>
      </trkpt>
      <trkpt lat="37.05252" lon="-3.31316">
        <ele>3413.4</ele>
        <time>2021-08-06 11:34:48</time>
      </trkpt>
      <trkpt lat="37.05253" lon="-3.31315">
        <ele>3413.6</ele>
        <time>2021-08-06 11:34:49</time>
      </trkpt>
      <trkpt lat="37.05252" lon="-3.31315">
        <ele>3414</ele>
        <time>2021-08-06 11:34:50</time>
      </trkpt>
      <trkpt lat="37.05252" lon="-3.31314">
        <ele>3414.2</ele>
        <time>2021-08-06 11:34:51</time>
      </trkpt>
      <trkpt lat="37.05252" lon="-3.31313">
        <ele>3414.6</ele>
        <time>2021-08-06 11:34:52</time>
      </trkpt>
      <trkpt lat="37.05251" lon="-3.31313">
        <ele>3414.8</ele>
        <time>2021-08-06 11:34:53</time>
      </trkpt>
      <trkpt lat="37.05251" lon="-3.31313">
        <ele>3414.8</ele>
        <time>2021-08-06 11:34:54</time>
      </trkpt>
      <trkpt lat="37.05251" lon="-3.31313">
        <ele>3415</ele>
        <time>2021-08-06 11:34:55</time>
      </trkpt>
      <trkpt lat="37.05251" lon="-3.31313">
        <ele>3415</ele>
        <time>2021-08-06 11:34:56</time>
      </trkpt>
      <trkpt lat="37.05252" lon="-3.31313">
        <ele>3415.4</ele>
        <time>2021-08-06 11:34:57</time>
      </trkpt>
      <trkpt lat="37.05252" lon="-3.31313">
        <ele>3415.6</ele>
        <time>2021-08-06 11:34:58</time>
      </trkpt>
      <trkpt lat="37.05252" lon="-3.31313">
        <ele>3415.6</ele>
        <time>2021-08-06 11:34:59</time>
      </trkpt>
      <trkpt lat="37.05252" lon="-3.31313">
        <ele>3415.6</ele>
        <time>2021-08-06 11:35:00</time>
      </trkpt>
      <trkpt lat="37.05252" lon="-3.31313">
        <ele>3415.6</ele>
        <time>2021-08-06 11:35:01</time>
      </trkpt>
      <trkpt lat="37.05252" lon="-3.31313">
        <ele>3415.6</ele>
        <time>2021-08-06 11:35:02</time>
      </trkpt>
      <trkpt lat="37.05252" lon="-3.31313">
        <ele>3415.6</ele>
        <time>2021-08-06 11:35:03</time>
      </trkpt>
      <trkpt lat="37.05252" lon="-3.31313">
        <ele>3415.4</ele>
        <time>2021-08-06 11:35:04</time>
      </trkpt>
      <trkpt lat="37.05252" lon="-3.31313">
        <ele>3415</ele>
        <time>2021-08-06 11:35:05</time>
      </trkpt>
      <trkpt lat="37.05252" lon="-3.31313">
        <ele>3415</ele>
        <time>2021-08-06 11:35:06</time>
      </trkpt>
      <trkpt lat="37.05252" lon="-3.31313">
        <ele>3415</ele>
        <time>2021-08-06 11:35:07</time>
      </trkpt>
      <trkpt lat="37.05252" lon="-3.31312">
        <ele>3414.8</ele>
        <time>2021-08-06 11:35:08</time>
      </trkpt>
      <trkpt lat="37.05251" lon="-3.31311">
        <ele>3414.8</ele>
        <time>2021-08-06 11:35:09</time>
      </trkpt>
      <trkpt lat="37.05251" lon="-3.3131">
        <ele>3415.4</ele>
        <time>2021-08-06 11:35:10</time>
      </trkpt>
      <trkpt lat="37.0525" lon="-3.3131">
        <ele>3415.6</ele>
        <time>2021-08-06 11:35:11</time>
      </trkpt>
      <trkpt lat="37.05249" lon="-3.31309">
        <ele>3415.8</ele>
        <time>2021-08-06 11:35:12</time>
      </trkpt>
      <trkpt lat="37.05249" lon="-3.31309">
        <ele>3416</ele>
        <time>2021-08-06 11:35:13</time>
      </trkpt>
      <trkpt lat="37.05248" lon="-3.31309">
        <ele>3416</ele>
        <time>2021-08-06 11:35:14</time>
      </trkpt>
      <trkpt lat="37.05248" lon="-3.31308">
        <ele>3416.2</ele>
        <time>2021-08-06 11:35:15</time>
      </trkpt>
      <trkpt lat="37.05248" lon="-3.31307">
        <ele>3416.4</ele>
        <time>2021-08-06 11:35:16</time>
      </trkpt>
      <trkpt lat="37.05248" lon="-3.31307">
        <ele>3416.6</ele>
        <time>2021-08-06 11:35:17</time>
      </trkpt>
      <trkpt lat="37.05248" lon="-3.31307">
        <ele>3416.8</ele>
        <time>2021-08-06 11:35:18</time>
      </trkpt>
      <trkpt lat="37.05248" lon="-3.31306">
        <ele>3416.8</ele>
        <time>2021-08-06 11:35:19</time>
      </trkpt>
      <trkpt lat="37.05248" lon="-3.31306">
        <ele>3417</ele>
        <time>2021-08-06 11:35:20</time>
      </trkpt>
      <trkpt lat="37.05249" lon="-3.31305">
        <ele>3417</ele>
        <time>2021-08-06 11:35:21</time>
      </trkpt>
      <trkpt lat="37.0525" lon="-3.31305">
        <ele>3417</ele>
        <time>2021-08-06 11:35:22</time>
      </trkpt>
      <trkpt lat="37.0525" lon="-3.31305">
        <ele>3417</ele>
        <time>2021-08-06 11:35:23</time>
      </trkpt>
      <trkpt lat="37.0525" lon="-3.31305">
        <ele>3417</ele>
        <time>2021-08-06 11:35:24</time>
      </trkpt>
      <trkpt lat="37.05251" lon="-3.31306">
        <ele>3417</ele>
        <time>2021-08-06 11:35:25</time>
      </trkpt>
      <trkpt lat="37.05251" lon="-3.31306">
        <ele>3417.2</ele>
        <time>2021-08-06 11:35:26</time>
      </trkpt>
      <trkpt lat="37.05251" lon="-3.31306">
        <ele>3417.8</ele>
        <time>2021-08-06 11:35:27</time>
      </trkpt>
      <trkpt lat="37.05252" lon="-3.31305">
        <ele>3418.2</ele>
        <time>2021-08-06 11:35:28</time>
      </trkpt>
      <trkpt lat="37.05252" lon="-3.31304">
        <ele>3418.4</ele>
        <time>2021-08-06 11:35:29</time>
      </trkpt>
      <trkpt lat="37.05251" lon="-3.31303">
        <ele>3418.4</ele>
        <time>2021-08-06 11:35:30</time>
      </trkpt>
      <trkpt lat="37.0525" lon="-3.31303">
        <ele>3418.4</ele>
        <time>2021-08-06 11:35:31</time>
      </trkpt>
      <trkpt lat="37.0525" lon="-3.31302">
        <ele>3418.6</ele>
        <time>2021-08-06 11:35:32</time>
      </trkpt>
      <trkpt lat="37.05249" lon="-3.31302">
        <ele>3418.6</ele>
        <time>2021-08-06 11:35:33</time>
      </trkpt>
      <trkpt lat="37.05249" lon="-3.31302">
        <ele>3418.6</ele>
        <time>2021-08-06 11:35:34</time>
      </trkpt>
      <trkpt lat="37.05249" lon="-3.31302">
        <ele>3418.8</ele>
        <time>2021-08-06 11:35:35</time>
      </trkpt>
      <trkpt lat="37.05249" lon="-3.31302">
        <ele>3419</ele>
        <time>2021-08-06 11:35:36</time>
      </trkpt>
      <trkpt lat="37.05249" lon="-3.31302">
        <ele>3419.2</ele>
        <time>2021-08-06 11:35:37</time>
      </trkpt>
      <trkpt lat="37.05249" lon="-3.31301">
        <ele>3419.2</ele>
        <time>2021-08-06 11:35:38</time>
      </trkpt>
      <trkpt lat="37.0525" lon="-3.313">
        <ele>3419.4</ele>
        <time>2021-08-06 11:35:39</time>
      </trkpt>
      <trkpt lat="37.0525" lon="-3.313">
        <ele>3419.4</ele>
        <time>2021-08-06 11:35:40</time>
      </trkpt>
      <trkpt lat="37.0525" lon="-3.31299">
        <ele>3419.4</ele>
        <time>2021-08-06 11:35:41</time>
      </trkpt>
      <trkpt lat="37.0525" lon="-3.31299">
        <ele>3419.4</ele>
        <time>2021-08-06 11:35:42</time>
      </trkpt>
      <trkpt lat="37.0525" lon="-3.31298">
        <ele>3419.6</ele>
        <time>2021-08-06 11:35:43</time>
      </trkpt>
      <trkpt lat="37.0525" lon="-3.31298">
        <ele>3419.8</ele>
        <time>2021-08-06 11:35:44</time>
      </trkpt>
      <trkpt lat="37.0525" lon="-3.31298">
        <ele>3420</ele>
        <time>2021-08-06 11:35:45</time>
      </trkpt>
      <trkpt lat="37.0525" lon="-3.31298">
        <ele>3420.4</ele>
        <time>2021-08-06 11:35:46</time>
      </trkpt>
      <trkpt lat="37.0525" lon="-3.31297">
        <ele>3420.2</ele>
        <time>2021-08-06 11:35:47</time>
      </trkpt>
      <trkpt lat="37.0525" lon="-3.31297">
        <ele>3420.4</ele>
        <time>2021-08-06 11:35:48</time>
      </trkpt>
      <trkpt lat="37.0525" lon="-3.31297">
        <ele>3420.4</ele>
        <time>2021-08-06 11:35:49</time>
      </trkpt>
      <trkpt lat="37.0525" lon="-3.31296">
        <ele>3420.6</ele>
        <time>2021-08-06 11:35:50</time>
      </trkpt>
      <trkpt lat="37.05249" lon="-3.31296">
        <ele>3420.6</ele>
        <time>2021-08-06 11:35:51</time>
      </trkpt>
      <trkpt lat="37.05249" lon="-3.31295">
        <ele>3421</ele>
        <time>2021-08-06 11:35:52</time>
      </trkpt>
      <trkpt lat="37.05249" lon="-3.31295">
        <ele>3421</ele>
        <time>2021-08-06 11:35:53</time>
      </trkpt>
      <trkpt lat="37.05249" lon="-3.31295">
        <ele>3421.2</ele>
        <time>2021-08-06 11:35:54</time>
      </trkpt>
      <trkpt lat="37.05248" lon="-3.31295">
        <ele>3421.4</ele>
        <time>2021-08-06 11:35:55</time>
      </trkpt>
      <trkpt lat="37.05248" lon="-3.31296">
        <ele>3421.6</ele>
        <time>2021-08-06 11:35:56</time>
      </trkpt>
      <trkpt lat="37.05248" lon="-3.31295">
        <ele>3421.8</ele>
        <time>2021-08-06 11:35:57</time>
      </trkpt>
      <trkpt lat="37.05248" lon="-3.31295">
        <ele>3422</ele>
        <time>2021-08-06 11:35:58</time>
      </trkpt>
      <trkpt lat="37.05247" lon="-3.31294">
        <ele>3422</ele>
        <time>2021-08-06 11:35:59</time>
      </trkpt>
      <trkpt lat="37.05247" lon="-3.31294">
        <ele>3422.2</ele>
        <time>2021-08-06 11:36:00</time>
      </trkpt>
      <trkpt lat="37.05246" lon="-3.31293">
        <ele>3422.2</ele>
        <time>2021-08-06 11:36:01</time>
      </trkpt>
      <trkpt lat="37.05246" lon="-3.31292">
        <ele>3422.2</ele>
        <time>2021-08-06 11:36:02</time>
      </trkpt>
      <trkpt lat="37.05246" lon="-3.31292">
        <ele>3422.4</ele>
        <time>2021-08-06 11:36:03</time>
      </trkpt>
      <trkpt lat="37.05246" lon="-3.31291">
        <ele>3422.6</ele>
        <time>2021-08-06 11:36:04</time>
      </trkpt>
      <trkpt lat="37.05246" lon="-3.31291">
        <ele>3422.6</ele>
        <time>2021-08-06 11:36:05</time>
      </trkpt>
      <trkpt lat="37.05246" lon="-3.3129">
        <ele>3422.6</ele>
        <time>2021-08-06 11:36:06</time>
      </trkpt>
      <trkpt lat="37.05246" lon="-3.3129">
        <ele>3422.8</ele>
        <time>2021-08-06 11:36:07</time>
      </trkpt>
      <trkpt lat="37.05246" lon="-3.31289">
        <ele>3422.8</ele>
        <time>2021-08-06 11:36:08</time>
      </trkpt>
      <trkpt lat="37.05246" lon="-3.31289">
        <ele>3423</ele>
        <time>2021-08-06 11:36:09</time>
      </trkpt>
      <trkpt lat="37.05246" lon="-3.31288">
        <ele>3423.2</ele>
        <time>2021-08-06 11:36:10</time>
      </trkpt>
      <trkpt lat="37.05246" lon="-3.31288">
        <ele>3423.4</ele>
        <time>2021-08-06 11:36:11</time>
      </trkpt>
      <trkpt lat="37.05246" lon="-3.31288">
        <ele>3423.6</ele>
        <time>2021-08-06 11:36:12</time>
      </trkpt>
      <trkpt lat="37.05247" lon="-3.31288">
        <ele>3423.8</ele>
        <time>2021-08-06 11:36:13</time>
      </trkpt>
      <trkpt lat="37.05246" lon="-3.31288">
        <ele>3423.8</ele>
        <time>2021-08-06 11:36:14</time>
      </trkpt>
      <trkpt lat="37.05246" lon="-3.31288">
        <ele>3423.8</ele>
        <time>2021-08-06 11:36:15</time>
      </trkpt>
      <trkpt lat="37.05246" lon="-3.31287">
        <ele>3423.8</ele>
        <time>2021-08-06 11:36:16</time>
      </trkpt>
      <trkpt lat="37.05246" lon="-3.31286">
        <ele>3423.8</ele>
        <time>2021-08-06 11:36:17</time>
      </trkpt>
      <trkpt lat="37.05247" lon="-3.31285">
        <ele>3424</ele>
        <time>2021-08-06 11:36:18</time>
      </trkpt>
      <trkpt lat="37.05247" lon="-3.31284">
        <ele>3424</ele>
        <time>2021-08-06 11:36:19</time>
      </trkpt>
      <trkpt lat="37.05248" lon="-3.31284">
        <ele>3424.2</ele>
        <time>2021-08-06 11:36:20</time>
      </trkpt>
      <trkpt lat="37.05249" lon="-3.31283">
        <ele>3424.2</ele>
        <time>2021-08-06 11:36:21</time>
      </trkpt>
      <trkpt lat="37.05249" lon="-3.31283">
        <ele>3424.2</ele>
        <time>2021-08-06 11:36:22</time>
      </trkpt>
      <trkpt lat="37.05249" lon="-3.31282">
        <ele>3424.6</ele>
        <time>2021-08-06 11:36:23</time>
      </trkpt>
      <trkpt lat="37.05249" lon="-3.31282">
        <ele>3424.8</ele>
        <time>2021-08-06 11:36:24</time>
      </trkpt>
      <trkpt lat="37.05249" lon="-3.31282">
        <ele>3424.8</ele>
        <time>2021-08-06 11:36:25</time>
      </trkpt>
      <trkpt lat="37.05249" lon="-3.31282">
        <ele>3425</ele>
        <time>2021-08-06 11:36:26</time>
      </trkpt>
      <trkpt lat="37.05248" lon="-3.31282">
        <ele>3425</ele>
        <time>2021-08-06 11:36:27</time>
      </trkpt>
      <trkpt lat="37.05248" lon="-3.31282">
        <ele>3425.2</ele>
        <time>2021-08-06 11:36:28</time>
      </trkpt>
      <trkpt lat="37.05247" lon="-3.31282">
        <ele>3425.4</ele>
        <time>2021-08-06 11:36:29</time>
      </trkpt>
      <trkpt lat="37.05247" lon="-3.31282">
        <ele>3425.6</ele>
        <time>2021-08-06 11:36:30</time>
      </trkpt>
      <trkpt lat="37.05246" lon="-3.31281">
        <ele>3425.6</ele>
        <time>2021-08-06 11:36:31</time>
      </trkpt>
      <trkpt lat="37.05246" lon="-3.31281">
        <ele>3425.8</ele>
        <time>2021-08-06 11:36:32</time>
      </trkpt>
      <trkpt lat="37.05246" lon="-3.3128">
        <ele>3425.8</ele>
        <time>2021-08-06 11:36:33</time>
      </trkpt>
      <trkpt lat="37.05246" lon="-3.31279">
        <ele>3425.8</ele>
        <time>2021-08-06 11:36:34</time>
      </trkpt>
      <trkpt lat="37.05247" lon="-3.31278">
        <ele>3426</ele>
        <time>2021-08-06 11:36:35</time>
      </trkpt>
      <trkpt lat="37.05248" lon="-3.31278">
        <ele>3426</ele>
        <time>2021-08-06 11:36:36</time>
      </trkpt>
      <trkpt lat="37.05249" lon="-3.31278">
        <ele>3426.2</ele>
        <time>2021-08-06 11:36:37</time>
      </trkpt>
      <trkpt lat="37.05249" lon="-3.31277">
        <ele>3426.2</ele>
        <time>2021-08-06 11:36:38</time>
      </trkpt>
      <trkpt lat="37.05249" lon="-3.31277">
        <ele>3426.4</ele>
        <time>2021-08-06 11:36:39</time>
      </trkpt>
      <trkpt lat="37.0525" lon="-3.31277">
        <ele>3426.8</ele>
        <time>2021-08-06 11:36:40</time>
      </trkpt>
      <trkpt lat="37.0525" lon="-3.31276">
        <ele>3427.2</ele>
        <time>2021-08-06 11:36:41</time>
      </trkpt>
      <trkpt lat="37.0525" lon="-3.31276">
        <ele>3427.6</ele>
        <time>2021-08-06 11:36:42</time>
      </trkpt>
      <trkpt lat="37.0525" lon="-3.31276">
        <ele>3427.6</ele>
        <time>2021-08-06 11:36:43</time>
      </trkpt>
      <trkpt lat="37.0525" lon="-3.31276">
        <ele>3427.6</ele>
        <time>2021-08-06 11:36:44</time>
      </trkpt>
      <trkpt lat="37.0525" lon="-3.31276">
        <ele>3427.6</ele>
        <time>2021-08-06 11:36:45</time>
      </trkpt>
      <trkpt lat="37.0525" lon="-3.31276">
        <ele>3427.4</ele>
        <time>2021-08-06 11:36:46</time>
      </trkpt>
      <trkpt lat="37.0525" lon="-3.31276">
        <ele>3427.4</ele>
        <time>2021-08-06 11:36:47</time>
      </trkpt>
      <trkpt lat="37.0525" lon="-3.31275">
        <ele>3427.4</ele>
        <time>2021-08-06 11:36:48</time>
      </trkpt>
      <trkpt lat="37.05249" lon="-3.31274">
        <ele>3427.8</ele>
        <time>2021-08-06 11:36:49</time>
      </trkpt>
      <trkpt lat="37.05249" lon="-3.31274">
        <ele>3428.2</ele>
        <time>2021-08-06 11:36:50</time>
      </trkpt>
      <trkpt lat="37.05249" lon="-3.31273">
        <ele>3428.4</ele>
        <time>2021-08-06 11:36:51</time>
      </trkpt>
      <trkpt lat="37.05248" lon="-3.31273">
        <ele>3428.8</ele>
        <time>2021-08-06 11:36:52</time>
      </trkpt>
      <trkpt lat="37.05248" lon="-3.31273">
        <ele>3429</ele>
        <time>2021-08-06 11:36:53</time>
      </trkpt>
      <trkpt lat="37.05248" lon="-3.31273">
        <ele>3429.2</ele>
        <time>2021-08-06 11:36:54</time>
      </trkpt>
      <trkpt lat="37.05247" lon="-3.31273">
        <ele>3429.2</ele>
        <time>2021-08-06 11:36:55</time>
      </trkpt>
      <trkpt lat="37.05247" lon="-3.31272">
        <ele>3429.4</ele>
        <time>2021-08-06 11:36:56</time>
      </trkpt>
      <trkpt lat="37.05247" lon="-3.31272">
        <ele>3430</ele>
        <time>2021-08-06 11:36:57</time>
      </trkpt>
      <trkpt lat="37.05247" lon="-3.31272">
        <ele>3430.2</ele>
        <time>2021-08-06 11:36:58</time>
      </trkpt>
      <trkpt lat="37.05247" lon="-3.31271">
        <ele>3430.6</ele>
        <time>2021-08-06 11:36:59</time>
      </trkpt>
      <trkpt lat="37.05246" lon="-3.3127">
        <ele>3430.6</ele>
        <time>2021-08-06 11:37:00</time>
      </trkpt>
      <trkpt lat="37.05246" lon="-3.3127">
        <ele>3430.8</ele>
        <time>2021-08-06 11:37:01</time>
      </trkpt>
      <trkpt lat="37.05246" lon="-3.31269">
        <ele>3430.8</ele>
        <time>2021-08-06 11:37:02</time>
      </trkpt>
      <trkpt lat="37.05247" lon="-3.31269">
        <ele>3430.8</ele>
        <time>2021-08-06 11:37:03</time>
      </trkpt>
      <trkpt lat="37.05247" lon="-3.31268">
        <ele>3430.8</ele>
        <time>2021-08-06 11:37:04</time>
      </trkpt>
      <trkpt lat="37.05247" lon="-3.31268">
        <ele>3430.6</ele>
        <time>2021-08-06 11:37:05</time>
      </trkpt>
      <trkpt lat="37.05246" lon="-3.31267">
        <ele>3430.6</ele>
        <time>2021-08-06 11:37:06</time>
      </trkpt>
      <trkpt lat="37.05246" lon="-3.31267">
        <ele>3430.8</ele>
        <time>2021-08-06 11:37:07</time>
      </trkpt>
      <trkpt lat="37.05246" lon="-3.31266">
        <ele>3430.8</ele>
        <time>2021-08-06 11:37:08</time>
      </trkpt>
      <trkpt lat="37.05246" lon="-3.31266">
        <ele>3431.2</ele>
        <time>2021-08-06 11:37:09</time>
      </trkpt>
      <trkpt lat="37.05245" lon="-3.31265">
        <ele>3431.4</ele>
        <time>2021-08-06 11:37:10</time>
      </trkpt>
      <trkpt lat="37.05245" lon="-3.31265">
        <ele>3431.6</ele>
        <time>2021-08-06 11:37:11</time>
      </trkpt>
      <trkpt lat="37.05245" lon="-3.31264">
        <ele>3432</ele>
        <time>2021-08-06 11:37:12</time>
      </trkpt>
      <trkpt lat="37.05246" lon="-3.31264">
        <ele>3432.2</ele>
        <time>2021-08-06 11:37:13</time>
      </trkpt>
      <trkpt lat="37.05246" lon="-3.31264">
        <ele>3432.4</ele>
        <time>2021-08-06 11:37:14</time>
      </trkpt>
      <trkpt lat="37.05246" lon="-3.31263">
        <ele>3432.6</ele>
        <time>2021-08-06 11:37:15</time>
      </trkpt>
      <trkpt lat="37.05247" lon="-3.31263">
        <ele>3432.6</ele>
        <time>2021-08-06 11:37:16</time>
      </trkpt>
      <trkpt lat="37.05247" lon="-3.31263">
        <ele>3432.8</ele>
        <time>2021-08-06 11:37:17</time>
      </trkpt>
      <trkpt lat="37.05248" lon="-3.31263">
        <ele>3433</ele>
        <time>2021-08-06 11:37:18</time>
      </trkpt>
      <trkpt lat="37.05248" lon="-3.31263">
        <ele>3433.4</ele>
        <time>2021-08-06 11:37:19</time>
      </trkpt>
      <trkpt lat="37.05249" lon="-3.31263">
        <ele>3433.6</ele>
        <time>2021-08-06 11:37:20</time>
      </trkpt>
      <trkpt lat="37.0525" lon="-3.31263">
        <ele>3434</ele>
        <time>2021-08-06 11:37:21</time>
      </trkpt>
      <trkpt lat="37.0525" lon="-3.31263">
        <ele>3434</ele>
        <time>2021-08-06 11:37:22</time>
      </trkpt>
      <trkpt lat="37.0525" lon="-3.31263">
        <ele>3434.2</ele>
        <time>2021-08-06 11:37:23</time>
      </trkpt>
      <trkpt lat="37.05251" lon="-3.31262">
        <ele>3434.4</ele>
        <time>2021-08-06 11:37:24</time>
      </trkpt>
      <trkpt lat="37.05251" lon="-3.31262">
        <ele>3434.4</ele>
        <time>2021-08-06 11:37:25</time>
      </trkpt>
      <trkpt lat="37.05251" lon="-3.31261">
        <ele>3434.4</ele>
        <time>2021-08-06 11:37:26</time>
      </trkpt>
      <trkpt lat="37.05251" lon="-3.31261">
        <ele>3434.6</ele>
        <time>2021-08-06 11:37:27</time>
      </trkpt>
      <trkpt lat="37.05251" lon="-3.3126">
        <ele>3434.6</ele>
        <time>2021-08-06 11:37:28</time>
      </trkpt>
      <trkpt lat="37.05251" lon="-3.3126">
        <ele>3434.8</ele>
        <time>2021-08-06 11:37:29</time>
      </trkpt>
      <trkpt lat="37.05251" lon="-3.3126">
        <ele>3434.8</ele>
        <time>2021-08-06 11:37:30</time>
      </trkpt>
      <trkpt lat="37.05251" lon="-3.3126">
        <ele>3434.8</ele>
        <time>2021-08-06 11:37:31</time>
      </trkpt>
      <trkpt lat="37.05252" lon="-3.3126">
        <ele>3434.8</ele>
        <time>2021-08-06 11:37:32</time>
      </trkpt>
      <trkpt lat="37.05252" lon="-3.3126">
        <ele>3435</ele>
        <time>2021-08-06 11:37:33</time>
      </trkpt>
      <trkpt lat="37.05253" lon="-3.3126">
        <ele>3435.2</ele>
        <time>2021-08-06 11:37:34</time>
      </trkpt>
      <trkpt lat="37.05253" lon="-3.31259">
        <ele>3435.4</ele>
        <time>2021-08-06 11:37:35</time>
      </trkpt>
      <trkpt lat="37.05253" lon="-3.31259">
        <ele>3435.4</ele>
        <time>2021-08-06 11:37:36</time>
      </trkpt>
      <trkpt lat="37.05254" lon="-3.31258">
        <ele>3435.8</ele>
        <time>2021-08-06 11:37:37</time>
      </trkpt>
      <trkpt lat="37.05255" lon="-3.31258">
        <ele>3436</ele>
        <time>2021-08-06 11:37:38</time>
      </trkpt>
      <trkpt lat="37.05256" lon="-3.31257">
        <ele>3436.4</ele>
        <time>2021-08-06 11:37:39</time>
      </trkpt>
      <trkpt lat="37.05256" lon="-3.31256">
        <ele>3436.8</ele>
        <time>2021-08-06 11:37:40</time>
      </trkpt>
      <trkpt lat="37.05256" lon="-3.31256">
        <ele>3437</ele>
        <time>2021-08-06 11:37:41</time>
      </trkpt>
      <trkpt lat="37.05255" lon="-3.31255">
        <ele>3437.2</ele>
        <time>2021-08-06 11:37:42</time>
      </trkpt>
      <trkpt lat="37.05255" lon="-3.31255">
        <ele>3437.4</ele>
        <time>2021-08-06 11:37:43</time>
      </trkpt>
      <trkpt lat="37.05255" lon="-3.31254">
        <ele>3437.6</ele>
        <time>2021-08-06 11:37:44</time>
      </trkpt>
      <trkpt lat="37.05255" lon="-3.31253">
        <ele>3437.6</ele>
        <time>2021-08-06 11:37:45</time>
      </trkpt>
      <trkpt lat="37.05255" lon="-3.31253">
        <ele>3437.8</ele>
        <time>2021-08-06 11:37:46</time>
      </trkpt>
      <trkpt lat="37.05254" lon="-3.31252">
        <ele>3438</ele>
        <time>2021-08-06 11:37:47</time>
      </trkpt>
      <trkpt lat="37.05254" lon="-3.31252">
        <ele>3438.4</ele>
        <time>2021-08-06 11:37:48</time>
      </trkpt>
      <trkpt lat="37.05253" lon="-3.31252">
        <ele>3438.4</ele>
        <time>2021-08-06 11:37:49</time>
      </trkpt>
      <trkpt lat="37.05253" lon="-3.31252">
        <ele>3438.2</ele>
        <time>2021-08-06 11:37:50</time>
      </trkpt>
      <trkpt lat="37.05253" lon="-3.31252">
        <ele>3438.4</ele>
        <time>2021-08-06 11:37:51</time>
      </trkpt>
      <trkpt lat="37.05253" lon="-3.31252">
        <ele>3438.8</ele>
        <time>2021-08-06 11:37:52</time>
      </trkpt>
      <trkpt lat="37.05253" lon="-3.31251">
        <ele>3438.8</ele>
        <time>2021-08-06 11:37:53</time>
      </trkpt>
      <trkpt lat="37.05254" lon="-3.31251">
        <ele>3438.8</ele>
        <time>2021-08-06 11:37:54</time>
      </trkpt>
      <trkpt lat="37.05254" lon="-3.3125">
        <ele>3438.8</ele>
        <time>2021-08-06 11:37:55</time>
      </trkpt>
      <trkpt lat="37.05255" lon="-3.3125">
        <ele>3438.8</ele>
        <time>2021-08-06 11:37:56</time>
      </trkpt>
      <trkpt lat="37.05256" lon="-3.3125">
        <ele>3439</ele>
        <time>2021-08-06 11:37:57</time>
      </trkpt>
      <trkpt lat="37.05256" lon="-3.31249">
        <ele>3439.2</ele>
        <time>2021-08-06 11:37:58</time>
      </trkpt>
      <trkpt lat="37.05256" lon="-3.31249">
        <ele>3439</ele>
        <time>2021-08-06 11:37:59</time>
      </trkpt>
      <trkpt lat="37.05255" lon="-3.31248">
        <ele>3439.4</ele>
        <time>2021-08-06 11:38:00</time>
      </trkpt>
      <trkpt lat="37.05255" lon="-3.31248">
        <ele>3439.4</ele>
        <time>2021-08-06 11:38:01</time>
      </trkpt>
      <trkpt lat="37.05255" lon="-3.31248">
        <ele>3439.6</ele>
        <time>2021-08-06 11:38:02</time>
      </trkpt>
      <trkpt lat="37.05254" lon="-3.31248">
        <ele>3439.8</ele>
        <time>2021-08-06 11:38:03</time>
      </trkpt>
      <trkpt lat="37.05254" lon="-3.31248">
        <ele>3439.8</ele>
        <time>2021-08-06 11:38:04</time>
      </trkpt>
      <trkpt lat="37.05254" lon="-3.31248">
        <ele>3440</ele>
        <time>2021-08-06 11:38:05</time>
      </trkpt>
      <trkpt lat="37.05254" lon="-3.31248">
        <ele>3440</ele>
        <time>2021-08-06 11:38:06</time>
      </trkpt>
      <trkpt lat="37.05254" lon="-3.31247">
        <ele>3440</ele>
        <time>2021-08-06 11:38:07</time>
      </trkpt>
      <trkpt lat="37.05253" lon="-3.31246">
        <ele>3440.2</ele>
        <time>2021-08-06 11:38:08</time>
      </trkpt>
      <trkpt lat="37.05253" lon="-3.31246">
        <ele>3441</ele>
        <time>2021-08-06 11:38:09</time>
      </trkpt>
      <trkpt lat="37.05252" lon="-3.31245">
        <ele>3441.4</ele>
        <time>2021-08-06 11:38:10</time>
      </trkpt>
      <trkpt lat="37.05252" lon="-3.31244">
        <ele>3441.6</ele>
        <time>2021-08-06 11:38:11</time>
      </trkpt>
      <trkpt lat="37.05251" lon="-3.31244">
        <ele>3441.8</ele>
        <time>2021-08-06 11:38:12</time>
      </trkpt>
      <trkpt lat="37.05251" lon="-3.31244">
        <ele>3441.8</ele>
        <time>2021-08-06 11:38:13</time>
      </trkpt>
      <trkpt lat="37.05251" lon="-3.31243">
        <ele>3441.8</ele>
        <time>2021-08-06 11:38:14</time>
      </trkpt>
      <trkpt lat="37.05251" lon="-3.31243">
        <ele>3441.8</ele>
        <time>2021-08-06 11:38:15</time>
      </trkpt>
      <trkpt lat="37.05251" lon="-3.31242">
        <ele>3441.8</ele>
        <time>2021-08-06 11:38:16</time>
      </trkpt>
      <trkpt lat="37.05251" lon="-3.31241">
        <ele>3442</ele>
        <time>2021-08-06 11:38:17</time>
      </trkpt>
      <trkpt lat="37.05251" lon="-3.31241">
        <ele>3442.2</ele>
        <time>2021-08-06 11:38:18</time>
      </trkpt>
      <trkpt lat="37.05251" lon="-3.3124">
        <ele>3442.4</ele>
        <time>2021-08-06 11:38:19</time>
      </trkpt>
      <trkpt lat="37.05251" lon="-3.3124">
        <ele>3442.6</ele>
        <time>2021-08-06 11:38:20</time>
      </trkpt>
      <trkpt lat="37.05251" lon="-3.31239">
        <ele>3442.8</ele>
        <time>2021-08-06 11:38:21</time>
      </trkpt>
      <trkpt lat="37.05251" lon="-3.31238">
        <ele>3442.8</ele>
        <time>2021-08-06 11:38:22</time>
      </trkpt>
      <trkpt lat="37.05251" lon="-3.31238">
        <ele>3443</ele>
        <time>2021-08-06 11:38:23</time>
      </trkpt>
      <trkpt lat="37.0525" lon="-3.31237">
        <ele>3443</ele>
        <time>2021-08-06 11:38:24</time>
      </trkpt>
      <trkpt lat="37.0525" lon="-3.31236">
        <ele>3443.2</ele>
        <time>2021-08-06 11:38:25</time>
      </trkpt>
      <trkpt lat="37.0525" lon="-3.31235">
        <ele>3443.4</ele>
        <time>2021-08-06 11:38:26</time>
      </trkpt>
      <trkpt lat="37.05251" lon="-3.31235">
        <ele>3443.6</ele>
        <time>2021-08-06 11:38:27</time>
      </trkpt>
      <trkpt lat="37.05251" lon="-3.31234">
        <ele>3443.6</ele>
        <time>2021-08-06 11:38:28</time>
      </trkpt>
      <trkpt lat="37.05252" lon="-3.31234">
        <ele>3443.8</ele>
        <time>2021-08-06 11:38:29</time>
      </trkpt>
      <trkpt lat="37.05252" lon="-3.31233">
        <ele>3444</ele>
        <time>2021-08-06 11:38:30</time>
      </trkpt>
      <trkpt lat="37.05252" lon="-3.31233">
        <ele>3444.2</ele>
        <time>2021-08-06 11:38:31</time>
      </trkpt>
      <trkpt lat="37.05253" lon="-3.31232">
        <ele>3444.6</ele>
        <time>2021-08-06 11:38:32</time>
      </trkpt>
      <trkpt lat="37.05253" lon="-3.31232">
        <ele>3444.6</ele>
        <time>2021-08-06 11:38:33</time>
      </trkpt>
      <trkpt lat="37.05253" lon="-3.31231">
        <ele>3444.8</ele>
        <time>2021-08-06 11:38:34</time>
      </trkpt>
      <trkpt lat="37.05253" lon="-3.3123">
        <ele>3445</ele>
        <time>2021-08-06 11:38:35</time>
      </trkpt>
      <trkpt lat="37.05253" lon="-3.3123">
        <ele>3445.2</ele>
        <time>2021-08-06 11:38:36</time>
      </trkpt>
      <trkpt lat="37.05253" lon="-3.3123">
        <ele>3445.2</ele>
        <time>2021-08-06 11:38:37</time>
      </trkpt>
      <trkpt lat="37.05253" lon="-3.31229">
        <ele>3445.2</ele>
        <time>2021-08-06 11:38:38</time>
      </trkpt>
      <trkpt lat="37.05253" lon="-3.31229">
        <ele>3445.2</ele>
        <time>2021-08-06 11:38:39</time>
      </trkpt>
      <trkpt lat="37.05252" lon="-3.31228">
        <ele>3445.4</ele>
        <time>2021-08-06 11:38:40</time>
      </trkpt>
      <trkpt lat="37.05252" lon="-3.31228">
        <ele>3445.6</ele>
        <time>2021-08-06 11:38:41</time>
      </trkpt>
      <trkpt lat="37.05252" lon="-3.31227">
        <ele>3446</ele>
        <time>2021-08-06 11:38:42</time>
      </trkpt>
      <trkpt lat="37.05252" lon="-3.31227">
        <ele>3446.2</ele>
        <time>2021-08-06 11:38:43</time>
      </trkpt>
      <trkpt lat="37.05252" lon="-3.31226">
        <ele>3446.2</ele>
        <time>2021-08-06 11:38:44</time>
      </trkpt>
      <trkpt lat="37.05252" lon="-3.31226">
        <ele>3446.2</ele>
        <time>2021-08-06 11:38:45</time>
      </trkpt>
      <trkpt lat="37.05252" lon="-3.31226">
        <ele>3446.4</ele>
        <time>2021-08-06 11:38:46</time>
      </trkpt>
      <trkpt lat="37.05252" lon="-3.31226">
        <ele>3446.4</ele>
        <time>2021-08-06 11:38:47</time>
      </trkpt>
      <trkpt lat="37.05253" lon="-3.31226">
        <ele>3446.4</ele>
        <time>2021-08-06 11:38:48</time>
      </trkpt>
      <trkpt lat="37.05253" lon="-3.31226">
        <ele>3446.4</ele>
        <time>2021-08-06 11:38:49</time>
      </trkpt>
      <trkpt lat="37.05254" lon="-3.31226">
        <ele>3446.4</ele>
        <time>2021-08-06 11:38:50</time>
      </trkpt>
      <trkpt lat="37.05254" lon="-3.31227">
        <ele>3446.6</ele>
        <time>2021-08-06 11:38:51</time>
      </trkpt>
      <trkpt lat="37.05255" lon="-3.31227">
        <ele>3447.2</ele>
        <time>2021-08-06 11:38:52</time>
      </trkpt>
      <trkpt lat="37.05255" lon="-3.31227">
        <ele>3447.6</ele>
        <time>2021-08-06 11:38:53</time>
      </trkpt>
      <trkpt lat="37.05256" lon="-3.31226">
        <ele>3447.8</ele>
        <time>2021-08-06 11:38:54</time>
      </trkpt>
      <trkpt lat="37.05256" lon="-3.31225">
        <ele>3448</ele>
        <time>2021-08-06 11:38:55</time>
      </trkpt>
      <trkpt lat="37.05256" lon="-3.31225">
        <ele>3448.2</ele>
        <time>2021-08-06 11:38:56</time>
      </trkpt>
      <trkpt lat="37.05256" lon="-3.31224">
        <ele>3448.2</ele>
        <time>2021-08-06 11:38:57</time>
      </trkpt>
      <trkpt lat="37.05256" lon="-3.31224">
        <ele>3448.2</ele>
        <time>2021-08-06 11:38:58</time>
      </trkpt>
      <trkpt lat="37.05257" lon="-3.31224">
        <ele>3448.2</ele>
        <time>2021-08-06 11:38:59</time>
      </trkpt>
      <trkpt lat="37.05258" lon="-3.31224">
        <ele>3448.2</ele>
        <time>2021-08-06 11:39:00</time>
      </trkpt>
      <trkpt lat="37.05258" lon="-3.31223">
        <ele>3448.2</ele>
        <time>2021-08-06 11:39:01</time>
      </trkpt>
      <trkpt lat="37.05259" lon="-3.31223">
        <ele>3448.8</ele>
        <time>2021-08-06 11:39:02</time>
      </trkpt>
      <trkpt lat="37.05259" lon="-3.31223">
        <ele>3449</ele>
        <time>2021-08-06 11:39:03</time>
      </trkpt>
      <trkpt lat="37.0526" lon="-3.31223">
        <ele>3449</ele>
        <time>2021-08-06 11:39:04</time>
      </trkpt>
      <trkpt lat="37.0526" lon="-3.31223">
        <ele>3449.2</ele>
        <time>2021-08-06 11:39:05</time>
      </trkpt>
      <trkpt lat="37.05261" lon="-3.31223">
        <ele>3449.2</ele>
        <time>2021-08-06 11:39:06</time>
      </trkpt>
      <trkpt lat="37.05261" lon="-3.31223">
        <ele>3449.2</ele>
        <time>2021-08-06 11:39:07</time>
      </trkpt>
      <trkpt lat="37.05261" lon="-3.31223">
        <ele>3449.4</ele>
        <time>2021-08-06 11:39:08</time>
      </trkpt>
      <trkpt lat="37.05262" lon="-3.31222">
        <ele>3449.4</ele>
        <time>2021-08-06 11:39:09</time>
      </trkpt>
      <trkpt lat="37.05262" lon="-3.31221">
        <ele>3449.6</ele>
        <time>2021-08-06 11:39:10</time>
      </trkpt>
      <trkpt lat="37.05262" lon="-3.31221">
        <ele>3449.6</ele>
        <time>2021-08-06 11:39:11</time>
      </trkpt>
      <trkpt lat="37.05262" lon="-3.31221">
        <ele>3449.6</ele>
        <time>2021-08-06 11:39:12</time>
      </trkpt>
      <trkpt lat="37.05262" lon="-3.3122">
        <ele>3449.6</ele>
        <time>2021-08-06 11:39:13</time>
      </trkpt>
      <trkpt lat="37.05263" lon="-3.3122">
        <ele>3449.8</ele>
        <time>2021-08-06 11:39:14</time>
      </trkpt>
      <trkpt lat="37.05263" lon="-3.31219">
        <ele>3449.8</ele>
        <time>2021-08-06 11:39:15</time>
      </trkpt>
      <trkpt lat="37.05263" lon="-3.31219">
        <ele>3449.8</ele>
        <time>2021-08-06 11:39:16</time>
      </trkpt>
      <trkpt lat="37.05264" lon="-3.31218">
        <ele>3449.8</ele>
        <time>2021-08-06 11:39:17</time>
      </trkpt>
      <trkpt lat="37.05264" lon="-3.31218">
        <ele>3450.2</ele>
        <time>2021-08-06 11:39:18</time>
      </trkpt>
      <trkpt lat="37.05264" lon="-3.31217">
        <ele>3450.4</ele>
        <time>2021-08-06 11:39:19</time>
      </trkpt>
      <trkpt lat="37.05265" lon="-3.31217">
        <ele>3450.6</ele>
        <time>2021-08-06 11:39:20</time>
      </trkpt>
      <trkpt lat="37.05265" lon="-3.31217">
        <ele>3450.8</ele>
        <time>2021-08-06 11:39:21</time>
      </trkpt>
      <trkpt lat="37.05265" lon="-3.31217">
        <ele>3450.8</ele>
        <time>2021-08-06 11:39:22</time>
      </trkpt>
      <trkpt lat="37.05265" lon="-3.31216">
        <ele>3450.8</ele>
        <time>2021-08-06 11:39:23</time>
      </trkpt>
      <trkpt lat="37.05266" lon="-3.31216">
        <ele>3451</ele>
        <time>2021-08-06 11:39:24</time>
      </trkpt>
      <trkpt lat="37.05266" lon="-3.31215">
        <ele>3451</ele>
        <time>2021-08-06 11:39:25</time>
      </trkpt>
      <trkpt lat="37.05267" lon="-3.31215">
        <ele>3451</ele>
        <time>2021-08-06 11:39:26</time>
      </trkpt>
      <trkpt lat="37.05267" lon="-3.31214">
        <ele>3451</ele>
        <time>2021-08-06 11:39:27</time>
      </trkpt>
      <trkpt lat="37.05267" lon="-3.31214">
        <ele>3451</ele>
        <time>2021-08-06 11:39:28</time>
      </trkpt>
      <trkpt lat="37.05267" lon="-3.31213">
        <ele>3451</ele>
        <time>2021-08-06 11:39:29</time>
      </trkpt>
      <trkpt lat="37.05267" lon="-3.31213">
        <ele>3451</ele>
        <time>2021-08-06 11:39:30</time>
      </trkpt>
      <trkpt lat="37.05267" lon="-3.31212">
        <ele>3451.2</ele>
        <time>2021-08-06 11:39:31</time>
      </trkpt>
      <trkpt lat="37.05268" lon="-3.31212">
        <ele>3451.4</ele>
        <time>2021-08-06 11:39:32</time>
      </trkpt>
      <trkpt lat="37.05268" lon="-3.31211">
        <ele>3451.6</ele>
        <time>2021-08-06 11:39:33</time>
      </trkpt>
      <trkpt lat="37.05268" lon="-3.31211">
        <ele>3451.8</ele>
        <time>2021-08-06 11:39:34</time>
      </trkpt>
      <trkpt lat="37.05268" lon="-3.3121">
        <ele>3452</ele>
        <time>2021-08-06 11:39:35</time>
      </trkpt>
      <trkpt lat="37.05268" lon="-3.3121">
        <ele>3452.2</ele>
        <time>2021-08-06 11:39:36</time>
      </trkpt>
      <trkpt lat="37.05268" lon="-3.31209">
        <ele>3452.4</ele>
        <time>2021-08-06 11:39:37</time>
      </trkpt>
      <trkpt lat="37.05268" lon="-3.31209">
        <ele>3452.4</ele>
        <time>2021-08-06 11:39:38</time>
      </trkpt>
      <trkpt lat="37.05268" lon="-3.31208">
        <ele>3452.6</ele>
        <time>2021-08-06 11:39:39</time>
      </trkpt>
      <trkpt lat="37.05268" lon="-3.31207">
        <ele>3452.8</ele>
        <time>2021-08-06 11:39:40</time>
      </trkpt>
      <trkpt lat="37.05268" lon="-3.31207">
        <ele>3452.8</ele>
        <time>2021-08-06 11:39:41</time>
      </trkpt>
      <trkpt lat="37.05268" lon="-3.31206">
        <ele>3452.8</ele>
        <time>2021-08-06 11:39:42</time>
      </trkpt>
      <trkpt lat="37.05268" lon="-3.31205">
        <ele>3453.2</ele>
        <time>2021-08-06 11:39:43</time>
      </trkpt>
      <trkpt lat="37.05268" lon="-3.31205">
        <ele>3453.6</ele>
        <time>2021-08-06 11:39:44</time>
      </trkpt>
      <trkpt lat="37.05268" lon="-3.31204">
        <ele>3454</ele>
        <time>2021-08-06 11:39:45</time>
      </trkpt>
      <trkpt lat="37.05268" lon="-3.31203">
        <ele>3454</ele>
        <time>2021-08-06 11:39:46</time>
      </trkpt>
      <trkpt lat="37.05269" lon="-3.31202">
        <ele>3454.2</ele>
        <time>2021-08-06 11:39:47</time>
      </trkpt>
      <trkpt lat="37.05269" lon="-3.31202">
        <ele>3454.2</ele>
        <time>2021-08-06 11:39:48</time>
      </trkpt>
      <trkpt lat="37.05269" lon="-3.31201">
        <ele>3454.4</ele>
        <time>2021-08-06 11:39:49</time>
      </trkpt>
      <trkpt lat="37.0527" lon="-3.312">
        <ele>3454.6</ele>
        <time>2021-08-06 11:39:50</time>
      </trkpt>
      <trkpt lat="37.05271" lon="-3.312">
        <ele>3454.8</ele>
        <time>2021-08-06 11:39:51</time>
      </trkpt>
      <trkpt lat="37.05271" lon="-3.312">
        <ele>3455</ele>
        <time>2021-08-06 11:39:52</time>
      </trkpt>
      <trkpt lat="37.05272" lon="-3.31199">
        <ele>3455</ele>
        <time>2021-08-06 11:39:53</time>
      </trkpt>
      <trkpt lat="37.05272" lon="-3.31199">
        <ele>3455.2</ele>
        <time>2021-08-06 11:39:54</time>
      </trkpt>
      <trkpt lat="37.05273" lon="-3.31198">
        <ele>3455.2</ele>
        <time>2021-08-06 11:39:55</time>
      </trkpt>
      <trkpt lat="37.05273" lon="-3.31198">
        <ele>3455.4</ele>
        <time>2021-08-06 11:39:56</time>
      </trkpt>
      <trkpt lat="37.05273" lon="-3.31197">
        <ele>3455.6</ele>
        <time>2021-08-06 11:39:57</time>
      </trkpt>
      <trkpt lat="37.05273" lon="-3.31197">
        <ele>3455.6</ele>
        <time>2021-08-06 11:39:58</time>
      </trkpt>
      <trkpt lat="37.05273" lon="-3.31196">
        <ele>3455.8</ele>
        <time>2021-08-06 11:39:59</time>
      </trkpt>
      <trkpt lat="37.05273" lon="-3.31196">
        <ele>3455.8</ele>
        <time>2021-08-06 11:40:00</time>
      </trkpt>
      <trkpt lat="37.05273" lon="-3.31195">
        <ele>3455.8</ele>
        <time>2021-08-06 11:40:01</time>
      </trkpt>
      <trkpt lat="37.05274" lon="-3.31195">
        <ele>3455.8</ele>
        <time>2021-08-06 11:40:02</time>
      </trkpt>
      <trkpt lat="37.05274" lon="-3.31195">
        <ele>3456</ele>
        <time>2021-08-06 11:40:03</time>
      </trkpt>
      <trkpt lat="37.05274" lon="-3.31195">
        <ele>3456.4</ele>
        <time>2021-08-06 11:40:04</time>
      </trkpt>
      <trkpt lat="37.05275" lon="-3.31195">
        <ele>3456.6</ele>
        <time>2021-08-06 11:40:05</time>
      </trkpt>
      <trkpt lat="37.05275" lon="-3.31194">
        <ele>3456.8</ele>
        <time>2021-08-06 11:40:06</time>
      </trkpt>
      <trkpt lat="37.05276" lon="-3.31194">
        <ele>3457</ele>
        <time>2021-08-06 11:40:07</time>
      </trkpt>
      <trkpt lat="37.05277" lon="-3.31194">
        <ele>3457</ele>
        <time>2021-08-06 11:40:08</time>
      </trkpt>
      <trkpt lat="37.05277" lon="-3.31193">
        <ele>3457.2</ele>
        <time>2021-08-06 11:40:09</time>
      </trkpt>
      <trkpt lat="37.05278" lon="-3.31192">
        <ele>3457.4</ele>
        <time>2021-08-06 11:40:10</time>
      </trkpt>
      <trkpt lat="37.05278" lon="-3.31192">
        <ele>3457.4</ele>
        <time>2021-08-06 11:40:11</time>
      </trkpt>
      <trkpt lat="37.05278" lon="-3.31191">
        <ele>3457.6</ele>
        <time>2021-08-06 11:40:12</time>
      </trkpt>
      <trkpt lat="37.05279" lon="-3.3119">
        <ele>3457.6</ele>
        <time>2021-08-06 11:40:13</time>
      </trkpt>
      <trkpt lat="37.05279" lon="-3.3119">
        <ele>3457.6</ele>
        <time>2021-08-06 11:40:14</time>
      </trkpt>
      <trkpt lat="37.05279" lon="-3.31189">
        <ele>3457.8</ele>
        <time>2021-08-06 11:40:15</time>
      </trkpt>
      <trkpt lat="37.05279" lon="-3.31188">
        <ele>3457.8</ele>
        <time>2021-08-06 11:40:16</time>
      </trkpt>
      <trkpt lat="37.0528" lon="-3.31188">
        <ele>3458.2</ele>
        <time>2021-08-06 11:40:17</time>
      </trkpt>
      <trkpt lat="37.0528" lon="-3.31187">
        <ele>3458.4</ele>
        <time>2021-08-06 11:40:18</time>
      </trkpt>
      <trkpt lat="37.0528" lon="-3.31186">
        <ele>3458.4</ele>
        <time>2021-08-06 11:40:19</time>
      </trkpt>
      <trkpt lat="37.0528" lon="-3.31186">
        <ele>3458.4</ele>
        <time>2021-08-06 11:40:20</time>
      </trkpt>
      <trkpt lat="37.0528" lon="-3.31185">
        <ele>3458.4</ele>
        <time>2021-08-06 11:40:21</time>
      </trkpt>
      <trkpt lat="37.0528" lon="-3.31184">
        <ele>3458.4</ele>
        <time>2021-08-06 11:40:22</time>
      </trkpt>
      <trkpt lat="37.0528" lon="-3.31183">
        <ele>3458.4</ele>
        <time>2021-08-06 11:40:23</time>
      </trkpt>
      <trkpt lat="37.0528" lon="-3.31182">
        <ele>3458.4</ele>
        <time>2021-08-06 11:40:24</time>
      </trkpt>
      <trkpt lat="37.0528" lon="-3.31181">
        <ele>3458.6</ele>
        <time>2021-08-06 11:40:25</time>
      </trkpt>
      <trkpt lat="37.0528" lon="-3.3118">
        <ele>3458.8</ele>
        <time>2021-08-06 11:40:26</time>
      </trkpt>
      <trkpt lat="37.05281" lon="-3.3118">
        <ele>3459</ele>
        <time>2021-08-06 11:40:27</time>
      </trkpt>
      <trkpt lat="37.05281" lon="-3.31179">
        <ele>3459</ele>
        <time>2021-08-06 11:40:28</time>
      </trkpt>
      <trkpt lat="37.05281" lon="-3.31179">
        <ele>3459</ele>
        <time>2021-08-06 11:40:29</time>
      </trkpt>
      <trkpt lat="37.05282" lon="-3.31178">
        <ele>3459.2</ele>
        <time>2021-08-06 11:40:30</time>
      </trkpt>
      <trkpt lat="37.05282" lon="-3.31177">
        <ele>3459.2</ele>
        <time>2021-08-06 11:40:31</time>
      </trkpt>
      <trkpt lat="37.05283" lon="-3.31177">
        <ele>3459.2</ele>
        <time>2021-08-06 11:40:32</time>
      </trkpt>
      <trkpt lat="37.05283" lon="-3.31176">
        <ele>3459.4</ele>
        <time>2021-08-06 11:40:33</time>
      </trkpt>
      <trkpt lat="37.05284" lon="-3.31176">
        <ele>3459.6</ele>
        <time>2021-08-06 11:40:34</time>
      </trkpt>
      <trkpt lat="37.05285" lon="-3.31175">
        <ele>3459.8</ele>
        <time>2021-08-06 11:40:35</time>
      </trkpt>
      <trkpt lat="37.05285" lon="-3.31175">
        <ele>3460</ele>
        <time>2021-08-06 11:40:36</time>
      </trkpt>
      <trkpt lat="37.05286" lon="-3.31174">
        <ele>3460</ele>
        <time>2021-08-06 11:40:37</time>
      </trkpt>
      <trkpt lat="37.05286" lon="-3.31174">
        <ele>3460.2</ele>
        <time>2021-08-06 11:40:38</time>
      </trkpt>
      <trkpt lat="37.05287" lon="-3.31174">
        <ele>3460.4</ele>
        <time>2021-08-06 11:40:39</time>
      </trkpt>
      <trkpt lat="37.05287" lon="-3.31174">
        <ele>3460.4</ele>
        <time>2021-08-06 11:40:40</time>
      </trkpt>
      <trkpt lat="37.05288" lon="-3.31173">
        <ele>3460.6</ele>
        <time>2021-08-06 11:40:41</time>
      </trkpt>
      <trkpt lat="37.05288" lon="-3.31173">
        <ele>3460.6</ele>
        <time>2021-08-06 11:40:42</time>
      </trkpt>
      <trkpt lat="37.05289" lon="-3.31173">
        <ele>3460.6</ele>
        <time>2021-08-06 11:40:43</time>
      </trkpt>
      <trkpt lat="37.05289" lon="-3.31172">
        <ele>3460.6</ele>
        <time>2021-08-06 11:40:44</time>
      </trkpt>
      <trkpt lat="37.05289" lon="-3.31172">
        <ele>3461</ele>
        <time>2021-08-06 11:40:45</time>
      </trkpt>
      <trkpt lat="37.0529" lon="-3.31172">
        <ele>3461.2</ele>
        <time>2021-08-06 11:40:46</time>
      </trkpt>
      <trkpt lat="37.0529" lon="-3.31172">
        <ele>3461.2</ele>
        <time>2021-08-06 11:40:47</time>
      </trkpt>
      <trkpt lat="37.05291" lon="-3.31171">
        <ele>3461.4</ele>
        <time>2021-08-06 11:40:48</time>
      </trkpt>
      <trkpt lat="37.05292" lon="-3.31171">
        <ele>3461.4</ele>
        <time>2021-08-06 11:40:49</time>
      </trkpt>
      <trkpt lat="37.05292" lon="-3.31171">
        <ele>3461.4</ele>
        <time>2021-08-06 11:40:50</time>
      </trkpt>
      <trkpt lat="37.05293" lon="-3.31171">
        <ele>3461.8</ele>
        <time>2021-08-06 11:40:51</time>
      </trkpt>
      <trkpt lat="37.05294" lon="-3.31171">
        <ele>3462.2</ele>
        <time>2021-08-06 11:40:52</time>
      </trkpt>
      <trkpt lat="37.05294" lon="-3.31171">
        <ele>3462.2</ele>
        <time>2021-08-06 11:40:53</time>
      </trkpt>
      <trkpt lat="37.05295" lon="-3.31171">
        <ele>3462.4</ele>
        <time>2021-08-06 11:40:54</time>
      </trkpt>
      <trkpt lat="37.05296" lon="-3.31171">
        <ele>3462.4</ele>
        <time>2021-08-06 11:40:55</time>
      </trkpt>
      <trkpt lat="37.05296" lon="-3.3117">
        <ele>3462.6</ele>
        <time>2021-08-06 11:40:56</time>
      </trkpt>
      <trkpt lat="37.05297" lon="-3.3117">
        <ele>3462.6</ele>
        <time>2021-08-06 11:40:57</time>
      </trkpt>
      <trkpt lat="37.05297" lon="-3.3117">
        <ele>3462.6</ele>
        <time>2021-08-06 11:40:58</time>
      </trkpt>
      <trkpt lat="37.05297" lon="-3.31169">
        <ele>3462.6</ele>
        <time>2021-08-06 11:40:59</time>
      </trkpt>
      <trkpt lat="37.05298" lon="-3.31169">
        <ele>3462.6</ele>
        <time>2021-08-06 11:41:00</time>
      </trkpt>
      <trkpt lat="37.05298" lon="-3.31168">
        <ele>3462.6</ele>
        <time>2021-08-06 11:41:01</time>
      </trkpt>
      <trkpt lat="37.05298" lon="-3.31168">
        <ele>3462.8</ele>
        <time>2021-08-06 11:41:02</time>
      </trkpt>
      <trkpt lat="37.05299" lon="-3.31167">
        <ele>3462.8</ele>
        <time>2021-08-06 11:41:03</time>
      </trkpt>
      <trkpt lat="37.05299" lon="-3.31167">
        <ele>3462.8</ele>
        <time>2021-08-06 11:41:04</time>
      </trkpt>
      <trkpt lat="37.053" lon="-3.31166">
        <ele>3463</ele>
        <time>2021-08-06 11:41:05</time>
      </trkpt>
      <trkpt lat="37.053" lon="-3.31166">
        <ele>3463.2</ele>
        <time>2021-08-06 11:41:06</time>
      </trkpt>
      <trkpt lat="37.053" lon="-3.31166">
        <ele>3463.4</ele>
        <time>2021-08-06 11:41:07</time>
      </trkpt>
      <trkpt lat="37.05301" lon="-3.31166">
        <ele>3463.8</ele>
        <time>2021-08-06 11:41:08</time>
      </trkpt>
      <trkpt lat="37.05301" lon="-3.31166">
        <ele>3463.8</ele>
        <time>2021-08-06 11:41:09</time>
      </trkpt>
      <trkpt lat="37.05301" lon="-3.31166">
        <ele>3464</ele>
        <time>2021-08-06 11:41:10</time>
      </trkpt>
      <trkpt lat="37.05302" lon="-3.31166">
        <ele>3464</ele>
        <time>2021-08-06 11:41:11</time>
      </trkpt>
      <trkpt lat="37.05302" lon="-3.31166">
        <ele>3463.8</ele>
        <time>2021-08-06 11:41:12</time>
      </trkpt>
      <trkpt lat="37.05303" lon="-3.31166">
        <ele>3464</ele>
        <time>2021-08-06 11:41:13</time>
      </trkpt>
      <trkpt lat="37.05304" lon="-3.31167">
        <ele>3463.8</ele>
        <time>2021-08-06 11:41:14</time>
      </trkpt>
      <trkpt lat="37.05304" lon="-3.31167">
        <ele>3463.8</ele>
        <time>2021-08-06 11:41:15</time>
      </trkpt>
      <trkpt lat="37.05305" lon="-3.31167">
        <ele>3463.8</ele>
        <time>2021-08-06 11:41:16</time>
      </trkpt>
      <trkpt lat="37.05305" lon="-3.31166">
        <ele>3464.2</ele>
        <time>2021-08-06 11:41:17</time>
      </trkpt>
      <trkpt lat="37.05306" lon="-3.31166">
        <ele>3464.8</ele>
        <time>2021-08-06 11:41:18</time>
      </trkpt>
      <trkpt lat="37.05306" lon="-3.31165">
        <ele>3465</ele>
        <time>2021-08-06 11:41:19</time>
      </trkpt>
      <trkpt lat="37.05307" lon="-3.31165">
        <ele>3465.2</ele>
        <time>2021-08-06 11:41:20</time>
      </trkpt>
      <trkpt lat="37.05308" lon="-3.31164">
        <ele>3465.4</ele>
        <time>2021-08-06 11:41:21</time>
      </trkpt>
      <trkpt lat="37.05308" lon="-3.31164">
        <ele>3465.4</ele>
        <time>2021-08-06 11:41:22</time>
      </trkpt>
      <trkpt lat="37.05309" lon="-3.31163">
        <ele>3465.6</ele>
        <time>2021-08-06 11:41:23</time>
      </trkpt>
      <trkpt lat="37.0531" lon="-3.31163">
        <ele>3465.8</ele>
        <time>2021-08-06 11:41:24</time>
      </trkpt>
      <trkpt lat="37.05311" lon="-3.31163">
        <ele>3465.8</ele>
        <time>2021-08-06 11:41:25</time>
      </trkpt>
      <trkpt lat="37.05311" lon="-3.31163">
        <ele>3466</ele>
        <time>2021-08-06 11:41:26</time>
      </trkpt>
      <trkpt lat="37.05312" lon="-3.31163">
        <ele>3466</ele>
        <time>2021-08-06 11:41:27</time>
      </trkpt>
      <trkpt lat="37.05312" lon="-3.31163">
        <ele>3466</ele>
        <time>2021-08-06 11:41:28</time>
      </trkpt>
      <trkpt lat="37.05313" lon="-3.31162">
        <ele>3466</ele>
        <time>2021-08-06 11:41:29</time>
      </trkpt>
      <trkpt lat="37.05313" lon="-3.31162">
        <ele>3466</ele>
        <time>2021-08-06 11:41:30</time>
      </trkpt>
      <trkpt lat="37.05314" lon="-3.31162">
        <ele>3466</ele>
        <time>2021-08-06 11:41:31</time>
      </trkpt>
      <trkpt lat="37.05314" lon="-3.31162">
        <ele>3466.2</ele>
        <time>2021-08-06 11:41:32</time>
      </trkpt>
      <trkpt lat="37.05315" lon="-3.31162">
        <ele>3466.4</ele>
        <time>2021-08-06 11:41:33</time>
      </trkpt>
      <trkpt lat="37.05315" lon="-3.31162">
        <ele>3466.6</ele>
        <time>2021-08-06 11:41:34</time>
      </trkpt>
      <trkpt lat="37.05315" lon="-3.31162">
        <ele>3466.8</ele>
        <time>2021-08-06 11:41:35</time>
      </trkpt>
      <trkpt lat="37.05315" lon="-3.31162">
        <ele>3467</ele>
        <time>2021-08-06 11:41:36</time>
      </trkpt>
      <trkpt lat="37.05316" lon="-3.31161">
        <ele>3467</ele>
        <time>2021-08-06 11:41:37</time>
      </trkpt>
      <trkpt lat="37.05316" lon="-3.31161">
        <ele>3467.2</ele>
        <time>2021-08-06 11:41:38</time>
      </trkpt>
      <trkpt lat="37.05317" lon="-3.31161">
        <ele>3467.2</ele>
        <time>2021-08-06 11:41:39</time>
      </trkpt>
      <trkpt lat="37.05318" lon="-3.31161">
        <ele>3467.6</ele>
        <time>2021-08-06 11:41:40</time>
      </trkpt>
      <trkpt lat="37.05318" lon="-3.31161">
        <ele>3467.8</ele>
        <time>2021-08-06 11:41:41</time>
      </trkpt>
      <trkpt lat="37.05319" lon="-3.31161">
        <ele>3468</ele>
        <time>2021-08-06 11:41:42</time>
      </trkpt>
      <trkpt lat="37.05319" lon="-3.31162">
        <ele>3468</ele>
        <time>2021-08-06 11:41:43</time>
      </trkpt>
      <trkpt lat="37.0532" lon="-3.31162">
        <ele>3468</ele>
        <time>2021-08-06 11:41:44</time>
      </trkpt>
      <trkpt lat="37.0532" lon="-3.31162">
        <ele>3468.2</ele>
        <time>2021-08-06 11:41:45</time>
      </trkpt>
      <trkpt lat="37.0532" lon="-3.31163">
        <ele>3468.2</ele>
        <time>2021-08-06 11:41:46</time>
      </trkpt>
      <trkpt lat="37.0532" lon="-3.31163">
        <ele>3468.4</ele>
        <time>2021-08-06 11:41:47</time>
      </trkpt>
      <trkpt lat="37.05321" lon="-3.31162">
        <ele>3468.6</ele>
        <time>2021-08-06 11:41:48</time>
      </trkpt>
      <trkpt lat="37.05321" lon="-3.31161">
        <ele>3469</ele>
        <time>2021-08-06 11:41:49</time>
      </trkpt>
      <trkpt lat="37.05321" lon="-3.31161">
        <ele>3469.4</ele>
        <time>2021-08-06 11:41:50</time>
      </trkpt>
      <trkpt lat="37.05321" lon="-3.3116">
        <ele>3469.4</ele>
        <time>2021-08-06 11:41:51</time>
      </trkpt>
      <trkpt lat="37.05321" lon="-3.31159">
        <ele>3469.6</ele>
        <time>2021-08-06 11:41:52</time>
      </trkpt>
      <trkpt lat="37.05322" lon="-3.31159">
        <ele>3469.6</ele>
        <time>2021-08-06 11:41:53</time>
      </trkpt>
      <trkpt lat="37.05322" lon="-3.31159">
        <ele>3469.8</ele>
        <time>2021-08-06 11:41:54</time>
      </trkpt>
      <trkpt lat="37.05322" lon="-3.31159">
        <ele>3469.8</ele>
        <time>2021-08-06 11:41:55</time>
      </trkpt>
      <trkpt lat="37.05323" lon="-3.31159">
        <ele>3470</ele>
        <time>2021-08-06 11:41:56</time>
      </trkpt>
      <trkpt lat="37.05323" lon="-3.31159">
        <ele>3470.2</ele>
        <time>2021-08-06 11:41:57</time>
      </trkpt>
      <trkpt lat="37.05324" lon="-3.31159">
        <ele>3470.4</ele>
        <time>2021-08-06 11:41:58</time>
      </trkpt>
      <trkpt lat="37.05325" lon="-3.31159">
        <ele>3470.2</ele>
        <time>2021-08-06 11:41:59</time>
      </trkpt>
      <trkpt lat="37.05325" lon="-3.31159">
        <ele>3470.4</ele>
        <time>2021-08-06 11:42:00</time>
      </trkpt>
      <trkpt lat="37.05326" lon="-3.31159">
        <ele>3470.6</ele>
        <time>2021-08-06 11:42:01</time>
      </trkpt>
      <trkpt lat="37.05326" lon="-3.31158">
        <ele>3470.6</ele>
        <time>2021-08-06 11:42:02</time>
      </trkpt>
      <trkpt lat="37.05327" lon="-3.31158">
        <ele>3470.8</ele>
        <time>2021-08-06 11:42:03</time>
      </trkpt>
      <trkpt lat="37.05328" lon="-3.31158">
        <ele>3470.8</ele>
        <time>2021-08-06 11:42:04</time>
      </trkpt>
      <trkpt lat="37.05328" lon="-3.31158">
        <ele>3471</ele>
        <time>2021-08-06 11:42:05</time>
      </trkpt>
      <trkpt lat="37.05328" lon="-3.31158">
        <ele>3471</ele>
        <time>2021-08-06 11:42:06</time>
      </trkpt>
      <trkpt lat="37.05329" lon="-3.31159">
        <ele>3471.2</ele>
        <time>2021-08-06 11:42:07</time>
      </trkpt>
      <trkpt lat="37.05329" lon="-3.31159">
        <ele>3471.8</ele>
        <time>2021-08-06 11:42:08</time>
      </trkpt>
      <trkpt lat="37.0533" lon="-3.31159">
        <ele>3472</ele>
        <time>2021-08-06 11:42:09</time>
      </trkpt>
      <trkpt lat="37.0533" lon="-3.31159">
        <ele>3472.2</ele>
        <time>2021-08-06 11:42:10</time>
      </trkpt>
      <trkpt lat="37.0533" lon="-3.31158">
        <ele>3472.2</ele>
        <time>2021-08-06 11:42:11</time>
      </trkpt>
      <trkpt lat="37.0533" lon="-3.31158">
        <ele>3472.2</ele>
        <time>2021-08-06 11:42:12</time>
      </trkpt>
      <trkpt lat="37.0533" lon="-3.31159">
        <ele>3472.4</ele>
        <time>2021-08-06 11:42:13</time>
      </trkpt>
      <trkpt lat="37.0533" lon="-3.31159">
        <ele>3472.4</ele>
        <time>2021-08-06 11:42:14</time>
      </trkpt>
      <trkpt lat="37.0533" lon="-3.3116">
        <ele>3472.2</ele>
        <time>2021-08-06 11:42:15</time>
      </trkpt>
      <trkpt lat="37.0533" lon="-3.3116">
        <ele>3472.2</ele>
        <time>2021-08-06 11:42:16</time>
      </trkpt>
      <trkpt lat="37.0533" lon="-3.3116">
        <ele>3472.2</ele>
        <time>2021-08-06 11:42:17</time>
      </trkpt>
      <trkpt lat="37.0533" lon="-3.31161">
        <ele>3472</ele>
        <time>2021-08-06 11:42:18</time>
      </trkpt>
      <trkpt lat="37.0533" lon="-3.31161">
        <ele>3472</ele>
        <time>2021-08-06 11:42:19</time>
      </trkpt>
      <trkpt lat="37.05331" lon="-3.31161">
        <ele>3472</ele>
        <time>2021-08-06 11:42:20</time>
      </trkpt>
      <trkpt lat="37.05331" lon="-3.31161">
        <ele>3472.2</ele>
        <time>2021-08-06 11:42:21</time>
      </trkpt>
      <trkpt lat="37.05331" lon="-3.3116">
        <ele>3472.4</ele>
        <time>2021-08-06 11:42:22</time>
      </trkpt>
      <trkpt lat="37.0533" lon="-3.3116">
        <ele>3472.6</ele>
        <time>2021-08-06 11:42:23</time>
      </trkpt>
      <trkpt lat="37.0533" lon="-3.31161">
        <ele>3472.6</ele>
        <time>2021-08-06 11:42:24</time>
      </trkpt>
      <trkpt lat="37.0533" lon="-3.31161">
        <ele>3472.8</ele>
        <time>2021-08-06 11:42:25</time>
      </trkpt>
      <trkpt lat="37.05331" lon="-3.31161">
        <ele>3472.8</ele>
        <time>2021-08-06 11:42:26</time>
      </trkpt>
      <trkpt lat="37.05331" lon="-3.31161">
        <ele>3472.8</ele>
        <time>2021-08-06 11:42:27</time>
      </trkpt>
      <trkpt lat="37.05331" lon="-3.3116">
        <ele>3473</ele>
        <time>2021-08-06 11:42:28</time>
      </trkpt>
      <trkpt lat="37.05331" lon="-3.3116">
        <ele>3473</ele>
        <time>2021-08-06 11:42:29</time>
      </trkpt>
      <trkpt lat="37.05332" lon="-3.3116">
        <ele>3473</ele>
        <time>2021-08-06 11:42:30</time>
      </trkpt>
      <trkpt lat="37.05332" lon="-3.31161">
        <ele>3473</ele>
        <time>2021-08-06 11:42:31</time>
      </trkpt>
      <trkpt lat="37.05331" lon="-3.3116">
        <ele>3472.8</ele>
        <time>2021-08-06 11:42:32</time>
      </trkpt>
      <trkpt lat="37.05331" lon="-3.3116">
        <ele>3472.8</ele>
        <time>2021-08-06 11:42:33</time>
      </trkpt>
      <trkpt lat="37.05331" lon="-3.3116">
        <ele>3472.8</ele>
        <time>2021-08-06 11:42:34</time>
      </trkpt>
      <trkpt lat="37.05331" lon="-3.3116">
        <ele>3472.8</ele>
        <time>2021-08-06 11:42:35</time>
      </trkpt>
      <trkpt lat="37.05331" lon="-3.3116">
        <ele>3472.8</ele>
        <time>2021-08-06 11:42:36</time>
      </trkpt>
      <trkpt lat="37.05331" lon="-3.3116">
        <ele>3472.8</ele>
        <time>2021-08-06 11:42:37</time>
      </trkpt>
      <trkpt lat="37.05331" lon="-3.31161">
        <ele>3472.8</ele>
        <time>2021-08-06 11:42:38</time>
      </trkpt>
      <trkpt lat="37.05331" lon="-3.31161">
        <ele>3472.6</ele>
        <time>2021-08-06 11:42:39</time>
      </trkpt>
      <trkpt lat="37.05324" lon="-3.31161">
        <ele>3472.2</ele>
        <time>2021-08-06 11:42:40</time>
      </trkpt>
      <trkpt lat="37.05323" lon="-3.31161">
        <ele>3472.2</ele>
        <time>2021-08-06 11:42:41</time>
      </trkpt>
      <trkpt lat="37.05323" lon="-3.3116">
        <ele>3472.2</ele>
        <time>2021-08-06 11:42:42</time>
      </trkpt>
      <trkpt lat="37.05323" lon="-3.3116">
        <ele>3472.4</ele>
        <time>2021-08-06 11:42:43</time>
      </trkpt>
      <trkpt lat="37.05322" lon="-3.3116">
        <ele>3472.2</ele>
        <time>2021-08-06 11:42:44</time>
      </trkpt>
      <trkpt lat="37.05321" lon="-3.31159">
        <ele>3472</ele>
        <time>2021-08-06 11:42:45</time>
      </trkpt>
      <trkpt lat="37.0532" lon="-3.31159">
        <ele>3471.8</ele>
        <time>2021-08-06 11:42:46</time>
      </trkpt>
      <trkpt lat="37.0532" lon="-3.31159">
        <ele>3471.8</ele>
        <time>2021-08-06 11:42:47</time>
      </trkpt>
      <trkpt lat="37.05319" lon="-3.3116">
        <ele>3471.8</ele>
        <time>2021-08-06 11:42:48</time>
      </trkpt>
      <trkpt lat="37.05319" lon="-3.3116">
        <ele>3471.6</ele>
        <time>2021-08-06 11:42:49</time>
      </trkpt>
      <trkpt lat="37.05319" lon="-3.31161">
        <ele>3471.6</ele>
        <time>2021-08-06 11:42:50</time>
      </trkpt>
      <trkpt lat="37.05318" lon="-3.31161">
        <ele>3471.6</ele>
        <time>2021-08-06 11:42:51</time>
      </trkpt>
      <trkpt lat="37.05318" lon="-3.31161">
        <ele>3471.6</ele>
        <time>2021-08-06 11:42:52</time>
      </trkpt>
      <trkpt lat="37.05318" lon="-3.31161">
        <ele>3471.6</ele>
        <time>2021-08-06 11:42:53</time>
      </trkpt>
      <trkpt lat="37.05318" lon="-3.31162">
        <ele>3471.4</ele>
        <time>2021-08-06 11:42:54</time>
      </trkpt>
      <trkpt lat="37.05318" lon="-3.31162">
        <ele>3471.4</ele>
        <time>2021-08-06 11:42:55</time>
      </trkpt>
      <trkpt lat="37.05318" lon="-3.31162">
        <ele>3471</ele>
        <time>2021-08-06 11:42:56</time>
      </trkpt>
      <trkpt lat="37.05317" lon="-3.31162">
        <ele>3470.8</ele>
        <time>2021-08-06 11:42:57</time>
      </trkpt>
      <trkpt lat="37.05317" lon="-3.31163">
        <ele>3470.6</ele>
        <time>2021-08-06 11:42:58</time>
      </trkpt>
      <trkpt lat="37.05317" lon="-3.31163">
        <ele>3470.4</ele>
        <time>2021-08-06 11:42:59</time>
      </trkpt>
      <trkpt lat="37.05316" lon="-3.31163">
        <ele>3470.4</ele>
        <time>2021-08-06 11:43:00</time>
      </trkpt>
      <trkpt lat="37.05316" lon="-3.31162">
        <ele>3470.4</ele>
        <time>2021-08-06 11:43:01</time>
      </trkpt>
      <trkpt lat="37.05314" lon="-3.31162">
        <ele>3470.2</ele>
        <time>2021-08-06 11:43:02</time>
      </trkpt>
      <trkpt lat="37.05314" lon="-3.31162">
        <ele>3470</ele>
        <time>2021-08-06 11:43:03</time>
      </trkpt>
      <trkpt lat="37.05313" lon="-3.31162">
        <ele>3470</ele>
        <time>2021-08-06 11:43:04</time>
      </trkpt>
      <trkpt lat="37.05313" lon="-3.31162">
        <ele>3469.8</ele>
        <time>2021-08-06 11:43:05</time>
      </trkpt>
      <trkpt lat="37.05313" lon="-3.31162">
        <ele>3469.4</ele>
        <time>2021-08-06 11:43:06</time>
      </trkpt>
      <trkpt lat="37.05312" lon="-3.31163">
        <ele>3469</ele>
        <time>2021-08-06 11:43:07</time>
      </trkpt>
      <trkpt lat="37.05312" lon="-3.31163">
        <ele>3468.8</ele>
        <time>2021-08-06 11:43:08</time>
      </trkpt>
      <trkpt lat="37.05312" lon="-3.31164">
        <ele>3468.8</ele>
        <time>2021-08-06 11:43:09</time>
      </trkpt>
      <trkpt lat="37.05311" lon="-3.31165">
        <ele>3468.4</ele>
        <time>2021-08-06 11:43:10</time>
      </trkpt>
      <trkpt lat="37.05311" lon="-3.31165">
        <ele>3468.2</ele>
        <time>2021-08-06 11:43:11</time>
      </trkpt>
      <trkpt lat="37.0531" lon="-3.31166">
        <ele>3468.2</ele>
        <time>2021-08-06 11:43:12</time>
      </trkpt>
      <trkpt lat="37.0531" lon="-3.31166">
        <ele>3468</ele>
        <time>2021-08-06 11:43:13</time>
      </trkpt>
      <trkpt lat="37.0531" lon="-3.31165">
        <ele>3468</ele>
        <time>2021-08-06 11:43:14</time>
      </trkpt>
      <trkpt lat="37.05309" lon="-3.31165">
        <ele>3468</ele>
        <time>2021-08-06 11:43:15</time>
      </trkpt>
      <trkpt lat="37.05308" lon="-3.31164">
        <ele>3468</ele>
        <time>2021-08-06 11:43:16</time>
      </trkpt>
      <trkpt lat="37.05308" lon="-3.31164">
        <ele>3467.8</ele>
        <time>2021-08-06 11:43:17</time>
      </trkpt>
      <trkpt lat="37.05308" lon="-3.31165">
        <ele>3467.6</ele>
        <time>2021-08-06 11:43:18</time>
      </trkpt>
      <trkpt lat="37.05307" lon="-3.31165">
        <ele>3467.8</ele>
        <time>2021-08-06 11:43:19</time>
      </trkpt>
      <trkpt lat="37.05306" lon="-3.31166">
        <ele>3467.6</ele>
        <time>2021-08-06 11:43:20</time>
      </trkpt>
      <trkpt lat="37.05306" lon="-3.31166">
        <ele>3467.6</ele>
        <time>2021-08-06 11:43:21</time>
      </trkpt>
      <trkpt lat="37.05305" lon="-3.31167">
        <ele>3467.6</ele>
        <time>2021-08-06 11:43:22</time>
      </trkpt>
      <trkpt lat="37.05304" lon="-3.31167">
        <ele>3467.6</ele>
        <time>2021-08-06 11:43:23</time>
      </trkpt>
      <trkpt lat="37.05304" lon="-3.31168">
        <ele>3467.4</ele>
        <time>2021-08-06 11:43:24</time>
      </trkpt>
      <trkpt lat="37.05303" lon="-3.31169">
        <ele>3467.4</ele>
        <time>2021-08-06 11:43:25</time>
      </trkpt>
      <trkpt lat="37.05303" lon="-3.31169">
        <ele>3467.4</ele>
        <time>2021-08-06 11:43:26</time>
      </trkpt>
      <trkpt lat="37.05302" lon="-3.31169">
        <ele>3466.8</ele>
        <time>2021-08-06 11:43:27</time>
      </trkpt>
      <trkpt lat="37.05302" lon="-3.31169">
        <ele>3466.6</ele>
        <time>2021-08-06 11:43:28</time>
      </trkpt>
      <trkpt lat="37.05301" lon="-3.31169">
        <ele>3466.4</ele>
        <time>2021-08-06 11:43:29</time>
      </trkpt>
      <trkpt lat="37.05301" lon="-3.3117">
        <ele>3466.2</ele>
        <time>2021-08-06 11:43:30</time>
      </trkpt>
      <trkpt lat="37.05301" lon="-3.3117">
        <ele>3466.2</ele>
        <time>2021-08-06 11:43:31</time>
      </trkpt>
      <trkpt lat="37.053" lon="-3.3117">
        <ele>3466.2</ele>
        <time>2021-08-06 11:43:32</time>
      </trkpt>
      <trkpt lat="37.05299" lon="-3.3117">
        <ele>3466</ele>
        <time>2021-08-06 11:43:33</time>
      </trkpt>
      <trkpt lat="37.05298" lon="-3.31171">
        <ele>3466</ele>
        <time>2021-08-06 11:43:34</time>
      </trkpt>
      <trkpt lat="37.05298" lon="-3.31171">
        <ele>3466</ele>
        <time>2021-08-06 11:43:35</time>
      </trkpt>
      <trkpt lat="37.05297" lon="-3.31172">
        <ele>3465.8</ele>
        <time>2021-08-06 11:43:36</time>
      </trkpt>
      <trkpt lat="37.05296" lon="-3.31173">
        <ele>3465.8</ele>
        <time>2021-08-06 11:43:37</time>
      </trkpt>
      <trkpt lat="37.05295" lon="-3.31172">
        <ele>3465.4</ele>
        <time>2021-08-06 11:43:38</time>
      </trkpt>
      <trkpt lat="37.05293" lon="-3.31173">
        <ele>3465</ele>
        <time>2021-08-06 11:43:39</time>
      </trkpt>
      <trkpt lat="37.05292" lon="-3.31173">
        <ele>3464.8</ele>
        <time>2021-08-06 11:43:40</time>
      </trkpt>
      <trkpt lat="37.05291" lon="-3.31174">
        <ele>3464.8</ele>
        <time>2021-08-06 11:43:41</time>
      </trkpt>
      <trkpt lat="37.05291" lon="-3.31174">
        <ele>3464.6</ele>
        <time>2021-08-06 11:43:42</time>
      </trkpt>
      <trkpt lat="37.0529" lon="-3.31174">
        <ele>3464.6</ele>
        <time>2021-08-06 11:43:43</time>
      </trkpt>
      <trkpt lat="37.05289" lon="-3.31175">
        <ele>3464.2</ele>
        <time>2021-08-06 11:43:44</time>
      </trkpt>
      <trkpt lat="37.05289" lon="-3.31176">
        <ele>3464</ele>
        <time>2021-08-06 11:43:45</time>
      </trkpt>
      <trkpt lat="37.05287" lon="-3.31175">
        <ele>3463.8</ele>
        <time>2021-08-06 11:43:46</time>
      </trkpt>
      <trkpt lat="37.05287" lon="-3.31176">
        <ele>3463.8</ele>
        <time>2021-08-06 11:43:47</time>
      </trkpt>
      <trkpt lat="37.05287" lon="-3.31176">
        <ele>3463.6</ele>
        <time>2021-08-06 11:43:48</time>
      </trkpt>
      <trkpt lat="37.05286" lon="-3.31177">
        <ele>3463.4</ele>
        <time>2021-08-06 11:43:49</time>
      </trkpt>
      <trkpt lat="37.05285" lon="-3.31177">
        <ele>3463.2</ele>
        <time>2021-08-06 11:43:50</time>
      </trkpt>
      <trkpt lat="37.05284" lon="-3.31177">
        <ele>3463</ele>
        <time>2021-08-06 11:43:51</time>
      </trkpt>
      <trkpt lat="37.05283" lon="-3.31178">
        <ele>3463</ele>
        <time>2021-08-06 11:43:52</time>
      </trkpt>
      <trkpt lat="37.05282" lon="-3.31177">
        <ele>3462.8</ele>
        <time>2021-08-06 11:43:53</time>
      </trkpt>
      <trkpt lat="37.05281" lon="-3.31177">
        <ele>3462.6</ele>
        <time>2021-08-06 11:43:54</time>
      </trkpt>
      <trkpt lat="37.05281" lon="-3.31177">
        <ele>3462.4</ele>
        <time>2021-08-06 11:43:55</time>
      </trkpt>
      <trkpt lat="37.0528" lon="-3.31177">
        <ele>3462.2</ele>
        <time>2021-08-06 11:43:56</time>
      </trkpt>
      <trkpt lat="37.0528" lon="-3.31177">
        <ele>3462.2</ele>
        <time>2021-08-06 11:43:57</time>
      </trkpt>
      <trkpt lat="37.0528" lon="-3.31177">
        <ele>3462.2</ele>
        <time>2021-08-06 11:43:58</time>
      </trkpt>
      <trkpt lat="37.05279" lon="-3.31178">
        <ele>3462</ele>
        <time>2021-08-06 11:43:59</time>
      </trkpt>
      <trkpt lat="37.05278" lon="-3.31178">
        <ele>3462</ele>
        <time>2021-08-06 11:44:00</time>
      </trkpt>
      <trkpt lat="37.05278" lon="-3.31179">
        <ele>3461.8</ele>
        <time>2021-08-06 11:44:01</time>
      </trkpt>
      <trkpt lat="37.05278" lon="-3.3118">
        <ele>3461.6</ele>
        <time>2021-08-06 11:44:02</time>
      </trkpt>
      <trkpt lat="37.05277" lon="-3.3118">
        <ele>3461.6</ele>
        <time>2021-08-06 11:44:03</time>
      </trkpt>
      <trkpt lat="37.05276" lon="-3.31181">
        <ele>3461.4</ele>
        <time>2021-08-06 11:44:04</time>
      </trkpt>
      <trkpt lat="37.05276" lon="-3.31182">
        <ele>3461</ele>
        <time>2021-08-06 11:44:05</time>
      </trkpt>
      <trkpt lat="37.05276" lon="-3.31183">
        <ele>3460.8</ele>
        <time>2021-08-06 11:44:06</time>
      </trkpt>
      <trkpt lat="37.05276" lon="-3.31184">
        <ele>3460.8</ele>
        <time>2021-08-06 11:44:07</time>
      </trkpt>
      <trkpt lat="37.05275" lon="-3.31185">
        <ele>3460.4</ele>
        <time>2021-08-06 11:44:08</time>
      </trkpt>
      <trkpt lat="37.05275" lon="-3.31186">
        <ele>3460</ele>
        <time>2021-08-06 11:44:09</time>
      </trkpt>
      <trkpt lat="37.05275" lon="-3.31187">
        <ele>3459.8</ele>
        <time>2021-08-06 11:44:10</time>
      </trkpt>
      <trkpt lat="37.05275" lon="-3.31188">
        <ele>3459.6</ele>
        <time>2021-08-06 11:44:11</time>
      </trkpt>
      <trkpt lat="37.05275" lon="-3.31189">
        <ele>3459.4</ele>
        <time>2021-08-06 11:44:12</time>
      </trkpt>
      <trkpt lat="37.05275" lon="-3.3119">
        <ele>3459.4</ele>
        <time>2021-08-06 11:44:13</time>
      </trkpt>
      <trkpt lat="37.05275" lon="-3.31191">
        <ele>3459.2</ele>
        <time>2021-08-06 11:44:14</time>
      </trkpt>
      <trkpt lat="37.05275" lon="-3.31191">
        <ele>3459.2</ele>
        <time>2021-08-06 11:44:15</time>
      </trkpt>
      <trkpt lat="37.05275" lon="-3.31191">
        <ele>3459.2</ele>
        <time>2021-08-06 11:44:16</time>
      </trkpt>
      <trkpt lat="37.05275" lon="-3.31191">
        <ele>3459.2</ele>
        <time>2021-08-06 11:44:17</time>
      </trkpt>
      <trkpt lat="37.05275" lon="-3.31191">
        <ele>3459</ele>
        <time>2021-08-06 11:44:18</time>
      </trkpt>
      <trkpt lat="37.05275" lon="-3.31192">
        <ele>3459</ele>
        <time>2021-08-06 11:44:19</time>
      </trkpt>
      <trkpt lat="37.05276" lon="-3.31192">
        <ele>3459</ele>
        <time>2021-08-06 11:44:20</time>
      </trkpt>
      <trkpt lat="37.05276" lon="-3.31192">
        <ele>3459</ele>
        <time>2021-08-06 11:44:21</time>
      </trkpt>
      <trkpt lat="37.05276" lon="-3.31192">
        <ele>3459</ele>
        <time>2021-08-06 11:44:22</time>
      </trkpt>
      <trkpt lat="37.05276" lon="-3.31192">
        <ele>3459</ele>
        <time>2021-08-06 11:44:23</time>
      </trkpt>
      <trkpt lat="37.05276" lon="-3.31192">
        <ele>3459</ele>
        <time>2021-08-06 11:44:24</time>
      </trkpt>
      <trkpt lat="37.05276" lon="-3.31192">
        <ele>3459</ele>
        <time>2021-08-06 11:44:25</time>
      </trkpt>
      <trkpt lat="37.05276" lon="-3.31192">
        <ele>3459</ele>
        <time>2021-08-06 11:44:26</time>
      </trkpt>
      <trkpt lat="37.05276" lon="-3.31192">
        <ele>3459</ele>
        <time>2021-08-06 11:44:27</time>
      </trkpt>
      <trkpt lat="37.05276" lon="-3.31192">
        <ele>3458.8</ele>
        <time>2021-08-06 11:44:28</time>
      </trkpt>
      <trkpt lat="37.05276" lon="-3.31192">
        <ele>3458.8</ele>
        <time>2021-08-06 11:44:29</time>
      </trkpt>
      <trkpt lat="37.05276" lon="-3.31192">
        <ele>3458.8</ele>
        <time>2021-08-06 11:44:30</time>
      </trkpt>
      <trkpt lat="37.05276" lon="-3.31192">
        <ele>3458.8</ele>
        <time>2021-08-06 11:44:31</time>
      </trkpt>
      <trkpt lat="37.05276" lon="-3.31192">
        <ele>3458.8</ele>
        <time>2021-08-06 11:44:32</time>
      </trkpt>
      <trkpt lat="37.05277" lon="-3.31193">
        <ele>3459</ele>
        <time>2021-08-06 11:44:33</time>
      </trkpt>
      <trkpt lat="37.05277" lon="-3.31193">
        <ele>3459.2</ele>
        <time>2021-08-06 11:44:34</time>
      </trkpt>
      <trkpt lat="37.05277" lon="-3.31193">
        <ele>3459.2</ele>
        <time>2021-08-06 11:44:35</time>
      </trkpt>
      <trkpt lat="37.05277" lon="-3.31194">
        <ele>3459.4</ele>
        <time>2021-08-06 11:44:36</time>
      </trkpt>
      <trkpt lat="37.05276" lon="-3.31195">
        <ele>3459.4</ele>
        <time>2021-08-06 11:44:37</time>
      </trkpt>
      <trkpt lat="37.05276" lon="-3.31195">
        <ele>3459.4</ele>
        <time>2021-08-06 11:44:38</time>
      </trkpt>
      <trkpt lat="37.05275" lon="-3.31196">
        <ele>3459.4</ele>
        <time>2021-08-06 11:44:39</time>
      </trkpt>
      <trkpt lat="37.05275" lon="-3.31197">
        <ele>3459.2</ele>
        <time>2021-08-06 11:44:40</time>
      </trkpt>
      <trkpt lat="37.05274" lon="-3.31197">
        <ele>3459.2</ele>
        <time>2021-08-06 11:44:41</time>
      </trkpt>
      <trkpt lat="37.05274" lon="-3.31197">
        <ele>3459.2</ele>
        <time>2021-08-06 11:44:42</time>
      </trkpt>
      <trkpt lat="37.05274" lon="-3.31197">
        <ele>3459</ele>
        <time>2021-08-06 11:44:43</time>
      </trkpt>
      <trkpt lat="37.05274" lon="-3.31196">
        <ele>3458.8</ele>
        <time>2021-08-06 11:44:44</time>
      </trkpt>
      <trkpt lat="37.05273" lon="-3.31196">
        <ele>3458.8</ele>
        <time>2021-08-06 11:44:45</time>
      </trkpt>
      <trkpt lat="37.05272" lon="-3.31196">
        <ele>3458.6</ele>
        <time>2021-08-06 11:44:46</time>
      </trkpt>
      <trkpt lat="37.05271" lon="-3.31197">
        <ele>3458.6</ele>
        <time>2021-08-06 11:44:47</time>
      </trkpt>
      <trkpt lat="37.05271" lon="-3.31197">
        <ele>3458.2</ele>
        <time>2021-08-06 11:44:48</time>
      </trkpt>
      <trkpt lat="37.05271" lon="-3.31198">
        <ele>3458.2</ele>
        <time>2021-08-06 11:44:49</time>
      </trkpt>
      <trkpt lat="37.0527" lon="-3.31199">
        <ele>3458.2</ele>
        <time>2021-08-06 11:44:50</time>
      </trkpt>
      <trkpt lat="37.0527" lon="-3.31199">
        <ele>3458</ele>
        <time>2021-08-06 11:44:51</time>
      </trkpt>
      <trkpt lat="37.05269" lon="-3.312">
        <ele>3457.8</ele>
        <time>2021-08-06 11:44:52</time>
      </trkpt>
      <trkpt lat="37.05269" lon="-3.31201">
        <ele>3457.8</ele>
        <time>2021-08-06 11:44:53</time>
      </trkpt>
      <trkpt lat="37.05268" lon="-3.31202">
        <ele>3457.6</ele>
        <time>2021-08-06 11:44:54</time>
      </trkpt>
      <trkpt lat="37.05268" lon="-3.31203">
        <ele>3457.4</ele>
        <time>2021-08-06 11:44:55</time>
      </trkpt>
      <trkpt lat="37.05267" lon="-3.31204">
        <ele>3457</ele>
        <time>2021-08-06 12:38:03</time>
      </trkpt>
      <trkpt lat="37.05266" lon="-3.31205">
        <ele>3456.6</ele>
        <time>2021-08-06 12:38:04</time>
      </trkpt>
      <trkpt lat="37.05266" lon="-3.31206">
        <ele>3456.2</ele>
        <time>2021-08-06 12:38:05</time>
      </trkpt>
      <trkpt lat="37.05265" lon="-3.31206">
        <ele>3456</ele>
        <time>2021-08-06 12:38:06</time>
      </trkpt>
      <trkpt lat="37.05265" lon="-3.31207">
        <ele>3455.8</ele>
        <time>2021-08-06 12:38:07</time>
      </trkpt>
      <trkpt lat="37.05265" lon="-3.31207">
        <ele>3455.6</ele>
        <time>2021-08-06 12:38:08</time>
      </trkpt>
      <trkpt lat="37.05265" lon="-3.31208">
        <ele>3455.4</ele>
        <time>2021-08-06 12:38:09</time>
      </trkpt>
      <trkpt lat="37.05265" lon="-3.31208">
        <ele>3455.2</ele>
        <time>2021-08-06 12:38:10</time>
      </trkpt>
      <trkpt lat="37.05265" lon="-3.31209">
        <ele>3455</ele>
        <time>2021-08-06 12:38:11</time>
      </trkpt>
      <trkpt lat="37.05265" lon="-3.3121">
        <ele>3454.6</ele>
        <time>2021-08-06 12:38:12</time>
      </trkpt>
      <trkpt lat="37.05264" lon="-3.31211">
        <ele>3454.4</ele>
        <time>2021-08-06 12:38:13</time>
      </trkpt>
      <trkpt lat="37.05264" lon="-3.31211">
        <ele>3454.2</ele>
        <time>2021-08-06 12:38:14</time>
      </trkpt>
      <trkpt lat="37.05264" lon="-3.31212">
        <ele>3454</ele>
        <time>2021-08-06 12:38:15</time>
      </trkpt>
      <trkpt lat="37.05264" lon="-3.31213">
        <ele>3453.8</ele>
        <time>2021-08-06 12:38:16</time>
      </trkpt>
      <trkpt lat="37.05264" lon="-3.31214">
        <ele>3453.6</ele>
        <time>2021-08-06 12:38:17</time>
      </trkpt>
      <trkpt lat="37.05264" lon="-3.31214">
        <ele>3453.6</ele>
        <time>2021-08-06 12:38:18</time>
      </trkpt>
      <trkpt lat="37.05263" lon="-3.31215">
        <ele>3453.6</ele>
        <time>2021-08-06 12:38:19</time>
      </trkpt>
      <trkpt lat="37.05264" lon="-3.31215">
        <ele>3453.6</ele>
        <time>2021-08-06 12:38:20</time>
      </trkpt>
      <trkpt lat="37.05264" lon="-3.31216">
        <ele>3453.6</ele>
        <time>2021-08-06 12:38:21</time>
      </trkpt>
      <trkpt lat="37.05264" lon="-3.31217">
        <ele>3453.4</ele>
        <time>2021-08-06 12:38:22</time>
      </trkpt>
      <trkpt lat="37.05264" lon="-3.31217">
        <ele>3453.4</ele>
        <time>2021-08-06 12:38:23</time>
      </trkpt>
      <trkpt lat="37.05264" lon="-3.31217">
        <ele>3453.4</ele>
        <time>2021-08-06 12:38:24</time>
      </trkpt>
      <trkpt lat="37.05263" lon="-3.31218">
        <ele>3453.2</ele>
        <time>2021-08-06 12:38:25</time>
      </trkpt>
      <trkpt lat="37.05263" lon="-3.31218">
        <ele>3452.8</ele>
        <time>2021-08-06 12:38:26</time>
      </trkpt>
      <trkpt lat="37.05262" lon="-3.31218">
        <ele>3452.6</ele>
        <time>2021-08-06 12:38:27</time>
      </trkpt>
      <trkpt lat="37.05262" lon="-3.31219">
        <ele>3452.6</ele>
        <time>2021-08-06 12:38:28</time>
      </trkpt>
      <trkpt lat="37.05262" lon="-3.31219">
        <ele>3452.4</ele>
        <time>2021-08-06 12:38:29</time>
      </trkpt>
      <trkpt lat="37.05261" lon="-3.3122">
        <ele>3452.4</ele>
        <time>2021-08-06 12:38:30</time>
      </trkpt>
      <trkpt lat="37.05261" lon="-3.3122">
        <ele>3452.4</ele>
        <time>2021-08-06 12:38:31</time>
      </trkpt>
      <trkpt lat="37.05261" lon="-3.31221">
        <ele>3452.2</ele>
        <time>2021-08-06 12:38:32</time>
      </trkpt>
      <trkpt lat="37.0526" lon="-3.31222">
        <ele>3452.2</ele>
        <time>2021-08-06 12:38:33</time>
      </trkpt>
      <trkpt lat="37.0526" lon="-3.31222">
        <ele>3452</ele>
        <time>2021-08-06 12:38:34</time>
      </trkpt>
      <trkpt lat="37.0526" lon="-3.31223">
        <ele>3451.8</ele>
        <time>2021-08-06 12:38:35</time>
      </trkpt>
      <trkpt lat="37.0526" lon="-3.31223">
        <ele>3451.6</ele>
        <time>2021-08-06 12:38:36</time>
      </trkpt>
      <trkpt lat="37.0526" lon="-3.31223">
        <ele>3451.6</ele>
        <time>2021-08-06 12:38:37</time>
      </trkpt>
      <trkpt lat="37.05259" lon="-3.31223">
        <ele>3451.4</ele>
        <time>2021-08-06 12:38:38</time>
      </trkpt>
      <trkpt lat="37.05259" lon="-3.31224">
        <ele>3451.2</ele>
        <time>2021-08-06 12:38:39</time>
      </trkpt>
      <trkpt lat="37.0526" lon="-3.31224">
        <ele>3451</ele>
        <time>2021-08-06 12:38:40</time>
      </trkpt>
      <trkpt lat="37.0526" lon="-3.31224">
        <ele>3451</ele>
        <time>2021-08-06 12:38:41</time>
      </trkpt>
      <trkpt lat="37.0526" lon="-3.31224">
        <ele>3450.8</ele>
        <time>2021-08-06 12:38:42</time>
      </trkpt>
      <trkpt lat="37.05259" lon="-3.31225">
        <ele>3450.8</ele>
        <time>2021-08-06 12:38:43</time>
      </trkpt>
      <trkpt lat="37.05259" lon="-3.31225">
        <ele>3450.6</ele>
        <time>2021-08-06 12:38:44</time>
      </trkpt>
      <trkpt lat="37.05258" lon="-3.31225">
        <ele>3450.6</ele>
        <time>2021-08-06 12:38:45</time>
      </trkpt>
      <trkpt lat="37.05258" lon="-3.31225">
        <ele>3450.4</ele>
        <time>2021-08-06 12:38:46</time>
      </trkpt>
      <trkpt lat="37.05257" lon="-3.31225">
        <ele>3450.2</ele>
        <time>2021-08-06 12:38:47</time>
      </trkpt>
      <trkpt lat="37.05257" lon="-3.31225">
        <ele>3450</ele>
        <time>2021-08-06 12:38:48</time>
      </trkpt>
      <trkpt lat="37.05256" lon="-3.31226">
        <ele>3450</ele>
        <time>2021-08-06 12:38:49</time>
      </trkpt>
      <trkpt lat="37.05256" lon="-3.31227">
        <ele>3449.8</ele>
        <time>2021-08-06 12:38:50</time>
      </trkpt>
      <trkpt lat="37.05256" lon="-3.31227">
        <ele>3449.8</ele>
        <time>2021-08-06 12:38:51</time>
      </trkpt>
      <trkpt lat="37.05255" lon="-3.31228">
        <ele>3449.6</ele>
        <time>2021-08-06 12:38:52</time>
      </trkpt>
      <trkpt lat="37.05255" lon="-3.31229">
        <ele>3449.6</ele>
        <time>2021-08-06 12:38:53</time>
      </trkpt>
      <trkpt lat="37.05254" lon="-3.31229">
        <ele>3449.2</ele>
        <time>2021-08-06 12:38:54</time>
      </trkpt>
      <trkpt lat="37.05254" lon="-3.31229">
        <ele>3449</ele>
        <time>2021-08-06 12:38:55</time>
      </trkpt>
      <trkpt lat="37.05254" lon="-3.3123">
        <ele>3448.8</ele>
        <time>2021-08-06 12:38:56</time>
      </trkpt>
      <trkpt lat="37.05253" lon="-3.3123">
        <ele>3448.6</ele>
        <time>2021-08-06 12:38:57</time>
      </trkpt>
      <trkpt lat="37.05252" lon="-3.3123">
        <ele>3448.4</ele>
        <time>2021-08-06 12:38:58</time>
      </trkpt>
      <trkpt lat="37.05252" lon="-3.3123">
        <ele>3448.4</ele>
        <time>2021-08-06 12:38:59</time>
      </trkpt>
      <trkpt lat="37.05251" lon="-3.3123">
        <ele>3448.4</ele>
        <time>2021-08-06 12:39:00</time>
      </trkpt>
      <trkpt lat="37.0525" lon="-3.3123">
        <ele>3448.2</ele>
        <time>2021-08-06 12:39:01</time>
      </trkpt>
      <trkpt lat="37.0525" lon="-3.31229">
        <ele>3447.8</ele>
        <time>2021-08-06 12:39:02</time>
      </trkpt>
      <trkpt lat="37.05249" lon="-3.3123">
        <ele>3447.6</ele>
        <time>2021-08-06 12:39:03</time>
      </trkpt>
      <trkpt lat="37.05249" lon="-3.3123">
        <ele>3447.6</ele>
        <time>2021-08-06 12:39:04</time>
      </trkpt>
      <trkpt lat="37.05249" lon="-3.3123">
        <ele>3447.4</ele>
        <time>2021-08-06 12:39:05</time>
      </trkpt>
      <trkpt lat="37.05249" lon="-3.31231">
        <ele>3447</ele>
        <time>2021-08-06 12:39:06</time>
      </trkpt>
      <trkpt lat="37.05249" lon="-3.31231">
        <ele>3446.8</ele>
        <time>2021-08-06 12:39:07</time>
      </trkpt>
      <trkpt lat="37.05249" lon="-3.31232">
        <ele>3446.8</ele>
        <time>2021-08-06 12:39:08</time>
      </trkpt>
      <trkpt lat="37.05249" lon="-3.31232">
        <ele>3446.8</ele>
        <time>2021-08-06 12:39:09</time>
      </trkpt>
      <trkpt lat="37.05248" lon="-3.31233">
        <ele>3446.8</ele>
        <time>2021-08-06 12:39:10</time>
      </trkpt>
      <trkpt lat="37.05248" lon="-3.31234">
        <ele>3446.8</ele>
        <time>2021-08-06 12:39:11</time>
      </trkpt>
      <trkpt lat="37.05248" lon="-3.31234">
        <ele>3446.8</ele>
        <time>2021-08-06 12:39:12</time>
      </trkpt>
      <trkpt lat="37.05248" lon="-3.31234">
        <ele>3446.8</ele>
        <time>2021-08-06 12:39:13</time>
      </trkpt>
      <trkpt lat="37.05249" lon="-3.31235">
        <ele>3446.4</ele>
        <time>2021-08-06 12:39:14</time>
      </trkpt>
      <trkpt lat="37.05249" lon="-3.31235">
        <ele>3446.2</ele>
        <time>2021-08-06 12:39:15</time>
      </trkpt>
      <trkpt lat="37.05249" lon="-3.31235">
        <ele>3445.8</ele>
        <time>2021-08-06 12:39:16</time>
      </trkpt>
      <trkpt lat="37.05249" lon="-3.31236">
        <ele>3445.6</ele>
        <time>2021-08-06 12:39:17</time>
      </trkpt>
      <trkpt lat="37.05249" lon="-3.31236">
        <ele>3445.6</ele>
        <time>2021-08-06 12:39:18</time>
      </trkpt>
      <trkpt lat="37.05249" lon="-3.31237">
        <ele>3445.4</ele>
        <time>2021-08-06 12:39:19</time>
      </trkpt>
      <trkpt lat="37.05249" lon="-3.31238">
        <ele>3445.2</ele>
        <time>2021-08-06 12:39:20</time>
      </trkpt>
      <trkpt lat="37.05249" lon="-3.31238">
        <ele>3444.8</ele>
        <time>2021-08-06 12:39:21</time>
      </trkpt>
      <trkpt lat="37.05249" lon="-3.31239">
        <ele>3444.6</ele>
        <time>2021-08-06 12:39:22</time>
      </trkpt>
      <trkpt lat="37.05249" lon="-3.3124">
        <ele>3444.4</ele>
        <time>2021-08-06 12:39:23</time>
      </trkpt>
      <trkpt lat="37.05249" lon="-3.3124">
        <ele>3444.4</ele>
        <time>2021-08-06 12:39:24</time>
      </trkpt>
      <trkpt lat="37.05248" lon="-3.31241">
        <ele>3444.2</ele>
        <time>2021-08-06 12:39:25</time>
      </trkpt>
      <trkpt lat="37.05249" lon="-3.31241">
        <ele>3444</ele>
        <time>2021-08-06 12:39:26</time>
      </trkpt>
      <trkpt lat="37.05249" lon="-3.31241">
        <ele>3443.8</ele>
        <time>2021-08-06 12:39:27</time>
      </trkpt>
      <trkpt lat="37.05249" lon="-3.31241">
        <ele>3443.8</ele>
        <time>2021-08-06 12:39:28</time>
      </trkpt>
      <trkpt lat="37.05249" lon="-3.31242">
        <ele>3443.6</ele>
        <time>2021-08-06 12:39:29</time>
      </trkpt>
      <trkpt lat="37.05249" lon="-3.31242">
        <ele>3443.4</ele>
        <time>2021-08-06 12:39:30</time>
      </trkpt>
      <trkpt lat="37.05249" lon="-3.31243">
        <ele>3443.2</ele>
        <time>2021-08-06 12:39:31</time>
      </trkpt>
      <trkpt lat="37.05249" lon="-3.31244">
        <ele>3443</ele>
        <time>2021-08-06 12:39:32</time>
      </trkpt>
      <trkpt lat="37.05249" lon="-3.31244">
        <ele>3442.8</ele>
        <time>2021-08-06 12:39:33</time>
      </trkpt>
      <trkpt lat="37.05249" lon="-3.31245">
        <ele>3442.6</ele>
        <time>2021-08-06 12:39:34</time>
      </trkpt>
      <trkpt lat="37.0525" lon="-3.31246">
        <ele>3442.6</ele>
        <time>2021-08-06 12:39:35</time>
      </trkpt>
      <trkpt lat="37.0525" lon="-3.31247">
        <ele>3442.4</ele>
        <time>2021-08-06 12:39:36</time>
      </trkpt>
      <trkpt lat="37.05251" lon="-3.31247">
        <ele>3442.4</ele>
        <time>2021-08-06 12:39:37</time>
      </trkpt>
      <trkpt lat="37.05251" lon="-3.31247">
        <ele>3442.2</ele>
        <time>2021-08-06 12:39:38</time>
      </trkpt>
      <trkpt lat="37.05251" lon="-3.31248">
        <ele>3442</ele>
        <time>2021-08-06 12:39:39</time>
      </trkpt>
      <trkpt lat="37.05252" lon="-3.31248">
        <ele>3442</ele>
        <time>2021-08-06 12:39:40</time>
      </trkpt>
      <trkpt lat="37.05252" lon="-3.31248">
        <ele>3442</ele>
        <time>2021-08-06 12:39:41</time>
      </trkpt>
      <trkpt lat="37.05253" lon="-3.31249">
        <ele>3441.8</ele>
        <time>2021-08-06 12:39:42</time>
      </trkpt>
      <trkpt lat="37.05253" lon="-3.31249">
        <ele>3441.8</ele>
        <time>2021-08-06 12:39:43</time>
      </trkpt>
      <trkpt lat="37.05254" lon="-3.31249">
        <ele>3441.6</ele>
        <time>2021-08-06 12:39:44</time>
      </trkpt>
      <trkpt lat="37.05254" lon="-3.31249">
        <ele>3441.2</ele>
        <time>2021-08-06 12:39:45</time>
      </trkpt>
      <trkpt lat="37.05254" lon="-3.31249">
        <ele>3441.2</ele>
        <time>2021-08-06 12:39:46</time>
      </trkpt>
      <trkpt lat="37.05254" lon="-3.3125">
        <ele>3441</ele>
        <time>2021-08-06 12:39:47</time>
      </trkpt>
      <trkpt lat="37.05254" lon="-3.3125">
        <ele>3440.6</ele>
        <time>2021-08-06 12:39:48</time>
      </trkpt>
      <trkpt lat="37.05254" lon="-3.31251">
        <ele>3440.4</ele>
        <time>2021-08-06 12:39:49</time>
      </trkpt>
      <trkpt lat="37.05254" lon="-3.31251">
        <ele>3440.2</ele>
        <time>2021-08-06 12:39:50</time>
      </trkpt>
      <trkpt lat="37.05253" lon="-3.31252">
        <ele>3440.2</ele>
        <time>2021-08-06 12:39:51</time>
      </trkpt>
      <trkpt lat="37.05252" lon="-3.31252">
        <ele>3440.2</ele>
        <time>2021-08-06 12:39:52</time>
      </trkpt>
      <trkpt lat="37.05251" lon="-3.31253">
        <ele>3440.2</ele>
        <time>2021-08-06 12:39:53</time>
      </trkpt>
      <trkpt lat="37.05251" lon="-3.31253">
        <ele>3440</ele>
        <time>2021-08-06 12:39:54</time>
      </trkpt>
      <trkpt lat="37.05251" lon="-3.31254">
        <ele>3440</ele>
        <time>2021-08-06 12:39:55</time>
      </trkpt>
      <trkpt lat="37.05251" lon="-3.31254">
        <ele>3440.2</ele>
        <time>2021-08-06 12:39:56</time>
      </trkpt>
      <trkpt lat="37.05251" lon="-3.31255">
        <ele>3440.2</ele>
        <time>2021-08-06 12:39:57</time>
      </trkpt>
      <trkpt lat="37.05251" lon="-3.31255">
        <ele>3440</ele>
        <time>2021-08-06 12:39:58</time>
      </trkpt>
      <trkpt lat="37.05251" lon="-3.31256">
        <ele>3440</ele>
        <time>2021-08-06 12:39:59</time>
      </trkpt>
      <trkpt lat="37.05251" lon="-3.31257">
        <ele>3439.8</ele>
        <time>2021-08-06 12:40:00</time>
      </trkpt>
      <trkpt lat="37.05252" lon="-3.31258">
        <ele>3439.4</ele>
        <time>2021-08-06 12:40:01</time>
      </trkpt>
      <trkpt lat="37.05252" lon="-3.31258">
        <ele>3439</ele>
        <time>2021-08-06 12:40:02</time>
      </trkpt>
      <trkpt lat="37.05252" lon="-3.31259">
        <ele>3439</ele>
        <time>2021-08-06 12:40:03</time>
      </trkpt>
      <trkpt lat="37.05252" lon="-3.31259">
        <ele>3438.8</ele>
        <time>2021-08-06 12:40:04</time>
      </trkpt>
      <trkpt lat="37.05252" lon="-3.3126">
        <ele>3438.6</ele>
        <time>2021-08-06 12:40:05</time>
      </trkpt>
      <trkpt lat="37.05251" lon="-3.3126">
        <ele>3438.4</ele>
        <time>2021-08-06 12:40:06</time>
      </trkpt>
      <trkpt lat="37.05251" lon="-3.3126">
        <ele>3438.2</ele>
        <time>2021-08-06 12:40:07</time>
      </trkpt>
      <trkpt lat="37.05251" lon="-3.31261">
        <ele>3438.4</ele>
        <time>2021-08-06 12:40:08</time>
      </trkpt>
      <trkpt lat="37.0525" lon="-3.31261">
        <ele>3438.2</ele>
        <time>2021-08-06 12:40:09</time>
      </trkpt>
      <trkpt lat="37.05249" lon="-3.31261">
        <ele>3438.2</ele>
        <time>2021-08-06 12:40:10</time>
      </trkpt>
      <trkpt lat="37.05249" lon="-3.31261">
        <ele>3438.2</ele>
        <time>2021-08-06 12:40:11</time>
      </trkpt>
      <trkpt lat="37.05248" lon="-3.31261">
        <ele>3437.8</ele>
        <time>2021-08-06 12:40:12</time>
      </trkpt>
      <trkpt lat="37.05248" lon="-3.31262">
        <ele>3437.6</ele>
        <time>2021-08-06 12:40:13</time>
      </trkpt>
      <trkpt lat="37.05248" lon="-3.31263">
        <ele>3437.4</ele>
        <time>2021-08-06 12:40:14</time>
      </trkpt>
      <trkpt lat="37.05249" lon="-3.31263">
        <ele>3437.2</ele>
        <time>2021-08-06 12:40:15</time>
      </trkpt>
      <trkpt lat="37.05249" lon="-3.31264">
        <ele>3436.8</ele>
        <time>2021-08-06 12:40:16</time>
      </trkpt>
      <trkpt lat="37.05248" lon="-3.31264">
        <ele>3436.6</ele>
        <time>2021-08-06 12:40:17</time>
      </trkpt>
      <trkpt lat="37.05248" lon="-3.31265">
        <ele>3436.6</ele>
        <time>2021-08-06 12:40:18</time>
      </trkpt>
      <trkpt lat="37.05247" lon="-3.31265">
        <ele>3436.6</ele>
        <time>2021-08-06 12:40:19</time>
      </trkpt>
      <trkpt lat="37.05248" lon="-3.31266">
        <ele>3436.6</ele>
        <time>2021-08-06 12:40:20</time>
      </trkpt>
      <trkpt lat="37.05247" lon="-3.31266">
        <ele>3436.4</ele>
        <time>2021-08-06 12:40:21</time>
      </trkpt>
      <trkpt lat="37.05247" lon="-3.31266">
        <ele>3436.4</ele>
        <time>2021-08-06 12:40:22</time>
      </trkpt>
      <trkpt lat="37.05246" lon="-3.31266">
        <ele>3436.2</ele>
        <time>2021-08-06 12:40:23</time>
      </trkpt>
      <trkpt lat="37.05246" lon="-3.31267">
        <ele>3436</ele>
        <time>2021-08-06 12:40:24</time>
      </trkpt>
      <trkpt lat="37.05245" lon="-3.31267">
        <ele>3435.8</ele>
        <time>2021-08-06 12:40:25</time>
      </trkpt>
      <trkpt lat="37.05245" lon="-3.31267">
        <ele>3435.6</ele>
        <time>2021-08-06 12:40:26</time>
      </trkpt>
      <trkpt lat="37.05245" lon="-3.31267">
        <ele>3435.6</ele>
        <time>2021-08-06 12:40:27</time>
      </trkpt>
      <trkpt lat="37.05244" lon="-3.31268">
        <ele>3435.4</ele>
        <time>2021-08-06 12:40:28</time>
      </trkpt>
      <trkpt lat="37.05244" lon="-3.31268">
        <ele>3435</ele>
        <time>2021-08-06 12:40:29</time>
      </trkpt>
      <trkpt lat="37.05244" lon="-3.31269">
        <ele>3434.6</ele>
        <time>2021-08-06 12:40:30</time>
      </trkpt>
      <trkpt lat="37.05244" lon="-3.31269">
        <ele>3434.6</ele>
        <time>2021-08-06 12:40:31</time>
      </trkpt>
      <trkpt lat="37.05244" lon="-3.3127">
        <ele>3434.4</ele>
        <time>2021-08-06 12:40:32</time>
      </trkpt>
      <trkpt lat="37.05245" lon="-3.31271">
        <ele>3434.2</ele>
        <time>2021-08-06 12:40:33</time>
      </trkpt>
      <trkpt lat="37.05245" lon="-3.31271">
        <ele>3434</ele>
        <time>2021-08-06 12:40:34</time>
      </trkpt>
      <trkpt lat="37.05245" lon="-3.31272">
        <ele>3433.8</ele>
        <time>2021-08-06 12:40:35</time>
      </trkpt>
      <trkpt lat="37.05244" lon="-3.31271">
        <ele>3433.6</ele>
        <time>2021-08-06 12:40:36</time>
      </trkpt>
      <trkpt lat="37.05243" lon="-3.31271">
        <ele>3433.6</ele>
        <time>2021-08-06 12:40:37</time>
      </trkpt>
      <trkpt lat="37.05243" lon="-3.31272">
        <ele>3433.4</ele>
        <time>2021-08-06 12:40:38</time>
      </trkpt>
      <trkpt lat="37.05243" lon="-3.31272">
        <ele>3433.2</ele>
        <time>2021-08-06 12:40:39</time>
      </trkpt>
      <trkpt lat="37.05243" lon="-3.31272">
        <ele>3433</ele>
        <time>2021-08-06 12:40:40</time>
      </trkpt>
      <trkpt lat="37.05243" lon="-3.31272">
        <ele>3433</ele>
        <time>2021-08-06 12:40:41</time>
      </trkpt>
      <trkpt lat="37.05243" lon="-3.31273">
        <ele>3432.8</ele>
        <time>2021-08-06 12:40:42</time>
      </trkpt>
      <trkpt lat="37.05243" lon="-3.31273">
        <ele>3432.6</ele>
        <time>2021-08-06 12:40:43</time>
      </trkpt>
      <trkpt lat="37.05244" lon="-3.31273">
        <ele>3432.6</ele>
        <time>2021-08-06 12:40:44</time>
      </trkpt>
      <trkpt lat="37.05244" lon="-3.31273">
        <ele>3432.4</ele>
        <time>2021-08-06 12:40:45</time>
      </trkpt>
      <trkpt lat="37.05245" lon="-3.31273">
        <ele>3432.2</ele>
        <time>2021-08-06 12:40:46</time>
      </trkpt>
      <trkpt lat="37.05245" lon="-3.31273">
        <ele>3432.2</ele>
        <time>2021-08-06 12:40:47</time>
      </trkpt>
      <trkpt lat="37.05245" lon="-3.31273">
        <ele>3431.8</ele>
        <time>2021-08-06 12:40:48</time>
      </trkpt>
      <trkpt lat="37.05246" lon="-3.31273">
        <ele>3431.6</ele>
        <time>2021-08-06 12:40:49</time>
      </trkpt>
      <trkpt lat="37.05246" lon="-3.31274">
        <ele>3431.6</ele>
        <time>2021-08-06 12:40:50</time>
      </trkpt>
      <trkpt lat="37.05246" lon="-3.31275">
        <ele>3431.4</ele>
        <time>2021-08-06 12:40:51</time>
      </trkpt>
      <trkpt lat="37.05245" lon="-3.31276">
        <ele>3431</ele>
        <time>2021-08-06 12:40:52</time>
      </trkpt>
      <trkpt lat="37.05245" lon="-3.31277">
        <ele>3431</ele>
        <time>2021-08-06 12:40:53</time>
      </trkpt>
      <trkpt lat="37.05244" lon="-3.31277">
        <ele>3430.6</ele>
        <time>2021-08-06 12:40:54</time>
      </trkpt>
      <trkpt lat="37.05244" lon="-3.31278">
        <ele>3430.2</ele>
        <time>2021-08-06 12:40:55</time>
      </trkpt>
      <trkpt lat="37.05243" lon="-3.31278">
        <ele>3430</ele>
        <time>2021-08-06 12:40:56</time>
      </trkpt>
      <trkpt lat="37.05243" lon="-3.31279">
        <ele>3429.8</ele>
        <time>2021-08-06 12:40:57</time>
      </trkpt>
      <trkpt lat="37.05242" lon="-3.3128">
        <ele>3429.6</ele>
        <time>2021-08-06 12:40:58</time>
      </trkpt>
      <trkpt lat="37.05242" lon="-3.31281">
        <ele>3429.6</ele>
        <time>2021-08-06 12:40:59</time>
      </trkpt>
      <trkpt lat="37.05242" lon="-3.31281">
        <ele>3429.6</ele>
        <time>2021-08-06 12:41:00</time>
      </trkpt>
      <trkpt lat="37.05243" lon="-3.31281">
        <ele>3429.4</ele>
        <time>2021-08-06 12:41:01</time>
      </trkpt>
      <trkpt lat="37.05243" lon="-3.31282">
        <ele>3429.4</ele>
        <time>2021-08-06 12:41:02</time>
      </trkpt>
      <trkpt lat="37.05244" lon="-3.31282">
        <ele>3429.2</ele>
        <time>2021-08-06 12:41:03</time>
      </trkpt>
      <trkpt lat="37.05244" lon="-3.31282">
        <ele>3429.2</ele>
        <time>2021-08-06 12:41:04</time>
      </trkpt>
      <trkpt lat="37.05244" lon="-3.31283">
        <ele>3429</ele>
        <time>2021-08-06 12:41:05</time>
      </trkpt>
      <trkpt lat="37.05245" lon="-3.31283">
        <ele>3429</ele>
        <time>2021-08-06 12:41:06</time>
      </trkpt>
      <trkpt lat="37.05245" lon="-3.31284">
        <ele>3429</ele>
        <time>2021-08-06 12:41:07</time>
      </trkpt>
      <trkpt lat="37.05244" lon="-3.31285">
        <ele>3428.8</ele>
        <time>2021-08-06 12:41:08</time>
      </trkpt>
      <trkpt lat="37.05244" lon="-3.31285">
        <ele>3428.8</ele>
        <time>2021-08-06 12:41:09</time>
      </trkpt>
      <trkpt lat="37.05244" lon="-3.31286">
        <ele>3428.6</ele>
        <time>2021-08-06 12:41:10</time>
      </trkpt>
      <trkpt lat="37.05243" lon="-3.31287">
        <ele>3428.4</ele>
        <time>2021-08-06 12:41:11</time>
      </trkpt>
      <trkpt lat="37.05243" lon="-3.31288">
        <ele>3428.2</ele>
        <time>2021-08-06 12:41:12</time>
      </trkpt>
      <trkpt lat="37.05243" lon="-3.31289">
        <ele>3427.8</ele>
        <time>2021-08-06 12:41:13</time>
      </trkpt>
      <trkpt lat="37.05243" lon="-3.31289">
        <ele>3427.6</ele>
        <time>2021-08-06 12:41:14</time>
      </trkpt>
      <trkpt lat="37.05243" lon="-3.3129">
        <ele>3427.4</ele>
        <time>2021-08-06 12:41:15</time>
      </trkpt>
      <trkpt lat="37.05243" lon="-3.3129">
        <ele>3427.2</ele>
        <time>2021-08-06 12:41:16</time>
      </trkpt>
      <trkpt lat="37.05243" lon="-3.31291">
        <ele>3427</ele>
        <time>2021-08-06 12:41:17</time>
      </trkpt>
      <trkpt lat="37.05242" lon="-3.31292">
        <ele>3426.8</ele>
        <time>2021-08-06 12:41:18</time>
      </trkpt>
      <trkpt lat="37.05242" lon="-3.31292">
        <ele>3426.6</ele>
        <time>2021-08-06 12:41:19</time>
      </trkpt>
      <trkpt lat="37.05241" lon="-3.31293">
        <ele>3426.4</ele>
        <time>2021-08-06 12:41:20</time>
      </trkpt>
      <trkpt lat="37.05241" lon="-3.31293">
        <ele>3426.2</ele>
        <time>2021-08-06 12:41:21</time>
      </trkpt>
      <trkpt lat="37.05241" lon="-3.31294">
        <ele>3426</ele>
        <time>2021-08-06 12:41:22</time>
      </trkpt>
      <trkpt lat="37.05242" lon="-3.31295">
        <ele>3426</ele>
        <time>2021-08-06 12:41:23</time>
      </trkpt>
      <trkpt lat="37.05242" lon="-3.31295">
        <ele>3425.4</ele>
        <time>2021-08-06 12:41:24</time>
      </trkpt>
      <trkpt lat="37.05243" lon="-3.31296">
        <ele>3425.2</ele>
        <time>2021-08-06 12:41:25</time>
      </trkpt>
      <trkpt lat="37.05244" lon="-3.31296">
        <ele>3425</ele>
        <time>2021-08-06 12:41:26</time>
      </trkpt>
      <trkpt lat="37.05245" lon="-3.31296">
        <ele>3425</ele>
        <time>2021-08-06 12:41:27</time>
      </trkpt>
      <trkpt lat="37.05245" lon="-3.31296">
        <ele>3424.8</ele>
        <time>2021-08-06 12:41:28</time>
      </trkpt>
      <trkpt lat="37.05246" lon="-3.31296">
        <ele>3424.6</ele>
        <time>2021-08-06 12:41:29</time>
      </trkpt>
      <trkpt lat="37.05247" lon="-3.31297">
        <ele>3424.6</ele>
        <time>2021-08-06 12:41:30</time>
      </trkpt>
      <trkpt lat="37.05247" lon="-3.31297">
        <ele>3424.6</ele>
        <time>2021-08-06 12:41:31</time>
      </trkpt>
      <trkpt lat="37.05247" lon="-3.31298">
        <ele>3424.6</ele>
        <time>2021-08-06 12:41:32</time>
      </trkpt>
      <trkpt lat="37.05248" lon="-3.31299">
        <ele>3424.6</ele>
        <time>2021-08-06 12:41:33</time>
      </trkpt>
      <trkpt lat="37.05248" lon="-3.313">
        <ele>3424</ele>
        <time>2021-08-06 12:41:34</time>
      </trkpt>
      <trkpt lat="37.05248" lon="-3.31301">
        <ele>3423.6</ele>
        <time>2021-08-06 12:41:35</time>
      </trkpt>
      <trkpt lat="37.05247" lon="-3.31302">
        <ele>3423.4</ele>
        <time>2021-08-06 12:41:36</time>
      </trkpt>
      <trkpt lat="37.05247" lon="-3.31302">
        <ele>3422.8</ele>
        <time>2021-08-06 12:41:37</time>
      </trkpt>
      <trkpt lat="37.05247" lon="-3.31302">
        <ele>3422.4</ele>
        <time>2021-08-06 12:41:38</time>
      </trkpt>
      <trkpt lat="37.05247" lon="-3.31303">
        <ele>3422.4</ele>
        <time>2021-08-06 12:41:39</time>
      </trkpt>
      <trkpt lat="37.05247" lon="-3.31303">
        <ele>3422</ele>
        <time>2021-08-06 12:41:40</time>
      </trkpt>
      <trkpt lat="37.05247" lon="-3.31304">
        <ele>3422</ele>
        <time>2021-08-06 12:41:41</time>
      </trkpt>
      <trkpt lat="37.05247" lon="-3.31305">
        <ele>3421.8</ele>
        <time>2021-08-06 12:41:42</time>
      </trkpt>
      <trkpt lat="37.05247" lon="-3.31305">
        <ele>3421.8</ele>
        <time>2021-08-06 12:41:43</time>
      </trkpt>
      <trkpt lat="37.05248" lon="-3.31306">
        <ele>3421.4</ele>
        <time>2021-08-06 12:41:44</time>
      </trkpt>
      <trkpt lat="37.05248" lon="-3.31306">
        <ele>3421.2</ele>
        <time>2021-08-06 12:41:45</time>
      </trkpt>
      <trkpt lat="37.05248" lon="-3.31307">
        <ele>3421</ele>
        <time>2021-08-06 12:41:46</time>
      </trkpt>
      <trkpt lat="37.05248" lon="-3.31307">
        <ele>3421</ele>
        <time>2021-08-06 12:41:47</time>
      </trkpt>
      <trkpt lat="37.05248" lon="-3.31308">
        <ele>3421</ele>
        <time>2021-08-06 12:41:48</time>
      </trkpt>
      <trkpt lat="37.05247" lon="-3.31308">
        <ele>3420.8</ele>
        <time>2021-08-06 12:41:49</time>
      </trkpt>
      <trkpt lat="37.05247" lon="-3.31308">
        <ele>3420.8</ele>
        <time>2021-08-06 12:41:50</time>
      </trkpt>
      <trkpt lat="37.05246" lon="-3.31309">
        <ele>3420.8</ele>
        <time>2021-08-06 12:41:51</time>
      </trkpt>
      <trkpt lat="37.05246" lon="-3.3131">
        <ele>3420.8</ele>
        <time>2021-08-06 12:41:52</time>
      </trkpt>
      <trkpt lat="37.05245" lon="-3.31311">
        <ele>3420.6</ele>
        <time>2021-08-06 12:41:53</time>
      </trkpt>
      <trkpt lat="37.05245" lon="-3.31311">
        <ele>3420.4</ele>
        <time>2021-08-06 12:41:54</time>
      </trkpt>
      <trkpt lat="37.05245" lon="-3.31311">
        <ele>3420</ele>
        <time>2021-08-06 12:41:55</time>
      </trkpt>
      <trkpt lat="37.05244" lon="-3.31312">
        <ele>3419.8</ele>
        <time>2021-08-06 12:41:56</time>
      </trkpt>
      <trkpt lat="37.05245" lon="-3.31313">
        <ele>3419.6</ele>
        <time>2021-08-06 12:41:57</time>
      </trkpt>
      <trkpt lat="37.05245" lon="-3.31313">
        <ele>3419.6</ele>
        <time>2021-08-06 12:41:58</time>
      </trkpt>
      <trkpt lat="37.05245" lon="-3.31313">
        <ele>3419.4</ele>
        <time>2021-08-06 12:41:59</time>
      </trkpt>
      <trkpt lat="37.05246" lon="-3.31314">
        <ele>3419.4</ele>
        <time>2021-08-06 12:42:00</time>
      </trkpt>
      <trkpt lat="37.05247" lon="-3.31314">
        <ele>3419.4</ele>
        <time>2021-08-06 12:42:01</time>
      </trkpt>
      <trkpt lat="37.05247" lon="-3.31314">
        <ele>3419.4</ele>
        <time>2021-08-06 12:42:02</time>
      </trkpt>
      <trkpt lat="37.05247" lon="-3.31314">
        <ele>3419.4</ele>
        <time>2021-08-06 12:42:03</time>
      </trkpt>
      <trkpt lat="37.05248" lon="-3.31314">
        <ele>3419</ele>
        <time>2021-08-06 12:42:04</time>
      </trkpt>
      <trkpt lat="37.05248" lon="-3.31314">
        <ele>3418.6</ele>
        <time>2021-08-06 12:42:05</time>
      </trkpt>
      <trkpt lat="37.05248" lon="-3.31314">
        <ele>3418.6</ele>
        <time>2021-08-06 12:42:06</time>
      </trkpt>
      <trkpt lat="37.05248" lon="-3.31315">
        <ele>3418.2</ele>
        <time>2021-08-06 12:42:07</time>
      </trkpt>
      <trkpt lat="37.05248" lon="-3.31315">
        <ele>3418</ele>
        <time>2021-08-06 12:42:08</time>
      </trkpt>
      <trkpt lat="37.05249" lon="-3.31316">
        <ele>3418</ele>
        <time>2021-08-06 12:42:09</time>
      </trkpt>
      <trkpt lat="37.05249" lon="-3.31316">
        <ele>3417.8</ele>
        <time>2021-08-06 12:42:10</time>
      </trkpt>
      <trkpt lat="37.0525" lon="-3.31316">
        <ele>3417.4</ele>
        <time>2021-08-06 12:42:11</time>
      </trkpt>
      <trkpt lat="37.0525" lon="-3.31317">
        <ele>3417.2</ele>
        <time>2021-08-06 12:42:12</time>
      </trkpt>
      <trkpt lat="37.0525" lon="-3.31318">
        <ele>3416.8</ele>
        <time>2021-08-06 12:42:13</time>
      </trkpt>
      <trkpt lat="37.0525" lon="-3.31318">
        <ele>3416.6</ele>
        <time>2021-08-06 12:42:14</time>
      </trkpt>
      <trkpt lat="37.0525" lon="-3.31318">
        <ele>3416.6</ele>
        <time>2021-08-06 12:42:15</time>
      </trkpt>
      <trkpt lat="37.05249" lon="-3.31319">
        <ele>3416.6</ele>
        <time>2021-08-06 12:42:16</time>
      </trkpt>
      <trkpt lat="37.05249" lon="-3.31319">
        <ele>3416.6</ele>
        <time>2021-08-06 12:42:17</time>
      </trkpt>
      <trkpt lat="37.05248" lon="-3.3132">
        <ele>3416.2</ele>
        <time>2021-08-06 12:42:18</time>
      </trkpt>
      <trkpt lat="37.05248" lon="-3.3132">
        <ele>3416</ele>
        <time>2021-08-06 12:42:19</time>
      </trkpt>
      <trkpt lat="37.05248" lon="-3.3132">
        <ele>3415.8</ele>
        <time>2021-08-06 12:42:20</time>
      </trkpt>
      <trkpt lat="37.05248" lon="-3.31321">
        <ele>3415.8</ele>
        <time>2021-08-06 12:42:21</time>
      </trkpt>
      <trkpt lat="37.05248" lon="-3.31322">
        <ele>3415.4</ele>
        <time>2021-08-06 12:42:22</time>
      </trkpt>
      <trkpt lat="37.05247" lon="-3.31322">
        <ele>3415.2</ele>
        <time>2021-08-06 12:42:23</time>
      </trkpt>
      <trkpt lat="37.05247" lon="-3.31323">
        <ele>3415</ele>
        <time>2021-08-06 12:42:24</time>
      </trkpt>
      <trkpt lat="37.05247" lon="-3.31324">
        <ele>3414.6</ele>
        <time>2021-08-06 12:42:25</time>
      </trkpt>
      <trkpt lat="37.05247" lon="-3.31324">
        <ele>3414.4</ele>
        <time>2021-08-06 12:42:26</time>
      </trkpt>
      <trkpt lat="37.05246" lon="-3.31325">
        <ele>3414.2</ele>
        <time>2021-08-06 12:42:27</time>
      </trkpt>
      <trkpt lat="37.05245" lon="-3.31325">
        <ele>3414.2</ele>
        <time>2021-08-06 12:42:28</time>
      </trkpt>
      <trkpt lat="37.05245" lon="-3.31325">
        <ele>3414</ele>
        <time>2021-08-06 12:42:29</time>
      </trkpt>
      <trkpt lat="37.05244" lon="-3.31326">
        <ele>3413.8</ele>
        <time>2021-08-06 12:42:30</time>
      </trkpt>
      <trkpt lat="37.05244" lon="-3.31327">
        <ele>3413.6</ele>
        <time>2021-08-06 12:42:31</time>
      </trkpt>
      <trkpt lat="37.05245" lon="-3.31327">
        <ele>3413.4</ele>
        <time>2021-08-06 12:42:32</time>
      </trkpt>
      <trkpt lat="37.05245" lon="-3.31327">
        <ele>3413.2</ele>
        <time>2021-08-06 12:42:33</time>
      </trkpt>
      <trkpt lat="37.05246" lon="-3.31328">
        <ele>3412.8</ele>
        <time>2021-08-06 12:42:34</time>
      </trkpt>
      <trkpt lat="37.05246" lon="-3.31329">
        <ele>3412.6</ele>
        <time>2021-08-06 12:42:35</time>
      </trkpt>
      <trkpt lat="37.05246" lon="-3.31329">
        <ele>3412.6</ele>
        <time>2021-08-06 12:42:36</time>
      </trkpt>
      <trkpt lat="37.05245" lon="-3.3133">
        <ele>3412.4</ele>
        <time>2021-08-06 12:42:37</time>
      </trkpt>
      <trkpt lat="37.05244" lon="-3.3133">
        <ele>3412.2</ele>
        <time>2021-08-06 12:42:38</time>
      </trkpt>
      <trkpt lat="37.05244" lon="-3.31331">
        <ele>3412</ele>
        <time>2021-08-06 12:42:39</time>
      </trkpt>
      <trkpt lat="37.05243" lon="-3.31331">
        <ele>3411.8</ele>
        <time>2021-08-06 12:42:40</time>
      </trkpt>
      <trkpt lat="37.05243" lon="-3.31332">
        <ele>3411.6</ele>
        <time>2021-08-06 12:42:41</time>
      </trkpt>
      <trkpt lat="37.05242" lon="-3.31333">
        <ele>3411.4</ele>
        <time>2021-08-06 12:42:42</time>
      </trkpt>
      <trkpt lat="37.05242" lon="-3.31333">
        <ele>3411.2</ele>
        <time>2021-08-06 12:42:43</time>
      </trkpt>
      <trkpt lat="37.05242" lon="-3.31333">
        <ele>3411</ele>
        <time>2021-08-06 12:42:44</time>
      </trkpt>
      <trkpt lat="37.05241" lon="-3.31333">
        <ele>3411</ele>
        <time>2021-08-06 12:42:45</time>
      </trkpt>
      <trkpt lat="37.0524" lon="-3.31333">
        <ele>3410.8</ele>
        <time>2021-08-06 12:42:46</time>
      </trkpt>
      <trkpt lat="37.0524" lon="-3.31334">
        <ele>3410.6</ele>
        <time>2021-08-06 12:42:47</time>
      </trkpt>
      <trkpt lat="37.0524" lon="-3.31334">
        <ele>3410.4</ele>
        <time>2021-08-06 12:42:48</time>
      </trkpt>
      <trkpt lat="37.05239" lon="-3.31335">
        <ele>3410.2</ele>
        <time>2021-08-06 12:42:49</time>
      </trkpt>
      <trkpt lat="37.05239" lon="-3.31335">
        <ele>3410</ele>
        <time>2021-08-06 12:42:50</time>
      </trkpt>
      <trkpt lat="37.05239" lon="-3.31335">
        <ele>3409.8</ele>
        <time>2021-08-06 12:42:51</time>
      </trkpt>
      <trkpt lat="37.05238" lon="-3.31336">
        <ele>3409.6</ele>
        <time>2021-08-06 12:42:52</time>
      </trkpt>
      <trkpt lat="37.05238" lon="-3.31336">
        <ele>3409.6</ele>
        <time>2021-08-06 12:42:53</time>
      </trkpt>
      <trkpt lat="37.05237" lon="-3.31337">
        <ele>3409.4</ele>
        <time>2021-08-06 12:42:54</time>
      </trkpt>
      <trkpt lat="37.05237" lon="-3.31337">
        <ele>3409.2</ele>
        <time>2021-08-06 12:42:55</time>
      </trkpt>
      <trkpt lat="37.05237" lon="-3.31338">
        <ele>3409</ele>
        <time>2021-08-06 12:42:56</time>
      </trkpt>
      <trkpt lat="37.05237" lon="-3.31339">
        <ele>3408.8</ele>
        <time>2021-08-06 12:42:57</time>
      </trkpt>
      <trkpt lat="37.05237" lon="-3.31339">
        <ele>3408.6</ele>
        <time>2021-08-06 12:42:58</time>
      </trkpt>
      <trkpt lat="37.05238" lon="-3.31339">
        <ele>3408.4</ele>
        <time>2021-08-06 12:42:59</time>
      </trkpt>
      <trkpt lat="37.05239" lon="-3.3134">
        <ele>3408.2</ele>
        <time>2021-08-06 12:43:00</time>
      </trkpt>
      <trkpt lat="37.05239" lon="-3.3134">
        <ele>3407.8</ele>
        <time>2021-08-06 12:43:01</time>
      </trkpt>
      <trkpt lat="37.05239" lon="-3.3134">
        <ele>3407.6</ele>
        <time>2021-08-06 12:43:02</time>
      </trkpt>
      <trkpt lat="37.05239" lon="-3.31341">
        <ele>3407.6</ele>
        <time>2021-08-06 12:43:03</time>
      </trkpt>
      <trkpt lat="37.05239" lon="-3.31341">
        <ele>3407.6</ele>
        <time>2021-08-06 12:43:04</time>
      </trkpt>
      <trkpt lat="37.05239" lon="-3.31342">
        <ele>3407.4</ele>
        <time>2021-08-06 12:43:05</time>
      </trkpt>
      <trkpt lat="37.05238" lon="-3.31343">
        <ele>3407.2</ele>
        <time>2021-08-06 12:43:06</time>
      </trkpt>
      <trkpt lat="37.05238" lon="-3.31343">
        <ele>3407.2</ele>
        <time>2021-08-06 12:43:07</time>
      </trkpt>
      <trkpt lat="37.05237" lon="-3.31344">
        <ele>3407</ele>
        <time>2021-08-06 12:43:08</time>
      </trkpt>
      <trkpt lat="37.05236" lon="-3.31344">
        <ele>3406.8</ele>
        <time>2021-08-06 12:43:09</time>
      </trkpt>
      <trkpt lat="37.05235" lon="-3.31344">
        <ele>3406.6</ele>
        <time>2021-08-06 12:43:10</time>
      </trkpt>
      <trkpt lat="37.05235" lon="-3.31345">
        <ele>3406.4</ele>
        <time>2021-08-06 12:43:11</time>
      </trkpt>
      <trkpt lat="37.05234" lon="-3.31345">
        <ele>3406.4</ele>
        <time>2021-08-06 12:43:12</time>
      </trkpt>
      <trkpt lat="37.05234" lon="-3.31345">
        <ele>3406</ele>
        <time>2021-08-06 12:43:13</time>
      </trkpt>
      <trkpt lat="37.05234" lon="-3.31345">
        <ele>3405.8</ele>
        <time>2021-08-06 12:43:14</time>
      </trkpt>
      <trkpt lat="37.05235" lon="-3.31345">
        <ele>3405.6</ele>
        <time>2021-08-06 12:43:15</time>
      </trkpt>
      <trkpt lat="37.05235" lon="-3.31345">
        <ele>3405.2</ele>
        <time>2021-08-06 12:43:16</time>
      </trkpt>
      <trkpt lat="37.05236" lon="-3.31345">
        <ele>3405</ele>
        <time>2021-08-06 12:43:17</time>
      </trkpt>
      <trkpt lat="37.05236" lon="-3.31345">
        <ele>3404.8</ele>
        <time>2021-08-06 12:43:18</time>
      </trkpt>
      <trkpt lat="37.05236" lon="-3.31346">
        <ele>3404.6</ele>
        <time>2021-08-06 12:43:19</time>
      </trkpt>
      <trkpt lat="37.05236" lon="-3.31346">
        <ele>3404.4</ele>
        <time>2021-08-06 12:43:20</time>
      </trkpt>
      <trkpt lat="37.05236" lon="-3.31346">
        <ele>3404.6</ele>
        <time>2021-08-06 12:43:21</time>
      </trkpt>
      <trkpt lat="37.05236" lon="-3.31347">
        <ele>3404.4</ele>
        <time>2021-08-06 12:43:22</time>
      </trkpt>
      <trkpt lat="37.05235" lon="-3.31347">
        <ele>3404.4</ele>
        <time>2021-08-06 12:43:23</time>
      </trkpt>
      <trkpt lat="37.05235" lon="-3.31348">
        <ele>3404.2</ele>
        <time>2021-08-06 12:43:24</time>
      </trkpt>
      <trkpt lat="37.05235" lon="-3.31349">
        <ele>3404</ele>
        <time>2021-08-06 12:43:25</time>
      </trkpt>
      <trkpt lat="37.05234" lon="-3.3135">
        <ele>3403.8</ele>
        <time>2021-08-06 12:43:26</time>
      </trkpt>
      <trkpt lat="37.05234" lon="-3.3135">
        <ele>3403.6</ele>
        <time>2021-08-06 12:43:27</time>
      </trkpt>
      <trkpt lat="37.05235" lon="-3.31351">
        <ele>3403.4</ele>
        <time>2021-08-06 12:43:28</time>
      </trkpt>
      <trkpt lat="37.05235" lon="-3.31351">
        <ele>3403.2</ele>
        <time>2021-08-06 12:43:29</time>
      </trkpt>
      <trkpt lat="37.05235" lon="-3.31352">
        <ele>3403</ele>
        <time>2021-08-06 12:43:30</time>
      </trkpt>
      <trkpt lat="37.05235" lon="-3.31352">
        <ele>3402.8</ele>
        <time>2021-08-06 12:43:31</time>
      </trkpt>
      <trkpt lat="37.05235" lon="-3.31353">
        <ele>3402.8</ele>
        <time>2021-08-06 12:43:32</time>
      </trkpt>
      <trkpt lat="37.05235" lon="-3.31353">
        <ele>3402.8</ele>
        <time>2021-08-06 12:43:33</time>
      </trkpt>
      <trkpt lat="37.05235" lon="-3.31354">
        <ele>3402.8</ele>
        <time>2021-08-06 12:43:34</time>
      </trkpt>
      <trkpt lat="37.05235" lon="-3.31354">
        <ele>3402.4</ele>
        <time>2021-08-06 12:43:35</time>
      </trkpt>
      <trkpt lat="37.05234" lon="-3.31355">
        <ele>3401.8</ele>
        <time>2021-08-06 12:43:36</time>
      </trkpt>
      <trkpt lat="37.05234" lon="-3.31355">
        <ele>3401.4</ele>
        <time>2021-08-06 12:43:37</time>
      </trkpt>
      <trkpt lat="37.05233" lon="-3.31355">
        <ele>3401.4</ele>
        <time>2021-08-06 12:43:38</time>
      </trkpt>
      <trkpt lat="37.05233" lon="-3.31355">
        <ele>3401.2</ele>
        <time>2021-08-06 12:43:39</time>
      </trkpt>
      <trkpt lat="37.05232" lon="-3.31355">
        <ele>3400.8</ele>
        <time>2021-08-06 12:43:40</time>
      </trkpt>
      <trkpt lat="37.05232" lon="-3.31355">
        <ele>3400.8</ele>
        <time>2021-08-06 12:43:41</time>
      </trkpt>
      <trkpt lat="37.05232" lon="-3.31356">
        <ele>3400.6</ele>
        <time>2021-08-06 12:43:42</time>
      </trkpt>
      <trkpt lat="37.05232" lon="-3.31357">
        <ele>3400.6</ele>
        <time>2021-08-06 12:43:43</time>
      </trkpt>
      <trkpt lat="37.05231" lon="-3.31357">
        <ele>3400.6</ele>
        <time>2021-08-06 12:43:44</time>
      </trkpt>
      <trkpt lat="37.05231" lon="-3.31358">
        <ele>3400.4</ele>
        <time>2021-08-06 12:43:45</time>
      </trkpt>
      <trkpt lat="37.0523" lon="-3.31358">
        <ele>3400.4</ele>
        <time>2021-08-06 12:43:46</time>
      </trkpt>
      <trkpt lat="37.05229" lon="-3.31359">
        <ele>3400.2</ele>
        <time>2021-08-06 12:43:47</time>
      </trkpt>
      <trkpt lat="37.05228" lon="-3.31359">
        <ele>3399.8</ele>
        <time>2021-08-06 12:43:48</time>
      </trkpt>
      <trkpt lat="37.05228" lon="-3.3136">
        <ele>3399.4</ele>
        <time>2021-08-06 12:43:49</time>
      </trkpt>
      <trkpt lat="37.05228" lon="-3.31361">
        <ele>3398.8</ele>
        <time>2021-08-06 12:43:50</time>
      </trkpt>
      <trkpt lat="37.05228" lon="-3.31362">
        <ele>3398.4</ele>
        <time>2021-08-06 12:43:51</time>
      </trkpt>
      <trkpt lat="37.05228" lon="-3.31363">
        <ele>3398.2</ele>
        <time>2021-08-06 12:43:52</time>
      </trkpt>
      <trkpt lat="37.05228" lon="-3.31364">
        <ele>3398.2</ele>
        <time>2021-08-06 12:43:53</time>
      </trkpt>
      <trkpt lat="37.05228" lon="-3.31364">
        <ele>3398</ele>
        <time>2021-08-06 12:43:54</time>
      </trkpt>
      <trkpt lat="37.05228" lon="-3.31365">
        <ele>3398</ele>
        <time>2021-08-06 12:43:55</time>
      </trkpt>
      <trkpt lat="37.05229" lon="-3.31365">
        <ele>3397.8</ele>
        <time>2021-08-06 12:43:56</time>
      </trkpt>
      <trkpt lat="37.05229" lon="-3.31366">
        <ele>3397.8</ele>
        <time>2021-08-06 12:43:57</time>
      </trkpt>
      <trkpt lat="37.05229" lon="-3.31367">
        <ele>3397.6</ele>
        <time>2021-08-06 12:43:58</time>
      </trkpt>
      <trkpt lat="37.05229" lon="-3.31368">
        <ele>3397.2</ele>
        <time>2021-08-06 12:43:59</time>
      </trkpt>
      <trkpt lat="37.05229" lon="-3.31369">
        <ele>3397</ele>
        <time>2021-08-06 12:44:00</time>
      </trkpt>
      <trkpt lat="37.05229" lon="-3.3137">
        <ele>3396.6</ele>
        <time>2021-08-06 12:44:01</time>
      </trkpt>
      <trkpt lat="37.05229" lon="-3.31371">
        <ele>3396.2</ele>
        <time>2021-08-06 12:44:02</time>
      </trkpt>
      <trkpt lat="37.05229" lon="-3.31371">
        <ele>3396</ele>
        <time>2021-08-06 12:44:03</time>
      </trkpt>
      <trkpt lat="37.0523" lon="-3.31371">
        <ele>3395.8</ele>
        <time>2021-08-06 12:44:04</time>
      </trkpt>
      <trkpt lat="37.05229" lon="-3.31372">
        <ele>3395.8</ele>
        <time>2021-08-06 12:44:05</time>
      </trkpt>
      <trkpt lat="37.05229" lon="-3.31373">
        <ele>3395.6</ele>
        <time>2021-08-06 12:44:06</time>
      </trkpt>
      <trkpt lat="37.05229" lon="-3.31373">
        <ele>3395.4</ele>
        <time>2021-08-06 12:44:07</time>
      </trkpt>
      <trkpt lat="37.05229" lon="-3.31374">
        <ele>3395.4</ele>
        <time>2021-08-06 12:44:08</time>
      </trkpt>
      <trkpt lat="37.05228" lon="-3.31375">
        <ele>3395.2</ele>
        <time>2021-08-06 12:44:09</time>
      </trkpt>
      <trkpt lat="37.05228" lon="-3.31375">
        <ele>3395.2</ele>
        <time>2021-08-06 12:44:10</time>
      </trkpt>
      <trkpt lat="37.05227" lon="-3.31375">
        <ele>3395</ele>
        <time>2021-08-06 12:44:11</time>
      </trkpt>
      <trkpt lat="37.05227" lon="-3.31375">
        <ele>3394.8</ele>
        <time>2021-08-06 12:44:12</time>
      </trkpt>
      <trkpt lat="37.05226" lon="-3.31375">
        <ele>3394.2</ele>
        <time>2021-08-06 12:44:13</time>
      </trkpt>
      <trkpt lat="37.05225" lon="-3.31375">
        <ele>3393.8</ele>
        <time>2021-08-06 12:44:14</time>
      </trkpt>
      <trkpt lat="37.05225" lon="-3.31376">
        <ele>3393.4</ele>
        <time>2021-08-06 12:44:15</time>
      </trkpt>
      <trkpt lat="37.05225" lon="-3.31376">
        <ele>3393.2</ele>
        <time>2021-08-06 12:44:16</time>
      </trkpt>
      <trkpt lat="37.05225" lon="-3.31376">
        <ele>3393</ele>
        <time>2021-08-06 12:44:17</time>
      </trkpt>
      <trkpt lat="37.05225" lon="-3.31376">
        <ele>3392.8</ele>
        <time>2021-08-06 12:44:18</time>
      </trkpt>
      <trkpt lat="37.05226" lon="-3.31376">
        <ele>3392.6</ele>
        <time>2021-08-06 12:44:19</time>
      </trkpt>
      <trkpt lat="37.05226" lon="-3.31375">
        <ele>3392.6</ele>
        <time>2021-08-06 12:44:20</time>
      </trkpt>
      <trkpt lat="37.05226" lon="-3.31376">
        <ele>3392.2</ele>
        <time>2021-08-06 12:44:21</time>
      </trkpt>
      <trkpt lat="37.05226" lon="-3.31376">
        <ele>3391.8</ele>
        <time>2021-08-06 12:44:22</time>
      </trkpt>
      <trkpt lat="37.05227" lon="-3.31376">
        <ele>3391.6</ele>
        <time>2021-08-06 12:44:23</time>
      </trkpt>
      <trkpt lat="37.05227" lon="-3.31376">
        <ele>3391.6</ele>
        <time>2021-08-06 12:44:24</time>
      </trkpt>
      <trkpt lat="37.05227" lon="-3.31376">
        <ele>3391.4</ele>
        <time>2021-08-06 12:44:25</time>
      </trkpt>
      <trkpt lat="37.05228" lon="-3.31377">
        <ele>3391.2</ele>
        <time>2021-08-06 12:44:26</time>
      </trkpt>
      <trkpt lat="37.05228" lon="-3.31377">
        <ele>3391.2</ele>
        <time>2021-08-06 12:44:27</time>
      </trkpt>
      <trkpt lat="37.05228" lon="-3.31377">
        <ele>3391</ele>
        <time>2021-08-06 12:44:28</time>
      </trkpt>
      <trkpt lat="37.05228" lon="-3.31378">
        <ele>3390.8</ele>
        <time>2021-08-06 12:44:29</time>
      </trkpt>
      <trkpt lat="37.05228" lon="-3.31379">
        <ele>3390.8</ele>
        <time>2021-08-06 12:44:30</time>
      </trkpt>
      <trkpt lat="37.05229" lon="-3.31379">
        <ele>3390.8</ele>
        <time>2021-08-06 12:44:31</time>
      </trkpt>
      <trkpt lat="37.05228" lon="-3.3138">
        <ele>3390.6</ele>
        <time>2021-08-06 12:44:32</time>
      </trkpt>
      <trkpt lat="37.05228" lon="-3.31381">
        <ele>3390.6</ele>
        <time>2021-08-06 12:44:33</time>
      </trkpt>
      <trkpt lat="37.05228" lon="-3.31381">
        <ele>3390.6</ele>
        <time>2021-08-06 12:44:34</time>
      </trkpt>
      <trkpt lat="37.05228" lon="-3.31382">
        <ele>3390.6</ele>
        <time>2021-08-06 12:44:35</time>
      </trkpt>
      <trkpt lat="37.05228" lon="-3.31383">
        <ele>3390.4</ele>
        <time>2021-08-06 12:44:36</time>
      </trkpt>
      <trkpt lat="37.05228" lon="-3.31383">
        <ele>3390.2</ele>
        <time>2021-08-06 12:44:37</time>
      </trkpt>
      <trkpt lat="37.05228" lon="-3.31383">
        <ele>3390</ele>
        <time>2021-08-06 12:44:38</time>
      </trkpt>
      <trkpt lat="37.05227" lon="-3.31384">
        <ele>3390</ele>
        <time>2021-08-06 12:44:39</time>
      </trkpt>
      <trkpt lat="37.05227" lon="-3.31383">
        <ele>3389.6</ele>
        <time>2021-08-06 12:44:40</time>
      </trkpt>
      <trkpt lat="37.05226" lon="-3.31384">
        <ele>3389.6</ele>
        <time>2021-08-06 12:44:41</time>
      </trkpt>
      <trkpt lat="37.05226" lon="-3.31384">
        <ele>3389.4</ele>
        <time>2021-08-06 12:44:42</time>
      </trkpt>
      <trkpt lat="37.05225" lon="-3.31384">
        <ele>3389.2</ele>
        <time>2021-08-06 12:44:43</time>
      </trkpt>
      <trkpt lat="37.05225" lon="-3.31384">
        <ele>3389.2</ele>
        <time>2021-08-06 12:44:44</time>
      </trkpt>
      <trkpt lat="37.05225" lon="-3.31385">
        <ele>3388.8</ele>
        <time>2021-08-06 12:44:45</time>
      </trkpt>
      <trkpt lat="37.05224" lon="-3.31385">
        <ele>3388.6</ele>
        <time>2021-08-06 12:44:46</time>
      </trkpt>
      <trkpt lat="37.05224" lon="-3.31385">
        <ele>3388.6</ele>
        <time>2021-08-06 12:44:47</time>
      </trkpt>
      <trkpt lat="37.05224" lon="-3.31385">
        <ele>3388.4</ele>
        <time>2021-08-06 12:44:48</time>
      </trkpt>
      <trkpt lat="37.05224" lon="-3.31386">
        <ele>3388.4</ele>
        <time>2021-08-06 12:44:49</time>
      </trkpt>
      <trkpt lat="37.05224" lon="-3.31386">
        <ele>3388.2</ele>
        <time>2021-08-06 12:44:50</time>
      </trkpt>
      <trkpt lat="37.05225" lon="-3.31387">
        <ele>3388</ele>
        <time>2021-08-06 12:44:51</time>
      </trkpt>
      <trkpt lat="37.05225" lon="-3.31388">
        <ele>3387.6</ele>
        <time>2021-08-06 12:44:52</time>
      </trkpt>
      <trkpt lat="37.05225" lon="-3.31389">
        <ele>3387.2</ele>
        <time>2021-08-06 12:44:53</time>
      </trkpt>
      <trkpt lat="37.05225" lon="-3.31389">
        <ele>3386.8</ele>
        <time>2021-08-06 12:44:54</time>
      </trkpt>
      <trkpt lat="37.05225" lon="-3.3139">
        <ele>3386.6</ele>
        <time>2021-08-06 12:44:55</time>
      </trkpt>
      <trkpt lat="37.05225" lon="-3.3139">
        <ele>3386.6</ele>
        <time>2021-08-06 12:44:56</time>
      </trkpt>
      <trkpt lat="37.05225" lon="-3.31391">
        <ele>3386.4</ele>
        <time>2021-08-06 12:44:57</time>
      </trkpt>
      <trkpt lat="37.05225" lon="-3.31391">
        <ele>3386.4</ele>
        <time>2021-08-06 12:44:58</time>
      </trkpt>
      <trkpt lat="37.05226" lon="-3.31391">
        <ele>3386.2</ele>
        <time>2021-08-06 12:44:59</time>
      </trkpt>
      <trkpt lat="37.05226" lon="-3.31392">
        <ele>3386</ele>
        <time>2021-08-06 12:45:00</time>
      </trkpt>
      <trkpt lat="37.05226" lon="-3.31392">
        <ele>3386</ele>
        <time>2021-08-06 12:45:01</time>
      </trkpt>
      <trkpt lat="37.05226" lon="-3.31392">
        <ele>3385.6</ele>
        <time>2021-08-06 12:45:02</time>
      </trkpt>
      <trkpt lat="37.05226" lon="-3.31393">
        <ele>3385.4</ele>
        <time>2021-08-06 12:45:03</time>
      </trkpt>
      <trkpt lat="37.05226" lon="-3.31394">
        <ele>3385.2</ele>
        <time>2021-08-06 12:45:04</time>
      </trkpt>
      <trkpt lat="37.05226" lon="-3.31394">
        <ele>3385</ele>
        <time>2021-08-06 12:45:05</time>
      </trkpt>
      <trkpt lat="37.05226" lon="-3.31394">
        <ele>3385</ele>
        <time>2021-08-06 12:45:06</time>
      </trkpt>
      <trkpt lat="37.05227" lon="-3.31394">
        <ele>3384.8</ele>
        <time>2021-08-06 12:45:07</time>
      </trkpt>
      <trkpt lat="37.05227" lon="-3.31395">
        <ele>3384.4</ele>
        <time>2021-08-06 12:45:08</time>
      </trkpt>
      <trkpt lat="37.05227" lon="-3.31395">
        <ele>3384.2</ele>
        <time>2021-08-06 12:45:09</time>
      </trkpt>
      <trkpt lat="37.05227" lon="-3.31396">
        <ele>3384.2</ele>
        <time>2021-08-06 12:45:10</time>
      </trkpt>
      <trkpt lat="37.05228" lon="-3.31397">
        <ele>3384</ele>
        <time>2021-08-06 12:45:11</time>
      </trkpt>
      <trkpt lat="37.05228" lon="-3.31398">
        <ele>3384</ele>
        <time>2021-08-06 12:45:12</time>
      </trkpt>
      <trkpt lat="37.05228" lon="-3.31399">
        <ele>3383.8</ele>
        <time>2021-08-06 12:45:13</time>
      </trkpt>
      <trkpt lat="37.05228" lon="-3.314">
        <ele>3383.6</ele>
        <time>2021-08-06 12:45:14</time>
      </trkpt>
      <trkpt lat="37.05227" lon="-3.31401">
        <ele>3383.6</ele>
        <time>2021-08-06 12:45:15</time>
      </trkpt>
      <trkpt lat="37.05228" lon="-3.314">
        <ele>3383.2</ele>
        <time>2021-08-06 12:45:16</time>
      </trkpt>
      <trkpt lat="37.05228" lon="-3.314">
        <ele>3383.2</ele>
        <time>2021-08-06 12:45:17</time>
      </trkpt>
      <trkpt lat="37.05227" lon="-3.31401">
        <ele>3382.8</ele>
        <time>2021-08-06 12:45:18</time>
      </trkpt>
      <trkpt lat="37.05227" lon="-3.31401">
        <ele>3382.6</ele>
        <time>2021-08-06 12:45:19</time>
      </trkpt>
      <trkpt lat="37.05226" lon="-3.31401">
        <ele>3382.4</ele>
        <time>2021-08-06 12:45:20</time>
      </trkpt>
      <trkpt lat="37.05225" lon="-3.31402">
        <ele>3382.2</ele>
        <time>2021-08-06 12:45:21</time>
      </trkpt>
      <trkpt lat="37.05225" lon="-3.31402">
        <ele>3381.6</ele>
        <time>2021-08-06 12:45:22</time>
      </trkpt>
      <trkpt lat="37.05226" lon="-3.31403">
        <ele>3381.2</ele>
        <time>2021-08-06 12:45:23</time>
      </trkpt>
      <trkpt lat="37.05226" lon="-3.31403">
        <ele>3380.8</ele>
        <time>2021-08-06 12:45:24</time>
      </trkpt>
      <trkpt lat="37.05226" lon="-3.31404">
        <ele>3380.4</ele>
        <time>2021-08-06 12:45:25</time>
      </trkpt>
      <trkpt lat="37.05227" lon="-3.31404">
        <ele>3380.4</ele>
        <time>2021-08-06 12:45:26</time>
      </trkpt>
      <trkpt lat="37.05227" lon="-3.31405">
        <ele>3380.2</ele>
        <time>2021-08-06 12:45:27</time>
      </trkpt>
      <trkpt lat="37.05227" lon="-3.31405">
        <ele>3379.8</ele>
        <time>2021-08-06 12:45:28</time>
      </trkpt>
      <trkpt lat="37.05227" lon="-3.31406">
        <ele>3379.6</ele>
        <time>2021-08-06 12:45:29</time>
      </trkpt>
      <trkpt lat="37.05227" lon="-3.31406">
        <ele>3379.6</ele>
        <time>2021-08-06 12:45:30</time>
      </trkpt>
      <trkpt lat="37.05227" lon="-3.31407">
        <ele>3379.6</ele>
        <time>2021-08-06 12:45:31</time>
      </trkpt>
      <trkpt lat="37.05226" lon="-3.31407">
        <ele>3379.6</ele>
        <time>2021-08-06 12:45:32</time>
      </trkpt>
      <trkpt lat="37.05226" lon="-3.31407">
        <ele>3379.4</ele>
        <time>2021-08-06 12:45:33</time>
      </trkpt>
      <trkpt lat="37.05225" lon="-3.31408">
        <ele>3379.4</ele>
        <time>2021-08-06 12:45:34</time>
      </trkpt>
      <trkpt lat="37.05225" lon="-3.31408">
        <ele>3379.4</ele>
        <time>2021-08-06 12:45:35</time>
      </trkpt>
      <trkpt lat="37.05224" lon="-3.31408">
        <ele>3379.4</ele>
        <time>2021-08-06 12:45:36</time>
      </trkpt>
      <trkpt lat="37.05223" lon="-3.31408">
        <ele>3379.2</ele>
        <time>2021-08-06 12:45:37</time>
      </trkpt>
      <trkpt lat="37.05223" lon="-3.31408">
        <ele>3378.8</ele>
        <time>2021-08-06 12:45:38</time>
      </trkpt>
      <trkpt lat="37.05223" lon="-3.31408">
        <ele>3378.6</ele>
        <time>2021-08-06 12:45:39</time>
      </trkpt>
      <trkpt lat="37.05224" lon="-3.31409">
        <ele>3378.4</ele>
        <time>2021-08-06 12:45:40</time>
      </trkpt>
      <trkpt lat="37.05224" lon="-3.31409">
        <ele>3378.2</ele>
        <time>2021-08-06 12:45:41</time>
      </trkpt>
      <trkpt lat="37.05225" lon="-3.31409">
        <ele>3378.2</ele>
        <time>2021-08-06 12:45:42</time>
      </trkpt>
      <trkpt lat="37.05225" lon="-3.3141">
        <ele>3378</ele>
        <time>2021-08-06 12:45:43</time>
      </trkpt>
      <trkpt lat="37.05225" lon="-3.31411">
        <ele>3378</ele>
        <time>2021-08-06 12:45:44</time>
      </trkpt>
      <trkpt lat="37.05225" lon="-3.31412">
        <ele>3378</ele>
        <time>2021-08-06 12:45:45</time>
      </trkpt>
      <trkpt lat="37.05225" lon="-3.31412">
        <ele>3377.2</ele>
        <time>2021-08-06 12:45:46</time>
      </trkpt>
      <trkpt lat="37.05226" lon="-3.31412">
        <ele>3376.8</ele>
        <time>2021-08-06 12:45:47</time>
      </trkpt>
      <trkpt lat="37.05226" lon="-3.31412">
        <ele>3376.6</ele>
        <time>2021-08-06 12:45:48</time>
      </trkpt>
      <trkpt lat="37.05226" lon="-3.31413">
        <ele>3376.6</ele>
        <time>2021-08-06 12:45:49</time>
      </trkpt>
      <trkpt lat="37.05227" lon="-3.31413">
        <ele>3376.6</ele>
        <time>2021-08-06 12:45:50</time>
      </trkpt>
      <trkpt lat="37.05227" lon="-3.31413">
        <ele>3376.4</ele>
        <time>2021-08-06 12:45:51</time>
      </trkpt>
      <trkpt lat="37.05227" lon="-3.31413">
        <ele>3376.2</ele>
        <time>2021-08-06 12:45:52</time>
      </trkpt>
      <trkpt lat="37.05228" lon="-3.31414">
        <ele>3375.8</ele>
        <time>2021-08-06 12:45:53</time>
      </trkpt>
      <trkpt lat="37.05228" lon="-3.31414">
        <ele>3375.8</ele>
        <time>2021-08-06 12:45:54</time>
      </trkpt>
      <trkpt lat="37.05228" lon="-3.31415">
        <ele>3375.6</ele>
        <time>2021-08-06 12:45:55</time>
      </trkpt>
      <trkpt lat="37.05228" lon="-3.31415">
        <ele>3375.6</ele>
        <time>2021-08-06 12:45:56</time>
      </trkpt>
      <trkpt lat="37.05228" lon="-3.31416">
        <ele>3375.6</ele>
        <time>2021-08-06 12:45:57</time>
      </trkpt>
      <trkpt lat="37.05228" lon="-3.31417">
        <ele>3375.6</ele>
        <time>2021-08-06 12:45:58</time>
      </trkpt>
      <trkpt lat="37.05228" lon="-3.31417">
        <ele>3375.4</ele>
        <time>2021-08-06 12:45:59</time>
      </trkpt>
      <trkpt lat="37.05228" lon="-3.31418">
        <ele>3375</ele>
        <time>2021-08-06 12:46:00</time>
      </trkpt>
      <trkpt lat="37.05227" lon="-3.31418">
        <ele>3374.8</ele>
        <time>2021-08-06 12:46:01</time>
      </trkpt>
      <trkpt lat="37.05226" lon="-3.31419">
        <ele>3374.8</ele>
        <time>2021-08-06 12:46:02</time>
      </trkpt>
      <trkpt lat="37.05226" lon="-3.3142">
        <ele>3374.6</ele>
        <time>2021-08-06 12:46:03</time>
      </trkpt>
      <trkpt lat="37.05225" lon="-3.3142">
        <ele>3374.6</ele>
        <time>2021-08-06 12:46:04</time>
      </trkpt>
      <trkpt lat="37.05225" lon="-3.31421">
        <ele>3374.2</ele>
        <time>2021-08-06 12:46:05</time>
      </trkpt>
      <trkpt lat="37.05224" lon="-3.31421">
        <ele>3374</ele>
        <time>2021-08-06 12:46:06</time>
      </trkpt>
      <trkpt lat="37.05224" lon="-3.31421">
        <ele>3374</ele>
        <time>2021-08-06 12:46:07</time>
      </trkpt>
      <trkpt lat="37.05224" lon="-3.31421">
        <ele>3374</ele>
        <time>2021-08-06 12:46:08</time>
      </trkpt>
      <trkpt lat="37.05224" lon="-3.31422">
        <ele>3373.6</ele>
        <time>2021-08-06 12:46:09</time>
      </trkpt>
      <trkpt lat="37.05223" lon="-3.31422">
        <ele>3373.2</ele>
        <time>2021-08-06 12:46:10</time>
      </trkpt>
      <trkpt lat="37.05223" lon="-3.31423">
        <ele>3372.6</ele>
        <time>2021-08-06 12:46:11</time>
      </trkpt>
      <trkpt lat="37.05222" lon="-3.31423">
        <ele>3372.4</ele>
        <time>2021-08-06 12:46:12</time>
      </trkpt>
      <trkpt lat="37.05222" lon="-3.31423">
        <ele>3372</ele>
        <time>2021-08-06 12:46:13</time>
      </trkpt>
      <trkpt lat="37.05222" lon="-3.31424">
        <ele>3371.8</ele>
        <time>2021-08-06 12:46:14</time>
      </trkpt>
      <trkpt lat="37.05222" lon="-3.31424">
        <ele>3371.8</ele>
        <time>2021-08-06 12:46:15</time>
      </trkpt>
      <trkpt lat="37.05222" lon="-3.31425">
        <ele>3371.4</ele>
        <time>2021-08-06 12:46:16</time>
      </trkpt>
      <trkpt lat="37.05223" lon="-3.31425">
        <ele>3371.4</ele>
        <time>2021-08-06 12:46:17</time>
      </trkpt>
      <trkpt lat="37.05223" lon="-3.31425">
        <ele>3371.4</ele>
        <time>2021-08-06 12:46:18</time>
      </trkpt>
      <trkpt lat="37.05223" lon="-3.31426">
        <ele>3371.2</ele>
        <time>2021-08-06 12:46:19</time>
      </trkpt>
      <trkpt lat="37.05223" lon="-3.31426">
        <ele>3371</ele>
        <time>2021-08-06 12:46:20</time>
      </trkpt>
      <trkpt lat="37.05223" lon="-3.31426">
        <ele>3370.6</ele>
        <time>2021-08-06 12:46:21</time>
      </trkpt>
      <trkpt lat="37.05223" lon="-3.31426">
        <ele>3370.4</ele>
        <time>2021-08-06 12:46:22</time>
      </trkpt>
      <trkpt lat="37.05223" lon="-3.31426">
        <ele>3370.2</ele>
        <time>2021-08-06 12:46:23</time>
      </trkpt>
      <trkpt lat="37.05223" lon="-3.31426">
        <ele>3370.2</ele>
        <time>2021-08-06 12:46:24</time>
      </trkpt>
      <trkpt lat="37.05223" lon="-3.31426">
        <ele>3370</ele>
        <time>2021-08-06 12:46:25</time>
      </trkpt>
      <trkpt lat="37.05222" lon="-3.31426">
        <ele>3370</ele>
        <time>2021-08-06 12:46:26</time>
      </trkpt>
      <trkpt lat="37.05221" lon="-3.31427">
        <ele>3370.2</ele>
        <time>2021-08-06 12:46:27</time>
      </trkpt>
      <trkpt lat="37.0522" lon="-3.31427">
        <ele>3370.2</ele>
        <time>2021-08-06 12:46:28</time>
      </trkpt>
      <trkpt lat="37.05221" lon="-3.31428">
        <ele>3369.6</ele>
        <time>2021-08-06 12:46:29</time>
      </trkpt>
      <trkpt lat="37.05221" lon="-3.31429">
        <ele>3369.2</ele>
        <time>2021-08-06 12:46:30</time>
      </trkpt>
      <trkpt lat="37.05221" lon="-3.31429">
        <ele>3369</ele>
        <time>2021-08-06 12:46:31</time>
      </trkpt>
      <trkpt lat="37.05221" lon="-3.3143">
        <ele>3368.8</ele>
        <time>2021-08-06 12:46:32</time>
      </trkpt>
      <trkpt lat="37.05221" lon="-3.3143">
        <ele>3368.6</ele>
        <time>2021-08-06 12:46:33</time>
      </trkpt>
      <trkpt lat="37.05222" lon="-3.31431">
        <ele>3368.4</ele>
        <time>2021-08-06 12:46:34</time>
      </trkpt>
      <trkpt lat="37.05222" lon="-3.31432">
        <ele>3368</ele>
        <time>2021-08-06 12:46:35</time>
      </trkpt>
      <trkpt lat="37.05222" lon="-3.31433">
        <ele>3367.8</ele>
        <time>2021-08-06 12:46:36</time>
      </trkpt>
      <trkpt lat="37.05222" lon="-3.31433">
        <ele>3367.8</ele>
        <time>2021-08-06 12:46:37</time>
      </trkpt>
      <trkpt lat="37.05222" lon="-3.31434">
        <ele>3367.6</ele>
        <time>2021-08-06 12:46:38</time>
      </trkpt>
      <trkpt lat="37.05222" lon="-3.31435">
        <ele>3367.6</ele>
        <time>2021-08-06 12:46:39</time>
      </trkpt>
      <trkpt lat="37.05222" lon="-3.31435">
        <ele>3367.4</ele>
        <time>2021-08-06 12:46:40</time>
      </trkpt>
      <trkpt lat="37.05223" lon="-3.31436">
        <ele>3367.4</ele>
        <time>2021-08-06 12:46:41</time>
      </trkpt>
      <trkpt lat="37.05222" lon="-3.31436">
        <ele>3367.2</ele>
        <time>2021-08-06 12:46:42</time>
      </trkpt>
      <trkpt lat="37.05223" lon="-3.31437">
        <ele>3367.2</ele>
        <time>2021-08-06 12:46:43</time>
      </trkpt>
      <trkpt lat="37.05223" lon="-3.31437">
        <ele>3366.8</ele>
        <time>2021-08-06 12:46:44</time>
      </trkpt>
      <trkpt lat="37.05223" lon="-3.31438">
        <ele>3366.4</ele>
        <time>2021-08-06 12:46:45</time>
      </trkpt>
      <trkpt lat="37.05224" lon="-3.31438">
        <ele>3366.2</ele>
        <time>2021-08-06 12:46:46</time>
      </trkpt>
      <trkpt lat="37.05224" lon="-3.31438">
        <ele>3366</ele>
        <time>2021-08-06 12:46:47</time>
      </trkpt>
      <trkpt lat="37.05223" lon="-3.31438">
        <ele>3365.8</ele>
        <time>2021-08-06 12:46:48</time>
      </trkpt>
      <trkpt lat="37.05223" lon="-3.31439">
        <ele>3365.6</ele>
        <time>2021-08-06 12:46:49</time>
      </trkpt>
      <trkpt lat="37.05222" lon="-3.31439">
        <ele>3365.4</ele>
        <time>2021-08-06 12:46:50</time>
      </trkpt>
      <trkpt lat="37.05222" lon="-3.3144">
        <ele>3365.2</ele>
        <time>2021-08-06 12:46:51</time>
      </trkpt>
      <trkpt lat="37.05221" lon="-3.3144">
        <ele>3365.2</ele>
        <time>2021-08-06 12:46:52</time>
      </trkpt>
      <trkpt lat="37.05221" lon="-3.31441">
        <ele>3365</ele>
        <time>2021-08-06 12:46:53</time>
      </trkpt>
      <trkpt lat="37.0522" lon="-3.31441">
        <ele>3364.8</ele>
        <time>2021-08-06 12:46:54</time>
      </trkpt>
      <trkpt lat="37.0522" lon="-3.31442">
        <ele>3364.4</ele>
        <time>2021-08-06 12:46:55</time>
      </trkpt>
      <trkpt lat="37.0522" lon="-3.31442">
        <ele>3364.4</ele>
        <time>2021-08-06 12:46:56</time>
      </trkpt>
      <trkpt lat="37.0522" lon="-3.31443">
        <ele>3364.2</ele>
        <time>2021-08-06 12:46:57</time>
      </trkpt>
      <trkpt lat="37.0522" lon="-3.31444">
        <ele>3363.6</ele>
        <time>2021-08-06 12:46:58</time>
      </trkpt>
      <trkpt lat="37.0522" lon="-3.31444">
        <ele>3363.2</ele>
        <time>2021-08-06 12:46:59</time>
      </trkpt>
      <trkpt lat="37.0522" lon="-3.31445">
        <ele>3363</ele>
        <time>2021-08-06 12:47:00</time>
      </trkpt>
      <trkpt lat="37.05219" lon="-3.31446">
        <ele>3362.8</ele>
        <time>2021-08-06 12:47:01</time>
      </trkpt>
      <trkpt lat="37.05219" lon="-3.31447">
        <ele>3362.6</ele>
        <time>2021-08-06 12:47:02</time>
      </trkpt>
      <trkpt lat="37.05218" lon="-3.31447">
        <ele>3362.4</ele>
        <time>2021-08-06 12:47:03</time>
      </trkpt>
      <trkpt lat="37.05217" lon="-3.31448">
        <ele>3361.8</ele>
        <time>2021-08-06 12:47:04</time>
      </trkpt>
      <trkpt lat="37.05217" lon="-3.31448">
        <ele>3361.6</ele>
        <time>2021-08-06 12:47:05</time>
      </trkpt>
      <trkpt lat="37.05217" lon="-3.31448">
        <ele>3361.4</ele>
        <time>2021-08-06 12:47:06</time>
      </trkpt>
      <trkpt lat="37.05216" lon="-3.31449">
        <ele>3361.2</ele>
        <time>2021-08-06 12:47:07</time>
      </trkpt>
      <trkpt lat="37.05216" lon="-3.3145">
        <ele>3360.8</ele>
        <time>2021-08-06 12:47:08</time>
      </trkpt>
      <trkpt lat="37.05216" lon="-3.3145">
        <ele>3360.8</ele>
        <time>2021-08-06 12:47:09</time>
      </trkpt>
      <trkpt lat="37.05215" lon="-3.3145">
        <ele>3360.6</ele>
        <time>2021-08-06 12:47:10</time>
      </trkpt>
      <trkpt lat="37.05214" lon="-3.3145">
        <ele>3360.4</ele>
        <time>2021-08-06 12:47:11</time>
      </trkpt>
      <trkpt lat="37.05214" lon="-3.3145">
        <ele>3360.2</ele>
        <time>2021-08-06 12:47:12</time>
      </trkpt>
      <trkpt lat="37.05213" lon="-3.3145">
        <ele>3360.2</ele>
        <time>2021-08-06 12:47:13</time>
      </trkpt>
      <trkpt lat="37.05213" lon="-3.3145">
        <ele>3360</ele>
        <time>2021-08-06 12:47:14</time>
      </trkpt>
      <trkpt lat="37.05213" lon="-3.31451">
        <ele>3360</ele>
        <time>2021-08-06 12:47:15</time>
      </trkpt>
      <trkpt lat="37.05213" lon="-3.31451">
        <ele>3359.8</ele>
        <time>2021-08-06 12:47:16</time>
      </trkpt>
      <trkpt lat="37.05214" lon="-3.31452">
        <ele>3359.6</ele>
        <time>2021-08-06 12:47:17</time>
      </trkpt>
      <trkpt lat="37.05214" lon="-3.31452">
        <ele>3359.4</ele>
        <time>2021-08-06 12:47:18</time>
      </trkpt>
      <trkpt lat="37.05214" lon="-3.31452">
        <ele>3359.4</ele>
        <time>2021-08-06 12:47:19</time>
      </trkpt>
      <trkpt lat="37.05215" lon="-3.31453">
        <ele>3359.4</ele>
        <time>2021-08-06 12:47:20</time>
      </trkpt>
      <trkpt lat="37.05215" lon="-3.31453">
        <ele>3359</ele>
        <time>2021-08-06 12:47:21</time>
      </trkpt>
      <trkpt lat="37.05214" lon="-3.31454">
        <ele>3359</ele>
        <time>2021-08-06 12:47:22</time>
      </trkpt>
      <trkpt lat="37.05214" lon="-3.31454">
        <ele>3358.8</ele>
        <time>2021-08-06 12:47:23</time>
      </trkpt>
      <trkpt lat="37.05214" lon="-3.31454">
        <ele>3358.8</ele>
        <time>2021-08-06 12:47:24</time>
      </trkpt>
      <trkpt lat="37.05213" lon="-3.31455">
        <ele>3358.6</ele>
        <time>2021-08-06 12:47:25</time>
      </trkpt>
      <trkpt lat="37.05213" lon="-3.31455">
        <ele>3358.4</ele>
        <time>2021-08-06 12:47:26</time>
      </trkpt>
      <trkpt lat="37.05212" lon="-3.31456">
        <ele>3358</ele>
        <time>2021-08-06 12:47:27</time>
      </trkpt>
      <trkpt lat="37.05211" lon="-3.31456">
        <ele>3357.6</ele>
        <time>2021-08-06 12:47:28</time>
      </trkpt>
      <trkpt lat="37.0521" lon="-3.31456">
        <ele>3357.4</ele>
        <time>2021-08-06 12:47:29</time>
      </trkpt>
      <trkpt lat="37.0521" lon="-3.31456">
        <ele>3357.4</ele>
        <time>2021-08-06 12:47:30</time>
      </trkpt>
      <trkpt lat="37.0521" lon="-3.31457">
        <ele>3357.2</ele>
        <time>2021-08-06 12:47:31</time>
      </trkpt>
      <trkpt lat="37.0521" lon="-3.31458">
        <ele>3356.8</ele>
        <time>2021-08-06 12:47:32</time>
      </trkpt>
      <trkpt lat="37.0521" lon="-3.31458">
        <ele>3356.4</ele>
        <time>2021-08-06 12:47:33</time>
      </trkpt>
      <trkpt lat="37.0521" lon="-3.31459">
        <ele>3356.2</ele>
        <time>2021-08-06 12:47:34</time>
      </trkpt>
      <trkpt lat="37.0521" lon="-3.3146">
        <ele>3355.8</ele>
        <time>2021-08-06 12:47:35</time>
      </trkpt>
      <trkpt lat="37.0521" lon="-3.31461">
        <ele>3355.6</ele>
        <time>2021-08-06 12:47:36</time>
      </trkpt>
      <trkpt lat="37.0521" lon="-3.31461">
        <ele>3355.6</ele>
        <time>2021-08-06 12:47:37</time>
      </trkpt>
      <trkpt lat="37.05211" lon="-3.31461">
        <ele>3355.4</ele>
        <time>2021-08-06 12:47:38</time>
      </trkpt>
      <trkpt lat="37.0521" lon="-3.31461">
        <ele>3355.4</ele>
        <time>2021-08-06 12:47:39</time>
      </trkpt>
      <trkpt lat="37.0521" lon="-3.31461">
        <ele>3355.2</ele>
        <time>2021-08-06 12:47:40</time>
      </trkpt>
      <trkpt lat="37.0521" lon="-3.31462">
        <ele>3355</ele>
        <time>2021-08-06 12:47:41</time>
      </trkpt>
      <trkpt lat="37.0521" lon="-3.31462">
        <ele>3354.8</ele>
        <time>2021-08-06 12:47:42</time>
      </trkpt>
      <trkpt lat="37.05209" lon="-3.31463">
        <ele>3354.8</ele>
        <time>2021-08-06 12:47:43</time>
      </trkpt>
      <trkpt lat="37.05209" lon="-3.31463">
        <ele>3354.8</ele>
        <time>2021-08-06 12:47:44</time>
      </trkpt>
      <trkpt lat="37.05208" lon="-3.31463">
        <ele>3354.8</ele>
        <time>2021-08-06 12:47:45</time>
      </trkpt>
      <trkpt lat="37.05208" lon="-3.31464">
        <ele>3354.6</ele>
        <time>2021-08-06 12:47:46</time>
      </trkpt>
      <trkpt lat="37.05207" lon="-3.31464">
        <ele>3354.4</ele>
        <time>2021-08-06 12:47:47</time>
      </trkpt>
      <trkpt lat="37.05208" lon="-3.31465">
        <ele>3354.4</ele>
        <time>2021-08-06 12:47:48</time>
      </trkpt>
      <trkpt lat="37.05208" lon="-3.31465">
        <ele>3354.2</ele>
        <time>2021-08-06 12:47:49</time>
      </trkpt>
      <trkpt lat="37.05208" lon="-3.31465">
        <ele>3354</ele>
        <time>2021-08-06 12:47:50</time>
      </trkpt>
      <trkpt lat="37.05209" lon="-3.31465">
        <ele>3353.8</ele>
        <time>2021-08-06 12:47:51</time>
      </trkpt>
      <trkpt lat="37.05209" lon="-3.31465">
        <ele>3353.6</ele>
        <time>2021-08-06 12:47:52</time>
      </trkpt>
      <trkpt lat="37.0521" lon="-3.31465">
        <ele>3353.4</ele>
        <time>2021-08-06 12:47:53</time>
      </trkpt>
      <trkpt lat="37.0521" lon="-3.31465">
        <ele>3353.2</ele>
        <time>2021-08-06 12:47:54</time>
      </trkpt>
      <trkpt lat="37.0521" lon="-3.31465">
        <ele>3353</ele>
        <time>2021-08-06 12:47:55</time>
      </trkpt>
      <trkpt lat="37.0521" lon="-3.31465">
        <ele>3352.8</ele>
        <time>2021-08-06 12:47:56</time>
      </trkpt>
      <trkpt lat="37.0521" lon="-3.31465">
        <ele>3352.6</ele>
        <time>2021-08-06 12:47:57</time>
      </trkpt>
      <trkpt lat="37.0521" lon="-3.31464">
        <ele>3352.2</ele>
        <time>2021-08-06 12:47:58</time>
      </trkpt>
      <trkpt lat="37.0521" lon="-3.31464">
        <ele>3352</ele>
        <time>2021-08-06 12:47:59</time>
      </trkpt>
      <trkpt lat="37.0521" lon="-3.31464">
        <ele>3352.2</ele>
        <time>2021-08-06 12:48:00</time>
      </trkpt>
      <trkpt lat="37.05211" lon="-3.31464">
        <ele>3352</ele>
        <time>2021-08-06 12:48:01</time>
      </trkpt>
      <trkpt lat="37.05211" lon="-3.31465">
        <ele>3352</ele>
        <time>2021-08-06 12:48:02</time>
      </trkpt>
      <trkpt lat="37.05212" lon="-3.31464">
        <ele>3352</ele>
        <time>2021-08-06 12:48:03</time>
      </trkpt>
      <trkpt lat="37.05212" lon="-3.31464">
        <ele>3352</ele>
        <time>2021-08-06 12:48:04</time>
      </trkpt>
      <trkpt lat="37.05213" lon="-3.31464">
        <ele>3352</ele>
        <time>2021-08-06 12:48:05</time>
      </trkpt>
      <trkpt lat="37.05213" lon="-3.31464">
        <ele>3351.8</ele>
        <time>2021-08-06 12:48:06</time>
      </trkpt>
      <trkpt lat="37.05214" lon="-3.31465">
        <ele>3351.4</ele>
        <time>2021-08-06 12:48:07</time>
      </trkpt>
      <trkpt lat="37.05214" lon="-3.31465">
        <ele>3351.2</ele>
        <time>2021-08-06 12:48:08</time>
      </trkpt>
      <trkpt lat="37.05214" lon="-3.31466">
        <ele>3351</ele>
        <time>2021-08-06 12:48:09</time>
      </trkpt>
      <trkpt lat="37.05214" lon="-3.31468">
        <ele>3351</ele>
        <time>2021-08-06 12:48:10</time>
      </trkpt>
      <trkpt lat="37.05214" lon="-3.31469">
        <ele>3351</ele>
        <time>2021-08-06 12:48:11</time>
      </trkpt>
      <trkpt lat="37.05214" lon="-3.3147">
        <ele>3351</ele>
        <time>2021-08-06 12:48:12</time>
      </trkpt>
      <trkpt lat="37.05214" lon="-3.31471">
        <ele>3351</ele>
        <time>2021-08-06 12:48:13</time>
      </trkpt>
      <trkpt lat="37.05214" lon="-3.31471">
        <ele>3351</ele>
        <time>2021-08-06 12:48:14</time>
      </trkpt>
      <trkpt lat="37.05213" lon="-3.31471">
        <ele>3351</ele>
        <time>2021-08-06 12:48:15</time>
      </trkpt>
      <trkpt lat="37.05213" lon="-3.31472">
        <ele>3350.8</ele>
        <time>2021-08-06 12:48:16</time>
      </trkpt>
      <trkpt lat="37.05213" lon="-3.31472">
        <ele>3350.6</ele>
        <time>2021-08-06 12:48:17</time>
      </trkpt>
      <trkpt lat="37.05212" lon="-3.31472">
        <ele>3350.2</ele>
        <time>2021-08-06 12:48:18</time>
      </trkpt>
      <trkpt lat="37.05212" lon="-3.31472">
        <ele>3350.2</ele>
        <time>2021-08-06 12:48:19</time>
      </trkpt>
      <trkpt lat="37.05212" lon="-3.31473">
        <ele>3350.2</ele>
        <time>2021-08-06 12:48:20</time>
      </trkpt>
      <trkpt lat="37.05211" lon="-3.31473">
        <ele>3350.2</ele>
        <time>2021-08-06 12:48:21</time>
      </trkpt>
      <trkpt lat="37.05211" lon="-3.31474">
        <ele>3350.2</ele>
        <time>2021-08-06 12:48:22</time>
      </trkpt>
      <trkpt lat="37.05212" lon="-3.31474">
        <ele>3350</ele>
        <time>2021-08-06 12:48:23</time>
      </trkpt>
      <trkpt lat="37.05212" lon="-3.31475">
        <ele>3349.6</ele>
        <time>2021-08-06 12:48:24</time>
      </trkpt>
      <trkpt lat="37.05212" lon="-3.31476">
        <ele>3349.2</ele>
        <time>2021-08-06 12:48:25</time>
      </trkpt>
      <trkpt lat="37.05212" lon="-3.31477">
        <ele>3348.8</ele>
        <time>2021-08-06 12:48:26</time>
      </trkpt>
      <trkpt lat="37.05212" lon="-3.31477">
        <ele>3348.2</ele>
        <time>2021-08-06 12:48:27</time>
      </trkpt>
      <trkpt lat="37.05211" lon="-3.31478">
        <ele>3348</ele>
        <time>2021-08-06 12:48:28</time>
      </trkpt>
      <trkpt lat="37.05211" lon="-3.31478">
        <ele>3347.8</ele>
        <time>2021-08-06 12:48:29</time>
      </trkpt>
      <trkpt lat="37.0521" lon="-3.31479">
        <ele>3347.6</ele>
        <time>2021-08-06 12:48:30</time>
      </trkpt>
      <trkpt lat="37.0521" lon="-3.3148">
        <ele>3347.4</ele>
        <time>2021-08-06 12:48:31</time>
      </trkpt>
      <trkpt lat="37.0521" lon="-3.31481">
        <ele>3347.4</ele>
        <time>2021-08-06 12:48:32</time>
      </trkpt>
      <trkpt lat="37.0521" lon="-3.31481">
        <ele>3347.2</ele>
        <time>2021-08-06 12:48:33</time>
      </trkpt>
      <trkpt lat="37.0521" lon="-3.31481">
        <ele>3347.2</ele>
        <time>2021-08-06 12:48:34</time>
      </trkpt>
      <trkpt lat="37.0521" lon="-3.31481">
        <ele>3347</ele>
        <time>2021-08-06 12:48:35</time>
      </trkpt>
      <trkpt lat="37.0521" lon="-3.31481">
        <ele>3346.8</ele>
        <time>2021-08-06 12:48:36</time>
      </trkpt>
      <trkpt lat="37.05211" lon="-3.31482">
        <ele>3346.6</ele>
        <time>2021-08-06 12:48:37</time>
      </trkpt>
      <trkpt lat="37.05212" lon="-3.31482">
        <ele>3346.2</ele>
        <time>2021-08-06 12:48:38</time>
      </trkpt>
      <trkpt lat="37.05212" lon="-3.31482">
        <ele>3346</ele>
        <time>2021-08-06 12:48:39</time>
      </trkpt>
      <trkpt lat="37.05213" lon="-3.31482">
        <ele>3345.6</ele>
        <time>2021-08-06 12:48:40</time>
      </trkpt>
      <trkpt lat="37.05213" lon="-3.31482">
        <ele>3345.2</ele>
        <time>2021-08-06 12:48:41</time>
      </trkpt>
      <trkpt lat="37.05213" lon="-3.31483">
        <ele>3345</ele>
        <time>2021-08-06 12:48:42</time>
      </trkpt>
      <trkpt lat="37.05214" lon="-3.31483">
        <ele>3344.6</ele>
        <time>2021-08-06 12:48:43</time>
      </trkpt>
      <trkpt lat="37.05214" lon="-3.31484">
        <ele>3344.4</ele>
        <time>2021-08-06 12:48:44</time>
      </trkpt>
      <trkpt lat="37.05213" lon="-3.31485">
        <ele>3344</ele>
        <time>2021-08-06 12:48:45</time>
      </trkpt>
      <trkpt lat="37.05213" lon="-3.31485">
        <ele>3343.8</ele>
        <time>2021-08-06 12:48:46</time>
      </trkpt>
      <trkpt lat="37.05212" lon="-3.31486">
        <ele>3343.6</ele>
        <time>2021-08-06 12:48:47</time>
      </trkpt>
      <trkpt lat="37.05212" lon="-3.31486">
        <ele>3343.4</ele>
        <time>2021-08-06 12:48:48</time>
      </trkpt>
      <trkpt lat="37.05212" lon="-3.31487">
        <ele>3343.2</ele>
        <time>2021-08-06 12:48:49</time>
      </trkpt>
      <trkpt lat="37.05212" lon="-3.31487">
        <ele>3343.2</ele>
        <time>2021-08-06 12:48:50</time>
      </trkpt>
      <trkpt lat="37.05212" lon="-3.31488">
        <ele>3343</ele>
        <time>2021-08-06 12:48:51</time>
      </trkpt>
      <trkpt lat="37.05212" lon="-3.31488">
        <ele>3343</ele>
        <time>2021-08-06 12:48:52</time>
      </trkpt>
      <trkpt lat="37.05213" lon="-3.31488">
        <ele>3342.8</ele>
        <time>2021-08-06 12:48:53</time>
      </trkpt>
      <trkpt lat="37.05212" lon="-3.31489">
        <ele>3342.8</ele>
        <time>2021-08-06 12:48:54</time>
      </trkpt>
      <trkpt lat="37.05212" lon="-3.3149">
        <ele>3342.8</ele>
        <time>2021-08-06 12:48:55</time>
      </trkpt>
      <trkpt lat="37.05211" lon="-3.3149">
        <ele>3342</ele>
        <time>2021-08-06 12:48:56</time>
      </trkpt>
      <trkpt lat="37.05211" lon="-3.31491">
        <ele>3341.6</ele>
        <time>2021-08-06 12:48:57</time>
      </trkpt>
      <trkpt lat="37.05211" lon="-3.31491">
        <ele>3341.4</ele>
        <time>2021-08-06 12:48:58</time>
      </trkpt>
      <trkpt lat="37.05212" lon="-3.31492">
        <ele>3341.2</ele>
        <time>2021-08-06 12:48:59</time>
      </trkpt>
      <trkpt lat="37.05211" lon="-3.31493">
        <ele>3341</ele>
        <time>2021-08-06 12:49:00</time>
      </trkpt>
      <trkpt lat="37.05212" lon="-3.31493">
        <ele>3341</ele>
        <time>2021-08-06 12:49:01</time>
      </trkpt>
      <trkpt lat="37.05212" lon="-3.31493">
        <ele>3340.8</ele>
        <time>2021-08-06 12:49:02</time>
      </trkpt>
      <trkpt lat="37.05213" lon="-3.31494">
        <ele>3340.6</ele>
        <time>2021-08-06 12:49:03</time>
      </trkpt>
      <trkpt lat="37.05213" lon="-3.31494">
        <ele>3340.2</ele>
        <time>2021-08-06 12:49:04</time>
      </trkpt>
      <trkpt lat="37.05213" lon="-3.31495">
        <ele>3340</ele>
        <time>2021-08-06 12:49:05</time>
      </trkpt>
      <trkpt lat="37.05213" lon="-3.31496">
        <ele>3339.8</ele>
        <time>2021-08-06 12:49:06</time>
      </trkpt>
      <trkpt lat="37.05214" lon="-3.31496">
        <ele>3339.8</ele>
        <time>2021-08-06 12:49:07</time>
      </trkpt>
      <trkpt lat="37.05214" lon="-3.31497">
        <ele>3339.4</ele>
        <time>2021-08-06 12:49:08</time>
      </trkpt>
      <trkpt lat="37.05214" lon="-3.31497">
        <ele>3339.4</ele>
        <time>2021-08-06 12:49:09</time>
      </trkpt>
      <trkpt lat="37.05214" lon="-3.31498">
        <ele>3339.2</ele>
        <time>2021-08-06 12:49:10</time>
      </trkpt>
      <trkpt lat="37.05215" lon="-3.31498">
        <ele>3339.2</ele>
        <time>2021-08-06 12:49:11</time>
      </trkpt>
      <trkpt lat="37.05215" lon="-3.31499">
        <ele>3339</ele>
        <time>2021-08-06 12:49:12</time>
      </trkpt>
      <trkpt lat="37.05215" lon="-3.315">
        <ele>3338.8</ele>
        <time>2021-08-06 12:49:13</time>
      </trkpt>
      <trkpt lat="37.05215" lon="-3.31501">
        <ele>3338.4</ele>
        <time>2021-08-06 12:49:14</time>
      </trkpt>
      <trkpt lat="37.05216" lon="-3.31502">
        <ele>3338.2</ele>
        <time>2021-08-06 12:49:15</time>
      </trkpt>
      <trkpt lat="37.05216" lon="-3.31503">
        <ele>3338</ele>
        <time>2021-08-06 12:49:16</time>
      </trkpt>
      <trkpt lat="37.05217" lon="-3.31503">
        <ele>3337.6</ele>
        <time>2021-08-06 12:49:17</time>
      </trkpt>
      <trkpt lat="37.05217" lon="-3.31503">
        <ele>3337.2</ele>
        <time>2021-08-06 12:49:18</time>
      </trkpt>
      <trkpt lat="37.05218" lon="-3.31504">
        <ele>3337</ele>
        <time>2021-08-06 12:49:19</time>
      </trkpt>
      <trkpt lat="37.05218" lon="-3.31504">
        <ele>3337</ele>
        <time>2021-08-06 12:49:20</time>
      </trkpt>
      <trkpt lat="37.05219" lon="-3.31505">
        <ele>3337</ele>
        <time>2021-08-06 12:49:21</time>
      </trkpt>
      <trkpt lat="37.05219" lon="-3.31505">
        <ele>3337</ele>
        <time>2021-08-06 12:49:22</time>
      </trkpt>
      <trkpt lat="37.05219" lon="-3.31506">
        <ele>3337</ele>
        <time>2021-08-06 12:49:23</time>
      </trkpt>
      <trkpt lat="37.05219" lon="-3.31507">
        <ele>3337</ele>
        <time>2021-08-06 12:49:24</time>
      </trkpt>
      <trkpt lat="37.05218" lon="-3.31508">
        <ele>3337</ele>
        <time>2021-08-06 12:49:25</time>
      </trkpt>
      <trkpt lat="37.05217" lon="-3.31509">
        <ele>3336.6</ele>
        <time>2021-08-06 12:49:26</time>
      </trkpt>
      <trkpt lat="37.05217" lon="-3.31509">
        <ele>3336.4</ele>
        <time>2021-08-06 12:49:27</time>
      </trkpt>
      <trkpt lat="37.05216" lon="-3.3151">
        <ele>3336.4</ele>
        <time>2021-08-06 12:49:28</time>
      </trkpt>
      <trkpt lat="37.05215" lon="-3.3151">
        <ele>3336.2</ele>
        <time>2021-08-06 12:49:29</time>
      </trkpt>
      <trkpt lat="37.05215" lon="-3.3151">
        <ele>3336.2</ele>
        <time>2021-08-06 12:49:30</time>
      </trkpt>
      <trkpt lat="37.05214" lon="-3.31511">
        <ele>3336.2</ele>
        <time>2021-08-06 12:49:31</time>
      </trkpt>
      <trkpt lat="37.05213" lon="-3.31511">
        <ele>3335.8</ele>
        <time>2021-08-06 12:49:32</time>
      </trkpt>
      <trkpt lat="37.05212" lon="-3.31511">
        <ele>3335.6</ele>
        <time>2021-08-06 12:49:33</time>
      </trkpt>
      <trkpt lat="37.0521" lon="-3.31511">
        <ele>3335.4</ele>
        <time>2021-08-06 12:49:34</time>
      </trkpt>
      <trkpt lat="37.05209" lon="-3.31511">
        <ele>3335.4</ele>
        <time>2021-08-06 12:49:35</time>
      </trkpt>
      <trkpt lat="37.05208" lon="-3.31512">
        <ele>3335.4</ele>
        <time>2021-08-06 12:49:36</time>
      </trkpt>
      <trkpt lat="37.05207" lon="-3.31512">
        <ele>3335</ele>
        <time>2021-08-06 12:49:37</time>
      </trkpt>
      <trkpt lat="37.05206" lon="-3.31511">
        <ele>3334.6</ele>
        <time>2021-08-06 12:49:38</time>
      </trkpt>
      <trkpt lat="37.05205" lon="-3.31511">
        <ele>3334.6</ele>
        <time>2021-08-06 12:49:39</time>
      </trkpt>
      <trkpt lat="37.05204" lon="-3.31511">
        <ele>3334.4</ele>
        <time>2021-08-06 12:49:40</time>
      </trkpt>
      <trkpt lat="37.05203" lon="-3.3151">
        <ele>3334.4</ele>
        <time>2021-08-06 12:49:41</time>
      </trkpt>
      <trkpt lat="37.05202" lon="-3.3151">
        <ele>3334.4</ele>
        <time>2021-08-06 12:49:42</time>
      </trkpt>
      <trkpt lat="37.05201" lon="-3.31509">
        <ele>3334.2</ele>
        <time>2021-08-06 12:49:43</time>
      </trkpt>
      <trkpt lat="37.052" lon="-3.31509">
        <ele>3334.4</ele>
        <time>2021-08-06 12:49:44</time>
      </trkpt>
      <trkpt lat="37.05199" lon="-3.31509">
        <ele>3334.4</ele>
        <time>2021-08-06 12:49:45</time>
      </trkpt>
      <trkpt lat="37.05198" lon="-3.31508">
        <ele>3334.2</ele>
        <time>2021-08-06 12:49:46</time>
      </trkpt>
      <trkpt lat="37.05197" lon="-3.31508">
        <ele>3334.2</ele>
        <time>2021-08-06 12:49:47</time>
      </trkpt>
      <trkpt lat="37.05196" lon="-3.31509">
        <ele>3334.2</ele>
        <time>2021-08-06 12:49:48</time>
      </trkpt>
      <trkpt lat="37.05195" lon="-3.31509">
        <ele>3333.8</ele>
        <time>2021-08-06 12:49:49</time>
      </trkpt>
      <trkpt lat="37.05195" lon="-3.31509">
        <ele>3334</ele>
        <time>2021-08-06 12:49:50</time>
      </trkpt>
      <trkpt lat="37.05194" lon="-3.31509">
        <ele>3333.6</ele>
        <time>2021-08-06 12:49:51</time>
      </trkpt>
      <trkpt lat="37.05193" lon="-3.31509">
        <ele>3333.2</ele>
        <time>2021-08-06 12:49:52</time>
      </trkpt>
      <trkpt lat="37.05193" lon="-3.31509">
        <ele>3333.2</ele>
        <time>2021-08-06 12:49:53</time>
      </trkpt>
      <trkpt lat="37.05192" lon="-3.3151">
        <ele>3333.2</ele>
        <time>2021-08-06 12:49:54</time>
      </trkpt>
      <trkpt lat="37.05192" lon="-3.3151">
        <ele>3332.8</ele>
        <time>2021-08-06 12:49:55</time>
      </trkpt>
      <trkpt lat="37.05192" lon="-3.31511">
        <ele>3332.8</ele>
        <time>2021-08-06 12:49:56</time>
      </trkpt>
      <trkpt lat="37.05192" lon="-3.31512">
        <ele>3332.6</ele>
        <time>2021-08-06 12:49:57</time>
      </trkpt>
      <trkpt lat="37.05192" lon="-3.31512">
        <ele>3332.8</ele>
        <time>2021-08-06 12:49:58</time>
      </trkpt>
      <trkpt lat="37.05192" lon="-3.31512">
        <ele>3332.8</ele>
        <time>2021-08-06 12:49:59</time>
      </trkpt>
      <trkpt lat="37.05192" lon="-3.31512">
        <ele>3332.8</ele>
        <time>2021-08-06 12:50:00</time>
      </trkpt>
      <trkpt lat="37.05192" lon="-3.31513">
        <ele>3332.6</ele>
        <time>2021-08-06 12:50:01</time>
      </trkpt>
      <trkpt lat="37.05192" lon="-3.31513">
        <ele>3332.8</ele>
        <time>2021-08-06 12:50:02</time>
      </trkpt>
      <trkpt lat="37.05191" lon="-3.31514">
        <ele>3332.8</ele>
        <time>2021-08-06 12:50:03</time>
      </trkpt>
      <trkpt lat="37.05191" lon="-3.31514">
        <ele>3332.6</ele>
        <time>2021-08-06 12:50:04</time>
      </trkpt>
      <trkpt lat="37.0519" lon="-3.31515">
        <ele>3332.2</ele>
        <time>2021-08-06 12:50:05</time>
      </trkpt>
      <trkpt lat="37.05189" lon="-3.31515">
        <ele>3332</ele>
        <time>2021-08-06 12:50:06</time>
      </trkpt>
      <trkpt lat="37.05189" lon="-3.31516">
        <ele>3331.6</ele>
        <time>2021-08-06 12:50:07</time>
      </trkpt>
      <trkpt lat="37.05188" lon="-3.31517">
        <ele>3331.2</ele>
        <time>2021-08-06 12:50:08</time>
      </trkpt>
      <trkpt lat="37.05187" lon="-3.31517">
        <ele>3330.8</ele>
        <time>2021-08-06 12:50:09</time>
      </trkpt>
      <trkpt lat="37.05187" lon="-3.31518">
        <ele>3330.4</ele>
        <time>2021-08-06 12:50:10</time>
      </trkpt>
      <trkpt lat="37.05186" lon="-3.31518">
        <ele>3330.2</ele>
        <time>2021-08-06 12:50:11</time>
      </trkpt>
      <trkpt lat="37.05186" lon="-3.31519">
        <ele>3330</ele>
        <time>2021-08-06 12:50:12</time>
      </trkpt>
      <trkpt lat="37.05186" lon="-3.31519">
        <ele>3330</ele>
        <time>2021-08-06 12:50:13</time>
      </trkpt>
      <trkpt lat="37.05186" lon="-3.31519">
        <ele>3330</ele>
        <time>2021-08-06 12:50:14</time>
      </trkpt>
      <trkpt lat="37.05187" lon="-3.31519">
        <ele>3329.8</ele>
        <time>2021-08-06 12:50:15</time>
      </trkpt>
      <trkpt lat="37.05187" lon="-3.31519">
        <ele>3329.8</ele>
        <time>2021-08-06 12:50:16</time>
      </trkpt>
      <trkpt lat="37.05187" lon="-3.31519">
        <ele>3329.4</ele>
        <time>2021-08-06 12:50:17</time>
      </trkpt>
      <trkpt lat="37.05187" lon="-3.3152">
        <ele>3329.2</ele>
        <time>2021-08-06 12:50:18</time>
      </trkpt>
      <trkpt lat="37.05187" lon="-3.3152">
        <ele>3329.2</ele>
        <time>2021-08-06 12:50:19</time>
      </trkpt>
      <trkpt lat="37.05187" lon="-3.3152">
        <ele>3329</ele>
        <time>2021-08-06 12:50:20</time>
      </trkpt>
      <trkpt lat="37.05187" lon="-3.31521">
        <ele>3328.8</ele>
        <time>2021-08-06 12:50:21</time>
      </trkpt>
      <trkpt lat="37.05187" lon="-3.31522">
        <ele>3328.8</ele>
        <time>2021-08-06 12:50:22</time>
      </trkpt>
      <trkpt lat="37.05188" lon="-3.31522">
        <ele>3328.6</ele>
        <time>2021-08-06 12:50:23</time>
      </trkpt>
      <trkpt lat="37.05188" lon="-3.31522">
        <ele>3328.6</ele>
        <time>2021-08-06 12:50:24</time>
      </trkpt>
      <trkpt lat="37.05189" lon="-3.31522">
        <ele>3328.4</ele>
        <time>2021-08-06 12:50:25</time>
      </trkpt>
      <trkpt lat="37.0519" lon="-3.31523">
        <ele>3328</ele>
        <time>2021-08-06 12:50:26</time>
      </trkpt>
      <trkpt lat="37.0519" lon="-3.31523">
        <ele>3327.6</ele>
        <time>2021-08-06 12:50:27</time>
      </trkpt>
      <trkpt lat="37.05191" lon="-3.31523">
        <ele>3327.4</ele>
        <time>2021-08-06 12:50:28</time>
      </trkpt>
      <trkpt lat="37.05192" lon="-3.31524">
        <ele>3327.4</ele>
        <time>2021-08-06 12:50:29</time>
      </trkpt>
      <trkpt lat="37.05192" lon="-3.31524">
        <ele>3327.2</ele>
        <time>2021-08-06 12:50:30</time>
      </trkpt>
      <trkpt lat="37.05193" lon="-3.31525">
        <ele>3327.2</ele>
        <time>2021-08-06 12:50:31</time>
      </trkpt>
      <trkpt lat="37.05193" lon="-3.31525">
        <ele>3327</ele>
        <time>2021-08-06 12:50:32</time>
      </trkpt>
      <trkpt lat="37.05194" lon="-3.31525">
        <ele>3327</ele>
        <time>2021-08-06 12:50:33</time>
      </trkpt>
      <trkpt lat="37.05194" lon="-3.31525">
        <ele>3326.8</ele>
        <time>2021-08-06 12:50:34</time>
      </trkpt>
      <trkpt lat="37.05195" lon="-3.31525">
        <ele>3326.8</ele>
        <time>2021-08-06 12:50:35</time>
      </trkpt>
      <trkpt lat="37.05195" lon="-3.31525">
        <ele>3326.6</ele>
        <time>2021-08-06 12:50:36</time>
      </trkpt>
      <trkpt lat="37.05195" lon="-3.31526">
        <ele>3326.6</ele>
        <time>2021-08-06 12:50:37</time>
      </trkpt>
      <trkpt lat="37.05195" lon="-3.31526">
        <ele>3326</ele>
        <time>2021-08-06 12:50:38</time>
      </trkpt>
      <trkpt lat="37.05196" lon="-3.31527">
        <ele>3325.4</ele>
        <time>2021-08-06 12:50:39</time>
      </trkpt>
      <trkpt lat="37.05196" lon="-3.31527">
        <ele>3325.2</ele>
        <time>2021-08-06 12:50:40</time>
      </trkpt>
      <trkpt lat="37.05197" lon="-3.31527">
        <ele>3325</ele>
        <time>2021-08-06 12:50:41</time>
      </trkpt>
      <trkpt lat="37.05197" lon="-3.31528">
        <ele>3324.8</ele>
        <time>2021-08-06 12:50:42</time>
      </trkpt>
      <trkpt lat="37.05197" lon="-3.31528">
        <ele>3325</ele>
        <time>2021-08-06 12:50:43</time>
      </trkpt>
      <trkpt lat="37.05197" lon="-3.31529">
        <ele>3324.8</ele>
        <time>2021-08-06 12:50:44</time>
      </trkpt>
      <trkpt lat="37.05197" lon="-3.3153">
        <ele>3324.6</ele>
        <time>2021-08-06 12:50:45</time>
      </trkpt>
      <trkpt lat="37.05197" lon="-3.31531">
        <ele>3324.6</ele>
        <time>2021-08-06 12:50:46</time>
      </trkpt>
      <trkpt lat="37.05197" lon="-3.31531">
        <ele>3324.4</ele>
        <time>2021-08-06 12:50:47</time>
      </trkpt>
      <trkpt lat="37.05197" lon="-3.31532">
        <ele>3323.8</ele>
        <time>2021-08-06 12:50:48</time>
      </trkpt>
      <trkpt lat="37.05197" lon="-3.31533">
        <ele>3323.6</ele>
        <time>2021-08-06 12:50:49</time>
      </trkpt>
      <trkpt lat="37.05197" lon="-3.31533">
        <ele>3323.4</ele>
        <time>2021-08-06 12:50:50</time>
      </trkpt>
      <trkpt lat="37.05197" lon="-3.31533">
        <ele>3323.4</ele>
        <time>2021-08-06 12:50:51</time>
      </trkpt>
      <trkpt lat="37.05197" lon="-3.31534">
        <ele>3323.4</ele>
        <time>2021-08-06 12:50:52</time>
      </trkpt>
      <trkpt lat="37.05197" lon="-3.31534">
        <ele>3323</ele>
        <time>2021-08-06 12:50:53</time>
      </trkpt>
      <trkpt lat="37.05196" lon="-3.31534">
        <ele>3322.6</ele>
        <time>2021-08-06 12:50:54</time>
      </trkpt>
      <trkpt lat="37.05196" lon="-3.31535">
        <ele>3322.2</ele>
        <time>2021-08-06 12:50:55</time>
      </trkpt>
      <trkpt lat="37.05195" lon="-3.31536">
        <ele>3322</ele>
        <time>2021-08-06 12:50:56</time>
      </trkpt>
      <trkpt lat="37.05195" lon="-3.31536">
        <ele>3321.8</ele>
        <time>2021-08-06 12:50:57</time>
      </trkpt>
      <trkpt lat="37.05196" lon="-3.31536">
        <ele>3321.4</ele>
        <time>2021-08-06 12:50:58</time>
      </trkpt>
      <trkpt lat="37.05196" lon="-3.31537">
        <ele>3321.4</ele>
        <time>2021-08-06 12:50:59</time>
      </trkpt>
      <trkpt lat="37.05196" lon="-3.31537">
        <ele>3321.2</ele>
        <time>2021-08-06 12:51:00</time>
      </trkpt>
      <trkpt lat="37.05196" lon="-3.31538">
        <ele>3321.2</ele>
        <time>2021-08-06 12:51:01</time>
      </trkpt>
      <trkpt lat="37.05196" lon="-3.31538">
        <ele>3321.2</ele>
        <time>2021-08-06 12:51:02</time>
      </trkpt>
      <trkpt lat="37.05196" lon="-3.31538">
        <ele>3321</ele>
        <time>2021-08-06 12:51:03</time>
      </trkpt>
      <trkpt lat="37.05196" lon="-3.31538">
        <ele>3321</ele>
        <time>2021-08-06 12:51:04</time>
      </trkpt>
      <trkpt lat="37.05196" lon="-3.31539">
        <ele>3321</ele>
        <time>2021-08-06 12:51:05</time>
      </trkpt>
      <trkpt lat="37.05195" lon="-3.31539">
        <ele>3321</ele>
        <time>2021-08-06 12:51:06</time>
      </trkpt>
      <trkpt lat="37.05195" lon="-3.3154">
        <ele>3320.8</ele>
        <time>2021-08-06 12:51:07</time>
      </trkpt>
      <trkpt lat="37.05196" lon="-3.3154">
        <ele>3320.6</ele>
        <time>2021-08-06 12:51:08</time>
      </trkpt>
      <trkpt lat="37.05196" lon="-3.3154">
        <ele>3320.6</ele>
        <time>2021-08-06 12:51:09</time>
      </trkpt>
      <trkpt lat="37.05196" lon="-3.31541">
        <ele>3320.4</ele>
        <time>2021-08-06 12:51:10</time>
      </trkpt>
      <trkpt lat="37.05196" lon="-3.31542">
        <ele>3320.4</ele>
        <time>2021-08-06 12:51:11</time>
      </trkpt>
      <trkpt lat="37.05196" lon="-3.31542">
        <ele>3320.2</ele>
        <time>2021-08-06 12:51:12</time>
      </trkpt>
      <trkpt lat="37.05196" lon="-3.31543">
        <ele>3320.2</ele>
        <time>2021-08-06 12:51:13</time>
      </trkpt>
      <trkpt lat="37.05196" lon="-3.31544">
        <ele>3320.2</ele>
        <time>2021-08-06 12:51:14</time>
      </trkpt>
      <trkpt lat="37.05196" lon="-3.31544">
        <ele>3319.6</ele>
        <time>2021-08-06 12:51:15</time>
      </trkpt>
      <trkpt lat="37.05196" lon="-3.31545">
        <ele>3319</ele>
        <time>2021-08-06 12:51:16</time>
      </trkpt>
      <trkpt lat="37.05195" lon="-3.31545">
        <ele>3318.8</ele>
        <time>2021-08-06 12:51:17</time>
      </trkpt>
      <trkpt lat="37.05194" lon="-3.31546">
        <ele>3318.6</ele>
        <time>2021-08-06 12:51:18</time>
      </trkpt>
      <trkpt lat="37.05194" lon="-3.31546">
        <ele>3318.4</ele>
        <time>2021-08-06 12:51:19</time>
      </trkpt>
      <trkpt lat="37.05193" lon="-3.31546">
        <ele>3318.2</ele>
        <time>2021-08-06 12:51:20</time>
      </trkpt>
      <trkpt lat="37.05193" lon="-3.31546">
        <ele>3318</ele>
        <time>2021-08-06 12:51:21</time>
      </trkpt>
      <trkpt lat="37.05192" lon="-3.31547">
        <ele>3317.8</ele>
        <time>2021-08-06 12:51:22</time>
      </trkpt>
      <trkpt lat="37.05192" lon="-3.31547">
        <ele>3317.6</ele>
        <time>2021-08-06 12:51:23</time>
      </trkpt>
      <trkpt lat="37.05192" lon="-3.31548">
        <ele>3317.2</ele>
        <time>2021-08-06 12:51:24</time>
      </trkpt>
      <trkpt lat="37.05192" lon="-3.31548">
        <ele>3317</ele>
        <time>2021-08-06 12:51:25</time>
      </trkpt>
      <trkpt lat="37.05192" lon="-3.31549">
        <ele>3316.8</ele>
        <time>2021-08-06 12:51:26</time>
      </trkpt>
      <trkpt lat="37.05192" lon="-3.3155">
        <ele>3316.6</ele>
        <time>2021-08-06 12:51:27</time>
      </trkpt>
      <trkpt lat="37.05191" lon="-3.3155">
        <ele>3316.2</ele>
        <time>2021-08-06 12:51:28</time>
      </trkpt>
      <trkpt lat="37.05191" lon="-3.31551">
        <ele>3316.2</ele>
        <time>2021-08-06 12:51:29</time>
      </trkpt>
      <trkpt lat="37.0519" lon="-3.31551">
        <ele>3316.2</ele>
        <time>2021-08-06 12:51:30</time>
      </trkpt>
      <trkpt lat="37.0519" lon="-3.31551">
        <ele>3315.8</ele>
        <time>2021-08-06 12:51:31</time>
      </trkpt>
      <trkpt lat="37.0519" lon="-3.31551">
        <ele>3315.6</ele>
        <time>2021-08-06 12:51:32</time>
      </trkpt>
      <trkpt lat="37.0519" lon="-3.31552">
        <ele>3315.4</ele>
        <time>2021-08-06 12:51:33</time>
      </trkpt>
      <trkpt lat="37.05191" lon="-3.31552">
        <ele>3315.2</ele>
        <time>2021-08-06 12:51:34</time>
      </trkpt>
      <trkpt lat="37.05191" lon="-3.31552">
        <ele>3315</ele>
        <time>2021-08-06 12:51:35</time>
      </trkpt>
      <trkpt lat="37.05191" lon="-3.31553">
        <ele>3315</ele>
        <time>2021-08-06 12:51:36</time>
      </trkpt>
      <trkpt lat="37.05191" lon="-3.31553">
        <ele>3315</ele>
        <time>2021-08-06 12:51:37</time>
      </trkpt>
      <trkpt lat="37.05192" lon="-3.31553">
        <ele>3315</ele>
        <time>2021-08-06 12:51:38</time>
      </trkpt>
      <trkpt lat="37.05192" lon="-3.31554">
        <ele>3315</ele>
        <time>2021-08-06 12:51:39</time>
      </trkpt>
      <trkpt lat="37.05192" lon="-3.31555">
        <ele>3314.6</ele>
        <time>2021-08-06 12:51:40</time>
      </trkpt>
      <trkpt lat="37.05192" lon="-3.31556">
        <ele>3314.2</ele>
        <time>2021-08-06 12:51:41</time>
      </trkpt>
      <trkpt lat="37.05192" lon="-3.31557">
        <ele>3313.8</ele>
        <time>2021-08-06 12:51:42</time>
      </trkpt>
      <trkpt lat="37.05192" lon="-3.31558">
        <ele>3313.4</ele>
        <time>2021-08-06 12:51:43</time>
      </trkpt>
      <trkpt lat="37.05192" lon="-3.31559">
        <ele>3313.2</ele>
        <time>2021-08-06 12:51:44</time>
      </trkpt>
      <trkpt lat="37.05192" lon="-3.31559">
        <ele>3313</ele>
        <time>2021-08-06 12:51:45</time>
      </trkpt>
      <trkpt lat="37.05192" lon="-3.3156">
        <ele>3312.8</ele>
        <time>2021-08-06 12:51:46</time>
      </trkpt>
      <trkpt lat="37.05192" lon="-3.3156">
        <ele>3312.6</ele>
        <time>2021-08-06 12:51:47</time>
      </trkpt>
      <trkpt lat="37.05193" lon="-3.3156">
        <ele>3312.4</ele>
        <time>2021-08-06 12:51:48</time>
      </trkpt>
      <trkpt lat="37.05193" lon="-3.3156">
        <ele>3312.2</ele>
        <time>2021-08-06 12:51:49</time>
      </trkpt>
      <trkpt lat="37.05193" lon="-3.3156">
        <ele>3312</ele>
        <time>2021-08-06 12:51:50</time>
      </trkpt>
      <trkpt lat="37.05193" lon="-3.31561">
        <ele>3312</ele>
        <time>2021-08-06 12:51:51</time>
      </trkpt>
      <trkpt lat="37.05193" lon="-3.31561">
        <ele>3312</ele>
        <time>2021-08-06 12:51:52</time>
      </trkpt>
      <trkpt lat="37.05193" lon="-3.31562">
        <ele>3312</ele>
        <time>2021-08-06 12:51:53</time>
      </trkpt>
      <trkpt lat="37.05192" lon="-3.31563">
        <ele>3312</ele>
        <time>2021-08-06 12:51:54</time>
      </trkpt>
      <trkpt lat="37.05192" lon="-3.31563">
        <ele>3312</ele>
        <time>2021-08-06 12:51:55</time>
      </trkpt>
      <trkpt lat="37.05192" lon="-3.31564">
        <ele>3312</ele>
        <time>2021-08-06 12:51:56</time>
      </trkpt>
      <trkpt lat="37.05192" lon="-3.31564">
        <ele>3312</ele>
        <time>2021-08-06 12:51:57</time>
      </trkpt>
      <trkpt lat="37.05191" lon="-3.31564">
        <ele>3311.6</ele>
        <time>2021-08-06 12:51:58</time>
      </trkpt>
      <trkpt lat="37.0519" lon="-3.31565">
        <ele>3311.4</ele>
        <time>2021-08-06 12:51:59</time>
      </trkpt>
      <trkpt lat="37.0519" lon="-3.31565">
        <ele>3311</ele>
        <time>2021-08-06 12:52:00</time>
      </trkpt>
      <trkpt lat="37.05189" lon="-3.31565">
        <ele>3310.6</ele>
        <time>2021-08-06 12:52:01</time>
      </trkpt>
      <trkpt lat="37.05189" lon="-3.31566">
        <ele>3310</ele>
        <time>2021-08-06 12:52:02</time>
      </trkpt>
      <trkpt lat="37.05189" lon="-3.31566">
        <ele>3309.8</ele>
        <time>2021-08-06 12:52:03</time>
      </trkpt>
      <trkpt lat="37.05188" lon="-3.31567">
        <ele>3309.6</ele>
        <time>2021-08-06 12:52:04</time>
      </trkpt>
      <trkpt lat="37.05188" lon="-3.31567">
        <ele>3309.4</ele>
        <time>2021-08-06 12:52:05</time>
      </trkpt>
      <trkpt lat="37.05188" lon="-3.31568">
        <ele>3309.4</ele>
        <time>2021-08-06 12:52:06</time>
      </trkpt>
      <trkpt lat="37.05188" lon="-3.31569">
        <ele>3309.2</ele>
        <time>2021-08-06 12:52:07</time>
      </trkpt>
      <trkpt lat="37.05189" lon="-3.31569">
        <ele>3309</ele>
        <time>2021-08-06 12:52:08</time>
      </trkpt>
      <trkpt lat="37.0519" lon="-3.31569">
        <ele>3308.6</ele>
        <time>2021-08-06 12:52:09</time>
      </trkpt>
      <trkpt lat="37.05191" lon="-3.31569">
        <ele>3308.4</ele>
        <time>2021-08-06 12:52:10</time>
      </trkpt>
      <trkpt lat="37.05191" lon="-3.31569">
        <ele>3308</ele>
        <time>2021-08-06 12:52:11</time>
      </trkpt>
      <trkpt lat="37.05191" lon="-3.3157">
        <ele>3307.8</ele>
        <time>2021-08-06 12:52:12</time>
      </trkpt>
      <trkpt lat="37.05192" lon="-3.3157">
        <ele>3307.6</ele>
        <time>2021-08-06 12:52:13</time>
      </trkpt>
      <trkpt lat="37.05193" lon="-3.3157">
        <ele>3307.4</ele>
        <time>2021-08-06 12:52:14</time>
      </trkpt>
      <trkpt lat="37.05193" lon="-3.3157">
        <ele>3307</ele>
        <time>2021-08-06 12:52:15</time>
      </trkpt>
      <trkpt lat="37.05193" lon="-3.3157">
        <ele>3306.6</ele>
        <time>2021-08-06 12:52:16</time>
      </trkpt>
      <trkpt lat="37.05194" lon="-3.3157">
        <ele>3306.6</ele>
        <time>2021-08-06 12:52:17</time>
      </trkpt>
      <trkpt lat="37.05194" lon="-3.31571">
        <ele>3306.4</ele>
        <time>2021-08-06 12:52:18</time>
      </trkpt>
      <trkpt lat="37.05194" lon="-3.31571">
        <ele>3306.4</ele>
        <time>2021-08-06 12:52:19</time>
      </trkpt>
      <trkpt lat="37.05194" lon="-3.31572">
        <ele>3306.2</ele>
        <time>2021-08-06 12:52:20</time>
      </trkpt>
      <trkpt lat="37.05194" lon="-3.31572">
        <ele>3306</ele>
        <time>2021-08-06 12:52:21</time>
      </trkpt>
      <trkpt lat="37.05194" lon="-3.31573">
        <ele>3306</ele>
        <time>2021-08-06 12:52:22</time>
      </trkpt>
      <trkpt lat="37.05193" lon="-3.31574">
        <ele>3306</ele>
        <time>2021-08-06 12:52:23</time>
      </trkpt>
      <trkpt lat="37.05193" lon="-3.31575">
        <ele>3305.6</ele>
        <time>2021-08-06 12:52:24</time>
      </trkpt>
      <trkpt lat="37.05194" lon="-3.31576">
        <ele>3305.4</ele>
        <time>2021-08-06 12:52:25</time>
      </trkpt>
      <trkpt lat="37.05194" lon="-3.31576">
        <ele>3305.4</ele>
        <time>2021-08-06 12:52:26</time>
      </trkpt>
      <trkpt lat="37.05194" lon="-3.31576">
        <ele>3305.2</ele>
        <time>2021-08-06 12:52:27</time>
      </trkpt>
      <trkpt lat="37.05195" lon="-3.31577">
        <ele>3305.2</ele>
        <time>2021-08-06 12:52:28</time>
      </trkpt>
      <trkpt lat="37.05195" lon="-3.31577">
        <ele>3305</ele>
        <time>2021-08-06 12:52:29</time>
      </trkpt>
      <trkpt lat="37.05194" lon="-3.31578">
        <ele>3304.8</ele>
        <time>2021-08-06 12:52:30</time>
      </trkpt>
      <trkpt lat="37.05194" lon="-3.31579">
        <ele>3304.6</ele>
        <time>2021-08-06 12:52:31</time>
      </trkpt>
      <trkpt lat="37.05194" lon="-3.31579">
        <ele>3304.6</ele>
        <time>2021-08-06 12:52:32</time>
      </trkpt>
      <trkpt lat="37.05194" lon="-3.3158">
        <ele>3304.6</ele>
        <time>2021-08-06 12:52:33</time>
      </trkpt>
      <trkpt lat="37.05194" lon="-3.3158">
        <ele>3304.6</ele>
        <time>2021-08-06 12:52:34</time>
      </trkpt>
      <trkpt lat="37.05193" lon="-3.31581">
        <ele>3304.4</ele>
        <time>2021-08-06 12:52:35</time>
      </trkpt>
      <trkpt lat="37.05193" lon="-3.31581">
        <ele>3304.4</ele>
        <time>2021-08-06 12:52:36</time>
      </trkpt>
      <trkpt lat="37.05193" lon="-3.31582">
        <ele>3304</ele>
        <time>2021-08-06 12:52:37</time>
      </trkpt>
      <trkpt lat="37.05193" lon="-3.31582">
        <ele>3303.6</ele>
        <time>2021-08-06 12:52:38</time>
      </trkpt>
      <trkpt lat="37.05193" lon="-3.31582">
        <ele>3303.4</ele>
        <time>2021-08-06 12:52:39</time>
      </trkpt>
      <trkpt lat="37.05193" lon="-3.31582">
        <ele>3303.2</ele>
        <time>2021-08-06 12:52:40</time>
      </trkpt>
      <trkpt lat="37.05194" lon="-3.31581">
        <ele>3303.2</ele>
        <time>2021-08-06 12:52:41</time>
      </trkpt>
      <trkpt lat="37.05194" lon="-3.31581">
        <ele>3303</ele>
        <time>2021-08-06 12:52:42</time>
      </trkpt>
      <trkpt lat="37.05195" lon="-3.31582">
        <ele>3302.8</ele>
        <time>2021-08-06 12:52:43</time>
      </trkpt>
      <trkpt lat="37.05196" lon="-3.31582">
        <ele>3302.4</ele>
        <time>2021-08-06 12:52:44</time>
      </trkpt>
      <trkpt lat="37.05196" lon="-3.31582">
        <ele>3302.2</ele>
        <time>2021-08-06 12:52:45</time>
      </trkpt>
      <trkpt lat="37.05197" lon="-3.31583">
        <ele>3302</ele>
        <time>2021-08-06 12:52:46</time>
      </trkpt>
      <trkpt lat="37.05198" lon="-3.31583">
        <ele>3301.8</ele>
        <time>2021-08-06 12:52:47</time>
      </trkpt>
      <trkpt lat="37.05198" lon="-3.31583">
        <ele>3301.6</ele>
        <time>2021-08-06 12:52:48</time>
      </trkpt>
      <trkpt lat="37.05199" lon="-3.31584">
        <ele>3301</ele>
        <time>2021-08-06 12:52:49</time>
      </trkpt>
      <trkpt lat="37.05199" lon="-3.31584">
        <ele>3300.6</ele>
        <time>2021-08-06 12:52:50</time>
      </trkpt>
      <trkpt lat="37.05199" lon="-3.31585">
        <ele>3300.6</ele>
        <time>2021-08-06 12:52:51</time>
      </trkpt>
      <trkpt lat="37.052" lon="-3.31586">
        <ele>3300</ele>
        <time>2021-08-06 12:52:52</time>
      </trkpt>
      <trkpt lat="37.05201" lon="-3.31587">
        <ele>3299.8</ele>
        <time>2021-08-06 12:52:53</time>
      </trkpt>
      <trkpt lat="37.05201" lon="-3.31587">
        <ele>3299.6</ele>
        <time>2021-08-06 12:52:54</time>
      </trkpt>
      <trkpt lat="37.05202" lon="-3.31588">
        <ele>3299.8</ele>
        <time>2021-08-06 12:52:55</time>
      </trkpt>
      <trkpt lat="37.05203" lon="-3.31588">
        <ele>3299.8</ele>
        <time>2021-08-06 12:52:56</time>
      </trkpt>
      <trkpt lat="37.05203" lon="-3.31589">
        <ele>3299.8</ele>
        <time>2021-08-06 12:52:57</time>
      </trkpt>
      <trkpt lat="37.05203" lon="-3.31589">
        <ele>3299.8</ele>
        <time>2021-08-06 12:52:58</time>
      </trkpt>
      <trkpt lat="37.05204" lon="-3.3159">
        <ele>3299.8</ele>
        <time>2021-08-06 12:52:59</time>
      </trkpt>
      <trkpt lat="37.05204" lon="-3.3159">
        <ele>3299.4</ele>
        <time>2021-08-06 12:53:00</time>
      </trkpt>
      <trkpt lat="37.05205" lon="-3.3159">
        <ele>3299</ele>
        <time>2021-08-06 12:53:01</time>
      </trkpt>
      <trkpt lat="37.05206" lon="-3.31591">
        <ele>3299</ele>
        <time>2021-08-06 12:53:02</time>
      </trkpt>
      <trkpt lat="37.05206" lon="-3.31592">
        <ele>3298.8</ele>
        <time>2021-08-06 12:53:03</time>
      </trkpt>
      <trkpt lat="37.05207" lon="-3.31592">
        <ele>3298.6</ele>
        <time>2021-08-06 12:53:04</time>
      </trkpt>
      <trkpt lat="37.05207" lon="-3.31592">
        <ele>3298.6</ele>
        <time>2021-08-06 12:53:05</time>
      </trkpt>
      <trkpt lat="37.05208" lon="-3.31592">
        <ele>3298.4</ele>
        <time>2021-08-06 12:53:06</time>
      </trkpt>
      <trkpt lat="37.05208" lon="-3.31593">
        <ele>3298</ele>
        <time>2021-08-06 12:53:07</time>
      </trkpt>
      <trkpt lat="37.05209" lon="-3.31594">
        <ele>3297.6</ele>
        <time>2021-08-06 12:53:08</time>
      </trkpt>
      <trkpt lat="37.05209" lon="-3.31594">
        <ele>3297.2</ele>
        <time>2021-08-06 12:53:09</time>
      </trkpt>
      <trkpt lat="37.0521" lon="-3.31594">
        <ele>3297.2</ele>
        <time>2021-08-06 12:53:10</time>
      </trkpt>
      <trkpt lat="37.0521" lon="-3.31594">
        <ele>3297</ele>
        <time>2021-08-06 12:53:11</time>
      </trkpt>
      <trkpt lat="37.0521" lon="-3.31594">
        <ele>3297</ele>
        <time>2021-08-06 12:53:12</time>
      </trkpt>
      <trkpt lat="37.05209" lon="-3.31595">
        <ele>3296.8</ele>
        <time>2021-08-06 12:53:13</time>
      </trkpt>
      <trkpt lat="37.05209" lon="-3.31596">
        <ele>3296.4</ele>
        <time>2021-08-06 12:53:14</time>
      </trkpt>
      <trkpt lat="37.05209" lon="-3.31596">
        <ele>3296.2</ele>
        <time>2021-08-06 12:53:15</time>
      </trkpt>
      <trkpt lat="37.05209" lon="-3.31597">
        <ele>3296</ele>
        <time>2021-08-06 12:53:16</time>
      </trkpt>
      <trkpt lat="37.05208" lon="-3.31597">
        <ele>3295.8</ele>
        <time>2021-08-06 12:53:17</time>
      </trkpt>
      <trkpt lat="37.05208" lon="-3.31598">
        <ele>3295.8</ele>
        <time>2021-08-06 12:53:18</time>
      </trkpt>
      <trkpt lat="37.05208" lon="-3.31599">
        <ele>3295.8</ele>
        <time>2021-08-06 12:53:19</time>
      </trkpt>
      <trkpt lat="37.05208" lon="-3.316">
        <ele>3295.6</ele>
        <time>2021-08-06 12:53:20</time>
      </trkpt>
      <trkpt lat="37.05208" lon="-3.316">
        <ele>3295.6</ele>
        <time>2021-08-06 12:53:21</time>
      </trkpt>
      <trkpt lat="37.05207" lon="-3.316">
        <ele>3295.4</ele>
        <time>2021-08-06 12:53:22</time>
      </trkpt>
      <trkpt lat="37.05207" lon="-3.31601">
        <ele>3295.2</ele>
        <time>2021-08-06 12:53:23</time>
      </trkpt>
      <trkpt lat="37.05207" lon="-3.31601">
        <ele>3295.2</ele>
        <time>2021-08-06 12:53:24</time>
      </trkpt>
      <trkpt lat="37.05207" lon="-3.31601">
        <ele>3295.2</ele>
        <time>2021-08-06 12:53:25</time>
      </trkpt>
      <trkpt lat="37.05207" lon="-3.31602">
        <ele>3295.2</ele>
        <time>2021-08-06 12:53:26</time>
      </trkpt>
      <trkpt lat="37.05206" lon="-3.31602">
        <ele>3295.2</ele>
        <time>2021-08-06 12:53:27</time>
      </trkpt>
      <trkpt lat="37.05206" lon="-3.31603">
        <ele>3295</ele>
        <time>2021-08-06 12:53:28</time>
      </trkpt>
      <trkpt lat="37.05205" lon="-3.31603">
        <ele>3295</ele>
        <time>2021-08-06 12:53:29</time>
      </trkpt>
      <trkpt lat="37.05205" lon="-3.31604">
        <ele>3294.8</ele>
        <time>2021-08-06 12:53:30</time>
      </trkpt>
      <trkpt lat="37.05205" lon="-3.31604">
        <ele>3294.2</ele>
        <time>2021-08-06 12:53:31</time>
      </trkpt>
      <trkpt lat="37.05205" lon="-3.31604">
        <ele>3294</ele>
        <time>2021-08-06 12:53:32</time>
      </trkpt>
      <trkpt lat="37.05205" lon="-3.31605">
        <ele>3294</ele>
        <time>2021-08-06 12:53:33</time>
      </trkpt>
      <trkpt lat="37.05205" lon="-3.31605">
        <ele>3293.8</ele>
        <time>2021-08-06 12:53:34</time>
      </trkpt>
      <trkpt lat="37.05206" lon="-3.31606">
        <ele>3293.8</ele>
        <time>2021-08-06 12:53:35</time>
      </trkpt>
      <trkpt lat="37.05206" lon="-3.31606">
        <ele>3293.8</ele>
        <time>2021-08-06 12:53:36</time>
      </trkpt>
      <trkpt lat="37.05207" lon="-3.31606">
        <ele>3293.6</ele>
        <time>2021-08-06 12:53:37</time>
      </trkpt>
      <trkpt lat="37.05208" lon="-3.31606">
        <ele>3293.6</ele>
        <time>2021-08-06 12:53:38</time>
      </trkpt>
      <trkpt lat="37.05208" lon="-3.31605">
        <ele>3293.6</ele>
        <time>2021-08-06 12:53:39</time>
      </trkpt>
      <trkpt lat="37.05209" lon="-3.31605">
        <ele>3293.4</ele>
        <time>2021-08-06 12:53:40</time>
      </trkpt>
      <trkpt lat="37.0521" lon="-3.31605">
        <ele>3293</ele>
        <time>2021-08-06 12:53:41</time>
      </trkpt>
      <trkpt lat="37.0521" lon="-3.31605">
        <ele>3292.8</ele>
        <time>2021-08-06 12:53:42</time>
      </trkpt>
      <trkpt lat="37.05211" lon="-3.31605">
        <ele>3292.6</ele>
        <time>2021-08-06 12:53:43</time>
      </trkpt>
      <trkpt lat="37.05211" lon="-3.31606">
        <ele>3292.2</ele>
        <time>2021-08-06 12:53:44</time>
      </trkpt>
      <trkpt lat="37.05212" lon="-3.31606">
        <ele>3292</ele>
        <time>2021-08-06 12:53:45</time>
      </trkpt>
      <trkpt lat="37.05212" lon="-3.31606">
        <ele>3292</ele>
        <time>2021-08-06 12:53:46</time>
      </trkpt>
      <trkpt lat="37.05212" lon="-3.31607">
        <ele>3292</ele>
        <time>2021-08-06 12:53:47</time>
      </trkpt>
      <trkpt lat="37.05212" lon="-3.31607">
        <ele>3292</ele>
        <time>2021-08-06 12:53:48</time>
      </trkpt>
      <trkpt lat="37.05213" lon="-3.31608">
        <ele>3292</ele>
        <time>2021-08-06 12:53:49</time>
      </trkpt>
      <trkpt lat="37.05213" lon="-3.31608">
        <ele>3292</ele>
        <time>2021-08-06 12:53:50</time>
      </trkpt>
      <trkpt lat="37.05213" lon="-3.31608">
        <ele>3292</ele>
        <time>2021-08-06 12:53:51</time>
      </trkpt>
      <trkpt lat="37.05213" lon="-3.31609">
        <ele>3291.8</ele>
        <time>2021-08-06 12:53:52</time>
      </trkpt>
      <trkpt lat="37.05213" lon="-3.31609">
        <ele>3291.4</ele>
        <time>2021-08-06 12:53:53</time>
      </trkpt>
      <trkpt lat="37.05213" lon="-3.3161">
        <ele>3291</ele>
        <time>2021-08-06 12:53:54</time>
      </trkpt>
      <trkpt lat="37.05213" lon="-3.3161">
        <ele>3290.6</ele>
        <time>2021-08-06 12:53:55</time>
      </trkpt>
      <trkpt lat="37.05212" lon="-3.31611">
        <ele>3290.6</ele>
        <time>2021-08-06 12:53:56</time>
      </trkpt>
      <trkpt lat="37.05211" lon="-3.31611">
        <ele>3290.4</ele>
        <time>2021-08-06 12:53:57</time>
      </trkpt>
      <trkpt lat="37.05211" lon="-3.31611">
        <ele>3290.4</ele>
        <time>2021-08-06 12:53:58</time>
      </trkpt>
      <trkpt lat="37.05211" lon="-3.31612">
        <ele>3290.4</ele>
        <time>2021-08-06 12:53:59</time>
      </trkpt>
      <trkpt lat="37.05211" lon="-3.31613">
        <ele>3290.2</ele>
        <time>2021-08-06 12:54:00</time>
      </trkpt>
      <trkpt lat="37.05211" lon="-3.31613">
        <ele>3290.2</ele>
        <time>2021-08-06 12:54:01</time>
      </trkpt>
      <trkpt lat="37.05211" lon="-3.31614">
        <ele>3290</ele>
        <time>2021-08-06 12:54:02</time>
      </trkpt>
      <trkpt lat="37.05211" lon="-3.31615">
        <ele>3290</ele>
        <time>2021-08-06 12:54:03</time>
      </trkpt>
      <trkpt lat="37.05211" lon="-3.31615">
        <ele>3289.8</ele>
        <time>2021-08-06 12:54:04</time>
      </trkpt>
      <trkpt lat="37.0521" lon="-3.31616">
        <ele>3289.8</ele>
        <time>2021-08-06 12:54:05</time>
      </trkpt>
      <trkpt lat="37.0521" lon="-3.31616">
        <ele>3289.6</ele>
        <time>2021-08-06 12:54:06</time>
      </trkpt>
      <trkpt lat="37.05209" lon="-3.31616">
        <ele>3289</ele>
        <time>2021-08-06 12:54:07</time>
      </trkpt>
      <trkpt lat="37.05208" lon="-3.31617">
        <ele>3288.6</ele>
        <time>2021-08-06 12:54:08</time>
      </trkpt>
      <trkpt lat="37.05208" lon="-3.31617">
        <ele>3288.4</ele>
        <time>2021-08-06 12:54:09</time>
      </trkpt>
      <trkpt lat="37.05207" lon="-3.31617">
        <ele>3288.4</ele>
        <time>2021-08-06 12:54:10</time>
      </trkpt>
      <trkpt lat="37.05207" lon="-3.31618">
        <ele>3288.4</ele>
        <time>2021-08-06 12:54:11</time>
      </trkpt>
      <trkpt lat="37.05206" lon="-3.31618">
        <ele>3288.2</ele>
        <time>2021-08-06 12:54:12</time>
      </trkpt>
      <trkpt lat="37.05206" lon="-3.31619">
        <ele>3288</ele>
        <time>2021-08-06 12:54:13</time>
      </trkpt>
      <trkpt lat="37.05206" lon="-3.31619">
        <ele>3287.8</ele>
        <time>2021-08-06 12:54:14</time>
      </trkpt>
      <trkpt lat="37.05206" lon="-3.3162">
        <ele>3287.6</ele>
        <time>2021-08-06 12:54:15</time>
      </trkpt>
      <trkpt lat="37.05206" lon="-3.3162">
        <ele>3287.6</ele>
        <time>2021-08-06 12:54:16</time>
      </trkpt>
      <trkpt lat="37.05207" lon="-3.31619">
        <ele>3287.4</ele>
        <time>2021-08-06 12:54:17</time>
      </trkpt>
      <trkpt lat="37.05208" lon="-3.31619">
        <ele>3287.2</ele>
        <time>2021-08-06 12:54:18</time>
      </trkpt>
      <trkpt lat="37.05208" lon="-3.31618">
        <ele>3287</ele>
        <time>2021-08-06 12:54:19</time>
      </trkpt>
      <trkpt lat="37.05208" lon="-3.31619">
        <ele>3286.4</ele>
        <time>2021-08-06 12:54:20</time>
      </trkpt>
      <trkpt lat="37.05209" lon="-3.31619">
        <ele>3286</ele>
        <time>2021-08-06 12:54:21</time>
      </trkpt>
      <trkpt lat="37.05209" lon="-3.31619">
        <ele>3286</ele>
        <time>2021-08-06 12:54:22</time>
      </trkpt>
      <trkpt lat="37.05209" lon="-3.3162">
        <ele>3285.8</ele>
        <time>2021-08-06 12:54:23</time>
      </trkpt>
      <trkpt lat="37.05209" lon="-3.31621">
        <ele>3285.8</ele>
        <time>2021-08-06 12:54:24</time>
      </trkpt>
      <trkpt lat="37.05209" lon="-3.31622">
        <ele>3285.8</ele>
        <time>2021-08-06 12:54:25</time>
      </trkpt>
      <trkpt lat="37.05209" lon="-3.31622">
        <ele>3285.8</ele>
        <time>2021-08-06 12:54:26</time>
      </trkpt>
      <trkpt lat="37.05209" lon="-3.31622">
        <ele>3285.8</ele>
        <time>2021-08-06 12:54:27</time>
      </trkpt>
      <trkpt lat="37.05209" lon="-3.31624">
        <ele>3285.6</ele>
        <time>2021-08-06 12:54:28</time>
      </trkpt>
      <trkpt lat="37.05209" lon="-3.31624">
        <ele>3285.4</ele>
        <time>2021-08-06 12:54:29</time>
      </trkpt>
      <trkpt lat="37.05209" lon="-3.31625">
        <ele>3285.2</ele>
        <time>2021-08-06 12:54:30</time>
      </trkpt>
      <trkpt lat="37.05209" lon="-3.31625">
        <ele>3285</ele>
        <time>2021-08-06 12:54:31</time>
      </trkpt>
      <trkpt lat="37.05209" lon="-3.31625">
        <ele>3284.8</ele>
        <time>2021-08-06 12:54:32</time>
      </trkpt>
      <trkpt lat="37.0521" lon="-3.31625">
        <ele>3284.6</ele>
        <time>2021-08-06 12:54:33</time>
      </trkpt>
      <trkpt lat="37.0521" lon="-3.31625">
        <ele>3284.6</ele>
        <time>2021-08-06 12:54:34</time>
      </trkpt>
      <trkpt lat="37.0521" lon="-3.31626">
        <ele>3284.4</ele>
        <time>2021-08-06 12:54:35</time>
      </trkpt>
      <trkpt lat="37.05211" lon="-3.31626">
        <ele>3284.2</ele>
        <time>2021-08-06 12:54:36</time>
      </trkpt>
      <trkpt lat="37.05212" lon="-3.31626">
        <ele>3283.8</ele>
        <time>2021-08-06 12:54:37</time>
      </trkpt>
      <trkpt lat="37.05212" lon="-3.31626">
        <ele>3283.6</ele>
        <time>2021-08-06 12:54:38</time>
      </trkpt>
      <trkpt lat="37.05213" lon="-3.31627">
        <ele>3283.4</ele>
        <time>2021-08-06 12:54:39</time>
      </trkpt>
      <trkpt lat="37.05213" lon="-3.31627">
        <ele>3283.2</ele>
        <time>2021-08-06 12:54:40</time>
      </trkpt>
      <trkpt lat="37.05214" lon="-3.31627">
        <ele>3283.2</ele>
        <time>2021-08-06 12:54:41</time>
      </trkpt>
      <trkpt lat="37.05215" lon="-3.31627">
        <ele>3282.8</ele>
        <time>2021-08-06 12:54:42</time>
      </trkpt>
      <trkpt lat="37.05215" lon="-3.31628">
        <ele>3282.6</ele>
        <time>2021-08-06 12:54:43</time>
      </trkpt>
      <trkpt lat="37.05215" lon="-3.31629">
        <ele>3282.4</ele>
        <time>2021-08-06 12:54:44</time>
      </trkpt>
      <trkpt lat="37.05215" lon="-3.31629">
        <ele>3282.4</ele>
        <time>2021-08-06 12:54:45</time>
      </trkpt>
      <trkpt lat="37.05216" lon="-3.3163">
        <ele>3282.2</ele>
        <time>2021-08-06 12:54:46</time>
      </trkpt>
      <trkpt lat="37.05216" lon="-3.3163">
        <ele>3282</ele>
        <time>2021-08-06 12:54:47</time>
      </trkpt>
      <trkpt lat="37.05217" lon="-3.3163">
        <ele>3281.8</ele>
        <time>2021-08-06 12:54:48</time>
      </trkpt>
      <trkpt lat="37.05217" lon="-3.31631">
        <ele>3281.6</ele>
        <time>2021-08-06 12:54:49</time>
      </trkpt>
      <trkpt lat="37.05217" lon="-3.31631">
        <ele>3281.4</ele>
        <time>2021-08-06 12:54:50</time>
      </trkpt>
      <trkpt lat="37.05217" lon="-3.31632">
        <ele>3281.4</ele>
        <time>2021-08-06 12:54:51</time>
      </trkpt>
      <trkpt lat="37.05218" lon="-3.31633">
        <ele>3281.2</ele>
        <time>2021-08-06 12:54:52</time>
      </trkpt>
      <trkpt lat="37.05218" lon="-3.31633">
        <ele>3280.8</ele>
        <time>2021-08-06 12:54:53</time>
      </trkpt>
      <trkpt lat="37.05218" lon="-3.31634">
        <ele>3280.6</ele>
        <time>2021-08-06 12:54:54</time>
      </trkpt>
      <trkpt lat="37.05218" lon="-3.31635">
        <ele>3280.4</ele>
        <time>2021-08-06 12:54:55</time>
      </trkpt>
      <trkpt lat="37.05218" lon="-3.31635">
        <ele>3280.4</ele>
        <time>2021-08-06 12:54:56</time>
      </trkpt>
      <trkpt lat="37.05217" lon="-3.31636">
        <ele>3280.6</ele>
        <time>2021-08-06 12:54:57</time>
      </trkpt>
      <trkpt lat="37.05217" lon="-3.31637">
        <ele>3280.6</ele>
        <time>2021-08-06 12:54:58</time>
      </trkpt>
      <trkpt lat="37.05216" lon="-3.31638">
        <ele>3280.4</ele>
        <time>2021-08-06 12:54:59</time>
      </trkpt>
      <trkpt lat="37.05217" lon="-3.31638">
        <ele>3280.4</ele>
        <time>2021-08-06 12:55:00</time>
      </trkpt>
      <trkpt lat="37.05217" lon="-3.31638">
        <ele>3279.8</ele>
        <time>2021-08-06 12:55:01</time>
      </trkpt>
      <trkpt lat="37.05217" lon="-3.31638">
        <ele>3279.4</ele>
        <time>2021-08-06 12:55:02</time>
      </trkpt>
      <trkpt lat="37.05217" lon="-3.31639">
        <ele>3278.8</ele>
        <time>2021-08-06 12:55:03</time>
      </trkpt>
      <trkpt lat="37.05218" lon="-3.31639">
        <ele>3278.4</ele>
        <time>2021-08-06 12:55:04</time>
      </trkpt>
      <trkpt lat="37.05218" lon="-3.31639">
        <ele>3278.2</ele>
        <time>2021-08-06 12:55:05</time>
      </trkpt>
      <trkpt lat="37.05218" lon="-3.31639">
        <ele>3278</ele>
        <time>2021-08-06 12:55:06</time>
      </trkpt>
      <trkpt lat="37.05219" lon="-3.3164">
        <ele>3277.8</ele>
        <time>2021-08-06 12:55:07</time>
      </trkpt>
      <trkpt lat="37.05219" lon="-3.3164">
        <ele>3277.6</ele>
        <time>2021-08-06 12:55:08</time>
      </trkpt>
      <trkpt lat="37.05219" lon="-3.31641">
        <ele>3277.6</ele>
        <time>2021-08-06 12:55:09</time>
      </trkpt>
      <trkpt lat="37.05219" lon="-3.31642">
        <ele>3277.6</ele>
        <time>2021-08-06 12:55:10</time>
      </trkpt>
      <trkpt lat="37.05219" lon="-3.31642">
        <ele>3277.4</ele>
        <time>2021-08-06 12:55:11</time>
      </trkpt>
      <trkpt lat="37.05219" lon="-3.31642">
        <ele>3277.4</ele>
        <time>2021-08-06 12:55:12</time>
      </trkpt>
      <trkpt lat="37.05219" lon="-3.31643">
        <ele>3277.4</ele>
        <time>2021-08-06 12:55:13</time>
      </trkpt>
      <trkpt lat="37.05219" lon="-3.31643">
        <ele>3277.4</ele>
        <time>2021-08-06 12:55:14</time>
      </trkpt>
      <trkpt lat="37.05219" lon="-3.31643">
        <ele>3277.2</ele>
        <time>2021-08-06 12:55:15</time>
      </trkpt>
      <trkpt lat="37.0522" lon="-3.31644">
        <ele>3277</ele>
        <time>2021-08-06 12:55:16</time>
      </trkpt>
      <trkpt lat="37.0522" lon="-3.31644">
        <ele>3276.8</ele>
        <time>2021-08-06 12:55:17</time>
      </trkpt>
      <trkpt lat="37.0522" lon="-3.31645">
        <ele>3276.6</ele>
        <time>2021-08-06 12:55:18</time>
      </trkpt>
      <trkpt lat="37.0522" lon="-3.31646">
        <ele>3276.6</ele>
        <time>2021-08-06 12:55:19</time>
      </trkpt>
      <trkpt lat="37.05219" lon="-3.31647">
        <ele>3276.4</ele>
        <time>2021-08-06 12:55:20</time>
      </trkpt>
      <trkpt lat="37.05219" lon="-3.31647">
        <ele>3276.4</ele>
        <time>2021-08-06 12:55:21</time>
      </trkpt>
      <trkpt lat="37.05218" lon="-3.31648">
        <ele>3276.4</ele>
        <time>2021-08-06 12:55:22</time>
      </trkpt>
      <trkpt lat="37.05218" lon="-3.31648">
        <ele>3276.2</ele>
        <time>2021-08-06 12:55:23</time>
      </trkpt>
      <trkpt lat="37.05218" lon="-3.31648">
        <ele>3276</ele>
        <time>2021-08-06 12:55:24</time>
      </trkpt>
      <trkpt lat="37.05218" lon="-3.31649">
        <ele>3276</ele>
        <time>2021-08-06 12:55:25</time>
      </trkpt>
      <trkpt lat="37.05218" lon="-3.31649">
        <ele>3276</ele>
        <time>2021-08-06 12:55:26</time>
      </trkpt>
      <trkpt lat="37.05219" lon="-3.31649">
        <ele>3275.4</ele>
        <time>2021-08-06 12:55:27</time>
      </trkpt>
      <trkpt lat="37.05219" lon="-3.3165">
        <ele>3275.2</ele>
        <time>2021-08-06 12:55:28</time>
      </trkpt>
      <trkpt lat="37.05219" lon="-3.3165">
        <ele>3275</ele>
        <time>2021-08-06 12:55:29</time>
      </trkpt>
      <trkpt lat="37.0522" lon="-3.31651">
        <ele>3274.8</ele>
        <time>2021-08-06 12:55:30</time>
      </trkpt>
      <trkpt lat="37.0522" lon="-3.31651">
        <ele>3274.6</ele>
        <time>2021-08-06 12:55:31</time>
      </trkpt>
      <trkpt lat="37.05221" lon="-3.31652">
        <ele>3274.4</ele>
        <time>2021-08-06 12:55:32</time>
      </trkpt>
      <trkpt lat="37.05221" lon="-3.31653">
        <ele>3274.2</ele>
        <time>2021-08-06 12:55:33</time>
      </trkpt>
      <trkpt lat="37.05221" lon="-3.31654">
        <ele>3274.2</ele>
        <time>2021-08-06 12:55:34</time>
      </trkpt>
      <trkpt lat="37.05221" lon="-3.31655">
        <ele>3274.2</ele>
        <time>2021-08-06 12:55:35</time>
      </trkpt>
      <trkpt lat="37.05221" lon="-3.31655">
        <ele>3274</ele>
        <time>2021-08-06 12:55:36</time>
      </trkpt>
      <trkpt lat="37.0522" lon="-3.31655">
        <ele>3273.8</ele>
        <time>2021-08-06 12:55:37</time>
      </trkpt>
      <trkpt lat="37.0522" lon="-3.31655">
        <ele>3273.6</ele>
        <time>2021-08-06 12:55:38</time>
      </trkpt>
      <trkpt lat="37.05219" lon="-3.31656">
        <ele>3273.4</ele>
        <time>2021-08-06 12:55:39</time>
      </trkpt>
      <trkpt lat="37.05219" lon="-3.31657">
        <ele>3273.2</ele>
        <time>2021-08-06 12:55:40</time>
      </trkpt>
      <trkpt lat="37.0522" lon="-3.31657">
        <ele>3273</ele>
        <time>2021-08-06 12:55:41</time>
      </trkpt>
      <trkpt lat="37.0522" lon="-3.31658">
        <ele>3272.8</ele>
        <time>2021-08-06 12:55:42</time>
      </trkpt>
      <trkpt lat="37.05221" lon="-3.31658">
        <ele>3272.4</ele>
        <time>2021-08-06 12:55:43</time>
      </trkpt>
      <trkpt lat="37.05222" lon="-3.31658">
        <ele>3272</ele>
        <time>2021-08-06 12:55:44</time>
      </trkpt>
      <trkpt lat="37.05222" lon="-3.31658">
        <ele>3271.8</ele>
        <time>2021-08-06 12:55:45</time>
      </trkpt>
      <trkpt lat="37.05223" lon="-3.31658">
        <ele>3271.8</ele>
        <time>2021-08-06 12:55:46</time>
      </trkpt>
      <trkpt lat="37.05224" lon="-3.31659">
        <ele>3271.6</ele>
        <time>2021-08-06 12:55:47</time>
      </trkpt>
      <trkpt lat="37.05224" lon="-3.31659">
        <ele>3271.4</ele>
        <time>2021-08-06 12:55:48</time>
      </trkpt>
      <trkpt lat="37.05224" lon="-3.31659">
        <ele>3271.4</ele>
        <time>2021-08-06 12:55:49</time>
      </trkpt>
      <trkpt lat="37.05223" lon="-3.3166">
        <ele>3271.4</ele>
        <time>2021-08-06 12:55:50</time>
      </trkpt>
      <trkpt lat="37.05223" lon="-3.31661">
        <ele>3271.2</ele>
        <time>2021-08-06 12:55:51</time>
      </trkpt>
      <trkpt lat="37.05223" lon="-3.31661">
        <ele>3271</ele>
        <time>2021-08-06 12:55:52</time>
      </trkpt>
      <trkpt lat="37.05224" lon="-3.31662">
        <ele>3271</ele>
        <time>2021-08-06 12:55:53</time>
      </trkpt>
      <trkpt lat="37.05224" lon="-3.31662">
        <ele>3271</ele>
        <time>2021-08-06 12:55:54</time>
      </trkpt>
      <trkpt lat="37.05224" lon="-3.31662">
        <ele>3271</ele>
        <time>2021-08-06 12:55:55</time>
      </trkpt>
      <trkpt lat="37.05224" lon="-3.31662">
        <ele>3270.8</ele>
        <time>2021-08-06 12:55:56</time>
      </trkpt>
      <trkpt lat="37.05223" lon="-3.31663">
        <ele>3270.6</ele>
        <time>2021-08-06 12:55:57</time>
      </trkpt>
      <trkpt lat="37.05222" lon="-3.31664">
        <ele>3270.4</ele>
        <time>2021-08-06 12:55:58</time>
      </trkpt>
      <trkpt lat="37.05222" lon="-3.31665">
        <ele>3270</ele>
        <time>2021-08-06 12:55:59</time>
      </trkpt>
      <trkpt lat="37.05222" lon="-3.31666">
        <ele>3269.6</ele>
        <time>2021-08-06 12:56:00</time>
      </trkpt>
      <trkpt lat="37.05222" lon="-3.31666">
        <ele>3269.2</ele>
        <time>2021-08-06 12:56:01</time>
      </trkpt>
      <trkpt lat="37.05223" lon="-3.31666">
        <ele>3268.8</ele>
        <time>2021-08-06 12:56:02</time>
      </trkpt>
      <trkpt lat="37.05223" lon="-3.31666">
        <ele>3268.6</ele>
        <time>2021-08-06 12:56:03</time>
      </trkpt>
      <trkpt lat="37.05224" lon="-3.31666">
        <ele>3268.4</ele>
        <time>2021-08-06 12:56:04</time>
      </trkpt>
      <trkpt lat="37.05224" lon="-3.31666">
        <ele>3268.2</ele>
        <time>2021-08-06 12:56:05</time>
      </trkpt>
      <trkpt lat="37.05225" lon="-3.31666">
        <ele>3267.8</ele>
        <time>2021-08-06 12:56:06</time>
      </trkpt>
      <trkpt lat="37.05225" lon="-3.31666">
        <ele>3267.8</ele>
        <time>2021-08-06 12:56:07</time>
      </trkpt>
      <trkpt lat="37.05226" lon="-3.31667">
        <ele>3267.8</ele>
        <time>2021-08-06 12:56:08</time>
      </trkpt>
      <trkpt lat="37.05226" lon="-3.31667">
        <ele>3267.8</ele>
        <time>2021-08-06 12:56:09</time>
      </trkpt>
      <trkpt lat="37.05227" lon="-3.31667">
        <ele>3267.8</ele>
        <time>2021-08-06 12:56:10</time>
      </trkpt>
      <trkpt lat="37.05227" lon="-3.31667">
        <ele>3267.6</ele>
        <time>2021-08-06 12:56:11</time>
      </trkpt>
      <trkpt lat="37.05228" lon="-3.31668">
        <ele>3267</ele>
        <time>2021-08-06 12:56:12</time>
      </trkpt>
      <trkpt lat="37.05228" lon="-3.31669">
        <ele>3266.6</ele>
        <time>2021-08-06 12:56:13</time>
      </trkpt>
      <trkpt lat="37.05228" lon="-3.3167">
        <ele>3266.4</ele>
        <time>2021-08-06 12:56:14</time>
      </trkpt>
      <trkpt lat="37.05229" lon="-3.3167">
        <ele>3266.2</ele>
        <time>2021-08-06 12:56:15</time>
      </trkpt>
      <trkpt lat="37.05229" lon="-3.31671">
        <ele>3266.2</ele>
        <time>2021-08-06 12:56:16</time>
      </trkpt>
      <trkpt lat="37.05229" lon="-3.31672">
        <ele>3266.2</ele>
        <time>2021-08-06 12:56:17</time>
      </trkpt>
      <trkpt lat="37.0523" lon="-3.31672">
        <ele>3266</ele>
        <time>2021-08-06 12:56:18</time>
      </trkpt>
      <trkpt lat="37.0523" lon="-3.31672">
        <ele>3266</ele>
        <time>2021-08-06 12:56:19</time>
      </trkpt>
      <trkpt lat="37.05231" lon="-3.31672">
        <ele>3265.8</ele>
        <time>2021-08-06 12:56:20</time>
      </trkpt>
      <trkpt lat="37.05231" lon="-3.31673">
        <ele>3265.6</ele>
        <time>2021-08-06 12:56:21</time>
      </trkpt>
      <trkpt lat="37.05231" lon="-3.31674">
        <ele>3265.4</ele>
        <time>2021-08-06 12:56:22</time>
      </trkpt>
      <trkpt lat="37.05231" lon="-3.31675">
        <ele>3265.4</ele>
        <time>2021-08-06 12:56:23</time>
      </trkpt>
      <trkpt lat="37.05231" lon="-3.31675">
        <ele>3265.2</ele>
        <time>2021-08-06 12:56:24</time>
      </trkpt>
      <trkpt lat="37.05231" lon="-3.31675">
        <ele>3265</ele>
        <time>2021-08-06 12:56:25</time>
      </trkpt>
      <trkpt lat="37.05231" lon="-3.31676">
        <ele>3265</ele>
        <time>2021-08-06 12:56:26</time>
      </trkpt>
      <trkpt lat="37.05231" lon="-3.31676">
        <ele>3264.6</ele>
        <time>2021-08-06 12:56:27</time>
      </trkpt>
      <trkpt lat="37.05231" lon="-3.31677">
        <ele>3264.2</ele>
        <time>2021-08-06 12:56:28</time>
      </trkpt>
      <trkpt lat="37.05231" lon="-3.31678">
        <ele>3264</ele>
        <time>2021-08-06 12:56:29</time>
      </trkpt>
      <trkpt lat="37.05231" lon="-3.31679">
        <ele>3264</ele>
        <time>2021-08-06 12:56:30</time>
      </trkpt>
      <trkpt lat="37.05231" lon="-3.3168">
        <ele>3264</ele>
        <time>2021-08-06 12:56:31</time>
      </trkpt>
      <trkpt lat="37.0523" lon="-3.3168">
        <ele>3264.2</ele>
        <time>2021-08-06 12:56:32</time>
      </trkpt>
      <trkpt lat="37.0523" lon="-3.31681">
        <ele>3264.2</ele>
        <time>2021-08-06 12:56:33</time>
      </trkpt>
      <trkpt lat="37.05229" lon="-3.31681">
        <ele>3264.2</ele>
        <time>2021-08-06 12:56:34</time>
      </trkpt>
      <trkpt lat="37.05229" lon="-3.31682">
        <ele>3264.2</ele>
        <time>2021-08-06 12:56:35</time>
      </trkpt>
      <trkpt lat="37.05229" lon="-3.31683">
        <ele>3264.2</ele>
        <time>2021-08-06 12:56:36</time>
      </trkpt>
      <trkpt lat="37.05229" lon="-3.31684">
        <ele>3264</ele>
        <time>2021-08-06 12:56:37</time>
      </trkpt>
      <trkpt lat="37.05228" lon="-3.31684">
        <ele>3264</ele>
        <time>2021-08-06 12:56:38</time>
      </trkpt>
      <trkpt lat="37.05228" lon="-3.31684">
        <ele>3263.2</ele>
        <time>2021-08-06 12:56:39</time>
      </trkpt>
      <trkpt lat="37.05227" lon="-3.31685">
        <ele>3262.4</ele>
        <time>2021-08-06 12:56:40</time>
      </trkpt>
      <trkpt lat="37.05226" lon="-3.31685">
        <ele>3262</ele>
        <time>2021-08-06 12:56:41</time>
      </trkpt>
      <trkpt lat="37.05226" lon="-3.31686">
        <ele>3261.6</ele>
        <time>2021-08-06 12:56:42</time>
      </trkpt>
      <trkpt lat="37.05224" lon="-3.31686">
        <ele>3261.4</ele>
        <time>2021-08-06 12:56:43</time>
      </trkpt>
      <trkpt lat="37.05224" lon="-3.31688">
        <ele>3261</ele>
        <time>2021-08-06 12:56:44</time>
      </trkpt>
      <trkpt lat="37.05225" lon="-3.31689">
        <ele>3260.6</ele>
        <time>2021-08-06 12:56:45</time>
      </trkpt>
      <trkpt lat="37.05225" lon="-3.3169">
        <ele>3260.4</ele>
        <time>2021-08-06 12:56:46</time>
      </trkpt>
      <trkpt lat="37.05226" lon="-3.31691">
        <ele>3260.2</ele>
        <time>2021-08-06 12:56:47</time>
      </trkpt>
      <trkpt lat="37.05226" lon="-3.3169">
        <ele>3260</ele>
        <time>2021-08-06 12:56:48</time>
      </trkpt>
      <trkpt lat="37.05227" lon="-3.31691">
        <ele>3259.8</ele>
        <time>2021-08-06 12:56:49</time>
      </trkpt>
      <trkpt lat="37.05228" lon="-3.31691">
        <ele>3259.2</ele>
        <time>2021-08-06 12:56:50</time>
      </trkpt>
      <trkpt lat="37.05228" lon="-3.31691">
        <ele>3258.6</ele>
        <time>2021-08-06 12:56:51</time>
      </trkpt>
      <trkpt lat="37.05229" lon="-3.31692">
        <ele>3258.2</ele>
        <time>2021-08-06 12:56:52</time>
      </trkpt>
      <trkpt lat="37.05229" lon="-3.31693">
        <ele>3258</ele>
        <time>2021-08-06 12:56:53</time>
      </trkpt>
      <trkpt lat="37.05229" lon="-3.31694">
        <ele>3257.6</ele>
        <time>2021-08-06 12:56:54</time>
      </trkpt>
      <trkpt lat="37.0523" lon="-3.31695">
        <ele>3257.4</ele>
        <time>2021-08-06 12:56:55</time>
      </trkpt>
      <trkpt lat="37.0523" lon="-3.31695">
        <ele>3257</ele>
        <time>2021-08-06 12:56:56</time>
      </trkpt>
      <trkpt lat="37.0523" lon="-3.31695">
        <ele>3256.8</ele>
        <time>2021-08-06 12:56:57</time>
      </trkpt>
      <trkpt lat="37.05229" lon="-3.31695">
        <ele>3256.6</ele>
        <time>2021-08-06 12:56:58</time>
      </trkpt>
      <trkpt lat="37.05229" lon="-3.31695">
        <ele>3256.2</ele>
        <time>2021-08-06 12:56:59</time>
      </trkpt>
      <trkpt lat="37.0523" lon="-3.31695">
        <ele>3256</ele>
        <time>2021-08-06 12:57:00</time>
      </trkpt>
      <trkpt lat="37.0523" lon="-3.31694">
        <ele>3255.8</ele>
        <time>2021-08-06 12:57:01</time>
      </trkpt>
      <trkpt lat="37.0523" lon="-3.31694">
        <ele>3255.4</ele>
        <time>2021-08-06 12:57:02</time>
      </trkpt>
      <trkpt lat="37.05231" lon="-3.31694">
        <ele>3255.2</ele>
        <time>2021-08-06 12:57:03</time>
      </trkpt>
      <trkpt lat="37.05231" lon="-3.31694">
        <ele>3255.2</ele>
        <time>2021-08-06 12:57:04</time>
      </trkpt>
      <trkpt lat="37.05231" lon="-3.31694">
        <ele>3255.2</ele>
        <time>2021-08-06 12:57:05</time>
      </trkpt>
      <trkpt lat="37.05231" lon="-3.31694">
        <ele>3255.2</ele>
        <time>2021-08-06 12:57:06</time>
      </trkpt>
      <trkpt lat="37.05231" lon="-3.31695">
        <ele>3255</ele>
        <time>2021-08-06 12:57:07</time>
      </trkpt>
      <trkpt lat="37.05231" lon="-3.31695">
        <ele>3254.8</ele>
        <time>2021-08-06 12:57:08</time>
      </trkpt>
      <trkpt lat="37.05231" lon="-3.31695">
        <ele>3254.8</ele>
        <time>2021-08-06 12:57:09</time>
      </trkpt>
      <trkpt lat="37.05231" lon="-3.31695">
        <ele>3254.8</ele>
        <time>2021-08-06 12:57:10</time>
      </trkpt>
      <trkpt lat="37.05232" lon="-3.31695">
        <ele>3254.6</ele>
        <time>2021-08-06 12:57:11</time>
      </trkpt>
      <trkpt lat="37.05231" lon="-3.31695">
        <ele>3254.4</ele>
        <time>2021-08-06 12:57:12</time>
      </trkpt>
      <trkpt lat="37.05231" lon="-3.31696">
        <ele>3254.4</ele>
        <time>2021-08-06 12:57:13</time>
      </trkpt>
      <trkpt lat="37.05231" lon="-3.31696">
        <ele>3254.2</ele>
        <time>2021-08-06 12:57:14</time>
      </trkpt>
      <trkpt lat="37.05231" lon="-3.31696">
        <ele>3254</ele>
        <time>2021-08-06 12:57:15</time>
      </trkpt>
      <trkpt lat="37.05231" lon="-3.31696">
        <ele>3254</ele>
        <time>2021-08-06 12:57:16</time>
      </trkpt>
      <trkpt lat="37.05231" lon="-3.31696">
        <ele>3254</ele>
        <time>2021-08-06 12:57:17</time>
      </trkpt>
      <trkpt lat="37.05231" lon="-3.31697">
        <ele>3253.8</ele>
        <time>2021-08-06 12:57:18</time>
      </trkpt>
      <trkpt lat="37.05231" lon="-3.31697">
        <ele>3253.8</ele>
        <time>2021-08-06 12:57:19</time>
      </trkpt>
      <trkpt lat="37.05231" lon="-3.31697">
        <ele>3254</ele>
        <time>2021-08-06 12:57:20</time>
      </trkpt>
      <trkpt lat="37.05231" lon="-3.31697">
        <ele>3254.2</ele>
        <time>2021-08-06 12:57:21</time>
      </trkpt>
      <trkpt lat="37.05231" lon="-3.31697">
        <ele>3254.6</ele>
        <time>2021-08-06 12:57:22</time>
      </trkpt>
      <trkpt lat="37.05231" lon="-3.31697">
        <ele>3254.8</ele>
        <time>2021-08-06 12:57:23</time>
      </trkpt>
      <trkpt lat="37.05231" lon="-3.31697">
        <ele>3255</ele>
        <time>2021-08-06 12:57:24</time>
      </trkpt>
      <trkpt lat="37.05231" lon="-3.31697">
        <ele>3255</ele>
        <time>2021-08-06 12:57:25</time>
      </trkpt>
      <trkpt lat="37.0523" lon="-3.31697">
        <ele>3255.2</ele>
        <time>2021-08-06 12:57:26</time>
      </trkpt>
      <trkpt lat="37.0523" lon="-3.31698">
        <ele>3254.8</ele>
        <time>2021-08-06 12:57:27</time>
      </trkpt>
      <trkpt lat="37.05231" lon="-3.31698">
        <ele>3254.6</ele>
        <time>2021-08-06 12:57:28</time>
      </trkpt>
      <trkpt lat="37.05231" lon="-3.31698">
        <ele>3254.4</ele>
        <time>2021-08-06 12:57:29</time>
      </trkpt>
      <trkpt lat="37.05231" lon="-3.31698">
        <ele>3254.2</ele>
        <time>2021-08-06 12:57:30</time>
      </trkpt>
      <trkpt lat="37.05231" lon="-3.31698">
        <ele>3254.2</ele>
        <time>2021-08-06 12:57:31</time>
      </trkpt>
      <trkpt lat="37.05231" lon="-3.31698">
        <ele>3254.2</ele>
        <time>2021-08-06 12:57:32</time>
      </trkpt>
      <trkpt lat="37.05231" lon="-3.31698">
        <ele>3254</ele>
        <time>2021-08-06 12:57:33</time>
      </trkpt>
      <trkpt lat="37.05231" lon="-3.31698">
        <ele>3254.2</ele>
        <time>2021-08-06 12:57:34</time>
      </trkpt>
      <trkpt lat="37.05231" lon="-3.31698">
        <ele>3254.2</ele>
        <time>2021-08-06 12:57:35</time>
      </trkpt>
      <trkpt lat="37.05231" lon="-3.31698">
        <ele>3254.2</ele>
        <time>2021-08-06 12:57:36</time>
      </trkpt>
      <trkpt lat="37.05231" lon="-3.31698">
        <ele>3254.2</ele>
        <time>2021-08-06 12:57:37</time>
      </trkpt>
      <trkpt lat="37.05231" lon="-3.31698">
        <ele>3254.2</ele>
        <time>2021-08-06 12:57:38</time>
      </trkpt>
      <trkpt lat="37.05231" lon="-3.31698">
        <ele>3254.2</ele>
        <time>2021-08-06 12:57:39</time>
      </trkpt>
      <trkpt lat="37.05231" lon="-3.31698">
        <ele>3254.2</ele>
        <time>2021-08-06 12:57:40</time>
      </trkpt>
      <trkpt lat="37.05231" lon="-3.31698">
        <ele>3254.2</ele>
        <time>2021-08-06 12:57:41</time>
      </trkpt>
      <trkpt lat="37.05231" lon="-3.31697">
        <ele>3254.2</ele>
        <time>2021-08-06 12:57:42</time>
      </trkpt>
      <trkpt lat="37.05231" lon="-3.31697">
        <ele>3254.2</ele>
        <time>2021-08-06 12:57:43</time>
      </trkpt>
      <trkpt lat="37.05231" lon="-3.31697">
        <ele>3254.2</ele>
        <time>2021-08-06 12:57:44</time>
      </trkpt>
      <trkpt lat="37.05231" lon="-3.31697">
        <ele>3254.2</ele>
        <time>2021-08-06 12:57:45</time>
      </trkpt>
      <trkpt lat="37.05231" lon="-3.31697">
        <ele>3254</ele>
        <time>2021-08-06 12:57:46</time>
      </trkpt>
      <trkpt lat="37.05231" lon="-3.31697">
        <ele>3254</ele>
        <time>2021-08-06 12:57:47</time>
      </trkpt>
      <trkpt lat="37.05231" lon="-3.31697">
        <ele>3254</ele>
        <time>2021-08-06 12:57:48</time>
      </trkpt>
      <trkpt lat="37.05231" lon="-3.31697">
        <ele>3254</ele>
        <time>2021-08-06 12:57:49</time>
      </trkpt>
      <trkpt lat="37.05231" lon="-3.31697">
        <ele>3253.8</ele>
        <time>2021-08-06 12:57:50</time>
      </trkpt>
      <trkpt lat="37.05231" lon="-3.31697">
        <ele>3253.8</ele>
        <time>2021-08-06 12:57:51</time>
      </trkpt>
      <trkpt lat="37.05231" lon="-3.31697">
        <ele>3253.8</ele>
        <time>2021-08-06 12:57:52</time>
      </trkpt>
      <trkpt lat="37.05231" lon="-3.31697">
        <ele>3253.8</ele>
        <time>2021-08-06 12:57:53</time>
      </trkpt>
      <trkpt lat="37.05231" lon="-3.31697">
        <ele>3253.8</ele>
        <time>2021-08-06 12:57:54</time>
      </trkpt>
      <trkpt lat="37.05232" lon="-3.31697">
        <ele>3253.8</ele>
        <time>2021-08-06 12:57:55</time>
      </trkpt>
      <trkpt lat="37.05231" lon="-3.31697">
        <ele>3254</ele>
        <time>2021-08-06 12:57:56</time>
      </trkpt>
      <trkpt lat="37.05231" lon="-3.31697">
        <ele>3253.8</ele>
        <time>2021-08-06 12:57:57</time>
      </trkpt>
      <trkpt lat="37.05231" lon="-3.31697">
        <ele>3253.8</ele>
        <time>2021-08-06 12:57:58</time>
      </trkpt>
      <trkpt lat="37.05231" lon="-3.31697">
        <ele>3253.8</ele>
        <time>2021-08-06 12:57:59</time>
      </trkpt>
      <trkpt lat="37.05231" lon="-3.31697">
        <ele>3253.8</ele>
        <time>2021-08-06 12:58:00</time>
      </trkpt>
      <trkpt lat="37.05231" lon="-3.31697">
        <ele>3253.8</ele>
        <time>2021-08-06 12:58:01</time>
      </trkpt>
      <trkpt lat="37.05231" lon="-3.31697">
        <ele>3254.2</ele>
        <time>2021-08-06 12:58:02</time>
      </trkpt>
      <trkpt lat="37.05231" lon="-3.31698">
        <ele>3254.4</ele>
        <time>2021-08-06 12:58:03</time>
      </trkpt>
      <trkpt lat="37.05231" lon="-3.31697">
        <ele>3254.4</ele>
        <time>2021-08-06 12:58:04</time>
      </trkpt>
      <trkpt lat="37.05231" lon="-3.31698">
        <ele>3254.4</ele>
        <time>2021-08-06 12:58:05</time>
      </trkpt>
      <trkpt lat="37.05231" lon="-3.31697">
        <ele>3254.4</ele>
        <time>2021-08-06 12:58:06</time>
      </trkpt>
      <trkpt lat="37.05231" lon="-3.31697">
        <ele>3254.6</ele>
        <time>2021-08-06 12:58:07</time>
      </trkpt>
      <trkpt lat="37.05231" lon="-3.31698">
        <ele>3254.6</ele>
        <time>2021-08-06 12:58:08</time>
      </trkpt>
      <trkpt lat="37.05232" lon="-3.31698">
        <ele>3254.4</ele>
        <time>2021-08-06 12:58:09</time>
      </trkpt>
      <trkpt lat="37.05232" lon="-3.31699">
        <ele>3254.4</ele>
        <time>2021-08-06 12:58:10</time>
      </trkpt>
      <trkpt lat="37.05232" lon="-3.317">
        <ele>3254.2</ele>
        <time>2021-08-06 12:58:11</time>
      </trkpt>
      <trkpt lat="37.05233" lon="-3.31701">
        <ele>3253.8</ele>
        <time>2021-08-06 12:58:12</time>
      </trkpt>
      <trkpt lat="37.05233" lon="-3.31702">
        <ele>3253.6</ele>
        <time>2021-08-06 12:58:13</time>
      </trkpt>
      <trkpt lat="37.05233" lon="-3.31703">
        <ele>3253.6</ele>
        <time>2021-08-06 12:58:14</time>
      </trkpt>
      <trkpt lat="37.05234" lon="-3.31703">
        <ele>3253.6</ele>
        <time>2021-08-06 12:58:15</time>
      </trkpt>
      <trkpt lat="37.05234" lon="-3.31704">
        <ele>3253.4</ele>
        <time>2021-08-06 12:58:16</time>
      </trkpt>
      <trkpt lat="37.05235" lon="-3.31704">
        <ele>3253.4</ele>
        <time>2021-08-06 12:58:17</time>
      </trkpt>
      <trkpt lat="37.05235" lon="-3.31704">
        <ele>3253.4</ele>
        <time>2021-08-06 12:58:18</time>
      </trkpt>
      <trkpt lat="37.05234" lon="-3.31704">
        <ele>3253.4</ele>
        <time>2021-08-06 12:58:19</time>
      </trkpt>
      <trkpt lat="37.05234" lon="-3.31704">
        <ele>3253.2</ele>
        <time>2021-08-06 12:58:20</time>
      </trkpt>
      <trkpt lat="37.05234" lon="-3.31705">
        <ele>3253.2</ele>
        <time>2021-08-06 12:58:21</time>
      </trkpt>
      <trkpt lat="37.05234" lon="-3.31705">
        <ele>3253</ele>
        <time>2021-08-06 12:58:22</time>
      </trkpt>
      <trkpt lat="37.05234" lon="-3.31705">
        <ele>3253</ele>
        <time>2021-08-06 12:58:23</time>
      </trkpt>
      <trkpt lat="37.05235" lon="-3.31705">
        <ele>3252.8</ele>
        <time>2021-08-06 12:58:24</time>
      </trkpt>
      <trkpt lat="37.05235" lon="-3.31705">
        <ele>3252.6</ele>
        <time>2021-08-06 12:58:25</time>
      </trkpt>
      <trkpt lat="37.05235" lon="-3.31706">
        <ele>3252.6</ele>
        <time>2021-08-06 12:58:26</time>
      </trkpt>
      <trkpt lat="37.05236" lon="-3.31706">
        <ele>3252.6</ele>
        <time>2021-08-06 12:58:27</time>
      </trkpt>
      <trkpt lat="37.05236" lon="-3.31706">
        <ele>3252.4</ele>
        <time>2021-08-06 12:58:28</time>
      </trkpt>
      <trkpt lat="37.05236" lon="-3.31706">
        <ele>3252.4</ele>
        <time>2021-08-06 12:58:29</time>
      </trkpt>
      <trkpt lat="37.05236" lon="-3.31706">
        <ele>3252.2</ele>
        <time>2021-08-06 12:58:30</time>
      </trkpt>
      <trkpt lat="37.05236" lon="-3.31706">
        <ele>3252.4</ele>
        <time>2021-08-06 12:58:31</time>
      </trkpt>
      <trkpt lat="37.05236" lon="-3.31705">
        <ele>3252.6</ele>
        <time>2021-08-06 12:58:32</time>
      </trkpt>
      <trkpt lat="37.05237" lon="-3.31706">
        <ele>3252.6</ele>
        <time>2021-08-06 12:58:33</time>
      </trkpt>
      <trkpt lat="37.05237" lon="-3.31706">
        <ele>3252.4</ele>
        <time>2021-08-06 12:58:34</time>
      </trkpt>
      <trkpt lat="37.05237" lon="-3.31706">
        <ele>3252.2</ele>
        <time>2021-08-06 12:58:35</time>
      </trkpt>
      <trkpt lat="37.05237" lon="-3.31705">
        <ele>3252</ele>
        <time>2021-08-06 12:58:36</time>
      </trkpt>
      <trkpt lat="37.05237" lon="-3.31705">
        <ele>3252</ele>
        <time>2021-08-06 12:58:37</time>
      </trkpt>
      <trkpt lat="37.05237" lon="-3.31705">
        <ele>3251.8</ele>
        <time>2021-08-06 12:58:38</time>
      </trkpt>
      <trkpt lat="37.05237" lon="-3.31706">
        <ele>3251.8</ele>
        <time>2021-08-06 12:58:39</time>
      </trkpt>
      <trkpt lat="37.05237" lon="-3.31706">
        <ele>3251.8</ele>
        <time>2021-08-06 12:58:40</time>
      </trkpt>
      <trkpt lat="37.05237" lon="-3.31706">
        <ele>3251.8</ele>
        <time>2021-08-06 12:58:41</time>
      </trkpt>
      <trkpt lat="37.05237" lon="-3.31706">
        <ele>3251.6</ele>
        <time>2021-08-06 12:58:42</time>
      </trkpt>
      <trkpt lat="37.05237" lon="-3.31706">
        <ele>3251.6</ele>
        <time>2021-08-06 12:58:43</time>
      </trkpt>
      <trkpt lat="37.05237" lon="-3.31706">
        <ele>3251.6</ele>
        <time>2021-08-06 12:58:44</time>
      </trkpt>
      <trkpt lat="37.05237" lon="-3.31706">
        <ele>3251.8</ele>
        <time>2021-08-06 12:58:45</time>
      </trkpt>
      <trkpt lat="37.05237" lon="-3.31706">
        <ele>3252</ele>
        <time>2021-08-06 12:58:46</time>
      </trkpt>
      <trkpt lat="37.05237" lon="-3.31706">
        <ele>3252</ele>
        <time>2021-08-06 12:58:47</time>
      </trkpt>
      <trkpt lat="37.05237" lon="-3.31706">
        <ele>3252</ele>
        <time>2021-08-06 12:58:48</time>
      </trkpt>
      <trkpt lat="37.05236" lon="-3.31706">
        <ele>3252</ele>
        <time>2021-08-06 12:58:49</time>
      </trkpt>
      <trkpt lat="37.05236" lon="-3.31706">
        <ele>3252</ele>
        <time>2021-08-06 12:58:50</time>
      </trkpt>
      <trkpt lat="37.05236" lon="-3.31707">
        <ele>3252</ele>
        <time>2021-08-06 12:58:51</time>
      </trkpt>
      <trkpt lat="37.05236" lon="-3.31707">
        <ele>3252</ele>
        <time>2021-08-06 12:58:52</time>
      </trkpt>
      <trkpt lat="37.05236" lon="-3.31707">
        <ele>3252</ele>
        <time>2021-08-06 12:58:53</time>
      </trkpt>
      <trkpt lat="37.05236" lon="-3.31707">
        <ele>3251.8</ele>
        <time>2021-08-06 12:58:54</time>
      </trkpt>
      <trkpt lat="37.05236" lon="-3.31707">
        <ele>3251.8</ele>
        <time>2021-08-06 12:58:55</time>
      </trkpt>
      <trkpt lat="37.05236" lon="-3.31707">
        <ele>3252</ele>
        <time>2021-08-06 12:58:56</time>
      </trkpt>
      <trkpt lat="37.05236" lon="-3.31708">
        <ele>3251.8</ele>
        <time>2021-08-06 12:58:57</time>
      </trkpt>
      <trkpt lat="37.05237" lon="-3.31708">
        <ele>3251.8</ele>
        <time>2021-08-06 12:58:58</time>
      </trkpt>
      <trkpt lat="37.05237" lon="-3.31708">
        <ele>3251.8</ele>
        <time>2021-08-06 12:58:59</time>
      </trkpt>
      <trkpt lat="37.05237" lon="-3.31708">
        <ele>3251.8</ele>
        <time>2021-08-06 12:59:00</time>
      </trkpt>
      <trkpt lat="37.05237" lon="-3.31708">
        <ele>3251.8</ele>
        <time>2021-08-06 12:59:01</time>
      </trkpt>
      <trkpt lat="37.05238" lon="-3.31707">
        <ele>3251.8</ele>
        <time>2021-08-06 12:59:02</time>
      </trkpt>
      <trkpt lat="37.05239" lon="-3.31707">
        <ele>3251.8</ele>
        <time>2021-08-06 12:59:03</time>
      </trkpt>
      <trkpt lat="37.05239" lon="-3.31706">
        <ele>3252</ele>
        <time>2021-08-06 12:59:04</time>
      </trkpt>
      <trkpt lat="37.05239" lon="-3.31706">
        <ele>3252.2</ele>
        <time>2021-08-06 12:59:05</time>
      </trkpt>
      <trkpt lat="37.0524" lon="-3.31707">
        <ele>3252.2</ele>
        <time>2021-08-06 12:59:06</time>
      </trkpt>
      <trkpt lat="37.0524" lon="-3.31707">
        <ele>3252.2</ele>
        <time>2021-08-06 12:59:07</time>
      </trkpt>
      <trkpt lat="37.0524" lon="-3.31707">
        <ele>3252.2</ele>
        <time>2021-08-06 12:59:08</time>
      </trkpt>
      <trkpt lat="37.0524" lon="-3.31707">
        <ele>3252</ele>
        <time>2021-08-06 12:59:09</time>
      </trkpt>
      <trkpt lat="37.0524" lon="-3.31707">
        <ele>3251.6</ele>
        <time>2021-08-06 12:59:10</time>
      </trkpt>
      <trkpt lat="37.0524" lon="-3.31706">
        <ele>3251.4</ele>
        <time>2021-08-06 12:59:11</time>
      </trkpt>
      <trkpt lat="37.05239" lon="-3.31706">
        <ele>3251.6</ele>
        <time>2021-08-06 12:59:12</time>
      </trkpt>
      <trkpt lat="37.05239" lon="-3.31706">
        <ele>3251.6</ele>
        <time>2021-08-06 12:59:13</time>
      </trkpt>
      <trkpt lat="37.05239" lon="-3.31706">
        <ele>3251.6</ele>
        <time>2021-08-06 12:59:14</time>
      </trkpt>
      <trkpt lat="37.05239" lon="-3.31706">
        <ele>3251.6</ele>
        <time>2021-08-06 12:59:15</time>
      </trkpt>
      <trkpt lat="37.05239" lon="-3.31706">
        <ele>3251.6</ele>
        <time>2021-08-06 12:59:16</time>
      </trkpt>
      <trkpt lat="37.05238" lon="-3.31706">
        <ele>3251.8</ele>
        <time>2021-08-06 12:59:17</time>
      </trkpt>
      <trkpt lat="37.05238" lon="-3.31706">
        <ele>3251.6</ele>
        <time>2021-08-06 12:59:18</time>
      </trkpt>
      <trkpt lat="37.05238" lon="-3.31707">
        <ele>3251.6</ele>
        <time>2021-08-06 12:59:19</time>
      </trkpt>
      <trkpt lat="37.05238" lon="-3.31707">
        <ele>3251.6</ele>
        <time>2021-08-06 12:59:20</time>
      </trkpt>
      <trkpt lat="37.05238" lon="-3.31707">
        <ele>3251.6</ele>
        <time>2021-08-06 12:59:21</time>
      </trkpt>
      <trkpt lat="37.05238" lon="-3.31707">
        <ele>3251.6</ele>
        <time>2021-08-06 12:59:22</time>
      </trkpt>
      <trkpt lat="37.05238" lon="-3.31707">
        <ele>3251.6</ele>
        <time>2021-08-06 12:59:23</time>
      </trkpt>
      <trkpt lat="37.05238" lon="-3.31708">
        <ele>3251.4</ele>
        <time>2021-08-06 12:59:24</time>
      </trkpt>
      <trkpt lat="37.05238" lon="-3.31708">
        <ele>3251.4</ele>
        <time>2021-08-06 12:59:25</time>
      </trkpt>
      <trkpt lat="37.05238" lon="-3.3171">
        <ele>3251.2</ele>
        <time>2021-08-06 12:59:26</time>
      </trkpt>
      <trkpt lat="37.05237" lon="-3.31711">
        <ele>3250.8</ele>
        <time>2021-08-06 12:59:27</time>
      </trkpt>
      <trkpt lat="37.05238" lon="-3.31711">
        <ele>3250.8</ele>
        <time>2021-08-06 12:59:28</time>
      </trkpt>
      <trkpt lat="37.05238" lon="-3.31712">
        <ele>3250.6</ele>
        <time>2021-08-06 12:59:29</time>
      </trkpt>
      <trkpt lat="37.05238" lon="-3.31712">
        <ele>3250.6</ele>
        <time>2021-08-06 12:59:30</time>
      </trkpt>
      <trkpt lat="37.05238" lon="-3.31713">
        <ele>3250.4</ele>
        <time>2021-08-06 12:59:31</time>
      </trkpt>
      <trkpt lat="37.05239" lon="-3.31713">
        <ele>3250.4</ele>
        <time>2021-08-06 12:59:32</time>
      </trkpt>
      <trkpt lat="37.05239" lon="-3.31713">
        <ele>3249.8</ele>
        <time>2021-08-06 12:59:33</time>
      </trkpt>
      <trkpt lat="37.0524" lon="-3.31714">
        <ele>3249.2</ele>
        <time>2021-08-06 12:59:34</time>
      </trkpt>
      <trkpt lat="37.0524" lon="-3.31714">
        <ele>3248.8</ele>
        <time>2021-08-06 12:59:35</time>
      </trkpt>
      <trkpt lat="37.05241" lon="-3.31715">
        <ele>3248.4</ele>
        <time>2021-08-06 12:59:36</time>
      </trkpt>
      <trkpt lat="37.05241" lon="-3.31716">
        <ele>3248.4</ele>
        <time>2021-08-06 12:59:37</time>
      </trkpt>
      <trkpt lat="37.05241" lon="-3.31716">
        <ele>3248</ele>
        <time>2021-08-06 12:59:38</time>
      </trkpt>
      <trkpt lat="37.05242" lon="-3.31716">
        <ele>3247.8</ele>
        <time>2021-08-06 12:59:39</time>
      </trkpt>
      <trkpt lat="37.05242" lon="-3.31717">
        <ele>3247.6</ele>
        <time>2021-08-06 12:59:40</time>
      </trkpt>
      <trkpt lat="37.05243" lon="-3.31716">
        <ele>3247.4</ele>
        <time>2021-08-06 12:59:41</time>
      </trkpt>
      <trkpt lat="37.05244" lon="-3.31716">
        <ele>3247.2</ele>
        <time>2021-08-06 12:59:42</time>
      </trkpt>
      <trkpt lat="37.05244" lon="-3.31716">
        <ele>3247</ele>
        <time>2021-08-06 12:59:43</time>
      </trkpt>
      <trkpt lat="37.05244" lon="-3.31716">
        <ele>3246.8</ele>
        <time>2021-08-06 12:59:44</time>
      </trkpt>
      <trkpt lat="37.05244" lon="-3.31716">
        <ele>3246.8</ele>
        <time>2021-08-06 12:59:45</time>
      </trkpt>
      <trkpt lat="37.05244" lon="-3.31716">
        <ele>3246.8</ele>
        <time>2021-08-06 12:59:46</time>
      </trkpt>
      <trkpt lat="37.05243" lon="-3.31716">
        <ele>3246.6</ele>
        <time>2021-08-06 12:59:47</time>
      </trkpt>
      <trkpt lat="37.05243" lon="-3.31716">
        <ele>3246.6</ele>
        <time>2021-08-06 12:59:48</time>
      </trkpt>
      <trkpt lat="37.05243" lon="-3.31717">
        <ele>3246.6</ele>
        <time>2021-08-06 12:59:49</time>
      </trkpt>
      <trkpt lat="37.05243" lon="-3.31717">
        <ele>3246.6</ele>
        <time>2021-08-06 12:59:50</time>
      </trkpt>
      <trkpt lat="37.05243" lon="-3.31717">
        <ele>3246.6</ele>
        <time>2021-08-06 12:59:51</time>
      </trkpt>
      <trkpt lat="37.05242" lon="-3.31717">
        <ele>3246.6</ele>
        <time>2021-08-06 12:59:52</time>
      </trkpt>
      <trkpt lat="37.05242" lon="-3.31718">
        <ele>3246.6</ele>
        <time>2021-08-06 12:59:53</time>
      </trkpt>
      <trkpt lat="37.05242" lon="-3.31718">
        <ele>3246.6</ele>
        <time>2021-08-06 12:59:54</time>
      </trkpt>
      <trkpt lat="37.05242" lon="-3.31719">
        <ele>3246.6</ele>
        <time>2021-08-06 12:59:55</time>
      </trkpt>
      <trkpt lat="37.05242" lon="-3.31719">
        <ele>3246.6</ele>
        <time>2021-08-06 12:59:56</time>
      </trkpt>
      <trkpt lat="37.05242" lon="-3.3172">
        <ele>3246.6</ele>
        <time>2021-08-06 12:59:57</time>
      </trkpt>
      <trkpt lat="37.05242" lon="-3.31719">
        <ele>3246.6</ele>
        <time>2021-08-06 12:59:58</time>
      </trkpt>
      <trkpt lat="37.05243" lon="-3.3172">
        <ele>3246.8</ele>
        <time>2021-08-06 12:59:59</time>
      </trkpt>
      <trkpt lat="37.05242" lon="-3.31721">
        <ele>3246.8</ele>
        <time>2021-08-06 13:00:00</time>
      </trkpt>
      <trkpt lat="37.05242" lon="-3.31722">
        <ele>3247</ele>
        <time>2021-08-06 13:00:01</time>
      </trkpt>
      <trkpt lat="37.05242" lon="-3.31724">
        <ele>3247.2</ele>
        <time>2021-08-06 13:00:02</time>
      </trkpt>
      <trkpt lat="37.05241" lon="-3.31725">
        <ele>3247.2</ele>
        <time>2021-08-06 13:00:03</time>
      </trkpt>
      <trkpt lat="37.05241" lon="-3.31726">
        <ele>3247.2</ele>
        <time>2021-08-06 13:00:04</time>
      </trkpt>
      <trkpt lat="37.05241" lon="-3.31727">
        <ele>3247</ele>
        <time>2021-08-06 13:00:05</time>
      </trkpt>
      <trkpt lat="37.05241" lon="-3.31728">
        <ele>3246.6</ele>
        <time>2021-08-06 13:00:06</time>
      </trkpt>
      <trkpt lat="37.05242" lon="-3.31728">
        <ele>3246.4</ele>
        <time>2021-08-06 13:00:07</time>
      </trkpt>
      <trkpt lat="37.05244" lon="-3.31729">
        <ele>3246.2</ele>
        <time>2021-08-06 13:00:08</time>
      </trkpt>
      <trkpt lat="37.05246" lon="-3.31731">
        <ele>3246.2</ele>
        <time>2021-08-06 13:00:09</time>
      </trkpt>
      <trkpt lat="37.05247" lon="-3.31732">
        <ele>3246.2</ele>
        <time>2021-08-06 13:00:10</time>
      </trkpt>
      <trkpt lat="37.05247" lon="-3.31734">
        <ele>3246</ele>
        <time>2021-08-06 13:00:11</time>
      </trkpt>
      <trkpt lat="37.05246" lon="-3.31735">
        <ele>3245.8</ele>
        <time>2021-08-06 13:00:12</time>
      </trkpt>
      <trkpt lat="37.05246" lon="-3.31737">
        <ele>3244.8</ele>
        <time>2021-08-06 13:00:13</time>
      </trkpt>
      <trkpt lat="37.05246" lon="-3.31738">
        <ele>3244.4</ele>
        <time>2021-08-06 13:00:14</time>
      </trkpt>
      <trkpt lat="37.05246" lon="-3.31738">
        <ele>3243.6</ele>
        <time>2021-08-06 13:00:15</time>
      </trkpt>
      <trkpt lat="37.05247" lon="-3.31739">
        <ele>3243</ele>
        <time>2021-08-06 13:00:16</time>
      </trkpt>
      <trkpt lat="37.05248" lon="-3.31739">
        <ele>3242.6</ele>
        <time>2021-08-06 13:00:17</time>
      </trkpt>
      <trkpt lat="37.05249" lon="-3.31739">
        <ele>3242.4</ele>
        <time>2021-08-06 13:00:18</time>
      </trkpt>
      <trkpt lat="37.05249" lon="-3.31739">
        <ele>3242</ele>
        <time>2021-08-06 13:00:19</time>
      </trkpt>
      <trkpt lat="37.05249" lon="-3.31739">
        <ele>3242</ele>
        <time>2021-08-06 13:00:20</time>
      </trkpt>
      <trkpt lat="37.0525" lon="-3.31739">
        <ele>3241.8</ele>
        <time>2021-08-06 13:00:21</time>
      </trkpt>
      <trkpt lat="37.0525" lon="-3.31738">
        <ele>3241.6</ele>
        <time>2021-08-06 13:00:22</time>
      </trkpt>
      <trkpt lat="37.0525" lon="-3.31738">
        <ele>3241.6</ele>
        <time>2021-08-06 13:00:23</time>
      </trkpt>
      <trkpt lat="37.0525" lon="-3.31738">
        <ele>3241.4</ele>
        <time>2021-08-06 13:00:24</time>
      </trkpt>
      <trkpt lat="37.0525" lon="-3.31738">
        <ele>3241.2</ele>
        <time>2021-08-06 13:00:25</time>
      </trkpt>
      <trkpt lat="37.0525" lon="-3.31737">
        <ele>3241</ele>
        <time>2021-08-06 13:00:26</time>
      </trkpt>
      <trkpt lat="37.05251" lon="-3.31737">
        <ele>3241</ele>
        <time>2021-08-06 13:00:27</time>
      </trkpt>
      <trkpt lat="37.05251" lon="-3.31737">
        <ele>3241</ele>
        <time>2021-08-06 13:00:28</time>
      </trkpt>
      <trkpt lat="37.05251" lon="-3.31736">
        <ele>3241</ele>
        <time>2021-08-06 13:00:29</time>
      </trkpt>
      <trkpt lat="37.05251" lon="-3.31736">
        <ele>3241</ele>
        <time>2021-08-06 13:00:30</time>
      </trkpt>
      <trkpt lat="37.05252" lon="-3.31736">
        <ele>3241</ele>
        <time>2021-08-06 13:00:31</time>
      </trkpt>
      <trkpt lat="37.05252" lon="-3.31736">
        <ele>3241</ele>
        <time>2021-08-06 13:00:32</time>
      </trkpt>
      <trkpt lat="37.05252" lon="-3.31736">
        <ele>3240.8</ele>
        <time>2021-08-06 13:00:33</time>
      </trkpt>
      <trkpt lat="37.05252" lon="-3.31736">
        <ele>3240.6</ele>
        <time>2021-08-06 13:00:34</time>
      </trkpt>
      <trkpt lat="37.05252" lon="-3.31736">
        <ele>3240.6</ele>
        <time>2021-08-06 13:00:35</time>
      </trkpt>
      <trkpt lat="37.05252" lon="-3.31736">
        <ele>3240.6</ele>
        <time>2021-08-06 13:00:36</time>
      </trkpt>
      <trkpt lat="37.05253" lon="-3.31735">
        <ele>3240.6</ele>
        <time>2021-08-06 13:00:37</time>
      </trkpt>
      <trkpt lat="37.05253" lon="-3.31734">
        <ele>3240.8</ele>
        <time>2021-08-06 13:00:38</time>
      </trkpt>
      <trkpt lat="37.05253" lon="-3.31734">
        <ele>3241</ele>
        <time>2021-08-06 13:00:39</time>
      </trkpt>
      <trkpt lat="37.05253" lon="-3.31735">
        <ele>3241</ele>
        <time>2021-08-06 13:00:40</time>
      </trkpt>
      <trkpt lat="37.05253" lon="-3.31735">
        <ele>3241</ele>
        <time>2021-08-06 13:00:41</time>
      </trkpt>
      <trkpt lat="37.05253" lon="-3.31735">
        <ele>3241.2</ele>
        <time>2021-08-06 13:00:42</time>
      </trkpt>
      <trkpt lat="37.05253" lon="-3.31735">
        <ele>3241.2</ele>
        <time>2021-08-06 13:00:43</time>
      </trkpt>
      <trkpt lat="37.05253" lon="-3.31734">
        <ele>3241.2</ele>
        <time>2021-08-06 13:00:44</time>
      </trkpt>
      <trkpt lat="37.05253" lon="-3.31734">
        <ele>3241.4</ele>
        <time>2021-08-06 13:00:45</time>
      </trkpt>
      <trkpt lat="37.05253" lon="-3.31734">
        <ele>3241.4</ele>
        <time>2021-08-06 13:00:46</time>
      </trkpt>
      <trkpt lat="37.05253" lon="-3.31734">
        <ele>3241.4</ele>
        <time>2021-08-06 13:00:47</time>
      </trkpt>
      <trkpt lat="37.05253" lon="-3.31734">
        <ele>3241.4</ele>
        <time>2021-08-06 13:00:48</time>
      </trkpt>
      <trkpt lat="37.05253" lon="-3.31733">
        <ele>3241.4</ele>
        <time>2021-08-06 13:00:49</time>
      </trkpt>
      <trkpt lat="37.05253" lon="-3.31733">
        <ele>3241.6</ele>
        <time>2021-08-06 13:00:50</time>
      </trkpt>
      <trkpt lat="37.05253" lon="-3.31733">
        <ele>3241.6</ele>
        <time>2021-08-06 13:00:51</time>
      </trkpt>
      <trkpt lat="37.05253" lon="-3.31733">
        <ele>3241.6</ele>
        <time>2021-08-06 13:00:52</time>
      </trkpt>
      <trkpt lat="37.05253" lon="-3.31733">
        <ele>3241.6</ele>
        <time>2021-08-06 13:00:53</time>
      </trkpt>
      <trkpt lat="37.05253" lon="-3.31733">
        <ele>3241.8</ele>
        <time>2021-08-06 13:00:54</time>
      </trkpt>
      <trkpt lat="37.05253" lon="-3.31733">
        <ele>3241.8</ele>
        <time>2021-08-06 13:00:55</time>
      </trkpt>
      <trkpt lat="37.05253" lon="-3.31733">
        <ele>3241.8</ele>
        <time>2021-08-06 13:00:56</time>
      </trkpt>
      <trkpt lat="37.05252" lon="-3.31733">
        <ele>3241.6</ele>
        <time>2021-08-06 13:00:57</time>
      </trkpt>
      <trkpt lat="37.05252" lon="-3.31733">
        <ele>3241.6</ele>
        <time>2021-08-06 13:00:58</time>
      </trkpt>
      <trkpt lat="37.05252" lon="-3.31733">
        <ele>3241.2</ele>
        <time>2021-08-06 13:00:59</time>
      </trkpt>
      <trkpt lat="37.05252" lon="-3.31734">
        <ele>3241</ele>
        <time>2021-08-06 13:01:00</time>
      </trkpt>
      <trkpt lat="37.05252" lon="-3.31734">
        <ele>3240.8</ele>
        <time>2021-08-06 13:01:01</time>
      </trkpt>
      <trkpt lat="37.05252" lon="-3.31734">
        <ele>3240.6</ele>
        <time>2021-08-06 13:01:02</time>
      </trkpt>
      <trkpt lat="37.05252" lon="-3.31736">
        <ele>3240.6</ele>
        <time>2021-08-06 13:01:03</time>
      </trkpt>
      <trkpt lat="37.05252" lon="-3.31737">
        <ele>3240.6</ele>
        <time>2021-08-06 13:01:04</time>
      </trkpt>
      <trkpt lat="37.05252" lon="-3.31737">
        <ele>3240.8</ele>
        <time>2021-08-06 13:01:05</time>
      </trkpt>
      <trkpt lat="37.05252" lon="-3.31737">
        <ele>3241</ele>
        <time>2021-08-06 13:01:06</time>
      </trkpt>
      <trkpt lat="37.05252" lon="-3.31737">
        <ele>3241</ele>
        <time>2021-08-06 13:01:07</time>
      </trkpt>
      <trkpt lat="37.05252" lon="-3.31737">
        <ele>3241.2</ele>
        <time>2021-08-06 13:01:08</time>
      </trkpt>
      <trkpt lat="37.05252" lon="-3.31737">
        <ele>3241.2</ele>
        <time>2021-08-06 13:01:09</time>
      </trkpt>
      <trkpt lat="37.05252" lon="-3.31737">
        <ele>3241.2</ele>
        <time>2021-08-06 13:01:10</time>
      </trkpt>
      <trkpt lat="37.05252" lon="-3.31737">
        <ele>3241.2</ele>
        <time>2021-08-06 13:01:11</time>
      </trkpt>
      <trkpt lat="37.05252" lon="-3.31737">
        <ele>3241.2</ele>
        <time>2021-08-06 13:01:12</time>
      </trkpt>
      <trkpt lat="37.05252" lon="-3.31737">
        <ele>3241.4</ele>
        <time>2021-08-06 13:01:13</time>
      </trkpt>
      <trkpt lat="37.05252" lon="-3.31736">
        <ele>3241.4</ele>
        <time>2021-08-06 13:01:14</time>
      </trkpt>
      <trkpt lat="37.05252" lon="-3.31736">
        <ele>3241.4</ele>
        <time>2021-08-06 13:01:15</time>
      </trkpt>
      <trkpt lat="37.05252" lon="-3.31736">
        <ele>3241.4</ele>
        <time>2021-08-06 13:01:16</time>
      </trkpt>
      <trkpt lat="37.05252" lon="-3.31736">
        <ele>3241.4</ele>
        <time>2021-08-06 13:01:17</time>
      </trkpt>
      <trkpt lat="37.05252" lon="-3.31736">
        <ele>3241.6</ele>
        <time>2021-08-06 13:01:18</time>
      </trkpt>
      <trkpt lat="37.05252" lon="-3.31736">
        <ele>3241.6</ele>
        <time>2021-08-06 13:01:19</time>
      </trkpt>
      <trkpt lat="37.05252" lon="-3.31736">
        <ele>3241.6</ele>
        <time>2021-08-06 13:01:20</time>
      </trkpt>
      <trkpt lat="37.05252" lon="-3.31735">
        <ele>3241.4</ele>
        <time>2021-08-06 13:01:21</time>
      </trkpt>
      <trkpt lat="37.05252" lon="-3.31735">
        <ele>3241.2</ele>
        <time>2021-08-06 13:01:22</time>
      </trkpt>
      <trkpt lat="37.05252" lon="-3.31735">
        <ele>3241.2</ele>
        <time>2021-08-06 13:01:23</time>
      </trkpt>
      <trkpt lat="37.05251" lon="-3.31736">
        <ele>3241.2</ele>
        <time>2021-08-06 13:01:24</time>
      </trkpt>
      <trkpt lat="37.05251" lon="-3.31736">
        <ele>3241</ele>
        <time>2021-08-06 13:01:25</time>
      </trkpt>
      <trkpt lat="37.05251" lon="-3.31737">
        <ele>3240.8</ele>
        <time>2021-08-06 13:01:26</time>
      </trkpt>
      <trkpt lat="37.05251" lon="-3.31737">
        <ele>3240.8</ele>
        <time>2021-08-06 13:01:27</time>
      </trkpt>
      <trkpt lat="37.05251" lon="-3.31737">
        <ele>3240.8</ele>
        <time>2021-08-06 13:01:28</time>
      </trkpt>
      <trkpt lat="37.05251" lon="-3.31737">
        <ele>3240.8</ele>
        <time>2021-08-06 13:01:29</time>
      </trkpt>
      <trkpt lat="37.05251" lon="-3.31737">
        <ele>3240.8</ele>
        <time>2021-08-06 13:01:30</time>
      </trkpt>
      <trkpt lat="37.05251" lon="-3.31737">
        <ele>3240.6</ele>
        <time>2021-08-06 13:01:31</time>
      </trkpt>
      <trkpt lat="37.05252" lon="-3.31737">
        <ele>3240.6</ele>
        <time>2021-08-06 13:01:32</time>
      </trkpt>
      <trkpt lat="37.05252" lon="-3.31736">
        <ele>3240.6</ele>
        <time>2021-08-06 13:01:33</time>
      </trkpt>
      <trkpt lat="37.05252" lon="-3.31737">
        <ele>3240.6</ele>
        <time>2021-08-06 13:01:34</time>
      </trkpt>
      <trkpt lat="37.05252" lon="-3.31737">
        <ele>3240.6</ele>
        <time>2021-08-06 13:01:35</time>
      </trkpt>
      <trkpt lat="37.05252" lon="-3.31737">
        <ele>3240.6</ele>
        <time>2021-08-06 13:01:36</time>
      </trkpt>
      <trkpt lat="37.05252" lon="-3.31737">
        <ele>3240.6</ele>
        <time>2021-08-06 13:01:37</time>
      </trkpt>
      <trkpt lat="37.05252" lon="-3.31737">
        <ele>3240.6</ele>
        <time>2021-08-06 13:01:38</time>
      </trkpt>
      <trkpt lat="37.05252" lon="-3.31737">
        <ele>3240.6</ele>
        <time>2021-08-06 13:01:39</time>
      </trkpt>
      <trkpt lat="37.05251" lon="-3.31736">
        <ele>3240.6</ele>
        <time>2021-08-06 13:01:40</time>
      </trkpt>
      <trkpt lat="37.05252" lon="-3.31736">
        <ele>3240.6</ele>
        <time>2021-08-06 13:01:41</time>
      </trkpt>
      <trkpt lat="37.05252" lon="-3.31736">
        <ele>3240.6</ele>
        <time>2021-08-06 13:01:42</time>
      </trkpt>
      <trkpt lat="37.05252" lon="-3.31736">
        <ele>3240.6</ele>
        <time>2021-08-06 13:01:43</time>
      </trkpt>
      <trkpt lat="37.05252" lon="-3.31736">
        <ele>3240.6</ele>
        <time>2021-08-06 13:01:44</time>
      </trkpt>
      <trkpt lat="37.05252" lon="-3.31736">
        <ele>3240.6</ele>
        <time>2021-08-06 13:01:45</time>
      </trkpt>
      <trkpt lat="37.05252" lon="-3.31736">
        <ele>3240.6</ele>
        <time>2021-08-06 13:01:46</time>
      </trkpt>
      <trkpt lat="37.05252" lon="-3.31736">
        <ele>3240.6</ele>
        <time>2021-08-06 13:01:47</time>
      </trkpt>
      <trkpt lat="37.05252" lon="-3.31736">
        <ele>3240.6</ele>
        <time>2021-08-06 13:01:48</time>
      </trkpt>
      <trkpt lat="37.05252" lon="-3.31736">
        <ele>3241</ele>
        <time>2021-08-06 13:01:49</time>
      </trkpt>
      <trkpt lat="37.05252" lon="-3.31736">
        <ele>3241</ele>
        <time>2021-08-06 13:01:50</time>
      </trkpt>
      <trkpt lat="37.05252" lon="-3.31736">
        <ele>3241.2</ele>
        <time>2021-08-06 13:01:51</time>
      </trkpt>
      <trkpt lat="37.05252" lon="-3.31736">
        <ele>3241.2</ele>
        <time>2021-08-06 13:01:52</time>
      </trkpt>
      <trkpt lat="37.05252" lon="-3.31736">
        <ele>3241.2</ele>
        <time>2021-08-06 13:01:53</time>
      </trkpt>
      <trkpt lat="37.05252" lon="-3.31736">
        <ele>3241.2</ele>
        <time>2021-08-06 13:01:54</time>
      </trkpt>
      <trkpt lat="37.05252" lon="-3.31736">
        <ele>3241.2</ele>
        <time>2021-08-06 13:01:55</time>
      </trkpt>
      <trkpt lat="37.05252" lon="-3.31736">
        <ele>3241</ele>
        <time>2021-08-06 13:01:56</time>
      </trkpt>
      <trkpt lat="37.05252" lon="-3.31736">
        <ele>3241</ele>
        <time>2021-08-06 13:01:57</time>
      </trkpt>
      <trkpt lat="37.05252" lon="-3.31736">
        <ele>3241</ele>
        <time>2021-08-06 13:01:58</time>
      </trkpt>
      <trkpt lat="37.05252" lon="-3.31736">
        <ele>3241</ele>
        <time>2021-08-06 13:01:59</time>
      </trkpt>
      <trkpt lat="37.05252" lon="-3.31736">
        <ele>3240.8</ele>
        <time>2021-08-06 13:02:00</time>
      </trkpt>
      <trkpt lat="37.05252" lon="-3.31736">
        <ele>3240.8</ele>
        <time>2021-08-06 13:02:01</time>
      </trkpt>
      <trkpt lat="37.05252" lon="-3.31736">
        <ele>3240.8</ele>
        <time>2021-08-06 13:02:02</time>
      </trkpt>
      <trkpt lat="37.05252" lon="-3.31736">
        <ele>3240.8</ele>
        <time>2021-08-06 13:02:03</time>
      </trkpt>
      <trkpt lat="37.05252" lon="-3.31736">
        <ele>3240.8</ele>
        <time>2021-08-06 13:02:04</time>
      </trkpt>
      <trkpt lat="37.05252" lon="-3.31736">
        <ele>3240.8</ele>
        <time>2021-08-06 13:02:05</time>
      </trkpt>
      <trkpt lat="37.05252" lon="-3.31736">
        <ele>3240.8</ele>
        <time>2021-08-06 13:02:06</time>
      </trkpt>
      <trkpt lat="37.05252" lon="-3.31736">
        <ele>3240.8</ele>
        <time>2021-08-06 13:02:07</time>
      </trkpt>
      <trkpt lat="37.05252" lon="-3.31736">
        <ele>3240.8</ele>
        <time>2021-08-06 13:02:08</time>
      </trkpt>
      <trkpt lat="37.05252" lon="-3.31736">
        <ele>3240.8</ele>
        <time>2021-08-06 13:02:09</time>
      </trkpt>
      <trkpt lat="37.05252" lon="-3.31737">
        <ele>3240.8</ele>
        <time>2021-08-06 13:02:10</time>
      </trkpt>
      <trkpt lat="37.05252" lon="-3.31737">
        <ele>3240.8</ele>
        <time>2021-08-06 13:02:11</time>
      </trkpt>
      <trkpt lat="37.05252" lon="-3.31737">
        <ele>3240.8</ele>
        <time>2021-08-06 13:02:12</time>
      </trkpt>
      <trkpt lat="37.05252" lon="-3.31737">
        <ele>3240.8</ele>
        <time>2021-08-06 13:02:13</time>
      </trkpt>
      <trkpt lat="37.05252" lon="-3.31738">
        <ele>3240.8</ele>
        <time>2021-08-06 13:02:14</time>
      </trkpt>
      <trkpt lat="37.05251" lon="-3.31738">
        <ele>3240.8</ele>
        <time>2021-08-06 13:02:15</time>
      </trkpt>
      <trkpt lat="37.05251" lon="-3.31738">
        <ele>3240.8</ele>
        <time>2021-08-06 13:02:16</time>
      </trkpt>
      <trkpt lat="37.05251" lon="-3.31738">
        <ele>3240.8</ele>
        <time>2021-08-06 13:02:17</time>
      </trkpt>
      <trkpt lat="37.05251" lon="-3.31738">
        <ele>3240.8</ele>
        <time>2021-08-06 13:02:18</time>
      </trkpt>
      <trkpt lat="37.05251" lon="-3.31738">
        <ele>3240.8</ele>
        <time>2021-08-06 13:02:19</time>
      </trkpt>
      <trkpt lat="37.05251" lon="-3.31738">
        <ele>3240.8</ele>
        <time>2021-08-06 13:02:20</time>
      </trkpt>
      <trkpt lat="37.05251" lon="-3.31738">
        <ele>3240.8</ele>
        <time>2021-08-06 13:02:21</time>
      </trkpt>
      <trkpt lat="37.05251" lon="-3.31738">
        <ele>3240.8</ele>
        <time>2021-08-06 13:02:22</time>
      </trkpt>
      <trkpt lat="37.05251" lon="-3.31738">
        <ele>3240.8</ele>
        <time>2021-08-06 13:02:23</time>
      </trkpt>
      <trkpt lat="37.05251" lon="-3.31738">
        <ele>3240.8</ele>
        <time>2021-08-06 13:02:24</time>
      </trkpt>
      <trkpt lat="37.05251" lon="-3.31738">
        <ele>3240.8</ele>
        <time>2021-08-06 13:02:25</time>
      </trkpt>
      <trkpt lat="37.05251" lon="-3.31738">
        <ele>3240.8</ele>
        <time>2021-08-06 13:02:26</time>
      </trkpt>
      <trkpt lat="37.05251" lon="-3.31738">
        <ele>3240.8</ele>
        <time>2021-08-06 13:02:27</time>
      </trkpt>
      <trkpt lat="37.0525" lon="-3.31737">
        <ele>3240.8</ele>
        <time>2021-08-06 13:02:28</time>
      </trkpt>
      <trkpt lat="37.05251" lon="-3.31737">
        <ele>3240.8</ele>
        <time>2021-08-06 13:02:29</time>
      </trkpt>
      <trkpt lat="37.05251" lon="-3.31737">
        <ele>3240.8</ele>
        <time>2021-08-06 13:02:30</time>
      </trkpt>
      <trkpt lat="37.05251" lon="-3.31737">
        <ele>3240.8</ele>
        <time>2021-08-06 13:02:31</time>
      </trkpt>
      <trkpt lat="37.05251" lon="-3.31737">
        <ele>3240.8</ele>
        <time>2021-08-06 13:02:32</time>
      </trkpt>
      <trkpt lat="37.05251" lon="-3.31737">
        <ele>3240.8</ele>
        <time>2021-08-06 13:02:33</time>
      </trkpt>
      <trkpt lat="37.05251" lon="-3.31737">
        <ele>3240.8</ele>
        <time>2021-08-06 13:02:34</time>
      </trkpt>
      <trkpt lat="37.05251" lon="-3.31737">
        <ele>3240.8</ele>
        <time>2021-08-06 13:02:35</time>
      </trkpt>
      <trkpt lat="37.05251" lon="-3.31737">
        <ele>3240.8</ele>
        <time>2021-08-06 13:02:36</time>
      </trkpt>
      <trkpt lat="37.05251" lon="-3.31738">
        <ele>3240.8</ele>
        <time>2021-08-06 13:02:37</time>
      </trkpt>
      <trkpt lat="37.05251" lon="-3.31738">
        <ele>3240.8</ele>
        <time>2021-08-06 13:02:38</time>
      </trkpt>
      <trkpt lat="37.05251" lon="-3.31738">
        <ele>3240.8</ele>
        <time>2021-08-06 13:02:39</time>
      </trkpt>
      <trkpt lat="37.05251" lon="-3.31738">
        <ele>3240.8</ele>
        <time>2021-08-06 13:02:40</time>
      </trkpt>
      <trkpt lat="37.05251" lon="-3.31738">
        <ele>3240.8</ele>
        <time>2021-08-06 13:02:41</time>
      </trkpt>
      <trkpt lat="37.05251" lon="-3.31738">
        <ele>3240.8</ele>
        <time>2021-08-06 13:02:42</time>
      </trkpt>
      <trkpt lat="37.05251" lon="-3.31738">
        <ele>3240.8</ele>
        <time>2021-08-06 13:02:43</time>
      </trkpt>
      <trkpt lat="37.05251" lon="-3.31738">
        <ele>3240.8</ele>
        <time>2021-08-06 13:02:44</time>
      </trkpt>
      <trkpt lat="37.05251" lon="-3.31738">
        <ele>3240.8</ele>
        <time>2021-08-06 13:02:45</time>
      </trkpt>
      <trkpt lat="37.05251" lon="-3.31738">
        <ele>3240.8</ele>
        <time>2021-08-06 13:02:46</time>
      </trkpt>
      <trkpt lat="37.05251" lon="-3.31738">
        <ele>3240.8</ele>
        <time>2021-08-06 13:02:47</time>
      </trkpt>
      <trkpt lat="37.05251" lon="-3.31738">
        <ele>3240.8</ele>
        <time>2021-08-06 13:02:48</time>
      </trkpt>
      <trkpt lat="37.05251" lon="-3.31738">
        <ele>3240.8</ele>
        <time>2021-08-06 13:02:49</time>
      </trkpt>
      <trkpt lat="37.05251" lon="-3.31738">
        <ele>3240.8</ele>
        <time>2021-08-06 13:02:50</time>
      </trkpt>
      <trkpt lat="37.05251" lon="-3.31738">
        <ele>3240.8</ele>
        <time>2021-08-06 13:02:51</time>
      </trkpt>
      <trkpt lat="37.05251" lon="-3.31738">
        <ele>3240.8</ele>
        <time>2021-08-06 13:02:52</time>
      </trkpt>
      <trkpt lat="37.05251" lon="-3.31737">
        <ele>3240.8</ele>
        <time>2021-08-06 13:02:53</time>
      </trkpt>
      <trkpt lat="37.05252" lon="-3.31737">
        <ele>3240.8</ele>
        <time>2021-08-06 13:02:54</time>
      </trkpt>
      <trkpt lat="37.05252" lon="-3.31737">
        <ele>3240.8</ele>
        <time>2021-08-06 13:02:55</time>
      </trkpt>
      <trkpt lat="37.05253" lon="-3.31738">
        <ele>3240.8</ele>
        <time>2021-08-06 13:02:56</time>
      </trkpt>
      <trkpt lat="37.05253" lon="-3.31739">
        <ele>3240.8</ele>
        <time>2021-08-06 13:02:57</time>
      </trkpt>
      <trkpt lat="37.05254" lon="-3.31739">
        <ele>3240.8</ele>
        <time>2021-08-06 13:02:58</time>
      </trkpt>
      <trkpt lat="37.05254" lon="-3.3174">
        <ele>3240.8</ele>
        <time>2021-08-06 13:02:59</time>
      </trkpt>
      <trkpt lat="37.05255" lon="-3.3174">
        <ele>3240.8</ele>
        <time>2021-08-06 13:03:00</time>
      </trkpt>
      <trkpt lat="37.05256" lon="-3.31741">
        <ele>3240.8</ele>
        <time>2021-08-06 13:03:01</time>
      </trkpt>
      <trkpt lat="37.05256" lon="-3.31741">
        <ele>3240.8</ele>
        <time>2021-08-06 13:03:02</time>
      </trkpt>
      <trkpt lat="37.05257" lon="-3.31741">
        <ele>3240.8</ele>
        <time>2021-08-06 13:03:03</time>
      </trkpt>
      <trkpt lat="37.05257" lon="-3.31742">
        <ele>3240.8</ele>
        <time>2021-08-06 13:03:04</time>
      </trkpt>
      <trkpt lat="37.05257" lon="-3.31743">
        <ele>3240.8</ele>
        <time>2021-08-06 13:03:05</time>
      </trkpt>
      <trkpt lat="37.05257" lon="-3.31744">
        <ele>3240.8</ele>
        <time>2021-08-06 13:03:06</time>
      </trkpt>
      <trkpt lat="37.05258" lon="-3.31744">
        <ele>3240.8</ele>
        <time>2021-08-06 13:03:07</time>
      </trkpt>
      <trkpt lat="37.05258" lon="-3.31744">
        <ele>3240.6</ele>
        <time>2021-08-06 13:03:08</time>
      </trkpt>
      <trkpt lat="37.05258" lon="-3.31745">
        <ele>3240.6</ele>
        <time>2021-08-06 13:03:09</time>
      </trkpt>
      <trkpt lat="37.05258" lon="-3.31745">
        <ele>3240.2</ele>
        <time>2021-08-06 13:03:10</time>
      </trkpt>
      <trkpt lat="37.05258" lon="-3.31747">
        <ele>3240</ele>
        <time>2021-08-06 13:03:11</time>
      </trkpt>
      <trkpt lat="37.05258" lon="-3.31747">
        <ele>3239.4</ele>
        <time>2021-08-06 13:03:12</time>
      </trkpt>
      <trkpt lat="37.05259" lon="-3.31748">
        <ele>3238.8</ele>
        <time>2021-08-06 13:03:13</time>
      </trkpt>
      <trkpt lat="37.05259" lon="-3.31749">
        <ele>3238.4</ele>
        <time>2021-08-06 13:03:14</time>
      </trkpt>
      <trkpt lat="37.0526" lon="-3.31749">
        <ele>3238.2</ele>
        <time>2021-08-06 13:03:15</time>
      </trkpt>
      <trkpt lat="37.05261" lon="-3.3175">
        <ele>3238.2</ele>
        <time>2021-08-06 13:03:16</time>
      </trkpt>
      <trkpt lat="37.05262" lon="-3.3175">
        <ele>3238.4</ele>
        <time>2021-08-06 13:03:17</time>
      </trkpt>
      <trkpt lat="37.05262" lon="-3.3175">
        <ele>3238.4</ele>
        <time>2021-08-06 13:03:18</time>
      </trkpt>
      <trkpt lat="37.05262" lon="-3.3175">
        <ele>3238.4</ele>
        <time>2021-08-06 13:03:19</time>
      </trkpt>
      <trkpt lat="37.05263" lon="-3.3175">
        <ele>3238.6</ele>
        <time>2021-08-06 13:03:20</time>
      </trkpt>
      <trkpt lat="37.05263" lon="-3.3175">
        <ele>3238.4</ele>
        <time>2021-08-06 13:03:21</time>
      </trkpt>
      <trkpt lat="37.05263" lon="-3.3175">
        <ele>3238</ele>
        <time>2021-08-06 13:03:22</time>
      </trkpt>
      <trkpt lat="37.05264" lon="-3.31751">
        <ele>3238.4</ele>
        <time>2021-08-06 13:03:23</time>
      </trkpt>
      <trkpt lat="37.05264" lon="-3.31751">
        <ele>3238</ele>
        <time>2021-08-06 13:03:24</time>
      </trkpt>
      <trkpt lat="37.05264" lon="-3.31751">
        <ele>3237.8</ele>
        <time>2021-08-06 13:03:25</time>
      </trkpt>
      <trkpt lat="37.05265" lon="-3.31752">
        <ele>3237.6</ele>
        <time>2021-08-06 13:03:26</time>
      </trkpt>
      <trkpt lat="37.05265" lon="-3.31752">
        <ele>3237.4</ele>
        <time>2021-08-06 13:03:27</time>
      </trkpt>
      <trkpt lat="37.05265" lon="-3.31753">
        <ele>3237.2</ele>
        <time>2021-08-06 13:03:28</time>
      </trkpt>
      <trkpt lat="37.05265" lon="-3.31753">
        <ele>3237.2</ele>
        <time>2021-08-06 13:03:29</time>
      </trkpt>
      <trkpt lat="37.05265" lon="-3.31754">
        <ele>3237.2</ele>
        <time>2021-08-06 13:03:30</time>
      </trkpt>
      <trkpt lat="37.05265" lon="-3.31754">
        <ele>3237</ele>
        <time>2021-08-06 13:03:31</time>
      </trkpt>
      <trkpt lat="37.05266" lon="-3.31754">
        <ele>3236.8</ele>
        <time>2021-08-06 13:03:32</time>
      </trkpt>
      <trkpt lat="37.05266" lon="-3.31755">
        <ele>3236.6</ele>
        <time>2021-08-06 13:03:33</time>
      </trkpt>
      <trkpt lat="37.05267" lon="-3.31756">
        <ele>3236.6</ele>
        <time>2021-08-06 13:03:34</time>
      </trkpt>
      <trkpt lat="37.05268" lon="-3.31756">
        <ele>3236.6</ele>
        <time>2021-08-06 13:03:35</time>
      </trkpt>
      <trkpt lat="37.05268" lon="-3.31756">
        <ele>3236.4</ele>
        <time>2021-08-06 13:03:36</time>
      </trkpt>
      <trkpt lat="37.05269" lon="-3.31756">
        <ele>3236.4</ele>
        <time>2021-08-06 13:03:37</time>
      </trkpt>
      <trkpt lat="37.05269" lon="-3.31756">
        <ele>3236.2</ele>
        <time>2021-08-06 13:03:38</time>
      </trkpt>
      <trkpt lat="37.0527" lon="-3.31757">
        <ele>3236</ele>
        <time>2021-08-06 13:03:39</time>
      </trkpt>
      <trkpt lat="37.0527" lon="-3.31757">
        <ele>3236</ele>
        <time>2021-08-06 13:03:40</time>
      </trkpt>
      <trkpt lat="37.05271" lon="-3.31758">
        <ele>3236</ele>
        <time>2021-08-06 13:03:41</time>
      </trkpt>
      <trkpt lat="37.05271" lon="-3.31758">
        <ele>3235.8</ele>
        <time>2021-08-06 13:03:42</time>
      </trkpt>
      <trkpt lat="37.05272" lon="-3.31759">
        <ele>3235.6</ele>
        <time>2021-08-06 13:03:43</time>
      </trkpt>
      <trkpt lat="37.05273" lon="-3.31759">
        <ele>3235.4</ele>
        <time>2021-08-06 13:03:44</time>
      </trkpt>
      <trkpt lat="37.05273" lon="-3.31759">
        <ele>3235.4</ele>
        <time>2021-08-06 13:03:45</time>
      </trkpt>
      <trkpt lat="37.05273" lon="-3.31759">
        <ele>3235.4</ele>
        <time>2021-08-06 13:03:46</time>
      </trkpt>
      <trkpt lat="37.05274" lon="-3.3176">
        <ele>3235.4</ele>
        <time>2021-08-06 13:03:47</time>
      </trkpt>
      <trkpt lat="37.05274" lon="-3.3176">
        <ele>3235.4</ele>
        <time>2021-08-06 13:03:48</time>
      </trkpt>
      <trkpt lat="37.05274" lon="-3.31761">
        <ele>3235.4</ele>
        <time>2021-08-06 13:03:49</time>
      </trkpt>
      <trkpt lat="37.05274" lon="-3.31761">
        <ele>3235.4</ele>
        <time>2021-08-06 13:03:50</time>
      </trkpt>
      <trkpt lat="37.05274" lon="-3.31762">
        <ele>3234.8</ele>
        <time>2021-08-06 13:03:51</time>
      </trkpt>
      <trkpt lat="37.05274" lon="-3.31763">
        <ele>3234.6</ele>
        <time>2021-08-06 13:03:52</time>
      </trkpt>
      <trkpt lat="37.05274" lon="-3.31763">
        <ele>3234.4</ele>
        <time>2021-08-06 13:03:53</time>
      </trkpt>
      <trkpt lat="37.05275" lon="-3.31764">
        <ele>3234.2</ele>
        <time>2021-08-06 13:03:54</time>
      </trkpt>
      <trkpt lat="37.05275" lon="-3.31764">
        <ele>3233.8</ele>
        <time>2021-08-06 13:03:55</time>
      </trkpt>
      <trkpt lat="37.05275" lon="-3.31765">
        <ele>3233.8</ele>
        <time>2021-08-06 13:03:56</time>
      </trkpt>
      <trkpt lat="37.05276" lon="-3.31765">
        <ele>3233.6</ele>
        <time>2021-08-06 13:03:57</time>
      </trkpt>
      <trkpt lat="37.05277" lon="-3.31765">
        <ele>3233.4</ele>
        <time>2021-08-06 13:03:58</time>
      </trkpt>
      <trkpt lat="37.05278" lon="-3.31766">
        <ele>3233.2</ele>
        <time>2021-08-06 13:03:59</time>
      </trkpt>
      <trkpt lat="37.05279" lon="-3.31766">
        <ele>3232.8</ele>
        <time>2021-08-06 13:04:00</time>
      </trkpt>
      <trkpt lat="37.05279" lon="-3.31766">
        <ele>3232.6</ele>
        <time>2021-08-06 13:04:01</time>
      </trkpt>
      <trkpt lat="37.05279" lon="-3.31767">
        <ele>3232.2</ele>
        <time>2021-08-06 13:04:02</time>
      </trkpt>
      <trkpt lat="37.0528" lon="-3.31768">
        <ele>3232</ele>
        <time>2021-08-06 13:04:03</time>
      </trkpt>
      <trkpt lat="37.05281" lon="-3.31769">
        <ele>3231.8</ele>
        <time>2021-08-06 13:04:04</time>
      </trkpt>
      <trkpt lat="37.05281" lon="-3.31769">
        <ele>3231.4</ele>
        <time>2021-08-06 13:04:05</time>
      </trkpt>
      <trkpt lat="37.05282" lon="-3.3177">
        <ele>3231.4</ele>
        <time>2021-08-06 13:04:06</time>
      </trkpt>
      <trkpt lat="37.05282" lon="-3.31771">
        <ele>3231.2</ele>
        <time>2021-08-06 13:04:07</time>
      </trkpt>
      <trkpt lat="37.05282" lon="-3.31772">
        <ele>3231.2</ele>
        <time>2021-08-06 13:04:08</time>
      </trkpt>
      <trkpt lat="37.05283" lon="-3.31773">
        <ele>3231.2</ele>
        <time>2021-08-06 13:04:09</time>
      </trkpt>
      <trkpt lat="37.05283" lon="-3.31775">
        <ele>3231</ele>
        <time>2021-08-06 13:04:10</time>
      </trkpt>
      <trkpt lat="37.05283" lon="-3.31776">
        <ele>3230.8</ele>
        <time>2021-08-06 13:04:11</time>
      </trkpt>
      <trkpt lat="37.05283" lon="-3.31777">
        <ele>3230.6</ele>
        <time>2021-08-06 13:04:12</time>
      </trkpt>
      <trkpt lat="37.05283" lon="-3.31777">
        <ele>3230.6</ele>
        <time>2021-08-06 13:04:13</time>
      </trkpt>
      <trkpt lat="37.05284" lon="-3.31778">
        <ele>3230.4</ele>
        <time>2021-08-06 13:04:14</time>
      </trkpt>
      <trkpt lat="37.05284" lon="-3.31778">
        <ele>3230.4</ele>
        <time>2021-08-06 13:04:15</time>
      </trkpt>
      <trkpt lat="37.05284" lon="-3.31778">
        <ele>3230</ele>
        <time>2021-08-06 13:04:16</time>
      </trkpt>
      <trkpt lat="37.05284" lon="-3.31778">
        <ele>3229.6</ele>
        <time>2021-08-06 13:04:17</time>
      </trkpt>
      <trkpt lat="37.05285" lon="-3.31779">
        <ele>3229.2</ele>
        <time>2021-08-06 13:04:18</time>
      </trkpt>
      <trkpt lat="37.05286" lon="-3.31779">
        <ele>3229</ele>
        <time>2021-08-06 13:04:19</time>
      </trkpt>
      <trkpt lat="37.05287" lon="-3.31779">
        <ele>3228.8</ele>
        <time>2021-08-06 13:04:20</time>
      </trkpt>
      <trkpt lat="37.05288" lon="-3.3178">
        <ele>3228.4</ele>
        <time>2021-08-06 13:04:21</time>
      </trkpt>
      <trkpt lat="37.05288" lon="-3.3178">
        <ele>3228.2</ele>
        <time>2021-08-06 13:04:22</time>
      </trkpt>
      <trkpt lat="37.05288" lon="-3.31782">
        <ele>3228</ele>
        <time>2021-08-06 13:04:23</time>
      </trkpt>
      <trkpt lat="37.05288" lon="-3.31783">
        <ele>3227.8</ele>
        <time>2021-08-06 13:04:24</time>
      </trkpt>
      <trkpt lat="37.05288" lon="-3.31784">
        <ele>3227.6</ele>
        <time>2021-08-06 13:04:25</time>
      </trkpt>
      <trkpt lat="37.05288" lon="-3.31785">
        <ele>3227.6</ele>
        <time>2021-08-06 13:04:26</time>
      </trkpt>
      <trkpt lat="37.05289" lon="-3.31786">
        <ele>3227.4</ele>
        <time>2021-08-06 13:04:27</time>
      </trkpt>
      <trkpt lat="37.05289" lon="-3.31787">
        <ele>3227</ele>
        <time>2021-08-06 13:04:28</time>
      </trkpt>
      <trkpt lat="37.0529" lon="-3.31787">
        <ele>3226.8</ele>
        <time>2021-08-06 13:04:29</time>
      </trkpt>
      <trkpt lat="37.0529" lon="-3.31788">
        <ele>3226.6</ele>
        <time>2021-08-06 13:04:30</time>
      </trkpt>
      <trkpt lat="37.05291" lon="-3.31789">
        <ele>3226.4</ele>
        <time>2021-08-06 13:04:31</time>
      </trkpt>
      <trkpt lat="37.05292" lon="-3.31789">
        <ele>3226.4</ele>
        <time>2021-08-06 13:04:32</time>
      </trkpt>
      <trkpt lat="37.05292" lon="-3.3179">
        <ele>3226.4</ele>
        <time>2021-08-06 13:04:33</time>
      </trkpt>
      <trkpt lat="37.05293" lon="-3.31791">
        <ele>3226.4</ele>
        <time>2021-08-06 13:04:34</time>
      </trkpt>
      <trkpt lat="37.05294" lon="-3.31791">
        <ele>3226.4</ele>
        <time>2021-08-06 13:04:35</time>
      </trkpt>
      <trkpt lat="37.05295" lon="-3.31792">
        <ele>3226.2</ele>
        <time>2021-08-06 13:04:36</time>
      </trkpt>
      <trkpt lat="37.05295" lon="-3.31793">
        <ele>3226</ele>
        <time>2021-08-06 13:04:37</time>
      </trkpt>
      <trkpt lat="37.05296" lon="-3.31793">
        <ele>3226</ele>
        <time>2021-08-06 13:04:38</time>
      </trkpt>
      <trkpt lat="37.05296" lon="-3.31794">
        <ele>3225.6</ele>
        <time>2021-08-06 13:04:39</time>
      </trkpt>
      <trkpt lat="37.05297" lon="-3.31795">
        <ele>3225.2</ele>
        <time>2021-08-06 13:04:40</time>
      </trkpt>
      <trkpt lat="37.05297" lon="-3.31795">
        <ele>3225</ele>
        <time>2021-08-06 13:04:41</time>
      </trkpt>
      <trkpt lat="37.05298" lon="-3.31795">
        <ele>3224.8</ele>
        <time>2021-08-06 13:04:42</time>
      </trkpt>
      <trkpt lat="37.05298" lon="-3.31796">
        <ele>3224.4</ele>
        <time>2021-08-06 13:04:43</time>
      </trkpt>
      <trkpt lat="37.05299" lon="-3.31796">
        <ele>3224.4</ele>
        <time>2021-08-06 13:04:44</time>
      </trkpt>
      <trkpt lat="37.05299" lon="-3.31797">
        <ele>3224.2</ele>
        <time>2021-08-06 13:04:45</time>
      </trkpt>
      <trkpt lat="37.05299" lon="-3.31799">
        <ele>3224.2</ele>
        <time>2021-08-06 13:04:46</time>
      </trkpt>
      <trkpt lat="37.05299" lon="-3.318">
        <ele>3224</ele>
        <time>2021-08-06 13:04:47</time>
      </trkpt>
      <trkpt lat="37.05299" lon="-3.31801">
        <ele>3223.8</ele>
        <time>2021-08-06 13:04:48</time>
      </trkpt>
      <trkpt lat="37.05299" lon="-3.31802">
        <ele>3223.8</ele>
        <time>2021-08-06 13:04:49</time>
      </trkpt>
      <trkpt lat="37.053" lon="-3.31802">
        <ele>3223.6</ele>
        <time>2021-08-06 13:04:50</time>
      </trkpt>
      <trkpt lat="37.05301" lon="-3.31802">
        <ele>3223.4</ele>
        <time>2021-08-06 13:04:51</time>
      </trkpt>
      <trkpt lat="37.05302" lon="-3.31802">
        <ele>3223.2</ele>
        <time>2021-08-06 13:04:52</time>
      </trkpt>
      <trkpt lat="37.05302" lon="-3.31803">
        <ele>3223</ele>
        <time>2021-08-06 13:04:53</time>
      </trkpt>
      <trkpt lat="37.05303" lon="-3.31803">
        <ele>3222.8</ele>
        <time>2021-08-06 13:04:54</time>
      </trkpt>
      <trkpt lat="37.05303" lon="-3.31805">
        <ele>3222.6</ele>
        <time>2021-08-06 13:04:55</time>
      </trkpt>
      <trkpt lat="37.05303" lon="-3.31806">
        <ele>3222.4</ele>
        <time>2021-08-06 13:04:56</time>
      </trkpt>
      <trkpt lat="37.05303" lon="-3.31807">
        <ele>3222.2</ele>
        <time>2021-08-06 13:04:57</time>
      </trkpt>
      <trkpt lat="37.05304" lon="-3.31808">
        <ele>3222</ele>
        <time>2021-08-06 13:04:58</time>
      </trkpt>
      <trkpt lat="37.05304" lon="-3.31809">
        <ele>3221.8</ele>
        <time>2021-08-06 13:04:59</time>
      </trkpt>
      <trkpt lat="37.05305" lon="-3.3181">
        <ele>3221.6</ele>
        <time>2021-08-06 13:05:00</time>
      </trkpt>
      <trkpt lat="37.05305" lon="-3.31811">
        <ele>3221.2</ele>
        <time>2021-08-06 13:05:01</time>
      </trkpt>
      <trkpt lat="37.05305" lon="-3.31812">
        <ele>3221</ele>
        <time>2021-08-06 13:05:02</time>
      </trkpt>
      <trkpt lat="37.05306" lon="-3.31813">
        <ele>3220.6</ele>
        <time>2021-08-06 13:05:03</time>
      </trkpt>
      <trkpt lat="37.05306" lon="-3.31814">
        <ele>3220.4</ele>
        <time>2021-08-06 13:05:04</time>
      </trkpt>
      <trkpt lat="37.05307" lon="-3.31815">
        <ele>3220.2</ele>
        <time>2021-08-06 13:05:05</time>
      </trkpt>
      <trkpt lat="37.05308" lon="-3.31817">
        <ele>3220.2</ele>
        <time>2021-08-06 13:05:06</time>
      </trkpt>
      <trkpt lat="37.05308" lon="-3.31818">
        <ele>3220.2</ele>
        <time>2021-08-06 13:05:07</time>
      </trkpt>
      <trkpt lat="37.05309" lon="-3.3182">
        <ele>3220</ele>
        <time>2021-08-06 13:05:08</time>
      </trkpt>
      <trkpt lat="37.05309" lon="-3.3182">
        <ele>3219.8</ele>
        <time>2021-08-06 13:05:09</time>
      </trkpt>
      <trkpt lat="37.0531" lon="-3.31821">
        <ele>3219.8</ele>
        <time>2021-08-06 13:05:10</time>
      </trkpt>
      <trkpt lat="37.05311" lon="-3.31821">
        <ele>3219.8</ele>
        <time>2021-08-06 13:05:11</time>
      </trkpt>
      <trkpt lat="37.05312" lon="-3.31822">
        <ele>3219</ele>
        <time>2021-08-06 13:05:12</time>
      </trkpt>
      <trkpt lat="37.05313" lon="-3.31823">
        <ele>3218.6</ele>
        <time>2021-08-06 13:05:13</time>
      </trkpt>
      <trkpt lat="37.05313" lon="-3.31824">
        <ele>3218.4</ele>
        <time>2021-08-06 13:05:14</time>
      </trkpt>
      <trkpt lat="37.05313" lon="-3.31824">
        <ele>3218.2</ele>
        <time>2021-08-06 13:05:15</time>
      </trkpt>
      <trkpt lat="37.05314" lon="-3.31825">
        <ele>3217.8</ele>
        <time>2021-08-06 13:05:16</time>
      </trkpt>
      <trkpt lat="37.05314" lon="-3.31825">
        <ele>3217.6</ele>
        <time>2021-08-06 13:05:17</time>
      </trkpt>
      <trkpt lat="37.05315" lon="-3.31826">
        <ele>3217.4</ele>
        <time>2021-08-06 13:05:18</time>
      </trkpt>
      <trkpt lat="37.05316" lon="-3.31826">
        <ele>3217.2</ele>
        <time>2021-08-06 13:05:19</time>
      </trkpt>
      <trkpt lat="37.05316" lon="-3.31827">
        <ele>3217.2</ele>
        <time>2021-08-06 13:05:20</time>
      </trkpt>
      <trkpt lat="37.05317" lon="-3.31827">
        <ele>3217.2</ele>
        <time>2021-08-06 13:05:21</time>
      </trkpt>
      <trkpt lat="37.05317" lon="-3.31828">
        <ele>3217</ele>
        <time>2021-08-06 13:05:22</time>
      </trkpt>
      <trkpt lat="37.05318" lon="-3.31829">
        <ele>3217</ele>
        <time>2021-08-06 13:05:23</time>
      </trkpt>
      <trkpt lat="37.05318" lon="-3.31829">
        <ele>3216.8</ele>
        <time>2021-08-06 13:05:24</time>
      </trkpt>
      <trkpt lat="37.05318" lon="-3.3183">
        <ele>3216.6</ele>
        <time>2021-08-06 13:05:25</time>
      </trkpt>
      <trkpt lat="37.05318" lon="-3.31831">
        <ele>3216.8</ele>
        <time>2021-08-06 13:05:26</time>
      </trkpt>
      <trkpt lat="37.05319" lon="-3.31832">
        <ele>3217</ele>
        <time>2021-08-06 13:05:27</time>
      </trkpt>
      <trkpt lat="37.0532" lon="-3.31832">
        <ele>3216.8</ele>
        <time>2021-08-06 13:05:28</time>
      </trkpt>
      <trkpt lat="37.0532" lon="-3.31833">
        <ele>3216.6</ele>
        <time>2021-08-06 13:05:29</time>
      </trkpt>
      <trkpt lat="37.05321" lon="-3.31834">
        <ele>3216.6</ele>
        <time>2021-08-06 13:05:30</time>
      </trkpt>
      <trkpt lat="37.05322" lon="-3.31835">
        <ele>3216</ele>
        <time>2021-08-06 13:05:31</time>
      </trkpt>
      <trkpt lat="37.05322" lon="-3.31836">
        <ele>3215.8</ele>
        <time>2021-08-06 13:05:32</time>
      </trkpt>
      <trkpt lat="37.05323" lon="-3.31837">
        <ele>3215.6</ele>
        <time>2021-08-06 13:05:33</time>
      </trkpt>
      <trkpt lat="37.05323" lon="-3.31838">
        <ele>3215.6</ele>
        <time>2021-08-06 13:05:34</time>
      </trkpt>
      <trkpt lat="37.05323" lon="-3.3184">
        <ele>3215.4</ele>
        <time>2021-08-06 13:05:35</time>
      </trkpt>
      <trkpt lat="37.05323" lon="-3.31841">
        <ele>3215.4</ele>
        <time>2021-08-06 13:05:36</time>
      </trkpt>
      <trkpt lat="37.05324" lon="-3.31843">
        <ele>3214.8</ele>
        <time>2021-08-06 13:05:37</time>
      </trkpt>
      <trkpt lat="37.05325" lon="-3.31844">
        <ele>3214.6</ele>
        <time>2021-08-06 13:05:38</time>
      </trkpt>
      <trkpt lat="37.05326" lon="-3.31845">
        <ele>3214.4</ele>
        <time>2021-08-06 13:05:39</time>
      </trkpt>
      <trkpt lat="37.05327" lon="-3.31846">
        <ele>3214</ele>
        <time>2021-08-06 13:05:40</time>
      </trkpt>
      <trkpt lat="37.05328" lon="-3.31847">
        <ele>3213.4</ele>
        <time>2021-08-06 13:05:41</time>
      </trkpt>
      <trkpt lat="37.05328" lon="-3.31847">
        <ele>3213</ele>
        <time>2021-08-06 13:05:42</time>
      </trkpt>
      <trkpt lat="37.05329" lon="-3.31848">
        <ele>3212.6</ele>
        <time>2021-08-06 13:05:43</time>
      </trkpt>
      <trkpt lat="37.0533" lon="-3.31849">
        <ele>3212.6</ele>
        <time>2021-08-06 13:05:44</time>
      </trkpt>
      <trkpt lat="37.05331" lon="-3.31851">
        <ele>3212.4</ele>
        <time>2021-08-06 13:05:45</time>
      </trkpt>
      <trkpt lat="37.05332" lon="-3.31851">
        <ele>3212.4</ele>
        <time>2021-08-06 13:05:46</time>
      </trkpt>
      <trkpt lat="37.05333" lon="-3.31852">
        <ele>3212.4</ele>
        <time>2021-08-06 13:05:47</time>
      </trkpt>
      <trkpt lat="37.05334" lon="-3.31853">
        <ele>3212.4</ele>
        <time>2021-08-06 13:05:48</time>
      </trkpt>
      <trkpt lat="37.05335" lon="-3.31853">
        <ele>3212.4</ele>
        <time>2021-08-06 13:05:49</time>
      </trkpt>
      <trkpt lat="37.05336" lon="-3.31854">
        <ele>3212.4</ele>
        <time>2021-08-06 13:05:50</time>
      </trkpt>
      <trkpt lat="37.05337" lon="-3.31855">
        <ele>3212.4</ele>
        <time>2021-08-06 13:05:51</time>
      </trkpt>
      <trkpt lat="37.05337" lon="-3.31855">
        <ele>3212.4</ele>
        <time>2021-08-06 13:05:52</time>
      </trkpt>
      <trkpt lat="37.05338" lon="-3.31856">
        <ele>3212</ele>
        <time>2021-08-06 13:05:53</time>
      </trkpt>
      <trkpt lat="37.05339" lon="-3.31857">
        <ele>3211.8</ele>
        <time>2021-08-06 13:05:54</time>
      </trkpt>
      <trkpt lat="37.0534" lon="-3.31858">
        <ele>3211.8</ele>
        <time>2021-08-06 13:05:55</time>
      </trkpt>
      <trkpt lat="37.0534" lon="-3.31859">
        <ele>3211.6</ele>
        <time>2021-08-06 13:05:56</time>
      </trkpt>
      <trkpt lat="37.05341" lon="-3.3186">
        <ele>3211.6</ele>
        <time>2021-08-06 13:05:57</time>
      </trkpt>
      <trkpt lat="37.05341" lon="-3.31861">
        <ele>3211.2</ele>
        <time>2021-08-06 13:05:58</time>
      </trkpt>
      <trkpt lat="37.05341" lon="-3.31862">
        <ele>3211</ele>
        <time>2021-08-06 13:05:59</time>
      </trkpt>
      <trkpt lat="37.05341" lon="-3.31863">
        <ele>3211</ele>
        <time>2021-08-06 13:06:00</time>
      </trkpt>
      <trkpt lat="37.05341" lon="-3.31864">
        <ele>3210.8</ele>
        <time>2021-08-06 13:06:01</time>
      </trkpt>
      <trkpt lat="37.05342" lon="-3.31865">
        <ele>3210.6</ele>
        <time>2021-08-06 13:06:02</time>
      </trkpt>
      <trkpt lat="37.05342" lon="-3.31866">
        <ele>3210.4</ele>
        <time>2021-08-06 13:06:03</time>
      </trkpt>
      <trkpt lat="37.05342" lon="-3.31867">
        <ele>3210.2</ele>
        <time>2021-08-06 13:06:04</time>
      </trkpt>
      <trkpt lat="37.05342" lon="-3.31868">
        <ele>3210.2</ele>
        <time>2021-08-06 13:06:05</time>
      </trkpt>
      <trkpt lat="37.05342" lon="-3.31869">
        <ele>3209.4</ele>
        <time>2021-08-06 13:06:06</time>
      </trkpt>
      <trkpt lat="37.05342" lon="-3.3187">
        <ele>3208.6</ele>
        <time>2021-08-06 13:06:07</time>
      </trkpt>
      <trkpt lat="37.05343" lon="-3.3187">
        <ele>3208.4</ele>
        <time>2021-08-06 13:06:08</time>
      </trkpt>
      <trkpt lat="37.05343" lon="-3.31871">
        <ele>3208</ele>
        <time>2021-08-06 13:06:09</time>
      </trkpt>
      <trkpt lat="37.05344" lon="-3.31872">
        <ele>3208</ele>
        <time>2021-08-06 13:06:10</time>
      </trkpt>
      <trkpt lat="37.05344" lon="-3.31873">
        <ele>3207.6</ele>
        <time>2021-08-06 13:06:11</time>
      </trkpt>
      <trkpt lat="37.05344" lon="-3.31874">
        <ele>3207.8</ele>
        <time>2021-08-06 13:06:12</time>
      </trkpt>
      <trkpt lat="37.05344" lon="-3.31875">
        <ele>3207.6</ele>
        <time>2021-08-06 13:06:13</time>
      </trkpt>
      <trkpt lat="37.05344" lon="-3.31876">
        <ele>3207.2</ele>
        <time>2021-08-06 13:06:14</time>
      </trkpt>
      <trkpt lat="37.05344" lon="-3.31877">
        <ele>3207.2</ele>
        <time>2021-08-06 13:06:15</time>
      </trkpt>
      <trkpt lat="37.05345" lon="-3.31878">
        <ele>3207</ele>
        <time>2021-08-06 13:06:16</time>
      </trkpt>
      <trkpt lat="37.05345" lon="-3.31879">
        <ele>3207.2</ele>
        <time>2021-08-06 13:06:17</time>
      </trkpt>
      <trkpt lat="37.05346" lon="-3.3188">
        <ele>3207.2</ele>
        <time>2021-08-06 13:06:18</time>
      </trkpt>
      <trkpt lat="37.05346" lon="-3.3188">
        <ele>3207</ele>
        <time>2021-08-06 13:06:19</time>
      </trkpt>
      <trkpt lat="37.05346" lon="-3.31881">
        <ele>3206.8</ele>
        <time>2021-08-06 13:06:20</time>
      </trkpt>
      <trkpt lat="37.05346" lon="-3.31881">
        <ele>3206.8</ele>
        <time>2021-08-06 13:06:21</time>
      </trkpt>
      <trkpt lat="37.05346" lon="-3.31882">
        <ele>3206.8</ele>
        <time>2021-08-06 13:06:22</time>
      </trkpt>
      <trkpt lat="37.05346" lon="-3.31883">
        <ele>3206.6</ele>
        <time>2021-08-06 13:06:23</time>
      </trkpt>
      <trkpt lat="37.05347" lon="-3.31884">
        <ele>3206.6</ele>
        <time>2021-08-06 13:06:24</time>
      </trkpt>
      <trkpt lat="37.05347" lon="-3.31885">
        <ele>3206.4</ele>
        <time>2021-08-06 13:06:25</time>
      </trkpt>
      <trkpt lat="37.05347" lon="-3.31886">
        <ele>3205.6</ele>
        <time>2021-08-06 13:06:26</time>
      </trkpt>
      <trkpt lat="37.05348" lon="-3.31887">
        <ele>3205.2</ele>
        <time>2021-08-06 13:06:27</time>
      </trkpt>
      <trkpt lat="37.05348" lon="-3.31889">
        <ele>3205</ele>
        <time>2021-08-06 13:06:28</time>
      </trkpt>
      <trkpt lat="37.05348" lon="-3.3189">
        <ele>3204.6</ele>
        <time>2021-08-06 13:06:29</time>
      </trkpt>
      <trkpt lat="37.05349" lon="-3.31891">
        <ele>3204.4</ele>
        <time>2021-08-06 13:06:30</time>
      </trkpt>
      <trkpt lat="37.05349" lon="-3.31891">
        <ele>3204.4</ele>
        <time>2021-08-06 13:06:31</time>
      </trkpt>
      <trkpt lat="37.0535" lon="-3.31892">
        <ele>3204.2</ele>
        <time>2021-08-06 13:06:32</time>
      </trkpt>
      <trkpt lat="37.0535" lon="-3.31892">
        <ele>3204</ele>
        <time>2021-08-06 13:06:33</time>
      </trkpt>
      <trkpt lat="37.0535" lon="-3.31892">
        <ele>3203.8</ele>
        <time>2021-08-06 13:06:34</time>
      </trkpt>
      <trkpt lat="37.05351" lon="-3.31892">
        <ele>3203.8</ele>
        <time>2021-08-06 13:06:35</time>
      </trkpt>
      <trkpt lat="37.05351" lon="-3.31892">
        <ele>3203.2</ele>
        <time>2021-08-06 13:06:36</time>
      </trkpt>
      <trkpt lat="37.0535" lon="-3.31893">
        <ele>3203</ele>
        <time>2021-08-06 13:06:37</time>
      </trkpt>
      <trkpt lat="37.0535" lon="-3.31894">
        <ele>3202.8</ele>
        <time>2021-08-06 13:06:38</time>
      </trkpt>
      <trkpt lat="37.0535" lon="-3.31895">
        <ele>3202.8</ele>
        <time>2021-08-06 13:06:39</time>
      </trkpt>
      <trkpt lat="37.0535" lon="-3.31895">
        <ele>3202.8</ele>
        <time>2021-08-06 13:06:40</time>
      </trkpt>
      <trkpt lat="37.0535" lon="-3.31896">
        <ele>3202.2</ele>
        <time>2021-08-06 13:06:41</time>
      </trkpt>
      <trkpt lat="37.05351" lon="-3.31897">
        <ele>3201.6</ele>
        <time>2021-08-06 13:06:42</time>
      </trkpt>
      <trkpt lat="37.05351" lon="-3.31898">
        <ele>3201.4</ele>
        <time>2021-08-06 13:06:43</time>
      </trkpt>
      <trkpt lat="37.05351" lon="-3.31898">
        <ele>3201.2</ele>
        <time>2021-08-06 13:06:44</time>
      </trkpt>
      <trkpt lat="37.05352" lon="-3.31898">
        <ele>3201</ele>
        <time>2021-08-06 13:06:45</time>
      </trkpt>
      <trkpt lat="37.05353" lon="-3.31899">
        <ele>3200.8</ele>
        <time>2021-08-06 13:06:46</time>
      </trkpt>
      <trkpt lat="37.05353" lon="-3.31899">
        <ele>3200.6</ele>
        <time>2021-08-06 13:06:47</time>
      </trkpt>
      <trkpt lat="37.05354" lon="-3.319">
        <ele>3200.6</ele>
        <time>2021-08-06 13:06:48</time>
      </trkpt>
      <trkpt lat="37.05354" lon="-3.31901">
        <ele>3200.4</ele>
        <time>2021-08-06 13:06:49</time>
      </trkpt>
      <trkpt lat="37.05354" lon="-3.31902">
        <ele>3200.2</ele>
        <time>2021-08-06 13:06:50</time>
      </trkpt>
      <trkpt lat="37.05354" lon="-3.31903">
        <ele>3200</ele>
        <time>2021-08-06 13:06:51</time>
      </trkpt>
      <trkpt lat="37.05354" lon="-3.31904">
        <ele>3200</ele>
        <time>2021-08-06 13:06:52</time>
      </trkpt>
      <trkpt lat="37.05354" lon="-3.31905">
        <ele>3199.8</ele>
        <time>2021-08-06 13:06:53</time>
      </trkpt>
      <trkpt lat="37.05355" lon="-3.31905">
        <ele>3199.2</ele>
        <time>2021-08-06 13:06:54</time>
      </trkpt>
      <trkpt lat="37.05355" lon="-3.31905">
        <ele>3198.8</ele>
        <time>2021-08-06 13:06:55</time>
      </trkpt>
      <trkpt lat="37.05355" lon="-3.31906">
        <ele>3198.6</ele>
        <time>2021-08-06 13:06:56</time>
      </trkpt>
      <trkpt lat="37.05355" lon="-3.31907">
        <ele>3198.4</ele>
        <time>2021-08-06 13:06:57</time>
      </trkpt>
      <trkpt lat="37.05355" lon="-3.31908">
        <ele>3198.2</ele>
        <time>2021-08-06 13:06:58</time>
      </trkpt>
      <trkpt lat="37.05356" lon="-3.31909">
        <ele>3197.8</ele>
        <time>2021-08-06 13:06:59</time>
      </trkpt>
      <trkpt lat="37.05356" lon="-3.3191">
        <ele>3197.6</ele>
        <time>2021-08-06 13:07:00</time>
      </trkpt>
      <trkpt lat="37.05356" lon="-3.31912">
        <ele>3197.4</ele>
        <time>2021-08-06 13:07:01</time>
      </trkpt>
      <trkpt lat="37.05357" lon="-3.31913">
        <ele>3197.2</ele>
        <time>2021-08-06 13:07:02</time>
      </trkpt>
      <trkpt lat="37.05358" lon="-3.31914">
        <ele>3196.8</ele>
        <time>2021-08-06 13:07:03</time>
      </trkpt>
      <trkpt lat="37.05359" lon="-3.31915">
        <ele>3196</ele>
        <time>2021-08-06 13:07:04</time>
      </trkpt>
      <trkpt lat="37.0536" lon="-3.31916">
        <ele>3195.6</ele>
        <time>2021-08-06 13:07:05</time>
      </trkpt>
      <trkpt lat="37.0536" lon="-3.31917">
        <ele>3195.4</ele>
        <time>2021-08-06 13:07:06</time>
      </trkpt>
      <trkpt lat="37.05361" lon="-3.31919">
        <ele>3195.2</ele>
        <time>2021-08-06 13:07:07</time>
      </trkpt>
      <trkpt lat="37.05362" lon="-3.3192">
        <ele>3195.2</ele>
        <time>2021-08-06 13:07:08</time>
      </trkpt>
      <trkpt lat="37.05362" lon="-3.31922">
        <ele>3195.2</ele>
        <time>2021-08-06 13:07:09</time>
      </trkpt>
      <trkpt lat="37.05363" lon="-3.31923">
        <ele>3195.2</ele>
        <time>2021-08-06 13:07:10</time>
      </trkpt>
      <trkpt lat="37.05363" lon="-3.31925">
        <ele>3195</ele>
        <time>2021-08-06 13:07:11</time>
      </trkpt>
      <trkpt lat="37.05364" lon="-3.31926">
        <ele>3195</ele>
        <time>2021-08-06 13:07:12</time>
      </trkpt>
      <trkpt lat="37.05365" lon="-3.31927">
        <ele>3195</ele>
        <time>2021-08-06 13:07:13</time>
      </trkpt>
      <trkpt lat="37.05365" lon="-3.31928">
        <ele>3195</ele>
        <time>2021-08-06 13:07:14</time>
      </trkpt>
      <trkpt lat="37.05366" lon="-3.31929">
        <ele>3195</ele>
        <time>2021-08-06 13:07:15</time>
      </trkpt>
      <trkpt lat="37.05366" lon="-3.3193">
        <ele>3194.4</ele>
        <time>2021-08-06 13:07:16</time>
      </trkpt>
      <trkpt lat="37.05367" lon="-3.3193">
        <ele>3194</ele>
        <time>2021-08-06 13:07:17</time>
      </trkpt>
      <trkpt lat="37.05367" lon="-3.31931">
        <ele>3193.8</ele>
        <time>2021-08-06 13:07:18</time>
      </trkpt>
      <trkpt lat="37.05367" lon="-3.31931">
        <ele>3193.6</ele>
        <time>2021-08-06 13:07:19</time>
      </trkpt>
      <trkpt lat="37.05368" lon="-3.31931">
        <ele>3193.4</ele>
        <time>2021-08-06 13:07:20</time>
      </trkpt>
      <trkpt lat="37.05369" lon="-3.31932">
        <ele>3193.4</ele>
        <time>2021-08-06 13:07:21</time>
      </trkpt>
      <trkpt lat="37.05369" lon="-3.31932">
        <ele>3193.2</ele>
        <time>2021-08-06 13:07:22</time>
      </trkpt>
      <trkpt lat="37.0537" lon="-3.31932">
        <ele>3193</ele>
        <time>2021-08-06 13:07:23</time>
      </trkpt>
      <trkpt lat="37.05371" lon="-3.31933">
        <ele>3192.8</ele>
        <time>2021-08-06 13:07:24</time>
      </trkpt>
      <trkpt lat="37.05371" lon="-3.31934">
        <ele>3192.6</ele>
        <time>2021-08-06 13:07:25</time>
      </trkpt>
      <trkpt lat="37.05372" lon="-3.31935">
        <ele>3192.4</ele>
        <time>2021-08-06 13:07:26</time>
      </trkpt>
      <trkpt lat="37.05372" lon="-3.31935">
        <ele>3192.2</ele>
        <time>2021-08-06 13:07:27</time>
      </trkpt>
      <trkpt lat="37.05373" lon="-3.31936">
        <ele>3192</ele>
        <time>2021-08-06 13:07:28</time>
      </trkpt>
      <trkpt lat="37.05374" lon="-3.31937">
        <ele>3191.8</ele>
        <time>2021-08-06 13:07:29</time>
      </trkpt>
      <trkpt lat="37.05374" lon="-3.31938">
        <ele>3191.8</ele>
        <time>2021-08-06 13:07:30</time>
      </trkpt>
      <trkpt lat="37.05375" lon="-3.31939">
        <ele>3191.8</ele>
        <time>2021-08-06 13:07:31</time>
      </trkpt>
      <trkpt lat="37.05375" lon="-3.31939">
        <ele>3191.6</ele>
        <time>2021-08-06 13:07:32</time>
      </trkpt>
      <trkpt lat="37.05375" lon="-3.3194">
        <ele>3191.4</ele>
        <time>2021-08-06 13:07:33</time>
      </trkpt>
      <trkpt lat="37.05375" lon="-3.31941">
        <ele>3191.4</ele>
        <time>2021-08-06 13:07:34</time>
      </trkpt>
      <trkpt lat="37.05375" lon="-3.31942">
        <ele>3191.2</ele>
        <time>2021-08-06 13:07:35</time>
      </trkpt>
      <trkpt lat="37.05376" lon="-3.31943">
        <ele>3191.2</ele>
        <time>2021-08-06 13:07:36</time>
      </trkpt>
      <trkpt lat="37.05376" lon="-3.31944">
        <ele>3190.8</ele>
        <time>2021-08-06 13:07:37</time>
      </trkpt>
      <trkpt lat="37.05376" lon="-3.31945">
        <ele>3190.6</ele>
        <time>2021-08-06 13:07:38</time>
      </trkpt>
      <trkpt lat="37.05377" lon="-3.31946">
        <ele>3190.4</ele>
        <time>2021-08-06 13:07:39</time>
      </trkpt>
      <trkpt lat="37.05377" lon="-3.31947">
        <ele>3190.2</ele>
        <time>2021-08-06 13:07:40</time>
      </trkpt>
      <trkpt lat="37.05378" lon="-3.31947">
        <ele>3190.2</ele>
        <time>2021-08-06 13:07:41</time>
      </trkpt>
      <trkpt lat="37.05378" lon="-3.31949">
        <ele>3190</ele>
        <time>2021-08-06 13:07:42</time>
      </trkpt>
      <trkpt lat="37.05377" lon="-3.31952">
        <ele>3189.8</ele>
        <time>2021-08-06 13:07:43</time>
      </trkpt>
      <trkpt lat="37.05377" lon="-3.31953">
        <ele>3189.6</ele>
        <time>2021-08-06 13:07:44</time>
      </trkpt>
      <trkpt lat="37.05377" lon="-3.31954">
        <ele>3189</ele>
        <time>2021-08-06 13:07:45</time>
      </trkpt>
      <trkpt lat="37.05377" lon="-3.31955">
        <ele>3188.6</ele>
        <time>2021-08-06 13:07:46</time>
      </trkpt>
      <trkpt lat="37.05377" lon="-3.31956">
        <ele>3188</ele>
        <time>2021-08-06 13:07:47</time>
      </trkpt>
      <trkpt lat="37.05377" lon="-3.31957">
        <ele>3187.6</ele>
        <time>2021-08-06 13:07:48</time>
      </trkpt>
      <trkpt lat="37.05377" lon="-3.31958">
        <ele>3187.4</ele>
        <time>2021-08-06 13:07:49</time>
      </trkpt>
      <trkpt lat="37.05377" lon="-3.31958">
        <ele>3187.2</ele>
        <time>2021-08-06 13:07:50</time>
      </trkpt>
      <trkpt lat="37.05378" lon="-3.31959">
        <ele>3187</ele>
        <time>2021-08-06 13:07:51</time>
      </trkpt>
      <trkpt lat="37.05378" lon="-3.3196">
        <ele>3187</ele>
        <time>2021-08-06 13:07:52</time>
      </trkpt>
      <trkpt lat="37.05378" lon="-3.3196">
        <ele>3187</ele>
        <time>2021-08-06 13:07:53</time>
      </trkpt>
      <trkpt lat="37.05378" lon="-3.31961">
        <ele>3187</ele>
        <time>2021-08-06 13:07:54</time>
      </trkpt>
      <trkpt lat="37.05378" lon="-3.31961">
        <ele>3186.8</ele>
        <time>2021-08-06 13:07:55</time>
      </trkpt>
      <trkpt lat="37.05378" lon="-3.31962">
        <ele>3186.6</ele>
        <time>2021-08-06 13:07:56</time>
      </trkpt>
      <trkpt lat="37.05378" lon="-3.31963">
        <ele>3186.4</ele>
        <time>2021-08-06 13:07:57</time>
      </trkpt>
      <trkpt lat="37.05378" lon="-3.31964">
        <ele>3186</ele>
        <time>2021-08-06 13:07:58</time>
      </trkpt>
      <trkpt lat="37.05378" lon="-3.31965">
        <ele>3185.8</ele>
        <time>2021-08-06 13:07:59</time>
      </trkpt>
      <trkpt lat="37.05377" lon="-3.31966">
        <ele>3185.6</ele>
        <time>2021-08-06 13:08:00</time>
      </trkpt>
      <trkpt lat="37.05377" lon="-3.31967">
        <ele>3185.4</ele>
        <time>2021-08-06 13:08:01</time>
      </trkpt>
      <trkpt lat="37.05376" lon="-3.31969">
        <ele>3185</ele>
        <time>2021-08-06 13:08:02</time>
      </trkpt>
      <trkpt lat="37.05377" lon="-3.3197">
        <ele>3184.6</ele>
        <time>2021-08-06 13:08:03</time>
      </trkpt>
      <trkpt lat="37.05377" lon="-3.31971">
        <ele>3184</ele>
        <time>2021-08-06 13:08:04</time>
      </trkpt>
      <trkpt lat="37.05377" lon="-3.31972">
        <ele>3183.8</ele>
        <time>2021-08-06 13:08:05</time>
      </trkpt>
      <trkpt lat="37.05378" lon="-3.31973">
        <ele>3183.4</ele>
        <time>2021-08-06 13:08:06</time>
      </trkpt>
      <trkpt lat="37.05378" lon="-3.31974">
        <ele>3183</ele>
        <time>2021-08-06 13:08:07</time>
      </trkpt>
      <trkpt lat="37.05379" lon="-3.31975">
        <ele>3182.8</ele>
        <time>2021-08-06 13:08:08</time>
      </trkpt>
      <trkpt lat="37.05379" lon="-3.31976">
        <ele>3182.6</ele>
        <time>2021-08-06 13:08:09</time>
      </trkpt>
      <trkpt lat="37.05379" lon="-3.31977">
        <ele>3182.4</ele>
        <time>2021-08-06 13:08:10</time>
      </trkpt>
      <trkpt lat="37.0538" lon="-3.31977">
        <ele>3182.4</ele>
        <time>2021-08-06 13:08:11</time>
      </trkpt>
      <trkpt lat="37.0538" lon="-3.31978">
        <ele>3182.4</ele>
        <time>2021-08-06 13:08:12</time>
      </trkpt>
      <trkpt lat="37.0538" lon="-3.31979">
        <ele>3182.2</ele>
        <time>2021-08-06 13:08:13</time>
      </trkpt>
      <trkpt lat="37.0538" lon="-3.3198">
        <ele>3182</ele>
        <time>2021-08-06 13:08:14</time>
      </trkpt>
      <trkpt lat="37.0538" lon="-3.31981">
        <ele>3181.8</ele>
        <time>2021-08-06 13:08:15</time>
      </trkpt>
      <trkpt lat="37.0538" lon="-3.31982">
        <ele>3181.6</ele>
        <time>2021-08-06 13:08:16</time>
      </trkpt>
      <trkpt lat="37.0538" lon="-3.31983">
        <ele>3181</ele>
        <time>2021-08-06 13:08:17</time>
      </trkpt>
      <trkpt lat="37.05381" lon="-3.31984">
        <ele>3180.6</ele>
        <time>2021-08-06 13:08:18</time>
      </trkpt>
      <trkpt lat="37.05381" lon="-3.31985">
        <ele>3180.2</ele>
        <time>2021-08-06 13:08:19</time>
      </trkpt>
      <trkpt lat="37.05381" lon="-3.31985">
        <ele>3179.8</ele>
        <time>2021-08-06 13:08:20</time>
      </trkpt>
      <trkpt lat="37.05381" lon="-3.31986">
        <ele>3179.6</ele>
        <time>2021-08-06 13:08:21</time>
      </trkpt>
      <trkpt lat="37.05381" lon="-3.31987">
        <ele>3179.6</ele>
        <time>2021-08-06 13:08:22</time>
      </trkpt>
      <trkpt lat="37.05381" lon="-3.31989">
        <ele>3179.2</ele>
        <time>2021-08-06 13:08:23</time>
      </trkpt>
      <trkpt lat="37.05382" lon="-3.3199">
        <ele>3179</ele>
        <time>2021-08-06 13:08:24</time>
      </trkpt>
      <trkpt lat="37.05381" lon="-3.31991">
        <ele>3178.8</ele>
        <time>2021-08-06 13:08:25</time>
      </trkpt>
      <trkpt lat="37.05382" lon="-3.31992">
        <ele>3178.4</ele>
        <time>2021-08-06 13:08:26</time>
      </trkpt>
      <trkpt lat="37.05382" lon="-3.31993">
        <ele>3178</ele>
        <time>2021-08-06 13:08:27</time>
      </trkpt>
      <trkpt lat="37.05382" lon="-3.31994">
        <ele>3177.6</ele>
        <time>2021-08-06 13:08:28</time>
      </trkpt>
      <trkpt lat="37.05383" lon="-3.31994">
        <ele>3177.2</ele>
        <time>2021-08-06 13:08:29</time>
      </trkpt>
      <trkpt lat="37.05383" lon="-3.31996">
        <ele>3177</ele>
        <time>2021-08-06 13:08:30</time>
      </trkpt>
      <trkpt lat="37.05383" lon="-3.31996">
        <ele>3177</ele>
        <time>2021-08-06 13:08:31</time>
      </trkpt>
      <trkpt lat="37.05383" lon="-3.31997">
        <ele>3177</ele>
        <time>2021-08-06 13:08:32</time>
      </trkpt>
      <trkpt lat="37.05384" lon="-3.31998">
        <ele>3176.8</ele>
        <time>2021-08-06 13:08:33</time>
      </trkpt>
      <trkpt lat="37.05384" lon="-3.31999">
        <ele>3176.8</ele>
        <time>2021-08-06 13:08:34</time>
      </trkpt>
      <trkpt lat="37.05385" lon="-3.31999">
        <ele>3176.8</ele>
        <time>2021-08-06 13:08:35</time>
      </trkpt>
      <trkpt lat="37.05386" lon="-3.31999">
        <ele>3176.8</ele>
        <time>2021-08-06 13:08:36</time>
      </trkpt>
      <trkpt lat="37.05386" lon="-3.31999">
        <ele>3176.8</ele>
        <time>2021-08-06 13:08:37</time>
      </trkpt>
      <trkpt lat="37.05387" lon="-3.32">
        <ele>3176.6</ele>
        <time>2021-08-06 13:08:38</time>
      </trkpt>
      <trkpt lat="37.05387" lon="-3.31999">
        <ele>3176.6</ele>
        <time>2021-08-06 13:08:39</time>
      </trkpt>
      <trkpt lat="37.05387" lon="-3.32">
        <ele>3176.4</ele>
        <time>2021-08-06 13:08:40</time>
      </trkpt>
      <trkpt lat="37.05387" lon="-3.32">
        <ele>3176.4</ele>
        <time>2021-08-06 13:08:41</time>
      </trkpt>
      <trkpt lat="37.05386" lon="-3.32001">
        <ele>3176.2</ele>
        <time>2021-08-06 13:08:42</time>
      </trkpt>
      <trkpt lat="37.05386" lon="-3.32002">
        <ele>3176.2</ele>
        <time>2021-08-06 13:08:43</time>
      </trkpt>
      <trkpt lat="37.05386" lon="-3.32004">
        <ele>3176.2</ele>
        <time>2021-08-06 13:08:44</time>
      </trkpt>
      <trkpt lat="37.05386" lon="-3.32005">
        <ele>3176</ele>
        <time>2021-08-06 13:08:45</time>
      </trkpt>
      <trkpt lat="37.05386" lon="-3.32007">
        <ele>3175.8</ele>
        <time>2021-08-06 13:08:46</time>
      </trkpt>
      <trkpt lat="37.05386" lon="-3.32009">
        <ele>3174.6</ele>
        <time>2021-08-06 13:08:47</time>
      </trkpt>
      <trkpt lat="37.05386" lon="-3.3201">
        <ele>3173.8</ele>
        <time>2021-08-06 13:08:48</time>
      </trkpt>
      <trkpt lat="37.05387" lon="-3.32012">
        <ele>3173.4</ele>
        <time>2021-08-06 13:08:49</time>
      </trkpt>
      <trkpt lat="37.05387" lon="-3.32013">
        <ele>3173</ele>
        <time>2021-08-06 13:08:50</time>
      </trkpt>
      <trkpt lat="37.05387" lon="-3.32015">
        <ele>3172.6</ele>
        <time>2021-08-06 13:08:51</time>
      </trkpt>
      <trkpt lat="37.05388" lon="-3.32016">
        <ele>3172</ele>
        <time>2021-08-06 13:08:52</time>
      </trkpt>
      <trkpt lat="37.05389" lon="-3.32017">
        <ele>3171.6</ele>
        <time>2021-08-06 13:08:53</time>
      </trkpt>
      <trkpt lat="37.05389" lon="-3.32018">
        <ele>3171.2</ele>
        <time>2021-08-06 13:08:54</time>
      </trkpt>
      <trkpt lat="37.0539" lon="-3.32019">
        <ele>3172.2</ele>
        <time>2021-08-06 13:08:55</time>
      </trkpt>
      <trkpt lat="37.05391" lon="-3.3202">
        <ele>3172.2</ele>
        <time>2021-08-06 13:08:56</time>
      </trkpt>
      <trkpt lat="37.05392" lon="-3.32021">
        <ele>3172.2</ele>
        <time>2021-08-06 13:08:57</time>
      </trkpt>
      <trkpt lat="37.05393" lon="-3.32022">
        <ele>3172.2</ele>
        <time>2021-08-06 13:08:58</time>
      </trkpt>
      <trkpt lat="37.05393" lon="-3.32023">
        <ele>3172.2</ele>
        <time>2021-08-06 13:08:59</time>
      </trkpt>
      <trkpt lat="37.05394" lon="-3.32024">
        <ele>3172.2</ele>
        <time>2021-08-06 13:09:00</time>
      </trkpt>
      <trkpt lat="37.05394" lon="-3.32026">
        <ele>3172.2</ele>
        <time>2021-08-06 13:09:01</time>
      </trkpt>
      <trkpt lat="37.05394" lon="-3.32026">
        <ele>3172.2</ele>
        <time>2021-08-06 13:09:02</time>
      </trkpt>
      <trkpt lat="37.05395" lon="-3.32028">
        <ele>3172</ele>
        <time>2021-08-06 13:09:03</time>
      </trkpt>
      <trkpt lat="37.05395" lon="-3.32029">
        <ele>3171.8</ele>
        <time>2021-08-06 13:09:04</time>
      </trkpt>
      <trkpt lat="37.05395" lon="-3.3203">
        <ele>3171.6</ele>
        <time>2021-08-06 13:09:05</time>
      </trkpt>
      <trkpt lat="37.05396" lon="-3.3203">
        <ele>3171.4</ele>
        <time>2021-08-06 13:09:06</time>
      </trkpt>
      <trkpt lat="37.05396" lon="-3.32031">
        <ele>3171.4</ele>
        <time>2021-08-06 13:09:07</time>
      </trkpt>
      <trkpt lat="37.05396" lon="-3.32032">
        <ele>3171</ele>
        <time>2021-08-06 13:09:08</time>
      </trkpt>
      <trkpt lat="37.05396" lon="-3.32033">
        <ele>3170.8</ele>
        <time>2021-08-06 13:09:09</time>
      </trkpt>
      <trkpt lat="37.05397" lon="-3.32034">
        <ele>3170.8</ele>
        <time>2021-08-06 13:09:10</time>
      </trkpt>
      <trkpt lat="37.05398" lon="-3.32035">
        <ele>3170.2</ele>
        <time>2021-08-06 13:09:11</time>
      </trkpt>
      <trkpt lat="37.05399" lon="-3.32035">
        <ele>3169.8</ele>
        <time>2021-08-06 13:09:12</time>
      </trkpt>
      <trkpt lat="37.054" lon="-3.32036">
        <ele>3169.4</ele>
        <time>2021-08-06 13:09:13</time>
      </trkpt>
      <trkpt lat="37.05401" lon="-3.32036">
        <ele>3169.4</ele>
        <time>2021-08-06 13:09:14</time>
      </trkpt>
      <trkpt lat="37.05401" lon="-3.32037">
        <ele>3169.2</ele>
        <time>2021-08-06 13:09:15</time>
      </trkpt>
      <trkpt lat="37.05402" lon="-3.32038">
        <ele>3169.2</ele>
        <time>2021-08-06 13:09:16</time>
      </trkpt>
      <trkpt lat="37.05402" lon="-3.32039">
        <ele>3169</ele>
        <time>2021-08-06 13:09:17</time>
      </trkpt>
      <trkpt lat="37.05402" lon="-3.3204">
        <ele>3168.6</ele>
        <time>2021-08-06 13:09:18</time>
      </trkpt>
      <trkpt lat="37.05403" lon="-3.3204">
        <ele>3168</ele>
        <time>2021-08-06 13:09:19</time>
      </trkpt>
      <trkpt lat="37.05403" lon="-3.32041">
        <ele>3167.8</ele>
        <time>2021-08-06 13:09:20</time>
      </trkpt>
      <trkpt lat="37.05403" lon="-3.32042">
        <ele>3167.6</ele>
        <time>2021-08-06 13:09:21</time>
      </trkpt>
      <trkpt lat="37.05403" lon="-3.32043">
        <ele>3167.4</ele>
        <time>2021-08-06 13:09:22</time>
      </trkpt>
      <trkpt lat="37.05404" lon="-3.32044">
        <ele>3167.4</ele>
        <time>2021-08-06 13:09:23</time>
      </trkpt>
      <trkpt lat="37.05405" lon="-3.32045">
        <ele>3167.2</ele>
        <time>2021-08-06 13:09:24</time>
      </trkpt>
      <trkpt lat="37.05406" lon="-3.32046">
        <ele>3167</ele>
        <time>2021-08-06 13:09:25</time>
      </trkpt>
      <trkpt lat="37.05407" lon="-3.32047">
        <ele>3167</ele>
        <time>2021-08-06 13:09:26</time>
      </trkpt>
      <trkpt lat="37.05408" lon="-3.32048">
        <ele>3167</ele>
        <time>2021-08-06 13:09:27</time>
      </trkpt>
      <trkpt lat="37.05408" lon="-3.32048">
        <ele>3167</ele>
        <time>2021-08-06 13:09:28</time>
      </trkpt>
      <trkpt lat="37.05409" lon="-3.32049">
        <ele>3166.8</ele>
        <time>2021-08-06 13:09:29</time>
      </trkpt>
      <trkpt lat="37.05409" lon="-3.3205">
        <ele>3166.8</ele>
        <time>2021-08-06 13:09:30</time>
      </trkpt>
      <trkpt lat="37.05409" lon="-3.32051">
        <ele>3166.6</ele>
        <time>2021-08-06 13:09:31</time>
      </trkpt>
      <trkpt lat="37.05409" lon="-3.32051">
        <ele>3166.4</ele>
        <time>2021-08-06 13:09:32</time>
      </trkpt>
      <trkpt lat="37.05409" lon="-3.32052">
        <ele>3166.4</ele>
        <time>2021-08-06 13:09:33</time>
      </trkpt>
      <trkpt lat="37.0541" lon="-3.32054">
        <ele>3166.2</ele>
        <time>2021-08-06 13:09:34</time>
      </trkpt>
      <trkpt lat="37.0541" lon="-3.32055">
        <ele>3166</ele>
        <time>2021-08-06 13:09:35</time>
      </trkpt>
      <trkpt lat="37.05411" lon="-3.32056">
        <ele>3165.8</ele>
        <time>2021-08-06 13:09:36</time>
      </trkpt>
      <trkpt lat="37.05412" lon="-3.32057">
        <ele>3165.6</ele>
        <time>2021-08-06 13:09:37</time>
      </trkpt>
      <trkpt lat="37.05413" lon="-3.32057">
        <ele>3165.4</ele>
        <time>2021-08-06 13:09:38</time>
      </trkpt>
      <trkpt lat="37.05414" lon="-3.32058">
        <ele>3165.4</ele>
        <time>2021-08-06 13:09:39</time>
      </trkpt>
      <trkpt lat="37.05414" lon="-3.32059">
        <ele>3165.4</ele>
        <time>2021-08-06 13:09:40</time>
      </trkpt>
      <trkpt lat="37.05415" lon="-3.32059">
        <ele>3165.2</ele>
        <time>2021-08-06 13:09:41</time>
      </trkpt>
      <trkpt lat="37.05416" lon="-3.3206">
        <ele>3165.2</ele>
        <time>2021-08-06 13:09:42</time>
      </trkpt>
      <trkpt lat="37.05416" lon="-3.32061">
        <ele>3165</ele>
        <time>2021-08-06 13:09:43</time>
      </trkpt>
      <trkpt lat="37.05417" lon="-3.32062">
        <ele>3164.8</ele>
        <time>2021-08-06 13:09:44</time>
      </trkpt>
      <trkpt lat="37.05417" lon="-3.32063">
        <ele>3164.4</ele>
        <time>2021-08-06 13:09:45</time>
      </trkpt>
      <trkpt lat="37.05418" lon="-3.32064">
        <ele>3164.2</ele>
        <time>2021-08-06 13:09:46</time>
      </trkpt>
      <trkpt lat="37.05418" lon="-3.32065">
        <ele>3164.2</ele>
        <time>2021-08-06 13:09:47</time>
      </trkpt>
      <trkpt lat="37.05418" lon="-3.32066">
        <ele>3164</ele>
        <time>2021-08-06 13:09:48</time>
      </trkpt>
      <trkpt lat="37.05418" lon="-3.32067">
        <ele>3164</ele>
        <time>2021-08-06 13:09:49</time>
      </trkpt>
      <trkpt lat="37.05419" lon="-3.32068">
        <ele>3163.6</ele>
        <time>2021-08-06 13:09:50</time>
      </trkpt>
      <trkpt lat="37.05419" lon="-3.32069">
        <ele>3163.2</ele>
        <time>2021-08-06 13:09:51</time>
      </trkpt>
      <trkpt lat="37.05419" lon="-3.32069">
        <ele>3163</ele>
        <time>2021-08-06 13:09:52</time>
      </trkpt>
      <trkpt lat="37.0542" lon="-3.3207">
        <ele>3162.8</ele>
        <time>2021-08-06 13:09:53</time>
      </trkpt>
      <trkpt lat="37.0542" lon="-3.32071">
        <ele>3162.6</ele>
        <time>2021-08-06 13:09:54</time>
      </trkpt>
      <trkpt lat="37.05421" lon="-3.32072">
        <ele>3162.6</ele>
        <time>2021-08-06 13:09:55</time>
      </trkpt>
      <trkpt lat="37.05421" lon="-3.32073">
        <ele>3162.6</ele>
        <time>2021-08-06 13:09:56</time>
      </trkpt>
      <trkpt lat="37.05421" lon="-3.32074">
        <ele>3162.6</ele>
        <time>2021-08-06 13:09:57</time>
      </trkpt>
      <trkpt lat="37.05422" lon="-3.32075">
        <ele>3162.6</ele>
        <time>2021-08-06 13:09:58</time>
      </trkpt>
      <trkpt lat="37.05422" lon="-3.32076">
        <ele>3162.4</ele>
        <time>2021-08-06 13:09:59</time>
      </trkpt>
      <trkpt lat="37.05422" lon="-3.32077">
        <ele>3162.2</ele>
        <time>2021-08-06 13:10:00</time>
      </trkpt>
      <trkpt lat="37.05422" lon="-3.32077">
        <ele>3162</ele>
        <time>2021-08-06 13:10:01</time>
      </trkpt>
      <trkpt lat="37.05422" lon="-3.32077">
        <ele>3161.8</ele>
        <time>2021-08-06 13:10:02</time>
      </trkpt>
      <trkpt lat="37.05422" lon="-3.32077">
        <ele>3161.6</ele>
        <time>2021-08-06 13:10:03</time>
      </trkpt>
      <trkpt lat="37.05422" lon="-3.32077">
        <ele>3161.6</ele>
        <time>2021-08-06 13:10:04</time>
      </trkpt>
      <trkpt lat="37.05422" lon="-3.32077">
        <ele>3161.4</ele>
        <time>2021-08-06 13:10:05</time>
      </trkpt>
      <trkpt lat="37.05422" lon="-3.32077">
        <ele>3161.4</ele>
        <time>2021-08-06 13:10:06</time>
      </trkpt>
      <trkpt lat="37.05422" lon="-3.32077">
        <ele>3161.4</ele>
        <time>2021-08-06 13:10:07</time>
      </trkpt>
      <trkpt lat="37.05422" lon="-3.32076">
        <ele>3161.4</ele>
        <time>2021-08-06 13:10:08</time>
      </trkpt>
      <trkpt lat="37.05422" lon="-3.32077">
        <ele>3161.2</ele>
        <time>2021-08-06 13:10:09</time>
      </trkpt>
      <trkpt lat="37.05422" lon="-3.32077">
        <ele>3161.2</ele>
        <time>2021-08-06 13:10:10</time>
      </trkpt>
      <trkpt lat="37.05422" lon="-3.32077">
        <ele>3161.2</ele>
        <time>2021-08-06 13:10:11</time>
      </trkpt>
      <trkpt lat="37.05422" lon="-3.32078">
        <ele>3161.2</ele>
        <time>2021-08-06 13:10:12</time>
      </trkpt>
      <trkpt lat="37.05423" lon="-3.32078">
        <ele>3161.2</ele>
        <time>2021-08-06 13:10:13</time>
      </trkpt>
      <trkpt lat="37.05423" lon="-3.32079">
        <ele>3161.2</ele>
        <time>2021-08-06 13:10:14</time>
      </trkpt>
      <trkpt lat="37.05423" lon="-3.32079">
        <ele>3161</ele>
        <time>2021-08-06 13:10:15</time>
      </trkpt>
      <trkpt lat="37.05424" lon="-3.3208">
        <ele>3160.8</ele>
        <time>2021-08-06 13:10:16</time>
      </trkpt>
      <trkpt lat="37.05424" lon="-3.3208">
        <ele>3160.6</ele>
        <time>2021-08-06 13:10:17</time>
      </trkpt>
      <trkpt lat="37.05425" lon="-3.3208">
        <ele>3160.2</ele>
        <time>2021-08-06 13:10:18</time>
      </trkpt>
      <trkpt lat="37.05425" lon="-3.32081">
        <ele>3160.2</ele>
        <time>2021-08-06 13:10:19</time>
      </trkpt>
      <trkpt lat="37.05425" lon="-3.32082">
        <ele>3159.8</ele>
        <time>2021-08-06 13:10:20</time>
      </trkpt>
      <trkpt lat="37.05425" lon="-3.32082">
        <ele>3159.4</ele>
        <time>2021-08-06 13:10:21</time>
      </trkpt>
      <trkpt lat="37.05425" lon="-3.32082">
        <ele>3159.4</ele>
        <time>2021-08-06 13:10:22</time>
      </trkpt>
      <trkpt lat="37.05426" lon="-3.32082">
        <ele>3159.4</ele>
        <time>2021-08-06 13:10:23</time>
      </trkpt>
      <trkpt lat="37.05427" lon="-3.32081">
        <ele>3159.4</ele>
        <time>2021-08-06 13:10:24</time>
      </trkpt>
      <trkpt lat="37.05427" lon="-3.32082">
        <ele>3159.4</ele>
        <time>2021-08-06 13:10:25</time>
      </trkpt>
      <trkpt lat="37.05427" lon="-3.32083">
        <ele>3159.4</ele>
        <time>2021-08-06 13:10:26</time>
      </trkpt>
      <trkpt lat="37.05427" lon="-3.32084">
        <ele>3159.2</ele>
        <time>2021-08-06 13:10:27</time>
      </trkpt>
      <trkpt lat="37.05427" lon="-3.32085">
        <ele>3159.2</ele>
        <time>2021-08-06 13:10:28</time>
      </trkpt>
      <trkpt lat="37.05427" lon="-3.32085">
        <ele>3159.2</ele>
        <time>2021-08-06 13:10:29</time>
      </trkpt>
      <trkpt lat="37.05427" lon="-3.32086">
        <ele>3158.8</ele>
        <time>2021-08-06 13:10:30</time>
      </trkpt>
      <trkpt lat="37.05427" lon="-3.32087">
        <ele>3158.6</ele>
        <time>2021-08-06 13:10:31</time>
      </trkpt>
      <trkpt lat="37.05428" lon="-3.32088">
        <ele>3158.2</ele>
        <time>2021-08-06 13:10:32</time>
      </trkpt>
      <trkpt lat="37.05428" lon="-3.32089">
        <ele>3158</ele>
        <time>2021-08-06 13:10:33</time>
      </trkpt>
      <trkpt lat="37.05428" lon="-3.3209">
        <ele>3157.8</ele>
        <time>2021-08-06 13:10:34</time>
      </trkpt>
      <trkpt lat="37.05429" lon="-3.3209">
        <ele>3157.4</ele>
        <time>2021-08-06 13:10:35</time>
      </trkpt>
      <trkpt lat="37.05429" lon="-3.32091">
        <ele>3157.2</ele>
        <time>2021-08-06 13:10:36</time>
      </trkpt>
      <trkpt lat="37.05429" lon="-3.32092">
        <ele>3156.8</ele>
        <time>2021-08-06 13:10:37</time>
      </trkpt>
      <trkpt lat="37.05429" lon="-3.32093">
        <ele>3156.6</ele>
        <time>2021-08-06 13:10:38</time>
      </trkpt>
      <trkpt lat="37.0543" lon="-3.32094">
        <ele>3156.6</ele>
        <time>2021-08-06 13:10:39</time>
      </trkpt>
      <trkpt lat="37.0543" lon="-3.32095">
        <ele>3156.4</ele>
        <time>2021-08-06 13:10:40</time>
      </trkpt>
      <trkpt lat="37.05431" lon="-3.32095">
        <ele>3156.6</ele>
        <time>2021-08-06 13:10:41</time>
      </trkpt>
      <trkpt lat="37.05431" lon="-3.32095">
        <ele>3157</ele>
        <time>2021-08-06 13:10:42</time>
      </trkpt>
      <trkpt lat="37.05431" lon="-3.32096">
        <ele>3157.4</ele>
        <time>2021-08-06 13:10:43</time>
      </trkpt>
      <trkpt lat="37.05431" lon="-3.32097">
        <ele>3157.4</ele>
        <time>2021-08-06 13:10:44</time>
      </trkpt>
      <trkpt lat="37.05431" lon="-3.32098">
        <ele>3157.6</ele>
        <time>2021-08-06 13:10:45</time>
      </trkpt>
      <trkpt lat="37.05432" lon="-3.32099">
        <ele>3157.6</ele>
        <time>2021-08-06 13:10:46</time>
      </trkpt>
      <trkpt lat="37.05432" lon="-3.32099">
        <ele>3157.4</ele>
        <time>2021-08-06 13:10:47</time>
      </trkpt>
      <trkpt lat="37.05432" lon="-3.32099">
        <ele>3157</ele>
        <time>2021-08-06 13:10:48</time>
      </trkpt>
      <trkpt lat="37.05432" lon="-3.321">
        <ele>3156.8</ele>
        <time>2021-08-06 13:10:49</time>
      </trkpt>
      <trkpt lat="37.05432" lon="-3.32101">
        <ele>3156.6</ele>
        <time>2021-08-06 13:10:50</time>
      </trkpt>
      <trkpt lat="37.05432" lon="-3.32101">
        <ele>3156.6</ele>
        <time>2021-08-06 13:10:51</time>
      </trkpt>
      <trkpt lat="37.05433" lon="-3.32102">
        <ele>3156.4</ele>
        <time>2021-08-06 13:10:52</time>
      </trkpt>
      <trkpt lat="37.05433" lon="-3.32102">
        <ele>3156.4</ele>
        <time>2021-08-06 13:10:53</time>
      </trkpt>
      <trkpt lat="37.05433" lon="-3.32103">
        <ele>3156.4</ele>
        <time>2021-08-06 13:10:54</time>
      </trkpt>
      <trkpt lat="37.05433" lon="-3.32104">
        <ele>3156</ele>
        <time>2021-08-06 13:10:55</time>
      </trkpt>
      <trkpt lat="37.05434" lon="-3.32105">
        <ele>3156</ele>
        <time>2021-08-06 13:10:56</time>
      </trkpt>
      <trkpt lat="37.05434" lon="-3.32106">
        <ele>3155.8</ele>
        <time>2021-08-06 13:10:57</time>
      </trkpt>
      <trkpt lat="37.05434" lon="-3.32107">
        <ele>3155.6</ele>
        <time>2021-08-06 13:10:58</time>
      </trkpt>
      <trkpt lat="37.05434" lon="-3.32108">
        <ele>3155.4</ele>
        <time>2021-08-06 13:10:59</time>
      </trkpt>
      <trkpt lat="37.05435" lon="-3.32108">
        <ele>3155.4</ele>
        <time>2021-08-06 13:11:00</time>
      </trkpt>
      <trkpt lat="37.05435" lon="-3.32109">
        <ele>3155.2</ele>
        <time>2021-08-06 13:11:01</time>
      </trkpt>
      <trkpt lat="37.05435" lon="-3.32109">
        <ele>3155</ele>
        <time>2021-08-06 13:11:02</time>
      </trkpt>
      <trkpt lat="37.05435" lon="-3.3211">
        <ele>3155</ele>
        <time>2021-08-06 13:11:03</time>
      </trkpt>
      <trkpt lat="37.05435" lon="-3.3211">
        <ele>3155</ele>
        <time>2021-08-06 13:11:04</time>
      </trkpt>
      <trkpt lat="37.05435" lon="-3.32111">
        <ele>3155</ele>
        <time>2021-08-06 13:11:05</time>
      </trkpt>
      <trkpt lat="37.05435" lon="-3.32112">
        <ele>3154.8</ele>
        <time>2021-08-06 13:11:06</time>
      </trkpt>
      <trkpt lat="37.05435" lon="-3.32113">
        <ele>3154.6</ele>
        <time>2021-08-06 13:11:07</time>
      </trkpt>
      <trkpt lat="37.05435" lon="-3.32113">
        <ele>3154.4</ele>
        <time>2021-08-06 13:11:08</time>
      </trkpt>
      <trkpt lat="37.05436" lon="-3.32113">
        <ele>3154.4</ele>
        <time>2021-08-06 13:11:09</time>
      </trkpt>
      <trkpt lat="37.05436" lon="-3.32114">
        <ele>3154.2</ele>
        <time>2021-08-06 13:11:10</time>
      </trkpt>
      <trkpt lat="37.05437" lon="-3.32114">
        <ele>3154.2</ele>
        <time>2021-08-06 13:11:11</time>
      </trkpt>
      <trkpt lat="37.05437" lon="-3.32115">
        <ele>3154.2</ele>
        <time>2021-08-06 13:11:12</time>
      </trkpt>
      <trkpt lat="37.05438" lon="-3.32116">
        <ele>3154.2</ele>
        <time>2021-08-06 13:11:13</time>
      </trkpt>
      <trkpt lat="37.05438" lon="-3.32116">
        <ele>3154</ele>
        <time>2021-08-06 13:11:14</time>
      </trkpt>
      <trkpt lat="37.05438" lon="-3.32117">
        <ele>3154</ele>
        <time>2021-08-06 13:11:15</time>
      </trkpt>
      <trkpt lat="37.05438" lon="-3.32118">
        <ele>3153.6</ele>
        <time>2021-08-06 13:11:16</time>
      </trkpt>
      <trkpt lat="37.05438" lon="-3.32119">
        <ele>3153.4</ele>
        <time>2021-08-06 13:11:17</time>
      </trkpt>
      <trkpt lat="37.05438" lon="-3.32119">
        <ele>3153.2</ele>
        <time>2021-08-06 13:11:18</time>
      </trkpt>
      <trkpt lat="37.05438" lon="-3.3212">
        <ele>3152.8</ele>
        <time>2021-08-06 13:11:19</time>
      </trkpt>
      <trkpt lat="37.05438" lon="-3.3212">
        <ele>3152.8</ele>
        <time>2021-08-06 13:11:20</time>
      </trkpt>
      <trkpt lat="37.05439" lon="-3.32121">
        <ele>3152.8</ele>
        <time>2021-08-06 13:11:21</time>
      </trkpt>
      <trkpt lat="37.05439" lon="-3.32121">
        <ele>3152.8</ele>
        <time>2021-08-06 13:11:22</time>
      </trkpt>
      <trkpt lat="37.05439" lon="-3.32122">
        <ele>3152.8</ele>
        <time>2021-08-06 13:11:23</time>
      </trkpt>
      <trkpt lat="37.05439" lon="-3.32123">
        <ele>3152.6</ele>
        <time>2021-08-06 13:11:24</time>
      </trkpt>
      <trkpt lat="37.05439" lon="-3.32123">
        <ele>3152.6</ele>
        <time>2021-08-06 13:11:25</time>
      </trkpt>
      <trkpt lat="37.05439" lon="-3.32125">
        <ele>3152.6</ele>
        <time>2021-08-06 13:11:26</time>
      </trkpt>
      <trkpt lat="37.05439" lon="-3.32125">
        <ele>3152</ele>
        <time>2021-08-06 13:11:27</time>
      </trkpt>
      <trkpt lat="37.05439" lon="-3.32126">
        <ele>3151.6</ele>
        <time>2021-08-06 13:11:28</time>
      </trkpt>
      <trkpt lat="37.05439" lon="-3.32126">
        <ele>3151.2</ele>
        <time>2021-08-06 13:11:29</time>
      </trkpt>
      <trkpt lat="37.0544" lon="-3.32127">
        <ele>3151</ele>
        <time>2021-08-06 13:11:30</time>
      </trkpt>
      <trkpt lat="37.0544" lon="-3.32128">
        <ele>3151.2</ele>
        <time>2021-08-06 13:11:31</time>
      </trkpt>
      <trkpt lat="37.05441" lon="-3.32128">
        <ele>3151.2</ele>
        <time>2021-08-06 13:11:32</time>
      </trkpt>
      <trkpt lat="37.05441" lon="-3.32129">
        <ele>3151.4</ele>
        <time>2021-08-06 13:11:33</time>
      </trkpt>
      <trkpt lat="37.05442" lon="-3.3213">
        <ele>3151.4</ele>
        <time>2021-08-06 13:11:34</time>
      </trkpt>
      <trkpt lat="37.05442" lon="-3.3213">
        <ele>3151.2</ele>
        <time>2021-08-06 13:11:35</time>
      </trkpt>
      <trkpt lat="37.05443" lon="-3.32131">
        <ele>3151</ele>
        <time>2021-08-06 13:11:36</time>
      </trkpt>
      <trkpt lat="37.05443" lon="-3.32132">
        <ele>3150.8</ele>
        <time>2021-08-06 13:11:37</time>
      </trkpt>
      <trkpt lat="37.05443" lon="-3.32133">
        <ele>3150.4</ele>
        <time>2021-08-06 13:11:38</time>
      </trkpt>
      <trkpt lat="37.05444" lon="-3.32134">
        <ele>3150.4</ele>
        <time>2021-08-06 13:11:39</time>
      </trkpt>
      <trkpt lat="37.05444" lon="-3.32134">
        <ele>3150.2</ele>
        <time>2021-08-06 13:11:40</time>
      </trkpt>
      <trkpt lat="37.05444" lon="-3.32134">
        <ele>3150.2</ele>
        <time>2021-08-06 13:11:41</time>
      </trkpt>
      <trkpt lat="37.05445" lon="-3.32135">
        <ele>3150</ele>
        <time>2021-08-06 13:11:42</time>
      </trkpt>
      <trkpt lat="37.05445" lon="-3.32135">
        <ele>3149.8</ele>
        <time>2021-08-06 13:11:43</time>
      </trkpt>
      <trkpt lat="37.05446" lon="-3.32136">
        <ele>3149.6</ele>
        <time>2021-08-06 13:11:44</time>
      </trkpt>
      <trkpt lat="37.05447" lon="-3.32136">
        <ele>3149.6</ele>
        <time>2021-08-06 13:11:45</time>
      </trkpt>
      <trkpt lat="37.05448" lon="-3.32137">
        <ele>3149.4</ele>
        <time>2021-08-06 13:11:46</time>
      </trkpt>
      <trkpt lat="37.05448" lon="-3.32138">
        <ele>3149.4</ele>
        <time>2021-08-06 13:11:47</time>
      </trkpt>
      <trkpt lat="37.05449" lon="-3.32138">
        <ele>3149.2</ele>
        <time>2021-08-06 13:11:48</time>
      </trkpt>
      <trkpt lat="37.05449" lon="-3.32139">
        <ele>3149.2</ele>
        <time>2021-08-06 13:11:49</time>
      </trkpt>
      <trkpt lat="37.0545" lon="-3.32139">
        <ele>3149</ele>
        <time>2021-08-06 13:11:50</time>
      </trkpt>
      <trkpt lat="37.0545" lon="-3.3214">
        <ele>3149</ele>
        <time>2021-08-06 13:11:51</time>
      </trkpt>
      <trkpt lat="37.0545" lon="-3.3214">
        <ele>3148.8</ele>
        <time>2021-08-06 13:11:52</time>
      </trkpt>
      <trkpt lat="37.0545" lon="-3.32141">
        <ele>3148.8</ele>
        <time>2021-08-06 13:11:53</time>
      </trkpt>
      <trkpt lat="37.0545" lon="-3.32143">
        <ele>3148.6</ele>
        <time>2021-08-06 13:11:54</time>
      </trkpt>
      <trkpt lat="37.05451" lon="-3.32144">
        <ele>3148.4</ele>
        <time>2021-08-06 13:11:55</time>
      </trkpt>
      <trkpt lat="37.05451" lon="-3.32145">
        <ele>3148.2</ele>
        <time>2021-08-06 13:11:56</time>
      </trkpt>
      <trkpt lat="37.05451" lon="-3.32146">
        <ele>3147.8</ele>
        <time>2021-08-06 13:11:57</time>
      </trkpt>
      <trkpt lat="37.05451" lon="-3.32148">
        <ele>3147.6</ele>
        <time>2021-08-06 13:11:58</time>
      </trkpt>
      <trkpt lat="37.05452" lon="-3.32149">
        <ele>3147.8</ele>
        <time>2021-08-06 13:11:59</time>
      </trkpt>
      <trkpt lat="37.05452" lon="-3.3215">
        <ele>3147.6</ele>
        <time>2021-08-06 13:12:00</time>
      </trkpt>
      <trkpt lat="37.05452" lon="-3.32151">
        <ele>3147.4</ele>
        <time>2021-08-06 13:12:01</time>
      </trkpt>
      <trkpt lat="37.05452" lon="-3.32153">
        <ele>3147.4</ele>
        <time>2021-08-06 13:12:02</time>
      </trkpt>
      <trkpt lat="37.05453" lon="-3.32154">
        <ele>3147.2</ele>
        <time>2021-08-06 13:12:03</time>
      </trkpt>
      <trkpt lat="37.05453" lon="-3.32155">
        <ele>3146.8</ele>
        <time>2021-08-06 13:12:04</time>
      </trkpt>
      <trkpt lat="37.05453" lon="-3.32156">
        <ele>3146.4</ele>
        <time>2021-08-06 13:12:05</time>
      </trkpt>
      <trkpt lat="37.05453" lon="-3.32157">
        <ele>3146.2</ele>
        <time>2021-08-06 13:12:06</time>
      </trkpt>
      <trkpt lat="37.05453" lon="-3.32157">
        <ele>3146.2</ele>
        <time>2021-08-06 13:12:07</time>
      </trkpt>
      <trkpt lat="37.05453" lon="-3.32158">
        <ele>3146.2</ele>
        <time>2021-08-06 13:12:08</time>
      </trkpt>
      <trkpt lat="37.05454" lon="-3.32159">
        <ele>3146</ele>
        <time>2021-08-06 13:12:09</time>
      </trkpt>
      <trkpt lat="37.05454" lon="-3.32159">
        <ele>3146</ele>
        <time>2021-08-06 13:12:10</time>
      </trkpt>
      <trkpt lat="37.05454" lon="-3.3216">
        <ele>3146.2</ele>
        <time>2021-08-06 13:12:11</time>
      </trkpt>
      <trkpt lat="37.05455" lon="-3.32161">
        <ele>3146.4</ele>
        <time>2021-08-06 13:12:12</time>
      </trkpt>
      <trkpt lat="37.05455" lon="-3.32161">
        <ele>3146</ele>
        <time>2021-08-06 13:12:13</time>
      </trkpt>
      <trkpt lat="37.05456" lon="-3.32162">
        <ele>3146</ele>
        <time>2021-08-06 13:12:14</time>
      </trkpt>
      <trkpt lat="37.05456" lon="-3.32163">
        <ele>3145.8</ele>
        <time>2021-08-06 13:12:15</time>
      </trkpt>
      <trkpt lat="37.05457" lon="-3.32163">
        <ele>3145.6</ele>
        <time>2021-08-06 13:12:16</time>
      </trkpt>
      <trkpt lat="37.05456" lon="-3.32164">
        <ele>3145.4</ele>
        <time>2021-08-06 13:12:17</time>
      </trkpt>
      <trkpt lat="37.05456" lon="-3.32165">
        <ele>3145.2</ele>
        <time>2021-08-06 13:12:18</time>
      </trkpt>
      <trkpt lat="37.05456" lon="-3.32166">
        <ele>3145.2</ele>
        <time>2021-08-06 13:12:19</time>
      </trkpt>
      <trkpt lat="37.05455" lon="-3.32167">
        <ele>3145</ele>
        <time>2021-08-06 13:12:20</time>
      </trkpt>
      <trkpt lat="37.05455" lon="-3.32168">
        <ele>3144.8</ele>
        <time>2021-08-06 13:12:21</time>
      </trkpt>
      <trkpt lat="37.05455" lon="-3.32168">
        <ele>3144.6</ele>
        <time>2021-08-06 13:12:22</time>
      </trkpt>
      <trkpt lat="37.05455" lon="-3.32169">
        <ele>3144.4</ele>
        <time>2021-08-06 13:12:23</time>
      </trkpt>
      <trkpt lat="37.05456" lon="-3.32169">
        <ele>3144.2</ele>
        <time>2021-08-06 13:12:24</time>
      </trkpt>
      <trkpt lat="37.05456" lon="-3.3217">
        <ele>3144</ele>
        <time>2021-08-06 13:12:25</time>
      </trkpt>
      <trkpt lat="37.05455" lon="-3.32171">
        <ele>3143.8</ele>
        <time>2021-08-06 13:12:26</time>
      </trkpt>
      <trkpt lat="37.05455" lon="-3.32171">
        <ele>3143.4</ele>
        <time>2021-08-06 13:12:27</time>
      </trkpt>
      <trkpt lat="37.05455" lon="-3.32171">
        <ele>3143</ele>
        <time>2021-08-06 13:12:28</time>
      </trkpt>
      <trkpt lat="37.05455" lon="-3.32171">
        <ele>3143</ele>
        <time>2021-08-06 13:12:29</time>
      </trkpt>
      <trkpt lat="37.05455" lon="-3.32171">
        <ele>3143</ele>
        <time>2021-08-06 13:12:30</time>
      </trkpt>
      <trkpt lat="37.05454" lon="-3.32171">
        <ele>3143</ele>
        <time>2021-08-06 13:12:31</time>
      </trkpt>
      <trkpt lat="37.05453" lon="-3.32172">
        <ele>3143</ele>
        <time>2021-08-06 13:12:32</time>
      </trkpt>
      <trkpt lat="37.05454" lon="-3.32173">
        <ele>3143</ele>
        <time>2021-08-06 13:12:33</time>
      </trkpt>
      <trkpt lat="37.05454" lon="-3.32174">
        <ele>3142.6</ele>
        <time>2021-08-06 13:12:34</time>
      </trkpt>
      <trkpt lat="37.05454" lon="-3.32174">
        <ele>3142.4</ele>
        <time>2021-08-06 13:12:35</time>
      </trkpt>
      <trkpt lat="37.05454" lon="-3.32174">
        <ele>3142.2</ele>
        <time>2021-08-06 13:12:36</time>
      </trkpt>
      <trkpt lat="37.05454" lon="-3.32174">
        <ele>3142</ele>
        <time>2021-08-06 13:12:37</time>
      </trkpt>
      <trkpt lat="37.05454" lon="-3.32174">
        <ele>3142</ele>
        <time>2021-08-06 13:12:38</time>
      </trkpt>
      <trkpt lat="37.05454" lon="-3.32174">
        <ele>3141.8</ele>
        <time>2021-08-06 13:12:39</time>
      </trkpt>
      <trkpt lat="37.05454" lon="-3.32175">
        <ele>3141.6</ele>
        <time>2021-08-06 13:12:40</time>
      </trkpt>
      <trkpt lat="37.05454" lon="-3.32175">
        <ele>3141.2</ele>
        <time>2021-08-06 13:12:41</time>
      </trkpt>
      <trkpt lat="37.05454" lon="-3.32176">
        <ele>3141</ele>
        <time>2021-08-06 13:12:42</time>
      </trkpt>
      <trkpt lat="37.05454" lon="-3.32176">
        <ele>3141</ele>
        <time>2021-08-06 13:12:43</time>
      </trkpt>
      <trkpt lat="37.05455" lon="-3.32177">
        <ele>3141</ele>
        <time>2021-08-06 13:12:44</time>
      </trkpt>
      <trkpt lat="37.05455" lon="-3.32177">
        <ele>3140.8</ele>
        <time>2021-08-06 13:12:45</time>
      </trkpt>
      <trkpt lat="37.05454" lon="-3.32177">
        <ele>3140.6</ele>
        <time>2021-08-06 13:12:46</time>
      </trkpt>
      <trkpt lat="37.05454" lon="-3.32178">
        <ele>3140.4</ele>
        <time>2021-08-06 13:12:47</time>
      </trkpt>
      <trkpt lat="37.05455" lon="-3.32178">
        <ele>3140.2</ele>
        <time>2021-08-06 13:12:48</time>
      </trkpt>
      <trkpt lat="37.05455" lon="-3.32179">
        <ele>3140</ele>
        <time>2021-08-06 13:12:49</time>
      </trkpt>
      <trkpt lat="37.05455" lon="-3.32179">
        <ele>3140</ele>
        <time>2021-08-06 13:12:50</time>
      </trkpt>
      <trkpt lat="37.05456" lon="-3.3218">
        <ele>3139.8</ele>
        <time>2021-08-06 13:12:51</time>
      </trkpt>
      <trkpt lat="37.05456" lon="-3.32181">
        <ele>3139.6</ele>
        <time>2021-08-06 13:12:52</time>
      </trkpt>
      <trkpt lat="37.05456" lon="-3.32181">
        <ele>3139.4</ele>
        <time>2021-08-06 13:12:53</time>
      </trkpt>
      <trkpt lat="37.05457" lon="-3.32181">
        <ele>3139.2</ele>
        <time>2021-08-06 13:12:54</time>
      </trkpt>
      <trkpt lat="37.05457" lon="-3.32182">
        <ele>3139</ele>
        <time>2021-08-06 13:12:55</time>
      </trkpt>
      <trkpt lat="37.05457" lon="-3.32183">
        <ele>3139</ele>
        <time>2021-08-06 13:12:56</time>
      </trkpt>
      <trkpt lat="37.05458" lon="-3.32184">
        <ele>3138.8</ele>
        <time>2021-08-06 13:12:57</time>
      </trkpt>
      <trkpt lat="37.05458" lon="-3.32185">
        <ele>3138.8</ele>
        <time>2021-08-06 13:12:58</time>
      </trkpt>
      <trkpt lat="37.05458" lon="-3.32186">
        <ele>3138.6</ele>
        <time>2021-08-06 13:12:59</time>
      </trkpt>
      <trkpt lat="37.05458" lon="-3.32186">
        <ele>3138.4</ele>
        <time>2021-08-06 13:13:00</time>
      </trkpt>
      <trkpt lat="37.05458" lon="-3.32187">
        <ele>3138.4</ele>
        <time>2021-08-06 13:13:01</time>
      </trkpt>
      <trkpt lat="37.05458" lon="-3.32188">
        <ele>3138.2</ele>
        <time>2021-08-06 13:13:02</time>
      </trkpt>
      <trkpt lat="37.05459" lon="-3.32188">
        <ele>3137.6</ele>
        <time>2021-08-06 13:13:03</time>
      </trkpt>
      <trkpt lat="37.05459" lon="-3.32189">
        <ele>3137.4</ele>
        <time>2021-08-06 13:13:04</time>
      </trkpt>
      <trkpt lat="37.05459" lon="-3.3219">
        <ele>3137.4</ele>
        <time>2021-08-06 13:13:05</time>
      </trkpt>
      <trkpt lat="37.05458" lon="-3.32191">
        <ele>3137.4</ele>
        <time>2021-08-06 13:13:06</time>
      </trkpt>
      <trkpt lat="37.05459" lon="-3.32192">
        <ele>3137.4</ele>
        <time>2021-08-06 13:13:07</time>
      </trkpt>
      <trkpt lat="37.05459" lon="-3.32193">
        <ele>3137.4</ele>
        <time>2021-08-06 13:13:08</time>
      </trkpt>
      <trkpt lat="37.05459" lon="-3.32193">
        <ele>3137.2</ele>
        <time>2021-08-06 13:13:09</time>
      </trkpt>
      <trkpt lat="37.0546" lon="-3.32194">
        <ele>3137.2</ele>
        <time>2021-08-06 13:13:10</time>
      </trkpt>
      <trkpt lat="37.05461" lon="-3.32195">
        <ele>3137.2</ele>
        <time>2021-08-06 13:13:11</time>
      </trkpt>
      <trkpt lat="37.05462" lon="-3.32195">
        <ele>3137.2</ele>
        <time>2021-08-06 13:13:12</time>
      </trkpt>
      <trkpt lat="37.05462" lon="-3.32195">
        <ele>3137</ele>
        <time>2021-08-06 13:13:13</time>
      </trkpt>
      <trkpt lat="37.05463" lon="-3.32196">
        <ele>3137</ele>
        <time>2021-08-06 13:13:14</time>
      </trkpt>
      <trkpt lat="37.05463" lon="-3.32197">
        <ele>3137</ele>
        <time>2021-08-06 13:13:15</time>
      </trkpt>
      <trkpt lat="37.05463" lon="-3.32197">
        <ele>3136.8</ele>
        <time>2021-08-06 13:13:16</time>
      </trkpt>
      <trkpt lat="37.05463" lon="-3.32198">
        <ele>3136.8</ele>
        <time>2021-08-06 13:13:17</time>
      </trkpt>
      <trkpt lat="37.05462" lon="-3.32199">
        <ele>3136.4</ele>
        <time>2021-08-06 13:13:18</time>
      </trkpt>
      <trkpt lat="37.05463" lon="-3.32199">
        <ele>3135.8</ele>
        <time>2021-08-06 13:13:19</time>
      </trkpt>
      <trkpt lat="37.05463" lon="-3.32199">
        <ele>3135.6</ele>
        <time>2021-08-06 13:13:20</time>
      </trkpt>
      <trkpt lat="37.05463" lon="-3.322">
        <ele>3135.4</ele>
        <time>2021-08-06 13:13:21</time>
      </trkpt>
      <trkpt lat="37.05464" lon="-3.322">
        <ele>3135.4</ele>
        <time>2021-08-06 13:13:22</time>
      </trkpt>
      <trkpt lat="37.05464" lon="-3.32201">
        <ele>3135.2</ele>
        <time>2021-08-06 13:13:23</time>
      </trkpt>
      <trkpt lat="37.05464" lon="-3.32202">
        <ele>3135.2</ele>
        <time>2021-08-06 13:13:24</time>
      </trkpt>
      <trkpt lat="37.05464" lon="-3.32202">
        <ele>3135.2</ele>
        <time>2021-08-06 13:13:25</time>
      </trkpt>
      <trkpt lat="37.05464" lon="-3.32202">
        <ele>3135.2</ele>
        <time>2021-08-06 13:13:26</time>
      </trkpt>
      <trkpt lat="37.05465" lon="-3.32203">
        <ele>3135</ele>
        <time>2021-08-06 13:13:27</time>
      </trkpt>
      <trkpt lat="37.05465" lon="-3.32204">
        <ele>3134.8</ele>
        <time>2021-08-06 13:13:28</time>
      </trkpt>
      <trkpt lat="37.05466" lon="-3.32204">
        <ele>3134.6</ele>
        <time>2021-08-06 13:13:29</time>
      </trkpt>
      <trkpt lat="37.05466" lon="-3.32205">
        <ele>3135</ele>
        <time>2021-08-06 13:13:30</time>
      </trkpt>
      <trkpt lat="37.05467" lon="-3.32206">
        <ele>3134.8</ele>
        <time>2021-08-06 13:13:31</time>
      </trkpt>
      <trkpt lat="37.05467" lon="-3.32206">
        <ele>3134.4</ele>
        <time>2021-08-06 13:13:32</time>
      </trkpt>
      <trkpt lat="37.05467" lon="-3.32207">
        <ele>3134</ele>
        <time>2021-08-06 13:13:33</time>
      </trkpt>
      <trkpt lat="37.05468" lon="-3.32208">
        <ele>3134</ele>
        <time>2021-08-06 13:13:34</time>
      </trkpt>
      <trkpt lat="37.05468" lon="-3.32209">
        <ele>3133.8</ele>
        <time>2021-08-06 13:13:35</time>
      </trkpt>
      <trkpt lat="37.05468" lon="-3.3221">
        <ele>3133.8</ele>
        <time>2021-08-06 13:13:36</time>
      </trkpt>
      <trkpt lat="37.05469" lon="-3.3221">
        <ele>3133.8</ele>
        <time>2021-08-06 13:13:37</time>
      </trkpt>
      <trkpt lat="37.05469" lon="-3.32211">
        <ele>3133.8</ele>
        <time>2021-08-06 13:13:38</time>
      </trkpt>
      <trkpt lat="37.0547" lon="-3.32211">
        <ele>3133.8</ele>
        <time>2021-08-06 13:13:39</time>
      </trkpt>
      <trkpt lat="37.0547" lon="-3.32212">
        <ele>3133.8</ele>
        <time>2021-08-06 13:13:40</time>
      </trkpt>
      <trkpt lat="37.0547" lon="-3.32212">
        <ele>3133.8</ele>
        <time>2021-08-06 13:13:41</time>
      </trkpt>
      <trkpt lat="37.0547" lon="-3.32214">
        <ele>3133.6</ele>
        <time>2021-08-06 13:13:42</time>
      </trkpt>
      <trkpt lat="37.0547" lon="-3.32215">
        <ele>3133.4</ele>
        <time>2021-08-06 13:13:43</time>
      </trkpt>
      <trkpt lat="37.05469" lon="-3.32216">
        <ele>3133.4</ele>
        <time>2021-08-06 13:13:44</time>
      </trkpt>
      <trkpt lat="37.05469" lon="-3.32216">
        <ele>3133.2</ele>
        <time>2021-08-06 13:13:45</time>
      </trkpt>
      <trkpt lat="37.05469" lon="-3.32217">
        <ele>3132.8</ele>
        <time>2021-08-06 13:13:46</time>
      </trkpt>
      <trkpt lat="37.05469" lon="-3.32218">
        <ele>3132.6</ele>
        <time>2021-08-06 13:13:47</time>
      </trkpt>
      <trkpt lat="37.05469" lon="-3.32218">
        <ele>3132.4</ele>
        <time>2021-08-06 13:13:48</time>
      </trkpt>
      <trkpt lat="37.0547" lon="-3.32219">
        <ele>3132.2</ele>
        <time>2021-08-06 13:13:49</time>
      </trkpt>
      <trkpt lat="37.0547" lon="-3.3222">
        <ele>3132</ele>
        <time>2021-08-06 13:13:50</time>
      </trkpt>
      <trkpt lat="37.05471" lon="-3.32221">
        <ele>3132</ele>
        <time>2021-08-06 13:13:51</time>
      </trkpt>
      <trkpt lat="37.05472" lon="-3.32222">
        <ele>3132</ele>
        <time>2021-08-06 13:13:52</time>
      </trkpt>
      <trkpt lat="37.05472" lon="-3.32222">
        <ele>3132</ele>
        <time>2021-08-06 13:13:53</time>
      </trkpt>
      <trkpt lat="37.05473" lon="-3.32223">
        <ele>3132</ele>
        <time>2021-08-06 13:13:54</time>
      </trkpt>
      <trkpt lat="37.05473" lon="-3.32224">
        <ele>3131.8</ele>
        <time>2021-08-06 13:13:55</time>
      </trkpt>
      <trkpt lat="37.05473" lon="-3.32225">
        <ele>3131.8</ele>
        <time>2021-08-06 13:13:56</time>
      </trkpt>
      <trkpt lat="37.05473" lon="-3.32226">
        <ele>3131.6</ele>
        <time>2021-08-06 13:13:57</time>
      </trkpt>
      <trkpt lat="37.05474" lon="-3.32227">
        <ele>3131.4</ele>
        <time>2021-08-06 13:13:58</time>
      </trkpt>
      <trkpt lat="37.05475" lon="-3.32227">
        <ele>3131.4</ele>
        <time>2021-08-06 13:13:59</time>
      </trkpt>
      <trkpt lat="37.05475" lon="-3.32227">
        <ele>3131.2</ele>
        <time>2021-08-06 13:14:00</time>
      </trkpt>
      <trkpt lat="37.05475" lon="-3.32228">
        <ele>3131.2</ele>
        <time>2021-08-06 13:14:01</time>
      </trkpt>
      <trkpt lat="37.05476" lon="-3.32229">
        <ele>3131.2</ele>
        <time>2021-08-06 13:14:02</time>
      </trkpt>
      <trkpt lat="37.05476" lon="-3.32229">
        <ele>3131.2</ele>
        <time>2021-08-06 13:14:03</time>
      </trkpt>
      <trkpt lat="37.05476" lon="-3.3223">
        <ele>3131</ele>
        <time>2021-08-06 13:14:04</time>
      </trkpt>
      <trkpt lat="37.05476" lon="-3.32231">
        <ele>3130.6</ele>
        <time>2021-08-06 13:14:05</time>
      </trkpt>
      <trkpt lat="37.05476" lon="-3.32232">
        <ele>3130.2</ele>
        <time>2021-08-06 13:14:06</time>
      </trkpt>
      <trkpt lat="37.05476" lon="-3.32233">
        <ele>3130</ele>
        <time>2021-08-06 13:14:07</time>
      </trkpt>
      <trkpt lat="37.05476" lon="-3.32234">
        <ele>3130</ele>
        <time>2021-08-06 13:14:08</time>
      </trkpt>
      <trkpt lat="37.05476" lon="-3.32234">
        <ele>3130</ele>
        <time>2021-08-06 13:14:09</time>
      </trkpt>
      <trkpt lat="37.05476" lon="-3.32235">
        <ele>3129.8</ele>
        <time>2021-08-06 13:14:10</time>
      </trkpt>
      <trkpt lat="37.05476" lon="-3.32235">
        <ele>3129.8</ele>
        <time>2021-08-06 13:14:11</time>
      </trkpt>
      <trkpt lat="37.05475" lon="-3.32236">
        <ele>3129.4</ele>
        <time>2021-08-06 13:14:12</time>
      </trkpt>
      <trkpt lat="37.05475" lon="-3.32237">
        <ele>3129.2</ele>
        <time>2021-08-06 13:14:13</time>
      </trkpt>
      <trkpt lat="37.05475" lon="-3.32238">
        <ele>3129</ele>
        <time>2021-08-06 13:14:14</time>
      </trkpt>
      <trkpt lat="37.05475" lon="-3.32238">
        <ele>3128.8</ele>
        <time>2021-08-06 13:14:15</time>
      </trkpt>
      <trkpt lat="37.05475" lon="-3.32239">
        <ele>3128.6</ele>
        <time>2021-08-06 13:14:16</time>
      </trkpt>
      <trkpt lat="37.05476" lon="-3.32239">
        <ele>3128.4</ele>
        <time>2021-08-06 13:14:17</time>
      </trkpt>
      <trkpt lat="37.05476" lon="-3.3224">
        <ele>3128.2</ele>
        <time>2021-08-06 13:14:18</time>
      </trkpt>
      <trkpt lat="37.05476" lon="-3.3224">
        <ele>3128.2</ele>
        <time>2021-08-06 13:14:19</time>
      </trkpt>
      <trkpt lat="37.05476" lon="-3.32241">
        <ele>3128.2</ele>
        <time>2021-08-06 13:14:20</time>
      </trkpt>
      <trkpt lat="37.05476" lon="-3.32242">
        <ele>3128</ele>
        <time>2021-08-06 13:14:21</time>
      </trkpt>
      <trkpt lat="37.05476" lon="-3.32243">
        <ele>3128</ele>
        <time>2021-08-06 13:14:22</time>
      </trkpt>
      <trkpt lat="37.05477" lon="-3.32243">
        <ele>3128</ele>
        <time>2021-08-06 13:14:23</time>
      </trkpt>
      <trkpt lat="37.05477" lon="-3.32244">
        <ele>3128</ele>
        <time>2021-08-06 13:14:24</time>
      </trkpt>
      <trkpt lat="37.05478" lon="-3.32244">
        <ele>3128.2</ele>
        <time>2021-08-06 13:14:25</time>
      </trkpt>
      <trkpt lat="37.05479" lon="-3.32244">
        <ele>3128.2</ele>
        <time>2021-08-06 13:14:26</time>
      </trkpt>
      <trkpt lat="37.05479" lon="-3.32245">
        <ele>3128</ele>
        <time>2021-08-06 13:14:27</time>
      </trkpt>
      <trkpt lat="37.05479" lon="-3.32246">
        <ele>3127.8</ele>
        <time>2021-08-06 13:14:28</time>
      </trkpt>
      <trkpt lat="37.05479" lon="-3.32248">
        <ele>3127.6</ele>
        <time>2021-08-06 13:14:29</time>
      </trkpt>
      <trkpt lat="37.05479" lon="-3.32249">
        <ele>3127.4</ele>
        <time>2021-08-06 13:14:30</time>
      </trkpt>
      <trkpt lat="37.0548" lon="-3.3225">
        <ele>3127.2</ele>
        <time>2021-08-06 13:14:31</time>
      </trkpt>
      <trkpt lat="37.05481" lon="-3.32251">
        <ele>3127</ele>
        <time>2021-08-06 13:14:32</time>
      </trkpt>
      <trkpt lat="37.05481" lon="-3.32251">
        <ele>3127</ele>
        <time>2021-08-06 13:14:33</time>
      </trkpt>
      <trkpt lat="37.05482" lon="-3.32252">
        <ele>3126.8</ele>
        <time>2021-08-06 13:14:34</time>
      </trkpt>
      <trkpt lat="37.05483" lon="-3.32253">
        <ele>3126.8</ele>
        <time>2021-08-06 13:14:35</time>
      </trkpt>
      <trkpt lat="37.05483" lon="-3.32254">
        <ele>3126.6</ele>
        <time>2021-08-06 13:14:36</time>
      </trkpt>
      <trkpt lat="37.05483" lon="-3.32255">
        <ele>3126.4</ele>
        <time>2021-08-06 13:14:37</time>
      </trkpt>
      <trkpt lat="37.05483" lon="-3.32256">
        <ele>3126.4</ele>
        <time>2021-08-06 13:14:38</time>
      </trkpt>
      <trkpt lat="37.05483" lon="-3.32257">
        <ele>3126.4</ele>
        <time>2021-08-06 13:14:39</time>
      </trkpt>
      <trkpt lat="37.05484" lon="-3.32258">
        <ele>3126.2</ele>
        <time>2021-08-06 13:14:40</time>
      </trkpt>
      <trkpt lat="37.05484" lon="-3.32259">
        <ele>3126.2</ele>
        <time>2021-08-06 13:14:41</time>
      </trkpt>
      <trkpt lat="37.05484" lon="-3.3226">
        <ele>3126.2</ele>
        <time>2021-08-06 13:14:42</time>
      </trkpt>
      <trkpt lat="37.05483" lon="-3.32261">
        <ele>3125.8</ele>
        <time>2021-08-06 13:14:43</time>
      </trkpt>
      <trkpt lat="37.05483" lon="-3.32261">
        <ele>3125.4</ele>
        <time>2021-08-06 13:14:44</time>
      </trkpt>
      <trkpt lat="37.05482" lon="-3.32262">
        <ele>3125</ele>
        <time>2021-08-06 13:14:45</time>
      </trkpt>
      <trkpt lat="37.05482" lon="-3.32263">
        <ele>3124.8</ele>
        <time>2021-08-06 13:14:46</time>
      </trkpt>
      <trkpt lat="37.05481" lon="-3.32264">
        <ele>3124.6</ele>
        <time>2021-08-06 13:14:47</time>
      </trkpt>
      <trkpt lat="37.05481" lon="-3.32264">
        <ele>3124.2</ele>
        <time>2021-08-06 13:14:48</time>
      </trkpt>
      <trkpt lat="37.05481" lon="-3.32265">
        <ele>3124.2</ele>
        <time>2021-08-06 13:14:49</time>
      </trkpt>
      <trkpt lat="37.05481" lon="-3.32266">
        <ele>3124</ele>
        <time>2021-08-06 13:14:50</time>
      </trkpt>
      <trkpt lat="37.05481" lon="-3.32267">
        <ele>3124</ele>
        <time>2021-08-06 13:14:51</time>
      </trkpt>
      <trkpt lat="37.05481" lon="-3.32267">
        <ele>3123.8</ele>
        <time>2021-08-06 13:14:52</time>
      </trkpt>
      <trkpt lat="37.05481" lon="-3.32268">
        <ele>3123.6</ele>
        <time>2021-08-06 13:14:53</time>
      </trkpt>
      <trkpt lat="37.05481" lon="-3.32269">
        <ele>3123.4</ele>
        <time>2021-08-06 13:14:54</time>
      </trkpt>
      <trkpt lat="37.05481" lon="-3.3227">
        <ele>3123.2</ele>
        <time>2021-08-06 13:14:55</time>
      </trkpt>
      <trkpt lat="37.05481" lon="-3.32271">
        <ele>3123.2</ele>
        <time>2021-08-06 13:14:56</time>
      </trkpt>
      <trkpt lat="37.05481" lon="-3.32272">
        <ele>3123</ele>
        <time>2021-08-06 13:14:57</time>
      </trkpt>
      <trkpt lat="37.05481" lon="-3.32273">
        <ele>3123</ele>
        <time>2021-08-06 13:14:58</time>
      </trkpt>
      <trkpt lat="37.05482" lon="-3.32274">
        <ele>3123</ele>
        <time>2021-08-06 13:14:59</time>
      </trkpt>
      <trkpt lat="37.05482" lon="-3.32274">
        <ele>3123</ele>
        <time>2021-08-06 13:15:00</time>
      </trkpt>
      <trkpt lat="37.05482" lon="-3.32275">
        <ele>3123</ele>
        <time>2021-08-06 13:15:01</time>
      </trkpt>
      <trkpt lat="37.05482" lon="-3.32276">
        <ele>3123</ele>
        <time>2021-08-06 13:15:02</time>
      </trkpt>
      <trkpt lat="37.05482" lon="-3.32277">
        <ele>3123</ele>
        <time>2021-08-06 13:15:03</time>
      </trkpt>
      <trkpt lat="37.05482" lon="-3.32278">
        <ele>3122.6</ele>
        <time>2021-08-06 13:15:04</time>
      </trkpt>
      <trkpt lat="37.05482" lon="-3.32278">
        <ele>3121.8</ele>
        <time>2021-08-06 13:15:05</time>
      </trkpt>
      <trkpt lat="37.05482" lon="-3.32279">
        <ele>3121.4</ele>
        <time>2021-08-06 13:15:06</time>
      </trkpt>
      <trkpt lat="37.05482" lon="-3.3228">
        <ele>3121</ele>
        <time>2021-08-06 13:15:07</time>
      </trkpt>
      <trkpt lat="37.05482" lon="-3.32281">
        <ele>3120.8</ele>
        <time>2021-08-06 13:15:08</time>
      </trkpt>
      <trkpt lat="37.05482" lon="-3.32282">
        <ele>3120.6</ele>
        <time>2021-08-06 13:15:09</time>
      </trkpt>
      <trkpt lat="37.05482" lon="-3.32283">
        <ele>3120.6</ele>
        <time>2021-08-06 13:15:10</time>
      </trkpt>
      <trkpt lat="37.05482" lon="-3.32284">
        <ele>3120.4</ele>
        <time>2021-08-06 13:15:11</time>
      </trkpt>
      <trkpt lat="37.05482" lon="-3.32285">
        <ele>3120.2</ele>
        <time>2021-08-06 13:15:12</time>
      </trkpt>
      <trkpt lat="37.05482" lon="-3.32285">
        <ele>3120.2</ele>
        <time>2021-08-06 13:15:13</time>
      </trkpt>
      <trkpt lat="37.05482" lon="-3.32286">
        <ele>3120</ele>
        <time>2021-08-06 13:15:14</time>
      </trkpt>
      <trkpt lat="37.05482" lon="-3.32287">
        <ele>3120</ele>
        <time>2021-08-06 13:15:15</time>
      </trkpt>
      <trkpt lat="37.05482" lon="-3.32288">
        <ele>3120</ele>
        <time>2021-08-06 13:15:16</time>
      </trkpt>
      <trkpt lat="37.05483" lon="-3.32289">
        <ele>3119.8</ele>
        <time>2021-08-06 13:15:17</time>
      </trkpt>
      <trkpt lat="37.05483" lon="-3.3229">
        <ele>3119.8</ele>
        <time>2021-08-06 13:15:18</time>
      </trkpt>
      <trkpt lat="37.05483" lon="-3.32291">
        <ele>3119.6</ele>
        <time>2021-08-06 13:15:19</time>
      </trkpt>
      <trkpt lat="37.05484" lon="-3.32292">
        <ele>3119.4</ele>
        <time>2021-08-06 13:15:20</time>
      </trkpt>
      <trkpt lat="37.05484" lon="-3.32293">
        <ele>3119.4</ele>
        <time>2021-08-06 13:15:21</time>
      </trkpt>
      <trkpt lat="37.05483" lon="-3.32293">
        <ele>3119.2</ele>
        <time>2021-08-06 13:15:22</time>
      </trkpt>
      <trkpt lat="37.05483" lon="-3.32294">
        <ele>3118.6</ele>
        <time>2021-08-06 13:15:23</time>
      </trkpt>
      <trkpt lat="37.05483" lon="-3.32294">
        <ele>3118.4</ele>
        <time>2021-08-06 13:15:24</time>
      </trkpt>
      <trkpt lat="37.05483" lon="-3.32295">
        <ele>3118.4</ele>
        <time>2021-08-06 13:15:25</time>
      </trkpt>
      <trkpt lat="37.05483" lon="-3.32296">
        <ele>3118</ele>
        <time>2021-08-06 13:15:26</time>
      </trkpt>
      <trkpt lat="37.05483" lon="-3.32297">
        <ele>3117.8</ele>
        <time>2021-08-06 13:15:27</time>
      </trkpt>
      <trkpt lat="37.05483" lon="-3.32298">
        <ele>3117.8</ele>
        <time>2021-08-06 13:15:28</time>
      </trkpt>
      <trkpt lat="37.05484" lon="-3.32299">
        <ele>3117.6</ele>
        <time>2021-08-06 13:15:29</time>
      </trkpt>
      <trkpt lat="37.05484" lon="-3.323">
        <ele>3117.4</ele>
        <time>2021-08-06 13:15:30</time>
      </trkpt>
      <trkpt lat="37.05484" lon="-3.32301">
        <ele>3117.4</ele>
        <time>2021-08-06 13:15:31</time>
      </trkpt>
      <trkpt lat="37.05485" lon="-3.32302">
        <ele>3117.4</ele>
        <time>2021-08-06 13:15:32</time>
      </trkpt>
      <trkpt lat="37.05486" lon="-3.32303">
        <ele>3117.4</ele>
        <time>2021-08-06 13:15:33</time>
      </trkpt>
      <trkpt lat="37.05486" lon="-3.32303">
        <ele>3117.4</ele>
        <time>2021-08-06 13:15:34</time>
      </trkpt>
      <trkpt lat="37.05486" lon="-3.32304">
        <ele>3117.2</ele>
        <time>2021-08-06 13:15:35</time>
      </trkpt>
      <trkpt lat="37.05487" lon="-3.32305">
        <ele>3117.2</ele>
        <time>2021-08-06 13:15:36</time>
      </trkpt>
      <trkpt lat="37.05487" lon="-3.32305">
        <ele>3117.2</ele>
        <time>2021-08-06 13:15:37</time>
      </trkpt>
      <trkpt lat="37.05487" lon="-3.32306">
        <ele>3117</ele>
        <time>2021-08-06 13:15:38</time>
      </trkpt>
      <trkpt lat="37.05487" lon="-3.32307">
        <ele>3117</ele>
        <time>2021-08-06 13:15:39</time>
      </trkpt>
      <trkpt lat="37.05487" lon="-3.32308">
        <ele>3116.8</ele>
        <time>2021-08-06 13:15:40</time>
      </trkpt>
      <trkpt lat="37.05487" lon="-3.32309">
        <ele>3116.6</ele>
        <time>2021-08-06 13:15:41</time>
      </trkpt>
      <trkpt lat="37.05486" lon="-3.3231">
        <ele>3116.4</ele>
        <time>2021-08-06 13:15:42</time>
      </trkpt>
      <trkpt lat="37.05487" lon="-3.32311">
        <ele>3116.2</ele>
        <time>2021-08-06 13:15:43</time>
      </trkpt>
      <trkpt lat="37.05487" lon="-3.32312">
        <ele>3116</ele>
        <time>2021-08-06 13:15:44</time>
      </trkpt>
      <trkpt lat="37.05487" lon="-3.32312">
        <ele>3115.8</ele>
        <time>2021-08-06 13:15:45</time>
      </trkpt>
      <trkpt lat="37.05487" lon="-3.32313">
        <ele>3115.4</ele>
        <time>2021-08-06 13:15:46</time>
      </trkpt>
      <trkpt lat="37.05487" lon="-3.32314">
        <ele>3115</ele>
        <time>2021-08-06 13:15:47</time>
      </trkpt>
      <trkpt lat="37.05487" lon="-3.32314">
        <ele>3114.8</ele>
        <time>2021-08-06 13:15:48</time>
      </trkpt>
      <trkpt lat="37.05487" lon="-3.32315">
        <ele>3114.6</ele>
        <time>2021-08-06 13:15:49</time>
      </trkpt>
      <trkpt lat="37.05487" lon="-3.32316">
        <ele>3114.6</ele>
        <time>2021-08-06 13:15:50</time>
      </trkpt>
      <trkpt lat="37.05487" lon="-3.32317">
        <ele>3114.4</ele>
        <time>2021-08-06 13:15:51</time>
      </trkpt>
      <trkpt lat="37.05487" lon="-3.32317">
        <ele>3114.4</ele>
        <time>2021-08-06 13:15:52</time>
      </trkpt>
      <trkpt lat="37.05487" lon="-3.32318">
        <ele>3114.4</ele>
        <time>2021-08-06 13:15:53</time>
      </trkpt>
      <trkpt lat="37.05487" lon="-3.32319">
        <ele>3114.2</ele>
        <time>2021-08-06 13:15:54</time>
      </trkpt>
      <trkpt lat="37.05487" lon="-3.32319">
        <ele>3114.2</ele>
        <time>2021-08-06 13:15:55</time>
      </trkpt>
      <trkpt lat="37.05487" lon="-3.32319">
        <ele>3114.4</ele>
        <time>2021-08-06 13:15:56</time>
      </trkpt>
      <trkpt lat="37.05487" lon="-3.32319">
        <ele>3114.2</ele>
        <time>2021-08-06 13:15:57</time>
      </trkpt>
      <trkpt lat="37.05488" lon="-3.32319">
        <ele>3114.2</ele>
        <time>2021-08-06 13:15:58</time>
      </trkpt>
      <trkpt lat="37.05488" lon="-3.3232">
        <ele>3114.2</ele>
        <time>2021-08-06 13:15:59</time>
      </trkpt>
      <trkpt lat="37.05488" lon="-3.32321">
        <ele>3114.2</ele>
        <time>2021-08-06 13:16:00</time>
      </trkpt>
      <trkpt lat="37.05488" lon="-3.32322">
        <ele>3114.2</ele>
        <time>2021-08-06 13:16:01</time>
      </trkpt>
      <trkpt lat="37.05488" lon="-3.32322">
        <ele>3114</ele>
        <time>2021-08-06 13:16:02</time>
      </trkpt>
      <trkpt lat="37.05489" lon="-3.32324">
        <ele>3114</ele>
        <time>2021-08-06 13:16:03</time>
      </trkpt>
      <trkpt lat="37.05489" lon="-3.32325">
        <ele>3114</ele>
        <time>2021-08-06 13:16:04</time>
      </trkpt>
      <trkpt lat="37.05489" lon="-3.32325">
        <ele>3113.8</ele>
        <time>2021-08-06 13:16:05</time>
      </trkpt>
      <trkpt lat="37.05489" lon="-3.32326">
        <ele>3113.6</ele>
        <time>2021-08-06 13:16:06</time>
      </trkpt>
      <trkpt lat="37.05489" lon="-3.32327">
        <ele>3113.4</ele>
        <time>2021-08-06 13:16:07</time>
      </trkpt>
      <trkpt lat="37.05489" lon="-3.32327">
        <ele>3113.2</ele>
        <time>2021-08-06 13:16:08</time>
      </trkpt>
      <trkpt lat="37.0549" lon="-3.32329">
        <ele>3113</ele>
        <time>2021-08-06 13:16:09</time>
      </trkpt>
      <trkpt lat="37.0549" lon="-3.32329">
        <ele>3112.8</ele>
        <time>2021-08-06 13:16:10</time>
      </trkpt>
      <trkpt lat="37.0549" lon="-3.32329">
        <ele>3112.8</ele>
        <time>2021-08-06 13:16:11</time>
      </trkpt>
      <trkpt lat="37.0549" lon="-3.3233">
        <ele>3112.6</ele>
        <time>2021-08-06 13:16:12</time>
      </trkpt>
      <trkpt lat="37.0549" lon="-3.3233">
        <ele>3112.2</ele>
        <time>2021-08-06 13:16:13</time>
      </trkpt>
      <trkpt lat="37.05489" lon="-3.32331">
        <ele>3112</ele>
        <time>2021-08-06 13:16:14</time>
      </trkpt>
      <trkpt lat="37.0549" lon="-3.32332">
        <ele>3111.4</ele>
        <time>2021-08-06 13:16:15</time>
      </trkpt>
      <trkpt lat="37.0549" lon="-3.32332">
        <ele>3111.6</ele>
        <time>2021-08-06 13:16:16</time>
      </trkpt>
      <trkpt lat="37.0549" lon="-3.32333">
        <ele>3111.2</ele>
        <time>2021-08-06 13:16:17</time>
      </trkpt>
      <trkpt lat="37.05491" lon="-3.32333">
        <ele>3111.2</ele>
        <time>2021-08-06 13:16:18</time>
      </trkpt>
      <trkpt lat="37.05491" lon="-3.32334">
        <ele>3111.2</ele>
        <time>2021-08-06 13:16:19</time>
      </trkpt>
      <trkpt lat="37.05491" lon="-3.32335">
        <ele>3111.2</ele>
        <time>2021-08-06 13:16:20</time>
      </trkpt>
      <trkpt lat="37.05491" lon="-3.32336">
        <ele>3111</ele>
        <time>2021-08-06 13:16:21</time>
      </trkpt>
      <trkpt lat="37.05491" lon="-3.32337">
        <ele>3111</ele>
        <time>2021-08-06 13:16:22</time>
      </trkpt>
      <trkpt lat="37.05492" lon="-3.32337">
        <ele>3110.8</ele>
        <time>2021-08-06 13:16:23</time>
      </trkpt>
      <trkpt lat="37.05492" lon="-3.32339">
        <ele>3110.6</ele>
        <time>2021-08-06 13:16:24</time>
      </trkpt>
      <trkpt lat="37.05492" lon="-3.3234">
        <ele>3110.4</ele>
        <time>2021-08-06 13:16:25</time>
      </trkpt>
      <trkpt lat="37.05492" lon="-3.32341">
        <ele>3110.2</ele>
        <time>2021-08-06 13:16:26</time>
      </trkpt>
      <trkpt lat="37.05492" lon="-3.32342">
        <ele>3110.2</ele>
        <time>2021-08-06 13:16:27</time>
      </trkpt>
      <trkpt lat="37.05492" lon="-3.32343">
        <ele>3110</ele>
        <time>2021-08-06 13:16:28</time>
      </trkpt>
      <trkpt lat="37.05492" lon="-3.32344">
        <ele>3110</ele>
        <time>2021-08-06 13:16:29</time>
      </trkpt>
      <trkpt lat="37.05492" lon="-3.32345">
        <ele>3109.8</ele>
        <time>2021-08-06 13:16:30</time>
      </trkpt>
      <trkpt lat="37.05492" lon="-3.32346">
        <ele>3109.6</ele>
        <time>2021-08-06 13:16:31</time>
      </trkpt>
      <trkpt lat="37.05492" lon="-3.32347">
        <ele>3109.6</ele>
        <time>2021-08-06 13:16:32</time>
      </trkpt>
      <trkpt lat="37.05492" lon="-3.32347">
        <ele>3109.2</ele>
        <time>2021-08-06 13:16:33</time>
      </trkpt>
      <trkpt lat="37.05492" lon="-3.32347">
        <ele>3109</ele>
        <time>2021-08-06 13:16:34</time>
      </trkpt>
      <trkpt lat="37.05493" lon="-3.32348">
        <ele>3109</ele>
        <time>2021-08-06 13:16:35</time>
      </trkpt>
      <trkpt lat="37.05493" lon="-3.32348">
        <ele>3109</ele>
        <time>2021-08-06 13:16:36</time>
      </trkpt>
      <trkpt lat="37.05493" lon="-3.32349">
        <ele>3109</ele>
        <time>2021-08-06 13:16:37</time>
      </trkpt>
      <trkpt lat="37.05494" lon="-3.32349">
        <ele>3109</ele>
        <time>2021-08-06 13:16:38</time>
      </trkpt>
      <trkpt lat="37.05494" lon="-3.3235">
        <ele>3109</ele>
        <time>2021-08-06 13:16:39</time>
      </trkpt>
      <trkpt lat="37.05494" lon="-3.3235">
        <ele>3109</ele>
        <time>2021-08-06 13:16:40</time>
      </trkpt>
      <trkpt lat="37.05494" lon="-3.32351">
        <ele>3109</ele>
        <time>2021-08-06 13:16:41</time>
      </trkpt>
      <trkpt lat="37.05494" lon="-3.32352">
        <ele>3109</ele>
        <time>2021-08-06 13:16:42</time>
      </trkpt>
      <trkpt lat="37.05494" lon="-3.32353">
        <ele>3108.6</ele>
        <time>2021-08-06 13:16:43</time>
      </trkpt>
      <trkpt lat="37.05495" lon="-3.32354">
        <ele>3108.4</ele>
        <time>2021-08-06 13:16:44</time>
      </trkpt>
      <trkpt lat="37.05495" lon="-3.32355">
        <ele>3108.2</ele>
        <time>2021-08-06 13:16:45</time>
      </trkpt>
      <trkpt lat="37.05495" lon="-3.32356">
        <ele>3108</ele>
        <time>2021-08-06 13:16:46</time>
      </trkpt>
      <trkpt lat="37.05497" lon="-3.32356">
        <ele>3107.6</ele>
        <time>2021-08-06 13:16:47</time>
      </trkpt>
      <trkpt lat="37.05497" lon="-3.32356">
        <ele>3107.4</ele>
        <time>2021-08-06 13:16:48</time>
      </trkpt>
      <trkpt lat="37.05497" lon="-3.32357">
        <ele>3107.4</ele>
        <time>2021-08-06 13:16:49</time>
      </trkpt>
      <trkpt lat="37.05497" lon="-3.32358">
        <ele>3107.2</ele>
        <time>2021-08-06 13:16:50</time>
      </trkpt>
      <trkpt lat="37.05497" lon="-3.32359">
        <ele>3107.2</ele>
        <time>2021-08-06 13:16:51</time>
      </trkpt>
      <trkpt lat="37.05498" lon="-3.32359">
        <ele>3107.2</ele>
        <time>2021-08-06 13:16:52</time>
      </trkpt>
      <trkpt lat="37.05498" lon="-3.3236">
        <ele>3107</ele>
        <time>2021-08-06 13:16:53</time>
      </trkpt>
      <trkpt lat="37.05499" lon="-3.32361">
        <ele>3106.8</ele>
        <time>2021-08-06 13:16:54</time>
      </trkpt>
      <trkpt lat="37.055" lon="-3.32362">
        <ele>3106.6</ele>
        <time>2021-08-06 13:16:55</time>
      </trkpt>
      <trkpt lat="37.055" lon="-3.32363">
        <ele>3106.4</ele>
        <time>2021-08-06 13:16:56</time>
      </trkpt>
      <trkpt lat="37.055" lon="-3.32364">
        <ele>3106.4</ele>
        <time>2021-08-06 13:16:57</time>
      </trkpt>
      <trkpt lat="37.05501" lon="-3.32364">
        <ele>3105.8</ele>
        <time>2021-08-06 13:16:58</time>
      </trkpt>
      <trkpt lat="37.05501" lon="-3.32365">
        <ele>3105.4</ele>
        <time>2021-08-06 13:16:59</time>
      </trkpt>
      <trkpt lat="37.05501" lon="-3.32366">
        <ele>3105.2</ele>
        <time>2021-08-06 13:17:00</time>
      </trkpt>
      <trkpt lat="37.05501" lon="-3.32366">
        <ele>3105.4</ele>
        <time>2021-08-06 13:17:01</time>
      </trkpt>
      <trkpt lat="37.05501" lon="-3.32366">
        <ele>3105.2</ele>
        <time>2021-08-06 13:17:02</time>
      </trkpt>
      <trkpt lat="37.05502" lon="-3.32367">
        <ele>3105</ele>
        <time>2021-08-06 13:17:03</time>
      </trkpt>
      <trkpt lat="37.05502" lon="-3.32368">
        <ele>3105</ele>
        <time>2021-08-06 13:17:04</time>
      </trkpt>
      <trkpt lat="37.05502" lon="-3.32369">
        <ele>3104.8</ele>
        <time>2021-08-06 13:17:05</time>
      </trkpt>
      <trkpt lat="37.05503" lon="-3.3237">
        <ele>3104.6</ele>
        <time>2021-08-06 13:17:06</time>
      </trkpt>
      <trkpt lat="37.05504" lon="-3.3237">
        <ele>3104.4</ele>
        <time>2021-08-06 13:17:07</time>
      </trkpt>
      <trkpt lat="37.05504" lon="-3.32371">
        <ele>3104.2</ele>
        <time>2021-08-06 13:17:08</time>
      </trkpt>
      <trkpt lat="37.05505" lon="-3.32371">
        <ele>3104.2</ele>
        <time>2021-08-06 13:17:09</time>
      </trkpt>
      <trkpt lat="37.05505" lon="-3.32371">
        <ele>3104.2</ele>
        <time>2021-08-06 13:17:10</time>
      </trkpt>
      <trkpt lat="37.05505" lon="-3.32371">
        <ele>3104.2</ele>
        <time>2021-08-06 13:17:11</time>
      </trkpt>
      <trkpt lat="37.05505" lon="-3.32372">
        <ele>3104.2</ele>
        <time>2021-08-06 13:17:12</time>
      </trkpt>
      <trkpt lat="37.05505" lon="-3.32372">
        <ele>3104</ele>
        <time>2021-08-06 13:17:13</time>
      </trkpt>
      <trkpt lat="37.05505" lon="-3.32373">
        <ele>3104</ele>
        <time>2021-08-06 13:17:14</time>
      </trkpt>
      <trkpt lat="37.05505" lon="-3.32374">
        <ele>3104</ele>
        <time>2021-08-06 13:17:15</time>
      </trkpt>
      <trkpt lat="37.05505" lon="-3.32374">
        <ele>3103.8</ele>
        <time>2021-08-06 13:17:16</time>
      </trkpt>
      <trkpt lat="37.05506" lon="-3.32374">
        <ele>3103.8</ele>
        <time>2021-08-06 13:17:17</time>
      </trkpt>
      <trkpt lat="37.05506" lon="-3.32374">
        <ele>3103.4</ele>
        <time>2021-08-06 13:17:18</time>
      </trkpt>
      <trkpt lat="37.05507" lon="-3.32375">
        <ele>3103.4</ele>
        <time>2021-08-06 13:17:19</time>
      </trkpt>
      <trkpt lat="37.05507" lon="-3.32375">
        <ele>3103.2</ele>
        <time>2021-08-06 13:17:20</time>
      </trkpt>
      <trkpt lat="37.05507" lon="-3.32375">
        <ele>3103.2</ele>
        <time>2021-08-06 13:17:21</time>
      </trkpt>
      <trkpt lat="37.05508" lon="-3.32376">
        <ele>3103.2</ele>
        <time>2021-08-06 13:17:22</time>
      </trkpt>
      <trkpt lat="37.05508" lon="-3.32376">
        <ele>3103.2</ele>
        <time>2021-08-06 13:17:23</time>
      </trkpt>
      <trkpt lat="37.05508" lon="-3.32377">
        <ele>3103.2</ele>
        <time>2021-08-06 13:17:24</time>
      </trkpt>
      <trkpt lat="37.05508" lon="-3.32378">
        <ele>3103</ele>
        <time>2021-08-06 13:17:25</time>
      </trkpt>
      <trkpt lat="37.05508" lon="-3.32379">
        <ele>3102.8</ele>
        <time>2021-08-06 13:17:26</time>
      </trkpt>
      <trkpt lat="37.05508" lon="-3.3238">
        <ele>3102.4</ele>
        <time>2021-08-06 13:17:27</time>
      </trkpt>
      <trkpt lat="37.05508" lon="-3.3238">
        <ele>3102</ele>
        <time>2021-08-06 13:17:28</time>
      </trkpt>
      <trkpt lat="37.05508" lon="-3.32381">
        <ele>3101.4</ele>
        <time>2021-08-06 13:17:29</time>
      </trkpt>
      <trkpt lat="37.05508" lon="-3.32382">
        <ele>3101</ele>
        <time>2021-08-06 13:17:30</time>
      </trkpt>
      <trkpt lat="37.05508" lon="-3.32383">
        <ele>3100.8</ele>
        <time>2021-08-06 13:17:31</time>
      </trkpt>
      <trkpt lat="37.05507" lon="-3.32383">
        <ele>3100.8</ele>
        <time>2021-08-06 13:17:32</time>
      </trkpt>
      <trkpt lat="37.05507" lon="-3.32383">
        <ele>3100.6</ele>
        <time>2021-08-06 13:17:33</time>
      </trkpt>
      <trkpt lat="37.05507" lon="-3.32384">
        <ele>3100.8</ele>
        <time>2021-08-06 13:17:34</time>
      </trkpt>
      <trkpt lat="37.05507" lon="-3.32385">
        <ele>3100.8</ele>
        <time>2021-08-06 13:17:35</time>
      </trkpt>
      <trkpt lat="37.05508" lon="-3.32385">
        <ele>3101</ele>
        <time>2021-08-06 13:17:36</time>
      </trkpt>
      <trkpt lat="37.05508" lon="-3.32386">
        <ele>3101</ele>
        <time>2021-08-06 13:17:37</time>
      </trkpt>
      <trkpt lat="37.05508" lon="-3.32386">
        <ele>3101.2</ele>
        <time>2021-08-06 13:17:38</time>
      </trkpt>
      <trkpt lat="37.05508" lon="-3.32387">
        <ele>3101.2</ele>
        <time>2021-08-06 13:17:39</time>
      </trkpt>
      <trkpt lat="37.05508" lon="-3.32388">
        <ele>3101</ele>
        <time>2021-08-06 13:17:40</time>
      </trkpt>
      <trkpt lat="37.05508" lon="-3.32389">
        <ele>3101</ele>
        <time>2021-08-06 13:17:41</time>
      </trkpt>
      <trkpt lat="37.05508" lon="-3.3239">
        <ele>3100.8</ele>
        <time>2021-08-06 13:17:42</time>
      </trkpt>
      <trkpt lat="37.05509" lon="-3.3239">
        <ele>3100.8</ele>
        <time>2021-08-06 13:17:43</time>
      </trkpt>
      <trkpt lat="37.05509" lon="-3.32391">
        <ele>3100.6</ele>
        <time>2021-08-06 13:17:44</time>
      </trkpt>
      <trkpt lat="37.05509" lon="-3.32392">
        <ele>3100.4</ele>
        <time>2021-08-06 13:17:45</time>
      </trkpt>
      <trkpt lat="37.05509" lon="-3.32392">
        <ele>3100.2</ele>
        <time>2021-08-06 13:17:46</time>
      </trkpt>
      <trkpt lat="37.05509" lon="-3.32393">
        <ele>3100.2</ele>
        <time>2021-08-06 13:17:47</time>
      </trkpt>
      <trkpt lat="37.0551" lon="-3.32393">
        <ele>3100.2</ele>
        <time>2021-08-06 13:17:48</time>
      </trkpt>
      <trkpt lat="37.05511" lon="-3.32393">
        <ele>3100.2</ele>
        <time>2021-08-06 13:17:49</time>
      </trkpt>
      <trkpt lat="37.05512" lon="-3.32393">
        <ele>3100</ele>
        <time>2021-08-06 13:17:50</time>
      </trkpt>
      <trkpt lat="37.05512" lon="-3.32393">
        <ele>3100</ele>
        <time>2021-08-06 13:17:51</time>
      </trkpt>
      <trkpt lat="37.05512" lon="-3.32393">
        <ele>3100</ele>
        <time>2021-08-06 13:17:52</time>
      </trkpt>
      <trkpt lat="37.05512" lon="-3.32394">
        <ele>3099.6</ele>
        <time>2021-08-06 13:17:53</time>
      </trkpt>
      <trkpt lat="37.05512" lon="-3.32394">
        <ele>3099.4</ele>
        <time>2021-08-06 13:17:54</time>
      </trkpt>
      <trkpt lat="37.05512" lon="-3.32395">
        <ele>3099.2</ele>
        <time>2021-08-06 13:17:55</time>
      </trkpt>
      <trkpt lat="37.05513" lon="-3.32395">
        <ele>3099.2</ele>
        <time>2021-08-06 13:17:56</time>
      </trkpt>
      <trkpt lat="37.05513" lon="-3.32395">
        <ele>3099</ele>
        <time>2021-08-06 13:17:57</time>
      </trkpt>
      <trkpt lat="37.05513" lon="-3.32396">
        <ele>3099</ele>
        <time>2021-08-06 13:17:58</time>
      </trkpt>
      <trkpt lat="37.05512" lon="-3.32396">
        <ele>3098.8</ele>
        <time>2021-08-06 13:17:59</time>
      </trkpt>
      <trkpt lat="37.05512" lon="-3.32397">
        <ele>3098.6</ele>
        <time>2021-08-06 13:18:00</time>
      </trkpt>
      <trkpt lat="37.05511" lon="-3.32397">
        <ele>3098.2</ele>
        <time>2021-08-06 13:18:01</time>
      </trkpt>
      <trkpt lat="37.05512" lon="-3.32398">
        <ele>3098</ele>
        <time>2021-08-06 13:18:02</time>
      </trkpt>
      <trkpt lat="37.05511" lon="-3.32398">
        <ele>3097.6</ele>
        <time>2021-08-06 13:18:03</time>
      </trkpt>
      <trkpt lat="37.05512" lon="-3.32398">
        <ele>3097.6</ele>
        <time>2021-08-06 13:18:04</time>
      </trkpt>
      <trkpt lat="37.05512" lon="-3.32399">
        <ele>3099</ele>
        <time>2021-08-06 13:18:05</time>
      </trkpt>
      <trkpt lat="37.05511" lon="-3.324">
        <ele>3099</ele>
        <time>2021-08-06 13:18:06</time>
      </trkpt>
      <trkpt lat="37.05512" lon="-3.324">
        <ele>3099</ele>
        <time>2021-08-06 13:18:07</time>
      </trkpt>
      <trkpt lat="37.05511" lon="-3.32401">
        <ele>3099</ele>
        <time>2021-08-06 13:18:08</time>
      </trkpt>
      <trkpt lat="37.05512" lon="-3.32401">
        <ele>3099</ele>
        <time>2021-08-06 13:18:09</time>
      </trkpt>
      <trkpt lat="37.05512" lon="-3.32401">
        <ele>3099</ele>
        <time>2021-08-06 13:18:10</time>
      </trkpt>
      <trkpt lat="37.05512" lon="-3.32402">
        <ele>3099</ele>
        <time>2021-08-06 13:18:11</time>
      </trkpt>
      <trkpt lat="37.05512" lon="-3.32403">
        <ele>3098.8</ele>
        <time>2021-08-06 13:18:12</time>
      </trkpt>
      <trkpt lat="37.05512" lon="-3.32404">
        <ele>3098.2</ele>
        <time>2021-08-06 13:18:13</time>
      </trkpt>
      <trkpt lat="37.05512" lon="-3.32405">
        <ele>3098</ele>
        <time>2021-08-06 13:18:14</time>
      </trkpt>
      <trkpt lat="37.05513" lon="-3.32406">
        <ele>3097.8</ele>
        <time>2021-08-06 13:18:15</time>
      </trkpt>
      <trkpt lat="37.05513" lon="-3.32407">
        <ele>3097.4</ele>
        <time>2021-08-06 13:18:16</time>
      </trkpt>
      <trkpt lat="37.05513" lon="-3.32407">
        <ele>3097.2</ele>
        <time>2021-08-06 13:18:17</time>
      </trkpt>
      <trkpt lat="37.05513" lon="-3.32407">
        <ele>3097.2</ele>
        <time>2021-08-06 13:18:18</time>
      </trkpt>
      <trkpt lat="37.05513" lon="-3.32408">
        <ele>3096.8</ele>
        <time>2021-08-06 13:18:19</time>
      </trkpt>
      <trkpt lat="37.05513" lon="-3.32409">
        <ele>3096.4</ele>
        <time>2021-08-06 13:18:20</time>
      </trkpt>
      <trkpt lat="37.05513" lon="-3.32409">
        <ele>3096.4</ele>
        <time>2021-08-06 13:18:21</time>
      </trkpt>
      <trkpt lat="37.05513" lon="-3.3241">
        <ele>3096.2</ele>
        <time>2021-08-06 13:18:22</time>
      </trkpt>
      <trkpt lat="37.05513" lon="-3.3241">
        <ele>3096.2</ele>
        <time>2021-08-06 13:18:23</time>
      </trkpt>
      <trkpt lat="37.05513" lon="-3.32411">
        <ele>3096.2</ele>
        <time>2021-08-06 13:18:24</time>
      </trkpt>
      <trkpt lat="37.05513" lon="-3.32411">
        <ele>3096</ele>
        <time>2021-08-06 13:18:25</time>
      </trkpt>
      <trkpt lat="37.05512" lon="-3.32411">
        <ele>3096</ele>
        <time>2021-08-06 13:18:26</time>
      </trkpt>
      <trkpt lat="37.05511" lon="-3.32411">
        <ele>3095.6</ele>
        <time>2021-08-06 13:18:27</time>
      </trkpt>
      <trkpt lat="37.05511" lon="-3.32412">
        <ele>3095.4</ele>
        <time>2021-08-06 13:18:28</time>
      </trkpt>
      <trkpt lat="37.05511" lon="-3.32413">
        <ele>3095.2</ele>
        <time>2021-08-06 13:18:29</time>
      </trkpt>
      <trkpt lat="37.05511" lon="-3.32414">
        <ele>3095</ele>
        <time>2021-08-06 13:18:30</time>
      </trkpt>
      <trkpt lat="37.0551" lon="-3.32414">
        <ele>3094.8</ele>
        <time>2021-08-06 13:18:31</time>
      </trkpt>
      <trkpt lat="37.0551" lon="-3.32415">
        <ele>3094.4</ele>
        <time>2021-08-06 13:18:32</time>
      </trkpt>
      <trkpt lat="37.0551" lon="-3.32415">
        <ele>3094.4</ele>
        <time>2021-08-06 13:18:33</time>
      </trkpt>
      <trkpt lat="37.05509" lon="-3.32416">
        <ele>3094.4</ele>
        <time>2021-08-06 13:18:34</time>
      </trkpt>
      <trkpt lat="37.05508" lon="-3.32416">
        <ele>3094.2</ele>
        <time>2021-08-06 13:18:35</time>
      </trkpt>
      <trkpt lat="37.05508" lon="-3.32417">
        <ele>3094.2</ele>
        <time>2021-08-06 13:18:36</time>
      </trkpt>
      <trkpt lat="37.05509" lon="-3.32418">
        <ele>3094</ele>
        <time>2021-08-06 13:18:37</time>
      </trkpt>
      <trkpt lat="37.05509" lon="-3.32418">
        <ele>3093.4</ele>
        <time>2021-08-06 13:18:38</time>
      </trkpt>
      <trkpt lat="37.05509" lon="-3.32419">
        <ele>3093.2</ele>
        <time>2021-08-06 13:18:39</time>
      </trkpt>
      <trkpt lat="37.05509" lon="-3.3242">
        <ele>3093</ele>
        <time>2021-08-06 13:18:40</time>
      </trkpt>
      <trkpt lat="37.0551" lon="-3.32421">
        <ele>3092.8</ele>
        <time>2021-08-06 13:18:41</time>
      </trkpt>
      <trkpt lat="37.0551" lon="-3.32422">
        <ele>3092.6</ele>
        <time>2021-08-06 13:18:42</time>
      </trkpt>
      <trkpt lat="37.05511" lon="-3.32424">
        <ele>3092.6</ele>
        <time>2021-08-06 13:18:43</time>
      </trkpt>
      <trkpt lat="37.05511" lon="-3.32425">
        <ele>3092</ele>
        <time>2021-08-06 13:18:44</time>
      </trkpt>
      <trkpt lat="37.05512" lon="-3.32426">
        <ele>3091.8</ele>
        <time>2021-08-06 13:18:45</time>
      </trkpt>
      <trkpt lat="37.05512" lon="-3.32427">
        <ele>3091.4</ele>
        <time>2021-08-06 13:18:46</time>
      </trkpt>
      <trkpt lat="37.05512" lon="-3.32428">
        <ele>3091</ele>
        <time>2021-08-06 13:18:47</time>
      </trkpt>
      <trkpt lat="37.05512" lon="-3.32429">
        <ele>3090.6</ele>
        <time>2021-08-06 13:18:48</time>
      </trkpt>
      <trkpt lat="37.05511" lon="-3.3243">
        <ele>3090.2</ele>
        <time>2021-08-06 13:18:49</time>
      </trkpt>
      <trkpt lat="37.05511" lon="-3.32431">
        <ele>3090</ele>
        <time>2021-08-06 13:18:50</time>
      </trkpt>
      <trkpt lat="37.05511" lon="-3.32432">
        <ele>3089.6</ele>
        <time>2021-08-06 13:18:51</time>
      </trkpt>
      <trkpt lat="37.05512" lon="-3.32433">
        <ele>3089.4</ele>
        <time>2021-08-06 13:18:52</time>
      </trkpt>
      <trkpt lat="37.05512" lon="-3.32433">
        <ele>3089.4</ele>
        <time>2021-08-06 13:18:53</time>
      </trkpt>
      <trkpt lat="37.05511" lon="-3.32433">
        <ele>3089.2</ele>
        <time>2021-08-06 13:18:54</time>
      </trkpt>
      <trkpt lat="37.05511" lon="-3.32434">
        <ele>3089</ele>
        <time>2021-08-06 13:18:55</time>
      </trkpt>
      <trkpt lat="37.0551" lon="-3.32434">
        <ele>3089</ele>
        <time>2021-08-06 13:18:56</time>
      </trkpt>
      <trkpt lat="37.0551" lon="-3.32435">
        <ele>3089</ele>
        <time>2021-08-06 13:18:57</time>
      </trkpt>
      <trkpt lat="37.0551" lon="-3.32435">
        <ele>3089</ele>
        <time>2021-08-06 13:18:58</time>
      </trkpt>
      <trkpt lat="37.05509" lon="-3.32435">
        <ele>3089</ele>
        <time>2021-08-06 13:18:59</time>
      </trkpt>
      <trkpt lat="37.05509" lon="-3.32435">
        <ele>3089</ele>
        <time>2021-08-06 13:19:00</time>
      </trkpt>
      <trkpt lat="37.05508" lon="-3.32435">
        <ele>3089</ele>
        <time>2021-08-06 13:19:01</time>
      </trkpt>
      <trkpt lat="37.05508" lon="-3.32436">
        <ele>3088.8</ele>
        <time>2021-08-06 13:19:02</time>
      </trkpt>
      <trkpt lat="37.05508" lon="-3.32436">
        <ele>3088.4</ele>
        <time>2021-08-06 13:19:03</time>
      </trkpt>
      <trkpt lat="37.05509" lon="-3.32437">
        <ele>3088.2</ele>
        <time>2021-08-06 13:19:04</time>
      </trkpt>
      <trkpt lat="37.05509" lon="-3.32438">
        <ele>3088</ele>
        <time>2021-08-06 13:19:05</time>
      </trkpt>
      <trkpt lat="37.05509" lon="-3.32438">
        <ele>3088</ele>
        <time>2021-08-06 13:19:06</time>
      </trkpt>
      <trkpt lat="37.05509" lon="-3.32439">
        <ele>3088</ele>
        <time>2021-08-06 13:19:07</time>
      </trkpt>
      <trkpt lat="37.05509" lon="-3.3244">
        <ele>3087.8</ele>
        <time>2021-08-06 13:19:08</time>
      </trkpt>
      <trkpt lat="37.05509" lon="-3.32441">
        <ele>3087.4</ele>
        <time>2021-08-06 13:19:09</time>
      </trkpt>
      <trkpt lat="37.05509" lon="-3.32441">
        <ele>3087.2</ele>
        <time>2021-08-06 13:19:10</time>
      </trkpt>
      <trkpt lat="37.05509" lon="-3.32442">
        <ele>3087</ele>
        <time>2021-08-06 13:19:11</time>
      </trkpt>
      <trkpt lat="37.05508" lon="-3.32442">
        <ele>3086.8</ele>
        <time>2021-08-06 13:19:12</time>
      </trkpt>
      <trkpt lat="37.05508" lon="-3.32443">
        <ele>3086.4</ele>
        <time>2021-08-06 13:19:13</time>
      </trkpt>
      <trkpt lat="37.05507" lon="-3.32443">
        <ele>3086.4</ele>
        <time>2021-08-06 13:19:14</time>
      </trkpt>
      <trkpt lat="37.05506" lon="-3.32443">
        <ele>3086.2</ele>
        <time>2021-08-06 13:19:15</time>
      </trkpt>
      <trkpt lat="37.05506" lon="-3.32443">
        <ele>3086</ele>
        <time>2021-08-06 13:19:16</time>
      </trkpt>
      <trkpt lat="37.05506" lon="-3.32444">
        <ele>3085.8</ele>
        <time>2021-08-06 13:19:17</time>
      </trkpt>
      <trkpt lat="37.05506" lon="-3.32445">
        <ele>3085.8</ele>
        <time>2021-08-06 13:19:18</time>
      </trkpt>
      <trkpt lat="37.05506" lon="-3.32447">
        <ele>3085.6</ele>
        <time>2021-08-06 13:19:19</time>
      </trkpt>
      <trkpt lat="37.05506" lon="-3.32447">
        <ele>3085.6</ele>
        <time>2021-08-06 13:19:20</time>
      </trkpt>
      <trkpt lat="37.05506" lon="-3.32448">
        <ele>3085.4</ele>
        <time>2021-08-06 13:19:21</time>
      </trkpt>
      <trkpt lat="37.05505" lon="-3.32449">
        <ele>3085.4</ele>
        <time>2021-08-06 13:19:22</time>
      </trkpt>
      <trkpt lat="37.05504" lon="-3.3245">
        <ele>3085.6</ele>
        <time>2021-08-06 13:19:23</time>
      </trkpt>
      <trkpt lat="37.05503" lon="-3.32451">
        <ele>3085.6</ele>
        <time>2021-08-06 13:19:24</time>
      </trkpt>
      <trkpt lat="37.05503" lon="-3.32453">
        <ele>3085.6</ele>
        <time>2021-08-06 13:19:25</time>
      </trkpt>
      <trkpt lat="37.05503" lon="-3.32454">
        <ele>3085.4</ele>
        <time>2021-08-06 13:19:26</time>
      </trkpt>
      <trkpt lat="37.05503" lon="-3.32455">
        <ele>3085.2</ele>
        <time>2021-08-06 13:19:27</time>
      </trkpt>
      <trkpt lat="37.05503" lon="-3.32456">
        <ele>3085</ele>
        <time>2021-08-06 13:19:28</time>
      </trkpt>
      <trkpt lat="37.05503" lon="-3.32457">
        <ele>3085</ele>
        <time>2021-08-06 13:19:29</time>
      </trkpt>
      <trkpt lat="37.05503" lon="-3.32458">
        <ele>3084.8</ele>
        <time>2021-08-06 13:19:30</time>
      </trkpt>
      <trkpt lat="37.05503" lon="-3.32459">
        <ele>3084.8</ele>
        <time>2021-08-06 13:19:31</time>
      </trkpt>
      <trkpt lat="37.05503" lon="-3.32461">
        <ele>3084.8</ele>
        <time>2021-08-06 13:19:32</time>
      </trkpt>
      <trkpt lat="37.05504" lon="-3.32461">
        <ele>3084.6</ele>
        <time>2021-08-06 13:19:33</time>
      </trkpt>
      <trkpt lat="37.05504" lon="-3.32461">
        <ele>3084.6</ele>
        <time>2021-08-06 13:19:34</time>
      </trkpt>
      <trkpt lat="37.05504" lon="-3.32461">
        <ele>3084.6</ele>
        <time>2021-08-06 13:19:35</time>
      </trkpt>
      <trkpt lat="37.05504" lon="-3.32461">
        <ele>3084.6</ele>
        <time>2021-08-06 13:19:36</time>
      </trkpt>
      <trkpt lat="37.05504" lon="-3.32461">
        <ele>3084.4</ele>
        <time>2021-08-06 13:19:37</time>
      </trkpt>
      <trkpt lat="37.05504" lon="-3.32461">
        <ele>3084.4</ele>
        <time>2021-08-06 13:19:38</time>
      </trkpt>
      <trkpt lat="37.05504" lon="-3.32461">
        <ele>3084.2</ele>
        <time>2021-08-06 13:19:39</time>
      </trkpt>
      <trkpt lat="37.05504" lon="-3.32461">
        <ele>3084.2</ele>
        <time>2021-08-06 13:19:40</time>
      </trkpt>
      <trkpt lat="37.05504" lon="-3.32461">
        <ele>3084.2</ele>
        <time>2021-08-06 13:19:41</time>
      </trkpt>
      <trkpt lat="37.05504" lon="-3.32461">
        <ele>3084.2</ele>
        <time>2021-08-06 13:19:42</time>
      </trkpt>
      <trkpt lat="37.05505" lon="-3.32461">
        <ele>3084.4</ele>
        <time>2021-08-06 13:19:43</time>
      </trkpt>
      <trkpt lat="37.05505" lon="-3.3246">
        <ele>3084.6</ele>
        <time>2021-08-06 13:19:44</time>
      </trkpt>
      <trkpt lat="37.05505" lon="-3.3246">
        <ele>3084.6</ele>
        <time>2021-08-06 13:19:45</time>
      </trkpt>
      <trkpt lat="37.05505" lon="-3.3246">
        <ele>3084.6</ele>
        <time>2021-08-06 13:19:46</time>
      </trkpt>
      <trkpt lat="37.05506" lon="-3.3246">
        <ele>3084.6</ele>
        <time>2021-08-06 13:19:47</time>
      </trkpt>
      <trkpt lat="37.05506" lon="-3.3246">
        <ele>3084.6</ele>
        <time>2021-08-06 13:19:48</time>
      </trkpt>
      <trkpt lat="37.05506" lon="-3.3246">
        <ele>3084.8</ele>
        <time>2021-08-06 13:19:49</time>
      </trkpt>
      <trkpt lat="37.05506" lon="-3.3246">
        <ele>3084.8</ele>
        <time>2021-08-06 13:19:50</time>
      </trkpt>
      <trkpt lat="37.05506" lon="-3.32461">
        <ele>3084.8</ele>
        <time>2021-08-06 13:19:51</time>
      </trkpt>
      <trkpt lat="37.05506" lon="-3.32463">
        <ele>3084.6</ele>
        <time>2021-08-06 13:19:52</time>
      </trkpt>
      <trkpt lat="37.05505" lon="-3.32465">
        <ele>3084.6</ele>
        <time>2021-08-06 13:19:53</time>
      </trkpt>
      <trkpt lat="37.05505" lon="-3.32466">
        <ele>3084.6</ele>
        <time>2021-08-06 13:19:54</time>
      </trkpt>
      <trkpt lat="37.05505" lon="-3.32468">
        <ele>3084.6</ele>
        <time>2021-08-06 13:19:55</time>
      </trkpt>
      <trkpt lat="37.05504" lon="-3.32469">
        <ele>3084.4</ele>
        <time>2021-08-06 13:19:56</time>
      </trkpt>
      <trkpt lat="37.05503" lon="-3.32471">
        <ele>3083.4</ele>
        <time>2021-08-06 13:19:57</time>
      </trkpt>
      <trkpt lat="37.05503" lon="-3.32472">
        <ele>3083.4</ele>
        <time>2021-08-06 13:19:58</time>
      </trkpt>
      <trkpt lat="37.05503" lon="-3.32474">
        <ele>3083.4</ele>
        <time>2021-08-06 13:19:59</time>
      </trkpt>
      <trkpt lat="37.05503" lon="-3.32475">
        <ele>3083.2</ele>
        <time>2021-08-06 13:20:00</time>
      </trkpt>
      <trkpt lat="37.05502" lon="-3.32475">
        <ele>3083.2</ele>
        <time>2021-08-06 13:20:01</time>
      </trkpt>
      <trkpt lat="37.05501" lon="-3.32476">
        <ele>3083.2</ele>
        <time>2021-08-06 13:20:02</time>
      </trkpt>
      <trkpt lat="37.055" lon="-3.32477">
        <ele>3083</ele>
        <time>2021-08-06 13:20:03</time>
      </trkpt>
      <trkpt lat="37.055" lon="-3.32479">
        <ele>3083</ele>
        <time>2021-08-06 13:20:04</time>
      </trkpt>
      <trkpt lat="37.055" lon="-3.3248">
        <ele>3082.8</ele>
        <time>2021-08-06 13:20:05</time>
      </trkpt>
      <trkpt lat="37.05499" lon="-3.32482">
        <ele>3083</ele>
        <time>2021-08-06 13:20:06</time>
      </trkpt>
      <trkpt lat="37.05499" lon="-3.32484">
        <ele>3082.8</ele>
        <time>2021-08-06 13:20:07</time>
      </trkpt>
      <trkpt lat="37.05498" lon="-3.32485">
        <ele>3082.8</ele>
        <time>2021-08-06 13:20:08</time>
      </trkpt>
      <trkpt lat="37.05498" lon="-3.32487">
        <ele>3082.8</ele>
        <time>2021-08-06 13:20:09</time>
      </trkpt>
      <trkpt lat="37.05498" lon="-3.32488">
        <ele>3082.8</ele>
        <time>2021-08-06 13:20:10</time>
      </trkpt>
      <trkpt lat="37.05498" lon="-3.3249">
        <ele>3082.6</ele>
        <time>2021-08-06 13:20:11</time>
      </trkpt>
      <trkpt lat="37.05498" lon="-3.32491">
        <ele>3082.4</ele>
        <time>2021-08-06 13:20:12</time>
      </trkpt>
      <trkpt lat="37.05498" lon="-3.32493">
        <ele>3082.4</ele>
        <time>2021-08-06 13:20:13</time>
      </trkpt>
      <trkpt lat="37.05498" lon="-3.32494">
        <ele>3082.4</ele>
        <time>2021-08-06 13:20:14</time>
      </trkpt>
      <trkpt lat="37.05497" lon="-3.32496">
        <ele>3082.6</ele>
        <time>2021-08-06 13:20:15</time>
      </trkpt>
      <trkpt lat="37.05497" lon="-3.32496">
        <ele>3082.6</ele>
        <time>2021-08-06 13:20:16</time>
      </trkpt>
      <trkpt lat="37.05497" lon="-3.32498">
        <ele>3083</ele>
        <time>2021-08-06 13:20:17</time>
      </trkpt>
      <trkpt lat="37.05497" lon="-3.32499">
        <ele>3083</ele>
        <time>2021-08-06 13:20:18</time>
      </trkpt>
      <trkpt lat="37.05496" lon="-3.325">
        <ele>3083.2</ele>
        <time>2021-08-06 13:20:19</time>
      </trkpt>
      <trkpt lat="37.05495" lon="-3.32502">
        <ele>3083</ele>
        <time>2021-08-06 13:20:20</time>
      </trkpt>
      <trkpt lat="37.05494" lon="-3.32503">
        <ele>3083.2</ele>
        <time>2021-08-06 13:20:21</time>
      </trkpt>
      <trkpt lat="37.05494" lon="-3.32504">
        <ele>3083</ele>
        <time>2021-08-06 13:20:22</time>
      </trkpt>
      <trkpt lat="37.05493" lon="-3.32505">
        <ele>3083</ele>
        <time>2021-08-06 13:20:23</time>
      </trkpt>
      <trkpt lat="37.05493" lon="-3.32507">
        <ele>3082.8</ele>
        <time>2021-08-06 13:20:24</time>
      </trkpt>
      <trkpt lat="37.05493" lon="-3.32508">
        <ele>3082.6</ele>
        <time>2021-08-06 13:20:25</time>
      </trkpt>
      <trkpt lat="37.05493" lon="-3.32509">
        <ele>3082.8</ele>
        <time>2021-08-06 13:20:26</time>
      </trkpt>
      <trkpt lat="37.05493" lon="-3.3251">
        <ele>3083</ele>
        <time>2021-08-06 13:20:27</time>
      </trkpt>
      <trkpt lat="37.05492" lon="-3.32511">
        <ele>3083</ele>
        <time>2021-08-06 13:20:28</time>
      </trkpt>
      <trkpt lat="37.05492" lon="-3.32512">
        <ele>3083</ele>
        <time>2021-08-06 13:20:29</time>
      </trkpt>
      <trkpt lat="37.05492" lon="-3.32513">
        <ele>3083.2</ele>
        <time>2021-08-06 13:20:30</time>
      </trkpt>
      <trkpt lat="37.05492" lon="-3.32514">
        <ele>3083.6</ele>
        <time>2021-08-06 13:20:31</time>
      </trkpt>
      <trkpt lat="37.05492" lon="-3.32515">
        <ele>3083.8</ele>
        <time>2021-08-06 13:20:32</time>
      </trkpt>
      <trkpt lat="37.05492" lon="-3.32516">
        <ele>3083.8</ele>
        <time>2021-08-06 13:20:33</time>
      </trkpt>
      <trkpt lat="37.05491" lon="-3.32517">
        <ele>3084</ele>
        <time>2021-08-06 13:20:34</time>
      </trkpt>
      <trkpt lat="37.05491" lon="-3.32518">
        <ele>3084.2</ele>
        <time>2021-08-06 13:20:35</time>
      </trkpt>
      <trkpt lat="37.05491" lon="-3.32519">
        <ele>3084.4</ele>
        <time>2021-08-06 13:20:36</time>
      </trkpt>
      <trkpt lat="37.05491" lon="-3.3252">
        <ele>3084.6</ele>
        <time>2021-08-06 13:20:37</time>
      </trkpt>
      <trkpt lat="37.0549" lon="-3.32521">
        <ele>3084.6</ele>
        <time>2021-08-06 13:20:38</time>
      </trkpt>
      <trkpt lat="37.0549" lon="-3.32523">
        <ele>3084.8</ele>
        <time>2021-08-06 13:20:39</time>
      </trkpt>
      <trkpt lat="37.0549" lon="-3.32524">
        <ele>3084.8</ele>
        <time>2021-08-06 13:20:40</time>
      </trkpt>
      <trkpt lat="37.0549" lon="-3.32525">
        <ele>3085</ele>
        <time>2021-08-06 13:20:41</time>
      </trkpt>
      <trkpt lat="37.05489" lon="-3.32527">
        <ele>3085.2</ele>
        <time>2021-08-06 13:20:42</time>
      </trkpt>
      <trkpt lat="37.05489" lon="-3.32528">
        <ele>3085.2</ele>
        <time>2021-08-06 13:20:43</time>
      </trkpt>
      <trkpt lat="37.05488" lon="-3.32529">
        <ele>3085.2</ele>
        <time>2021-08-06 13:20:44</time>
      </trkpt>
      <trkpt lat="37.05487" lon="-3.3253">
        <ele>3085.2</ele>
        <time>2021-08-06 13:20:45</time>
      </trkpt>
      <trkpt lat="37.05486" lon="-3.32531">
        <ele>3085.2</ele>
        <time>2021-08-06 13:20:46</time>
      </trkpt>
      <trkpt lat="37.05485" lon="-3.32532">
        <ele>3085.2</ele>
        <time>2021-08-06 13:20:47</time>
      </trkpt>
      <trkpt lat="37.05484" lon="-3.32533">
        <ele>3085.2</ele>
        <time>2021-08-06 13:20:48</time>
      </trkpt>
      <trkpt lat="37.05483" lon="-3.32534">
        <ele>3085.2</ele>
        <time>2021-08-06 13:20:49</time>
      </trkpt>
      <trkpt lat="37.05483" lon="-3.32535">
        <ele>3085</ele>
        <time>2021-08-06 13:20:50</time>
      </trkpt>
      <trkpt lat="37.05483" lon="-3.32536">
        <ele>3085</ele>
        <time>2021-08-06 13:20:51</time>
      </trkpt>
      <trkpt lat="37.05484" lon="-3.32537">
        <ele>3085</ele>
        <time>2021-08-06 13:20:52</time>
      </trkpt>
      <trkpt lat="37.05484" lon="-3.32538">
        <ele>3085</ele>
        <time>2021-08-06 13:20:53</time>
      </trkpt>
      <trkpt lat="37.05485" lon="-3.3254">
        <ele>3085</ele>
        <time>2021-08-06 13:20:54</time>
      </trkpt>
      <trkpt lat="37.05486" lon="-3.3254">
        <ele>3085</ele>
        <time>2021-08-06 13:20:55</time>
      </trkpt>
      <trkpt lat="37.05486" lon="-3.32541">
        <ele>3085.2</ele>
        <time>2021-08-06 13:20:56</time>
      </trkpt>
      <trkpt lat="37.05487" lon="-3.32542">
        <ele>3085.4</ele>
        <time>2021-08-06 13:20:57</time>
      </trkpt>
      <trkpt lat="37.05488" lon="-3.32543">
        <ele>3085.6</ele>
        <time>2021-08-06 13:20:58</time>
      </trkpt>
      <trkpt lat="37.05489" lon="-3.32544">
        <ele>3085.6</ele>
        <time>2021-08-06 13:20:59</time>
      </trkpt>
      <trkpt lat="37.05489" lon="-3.32546">
        <ele>3085.2</ele>
        <time>2021-08-06 13:21:00</time>
      </trkpt>
      <trkpt lat="37.0549" lon="-3.32547">
        <ele>3085</ele>
        <time>2021-08-06 13:21:01</time>
      </trkpt>
      <trkpt lat="37.0549" lon="-3.32548">
        <ele>3084.8</ele>
        <time>2021-08-06 13:21:02</time>
      </trkpt>
      <trkpt lat="37.05491" lon="-3.3255">
        <ele>3084.6</ele>
        <time>2021-08-06 13:21:03</time>
      </trkpt>
      <trkpt lat="37.05491" lon="-3.32551">
        <ele>3084.4</ele>
        <time>2021-08-06 13:21:04</time>
      </trkpt>
      <trkpt lat="37.05491" lon="-3.32553">
        <ele>3084.4</ele>
        <time>2021-08-06 13:21:05</time>
      </trkpt>
      <trkpt lat="37.05491" lon="-3.32554">
        <ele>3084.4</ele>
        <time>2021-08-06 13:21:06</time>
      </trkpt>
      <trkpt lat="37.05492" lon="-3.32556">
        <ele>3084.6</ele>
        <time>2021-08-06 13:21:07</time>
      </trkpt>
      <trkpt lat="37.05492" lon="-3.32557">
        <ele>3084.6</ele>
        <time>2021-08-06 13:21:08</time>
      </trkpt>
      <trkpt lat="37.05493" lon="-3.32558">
        <ele>3084.6</ele>
        <time>2021-08-06 13:21:09</time>
      </trkpt>
      <trkpt lat="37.05494" lon="-3.32559">
        <ele>3084.4</ele>
        <time>2021-08-06 13:21:10</time>
      </trkpt>
      <trkpt lat="37.05495" lon="-3.32561">
        <ele>3084.2</ele>
        <time>2021-08-06 13:21:11</time>
      </trkpt>
      <trkpt lat="37.05495" lon="-3.32562">
        <ele>3084.2</ele>
        <time>2021-08-06 13:21:12</time>
      </trkpt>
      <trkpt lat="37.05495" lon="-3.32564">
        <ele>3084</ele>
        <time>2021-08-06 13:21:13</time>
      </trkpt>
      <trkpt lat="37.05495" lon="-3.32566">
        <ele>3083.8</ele>
        <time>2021-08-06 13:21:14</time>
      </trkpt>
      <trkpt lat="37.05495" lon="-3.32567">
        <ele>3083.8</ele>
        <time>2021-08-06 13:21:15</time>
      </trkpt>
      <trkpt lat="37.05495" lon="-3.32569">
        <ele>3083.8</ele>
        <time>2021-08-06 13:21:16</time>
      </trkpt>
      <trkpt lat="37.05495" lon="-3.3257">
        <ele>3083.8</ele>
        <time>2021-08-06 13:21:17</time>
      </trkpt>
      <trkpt lat="37.05495" lon="-3.32571">
        <ele>3084</ele>
        <time>2021-08-06 13:21:18</time>
      </trkpt>
      <trkpt lat="37.05496" lon="-3.32572">
        <ele>3084</ele>
        <time>2021-08-06 13:21:19</time>
      </trkpt>
      <trkpt lat="37.05496" lon="-3.32573">
        <ele>3084.2</ele>
        <time>2021-08-06 13:21:20</time>
      </trkpt>
      <trkpt lat="37.05496" lon="-3.32575">
        <ele>3084.2</ele>
        <time>2021-08-06 13:21:21</time>
      </trkpt>
      <trkpt lat="37.05496" lon="-3.32576">
        <ele>3084.2</ele>
        <time>2021-08-06 13:21:22</time>
      </trkpt>
      <trkpt lat="37.05496" lon="-3.32577">
        <ele>3084</ele>
        <time>2021-08-06 13:21:23</time>
      </trkpt>
      <trkpt lat="37.05496" lon="-3.32578">
        <ele>3083.8</ele>
        <time>2021-08-06 13:21:24</time>
      </trkpt>
      <trkpt lat="37.05497" lon="-3.32579">
        <ele>3083.6</ele>
        <time>2021-08-06 13:21:25</time>
      </trkpt>
      <trkpt lat="37.05496" lon="-3.32581">
        <ele>3083.6</ele>
        <time>2021-08-06 13:21:26</time>
      </trkpt>
      <trkpt lat="37.05496" lon="-3.32582">
        <ele>3083.6</ele>
        <time>2021-08-06 13:21:27</time>
      </trkpt>
      <trkpt lat="37.05496" lon="-3.32583">
        <ele>3083.4</ele>
        <time>2021-08-06 13:21:28</time>
      </trkpt>
      <trkpt lat="37.05496" lon="-3.32584">
        <ele>3083.4</ele>
        <time>2021-08-06 13:21:29</time>
      </trkpt>
      <trkpt lat="37.05495" lon="-3.32584">
        <ele>3083.4</ele>
        <time>2021-08-06 13:21:30</time>
      </trkpt>
      <trkpt lat="37.05495" lon="-3.32586">
        <ele>3083.6</ele>
        <time>2021-08-06 13:21:31</time>
      </trkpt>
      <trkpt lat="37.05495" lon="-3.32587">
        <ele>3083.6</ele>
        <time>2021-08-06 13:21:32</time>
      </trkpt>
      <trkpt lat="37.05494" lon="-3.32589">
        <ele>3083.6</ele>
        <time>2021-08-06 13:21:33</time>
      </trkpt>
      <trkpt lat="37.05494" lon="-3.3259">
        <ele>3083.6</ele>
        <time>2021-08-06 13:21:34</time>
      </trkpt>
      <trkpt lat="37.05494" lon="-3.32591">
        <ele>3083.6</ele>
        <time>2021-08-06 13:21:35</time>
      </trkpt>
      <trkpt lat="37.05494" lon="-3.32592">
        <ele>3083.8</ele>
        <time>2021-08-06 13:21:36</time>
      </trkpt>
      <trkpt lat="37.05494" lon="-3.32593">
        <ele>3083.8</ele>
        <time>2021-08-06 13:21:37</time>
      </trkpt>
      <trkpt lat="37.05494" lon="-3.32594">
        <ele>3083.8</ele>
        <time>2021-08-06 13:21:38</time>
      </trkpt>
      <trkpt lat="37.05494" lon="-3.32595">
        <ele>3084</ele>
        <time>2021-08-06 13:21:39</time>
      </trkpt>
      <trkpt lat="37.05493" lon="-3.32596">
        <ele>3084.2</ele>
        <time>2021-08-06 13:21:40</time>
      </trkpt>
      <trkpt lat="37.05492" lon="-3.32597">
        <ele>3084.2</ele>
        <time>2021-08-06 13:21:41</time>
      </trkpt>
      <trkpt lat="37.05492" lon="-3.32598">
        <ele>3084.2</ele>
        <time>2021-08-06 13:21:42</time>
      </trkpt>
      <trkpt lat="37.05491" lon="-3.32599">
        <ele>3084.2</ele>
        <time>2021-08-06 13:21:43</time>
      </trkpt>
      <trkpt lat="37.0549" lon="-3.326">
        <ele>3084.6</ele>
        <time>2021-08-06 13:21:44</time>
      </trkpt>
      <trkpt lat="37.0549" lon="-3.32601">
        <ele>3084.6</ele>
        <time>2021-08-06 13:21:45</time>
      </trkpt>
      <trkpt lat="37.0549" lon="-3.32602">
        <ele>3084.6</ele>
        <time>2021-08-06 13:21:46</time>
      </trkpt>
      <trkpt lat="37.05489" lon="-3.32603">
        <ele>3084.6</ele>
        <time>2021-08-06 13:21:47</time>
      </trkpt>
      <trkpt lat="37.05489" lon="-3.32604">
        <ele>3084.6</ele>
        <time>2021-08-06 13:21:48</time>
      </trkpt>
      <trkpt lat="37.05489" lon="-3.32604">
        <ele>3084.6</ele>
        <time>2021-08-06 13:21:49</time>
      </trkpt>
      <trkpt lat="37.05489" lon="-3.32605">
        <ele>3085</ele>
        <time>2021-08-06 13:21:50</time>
      </trkpt>
      <trkpt lat="37.05489" lon="-3.32605">
        <ele>3085.4</ele>
        <time>2021-08-06 13:21:51</time>
      </trkpt>
      <trkpt lat="37.05488" lon="-3.32606">
        <ele>3085.6</ele>
        <time>2021-08-06 13:21:52</time>
      </trkpt>
      <trkpt lat="37.05488" lon="-3.32607">
        <ele>3085.6</ele>
        <time>2021-08-06 13:21:53</time>
      </trkpt>
      <trkpt lat="37.05488" lon="-3.32608">
        <ele>3085.6</ele>
        <time>2021-08-06 13:21:54</time>
      </trkpt>
      <trkpt lat="37.05487" lon="-3.32609">
        <ele>3085.6</ele>
        <time>2021-08-06 13:21:55</time>
      </trkpt>
      <trkpt lat="37.05487" lon="-3.3261">
        <ele>3085.4</ele>
        <time>2021-08-06 13:21:56</time>
      </trkpt>
      <trkpt lat="37.05487" lon="-3.32611">
        <ele>3085.6</ele>
        <time>2021-08-06 13:21:57</time>
      </trkpt>
      <trkpt lat="37.05487" lon="-3.32611">
        <ele>3085.6</ele>
        <time>2021-08-06 13:21:58</time>
      </trkpt>
      <trkpt lat="37.05488" lon="-3.32611">
        <ele>3085.6</ele>
        <time>2021-08-06 13:21:59</time>
      </trkpt>
      <trkpt lat="37.05488" lon="-3.32612">
        <ele>3085.6</ele>
        <time>2021-08-06 13:22:00</time>
      </trkpt>
      <trkpt lat="37.05488" lon="-3.32612">
        <ele>3085.4</ele>
        <time>2021-08-06 13:22:01</time>
      </trkpt>
      <trkpt lat="37.05489" lon="-3.32612">
        <ele>3085.4</ele>
        <time>2021-08-06 13:22:02</time>
      </trkpt>
      <trkpt lat="37.05489" lon="-3.32612">
        <ele>3085.4</ele>
        <time>2021-08-06 13:22:03</time>
      </trkpt>
      <trkpt lat="37.05489" lon="-3.32612">
        <ele>3085.4</ele>
        <time>2021-08-06 13:22:04</time>
      </trkpt>
      <trkpt lat="37.0549" lon="-3.32612">
        <ele>3085</ele>
        <time>2021-08-06 13:22:05</time>
      </trkpt>
      <trkpt lat="37.0549" lon="-3.32612">
        <ele>3085</ele>
        <time>2021-08-06 13:22:06</time>
      </trkpt>
      <trkpt lat="37.0549" lon="-3.32612">
        <ele>3084.8</ele>
        <time>2021-08-06 13:22:07</time>
      </trkpt>
      <trkpt lat="37.0549" lon="-3.32613">
        <ele>3084.6</ele>
        <time>2021-08-06 13:22:08</time>
      </trkpt>
      <trkpt lat="37.05491" lon="-3.32612">
        <ele>3084.6</ele>
        <time>2021-08-06 13:22:09</time>
      </trkpt>
      <trkpt lat="37.05491" lon="-3.32613">
        <ele>3084.6</ele>
        <time>2021-08-06 13:22:10</time>
      </trkpt>
      <trkpt lat="37.05491" lon="-3.32614">
        <ele>3084.4</ele>
        <time>2021-08-06 13:22:11</time>
      </trkpt>
      <trkpt lat="37.05491" lon="-3.32615">
        <ele>3084.8</ele>
        <time>2021-08-06 13:22:12</time>
      </trkpt>
      <trkpt lat="37.05491" lon="-3.32616">
        <ele>3085</ele>
        <time>2021-08-06 13:22:13</time>
      </trkpt>
      <trkpt lat="37.05491" lon="-3.32617">
        <ele>3085.6</ele>
        <time>2021-08-06 13:22:14</time>
      </trkpt>
      <trkpt lat="37.0549" lon="-3.32618">
        <ele>3085.8</ele>
        <time>2021-08-06 13:22:15</time>
      </trkpt>
      <trkpt lat="37.0549" lon="-3.32619">
        <ele>3086.2</ele>
        <time>2021-08-06 13:22:16</time>
      </trkpt>
      <trkpt lat="37.05489" lon="-3.3262">
        <ele>3086</ele>
        <time>2021-08-06 13:22:17</time>
      </trkpt>
      <trkpt lat="37.05489" lon="-3.3262">
        <ele>3086.4</ele>
        <time>2021-08-06 13:22:18</time>
      </trkpt>
      <trkpt lat="37.05489" lon="-3.32621">
        <ele>3086.6</ele>
        <time>2021-08-06 13:22:19</time>
      </trkpt>
      <trkpt lat="37.05489" lon="-3.32622">
        <ele>3086.6</ele>
        <time>2021-08-06 13:22:20</time>
      </trkpt>
      <trkpt lat="37.05488" lon="-3.32622">
        <ele>3086.8</ele>
        <time>2021-08-06 13:22:21</time>
      </trkpt>
      <trkpt lat="37.05488" lon="-3.32623">
        <ele>3086.8</ele>
        <time>2021-08-06 13:22:22</time>
      </trkpt>
      <trkpt lat="37.05488" lon="-3.32623">
        <ele>3087</ele>
        <time>2021-08-06 13:22:23</time>
      </trkpt>
      <trkpt lat="37.05487" lon="-3.32624">
        <ele>3087</ele>
        <time>2021-08-06 13:22:24</time>
      </trkpt>
      <trkpt lat="37.05486" lon="-3.32625">
        <ele>3087</ele>
        <time>2021-08-06 13:22:25</time>
      </trkpt>
      <trkpt lat="37.05486" lon="-3.32626">
        <ele>3087</ele>
        <time>2021-08-06 13:22:26</time>
      </trkpt>
      <trkpt lat="37.05486" lon="-3.32627">
        <ele>3087.2</ele>
        <time>2021-08-06 13:22:27</time>
      </trkpt>
      <trkpt lat="37.05486" lon="-3.32627">
        <ele>3087.2</ele>
        <time>2021-08-06 13:22:28</time>
      </trkpt>
      <trkpt lat="37.05485" lon="-3.32628">
        <ele>3087.2</ele>
        <time>2021-08-06 13:22:29</time>
      </trkpt>
      <trkpt lat="37.05485" lon="-3.32629">
        <ele>3087.4</ele>
        <time>2021-08-06 13:22:30</time>
      </trkpt>
      <trkpt lat="37.05485" lon="-3.3263">
        <ele>3087.6</ele>
        <time>2021-08-06 13:22:31</time>
      </trkpt>
      <trkpt lat="37.05484" lon="-3.3263">
        <ele>3087.6</ele>
        <time>2021-08-06 13:22:32</time>
      </trkpt>
      <trkpt lat="37.05484" lon="-3.32631">
        <ele>3087.6</ele>
        <time>2021-08-06 13:22:33</time>
      </trkpt>
      <trkpt lat="37.05484" lon="-3.32632">
        <ele>3087.6</ele>
        <time>2021-08-06 13:22:34</time>
      </trkpt>
      <trkpt lat="37.05484" lon="-3.32633">
        <ele>3087.6</ele>
        <time>2021-08-06 13:22:35</time>
      </trkpt>
      <trkpt lat="37.05484" lon="-3.32634">
        <ele>3087.6</ele>
        <time>2021-08-06 13:22:36</time>
      </trkpt>
      <trkpt lat="37.05484" lon="-3.32636">
        <ele>3087.6</ele>
        <time>2021-08-06 13:22:37</time>
      </trkpt>
      <trkpt lat="37.05484" lon="-3.32637">
        <ele>3087.8</ele>
        <time>2021-08-06 13:22:38</time>
      </trkpt>
      <trkpt lat="37.05485" lon="-3.32638">
        <ele>3088</ele>
        <time>2021-08-06 13:22:39</time>
      </trkpt>
      <trkpt lat="37.05485" lon="-3.32639">
        <ele>3088.2</ele>
        <time>2021-08-06 13:22:40</time>
      </trkpt>
      <trkpt lat="37.05486" lon="-3.3264">
        <ele>3088.4</ele>
        <time>2021-08-06 13:22:41</time>
      </trkpt>
      <trkpt lat="37.05487" lon="-3.32642">
        <ele>3088.6</ele>
        <time>2021-08-06 13:22:42</time>
      </trkpt>
      <trkpt lat="37.05487" lon="-3.32643">
        <ele>3088.8</ele>
        <time>2021-08-06 13:22:43</time>
      </trkpt>
      <trkpt lat="37.05487" lon="-3.32644">
        <ele>3088.8</ele>
        <time>2021-08-06 13:22:44</time>
      </trkpt>
      <trkpt lat="37.05487" lon="-3.32645">
        <ele>3088.8</ele>
        <time>2021-08-06 13:22:45</time>
      </trkpt>
      <trkpt lat="37.05485" lon="-3.32656">
        <ele>3086.8</ele>
        <time>2021-08-06 13:22:46</time>
      </trkpt>
      <trkpt lat="37.05486" lon="-3.32657">
        <ele>3086.8</ele>
        <time>2021-08-06 13:22:47</time>
      </trkpt>
      <trkpt lat="37.05487" lon="-3.32658">
        <ele>3086.8</ele>
        <time>2021-08-06 13:22:48</time>
      </trkpt>
      <trkpt lat="37.05488" lon="-3.32658">
        <ele>3086.8</ele>
        <time>2021-08-06 13:22:49</time>
      </trkpt>
      <trkpt lat="37.05489" lon="-3.3266">
        <ele>3087.6</ele>
        <time>2021-08-06 13:22:50</time>
      </trkpt>
      <trkpt lat="37.05489" lon="-3.32661">
        <ele>3088</ele>
        <time>2021-08-06 13:22:51</time>
      </trkpt>
      <trkpt lat="37.0549" lon="-3.32661">
        <ele>3088.2</ele>
        <time>2021-08-06 13:22:52</time>
      </trkpt>
      <trkpt lat="37.0549" lon="-3.32661">
        <ele>3088.6</ele>
        <time>2021-08-06 13:22:53</time>
      </trkpt>
      <trkpt lat="37.05492" lon="-3.3266">
        <ele>3088.8</ele>
        <time>2021-08-06 13:22:54</time>
      </trkpt>
      <trkpt lat="37.05493" lon="-3.32659">
        <ele>3089.2</ele>
        <time>2021-08-06 13:22:55</time>
      </trkpt>
      <trkpt lat="37.05493" lon="-3.32659">
        <ele>3089.4</ele>
        <time>2021-08-06 13:22:56</time>
      </trkpt>
      <trkpt lat="37.05493" lon="-3.3266">
        <ele>3089.4</ele>
        <time>2021-08-06 13:22:57</time>
      </trkpt>
      <trkpt lat="37.05493" lon="-3.3266">
        <ele>3089.4</ele>
        <time>2021-08-06 13:22:58</time>
      </trkpt>
      <trkpt lat="37.05494" lon="-3.32661">
        <ele>3089.6</ele>
        <time>2021-08-06 13:22:59</time>
      </trkpt>
      <trkpt lat="37.05495" lon="-3.32662">
        <ele>3089.6</ele>
        <time>2021-08-06 13:23:00</time>
      </trkpt>
      <trkpt lat="37.05495" lon="-3.32663">
        <ele>3089.6</ele>
        <time>2021-08-06 13:23:01</time>
      </trkpt>
      <trkpt lat="37.05496" lon="-3.32664">
        <ele>3089.6</ele>
        <time>2021-08-06 13:23:02</time>
      </trkpt>
      <trkpt lat="37.05497" lon="-3.32664">
        <ele>3089.6</ele>
        <time>2021-08-06 13:23:03</time>
      </trkpt>
      <trkpt lat="37.05498" lon="-3.32664">
        <ele>3089.6</ele>
        <time>2021-08-06 13:23:04</time>
      </trkpt>
      <trkpt lat="37.05499" lon="-3.32664">
        <ele>3089.6</ele>
        <time>2021-08-06 13:23:05</time>
      </trkpt>
      <trkpt lat="37.05499" lon="-3.32665">
        <ele>3089.8</ele>
        <time>2021-08-06 13:23:06</time>
      </trkpt>
      <trkpt lat="37.055" lon="-3.32665">
        <ele>3090</ele>
        <time>2021-08-06 13:23:07</time>
      </trkpt>
      <trkpt lat="37.055" lon="-3.32666">
        <ele>3090.2</ele>
        <time>2021-08-06 13:23:08</time>
      </trkpt>
      <trkpt lat="37.05501" lon="-3.32666">
        <ele>3090.2</ele>
        <time>2021-08-06 13:23:09</time>
      </trkpt>
      <trkpt lat="37.05502" lon="-3.32667">
        <ele>3090.2</ele>
        <time>2021-08-06 13:23:10</time>
      </trkpt>
      <trkpt lat="37.05503" lon="-3.32668">
        <ele>3090.2</ele>
        <time>2021-08-06 13:23:11</time>
      </trkpt>
      <trkpt lat="37.05504" lon="-3.32669">
        <ele>3090.6</ele>
        <time>2021-08-06 13:23:12</time>
      </trkpt>
      <trkpt lat="37.05504" lon="-3.3267">
        <ele>3090.8</ele>
        <time>2021-08-06 13:23:13</time>
      </trkpt>
      <trkpt lat="37.05505" lon="-3.32672">
        <ele>3091.2</ele>
        <time>2021-08-06 13:23:14</time>
      </trkpt>
      <trkpt lat="37.05505" lon="-3.32673">
        <ele>3091.2</ele>
        <time>2021-08-06 13:23:15</time>
      </trkpt>
      <trkpt lat="37.05506" lon="-3.32674">
        <ele>3091.4</ele>
        <time>2021-08-06 13:23:16</time>
      </trkpt>
      <trkpt lat="37.05506" lon="-3.32675">
        <ele>3091.4</ele>
        <time>2021-08-06 13:23:17</time>
      </trkpt>
      <trkpt lat="37.05507" lon="-3.32677">
        <ele>3091.6</ele>
        <time>2021-08-06 13:23:18</time>
      </trkpt>
      <trkpt lat="37.05507" lon="-3.32677">
        <ele>3091.6</ele>
        <time>2021-08-06 13:23:19</time>
      </trkpt>
      <trkpt lat="37.05508" lon="-3.32677">
        <ele>3091.8</ele>
        <time>2021-08-06 13:23:20</time>
      </trkpt>
      <trkpt lat="37.05509" lon="-3.32678">
        <ele>3091.8</ele>
        <time>2021-08-06 13:23:21</time>
      </trkpt>
      <trkpt lat="37.05509" lon="-3.32678">
        <ele>3091.8</ele>
        <time>2021-08-06 13:23:22</time>
      </trkpt>
      <trkpt lat="37.05509" lon="-3.32678">
        <ele>3092</ele>
        <time>2021-08-06 13:23:23</time>
      </trkpt>
      <trkpt lat="37.05509" lon="-3.32678">
        <ele>3092</ele>
        <time>2021-08-06 13:23:24</time>
      </trkpt>
      <trkpt lat="37.0551" lon="-3.32679">
        <ele>3092.2</ele>
        <time>2021-08-06 13:23:25</time>
      </trkpt>
      <trkpt lat="37.05511" lon="-3.32679">
        <ele>3092.2</ele>
        <time>2021-08-06 13:23:26</time>
      </trkpt>
      <trkpt lat="37.05512" lon="-3.3268">
        <ele>3092.2</ele>
        <time>2021-08-06 13:23:27</time>
      </trkpt>
      <trkpt lat="37.05512" lon="-3.32681">
        <ele>3092.2</ele>
        <time>2021-08-06 13:23:28</time>
      </trkpt>
      <trkpt lat="37.05512" lon="-3.32682">
        <ele>3092.2</ele>
        <time>2021-08-06 13:23:29</time>
      </trkpt>
      <trkpt lat="37.05513" lon="-3.32684">
        <ele>3092.2</ele>
        <time>2021-08-06 13:23:30</time>
      </trkpt>
      <trkpt lat="37.05514" lon="-3.32685">
        <ele>3092.2</ele>
        <time>2021-08-06 13:23:31</time>
      </trkpt>
      <trkpt lat="37.05515" lon="-3.32685">
        <ele>3092.2</ele>
        <time>2021-08-06 13:23:32</time>
      </trkpt>
      <trkpt lat="37.05516" lon="-3.32686">
        <ele>3092.2</ele>
        <time>2021-08-06 13:23:33</time>
      </trkpt>
      <trkpt lat="37.05517" lon="-3.32687">
        <ele>3092.2</ele>
        <time>2021-08-06 13:23:34</time>
      </trkpt>
      <trkpt lat="37.05518" lon="-3.32687">
        <ele>3092.4</ele>
        <time>2021-08-06 13:23:35</time>
      </trkpt>
      <trkpt lat="37.05518" lon="-3.32687">
        <ele>3092.4</ele>
        <time>2021-08-06 13:23:36</time>
      </trkpt>
      <trkpt lat="37.05519" lon="-3.32687">
        <ele>3092.4</ele>
        <time>2021-08-06 13:23:37</time>
      </trkpt>
      <trkpt lat="37.0552" lon="-3.32688">
        <ele>3092.6</ele>
        <time>2021-08-06 13:23:38</time>
      </trkpt>
      <trkpt lat="37.05521" lon="-3.32689">
        <ele>3092.8</ele>
        <time>2021-08-06 13:23:39</time>
      </trkpt>
      <trkpt lat="37.05521" lon="-3.3269">
        <ele>3092.8</ele>
        <time>2021-08-06 13:23:40</time>
      </trkpt>
      <trkpt lat="37.05522" lon="-3.32691">
        <ele>3092.8</ele>
        <time>2021-08-06 13:23:41</time>
      </trkpt>
      <trkpt lat="37.05523" lon="-3.32692">
        <ele>3093</ele>
        <time>2021-08-06 13:23:42</time>
      </trkpt>
      <trkpt lat="37.05523" lon="-3.32694">
        <ele>3092.6</ele>
        <time>2021-08-06 13:23:43</time>
      </trkpt>
      <trkpt lat="37.05523" lon="-3.32694">
        <ele>3092.4</ele>
        <time>2021-08-06 13:23:44</time>
      </trkpt>
      <trkpt lat="37.05524" lon="-3.32695">
        <ele>3092.4</ele>
        <time>2021-08-06 13:23:45</time>
      </trkpt>
      <trkpt lat="37.05524" lon="-3.32697">
        <ele>3092.2</ele>
        <time>2021-08-06 13:23:46</time>
      </trkpt>
      <trkpt lat="37.05525" lon="-3.32698">
        <ele>3092.2</ele>
        <time>2021-08-06 13:23:47</time>
      </trkpt>
      <trkpt lat="37.05525" lon="-3.32698">
        <ele>3092.2</ele>
        <time>2021-08-06 13:23:48</time>
      </trkpt>
      <trkpt lat="37.05527" lon="-3.32697">
        <ele>3092.2</ele>
        <time>2021-08-06 13:23:49</time>
      </trkpt>
      <trkpt lat="37.05528" lon="-3.32697">
        <ele>3092.4</ele>
        <time>2021-08-06 13:23:50</time>
      </trkpt>
      <trkpt lat="37.05529" lon="-3.32698">
        <ele>3092.4</ele>
        <time>2021-08-06 13:23:51</time>
      </trkpt>
      <trkpt lat="37.05529" lon="-3.32699">
        <ele>3092.6</ele>
        <time>2021-08-06 13:23:52</time>
      </trkpt>
      <trkpt lat="37.0553" lon="-3.32699">
        <ele>3092.6</ele>
        <time>2021-08-06 13:23:53</time>
      </trkpt>
      <trkpt lat="37.05531" lon="-3.327">
        <ele>3092.8</ele>
        <time>2021-08-06 13:23:54</time>
      </trkpt>
      <trkpt lat="37.05532" lon="-3.32701">
        <ele>3092.8</ele>
        <time>2021-08-06 13:23:55</time>
      </trkpt>
      <trkpt lat="37.05533" lon="-3.32702">
        <ele>3093</ele>
        <time>2021-08-06 13:23:56</time>
      </trkpt>
      <trkpt lat="37.05533" lon="-3.32703">
        <ele>3093</ele>
        <time>2021-08-06 13:23:57</time>
      </trkpt>
      <trkpt lat="37.05534" lon="-3.32704">
        <ele>3093</ele>
        <time>2021-08-06 13:23:58</time>
      </trkpt>
      <trkpt lat="37.05535" lon="-3.32705">
        <ele>3093</ele>
        <time>2021-08-06 13:23:59</time>
      </trkpt>
      <trkpt lat="37.05536" lon="-3.32705">
        <ele>3093</ele>
        <time>2021-08-06 13:24:00</time>
      </trkpt>
      <trkpt lat="37.05537" lon="-3.32706">
        <ele>3092.8</ele>
        <time>2021-08-06 13:24:01</time>
      </trkpt>
      <trkpt lat="37.05538" lon="-3.32707">
        <ele>3092.4</ele>
        <time>2021-08-06 13:24:02</time>
      </trkpt>
      <trkpt lat="37.05538" lon="-3.32708">
        <ele>3092.4</ele>
        <time>2021-08-06 13:24:03</time>
      </trkpt>
      <trkpt lat="37.05539" lon="-3.32708">
        <ele>3092.2</ele>
        <time>2021-08-06 13:24:04</time>
      </trkpt>
      <trkpt lat="37.05539" lon="-3.32709">
        <ele>3092.2</ele>
        <time>2021-08-06 13:24:05</time>
      </trkpt>
      <trkpt lat="37.05539" lon="-3.3271">
        <ele>3092</ele>
        <time>2021-08-06 13:24:06</time>
      </trkpt>
      <trkpt lat="37.05539" lon="-3.3271">
        <ele>3092</ele>
        <time>2021-08-06 13:24:07</time>
      </trkpt>
      <trkpt lat="37.05539" lon="-3.32711">
        <ele>3092</ele>
        <time>2021-08-06 13:24:08</time>
      </trkpt>
      <trkpt lat="37.0554" lon="-3.32712">
        <ele>3092</ele>
        <time>2021-08-06 13:24:09</time>
      </trkpt>
      <trkpt lat="37.05541" lon="-3.32712">
        <ele>3092</ele>
        <time>2021-08-06 13:24:10</time>
      </trkpt>
      <trkpt lat="37.05541" lon="-3.32713">
        <ele>3092</ele>
        <time>2021-08-06 13:24:11</time>
      </trkpt>
      <trkpt lat="37.05542" lon="-3.32714">
        <ele>3092.2</ele>
        <time>2021-08-06 13:24:12</time>
      </trkpt>
      <trkpt lat="37.05542" lon="-3.32715">
        <ele>3092.4</ele>
        <time>2021-08-06 13:24:13</time>
      </trkpt>
      <trkpt lat="37.05543" lon="-3.32716">
        <ele>3092.6</ele>
        <time>2021-08-06 13:24:14</time>
      </trkpt>
      <trkpt lat="37.05543" lon="-3.32717">
        <ele>3092.6</ele>
        <time>2021-08-06 13:24:15</time>
      </trkpt>
      <trkpt lat="37.05544" lon="-3.32718">
        <ele>3092.6</ele>
        <time>2021-08-06 13:24:16</time>
      </trkpt>
      <trkpt lat="37.05544" lon="-3.32719">
        <ele>3092.6</ele>
        <time>2021-08-06 13:24:17</time>
      </trkpt>
      <trkpt lat="37.05544" lon="-3.32719">
        <ele>3092.6</ele>
        <time>2021-08-06 13:24:18</time>
      </trkpt>
      <trkpt lat="37.05544" lon="-3.3272">
        <ele>3092.6</ele>
        <time>2021-08-06 13:24:19</time>
      </trkpt>
      <trkpt lat="37.05545" lon="-3.32721">
        <ele>3092.6</ele>
        <time>2021-08-06 13:24:20</time>
      </trkpt>
      <trkpt lat="37.05545" lon="-3.32722">
        <ele>3092.6</ele>
        <time>2021-08-06 13:24:21</time>
      </trkpt>
      <trkpt lat="37.05545" lon="-3.32723">
        <ele>3092.6</ele>
        <time>2021-08-06 13:24:22</time>
      </trkpt>
      <trkpt lat="37.05546" lon="-3.32723">
        <ele>3092.6</ele>
        <time>2021-08-06 13:24:23</time>
      </trkpt>
      <trkpt lat="37.05546" lon="-3.32724">
        <ele>3092.6</ele>
        <time>2021-08-06 13:24:24</time>
      </trkpt>
      <trkpt lat="37.05547" lon="-3.32725">
        <ele>3092.6</ele>
        <time>2021-08-06 13:24:25</time>
      </trkpt>
      <trkpt lat="37.05547" lon="-3.32726">
        <ele>3092.6</ele>
        <time>2021-08-06 13:24:26</time>
      </trkpt>
      <trkpt lat="37.05547" lon="-3.32727">
        <ele>3092.6</ele>
        <time>2021-08-06 13:24:27</time>
      </trkpt>
      <trkpt lat="37.05547" lon="-3.32727">
        <ele>3092.4</ele>
        <time>2021-08-06 13:24:28</time>
      </trkpt>
      <trkpt lat="37.05548" lon="-3.32728">
        <ele>3092.2</ele>
        <time>2021-08-06 13:24:29</time>
      </trkpt>
      <trkpt lat="37.05548" lon="-3.32729">
        <ele>3092.2</ele>
        <time>2021-08-06 13:24:30</time>
      </trkpt>
      <trkpt lat="37.05549" lon="-3.32729">
        <ele>3092.2</ele>
        <time>2021-08-06 13:24:31</time>
      </trkpt>
      <trkpt lat="37.05549" lon="-3.3273">
        <ele>3092.2</ele>
        <time>2021-08-06 13:24:32</time>
      </trkpt>
      <trkpt lat="37.0555" lon="-3.32731">
        <ele>3092.2</ele>
        <time>2021-08-06 13:24:33</time>
      </trkpt>
      <trkpt lat="37.0555" lon="-3.32731">
        <ele>3092.4</ele>
        <time>2021-08-06 13:24:34</time>
      </trkpt>
      <trkpt lat="37.0555" lon="-3.32732">
        <ele>3092.4</ele>
        <time>2021-08-06 13:24:35</time>
      </trkpt>
      <trkpt lat="37.0555" lon="-3.32733">
        <ele>3092.4</ele>
        <time>2021-08-06 13:24:36</time>
      </trkpt>
      <trkpt lat="37.0555" lon="-3.32733">
        <ele>3092.2</ele>
        <time>2021-08-06 13:24:37</time>
      </trkpt>
      <trkpt lat="37.0555" lon="-3.32735">
        <ele>3092.2</ele>
        <time>2021-08-06 13:24:38</time>
      </trkpt>
      <trkpt lat="37.0555" lon="-3.32736">
        <ele>3092.2</ele>
        <time>2021-08-06 13:24:39</time>
      </trkpt>
      <trkpt lat="37.05549" lon="-3.32737">
        <ele>3092</ele>
        <time>2021-08-06 13:24:40</time>
      </trkpt>
      <trkpt lat="37.0555" lon="-3.32738">
        <ele>3091.8</ele>
        <time>2021-08-06 13:24:41</time>
      </trkpt>
      <trkpt lat="37.05551" lon="-3.32739">
        <ele>3091.8</ele>
        <time>2021-08-06 13:24:42</time>
      </trkpt>
      <trkpt lat="37.05552" lon="-3.32739">
        <ele>3091.8</ele>
        <time>2021-08-06 13:24:43</time>
      </trkpt>
      <trkpt lat="37.05552" lon="-3.3274">
        <ele>3091.8</ele>
        <time>2021-08-06 13:24:44</time>
      </trkpt>
      <trkpt lat="37.05553" lon="-3.32741">
        <ele>3091.6</ele>
        <time>2021-08-06 13:24:45</time>
      </trkpt>
      <trkpt lat="37.05553" lon="-3.32743">
        <ele>3091.6</ele>
        <time>2021-08-06 13:24:46</time>
      </trkpt>
      <trkpt lat="37.05554" lon="-3.32744">
        <ele>3091.6</ele>
        <time>2021-08-06 13:24:47</time>
      </trkpt>
      <trkpt lat="37.05555" lon="-3.32744">
        <ele>3091.6</ele>
        <time>2021-08-06 13:24:48</time>
      </trkpt>
      <trkpt lat="37.05556" lon="-3.32746">
        <ele>3091.8</ele>
        <time>2021-08-06 13:24:49</time>
      </trkpt>
      <trkpt lat="37.05556" lon="-3.32747">
        <ele>3091.8</ele>
        <time>2021-08-06 13:24:50</time>
      </trkpt>
      <trkpt lat="37.05556" lon="-3.32748">
        <ele>3091.6</ele>
        <time>2021-08-06 13:24:51</time>
      </trkpt>
      <trkpt lat="37.05556" lon="-3.3275">
        <ele>3091.6</ele>
        <time>2021-08-06 13:24:52</time>
      </trkpt>
      <trkpt lat="37.05557" lon="-3.32751">
        <ele>3091.6</ele>
        <time>2021-08-06 13:24:53</time>
      </trkpt>
      <trkpt lat="37.05558" lon="-3.32751">
        <ele>3091.4</ele>
        <time>2021-08-06 13:24:54</time>
      </trkpt>
      <trkpt lat="37.05558" lon="-3.32753">
        <ele>3091.2</ele>
        <time>2021-08-06 13:24:55</time>
      </trkpt>
      <trkpt lat="37.05558" lon="-3.32754">
        <ele>3091.2</ele>
        <time>2021-08-06 13:24:56</time>
      </trkpt>
      <trkpt lat="37.05558" lon="-3.32755">
        <ele>3091</ele>
        <time>2021-08-06 13:24:57</time>
      </trkpt>
      <trkpt lat="37.05558" lon="-3.32756">
        <ele>3091</ele>
        <time>2021-08-06 13:24:58</time>
      </trkpt>
      <trkpt lat="37.05559" lon="-3.32757">
        <ele>3090.8</ele>
        <time>2021-08-06 13:24:59</time>
      </trkpt>
      <trkpt lat="37.05559" lon="-3.32758">
        <ele>3090.8</ele>
        <time>2021-08-06 13:25:00</time>
      </trkpt>
      <trkpt lat="37.0556" lon="-3.32758">
        <ele>3090.8</ele>
        <time>2021-08-06 13:25:01</time>
      </trkpt>
      <trkpt lat="37.0556" lon="-3.32759">
        <ele>3090.6</ele>
        <time>2021-08-06 13:38:14</time>
      </trkpt>
      <trkpt lat="37.05561" lon="-3.32759">
        <ele>3090.6</ele>
        <time>2021-08-06 13:38:15</time>
      </trkpt>
      <trkpt lat="37.05562" lon="-3.3276">
        <ele>3090.6</ele>
        <time>2021-08-06 13:38:16</time>
      </trkpt>
      <trkpt lat="37.05562" lon="-3.3276">
        <ele>3090.6</ele>
        <time>2021-08-06 13:38:17</time>
      </trkpt>
      <trkpt lat="37.05563" lon="-3.3276">
        <ele>3090.6</ele>
        <time>2021-08-06 13:38:18</time>
      </trkpt>
      <trkpt lat="37.05563" lon="-3.32761">
        <ele>3090.6</ele>
        <time>2021-08-06 13:38:19</time>
      </trkpt>
      <trkpt lat="37.05563" lon="-3.32761">
        <ele>3090.6</ele>
        <time>2021-08-06 13:38:20</time>
      </trkpt>
      <trkpt lat="37.05563" lon="-3.32763">
        <ele>3090.6</ele>
        <time>2021-08-06 13:38:21</time>
      </trkpt>
      <trkpt lat="37.05563" lon="-3.32764">
        <ele>3090.6</ele>
        <time>2021-08-06 13:38:22</time>
      </trkpt>
      <trkpt lat="37.05563" lon="-3.32765">
        <ele>3090.4</ele>
        <time>2021-08-06 13:38:23</time>
      </trkpt>
      <trkpt lat="37.05563" lon="-3.32766">
        <ele>3090.2</ele>
        <time>2021-08-06 13:38:24</time>
      </trkpt>
      <trkpt lat="37.05564" lon="-3.32766">
        <ele>3090</ele>
        <time>2021-08-06 13:38:25</time>
      </trkpt>
      <trkpt lat="37.05564" lon="-3.32768">
        <ele>3090</ele>
        <time>2021-08-06 13:38:26</time>
      </trkpt>
      <trkpt lat="37.05564" lon="-3.32769">
        <ele>3090</ele>
        <time>2021-08-06 13:38:27</time>
      </trkpt>
      <trkpt lat="37.05564" lon="-3.3277">
        <ele>3090</ele>
        <time>2021-08-06 13:38:28</time>
      </trkpt>
      <trkpt lat="37.05565" lon="-3.3277">
        <ele>3089.8</ele>
        <time>2021-08-06 13:38:29</time>
      </trkpt>
      <trkpt lat="37.05565" lon="-3.32771">
        <ele>3089.8</ele>
        <time>2021-08-06 13:38:30</time>
      </trkpt>
      <trkpt lat="37.05565" lon="-3.32771">
        <ele>3090</ele>
        <time>2021-08-06 13:38:31</time>
      </trkpt>
      <trkpt lat="37.05566" lon="-3.32771">
        <ele>3090</ele>
        <time>2021-08-06 13:38:32</time>
      </trkpt>
      <trkpt lat="37.05566" lon="-3.32771">
        <ele>3090</ele>
        <time>2021-08-06 13:38:33</time>
      </trkpt>
      <trkpt lat="37.05567" lon="-3.32771">
        <ele>3090.4</ele>
        <time>2021-08-06 13:38:34</time>
      </trkpt>
      <trkpt lat="37.05567" lon="-3.3277">
        <ele>3090.6</ele>
        <time>2021-08-06 13:38:35</time>
      </trkpt>
      <trkpt lat="37.05567" lon="-3.3277">
        <ele>3090.8</ele>
        <time>2021-08-06 13:38:36</time>
      </trkpt>
      <trkpt lat="37.05567" lon="-3.3277">
        <ele>3091</ele>
        <time>2021-08-06 13:38:37</time>
      </trkpt>
      <trkpt lat="37.05567" lon="-3.32771">
        <ele>3091</ele>
        <time>2021-08-06 13:38:38</time>
      </trkpt>
      <trkpt lat="37.05568" lon="-3.32772">
        <ele>3091</ele>
        <time>2021-08-06 13:38:39</time>
      </trkpt>
      <trkpt lat="37.05568" lon="-3.32773">
        <ele>3091.2</ele>
        <time>2021-08-06 13:38:40</time>
      </trkpt>
      <trkpt lat="37.05568" lon="-3.32775">
        <ele>3091.2</ele>
        <time>2021-08-06 13:38:41</time>
      </trkpt>
      <trkpt lat="37.05568" lon="-3.32776">
        <ele>3091.4</ele>
        <time>2021-08-06 13:38:42</time>
      </trkpt>
      <trkpt lat="37.05569" lon="-3.32776">
        <ele>3091.6</ele>
        <time>2021-08-06 13:38:43</time>
      </trkpt>
      <trkpt lat="37.05569" lon="-3.32778">
        <ele>3091.6</ele>
        <time>2021-08-06 13:38:44</time>
      </trkpt>
      <trkpt lat="37.05569" lon="-3.32779">
        <ele>3091.6</ele>
        <time>2021-08-06 13:38:45</time>
      </trkpt>
      <trkpt lat="37.05569" lon="-3.32781">
        <ele>3091.6</ele>
        <time>2021-08-06 13:38:46</time>
      </trkpt>
      <trkpt lat="37.05569" lon="-3.32783">
        <ele>3091.6</ele>
        <time>2021-08-06 13:38:47</time>
      </trkpt>
      <trkpt lat="37.05569" lon="-3.32784">
        <ele>3091.6</ele>
        <time>2021-08-06 13:38:48</time>
      </trkpt>
      <trkpt lat="37.05569" lon="-3.32785">
        <ele>3091.8</ele>
        <time>2021-08-06 13:38:49</time>
      </trkpt>
      <trkpt lat="37.05569" lon="-3.32786">
        <ele>3091.8</ele>
        <time>2021-08-06 13:38:50</time>
      </trkpt>
      <trkpt lat="37.05569" lon="-3.32787">
        <ele>3091.8</ele>
        <time>2021-08-06 13:38:51</time>
      </trkpt>
      <trkpt lat="37.05569" lon="-3.32787">
        <ele>3091.8</ele>
        <time>2021-08-06 13:38:52</time>
      </trkpt>
      <trkpt lat="37.0557" lon="-3.32788">
        <ele>3091.8</ele>
        <time>2021-08-06 13:38:53</time>
      </trkpt>
      <trkpt lat="37.0557" lon="-3.32788">
        <ele>3091.8</ele>
        <time>2021-08-06 13:38:54</time>
      </trkpt>
      <trkpt lat="37.0557" lon="-3.32789">
        <ele>3091.6</ele>
        <time>2021-08-06 13:38:55</time>
      </trkpt>
      <trkpt lat="37.0557" lon="-3.3279">
        <ele>3091.4</ele>
        <time>2021-08-06 13:38:56</time>
      </trkpt>
      <trkpt lat="37.0557" lon="-3.32791">
        <ele>3091.2</ele>
        <time>2021-08-06 13:38:57</time>
      </trkpt>
      <trkpt lat="37.0557" lon="-3.32793">
        <ele>3091</ele>
        <time>2021-08-06 13:38:58</time>
      </trkpt>
      <trkpt lat="37.0557" lon="-3.32794">
        <ele>3090.8</ele>
        <time>2021-08-06 13:38:59</time>
      </trkpt>
      <trkpt lat="37.05571" lon="-3.32795">
        <ele>3090.6</ele>
        <time>2021-08-06 13:39:00</time>
      </trkpt>
      <trkpt lat="37.05571" lon="-3.32795">
        <ele>3090.6</ele>
        <time>2021-08-06 13:39:01</time>
      </trkpt>
      <trkpt lat="37.05572" lon="-3.32796">
        <ele>3090.6</ele>
        <time>2021-08-06 13:39:02</time>
      </trkpt>
      <trkpt lat="37.05573" lon="-3.32796">
        <ele>3090.6</ele>
        <time>2021-08-06 13:39:03</time>
      </trkpt>
      <trkpt lat="37.05574" lon="-3.32795">
        <ele>3091</ele>
        <time>2021-08-06 13:39:04</time>
      </trkpt>
      <trkpt lat="37.05574" lon="-3.32797">
        <ele>3091</ele>
        <time>2021-08-06 13:39:05</time>
      </trkpt>
      <trkpt lat="37.05574" lon="-3.32797">
        <ele>3091.2</ele>
        <time>2021-08-06 13:39:06</time>
      </trkpt>
      <trkpt lat="37.05575" lon="-3.32798">
        <ele>3091.2</ele>
        <time>2021-08-06 13:39:07</time>
      </trkpt>
      <trkpt lat="37.05575" lon="-3.32797">
        <ele>3091.2</ele>
        <time>2021-08-06 13:39:08</time>
      </trkpt>
      <trkpt lat="37.05575" lon="-3.32798">
        <ele>3091.4</ele>
        <time>2021-08-06 13:39:09</time>
      </trkpt>
      <trkpt lat="37.05575" lon="-3.32798">
        <ele>3091.2</ele>
        <time>2021-08-06 13:39:10</time>
      </trkpt>
      <trkpt lat="37.05575" lon="-3.32798">
        <ele>3091.2</ele>
        <time>2021-08-06 13:39:11</time>
      </trkpt>
      <trkpt lat="37.05575" lon="-3.32799">
        <ele>3091.2</ele>
        <time>2021-08-06 13:39:12</time>
      </trkpt>
      <trkpt lat="37.05575" lon="-3.32799">
        <ele>3091.2</ele>
        <time>2021-08-06 13:39:13</time>
      </trkpt>
      <trkpt lat="37.05575" lon="-3.328">
        <ele>3091.2</ele>
        <time>2021-08-06 13:39:14</time>
      </trkpt>
      <trkpt lat="37.05575" lon="-3.328">
        <ele>3091.2</ele>
        <time>2021-08-06 13:39:15</time>
      </trkpt>
      <trkpt lat="37.05575" lon="-3.32801">
        <ele>3091.4</ele>
        <time>2021-08-06 13:39:16</time>
      </trkpt>
      <trkpt lat="37.05575" lon="-3.32802">
        <ele>3091.4</ele>
        <time>2021-08-06 13:39:17</time>
      </trkpt>
      <trkpt lat="37.05575" lon="-3.32803">
        <ele>3091.2</ele>
        <time>2021-08-06 13:39:18</time>
      </trkpt>
      <trkpt lat="37.05576" lon="-3.32803">
        <ele>3091.2</ele>
        <time>2021-08-06 13:39:19</time>
      </trkpt>
      <trkpt lat="37.05576" lon="-3.32804">
        <ele>3091.2</ele>
        <time>2021-08-06 13:39:20</time>
      </trkpt>
      <trkpt lat="37.05576" lon="-3.32805">
        <ele>3091.2</ele>
        <time>2021-08-06 13:39:21</time>
      </trkpt>
      <trkpt lat="37.05575" lon="-3.32807">
        <ele>3091.2</ele>
        <time>2021-08-06 13:39:22</time>
      </trkpt>
      <trkpt lat="37.05575" lon="-3.32808">
        <ele>3090.8</ele>
        <time>2021-08-06 13:39:23</time>
      </trkpt>
      <trkpt lat="37.05575" lon="-3.32809">
        <ele>3090.6</ele>
        <time>2021-08-06 13:39:24</time>
      </trkpt>
      <trkpt lat="37.05575" lon="-3.3281">
        <ele>3090.6</ele>
        <time>2021-08-06 13:39:25</time>
      </trkpt>
      <trkpt lat="37.05575" lon="-3.32811">
        <ele>3090.6</ele>
        <time>2021-08-06 13:39:26</time>
      </trkpt>
      <trkpt lat="37.05575" lon="-3.32812">
        <ele>3090.4</ele>
        <time>2021-08-06 13:39:27</time>
      </trkpt>
      <trkpt lat="37.05575" lon="-3.32813">
        <ele>3090.4</ele>
        <time>2021-08-06 13:39:28</time>
      </trkpt>
      <trkpt lat="37.05576" lon="-3.32813">
        <ele>3090.4</ele>
        <time>2021-08-06 13:39:29</time>
      </trkpt>
      <trkpt lat="37.05576" lon="-3.32814">
        <ele>3090.6</ele>
        <time>2021-08-06 13:39:30</time>
      </trkpt>
      <trkpt lat="37.05577" lon="-3.32814">
        <ele>3090.6</ele>
        <time>2021-08-06 13:39:31</time>
      </trkpt>
      <trkpt lat="37.05577" lon="-3.32815">
        <ele>3090.8</ele>
        <time>2021-08-06 13:39:32</time>
      </trkpt>
      <trkpt lat="37.05577" lon="-3.32815">
        <ele>3090.8</ele>
        <time>2021-08-06 13:39:33</time>
      </trkpt>
      <trkpt lat="37.05578" lon="-3.32815">
        <ele>3091</ele>
        <time>2021-08-06 13:39:34</time>
      </trkpt>
      <trkpt lat="37.05579" lon="-3.32816">
        <ele>3091</ele>
        <time>2021-08-06 13:39:35</time>
      </trkpt>
      <trkpt lat="37.05579" lon="-3.32817">
        <ele>3091</ele>
        <time>2021-08-06 13:39:36</time>
      </trkpt>
      <trkpt lat="37.05579" lon="-3.32819">
        <ele>3091.2</ele>
        <time>2021-08-06 13:39:37</time>
      </trkpt>
      <trkpt lat="37.0558" lon="-3.3282">
        <ele>3091.2</ele>
        <time>2021-08-06 13:39:38</time>
      </trkpt>
      <trkpt lat="37.0558" lon="-3.3282">
        <ele>3091.2</ele>
        <time>2021-08-06 13:39:39</time>
      </trkpt>
      <trkpt lat="37.05581" lon="-3.32821">
        <ele>3091.4</ele>
        <time>2021-08-06 13:39:40</time>
      </trkpt>
      <trkpt lat="37.05581" lon="-3.32821">
        <ele>3091.4</ele>
        <time>2021-08-06 13:39:41</time>
      </trkpt>
      <trkpt lat="37.05582" lon="-3.32821">
        <ele>3091.6</ele>
        <time>2021-08-06 13:39:42</time>
      </trkpt>
      <trkpt lat="37.05582" lon="-3.32822">
        <ele>3091.6</ele>
        <time>2021-08-06 13:39:43</time>
      </trkpt>
      <trkpt lat="37.05582" lon="-3.32823">
        <ele>3091.8</ele>
        <time>2021-08-06 13:39:44</time>
      </trkpt>
      <trkpt lat="37.05582" lon="-3.32824">
        <ele>3092</ele>
        <time>2021-08-06 13:39:45</time>
      </trkpt>
      <trkpt lat="37.05583" lon="-3.32824">
        <ele>3092.2</ele>
        <time>2021-08-06 13:39:46</time>
      </trkpt>
      <trkpt lat="37.05584" lon="-3.32824">
        <ele>3092.2</ele>
        <time>2021-08-06 13:39:47</time>
      </trkpt>
      <trkpt lat="37.05584" lon="-3.32824">
        <ele>3092.4</ele>
        <time>2021-08-06 13:39:48</time>
      </trkpt>
      <trkpt lat="37.05584" lon="-3.32824">
        <ele>3092.6</ele>
        <time>2021-08-06 13:39:49</time>
      </trkpt>
      <trkpt lat="37.05585" lon="-3.32823">
        <ele>3092.6</ele>
        <time>2021-08-06 13:39:50</time>
      </trkpt>
      <trkpt lat="37.05586" lon="-3.32822">
        <ele>3092.6</ele>
        <time>2021-08-06 13:39:51</time>
      </trkpt>
      <trkpt lat="37.05586" lon="-3.32822">
        <ele>3092.8</ele>
        <time>2021-08-06 13:39:52</time>
      </trkpt>
      <trkpt lat="37.05585" lon="-3.32823">
        <ele>3093</ele>
        <time>2021-08-06 13:39:53</time>
      </trkpt>
      <trkpt lat="37.05584" lon="-3.32825">
        <ele>3093.2</ele>
        <time>2021-08-06 13:39:54</time>
      </trkpt>
      <trkpt lat="37.05584" lon="-3.32826">
        <ele>3093.2</ele>
        <time>2021-08-06 13:39:55</time>
      </trkpt>
      <trkpt lat="37.05583" lon="-3.32827">
        <ele>3093.2</ele>
        <time>2021-08-06 13:39:56</time>
      </trkpt>
      <trkpt lat="37.05583" lon="-3.32828">
        <ele>3093.2</ele>
        <time>2021-08-06 13:39:57</time>
      </trkpt>
      <trkpt lat="37.05583" lon="-3.3283">
        <ele>3093.2</ele>
        <time>2021-08-06 13:39:58</time>
      </trkpt>
      <trkpt lat="37.05584" lon="-3.32831">
        <ele>3093.2</ele>
        <time>2021-08-06 13:39:59</time>
      </trkpt>
      <trkpt lat="37.05584" lon="-3.32832">
        <ele>3093.2</ele>
        <time>2021-08-06 13:40:00</time>
      </trkpt>
      <trkpt lat="37.05584" lon="-3.32833">
        <ele>3093.4</ele>
        <time>2021-08-06 13:40:01</time>
      </trkpt>
      <trkpt lat="37.05584" lon="-3.32834">
        <ele>3093.6</ele>
        <time>2021-08-06 13:40:02</time>
      </trkpt>
      <trkpt lat="37.05584" lon="-3.32835">
        <ele>3093.6</ele>
        <time>2021-08-06 13:40:03</time>
      </trkpt>
      <trkpt lat="37.05583" lon="-3.32837">
        <ele>3093.6</ele>
        <time>2021-08-06 13:40:04</time>
      </trkpt>
      <trkpt lat="37.05583" lon="-3.32838">
        <ele>3093.8</ele>
        <time>2021-08-06 13:40:05</time>
      </trkpt>
      <trkpt lat="37.05583" lon="-3.32839">
        <ele>3093.8</ele>
        <time>2021-08-06 13:40:06</time>
      </trkpt>
      <trkpt lat="37.05584" lon="-3.32839">
        <ele>3094</ele>
        <time>2021-08-06 13:40:07</time>
      </trkpt>
      <trkpt lat="37.05585" lon="-3.32839">
        <ele>3094</ele>
        <time>2021-08-06 13:40:08</time>
      </trkpt>
      <trkpt lat="37.05585" lon="-3.32839">
        <ele>3094</ele>
        <time>2021-08-06 13:40:09</time>
      </trkpt>
      <trkpt lat="37.05585" lon="-3.32839">
        <ele>3094</ele>
        <time>2021-08-06 13:40:10</time>
      </trkpt>
      <trkpt lat="37.05586" lon="-3.3284">
        <ele>3094</ele>
        <time>2021-08-06 13:40:11</time>
      </trkpt>
      <trkpt lat="37.05586" lon="-3.3284">
        <ele>3094</ele>
        <time>2021-08-06 13:40:12</time>
      </trkpt>
      <trkpt lat="37.05587" lon="-3.32841">
        <ele>3094</ele>
        <time>2021-08-06 13:40:13</time>
      </trkpt>
      <trkpt lat="37.05587" lon="-3.32841">
        <ele>3094.2</ele>
        <time>2021-08-06 13:40:14</time>
      </trkpt>
      <trkpt lat="37.05587" lon="-3.32842">
        <ele>3094.2</ele>
        <time>2021-08-06 13:40:15</time>
      </trkpt>
      <trkpt lat="37.05587" lon="-3.32843">
        <ele>3094.6</ele>
        <time>2021-08-06 13:40:16</time>
      </trkpt>
      <trkpt lat="37.05588" lon="-3.32844">
        <ele>3094.6</ele>
        <time>2021-08-06 13:40:17</time>
      </trkpt>
      <trkpt lat="37.05588" lon="-3.32845">
        <ele>3094.6</ele>
        <time>2021-08-06 13:40:18</time>
      </trkpt>
      <trkpt lat="37.05588" lon="-3.32847">
        <ele>3094.8</ele>
        <time>2021-08-06 13:40:19</time>
      </trkpt>
      <trkpt lat="37.05588" lon="-3.32848">
        <ele>3094.8</ele>
        <time>2021-08-06 13:40:20</time>
      </trkpt>
      <trkpt lat="37.05588" lon="-3.3285">
        <ele>3094.8</ele>
        <time>2021-08-06 13:40:21</time>
      </trkpt>
      <trkpt lat="37.05588" lon="-3.3285">
        <ele>3094.6</ele>
        <time>2021-08-06 13:40:22</time>
      </trkpt>
      <trkpt lat="37.05588" lon="-3.32852">
        <ele>3094.4</ele>
        <time>2021-08-06 13:40:23</time>
      </trkpt>
      <trkpt lat="37.05587" lon="-3.32853">
        <ele>3094.4</ele>
        <time>2021-08-06 13:40:24</time>
      </trkpt>
      <trkpt lat="37.05587" lon="-3.32855">
        <ele>3094.4</ele>
        <time>2021-08-06 13:40:25</time>
      </trkpt>
      <trkpt lat="37.05586" lon="-3.32856">
        <ele>3094.4</ele>
        <time>2021-08-06 13:40:26</time>
      </trkpt>
      <trkpt lat="37.05586" lon="-3.32857">
        <ele>3094.2</ele>
        <time>2021-08-06 13:40:27</time>
      </trkpt>
      <trkpt lat="37.05586" lon="-3.32858">
        <ele>3094.2</ele>
        <time>2021-08-06 13:40:28</time>
      </trkpt>
      <trkpt lat="37.05586" lon="-3.32859">
        <ele>3094.2</ele>
        <time>2021-08-06 13:40:29</time>
      </trkpt>
      <trkpt lat="37.05586" lon="-3.3286">
        <ele>3094.2</ele>
        <time>2021-08-06 13:40:30</time>
      </trkpt>
      <trkpt lat="37.05586" lon="-3.3286">
        <ele>3094.2</ele>
        <time>2021-08-06 13:40:31</time>
      </trkpt>
      <trkpt lat="37.05587" lon="-3.32859">
        <ele>3094.2</ele>
        <time>2021-08-06 13:40:32</time>
      </trkpt>
      <trkpt lat="37.05587" lon="-3.32859">
        <ele>3094.2</ele>
        <time>2021-08-06 13:40:33</time>
      </trkpt>
      <trkpt lat="37.05588" lon="-3.32859">
        <ele>3094.2</ele>
        <time>2021-08-06 13:40:34</time>
      </trkpt>
      <trkpt lat="37.05588" lon="-3.32859">
        <ele>3094.2</ele>
        <time>2021-08-06 13:40:35</time>
      </trkpt>
      <trkpt lat="37.05589" lon="-3.32859">
        <ele>3094.2</ele>
        <time>2021-08-06 13:40:36</time>
      </trkpt>
      <trkpt lat="37.05589" lon="-3.32859">
        <ele>3094.2</ele>
        <time>2021-08-06 13:40:37</time>
      </trkpt>
      <trkpt lat="37.05589" lon="-3.32859">
        <ele>3094.2</ele>
        <time>2021-08-06 13:40:38</time>
      </trkpt>
      <trkpt lat="37.05589" lon="-3.32859">
        <ele>3094.2</ele>
        <time>2021-08-06 13:40:39</time>
      </trkpt>
      <trkpt lat="37.05589" lon="-3.32859">
        <ele>3094.2</ele>
        <time>2021-08-06 13:40:40</time>
      </trkpt>
      <trkpt lat="37.05589" lon="-3.3286">
        <ele>3094.2</ele>
        <time>2021-08-06 13:40:41</time>
      </trkpt>
      <trkpt lat="37.0559" lon="-3.3286">
        <ele>3094.2</ele>
        <time>2021-08-06 13:40:42</time>
      </trkpt>
      <trkpt lat="37.05591" lon="-3.32859">
        <ele>3094.2</ele>
        <time>2021-08-06 13:40:43</time>
      </trkpt>
      <trkpt lat="37.05592" lon="-3.32859">
        <ele>3094.4</ele>
        <time>2021-08-06 13:40:44</time>
      </trkpt>
      <trkpt lat="37.05592" lon="-3.32859">
        <ele>3094.6</ele>
        <time>2021-08-06 13:40:45</time>
      </trkpt>
      <trkpt lat="37.05592" lon="-3.3286">
        <ele>3094.6</ele>
        <time>2021-08-06 13:40:46</time>
      </trkpt>
      <trkpt lat="37.05592" lon="-3.3286">
        <ele>3094.8</ele>
        <time>2021-08-06 13:40:47</time>
      </trkpt>
      <trkpt lat="37.05591" lon="-3.3286">
        <ele>3094.8</ele>
        <time>2021-08-06 13:40:48</time>
      </trkpt>
      <trkpt lat="37.05591" lon="-3.32861">
        <ele>3095</ele>
        <time>2021-08-06 13:40:49</time>
      </trkpt>
      <trkpt lat="37.0559" lon="-3.32862">
        <ele>3094.8</ele>
        <time>2021-08-06 13:40:50</time>
      </trkpt>
      <trkpt lat="37.05591" lon="-3.32862">
        <ele>3094.8</ele>
        <time>2021-08-06 13:40:51</time>
      </trkpt>
      <trkpt lat="37.0559" lon="-3.32863">
        <ele>3094.8</ele>
        <time>2021-08-06 13:40:52</time>
      </trkpt>
      <trkpt lat="37.0559" lon="-3.32864">
        <ele>3095</ele>
        <time>2021-08-06 13:40:53</time>
      </trkpt>
      <trkpt lat="37.0559" lon="-3.32865">
        <ele>3095</ele>
        <time>2021-08-06 13:40:54</time>
      </trkpt>
      <trkpt lat="37.0559" lon="-3.32866">
        <ele>3095</ele>
        <time>2021-08-06 13:40:55</time>
      </trkpt>
      <trkpt lat="37.05591" lon="-3.32866">
        <ele>3095.2</ele>
        <time>2021-08-06 13:40:56</time>
      </trkpt>
      <trkpt lat="37.05591" lon="-3.32867">
        <ele>3095.2</ele>
        <time>2021-08-06 13:40:57</time>
      </trkpt>
      <trkpt lat="37.05591" lon="-3.32869">
        <ele>3095.2</ele>
        <time>2021-08-06 13:40:58</time>
      </trkpt>
      <trkpt lat="37.05592" lon="-3.32869">
        <ele>3095.2</ele>
        <time>2021-08-06 13:40:59</time>
      </trkpt>
      <trkpt lat="37.05593" lon="-3.32869">
        <ele>3095.2</ele>
        <time>2021-08-06 13:41:00</time>
      </trkpt>
      <trkpt lat="37.05594" lon="-3.32868">
        <ele>3095.2</ele>
        <time>2021-08-06 13:41:01</time>
      </trkpt>
      <trkpt lat="37.05593" lon="-3.32869">
        <ele>3095.4</ele>
        <time>2021-08-06 13:41:02</time>
      </trkpt>
      <trkpt lat="37.05594" lon="-3.32869">
        <ele>3095.4</ele>
        <time>2021-08-06 13:41:03</time>
      </trkpt>
      <trkpt lat="37.05593" lon="-3.3287">
        <ele>3095.6</ele>
        <time>2021-08-06 13:41:04</time>
      </trkpt>
      <trkpt lat="37.05593" lon="-3.32871">
        <ele>3095.6</ele>
        <time>2021-08-06 13:41:05</time>
      </trkpt>
      <trkpt lat="37.05593" lon="-3.32872">
        <ele>3095.8</ele>
        <time>2021-08-06 13:41:06</time>
      </trkpt>
      <trkpt lat="37.05592" lon="-3.32873">
        <ele>3095.8</ele>
        <time>2021-08-06 13:41:07</time>
      </trkpt>
      <trkpt lat="37.05593" lon="-3.32874">
        <ele>3096</ele>
        <time>2021-08-06 13:41:08</time>
      </trkpt>
      <trkpt lat="37.05593" lon="-3.32874">
        <ele>3096.2</ele>
        <time>2021-08-06 13:41:09</time>
      </trkpt>
      <trkpt lat="37.05595" lon="-3.32874">
        <ele>3096.2</ele>
        <time>2021-08-06 13:41:10</time>
      </trkpt>
      <trkpt lat="37.05595" lon="-3.32875">
        <ele>3096.4</ele>
        <time>2021-08-06 13:41:11</time>
      </trkpt>
      <trkpt lat="37.05595" lon="-3.32876">
        <ele>3096.4</ele>
        <time>2021-08-06 13:41:12</time>
      </trkpt>
      <trkpt lat="37.05594" lon="-3.32877">
        <ele>3096.8</ele>
        <time>2021-08-06 13:41:13</time>
      </trkpt>
      <trkpt lat="37.05594" lon="-3.32877">
        <ele>3097</ele>
        <time>2021-08-06 13:41:14</time>
      </trkpt>
      <trkpt lat="37.05593" lon="-3.32878">
        <ele>3097</ele>
        <time>2021-08-06 13:41:15</time>
      </trkpt>
      <trkpt lat="37.05593" lon="-3.32879">
        <ele>3097</ele>
        <time>2021-08-06 13:41:16</time>
      </trkpt>
      <trkpt lat="37.05593" lon="-3.3288">
        <ele>3097.2</ele>
        <time>2021-08-06 13:41:17</time>
      </trkpt>
      <trkpt lat="37.05593" lon="-3.32881">
        <ele>3097.6</ele>
        <time>2021-08-06 13:41:18</time>
      </trkpt>
      <trkpt lat="37.05593" lon="-3.32882">
        <ele>3098</ele>
        <time>2021-08-06 13:41:19</time>
      </trkpt>
      <trkpt lat="37.05593" lon="-3.32882">
        <ele>3098.2</ele>
        <time>2021-08-06 13:41:20</time>
      </trkpt>
      <trkpt lat="37.05593" lon="-3.32883">
        <ele>3098.2</ele>
        <time>2021-08-06 13:41:21</time>
      </trkpt>
      <trkpt lat="37.05593" lon="-3.32884">
        <ele>3098.2</ele>
        <time>2021-08-06 13:41:22</time>
      </trkpt>
      <trkpt lat="37.05593" lon="-3.32884">
        <ele>3098.2</ele>
        <time>2021-08-06 13:41:23</time>
      </trkpt>
      <trkpt lat="37.05593" lon="-3.32885">
        <ele>3098</ele>
        <time>2021-08-06 13:41:24</time>
      </trkpt>
      <trkpt lat="37.05593" lon="-3.32885">
        <ele>3098</ele>
        <time>2021-08-06 13:41:25</time>
      </trkpt>
      <trkpt lat="37.05594" lon="-3.32886">
        <ele>3097.8</ele>
        <time>2021-08-06 13:41:26</time>
      </trkpt>
      <trkpt lat="37.05593" lon="-3.32887">
        <ele>3098</ele>
        <time>2021-08-06 13:41:27</time>
      </trkpt>
      <trkpt lat="37.05593" lon="-3.32888">
        <ele>3097.8</ele>
        <time>2021-08-06 13:41:28</time>
      </trkpt>
      <trkpt lat="37.05593" lon="-3.32889">
        <ele>3097.8</ele>
        <time>2021-08-06 13:41:29</time>
      </trkpt>
      <trkpt lat="37.05593" lon="-3.32889">
        <ele>3098</ele>
        <time>2021-08-06 13:41:30</time>
      </trkpt>
      <trkpt lat="37.05593" lon="-3.3289">
        <ele>3098.2</ele>
        <time>2021-08-06 13:41:31</time>
      </trkpt>
      <trkpt lat="37.05593" lon="-3.32891">
        <ele>3098.4</ele>
        <time>2021-08-06 13:41:32</time>
      </trkpt>
      <trkpt lat="37.05593" lon="-3.32893">
        <ele>3098.6</ele>
        <time>2021-08-06 13:41:33</time>
      </trkpt>
      <trkpt lat="37.05593" lon="-3.32893">
        <ele>3098.8</ele>
        <time>2021-08-06 13:41:34</time>
      </trkpt>
      <trkpt lat="37.05594" lon="-3.32894">
        <ele>3099</ele>
        <time>2021-08-06 13:41:35</time>
      </trkpt>
      <trkpt lat="37.05594" lon="-3.32894">
        <ele>3099</ele>
        <time>2021-08-06 13:41:36</time>
      </trkpt>
      <trkpt lat="37.05594" lon="-3.32895">
        <ele>3099</ele>
        <time>2021-08-06 13:41:37</time>
      </trkpt>
      <trkpt lat="37.05594" lon="-3.32896">
        <ele>3099.2</ele>
        <time>2021-08-06 13:41:38</time>
      </trkpt>
      <trkpt lat="37.05594" lon="-3.32896">
        <ele>3099.2</ele>
        <time>2021-08-06 13:41:39</time>
      </trkpt>
      <trkpt lat="37.05594" lon="-3.32897">
        <ele>3099.2</ele>
        <time>2021-08-06 13:41:40</time>
      </trkpt>
      <trkpt lat="37.05593" lon="-3.32897">
        <ele>3099</ele>
        <time>2021-08-06 13:41:41</time>
      </trkpt>
      <trkpt lat="37.05593" lon="-3.32898">
        <ele>3099</ele>
        <time>2021-08-06 13:41:42</time>
      </trkpt>
      <trkpt lat="37.05593" lon="-3.32899">
        <ele>3099</ele>
        <time>2021-08-06 13:41:43</time>
      </trkpt>
      <trkpt lat="37.05593" lon="-3.32899">
        <ele>3098.8</ele>
        <time>2021-08-06 13:41:44</time>
      </trkpt>
      <trkpt lat="37.05594" lon="-3.32899">
        <ele>3098.6</ele>
        <time>2021-08-06 13:41:45</time>
      </trkpt>
      <trkpt lat="37.05594" lon="-3.32899">
        <ele>3098.4</ele>
        <time>2021-08-06 13:41:46</time>
      </trkpt>
      <trkpt lat="37.05595" lon="-3.32899">
        <ele>3098.4</ele>
        <time>2021-08-06 13:41:47</time>
      </trkpt>
      <trkpt lat="37.05595" lon="-3.32899">
        <ele>3098.4</ele>
        <time>2021-08-06 13:41:48</time>
      </trkpt>
      <trkpt lat="37.05596" lon="-3.329">
        <ele>3098.2</ele>
        <time>2021-08-06 13:41:49</time>
      </trkpt>
      <trkpt lat="37.05596" lon="-3.329">
        <ele>3098.2</ele>
        <time>2021-08-06 13:41:50</time>
      </trkpt>
      <trkpt lat="37.05596" lon="-3.329">
        <ele>3098.2</ele>
        <time>2021-08-06 13:41:51</time>
      </trkpt>
      <trkpt lat="37.05597" lon="-3.32901">
        <ele>3098.2</ele>
        <time>2021-08-06 13:41:52</time>
      </trkpt>
      <trkpt lat="37.05597" lon="-3.32902">
        <ele>3098</ele>
        <time>2021-08-06 13:41:53</time>
      </trkpt>
      <trkpt lat="37.05597" lon="-3.32903">
        <ele>3098</ele>
        <time>2021-08-06 13:41:54</time>
      </trkpt>
      <trkpt lat="37.05597" lon="-3.32904">
        <ele>3098</ele>
        <time>2021-08-06 13:41:55</time>
      </trkpt>
      <trkpt lat="37.05597" lon="-3.32905">
        <ele>3098</ele>
        <time>2021-08-06 13:41:56</time>
      </trkpt>
      <trkpt lat="37.05597" lon="-3.32906">
        <ele>3098</ele>
        <time>2021-08-06 13:41:57</time>
      </trkpt>
      <trkpt lat="37.05598" lon="-3.32906">
        <ele>3098</ele>
        <time>2021-08-06 13:41:58</time>
      </trkpt>
      <trkpt lat="37.05599" lon="-3.32905">
        <ele>3097.8</ele>
        <time>2021-08-06 13:41:59</time>
      </trkpt>
      <trkpt lat="37.05599" lon="-3.32905">
        <ele>3097.8</ele>
        <time>2021-08-06 13:42:00</time>
      </trkpt>
      <trkpt lat="37.05598" lon="-3.32906">
        <ele>3097.8</ele>
        <time>2021-08-06 13:42:01</time>
      </trkpt>
      <trkpt lat="37.05598" lon="-3.32906">
        <ele>3097.8</ele>
        <time>2021-08-06 13:42:02</time>
      </trkpt>
      <trkpt lat="37.05597" lon="-3.32907">
        <ele>3097.8</ele>
        <time>2021-08-06 13:42:03</time>
      </trkpt>
      <trkpt lat="37.05598" lon="-3.32907">
        <ele>3097.8</ele>
        <time>2021-08-06 13:42:04</time>
      </trkpt>
      <trkpt lat="37.05598" lon="-3.32907">
        <ele>3097.8</ele>
        <time>2021-08-06 13:42:05</time>
      </trkpt>
      <trkpt lat="37.056" lon="-3.32905">
        <ele>3097.8</ele>
        <time>2021-08-06 13:42:06</time>
      </trkpt>
      <trkpt lat="37.056" lon="-3.32904">
        <ele>3097.8</ele>
        <time>2021-08-06 13:42:07</time>
      </trkpt>
      <trkpt lat="37.056" lon="-3.32904">
        <ele>3097.8</ele>
        <time>2021-08-06 13:42:08</time>
      </trkpt>
      <trkpt lat="37.056" lon="-3.32905">
        <ele>3097.8</ele>
        <time>2021-08-06 13:42:09</time>
      </trkpt>
      <trkpt lat="37.05599" lon="-3.32904">
        <ele>3097.8</ele>
        <time>2021-08-06 13:42:10</time>
      </trkpt>
      <trkpt lat="37.05599" lon="-3.32905">
        <ele>3097.6</ele>
        <time>2021-08-06 13:42:11</time>
      </trkpt>
      <trkpt lat="37.05599" lon="-3.32906">
        <ele>3097.8</ele>
        <time>2021-08-06 13:42:12</time>
      </trkpt>
      <trkpt lat="37.05598" lon="-3.32908">
        <ele>3097.6</ele>
        <time>2021-08-06 13:42:13</time>
      </trkpt>
      <trkpt lat="37.05597" lon="-3.3291">
        <ele>3097.6</ele>
        <time>2021-08-06 13:42:14</time>
      </trkpt>
      <trkpt lat="37.05597" lon="-3.3291">
        <ele>3097.6</ele>
        <time>2021-08-06 13:42:15</time>
      </trkpt>
      <trkpt lat="37.05598" lon="-3.3291">
        <ele>3097.8</ele>
        <time>2021-08-06 13:42:16</time>
      </trkpt>
      <trkpt lat="37.05598" lon="-3.32911">
        <ele>3097.8</ele>
        <time>2021-08-06 13:42:17</time>
      </trkpt>
      <trkpt lat="37.05597" lon="-3.32912">
        <ele>3097.8</ele>
        <time>2021-08-06 13:42:18</time>
      </trkpt>
      <trkpt lat="37.05597" lon="-3.32913">
        <ele>3097.8</ele>
        <time>2021-08-06 13:42:19</time>
      </trkpt>
      <trkpt lat="37.05597" lon="-3.32913">
        <ele>3098</ele>
        <time>2021-08-06 13:42:20</time>
      </trkpt>
      <trkpt lat="37.05598" lon="-3.32913">
        <ele>3098.4</ele>
        <time>2021-08-06 13:42:21</time>
      </trkpt>
      <trkpt lat="37.05598" lon="-3.32914">
        <ele>3098.6</ele>
        <time>2021-08-06 13:42:22</time>
      </trkpt>
      <trkpt lat="37.05598" lon="-3.32914">
        <ele>3098.6</ele>
        <time>2021-08-06 13:42:23</time>
      </trkpt>
      <trkpt lat="37.05598" lon="-3.32914">
        <ele>3098.6</ele>
        <time>2021-08-06 13:42:24</time>
      </trkpt>
      <trkpt lat="37.05599" lon="-3.32914">
        <ele>3098.8</ele>
        <time>2021-08-06 13:42:25</time>
      </trkpt>
      <trkpt lat="37.05599" lon="-3.32915">
        <ele>3098.8</ele>
        <time>2021-08-06 13:42:26</time>
      </trkpt>
      <trkpt lat="37.05599" lon="-3.32916">
        <ele>3099</ele>
        <time>2021-08-06 13:42:27</time>
      </trkpt>
      <trkpt lat="37.05599" lon="-3.32916">
        <ele>3099</ele>
        <time>2021-08-06 13:42:28</time>
      </trkpt>
      <trkpt lat="37.05599" lon="-3.32918">
        <ele>3099</ele>
        <time>2021-08-06 13:42:29</time>
      </trkpt>
      <trkpt lat="37.05598" lon="-3.3292">
        <ele>3099.2</ele>
        <time>2021-08-06 13:42:30</time>
      </trkpt>
      <trkpt lat="37.05598" lon="-3.32922">
        <ele>3099.2</ele>
        <time>2021-08-06 13:42:31</time>
      </trkpt>
      <trkpt lat="37.05598" lon="-3.32923">
        <ele>3099.2</ele>
        <time>2021-08-06 13:42:32</time>
      </trkpt>
      <trkpt lat="37.05599" lon="-3.32924">
        <ele>3099.2</ele>
        <time>2021-08-06 13:42:33</time>
      </trkpt>
      <trkpt lat="37.05599" lon="-3.32925">
        <ele>3099.2</ele>
        <time>2021-08-06 13:42:34</time>
      </trkpt>
      <trkpt lat="37.05598" lon="-3.32927">
        <ele>3099.4</ele>
        <time>2021-08-06 13:42:35</time>
      </trkpt>
      <trkpt lat="37.05597" lon="-3.32929">
        <ele>3099.6</ele>
        <time>2021-08-06 13:42:36</time>
      </trkpt>
      <trkpt lat="37.05597" lon="-3.3293">
        <ele>3099.8</ele>
        <time>2021-08-06 13:42:37</time>
      </trkpt>
      <trkpt lat="37.05597" lon="-3.32931">
        <ele>3100</ele>
        <time>2021-08-06 13:42:38</time>
      </trkpt>
      <trkpt lat="37.05597" lon="-3.32931">
        <ele>3100</ele>
        <time>2021-08-06 13:42:39</time>
      </trkpt>
      <trkpt lat="37.05597" lon="-3.32932">
        <ele>3100.4</ele>
        <time>2021-08-06 13:42:40</time>
      </trkpt>
      <trkpt lat="37.05597" lon="-3.32931">
        <ele>3100.4</ele>
        <time>2021-08-06 13:42:41</time>
      </trkpt>
      <trkpt lat="37.05597" lon="-3.32932">
        <ele>3100.6</ele>
        <time>2021-08-06 13:42:42</time>
      </trkpt>
      <trkpt lat="37.05597" lon="-3.32932">
        <ele>3100.6</ele>
        <time>2021-08-06 13:42:43</time>
      </trkpt>
      <trkpt lat="37.05597" lon="-3.32933">
        <ele>3100.6</ele>
        <time>2021-08-06 13:42:44</time>
      </trkpt>
      <trkpt lat="37.05598" lon="-3.32934">
        <ele>3100.6</ele>
        <time>2021-08-06 13:42:45</time>
      </trkpt>
      <trkpt lat="37.05598" lon="-3.32935">
        <ele>3100.6</ele>
        <time>2021-08-06 13:42:46</time>
      </trkpt>
      <trkpt lat="37.05598" lon="-3.32936">
        <ele>3100.6</ele>
        <time>2021-08-06 13:42:47</time>
      </trkpt>
      <trkpt lat="37.05598" lon="-3.32937">
        <ele>3100.4</ele>
        <time>2021-08-06 13:42:48</time>
      </trkpt>
      <trkpt lat="37.05598" lon="-3.32938">
        <ele>3100.6</ele>
        <time>2021-08-06 13:42:49</time>
      </trkpt>
      <trkpt lat="37.05598" lon="-3.32939">
        <ele>3100.6</ele>
        <time>2021-08-06 13:42:50</time>
      </trkpt>
      <trkpt lat="37.05598" lon="-3.3294">
        <ele>3100.8</ele>
        <time>2021-08-06 13:42:51</time>
      </trkpt>
      <trkpt lat="37.05598" lon="-3.3294">
        <ele>3101</ele>
        <time>2021-08-06 13:42:52</time>
      </trkpt>
      <trkpt lat="37.05598" lon="-3.32941">
        <ele>3101.2</ele>
        <time>2021-08-06 13:42:53</time>
      </trkpt>
      <trkpt lat="37.05598" lon="-3.32942">
        <ele>3101.2</ele>
        <time>2021-08-06 13:42:54</time>
      </trkpt>
      <trkpt lat="37.05598" lon="-3.32942">
        <ele>3101.4</ele>
        <time>2021-08-06 13:42:55</time>
      </trkpt>
      <trkpt lat="37.05598" lon="-3.32942">
        <ele>3101.4</ele>
        <time>2021-08-06 13:42:56</time>
      </trkpt>
      <trkpt lat="37.05598" lon="-3.32942">
        <ele>3101.4</ele>
        <time>2021-08-06 13:42:57</time>
      </trkpt>
      <trkpt lat="37.05598" lon="-3.32942">
        <ele>3101.4</ele>
        <time>2021-08-06 13:42:58</time>
      </trkpt>
      <trkpt lat="37.05598" lon="-3.32943">
        <ele>3101.4</ele>
        <time>2021-08-06 13:42:59</time>
      </trkpt>
      <trkpt lat="37.05598" lon="-3.32944">
        <ele>3101.6</ele>
        <time>2021-08-06 13:43:00</time>
      </trkpt>
      <trkpt lat="37.05597" lon="-3.32946">
        <ele>3101.6</ele>
        <time>2021-08-06 13:43:01</time>
      </trkpt>
      <trkpt lat="37.05597" lon="-3.32947">
        <ele>3101.6</ele>
        <time>2021-08-06 13:43:02</time>
      </trkpt>
      <trkpt lat="37.05598" lon="-3.32947">
        <ele>3101.6</ele>
        <time>2021-08-06 13:43:03</time>
      </trkpt>
      <trkpt lat="37.05599" lon="-3.32947">
        <ele>3101.6</ele>
        <time>2021-08-06 13:43:04</time>
      </trkpt>
      <trkpt lat="37.05599" lon="-3.32947">
        <ele>3101.6</ele>
        <time>2021-08-06 13:43:05</time>
      </trkpt>
      <trkpt lat="37.05599" lon="-3.32948">
        <ele>3102</ele>
        <time>2021-08-06 13:43:06</time>
      </trkpt>
      <trkpt lat="37.05599" lon="-3.32949">
        <ele>3102</ele>
        <time>2021-08-06 13:43:07</time>
      </trkpt>
      <trkpt lat="37.05599" lon="-3.3295">
        <ele>3102</ele>
        <time>2021-08-06 13:43:08</time>
      </trkpt>
      <trkpt lat="37.05599" lon="-3.32951">
        <ele>3102</ele>
        <time>2021-08-06 13:43:09</time>
      </trkpt>
      <trkpt lat="37.05599" lon="-3.32952">
        <ele>3102</ele>
        <time>2021-08-06 13:43:10</time>
      </trkpt>
      <trkpt lat="37.05599" lon="-3.32953">
        <ele>3102</ele>
        <time>2021-08-06 13:43:11</time>
      </trkpt>
      <trkpt lat="37.05599" lon="-3.32954">
        <ele>3102.4</ele>
        <time>2021-08-06 13:43:12</time>
      </trkpt>
      <trkpt lat="37.05599" lon="-3.32956">
        <ele>3102.6</ele>
        <time>2021-08-06 13:43:13</time>
      </trkpt>
      <trkpt lat="37.05599" lon="-3.32956">
        <ele>3102.8</ele>
        <time>2021-08-06 13:43:14</time>
      </trkpt>
      <trkpt lat="37.05599" lon="-3.32957">
        <ele>3102.8</ele>
        <time>2021-08-06 13:43:15</time>
      </trkpt>
      <trkpt lat="37.056" lon="-3.32957">
        <ele>3103</ele>
        <time>2021-08-06 13:43:16</time>
      </trkpt>
      <trkpt lat="37.056" lon="-3.32959">
        <ele>3103</ele>
        <time>2021-08-06 13:43:17</time>
      </trkpt>
      <trkpt lat="37.056" lon="-3.3296">
        <ele>3103</ele>
        <time>2021-08-06 13:43:18</time>
      </trkpt>
      <trkpt lat="37.056" lon="-3.32962">
        <ele>3103.2</ele>
        <time>2021-08-06 13:43:19</time>
      </trkpt>
      <trkpt lat="37.056" lon="-3.32963">
        <ele>3103.2</ele>
        <time>2021-08-06 13:43:20</time>
      </trkpt>
      <trkpt lat="37.056" lon="-3.32964">
        <ele>3103.2</ele>
        <time>2021-08-06 13:43:21</time>
      </trkpt>
      <trkpt lat="37.05601" lon="-3.32965">
        <ele>3103.6</ele>
        <time>2021-08-06 13:43:22</time>
      </trkpt>
      <trkpt lat="37.05601" lon="-3.32966">
        <ele>3104</ele>
        <time>2021-08-06 13:43:23</time>
      </trkpt>
      <trkpt lat="37.05602" lon="-3.32966">
        <ele>3104.2</ele>
        <time>2021-08-06 13:43:24</time>
      </trkpt>
      <trkpt lat="37.05602" lon="-3.32966">
        <ele>3104.2</ele>
        <time>2021-08-06 13:43:25</time>
      </trkpt>
      <trkpt lat="37.05603" lon="-3.32967">
        <ele>3104.4</ele>
        <time>2021-08-06 13:43:26</time>
      </trkpt>
      <trkpt lat="37.05603" lon="-3.32968">
        <ele>3104.4</ele>
        <time>2021-08-06 13:43:27</time>
      </trkpt>
      <trkpt lat="37.05603" lon="-3.32968">
        <ele>3104.4</ele>
        <time>2021-08-06 13:43:28</time>
      </trkpt>
      <trkpt lat="37.05603" lon="-3.32969">
        <ele>3104.4</ele>
        <time>2021-08-06 13:43:29</time>
      </trkpt>
      <trkpt lat="37.05603" lon="-3.3297">
        <ele>3104.4</ele>
        <time>2021-08-06 13:43:30</time>
      </trkpt>
      <trkpt lat="37.05602" lon="-3.32972">
        <ele>3104.4</ele>
        <time>2021-08-06 13:43:31</time>
      </trkpt>
      <trkpt lat="37.05603" lon="-3.32973">
        <ele>3104.4</ele>
        <time>2021-08-06 13:43:32</time>
      </trkpt>
      <trkpt lat="37.05602" lon="-3.32973">
        <ele>3104.4</ele>
        <time>2021-08-06 13:43:33</time>
      </trkpt>
      <trkpt lat="37.05603" lon="-3.32974">
        <ele>3104.6</ele>
        <time>2021-08-06 13:43:34</time>
      </trkpt>
      <trkpt lat="37.05603" lon="-3.32975">
        <ele>3104.6</ele>
        <time>2021-08-06 13:43:35</time>
      </trkpt>
      <trkpt lat="37.05603" lon="-3.32976">
        <ele>3104.6</ele>
        <time>2021-08-06 13:43:36</time>
      </trkpt>
      <trkpt lat="37.05603" lon="-3.32977">
        <ele>3104.8</ele>
        <time>2021-08-06 13:43:37</time>
      </trkpt>
      <trkpt lat="37.05603" lon="-3.32978">
        <ele>3104.8</ele>
        <time>2021-08-06 13:43:38</time>
      </trkpt>
      <trkpt lat="37.05603" lon="-3.3298">
        <ele>3104.8</ele>
        <time>2021-08-06 13:43:39</time>
      </trkpt>
      <trkpt lat="37.05603" lon="-3.32981">
        <ele>3105</ele>
        <time>2021-08-06 13:43:40</time>
      </trkpt>
      <trkpt lat="37.05602" lon="-3.32983">
        <ele>3105</ele>
        <time>2021-08-06 13:43:41</time>
      </trkpt>
      <trkpt lat="37.05603" lon="-3.32983">
        <ele>3105</ele>
        <time>2021-08-06 13:43:42</time>
      </trkpt>
      <trkpt lat="37.05602" lon="-3.32984">
        <ele>3105</ele>
        <time>2021-08-06 13:43:43</time>
      </trkpt>
      <trkpt lat="37.05602" lon="-3.32986">
        <ele>3105.2</ele>
        <time>2021-08-06 13:43:44</time>
      </trkpt>
      <trkpt lat="37.05602" lon="-3.32986">
        <ele>3105.4</ele>
        <time>2021-08-06 13:43:45</time>
      </trkpt>
      <trkpt lat="37.05602" lon="-3.32987">
        <ele>3105.4</ele>
        <time>2021-08-06 13:43:46</time>
      </trkpt>
      <trkpt lat="37.05602" lon="-3.32988">
        <ele>3105.4</ele>
        <time>2021-08-06 13:43:47</time>
      </trkpt>
      <trkpt lat="37.05602" lon="-3.32989">
        <ele>3105.6</ele>
        <time>2021-08-06 13:43:48</time>
      </trkpt>
      <trkpt lat="37.05602" lon="-3.3299">
        <ele>3105.8</ele>
        <time>2021-08-06 13:43:49</time>
      </trkpt>
      <trkpt lat="37.05601" lon="-3.32991">
        <ele>3106</ele>
        <time>2021-08-06 13:43:50</time>
      </trkpt>
      <trkpt lat="37.05601" lon="-3.32992">
        <ele>3106</ele>
        <time>2021-08-06 13:43:51</time>
      </trkpt>
      <trkpt lat="37.05601" lon="-3.32992">
        <ele>3106.2</ele>
        <time>2021-08-06 13:43:52</time>
      </trkpt>
      <trkpt lat="37.05601" lon="-3.32993">
        <ele>3106.4</ele>
        <time>2021-08-06 13:43:53</time>
      </trkpt>
      <trkpt lat="37.05601" lon="-3.32993">
        <ele>3106.4</ele>
        <time>2021-08-06 13:43:54</time>
      </trkpt>
      <trkpt lat="37.05601" lon="-3.32994">
        <ele>3106.4</ele>
        <time>2021-08-06 13:43:55</time>
      </trkpt>
      <trkpt lat="37.05601" lon="-3.32995">
        <ele>3106.8</ele>
        <time>2021-08-06 13:43:56</time>
      </trkpt>
      <trkpt lat="37.05602" lon="-3.32995">
        <ele>3107</ele>
        <time>2021-08-06 13:43:57</time>
      </trkpt>
      <trkpt lat="37.05602" lon="-3.32995">
        <ele>3107.4</ele>
        <time>2021-08-06 13:43:58</time>
      </trkpt>
      <trkpt lat="37.05602" lon="-3.32995">
        <ele>3107.4</ele>
        <time>2021-08-06 13:43:59</time>
      </trkpt>
      <trkpt lat="37.05602" lon="-3.32996">
        <ele>3107.6</ele>
        <time>2021-08-06 13:44:00</time>
      </trkpt>
      <trkpt lat="37.05603" lon="-3.32996">
        <ele>3107.8</ele>
        <time>2021-08-06 13:44:01</time>
      </trkpt>
      <trkpt lat="37.05603" lon="-3.32997">
        <ele>3108</ele>
        <time>2021-08-06 13:44:02</time>
      </trkpt>
      <trkpt lat="37.05603" lon="-3.32998">
        <ele>3108.4</ele>
        <time>2021-08-06 13:44:03</time>
      </trkpt>
      <trkpt lat="37.05604" lon="-3.32998">
        <ele>3108.6</ele>
        <time>2021-08-06 13:44:04</time>
      </trkpt>
      <trkpt lat="37.05604" lon="-3.32999">
        <ele>3108.6</ele>
        <time>2021-08-06 13:44:05</time>
      </trkpt>
      <trkpt lat="37.05604" lon="-3.32999">
        <ele>3108.8</ele>
        <time>2021-08-06 13:44:06</time>
      </trkpt>
      <trkpt lat="37.05604" lon="-3.32999">
        <ele>3109</ele>
        <time>2021-08-06 13:44:07</time>
      </trkpt>
      <trkpt lat="37.05604" lon="-3.32999">
        <ele>3109</ele>
        <time>2021-08-06 13:44:08</time>
      </trkpt>
      <trkpt lat="37.05604" lon="-3.33">
        <ele>3109</ele>
        <time>2021-08-06 13:44:09</time>
      </trkpt>
      <trkpt lat="37.05603" lon="-3.33001">
        <ele>3109</ele>
        <time>2021-08-06 13:44:10</time>
      </trkpt>
      <trkpt lat="37.05604" lon="-3.33002">
        <ele>3109</ele>
        <time>2021-08-06 13:44:11</time>
      </trkpt>
      <trkpt lat="37.05603" lon="-3.33003">
        <ele>3109</ele>
        <time>2021-08-06 13:44:12</time>
      </trkpt>
      <trkpt lat="37.05603" lon="-3.33004">
        <ele>3109</ele>
        <time>2021-08-06 13:44:13</time>
      </trkpt>
      <trkpt lat="37.05602" lon="-3.33004">
        <ele>3109</ele>
        <time>2021-08-06 13:44:14</time>
      </trkpt>
      <trkpt lat="37.05602" lon="-3.33004">
        <ele>3109</ele>
        <time>2021-08-06 13:44:15</time>
      </trkpt>
      <trkpt lat="37.05603" lon="-3.33004">
        <ele>3109</ele>
        <time>2021-08-06 13:44:16</time>
      </trkpt>
      <trkpt lat="37.05603" lon="-3.33004">
        <ele>3109</ele>
        <time>2021-08-06 13:44:17</time>
      </trkpt>
      <trkpt lat="37.05602" lon="-3.33005">
        <ele>3109</ele>
        <time>2021-08-06 13:44:18</time>
      </trkpt>
      <trkpt lat="37.05602" lon="-3.33005">
        <ele>3109</ele>
        <time>2021-08-06 13:44:19</time>
      </trkpt>
      <trkpt lat="37.05601" lon="-3.33006">
        <ele>3109</ele>
        <time>2021-08-06 13:44:20</time>
      </trkpt>
      <trkpt lat="37.05601" lon="-3.33006">
        <ele>3109.2</ele>
        <time>2021-08-06 13:44:21</time>
      </trkpt>
      <trkpt lat="37.05601" lon="-3.33006">
        <ele>3109.2</ele>
        <time>2021-08-06 13:44:22</time>
      </trkpt>
      <trkpt lat="37.05601" lon="-3.33007">
        <ele>3109.2</ele>
        <time>2021-08-06 13:44:23</time>
      </trkpt>
      <trkpt lat="37.05601" lon="-3.33007">
        <ele>3109.6</ele>
        <time>2021-08-06 13:44:24</time>
      </trkpt>
      <trkpt lat="37.05602" lon="-3.33007">
        <ele>3109.8</ele>
        <time>2021-08-06 13:44:25</time>
      </trkpt>
      <trkpt lat="37.05603" lon="-3.33007">
        <ele>3109.8</ele>
        <time>2021-08-06 13:44:26</time>
      </trkpt>
      <trkpt lat="37.05603" lon="-3.33007">
        <ele>3109.8</ele>
        <time>2021-08-06 13:44:27</time>
      </trkpt>
      <trkpt lat="37.05603" lon="-3.33007">
        <ele>3110</ele>
        <time>2021-08-06 13:44:28</time>
      </trkpt>
      <trkpt lat="37.05603" lon="-3.33008">
        <ele>3110</ele>
        <time>2021-08-06 13:44:29</time>
      </trkpt>
      <trkpt lat="37.05603" lon="-3.33009">
        <ele>3110.6</ele>
        <time>2021-08-06 13:44:30</time>
      </trkpt>
      <trkpt lat="37.05603" lon="-3.3301">
        <ele>3110.8</ele>
        <time>2021-08-06 13:44:31</time>
      </trkpt>
      <trkpt lat="37.05603" lon="-3.33011">
        <ele>3111.2</ele>
        <time>2021-08-06 13:44:32</time>
      </trkpt>
      <trkpt lat="37.05603" lon="-3.33012">
        <ele>3111.6</ele>
        <time>2021-08-06 13:44:33</time>
      </trkpt>
      <trkpt lat="37.05603" lon="-3.33013">
        <ele>3111.8</ele>
        <time>2021-08-06 13:44:34</time>
      </trkpt>
      <trkpt lat="37.05603" lon="-3.33014">
        <ele>3111.8</ele>
        <time>2021-08-06 13:44:35</time>
      </trkpt>
      <trkpt lat="37.05603" lon="-3.33014">
        <ele>3112</ele>
        <time>2021-08-06 13:44:36</time>
      </trkpt>
      <trkpt lat="37.05602" lon="-3.33015">
        <ele>3112.2</ele>
        <time>2021-08-06 13:44:37</time>
      </trkpt>
      <trkpt lat="37.05601" lon="-3.33016">
        <ele>3112.4</ele>
        <time>2021-08-06 13:44:38</time>
      </trkpt>
      <trkpt lat="37.05601" lon="-3.33017">
        <ele>3112.6</ele>
        <time>2021-08-06 13:44:39</time>
      </trkpt>
      <trkpt lat="37.056" lon="-3.33018">
        <ele>3112.6</ele>
        <time>2021-08-06 13:44:40</time>
      </trkpt>
      <trkpt lat="37.056" lon="-3.33018">
        <ele>3112.6</ele>
        <time>2021-08-06 13:44:41</time>
      </trkpt>
      <trkpt lat="37.056" lon="-3.33019">
        <ele>3112.6</ele>
        <time>2021-08-06 13:44:42</time>
      </trkpt>
      <trkpt lat="37.056" lon="-3.33019">
        <ele>3112.6</ele>
        <time>2021-08-06 13:44:43</time>
      </trkpt>
      <trkpt lat="37.056" lon="-3.33019">
        <ele>3112.8</ele>
        <time>2021-08-06 13:44:44</time>
      </trkpt>
      <trkpt lat="37.056" lon="-3.33019">
        <ele>3112.8</ele>
        <time>2021-08-06 13:44:45</time>
      </trkpt>
      <trkpt lat="37.05599" lon="-3.33018">
        <ele>3113</ele>
        <time>2021-08-06 13:44:46</time>
      </trkpt>
      <trkpt lat="37.05599" lon="-3.33018">
        <ele>3113</ele>
        <time>2021-08-06 13:44:47</time>
      </trkpt>
      <trkpt lat="37.05599" lon="-3.33018">
        <ele>3113.2</ele>
        <time>2021-08-06 13:44:48</time>
      </trkpt>
      <trkpt lat="37.05599" lon="-3.33017">
        <ele>3113.2</ele>
        <time>2021-08-06 13:44:49</time>
      </trkpt>
      <trkpt lat="37.05599" lon="-3.33018">
        <ele>3113.2</ele>
        <time>2021-08-06 13:44:50</time>
      </trkpt>
      <trkpt lat="37.05599" lon="-3.33018">
        <ele>3113.2</ele>
        <time>2021-08-06 13:44:51</time>
      </trkpt>
      <trkpt lat="37.056" lon="-3.33018">
        <ele>3113.2</ele>
        <time>2021-08-06 13:44:52</time>
      </trkpt>
      <trkpt lat="37.056" lon="-3.33018">
        <ele>3113</ele>
        <time>2021-08-06 13:44:53</time>
      </trkpt>
      <trkpt lat="37.056" lon="-3.33018">
        <ele>3113</ele>
        <time>2021-08-06 13:44:54</time>
      </trkpt>
      <trkpt lat="37.056" lon="-3.33019">
        <ele>3113</ele>
        <time>2021-08-06 13:44:55</time>
      </trkpt>
      <trkpt lat="37.056" lon="-3.33019">
        <ele>3112.8</ele>
        <time>2021-08-06 13:44:56</time>
      </trkpt>
      <trkpt lat="37.056" lon="-3.3302">
        <ele>3113.2</ele>
        <time>2021-08-06 13:44:57</time>
      </trkpt>
      <trkpt lat="37.056" lon="-3.33021">
        <ele>3113.4</ele>
        <time>2021-08-06 13:44:58</time>
      </trkpt>
      <trkpt lat="37.056" lon="-3.33022">
        <ele>3113.8</ele>
        <time>2021-08-06 13:44:59</time>
      </trkpt>
      <trkpt lat="37.056" lon="-3.33023">
        <ele>3114</ele>
        <time>2021-08-06 13:45:00</time>
      </trkpt>
      <trkpt lat="37.056" lon="-3.33023">
        <ele>3114</ele>
        <time>2021-08-06 13:45:01</time>
      </trkpt>
      <trkpt lat="37.056" lon="-3.33024">
        <ele>3114</ele>
        <time>2021-08-06 13:45:02</time>
      </trkpt>
      <trkpt lat="37.05601" lon="-3.33025">
        <ele>3114</ele>
        <time>2021-08-06 13:45:03</time>
      </trkpt>
      <trkpt lat="37.05601" lon="-3.33026">
        <ele>3113.8</ele>
        <time>2021-08-06 13:45:04</time>
      </trkpt>
      <trkpt lat="37.05602" lon="-3.33027">
        <ele>3113.8</ele>
        <time>2021-08-06 13:45:05</time>
      </trkpt>
      <trkpt lat="37.05602" lon="-3.33028">
        <ele>3113.8</ele>
        <time>2021-08-06 13:45:06</time>
      </trkpt>
      <trkpt lat="37.05602" lon="-3.33029">
        <ele>3113.8</ele>
        <time>2021-08-06 13:45:07</time>
      </trkpt>
      <trkpt lat="37.05601" lon="-3.33029">
        <ele>3114</ele>
        <time>2021-08-06 13:45:08</time>
      </trkpt>
      <trkpt lat="37.05601" lon="-3.3303">
        <ele>3114</ele>
        <time>2021-08-06 13:45:09</time>
      </trkpt>
      <trkpt lat="37.05601" lon="-3.3303">
        <ele>3114.2</ele>
        <time>2021-08-06 13:45:10</time>
      </trkpt>
      <trkpt lat="37.05601" lon="-3.3303">
        <ele>3114.4</ele>
        <time>2021-08-06 13:45:11</time>
      </trkpt>
      <trkpt lat="37.05601" lon="-3.3303">
        <ele>3114.4</ele>
        <time>2021-08-06 13:45:12</time>
      </trkpt>
      <trkpt lat="37.05602" lon="-3.3303">
        <ele>3114.6</ele>
        <time>2021-08-06 13:45:13</time>
      </trkpt>
      <trkpt lat="37.05603" lon="-3.3303">
        <ele>3114.6</ele>
        <time>2021-08-06 13:45:14</time>
      </trkpt>
      <trkpt lat="37.05604" lon="-3.33031">
        <ele>3114.6</ele>
        <time>2021-08-06 13:45:15</time>
      </trkpt>
      <trkpt lat="37.05606" lon="-3.33031">
        <ele>3114.6</ele>
        <time>2021-08-06 13:45:16</time>
      </trkpt>
      <trkpt lat="37.05607" lon="-3.33031">
        <ele>3114.6</ele>
        <time>2021-08-06 13:45:17</time>
      </trkpt>
      <trkpt lat="37.05607" lon="-3.33031">
        <ele>3114.6</ele>
        <time>2021-08-06 13:45:18</time>
      </trkpt>
      <trkpt lat="37.05608" lon="-3.33031">
        <ele>3114.4</ele>
        <time>2021-08-06 13:45:19</time>
      </trkpt>
      <trkpt lat="37.05609" lon="-3.33032">
        <ele>3114.4</ele>
        <time>2021-08-06 13:45:20</time>
      </trkpt>
      <trkpt lat="37.05611" lon="-3.33034">
        <ele>3114.4</ele>
        <time>2021-08-06 13:45:21</time>
      </trkpt>
      <trkpt lat="37.05611" lon="-3.33034">
        <ele>3114.6</ele>
        <time>2021-08-06 13:45:22</time>
      </trkpt>
      <trkpt lat="37.05612" lon="-3.33035">
        <ele>3114.8</ele>
        <time>2021-08-06 13:45:23</time>
      </trkpt>
      <trkpt lat="37.05613" lon="-3.33037">
        <ele>3114.8</ele>
        <time>2021-08-06 13:45:24</time>
      </trkpt>
      <trkpt lat="37.05612" lon="-3.33038">
        <ele>3115</ele>
        <time>2021-08-06 13:45:25</time>
      </trkpt>
      <trkpt lat="37.0561" lon="-3.33038">
        <ele>3115.2</ele>
        <time>2021-08-06 13:45:26</time>
      </trkpt>
      <trkpt lat="37.0561" lon="-3.33039">
        <ele>3115.4</ele>
        <time>2021-08-06 13:45:27</time>
      </trkpt>
      <trkpt lat="37.05609" lon="-3.3304">
        <ele>3115.4</ele>
        <time>2021-08-06 13:45:28</time>
      </trkpt>
      <trkpt lat="37.05608" lon="-3.33041">
        <ele>3115.4</ele>
        <time>2021-08-06 13:45:29</time>
      </trkpt>
      <trkpt lat="37.05608" lon="-3.33041">
        <ele>3115.4</ele>
        <time>2021-08-06 13:45:30</time>
      </trkpt>
      <trkpt lat="37.05606" lon="-3.33042">
        <ele>3115.8</ele>
        <time>2021-08-06 13:45:31</time>
      </trkpt>
      <trkpt lat="37.05606" lon="-3.33042">
        <ele>3116</ele>
        <time>2021-08-06 13:45:32</time>
      </trkpt>
      <trkpt lat="37.05605" lon="-3.33043">
        <ele>3116.2</ele>
        <time>2021-08-06 13:45:33</time>
      </trkpt>
      <trkpt lat="37.05604" lon="-3.33043">
        <ele>3116.2</ele>
        <time>2021-08-06 13:45:34</time>
      </trkpt>
      <trkpt lat="37.05603" lon="-3.33043">
        <ele>3116.2</ele>
        <time>2021-08-06 13:45:35</time>
      </trkpt>
      <trkpt lat="37.05603" lon="-3.33042">
        <ele>3116.4</ele>
        <time>2021-08-06 13:45:36</time>
      </trkpt>
      <trkpt lat="37.05603" lon="-3.33042">
        <ele>3116.2</ele>
        <time>2021-08-06 13:45:37</time>
      </trkpt>
      <trkpt lat="37.05603" lon="-3.33041">
        <ele>3116</ele>
        <time>2021-08-06 13:45:38</time>
      </trkpt>
      <trkpt lat="37.05602" lon="-3.33041">
        <ele>3115.8</ele>
        <time>2021-08-06 13:45:39</time>
      </trkpt>
      <trkpt lat="37.05602" lon="-3.33042">
        <ele>3115.6</ele>
        <time>2021-08-06 13:45:40</time>
      </trkpt>
      <trkpt lat="37.05602" lon="-3.33042">
        <ele>3115.4</ele>
        <time>2021-08-06 13:45:41</time>
      </trkpt>
      <trkpt lat="37.05601" lon="-3.33043">
        <ele>3115.4</ele>
        <time>2021-08-06 13:45:42</time>
      </trkpt>
      <trkpt lat="37.05601" lon="-3.33043">
        <ele>3115.4</ele>
        <time>2021-08-06 13:45:43</time>
      </trkpt>
      <trkpt lat="37.05602" lon="-3.33041">
        <ele>3115.4</ele>
        <time>2021-08-06 13:45:44</time>
      </trkpt>
      <trkpt lat="37.056" lon="-3.33042">
        <ele>3115.4</ele>
        <time>2021-08-06 13:45:45</time>
      </trkpt>
      <trkpt lat="37.05599" lon="-3.33042">
        <ele>3115.4</ele>
        <time>2021-08-06 13:45:46</time>
      </trkpt>
      <trkpt lat="37.05588" lon="-3.33044">
        <ele>3115.4</ele>
        <time>2021-08-06 13:45:47</time>
      </trkpt>
      <trkpt lat="37.05587" lon="-3.33044">
        <ele>3115.4</ele>
        <time>2021-08-06 13:45:48</time>
      </trkpt>
      <trkpt lat="37.05586" lon="-3.33045">
        <ele>3115.4</ele>
        <time>2021-08-06 13:45:49</time>
      </trkpt>
      <trkpt lat="37.05586" lon="-3.33045">
        <ele>3115.6</ele>
        <time>2021-08-06 13:45:50</time>
      </trkpt>
      <trkpt lat="37.0558" lon="-3.33047">
        <ele>3115.6</ele>
        <time>2021-08-06 13:45:51</time>
      </trkpt>
      <trkpt lat="37.05577" lon="-3.33047">
        <ele>3115.8</ele>
        <time>2021-08-06 13:45:52</time>
      </trkpt>
      <trkpt lat="37.05578" lon="-3.33046">
        <ele>3115.8</ele>
        <time>2021-08-06 13:45:53</time>
      </trkpt>
      <trkpt lat="37.0558" lon="-3.33046">
        <ele>3116</ele>
        <time>2021-08-06 13:45:54</time>
      </trkpt>
      <trkpt lat="37.05581" lon="-3.33045">
        <ele>3116.2</ele>
        <time>2021-08-06 13:45:55</time>
      </trkpt>
      <trkpt lat="37.05581" lon="-3.33044">
        <ele>3116.4</ele>
        <time>2021-08-06 13:45:56</time>
      </trkpt>
      <trkpt lat="37.0558" lon="-3.33046">
        <ele>3116.4</ele>
        <time>2021-08-06 13:45:57</time>
      </trkpt>
      <trkpt lat="37.05577" lon="-3.33046">
        <ele>3116.4</ele>
        <time>2021-08-06 13:45:58</time>
      </trkpt>
      <trkpt lat="37.05574" lon="-3.33046">
        <ele>3116.4</ele>
        <time>2021-08-06 13:45:59</time>
      </trkpt>
      <trkpt lat="37.05576" lon="-3.33046">
        <ele>3116.4</ele>
        <time>2021-08-06 13:46:00</time>
      </trkpt>
      <trkpt lat="37.05576" lon="-3.33046">
        <ele>3116.2</ele>
        <time>2021-08-06 13:46:01</time>
      </trkpt>
      <trkpt lat="37.05576" lon="-3.33046">
        <ele>3116.2</ele>
        <time>2021-08-06 13:46:02</time>
      </trkpt>
      <trkpt lat="37.05577" lon="-3.33047">
        <ele>3116.2</ele>
        <time>2021-08-06 13:46:03</time>
      </trkpt>
      <trkpt lat="37.05577" lon="-3.33047">
        <ele>3116.4</ele>
        <time>2021-08-06 13:46:04</time>
      </trkpt>
      <trkpt lat="37.05577" lon="-3.33047">
        <ele>3116.6</ele>
        <time>2021-08-06 13:46:05</time>
      </trkpt>
      <trkpt lat="37.05577" lon="-3.33048">
        <ele>3116.8</ele>
        <time>2021-08-06 13:46:06</time>
      </trkpt>
      <trkpt lat="37.05581" lon="-3.33046">
        <ele>3117</ele>
        <time>2021-08-06 13:46:07</time>
      </trkpt>
      <trkpt lat="37.05586" lon="-3.33046">
        <ele>3117.2</ele>
        <time>2021-08-06 13:46:08</time>
      </trkpt>
      <trkpt lat="37.05587" lon="-3.33046">
        <ele>3117.2</ele>
        <time>2021-08-06 13:46:09</time>
      </trkpt>
      <trkpt lat="37.05586" lon="-3.33045">
        <ele>3117.4</ele>
        <time>2021-08-06 13:46:10</time>
      </trkpt>
      <trkpt lat="37.05587" lon="-3.33045">
        <ele>3117.4</ele>
        <time>2021-08-06 13:46:11</time>
      </trkpt>
      <trkpt lat="37.05587" lon="-3.33045">
        <ele>3117.4</ele>
        <time>2021-08-06 13:46:12</time>
      </trkpt>
      <trkpt lat="37.05587" lon="-3.33045">
        <ele>3117.4</ele>
        <time>2021-08-06 13:46:13</time>
      </trkpt>
      <trkpt lat="37.05587" lon="-3.33044">
        <ele>3117.6</ele>
        <time>2021-08-06 13:46:14</time>
      </trkpt>
      <trkpt lat="37.05587" lon="-3.33044">
        <ele>3117.6</ele>
        <time>2021-08-06 13:46:15</time>
      </trkpt>
      <trkpt lat="37.05588" lon="-3.33044">
        <ele>3117.6</ele>
        <time>2021-08-06 13:46:16</time>
      </trkpt>
      <trkpt lat="37.0558" lon="-3.33044">
        <ele>3117.6</ele>
        <time>2021-08-06 13:46:17</time>
      </trkpt>
      <trkpt lat="37.05577" lon="-3.33044">
        <ele>3117.6</ele>
        <time>2021-08-06 13:46:18</time>
      </trkpt>
      <trkpt lat="37.05576" lon="-3.33045">
        <ele>3117.6</ele>
        <time>2021-08-06 13:46:19</time>
      </trkpt>
      <trkpt lat="37.05576" lon="-3.33046">
        <ele>3117.8</ele>
        <time>2021-08-06 13:46:20</time>
      </trkpt>
      <trkpt lat="37.05575" lon="-3.33046">
        <ele>3117.6</ele>
        <time>2021-08-06 13:46:21</time>
      </trkpt>
      <trkpt lat="37.05576" lon="-3.33045">
        <ele>3117.8</ele>
        <time>2021-08-06 13:46:22</time>
      </trkpt>
      <trkpt lat="37.05577" lon="-3.33057">
        <ele>3119.4</ele>
        <time>2021-08-06 13:46:23</time>
      </trkpt>
      <trkpt lat="37.05576" lon="-3.33058">
        <ele>3119.4</ele>
        <time>2021-08-06 13:46:24</time>
      </trkpt>
      <trkpt lat="37.05574" lon="-3.33058">
        <ele>3119.4</ele>
        <time>2021-08-06 13:46:25</time>
      </trkpt>
      <trkpt lat="37.05573" lon="-3.33058">
        <ele>3119.6</ele>
        <time>2021-08-06 13:46:26</time>
      </trkpt>
      <trkpt lat="37.0557" lon="-3.3306">
        <ele>3119.6</ele>
        <time>2021-08-06 13:46:27</time>
      </trkpt>
      <trkpt lat="37.05568" lon="-3.33061">
        <ele>3119.8</ele>
        <time>2021-08-06 13:46:28</time>
      </trkpt>
      <trkpt lat="37.05567" lon="-3.33062">
        <ele>3119.8</ele>
        <time>2021-08-06 13:46:29</time>
      </trkpt>
      <trkpt lat="37.05565" lon="-3.33063">
        <ele>3120</ele>
        <time>2021-08-06 13:46:30</time>
      </trkpt>
      <trkpt lat="37.05563" lon="-3.33065">
        <ele>3120</ele>
        <time>2021-08-06 13:46:31</time>
      </trkpt>
      <trkpt lat="37.05559" lon="-3.33069">
        <ele>3120</ele>
        <time>2021-08-06 13:46:32</time>
      </trkpt>
      <trkpt lat="37.05558" lon="-3.3307">
        <ele>3120</ele>
        <time>2021-08-06 13:46:33</time>
      </trkpt>
      <trkpt lat="37.05556" lon="-3.33071">
        <ele>3120</ele>
        <time>2021-08-06 13:46:34</time>
      </trkpt>
      <trkpt lat="37.05556" lon="-3.33071">
        <ele>3120</ele>
        <time>2021-08-06 13:46:35</time>
      </trkpt>
      <trkpt lat="37.0556" lon="-3.33069">
        <ele>3120</ele>
        <time>2021-08-06 13:46:36</time>
      </trkpt>
      <trkpt lat="37.05559" lon="-3.33072">
        <ele>3119.8</ele>
        <time>2021-08-06 13:46:37</time>
      </trkpt>
      <trkpt lat="37.05558" lon="-3.33071">
        <ele>3119.8</ele>
        <time>2021-08-06 13:46:38</time>
      </trkpt>
      <trkpt lat="37.05557" lon="-3.33071">
        <ele>3120</ele>
        <time>2021-08-06 13:46:39</time>
      </trkpt>
      <trkpt lat="37.05557" lon="-3.3307">
        <ele>3120.2</ele>
        <time>2021-08-06 13:46:40</time>
      </trkpt>
      <trkpt lat="37.05558" lon="-3.33069">
        <ele>3120.6</ele>
        <time>2021-08-06 13:46:41</time>
      </trkpt>
      <trkpt lat="37.0556" lon="-3.33068">
        <ele>3120.8</ele>
        <time>2021-08-06 13:46:42</time>
      </trkpt>
      <trkpt lat="37.05558" lon="-3.33068">
        <ele>3121</ele>
        <time>2021-08-06 13:46:43</time>
      </trkpt>
      <trkpt lat="37.05558" lon="-3.33067">
        <ele>3121.2</ele>
        <time>2021-08-06 13:46:44</time>
      </trkpt>
      <trkpt lat="37.05559" lon="-3.33065">
        <ele>3121.2</ele>
        <time>2021-08-06 13:46:45</time>
      </trkpt>
      <trkpt lat="37.0556" lon="-3.33063">
        <ele>3121.2</ele>
        <time>2021-08-06 13:46:46</time>
      </trkpt>
      <trkpt lat="37.05561" lon="-3.33061">
        <ele>3121</ele>
        <time>2021-08-06 13:46:47</time>
      </trkpt>
      <trkpt lat="37.05605" lon="-3.33053">
        <ele>3120.8</ele>
        <time>2021-08-06 13:46:48</time>
      </trkpt>
      <trkpt lat="37.05607" lon="-3.33053">
        <ele>3120.6</ele>
        <time>2021-08-06 13:46:49</time>
      </trkpt>
      <trkpt lat="37.05608" lon="-3.33054">
        <ele>3120.4</ele>
        <time>2021-08-06 13:46:50</time>
      </trkpt>
      <trkpt lat="37.05608" lon="-3.33055">
        <ele>3120.4</ele>
        <time>2021-08-06 13:46:51</time>
      </trkpt>
      <trkpt lat="37.05608" lon="-3.33056">
        <ele>3120.4</ele>
        <time>2021-08-06 13:46:52</time>
      </trkpt>
      <trkpt lat="37.05608" lon="-3.33057">
        <ele>3120.4</ele>
        <time>2021-08-06 13:46:53</time>
      </trkpt>
      <trkpt lat="37.05608" lon="-3.33057">
        <ele>3120.4</ele>
        <time>2021-08-06 13:46:54</time>
      </trkpt>
      <trkpt lat="37.05608" lon="-3.33057">
        <ele>3120.4</ele>
        <time>2021-08-06 13:46:55</time>
      </trkpt>
      <trkpt lat="37.05612" lon="-3.33055">
        <ele>3120.6</ele>
        <time>2021-08-06 13:46:56</time>
      </trkpt>
      <trkpt lat="37.05615" lon="-3.33055">
        <ele>3120.6</ele>
        <time>2021-08-06 13:46:57</time>
      </trkpt>
      <trkpt lat="37.0562" lon="-3.33054">
        <ele>3120.6</ele>
        <time>2021-08-06 13:46:58</time>
      </trkpt>
      <trkpt lat="37.05621" lon="-3.33053">
        <ele>3120.6</ele>
        <time>2021-08-06 13:46:59</time>
      </trkpt>
      <trkpt lat="37.05622" lon="-3.33049">
        <ele>3120.6</ele>
        <time>2021-08-06 13:47:00</time>
      </trkpt>
      <trkpt lat="37.05621" lon="-3.33046">
        <ele>3120.6</ele>
        <time>2021-08-06 13:47:01</time>
      </trkpt>
      <trkpt lat="37.05621" lon="-3.33041">
        <ele>3120.6</ele>
        <time>2021-08-06 13:47:02</time>
      </trkpt>
      <trkpt lat="37.0561" lon="-3.3303">
        <ele>3120.4</ele>
        <time>2021-08-06 13:47:03</time>
      </trkpt>
      <trkpt lat="37.05591" lon="-3.33006">
        <ele>3120.4</ele>
        <time>2021-08-06 13:47:04</time>
      </trkpt>
      <trkpt lat="37.05589" lon="-3.33001">
        <ele>3120.4</ele>
        <time>2021-08-06 13:47:05</time>
      </trkpt>
      <trkpt lat="37.05587" lon="-3.33001">
        <ele>3120.4</ele>
        <time>2021-08-06 13:47:06</time>
      </trkpt>
      <trkpt lat="37.05586" lon="-3.32998">
        <ele>3120.4</ele>
        <time>2021-08-06 13:47:07</time>
      </trkpt>
      <trkpt lat="37.05585" lon="-3.32998">
        <ele>3120.4</ele>
        <time>2021-08-06 13:47:08</time>
      </trkpt>
      <trkpt lat="37.05586" lon="-3.33">
        <ele>3120.4</ele>
        <time>2021-08-06 13:47:09</time>
      </trkpt>
      <trkpt lat="37.05586" lon="-3.33001">
        <ele>3120.6</ele>
        <time>2021-08-06 13:47:10</time>
      </trkpt>
      <trkpt lat="37.05586" lon="-3.33001">
        <ele>3120.6</ele>
        <time>2021-08-06 13:47:11</time>
      </trkpt>
      <trkpt lat="37.05587" lon="-3.33002">
        <ele>3120.8</ele>
        <time>2021-08-06 13:47:12</time>
      </trkpt>
      <trkpt lat="37.05587" lon="-3.33002">
        <ele>3120.8</ele>
        <time>2021-08-06 13:47:13</time>
      </trkpt>
      <trkpt lat="37.05586" lon="-3.33002">
        <ele>3120.8</ele>
        <time>2021-08-06 13:47:14</time>
      </trkpt>
      <trkpt lat="37.05587" lon="-3.33004">
        <ele>3121</ele>
        <time>2021-08-06 13:47:15</time>
      </trkpt>
      <trkpt lat="37.05608" lon="-3.33014">
        <ele>3121</ele>
        <time>2021-08-06 13:47:16</time>
      </trkpt>
      <trkpt lat="37.05601" lon="-3.33009">
        <ele>3121</ele>
        <time>2021-08-06 13:47:17</time>
      </trkpt>
      <trkpt lat="37.056" lon="-3.33009">
        <ele>3121</ele>
        <time>2021-08-06 13:47:18</time>
      </trkpt>
      <trkpt lat="37.056" lon="-3.3301">
        <ele>3121</ele>
        <time>2021-08-06 13:47:19</time>
      </trkpt>
      <trkpt lat="37.05599" lon="-3.33012">
        <ele>3121</ele>
        <time>2021-08-06 13:47:20</time>
      </trkpt>
      <trkpt lat="37.056" lon="-3.33015">
        <ele>3121</ele>
        <time>2021-08-06 13:47:21</time>
      </trkpt>
      <trkpt lat="37.05601" lon="-3.33017">
        <ele>3120.8</ele>
        <time>2021-08-06 13:47:22</time>
      </trkpt>
      <trkpt lat="37.05601" lon="-3.33018">
        <ele>3120.6</ele>
        <time>2021-08-06 13:47:23</time>
      </trkpt>
      <trkpt lat="37.05601" lon="-3.3302">
        <ele>3120.6</ele>
        <time>2021-08-06 13:47:24</time>
      </trkpt>
      <trkpt lat="37.05601" lon="-3.33022">
        <ele>3120.6</ele>
        <time>2021-08-06 13:47:25</time>
      </trkpt>
      <trkpt lat="37.056" lon="-3.33022">
        <ele>3120.4</ele>
        <time>2021-08-06 13:47:26</time>
      </trkpt>
      <trkpt lat="37.05593" lon="-3.33008">
        <ele>3120.4</ele>
        <time>2021-08-06 13:47:27</time>
      </trkpt>
      <trkpt lat="37.05586" lon="-3.33006">
        <ele>3120.2</ele>
        <time>2021-08-06 13:47:28</time>
      </trkpt>
      <trkpt lat="37.05583" lon="-3.33008">
        <ele>3120.4</ele>
        <time>2021-08-06 13:47:29</time>
      </trkpt>
      <trkpt lat="37.05582" lon="-3.33009">
        <ele>3120.4</ele>
        <time>2021-08-06 13:47:30</time>
      </trkpt>
      <trkpt lat="37.05582" lon="-3.33013">
        <ele>3120.6</ele>
        <time>2021-08-06 13:47:31</time>
      </trkpt>
      <trkpt lat="37.05584" lon="-3.33018">
        <ele>3120.6</ele>
        <time>2021-08-06 13:47:32</time>
      </trkpt>
      <trkpt lat="37.05585" lon="-3.33022">
        <ele>3120.6</ele>
        <time>2021-08-06 13:47:33</time>
      </trkpt>
      <trkpt lat="37.05586" lon="-3.33026">
        <ele>3120.8</ele>
        <time>2021-08-06 13:47:34</time>
      </trkpt>
      <trkpt lat="37.05587" lon="-3.3303">
        <ele>3120.8</ele>
        <time>2021-08-06 13:47:35</time>
      </trkpt>
      <trkpt lat="37.05589" lon="-3.33034">
        <ele>3121</ele>
        <time>2021-08-06 13:47:36</time>
      </trkpt>
      <trkpt lat="37.05591" lon="-3.33038">
        <ele>3121</ele>
        <time>2021-08-06 13:47:37</time>
      </trkpt>
      <trkpt lat="37.056" lon="-3.3305">
        <ele>3120.8</ele>
        <time>2021-08-06 13:47:38</time>
      </trkpt>
      <trkpt lat="37.05602" lon="-3.3306">
        <ele>3120.8</ele>
        <time>2021-08-06 13:47:39</time>
      </trkpt>
      <trkpt lat="37.05604" lon="-3.33068">
        <ele>3120.8</ele>
        <time>2021-08-06 13:47:40</time>
      </trkpt>
      <trkpt lat="37.05605" lon="-3.33073">
        <ele>3121</ele>
        <time>2021-08-06 13:47:41</time>
      </trkpt>
      <trkpt lat="37.05607" lon="-3.33078">
        <ele>3121</ele>
        <time>2021-08-06 13:47:42</time>
      </trkpt>
      <trkpt lat="37.05608" lon="-3.33082">
        <ele>3121</ele>
        <time>2021-08-06 13:47:43</time>
      </trkpt>
      <trkpt lat="37.05609" lon="-3.33084">
        <ele>3121</ele>
        <time>2021-08-06 13:47:44</time>
      </trkpt>
      <trkpt lat="37.0561" lon="-3.33086">
        <ele>3121</ele>
        <time>2021-08-06 13:47:45</time>
      </trkpt>
      <trkpt lat="37.05611" lon="-3.33088">
        <ele>3121</ele>
        <time>2021-08-06 13:47:46</time>
      </trkpt>
      <trkpt lat="37.05611" lon="-3.33087">
        <ele>3121</ele>
        <time>2021-08-06 13:47:47</time>
      </trkpt>
      <trkpt lat="37.05611" lon="-3.33086">
        <ele>3121</ele>
        <time>2021-08-06 13:47:48</time>
      </trkpt>
      <trkpt lat="37.05611" lon="-3.33086">
        <ele>3121</ele>
        <time>2021-08-06 13:47:49</time>
      </trkpt>
      <trkpt lat="37.05611" lon="-3.33084">
        <ele>3121</ele>
        <time>2021-08-06 13:47:50</time>
      </trkpt>
      <trkpt lat="37.05611" lon="-3.33083">
        <ele>3121</ele>
        <time>2021-08-06 13:47:51</time>
      </trkpt>
      <trkpt lat="37.05611" lon="-3.33081">
        <ele>3121</ele>
        <time>2021-08-06 13:47:52</time>
      </trkpt>
      <trkpt lat="37.05611" lon="-3.33078">
        <ele>3121</ele>
        <time>2021-08-06 13:47:53</time>
      </trkpt>
      <trkpt lat="37.0561" lon="-3.33075">
        <ele>3121</ele>
        <time>2021-08-06 13:47:54</time>
      </trkpt>
      <trkpt lat="37.0561" lon="-3.33073">
        <ele>3121</ele>
        <time>2021-08-06 13:47:55</time>
      </trkpt>
      <trkpt lat="37.0561" lon="-3.3307">
        <ele>3121.4</ele>
        <time>2021-08-06 13:47:56</time>
      </trkpt>
      <trkpt lat="37.0561" lon="-3.33068">
        <ele>3121.2</ele>
        <time>2021-08-06 13:47:57</time>
      </trkpt>
      <trkpt lat="37.05609" lon="-3.33065">
        <ele>3121.2</ele>
        <time>2021-08-06 13:47:58</time>
      </trkpt>
      <trkpt lat="37.05609" lon="-3.33062">
        <ele>3121.2</ele>
        <time>2021-08-06 13:47:59</time>
      </trkpt>
      <trkpt lat="37.05609" lon="-3.3306">
        <ele>3121.2</ele>
        <time>2021-08-06 13:48:00</time>
      </trkpt>
      <trkpt lat="37.05609" lon="-3.33058">
        <ele>3121</ele>
        <time>2021-08-06 13:48:01</time>
      </trkpt>
      <trkpt lat="37.05609" lon="-3.33055">
        <ele>3121</ele>
        <time>2021-08-06 13:48:02</time>
      </trkpt>
      <trkpt lat="37.05609" lon="-3.33053">
        <ele>3121</ele>
        <time>2021-08-06 13:48:03</time>
      </trkpt>
      <trkpt lat="37.05608" lon="-3.33051">
        <ele>3121</ele>
        <time>2021-08-06 13:48:04</time>
      </trkpt>
      <trkpt lat="37.05604" lon="-3.33048">
        <ele>3121</ele>
        <time>2021-08-06 13:48:05</time>
      </trkpt>
      <trkpt lat="37.05569" lon="-3.33003">
        <ele>3120.8</ele>
        <time>2021-08-06 13:48:06</time>
      </trkpt>
      <trkpt lat="37.05567" lon="-3.3301">
        <ele>3121</ele>
        <time>2021-08-06 13:48:07</time>
      </trkpt>
      <trkpt lat="37.05567" lon="-3.33016">
        <ele>3120.8</ele>
        <time>2021-08-06 13:48:08</time>
      </trkpt>
      <trkpt lat="37.05569" lon="-3.33022">
        <ele>3120.6</ele>
        <time>2021-08-06 13:48:09</time>
      </trkpt>
      <trkpt lat="37.05572" lon="-3.33026">
        <ele>3120.6</ele>
        <time>2021-08-06 13:48:10</time>
      </trkpt>
      <trkpt lat="37.05576" lon="-3.3303">
        <ele>3120.6</ele>
        <time>2021-08-06 13:48:11</time>
      </trkpt>
      <trkpt lat="37.05578" lon="-3.33033">
        <ele>3120.8</ele>
        <time>2021-08-06 13:48:12</time>
      </trkpt>
      <trkpt lat="37.05581" lon="-3.33035">
        <ele>3121</ele>
        <time>2021-08-06 13:48:13</time>
      </trkpt>
      <trkpt lat="37.05583" lon="-3.33037">
        <ele>3121</ele>
        <time>2021-08-06 13:48:14</time>
      </trkpt>
      <trkpt lat="37.05584" lon="-3.33038">
        <ele>3121</ele>
        <time>2021-08-06 13:48:15</time>
      </trkpt>
      <trkpt lat="37.05585" lon="-3.3304">
        <ele>3121</ele>
        <time>2021-08-06 13:48:16</time>
      </trkpt>
      <trkpt lat="37.05586" lon="-3.33038">
        <ele>3121</ele>
        <time>2021-08-06 13:48:17</time>
      </trkpt>
      <trkpt lat="37.05586" lon="-3.33037">
        <ele>3121</ele>
        <time>2021-08-06 13:48:18</time>
      </trkpt>
      <trkpt lat="37.05587" lon="-3.33036">
        <ele>3121</ele>
        <time>2021-08-06 13:48:19</time>
      </trkpt>
      <trkpt lat="37.05588" lon="-3.33033">
        <ele>3121</ele>
        <time>2021-08-06 13:48:20</time>
      </trkpt>
      <trkpt lat="37.05589" lon="-3.33031">
        <ele>3121</ele>
        <time>2021-08-06 13:48:21</time>
      </trkpt>
      <trkpt lat="37.0559" lon="-3.33028">
        <ele>3121</ele>
        <time>2021-08-06 13:48:22</time>
      </trkpt>
      <trkpt lat="37.05591" lon="-3.33025">
        <ele>3121.4</ele>
        <time>2021-08-06 13:48:23</time>
      </trkpt>
      <trkpt lat="37.05592" lon="-3.33021">
        <ele>3121.6</ele>
        <time>2021-08-06 13:48:24</time>
      </trkpt>
      <trkpt lat="37.05592" lon="-3.33015">
        <ele>3121.8</ele>
        <time>2021-08-06 13:48:25</time>
      </trkpt>
      <trkpt lat="37.05592" lon="-3.3301">
        <ele>3121.8</ele>
        <time>2021-08-06 13:48:26</time>
      </trkpt>
      <trkpt lat="37.05592" lon="-3.33006">
        <ele>3121.4</ele>
        <time>2021-08-06 13:48:27</time>
      </trkpt>
      <trkpt lat="37.05592" lon="-3.33">
        <ele>3121.6</ele>
        <time>2021-08-06 13:48:28</time>
      </trkpt>
      <trkpt lat="37.05592" lon="-3.32995">
        <ele>3121.6</ele>
        <time>2021-08-06 13:48:29</time>
      </trkpt>
      <trkpt lat="37.05592" lon="-3.32991">
        <ele>3121.4</ele>
        <time>2021-08-06 13:48:30</time>
      </trkpt>
      <trkpt lat="37.05593" lon="-3.32987">
        <ele>3121.2</ele>
        <time>2021-08-06 13:48:31</time>
      </trkpt>
      <trkpt lat="37.05594" lon="-3.3299">
        <ele>3121.2</ele>
        <time>2021-08-06 13:48:32</time>
      </trkpt>
      <trkpt lat="37.05595" lon="-3.32992">
        <ele>3121.2</ele>
        <time>2021-08-06 13:48:33</time>
      </trkpt>
      <trkpt lat="37.05595" lon="-3.32994">
        <ele>3121.2</ele>
        <time>2021-08-06 13:48:34</time>
      </trkpt>
      <trkpt lat="37.05596" lon="-3.32995">
        <ele>3121.2</ele>
        <time>2021-08-06 13:48:35</time>
      </trkpt>
      <trkpt lat="37.05596" lon="-3.32996">
        <ele>3121.2</ele>
        <time>2021-08-06 13:48:36</time>
      </trkpt>
      <trkpt lat="37.05597" lon="-3.32996">
        <ele>3121</ele>
        <time>2021-08-06 13:48:37</time>
      </trkpt>
      <trkpt lat="37.05595" lon="-3.32997">
        <ele>3121</ele>
        <time>2021-08-06 13:48:38</time>
      </trkpt>
      <trkpt lat="37.05592" lon="-3.32986">
        <ele>3121</ele>
        <time>2021-08-06 13:48:39</time>
      </trkpt>
      <trkpt lat="37.05591" lon="-3.32986">
        <ele>3121</ele>
        <time>2021-08-06 13:48:40</time>
      </trkpt>
      <trkpt lat="37.05591" lon="-3.32988">
        <ele>3121</ele>
        <time>2021-08-06 13:48:41</time>
      </trkpt>
      <trkpt lat="37.05591" lon="-3.3299">
        <ele>3121.2</ele>
        <time>2021-08-06 13:48:42</time>
      </trkpt>
      <trkpt lat="37.05591" lon="-3.3299">
        <ele>3121</ele>
        <time>2021-08-06 13:48:43</time>
      </trkpt>
      <trkpt lat="37.05592" lon="-3.32991">
        <ele>3121</ele>
        <time>2021-08-06 13:48:44</time>
      </trkpt>
      <trkpt lat="37.05592" lon="-3.3299">
        <ele>3121</ele>
        <time>2021-08-06 13:48:45</time>
      </trkpt>
      <trkpt lat="37.05592" lon="-3.3299">
        <ele>3120.8</ele>
        <time>2021-08-06 13:48:46</time>
      </trkpt>
      <trkpt lat="37.05592" lon="-3.32989">
        <ele>3120.8</ele>
        <time>2021-08-06 13:48:47</time>
      </trkpt>
      <trkpt lat="37.05594" lon="-3.32968">
        <ele>3120.8</ele>
        <time>2021-08-06 13:48:48</time>
      </trkpt>
      <trkpt lat="37.05596" lon="-3.32969">
        <ele>3120.8</ele>
        <time>2021-08-06 13:48:49</time>
      </trkpt>
      <trkpt lat="37.05598" lon="-3.32971">
        <ele>3120.8</ele>
        <time>2021-08-06 13:48:50</time>
      </trkpt>
      <trkpt lat="37.056" lon="-3.32973">
        <ele>3120.8</ele>
        <time>2021-08-06 13:48:51</time>
      </trkpt>
      <trkpt lat="37.056" lon="-3.32974">
        <ele>3120.8</ele>
        <time>2021-08-06 13:48:52</time>
      </trkpt>
      <trkpt lat="37.05601" lon="-3.3298">
        <ele>3121</ele>
        <time>2021-08-06 13:48:53</time>
      </trkpt>
      <trkpt lat="37.05602" lon="-3.32985">
        <ele>3121</ele>
        <time>2021-08-06 13:48:54</time>
      </trkpt>
      <trkpt lat="37.05602" lon="-3.32985">
        <ele>3121</ele>
        <time>2021-08-06 13:48:55</time>
      </trkpt>
      <trkpt lat="37.05602" lon="-3.32985">
        <ele>3121</ele>
        <time>2021-08-06 13:48:56</time>
      </trkpt>
      <trkpt lat="37.05602" lon="-3.32987">
        <ele>3121.2</ele>
        <time>2021-08-06 13:48:57</time>
      </trkpt>
      <trkpt lat="37.05604" lon="-3.33013">
        <ele>3121.2</ele>
        <time>2021-08-06 13:48:58</time>
      </trkpt>
      <trkpt lat="37.05606" lon="-3.33027">
        <ele>3121.4</ele>
        <time>2021-08-06 13:48:59</time>
      </trkpt>
      <trkpt lat="37.05606" lon="-3.33028">
        <ele>3121.6</ele>
        <time>2021-08-06 13:49:00</time>
      </trkpt>
      <trkpt lat="37.05606" lon="-3.33028">
        <ele>3121.6</ele>
        <time>2021-08-06 13:49:01</time>
      </trkpt>
      <trkpt lat="37.05606" lon="-3.33029">
        <ele>3121.6</ele>
        <time>2021-08-06 13:49:02</time>
      </trkpt>
      <trkpt lat="37.05606" lon="-3.3303">
        <ele>3121.6</ele>
        <time>2021-08-06 13:49:03</time>
      </trkpt>
      <trkpt lat="37.05608" lon="-3.33043">
        <ele>3121.6</ele>
        <time>2021-08-06 13:49:04</time>
      </trkpt>
      <trkpt lat="37.05608" lon="-3.33052">
        <ele>3121.4</ele>
        <time>2021-08-06 13:49:05</time>
      </trkpt>
      <trkpt lat="37.05609" lon="-3.33056">
        <ele>3121.2</ele>
        <time>2021-08-06 13:49:06</time>
      </trkpt>
      <trkpt lat="37.05609" lon="-3.3306">
        <ele>3121.2</ele>
        <time>2021-08-06 13:49:07</time>
      </trkpt>
      <trkpt lat="37.05608" lon="-3.33063">
        <ele>3121.2</ele>
        <time>2021-08-06 13:49:08</time>
      </trkpt>
      <trkpt lat="37.05608" lon="-3.33063">
        <ele>3121.4</ele>
        <time>2021-08-06 13:49:09</time>
      </trkpt>
      <trkpt lat="37.05608" lon="-3.33072">
        <ele>3121.4</ele>
        <time>2021-08-06 13:49:10</time>
      </trkpt>
      <trkpt lat="37.05609" lon="-3.33076">
        <ele>3121.4</ele>
        <time>2021-08-06 13:49:11</time>
      </trkpt>
      <trkpt lat="37.05609" lon="-3.33078">
        <ele>3121.6</ele>
        <time>2021-08-06 13:49:12</time>
      </trkpt>
      <trkpt lat="37.05608" lon="-3.33079">
        <ele>3121.6</ele>
        <time>2021-08-06 13:49:13</time>
      </trkpt>
      <trkpt lat="37.05608" lon="-3.3308">
        <ele>3121.6</ele>
        <time>2021-08-06 13:49:14</time>
      </trkpt>
      <trkpt lat="37.05608" lon="-3.3308">
        <ele>3121.8</ele>
        <time>2021-08-06 13:49:15</time>
      </trkpt>
      <trkpt lat="37.05608" lon="-3.33079">
        <ele>3121.8</ele>
        <time>2021-08-06 13:49:16</time>
      </trkpt>
      <trkpt lat="37.05607" lon="-3.33079">
        <ele>3121.8</ele>
        <time>2021-08-06 13:49:17</time>
      </trkpt>
      <trkpt lat="37.05607" lon="-3.33077">
        <ele>3122</ele>
        <time>2021-08-06 13:49:18</time>
      </trkpt>
      <trkpt lat="37.05607" lon="-3.33077">
        <ele>3122</ele>
        <time>2021-08-06 13:49:19</time>
      </trkpt>
      <trkpt lat="37.05607" lon="-3.33076">
        <ele>3122.2</ele>
        <time>2021-08-06 13:49:20</time>
      </trkpt>
      <trkpt lat="37.05608" lon="-3.33075">
        <ele>3122.6</ele>
        <time>2021-08-06 13:49:21</time>
      </trkpt>
      <trkpt lat="37.05609" lon="-3.33073">
        <ele>3122.8</ele>
        <time>2021-08-06 13:49:22</time>
      </trkpt>
      <trkpt lat="37.05609" lon="-3.33072">
        <ele>3122.8</ele>
        <time>2021-08-06 13:49:23</time>
      </trkpt>
      <trkpt lat="37.05611" lon="-3.33072">
        <ele>3122.8</ele>
        <time>2021-08-06 13:49:24</time>
      </trkpt>
      <trkpt lat="37.05612" lon="-3.33071">
        <ele>3122.8</ele>
        <time>2021-08-06 13:49:25</time>
      </trkpt>
      <trkpt lat="37.05611" lon="-3.3307">
        <ele>3123</ele>
        <time>2021-08-06 13:49:26</time>
      </trkpt>
      <trkpt lat="37.0561" lon="-3.33069">
        <ele>3123.2</ele>
        <time>2021-08-06 13:49:27</time>
      </trkpt>
      <trkpt lat="37.0561" lon="-3.33069">
        <ele>3123.4</ele>
        <time>2021-08-06 13:49:28</time>
      </trkpt>
      <trkpt lat="37.05609" lon="-3.33068">
        <ele>3123.4</ele>
        <time>2021-08-06 13:49:29</time>
      </trkpt>
      <trkpt lat="37.05608" lon="-3.33068">
        <ele>3123.6</ele>
        <time>2021-08-06 13:49:30</time>
      </trkpt>
      <trkpt lat="37.05608" lon="-3.33068">
        <ele>3123.6</ele>
        <time>2021-08-06 13:49:31</time>
      </trkpt>
      <trkpt lat="37.05608" lon="-3.33068">
        <ele>3123.8</ele>
        <time>2021-08-06 13:49:32</time>
      </trkpt>
      <trkpt lat="37.05602" lon="-3.3307">
        <ele>3124</ele>
        <time>2021-08-06 13:49:33</time>
      </trkpt>
      <trkpt lat="37.05599" lon="-3.33063">
        <ele>3123.8</ele>
        <time>2021-08-06 13:49:34</time>
      </trkpt>
      <trkpt lat="37.05582" lon="-3.33052">
        <ele>3124</ele>
        <time>2021-08-06 13:49:35</time>
      </trkpt>
      <trkpt lat="37.05581" lon="-3.33056">
        <ele>3124</ele>
        <time>2021-08-06 13:49:36</time>
      </trkpt>
      <trkpt lat="37.0558" lon="-3.33058">
        <ele>3124.2</ele>
        <time>2021-08-06 13:49:37</time>
      </trkpt>
      <trkpt lat="37.0558" lon="-3.33061">
        <ele>3124.2</ele>
        <time>2021-08-06 13:49:38</time>
      </trkpt>
      <trkpt lat="37.0558" lon="-3.33064">
        <ele>3124</ele>
        <time>2021-08-06 13:49:39</time>
      </trkpt>
      <trkpt lat="37.05581" lon="-3.33066">
        <ele>3124.2</ele>
        <time>2021-08-06 13:49:40</time>
      </trkpt>
      <trkpt lat="37.05581" lon="-3.33067">
        <ele>3124.4</ele>
        <time>2021-08-06 13:49:41</time>
      </trkpt>
      <trkpt lat="37.05581" lon="-3.33068">
        <ele>3124.6</ele>
        <time>2021-08-06 13:49:42</time>
      </trkpt>
      <trkpt lat="37.05581" lon="-3.33069">
        <ele>3124.6</ele>
        <time>2021-08-06 13:49:43</time>
      </trkpt>
      <trkpt lat="37.05581" lon="-3.3307">
        <ele>3124.6</ele>
        <time>2021-08-06 13:49:44</time>
      </trkpt>
      <trkpt lat="37.05583" lon="-3.3307">
        <ele>3124.6</ele>
        <time>2021-08-06 13:49:45</time>
      </trkpt>
      <trkpt lat="37.05584" lon="-3.33071">
        <ele>3124.8</ele>
        <time>2021-08-06 13:49:46</time>
      </trkpt>
      <trkpt lat="37.05585" lon="-3.33072">
        <ele>3124.6</ele>
        <time>2021-08-06 13:49:47</time>
      </trkpt>
      <trkpt lat="37.05586" lon="-3.33073">
        <ele>3124.8</ele>
        <time>2021-08-06 13:49:48</time>
      </trkpt>
      <trkpt lat="37.05586" lon="-3.33072">
        <ele>3125.2</ele>
        <time>2021-08-06 13:49:49</time>
      </trkpt>
      <trkpt lat="37.05587" lon="-3.33071">
        <ele>3125.4</ele>
        <time>2021-08-06 13:49:50</time>
      </trkpt>
      <trkpt lat="37.05587" lon="-3.3307">
        <ele>3125.6</ele>
        <time>2021-08-06 13:49:51</time>
      </trkpt>
      <trkpt lat="37.05587" lon="-3.3307">
        <ele>3125.8</ele>
        <time>2021-08-06 13:49:52</time>
      </trkpt>
      <trkpt lat="37.05587" lon="-3.33071">
        <ele>3126</ele>
        <time>2021-08-06 13:49:53</time>
      </trkpt>
      <trkpt lat="37.05585" lon="-3.33072">
        <ele>3126.2</ele>
        <time>2021-08-06 13:49:54</time>
      </trkpt>
      <trkpt lat="37.05582" lon="-3.33074">
        <ele>3126.4</ele>
        <time>2021-08-06 13:49:55</time>
      </trkpt>
      <trkpt lat="37.05581" lon="-3.33075">
        <ele>3126.6</ele>
        <time>2021-08-06 13:49:56</time>
      </trkpt>
      <trkpt lat="37.0558" lon="-3.33077">
        <ele>3126.4</ele>
        <time>2021-08-06 13:49:57</time>
      </trkpt>
      <trkpt lat="37.0558" lon="-3.33078">
        <ele>3126.6</ele>
        <time>2021-08-06 13:49:58</time>
      </trkpt>
      <trkpt lat="37.0558" lon="-3.33079">
        <ele>3126.8</ele>
        <time>2021-08-06 13:49:59</time>
      </trkpt>
      <trkpt lat="37.0558" lon="-3.3308">
        <ele>3127</ele>
        <time>2021-08-06 13:50:00</time>
      </trkpt>
      <trkpt lat="37.05581" lon="-3.3308">
        <ele>3127.2</ele>
        <time>2021-08-06 13:50:01</time>
      </trkpt>
      <trkpt lat="37.0558" lon="-3.33082">
        <ele>3127.2</ele>
        <time>2021-08-06 13:50:02</time>
      </trkpt>
      <trkpt lat="37.0558" lon="-3.33083">
        <ele>3127.4</ele>
        <time>2021-08-06 13:50:03</time>
      </trkpt>
      <trkpt lat="37.0558" lon="-3.33084">
        <ele>3127.6</ele>
        <time>2021-08-06 13:50:04</time>
      </trkpt>
      <trkpt lat="37.0558" lon="-3.33085">
        <ele>3127.6</ele>
        <time>2021-08-06 13:50:05</time>
      </trkpt>
      <trkpt lat="37.05581" lon="-3.33085">
        <ele>3127.8</ele>
        <time>2021-08-06 13:50:06</time>
      </trkpt>
      <trkpt lat="37.05581" lon="-3.33084">
        <ele>3128</ele>
        <time>2021-08-06 13:50:07</time>
      </trkpt>
      <trkpt lat="37.05582" lon="-3.33085">
        <ele>3128</ele>
        <time>2021-08-06 13:50:08</time>
      </trkpt>
      <trkpt lat="37.05582" lon="-3.33084">
        <ele>3128.4</ele>
        <time>2021-08-06 13:50:09</time>
      </trkpt>
      <trkpt lat="37.05582" lon="-3.33084">
        <ele>3128.4</ele>
        <time>2021-08-06 13:50:10</time>
      </trkpt>
      <trkpt lat="37.05582" lon="-3.33084">
        <ele>3128.4</ele>
        <time>2021-08-06 13:50:11</time>
      </trkpt>
      <trkpt lat="37.05582" lon="-3.33085">
        <ele>3128.8</ele>
        <time>2021-08-06 13:50:12</time>
      </trkpt>
      <trkpt lat="37.05581" lon="-3.33085">
        <ele>3129</ele>
        <time>2021-08-06 13:50:13</time>
      </trkpt>
      <trkpt lat="37.05581" lon="-3.33086">
        <ele>3129.4</ele>
        <time>2021-08-06 13:50:14</time>
      </trkpt>
      <trkpt lat="37.0558" lon="-3.33086">
        <ele>3129.4</ele>
        <time>2021-08-06 13:50:15</time>
      </trkpt>
      <trkpt lat="37.0558" lon="-3.33086">
        <ele>3129.6</ele>
        <time>2021-08-06 13:50:16</time>
      </trkpt>
      <trkpt lat="37.05579" lon="-3.33087">
        <ele>3129.8</ele>
        <time>2021-08-06 13:50:17</time>
      </trkpt>
      <trkpt lat="37.05578" lon="-3.33087">
        <ele>3130</ele>
        <time>2021-08-06 13:50:18</time>
      </trkpt>
      <trkpt lat="37.05579" lon="-3.33086">
        <ele>3130.2</ele>
        <time>2021-08-06 13:50:19</time>
      </trkpt>
      <trkpt lat="37.0558" lon="-3.33086">
        <ele>3130.2</ele>
        <time>2021-08-06 13:50:20</time>
      </trkpt>
      <trkpt lat="37.05581" lon="-3.33086">
        <ele>3130.4</ele>
        <time>2021-08-06 13:50:21</time>
      </trkpt>
      <trkpt lat="37.05582" lon="-3.33086">
        <ele>3130.6</ele>
        <time>2021-08-06 13:50:22</time>
      </trkpt>
      <trkpt lat="37.05581" lon="-3.33087">
        <ele>3130.6</ele>
        <time>2021-08-06 13:50:23</time>
      </trkpt>
      <trkpt lat="37.05583" lon="-3.33087">
        <ele>3130.8</ele>
        <time>2021-08-06 13:50:24</time>
      </trkpt>
      <trkpt lat="37.05584" lon="-3.33087">
        <ele>3130.8</ele>
        <time>2021-08-06 13:50:25</time>
      </trkpt>
      <trkpt lat="37.05585" lon="-3.33087">
        <ele>3130.8</ele>
        <time>2021-08-06 13:50:26</time>
      </trkpt>
      <trkpt lat="37.05586" lon="-3.33087">
        <ele>3131.2</ele>
        <time>2021-08-06 13:50:27</time>
      </trkpt>
      <trkpt lat="37.05586" lon="-3.33088">
        <ele>3131.6</ele>
        <time>2021-08-06 13:50:28</time>
      </trkpt>
      <trkpt lat="37.05586" lon="-3.33088">
        <ele>3131.8</ele>
        <time>2021-08-06 13:50:29</time>
      </trkpt>
      <trkpt lat="37.05585" lon="-3.33088">
        <ele>3131.8</ele>
        <time>2021-08-06 13:50:30</time>
      </trkpt>
      <trkpt lat="37.05584" lon="-3.33088">
        <ele>3131.8</ele>
        <time>2021-08-06 13:50:31</time>
      </trkpt>
      <trkpt lat="37.05585" lon="-3.33088">
        <ele>3131.6</ele>
        <time>2021-08-06 13:50:32</time>
      </trkpt>
      <trkpt lat="37.05586" lon="-3.33088">
        <ele>3131.6</ele>
        <time>2021-08-06 13:50:33</time>
      </trkpt>
      <trkpt lat="37.05588" lon="-3.33087">
        <ele>3131.6</ele>
        <time>2021-08-06 13:50:34</time>
      </trkpt>
      <trkpt lat="37.05588" lon="-3.33087">
        <ele>3131.6</ele>
        <time>2021-08-06 13:50:35</time>
      </trkpt>
      <trkpt lat="37.0559" lon="-3.33085">
        <ele>3131.8</ele>
        <time>2021-08-06 13:50:36</time>
      </trkpt>
      <trkpt lat="37.05594" lon="-3.33084">
        <ele>3132</ele>
        <time>2021-08-06 13:50:37</time>
      </trkpt>
      <trkpt lat="37.05595" lon="-3.33083">
        <ele>3132</ele>
        <time>2021-08-06 13:50:38</time>
      </trkpt>
      <trkpt lat="37.05595" lon="-3.33084">
        <ele>3132</ele>
        <time>2021-08-06 13:50:39</time>
      </trkpt>
      <trkpt lat="37.05597" lon="-3.33084">
        <ele>3132.2</ele>
        <time>2021-08-06 13:50:40</time>
      </trkpt>
      <trkpt lat="37.05598" lon="-3.33085">
        <ele>3132.2</ele>
        <time>2021-08-06 13:50:41</time>
      </trkpt>
      <trkpt lat="37.05597" lon="-3.33086">
        <ele>3132.2</ele>
        <time>2021-08-06 13:50:42</time>
      </trkpt>
      <trkpt lat="37.05596" lon="-3.33087">
        <ele>3132.4</ele>
        <time>2021-08-06 13:50:43</time>
      </trkpt>
      <trkpt lat="37.05595" lon="-3.33088">
        <ele>3132.4</ele>
        <time>2021-08-06 13:50:44</time>
      </trkpt>
      <trkpt lat="37.05594" lon="-3.33089">
        <ele>3132.4</ele>
        <time>2021-08-06 13:50:45</time>
      </trkpt>
      <trkpt lat="37.05592" lon="-3.3309">
        <ele>3132.6</ele>
        <time>2021-08-06 13:50:46</time>
      </trkpt>
      <trkpt lat="37.05591" lon="-3.3309">
        <ele>3132.8</ele>
        <time>2021-08-06 13:50:47</time>
      </trkpt>
      <trkpt lat="37.05591" lon="-3.3309">
        <ele>3132.8</ele>
        <time>2021-08-06 13:50:48</time>
      </trkpt>
      <trkpt lat="37.05591" lon="-3.3309">
        <ele>3132.8</ele>
        <time>2021-08-06 13:50:49</time>
      </trkpt>
      <trkpt lat="37.05592" lon="-3.33089">
        <ele>3132.6</ele>
        <time>2021-08-06 13:50:50</time>
      </trkpt>
      <trkpt lat="37.05592" lon="-3.33088">
        <ele>3132.6</ele>
        <time>2021-08-06 13:50:51</time>
      </trkpt>
      <trkpt lat="37.05593" lon="-3.33088">
        <ele>3132.8</ele>
        <time>2021-08-06 13:50:52</time>
      </trkpt>
      <trkpt lat="37.05593" lon="-3.33086">
        <ele>3132.6</ele>
        <time>2021-08-06 13:50:53</time>
      </trkpt>
      <trkpt lat="37.05594" lon="-3.33085">
        <ele>3132.4</ele>
        <time>2021-08-06 13:50:54</time>
      </trkpt>
      <trkpt lat="37.05594" lon="-3.33084">
        <ele>3132.4</ele>
        <time>2021-08-06 13:50:55</time>
      </trkpt>
      <trkpt lat="37.05594" lon="-3.33084">
        <ele>3132.4</ele>
        <time>2021-08-06 13:50:56</time>
      </trkpt>
      <trkpt lat="37.05595" lon="-3.33083">
        <ele>3132.2</ele>
        <time>2021-08-06 13:50:57</time>
      </trkpt>
      <trkpt lat="37.05594" lon="-3.33083">
        <ele>3132.2</ele>
        <time>2021-08-06 13:50:58</time>
      </trkpt>
      <trkpt lat="37.05594" lon="-3.33082">
        <ele>3132.2</ele>
        <time>2021-08-06 13:50:59</time>
      </trkpt>
      <trkpt lat="37.05595" lon="-3.33079">
        <ele>3132.2</ele>
        <time>2021-08-06 13:51:00</time>
      </trkpt>
      <trkpt lat="37.05596" lon="-3.33077">
        <ele>3132.2</ele>
        <time>2021-08-06 13:51:01</time>
      </trkpt>
      <trkpt lat="37.05596" lon="-3.33077">
        <ele>3132.2</ele>
        <time>2021-08-06 13:51:02</time>
      </trkpt>
      <trkpt lat="37.05601" lon="-3.33077">
        <ele>3132.2</ele>
        <time>2021-08-06 13:51:03</time>
      </trkpt>
      <trkpt lat="37.05601" lon="-3.33078">
        <ele>3132</ele>
        <time>2021-08-06 13:51:04</time>
      </trkpt>
      <trkpt lat="37.05601" lon="-3.33078">
        <ele>3132</ele>
        <time>2021-08-06 13:51:05</time>
      </trkpt>
      <trkpt lat="37.056" lon="-3.33078">
        <ele>3132</ele>
        <time>2021-08-06 13:51:06</time>
      </trkpt>
      <trkpt lat="37.05602" lon="-3.33077">
        <ele>3132</ele>
        <time>2021-08-06 13:51:07</time>
      </trkpt>
      <trkpt lat="37.05604" lon="-3.33076">
        <ele>3132</ele>
        <time>2021-08-06 13:51:08</time>
      </trkpt>
      <trkpt lat="37.05605" lon="-3.33075">
        <ele>3132</ele>
        <time>2021-08-06 13:51:09</time>
      </trkpt>
      <trkpt lat="37.05605" lon="-3.3308">
        <ele>3132</ele>
        <time>2021-08-06 13:51:10</time>
      </trkpt>
      <trkpt lat="37.05604" lon="-3.33085">
        <ele>3132.2</ele>
        <time>2021-08-06 13:51:11</time>
      </trkpt>
      <trkpt lat="37.05603" lon="-3.33088">
        <ele>3132.4</ele>
        <time>2021-08-06 13:51:12</time>
      </trkpt>
      <trkpt lat="37.05603" lon="-3.33089">
        <ele>3132.8</ele>
        <time>2021-08-06 13:51:13</time>
      </trkpt>
      <trkpt lat="37.05602" lon="-3.3309">
        <ele>3133</ele>
        <time>2021-08-06 13:51:14</time>
      </trkpt>
      <trkpt lat="37.05602" lon="-3.3309">
        <ele>3133.4</ele>
        <time>2021-08-06 13:51:15</time>
      </trkpt>
      <trkpt lat="37.05602" lon="-3.3309">
        <ele>3133.4</ele>
        <time>2021-08-06 13:51:16</time>
      </trkpt>
      <trkpt lat="37.05602" lon="-3.3309">
        <ele>3133.6</ele>
        <time>2021-08-06 13:51:17</time>
      </trkpt>
      <trkpt lat="37.05599" lon="-3.33092">
        <ele>3133.6</ele>
        <time>2021-08-06 13:51:18</time>
      </trkpt>
      <trkpt lat="37.05597" lon="-3.33093">
        <ele>3133.8</ele>
        <time>2021-08-06 13:51:19</time>
      </trkpt>
      <trkpt lat="37.05596" lon="-3.33093">
        <ele>3134</ele>
        <time>2021-08-06 13:51:20</time>
      </trkpt>
      <trkpt lat="37.05593" lon="-3.33094">
        <ele>3134</ele>
        <time>2021-08-06 13:51:21</time>
      </trkpt>
      <trkpt lat="37.05593" lon="-3.33095">
        <ele>3134.2</ele>
        <time>2021-08-06 13:51:22</time>
      </trkpt>
      <trkpt lat="37.05589" lon="-3.33092">
        <ele>3134.2</ele>
        <time>2021-08-06 13:51:23</time>
      </trkpt>
      <trkpt lat="37.05588" lon="-3.33093">
        <ele>3134.2</ele>
        <time>2021-08-06 13:51:24</time>
      </trkpt>
      <trkpt lat="37.05587" lon="-3.33095">
        <ele>3134.4</ele>
        <time>2021-08-06 13:51:25</time>
      </trkpt>
      <trkpt lat="37.05587" lon="-3.33096">
        <ele>3134.6</ele>
        <time>2021-08-06 13:51:26</time>
      </trkpt>
      <trkpt lat="37.05583" lon="-3.33099">
        <ele>3134.8</ele>
        <time>2021-08-06 13:51:27</time>
      </trkpt>
      <trkpt lat="37.05581" lon="-3.33101">
        <ele>3135</ele>
        <time>2021-08-06 13:51:28</time>
      </trkpt>
      <trkpt lat="37.05581" lon="-3.33103">
        <ele>3135.2</ele>
        <time>2021-08-06 13:51:29</time>
      </trkpt>
      <trkpt lat="37.05581" lon="-3.33104">
        <ele>3135.2</ele>
        <time>2021-08-06 13:51:30</time>
      </trkpt>
      <trkpt lat="37.05581" lon="-3.33106">
        <ele>3135.2</ele>
        <time>2021-08-06 13:51:31</time>
      </trkpt>
      <trkpt lat="37.05582" lon="-3.33105">
        <ele>3135.4</ele>
        <time>2021-08-06 13:51:32</time>
      </trkpt>
      <trkpt lat="37.05577" lon="-3.33108">
        <ele>3135.4</ele>
        <time>2021-08-06 13:51:33</time>
      </trkpt>
      <trkpt lat="37.05577" lon="-3.3311">
        <ele>3135.2</ele>
        <time>2021-08-06 13:51:34</time>
      </trkpt>
      <trkpt lat="37.05577" lon="-3.33111">
        <ele>3135.2</ele>
        <time>2021-08-06 13:51:35</time>
      </trkpt>
      <trkpt lat="37.05577" lon="-3.33112">
        <ele>3135</ele>
        <time>2021-08-06 13:51:36</time>
      </trkpt>
      <trkpt lat="37.05577" lon="-3.33113">
        <ele>3134.8</ele>
        <time>2021-08-06 13:51:37</time>
      </trkpt>
      <trkpt lat="37.05577" lon="-3.33113">
        <ele>3134.8</ele>
        <time>2021-08-06 13:51:38</time>
      </trkpt>
      <trkpt lat="37.05578" lon="-3.33113">
        <ele>3134.6</ele>
        <time>2021-08-06 13:51:39</time>
      </trkpt>
      <trkpt lat="37.05579" lon="-3.33112">
        <ele>3134.6</ele>
        <time>2021-08-06 13:51:40</time>
      </trkpt>
      <trkpt lat="37.05579" lon="-3.33111">
        <ele>3134.4</ele>
        <time>2021-08-06 13:51:41</time>
      </trkpt>
      <trkpt lat="37.05579" lon="-3.33111">
        <ele>3134.4</ele>
        <time>2021-08-06 13:51:42</time>
      </trkpt>
      <trkpt lat="37.05579" lon="-3.33111">
        <ele>3134.4</ele>
        <time>2021-08-06 13:51:43</time>
      </trkpt>
      <trkpt lat="37.05577" lon="-3.33112">
        <ele>3134.8</ele>
        <time>2021-08-06 13:51:44</time>
      </trkpt>
      <trkpt lat="37.05575" lon="-3.33109">
        <ele>3135</ele>
        <time>2021-08-06 13:51:45</time>
      </trkpt>
      <trkpt lat="37.05574" lon="-3.33107">
        <ele>3135</ele>
        <time>2021-08-06 13:51:46</time>
      </trkpt>
      <trkpt lat="37.05573" lon="-3.33108">
        <ele>3135.2</ele>
        <time>2021-08-06 13:51:47</time>
      </trkpt>
      <trkpt lat="37.05572" lon="-3.33108">
        <ele>3135.2</ele>
        <time>2021-08-06 13:51:48</time>
      </trkpt>
      <trkpt lat="37.05571" lon="-3.3311">
        <ele>3135</ele>
        <time>2021-08-06 13:51:49</time>
      </trkpt>
      <trkpt lat="37.05571" lon="-3.33112">
        <ele>3134.6</ele>
        <time>2021-08-06 13:51:50</time>
      </trkpt>
      <trkpt lat="37.0557" lon="-3.33113">
        <ele>3134.2</ele>
        <time>2021-08-06 13:51:51</time>
      </trkpt>
      <trkpt lat="37.05569" lon="-3.33115">
        <ele>3134</ele>
        <time>2021-08-06 13:51:52</time>
      </trkpt>
      <trkpt lat="37.05569" lon="-3.33116">
        <ele>3134</ele>
        <time>2021-08-06 13:51:53</time>
      </trkpt>
      <trkpt lat="37.05569" lon="-3.33116">
        <ele>3133.8</ele>
        <time>2021-08-06 13:51:54</time>
      </trkpt>
      <trkpt lat="37.0557" lon="-3.33117">
        <ele>3133.8</ele>
        <time>2021-08-06 13:51:55</time>
      </trkpt>
      <trkpt lat="37.0557" lon="-3.33117">
        <ele>3134</ele>
        <time>2021-08-06 13:51:56</time>
      </trkpt>
      <trkpt lat="37.0557" lon="-3.33118">
        <ele>3134.2</ele>
        <time>2021-08-06 13:51:57</time>
      </trkpt>
      <trkpt lat="37.05569" lon="-3.33118">
        <ele>3134.4</ele>
        <time>2021-08-06 13:51:58</time>
      </trkpt>
      <trkpt lat="37.0557" lon="-3.33117">
        <ele>3134.6</ele>
        <time>2021-08-06 13:51:59</time>
      </trkpt>
      <trkpt lat="37.0557" lon="-3.33116">
        <ele>3134.8</ele>
        <time>2021-08-06 13:52:00</time>
      </trkpt>
      <trkpt lat="37.0557" lon="-3.33116">
        <ele>3134.8</ele>
        <time>2021-08-06 13:52:01</time>
      </trkpt>
      <trkpt lat="37.05571" lon="-3.33115">
        <ele>3135</ele>
        <time>2021-08-06 13:52:02</time>
      </trkpt>
      <trkpt lat="37.05571" lon="-3.33115">
        <ele>3135.2</ele>
        <time>2021-08-06 13:52:03</time>
      </trkpt>
      <trkpt lat="37.05571" lon="-3.33115">
        <ele>3135.4</ele>
        <time>2021-08-06 13:52:04</time>
      </trkpt>
      <trkpt lat="37.05573" lon="-3.33115">
        <ele>3135.4</ele>
        <time>2021-08-06 13:52:05</time>
      </trkpt>
      <trkpt lat="37.05575" lon="-3.33115">
        <ele>3135.6</ele>
        <time>2021-08-06 13:52:06</time>
      </trkpt>
      <trkpt lat="37.05576" lon="-3.33115">
        <ele>3135.6</ele>
        <time>2021-08-06 13:52:07</time>
      </trkpt>
      <trkpt lat="37.05576" lon="-3.33114">
        <ele>3135.6</ele>
        <time>2021-08-06 13:52:08</time>
      </trkpt>
      <trkpt lat="37.05577" lon="-3.33114">
        <ele>3135.6</ele>
        <time>2021-08-06 13:52:09</time>
      </trkpt>
      <trkpt lat="37.05577" lon="-3.33114">
        <ele>3135.8</ele>
        <time>2021-08-06 13:52:10</time>
      </trkpt>
      <trkpt lat="37.05577" lon="-3.33115">
        <ele>3135.8</ele>
        <time>2021-08-06 13:52:11</time>
      </trkpt>
      <trkpt lat="37.05577" lon="-3.33115">
        <ele>3136.2</ele>
        <time>2021-08-06 13:52:12</time>
      </trkpt>
      <trkpt lat="37.05578" lon="-3.33115">
        <ele>3136.4</ele>
        <time>2021-08-06 13:52:13</time>
      </trkpt>
      <trkpt lat="37.05578" lon="-3.33114">
        <ele>3136.4</ele>
        <time>2021-08-06 13:52:14</time>
      </trkpt>
      <trkpt lat="37.05578" lon="-3.33114">
        <ele>3136.6</ele>
        <time>2021-08-06 13:52:15</time>
      </trkpt>
      <trkpt lat="37.0558" lon="-3.33113">
        <ele>3136.6</ele>
        <time>2021-08-06 13:52:16</time>
      </trkpt>
      <trkpt lat="37.05579" lon="-3.33114">
        <ele>3136.6</ele>
        <time>2021-08-06 13:52:17</time>
      </trkpt>
      <trkpt lat="37.05579" lon="-3.33115">
        <ele>3136.8</ele>
        <time>2021-08-06 13:52:18</time>
      </trkpt>
      <trkpt lat="37.05577" lon="-3.33115">
        <ele>3136.8</ele>
        <time>2021-08-06 13:52:19</time>
      </trkpt>
      <trkpt lat="37.05577" lon="-3.33116">
        <ele>3136.8</ele>
        <time>2021-08-06 13:52:20</time>
      </trkpt>
      <trkpt lat="37.05576" lon="-3.33117">
        <ele>3136.8</ele>
        <time>2021-08-06 13:52:21</time>
      </trkpt>
      <trkpt lat="37.05576" lon="-3.33117">
        <ele>3136.8</ele>
        <time>2021-08-06 13:52:22</time>
      </trkpt>
      <trkpt lat="37.05574" lon="-3.33118">
        <ele>3136.8</ele>
        <time>2021-08-06 13:52:23</time>
      </trkpt>
      <trkpt lat="37.05574" lon="-3.33119">
        <ele>3136.6</ele>
        <time>2021-08-06 13:52:24</time>
      </trkpt>
      <trkpt lat="37.05572" lon="-3.3312">
        <ele>3136.6</ele>
        <time>2021-08-06 13:52:25</time>
      </trkpt>
      <trkpt lat="37.05572" lon="-3.33121">
        <ele>3136.6</ele>
        <time>2021-08-06 13:52:26</time>
      </trkpt>
      <trkpt lat="37.05571" lon="-3.33122">
        <ele>3136.6</ele>
        <time>2021-08-06 13:52:27</time>
      </trkpt>
      <trkpt lat="37.05571" lon="-3.33123">
        <ele>3136.6</ele>
        <time>2021-08-06 13:52:28</time>
      </trkpt>
      <trkpt lat="37.05571" lon="-3.33124">
        <ele>3136.6</ele>
        <time>2021-08-06 13:52:29</time>
      </trkpt>
      <trkpt lat="37.0557" lon="-3.33124">
        <ele>3136.6</ele>
        <time>2021-08-06 13:52:30</time>
      </trkpt>
      <trkpt lat="37.05569" lon="-3.33125">
        <ele>3136.8</ele>
        <time>2021-08-06 13:52:31</time>
      </trkpt>
      <trkpt lat="37.05568" lon="-3.33126">
        <ele>3136.8</ele>
        <time>2021-08-06 13:52:32</time>
      </trkpt>
      <trkpt lat="37.05568" lon="-3.33126">
        <ele>3137.4</ele>
        <time>2021-08-06 13:52:33</time>
      </trkpt>
      <trkpt lat="37.05568" lon="-3.33126">
        <ele>3137.8</ele>
        <time>2021-08-06 13:52:34</time>
      </trkpt>
      <trkpt lat="37.05569" lon="-3.33127">
        <ele>3138</ele>
        <time>2021-08-06 13:52:35</time>
      </trkpt>
      <trkpt lat="37.05569" lon="-3.33127">
        <ele>3138.2</ele>
        <time>2021-08-06 13:52:36</time>
      </trkpt>
      <trkpt lat="37.05569" lon="-3.33128">
        <ele>3138.2</ele>
        <time>2021-08-06 13:52:37</time>
      </trkpt>
      <trkpt lat="37.05568" lon="-3.33128">
        <ele>3138.2</ele>
        <time>2021-08-06 13:52:38</time>
      </trkpt>
      <trkpt lat="37.05568" lon="-3.33129">
        <ele>3137.8</ele>
        <time>2021-08-06 13:52:39</time>
      </trkpt>
      <trkpt lat="37.05567" lon="-3.33129">
        <ele>3137.4</ele>
        <time>2021-08-06 13:52:40</time>
      </trkpt>
      <trkpt lat="37.05567" lon="-3.3313">
        <ele>3137.4</ele>
        <time>2021-08-06 13:52:41</time>
      </trkpt>
      <trkpt lat="37.05567" lon="-3.33131">
        <ele>3137.4</ele>
        <time>2021-08-06 13:52:42</time>
      </trkpt>
      <trkpt lat="37.05566" lon="-3.33132">
        <ele>3137.8</ele>
        <time>2021-08-06 13:52:43</time>
      </trkpt>
      <trkpt lat="37.05565" lon="-3.33132">
        <ele>3138</ele>
        <time>2021-08-06 13:52:44</time>
      </trkpt>
      <trkpt lat="37.05565" lon="-3.33133">
        <ele>3138</ele>
        <time>2021-08-06 13:52:45</time>
      </trkpt>
      <trkpt lat="37.05565" lon="-3.33134">
        <ele>3138.2</ele>
        <time>2021-08-06 13:52:46</time>
      </trkpt>
      <trkpt lat="37.05564" lon="-3.33135">
        <ele>3138.2</ele>
        <time>2021-08-06 13:52:47</time>
      </trkpt>
      <trkpt lat="37.05564" lon="-3.33135">
        <ele>3138.4</ele>
        <time>2021-08-06 13:52:48</time>
      </trkpt>
      <trkpt lat="37.05564" lon="-3.33136">
        <ele>3138.4</ele>
        <time>2021-08-06 13:52:49</time>
      </trkpt>
      <trkpt lat="37.05564" lon="-3.33136">
        <ele>3138.4</ele>
        <time>2021-08-06 13:52:50</time>
      </trkpt>
      <trkpt lat="37.05564" lon="-3.33136">
        <ele>3138.4</ele>
        <time>2021-08-06 13:52:51</time>
      </trkpt>
      <trkpt lat="37.05565" lon="-3.33136">
        <ele>3138.6</ele>
        <time>2021-08-06 13:52:52</time>
      </trkpt>
      <trkpt lat="37.05565" lon="-3.33136">
        <ele>3138.8</ele>
        <time>2021-08-06 13:52:53</time>
      </trkpt>
      <trkpt lat="37.05566" lon="-3.33136">
        <ele>3139</ele>
        <time>2021-08-06 13:52:54</time>
      </trkpt>
      <trkpt lat="37.05566" lon="-3.33136">
        <ele>3138.8</ele>
        <time>2021-08-06 13:52:55</time>
      </trkpt>
      <trkpt lat="37.05566" lon="-3.33136">
        <ele>3138.6</ele>
        <time>2021-08-06 13:52:56</time>
      </trkpt>
      <trkpt lat="37.05566" lon="-3.33136">
        <ele>3138.6</ele>
        <time>2021-08-06 13:52:57</time>
      </trkpt>
      <trkpt lat="37.05565" lon="-3.33135">
        <ele>3138.6</ele>
        <time>2021-08-06 13:52:58</time>
      </trkpt>
      <trkpt lat="37.05564" lon="-3.33134">
        <ele>3138.6</ele>
        <time>2021-08-06 13:52:59</time>
      </trkpt>
      <trkpt lat="37.05564" lon="-3.33135">
        <ele>3138.6</ele>
        <time>2021-08-06 13:53:00</time>
      </trkpt>
      <trkpt lat="37.05562" lon="-3.33136">
        <ele>3138.6</ele>
        <time>2021-08-06 13:53:01</time>
      </trkpt>
      <trkpt lat="37.0556" lon="-3.33138">
        <ele>3138.6</ele>
        <time>2021-08-06 13:53:02</time>
      </trkpt>
      <trkpt lat="37.05559" lon="-3.3314">
        <ele>3139</ele>
        <time>2021-08-06 13:53:03</time>
      </trkpt>
      <trkpt lat="37.05557" lon="-3.33141">
        <ele>3139.2</ele>
        <time>2021-08-06 13:53:04</time>
      </trkpt>
      <trkpt lat="37.05556" lon="-3.33142">
        <ele>3138.8</ele>
        <time>2021-08-06 13:53:05</time>
      </trkpt>
      <trkpt lat="37.05555" lon="-3.33142">
        <ele>3138.6</ele>
        <time>2021-08-06 13:53:06</time>
      </trkpt>
      <trkpt lat="37.05555" lon="-3.33144">
        <ele>3138.4</ele>
        <time>2021-08-06 13:53:07</time>
      </trkpt>
      <trkpt lat="37.05555" lon="-3.33144">
        <ele>3138.4</ele>
        <time>2021-08-06 13:53:08</time>
      </trkpt>
      <trkpt lat="37.05555" lon="-3.33144">
        <ele>3138.2</ele>
        <time>2021-08-06 13:53:09</time>
      </trkpt>
      <trkpt lat="37.05555" lon="-3.33144">
        <ele>3138.2</ele>
        <time>2021-08-06 13:53:10</time>
      </trkpt>
      <trkpt lat="37.05554" lon="-3.33144">
        <ele>3138.2</ele>
        <time>2021-08-06 13:53:11</time>
      </trkpt>
      <trkpt lat="37.05554" lon="-3.33145">
        <ele>3138.4</ele>
        <time>2021-08-06 13:53:12</time>
      </trkpt>
      <trkpt lat="37.05554" lon="-3.33145">
        <ele>3138.4</ele>
        <time>2021-08-06 13:53:13</time>
      </trkpt>
      <trkpt lat="37.05554" lon="-3.33145">
        <ele>3138.6</ele>
        <time>2021-08-06 13:53:14</time>
      </trkpt>
      <trkpt lat="37.05554" lon="-3.33145">
        <ele>3138.8</ele>
        <time>2021-08-06 13:53:15</time>
      </trkpt>
      <trkpt lat="37.05553" lon="-3.33146">
        <ele>3139.2</ele>
        <time>2021-08-06 13:53:16</time>
      </trkpt>
      <trkpt lat="37.0555" lon="-3.33149">
        <ele>3139.2</ele>
        <time>2021-08-06 13:53:17</time>
      </trkpt>
      <trkpt lat="37.05548" lon="-3.33151">
        <ele>3139.4</ele>
        <time>2021-08-06 13:53:18</time>
      </trkpt>
      <trkpt lat="37.05547" lon="-3.33152">
        <ele>3139.4</ele>
        <time>2021-08-06 13:53:19</time>
      </trkpt>
      <trkpt lat="37.05547" lon="-3.33153">
        <ele>3139.4</ele>
        <time>2021-08-06 13:53:20</time>
      </trkpt>
      <trkpt lat="37.05547" lon="-3.33153">
        <ele>3139.6</ele>
        <time>2021-08-06 13:53:21</time>
      </trkpt>
      <trkpt lat="37.05546" lon="-3.33153">
        <ele>3139.6</ele>
        <time>2021-08-06 13:53:22</time>
      </trkpt>
      <trkpt lat="37.05546" lon="-3.33154">
        <ele>3139.6</ele>
        <time>2021-08-06 13:53:23</time>
      </trkpt>
      <trkpt lat="37.05546" lon="-3.33154">
        <ele>3139.6</ele>
        <time>2021-08-06 13:53:24</time>
      </trkpt>
      <trkpt lat="37.05545" lon="-3.33155">
        <ele>3139.8</ele>
        <time>2021-08-06 13:53:25</time>
      </trkpt>
      <trkpt lat="37.05545" lon="-3.33155">
        <ele>3139.8</ele>
        <time>2021-08-06 13:53:26</time>
      </trkpt>
      <trkpt lat="37.05544" lon="-3.33156">
        <ele>3139.8</ele>
        <time>2021-08-06 13:53:27</time>
      </trkpt>
      <trkpt lat="37.05544" lon="-3.33156">
        <ele>3139.8</ele>
        <time>2021-08-06 13:53:28</time>
      </trkpt>
      <trkpt lat="37.05545" lon="-3.33157">
        <ele>3139.8</ele>
        <time>2021-08-06 13:53:29</time>
      </trkpt>
      <trkpt lat="37.05546" lon="-3.33156">
        <ele>3139.8</ele>
        <time>2021-08-06 13:53:30</time>
      </trkpt>
      <trkpt lat="37.05546" lon="-3.33155">
        <ele>3139.8</ele>
        <time>2021-08-06 13:53:31</time>
      </trkpt>
      <trkpt lat="37.05547" lon="-3.33154">
        <ele>3140</ele>
        <time>2021-08-06 13:53:32</time>
      </trkpt>
      <trkpt lat="37.05547" lon="-3.33154">
        <ele>3139.8</ele>
        <time>2021-08-06 13:53:33</time>
      </trkpt>
      <trkpt lat="37.05547" lon="-3.33154">
        <ele>3140</ele>
        <time>2021-08-06 13:53:34</time>
      </trkpt>
      <trkpt lat="37.05548" lon="-3.33153">
        <ele>3140</ele>
        <time>2021-08-06 13:53:35</time>
      </trkpt>
      <trkpt lat="37.05548" lon="-3.33152">
        <ele>3139.8</ele>
        <time>2021-08-06 13:53:36</time>
      </trkpt>
      <trkpt lat="37.05549" lon="-3.33152">
        <ele>3139.6</ele>
        <time>2021-08-06 13:53:37</time>
      </trkpt>
      <trkpt lat="37.0555" lon="-3.33151">
        <ele>3139.4</ele>
        <time>2021-08-06 13:53:38</time>
      </trkpt>
      <trkpt lat="37.0555" lon="-3.3315">
        <ele>3139.2</ele>
        <time>2021-08-06 13:53:39</time>
      </trkpt>
      <trkpt lat="37.0555" lon="-3.33148">
        <ele>3139.2</ele>
        <time>2021-08-06 13:53:40</time>
      </trkpt>
      <trkpt lat="37.0555" lon="-3.33147">
        <ele>3139.2</ele>
        <time>2021-08-06 13:53:41</time>
      </trkpt>
      <trkpt lat="37.0555" lon="-3.33147">
        <ele>3139.2</ele>
        <time>2021-08-06 13:53:42</time>
      </trkpt>
      <trkpt lat="37.05551" lon="-3.33146">
        <ele>3139.2</ele>
        <time>2021-08-06 13:53:43</time>
      </trkpt>
      <trkpt lat="37.05551" lon="-3.33146">
        <ele>3139.2</ele>
        <time>2021-08-06 13:53:44</time>
      </trkpt>
      <trkpt lat="37.05551" lon="-3.33146">
        <ele>3139.4</ele>
        <time>2021-08-06 13:53:45</time>
      </trkpt>
      <trkpt lat="37.05551" lon="-3.33146">
        <ele>3139.4</ele>
        <time>2021-08-06 13:53:46</time>
      </trkpt>
      <trkpt lat="37.0555" lon="-3.33147">
        <ele>3139.2</ele>
        <time>2021-08-06 13:53:47</time>
      </trkpt>
      <trkpt lat="37.05549" lon="-3.33148">
        <ele>3139.2</ele>
        <time>2021-08-06 13:53:48</time>
      </trkpt>
      <trkpt lat="37.05549" lon="-3.33149">
        <ele>3139</ele>
        <time>2021-08-06 13:53:49</time>
      </trkpt>
      <trkpt lat="37.05549" lon="-3.3315">
        <ele>3139</ele>
        <time>2021-08-06 13:53:50</time>
      </trkpt>
      <trkpt lat="37.05549" lon="-3.33151">
        <ele>3139</ele>
        <time>2021-08-06 13:53:51</time>
      </trkpt>
      <trkpt lat="37.05549" lon="-3.33152">
        <ele>3139</ele>
        <time>2021-08-06 13:53:52</time>
      </trkpt>
      <trkpt lat="37.05549" lon="-3.33153">
        <ele>3139.6</ele>
        <time>2021-08-06 13:53:53</time>
      </trkpt>
      <trkpt lat="37.0555" lon="-3.33154">
        <ele>3139.8</ele>
        <time>2021-08-06 13:53:54</time>
      </trkpt>
      <trkpt lat="37.0555" lon="-3.33154">
        <ele>3140.2</ele>
        <time>2021-08-06 13:53:55</time>
      </trkpt>
      <trkpt lat="37.05549" lon="-3.33155">
        <ele>3140.2</ele>
        <time>2021-08-06 13:53:56</time>
      </trkpt>
      <trkpt lat="37.05549" lon="-3.33155">
        <ele>3140.2</ele>
        <time>2021-08-06 13:53:57</time>
      </trkpt>
      <trkpt lat="37.05549" lon="-3.33156">
        <ele>3140.6</ele>
        <time>2021-08-06 13:53:58</time>
      </trkpt>
      <trkpt lat="37.05549" lon="-3.33156">
        <ele>3140.4</ele>
        <time>2021-08-06 13:53:59</time>
      </trkpt>
      <trkpt lat="37.05548" lon="-3.33156">
        <ele>3140.6</ele>
        <time>2021-08-06 13:54:00</time>
      </trkpt>
      <trkpt lat="37.05548" lon="-3.33157">
        <ele>3140.8</ele>
        <time>2021-08-06 13:54:01</time>
      </trkpt>
      <trkpt lat="37.05548" lon="-3.33157">
        <ele>3141</ele>
        <time>2021-08-06 13:54:02</time>
      </trkpt>
      <trkpt lat="37.05547" lon="-3.33158">
        <ele>3141.4</ele>
        <time>2021-08-06 13:54:03</time>
      </trkpt>
      <trkpt lat="37.05547" lon="-3.33159">
        <ele>3141.6</ele>
        <time>2021-08-06 13:54:04</time>
      </trkpt>
      <trkpt lat="37.05547" lon="-3.3316">
        <ele>3141.6</ele>
        <time>2021-08-06 13:54:05</time>
      </trkpt>
      <trkpt lat="37.05546" lon="-3.33161">
        <ele>3141.8</ele>
        <time>2021-08-06 13:54:06</time>
      </trkpt>
      <trkpt lat="37.05546" lon="-3.33161">
        <ele>3141.8</ele>
        <time>2021-08-06 13:54:07</time>
      </trkpt>
      <trkpt lat="37.05546" lon="-3.33162">
        <ele>3141.8</ele>
        <time>2021-08-06 13:54:08</time>
      </trkpt>
      <trkpt lat="37.05545" lon="-3.33163">
        <ele>3142</ele>
        <time>2021-08-06 13:54:09</time>
      </trkpt>
      <trkpt lat="37.05545" lon="-3.33164">
        <ele>3142</ele>
        <time>2021-08-06 13:54:10</time>
      </trkpt>
      <trkpt lat="37.05544" lon="-3.33165">
        <ele>3142.2</ele>
        <time>2021-08-06 13:54:11</time>
      </trkpt>
      <trkpt lat="37.05544" lon="-3.33165">
        <ele>3142</ele>
        <time>2021-08-06 13:54:12</time>
      </trkpt>
      <trkpt lat="37.05543" lon="-3.33166">
        <ele>3141.8</ele>
        <time>2021-08-06 13:54:13</time>
      </trkpt>
      <trkpt lat="37.05543" lon="-3.33166">
        <ele>3141.6</ele>
        <time>2021-08-06 13:54:14</time>
      </trkpt>
      <trkpt lat="37.05543" lon="-3.33166">
        <ele>3141.6</ele>
        <time>2021-08-06 13:54:15</time>
      </trkpt>
      <trkpt lat="37.05542" lon="-3.33166">
        <ele>3141.4</ele>
        <time>2021-08-06 13:54:16</time>
      </trkpt>
      <trkpt lat="37.05542" lon="-3.33166">
        <ele>3141.4</ele>
        <time>2021-08-06 13:54:17</time>
      </trkpt>
      <trkpt lat="37.05542" lon="-3.33167">
        <ele>3141.4</ele>
        <time>2021-08-06 13:54:18</time>
      </trkpt>
      <trkpt lat="37.05541" lon="-3.33168">
        <ele>3141.8</ele>
        <time>2021-08-06 13:54:19</time>
      </trkpt>
      <trkpt lat="37.0554" lon="-3.33168">
        <ele>3141.8</ele>
        <time>2021-08-06 13:54:20</time>
      </trkpt>
      <trkpt lat="37.05539" lon="-3.33169">
        <ele>3142</ele>
        <time>2021-08-06 13:54:21</time>
      </trkpt>
      <trkpt lat="37.05539" lon="-3.3317">
        <ele>3142.2</ele>
        <time>2021-08-06 13:54:22</time>
      </trkpt>
      <trkpt lat="37.05539" lon="-3.33171">
        <ele>3142.4</ele>
        <time>2021-08-06 13:54:23</time>
      </trkpt>
      <trkpt lat="37.05538" lon="-3.33171">
        <ele>3142.6</ele>
        <time>2021-08-06 13:54:24</time>
      </trkpt>
      <trkpt lat="37.05538" lon="-3.33172">
        <ele>3142.8</ele>
        <time>2021-08-06 13:54:25</time>
      </trkpt>
      <trkpt lat="37.05538" lon="-3.33173">
        <ele>3142.8</ele>
        <time>2021-08-06 13:54:26</time>
      </trkpt>
      <trkpt lat="37.05537" lon="-3.33174">
        <ele>3142.8</ele>
        <time>2021-08-06 13:54:27</time>
      </trkpt>
      <trkpt lat="37.05536" lon="-3.33175">
        <ele>3143</ele>
        <time>2021-08-06 13:54:28</time>
      </trkpt>
      <trkpt lat="37.05536" lon="-3.33177">
        <ele>3143.2</ele>
        <time>2021-08-06 13:54:29</time>
      </trkpt>
      <trkpt lat="37.05535" lon="-3.33178">
        <ele>3143.2</ele>
        <time>2021-08-06 13:54:30</time>
      </trkpt>
      <trkpt lat="37.05535" lon="-3.33179">
        <ele>3143.4</ele>
        <time>2021-08-06 13:54:31</time>
      </trkpt>
      <trkpt lat="37.05535" lon="-3.3318">
        <ele>3143.6</ele>
        <time>2021-08-06 13:54:32</time>
      </trkpt>
      <trkpt lat="37.05535" lon="-3.33181">
        <ele>3143.6</ele>
        <time>2021-08-06 13:54:33</time>
      </trkpt>
      <trkpt lat="37.05535" lon="-3.33181">
        <ele>3143.6</ele>
        <time>2021-08-06 13:54:34</time>
      </trkpt>
      <trkpt lat="37.05535" lon="-3.33182">
        <ele>3144.2</ele>
        <time>2021-08-06 13:54:35</time>
      </trkpt>
      <trkpt lat="37.05534" lon="-3.33183">
        <ele>3144.4</ele>
        <time>2021-08-06 13:54:36</time>
      </trkpt>
      <trkpt lat="37.05533" lon="-3.33184">
        <ele>3144.6</ele>
        <time>2021-08-06 13:54:37</time>
      </trkpt>
      <trkpt lat="37.05533" lon="-3.33185">
        <ele>3144.6</ele>
        <time>2021-08-06 13:54:38</time>
      </trkpt>
      <trkpt lat="37.05533" lon="-3.33186">
        <ele>3144.6</ele>
        <time>2021-08-06 13:54:39</time>
      </trkpt>
      <trkpt lat="37.05533" lon="-3.33186">
        <ele>3144.6</ele>
        <time>2021-08-06 13:54:40</time>
      </trkpt>
      <trkpt lat="37.05533" lon="-3.33187">
        <ele>3144.4</ele>
        <time>2021-08-06 13:54:41</time>
      </trkpt>
      <trkpt lat="37.05533" lon="-3.33188">
        <ele>3144.4</ele>
        <time>2021-08-06 13:54:42</time>
      </trkpt>
      <trkpt lat="37.05532" lon="-3.33189">
        <ele>3144.4</ele>
        <time>2021-08-06 13:54:43</time>
      </trkpt>
      <trkpt lat="37.05532" lon="-3.33191">
        <ele>3144.6</ele>
        <time>2021-08-06 13:54:44</time>
      </trkpt>
      <trkpt lat="37.05532" lon="-3.33192">
        <ele>3144.8</ele>
        <time>2021-08-06 13:54:45</time>
      </trkpt>
      <trkpt lat="37.05531" lon="-3.33193">
        <ele>3144.8</ele>
        <time>2021-08-06 13:54:46</time>
      </trkpt>
      <trkpt lat="37.05531" lon="-3.33194">
        <ele>3145</ele>
        <time>2021-08-06 13:54:47</time>
      </trkpt>
      <trkpt lat="37.05531" lon="-3.33194">
        <ele>3145.2</ele>
        <time>2021-08-06 13:54:48</time>
      </trkpt>
      <trkpt lat="37.0553" lon="-3.33195">
        <ele>3145.4</ele>
        <time>2021-08-06 13:54:49</time>
      </trkpt>
      <trkpt lat="37.0553" lon="-3.33196">
        <ele>3145.8</ele>
        <time>2021-08-06 13:54:50</time>
      </trkpt>
      <trkpt lat="37.0553" lon="-3.33196">
        <ele>3146</ele>
        <time>2021-08-06 13:54:51</time>
      </trkpt>
      <trkpt lat="37.05529" lon="-3.33196">
        <ele>3146.2</ele>
        <time>2021-08-06 13:54:52</time>
      </trkpt>
      <trkpt lat="37.05529" lon="-3.33196">
        <ele>3146.4</ele>
        <time>2021-08-06 13:54:53</time>
      </trkpt>
      <trkpt lat="37.05529" lon="-3.33196">
        <ele>3146.6</ele>
        <time>2021-08-06 13:54:54</time>
      </trkpt>
      <trkpt lat="37.05528" lon="-3.33197">
        <ele>3146.6</ele>
        <time>2021-08-06 13:54:55</time>
      </trkpt>
      <trkpt lat="37.05528" lon="-3.33197">
        <ele>3146.6</ele>
        <time>2021-08-06 13:54:56</time>
      </trkpt>
      <trkpt lat="37.05528" lon="-3.33198">
        <ele>3146.8</ele>
        <time>2021-08-06 13:54:57</time>
      </trkpt>
      <trkpt lat="37.05527" lon="-3.33198">
        <ele>3146.8</ele>
        <time>2021-08-06 13:54:58</time>
      </trkpt>
      <trkpt lat="37.05526" lon="-3.33198">
        <ele>3147.2</ele>
        <time>2021-08-06 13:54:59</time>
      </trkpt>
      <trkpt lat="37.05525" lon="-3.332">
        <ele>3147.4</ele>
        <time>2021-08-06 13:55:00</time>
      </trkpt>
      <trkpt lat="37.05524" lon="-3.33201">
        <ele>3147.4</ele>
        <time>2021-08-06 13:55:01</time>
      </trkpt>
      <trkpt lat="37.05524" lon="-3.33202">
        <ele>3148</ele>
        <time>2021-08-06 13:55:02</time>
      </trkpt>
      <trkpt lat="37.05523" lon="-3.33203">
        <ele>3148.4</ele>
        <time>2021-08-06 13:55:03</time>
      </trkpt>
      <trkpt lat="37.05523" lon="-3.33204">
        <ele>3148.6</ele>
        <time>2021-08-06 13:55:04</time>
      </trkpt>
      <trkpt lat="37.05522" lon="-3.33204">
        <ele>3148.8</ele>
        <time>2021-08-06 13:55:05</time>
      </trkpt>
      <trkpt lat="37.05522" lon="-3.33204">
        <ele>3149.2</ele>
        <time>2021-08-06 13:55:06</time>
      </trkpt>
      <trkpt lat="37.05522" lon="-3.33205">
        <ele>3149.2</ele>
        <time>2021-08-06 13:55:07</time>
      </trkpt>
      <trkpt lat="37.05521" lon="-3.33205">
        <ele>3149.4</ele>
        <time>2021-08-06 13:55:08</time>
      </trkpt>
      <trkpt lat="37.0552" lon="-3.33206">
        <ele>3149.4</ele>
        <time>2021-08-06 13:55:09</time>
      </trkpt>
      <trkpt lat="37.0552" lon="-3.33207">
        <ele>3149.6</ele>
        <time>2021-08-06 13:55:10</time>
      </trkpt>
      <trkpt lat="37.05519" lon="-3.33208">
        <ele>3149.6</ele>
        <time>2021-08-06 13:55:11</time>
      </trkpt>
      <trkpt lat="37.0552" lon="-3.33208">
        <ele>3150</ele>
        <time>2021-08-06 13:55:12</time>
      </trkpt>
      <trkpt lat="37.0552" lon="-3.33208">
        <ele>3150</ele>
        <time>2021-08-06 13:55:13</time>
      </trkpt>
      <trkpt lat="37.0552" lon="-3.33208">
        <ele>3150.2</ele>
        <time>2021-08-06 13:55:14</time>
      </trkpt>
      <trkpt lat="37.0552" lon="-3.33206">
        <ele>3150.2</ele>
        <time>2021-08-06 13:55:15</time>
      </trkpt>
      <trkpt lat="37.05521" lon="-3.33205">
        <ele>3150.4</ele>
        <time>2021-08-06 13:55:16</time>
      </trkpt>
      <trkpt lat="37.05521" lon="-3.33205">
        <ele>3150.4</ele>
        <time>2021-08-06 13:55:17</time>
      </trkpt>
      <trkpt lat="37.05521" lon="-3.33205">
        <ele>3150.4</ele>
        <time>2021-08-06 13:55:18</time>
      </trkpt>
      <trkpt lat="37.0552" lon="-3.33205">
        <ele>3150.2</ele>
        <time>2021-08-06 13:55:19</time>
      </trkpt>
      <trkpt lat="37.0552" lon="-3.33205">
        <ele>3150.2</ele>
        <time>2021-08-06 13:55:20</time>
      </trkpt>
      <trkpt lat="37.0552" lon="-3.33204">
        <ele>3150</ele>
        <time>2021-08-06 13:55:21</time>
      </trkpt>
      <trkpt lat="37.05519" lon="-3.33205">
        <ele>3149.8</ele>
        <time>2021-08-06 13:55:22</time>
      </trkpt>
      <trkpt lat="37.05519" lon="-3.33205">
        <ele>3149.8</ele>
        <time>2021-08-06 13:55:23</time>
      </trkpt>
      <trkpt lat="37.05518" lon="-3.33206">
        <ele>3149.6</ele>
        <time>2021-08-06 13:55:24</time>
      </trkpt>
      <trkpt lat="37.05518" lon="-3.33207">
        <ele>3149.6</ele>
        <time>2021-08-06 13:55:25</time>
      </trkpt>
      <trkpt lat="37.05517" lon="-3.33208">
        <ele>3149.6</ele>
        <time>2021-08-06 13:55:26</time>
      </trkpt>
      <trkpt lat="37.05517" lon="-3.33209">
        <ele>3149.6</ele>
        <time>2021-08-06 13:55:27</time>
      </trkpt>
      <trkpt lat="37.05516" lon="-3.33211">
        <ele>3149.8</ele>
        <time>2021-08-06 13:55:28</time>
      </trkpt>
      <trkpt lat="37.05516" lon="-3.33213">
        <ele>3149.8</ele>
        <time>2021-08-06 13:55:29</time>
      </trkpt>
      <trkpt lat="37.05515" lon="-3.33215">
        <ele>3150</ele>
        <time>2021-08-06 13:55:30</time>
      </trkpt>
      <trkpt lat="37.05515" lon="-3.33216">
        <ele>3150.2</ele>
        <time>2021-08-06 13:55:31</time>
      </trkpt>
      <trkpt lat="37.05515" lon="-3.33217">
        <ele>3150.4</ele>
        <time>2021-08-06 13:55:32</time>
      </trkpt>
      <trkpt lat="37.05515" lon="-3.33218">
        <ele>3150.6</ele>
        <time>2021-08-06 13:55:33</time>
      </trkpt>
      <trkpt lat="37.05515" lon="-3.33219">
        <ele>3150.6</ele>
        <time>2021-08-06 13:55:34</time>
      </trkpt>
      <trkpt lat="37.05514" lon="-3.33219">
        <ele>3150.8</ele>
        <time>2021-08-06 13:55:35</time>
      </trkpt>
      <trkpt lat="37.05514" lon="-3.3322">
        <ele>3151</ele>
        <time>2021-08-06 13:55:36</time>
      </trkpt>
      <trkpt lat="37.05514" lon="-3.33221">
        <ele>3151.2</ele>
        <time>2021-08-06 13:55:37</time>
      </trkpt>
      <trkpt lat="37.05514" lon="-3.33222">
        <ele>3151.4</ele>
        <time>2021-08-06 13:55:38</time>
      </trkpt>
      <trkpt lat="37.05514" lon="-3.33222">
        <ele>3151.4</ele>
        <time>2021-08-06 13:55:39</time>
      </trkpt>
      <trkpt lat="37.05514" lon="-3.33222">
        <ele>3151.6</ele>
        <time>2021-08-06 13:55:40</time>
      </trkpt>
      <trkpt lat="37.05513" lon="-3.33222">
        <ele>3151.6</ele>
        <time>2021-08-06 13:55:41</time>
      </trkpt>
      <trkpt lat="37.05513" lon="-3.33222">
        <ele>3152</ele>
        <time>2021-08-06 13:55:42</time>
      </trkpt>
      <trkpt lat="37.05513" lon="-3.33222">
        <ele>3152</ele>
        <time>2021-08-06 13:55:43</time>
      </trkpt>
      <trkpt lat="37.05512" lon="-3.33221">
        <ele>3152.2</ele>
        <time>2021-08-06 13:55:44</time>
      </trkpt>
      <trkpt lat="37.05513" lon="-3.33221">
        <ele>3152.2</ele>
        <time>2021-08-06 13:55:45</time>
      </trkpt>
      <trkpt lat="37.05513" lon="-3.33221">
        <ele>3152.2</ele>
        <time>2021-08-06 13:55:46</time>
      </trkpt>
      <trkpt lat="37.05513" lon="-3.33222">
        <ele>3152.6</ele>
        <time>2021-08-06 13:55:47</time>
      </trkpt>
      <trkpt lat="37.05513" lon="-3.33223">
        <ele>3152.8</ele>
        <time>2021-08-06 13:55:48</time>
      </trkpt>
      <trkpt lat="37.05512" lon="-3.33222">
        <ele>3153</ele>
        <time>2021-08-06 13:55:49</time>
      </trkpt>
      <trkpt lat="37.05511" lon="-3.33223">
        <ele>3153</ele>
        <time>2021-08-06 13:55:50</time>
      </trkpt>
      <trkpt lat="37.05511" lon="-3.33223">
        <ele>3153</ele>
        <time>2021-08-06 13:55:51</time>
      </trkpt>
      <trkpt lat="37.05511" lon="-3.33223">
        <ele>3153</ele>
        <time>2021-08-06 13:55:52</time>
      </trkpt>
      <trkpt lat="37.0551" lon="-3.33224">
        <ele>3153.2</ele>
        <time>2021-08-06 13:55:53</time>
      </trkpt>
      <trkpt lat="37.0551" lon="-3.33225">
        <ele>3153.2</ele>
        <time>2021-08-06 13:55:54</time>
      </trkpt>
      <trkpt lat="37.05509" lon="-3.33226">
        <ele>3153.2</ele>
        <time>2021-08-06 13:55:55</time>
      </trkpt>
      <trkpt lat="37.05508" lon="-3.33226">
        <ele>3153.2</ele>
        <time>2021-08-06 13:55:56</time>
      </trkpt>
      <trkpt lat="37.05506" lon="-3.33228">
        <ele>3153.6</ele>
        <time>2021-08-06 13:55:57</time>
      </trkpt>
      <trkpt lat="37.05505" lon="-3.33228">
        <ele>3153.8</ele>
        <time>2021-08-06 13:55:58</time>
      </trkpt>
      <trkpt lat="37.05505" lon="-3.33229">
        <ele>3153.8</ele>
        <time>2021-08-06 13:55:59</time>
      </trkpt>
      <trkpt lat="37.05505" lon="-3.33228">
        <ele>3153.8</ele>
        <time>2021-08-06 13:56:00</time>
      </trkpt>
      <trkpt lat="37.05505" lon="-3.33228">
        <ele>3153.8</ele>
        <time>2021-08-06 13:56:01</time>
      </trkpt>
      <trkpt lat="37.05505" lon="-3.33228">
        <ele>3153.8</ele>
        <time>2021-08-06 13:56:02</time>
      </trkpt>
      <trkpt lat="37.05505" lon="-3.33229">
        <ele>3153.8</ele>
        <time>2021-08-06 13:56:03</time>
      </trkpt>
      <trkpt lat="37.05505" lon="-3.3323">
        <ele>3153.8</ele>
        <time>2021-08-06 13:56:04</time>
      </trkpt>
      <trkpt lat="37.05505" lon="-3.3323">
        <ele>3153.8</ele>
        <time>2021-08-06 13:56:05</time>
      </trkpt>
      <trkpt lat="37.05504" lon="-3.33231">
        <ele>3153.8</ele>
        <time>2021-08-06 13:56:06</time>
      </trkpt>
      <trkpt lat="37.05505" lon="-3.3323">
        <ele>3153.8</ele>
        <time>2021-08-06 13:56:07</time>
      </trkpt>
      <trkpt lat="37.05507" lon="-3.33227">
        <ele>3153.8</ele>
        <time>2021-08-06 13:56:08</time>
      </trkpt>
      <trkpt lat="37.05507" lon="-3.33227">
        <ele>3153.8</ele>
        <time>2021-08-06 13:56:09</time>
      </trkpt>
      <trkpt lat="37.05507" lon="-3.33228">
        <ele>3153.8</ele>
        <time>2021-08-06 13:56:10</time>
      </trkpt>
      <trkpt lat="37.05507" lon="-3.33229">
        <ele>3153.8</ele>
        <time>2021-08-06 13:56:11</time>
      </trkpt>
      <trkpt lat="37.05507" lon="-3.3323">
        <ele>3153.8</ele>
        <time>2021-08-06 13:56:12</time>
      </trkpt>
      <trkpt lat="37.05506" lon="-3.3323">
        <ele>3154.2</ele>
        <time>2021-08-06 13:56:13</time>
      </trkpt>
      <trkpt lat="37.05505" lon="-3.33232">
        <ele>3154.2</ele>
        <time>2021-08-06 13:56:14</time>
      </trkpt>
      <trkpt lat="37.05505" lon="-3.33233">
        <ele>3154.4</ele>
        <time>2021-08-06 13:56:15</time>
      </trkpt>
      <trkpt lat="37.05505" lon="-3.33232">
        <ele>3154.8</ele>
        <time>2021-08-06 13:56:16</time>
      </trkpt>
      <trkpt lat="37.05505" lon="-3.33232">
        <ele>3155</ele>
        <time>2021-08-06 13:56:17</time>
      </trkpt>
      <trkpt lat="37.05505" lon="-3.33233">
        <ele>3155.2</ele>
        <time>2021-08-06 13:56:18</time>
      </trkpt>
      <trkpt lat="37.05505" lon="-3.33233">
        <ele>3155.2</ele>
        <time>2021-08-06 13:56:19</time>
      </trkpt>
      <trkpt lat="37.05504" lon="-3.33234">
        <ele>3155.2</ele>
        <time>2021-08-06 13:56:20</time>
      </trkpt>
      <trkpt lat="37.05504" lon="-3.33234">
        <ele>3155.4</ele>
        <time>2021-08-06 13:56:21</time>
      </trkpt>
      <trkpt lat="37.05505" lon="-3.33234">
        <ele>3155.4</ele>
        <time>2021-08-06 13:56:22</time>
      </trkpt>
      <trkpt lat="37.05504" lon="-3.33235">
        <ele>3155.4</ele>
        <time>2021-08-06 13:56:23</time>
      </trkpt>
      <trkpt lat="37.05504" lon="-3.33234">
        <ele>3155.4</ele>
        <time>2021-08-06 13:56:24</time>
      </trkpt>
      <trkpt lat="37.05504" lon="-3.33234">
        <ele>3155.4</ele>
        <time>2021-08-06 13:56:25</time>
      </trkpt>
      <trkpt lat="37.05504" lon="-3.33234">
        <ele>3155.6</ele>
        <time>2021-08-06 13:56:26</time>
      </trkpt>
      <trkpt lat="37.05504" lon="-3.33235">
        <ele>3156</ele>
        <time>2021-08-06 13:56:27</time>
      </trkpt>
      <trkpt lat="37.05504" lon="-3.33235">
        <ele>3156.4</ele>
        <time>2021-08-06 13:56:28</time>
      </trkpt>
      <trkpt lat="37.05504" lon="-3.33235">
        <ele>3156.4</ele>
        <time>2021-08-06 13:56:29</time>
      </trkpt>
      <trkpt lat="37.05504" lon="-3.33236">
        <ele>3156.6</ele>
        <time>2021-08-06 13:56:30</time>
      </trkpt>
      <trkpt lat="37.05503" lon="-3.33236">
        <ele>3156.6</ele>
        <time>2021-08-06 13:56:31</time>
      </trkpt>
      <trkpt lat="37.05502" lon="-3.33236">
        <ele>3156.4</ele>
        <time>2021-08-06 13:56:32</time>
      </trkpt>
      <trkpt lat="37.05502" lon="-3.33237">
        <ele>3156</ele>
        <time>2021-08-06 13:56:33</time>
      </trkpt>
      <trkpt lat="37.05501" lon="-3.33237">
        <ele>3155.6</ele>
        <time>2021-08-06 13:56:34</time>
      </trkpt>
      <trkpt lat="37.055" lon="-3.33238">
        <ele>3155.4</ele>
        <time>2021-08-06 13:56:35</time>
      </trkpt>
      <trkpt lat="37.055" lon="-3.33238">
        <ele>3155.4</ele>
        <time>2021-08-06 13:56:36</time>
      </trkpt>
      <trkpt lat="37.055" lon="-3.33238">
        <ele>3155.4</ele>
        <time>2021-08-06 13:56:37</time>
      </trkpt>
      <trkpt lat="37.05501" lon="-3.33237">
        <ele>3155.4</ele>
        <time>2021-08-06 13:56:38</time>
      </trkpt>
      <trkpt lat="37.05501" lon="-3.33237">
        <ele>3155.4</ele>
        <time>2021-08-06 13:56:39</time>
      </trkpt>
      <trkpt lat="37.05502" lon="-3.33237">
        <ele>3155.4</ele>
        <time>2021-08-06 13:56:40</time>
      </trkpt>
      <trkpt lat="37.05502" lon="-3.33237">
        <ele>3155.4</ele>
        <time>2021-08-06 13:56:41</time>
      </trkpt>
      <trkpt lat="37.05502" lon="-3.33237">
        <ele>3155.6</ele>
        <time>2021-08-06 13:56:42</time>
      </trkpt>
      <trkpt lat="37.05502" lon="-3.33238">
        <ele>3155.6</ele>
        <time>2021-08-06 13:56:43</time>
      </trkpt>
      <trkpt lat="37.05501" lon="-3.33238">
        <ele>3155.6</ele>
        <time>2021-08-06 13:56:44</time>
      </trkpt>
      <trkpt lat="37.05501" lon="-3.33239">
        <ele>3155.6</ele>
        <time>2021-08-06 13:56:45</time>
      </trkpt>
      <trkpt lat="37.05501" lon="-3.3324">
        <ele>3155.6</ele>
        <time>2021-08-06 13:56:46</time>
      </trkpt>
      <trkpt lat="37.05501" lon="-3.33241">
        <ele>3155.6</ele>
        <time>2021-08-06 13:56:47</time>
      </trkpt>
      <trkpt lat="37.055" lon="-3.33242">
        <ele>3155.8</ele>
        <time>2021-08-06 13:56:48</time>
      </trkpt>
      <trkpt lat="37.05499" lon="-3.33241">
        <ele>3155.6</ele>
        <time>2021-08-06 13:56:49</time>
      </trkpt>
      <trkpt lat="37.05498" lon="-3.33242">
        <ele>3155.6</ele>
        <time>2021-08-06 13:56:50</time>
      </trkpt>
      <trkpt lat="37.05497" lon="-3.33244">
        <ele>3155.6</ele>
        <time>2021-08-06 13:56:51</time>
      </trkpt>
      <trkpt lat="37.05497" lon="-3.33245">
        <ele>3155.8</ele>
        <time>2021-08-06 13:56:52</time>
      </trkpt>
      <trkpt lat="37.05497" lon="-3.33245">
        <ele>3155.8</ele>
        <time>2021-08-06 13:56:53</time>
      </trkpt>
      <trkpt lat="37.05497" lon="-3.33245">
        <ele>3156.2</ele>
        <time>2021-08-06 13:56:54</time>
      </trkpt>
      <trkpt lat="37.05496" lon="-3.33244">
        <ele>3156.4</ele>
        <time>2021-08-06 13:56:55</time>
      </trkpt>
      <trkpt lat="37.05496" lon="-3.33244">
        <ele>3156.6</ele>
        <time>2021-08-06 13:56:56</time>
      </trkpt>
      <trkpt lat="37.05496" lon="-3.33244">
        <ele>3156.6</ele>
        <time>2021-08-06 13:56:57</time>
      </trkpt>
      <trkpt lat="37.05496" lon="-3.33244">
        <ele>3156.8</ele>
        <time>2021-08-06 13:56:58</time>
      </trkpt>
      <trkpt lat="37.05496" lon="-3.33244">
        <ele>3156.8</ele>
        <time>2021-08-06 13:56:59</time>
      </trkpt>
      <trkpt lat="37.05496" lon="-3.33243">
        <ele>3156.8</ele>
        <time>2021-08-06 13:57:00</time>
      </trkpt>
      <trkpt lat="37.05496" lon="-3.33243">
        <ele>3156.8</ele>
        <time>2021-08-06 13:57:01</time>
      </trkpt>
      <trkpt lat="37.05496" lon="-3.33243">
        <ele>3156.8</ele>
        <time>2021-08-06 13:57:02</time>
      </trkpt>
      <trkpt lat="37.05495" lon="-3.33242">
        <ele>3156.8</ele>
        <time>2021-08-06 13:57:03</time>
      </trkpt>
      <trkpt lat="37.05495" lon="-3.33242">
        <ele>3157</ele>
        <time>2021-08-06 13:57:04</time>
      </trkpt>
      <trkpt lat="37.05495" lon="-3.33242">
        <ele>3157.2</ele>
        <time>2021-08-06 13:57:05</time>
      </trkpt>
      <trkpt lat="37.05495" lon="-3.33242">
        <ele>3157.4</ele>
        <time>2021-08-06 13:57:06</time>
      </trkpt>
      <trkpt lat="37.05494" lon="-3.33241">
        <ele>3157.6</ele>
        <time>2021-08-06 13:57:07</time>
      </trkpt>
      <trkpt lat="37.05494" lon="-3.3324">
        <ele>3157.6</ele>
        <time>2021-08-06 13:57:08</time>
      </trkpt>
      <trkpt lat="37.05494" lon="-3.33239">
        <ele>3157.6</ele>
        <time>2021-08-06 13:57:09</time>
      </trkpt>
      <trkpt lat="37.05493" lon="-3.33239">
        <ele>3157.4</ele>
        <time>2021-08-06 13:57:10</time>
      </trkpt>
      <trkpt lat="37.05493" lon="-3.33238">
        <ele>3157.4</ele>
        <time>2021-08-06 13:57:11</time>
      </trkpt>
      <trkpt lat="37.05492" lon="-3.33238">
        <ele>3157</ele>
        <time>2021-08-06 13:57:12</time>
      </trkpt>
      <trkpt lat="37.05492" lon="-3.33237">
        <ele>3157</ele>
        <time>2021-08-06 13:57:13</time>
      </trkpt>
      <trkpt lat="37.05491" lon="-3.33237">
        <ele>3156.8</ele>
        <time>2021-08-06 13:57:14</time>
      </trkpt>
      <trkpt lat="37.05491" lon="-3.33238">
        <ele>3156.8</ele>
        <time>2021-08-06 13:57:15</time>
      </trkpt>
      <trkpt lat="37.0549" lon="-3.33239">
        <ele>3156.8</ele>
        <time>2021-08-06 13:57:16</time>
      </trkpt>
      <trkpt lat="37.0549" lon="-3.3324">
        <ele>3156.6</ele>
        <time>2021-08-06 13:57:17</time>
      </trkpt>
      <trkpt lat="37.05489" lon="-3.3324">
        <ele>3156.6</ele>
        <time>2021-08-06 13:57:18</time>
      </trkpt>
      <trkpt lat="37.05488" lon="-3.33241">
        <ele>3156.6</ele>
        <time>2021-08-06 13:57:19</time>
      </trkpt>
      <trkpt lat="37.05488" lon="-3.33242">
        <ele>3157</ele>
        <time>2021-08-06 13:57:20</time>
      </trkpt>
      <trkpt lat="37.05488" lon="-3.33243">
        <ele>3157.2</ele>
        <time>2021-08-06 13:57:21</time>
      </trkpt>
      <trkpt lat="37.05488" lon="-3.33244">
        <ele>3157.2</ele>
        <time>2021-08-06 13:57:22</time>
      </trkpt>
      <trkpt lat="37.05488" lon="-3.33244">
        <ele>3157.4</ele>
        <time>2021-08-06 13:57:23</time>
      </trkpt>
      <trkpt lat="37.05488" lon="-3.33245">
        <ele>3157.6</ele>
        <time>2021-08-06 13:57:24</time>
      </trkpt>
      <trkpt lat="37.05488" lon="-3.33246">
        <ele>3157.8</ele>
        <time>2021-08-06 13:57:25</time>
      </trkpt>
      <trkpt lat="37.05487" lon="-3.33246">
        <ele>3158</ele>
        <time>2021-08-06 13:57:26</time>
      </trkpt>
      <trkpt lat="37.05487" lon="-3.33248">
        <ele>3158.2</ele>
        <time>2021-08-06 13:57:27</time>
      </trkpt>
      <trkpt lat="37.05487" lon="-3.33248">
        <ele>3158.2</ele>
        <time>2021-08-06 13:57:28</time>
      </trkpt>
      <trkpt lat="37.05486" lon="-3.33249">
        <ele>3158.4</ele>
        <time>2021-08-06 13:57:29</time>
      </trkpt>
      <trkpt lat="37.05486" lon="-3.3325">
        <ele>3158.6</ele>
        <time>2021-08-06 13:57:30</time>
      </trkpt>
      <trkpt lat="37.05486" lon="-3.33251">
        <ele>3158.8</ele>
        <time>2021-08-06 13:57:31</time>
      </trkpt>
      <trkpt lat="37.05486" lon="-3.33252">
        <ele>3159</ele>
        <time>2021-08-06 13:57:32</time>
      </trkpt>
      <trkpt lat="37.05486" lon="-3.33253">
        <ele>3159</ele>
        <time>2021-08-06 13:57:33</time>
      </trkpt>
      <trkpt lat="37.05486" lon="-3.33254">
        <ele>3159</ele>
        <time>2021-08-06 13:57:34</time>
      </trkpt>
      <trkpt lat="37.05486" lon="-3.33255">
        <ele>3159.2</ele>
        <time>2021-08-06 13:57:35</time>
      </trkpt>
      <trkpt lat="37.05486" lon="-3.33255">
        <ele>3159.2</ele>
        <time>2021-08-06 13:57:36</time>
      </trkpt>
      <trkpt lat="37.05485" lon="-3.33256">
        <ele>3159</ele>
        <time>2021-08-06 13:57:37</time>
      </trkpt>
      <trkpt lat="37.05485" lon="-3.33257">
        <ele>3159</ele>
        <time>2021-08-06 13:57:38</time>
      </trkpt>
      <trkpt lat="37.05484" lon="-3.33258">
        <ele>3159</ele>
        <time>2021-08-06 13:57:39</time>
      </trkpt>
      <trkpt lat="37.05484" lon="-3.33258">
        <ele>3159</ele>
        <time>2021-08-06 13:57:40</time>
      </trkpt>
      <trkpt lat="37.05483" lon="-3.33258">
        <ele>3159</ele>
        <time>2021-08-06 13:57:41</time>
      </trkpt>
      <trkpt lat="37.05483" lon="-3.33258">
        <ele>3158.8</ele>
        <time>2021-08-06 13:57:42</time>
      </trkpt>
      <trkpt lat="37.05483" lon="-3.33258">
        <ele>3159</ele>
        <time>2021-08-06 13:57:43</time>
      </trkpt>
      <trkpt lat="37.05482" lon="-3.33257">
        <ele>3159.2</ele>
        <time>2021-08-06 13:57:44</time>
      </trkpt>
      <trkpt lat="37.05482" lon="-3.33257">
        <ele>3159.4</ele>
        <time>2021-08-06 13:57:45</time>
      </trkpt>
      <trkpt lat="37.05481" lon="-3.33257">
        <ele>3159.8</ele>
        <time>2021-08-06 13:57:46</time>
      </trkpt>
      <trkpt lat="37.05481" lon="-3.33256">
        <ele>3160</ele>
        <time>2021-08-06 13:57:47</time>
      </trkpt>
      <trkpt lat="37.05481" lon="-3.33256">
        <ele>3160.2</ele>
        <time>2021-08-06 13:57:48</time>
      </trkpt>
      <trkpt lat="37.0548" lon="-3.33256">
        <ele>3160.4</ele>
        <time>2021-08-06 13:57:49</time>
      </trkpt>
      <trkpt lat="37.0548" lon="-3.33255">
        <ele>3160.4</ele>
        <time>2021-08-06 13:57:50</time>
      </trkpt>
      <trkpt lat="37.05479" lon="-3.33255">
        <ele>3160.4</ele>
        <time>2021-08-06 13:57:51</time>
      </trkpt>
      <trkpt lat="37.05479" lon="-3.33256">
        <ele>3160.4</ele>
        <time>2021-08-06 13:57:52</time>
      </trkpt>
      <trkpt lat="37.05479" lon="-3.33256">
        <ele>3160.6</ele>
        <time>2021-08-06 13:57:53</time>
      </trkpt>
      <trkpt lat="37.05478" lon="-3.33255">
        <ele>3160.6</ele>
        <time>2021-08-06 13:57:54</time>
      </trkpt>
      <trkpt lat="37.05477" lon="-3.33255">
        <ele>3160.6</ele>
        <time>2021-08-06 13:57:55</time>
      </trkpt>
      <trkpt lat="37.05477" lon="-3.33255">
        <ele>3160.4</ele>
        <time>2021-08-06 13:57:56</time>
      </trkpt>
      <trkpt lat="37.05476" lon="-3.33256">
        <ele>3160.4</ele>
        <time>2021-08-06 13:57:57</time>
      </trkpt>
      <trkpt lat="37.05476" lon="-3.33256">
        <ele>3160.4</ele>
        <time>2021-08-06 13:57:58</time>
      </trkpt>
      <trkpt lat="37.05475" lon="-3.33255">
        <ele>3160.4</ele>
        <time>2021-08-06 13:57:59</time>
      </trkpt>
      <trkpt lat="37.05475" lon="-3.33255">
        <ele>3160.6</ele>
        <time>2021-08-06 13:58:00</time>
      </trkpt>
      <trkpt lat="37.05474" lon="-3.33254">
        <ele>3160.8</ele>
        <time>2021-08-06 13:58:01</time>
      </trkpt>
      <trkpt lat="37.05474" lon="-3.33255">
        <ele>3160.8</ele>
        <time>2021-08-06 13:58:02</time>
      </trkpt>
      <trkpt lat="37.05474" lon="-3.33256">
        <ele>3160.8</ele>
        <time>2021-08-06 13:58:03</time>
      </trkpt>
      <trkpt lat="37.05473" lon="-3.33257">
        <ele>3161</ele>
        <time>2021-08-06 13:58:04</time>
      </trkpt>
      <trkpt lat="37.05473" lon="-3.33258">
        <ele>3161</ele>
        <time>2021-08-06 13:58:05</time>
      </trkpt>
      <trkpt lat="37.05472" lon="-3.33259">
        <ele>3161</ele>
        <time>2021-08-06 13:58:06</time>
      </trkpt>
      <trkpt lat="37.05472" lon="-3.3326">
        <ele>3161.2</ele>
        <time>2021-08-06 13:58:07</time>
      </trkpt>
      <trkpt lat="37.05472" lon="-3.3326">
        <ele>3161.2</ele>
        <time>2021-08-06 13:58:08</time>
      </trkpt>
      <trkpt lat="37.05472" lon="-3.33261">
        <ele>3161.4</ele>
        <time>2021-08-06 13:58:09</time>
      </trkpt>
      <trkpt lat="37.05472" lon="-3.33261">
        <ele>3161.6</ele>
        <time>2021-08-06 13:58:10</time>
      </trkpt>
      <trkpt lat="37.05471" lon="-3.33261">
        <ele>3162</ele>
        <time>2021-08-06 13:58:11</time>
      </trkpt>
      <trkpt lat="37.0547" lon="-3.33261">
        <ele>3162.2</ele>
        <time>2021-08-06 13:58:12</time>
      </trkpt>
      <trkpt lat="37.0547" lon="-3.33261">
        <ele>3162.4</ele>
        <time>2021-08-06 13:58:13</time>
      </trkpt>
      <trkpt lat="37.05469" lon="-3.33261">
        <ele>3162.6</ele>
        <time>2021-08-06 13:58:14</time>
      </trkpt>
      <trkpt lat="37.05469" lon="-3.33262">
        <ele>3162.6</ele>
        <time>2021-08-06 13:58:15</time>
      </trkpt>
      <trkpt lat="37.05469" lon="-3.33262">
        <ele>3162.6</ele>
        <time>2021-08-06 13:58:16</time>
      </trkpt>
      <trkpt lat="37.05469" lon="-3.33262">
        <ele>3162.6</ele>
        <time>2021-08-06 13:58:17</time>
      </trkpt>
      <trkpt lat="37.05468" lon="-3.33263">
        <ele>3162.6</ele>
        <time>2021-08-06 13:58:18</time>
      </trkpt>
      <trkpt lat="37.05467" lon="-3.33264">
        <ele>3162.6</ele>
        <time>2021-08-06 13:58:19</time>
      </trkpt>
      <trkpt lat="37.05467" lon="-3.33265">
        <ele>3162.6</ele>
        <time>2021-08-06 13:58:20</time>
      </trkpt>
      <trkpt lat="37.05466" lon="-3.33266">
        <ele>3162.8</ele>
        <time>2021-08-06 13:58:21</time>
      </trkpt>
      <trkpt lat="37.05465" lon="-3.33267">
        <ele>3162.8</ele>
        <time>2021-08-06 13:58:22</time>
      </trkpt>
      <trkpt lat="37.05465" lon="-3.33268">
        <ele>3162.8</ele>
        <time>2021-08-06 13:58:23</time>
      </trkpt>
      <trkpt lat="37.05464" lon="-3.33268">
        <ele>3163</ele>
        <time>2021-08-06 13:58:24</time>
      </trkpt>
      <trkpt lat="37.05464" lon="-3.33268">
        <ele>3163</ele>
        <time>2021-08-06 13:58:25</time>
      </trkpt>
      <trkpt lat="37.05464" lon="-3.33269">
        <ele>3163.2</ele>
        <time>2021-08-06 13:58:26</time>
      </trkpt>
      <trkpt lat="37.05463" lon="-3.33269">
        <ele>3163.4</ele>
        <time>2021-08-06 13:58:27</time>
      </trkpt>
      <trkpt lat="37.05462" lon="-3.3327">
        <ele>3163.6</ele>
        <time>2021-08-06 13:58:28</time>
      </trkpt>
      <trkpt lat="37.05462" lon="-3.3327">
        <ele>3163.6</ele>
        <time>2021-08-06 13:58:29</time>
      </trkpt>
      <trkpt lat="37.05461" lon="-3.3327">
        <ele>3163.6</ele>
        <time>2021-08-06 13:58:30</time>
      </trkpt>
      <trkpt lat="37.0546" lon="-3.33269">
        <ele>3163.6</ele>
        <time>2021-08-06 13:58:31</time>
      </trkpt>
      <trkpt lat="37.05459" lon="-3.33269">
        <ele>3163.6</ele>
        <time>2021-08-06 13:58:32</time>
      </trkpt>
      <trkpt lat="37.05459" lon="-3.33269">
        <ele>3163.6</ele>
        <time>2021-08-06 13:58:33</time>
      </trkpt>
      <trkpt lat="37.05458" lon="-3.33269">
        <ele>3163.6</ele>
        <time>2021-08-06 13:58:34</time>
      </trkpt>
      <trkpt lat="37.05458" lon="-3.3327">
        <ele>3163.4</ele>
        <time>2021-08-06 13:58:35</time>
      </trkpt>
      <trkpt lat="37.05457" lon="-3.3327">
        <ele>3163.4</ele>
        <time>2021-08-06 13:58:36</time>
      </trkpt>
      <trkpt lat="37.05457" lon="-3.3327">
        <ele>3163.4</ele>
        <time>2021-08-06 13:58:37</time>
      </trkpt>
      <trkpt lat="37.05457" lon="-3.3327">
        <ele>3163.4</ele>
        <time>2021-08-06 13:58:38</time>
      </trkpt>
      <trkpt lat="37.05456" lon="-3.33269">
        <ele>3163.8</ele>
        <time>2021-08-06 13:58:39</time>
      </trkpt>
      <trkpt lat="37.05456" lon="-3.3327">
        <ele>3163.8</ele>
        <time>2021-08-06 13:58:40</time>
      </trkpt>
      <trkpt lat="37.05455" lon="-3.3327">
        <ele>3164</ele>
        <time>2021-08-06 13:58:41</time>
      </trkpt>
      <trkpt lat="37.05455" lon="-3.3327">
        <ele>3164</ele>
        <time>2021-08-06 13:58:42</time>
      </trkpt>
      <trkpt lat="37.05455" lon="-3.3327">
        <ele>3164.2</ele>
        <time>2021-08-06 13:58:43</time>
      </trkpt>
      <trkpt lat="37.05454" lon="-3.3327">
        <ele>3164.2</ele>
        <time>2021-08-06 13:58:44</time>
      </trkpt>
      <trkpt lat="37.05454" lon="-3.33269">
        <ele>3164.8</ele>
        <time>2021-08-06 13:58:45</time>
      </trkpt>
      <trkpt lat="37.05454" lon="-3.33269">
        <ele>3165</ele>
        <time>2021-08-06 13:58:46</time>
      </trkpt>
      <trkpt lat="37.05453" lon="-3.3327">
        <ele>3165.4</ele>
        <time>2021-08-06 13:58:47</time>
      </trkpt>
      <trkpt lat="37.05453" lon="-3.33271">
        <ele>3166</ele>
        <time>2021-08-06 13:58:48</time>
      </trkpt>
      <trkpt lat="37.05452" lon="-3.33271">
        <ele>3166.2</ele>
        <time>2021-08-06 13:58:49</time>
      </trkpt>
      <trkpt lat="37.05451" lon="-3.33272">
        <ele>3166.2</ele>
        <time>2021-08-06 13:58:50</time>
      </trkpt>
      <trkpt lat="37.05451" lon="-3.33272">
        <ele>3166.4</ele>
        <time>2021-08-06 13:58:51</time>
      </trkpt>
      <trkpt lat="37.0545" lon="-3.33272">
        <ele>3166.4</ele>
        <time>2021-08-06 13:58:52</time>
      </trkpt>
      <trkpt lat="37.0545" lon="-3.33272">
        <ele>3166.4</ele>
        <time>2021-08-06 13:58:53</time>
      </trkpt>
      <trkpt lat="37.0545" lon="-3.33272">
        <ele>3166.4</ele>
        <time>2021-08-06 13:58:54</time>
      </trkpt>
      <trkpt lat="37.0545" lon="-3.33274">
        <ele>3166.2</ele>
        <time>2021-08-06 13:58:55</time>
      </trkpt>
      <trkpt lat="37.05451" lon="-3.33274">
        <ele>3166.2</ele>
        <time>2021-08-06 13:58:56</time>
      </trkpt>
      <trkpt lat="37.05451" lon="-3.33274">
        <ele>3166.2</ele>
        <time>2021-08-06 13:58:57</time>
      </trkpt>
      <trkpt lat="37.05451" lon="-3.33274">
        <ele>3166.4</ele>
        <time>2021-08-06 13:58:58</time>
      </trkpt>
      <trkpt lat="37.05451" lon="-3.33274">
        <ele>3166.6</ele>
        <time>2021-08-06 13:58:59</time>
      </trkpt>
      <trkpt lat="37.0545" lon="-3.33274">
        <ele>3167</ele>
        <time>2021-08-06 13:59:00</time>
      </trkpt>
      <trkpt lat="37.0545" lon="-3.33275">
        <ele>3167.4</ele>
        <time>2021-08-06 13:59:01</time>
      </trkpt>
      <trkpt lat="37.0545" lon="-3.33276">
        <ele>3167.4</ele>
        <time>2021-08-06 13:59:02</time>
      </trkpt>
      <trkpt lat="37.05449" lon="-3.33276">
        <ele>3167.6</ele>
        <time>2021-08-06 13:59:03</time>
      </trkpt>
      <trkpt lat="37.05448" lon="-3.33275">
        <ele>3167.8</ele>
        <time>2021-08-06 13:59:04</time>
      </trkpt>
      <trkpt lat="37.05448" lon="-3.33275">
        <ele>3168</ele>
        <time>2021-08-06 13:59:05</time>
      </trkpt>
      <trkpt lat="37.05448" lon="-3.33275">
        <ele>3168</ele>
        <time>2021-08-06 13:59:06</time>
      </trkpt>
      <trkpt lat="37.05447" lon="-3.33275">
        <ele>3168</ele>
        <time>2021-08-06 13:59:07</time>
      </trkpt>
      <trkpt lat="37.05447" lon="-3.33275">
        <ele>3168.4</ele>
        <time>2021-08-06 13:59:08</time>
      </trkpt>
      <trkpt lat="37.05446" lon="-3.33276">
        <ele>3168.6</ele>
        <time>2021-08-06 13:59:09</time>
      </trkpt>
      <trkpt lat="37.05445" lon="-3.33277">
        <ele>3169</ele>
        <time>2021-08-06 13:59:10</time>
      </trkpt>
      <trkpt lat="37.05445" lon="-3.33277">
        <ele>3169.4</ele>
        <time>2021-08-06 13:59:11</time>
      </trkpt>
      <trkpt lat="37.05444" lon="-3.33278">
        <ele>3169.8</ele>
        <time>2021-08-06 13:59:12</time>
      </trkpt>
      <trkpt lat="37.05444" lon="-3.33278">
        <ele>3169.8</ele>
        <time>2021-08-06 13:59:13</time>
      </trkpt>
      <trkpt lat="37.05444" lon="-3.33278">
        <ele>3169.8</ele>
        <time>2021-08-06 13:59:14</time>
      </trkpt>
      <trkpt lat="37.05443" lon="-3.33278">
        <ele>3170.2</ele>
        <time>2021-08-06 13:59:15</time>
      </trkpt>
      <trkpt lat="37.05443" lon="-3.33278">
        <ele>3170.4</ele>
        <time>2021-08-06 13:59:16</time>
      </trkpt>
      <trkpt lat="37.05444" lon="-3.33279">
        <ele>3170.6</ele>
        <time>2021-08-06 13:59:17</time>
      </trkpt>
      <trkpt lat="37.05444" lon="-3.33279">
        <ele>3170.6</ele>
        <time>2021-08-06 13:59:18</time>
      </trkpt>
      <trkpt lat="37.05444" lon="-3.33281">
        <ele>3170.8</ele>
        <time>2021-08-06 13:59:19</time>
      </trkpt>
      <trkpt lat="37.05443" lon="-3.33283">
        <ele>3170.8</ele>
        <time>2021-08-06 13:59:20</time>
      </trkpt>
      <trkpt lat="37.05442" lon="-3.33286">
        <ele>3170.8</ele>
        <time>2021-08-06 13:59:21</time>
      </trkpt>
      <trkpt lat="37.05441" lon="-3.33287">
        <ele>3170.8</ele>
        <time>2021-08-06 13:59:22</time>
      </trkpt>
      <trkpt lat="37.05441" lon="-3.33288">
        <ele>3171</ele>
        <time>2021-08-06 13:59:23</time>
      </trkpt>
      <trkpt lat="37.05441" lon="-3.33288">
        <ele>3171</ele>
        <time>2021-08-06 13:59:24</time>
      </trkpt>
      <trkpt lat="37.05441" lon="-3.33288">
        <ele>3171</ele>
        <time>2021-08-06 13:59:25</time>
      </trkpt>
      <trkpt lat="37.05442" lon="-3.33288">
        <ele>3171.2</ele>
        <time>2021-08-06 13:59:26</time>
      </trkpt>
      <trkpt lat="37.05442" lon="-3.33289">
        <ele>3171.4</ele>
        <time>2021-08-06 13:59:27</time>
      </trkpt>
      <trkpt lat="37.05443" lon="-3.33289">
        <ele>3171.4</ele>
        <time>2021-08-06 13:59:28</time>
      </trkpt>
      <trkpt lat="37.05443" lon="-3.33289">
        <ele>3171.6</ele>
        <time>2021-08-06 13:59:29</time>
      </trkpt>
      <trkpt lat="37.05444" lon="-3.33289">
        <ele>3171.6</ele>
        <time>2021-08-06 13:59:30</time>
      </trkpt>
      <trkpt lat="37.05443" lon="-3.33289">
        <ele>3171.8</ele>
        <time>2021-08-06 13:59:31</time>
      </trkpt>
      <trkpt lat="37.05442" lon="-3.33289">
        <ele>3171.8</ele>
        <time>2021-08-06 13:59:32</time>
      </trkpt>
      <trkpt lat="37.05442" lon="-3.3329">
        <ele>3171.8</ele>
        <time>2021-08-06 13:59:33</time>
      </trkpt>
      <trkpt lat="37.05441" lon="-3.3329">
        <ele>3172</ele>
        <time>2021-08-06 13:59:34</time>
      </trkpt>
      <trkpt lat="37.05441" lon="-3.33291">
        <ele>3172.2</ele>
        <time>2021-08-06 13:59:35</time>
      </trkpt>
      <trkpt lat="37.0544" lon="-3.33291">
        <ele>3172.4</ele>
        <time>2021-08-06 13:59:36</time>
      </trkpt>
      <trkpt lat="37.0544" lon="-3.33291">
        <ele>3172.4</ele>
        <time>2021-08-06 13:59:37</time>
      </trkpt>
      <trkpt lat="37.05439" lon="-3.33291">
        <ele>3172.8</ele>
        <time>2021-08-06 13:59:38</time>
      </trkpt>
      <trkpt lat="37.05438" lon="-3.33291">
        <ele>3173.2</ele>
        <time>2021-08-06 13:59:39</time>
      </trkpt>
      <trkpt lat="37.05437" lon="-3.3329">
        <ele>3173.4</ele>
        <time>2021-08-06 13:59:40</time>
      </trkpt>
      <trkpt lat="37.05436" lon="-3.33291">
        <ele>3173.8</ele>
        <time>2021-08-06 13:59:41</time>
      </trkpt>
      <trkpt lat="37.05436" lon="-3.33291">
        <ele>3174</ele>
        <time>2021-08-06 13:59:42</time>
      </trkpt>
      <trkpt lat="37.05435" lon="-3.33292">
        <ele>3174</ele>
        <time>2021-08-06 13:59:43</time>
      </trkpt>
      <trkpt lat="37.05434" lon="-3.33292">
        <ele>3174.2</ele>
        <time>2021-08-06 13:59:44</time>
      </trkpt>
      <trkpt lat="37.05433" lon="-3.33292">
        <ele>3174.2</ele>
        <time>2021-08-06 13:59:45</time>
      </trkpt>
      <trkpt lat="37.05433" lon="-3.33292">
        <ele>3174.2</ele>
        <time>2021-08-06 13:59:46</time>
      </trkpt>
      <trkpt lat="37.05432" lon="-3.33291">
        <ele>3174.4</ele>
        <time>2021-08-06 13:59:47</time>
      </trkpt>
      <trkpt lat="37.05432" lon="-3.33291">
        <ele>3174.4</ele>
        <time>2021-08-06 13:59:48</time>
      </trkpt>
      <trkpt lat="37.05432" lon="-3.33291">
        <ele>3174.8</ele>
        <time>2021-08-06 13:59:49</time>
      </trkpt>
      <trkpt lat="37.05432" lon="-3.33291">
        <ele>3175</ele>
        <time>2021-08-06 13:59:50</time>
      </trkpt>
      <trkpt lat="37.05432" lon="-3.33292">
        <ele>3175</ele>
        <time>2021-08-06 13:59:51</time>
      </trkpt>
      <trkpt lat="37.05431" lon="-3.33293">
        <ele>3175.2</ele>
        <time>2021-08-06 13:59:52</time>
      </trkpt>
      <trkpt lat="37.0543" lon="-3.33293">
        <ele>3175.4</ele>
        <time>2021-08-06 13:59:53</time>
      </trkpt>
      <trkpt lat="37.05429" lon="-3.33294">
        <ele>3175.6</ele>
        <time>2021-08-06 13:59:54</time>
      </trkpt>
      <trkpt lat="37.05428" lon="-3.33295">
        <ele>3175.6</ele>
        <time>2021-08-06 13:59:55</time>
      </trkpt>
      <trkpt lat="37.05428" lon="-3.33295">
        <ele>3175.6</ele>
        <time>2021-08-06 13:59:56</time>
      </trkpt>
      <trkpt lat="37.05427" lon="-3.33295">
        <ele>3175.6</ele>
        <time>2021-08-06 13:59:57</time>
      </trkpt>
      <trkpt lat="37.05426" lon="-3.33296">
        <ele>3175.8</ele>
        <time>2021-08-06 13:59:58</time>
      </trkpt>
      <trkpt lat="37.05426" lon="-3.33296">
        <ele>3175.8</ele>
        <time>2021-08-06 13:59:59</time>
      </trkpt>
      <trkpt lat="37.05425" lon="-3.33295">
        <ele>3176.2</ele>
        <time>2021-08-06 14:00:00</time>
      </trkpt>
      <trkpt lat="37.05424" lon="-3.33295">
        <ele>3176.4</ele>
        <time>2021-08-06 14:00:01</time>
      </trkpt>
      <trkpt lat="37.05423" lon="-3.33295">
        <ele>3176.6</ele>
        <time>2021-08-06 14:00:02</time>
      </trkpt>
      <trkpt lat="37.05422" lon="-3.33295">
        <ele>3176.8</ele>
        <time>2021-08-06 14:00:03</time>
      </trkpt>
      <trkpt lat="37.05422" lon="-3.33294">
        <ele>3176.8</ele>
        <time>2021-08-06 14:00:04</time>
      </trkpt>
      <trkpt lat="37.05421" lon="-3.33294">
        <ele>3176.8</ele>
        <time>2021-08-06 14:00:05</time>
      </trkpt>
      <trkpt lat="37.0542" lon="-3.33294">
        <ele>3177.2</ele>
        <time>2021-08-06 14:00:06</time>
      </trkpt>
      <trkpt lat="37.0542" lon="-3.33294">
        <ele>3177.2</ele>
        <time>2021-08-06 14:00:07</time>
      </trkpt>
      <trkpt lat="37.0542" lon="-3.33296">
        <ele>3177.4</ele>
        <time>2021-08-06 14:00:08</time>
      </trkpt>
      <trkpt lat="37.05419" lon="-3.33296">
        <ele>3177.4</ele>
        <time>2021-08-06 14:00:09</time>
      </trkpt>
      <trkpt lat="37.05419" lon="-3.33295">
        <ele>3177.4</ele>
        <time>2021-08-06 14:00:10</time>
      </trkpt>
      <trkpt lat="37.05418" lon="-3.33294">
        <ele>3177.6</ele>
        <time>2021-08-06 14:00:11</time>
      </trkpt>
      <trkpt lat="37.05418" lon="-3.33293">
        <ele>3177.8</ele>
        <time>2021-08-06 14:00:12</time>
      </trkpt>
      <trkpt lat="37.05417" lon="-3.33292">
        <ele>3177.8</ele>
        <time>2021-08-06 14:00:13</time>
      </trkpt>
      <trkpt lat="37.05416" lon="-3.3329">
        <ele>3178</ele>
        <time>2021-08-06 14:00:14</time>
      </trkpt>
      <trkpt lat="37.05416" lon="-3.33289">
        <ele>3178.2</ele>
        <time>2021-08-06 14:00:15</time>
      </trkpt>
      <trkpt lat="37.05415" lon="-3.33289">
        <ele>3178.2</ele>
        <time>2021-08-06 14:00:16</time>
      </trkpt>
      <trkpt lat="37.05414" lon="-3.33288">
        <ele>3178.6</ele>
        <time>2021-08-06 14:00:17</time>
      </trkpt>
      <trkpt lat="37.05414" lon="-3.33288">
        <ele>3178.8</ele>
        <time>2021-08-06 14:00:18</time>
      </trkpt>
      <trkpt lat="37.05413" lon="-3.33288">
        <ele>3179</ele>
        <time>2021-08-06 14:00:19</time>
      </trkpt>
      <trkpt lat="37.05413" lon="-3.33288">
        <ele>3179</ele>
        <time>2021-08-06 14:00:20</time>
      </trkpt>
      <trkpt lat="37.05412" lon="-3.33288">
        <ele>3179.4</ele>
        <time>2021-08-06 14:00:21</time>
      </trkpt>
      <trkpt lat="37.05411" lon="-3.33287">
        <ele>3179.6</ele>
        <time>2021-08-06 14:00:22</time>
      </trkpt>
      <trkpt lat="37.0541" lon="-3.33287">
        <ele>3179.8</ele>
        <time>2021-08-06 14:00:23</time>
      </trkpt>
      <trkpt lat="37.0541" lon="-3.33287">
        <ele>3180</ele>
        <time>2021-08-06 14:00:24</time>
      </trkpt>
      <trkpt lat="37.05409" lon="-3.33287">
        <ele>3180.4</ele>
        <time>2021-08-06 14:00:25</time>
      </trkpt>
      <trkpt lat="37.05409" lon="-3.33287">
        <ele>3180.4</ele>
        <time>2021-08-06 14:00:26</time>
      </trkpt>
      <trkpt lat="37.05408" lon="-3.33288">
        <ele>3180.6</ele>
        <time>2021-08-06 14:00:27</time>
      </trkpt>
      <trkpt lat="37.05407" lon="-3.33288">
        <ele>3180.8</ele>
        <time>2021-08-06 14:00:28</time>
      </trkpt>
      <trkpt lat="37.05407" lon="-3.33289">
        <ele>3181</ele>
        <time>2021-08-06 14:00:29</time>
      </trkpt>
      <trkpt lat="37.05406" lon="-3.3329">
        <ele>3181.4</ele>
        <time>2021-08-06 14:00:30</time>
      </trkpt>
      <trkpt lat="37.05406" lon="-3.33291">
        <ele>3181.6</ele>
        <time>2021-08-06 14:00:31</time>
      </trkpt>
      <trkpt lat="37.05405" lon="-3.33291">
        <ele>3181.8</ele>
        <time>2021-08-06 14:00:32</time>
      </trkpt>
      <trkpt lat="37.05404" lon="-3.33291">
        <ele>3181.8</ele>
        <time>2021-08-06 14:00:33</time>
      </trkpt>
      <trkpt lat="37.05404" lon="-3.33291">
        <ele>3182</ele>
        <time>2021-08-06 14:00:34</time>
      </trkpt>
      <trkpt lat="37.05403" lon="-3.33291">
        <ele>3182</ele>
        <time>2021-08-06 14:00:35</time>
      </trkpt>
      <trkpt lat="37.05402" lon="-3.33292">
        <ele>3182.2</ele>
        <time>2021-08-06 14:00:36</time>
      </trkpt>
      <trkpt lat="37.05402" lon="-3.33292">
        <ele>3182.2</ele>
        <time>2021-08-06 14:00:37</time>
      </trkpt>
      <trkpt lat="37.05401" lon="-3.33292">
        <ele>3182.4</ele>
        <time>2021-08-06 14:00:38</time>
      </trkpt>
      <trkpt lat="37.054" lon="-3.33292">
        <ele>3182.6</ele>
        <time>2021-08-06 14:00:39</time>
      </trkpt>
      <trkpt lat="37.05399" lon="-3.33293">
        <ele>3182.6</ele>
        <time>2021-08-06 14:00:40</time>
      </trkpt>
      <trkpt lat="37.05398" lon="-3.33294">
        <ele>3182.8</ele>
        <time>2021-08-06 14:00:41</time>
      </trkpt>
      <trkpt lat="37.05397" lon="-3.33296">
        <ele>3183</ele>
        <time>2021-08-06 14:00:42</time>
      </trkpt>
      <trkpt lat="37.05397" lon="-3.33296">
        <ele>3183.4</ele>
        <time>2021-08-06 14:00:43</time>
      </trkpt>
      <trkpt lat="37.05396" lon="-3.33297">
        <ele>3183.8</ele>
        <time>2021-08-06 14:00:44</time>
      </trkpt>
      <trkpt lat="37.05396" lon="-3.33298">
        <ele>3184</ele>
        <time>2021-08-06 14:00:45</time>
      </trkpt>
      <trkpt lat="37.05396" lon="-3.33299">
        <ele>3184.2</ele>
        <time>2021-08-06 14:00:46</time>
      </trkpt>
      <trkpt lat="37.05396" lon="-3.333">
        <ele>3184.4</ele>
        <time>2021-08-06 14:00:47</time>
      </trkpt>
      <trkpt lat="37.05395" lon="-3.333">
        <ele>3184.4</ele>
        <time>2021-08-06 14:00:48</time>
      </trkpt>
      <trkpt lat="37.05395" lon="-3.33302">
        <ele>3184.8</ele>
        <time>2021-08-06 14:00:49</time>
      </trkpt>
      <trkpt lat="37.05394" lon="-3.33303">
        <ele>3185</ele>
        <time>2021-08-06 14:00:50</time>
      </trkpt>
      <trkpt lat="37.05394" lon="-3.33304">
        <ele>3185</ele>
        <time>2021-08-06 14:00:51</time>
      </trkpt>
      <trkpt lat="37.05394" lon="-3.33304">
        <ele>3185.2</ele>
        <time>2021-08-06 14:00:52</time>
      </trkpt>
      <trkpt lat="37.05393" lon="-3.33305">
        <ele>3185.4</ele>
        <time>2021-08-06 14:00:53</time>
      </trkpt>
      <trkpt lat="37.05393" lon="-3.33306">
        <ele>3185.6</ele>
        <time>2021-08-06 14:00:54</time>
      </trkpt>
      <trkpt lat="37.05393" lon="-3.33307">
        <ele>3186.2</ele>
        <time>2021-08-06 14:00:55</time>
      </trkpt>
      <trkpt lat="37.05393" lon="-3.33308">
        <ele>3186.6</ele>
        <time>2021-08-06 14:00:56</time>
      </trkpt>
      <trkpt lat="37.05393" lon="-3.3331">
        <ele>3186.8</ele>
        <time>2021-08-06 14:00:57</time>
      </trkpt>
      <trkpt lat="37.05393" lon="-3.33311">
        <ele>3186.8</ele>
        <time>2021-08-06 14:00:58</time>
      </trkpt>
      <trkpt lat="37.05393" lon="-3.33312">
        <ele>3186.6</ele>
        <time>2021-08-06 14:00:59</time>
      </trkpt>
      <trkpt lat="37.05392" lon="-3.33314">
        <ele>3186.2</ele>
        <time>2021-08-06 14:01:00</time>
      </trkpt>
      <trkpt lat="37.05392" lon="-3.33315">
        <ele>3186.2</ele>
        <time>2021-08-06 14:01:01</time>
      </trkpt>
      <trkpt lat="37.05392" lon="-3.33316">
        <ele>3186.2</ele>
        <time>2021-08-06 14:01:02</time>
      </trkpt>
      <trkpt lat="37.05391" lon="-3.33317">
        <ele>3186.2</ele>
        <time>2021-08-06 14:01:03</time>
      </trkpt>
      <trkpt lat="37.05391" lon="-3.33319">
        <ele>3186</ele>
        <time>2021-08-06 14:01:04</time>
      </trkpt>
      <trkpt lat="37.05391" lon="-3.3332">
        <ele>3186</ele>
        <time>2021-08-06 14:01:05</time>
      </trkpt>
      <trkpt lat="37.0539" lon="-3.33322">
        <ele>3186</ele>
        <time>2021-08-06 14:01:06</time>
      </trkpt>
      <trkpt lat="37.05389" lon="-3.33324">
        <ele>3186.2</ele>
        <time>2021-08-06 14:01:07</time>
      </trkpt>
      <trkpt lat="37.05388" lon="-3.33327">
        <ele>3186.2</ele>
        <time>2021-08-06 14:01:08</time>
      </trkpt>
      <trkpt lat="37.05388" lon="-3.33329">
        <ele>3186</ele>
        <time>2021-08-06 14:01:09</time>
      </trkpt>
      <trkpt lat="37.05387" lon="-3.3333">
        <ele>3185.8</ele>
        <time>2021-08-06 14:01:10</time>
      </trkpt>
      <trkpt lat="37.05386" lon="-3.33332">
        <ele>3185.6</ele>
        <time>2021-08-06 14:01:11</time>
      </trkpt>
      <trkpt lat="37.05386" lon="-3.33333">
        <ele>3185.6</ele>
        <time>2021-08-06 14:01:12</time>
      </trkpt>
      <trkpt lat="37.05387" lon="-3.33333">
        <ele>3185.6</ele>
        <time>2021-08-06 14:01:13</time>
      </trkpt>
      <trkpt lat="37.05387" lon="-3.33333">
        <ele>3185.4</ele>
        <time>2021-08-06 14:01:14</time>
      </trkpt>
      <trkpt lat="37.05388" lon="-3.33332">
        <ele>3185.4</ele>
        <time>2021-08-06 14:01:15</time>
      </trkpt>
      <trkpt lat="37.05388" lon="-3.33332">
        <ele>3185.6</ele>
        <time>2021-08-06 14:01:16</time>
      </trkpt>
      <trkpt lat="37.05389" lon="-3.33332">
        <ele>3185.8</ele>
        <time>2021-08-06 14:01:17</time>
      </trkpt>
      <trkpt lat="37.0539" lon="-3.33332">
        <ele>3186</ele>
        <time>2021-08-06 14:01:18</time>
      </trkpt>
      <trkpt lat="37.0539" lon="-3.33331">
        <ele>3186.2</ele>
        <time>2021-08-06 14:01:19</time>
      </trkpt>
      <trkpt lat="37.05391" lon="-3.33331">
        <ele>3186.2</ele>
        <time>2021-08-06 14:01:20</time>
      </trkpt>
      <trkpt lat="37.05391" lon="-3.33331">
        <ele>3186.2</ele>
        <time>2021-08-06 14:01:21</time>
      </trkpt>
      <trkpt lat="37.05392" lon="-3.33331">
        <ele>3186.2</ele>
        <time>2021-08-06 14:01:22</time>
      </trkpt>
      <trkpt lat="37.05392" lon="-3.33331">
        <ele>3186</ele>
        <time>2021-08-06 14:01:23</time>
      </trkpt>
      <trkpt lat="37.05392" lon="-3.33331">
        <ele>3186</ele>
        <time>2021-08-06 14:01:24</time>
      </trkpt>
      <trkpt lat="37.05392" lon="-3.3333">
        <ele>3186</ele>
        <time>2021-08-06 14:01:25</time>
      </trkpt>
      <trkpt lat="37.05392" lon="-3.3333">
        <ele>3186</ele>
        <time>2021-08-06 14:01:26</time>
      </trkpt>
      <trkpt lat="37.05392" lon="-3.3333">
        <ele>3185.8</ele>
        <time>2021-08-06 14:01:27</time>
      </trkpt>
      <trkpt lat="37.05393" lon="-3.33329">
        <ele>3186</ele>
        <time>2021-08-06 14:01:28</time>
      </trkpt>
      <trkpt lat="37.05393" lon="-3.33329">
        <ele>3186</ele>
        <time>2021-08-06 14:01:29</time>
      </trkpt>
      <trkpt lat="37.05393" lon="-3.33329">
        <ele>3186</ele>
        <time>2021-08-06 14:01:30</time>
      </trkpt>
      <trkpt lat="37.05392" lon="-3.3333">
        <ele>3186</ele>
        <time>2021-08-06 14:01:31</time>
      </trkpt>
      <trkpt lat="37.05392" lon="-3.33331">
        <ele>3186</ele>
        <time>2021-08-06 14:01:32</time>
      </trkpt>
      <trkpt lat="37.05392" lon="-3.33331">
        <ele>3186</ele>
        <time>2021-08-06 14:01:33</time>
      </trkpt>
      <trkpt lat="37.05392" lon="-3.33332">
        <ele>3186.2</ele>
        <time>2021-08-06 14:01:34</time>
      </trkpt>
      <trkpt lat="37.05392" lon="-3.33333">
        <ele>3186.2</ele>
        <time>2021-08-06 14:01:35</time>
      </trkpt>
      <trkpt lat="37.05392" lon="-3.33333">
        <ele>3186.4</ele>
        <time>2021-08-06 14:01:36</time>
      </trkpt>
      <trkpt lat="37.05392" lon="-3.33332">
        <ele>3186.4</ele>
        <time>2021-08-06 14:01:37</time>
      </trkpt>
      <trkpt lat="37.05392" lon="-3.33332">
        <ele>3186.6</ele>
        <time>2021-08-06 14:01:38</time>
      </trkpt>
      <trkpt lat="37.05393" lon="-3.33332">
        <ele>3186.6</ele>
        <time>2021-08-06 14:01:39</time>
      </trkpt>
      <trkpt lat="37.05393" lon="-3.33332">
        <ele>3186.6</ele>
        <time>2021-08-06 14:01:40</time>
      </trkpt>
      <trkpt lat="37.05393" lon="-3.33331">
        <ele>3186.6</ele>
        <time>2021-08-06 14:01:41</time>
      </trkpt>
      <trkpt lat="37.05393" lon="-3.33331">
        <ele>3186.6</ele>
        <time>2021-08-06 14:01:42</time>
      </trkpt>
      <trkpt lat="37.05393" lon="-3.33329">
        <ele>3186.6</ele>
        <time>2021-08-06 14:01:43</time>
      </trkpt>
      <trkpt lat="37.05394" lon="-3.33328">
        <ele>3186.6</ele>
        <time>2021-08-06 14:01:44</time>
      </trkpt>
      <trkpt lat="37.05394" lon="-3.33328">
        <ele>3186.6</ele>
        <time>2021-08-06 14:01:45</time>
      </trkpt>
      <trkpt lat="37.05394" lon="-3.33327">
        <ele>3186.6</ele>
        <time>2021-08-06 14:01:46</time>
      </trkpt>
      <trkpt lat="37.05394" lon="-3.33327">
        <ele>3186.4</ele>
        <time>2021-08-06 14:01:47</time>
      </trkpt>
      <trkpt lat="37.05394" lon="-3.33327">
        <ele>3186.4</ele>
        <time>2021-08-06 14:01:48</time>
      </trkpt>
      <trkpt lat="37.05394" lon="-3.33327">
        <ele>3186.4</ele>
        <time>2021-08-06 14:01:49</time>
      </trkpt>
      <trkpt lat="37.05394" lon="-3.33327">
        <ele>3186.4</ele>
        <time>2021-08-06 14:01:50</time>
      </trkpt>
      <trkpt lat="37.05395" lon="-3.33327">
        <ele>3186.2</ele>
        <time>2021-08-06 14:01:51</time>
      </trkpt>
      <trkpt lat="37.05395" lon="-3.33326">
        <ele>3186</ele>
        <time>2021-08-06 14:01:52</time>
      </trkpt>
      <trkpt lat="37.05395" lon="-3.33326">
        <ele>3185.8</ele>
        <time>2021-08-06 14:01:53</time>
      </trkpt>
      <trkpt lat="37.05395" lon="-3.33327">
        <ele>3185.4</ele>
        <time>2021-08-06 14:01:54</time>
      </trkpt>
      <trkpt lat="37.05395" lon="-3.33328">
        <ele>3185.2</ele>
        <time>2021-08-06 14:01:55</time>
      </trkpt>
      <trkpt lat="37.05395" lon="-3.33329">
        <ele>3185</ele>
        <time>2021-08-06 14:01:56</time>
      </trkpt>
      <trkpt lat="37.05395" lon="-3.33329">
        <ele>3185</ele>
        <time>2021-08-06 14:01:57</time>
      </trkpt>
      <trkpt lat="37.05395" lon="-3.3333">
        <ele>3185</ele>
        <time>2021-08-06 14:01:58</time>
      </trkpt>
      <trkpt lat="37.05395" lon="-3.33331">
        <ele>3185</ele>
        <time>2021-08-06 14:01:59</time>
      </trkpt>
      <trkpt lat="37.05395" lon="-3.33331">
        <ele>3184.6</ele>
        <time>2021-08-06 14:02:00</time>
      </trkpt>
      <trkpt lat="37.05395" lon="-3.33331">
        <ele>3184.8</ele>
        <time>2021-08-06 14:02:01</time>
      </trkpt>
      <trkpt lat="37.05395" lon="-3.33331">
        <ele>3184.8</ele>
        <time>2021-08-06 14:02:02</time>
      </trkpt>
      <trkpt lat="37.05395" lon="-3.33331">
        <ele>3185</ele>
        <time>2021-08-06 14:02:03</time>
      </trkpt>
      <trkpt lat="37.05395" lon="-3.33331">
        <ele>3185</ele>
        <time>2021-08-06 14:02:04</time>
      </trkpt>
      <trkpt lat="37.05395" lon="-3.33331">
        <ele>3185</ele>
        <time>2021-08-06 14:02:05</time>
      </trkpt>
      <trkpt lat="37.05395" lon="-3.33331">
        <ele>3185</ele>
        <time>2021-08-06 14:02:06</time>
      </trkpt>
      <trkpt lat="37.05395" lon="-3.3333">
        <ele>3185</ele>
        <time>2021-08-06 14:02:07</time>
      </trkpt>
      <trkpt lat="37.05395" lon="-3.3333">
        <ele>3185</ele>
        <time>2021-08-06 14:02:08</time>
      </trkpt>
      <trkpt lat="37.05395" lon="-3.3333">
        <ele>3185</ele>
        <time>2021-08-06 14:02:09</time>
      </trkpt>
      <trkpt lat="37.05395" lon="-3.3333">
        <ele>3185</ele>
        <time>2021-08-06 14:02:10</time>
      </trkpt>
      <trkpt lat="37.05395" lon="-3.3333">
        <ele>3184.8</ele>
        <time>2021-08-06 14:02:11</time>
      </trkpt>
      <trkpt lat="37.05396" lon="-3.33329">
        <ele>3185</ele>
        <time>2021-08-06 14:02:12</time>
      </trkpt>
      <trkpt lat="37.05396" lon="-3.3333">
        <ele>3185.2</ele>
        <time>2021-08-06 14:02:13</time>
      </trkpt>
      <trkpt lat="37.05395" lon="-3.3333">
        <ele>3185.2</ele>
        <time>2021-08-06 14:02:14</time>
      </trkpt>
      <trkpt lat="37.05395" lon="-3.3333">
        <ele>3185.4</ele>
        <time>2021-08-06 14:02:15</time>
      </trkpt>
      <trkpt lat="37.05395" lon="-3.33331">
        <ele>3185.4</ele>
        <time>2021-08-06 14:02:16</time>
      </trkpt>
      <trkpt lat="37.05396" lon="-3.33331">
        <ele>3185.4</ele>
        <time>2021-08-06 14:02:17</time>
      </trkpt>
      <trkpt lat="37.05395" lon="-3.33331">
        <ele>3185.4</ele>
        <time>2021-08-06 14:02:18</time>
      </trkpt>
      <trkpt lat="37.05395" lon="-3.3333">
        <ele>3185.4</ele>
        <time>2021-08-06 14:02:19</time>
      </trkpt>
      <trkpt lat="37.05395" lon="-3.3333">
        <ele>3185.2</ele>
        <time>2021-08-06 14:02:20</time>
      </trkpt>
      <trkpt lat="37.05395" lon="-3.3333">
        <ele>3185</ele>
        <time>2021-08-06 14:02:21</time>
      </trkpt>
      <trkpt lat="37.05395" lon="-3.33331">
        <ele>3185</ele>
        <time>2021-08-06 14:02:22</time>
      </trkpt>
      <trkpt lat="37.05396" lon="-3.33331">
        <ele>3184.8</ele>
        <time>2021-08-06 14:02:23</time>
      </trkpt>
      <trkpt lat="37.05396" lon="-3.3333">
        <ele>3184.8</ele>
        <time>2021-08-06 14:02:24</time>
      </trkpt>
      <trkpt lat="37.05396" lon="-3.33331">
        <ele>3184.6</ele>
        <time>2021-08-06 14:02:25</time>
      </trkpt>
      <trkpt lat="37.05396" lon="-3.33331">
        <ele>3184.4</ele>
        <time>2021-08-06 14:02:26</time>
      </trkpt>
      <trkpt lat="37.05396" lon="-3.33331">
        <ele>3184.4</ele>
        <time>2021-08-06 14:02:27</time>
      </trkpt>
      <trkpt lat="37.05396" lon="-3.33331">
        <ele>3184.4</ele>
        <time>2021-08-06 14:02:28</time>
      </trkpt>
      <trkpt lat="37.05395" lon="-3.33328">
        <ele>3184.4</ele>
        <time>2021-08-06 14:02:29</time>
      </trkpt>
      <trkpt lat="37.05396" lon="-3.33329">
        <ele>3184.6</ele>
        <time>2021-08-06 14:02:30</time>
      </trkpt>
      <trkpt lat="37.05396" lon="-3.33329">
        <ele>3184.6</ele>
        <time>2021-08-06 14:02:31</time>
      </trkpt>
      <trkpt lat="37.05395" lon="-3.33326">
        <ele>3184.4</ele>
        <time>2021-08-06 14:02:32</time>
      </trkpt>
      <trkpt lat="37.05395" lon="-3.33327">
        <ele>3184.4</ele>
        <time>2021-08-06 14:02:33</time>
      </trkpt>
      <trkpt lat="37.05395" lon="-3.33327">
        <ele>3184.4</ele>
        <time>2021-08-06 14:02:34</time>
      </trkpt>
      <trkpt lat="37.05394" lon="-3.33327">
        <ele>3184.6</ele>
        <time>2021-08-06 14:02:35</time>
      </trkpt>
      <trkpt lat="37.05394" lon="-3.33327">
        <ele>3184.4</ele>
        <time>2021-08-06 14:02:36</time>
      </trkpt>
      <trkpt lat="37.05394" lon="-3.33327">
        <ele>3184.4</ele>
        <time>2021-08-06 14:02:37</time>
      </trkpt>
      <trkpt lat="37.05394" lon="-3.33327">
        <ele>3184.4</ele>
        <time>2021-08-06 14:02:38</time>
      </trkpt>
      <trkpt lat="37.05394" lon="-3.33327">
        <ele>3184.4</ele>
        <time>2021-08-06 14:02:39</time>
      </trkpt>
      <trkpt lat="37.05394" lon="-3.33326">
        <ele>3184.4</ele>
        <time>2021-08-06 14:02:40</time>
      </trkpt>
      <trkpt lat="37.05394" lon="-3.33326">
        <ele>3184.2</ele>
        <time>2021-08-06 14:02:41</time>
      </trkpt>
      <trkpt lat="37.05394" lon="-3.33326">
        <ele>3184</ele>
        <time>2021-08-06 14:02:42</time>
      </trkpt>
      <trkpt lat="37.05394" lon="-3.33326">
        <ele>3184</ele>
        <time>2021-08-06 14:02:43</time>
      </trkpt>
      <trkpt lat="37.05394" lon="-3.33326">
        <ele>3183.8</ele>
        <time>2021-08-06 14:02:44</time>
      </trkpt>
      <trkpt lat="37.05394" lon="-3.33326">
        <ele>3183.8</ele>
        <time>2021-08-06 14:02:45</time>
      </trkpt>
      <trkpt lat="37.05394" lon="-3.33326">
        <ele>3183.8</ele>
        <time>2021-08-06 14:02:46</time>
      </trkpt>
      <trkpt lat="37.05394" lon="-3.33326">
        <ele>3183.8</ele>
        <time>2021-08-06 14:02:47</time>
      </trkpt>
      <trkpt lat="37.05394" lon="-3.33326">
        <ele>3183.8</ele>
        <time>2021-08-06 14:02:48</time>
      </trkpt>
      <trkpt lat="37.05394" lon="-3.33326">
        <ele>3183.8</ele>
        <time>2021-08-06 14:02:49</time>
      </trkpt>
      <trkpt lat="37.05394" lon="-3.33325">
        <ele>3183.8</ele>
        <time>2021-08-06 14:02:50</time>
      </trkpt>
      <trkpt lat="37.05394" lon="-3.33325">
        <ele>3183.8</ele>
        <time>2021-08-06 14:02:51</time>
      </trkpt>
      <trkpt lat="37.05394" lon="-3.33325">
        <ele>3183.8</ele>
        <time>2021-08-06 14:02:52</time>
      </trkpt>
      <trkpt lat="37.05394" lon="-3.33325">
        <ele>3183.8</ele>
        <time>2021-08-06 14:02:53</time>
      </trkpt>
      <trkpt lat="37.05394" lon="-3.33325">
        <ele>3184</ele>
        <time>2021-08-06 14:02:54</time>
      </trkpt>
      <trkpt lat="37.05394" lon="-3.33325">
        <ele>3184</ele>
        <time>2021-08-06 14:02:55</time>
      </trkpt>
      <trkpt lat="37.05394" lon="-3.33325">
        <ele>3184</ele>
        <time>2021-08-06 14:02:56</time>
      </trkpt>
      <trkpt lat="37.05394" lon="-3.33325">
        <ele>3184</ele>
        <time>2021-08-06 14:02:57</time>
      </trkpt>
      <trkpt lat="37.05394" lon="-3.33326">
        <ele>3184.2</ele>
        <time>2021-08-06 14:02:58</time>
      </trkpt>
      <trkpt lat="37.05394" lon="-3.33326">
        <ele>3184.2</ele>
        <time>2021-08-06 14:02:59</time>
      </trkpt>
      <trkpt lat="37.05394" lon="-3.33326">
        <ele>3184.2</ele>
        <time>2021-08-06 14:03:00</time>
      </trkpt>
      <trkpt lat="37.05394" lon="-3.33327">
        <ele>3184.2</ele>
        <time>2021-08-06 14:03:01</time>
      </trkpt>
      <trkpt lat="37.05394" lon="-3.33327">
        <ele>3184.2</ele>
        <time>2021-08-06 14:03:02</time>
      </trkpt>
      <trkpt lat="37.05394" lon="-3.33328">
        <ele>3184.4</ele>
        <time>2021-08-06 14:03:03</time>
      </trkpt>
      <trkpt lat="37.05394" lon="-3.33328">
        <ele>3184.4</ele>
        <time>2021-08-06 14:03:04</time>
      </trkpt>
      <trkpt lat="37.05394" lon="-3.33329">
        <ele>3184.4</ele>
        <time>2021-08-06 14:03:05</time>
      </trkpt>
      <trkpt lat="37.05394" lon="-3.33329">
        <ele>3184.4</ele>
        <time>2021-08-06 14:03:06</time>
      </trkpt>
      <trkpt lat="37.05394" lon="-3.3333">
        <ele>3184.2</ele>
        <time>2021-08-06 14:03:07</time>
      </trkpt>
      <trkpt lat="37.05394" lon="-3.33331">
        <ele>3184.2</ele>
        <time>2021-08-06 14:03:08</time>
      </trkpt>
      <trkpt lat="37.05394" lon="-3.33331">
        <ele>3184.2</ele>
        <time>2021-08-06 14:03:09</time>
      </trkpt>
      <trkpt lat="37.05394" lon="-3.33332">
        <ele>3184.2</ele>
        <time>2021-08-06 14:03:10</time>
      </trkpt>
      <trkpt lat="37.05394" lon="-3.33332">
        <ele>3184.2</ele>
        <time>2021-08-06 14:03:11</time>
      </trkpt>
      <trkpt lat="37.05394" lon="-3.33333">
        <ele>3184.2</ele>
        <time>2021-08-06 14:03:12</time>
      </trkpt>
      <trkpt lat="37.05394" lon="-3.33333">
        <ele>3184.2</ele>
        <time>2021-08-06 14:03:13</time>
      </trkpt>
      <trkpt lat="37.05394" lon="-3.33333">
        <ele>3184.4</ele>
        <time>2021-08-06 14:03:14</time>
      </trkpt>
      <trkpt lat="37.05394" lon="-3.33334">
        <ele>3184.4</ele>
        <time>2021-08-06 14:03:15</time>
      </trkpt>
      <trkpt lat="37.05394" lon="-3.33334">
        <ele>3184.4</ele>
        <time>2021-08-06 14:03:16</time>
      </trkpt>
      <trkpt lat="37.05394" lon="-3.33334">
        <ele>3184.4</ele>
        <time>2021-08-06 14:03:17</time>
      </trkpt>
      <trkpt lat="37.05394" lon="-3.33335">
        <ele>3184.2</ele>
        <time>2021-08-06 14:03:18</time>
      </trkpt>
      <trkpt lat="37.05394" lon="-3.33335">
        <ele>3184.2</ele>
        <time>2021-08-06 14:03:19</time>
      </trkpt>
      <trkpt lat="37.05395" lon="-3.33335">
        <ele>3184.2</ele>
        <time>2021-08-06 14:03:20</time>
      </trkpt>
      <trkpt lat="37.05395" lon="-3.33335">
        <ele>3184.2</ele>
        <time>2021-08-06 14:03:21</time>
      </trkpt>
      <trkpt lat="37.05395" lon="-3.33335">
        <ele>3184.2</ele>
        <time>2021-08-06 14:03:22</time>
      </trkpt>
      <trkpt lat="37.05395" lon="-3.33335">
        <ele>3184.4</ele>
        <time>2021-08-06 14:03:23</time>
      </trkpt>
      <trkpt lat="37.05395" lon="-3.33335">
        <ele>3184.4</ele>
        <time>2021-08-06 14:03:24</time>
      </trkpt>
      <trkpt lat="37.05395" lon="-3.33335">
        <ele>3184.6</ele>
        <time>2021-08-06 14:03:25</time>
      </trkpt>
      <trkpt lat="37.05395" lon="-3.33336">
        <ele>3184.6</ele>
        <time>2021-08-06 14:03:26</time>
      </trkpt>
      <trkpt lat="37.05395" lon="-3.33336">
        <ele>3184.6</ele>
        <time>2021-08-06 14:03:27</time>
      </trkpt>
      <trkpt lat="37.05395" lon="-3.33336">
        <ele>3184.6</ele>
        <time>2021-08-06 14:03:28</time>
      </trkpt>
      <trkpt lat="37.05395" lon="-3.33336">
        <ele>3184.4</ele>
        <time>2021-08-06 14:03:29</time>
      </trkpt>
      <trkpt lat="37.05395" lon="-3.33336">
        <ele>3184.4</ele>
        <time>2021-08-06 14:03:30</time>
      </trkpt>
      <trkpt lat="37.05395" lon="-3.33335">
        <ele>3184.4</ele>
        <time>2021-08-06 14:03:31</time>
      </trkpt>
      <trkpt lat="37.05395" lon="-3.33335">
        <ele>3184.4</ele>
        <time>2021-08-06 14:03:32</time>
      </trkpt>
      <trkpt lat="37.05395" lon="-3.33335">
        <ele>3184.4</ele>
        <time>2021-08-06 14:03:33</time>
      </trkpt>
      <trkpt lat="37.05395" lon="-3.33334">
        <ele>3184</ele>
        <time>2021-08-06 14:03:34</time>
      </trkpt>
      <trkpt lat="37.05394" lon="-3.33335">
        <ele>3184</ele>
        <time>2021-08-06 14:03:35</time>
      </trkpt>
      <trkpt lat="37.05395" lon="-3.33335">
        <ele>3184</ele>
        <time>2021-08-06 14:03:36</time>
      </trkpt>
      <trkpt lat="37.05395" lon="-3.33335">
        <ele>3184</ele>
        <time>2021-08-06 14:03:37</time>
      </trkpt>
      <trkpt lat="37.05395" lon="-3.33334">
        <ele>3184</ele>
        <time>2021-08-06 14:03:38</time>
      </trkpt>
      <trkpt lat="37.05395" lon="-3.33334">
        <ele>3184</ele>
        <time>2021-08-06 14:03:39</time>
      </trkpt>
      <trkpt lat="37.05395" lon="-3.33335">
        <ele>3184</ele>
        <time>2021-08-06 14:03:40</time>
      </trkpt>
      <trkpt lat="37.05395" lon="-3.33334">
        <ele>3184</ele>
        <time>2021-08-06 14:03:41</time>
      </trkpt>
      <trkpt lat="37.05395" lon="-3.33332">
        <ele>3184</ele>
        <time>2021-08-06 14:03:42</time>
      </trkpt>
      <trkpt lat="37.05394" lon="-3.33332">
        <ele>3184</ele>
        <time>2021-08-06 14:03:43</time>
      </trkpt>
      <trkpt lat="37.05394" lon="-3.33332">
        <ele>3184</ele>
        <time>2021-08-06 14:03:44</time>
      </trkpt>
      <trkpt lat="37.05394" lon="-3.33331">
        <ele>3184</ele>
        <time>2021-08-06 14:03:45</time>
      </trkpt>
      <trkpt lat="37.05394" lon="-3.33331">
        <ele>3184</ele>
        <time>2021-08-06 14:03:46</time>
      </trkpt>
      <trkpt lat="37.05394" lon="-3.3333">
        <ele>3184</ele>
        <time>2021-08-06 14:03:47</time>
      </trkpt>
      <trkpt lat="37.05394" lon="-3.3333">
        <ele>3184</ele>
        <time>2021-08-06 14:03:48</time>
      </trkpt>
      <trkpt lat="37.05394" lon="-3.3333">
        <ele>3184</ele>
        <time>2021-08-06 14:03:49</time>
      </trkpt>
      <trkpt lat="37.05394" lon="-3.33329">
        <ele>3184</ele>
        <time>2021-08-06 14:03:50</time>
      </trkpt>
      <trkpt lat="37.05394" lon="-3.33329">
        <ele>3184</ele>
        <time>2021-08-06 14:03:51</time>
      </trkpt>
      <trkpt lat="37.05394" lon="-3.33328">
        <ele>3184</ele>
        <time>2021-08-06 14:03:52</time>
      </trkpt>
      <trkpt lat="37.05395" lon="-3.33328">
        <ele>3184</ele>
        <time>2021-08-06 14:03:53</time>
      </trkpt>
      <trkpt lat="37.05394" lon="-3.33329">
        <ele>3184</ele>
        <time>2021-08-06 14:03:54</time>
      </trkpt>
      <trkpt lat="37.05394" lon="-3.33329">
        <ele>3184</ele>
        <time>2021-08-06 14:03:55</time>
      </trkpt>
      <trkpt lat="37.05394" lon="-3.33329">
        <ele>3184</ele>
        <time>2021-08-06 14:03:56</time>
      </trkpt>
      <trkpt lat="37.05394" lon="-3.33328">
        <ele>3184</ele>
        <time>2021-08-06 14:03:57</time>
      </trkpt>
      <trkpt lat="37.05394" lon="-3.33328">
        <ele>3184</ele>
        <time>2021-08-06 14:03:58</time>
      </trkpt>
      <trkpt lat="37.05394" lon="-3.33325">
        <ele>3184</ele>
        <time>2021-08-06 14:03:59</time>
      </trkpt>
      <trkpt lat="37.05393" lon="-3.33325">
        <ele>3184</ele>
        <time>2021-08-06 14:04:00</time>
      </trkpt>
      <trkpt lat="37.05393" lon="-3.33325">
        <ele>3184</ele>
        <time>2021-08-06 14:04:01</time>
      </trkpt>
      <trkpt lat="37.05393" lon="-3.33324">
        <ele>3184</ele>
        <time>2021-08-06 14:04:02</time>
      </trkpt>
      <trkpt lat="37.05393" lon="-3.33325">
        <ele>3184</ele>
        <time>2021-08-06 14:04:03</time>
      </trkpt>
      <trkpt lat="37.05393" lon="-3.33325">
        <ele>3184</ele>
        <time>2021-08-06 14:04:04</time>
      </trkpt>
      <trkpt lat="37.05393" lon="-3.33325">
        <ele>3184</ele>
        <time>2021-08-06 14:04:05</time>
      </trkpt>
      <trkpt lat="37.05393" lon="-3.33325">
        <ele>3184</ele>
        <time>2021-08-06 14:04:06</time>
      </trkpt>
      <trkpt lat="37.05393" lon="-3.33324">
        <ele>3184</ele>
        <time>2021-08-06 14:04:07</time>
      </trkpt>
      <trkpt lat="37.05393" lon="-3.33325">
        <ele>3184</ele>
        <time>2021-08-06 14:04:08</time>
      </trkpt>
      <trkpt lat="37.05393" lon="-3.33326">
        <ele>3184</ele>
        <time>2021-08-06 14:04:09</time>
      </trkpt>
      <trkpt lat="37.05393" lon="-3.33327">
        <ele>3184</ele>
        <time>2021-08-06 14:04:10</time>
      </trkpt>
      <trkpt lat="37.05393" lon="-3.33328">
        <ele>3184</ele>
        <time>2021-08-06 14:04:11</time>
      </trkpt>
      <trkpt lat="37.05393" lon="-3.33328">
        <ele>3184</ele>
        <time>2021-08-06 14:04:12</time>
      </trkpt>
      <trkpt lat="37.05393" lon="-3.33328">
        <ele>3184</ele>
        <time>2021-08-06 14:04:13</time>
      </trkpt>
      <trkpt lat="37.05393" lon="-3.33328">
        <ele>3184</ele>
        <time>2021-08-06 14:04:14</time>
      </trkpt>
      <trkpt lat="37.05393" lon="-3.33328">
        <ele>3184</ele>
        <time>2021-08-06 14:04:15</time>
      </trkpt>
      <trkpt lat="37.05393" lon="-3.33328">
        <ele>3184</ele>
        <time>2021-08-06 14:04:16</time>
      </trkpt>
      <trkpt lat="37.05393" lon="-3.33328">
        <ele>3184</ele>
        <time>2021-08-06 14:04:17</time>
      </trkpt>
      <trkpt lat="37.05393" lon="-3.33328">
        <ele>3184</ele>
        <time>2021-08-06 14:04:18</time>
      </trkpt>
      <trkpt lat="37.05393" lon="-3.33329">
        <ele>3184</ele>
        <time>2021-08-06 14:04:19</time>
      </trkpt>
      <trkpt lat="37.05393" lon="-3.33329">
        <ele>3184</ele>
        <time>2021-08-06 14:04:20</time>
      </trkpt>
      <trkpt lat="37.05393" lon="-3.33329">
        <ele>3184</ele>
        <time>2021-08-06 14:04:21</time>
      </trkpt>
      <trkpt lat="37.05393" lon="-3.33329">
        <ele>3184</ele>
        <time>2021-08-06 14:04:22</time>
      </trkpt>
      <trkpt lat="37.05393" lon="-3.33329">
        <ele>3184</ele>
        <time>2021-08-06 14:04:23</time>
      </trkpt>
      <trkpt lat="37.05393" lon="-3.33329">
        <ele>3184</ele>
        <time>2021-08-06 14:04:24</time>
      </trkpt>
      <trkpt lat="37.05393" lon="-3.33329">
        <ele>3184</ele>
        <time>2021-08-06 14:04:25</time>
      </trkpt>
      <trkpt lat="37.05393" lon="-3.33328">
        <ele>3184</ele>
        <time>2021-08-06 14:04:26</time>
      </trkpt>
      <trkpt lat="37.05393" lon="-3.33328">
        <ele>3184</ele>
        <time>2021-08-06 14:04:27</time>
      </trkpt>
      <trkpt lat="37.05393" lon="-3.33328">
        <ele>3184</ele>
        <time>2021-08-06 14:04:28</time>
      </trkpt>
      <trkpt lat="37.05394" lon="-3.33328">
        <ele>3184</ele>
        <time>2021-08-06 14:04:29</time>
      </trkpt>
      <trkpt lat="37.05394" lon="-3.33328">
        <ele>3184</ele>
        <time>2021-08-06 14:04:30</time>
      </trkpt>
      <trkpt lat="37.05394" lon="-3.33328">
        <ele>3184</ele>
        <time>2021-08-06 14:04:31</time>
      </trkpt>
      <trkpt lat="37.05394" lon="-3.33328">
        <ele>3184</ele>
        <time>2021-08-06 14:04:32</time>
      </trkpt>
      <trkpt lat="37.05394" lon="-3.33328">
        <ele>3184</ele>
        <time>2021-08-06 14:04:33</time>
      </trkpt>
      <trkpt lat="37.05394" lon="-3.33329">
        <ele>3184</ele>
        <time>2021-08-06 14:04:34</time>
      </trkpt>
      <trkpt lat="37.05394" lon="-3.33329">
        <ele>3184</ele>
        <time>2021-08-06 14:04:35</time>
      </trkpt>
      <trkpt lat="37.05394" lon="-3.33329">
        <ele>3184</ele>
        <time>2021-08-06 14:04:36</time>
      </trkpt>
      <trkpt lat="37.05394" lon="-3.33329">
        <ele>3184</ele>
        <time>2021-08-06 14:04:37</time>
      </trkpt>
      <trkpt lat="37.05394" lon="-3.33328">
        <ele>3184</ele>
        <time>2021-08-06 14:04:38</time>
      </trkpt>
      <trkpt lat="37.05394" lon="-3.33328">
        <ele>3184</ele>
        <time>2021-08-06 14:04:39</time>
      </trkpt>
      <trkpt lat="37.05394" lon="-3.33328">
        <ele>3184</ele>
        <time>2021-08-06 14:04:40</time>
      </trkpt>
      <trkpt lat="37.05393" lon="-3.33328">
        <ele>3184</ele>
        <time>2021-08-06 14:04:41</time>
      </trkpt>
      <trkpt lat="37.05393" lon="-3.33328">
        <ele>3184</ele>
        <time>2021-08-06 14:04:42</time>
      </trkpt>
      <trkpt lat="37.05394" lon="-3.33329">
        <ele>3184</ele>
        <time>2021-08-06 14:04:43</time>
      </trkpt>
      <trkpt lat="37.05394" lon="-3.33328">
        <ele>3184</ele>
        <time>2021-08-06 14:04:44</time>
      </trkpt>
      <trkpt lat="37.05394" lon="-3.33328">
        <ele>3184</ele>
        <time>2021-08-06 14:04:45</time>
      </trkpt>
      <trkpt lat="37.05393" lon="-3.33328">
        <ele>3184</ele>
        <time>2021-08-06 14:04:46</time>
      </trkpt>
      <trkpt lat="37.05393" lon="-3.33328">
        <ele>3184</ele>
        <time>2021-08-06 14:04:47</time>
      </trkpt>
      <trkpt lat="37.05393" lon="-3.33328">
        <ele>3184</ele>
        <time>2021-08-06 14:04:48</time>
      </trkpt>
      <trkpt lat="37.05393" lon="-3.33328">
        <ele>3184</ele>
        <time>2021-08-06 14:04:49</time>
      </trkpt>
      <trkpt lat="37.05393" lon="-3.33328">
        <ele>3184</ele>
        <time>2021-08-06 14:04:50</time>
      </trkpt>
      <trkpt lat="37.05393" lon="-3.33328">
        <ele>3184</ele>
        <time>2021-08-06 14:04:51</time>
      </trkpt>
      <trkpt lat="37.05393" lon="-3.33328">
        <ele>3184</ele>
        <time>2021-08-06 14:04:52</time>
      </trkpt>
      <trkpt lat="37.05393" lon="-3.33328">
        <ele>3184</ele>
        <time>2021-08-06 14:04:53</time>
      </trkpt>
      <trkpt lat="37.05393" lon="-3.33328">
        <ele>3184</ele>
        <time>2021-08-06 14:04:54</time>
      </trkpt>
      <trkpt lat="37.05392" lon="-3.33329">
        <ele>3184</ele>
        <time>2021-08-06 14:04:55</time>
      </trkpt>
      <trkpt lat="37.05392" lon="-3.3333">
        <ele>3184</ele>
        <time>2021-08-06 14:04:56</time>
      </trkpt>
      <trkpt lat="37.05392" lon="-3.33331">
        <ele>3184</ele>
        <time>2021-08-06 14:04:57</time>
      </trkpt>
      <trkpt lat="37.05392" lon="-3.33331">
        <ele>3184</ele>
        <time>2021-08-06 14:04:58</time>
      </trkpt>
      <trkpt lat="37.05392" lon="-3.33332">
        <ele>3184</ele>
        <time>2021-08-06 14:04:59</time>
      </trkpt>
      <trkpt lat="37.05392" lon="-3.33332">
        <ele>3184</ele>
        <time>2021-08-06 14:05:00</time>
      </trkpt>
      <trkpt lat="37.05392" lon="-3.33332">
        <ele>3184</ele>
        <time>2021-08-06 14:05:01</time>
      </trkpt>
      <trkpt lat="37.05393" lon="-3.33332">
        <ele>3184</ele>
        <time>2021-08-06 14:05:02</time>
      </trkpt>
      <trkpt lat="37.05393" lon="-3.33331">
        <ele>3184</ele>
        <time>2021-08-06 14:05:03</time>
      </trkpt>
      <trkpt lat="37.05393" lon="-3.33331">
        <ele>3184</ele>
        <time>2021-08-06 14:05:04</time>
      </trkpt>
      <trkpt lat="37.05393" lon="-3.33331">
        <ele>3184</ele>
        <time>2021-08-06 14:05:05</time>
      </trkpt>
      <trkpt lat="37.05393" lon="-3.3333">
        <ele>3184</ele>
        <time>2021-08-06 14:05:06</time>
      </trkpt>
      <trkpt lat="37.05393" lon="-3.3333">
        <ele>3184</ele>
        <time>2021-08-06 14:05:07</time>
      </trkpt>
      <trkpt lat="37.05393" lon="-3.3333">
        <ele>3184</ele>
        <time>2021-08-06 14:05:08</time>
      </trkpt>
      <trkpt lat="37.05393" lon="-3.3333">
        <ele>3184</ele>
        <time>2021-08-06 14:05:09</time>
      </trkpt>
      <trkpt lat="37.05394" lon="-3.3333">
        <ele>3184</ele>
        <time>2021-08-06 14:05:10</time>
      </trkpt>
      <trkpt lat="37.05394" lon="-3.3333">
        <ele>3184</ele>
        <time>2021-08-06 14:05:11</time>
      </trkpt>
      <trkpt lat="37.05394" lon="-3.33329">
        <ele>3184</ele>
        <time>2021-08-06 14:05:12</time>
      </trkpt>
      <trkpt lat="37.05394" lon="-3.33329">
        <ele>3184</ele>
        <time>2021-08-06 14:05:13</time>
      </trkpt>
      <trkpt lat="37.05394" lon="-3.33329">
        <ele>3184</ele>
        <time>2021-08-06 14:05:14</time>
      </trkpt>
      <trkpt lat="37.05394" lon="-3.33329">
        <ele>3184</ele>
        <time>2021-08-06 14:05:15</time>
      </trkpt>
      <trkpt lat="37.05394" lon="-3.33329">
        <ele>3184</ele>
        <time>2021-08-06 14:05:16</time>
      </trkpt>
      <trkpt lat="37.05393" lon="-3.33329">
        <ele>3184</ele>
        <time>2021-08-06 14:05:17</time>
      </trkpt>
      <trkpt lat="37.05394" lon="-3.33328">
        <ele>3184</ele>
        <time>2021-08-06 14:05:18</time>
      </trkpt>
      <trkpt lat="37.05394" lon="-3.33328">
        <ele>3184</ele>
        <time>2021-08-06 14:05:19</time>
      </trkpt>
      <trkpt lat="37.05394" lon="-3.33328">
        <ele>3184</ele>
        <time>2021-08-06 14:05:20</time>
      </trkpt>
      <trkpt lat="37.05394" lon="-3.33329">
        <ele>3184</ele>
        <time>2021-08-06 14:05:21</time>
      </trkpt>
      <trkpt lat="37.05394" lon="-3.33329">
        <ele>3184</ele>
        <time>2021-08-06 14:05:22</time>
      </trkpt>
      <trkpt lat="37.05393" lon="-3.33328">
        <ele>3184</ele>
        <time>2021-08-06 14:05:23</time>
      </trkpt>
      <trkpt lat="37.05393" lon="-3.33328">
        <ele>3184</ele>
        <time>2021-08-06 14:05:24</time>
      </trkpt>
      <trkpt lat="37.05393" lon="-3.33328">
        <ele>3184</ele>
        <time>2021-08-06 14:05:25</time>
      </trkpt>
      <trkpt lat="37.05392" lon="-3.33328">
        <ele>3184</ele>
        <time>2021-08-06 14:05:26</time>
      </trkpt>
      <trkpt lat="37.05392" lon="-3.33328">
        <ele>3184</ele>
        <time>2021-08-06 14:05:27</time>
      </trkpt>
      <trkpt lat="37.05392" lon="-3.33327">
        <ele>3184</ele>
        <time>2021-08-06 14:05:28</time>
      </trkpt>
      <trkpt lat="37.05392" lon="-3.33327">
        <ele>3184</ele>
        <time>2021-08-06 14:05:29</time>
      </trkpt>
      <trkpt lat="37.05392" lon="-3.33328">
        <ele>3184</ele>
        <time>2021-08-06 14:05:30</time>
      </trkpt>
      <trkpt lat="37.05392" lon="-3.33328">
        <ele>3184</ele>
        <time>2021-08-06 14:05:31</time>
      </trkpt>
      <trkpt lat="37.05392" lon="-3.33328">
        <ele>3184</ele>
        <time>2021-08-06 14:05:32</time>
      </trkpt>
      <trkpt lat="37.05393" lon="-3.33328">
        <ele>3184</ele>
        <time>2021-08-06 14:05:33</time>
      </trkpt>
      <trkpt lat="37.05393" lon="-3.33328">
        <ele>3184</ele>
        <time>2021-08-06 14:05:34</time>
      </trkpt>
      <trkpt lat="37.05394" lon="-3.33327">
        <ele>3184</ele>
        <time>2021-08-06 14:05:35</time>
      </trkpt>
      <trkpt lat="37.05395" lon="-3.33326">
        <ele>3184</ele>
        <time>2021-08-06 14:05:36</time>
      </trkpt>
      <trkpt lat="37.05396" lon="-3.33325">
        <ele>3184</ele>
        <time>2021-08-06 14:05:37</time>
      </trkpt>
      <trkpt lat="37.05396" lon="-3.33324">
        <ele>3184</ele>
        <time>2021-08-06 14:05:38</time>
      </trkpt>
      <trkpt lat="37.05396" lon="-3.33324">
        <ele>3184</ele>
        <time>2021-08-06 14:05:39</time>
      </trkpt>
      <trkpt lat="37.05396" lon="-3.33324">
        <ele>3184</ele>
        <time>2021-08-06 14:05:40</time>
      </trkpt>
      <trkpt lat="37.05395" lon="-3.33325">
        <ele>3184</ele>
        <time>2021-08-06 14:05:41</time>
      </trkpt>
      <trkpt lat="37.05395" lon="-3.33325">
        <ele>3184</ele>
        <time>2021-08-06 14:05:42</time>
      </trkpt>
      <trkpt lat="37.05395" lon="-3.33326">
        <ele>3184</ele>
        <time>2021-08-06 14:05:43</time>
      </trkpt>
      <trkpt lat="37.05395" lon="-3.33326">
        <ele>3184</ele>
        <time>2021-08-06 14:05:44</time>
      </trkpt>
      <trkpt lat="37.05395" lon="-3.33326">
        <ele>3184</ele>
        <time>2021-08-06 14:05:45</time>
      </trkpt>
      <trkpt lat="37.05395" lon="-3.33326">
        <ele>3184</ele>
        <time>2021-08-06 14:05:46</time>
      </trkpt>
      <trkpt lat="37.05395" lon="-3.33325">
        <ele>3184</ele>
        <time>2021-08-06 14:05:47</time>
      </trkpt>
      <trkpt lat="37.05395" lon="-3.33325">
        <ele>3184</ele>
        <time>2021-08-06 14:05:48</time>
      </trkpt>
      <trkpt lat="37.05395" lon="-3.33325">
        <ele>3184</ele>
        <time>2021-08-06 14:05:49</time>
      </trkpt>
      <trkpt lat="37.05395" lon="-3.33325">
        <ele>3184</ele>
        <time>2021-08-06 14:05:50</time>
      </trkpt>
      <trkpt lat="37.05395" lon="-3.33324">
        <ele>3184</ele>
        <time>2021-08-06 14:05:51</time>
      </trkpt>
      <trkpt lat="37.05395" lon="-3.33325">
        <ele>3184</ele>
        <time>2021-08-06 14:05:52</time>
      </trkpt>
      <trkpt lat="37.05395" lon="-3.33324">
        <ele>3184</ele>
        <time>2021-08-06 14:05:53</time>
      </trkpt>
      <trkpt lat="37.05395" lon="-3.33324">
        <ele>3184</ele>
        <time>2021-08-06 14:05:54</time>
      </trkpt>
      <trkpt lat="37.05395" lon="-3.33322">
        <ele>3184</ele>
        <time>2021-08-06 14:05:55</time>
      </trkpt>
      <trkpt lat="37.05395" lon="-3.33324">
        <ele>3184</ele>
        <time>2021-08-06 14:05:56</time>
      </trkpt>
      <trkpt lat="37.05395" lon="-3.33323">
        <ele>3184</ele>
        <time>2021-08-06 14:05:57</time>
      </trkpt>
      <trkpt lat="37.05395" lon="-3.33323">
        <ele>3184</ele>
        <time>2021-08-06 14:05:58</time>
      </trkpt>
      <trkpt lat="37.05395" lon="-3.33323">
        <ele>3184</ele>
        <time>2021-08-06 14:05:59</time>
      </trkpt>
      <trkpt lat="37.05395" lon="-3.33323">
        <ele>3184</ele>
        <time>2021-08-06 14:06:00</time>
      </trkpt>
      <trkpt lat="37.05394" lon="-3.33323">
        <ele>3184</ele>
        <time>2021-08-06 14:06:01</time>
      </trkpt>
      <trkpt lat="37.05395" lon="-3.33323">
        <ele>3184</ele>
        <time>2021-08-06 14:06:02</time>
      </trkpt>
      <trkpt lat="37.05395" lon="-3.33323">
        <ele>3184</ele>
        <time>2021-08-06 14:06:03</time>
      </trkpt>
      <trkpt lat="37.05394" lon="-3.33323">
        <ele>3184</ele>
        <time>2021-08-06 14:06:04</time>
      </trkpt>
      <trkpt lat="37.05395" lon="-3.33323">
        <ele>3184</ele>
        <time>2021-08-06 14:06:05</time>
      </trkpt>
      <trkpt lat="37.05395" lon="-3.33323">
        <ele>3184</ele>
        <time>2021-08-06 14:06:06</time>
      </trkpt>
      <trkpt lat="37.05395" lon="-3.33323">
        <ele>3184</ele>
        <time>2021-08-06 14:06:07</time>
      </trkpt>
      <trkpt lat="37.05395" lon="-3.33323">
        <ele>3184</ele>
        <time>2021-08-06 14:06:08</time>
      </trkpt>
      <trkpt lat="37.05395" lon="-3.33323">
        <ele>3184</ele>
        <time>2021-08-06 14:06:09</time>
      </trkpt>
      <trkpt lat="37.05395" lon="-3.33323">
        <ele>3184</ele>
        <time>2021-08-06 14:06:10</time>
      </trkpt>
      <trkpt lat="37.05395" lon="-3.33323">
        <ele>3184</ele>
        <time>2021-08-06 14:06:11</time>
      </trkpt>
      <trkpt lat="37.05395" lon="-3.33323">
        <ele>3184</ele>
        <time>2021-08-06 14:06:12</time>
      </trkpt>
      <trkpt lat="37.05395" lon="-3.33323">
        <ele>3184</ele>
        <time>2021-08-06 14:06:13</time>
      </trkpt>
      <trkpt lat="37.05394" lon="-3.33323">
        <ele>3184</ele>
        <time>2021-08-06 14:06:14</time>
      </trkpt>
      <trkpt lat="37.05394" lon="-3.33323">
        <ele>3184</ele>
        <time>2021-08-06 14:06:15</time>
      </trkpt>
      <trkpt lat="37.05394" lon="-3.33323">
        <ele>3184</ele>
        <time>2021-08-06 14:06:16</time>
      </trkpt>
      <trkpt lat="37.05394" lon="-3.33323">
        <ele>3184</ele>
        <time>2021-08-06 14:06:17</time>
      </trkpt>
      <trkpt lat="37.05394" lon="-3.33324">
        <ele>3184</ele>
        <time>2021-08-06 14:06:18</time>
      </trkpt>
      <trkpt lat="37.05394" lon="-3.33324">
        <ele>3184</ele>
        <time>2021-08-06 14:06:19</time>
      </trkpt>
      <trkpt lat="37.05394" lon="-3.33325">
        <ele>3184</ele>
        <time>2021-08-06 14:06:20</time>
      </trkpt>
      <trkpt lat="37.05395" lon="-3.33326">
        <ele>3184</ele>
        <time>2021-08-06 14:06:21</time>
      </trkpt>
      <trkpt lat="37.05395" lon="-3.33326">
        <ele>3184</ele>
        <time>2021-08-06 14:06:22</time>
      </trkpt>
      <trkpt lat="37.05395" lon="-3.33327">
        <ele>3184</ele>
        <time>2021-08-06 14:06:23</time>
      </trkpt>
      <trkpt lat="37.05395" lon="-3.33327">
        <ele>3184</ele>
        <time>2021-08-06 14:06:24</time>
      </trkpt>
      <trkpt lat="37.05395" lon="-3.33327">
        <ele>3184</ele>
        <time>2021-08-06 14:06:25</time>
      </trkpt>
      <trkpt lat="37.05395" lon="-3.33327">
        <ele>3184</ele>
        <time>2021-08-06 14:06:26</time>
      </trkpt>
      <trkpt lat="37.05395" lon="-3.33327">
        <ele>3184</ele>
        <time>2021-08-06 14:06:27</time>
      </trkpt>
      <trkpt lat="37.05395" lon="-3.33327">
        <ele>3184</ele>
        <time>2021-08-06 14:06:28</time>
      </trkpt>
      <trkpt lat="37.05395" lon="-3.33327">
        <ele>3184</ele>
        <time>2021-08-06 14:06:29</time>
      </trkpt>
      <trkpt lat="37.05395" lon="-3.33327">
        <ele>3184</ele>
        <time>2021-08-06 14:06:30</time>
      </trkpt>
      <trkpt lat="37.05394" lon="-3.33327">
        <ele>3184</ele>
        <time>2021-08-06 14:06:31</time>
      </trkpt>
      <trkpt lat="37.05394" lon="-3.33327">
        <ele>3184</ele>
        <time>2021-08-06 14:06:32</time>
      </trkpt>
      <trkpt lat="37.05394" lon="-3.33327">
        <ele>3184</ele>
        <time>2021-08-06 14:06:33</time>
      </trkpt>
      <trkpt lat="37.05394" lon="-3.33327">
        <ele>3184</ele>
        <time>2021-08-06 14:06:34</time>
      </trkpt>
      <trkpt lat="37.05394" lon="-3.33327">
        <ele>3184</ele>
        <time>2021-08-06 14:06:35</time>
      </trkpt>
      <trkpt lat="37.05394" lon="-3.33327">
        <ele>3184</ele>
        <time>2021-08-06 14:06:36</time>
      </trkpt>
      <trkpt lat="37.05394" lon="-3.33327">
        <ele>3184</ele>
        <time>2021-08-06 14:06:37</time>
      </trkpt>
      <trkpt lat="37.05394" lon="-3.33327">
        <ele>3184</ele>
        <time>2021-08-06 14:06:38</time>
      </trkpt>
      <trkpt lat="37.05394" lon="-3.33327">
        <ele>3184</ele>
        <time>2021-08-06 14:06:39</time>
      </trkpt>
      <trkpt lat="37.05394" lon="-3.33327">
        <ele>3184</ele>
        <time>2021-08-06 14:06:40</time>
      </trkpt>
      <trkpt lat="37.05394" lon="-3.33326">
        <ele>3184</ele>
        <time>2021-08-06 14:06:41</time>
      </trkpt>
      <trkpt lat="37.05394" lon="-3.33326">
        <ele>3184</ele>
        <time>2021-08-06 14:06:42</time>
      </trkpt>
      <trkpt lat="37.05393" lon="-3.33326">
        <ele>3184</ele>
        <time>2021-08-06 14:06:43</time>
      </trkpt>
      <trkpt lat="37.05393" lon="-3.33326">
        <ele>3184</ele>
        <time>2021-08-06 14:06:44</time>
      </trkpt>
      <trkpt lat="37.05394" lon="-3.33326">
        <ele>3184</ele>
        <time>2021-08-06 14:06:45</time>
      </trkpt>
      <trkpt lat="37.05394" lon="-3.33326">
        <ele>3184</ele>
        <time>2021-08-06 14:06:46</time>
      </trkpt>
      <trkpt lat="37.05393" lon="-3.33326">
        <ele>3184</ele>
        <time>2021-08-06 14:06:47</time>
      </trkpt>
      <trkpt lat="37.05394" lon="-3.33326">
        <ele>3184</ele>
        <time>2021-08-06 14:06:48</time>
      </trkpt>
      <trkpt lat="37.05394" lon="-3.33326">
        <ele>3184</ele>
        <time>2021-08-06 14:06:49</time>
      </trkpt>
      <trkpt lat="37.05393" lon="-3.33325">
        <ele>3184</ele>
        <time>2021-08-06 14:06:50</time>
      </trkpt>
      <trkpt lat="37.05393" lon="-3.33325">
        <ele>3184</ele>
        <time>2021-08-06 14:06:51</time>
      </trkpt>
      <trkpt lat="37.05393" lon="-3.33325">
        <ele>3184</ele>
        <time>2021-08-06 14:06:52</time>
      </trkpt>
      <trkpt lat="37.05393" lon="-3.33326">
        <ele>3184</ele>
        <time>2021-08-06 14:06:53</time>
      </trkpt>
      <trkpt lat="37.05393" lon="-3.33326">
        <ele>3184</ele>
        <time>2021-08-06 14:06:54</time>
      </trkpt>
      <trkpt lat="37.05393" lon="-3.33326">
        <ele>3184</ele>
        <time>2021-08-06 14:06:55</time>
      </trkpt>
      <trkpt lat="37.05392" lon="-3.33327">
        <ele>3184</ele>
        <time>2021-08-06 14:06:56</time>
      </trkpt>
      <trkpt lat="37.05392" lon="-3.33327">
        <ele>3184</ele>
        <time>2021-08-06 14:06:57</time>
      </trkpt>
      <trkpt lat="37.05392" lon="-3.33329">
        <ele>3184</ele>
        <time>2021-08-06 14:06:58</time>
      </trkpt>
      <trkpt lat="37.05392" lon="-3.33333">
        <ele>3184</ele>
        <time>2021-08-06 14:06:59</time>
      </trkpt>
      <trkpt lat="37.05392" lon="-3.33334">
        <ele>3184</ele>
        <time>2021-08-06 14:07:00</time>
      </trkpt>
      <trkpt lat="37.05392" lon="-3.33333">
        <ele>3184</ele>
        <time>2021-08-06 14:07:01</time>
      </trkpt>
      <trkpt lat="37.05392" lon="-3.33332">
        <ele>3184</ele>
        <time>2021-08-06 14:07:02</time>
      </trkpt>
      <trkpt lat="37.05393" lon="-3.33332">
        <ele>3184</ele>
        <time>2021-08-06 14:07:03</time>
      </trkpt>
      <trkpt lat="37.05393" lon="-3.33332">
        <ele>3184</ele>
        <time>2021-08-06 14:07:04</time>
      </trkpt>
      <trkpt lat="37.05393" lon="-3.33332">
        <ele>3184</ele>
        <time>2021-08-06 14:07:05</time>
      </trkpt>
      <trkpt lat="37.05393" lon="-3.33332">
        <ele>3184</ele>
        <time>2021-08-06 14:07:06</time>
      </trkpt>
      <trkpt lat="37.05393" lon="-3.33332">
        <ele>3184</ele>
        <time>2021-08-06 14:07:07</time>
      </trkpt>
      <trkpt lat="37.05394" lon="-3.33332">
        <ele>3184</ele>
        <time>2021-08-06 14:07:08</time>
      </trkpt>
      <trkpt lat="37.05394" lon="-3.33332">
        <ele>3184</ele>
        <time>2021-08-06 14:07:09</time>
      </trkpt>
      <trkpt lat="37.05394" lon="-3.33332">
        <ele>3184</ele>
        <time>2021-08-06 14:07:10</time>
      </trkpt>
      <trkpt lat="37.05394" lon="-3.33332">
        <ele>3184</ele>
        <time>2021-08-06 14:07:11</time>
      </trkpt>
      <trkpt lat="37.05394" lon="-3.33332">
        <ele>3184</ele>
        <time>2021-08-06 14:07:12</time>
      </trkpt>
      <trkpt lat="37.05394" lon="-3.33332">
        <ele>3184</ele>
        <time>2021-08-06 14:07:13</time>
      </trkpt>
      <trkpt lat="37.05394" lon="-3.33332">
        <ele>3184</ele>
        <time>2021-08-06 14:07:14</time>
      </trkpt>
      <trkpt lat="37.05394" lon="-3.33332">
        <ele>3184</ele>
        <time>2021-08-06 14:07:15</time>
      </trkpt>
      <trkpt lat="37.05394" lon="-3.33332">
        <ele>3184</ele>
        <time>2021-08-06 14:07:16</time>
      </trkpt>
      <trkpt lat="37.05394" lon="-3.33332">
        <ele>3184</ele>
        <time>2021-08-06 14:07:17</time>
      </trkpt>
      <trkpt lat="37.05394" lon="-3.33332">
        <ele>3184</ele>
        <time>2021-08-06 14:07:18</time>
      </trkpt>
      <trkpt lat="37.05394" lon="-3.33332">
        <ele>3184</ele>
        <time>2021-08-06 14:07:19</time>
      </trkpt>
      <trkpt lat="37.05394" lon="-3.33332">
        <ele>3184</ele>
        <time>2021-08-06 14:07:20</time>
      </trkpt>
      <trkpt lat="37.05394" lon="-3.33332">
        <ele>3184</ele>
        <time>2021-08-06 14:07:21</time>
      </trkpt>
      <trkpt lat="37.05394" lon="-3.33331">
        <ele>3184</ele>
        <time>2021-08-06 14:07:22</time>
      </trkpt>
      <trkpt lat="37.05394" lon="-3.33331">
        <ele>3184</ele>
        <time>2021-08-06 14:07:23</time>
      </trkpt>
      <trkpt lat="37.05394" lon="-3.33331">
        <ele>3184</ele>
        <time>2021-08-06 14:07:24</time>
      </trkpt>
      <trkpt lat="37.05394" lon="-3.3333">
        <ele>3184</ele>
        <time>2021-08-06 14:07:25</time>
      </trkpt>
      <trkpt lat="37.05394" lon="-3.3333">
        <ele>3184</ele>
        <time>2021-08-06 14:07:26</time>
      </trkpt>
      <trkpt lat="37.05393" lon="-3.33329">
        <ele>3184</ele>
        <time>2021-08-06 14:07:27</time>
      </trkpt>
      <trkpt lat="37.05393" lon="-3.33329">
        <ele>3184</ele>
        <time>2021-08-06 14:07:28</time>
      </trkpt>
      <trkpt lat="37.05394" lon="-3.33328">
        <ele>3184</ele>
        <time>2021-08-06 14:07:29</time>
      </trkpt>
      <trkpt lat="37.05393" lon="-3.33327">
        <ele>3184</ele>
        <time>2021-08-06 14:07:30</time>
      </trkpt>
      <trkpt lat="37.05393" lon="-3.33327">
        <ele>3184</ele>
        <time>2021-08-06 14:07:31</time>
      </trkpt>
      <trkpt lat="37.05393" lon="-3.33327">
        <ele>3184</ele>
        <time>2021-08-06 14:07:32</time>
      </trkpt>
      <trkpt lat="37.05393" lon="-3.33327">
        <ele>3184</ele>
        <time>2021-08-06 14:07:33</time>
      </trkpt>
      <trkpt lat="37.05393" lon="-3.33327">
        <ele>3184</ele>
        <time>2021-08-06 14:07:34</time>
      </trkpt>
      <trkpt lat="37.05393" lon="-3.33327">
        <ele>3184</ele>
        <time>2021-08-06 14:07:35</time>
      </trkpt>
      <trkpt lat="37.05393" lon="-3.33326">
        <ele>3184</ele>
        <time>2021-08-06 14:07:36</time>
      </trkpt>
      <trkpt lat="37.05393" lon="-3.33326">
        <ele>3184</ele>
        <time>2021-08-06 14:07:37</time>
      </trkpt>
      <trkpt lat="37.05393" lon="-3.33326">
        <ele>3184</ele>
        <time>2021-08-06 14:07:38</time>
      </trkpt>
      <trkpt lat="37.05393" lon="-3.33327">
        <ele>3184</ele>
        <time>2021-08-06 14:07:39</time>
      </trkpt>
      <trkpt lat="37.05392" lon="-3.33327">
        <ele>3184</ele>
        <time>2021-08-06 14:07:40</time>
      </trkpt>
      <trkpt lat="37.05392" lon="-3.33328">
        <ele>3184</ele>
        <time>2021-08-06 14:07:41</time>
      </trkpt>
      <trkpt lat="37.05393" lon="-3.33329">
        <ele>3184</ele>
        <time>2021-08-06 14:07:42</time>
      </trkpt>
      <trkpt lat="37.05393" lon="-3.33329">
        <ele>3184</ele>
        <time>2021-08-06 14:07:43</time>
      </trkpt>
      <trkpt lat="37.05393" lon="-3.3333">
        <ele>3184</ele>
        <time>2021-08-06 14:07:44</time>
      </trkpt>
      <trkpt lat="37.05394" lon="-3.3333">
        <ele>3184</ele>
        <time>2021-08-06 14:07:45</time>
      </trkpt>
      <trkpt lat="37.05394" lon="-3.3333">
        <ele>3184</ele>
        <time>2021-08-06 14:07:46</time>
      </trkpt>
      <trkpt lat="37.05394" lon="-3.33331">
        <ele>3184</ele>
        <time>2021-08-06 14:07:47</time>
      </trkpt>
      <trkpt lat="37.05394" lon="-3.33331">
        <ele>3184</ele>
        <time>2021-08-06 14:07:48</time>
      </trkpt>
      <trkpt lat="37.05394" lon="-3.33331">
        <ele>3184</ele>
        <time>2021-08-06 14:07:49</time>
      </trkpt>
      <trkpt lat="37.05394" lon="-3.33331">
        <ele>3184</ele>
        <time>2021-08-06 14:07:50</time>
      </trkpt>
      <trkpt lat="37.05394" lon="-3.33329">
        <ele>3184</ele>
        <time>2021-08-06 14:07:51</time>
      </trkpt>
      <trkpt lat="37.05394" lon="-3.33328">
        <ele>3184</ele>
        <time>2021-08-06 14:07:52</time>
      </trkpt>
      <trkpt lat="37.05393" lon="-3.33327">
        <ele>3184</ele>
        <time>2021-08-06 14:07:53</time>
      </trkpt>
      <trkpt lat="37.05393" lon="-3.33327">
        <ele>3184</ele>
        <time>2021-08-06 14:07:54</time>
      </trkpt>
      <trkpt lat="37.05393" lon="-3.33327">
        <ele>3184</ele>
        <time>2021-08-06 14:07:55</time>
      </trkpt>
      <trkpt lat="37.05393" lon="-3.33327">
        <ele>3184</ele>
        <time>2021-08-06 14:07:56</time>
      </trkpt>
      <trkpt lat="37.05393" lon="-3.33327">
        <ele>3184</ele>
        <time>2021-08-06 14:07:57</time>
      </trkpt>
      <trkpt lat="37.05394" lon="-3.33327">
        <ele>3184</ele>
        <time>2021-08-06 14:07:58</time>
      </trkpt>
      <trkpt lat="37.05394" lon="-3.33327">
        <ele>3184</ele>
        <time>2021-08-06 14:07:59</time>
      </trkpt>
      <trkpt lat="37.05394" lon="-3.33327">
        <ele>3184</ele>
        <time>2021-08-06 14:08:00</time>
      </trkpt>
      <trkpt lat="37.05394" lon="-3.33327">
        <ele>3184</ele>
        <time>2021-08-06 14:08:01</time>
      </trkpt>
      <trkpt lat="37.05394" lon="-3.33327">
        <ele>3184</ele>
        <time>2021-08-06 14:08:02</time>
      </trkpt>
      <trkpt lat="37.05394" lon="-3.33327">
        <ele>3184</ele>
        <time>2021-08-06 14:08:03</time>
      </trkpt>
      <trkpt lat="37.05394" lon="-3.33327">
        <ele>3184</ele>
        <time>2021-08-06 14:08:04</time>
      </trkpt>
      <trkpt lat="37.05394" lon="-3.33327">
        <ele>3184</ele>
        <time>2021-08-06 14:08:05</time>
      </trkpt>
      <trkpt lat="37.05394" lon="-3.33327">
        <ele>3184</ele>
        <time>2021-08-06 14:08:06</time>
      </trkpt>
      <trkpt lat="37.05394" lon="-3.33327">
        <ele>3184</ele>
        <time>2021-08-06 14:08:07</time>
      </trkpt>
      <trkpt lat="37.05394" lon="-3.33327">
        <ele>3184</ele>
        <time>2021-08-06 14:08:08</time>
      </trkpt>
      <trkpt lat="37.05394" lon="-3.33327">
        <ele>3184</ele>
        <time>2021-08-06 14:08:09</time>
      </trkpt>
      <trkpt lat="37.05394" lon="-3.33327">
        <ele>3184</ele>
        <time>2021-08-06 14:08:10</time>
      </trkpt>
      <trkpt lat="37.05394" lon="-3.33327">
        <ele>3184</ele>
        <time>2021-08-06 14:08:11</time>
      </trkpt>
      <trkpt lat="37.05394" lon="-3.33327">
        <ele>3184</ele>
        <time>2021-08-06 14:08:12</time>
      </trkpt>
      <trkpt lat="37.05394" lon="-3.33327">
        <ele>3184</ele>
        <time>2021-08-06 14:08:13</time>
      </trkpt>
      <trkpt lat="37.05394" lon="-3.33327">
        <ele>3184</ele>
        <time>2021-08-06 14:08:14</time>
      </trkpt>
      <trkpt lat="37.05394" lon="-3.33327">
        <ele>3184</ele>
        <time>2021-08-06 14:08:15</time>
      </trkpt>
      <trkpt lat="37.05394" lon="-3.33327">
        <ele>3184</ele>
        <time>2021-08-06 14:08:16</time>
      </trkpt>
      <trkpt lat="37.05394" lon="-3.33327">
        <ele>3184</ele>
        <time>2021-08-06 14:08:17</time>
      </trkpt>
      <trkpt lat="37.05394" lon="-3.33328">
        <ele>3184</ele>
        <time>2021-08-06 14:08:18</time>
      </trkpt>
      <trkpt lat="37.05394" lon="-3.33328">
        <ele>3184</ele>
        <time>2021-08-06 14:08:19</time>
      </trkpt>
      <trkpt lat="37.05394" lon="-3.33328">
        <ele>3184</ele>
        <time>2021-08-06 14:08:20</time>
      </trkpt>
      <trkpt lat="37.05394" lon="-3.33329">
        <ele>3184</ele>
        <time>2021-08-06 14:08:21</time>
      </trkpt>
      <trkpt lat="37.05394" lon="-3.33329">
        <ele>3184</ele>
        <time>2021-08-06 14:08:22</time>
      </trkpt>
      <trkpt lat="37.05394" lon="-3.33329">
        <ele>3184</ele>
        <time>2021-08-06 14:08:23</time>
      </trkpt>
      <trkpt lat="37.05394" lon="-3.33329">
        <ele>3184</ele>
        <time>2021-08-06 14:08:24</time>
      </trkpt>
      <trkpt lat="37.05394" lon="-3.3333">
        <ele>3184</ele>
        <time>2021-08-06 14:08:25</time>
      </trkpt>
      <trkpt lat="37.05394" lon="-3.3333">
        <ele>3184</ele>
        <time>2021-08-06 14:08:26</time>
      </trkpt>
      <trkpt lat="37.05394" lon="-3.33329">
        <ele>3184</ele>
        <time>2021-08-06 14:08:27</time>
      </trkpt>
      <trkpt lat="37.05394" lon="-3.33329">
        <ele>3184</ele>
        <time>2021-08-06 14:08:28</time>
      </trkpt>
      <trkpt lat="37.05394" lon="-3.33329">
        <ele>3184</ele>
        <time>2021-08-06 14:08:29</time>
      </trkpt>
      <trkpt lat="37.05394" lon="-3.33329">
        <ele>3184</ele>
        <time>2021-08-06 14:08:30</time>
      </trkpt>
      <trkpt lat="37.05394" lon="-3.33329">
        <ele>3184</ele>
        <time>2021-08-06 14:08:31</time>
      </trkpt>
      <trkpt lat="37.05394" lon="-3.33329">
        <ele>3184</ele>
        <time>2021-08-06 14:08:32</time>
      </trkpt>
      <trkpt lat="37.05394" lon="-3.3333">
        <ele>3184</ele>
        <time>2021-08-06 14:08:33</time>
      </trkpt>
      <trkpt lat="37.05394" lon="-3.3333">
        <ele>3184</ele>
        <time>2021-08-06 14:08:34</time>
      </trkpt>
      <trkpt lat="37.05395" lon="-3.3333">
        <ele>3184</ele>
        <time>2021-08-06 14:08:35</time>
      </trkpt>
      <trkpt lat="37.05395" lon="-3.3333">
        <ele>3184</ele>
        <time>2021-08-06 14:08:36</time>
      </trkpt>
      <trkpt lat="37.05394" lon="-3.33331">
        <ele>3184</ele>
        <time>2021-08-06 14:08:37</time>
      </trkpt>
      <trkpt lat="37.05394" lon="-3.33331">
        <ele>3184</ele>
        <time>2021-08-06 14:08:38</time>
      </trkpt>
      <trkpt lat="37.05394" lon="-3.33332">
        <ele>3184</ele>
        <time>2021-08-06 14:08:39</time>
      </trkpt>
      <trkpt lat="37.05394" lon="-3.33329">
        <ele>3184</ele>
        <time>2021-08-06 14:08:40</time>
      </trkpt>
      <trkpt lat="37.05394" lon="-3.33328">
        <ele>3184</ele>
        <time>2021-08-06 14:08:41</time>
      </trkpt>
      <trkpt lat="37.05393" lon="-3.33328">
        <ele>3184</ele>
        <time>2021-08-06 14:08:42</time>
      </trkpt>
      <trkpt lat="37.05393" lon="-3.33327">
        <ele>3184</ele>
        <time>2021-08-06 14:08:43</time>
      </trkpt>
      <trkpt lat="37.05393" lon="-3.33327">
        <ele>3184</ele>
        <time>2021-08-06 14:08:44</time>
      </trkpt>
      <trkpt lat="37.05393" lon="-3.33327">
        <ele>3184</ele>
        <time>2021-08-06 14:08:45</time>
      </trkpt>
      <trkpt lat="37.05393" lon="-3.33327">
        <ele>3184</ele>
        <time>2021-08-06 14:08:46</time>
      </trkpt>
      <trkpt lat="37.05392" lon="-3.33327">
        <ele>3184</ele>
        <time>2021-08-06 14:08:47</time>
      </trkpt>
      <trkpt lat="37.05392" lon="-3.33327">
        <ele>3184</ele>
        <time>2021-08-06 14:08:48</time>
      </trkpt>
      <trkpt lat="37.05392" lon="-3.33327">
        <ele>3184</ele>
        <time>2021-08-06 14:08:49</time>
      </trkpt>
      <trkpt lat="37.05393" lon="-3.33327">
        <ele>3184</ele>
        <time>2021-08-06 14:08:50</time>
      </trkpt>
      <trkpt lat="37.05393" lon="-3.33327">
        <ele>3184</ele>
        <time>2021-08-06 14:08:51</time>
      </trkpt>
      <trkpt lat="37.05393" lon="-3.33327">
        <ele>3184</ele>
        <time>2021-08-06 14:08:52</time>
      </trkpt>
      <trkpt lat="37.05393" lon="-3.33327">
        <ele>3184</ele>
        <time>2021-08-06 14:08:53</time>
      </trkpt>
      <trkpt lat="37.05393" lon="-3.33327">
        <ele>3184</ele>
        <time>2021-08-06 14:08:54</time>
      </trkpt>
      <trkpt lat="37.05393" lon="-3.33327">
        <ele>3184</ele>
        <time>2021-08-06 14:08:55</time>
      </trkpt>
      <trkpt lat="37.05393" lon="-3.33327">
        <ele>3184</ele>
        <time>2021-08-06 14:08:56</time>
      </trkpt>
      <trkpt lat="37.05394" lon="-3.33327">
        <ele>3184</ele>
        <time>2021-08-06 14:08:57</time>
      </trkpt>
      <trkpt lat="37.05394" lon="-3.33327">
        <ele>3184</ele>
        <time>2021-08-06 14:08:58</time>
      </trkpt>
      <trkpt lat="37.05394" lon="-3.33327">
        <ele>3184</ele>
        <time>2021-08-06 14:08:59</time>
      </trkpt>
      <trkpt lat="37.05394" lon="-3.33327">
        <ele>3184</ele>
        <time>2021-08-06 14:09:00</time>
      </trkpt>
      <trkpt lat="37.05394" lon="-3.33327">
        <ele>3184</ele>
        <time>2021-08-06 14:09:01</time>
      </trkpt>
      <trkpt lat="37.05394" lon="-3.33327">
        <ele>3184</ele>
        <time>2021-08-06 14:09:02</time>
      </trkpt>
      <trkpt lat="37.05394" lon="-3.33326">
        <ele>3184</ele>
        <time>2021-08-06 14:09:03</time>
      </trkpt>
      <trkpt lat="37.05394" lon="-3.33326">
        <ele>3184</ele>
        <time>2021-08-06 14:09:04</time>
      </trkpt>
      <trkpt lat="37.05394" lon="-3.33326">
        <ele>3184</ele>
        <time>2021-08-06 14:09:05</time>
      </trkpt>
      <trkpt lat="37.05395" lon="-3.33327">
        <ele>3184</ele>
        <time>2021-08-06 14:09:06</time>
      </trkpt>
      <trkpt lat="37.05395" lon="-3.33327">
        <ele>3184</ele>
        <time>2021-08-06 14:09:07</time>
      </trkpt>
      <trkpt lat="37.05395" lon="-3.33327">
        <ele>3184</ele>
        <time>2021-08-06 14:09:08</time>
      </trkpt>
      <trkpt lat="37.05395" lon="-3.33327">
        <ele>3184</ele>
        <time>2021-08-06 14:09:09</time>
      </trkpt>
      <trkpt lat="37.05395" lon="-3.33328">
        <ele>3184</ele>
        <time>2021-08-06 14:09:10</time>
      </trkpt>
      <trkpt lat="37.05395" lon="-3.33328">
        <ele>3184</ele>
        <time>2021-08-06 14:09:11</time>
      </trkpt>
      <trkpt lat="37.05395" lon="-3.33329">
        <ele>3184</ele>
        <time>2021-08-06 14:09:12</time>
      </trkpt>
      <trkpt lat="37.05395" lon="-3.33329">
        <ele>3184</ele>
        <time>2021-08-06 14:09:13</time>
      </trkpt>
      <trkpt lat="37.05395" lon="-3.33329">
        <ele>3184</ele>
        <time>2021-08-06 14:09:14</time>
      </trkpt>
      <trkpt lat="37.05395" lon="-3.33329">
        <ele>3184</ele>
        <time>2021-08-06 14:09:15</time>
      </trkpt>
      <trkpt lat="37.05395" lon="-3.33329">
        <ele>3184</ele>
        <time>2021-08-06 14:09:16</time>
      </trkpt>
      <trkpt lat="37.05395" lon="-3.33329">
        <ele>3184</ele>
        <time>2021-08-06 14:09:17</time>
      </trkpt>
      <trkpt lat="37.05395" lon="-3.33328">
        <ele>3184</ele>
        <time>2021-08-06 14:09:18</time>
      </trkpt>
      <trkpt lat="37.05395" lon="-3.33328">
        <ele>3184</ele>
        <time>2021-08-06 14:09:19</time>
      </trkpt>
      <trkpt lat="37.05396" lon="-3.33327">
        <ele>3184</ele>
        <time>2021-08-06 14:09:20</time>
      </trkpt>
      <trkpt lat="37.05396" lon="-3.33327">
        <ele>3184</ele>
        <time>2021-08-06 14:09:21</time>
      </trkpt>
      <trkpt lat="37.05396" lon="-3.33327">
        <ele>3184</ele>
        <time>2021-08-06 14:09:22</time>
      </trkpt>
      <trkpt lat="37.05395" lon="-3.33327">
        <ele>3184</ele>
        <time>2021-08-06 14:09:23</time>
      </trkpt>
      <trkpt lat="37.05395" lon="-3.33326">
        <ele>3184</ele>
        <time>2021-08-06 14:09:24</time>
      </trkpt>
      <trkpt lat="37.05395" lon="-3.33326">
        <ele>3184</ele>
        <time>2021-08-06 14:09:25</time>
      </trkpt>
      <trkpt lat="37.05395" lon="-3.33326">
        <ele>3184</ele>
        <time>2021-08-06 14:09:26</time>
      </trkpt>
      <trkpt lat="37.05395" lon="-3.33326">
        <ele>3184</ele>
        <time>2021-08-06 14:09:27</time>
      </trkpt>
      <trkpt lat="37.05395" lon="-3.33326">
        <ele>3184</ele>
        <time>2021-08-06 14:09:28</time>
      </trkpt>
      <trkpt lat="37.05395" lon="-3.33326">
        <ele>3184</ele>
        <time>2021-08-06 14:09:29</time>
      </trkpt>
      <trkpt lat="37.05395" lon="-3.33326">
        <ele>3184</ele>
        <time>2021-08-06 14:09:30</time>
      </trkpt>
      <trkpt lat="37.05395" lon="-3.33326">
        <ele>3184</ele>
        <time>2021-08-06 14:09:31</time>
      </trkpt>
      <trkpt lat="37.05394" lon="-3.33326">
        <ele>3184</ele>
        <time>2021-08-06 14:09:32</time>
      </trkpt>
      <trkpt lat="37.05394" lon="-3.33326">
        <ele>3184</ele>
        <time>2021-08-06 14:09:33</time>
      </trkpt>
      <trkpt lat="37.05394" lon="-3.33326">
        <ele>3184</ele>
        <time>2021-08-06 14:09:34</time>
      </trkpt>
      <trkpt lat="37.05394" lon="-3.33326">
        <ele>3184</ele>
        <time>2021-08-06 14:09:35</time>
      </trkpt>
      <trkpt lat="37.05394" lon="-3.33326">
        <ele>3184</ele>
        <time>2021-08-06 14:09:36</time>
      </trkpt>
      <trkpt lat="37.05394" lon="-3.33326">
        <ele>3184</ele>
        <time>2021-08-06 14:09:37</time>
      </trkpt>
      <trkpt lat="37.05394" lon="-3.33325">
        <ele>3184</ele>
        <time>2021-08-06 14:09:38</time>
      </trkpt>
      <trkpt lat="37.05394" lon="-3.33325">
        <ele>3184</ele>
        <time>2021-08-06 14:09:39</time>
      </trkpt>
      <trkpt lat="37.05394" lon="-3.33326">
        <ele>3184</ele>
        <time>2021-08-06 14:09:40</time>
      </trkpt>
      <trkpt lat="37.05394" lon="-3.33326">
        <ele>3184</ele>
        <time>2021-08-06 14:09:41</time>
      </trkpt>
      <trkpt lat="37.05394" lon="-3.33326">
        <ele>3184</ele>
        <time>2021-08-06 14:09:42</time>
      </trkpt>
      <trkpt lat="37.05394" lon="-3.33326">
        <ele>3184</ele>
        <time>2021-08-06 14:09:43</time>
      </trkpt>
      <trkpt lat="37.05394" lon="-3.33326">
        <ele>3184</ele>
        <time>2021-08-06 14:09:44</time>
      </trkpt>
      <trkpt lat="37.05394" lon="-3.33326">
        <ele>3184</ele>
        <time>2021-08-06 14:09:45</time>
      </trkpt>
      <trkpt lat="37.05394" lon="-3.33326">
        <ele>3184</ele>
        <time>2021-08-06 14:09:46</time>
      </trkpt>
      <trkpt lat="37.05394" lon="-3.33325">
        <ele>3184</ele>
        <time>2021-08-06 14:09:47</time>
      </trkpt>
      <trkpt lat="37.05394" lon="-3.33326">
        <ele>3184</ele>
        <time>2021-08-06 14:09:48</time>
      </trkpt>
      <trkpt lat="37.05394" lon="-3.33326">
        <ele>3184</ele>
        <time>2021-08-06 14:09:49</time>
      </trkpt>
      <trkpt lat="37.05394" lon="-3.33326">
        <ele>3184</ele>
        <time>2021-08-06 14:09:50</time>
      </trkpt>
      <trkpt lat="37.05394" lon="-3.33326">
        <ele>3184</ele>
        <time>2021-08-06 14:09:51</time>
      </trkpt>
      <trkpt lat="37.05393" lon="-3.33326">
        <ele>3184</ele>
        <time>2021-08-06 14:09:52</time>
      </trkpt>
      <trkpt lat="37.05393" lon="-3.33326">
        <ele>3184</ele>
        <time>2021-08-06 14:09:53</time>
      </trkpt>
      <trkpt lat="37.05393" lon="-3.33326">
        <ele>3184</ele>
        <time>2021-08-06 14:09:54</time>
      </trkpt>
      <trkpt lat="37.05393" lon="-3.33326">
        <ele>3184</ele>
        <time>2021-08-06 14:09:55</time>
      </trkpt>
      <trkpt lat="37.05393" lon="-3.33326">
        <ele>3184</ele>
        <time>2021-08-06 14:09:56</time>
      </trkpt>
      <trkpt lat="37.05393" lon="-3.33326">
        <ele>3184</ele>
        <time>2021-08-06 14:09:57</time>
      </trkpt>
      <trkpt lat="37.05393" lon="-3.33326">
        <ele>3184</ele>
        <time>2021-08-06 14:09:58</time>
      </trkpt>
      <trkpt lat="37.05393" lon="-3.33326">
        <ele>3184</ele>
        <time>2021-08-06 14:09:59</time>
      </trkpt>
      <trkpt lat="37.05392" lon="-3.33325">
        <ele>3184</ele>
        <time>2021-08-06 14:10:00</time>
      </trkpt>
      <trkpt lat="37.05392" lon="-3.33325">
        <ele>3184</ele>
        <time>2021-08-06 14:10:01</time>
      </trkpt>
      <trkpt lat="37.05392" lon="-3.33325">
        <ele>3184</ele>
        <time>2021-08-06 14:10:02</time>
      </trkpt>
      <trkpt lat="37.05392" lon="-3.33325">
        <ele>3184</ele>
        <time>2021-08-06 14:10:03</time>
      </trkpt>
      <trkpt lat="37.05392" lon="-3.33325">
        <ele>3184</ele>
        <time>2021-08-06 14:10:04</time>
      </trkpt>
      <trkpt lat="37.05392" lon="-3.33325">
        <ele>3184</ele>
        <time>2021-08-06 14:10:05</time>
      </trkpt>
      <trkpt lat="37.05392" lon="-3.33325">
        <ele>3184</ele>
        <time>2021-08-06 14:10:06</time>
      </trkpt>
      <trkpt lat="37.05392" lon="-3.33325">
        <ele>3184</ele>
        <time>2021-08-06 14:10:07</time>
      </trkpt>
      <trkpt lat="37.05392" lon="-3.33325">
        <ele>3184</ele>
        <time>2021-08-06 14:10:08</time>
      </trkpt>
      <trkpt lat="37.05392" lon="-3.33325">
        <ele>3184</ele>
        <time>2021-08-06 14:10:09</time>
      </trkpt>
      <trkpt lat="37.05393" lon="-3.33325">
        <ele>3184</ele>
        <time>2021-08-06 14:10:10</time>
      </trkpt>
      <trkpt lat="37.05393" lon="-3.33325">
        <ele>3184</ele>
        <time>2021-08-06 14:10:11</time>
      </trkpt>
      <trkpt lat="37.05393" lon="-3.33326">
        <ele>3184</ele>
        <time>2021-08-06 14:10:12</time>
      </trkpt>
      <trkpt lat="37.05393" lon="-3.33326">
        <ele>3184</ele>
        <time>2021-08-06 14:10:13</time>
      </trkpt>
      <trkpt lat="37.05393" lon="-3.33326">
        <ele>3184</ele>
        <time>2021-08-06 14:10:14</time>
      </trkpt>
      <trkpt lat="37.05393" lon="-3.33326">
        <ele>3184</ele>
        <time>2021-08-06 14:10:15</time>
      </trkpt>
      <trkpt lat="37.05393" lon="-3.33326">
        <ele>3184</ele>
        <time>2021-08-06 14:10:16</time>
      </trkpt>
      <trkpt lat="37.05393" lon="-3.33326">
        <ele>3184</ele>
        <time>2021-08-06 14:10:17</time>
      </trkpt>
      <trkpt lat="37.05393" lon="-3.33326">
        <ele>3184</ele>
        <time>2021-08-06 14:10:18</time>
      </trkpt>
      <trkpt lat="37.05393" lon="-3.33326">
        <ele>3184</ele>
        <time>2021-08-06 14:10:19</time>
      </trkpt>
      <trkpt lat="37.05393" lon="-3.33326">
        <ele>3184</ele>
        <time>2021-08-06 14:10:20</time>
      </trkpt>
      <trkpt lat="37.05393" lon="-3.33326">
        <ele>3184</ele>
        <time>2021-08-06 14:10:21</time>
      </trkpt>
      <trkpt lat="37.05393" lon="-3.33326">
        <ele>3184</ele>
        <time>2021-08-06 14:10:22</time>
      </trkpt>
      <trkpt lat="37.05393" lon="-3.33326">
        <ele>3184</ele>
        <time>2021-08-06 14:10:23</time>
      </trkpt>
      <trkpt lat="37.05393" lon="-3.33326">
        <ele>3184</ele>
        <time>2021-08-06 14:10:24</time>
      </trkpt>
      <trkpt lat="37.05393" lon="-3.33326">
        <ele>3184</ele>
        <time>2021-08-06 14:10:25</time>
      </trkpt>
      <trkpt lat="37.05393" lon="-3.33326">
        <ele>3184</ele>
        <time>2021-08-06 14:10:26</time>
      </trkpt>
      <trkpt lat="37.05393" lon="-3.33326">
        <ele>3184</ele>
        <time>2021-08-06 14:10:27</time>
      </trkpt>
      <trkpt lat="37.05393" lon="-3.33326">
        <ele>3184</ele>
        <time>2021-08-06 14:10:28</time>
      </trkpt>
      <trkpt lat="37.05393" lon="-3.33326">
        <ele>3184</ele>
        <time>2021-08-06 14:10:29</time>
      </trkpt>
      <trkpt lat="37.05393" lon="-3.33326">
        <ele>3184</ele>
        <time>2021-08-06 14:10:30</time>
      </trkpt>
      <trkpt lat="37.05393" lon="-3.33326">
        <ele>3184</ele>
        <time>2021-08-06 14:10:31</time>
      </trkpt>
      <trkpt lat="37.05393" lon="-3.33326">
        <ele>3184</ele>
        <time>2021-08-06 14:10:32</time>
      </trkpt>
      <trkpt lat="37.05393" lon="-3.33326">
        <ele>3184</ele>
        <time>2021-08-06 14:10:33</time>
      </trkpt>
      <trkpt lat="37.05393" lon="-3.33326">
        <ele>3184</ele>
        <time>2021-08-06 14:10:34</time>
      </trkpt>
      <trkpt lat="37.05393" lon="-3.33326">
        <ele>3184</ele>
        <time>2021-08-06 14:10:35</time>
      </trkpt>
      <trkpt lat="37.05393" lon="-3.33326">
        <ele>3184</ele>
        <time>2021-08-06 14:10:36</time>
      </trkpt>
      <trkpt lat="37.05393" lon="-3.33327">
        <ele>3184</ele>
        <time>2021-08-06 14:10:37</time>
      </trkpt>
      <trkpt lat="37.05393" lon="-3.33327">
        <ele>3184</ele>
        <time>2021-08-06 14:10:38</time>
      </trkpt>
      <trkpt lat="37.05393" lon="-3.33327">
        <ele>3184</ele>
        <time>2021-08-06 14:10:39</time>
      </trkpt>
      <trkpt lat="37.05393" lon="-3.33327">
        <ele>3184</ele>
        <time>2021-08-06 14:10:40</time>
      </trkpt>
      <trkpt lat="37.05393" lon="-3.33327">
        <ele>3184</ele>
        <time>2021-08-06 14:10:41</time>
      </trkpt>
      <trkpt lat="37.05393" lon="-3.33327">
        <ele>3184</ele>
        <time>2021-08-06 14:10:42</time>
      </trkpt>
      <trkpt lat="37.05393" lon="-3.33327">
        <ele>3184</ele>
        <time>2021-08-06 14:10:43</time>
      </trkpt>
      <trkpt lat="37.05393" lon="-3.33327">
        <ele>3184</ele>
        <time>2021-08-06 14:10:44</time>
      </trkpt>
      <trkpt lat="37.05393" lon="-3.33327">
        <ele>3184</ele>
        <time>2021-08-06 14:10:45</time>
      </trkpt>
      <trkpt lat="37.05393" lon="-3.33327">
        <ele>3184</ele>
        <time>2021-08-06 14:10:46</time>
      </trkpt>
      <trkpt lat="37.05394" lon="-3.33327">
        <ele>3184</ele>
        <time>2021-08-06 14:10:47</time>
      </trkpt>
      <trkpt lat="37.05394" lon="-3.33327">
        <ele>3184</ele>
        <time>2021-08-06 14:10:48</time>
      </trkpt>
      <trkpt lat="37.05394" lon="-3.33328">
        <ele>3184</ele>
        <time>2021-08-06 14:10:49</time>
      </trkpt>
      <trkpt lat="37.05394" lon="-3.33328">
        <ele>3184</ele>
        <time>2021-08-06 14:10:50</time>
      </trkpt>
      <trkpt lat="37.05394" lon="-3.33328">
        <ele>3184</ele>
        <time>2021-08-06 14:10:51</time>
      </trkpt>
      <trkpt lat="37.05394" lon="-3.33328">
        <ele>3184</ele>
        <time>2021-08-06 14:10:52</time>
      </trkpt>
      <trkpt lat="37.05394" lon="-3.33328">
        <ele>3184</ele>
        <time>2021-08-06 14:10:53</time>
      </trkpt>
      <trkpt lat="37.05394" lon="-3.33328">
        <ele>3184</ele>
        <time>2021-08-06 14:10:54</time>
      </trkpt>
      <trkpt lat="37.05394" lon="-3.33328">
        <ele>3184</ele>
        <time>2021-08-06 14:10:55</time>
      </trkpt>
      <trkpt lat="37.05394" lon="-3.33328">
        <ele>3184</ele>
        <time>2021-08-06 14:10:56</time>
      </trkpt>
      <trkpt lat="37.05394" lon="-3.33328">
        <ele>3184</ele>
        <time>2021-08-06 14:10:57</time>
      </trkpt>
      <trkpt lat="37.05394" lon="-3.33327">
        <ele>3184</ele>
        <time>2021-08-06 14:10:58</time>
      </trkpt>
      <trkpt lat="37.05394" lon="-3.33327">
        <ele>3184</ele>
        <time>2021-08-06 14:10:59</time>
      </trkpt>
      <trkpt lat="37.05394" lon="-3.33327">
        <ele>3184</ele>
        <time>2021-08-06 14:11:00</time>
      </trkpt>
      <trkpt lat="37.05395" lon="-3.33327">
        <ele>3184</ele>
        <time>2021-08-06 14:11:01</time>
      </trkpt>
      <trkpt lat="37.05395" lon="-3.33327">
        <ele>3184</ele>
        <time>2021-08-06 14:11:02</time>
      </trkpt>
      <trkpt lat="37.05395" lon="-3.33326">
        <ele>3184</ele>
        <time>2021-08-06 14:11:03</time>
      </trkpt>
      <trkpt lat="37.05395" lon="-3.33327">
        <ele>3184</ele>
        <time>2021-08-06 14:11:04</time>
      </trkpt>
      <trkpt lat="37.05395" lon="-3.33327">
        <ele>3184</ele>
        <time>2021-08-06 14:11:05</time>
      </trkpt>
      <trkpt lat="37.05394" lon="-3.33327">
        <ele>3184</ele>
        <time>2021-08-06 14:11:06</time>
      </trkpt>
      <trkpt lat="37.05394" lon="-3.33328">
        <ele>3184</ele>
        <time>2021-08-06 14:11:07</time>
      </trkpt>
      <trkpt lat="37.05394" lon="-3.33328">
        <ele>3184</ele>
        <time>2021-08-06 14:11:08</time>
      </trkpt>
      <trkpt lat="37.05394" lon="-3.33328">
        <ele>3184</ele>
        <time>2021-08-06 14:11:09</time>
      </trkpt>
      <trkpt lat="37.05394" lon="-3.33327">
        <ele>3184</ele>
        <time>2021-08-06 14:11:10</time>
      </trkpt>
      <trkpt lat="37.05394" lon="-3.33327">
        <ele>3184</ele>
        <time>2021-08-06 14:11:11</time>
      </trkpt>
      <trkpt lat="37.05393" lon="-3.33327">
        <ele>3184</ele>
        <time>2021-08-06 14:11:12</time>
      </trkpt>
      <trkpt lat="37.05394" lon="-3.33327">
        <ele>3184</ele>
        <time>2021-08-06 14:11:13</time>
      </trkpt>
      <trkpt lat="37.05393" lon="-3.33326">
        <ele>3184</ele>
        <time>2021-08-06 14:11:14</time>
      </trkpt>
      <trkpt lat="37.05393" lon="-3.33326">
        <ele>3184</ele>
        <time>2021-08-06 14:11:15</time>
      </trkpt>
      <trkpt lat="37.05393" lon="-3.33326">
        <ele>3184</ele>
        <time>2021-08-06 14:11:16</time>
      </trkpt>
      <trkpt lat="37.05394" lon="-3.33326">
        <ele>3184</ele>
        <time>2021-08-06 14:11:17</time>
      </trkpt>
      <trkpt lat="37.05394" lon="-3.33326">
        <ele>3184</ele>
        <time>2021-08-06 14:11:18</time>
      </trkpt>
      <trkpt lat="37.05394" lon="-3.33326">
        <ele>3184</ele>
        <time>2021-08-06 14:11:19</time>
      </trkpt>
      <trkpt lat="37.05394" lon="-3.33326">
        <ele>3184</ele>
        <time>2021-08-06 14:11:20</time>
      </trkpt>
      <trkpt lat="37.05394" lon="-3.33326">
        <ele>3184</ele>
        <time>2021-08-06 14:11:21</time>
      </trkpt>
      <trkpt lat="37.05394" lon="-3.33326">
        <ele>3184</ele>
        <time>2021-08-06 14:11:22</time>
      </trkpt>
      <trkpt lat="37.05394" lon="-3.33326">
        <ele>3184</ele>
        <time>2021-08-06 14:11:23</time>
      </trkpt>
      <trkpt lat="37.05394" lon="-3.33326">
        <ele>3184</ele>
        <time>2021-08-06 14:11:24</time>
      </trkpt>
      <trkpt lat="37.05394" lon="-3.33326">
        <ele>3184</ele>
        <time>2021-08-06 14:11:25</time>
      </trkpt>
      <trkpt lat="37.05393" lon="-3.33325">
        <ele>3184</ele>
        <time>2021-08-06 14:11:26</time>
      </trkpt>
      <trkpt lat="37.05393" lon="-3.33325">
        <ele>3184</ele>
        <time>2021-08-06 14:11:27</time>
      </trkpt>
      <trkpt lat="37.05393" lon="-3.33325">
        <ele>3184</ele>
        <time>2021-08-06 14:11:28</time>
      </trkpt>
      <trkpt lat="37.05393" lon="-3.33325">
        <ele>3184</ele>
        <time>2021-08-06 14:11:29</time>
      </trkpt>
      <trkpt lat="37.05393" lon="-3.33325">
        <ele>3184</ele>
        <time>2021-08-06 14:11:30</time>
      </trkpt>
      <trkpt lat="37.05393" lon="-3.33325">
        <ele>3184</ele>
        <time>2021-08-06 14:11:31</time>
      </trkpt>
      <trkpt lat="37.05393" lon="-3.33325">
        <ele>3184</ele>
        <time>2021-08-06 14:11:32</time>
      </trkpt>
      <trkpt lat="37.05393" lon="-3.33325">
        <ele>3184</ele>
        <time>2021-08-06 14:11:33</time>
      </trkpt>
      <trkpt lat="37.05393" lon="-3.33325">
        <ele>3184</ele>
        <time>2021-08-06 14:11:34</time>
      </trkpt>
      <trkpt lat="37.05393" lon="-3.33325">
        <ele>3184</ele>
        <time>2021-08-06 14:11:35</time>
      </trkpt>
      <trkpt lat="37.05393" lon="-3.33325">
        <ele>3184</ele>
        <time>2021-08-06 14:11:36</time>
      </trkpt>
      <trkpt lat="37.05393" lon="-3.33325">
        <ele>3184</ele>
        <time>2021-08-06 14:11:37</time>
      </trkpt>
      <trkpt lat="37.05393" lon="-3.33325">
        <ele>3184</ele>
        <time>2021-08-06 14:11:38</time>
      </trkpt>
      <trkpt lat="37.05393" lon="-3.33325">
        <ele>3184</ele>
        <time>2021-08-06 14:11:39</time>
      </trkpt>
      <trkpt lat="37.05393" lon="-3.33325">
        <ele>3184</ele>
        <time>2021-08-06 14:11:40</time>
      </trkpt>
      <trkpt lat="37.05394" lon="-3.33326">
        <ele>3184</ele>
        <time>2021-08-06 14:11:41</time>
      </trkpt>
      <trkpt lat="37.05394" lon="-3.33326">
        <ele>3184</ele>
        <time>2021-08-06 14:11:42</time>
      </trkpt>
      <trkpt lat="37.05394" lon="-3.33326">
        <ele>3184</ele>
        <time>2021-08-06 14:11:43</time>
      </trkpt>
      <trkpt lat="37.05393" lon="-3.33326">
        <ele>3184</ele>
        <time>2021-08-06 14:11:44</time>
      </trkpt>
      <trkpt lat="37.05393" lon="-3.33326">
        <ele>3184</ele>
        <time>2021-08-06 14:11:45</time>
      </trkpt>
      <trkpt lat="37.05393" lon="-3.33326">
        <ele>3184</ele>
        <time>2021-08-06 14:11:46</time>
      </trkpt>
      <trkpt lat="37.05393" lon="-3.33326">
        <ele>3184</ele>
        <time>2021-08-06 14:11:47</time>
      </trkpt>
      <trkpt lat="37.05394" lon="-3.33326">
        <ele>3184</ele>
        <time>2021-08-06 14:11:48</time>
      </trkpt>
      <trkpt lat="37.05394" lon="-3.33326">
        <ele>3184</ele>
        <time>2021-08-06 14:11:49</time>
      </trkpt>
      <trkpt lat="37.05394" lon="-3.33326">
        <ele>3184</ele>
        <time>2021-08-06 14:11:50</time>
      </trkpt>
      <trkpt lat="37.05394" lon="-3.33326">
        <ele>3184</ele>
        <time>2021-08-06 14:11:51</time>
      </trkpt>
      <trkpt lat="37.05394" lon="-3.33326">
        <ele>3184</ele>
        <time>2021-08-06 14:11:52</time>
      </trkpt>
      <trkpt lat="37.05394" lon="-3.33326">
        <ele>3184</ele>
        <time>2021-08-06 14:11:53</time>
      </trkpt>
      <trkpt lat="37.05394" lon="-3.33326">
        <ele>3184</ele>
        <time>2021-08-06 14:11:54</time>
      </trkpt>
      <trkpt lat="37.05394" lon="-3.33326">
        <ele>3184</ele>
        <time>2021-08-06 14:11:55</time>
      </trkpt>
      <trkpt lat="37.05394" lon="-3.33326">
        <ele>3184</ele>
        <time>2021-08-06 14:11:56</time>
      </trkpt>
      <trkpt lat="37.05394" lon="-3.33326">
        <ele>3184</ele>
        <time>2021-08-06 14:11:57</time>
      </trkpt>
      <trkpt lat="37.05394" lon="-3.33326">
        <ele>3184</ele>
        <time>2021-08-06 14:11:58</time>
      </trkpt>
      <trkpt lat="37.05394" lon="-3.33326">
        <ele>3184</ele>
        <time>2021-08-06 14:11:59</time>
      </trkpt>
      <trkpt lat="37.05394" lon="-3.33326">
        <ele>3184</ele>
        <time>2021-08-06 14:12:00</time>
      </trkpt>
      <trkpt lat="37.05394" lon="-3.33326">
        <ele>3184</ele>
        <time>2021-08-06 14:12:01</time>
      </trkpt>
      <trkpt lat="37.05394" lon="-3.33326">
        <ele>3184</ele>
        <time>2021-08-06 14:12:02</time>
      </trkpt>
      <trkpt lat="37.05394" lon="-3.33326">
        <ele>3184</ele>
        <time>2021-08-06 14:12:03</time>
      </trkpt>
      <trkpt lat="37.05394" lon="-3.33326">
        <ele>3184</ele>
        <time>2021-08-06 14:12:04</time>
      </trkpt>
      <trkpt lat="37.05394" lon="-3.33326">
        <ele>3184</ele>
        <time>2021-08-06 14:12:05</time>
      </trkpt>
      <trkpt lat="37.05394" lon="-3.33326">
        <ele>3184</ele>
        <time>2021-08-06 14:12:06</time>
      </trkpt>
      <trkpt lat="37.05394" lon="-3.33326">
        <ele>3184</ele>
        <time>2021-08-06 14:12:07</time>
      </trkpt>
      <trkpt lat="37.05394" lon="-3.33326">
        <ele>3184</ele>
        <time>2021-08-06 14:12:08</time>
      </trkpt>
      <trkpt lat="37.05394" lon="-3.33326">
        <ele>3184</ele>
        <time>2021-08-06 14:12:09</time>
      </trkpt>
      <trkpt lat="37.05394" lon="-3.33326">
        <ele>3184</ele>
        <time>2021-08-06 14:12:10</time>
      </trkpt>
      <trkpt lat="37.05394" lon="-3.33326">
        <ele>3184</ele>
        <time>2021-08-06 14:12:11</time>
      </trkpt>
      <trkpt lat="37.05394" lon="-3.33326">
        <ele>3184</ele>
        <time>2021-08-06 14:12:12</time>
      </trkpt>
      <trkpt lat="37.05394" lon="-3.33326">
        <ele>3184</ele>
        <time>2021-08-06 14:12:13</time>
      </trkpt>
      <trkpt lat="37.05394" lon="-3.33326">
        <ele>3184</ele>
        <time>2021-08-06 14:12:14</time>
      </trkpt>
      <trkpt lat="37.05394" lon="-3.33326">
        <ele>3184</ele>
        <time>2021-08-06 14:12:15</time>
      </trkpt>
      <trkpt lat="37.05394" lon="-3.33326">
        <ele>3184</ele>
        <time>2021-08-06 14:12:16</time>
      </trkpt>
      <trkpt lat="37.05394" lon="-3.33326">
        <ele>3184</ele>
        <time>2021-08-06 14:12:17</time>
      </trkpt>
      <trkpt lat="37.05394" lon="-3.33326">
        <ele>3184</ele>
        <time>2021-08-06 14:12:18</time>
      </trkpt>
      <trkpt lat="37.05394" lon="-3.33326">
        <ele>3184</ele>
        <time>2021-08-06 14:12:19</time>
      </trkpt>
      <trkpt lat="37.05394" lon="-3.33326">
        <ele>3184</ele>
        <time>2021-08-06 14:12:20</time>
      </trkpt>
      <trkpt lat="37.05394" lon="-3.33326">
        <ele>3184</ele>
        <time>2021-08-06 14:12:21</time>
      </trkpt>
      <trkpt lat="37.05394" lon="-3.33326">
        <ele>3184</ele>
        <time>2021-08-06 14:12:22</time>
      </trkpt>
      <trkpt lat="37.05394" lon="-3.33326">
        <ele>3184</ele>
        <time>2021-08-06 14:12:23</time>
      </trkpt>
      <trkpt lat="37.05394" lon="-3.33326">
        <ele>3184</ele>
        <time>2021-08-06 14:12:24</time>
      </trkpt>
      <trkpt lat="37.05394" lon="-3.33326">
        <ele>3184</ele>
        <time>2021-08-06 14:12:25</time>
      </trkpt>
      <trkpt lat="37.05394" lon="-3.33326">
        <ele>3184</ele>
        <time>2021-08-06 14:12:26</time>
      </trkpt>
      <trkpt lat="37.05394" lon="-3.33326">
        <ele>3184</ele>
        <time>2021-08-06 14:12:27</time>
      </trkpt>
      <trkpt lat="37.05394" lon="-3.33326">
        <ele>3184</ele>
        <time>2021-08-06 14:12:28</time>
      </trkpt>
      <trkpt lat="37.05394" lon="-3.33326">
        <ele>3184</ele>
        <time>2021-08-06 14:12:29</time>
      </trkpt>
      <trkpt lat="37.05394" lon="-3.33326">
        <ele>3184</ele>
        <time>2021-08-06 14:12:30</time>
      </trkpt>
      <trkpt lat="37.05394" lon="-3.33326">
        <ele>3184</ele>
        <time>2021-08-06 14:12:31</time>
      </trkpt>
      <trkpt lat="37.05394" lon="-3.33326">
        <ele>3184</ele>
        <time>2021-08-06 14:12:32</time>
      </trkpt>
      <trkpt lat="37.05394" lon="-3.33326">
        <ele>3184</ele>
        <time>2021-08-06 14:12:33</time>
      </trkpt>
      <trkpt lat="37.05393" lon="-3.33326">
        <ele>3184</ele>
        <time>2021-08-06 14:12:34</time>
      </trkpt>
      <trkpt lat="37.05393" lon="-3.33326">
        <ele>3184</ele>
        <time>2021-08-06 14:12:35</time>
      </trkpt>
      <trkpt lat="37.05393" lon="-3.33326">
        <ele>3184</ele>
        <time>2021-08-06 14:12:36</time>
      </trkpt>
      <trkpt lat="37.05393" lon="-3.33326">
        <ele>3184</ele>
        <time>2021-08-06 14:12:37</time>
      </trkpt>
      <trkpt lat="37.05393" lon="-3.33326">
        <ele>3184</ele>
        <time>2021-08-06 14:12:38</time>
      </trkpt>
      <trkpt lat="37.05393" lon="-3.33326">
        <ele>3184</ele>
        <time>2021-08-06 14:12:39</time>
      </trkpt>
      <trkpt lat="37.05393" lon="-3.33326">
        <ele>3184</ele>
        <time>2021-08-06 14:12:40</time>
      </trkpt>
      <trkpt lat="37.05393" lon="-3.33326">
        <ele>3184</ele>
        <time>2021-08-06 14:12:41</time>
      </trkpt>
      <trkpt lat="37.05393" lon="-3.33326">
        <ele>3184</ele>
        <time>2021-08-06 14:12:42</time>
      </trkpt>
      <trkpt lat="37.05393" lon="-3.33326">
        <ele>3184</ele>
        <time>2021-08-06 14:12:43</time>
      </trkpt>
      <trkpt lat="37.05393" lon="-3.33326">
        <ele>3184</ele>
        <time>2021-08-06 14:12:44</time>
      </trkpt>
      <trkpt lat="37.05393" lon="-3.33326">
        <ele>3184</ele>
        <time>2021-08-06 14:12:45</time>
      </trkpt>
      <trkpt lat="37.05393" lon="-3.33326">
        <ele>3184</ele>
        <time>2021-08-06 14:12:46</time>
      </trkpt>
      <trkpt lat="37.05393" lon="-3.33326">
        <ele>3184</ele>
        <time>2021-08-06 14:12:47</time>
      </trkpt>
      <trkpt lat="37.05393" lon="-3.33326">
        <ele>3184</ele>
        <time>2021-08-06 14:12:48</time>
      </trkpt>
      <trkpt lat="37.05393" lon="-3.33326">
        <ele>3184</ele>
        <time>2021-08-06 14:12:49</time>
      </trkpt>
      <trkpt lat="37.05393" lon="-3.33326">
        <ele>3184</ele>
        <time>2021-08-06 14:12:50</time>
      </trkpt>
      <trkpt lat="37.05393" lon="-3.33326">
        <ele>3184</ele>
        <time>2021-08-06 14:12:51</time>
      </trkpt>
      <trkpt lat="37.05393" lon="-3.33326">
        <ele>3184</ele>
        <time>2021-08-06 14:12:52</time>
      </trkpt>
      <trkpt lat="37.05393" lon="-3.33326">
        <ele>3184</ele>
        <time>2021-08-06 14:12:53</time>
      </trkpt>
      <trkpt lat="37.05393" lon="-3.33326">
        <ele>3184</ele>
        <time>2021-08-06 14:12:54</time>
      </trkpt>
      <trkpt lat="37.05393" lon="-3.33326">
        <ele>3184</ele>
        <time>2021-08-06 14:12:55</time>
      </trkpt>
      <trkpt lat="37.05393" lon="-3.33326">
        <ele>3184</ele>
        <time>2021-08-06 14:12:56</time>
      </trkpt>
      <trkpt lat="37.05393" lon="-3.33326">
        <ele>3184</ele>
        <time>2021-08-06 14:12:57</time>
      </trkpt>
      <trkpt lat="37.05393" lon="-3.33326">
        <ele>3184</ele>
        <time>2021-08-06 14:12:58</time>
      </trkpt>
      <trkpt lat="37.05393" lon="-3.33326">
        <ele>3184</ele>
        <time>2021-08-06 14:12:59</time>
      </trkpt>
      <trkpt lat="37.05393" lon="-3.33326">
        <ele>3184</ele>
        <time>2021-08-06 14:13:00</time>
      </trkpt>
      <trkpt lat="37.05393" lon="-3.33326">
        <ele>3184</ele>
        <time>2021-08-06 14:13:01</time>
      </trkpt>
      <trkpt lat="37.05393" lon="-3.33326">
        <ele>3184</ele>
        <time>2021-08-06 14:13:02</time>
      </trkpt>
      <trkpt lat="37.05393" lon="-3.33326">
        <ele>3184</ele>
        <time>2021-08-06 14:13:03</time>
      </trkpt>
      <trkpt lat="37.05393" lon="-3.33326">
        <ele>3184</ele>
        <time>2021-08-06 14:13:04</time>
      </trkpt>
      <trkpt lat="37.05393" lon="-3.33326">
        <ele>3184</ele>
        <time>2021-08-06 14:13:05</time>
      </trkpt>
      <trkpt lat="37.05393" lon="-3.33326">
        <ele>3184</ele>
        <time>2021-08-06 14:13:06</time>
      </trkpt>
      <trkpt lat="37.05393" lon="-3.33326">
        <ele>3184</ele>
        <time>2021-08-06 14:13:07</time>
      </trkpt>
      <trkpt lat="37.05393" lon="-3.33326">
        <ele>3184</ele>
        <time>2021-08-06 14:13:08</time>
      </trkpt>
      <trkpt lat="37.05393" lon="-3.33326">
        <ele>3184</ele>
        <time>2021-08-06 14:13:09</time>
      </trkpt>
      <trkpt lat="37.05393" lon="-3.33326">
        <ele>3184</ele>
        <time>2021-08-06 14:13:10</time>
      </trkpt>
      <trkpt lat="37.05393" lon="-3.33326">
        <ele>3184</ele>
        <time>2021-08-06 14:13:11</time>
      </trkpt>
      <trkpt lat="37.05393" lon="-3.33326">
        <ele>3184</ele>
        <time>2021-08-06 14:13:12</time>
      </trkpt>
      <trkpt lat="37.05393" lon="-3.33326">
        <ele>3184</ele>
        <time>2021-08-06 14:13:13</time>
      </trkpt>
      <trkpt lat="37.05393" lon="-3.33326">
        <ele>3184</ele>
        <time>2021-08-06 14:13:14</time>
      </trkpt>
      <trkpt lat="37.05393" lon="-3.33326">
        <ele>3184</ele>
        <time>2021-08-06 14:13:15</time>
      </trkpt>
      <trkpt lat="37.05393" lon="-3.33326">
        <ele>3184</ele>
        <time>2021-08-06 14:13:16</time>
      </trkpt>
      <trkpt lat="37.05393" lon="-3.33326">
        <ele>3184</ele>
        <time>2021-08-06 14:13:17</time>
      </trkpt>
      <trkpt lat="37.05393" lon="-3.33326">
        <ele>3184</ele>
        <time>2021-08-06 14:13:18</time>
      </trkpt>
      <trkpt lat="37.05393" lon="-3.33326">
        <ele>3184</ele>
        <time>2021-08-06 14:13:19</time>
      </trkpt>
      <trkpt lat="37.05393" lon="-3.33326">
        <ele>3184</ele>
        <time>2021-08-06 14:13:20</time>
      </trkpt>
      <trkpt lat="37.05393" lon="-3.33326">
        <ele>3184</ele>
        <time>2021-08-06 14:13:21</time>
      </trkpt>
      <trkpt lat="37.05393" lon="-3.33326">
        <ele>3184</ele>
        <time>2021-08-06 14:13:22</time>
      </trkpt>
      <trkpt lat="37.05393" lon="-3.33326">
        <ele>3184</ele>
        <time>2021-08-06 14:13:23</time>
      </trkpt>
      <trkpt lat="37.05393" lon="-3.33326">
        <ele>3184</ele>
        <time>2021-08-06 14:13:24</time>
      </trkpt>
      <trkpt lat="37.05393" lon="-3.33326">
        <ele>3184</ele>
        <time>2021-08-06 14:13:25</time>
      </trkpt>
      <trkpt lat="37.05393" lon="-3.33326">
        <ele>3184</ele>
        <time>2021-08-06 14:13:26</time>
      </trkpt>
      <trkpt lat="37.05393" lon="-3.33326">
        <ele>3184</ele>
        <time>2021-08-06 14:13:27</time>
      </trkpt>
      <trkpt lat="37.05393" lon="-3.33326">
        <ele>3184</ele>
        <time>2021-08-06 14:13:28</time>
      </trkpt>
      <trkpt lat="37.05393" lon="-3.33326">
        <ele>3184</ele>
        <time>2021-08-06 14:13:29</time>
      </trkpt>
      <trkpt lat="37.05393" lon="-3.33326">
        <ele>3184</ele>
        <time>2021-08-06 14:13:30</time>
      </trkpt>
      <trkpt lat="37.05393" lon="-3.33327">
        <ele>3184</ele>
        <time>2021-08-06 14:13:31</time>
      </trkpt>
      <trkpt lat="37.05393" lon="-3.33327">
        <ele>3184</ele>
        <time>2021-08-06 14:13:32</time>
      </trkpt>
      <trkpt lat="37.05393" lon="-3.33327">
        <ele>3184</ele>
        <time>2021-08-06 14:13:33</time>
      </trkpt>
      <trkpt lat="37.05393" lon="-3.33327">
        <ele>3184</ele>
        <time>2021-08-06 14:13:34</time>
      </trkpt>
      <trkpt lat="37.05393" lon="-3.33327">
        <ele>3184</ele>
        <time>2021-08-06 14:13:35</time>
      </trkpt>
      <trkpt lat="37.05393" lon="-3.33327">
        <ele>3184</ele>
        <time>2021-08-06 14:13:36</time>
      </trkpt>
      <trkpt lat="37.05393" lon="-3.33327">
        <ele>3184</ele>
        <time>2021-08-06 14:13:37</time>
      </trkpt>
      <trkpt lat="37.05393" lon="-3.33327">
        <ele>3184</ele>
        <time>2021-08-06 14:13:38</time>
      </trkpt>
      <trkpt lat="37.05393" lon="-3.33327">
        <ele>3184</ele>
        <time>2021-08-06 14:13:39</time>
      </trkpt>
      <trkpt lat="37.05393" lon="-3.33327">
        <ele>3184</ele>
        <time>2021-08-06 14:13:40</time>
      </trkpt>
      <trkpt lat="37.05393" lon="-3.33327">
        <ele>3184</ele>
        <time>2021-08-06 14:13:41</time>
      </trkpt>
      <trkpt lat="37.05393" lon="-3.33327">
        <ele>3184</ele>
        <time>2021-08-06 14:13:42</time>
      </trkpt>
      <trkpt lat="37.05393" lon="-3.33327">
        <ele>3184</ele>
        <time>2021-08-06 14:13:43</time>
      </trkpt>
      <trkpt lat="37.05393" lon="-3.33327">
        <ele>3184</ele>
        <time>2021-08-06 14:13:44</time>
      </trkpt>
      <trkpt lat="37.05393" lon="-3.33327">
        <ele>3184</ele>
        <time>2021-08-06 14:13:45</time>
      </trkpt>
      <trkpt lat="37.05393" lon="-3.33327">
        <ele>3184</ele>
        <time>2021-08-06 14:13:46</time>
      </trkpt>
      <trkpt lat="37.05394" lon="-3.33327">
        <ele>3184</ele>
        <time>2021-08-06 14:13:47</time>
      </trkpt>
      <trkpt lat="37.05394" lon="-3.33327">
        <ele>3184</ele>
        <time>2021-08-06 14:13:48</time>
      </trkpt>
      <trkpt lat="37.05394" lon="-3.33327">
        <ele>3184</ele>
        <time>2021-08-06 14:13:49</time>
      </trkpt>
      <trkpt lat="37.05394" lon="-3.33327">
        <ele>3184</ele>
        <time>2021-08-06 14:13:50</time>
      </trkpt>
      <trkpt lat="37.05394" lon="-3.33327">
        <ele>3184</ele>
        <time>2021-08-06 14:13:51</time>
      </trkpt>
      <trkpt lat="37.05394" lon="-3.33327">
        <ele>3184</ele>
        <time>2021-08-06 14:13:52</time>
      </trkpt>
      <trkpt lat="37.05394" lon="-3.33327">
        <ele>3184</ele>
        <time>2021-08-06 14:13:53</time>
      </trkpt>
      <trkpt lat="37.05394" lon="-3.33327">
        <ele>3184</ele>
        <time>2021-08-06 14:13:54</time>
      </trkpt>
      <trkpt lat="37.05393" lon="-3.33327">
        <ele>3184</ele>
        <time>2021-08-06 14:13:55</time>
      </trkpt>
      <trkpt lat="37.05393" lon="-3.33327">
        <ele>3184</ele>
        <time>2021-08-06 14:13:56</time>
      </trkpt>
      <trkpt lat="37.05394" lon="-3.33327">
        <ele>3184</ele>
        <time>2021-08-06 14:13:57</time>
      </trkpt>
      <trkpt lat="37.05394" lon="-3.33327">
        <ele>3184</ele>
        <time>2021-08-06 14:13:58</time>
      </trkpt>
      <trkpt lat="37.05394" lon="-3.33327">
        <ele>3184</ele>
        <time>2021-08-06 14:13:59</time>
      </trkpt>
      <trkpt lat="37.05393" lon="-3.33327">
        <ele>3184</ele>
        <time>2021-08-06 14:14:00</time>
      </trkpt>
      <trkpt lat="37.05393" lon="-3.33327">
        <ele>3184</ele>
        <time>2021-08-06 14:14:01</time>
      </trkpt>
      <trkpt lat="37.05393" lon="-3.33327">
        <ele>3184</ele>
        <time>2021-08-06 14:14:02</time>
      </trkpt>
      <trkpt lat="37.05393" lon="-3.33327">
        <ele>3184</ele>
        <time>2021-08-06 14:14:03</time>
      </trkpt>
      <trkpt lat="37.05393" lon="-3.33327">
        <ele>3184</ele>
        <time>2021-08-06 14:14:04</time>
      </trkpt>
      <trkpt lat="37.05394" lon="-3.33327">
        <ele>3184</ele>
        <time>2021-08-06 14:14:05</time>
      </trkpt>
      <trkpt lat="37.05394" lon="-3.33327">
        <ele>3184</ele>
        <time>2021-08-06 14:14:06</time>
      </trkpt>
      <trkpt lat="37.05394" lon="-3.33327">
        <ele>3184</ele>
        <time>2021-08-06 14:14:07</time>
      </trkpt>
      <trkpt lat="37.05393" lon="-3.33327">
        <ele>3184</ele>
        <time>2021-08-06 14:14:08</time>
      </trkpt>
      <trkpt lat="37.05393" lon="-3.33327">
        <ele>3184</ele>
        <time>2021-08-06 14:14:09</time>
      </trkpt>
      <trkpt lat="37.05393" lon="-3.33327">
        <ele>3184</ele>
        <time>2021-08-06 14:14:10</time>
      </trkpt>
      <trkpt lat="37.05393" lon="-3.33327">
        <ele>3184</ele>
        <time>2021-08-06 14:14:11</time>
      </trkpt>
      <trkpt lat="37.05393" lon="-3.33327">
        <ele>3184</ele>
        <time>2021-08-06 14:14:12</time>
      </trkpt>
      <trkpt lat="37.05393" lon="-3.33327">
        <ele>3184</ele>
        <time>2021-08-06 14:14:13</time>
      </trkpt>
      <trkpt lat="37.05393" lon="-3.33327">
        <ele>3184</ele>
        <time>2021-08-06 14:14:14</time>
      </trkpt>
      <trkpt lat="37.05393" lon="-3.33327">
        <ele>3184</ele>
        <time>2021-08-06 14:14:15</time>
      </trkpt>
      <trkpt lat="37.05393" lon="-3.33327">
        <ele>3184</ele>
        <time>2021-08-06 14:14:16</time>
      </trkpt>
      <trkpt lat="37.05393" lon="-3.33327">
        <ele>3184</ele>
        <time>2021-08-06 14:14:17</time>
      </trkpt>
      <trkpt lat="37.05393" lon="-3.33327">
        <ele>3184</ele>
        <time>2021-08-06 14:14:18</time>
      </trkpt>
      <trkpt lat="37.05393" lon="-3.33327">
        <ele>3184</ele>
        <time>2021-08-06 14:14:19</time>
      </trkpt>
      <trkpt lat="37.05393" lon="-3.33327">
        <ele>3184</ele>
        <time>2021-08-06 14:14:20</time>
      </trkpt>
      <trkpt lat="37.05393" lon="-3.33327">
        <ele>3184</ele>
        <time>2021-08-06 14:14:21</time>
      </trkpt>
      <trkpt lat="37.05393" lon="-3.33327">
        <ele>3184</ele>
        <time>2021-08-06 14:14:22</time>
      </trkpt>
      <trkpt lat="37.05393" lon="-3.33327">
        <ele>3184</ele>
        <time>2021-08-06 14:14:23</time>
      </trkpt>
      <trkpt lat="37.05393" lon="-3.33327">
        <ele>3184</ele>
        <time>2021-08-06 14:14:24</time>
      </trkpt>
      <trkpt lat="37.05394" lon="-3.33327">
        <ele>3184</ele>
        <time>2021-08-06 14:14:25</time>
      </trkpt>
      <trkpt lat="37.05394" lon="-3.33327">
        <ele>3184</ele>
        <time>2021-08-06 14:14:26</time>
      </trkpt>
      <trkpt lat="37.05394" lon="-3.33327">
        <ele>3184</ele>
        <time>2021-08-06 14:14:27</time>
      </trkpt>
      <trkpt lat="37.05394" lon="-3.33327">
        <ele>3184</ele>
        <time>2021-08-06 14:14:28</time>
      </trkpt>
      <trkpt lat="37.05394" lon="-3.33327">
        <ele>3184</ele>
        <time>2021-08-06 14:14:29</time>
      </trkpt>
      <trkpt lat="37.05394" lon="-3.33327">
        <ele>3184</ele>
        <time>2021-08-06 14:14:30</time>
      </trkpt>
      <trkpt lat="37.05394" lon="-3.33327">
        <ele>3184</ele>
        <time>2021-08-06 14:14:31</time>
      </trkpt>
      <trkpt lat="37.05394" lon="-3.33326">
        <ele>3184</ele>
        <time>2021-08-06 14:14:32</time>
      </trkpt>
      <trkpt lat="37.05394" lon="-3.33327">
        <ele>3184</ele>
        <time>2021-08-06 14:14:33</time>
      </trkpt>
      <trkpt lat="37.05394" lon="-3.33327">
        <ele>3184</ele>
        <time>2021-08-06 14:14:34</time>
      </trkpt>
      <trkpt lat="37.05394" lon="-3.33327">
        <ele>3184</ele>
        <time>2021-08-06 14:14:35</time>
      </trkpt>
      <trkpt lat="37.05393" lon="-3.33327">
        <ele>3184</ele>
        <time>2021-08-06 14:14:36</time>
      </trkpt>
      <trkpt lat="37.05393" lon="-3.33327">
        <ele>3184</ele>
        <time>2021-08-06 14:14:37</time>
      </trkpt>
      <trkpt lat="37.05393" lon="-3.33326">
        <ele>3184</ele>
        <time>2021-08-06 14:14:38</time>
      </trkpt>
      <trkpt lat="37.05393" lon="-3.33326">
        <ele>3184</ele>
        <time>2021-08-06 14:14:39</time>
      </trkpt>
      <trkpt lat="37.05394" lon="-3.33327">
        <ele>3184</ele>
        <time>2021-08-06 14:14:40</time>
      </trkpt>
      <trkpt lat="37.05394" lon="-3.33328">
        <ele>3184</ele>
        <time>2021-08-06 14:14:41</time>
      </trkpt>
      <trkpt lat="37.05394" lon="-3.33329">
        <ele>3184</ele>
        <time>2021-08-06 14:14:42</time>
      </trkpt>
      <trkpt lat="37.05394" lon="-3.33329">
        <ele>3184</ele>
        <time>2021-08-06 14:14:43</time>
      </trkpt>
      <trkpt lat="37.05394" lon="-3.33329">
        <ele>3184</ele>
        <time>2021-08-06 14:14:44</time>
      </trkpt>
      <trkpt lat="37.05394" lon="-3.33329">
        <ele>3184</ele>
        <time>2021-08-06 14:14:45</time>
      </trkpt>
      <trkpt lat="37.05394" lon="-3.33329">
        <ele>3184</ele>
        <time>2021-08-06 14:14:46</time>
      </trkpt>
      <trkpt lat="37.05394" lon="-3.33328">
        <ele>3184</ele>
        <time>2021-08-06 14:14:47</time>
      </trkpt>
      <trkpt lat="37.05394" lon="-3.33328">
        <ele>3184</ele>
        <time>2021-08-06 14:14:48</time>
      </trkpt>
      <trkpt lat="37.05394" lon="-3.33328">
        <ele>3184</ele>
        <time>2021-08-06 14:14:49</time>
      </trkpt>
      <trkpt lat="37.05394" lon="-3.33328">
        <ele>3184</ele>
        <time>2021-08-06 14:14:50</time>
      </trkpt>
      <trkpt lat="37.05394" lon="-3.33327">
        <ele>3184</ele>
        <time>2021-08-06 14:14:51</time>
      </trkpt>
      <trkpt lat="37.05394" lon="-3.33327">
        <ele>3184</ele>
        <time>2021-08-06 14:14:52</time>
      </trkpt>
      <trkpt lat="37.05394" lon="-3.33327">
        <ele>3184</ele>
        <time>2021-08-06 14:14:53</time>
      </trkpt>
      <trkpt lat="37.05394" lon="-3.33327">
        <ele>3184</ele>
        <time>2021-08-06 14:14:54</time>
      </trkpt>
      <trkpt lat="37.05394" lon="-3.33327">
        <ele>3184</ele>
        <time>2021-08-06 14:14:55</time>
      </trkpt>
      <trkpt lat="37.05394" lon="-3.33327">
        <ele>3184</ele>
        <time>2021-08-06 14:14:56</time>
      </trkpt>
      <trkpt lat="37.05394" lon="-3.33327">
        <ele>3184</ele>
        <time>2021-08-06 14:14:57</time>
      </trkpt>
      <trkpt lat="37.05394" lon="-3.33327">
        <ele>3184</ele>
        <time>2021-08-06 14:14:58</time>
      </trkpt>
      <trkpt lat="37.05394" lon="-3.33327">
        <ele>3184</ele>
        <time>2021-08-06 14:14:59</time>
      </trkpt>
      <trkpt lat="37.05394" lon="-3.33327">
        <ele>3184</ele>
        <time>2021-08-06 14:15:00</time>
      </trkpt>
      <trkpt lat="37.05394" lon="-3.33327">
        <ele>3184</ele>
        <time>2021-08-06 14:15:01</time>
      </trkpt>
      <trkpt lat="37.05394" lon="-3.33327">
        <ele>3184</ele>
        <time>2021-08-06 14:15:02</time>
      </trkpt>
      <trkpt lat="37.05394" lon="-3.33327">
        <ele>3184</ele>
        <time>2021-08-06 14:15:03</time>
      </trkpt>
      <trkpt lat="37.05394" lon="-3.33327">
        <ele>3184</ele>
        <time>2021-08-06 14:15:04</time>
      </trkpt>
      <trkpt lat="37.05394" lon="-3.33327">
        <ele>3184</ele>
        <time>2021-08-06 14:15:05</time>
      </trkpt>
      <trkpt lat="37.05394" lon="-3.33327">
        <ele>3184</ele>
        <time>2021-08-06 14:15:06</time>
      </trkpt>
      <trkpt lat="37.05394" lon="-3.33327">
        <ele>3184</ele>
        <time>2021-08-06 14:15:07</time>
      </trkpt>
      <trkpt lat="37.05394" lon="-3.33327">
        <ele>3184</ele>
        <time>2021-08-06 14:15:08</time>
      </trkpt>
      <trkpt lat="37.05394" lon="-3.33327">
        <ele>3184</ele>
        <time>2021-08-06 14:15:09</time>
      </trkpt>
      <trkpt lat="37.05394" lon="-3.33327">
        <ele>3184</ele>
        <time>2021-08-06 14:15:10</time>
      </trkpt>
      <trkpt lat="37.05394" lon="-3.33327">
        <ele>3184</ele>
        <time>2021-08-06 14:15:11</time>
      </trkpt>
      <trkpt lat="37.05394" lon="-3.33327">
        <ele>3184</ele>
        <time>2021-08-06 14:15:12</time>
      </trkpt>
      <trkpt lat="37.05394" lon="-3.33327">
        <ele>3184</ele>
        <time>2021-08-06 14:15:13</time>
      </trkpt>
      <trkpt lat="37.05394" lon="-3.33327">
        <ele>3184</ele>
        <time>2021-08-06 14:15:14</time>
      </trkpt>
      <trkpt lat="37.05394" lon="-3.33327">
        <ele>3184</ele>
        <time>2021-08-06 14:15:15</time>
      </trkpt>
      <trkpt lat="37.05394" lon="-3.33327">
        <ele>3184</ele>
        <time>2021-08-06 14:15:16</time>
      </trkpt>
      <trkpt lat="37.05394" lon="-3.33327">
        <ele>3184</ele>
        <time>2021-08-06 14:15:17</time>
      </trkpt>
      <trkpt lat="37.05394" lon="-3.33327">
        <ele>3184</ele>
        <time>2021-08-06 14:15:18</time>
      </trkpt>
      <trkpt lat="37.05394" lon="-3.33327">
        <ele>3184</ele>
        <time>2021-08-06 14:15:19</time>
      </trkpt>
      <trkpt lat="37.05394" lon="-3.33327">
        <ele>3184</ele>
        <time>2021-08-06 14:15:20</time>
      </trkpt>
      <trkpt lat="37.05394" lon="-3.33327">
        <ele>3184</ele>
        <time>2021-08-06 14:15:21</time>
      </trkpt>
      <trkpt lat="37.05394" lon="-3.33327">
        <ele>3184</ele>
        <time>2021-08-06 14:15:22</time>
      </trkpt>
      <trkpt lat="37.05394" lon="-3.33327">
        <ele>3184</ele>
        <time>2021-08-06 14:15:23</time>
      </trkpt>
      <trkpt lat="37.05394" lon="-3.33327">
        <ele>3184</ele>
        <time>2021-08-06 14:15:24</time>
      </trkpt>
      <trkpt lat="37.05394" lon="-3.33327">
        <ele>3184</ele>
        <time>2021-08-06 14:15:25</time>
      </trkpt>
      <trkpt lat="37.05394" lon="-3.33327">
        <ele>3184</ele>
        <time>2021-08-06 14:15:26</time>
      </trkpt>
      <trkpt lat="37.05394" lon="-3.33327">
        <ele>3184</ele>
        <time>2021-08-06 14:15:27</time>
      </trkpt>
      <trkpt lat="37.05394" lon="-3.33327">
        <ele>3184</ele>
        <time>2021-08-06 14:15:28</time>
      </trkpt>
      <trkpt lat="37.05394" lon="-3.33327">
        <ele>3184</ele>
        <time>2021-08-06 14:15:29</time>
      </trkpt>
      <trkpt lat="37.05394" lon="-3.33327">
        <ele>3184</ele>
        <time>2021-08-06 14:15:30</time>
      </trkpt>
      <trkpt lat="37.05394" lon="-3.33327">
        <ele>3184</ele>
        <time>2021-08-06 14:15:31</time>
      </trkpt>
      <trkpt lat="37.05394" lon="-3.33327">
        <ele>3184</ele>
        <time>2021-08-06 14:15:32</time>
      </trkpt>
      <trkpt lat="37.05394" lon="-3.33327">
        <ele>3184</ele>
        <time>2021-08-06 14:15:33</time>
      </trkpt>
      <trkpt lat="37.05394" lon="-3.33327">
        <ele>3184</ele>
        <time>2021-08-06 14:15:34</time>
      </trkpt>
      <trkpt lat="37.05394" lon="-3.33327">
        <ele>3184</ele>
        <time>2021-08-06 14:15:35</time>
      </trkpt>
      <trkpt lat="37.05394" lon="-3.33327">
        <ele>3184</ele>
        <time>2021-08-06 14:15:36</time>
      </trkpt>
      <trkpt lat="37.05394" lon="-3.33327">
        <ele>3184</ele>
        <time>2021-08-06 14:15:37</time>
      </trkpt>
      <trkpt lat="37.05394" lon="-3.33327">
        <ele>3184</ele>
        <time>2021-08-06 14:15:38</time>
      </trkpt>
      <trkpt lat="37.05394" lon="-3.33327">
        <ele>3184</ele>
        <time>2021-08-06 14:15:39</time>
      </trkpt>
      <trkpt lat="37.05394" lon="-3.33327">
        <ele>3184</ele>
        <time>2021-08-06 14:15:40</time>
      </trkpt>
      <trkpt lat="37.05394" lon="-3.33327">
        <ele>3184</ele>
        <time>2021-08-06 14:15:41</time>
      </trkpt>
      <trkpt lat="37.05394" lon="-3.33327">
        <ele>3184</ele>
        <time>2021-08-06 14:15:42</time>
      </trkpt>
      <trkpt lat="37.05394" lon="-3.33327">
        <ele>3184</ele>
        <time>2021-08-06 14:15:43</time>
      </trkpt>
      <trkpt lat="37.05394" lon="-3.33327">
        <ele>3184</ele>
        <time>2021-08-06 14:15:44</time>
      </trkpt>
      <trkpt lat="37.05394" lon="-3.33327">
        <ele>3184</ele>
        <time>2021-08-06 14:15:45</time>
      </trkpt>
      <trkpt lat="37.05394" lon="-3.33327">
        <ele>3184</ele>
        <time>2021-08-06 14:15:46</time>
      </trkpt>
      <trkpt lat="37.05394" lon="-3.33327">
        <ele>3184</ele>
        <time>2021-08-06 14:15:47</time>
      </trkpt>
      <trkpt lat="37.05394" lon="-3.33327">
        <ele>3184</ele>
        <time>2021-08-06 14:15:48</time>
      </trkpt>
      <trkpt lat="37.05394" lon="-3.33327">
        <ele>3184</ele>
        <time>2021-08-06 14:15:49</time>
      </trkpt>
      <trkpt lat="37.05394" lon="-3.33327">
        <ele>3184</ele>
        <time>2021-08-06 14:15:50</time>
      </trkpt>
      <trkpt lat="37.05394" lon="-3.33327">
        <ele>3184</ele>
        <time>2021-08-06 14:15:51</time>
      </trkpt>
      <trkpt lat="37.05394" lon="-3.33327">
        <ele>3184</ele>
        <time>2021-08-06 14:15:52</time>
      </trkpt>
      <trkpt lat="37.05394" lon="-3.33327">
        <ele>3184</ele>
        <time>2021-08-06 14:15:53</time>
      </trkpt>
      <trkpt lat="37.05394" lon="-3.33327">
        <ele>3184</ele>
        <time>2021-08-06 14:15:54</time>
      </trkpt>
      <trkpt lat="37.05394" lon="-3.33327">
        <ele>3184</ele>
        <time>2021-08-06 14:15:55</time>
      </trkpt>
      <trkpt lat="37.05394" lon="-3.33327">
        <ele>3184</ele>
        <time>2021-08-06 14:15:56</time>
      </trkpt>
      <trkpt lat="37.05394" lon="-3.33327">
        <ele>3184</ele>
        <time>2021-08-06 14:15:57</time>
      </trkpt>
      <trkpt lat="37.05394" lon="-3.33327">
        <ele>3184</ele>
        <time>2021-08-06 14:15:58</time>
      </trkpt>
      <trkpt lat="37.05394" lon="-3.33327">
        <ele>3184</ele>
        <time>2021-08-06 14:15:59</time>
      </trkpt>
      <trkpt lat="37.05394" lon="-3.33327">
        <ele>3184</ele>
        <time>2021-08-06 14:16:00</time>
      </trkpt>
      <trkpt lat="37.05394" lon="-3.33327">
        <ele>3184</ele>
        <time>2021-08-06 14:16:01</time>
      </trkpt>
      <trkpt lat="37.05394" lon="-3.33327">
        <ele>3184</ele>
        <time>2021-08-06 14:16:02</time>
      </trkpt>
      <trkpt lat="37.05394" lon="-3.33327">
        <ele>3184</ele>
        <time>2021-08-06 14:16:03</time>
      </trkpt>
      <trkpt lat="37.05394" lon="-3.33327">
        <ele>3184</ele>
        <time>2021-08-06 14:16:04</time>
      </trkpt>
      <trkpt lat="37.05394" lon="-3.33327">
        <ele>3184</ele>
        <time>2021-08-06 14:16:05</time>
      </trkpt>
      <trkpt lat="37.05394" lon="-3.33327">
        <ele>3184</ele>
        <time>2021-08-06 14:16:06</time>
      </trkpt>
      <trkpt lat="37.05394" lon="-3.33327">
        <ele>3184</ele>
        <time>2021-08-06 14:16:07</time>
      </trkpt>
      <trkpt lat="37.05394" lon="-3.33327">
        <ele>3184</ele>
        <time>2021-08-06 14:16:08</time>
      </trkpt>
      <trkpt lat="37.05394" lon="-3.33327">
        <ele>3184</ele>
        <time>2021-08-06 14:16:09</time>
      </trkpt>
      <trkpt lat="37.05394" lon="-3.33327">
        <ele>3184</ele>
        <time>2021-08-06 14:16:10</time>
      </trkpt>
      <trkpt lat="37.05394" lon="-3.33327">
        <ele>3184</ele>
        <time>2021-08-06 14:16:11</time>
      </trkpt>
      <trkpt lat="37.05394" lon="-3.33327">
        <ele>3184</ele>
        <time>2021-08-06 14:16:12</time>
      </trkpt>
      <trkpt lat="37.05394" lon="-3.33327">
        <ele>3184</ele>
        <time>2021-08-06 14:16:13</time>
      </trkpt>
      <trkpt lat="37.05394" lon="-3.33327">
        <ele>3184</ele>
        <time>2021-08-06 14:16:14</time>
      </trkpt>
      <trkpt lat="37.05394" lon="-3.33327">
        <ele>3184</ele>
        <time>2021-08-06 14:16:15</time>
      </trkpt>
      <trkpt lat="37.05394" lon="-3.33327">
        <ele>3184</ele>
        <time>2021-08-06 14:16:16</time>
      </trkpt>
      <trkpt lat="37.05394" lon="-3.33327">
        <ele>3184</ele>
        <time>2021-08-06 14:16:17</time>
      </trkpt>
      <trkpt lat="37.05394" lon="-3.33327">
        <ele>3184</ele>
        <time>2021-08-06 14:16:18</time>
      </trkpt>
      <trkpt lat="37.05394" lon="-3.33327">
        <ele>3184</ele>
        <time>2021-08-06 14:16:19</time>
      </trkpt>
      <trkpt lat="37.05394" lon="-3.33327">
        <ele>3184</ele>
        <time>2021-08-06 14:16:20</time>
      </trkpt>
      <trkpt lat="37.05394" lon="-3.33327">
        <ele>3184</ele>
        <time>2021-08-06 14:16:21</time>
      </trkpt>
      <trkpt lat="37.05394" lon="-3.33327">
        <ele>3184</ele>
        <time>2021-08-06 14:16:22</time>
      </trkpt>
      <trkpt lat="37.05394" lon="-3.33327">
        <ele>3184</ele>
        <time>2021-08-06 14:16:23</time>
      </trkpt>
      <trkpt lat="37.05394" lon="-3.33327">
        <ele>3184</ele>
        <time>2021-08-06 14:16:24</time>
      </trkpt>
      <trkpt lat="37.05394" lon="-3.33327">
        <ele>3184</ele>
        <time>2021-08-06 14:16:25</time>
      </trkpt>
      <trkpt lat="37.05394" lon="-3.33327">
        <ele>3184</ele>
        <time>2021-08-06 14:16:26</time>
      </trkpt>
      <trkpt lat="37.05394" lon="-3.33327">
        <ele>3184</ele>
        <time>2021-08-06 14:16:27</time>
      </trkpt>
      <trkpt lat="37.05394" lon="-3.33327">
        <ele>3184</ele>
        <time>2021-08-06 14:16:28</time>
      </trkpt>
      <trkpt lat="37.05394" lon="-3.33327">
        <ele>3184</ele>
        <time>2021-08-06 14:16:29</time>
      </trkpt>
      <trkpt lat="37.05394" lon="-3.33327">
        <ele>3184</ele>
        <time>2021-08-06 14:16:30</time>
      </trkpt>
      <trkpt lat="37.05394" lon="-3.33327">
        <ele>3184</ele>
        <time>2021-08-06 14:16:31</time>
      </trkpt>
      <trkpt lat="37.05394" lon="-3.33327">
        <ele>3184</ele>
        <time>2021-08-06 14:16:32</time>
      </trkpt>
      <trkpt lat="37.05394" lon="-3.33327">
        <ele>3184</ele>
        <time>2021-08-06 14:16:33</time>
      </trkpt>
      <trkpt lat="37.05394" lon="-3.33327">
        <ele>3184</ele>
        <time>2021-08-06 14:16:34</time>
      </trkpt>
      <trkpt lat="37.05394" lon="-3.33327">
        <ele>3184</ele>
        <time>2021-08-06 14:16:35</time>
      </trkpt>
      <trkpt lat="37.05394" lon="-3.33327">
        <ele>3184</ele>
        <time>2021-08-06 14:16:36</time>
      </trkpt>
      <trkpt lat="37.05394" lon="-3.33327">
        <ele>3184</ele>
        <time>2021-08-06 14:16:37</time>
      </trkpt>
      <trkpt lat="37.05394" lon="-3.33327">
        <ele>3184</ele>
        <time>2021-08-06 14:16:38</time>
      </trkpt>
      <trkpt lat="37.05394" lon="-3.33327">
        <ele>3184</ele>
        <time>2021-08-06 14:16:39</time>
      </trkpt>
      <trkpt lat="37.05394" lon="-3.33327">
        <ele>3184</ele>
        <time>2021-08-06 14:16:40</time>
      </trkpt>
      <trkpt lat="37.05394" lon="-3.33327">
        <ele>3184</ele>
        <time>2021-08-06 14:16:41</time>
      </trkpt>
      <trkpt lat="37.05394" lon="-3.33327">
        <ele>3184</ele>
        <time>2021-08-06 14:16:42</time>
      </trkpt>
      <trkpt lat="37.05394" lon="-3.33327">
        <ele>3184</ele>
        <time>2021-08-06 14:16:43</time>
      </trkpt>
      <trkpt lat="37.05394" lon="-3.33327">
        <ele>3184</ele>
        <time>2021-08-06 14:16:44</time>
      </trkpt>
      <trkpt lat="37.05394" lon="-3.33327">
        <ele>3184</ele>
        <time>2021-08-06 14:16:45</time>
      </trkpt>
      <trkpt lat="37.05394" lon="-3.33327">
        <ele>3184</ele>
        <time>2021-08-06 14:16:46</time>
      </trkpt>
      <trkpt lat="37.05394" lon="-3.33327">
        <ele>3184</ele>
        <time>2021-08-06 14:16:47</time>
      </trkpt>
      <trkpt lat="37.05394" lon="-3.33327">
        <ele>3184</ele>
        <time>2021-08-06 14:16:48</time>
      </trkpt>
      <trkpt lat="37.05394" lon="-3.33327">
        <ele>3184</ele>
        <time>2021-08-06 14:16:49</time>
      </trkpt>
      <trkpt lat="37.05394" lon="-3.33327">
        <ele>3184</ele>
        <time>2021-08-06 14:16:50</time>
      </trkpt>
      <trkpt lat="37.05394" lon="-3.33327">
        <ele>3184</ele>
        <time>2021-08-06 14:16:51</time>
      </trkpt>
      <trkpt lat="37.05394" lon="-3.33327">
        <ele>3184</ele>
        <time>2021-08-06 14:16:52</time>
      </trkpt>
      <trkpt lat="37.05394" lon="-3.33327">
        <ele>3184</ele>
        <time>2021-08-06 14:16:53</time>
      </trkpt>
      <trkpt lat="37.05394" lon="-3.33327">
        <ele>3184</ele>
        <time>2021-08-06 14:16:54</time>
      </trkpt>
      <trkpt lat="37.05394" lon="-3.33327">
        <ele>3184</ele>
        <time>2021-08-06 14:16:55</time>
      </trkpt>
      <trkpt lat="37.05394" lon="-3.33327">
        <ele>3184</ele>
        <time>2021-08-06 14:16:56</time>
      </trkpt>
      <trkpt lat="37.05394" lon="-3.33327">
        <ele>3184</ele>
        <time>2021-08-06 14:16:57</time>
      </trkpt>
      <trkpt lat="37.05394" lon="-3.33327">
        <ele>3184</ele>
        <time>2021-08-06 14:16:58</time>
      </trkpt>
      <trkpt lat="37.05394" lon="-3.33327">
        <ele>3184</ele>
        <time>2021-08-06 14:16:59</time>
      </trkpt>
      <trkpt lat="37.05394" lon="-3.33327">
        <ele>3184</ele>
        <time>2021-08-06 14:17:00</time>
      </trkpt>
      <trkpt lat="37.05394" lon="-3.33327">
        <ele>3184</ele>
        <time>2021-08-06 14:17:01</time>
      </trkpt>
      <trkpt lat="37.05394" lon="-3.33327">
        <ele>3184</ele>
        <time>2021-08-06 14:17:02</time>
      </trkpt>
      <trkpt lat="37.05394" lon="-3.33327">
        <ele>3184</ele>
        <time>2021-08-06 14:17:03</time>
      </trkpt>
      <trkpt lat="37.05394" lon="-3.33327">
        <ele>3184</ele>
        <time>2021-08-06 14:17:04</time>
      </trkpt>
      <trkpt lat="37.05394" lon="-3.33326">
        <ele>3184</ele>
        <time>2021-08-06 14:17:05</time>
      </trkpt>
      <trkpt lat="37.05394" lon="-3.33326">
        <ele>3184</ele>
        <time>2021-08-06 14:17:06</time>
      </trkpt>
      <trkpt lat="37.05394" lon="-3.33327">
        <ele>3184</ele>
        <time>2021-08-06 14:17:07</time>
      </trkpt>
      <trkpt lat="37.05394" lon="-3.33326">
        <ele>3184</ele>
        <time>2021-08-06 14:17:08</time>
      </trkpt>
      <trkpt lat="37.05394" lon="-3.33326">
        <ele>3184</ele>
        <time>2021-08-06 14:17:09</time>
      </trkpt>
      <trkpt lat="37.05394" lon="-3.33326">
        <ele>3184</ele>
        <time>2021-08-06 14:17:10</time>
      </trkpt>
      <trkpt lat="37.05394" lon="-3.33326">
        <ele>3184</ele>
        <time>2021-08-06 14:17:11</time>
      </trkpt>
      <trkpt lat="37.05394" lon="-3.33327">
        <ele>3184</ele>
        <time>2021-08-06 14:17:12</time>
      </trkpt>
      <trkpt lat="37.05394" lon="-3.33327">
        <ele>3184</ele>
        <time>2021-08-06 14:17:13</time>
      </trkpt>
      <trkpt lat="37.05394" lon="-3.33327">
        <ele>3184</ele>
        <time>2021-08-06 14:17:14</time>
      </trkpt>
      <trkpt lat="37.05394" lon="-3.33327">
        <ele>3184</ele>
        <time>2021-08-06 14:17:15</time>
      </trkpt>
      <trkpt lat="37.05394" lon="-3.33327">
        <ele>3184</ele>
        <time>2021-08-06 14:17:16</time>
      </trkpt>
      <trkpt lat="37.05394" lon="-3.33327">
        <ele>3184</ele>
        <time>2021-08-06 14:17:17</time>
      </trkpt>
      <trkpt lat="37.05394" lon="-3.33327">
        <ele>3184</ele>
        <time>2021-08-06 14:17:18</time>
      </trkpt>
      <trkpt lat="37.05394" lon="-3.33328">
        <ele>3184</ele>
        <time>2021-08-06 14:17:19</time>
      </trkpt>
      <trkpt lat="37.05394" lon="-3.33328">
        <ele>3184</ele>
        <time>2021-08-06 14:17:20</time>
      </trkpt>
      <trkpt lat="37.05394" lon="-3.33328">
        <ele>3184</ele>
        <time>2021-08-06 14:17:21</time>
      </trkpt>
      <trkpt lat="37.05394" lon="-3.33327">
        <ele>3184</ele>
        <time>2021-08-06 14:17:22</time>
      </trkpt>
      <trkpt lat="37.05394" lon="-3.33327">
        <ele>3184</ele>
        <time>2021-08-06 14:17:23</time>
      </trkpt>
      <trkpt lat="37.05394" lon="-3.33327">
        <ele>3184</ele>
        <time>2021-08-06 14:17:24</time>
      </trkpt>
      <trkpt lat="37.05394" lon="-3.33327">
        <ele>3184</ele>
        <time>2021-08-06 14:17:25</time>
      </trkpt>
      <trkpt lat="37.05394" lon="-3.33327">
        <ele>3184</ele>
        <time>2021-08-06 14:17:26</time>
      </trkpt>
      <trkpt lat="37.05394" lon="-3.33327">
        <ele>3184</ele>
        <time>2021-08-06 14:17:27</time>
      </trkpt>
      <trkpt lat="37.05394" lon="-3.33327">
        <ele>3184</ele>
        <time>2021-08-06 14:17:28</time>
      </trkpt>
      <trkpt lat="37.05394" lon="-3.33328">
        <ele>3184</ele>
        <time>2021-08-06 14:17:29</time>
      </trkpt>
      <trkpt lat="37.05394" lon="-3.33328">
        <ele>3184</ele>
        <time>2021-08-06 14:17:30</time>
      </trkpt>
      <trkpt lat="37.05394" lon="-3.33327">
        <ele>3184</ele>
        <time>2021-08-06 14:17:31</time>
      </trkpt>
      <trkpt lat="37.05394" lon="-3.33327">
        <ele>3184</ele>
        <time>2021-08-06 14:17:32</time>
      </trkpt>
      <trkpt lat="37.05394" lon="-3.33327">
        <ele>3184</ele>
        <time>2021-08-06 14:17:33</time>
      </trkpt>
      <trkpt lat="37.05394" lon="-3.33327">
        <ele>3184</ele>
        <time>2021-08-06 14:17:34</time>
      </trkpt>
      <trkpt lat="37.05394" lon="-3.33327">
        <ele>3184</ele>
        <time>2021-08-06 14:17:35</time>
      </trkpt>
      <trkpt lat="37.05394" lon="-3.33327">
        <ele>3184</ele>
        <time>2021-08-06 14:17:36</time>
      </trkpt>
      <trkpt lat="37.05394" lon="-3.33327">
        <ele>3184</ele>
        <time>2021-08-06 14:17:37</time>
      </trkpt>
      <trkpt lat="37.05394" lon="-3.33327">
        <ele>3184</ele>
        <time>2021-08-06 14:17:38</time>
      </trkpt>
      <trkpt lat="37.05394" lon="-3.33327">
        <ele>3184</ele>
        <time>2021-08-06 14:17:39</time>
      </trkpt>
      <trkpt lat="37.05394" lon="-3.33327">
        <ele>3184</ele>
        <time>2021-08-06 14:17:40</time>
      </trkpt>
      <trkpt lat="37.05394" lon="-3.33327">
        <ele>3184</ele>
        <time>2021-08-06 14:17:41</time>
      </trkpt>
      <trkpt lat="37.05394" lon="-3.33327">
        <ele>3184</ele>
        <time>2021-08-06 14:17:42</time>
      </trkpt>
      <trkpt lat="37.05394" lon="-3.33327">
        <ele>3184</ele>
        <time>2021-08-06 14:17:43</time>
      </trkpt>
      <trkpt lat="37.05394" lon="-3.33327">
        <ele>3184</ele>
        <time>2021-08-06 14:17:44</time>
      </trkpt>
      <trkpt lat="37.05394" lon="-3.33327">
        <ele>3184</ele>
        <time>2021-08-06 14:17:45</time>
      </trkpt>
      <trkpt lat="37.05394" lon="-3.33327">
        <ele>3184</ele>
        <time>2021-08-06 14:17:46</time>
      </trkpt>
      <trkpt lat="37.05394" lon="-3.33327">
        <ele>3184</ele>
        <time>2021-08-06 14:17:47</time>
      </trkpt>
      <trkpt lat="37.05394" lon="-3.33327">
        <ele>3184</ele>
        <time>2021-08-06 14:17:48</time>
      </trkpt>
      <trkpt lat="37.05394" lon="-3.33327">
        <ele>3184</ele>
        <time>2021-08-06 14:17:49</time>
      </trkpt>
      <trkpt lat="37.05394" lon="-3.33327">
        <ele>3184</ele>
        <time>2021-08-06 14:17:50</time>
      </trkpt>
      <trkpt lat="37.05394" lon="-3.33327">
        <ele>3184</ele>
        <time>2021-08-06 14:17:51</time>
      </trkpt>
      <trkpt lat="37.05394" lon="-3.33327">
        <ele>3184</ele>
        <time>2021-08-06 14:17:52</time>
      </trkpt>
      <trkpt lat="37.05394" lon="-3.33327">
        <ele>3184</ele>
        <time>2021-08-06 14:17:53</time>
      </trkpt>
      <trkpt lat="37.05394" lon="-3.33327">
        <ele>3184</ele>
        <time>2021-08-06 14:17:54</time>
      </trkpt>
      <trkpt lat="37.05394" lon="-3.33326">
        <ele>3184</ele>
        <time>2021-08-06 14:17:55</time>
      </trkpt>
      <trkpt lat="37.05394" lon="-3.33326">
        <ele>3184</ele>
        <time>2021-08-06 14:17:56</time>
      </trkpt>
      <trkpt lat="37.05393" lon="-3.33326">
        <ele>3184</ele>
        <time>2021-08-06 14:17:57</time>
      </trkpt>
      <trkpt lat="37.05393" lon="-3.33326">
        <ele>3184</ele>
        <time>2021-08-06 14:17:58</time>
      </trkpt>
      <trkpt lat="37.05393" lon="-3.33326">
        <ele>3184</ele>
        <time>2021-08-06 14:17:59</time>
      </trkpt>
      <trkpt lat="37.05393" lon="-3.33326">
        <ele>3184</ele>
        <time>2021-08-06 14:18:00</time>
      </trkpt>
      <trkpt lat="37.05393" lon="-3.33326">
        <ele>3184</ele>
        <time>2021-08-06 14:18:01</time>
      </trkpt>
      <trkpt lat="37.05393" lon="-3.33326">
        <ele>3184</ele>
        <time>2021-08-06 14:18:02</time>
      </trkpt>
      <trkpt lat="37.05393" lon="-3.33326">
        <ele>3184</ele>
        <time>2021-08-06 14:18:03</time>
      </trkpt>
      <trkpt lat="37.05393" lon="-3.33326">
        <ele>3184</ele>
        <time>2021-08-06 14:18:04</time>
      </trkpt>
      <trkpt lat="37.05393" lon="-3.33326">
        <ele>3184</ele>
        <time>2021-08-06 14:18:05</time>
      </trkpt>
      <trkpt lat="37.05393" lon="-3.33326">
        <ele>3184</ele>
        <time>2021-08-06 14:18:06</time>
      </trkpt>
      <trkpt lat="37.05393" lon="-3.33326">
        <ele>3184</ele>
        <time>2021-08-06 14:18:07</time>
      </trkpt>
      <trkpt lat="37.05393" lon="-3.33326">
        <ele>3184</ele>
        <time>2021-08-06 14:18:08</time>
      </trkpt>
      <trkpt lat="37.05393" lon="-3.33326">
        <ele>3184</ele>
        <time>2021-08-06 14:18:09</time>
      </trkpt>
      <trkpt lat="37.05393" lon="-3.33326">
        <ele>3184</ele>
        <time>2021-08-06 14:18:10</time>
      </trkpt>
      <trkpt lat="37.05393" lon="-3.33326">
        <ele>3184</ele>
        <time>2021-08-06 14:18:11</time>
      </trkpt>
      <trkpt lat="37.05394" lon="-3.33327">
        <ele>3184</ele>
        <time>2021-08-06 14:18:12</time>
      </trkpt>
      <trkpt lat="37.05394" lon="-3.33327">
        <ele>3184</ele>
        <time>2021-08-06 14:18:13</time>
      </trkpt>
      <trkpt lat="37.05394" lon="-3.33327">
        <ele>3184</ele>
        <time>2021-08-06 14:18:14</time>
      </trkpt>
      <trkpt lat="37.05393" lon="-3.33327">
        <ele>3184</ele>
        <time>2021-08-06 14:18:15</time>
      </trkpt>
      <trkpt lat="37.05393" lon="-3.33327">
        <ele>3184</ele>
        <time>2021-08-06 14:18:16</time>
      </trkpt>
      <trkpt lat="37.05394" lon="-3.33327">
        <ele>3184</ele>
        <time>2021-08-06 14:18:17</time>
      </trkpt>
      <trkpt lat="37.05393" lon="-3.33327">
        <ele>3184</ele>
        <time>2021-08-06 14:18:18</time>
      </trkpt>
      <trkpt lat="37.05393" lon="-3.33327">
        <ele>3184</ele>
        <time>2021-08-06 14:18:19</time>
      </trkpt>
      <trkpt lat="37.05392" lon="-3.33326">
        <ele>3184</ele>
        <time>2021-08-06 14:18:20</time>
      </trkpt>
      <trkpt lat="37.05392" lon="-3.33325">
        <ele>3184</ele>
        <time>2021-08-06 14:18:21</time>
      </trkpt>
      <trkpt lat="37.05392" lon="-3.33325">
        <ele>3184</ele>
        <time>2021-08-06 14:18:22</time>
      </trkpt>
      <trkpt lat="37.05391" lon="-3.33326">
        <ele>3184</ele>
        <time>2021-08-06 14:18:23</time>
      </trkpt>
      <trkpt lat="37.05391" lon="-3.33326">
        <ele>3184</ele>
        <time>2021-08-06 14:18:24</time>
      </trkpt>
      <trkpt lat="37.05391" lon="-3.33326">
        <ele>3184</ele>
        <time>2021-08-06 14:18:25</time>
      </trkpt>
      <trkpt lat="37.05391" lon="-3.33325">
        <ele>3184</ele>
        <time>2021-08-06 14:18:26</time>
      </trkpt>
      <trkpt lat="37.05392" lon="-3.33325">
        <ele>3184</ele>
        <time>2021-08-06 14:18:27</time>
      </trkpt>
      <trkpt lat="37.05392" lon="-3.33324">
        <ele>3184</ele>
        <time>2021-08-06 14:18:28</time>
      </trkpt>
      <trkpt lat="37.05392" lon="-3.33324">
        <ele>3184</ele>
        <time>2021-08-06 14:18:29</time>
      </trkpt>
      <trkpt lat="37.05392" lon="-3.33324">
        <ele>3184</ele>
        <time>2021-08-06 14:18:30</time>
      </trkpt>
      <trkpt lat="37.05392" lon="-3.33324">
        <ele>3184</ele>
        <time>2021-08-06 14:18:31</time>
      </trkpt>
      <trkpt lat="37.05392" lon="-3.33325">
        <ele>3184</ele>
        <time>2021-08-06 14:18:32</time>
      </trkpt>
      <trkpt lat="37.05393" lon="-3.33326">
        <ele>3184</ele>
        <time>2021-08-06 14:18:33</time>
      </trkpt>
      <trkpt lat="37.05393" lon="-3.33327">
        <ele>3184</ele>
        <time>2021-08-06 14:18:34</time>
      </trkpt>
      <trkpt lat="37.05393" lon="-3.33327">
        <ele>3184</ele>
        <time>2021-08-06 14:18:35</time>
      </trkpt>
      <trkpt lat="37.05393" lon="-3.33326">
        <ele>3184</ele>
        <time>2021-08-06 14:18:36</time>
      </trkpt>
      <trkpt lat="37.05393" lon="-3.33326">
        <ele>3184</ele>
        <time>2021-08-06 14:18:37</time>
      </trkpt>
      <trkpt lat="37.05393" lon="-3.33326">
        <ele>3184</ele>
        <time>2021-08-06 14:18:38</time>
      </trkpt>
      <trkpt lat="37.05393" lon="-3.33326">
        <ele>3184</ele>
        <time>2021-08-06 14:18:39</time>
      </trkpt>
      <trkpt lat="37.05394" lon="-3.33326">
        <ele>3184</ele>
        <time>2021-08-06 14:18:40</time>
      </trkpt>
      <trkpt lat="37.05394" lon="-3.33326">
        <ele>3184</ele>
        <time>2021-08-06 14:18:41</time>
      </trkpt>
      <trkpt lat="37.05394" lon="-3.33326">
        <ele>3184</ele>
        <time>2021-08-06 14:18:42</time>
      </trkpt>
      <trkpt lat="37.05394" lon="-3.33326">
        <ele>3184</ele>
        <time>2021-08-06 14:18:43</time>
      </trkpt>
      <trkpt lat="37.05394" lon="-3.33326">
        <ele>3184</ele>
        <time>2021-08-06 14:18:44</time>
      </trkpt>
      <trkpt lat="37.05394" lon="-3.33326">
        <ele>3184</ele>
        <time>2021-08-06 14:18:45</time>
      </trkpt>
      <trkpt lat="37.05394" lon="-3.33326">
        <ele>3184</ele>
        <time>2021-08-06 14:18:46</time>
      </trkpt>
      <trkpt lat="37.05394" lon="-3.33326">
        <ele>3184</ele>
        <time>2021-08-06 14:18:47</time>
      </trkpt>
      <trkpt lat="37.05394" lon="-3.33327">
        <ele>3184</ele>
        <time>2021-08-06 14:18:48</time>
      </trkpt>
      <trkpt lat="37.05394" lon="-3.33327">
        <ele>3184</ele>
        <time>2021-08-06 14:18:49</time>
      </trkpt>
      <trkpt lat="37.05394" lon="-3.33327">
        <ele>3184</ele>
        <time>2021-08-06 14:18:50</time>
      </trkpt>
      <trkpt lat="37.05394" lon="-3.33327">
        <ele>3184</ele>
        <time>2021-08-06 14:18:51</time>
      </trkpt>
      <trkpt lat="37.05394" lon="-3.33328">
        <ele>3184</ele>
        <time>2021-08-06 14:18:52</time>
      </trkpt>
      <trkpt lat="37.05394" lon="-3.33328">
        <ele>3184</ele>
        <time>2021-08-06 14:18:53</time>
      </trkpt>
      <trkpt lat="37.05394" lon="-3.33328">
        <ele>3184</ele>
        <time>2021-08-06 14:18:54</time>
      </trkpt>
      <trkpt lat="37.05394" lon="-3.33328">
        <ele>3184</ele>
        <time>2021-08-06 14:18:55</time>
      </trkpt>
      <trkpt lat="37.05394" lon="-3.33328">
        <ele>3184</ele>
        <time>2021-08-06 14:18:56</time>
      </trkpt>
      <trkpt lat="37.05394" lon="-3.33328">
        <ele>3184</ele>
        <time>2021-08-06 14:18:57</time>
      </trkpt>
      <trkpt lat="37.05394" lon="-3.33328">
        <ele>3184</ele>
        <time>2021-08-06 14:18:58</time>
      </trkpt>
      <trkpt lat="37.05394" lon="-3.33328">
        <ele>3184</ele>
        <time>2021-08-06 14:18:59</time>
      </trkpt>
      <trkpt lat="37.05394" lon="-3.33328">
        <ele>3184</ele>
        <time>2021-08-06 14:19:00</time>
      </trkpt>
      <trkpt lat="37.05394" lon="-3.33327">
        <ele>3184</ele>
        <time>2021-08-06 14:19:01</time>
      </trkpt>
      <trkpt lat="37.05395" lon="-3.33327">
        <ele>3184</ele>
        <time>2021-08-06 14:19:02</time>
      </trkpt>
      <trkpt lat="37.05394" lon="-3.33327">
        <ele>3184</ele>
        <time>2021-08-06 14:19:03</time>
      </trkpt>
      <trkpt lat="37.05394" lon="-3.33327">
        <ele>3184</ele>
        <time>2021-08-06 14:19:04</time>
      </trkpt>
      <trkpt lat="37.05394" lon="-3.33327">
        <ele>3184</ele>
        <time>2021-08-06 14:19:05</time>
      </trkpt>
      <trkpt lat="37.05394" lon="-3.33327">
        <ele>3184</ele>
        <time>2021-08-06 14:19:06</time>
      </trkpt>
      <trkpt lat="37.05394" lon="-3.33326">
        <ele>3184</ele>
        <time>2021-08-06 14:19:07</time>
      </trkpt>
      <trkpt lat="37.05394" lon="-3.33326">
        <ele>3184</ele>
        <time>2021-08-06 14:19:08</time>
      </trkpt>
      <trkpt lat="37.05394" lon="-3.33326">
        <ele>3184</ele>
        <time>2021-08-06 14:19:09</time>
      </trkpt>
      <trkpt lat="37.05394" lon="-3.33326">
        <ele>3184</ele>
        <time>2021-08-06 14:19:10</time>
      </trkpt>
      <trkpt lat="37.05393" lon="-3.33326">
        <ele>3184</ele>
        <time>2021-08-06 14:19:11</time>
      </trkpt>
      <trkpt lat="37.05393" lon="-3.33326">
        <ele>3184</ele>
        <time>2021-08-06 14:19:12</time>
      </trkpt>
      <trkpt lat="37.05393" lon="-3.33325">
        <ele>3184</ele>
        <time>2021-08-06 14:19:13</time>
      </trkpt>
      <trkpt lat="37.05393" lon="-3.33325">
        <ele>3184</ele>
        <time>2021-08-06 14:19:14</time>
      </trkpt>
      <trkpt lat="37.05393" lon="-3.33326">
        <ele>3184</ele>
        <time>2021-08-06 14:19:15</time>
      </trkpt>
      <trkpt lat="37.05393" lon="-3.33326">
        <ele>3184</ele>
        <time>2021-08-06 14:19:16</time>
      </trkpt>
      <trkpt lat="37.05393" lon="-3.33325">
        <ele>3184</ele>
        <time>2021-08-06 14:19:17</time>
      </trkpt>
      <trkpt lat="37.05393" lon="-3.33325">
        <ele>3184</ele>
        <time>2021-08-06 14:19:18</time>
      </trkpt>
      <trkpt lat="37.05393" lon="-3.33325">
        <ele>3184</ele>
        <time>2021-08-06 14:19:19</time>
      </trkpt>
      <trkpt lat="37.05393" lon="-3.33325">
        <ele>3184</ele>
        <time>2021-08-06 14:19:20</time>
      </trkpt>
      <trkpt lat="37.05393" lon="-3.33325">
        <ele>3184</ele>
        <time>2021-08-06 14:19:21</time>
      </trkpt>
      <trkpt lat="37.05393" lon="-3.33325">
        <ele>3184</ele>
        <time>2021-08-06 14:19:22</time>
      </trkpt>
      <trkpt lat="37.05392" lon="-3.33325">
        <ele>3184</ele>
        <time>2021-08-06 14:19:23</time>
      </trkpt>
      <trkpt lat="37.05392" lon="-3.33325">
        <ele>3184</ele>
        <time>2021-08-06 14:19:24</time>
      </trkpt>
      <trkpt lat="37.05393" lon="-3.33325">
        <ele>3184</ele>
        <time>2021-08-06 14:19:25</time>
      </trkpt>
      <trkpt lat="37.05393" lon="-3.33325">
        <ele>3184</ele>
        <time>2021-08-06 14:19:26</time>
      </trkpt>
      <trkpt lat="37.05393" lon="-3.33326">
        <ele>3184</ele>
        <time>2021-08-06 14:19:27</time>
      </trkpt>
      <trkpt lat="37.05392" lon="-3.33326">
        <ele>3184</ele>
        <time>2021-08-06 14:19:28</time>
      </trkpt>
      <trkpt lat="37.05392" lon="-3.33326">
        <ele>3184</ele>
        <time>2021-08-06 14:19:29</time>
      </trkpt>
      <trkpt lat="37.05392" lon="-3.33326">
        <ele>3184</ele>
        <time>2021-08-06 14:19:30</time>
      </trkpt>
      <trkpt lat="37.05392" lon="-3.33326">
        <ele>3184</ele>
        <time>2021-08-06 14:19:31</time>
      </trkpt>
      <trkpt lat="37.05392" lon="-3.33325">
        <ele>3184</ele>
        <time>2021-08-06 14:19:32</time>
      </trkpt>
      <trkpt lat="37.05392" lon="-3.33325">
        <ele>3184</ele>
        <time>2021-08-06 14:19:33</time>
      </trkpt>
      <trkpt lat="37.05392" lon="-3.33325">
        <ele>3184</ele>
        <time>2021-08-06 14:19:34</time>
      </trkpt>
      <trkpt lat="37.05392" lon="-3.33324">
        <ele>3184</ele>
        <time>2021-08-06 14:19:35</time>
      </trkpt>
      <trkpt lat="37.05392" lon="-3.33324">
        <ele>3184</ele>
        <time>2021-08-06 14:19:36</time>
      </trkpt>
      <trkpt lat="37.05392" lon="-3.33324">
        <ele>3184</ele>
        <time>2021-08-06 14:19:37</time>
      </trkpt>
      <trkpt lat="37.05392" lon="-3.33324">
        <ele>3184</ele>
        <time>2021-08-06 14:19:38</time>
      </trkpt>
      <trkpt lat="37.05393" lon="-3.33325">
        <ele>3184</ele>
        <time>2021-08-06 14:19:39</time>
      </trkpt>
      <trkpt lat="37.05393" lon="-3.33325">
        <ele>3184</ele>
        <time>2021-08-06 14:19:40</time>
      </trkpt>
      <trkpt lat="37.05393" lon="-3.33325">
        <ele>3184</ele>
        <time>2021-08-06 14:19:41</time>
      </trkpt>
      <trkpt lat="37.05393" lon="-3.33325">
        <ele>3184</ele>
        <time>2021-08-06 14:19:42</time>
      </trkpt>
      <trkpt lat="37.05393" lon="-3.33326">
        <ele>3184</ele>
        <time>2021-08-06 14:19:43</time>
      </trkpt>
      <trkpt lat="37.05393" lon="-3.33326">
        <ele>3184</ele>
        <time>2021-08-06 14:19:44</time>
      </trkpt>
      <trkpt lat="37.05393" lon="-3.33326">
        <ele>3184</ele>
        <time>2021-08-06 14:19:45</time>
      </trkpt>
      <trkpt lat="37.05393" lon="-3.33326">
        <ele>3184</ele>
        <time>2021-08-06 14:19:46</time>
      </trkpt>
      <trkpt lat="37.05393" lon="-3.33327">
        <ele>3184</ele>
        <time>2021-08-06 14:19:47</time>
      </trkpt>
      <trkpt lat="37.05393" lon="-3.33326">
        <ele>3184</ele>
        <time>2021-08-06 14:19:48</time>
      </trkpt>
      <trkpt lat="37.05394" lon="-3.33327">
        <ele>3184</ele>
        <time>2021-08-06 14:19:49</time>
      </trkpt>
      <trkpt lat="37.05394" lon="-3.33327">
        <ele>3184</ele>
        <time>2021-08-06 14:19:50</time>
      </trkpt>
      <trkpt lat="37.05394" lon="-3.33327">
        <ele>3184</ele>
        <time>2021-08-06 14:19:51</time>
      </trkpt>
      <trkpt lat="37.05394" lon="-3.33327">
        <ele>3184</ele>
        <time>2021-08-06 14:19:52</time>
      </trkpt>
      <trkpt lat="37.05394" lon="-3.33327">
        <ele>3184</ele>
        <time>2021-08-06 14:19:53</time>
      </trkpt>
      <trkpt lat="37.05394" lon="-3.33327">
        <ele>3184</ele>
        <time>2021-08-06 14:19:54</time>
      </trkpt>
      <trkpt lat="37.05393" lon="-3.33327">
        <ele>3184</ele>
        <time>2021-08-06 14:19:55</time>
      </trkpt>
      <trkpt lat="37.05393" lon="-3.33327">
        <ele>3184</ele>
        <time>2021-08-06 14:19:56</time>
      </trkpt>
      <trkpt lat="37.05393" lon="-3.33327">
        <ele>3184</ele>
        <time>2021-08-06 14:19:57</time>
      </trkpt>
      <trkpt lat="37.05393" lon="-3.33326">
        <ele>3184</ele>
        <time>2021-08-06 14:19:58</time>
      </trkpt>
      <trkpt lat="37.05393" lon="-3.33326">
        <ele>3184</ele>
        <time>2021-08-06 14:19:59</time>
      </trkpt>
      <trkpt lat="37.05393" lon="-3.33326">
        <ele>3184</ele>
        <time>2021-08-06 14:20:00</time>
      </trkpt>
      <trkpt lat="37.05393" lon="-3.33327">
        <ele>3184</ele>
        <time>2021-08-06 14:20:01</time>
      </trkpt>
      <trkpt lat="37.05392" lon="-3.33327">
        <ele>3184</ele>
        <time>2021-08-06 14:20:02</time>
      </trkpt>
      <trkpt lat="37.05392" lon="-3.33327">
        <ele>3184</ele>
        <time>2021-08-06 14:20:03</time>
      </trkpt>
      <trkpt lat="37.05393" lon="-3.33326">
        <ele>3184</ele>
        <time>2021-08-06 14:20:04</time>
      </trkpt>
      <trkpt lat="37.05392" lon="-3.33326">
        <ele>3184</ele>
        <time>2021-08-06 14:20:05</time>
      </trkpt>
      <trkpt lat="37.05392" lon="-3.33326">
        <ele>3184</ele>
        <time>2021-08-06 14:20:06</time>
      </trkpt>
      <trkpt lat="37.05391" lon="-3.33327">
        <ele>3184</ele>
        <time>2021-08-06 14:20:07</time>
      </trkpt>
      <trkpt lat="37.05391" lon="-3.33327">
        <ele>3184</ele>
        <time>2021-08-06 14:20:08</time>
      </trkpt>
      <trkpt lat="37.05391" lon="-3.33327">
        <ele>3184</ele>
        <time>2021-08-06 14:20:09</time>
      </trkpt>
      <trkpt lat="37.0539" lon="-3.33328">
        <ele>3184</ele>
        <time>2021-08-06 14:20:10</time>
      </trkpt>
      <trkpt lat="37.0539" lon="-3.33328">
        <ele>3184</ele>
        <time>2021-08-06 14:20:11</time>
      </trkpt>
      <trkpt lat="37.0539" lon="-3.33329">
        <ele>3184</ele>
        <time>2021-08-06 14:20:12</time>
      </trkpt>
      <trkpt lat="37.0539" lon="-3.33329">
        <ele>3184</ele>
        <time>2021-08-06 14:20:13</time>
      </trkpt>
      <trkpt lat="37.0539" lon="-3.33329">
        <ele>3184</ele>
        <time>2021-08-06 14:20:14</time>
      </trkpt>
      <trkpt lat="37.0539" lon="-3.33329">
        <ele>3184</ele>
        <time>2021-08-06 14:20:15</time>
      </trkpt>
      <trkpt lat="37.0539" lon="-3.33329">
        <ele>3184</ele>
        <time>2021-08-06 14:20:16</time>
      </trkpt>
      <trkpt lat="37.0539" lon="-3.33329">
        <ele>3184</ele>
        <time>2021-08-06 14:20:17</time>
      </trkpt>
      <trkpt lat="37.0539" lon="-3.33328">
        <ele>3184</ele>
        <time>2021-08-06 14:20:18</time>
      </trkpt>
      <trkpt lat="37.05391" lon="-3.33328">
        <ele>3184</ele>
        <time>2021-08-06 14:20:19</time>
      </trkpt>
      <trkpt lat="37.05391" lon="-3.33328">
        <ele>3184</ele>
        <time>2021-08-06 14:20:20</time>
      </trkpt>
      <trkpt lat="37.0539" lon="-3.33328">
        <ele>3184</ele>
        <time>2021-08-06 14:20:21</time>
      </trkpt>
      <trkpt lat="37.0539" lon="-3.33328">
        <ele>3184</ele>
        <time>2021-08-06 14:20:22</time>
      </trkpt>
      <trkpt lat="37.0539" lon="-3.33328">
        <ele>3184</ele>
        <time>2021-08-06 14:20:23</time>
      </trkpt>
      <trkpt lat="37.0539" lon="-3.33329">
        <ele>3184</ele>
        <time>2021-08-06 14:20:24</time>
      </trkpt>
      <trkpt lat="37.0539" lon="-3.33329">
        <ele>3184</ele>
        <time>2021-08-06 14:20:25</time>
      </trkpt>
      <trkpt lat="37.0539" lon="-3.33329">
        <ele>3184</ele>
        <time>2021-08-06 14:20:26</time>
      </trkpt>
      <trkpt lat="37.05389" lon="-3.33329">
        <ele>3184</ele>
        <time>2021-08-06 14:20:27</time>
      </trkpt>
      <trkpt lat="37.05389" lon="-3.33329">
        <ele>3184</ele>
        <time>2021-08-06 14:20:28</time>
      </trkpt>
      <trkpt lat="37.05389" lon="-3.33329">
        <ele>3184</ele>
        <time>2021-08-06 14:20:29</time>
      </trkpt>
      <trkpt lat="37.0539" lon="-3.33327">
        <ele>3184</ele>
        <time>2021-08-06 14:20:30</time>
      </trkpt>
      <trkpt lat="37.05391" lon="-3.33326">
        <ele>3184</ele>
        <time>2021-08-06 14:20:31</time>
      </trkpt>
      <trkpt lat="37.05391" lon="-3.33326">
        <ele>3184</ele>
        <time>2021-08-06 14:20:32</time>
      </trkpt>
      <trkpt lat="37.0539" lon="-3.33326">
        <ele>3184</ele>
        <time>2021-08-06 14:20:33</time>
      </trkpt>
      <trkpt lat="37.0539" lon="-3.33326">
        <ele>3184</ele>
        <time>2021-08-06 14:20:34</time>
      </trkpt>
      <trkpt lat="37.0539" lon="-3.33326">
        <ele>3184</ele>
        <time>2021-08-06 14:20:35</time>
      </trkpt>
      <trkpt lat="37.0539" lon="-3.33326">
        <ele>3184</ele>
        <time>2021-08-06 14:20:36</time>
      </trkpt>
      <trkpt lat="37.0539" lon="-3.33326">
        <ele>3184</ele>
        <time>2021-08-06 14:20:37</time>
      </trkpt>
      <trkpt lat="37.0539" lon="-3.33326">
        <ele>3184</ele>
        <time>2021-08-06 14:20:38</time>
      </trkpt>
      <trkpt lat="37.0539" lon="-3.33326">
        <ele>3184</ele>
        <time>2021-08-06 14:20:39</time>
      </trkpt>
      <trkpt lat="37.0539" lon="-3.33326">
        <ele>3184</ele>
        <time>2021-08-06 14:20:40</time>
      </trkpt>
      <trkpt lat="37.0539" lon="-3.33326">
        <ele>3184</ele>
        <time>2021-08-06 14:20:41</time>
      </trkpt>
      <trkpt lat="37.0539" lon="-3.33326">
        <ele>3184</ele>
        <time>2021-08-06 14:20:42</time>
      </trkpt>
      <trkpt lat="37.0539" lon="-3.33326">
        <ele>3184</ele>
        <time>2021-08-06 14:20:43</time>
      </trkpt>
      <trkpt lat="37.0539" lon="-3.33326">
        <ele>3184</ele>
        <time>2021-08-06 14:20:44</time>
      </trkpt>
      <trkpt lat="37.0539" lon="-3.33326">
        <ele>3184</ele>
        <time>2021-08-06 14:20:45</time>
      </trkpt>
      <trkpt lat="37.0539" lon="-3.33326">
        <ele>3184</ele>
        <time>2021-08-06 14:20:46</time>
      </trkpt>
      <trkpt lat="37.0539" lon="-3.33326">
        <ele>3184</ele>
        <time>2021-08-06 14:20:47</time>
      </trkpt>
      <trkpt lat="37.0539" lon="-3.33327">
        <ele>3184</ele>
        <time>2021-08-06 14:20:48</time>
      </trkpt>
      <trkpt lat="37.0539" lon="-3.33327">
        <ele>3184</ele>
        <time>2021-08-06 14:20:49</time>
      </trkpt>
      <trkpt lat="37.0539" lon="-3.33327">
        <ele>3184</ele>
        <time>2021-08-06 14:20:50</time>
      </trkpt>
      <trkpt lat="37.0539" lon="-3.33327">
        <ele>3184</ele>
        <time>2021-08-06 14:20:51</time>
      </trkpt>
      <trkpt lat="37.05391" lon="-3.33327">
        <ele>3184</ele>
        <time>2021-08-06 14:20:52</time>
      </trkpt>
      <trkpt lat="37.05391" lon="-3.33327">
        <ele>3184</ele>
        <time>2021-08-06 14:20:53</time>
      </trkpt>
      <trkpt lat="37.05391" lon="-3.33326">
        <ele>3184</ele>
        <time>2021-08-06 14:20:54</time>
      </trkpt>
      <trkpt lat="37.05391" lon="-3.33326">
        <ele>3184</ele>
        <time>2021-08-06 14:20:55</time>
      </trkpt>
      <trkpt lat="37.05391" lon="-3.33327">
        <ele>3184</ele>
        <time>2021-08-06 14:20:56</time>
      </trkpt>
      <trkpt lat="37.05391" lon="-3.33327">
        <ele>3184</ele>
        <time>2021-08-06 14:20:57</time>
      </trkpt>
      <trkpt lat="37.05391" lon="-3.33327">
        <ele>3184</ele>
        <time>2021-08-06 14:20:58</time>
      </trkpt>
      <trkpt lat="37.05391" lon="-3.33327">
        <ele>3184</ele>
        <time>2021-08-06 14:20:59</time>
      </trkpt>
      <trkpt lat="37.05391" lon="-3.33327">
        <ele>3184</ele>
        <time>2021-08-06 14:21:00</time>
      </trkpt>
      <trkpt lat="37.05391" lon="-3.33327">
        <ele>3184</ele>
        <time>2021-08-06 14:21:01</time>
      </trkpt>
      <trkpt lat="37.05391" lon="-3.33327">
        <ele>3184</ele>
        <time>2021-08-06 14:21:02</time>
      </trkpt>
      <trkpt lat="37.05391" lon="-3.33327">
        <ele>3184</ele>
        <time>2021-08-06 14:21:03</time>
      </trkpt>
      <trkpt lat="37.05391" lon="-3.33327">
        <ele>3184</ele>
        <time>2021-08-06 14:21:04</time>
      </trkpt>
      <trkpt lat="37.05391" lon="-3.33327">
        <ele>3184</ele>
        <time>2021-08-06 14:21:05</time>
      </trkpt>
      <trkpt lat="37.05391" lon="-3.33327">
        <ele>3184</ele>
        <time>2021-08-06 14:21:06</time>
      </trkpt>
      <trkpt lat="37.05391" lon="-3.33327">
        <ele>3184</ele>
        <time>2021-08-06 14:21:07</time>
      </trkpt>
      <trkpt lat="37.05391" lon="-3.33327">
        <ele>3184</ele>
        <time>2021-08-06 14:21:08</time>
      </trkpt>
      <trkpt lat="37.05391" lon="-3.33327">
        <ele>3184</ele>
        <time>2021-08-06 14:21:09</time>
      </trkpt>
      <trkpt lat="37.05391" lon="-3.33327">
        <ele>3184</ele>
        <time>2021-08-06 14:21:10</time>
      </trkpt>
      <trkpt lat="37.05391" lon="-3.33327">
        <ele>3184</ele>
        <time>2021-08-06 14:21:11</time>
      </trkpt>
      <trkpt lat="37.05391" lon="-3.33327">
        <ele>3184</ele>
        <time>2021-08-06 14:21:12</time>
      </trkpt>
      <trkpt lat="37.05391" lon="-3.33327">
        <ele>3184</ele>
        <time>2021-08-06 14:21:13</time>
      </trkpt>
      <trkpt lat="37.05391" lon="-3.33327">
        <ele>3184</ele>
        <time>2021-08-06 14:21:14</time>
      </trkpt>
      <trkpt lat="37.05391" lon="-3.33327">
        <ele>3184</ele>
        <time>2021-08-06 14:21:15</time>
      </trkpt>
      <trkpt lat="37.05391" lon="-3.33327">
        <ele>3184</ele>
        <time>2021-08-06 14:21:16</time>
      </trkpt>
      <trkpt lat="37.05391" lon="-3.33328">
        <ele>3184</ele>
        <time>2021-08-06 14:21:17</time>
      </trkpt>
      <trkpt lat="37.05391" lon="-3.33329">
        <ele>3184</ele>
        <time>2021-08-06 14:21:18</time>
      </trkpt>
      <trkpt lat="37.05391" lon="-3.33329">
        <ele>3184</ele>
        <time>2021-08-06 14:21:19</time>
      </trkpt>
      <trkpt lat="37.05391" lon="-3.33329">
        <ele>3184</ele>
        <time>2021-08-06 14:21:20</time>
      </trkpt>
      <trkpt lat="37.0539" lon="-3.3333">
        <ele>3184</ele>
        <time>2021-08-06 14:21:21</time>
      </trkpt>
      <trkpt lat="37.0539" lon="-3.3333">
        <ele>3184</ele>
        <time>2021-08-06 14:21:22</time>
      </trkpt>
      <trkpt lat="37.05391" lon="-3.3333">
        <ele>3184</ele>
        <time>2021-08-06 14:21:23</time>
      </trkpt>
      <trkpt lat="37.0539" lon="-3.3333">
        <ele>3184</ele>
        <time>2021-08-06 14:21:24</time>
      </trkpt>
      <trkpt lat="37.0539" lon="-3.3333">
        <ele>3184</ele>
        <time>2021-08-06 14:21:25</time>
      </trkpt>
      <trkpt lat="37.0539" lon="-3.3333">
        <ele>3184</ele>
        <time>2021-08-06 14:21:26</time>
      </trkpt>
      <trkpt lat="37.0539" lon="-3.3333">
        <ele>3184</ele>
        <time>2021-08-06 14:21:27</time>
      </trkpt>
      <trkpt lat="37.0539" lon="-3.3333">
        <ele>3184</ele>
        <time>2021-08-06 14:21:28</time>
      </trkpt>
      <trkpt lat="37.05391" lon="-3.33329">
        <ele>3184</ele>
        <time>2021-08-06 14:21:29</time>
      </trkpt>
      <trkpt lat="37.05391" lon="-3.33329">
        <ele>3184</ele>
        <time>2021-08-06 14:21:30</time>
      </trkpt>
      <trkpt lat="37.05392" lon="-3.33329">
        <ele>3184</ele>
        <time>2021-08-06 14:21:31</time>
      </trkpt>
      <trkpt lat="37.05392" lon="-3.33328">
        <ele>3184</ele>
        <time>2021-08-06 14:21:32</time>
      </trkpt>
      <trkpt lat="37.05392" lon="-3.33328">
        <ele>3184</ele>
        <time>2021-08-06 14:21:33</time>
      </trkpt>
      <trkpt lat="37.05392" lon="-3.33328">
        <ele>3184</ele>
        <time>2021-08-06 14:21:34</time>
      </trkpt>
      <trkpt lat="37.05392" lon="-3.33328">
        <ele>3184</ele>
        <time>2021-08-06 14:21:35</time>
      </trkpt>
      <trkpt lat="37.05392" lon="-3.33328">
        <ele>3184</ele>
        <time>2021-08-06 14:21:36</time>
      </trkpt>
      <trkpt lat="37.05392" lon="-3.33328">
        <ele>3184</ele>
        <time>2021-08-06 14:21:37</time>
      </trkpt>
      <trkpt lat="37.05392" lon="-3.33328">
        <ele>3184</ele>
        <time>2021-08-06 14:21:38</time>
      </trkpt>
      <trkpt lat="37.05392" lon="-3.33328">
        <ele>3184</ele>
        <time>2021-08-06 14:21:39</time>
      </trkpt>
      <trkpt lat="37.05392" lon="-3.33328">
        <ele>3184</ele>
        <time>2021-08-06 14:21:40</time>
      </trkpt>
      <trkpt lat="37.05392" lon="-3.33328">
        <ele>3184</ele>
        <time>2021-08-06 14:21:41</time>
      </trkpt>
      <trkpt lat="37.05392" lon="-3.33328">
        <ele>3184</ele>
        <time>2021-08-06 14:21:42</time>
      </trkpt>
      <trkpt lat="37.05392" lon="-3.33328">
        <ele>3184</ele>
        <time>2021-08-06 14:21:43</time>
      </trkpt>
      <trkpt lat="37.05392" lon="-3.33328">
        <ele>3184</ele>
        <time>2021-08-06 14:21:44</time>
      </trkpt>
      <trkpt lat="37.05392" lon="-3.33328">
        <ele>3184</ele>
        <time>2021-08-06 14:21:45</time>
      </trkpt>
      <trkpt lat="37.05392" lon="-3.33328">
        <ele>3184</ele>
        <time>2021-08-06 14:21:46</time>
      </trkpt>
      <trkpt lat="37.05392" lon="-3.33328">
        <ele>3184</ele>
        <time>2021-08-06 14:21:47</time>
      </trkpt>
      <trkpt lat="37.05392" lon="-3.33328">
        <ele>3184</ele>
        <time>2021-08-06 14:21:48</time>
      </trkpt>
      <trkpt lat="37.05392" lon="-3.33328">
        <ele>3184</ele>
        <time>2021-08-06 14:21:49</time>
      </trkpt>
      <trkpt lat="37.05392" lon="-3.33328">
        <ele>3184</ele>
        <time>2021-08-06 14:21:50</time>
      </trkpt>
      <trkpt lat="37.05392" lon="-3.33328">
        <ele>3184</ele>
        <time>2021-08-06 14:21:51</time>
      </trkpt>
      <trkpt lat="37.05392" lon="-3.33328">
        <ele>3184</ele>
        <time>2021-08-06 14:21:52</time>
      </trkpt>
      <trkpt lat="37.05392" lon="-3.33328">
        <ele>3184</ele>
        <time>2021-08-06 14:21:53</time>
      </trkpt>
      <trkpt lat="37.05392" lon="-3.33328">
        <ele>3184</ele>
        <time>2021-08-06 14:21:54</time>
      </trkpt>
      <trkpt lat="37.05392" lon="-3.33328">
        <ele>3184</ele>
        <time>2021-08-06 14:21:55</time>
      </trkpt>
      <trkpt lat="37.05392" lon="-3.33328">
        <ele>3184</ele>
        <time>2021-08-06 14:21:56</time>
      </trkpt>
      <trkpt lat="37.05392" lon="-3.33328">
        <ele>3184</ele>
        <time>2021-08-06 14:21:57</time>
      </trkpt>
      <trkpt lat="37.05392" lon="-3.33328">
        <ele>3184</ele>
        <time>2021-08-06 14:21:58</time>
      </trkpt>
      <trkpt lat="37.05392" lon="-3.33328">
        <ele>3184</ele>
        <time>2021-08-06 14:21:59</time>
      </trkpt>
      <trkpt lat="37.05392" lon="-3.33328">
        <ele>3184</ele>
        <time>2021-08-06 14:22:00</time>
      </trkpt>
      <trkpt lat="37.05392" lon="-3.33328">
        <ele>3184</ele>
        <time>2021-08-06 14:22:01</time>
      </trkpt>
      <trkpt lat="37.05392" lon="-3.33327">
        <ele>3184</ele>
        <time>2021-08-06 14:22:02</time>
      </trkpt>
      <trkpt lat="37.05392" lon="-3.33327">
        <ele>3184</ele>
        <time>2021-08-06 14:22:03</time>
      </trkpt>
      <trkpt lat="37.05392" lon="-3.33327">
        <ele>3184</ele>
        <time>2021-08-06 14:22:04</time>
      </trkpt>
      <trkpt lat="37.05392" lon="-3.33327">
        <ele>3184</ele>
        <time>2021-08-06 14:22:05</time>
      </trkpt>
      <trkpt lat="37.05392" lon="-3.33327">
        <ele>3184</ele>
        <time>2021-08-06 14:22:06</time>
      </trkpt>
      <trkpt lat="37.05392" lon="-3.33327">
        <ele>3184</ele>
        <time>2021-08-06 14:22:07</time>
      </trkpt>
      <trkpt lat="37.05392" lon="-3.33327">
        <ele>3184</ele>
        <time>2021-08-06 14:22:08</time>
      </trkpt>
      <trkpt lat="37.05392" lon="-3.33327">
        <ele>3184</ele>
        <time>2021-08-06 14:22:09</time>
      </trkpt>
      <trkpt lat="37.05392" lon="-3.33327">
        <ele>3184</ele>
        <time>2021-08-06 14:22:10</time>
      </trkpt>
      <trkpt lat="37.05392" lon="-3.33327">
        <ele>3184</ele>
        <time>2021-08-06 14:22:11</time>
      </trkpt>
      <trkpt lat="37.05392" lon="-3.33327">
        <ele>3184</ele>
        <time>2021-08-06 14:22:12</time>
      </trkpt>
      <trkpt lat="37.05392" lon="-3.33327">
        <ele>3184</ele>
        <time>2021-08-06 14:22:13</time>
      </trkpt>
      <trkpt lat="37.05391" lon="-3.33327">
        <ele>3184</ele>
        <time>2021-08-06 14:22:14</time>
      </trkpt>
      <trkpt lat="37.05392" lon="-3.33327">
        <ele>3184</ele>
        <time>2021-08-06 14:22:15</time>
      </trkpt>
      <trkpt lat="37.05392" lon="-3.33327">
        <ele>3184</ele>
        <time>2021-08-06 14:22:16</time>
      </trkpt>
      <trkpt lat="37.05391" lon="-3.33327">
        <ele>3184</ele>
        <time>2021-08-06 14:22:17</time>
      </trkpt>
      <trkpt lat="37.05392" lon="-3.33327">
        <ele>3184</ele>
        <time>2021-08-06 14:22:18</time>
      </trkpt>
      <trkpt lat="37.05391" lon="-3.33327">
        <ele>3184</ele>
        <time>2021-08-06 14:22:19</time>
      </trkpt>
      <trkpt lat="37.05392" lon="-3.33327">
        <ele>3184</ele>
        <time>2021-08-06 14:22:20</time>
      </trkpt>
      <trkpt lat="37.05392" lon="-3.33328">
        <ele>3184</ele>
        <time>2021-08-06 14:22:21</time>
      </trkpt>
      <trkpt lat="37.05392" lon="-3.33327">
        <ele>3184</ele>
        <time>2021-08-06 14:22:22</time>
      </trkpt>
      <trkpt lat="37.05392" lon="-3.33327">
        <ele>3184</ele>
        <time>2021-08-06 14:22:23</time>
      </trkpt>
      <trkpt lat="37.05392" lon="-3.33327">
        <ele>3184</ele>
        <time>2021-08-06 14:22:24</time>
      </trkpt>
      <trkpt lat="37.05392" lon="-3.33327">
        <ele>3184</ele>
        <time>2021-08-06 14:22:25</time>
      </trkpt>
      <trkpt lat="37.05392" lon="-3.33327">
        <ele>3184</ele>
        <time>2021-08-06 14:22:26</time>
      </trkpt>
      <trkpt lat="37.05392" lon="-3.33327">
        <ele>3184</ele>
        <time>2021-08-06 14:22:27</time>
      </trkpt>
      <trkpt lat="37.05391" lon="-3.33327">
        <ele>3184</ele>
        <time>2021-08-06 14:22:28</time>
      </trkpt>
      <trkpt lat="37.05391" lon="-3.33327">
        <ele>3184</ele>
        <time>2021-08-06 14:22:29</time>
      </trkpt>
      <trkpt lat="37.05391" lon="-3.33327">
        <ele>3184</ele>
        <time>2021-08-06 14:22:30</time>
      </trkpt>
      <trkpt lat="37.05391" lon="-3.33327">
        <ele>3184</ele>
        <time>2021-08-06 14:22:31</time>
      </trkpt>
      <trkpt lat="37.05391" lon="-3.33327">
        <ele>3184</ele>
        <time>2021-08-06 14:22:32</time>
      </trkpt>
      <trkpt lat="37.05391" lon="-3.33327">
        <ele>3184</ele>
        <time>2021-08-06 14:22:33</time>
      </trkpt>
      <trkpt lat="37.05392" lon="-3.33327">
        <ele>3184</ele>
        <time>2021-08-06 14:22:34</time>
      </trkpt>
      <trkpt lat="37.05391" lon="-3.33327">
        <ele>3184</ele>
        <time>2021-08-06 14:22:35</time>
      </trkpt>
      <trkpt lat="37.05391" lon="-3.33327">
        <ele>3184</ele>
        <time>2021-08-06 14:22:36</time>
      </trkpt>
      <trkpt lat="37.05391" lon="-3.33327">
        <ele>3184</ele>
        <time>2021-08-06 14:22:37</time>
      </trkpt>
      <trkpt lat="37.05391" lon="-3.33327">
        <ele>3184</ele>
        <time>2021-08-06 14:22:38</time>
      </trkpt>
      <trkpt lat="37.05391" lon="-3.33327">
        <ele>3184</ele>
        <time>2021-08-06 14:22:39</time>
      </trkpt>
      <trkpt lat="37.05391" lon="-3.33327">
        <ele>3184</ele>
        <time>2021-08-06 14:22:40</time>
      </trkpt>
      <trkpt lat="37.05391" lon="-3.33327">
        <ele>3184</ele>
        <time>2021-08-06 14:22:41</time>
      </trkpt>
      <trkpt lat="37.05391" lon="-3.33327">
        <ele>3184</ele>
        <time>2021-08-06 14:22:42</time>
      </trkpt>
      <trkpt lat="37.05391" lon="-3.33327">
        <ele>3184</ele>
        <time>2021-08-06 14:22:43</time>
      </trkpt>
      <trkpt lat="37.05391" lon="-3.33327">
        <ele>3184</ele>
        <time>2021-08-06 14:22:44</time>
      </trkpt>
      <trkpt lat="37.05391" lon="-3.33327">
        <ele>3184</ele>
        <time>2021-08-06 14:22:45</time>
      </trkpt>
      <trkpt lat="37.05391" lon="-3.33327">
        <ele>3184</ele>
        <time>2021-08-06 14:22:46</time>
      </trkpt>
      <trkpt lat="37.05391" lon="-3.33327">
        <ele>3184</ele>
        <time>2021-08-06 14:22:47</time>
      </trkpt>
      <trkpt lat="37.05391" lon="-3.33327">
        <ele>3184</ele>
        <time>2021-08-06 14:22:48</time>
      </trkpt>
      <trkpt lat="37.05391" lon="-3.33327">
        <ele>3184</ele>
        <time>2021-08-06 14:22:49</time>
      </trkpt>
      <trkpt lat="37.05391" lon="-3.33327">
        <ele>3184</ele>
        <time>2021-08-06 14:22:50</time>
      </trkpt>
      <trkpt lat="37.05391" lon="-3.33327">
        <ele>3184</ele>
        <time>2021-08-06 14:22:51</time>
      </trkpt>
      <trkpt lat="37.05391" lon="-3.33327">
        <ele>3184</ele>
        <time>2021-08-06 14:22:52</time>
      </trkpt>
      <trkpt lat="37.05391" lon="-3.33327">
        <ele>3186.8</ele>
        <time>2021-08-06 14:22:53</time>
      </trkpt>
      <trkpt lat="37.05391" lon="-3.33327">
        <ele>3186.8</ele>
        <time>2021-08-06 14:22:54</time>
      </trkpt>
      <trkpt lat="37.05391" lon="-3.33327">
        <ele>3186.8</ele>
        <time>2021-08-06 14:22:55</time>
      </trkpt>
      <trkpt lat="37.05391" lon="-3.33327">
        <ele>3186.8</ele>
        <time>2021-08-06 14:22:56</time>
      </trkpt>
      <trkpt lat="37.05391" lon="-3.33327">
        <ele>3186.8</ele>
        <time>2021-08-06 14:22:57</time>
      </trkpt>
      <trkpt lat="37.05391" lon="-3.33327">
        <ele>3186.8</ele>
        <time>2021-08-06 14:22:58</time>
      </trkpt>
      <trkpt lat="37.05391" lon="-3.33328">
        <ele>3186.6</ele>
        <time>2021-08-06 14:22:59</time>
      </trkpt>
      <trkpt lat="37.05391" lon="-3.33328">
        <ele>3186.6</ele>
        <time>2021-08-06 14:23:00</time>
      </trkpt>
      <trkpt lat="37.05391" lon="-3.33327">
        <ele>3186.6</ele>
        <time>2021-08-06 14:23:01</time>
      </trkpt>
      <trkpt lat="37.05391" lon="-3.33327">
        <ele>3186.6</ele>
        <time>2021-08-06 14:23:02</time>
      </trkpt>
      <trkpt lat="37.05392" lon="-3.33327">
        <ele>3186.6</ele>
        <time>2021-08-06 14:23:03</time>
      </trkpt>
      <trkpt lat="37.05392" lon="-3.33327">
        <ele>3186.6</ele>
        <time>2021-08-06 14:23:04</time>
      </trkpt>
      <trkpt lat="37.05392" lon="-3.33327">
        <ele>3186.6</ele>
        <time>2021-08-06 14:23:05</time>
      </trkpt>
      <trkpt lat="37.05392" lon="-3.33327">
        <ele>3186.6</ele>
        <time>2021-08-06 14:23:06</time>
      </trkpt>
      <trkpt lat="37.05392" lon="-3.33327">
        <ele>3186.4</ele>
        <time>2021-08-06 14:23:07</time>
      </trkpt>
      <trkpt lat="37.05393" lon="-3.33327">
        <ele>3186.4</ele>
        <time>2021-08-06 14:23:08</time>
      </trkpt>
      <trkpt lat="37.05393" lon="-3.33328">
        <ele>3186.4</ele>
        <time>2021-08-06 14:23:09</time>
      </trkpt>
      <trkpt lat="37.05392" lon="-3.33328">
        <ele>3186.4</ele>
        <time>2021-08-06 14:23:10</time>
      </trkpt>
      <trkpt lat="37.05392" lon="-3.33327">
        <ele>3186.4</ele>
        <time>2021-08-06 14:23:11</time>
      </trkpt>
      <trkpt lat="37.05392" lon="-3.33327">
        <ele>3186.4</ele>
        <time>2021-08-06 14:23:12</time>
      </trkpt>
      <trkpt lat="37.05392" lon="-3.33327">
        <ele>3186.4</ele>
        <time>2021-08-06 14:23:13</time>
      </trkpt>
      <trkpt lat="37.05392" lon="-3.33327">
        <ele>3186.4</ele>
        <time>2021-08-06 14:23:14</time>
      </trkpt>
      <trkpt lat="37.05392" lon="-3.33327">
        <ele>3186.6</ele>
        <time>2021-08-06 14:23:15</time>
      </trkpt>
      <trkpt lat="37.05392" lon="-3.33328">
        <ele>3186.6</ele>
        <time>2021-08-06 14:23:16</time>
      </trkpt>
      <trkpt lat="37.05392" lon="-3.33328">
        <ele>3186.6</ele>
        <time>2021-08-06 14:23:17</time>
      </trkpt>
      <trkpt lat="37.05392" lon="-3.33329">
        <ele>3186.4</ele>
        <time>2021-08-06 14:23:18</time>
      </trkpt>
      <trkpt lat="37.05392" lon="-3.33329">
        <ele>3186.4</ele>
        <time>2021-08-06 14:23:19</time>
      </trkpt>
      <trkpt lat="37.05391" lon="-3.33329">
        <ele>3186.4</ele>
        <time>2021-08-06 14:23:20</time>
      </trkpt>
      <trkpt lat="37.05391" lon="-3.33329">
        <ele>3186.4</ele>
        <time>2021-08-06 14:23:21</time>
      </trkpt>
      <trkpt lat="37.05391" lon="-3.33329">
        <ele>3186.2</ele>
        <time>2021-08-06 14:23:22</time>
      </trkpt>
      <trkpt lat="37.05391" lon="-3.33329">
        <ele>3186.2</ele>
        <time>2021-08-06 14:23:23</time>
      </trkpt>
      <trkpt lat="37.05391" lon="-3.33329">
        <ele>3186.2</ele>
        <time>2021-08-06 14:23:24</time>
      </trkpt>
      <trkpt lat="37.05391" lon="-3.33328">
        <ele>3186.4</ele>
        <time>2021-08-06 14:23:25</time>
      </trkpt>
      <trkpt lat="37.05391" lon="-3.33328">
        <ele>3186.6</ele>
        <time>2021-08-06 14:23:26</time>
      </trkpt>
      <trkpt lat="37.05391" lon="-3.33328">
        <ele>3186.6</ele>
        <time>2021-08-06 14:23:27</time>
      </trkpt>
      <trkpt lat="37.05392" lon="-3.33328">
        <ele>3186.6</ele>
        <time>2021-08-06 14:23:28</time>
      </trkpt>
      <trkpt lat="37.05392" lon="-3.33328">
        <ele>3186.8</ele>
        <time>2021-08-06 14:23:29</time>
      </trkpt>
      <trkpt lat="37.05392" lon="-3.33328">
        <ele>3186.6</ele>
        <time>2021-08-06 14:23:30</time>
      </trkpt>
      <trkpt lat="37.05392" lon="-3.33328">
        <ele>3186.6</ele>
        <time>2021-08-06 14:23:31</time>
      </trkpt>
      <trkpt lat="37.05391" lon="-3.33328">
        <ele>3186.2</ele>
        <time>2021-08-06 14:23:32</time>
      </trkpt>
      <trkpt lat="37.05391" lon="-3.33328">
        <ele>3185.8</ele>
        <time>2021-08-06 14:23:33</time>
      </trkpt>
      <trkpt lat="37.05392" lon="-3.33328">
        <ele>3185.8</ele>
        <time>2021-08-06 14:23:34</time>
      </trkpt>
      <trkpt lat="37.05392" lon="-3.33328">
        <ele>3185.6</ele>
        <time>2021-08-06 14:23:35</time>
      </trkpt>
      <trkpt lat="37.05392" lon="-3.33328">
        <ele>3185.6</ele>
        <time>2021-08-06 14:23:36</time>
      </trkpt>
      <trkpt lat="37.05391" lon="-3.33328">
        <ele>3185.6</ele>
        <time>2021-08-06 14:23:37</time>
      </trkpt>
      <trkpt lat="37.05391" lon="-3.33328">
        <ele>3185.6</ele>
        <time>2021-08-06 14:23:38</time>
      </trkpt>
      <trkpt lat="37.05391" lon="-3.33328">
        <ele>3185.8</ele>
        <time>2021-08-06 14:23:39</time>
      </trkpt>
      <trkpt lat="37.05391" lon="-3.33328">
        <ele>3186</ele>
        <time>2021-08-06 14:23:40</time>
      </trkpt>
      <trkpt lat="37.05391" lon="-3.33328">
        <ele>3186</ele>
        <time>2021-08-06 14:23:41</time>
      </trkpt>
      <trkpt lat="37.05391" lon="-3.33328">
        <ele>3186</ele>
        <time>2021-08-06 14:23:42</time>
      </trkpt>
      <trkpt lat="37.05391" lon="-3.33327">
        <ele>3186.2</ele>
        <time>2021-08-06 14:23:43</time>
      </trkpt>
      <trkpt lat="37.05391" lon="-3.33327">
        <ele>3186</ele>
        <time>2021-08-06 14:23:44</time>
      </trkpt>
      <trkpt lat="37.0539" lon="-3.33327">
        <ele>3186</ele>
        <time>2021-08-06 14:23:45</time>
      </trkpt>
      <trkpt lat="37.0539" lon="-3.33327">
        <ele>3185.8</ele>
        <time>2021-08-06 14:23:46</time>
      </trkpt>
      <trkpt lat="37.0539" lon="-3.33327">
        <ele>3185.8</ele>
        <time>2021-08-06 14:23:47</time>
      </trkpt>
      <trkpt lat="37.0539" lon="-3.33327">
        <ele>3185.4</ele>
        <time>2021-08-06 14:23:48</time>
      </trkpt>
      <trkpt lat="37.0539" lon="-3.33327">
        <ele>3185.2</ele>
        <time>2021-08-06 14:23:49</time>
      </trkpt>
      <trkpt lat="37.0539" lon="-3.33327">
        <ele>3185</ele>
        <time>2021-08-06 14:23:50</time>
      </trkpt>
      <trkpt lat="37.0539" lon="-3.33327">
        <ele>3185</ele>
        <time>2021-08-06 14:23:51</time>
      </trkpt>
      <trkpt lat="37.0539" lon="-3.33327">
        <ele>3185</ele>
        <time>2021-08-06 14:23:52</time>
      </trkpt>
      <trkpt lat="37.0539" lon="-3.33327">
        <ele>3185</ele>
        <time>2021-08-06 14:23:53</time>
      </trkpt>
      <trkpt lat="37.0539" lon="-3.33327">
        <ele>3185</ele>
        <time>2021-08-06 14:23:54</time>
      </trkpt>
      <trkpt lat="37.0539" lon="-3.33327">
        <ele>3185</ele>
        <time>2021-08-06 14:23:55</time>
      </trkpt>
      <trkpt lat="37.0539" lon="-3.33327">
        <ele>3185.2</ele>
        <time>2021-08-06 14:23:56</time>
      </trkpt>
      <trkpt lat="37.0539" lon="-3.33327">
        <ele>3185.4</ele>
        <time>2021-08-06 14:23:57</time>
      </trkpt>
      <trkpt lat="37.0539" lon="-3.33326">
        <ele>3185.6</ele>
        <time>2021-08-06 14:23:58</time>
      </trkpt>
      <trkpt lat="37.0539" lon="-3.33326">
        <ele>3186</ele>
        <time>2021-08-06 14:23:59</time>
      </trkpt>
      <trkpt lat="37.0539" lon="-3.33326">
        <ele>3186.2</ele>
        <time>2021-08-06 14:24:00</time>
      </trkpt>
      <trkpt lat="37.0539" lon="-3.33326">
        <ele>3186.8</ele>
        <time>2021-08-06 14:24:01</time>
      </trkpt>
      <trkpt lat="37.05392" lon="-3.33326">
        <ele>3187</ele>
        <time>2021-08-06 14:24:02</time>
      </trkpt>
      <trkpt lat="37.05392" lon="-3.33326">
        <ele>3187.2</ele>
        <time>2021-08-06 14:24:03</time>
      </trkpt>
      <trkpt lat="37.05392" lon="-3.33326">
        <ele>3187.2</ele>
        <time>2021-08-06 14:24:04</time>
      </trkpt>
      <trkpt lat="37.05393" lon="-3.33326">
        <ele>3187</ele>
        <time>2021-08-06 14:24:05</time>
      </trkpt>
      <trkpt lat="37.05393" lon="-3.33326">
        <ele>3187</ele>
        <time>2021-08-06 14:24:06</time>
      </trkpt>
      <trkpt lat="37.05393" lon="-3.33326">
        <ele>3187</ele>
        <time>2021-08-06 14:24:07</time>
      </trkpt>
      <trkpt lat="37.05393" lon="-3.33326">
        <ele>3186.8</ele>
        <time>2021-08-06 14:24:08</time>
      </trkpt>
      <trkpt lat="37.05393" lon="-3.33326">
        <ele>3186.8</ele>
        <time>2021-08-06 14:24:09</time>
      </trkpt>
      <trkpt lat="37.05393" lon="-3.33326">
        <ele>3186.6</ele>
        <time>2021-08-06 14:24:10</time>
      </trkpt>
      <trkpt lat="37.05393" lon="-3.33326">
        <ele>3186.8</ele>
        <time>2021-08-06 14:24:11</time>
      </trkpt>
      <trkpt lat="37.05393" lon="-3.33326">
        <ele>3186.8</ele>
        <time>2021-08-06 14:24:12</time>
      </trkpt>
      <trkpt lat="37.05393" lon="-3.33326">
        <ele>3186.8</ele>
        <time>2021-08-06 14:24:13</time>
      </trkpt>
      <trkpt lat="37.05393" lon="-3.33325">
        <ele>3186.8</ele>
        <time>2021-08-06 14:24:14</time>
      </trkpt>
      <trkpt lat="37.05393" lon="-3.33325">
        <ele>3186.8</ele>
        <time>2021-08-06 14:24:15</time>
      </trkpt>
      <trkpt lat="37.05393" lon="-3.33325">
        <ele>3187</ele>
        <time>2021-08-06 14:24:16</time>
      </trkpt>
      <trkpt lat="37.05393" lon="-3.33325">
        <ele>3187</ele>
        <time>2021-08-06 14:24:17</time>
      </trkpt>
      <trkpt lat="37.05394" lon="-3.33325">
        <ele>3186.8</ele>
        <time>2021-08-06 14:24:18</time>
      </trkpt>
      <trkpt lat="37.05394" lon="-3.33325">
        <ele>3186.8</ele>
        <time>2021-08-06 14:24:19</time>
      </trkpt>
      <trkpt lat="37.05394" lon="-3.33325">
        <ele>3186.8</ele>
        <time>2021-08-06 14:24:20</time>
      </trkpt>
      <trkpt lat="37.05394" lon="-3.33325">
        <ele>3187</ele>
        <time>2021-08-06 14:24:21</time>
      </trkpt>
      <trkpt lat="37.05394" lon="-3.33325">
        <ele>3187</ele>
        <time>2021-08-06 14:24:22</time>
      </trkpt>
      <trkpt lat="37.05394" lon="-3.33325">
        <ele>3187</ele>
        <time>2021-08-06 14:24:23</time>
      </trkpt>
      <trkpt lat="37.05394" lon="-3.33325">
        <ele>3187</ele>
        <time>2021-08-06 14:24:24</time>
      </trkpt>
      <trkpt lat="37.05394" lon="-3.33325">
        <ele>3187</ele>
        <time>2021-08-06 14:24:25</time>
      </trkpt>
      <trkpt lat="37.05394" lon="-3.33325">
        <ele>3187</ele>
        <time>2021-08-06 14:24:26</time>
      </trkpt>
      <trkpt lat="37.05394" lon="-3.33325">
        <ele>3187</ele>
        <time>2021-08-06 14:24:27</time>
      </trkpt>
      <trkpt lat="37.05394" lon="-3.33325">
        <ele>3187.2</ele>
        <time>2021-08-06 14:24:28</time>
      </trkpt>
      <trkpt lat="37.05394" lon="-3.33326">
        <ele>3187.2</ele>
        <time>2021-08-06 14:24:29</time>
      </trkpt>
      <trkpt lat="37.05394" lon="-3.33326">
        <ele>3187.2</ele>
        <time>2021-08-06 14:24:30</time>
      </trkpt>
      <trkpt lat="37.05394" lon="-3.33326">
        <ele>3187.2</ele>
        <time>2021-08-06 14:24:31</time>
      </trkpt>
      <trkpt lat="37.05394" lon="-3.33326">
        <ele>3187.2</ele>
        <time>2021-08-06 14:24:32</time>
      </trkpt>
      <trkpt lat="37.05413" lon="-3.33341">
        <ele>3190.2</ele>
        <time>2021-08-06 14:24:33</time>
      </trkpt>
      <trkpt lat="37.05413" lon="-3.33342">
        <ele>3190.2</ele>
        <time>2021-08-06 14:24:34</time>
      </trkpt>
      <trkpt lat="37.05413" lon="-3.33343">
        <ele>3190.2</ele>
        <time>2021-08-06 14:24:35</time>
      </trkpt>
      <trkpt lat="37.05412" lon="-3.33345">
        <ele>3190.2</ele>
        <time>2021-08-06 14:24:36</time>
      </trkpt>
      <trkpt lat="37.05412" lon="-3.33347">
        <ele>3189.8</ele>
        <time>2021-08-06 14:24:37</time>
      </trkpt>
      <trkpt lat="37.05412" lon="-3.33348">
        <ele>3189.4</ele>
        <time>2021-08-06 14:24:38</time>
      </trkpt>
      <trkpt lat="37.05412" lon="-3.3335">
        <ele>3189.2</ele>
        <time>2021-08-06 14:24:39</time>
      </trkpt>
      <trkpt lat="37.05413" lon="-3.33351">
        <ele>3189</ele>
        <time>2021-08-06 14:24:40</time>
      </trkpt>
      <trkpt lat="37.05413" lon="-3.33352">
        <ele>3188.8</ele>
        <time>2021-08-06 14:24:41</time>
      </trkpt>
      <trkpt lat="37.05414" lon="-3.33354">
        <ele>3188.6</ele>
        <time>2021-08-06 14:24:42</time>
      </trkpt>
      <trkpt lat="37.05414" lon="-3.33355">
        <ele>3188.6</ele>
        <time>2021-08-06 14:24:43</time>
      </trkpt>
      <trkpt lat="37.05414" lon="-3.33357">
        <ele>3188.4</ele>
        <time>2021-08-06 14:24:44</time>
      </trkpt>
      <trkpt lat="37.05414" lon="-3.33358">
        <ele>3188.4</ele>
        <time>2021-08-06 14:24:45</time>
      </trkpt>
      <trkpt lat="37.05414" lon="-3.33359">
        <ele>3188.4</ele>
        <time>2021-08-06 14:24:46</time>
      </trkpt>
      <trkpt lat="37.05415" lon="-3.3336">
        <ele>3188</ele>
        <time>2021-08-06 14:24:47</time>
      </trkpt>
      <trkpt lat="37.05415" lon="-3.33361">
        <ele>3187.8</ele>
        <time>2021-08-06 14:24:48</time>
      </trkpt>
      <trkpt lat="37.05415" lon="-3.33362">
        <ele>3187.8</ele>
        <time>2021-08-06 14:24:49</time>
      </trkpt>
      <trkpt lat="37.05415" lon="-3.33362">
        <ele>3187.8</ele>
        <time>2021-08-06 14:24:50</time>
      </trkpt>
      <trkpt lat="37.05415" lon="-3.33362">
        <ele>3187.8</ele>
        <time>2021-08-06 14:24:51</time>
      </trkpt>
      <trkpt lat="37.05415" lon="-3.33362">
        <ele>3187.8</ele>
        <time>2021-08-06 14:24:52</time>
      </trkpt>
      <trkpt lat="37.05415" lon="-3.33361">
        <ele>3188</ele>
        <time>2021-08-06 14:24:53</time>
      </trkpt>
      <trkpt lat="37.05415" lon="-3.33361">
        <ele>3188.6</ele>
        <time>2021-08-06 14:24:54</time>
      </trkpt>
      <trkpt lat="37.05415" lon="-3.33361">
        <ele>3189</ele>
        <time>2021-08-06 14:24:55</time>
      </trkpt>
      <trkpt lat="37.05415" lon="-3.33361">
        <ele>3189.2</ele>
        <time>2021-08-06 14:24:56</time>
      </trkpt>
      <trkpt lat="37.05415" lon="-3.33361">
        <ele>3189.2</ele>
        <time>2021-08-06 14:24:57</time>
      </trkpt>
      <trkpt lat="37.05415" lon="-3.33361">
        <ele>3189.2</ele>
        <time>2021-08-06 14:24:58</time>
      </trkpt>
      <trkpt lat="37.05416" lon="-3.33362">
        <ele>3189.2</ele>
        <time>2021-08-06 14:24:59</time>
      </trkpt>
      <trkpt lat="37.05416" lon="-3.33362">
        <ele>3188.8</ele>
        <time>2021-08-06 14:25:00</time>
      </trkpt>
      <trkpt lat="37.05416" lon="-3.33363">
        <ele>3188.2</ele>
        <time>2021-08-06 14:25:01</time>
      </trkpt>
      <trkpt lat="37.05416" lon="-3.33365">
        <ele>3187.8</ele>
        <time>2021-08-06 14:25:02</time>
      </trkpt>
      <trkpt lat="37.05416" lon="-3.33367">
        <ele>3187.4</ele>
        <time>2021-08-06 14:25:03</time>
      </trkpt>
      <trkpt lat="37.05416" lon="-3.33368">
        <ele>3187.2</ele>
        <time>2021-08-06 14:25:04</time>
      </trkpt>
      <trkpt lat="37.05416" lon="-3.3337">
        <ele>3187</ele>
        <time>2021-08-06 14:25:05</time>
      </trkpt>
      <trkpt lat="37.05416" lon="-3.33371">
        <ele>3187</ele>
        <time>2021-08-06 14:25:06</time>
      </trkpt>
      <trkpt lat="37.05416" lon="-3.33372">
        <ele>3186.8</ele>
        <time>2021-08-06 14:25:07</time>
      </trkpt>
      <trkpt lat="37.05416" lon="-3.33374">
        <ele>3186.8</ele>
        <time>2021-08-06 14:25:08</time>
      </trkpt>
      <trkpt lat="37.05416" lon="-3.33375">
        <ele>3186.8</ele>
        <time>2021-08-06 14:25:09</time>
      </trkpt>
      <trkpt lat="37.05417" lon="-3.33376">
        <ele>3186.8</ele>
        <time>2021-08-06 14:25:10</time>
      </trkpt>
      <trkpt lat="37.05417" lon="-3.33377">
        <ele>3186.4</ele>
        <time>2021-08-06 14:25:11</time>
      </trkpt>
      <trkpt lat="37.05417" lon="-3.33378">
        <ele>3186.2</ele>
        <time>2021-08-06 14:25:12</time>
      </trkpt>
      <trkpt lat="37.05418" lon="-3.33379">
        <ele>3186</ele>
        <time>2021-08-06 14:25:13</time>
      </trkpt>
      <trkpt lat="37.05418" lon="-3.3338">
        <ele>3186</ele>
        <time>2021-08-06 14:25:14</time>
      </trkpt>
      <trkpt lat="37.05418" lon="-3.33381">
        <ele>3185.8</ele>
        <time>2021-08-06 14:25:15</time>
      </trkpt>
      <trkpt lat="37.05419" lon="-3.33383">
        <ele>3185.8</ele>
        <time>2021-08-06 14:25:16</time>
      </trkpt>
      <trkpt lat="37.05419" lon="-3.33384">
        <ele>3185.6</ele>
        <time>2021-08-06 14:25:17</time>
      </trkpt>
      <trkpt lat="37.0542" lon="-3.33385">
        <ele>3185.6</ele>
        <time>2021-08-06 14:25:18</time>
      </trkpt>
      <trkpt lat="37.0542" lon="-3.33385">
        <ele>3185.4</ele>
        <time>2021-08-06 14:25:19</time>
      </trkpt>
      <trkpt lat="37.05421" lon="-3.33386">
        <ele>3185.4</ele>
        <time>2021-08-06 14:25:20</time>
      </trkpt>
      <trkpt lat="37.05421" lon="-3.33387">
        <ele>3185.4</ele>
        <time>2021-08-06 14:25:21</time>
      </trkpt>
      <trkpt lat="37.05421" lon="-3.33389">
        <ele>3185.4</ele>
        <time>2021-08-06 14:25:22</time>
      </trkpt>
      <trkpt lat="37.05422" lon="-3.3339">
        <ele>3185.2</ele>
        <time>2021-08-06 14:25:23</time>
      </trkpt>
      <trkpt lat="37.05422" lon="-3.33392">
        <ele>3185.2</ele>
        <time>2021-08-06 14:25:24</time>
      </trkpt>
      <trkpt lat="37.05423" lon="-3.33394">
        <ele>3185</ele>
        <time>2021-08-06 14:25:25</time>
      </trkpt>
      <trkpt lat="37.05423" lon="-3.33395">
        <ele>3184.6</ele>
        <time>2021-08-06 14:25:26</time>
      </trkpt>
      <trkpt lat="37.05423" lon="-3.33397">
        <ele>3184.4</ele>
        <time>2021-08-06 14:25:27</time>
      </trkpt>
      <trkpt lat="37.05424" lon="-3.33398">
        <ele>3184.4</ele>
        <time>2021-08-06 14:25:28</time>
      </trkpt>
      <trkpt lat="37.05424" lon="-3.33399">
        <ele>3184.2</ele>
        <time>2021-08-06 14:25:29</time>
      </trkpt>
      <trkpt lat="37.05424" lon="-3.33401">
        <ele>3184</ele>
        <time>2021-08-06 14:25:30</time>
      </trkpt>
      <trkpt lat="37.05424" lon="-3.33403">
        <ele>3183.8</ele>
        <time>2021-08-06 14:25:31</time>
      </trkpt>
      <trkpt lat="37.05424" lon="-3.33404">
        <ele>3183.6</ele>
        <time>2021-08-06 14:25:32</time>
      </trkpt>
      <trkpt lat="37.05424" lon="-3.33405">
        <ele>3183.4</ele>
        <time>2021-08-06 14:25:33</time>
      </trkpt>
      <trkpt lat="37.05424" lon="-3.33406">
        <ele>3183.2</ele>
        <time>2021-08-06 14:25:34</time>
      </trkpt>
      <trkpt lat="37.05425" lon="-3.33407">
        <ele>3183</ele>
        <time>2021-08-06 14:25:35</time>
      </trkpt>
      <trkpt lat="37.05425" lon="-3.33409">
        <ele>3182.8</ele>
        <time>2021-08-06 14:25:36</time>
      </trkpt>
      <trkpt lat="37.05426" lon="-3.3341">
        <ele>3182.4</ele>
        <time>2021-08-06 14:25:37</time>
      </trkpt>
      <trkpt lat="37.05426" lon="-3.33411">
        <ele>3182.2</ele>
        <time>2021-08-06 14:25:38</time>
      </trkpt>
      <trkpt lat="37.05426" lon="-3.33412">
        <ele>3181.8</ele>
        <time>2021-08-06 14:25:39</time>
      </trkpt>
      <trkpt lat="37.05426" lon="-3.33413">
        <ele>3181.6</ele>
        <time>2021-08-06 14:25:40</time>
      </trkpt>
      <trkpt lat="37.05427" lon="-3.33414">
        <ele>3181.6</ele>
        <time>2021-08-06 14:25:41</time>
      </trkpt>
      <trkpt lat="37.05427" lon="-3.33415">
        <ele>3181.6</ele>
        <time>2021-08-06 14:25:42</time>
      </trkpt>
      <trkpt lat="37.05428" lon="-3.33416">
        <ele>3181.6</ele>
        <time>2021-08-06 14:25:43</time>
      </trkpt>
      <trkpt lat="37.05427" lon="-3.33417">
        <ele>3181.4</ele>
        <time>2021-08-06 14:25:44</time>
      </trkpt>
      <trkpt lat="37.05427" lon="-3.33418">
        <ele>3181.4</ele>
        <time>2021-08-06 14:25:45</time>
      </trkpt>
      <trkpt lat="37.05427" lon="-3.33418">
        <ele>3181.2</ele>
        <time>2021-08-06 14:25:46</time>
      </trkpt>
      <trkpt lat="37.05427" lon="-3.33419">
        <ele>3181</ele>
        <time>2021-08-06 14:25:47</time>
      </trkpt>
      <trkpt lat="37.05427" lon="-3.3342">
        <ele>3180.8</ele>
        <time>2021-08-06 14:25:48</time>
      </trkpt>
      <trkpt lat="37.05427" lon="-3.3342">
        <ele>3180.4</ele>
        <time>2021-08-06 14:25:49</time>
      </trkpt>
      <trkpt lat="37.05427" lon="-3.33421">
        <ele>3180.2</ele>
        <time>2021-08-06 14:25:50</time>
      </trkpt>
      <trkpt lat="37.05427" lon="-3.33422">
        <ele>3180</ele>
        <time>2021-08-06 14:25:51</time>
      </trkpt>
      <trkpt lat="37.05427" lon="-3.33423">
        <ele>3180</ele>
        <time>2021-08-06 14:25:52</time>
      </trkpt>
      <trkpt lat="37.05427" lon="-3.33424">
        <ele>3179.8</ele>
        <time>2021-08-06 14:25:53</time>
      </trkpt>
      <trkpt lat="37.05427" lon="-3.33425">
        <ele>3179.6</ele>
        <time>2021-08-06 14:25:54</time>
      </trkpt>
      <trkpt lat="37.05427" lon="-3.33426">
        <ele>3179.6</ele>
        <time>2021-08-06 14:25:55</time>
      </trkpt>
      <trkpt lat="37.05427" lon="-3.33427">
        <ele>3179.4</ele>
        <time>2021-08-06 14:25:56</time>
      </trkpt>
      <trkpt lat="37.05427" lon="-3.33428">
        <ele>3179.4</ele>
        <time>2021-08-06 14:25:57</time>
      </trkpt>
      <trkpt lat="37.05427" lon="-3.33429">
        <ele>3179.2</ele>
        <time>2021-08-06 14:25:58</time>
      </trkpt>
      <trkpt lat="37.05427" lon="-3.3343">
        <ele>3179.2</ele>
        <time>2021-08-06 14:25:59</time>
      </trkpt>
      <trkpt lat="37.05427" lon="-3.3343">
        <ele>3179.2</ele>
        <time>2021-08-06 14:26:00</time>
      </trkpt>
      <trkpt lat="37.05427" lon="-3.33431">
        <ele>3179</ele>
        <time>2021-08-06 14:26:01</time>
      </trkpt>
      <trkpt lat="37.05427" lon="-3.33433">
        <ele>3178.8</ele>
        <time>2021-08-06 14:26:02</time>
      </trkpt>
      <trkpt lat="37.05427" lon="-3.33434">
        <ele>3178.8</ele>
        <time>2021-08-06 14:26:03</time>
      </trkpt>
      <trkpt lat="37.05427" lon="-3.33435">
        <ele>3178.4</ele>
        <time>2021-08-06 14:26:04</time>
      </trkpt>
      <trkpt lat="37.05427" lon="-3.33436">
        <ele>3178</ele>
        <time>2021-08-06 14:26:05</time>
      </trkpt>
      <trkpt lat="37.05427" lon="-3.33437">
        <ele>3178</ele>
        <time>2021-08-06 14:26:06</time>
      </trkpt>
      <trkpt lat="37.05427" lon="-3.33438">
        <ele>3177.8</ele>
        <time>2021-08-06 14:26:07</time>
      </trkpt>
      <trkpt lat="37.05426" lon="-3.3344">
        <ele>3177.8</ele>
        <time>2021-08-06 14:26:08</time>
      </trkpt>
      <trkpt lat="37.05425" lon="-3.33441">
        <ele>3177.6</ele>
        <time>2021-08-06 14:26:09</time>
      </trkpt>
      <trkpt lat="37.05425" lon="-3.33443">
        <ele>3177.6</ele>
        <time>2021-08-06 14:26:10</time>
      </trkpt>
      <trkpt lat="37.05424" lon="-3.33444">
        <ele>3177.4</ele>
        <time>2021-08-06 14:26:11</time>
      </trkpt>
      <trkpt lat="37.05423" lon="-3.33445">
        <ele>3177.4</ele>
        <time>2021-08-06 14:26:12</time>
      </trkpt>
      <trkpt lat="37.05422" lon="-3.33444">
        <ele>3177.4</ele>
        <time>2021-08-06 14:26:13</time>
      </trkpt>
      <trkpt lat="37.05422" lon="-3.33446">
        <ele>3177.2</ele>
        <time>2021-08-06 14:26:14</time>
      </trkpt>
      <trkpt lat="37.05421" lon="-3.33447">
        <ele>3177.2</ele>
        <time>2021-08-06 14:26:15</time>
      </trkpt>
      <trkpt lat="37.05421" lon="-3.33448">
        <ele>3177.2</ele>
        <time>2021-08-06 14:26:16</time>
      </trkpt>
      <trkpt lat="37.0542" lon="-3.33449">
        <ele>3177.2</ele>
        <time>2021-08-06 14:26:17</time>
      </trkpt>
      <trkpt lat="37.05418" lon="-3.3345">
        <ele>3177.2</ele>
        <time>2021-08-06 14:26:18</time>
      </trkpt>
      <trkpt lat="37.05417" lon="-3.33452">
        <ele>3177.2</ele>
        <time>2021-08-06 14:26:19</time>
      </trkpt>
      <trkpt lat="37.05416" lon="-3.33452">
        <ele>3177.2</ele>
        <time>2021-08-06 14:26:20</time>
      </trkpt>
      <trkpt lat="37.05415" lon="-3.33453">
        <ele>3177.2</ele>
        <time>2021-08-06 14:26:21</time>
      </trkpt>
      <trkpt lat="37.05414" lon="-3.33454">
        <ele>3177.2</ele>
        <time>2021-08-06 14:26:22</time>
      </trkpt>
      <trkpt lat="37.05413" lon="-3.33455">
        <ele>3177.2</ele>
        <time>2021-08-06 14:26:23</time>
      </trkpt>
      <trkpt lat="37.05412" lon="-3.33456">
        <ele>3176.8</ele>
        <time>2021-08-06 14:26:24</time>
      </trkpt>
      <trkpt lat="37.05413" lon="-3.33457">
        <ele>3176.4</ele>
        <time>2021-08-06 14:26:25</time>
      </trkpt>
      <trkpt lat="37.05413" lon="-3.33458">
        <ele>3176.2</ele>
        <time>2021-08-06 14:26:26</time>
      </trkpt>
      <trkpt lat="37.05413" lon="-3.33459">
        <ele>3175.8</ele>
        <time>2021-08-06 14:26:27</time>
      </trkpt>
      <trkpt lat="37.05413" lon="-3.33461">
        <ele>3175.6</ele>
        <time>2021-08-06 14:26:28</time>
      </trkpt>
      <trkpt lat="37.05414" lon="-3.33461">
        <ele>3175.4</ele>
        <time>2021-08-06 14:26:29</time>
      </trkpt>
      <trkpt lat="37.05414" lon="-3.33462">
        <ele>3175.2</ele>
        <time>2021-08-06 14:26:30</time>
      </trkpt>
      <trkpt lat="37.05414" lon="-3.33463">
        <ele>3175</ele>
        <time>2021-08-06 14:26:31</time>
      </trkpt>
      <trkpt lat="37.05414" lon="-3.33465">
        <ele>3175</ele>
        <time>2021-08-06 14:26:32</time>
      </trkpt>
      <trkpt lat="37.05413" lon="-3.33466">
        <ele>3175</ele>
        <time>2021-08-06 14:26:33</time>
      </trkpt>
      <trkpt lat="37.05413" lon="-3.33467">
        <ele>3175</ele>
        <time>2021-08-06 14:26:34</time>
      </trkpt>
      <trkpt lat="37.05412" lon="-3.33468">
        <ele>3175</ele>
        <time>2021-08-06 14:26:35</time>
      </trkpt>
      <trkpt lat="37.05412" lon="-3.33468">
        <ele>3175</ele>
        <time>2021-08-06 14:26:36</time>
      </trkpt>
      <trkpt lat="37.05411" lon="-3.33468">
        <ele>3175</ele>
        <time>2021-08-06 14:26:37</time>
      </trkpt>
      <trkpt lat="37.05411" lon="-3.33468">
        <ele>3175</ele>
        <time>2021-08-06 14:26:38</time>
      </trkpt>
      <trkpt lat="37.05411" lon="-3.33468">
        <ele>3175</ele>
        <time>2021-08-06 14:26:39</time>
      </trkpt>
      <trkpt lat="37.05411" lon="-3.33469">
        <ele>3174.8</ele>
        <time>2021-08-06 14:26:40</time>
      </trkpt>
      <trkpt lat="37.05412" lon="-3.3347">
        <ele>3174.4</ele>
        <time>2021-08-06 14:26:41</time>
      </trkpt>
      <trkpt lat="37.05412" lon="-3.33471">
        <ele>3174.2</ele>
        <time>2021-08-06 14:26:42</time>
      </trkpt>
      <trkpt lat="37.05412" lon="-3.33472">
        <ele>3174</ele>
        <time>2021-08-06 14:26:43</time>
      </trkpt>
      <trkpt lat="37.05412" lon="-3.33473">
        <ele>3173.6</ele>
        <time>2021-08-06 14:26:44</time>
      </trkpt>
      <trkpt lat="37.05413" lon="-3.33473">
        <ele>3173.4</ele>
        <time>2021-08-06 14:26:45</time>
      </trkpt>
      <trkpt lat="37.05413" lon="-3.33474">
        <ele>3173.2</ele>
        <time>2021-08-06 14:26:46</time>
      </trkpt>
      <trkpt lat="37.05412" lon="-3.33475">
        <ele>3173.2</ele>
        <time>2021-08-06 14:26:47</time>
      </trkpt>
      <trkpt lat="37.05412" lon="-3.33476">
        <ele>3173.2</ele>
        <time>2021-08-06 14:26:48</time>
      </trkpt>
      <trkpt lat="37.05411" lon="-3.33477">
        <ele>3173.2</ele>
        <time>2021-08-06 14:26:49</time>
      </trkpt>
      <trkpt lat="37.0541" lon="-3.33478">
        <ele>3173.4</ele>
        <time>2021-08-06 14:26:50</time>
      </trkpt>
      <trkpt lat="37.0541" lon="-3.33478">
        <ele>3173.4</ele>
        <time>2021-08-06 14:26:51</time>
      </trkpt>
      <trkpt lat="37.0541" lon="-3.33479">
        <ele>3173.4</ele>
        <time>2021-08-06 14:26:52</time>
      </trkpt>
      <trkpt lat="37.0541" lon="-3.3348">
        <ele>3173.2</ele>
        <time>2021-08-06 14:26:53</time>
      </trkpt>
      <trkpt lat="37.05411" lon="-3.3348">
        <ele>3172.4</ele>
        <time>2021-08-06 14:26:54</time>
      </trkpt>
      <trkpt lat="37.05412" lon="-3.3348">
        <ele>3171.8</ele>
        <time>2021-08-06 14:26:55</time>
      </trkpt>
      <trkpt lat="37.05412" lon="-3.33481">
        <ele>3171.6</ele>
        <time>2021-08-06 14:26:56</time>
      </trkpt>
      <trkpt lat="37.05412" lon="-3.33481">
        <ele>3171.6</ele>
        <time>2021-08-06 14:26:57</time>
      </trkpt>
      <trkpt lat="37.05412" lon="-3.33482">
        <ele>3171.6</ele>
        <time>2021-08-06 14:26:58</time>
      </trkpt>
      <trkpt lat="37.05413" lon="-3.33483">
        <ele>3171.4</ele>
        <time>2021-08-06 14:26:59</time>
      </trkpt>
      <trkpt lat="37.05413" lon="-3.33484">
        <ele>3171.4</ele>
        <time>2021-08-06 14:27:00</time>
      </trkpt>
      <trkpt lat="37.05413" lon="-3.33485">
        <ele>3171.2</ele>
        <time>2021-08-06 14:27:01</time>
      </trkpt>
      <trkpt lat="37.05413" lon="-3.33486">
        <ele>3171</ele>
        <time>2021-08-06 14:27:02</time>
      </trkpt>
      <trkpt lat="37.05413" lon="-3.33487">
        <ele>3170.8</ele>
        <time>2021-08-06 14:27:03</time>
      </trkpt>
      <trkpt lat="37.05413" lon="-3.33487">
        <ele>3170.8</ele>
        <time>2021-08-06 14:27:04</time>
      </trkpt>
      <trkpt lat="37.05413" lon="-3.33488">
        <ele>3170.6</ele>
        <time>2021-08-06 14:27:05</time>
      </trkpt>
      <trkpt lat="37.05413" lon="-3.33489">
        <ele>3170.6</ele>
        <time>2021-08-06 14:27:06</time>
      </trkpt>
      <trkpt lat="37.05413" lon="-3.3349">
        <ele>3170.4</ele>
        <time>2021-08-06 14:27:07</time>
      </trkpt>
      <trkpt lat="37.05413" lon="-3.33491">
        <ele>3170.2</ele>
        <time>2021-08-06 14:27:08</time>
      </trkpt>
      <trkpt lat="37.05414" lon="-3.33492">
        <ele>3170</ele>
        <time>2021-08-06 14:27:09</time>
      </trkpt>
      <trkpt lat="37.05415" lon="-3.33491">
        <ele>3169.8</ele>
        <time>2021-08-06 14:27:10</time>
      </trkpt>
      <trkpt lat="37.05416" lon="-3.33492">
        <ele>3169.6</ele>
        <time>2021-08-06 14:27:11</time>
      </trkpt>
      <trkpt lat="37.05417" lon="-3.33492">
        <ele>3169.6</ele>
        <time>2021-08-06 14:27:12</time>
      </trkpt>
      <trkpt lat="37.05417" lon="-3.33493">
        <ele>3169.6</ele>
        <time>2021-08-06 14:27:13</time>
      </trkpt>
      <trkpt lat="37.05417" lon="-3.33494">
        <ele>3169.6</ele>
        <time>2021-08-06 14:27:14</time>
      </trkpt>
      <trkpt lat="37.05417" lon="-3.33494">
        <ele>3169.4</ele>
        <time>2021-08-06 14:27:15</time>
      </trkpt>
      <trkpt lat="37.05417" lon="-3.33495">
        <ele>3169.4</ele>
        <time>2021-08-06 14:27:16</time>
      </trkpt>
      <trkpt lat="37.05417" lon="-3.33496">
        <ele>3169.4</ele>
        <time>2021-08-06 14:27:17</time>
      </trkpt>
      <trkpt lat="37.05417" lon="-3.33496">
        <ele>3169.2</ele>
        <time>2021-08-06 14:27:18</time>
      </trkpt>
      <trkpt lat="37.05418" lon="-3.33497">
        <ele>3168.8</ele>
        <time>2021-08-06 14:27:19</time>
      </trkpt>
      <trkpt lat="37.05418" lon="-3.33498">
        <ele>3168.6</ele>
        <time>2021-08-06 14:27:20</time>
      </trkpt>
      <trkpt lat="37.05417" lon="-3.33499">
        <ele>3168.6</ele>
        <time>2021-08-06 14:27:21</time>
      </trkpt>
      <trkpt lat="37.05417" lon="-3.335">
        <ele>3168.6</ele>
        <time>2021-08-06 14:27:22</time>
      </trkpt>
      <trkpt lat="37.05416" lon="-3.33501">
        <ele>3168.6</ele>
        <time>2021-08-06 14:27:23</time>
      </trkpt>
      <trkpt lat="37.05415" lon="-3.33502">
        <ele>3168.6</ele>
        <time>2021-08-06 14:27:24</time>
      </trkpt>
      <trkpt lat="37.05416" lon="-3.33502">
        <ele>3168.4</ele>
        <time>2021-08-06 14:27:25</time>
      </trkpt>
      <trkpt lat="37.05416" lon="-3.33503">
        <ele>3168.4</ele>
        <time>2021-08-06 14:27:26</time>
      </trkpt>
      <trkpt lat="37.05417" lon="-3.33503">
        <ele>3168.2</ele>
        <time>2021-08-06 14:27:27</time>
      </trkpt>
      <trkpt lat="37.05417" lon="-3.33504">
        <ele>3168</ele>
        <time>2021-08-06 14:27:28</time>
      </trkpt>
      <trkpt lat="37.05418" lon="-3.33505">
        <ele>3167.8</ele>
        <time>2021-08-06 14:27:29</time>
      </trkpt>
      <trkpt lat="37.05418" lon="-3.33506">
        <ele>3167.6</ele>
        <time>2021-08-06 14:27:30</time>
      </trkpt>
      <trkpt lat="37.05418" lon="-3.33507">
        <ele>3167.4</ele>
        <time>2021-08-06 14:27:31</time>
      </trkpt>
      <trkpt lat="37.05418" lon="-3.33508">
        <ele>3167.4</ele>
        <time>2021-08-06 14:27:32</time>
      </trkpt>
      <trkpt lat="37.05418" lon="-3.33509">
        <ele>3167.4</ele>
        <time>2021-08-06 14:27:33</time>
      </trkpt>
      <trkpt lat="37.05418" lon="-3.3351">
        <ele>3167.4</ele>
        <time>2021-08-06 14:27:34</time>
      </trkpt>
      <trkpt lat="37.05418" lon="-3.33511">
        <ele>3167.2</ele>
        <time>2021-08-06 14:27:35</time>
      </trkpt>
      <trkpt lat="37.05417" lon="-3.33512">
        <ele>3167</ele>
        <time>2021-08-06 14:27:36</time>
      </trkpt>
      <trkpt lat="37.05417" lon="-3.33513">
        <ele>3167</ele>
        <time>2021-08-06 14:27:37</time>
      </trkpt>
      <trkpt lat="37.05417" lon="-3.33514">
        <ele>3167</ele>
        <time>2021-08-06 14:27:38</time>
      </trkpt>
      <trkpt lat="37.05417" lon="-3.33515">
        <ele>3166.8</ele>
        <time>2021-08-06 14:27:39</time>
      </trkpt>
      <trkpt lat="37.05417" lon="-3.33515">
        <ele>3166.6</ele>
        <time>2021-08-06 14:27:40</time>
      </trkpt>
      <trkpt lat="37.05417" lon="-3.33516">
        <ele>3166.4</ele>
        <time>2021-08-06 14:27:41</time>
      </trkpt>
      <trkpt lat="37.05417" lon="-3.33518">
        <ele>3166.2</ele>
        <time>2021-08-06 14:27:42</time>
      </trkpt>
      <trkpt lat="37.05417" lon="-3.33519">
        <ele>3166.2</ele>
        <time>2021-08-06 15:09:42</time>
      </trkpt>
      <trkpt lat="37.05417" lon="-3.33519">
        <ele>3166</ele>
        <time>2021-08-06 15:09:43</time>
      </trkpt>
      <trkpt lat="37.05418" lon="-3.3352">
        <ele>3166</ele>
        <time>2021-08-06 15:09:44</time>
      </trkpt>
      <trkpt lat="37.05418" lon="-3.3352">
        <ele>3165.8</ele>
        <time>2021-08-06 15:09:45</time>
      </trkpt>
      <trkpt lat="37.05419" lon="-3.33521">
        <ele>3165.8</ele>
        <time>2021-08-06 15:09:46</time>
      </trkpt>
      <trkpt lat="37.05418" lon="-3.33522">
        <ele>3165.6</ele>
        <time>2021-08-06 15:09:47</time>
      </trkpt>
      <trkpt lat="37.05418" lon="-3.33523">
        <ele>3165.4</ele>
        <time>2021-08-06 15:09:48</time>
      </trkpt>
      <trkpt lat="37.05419" lon="-3.33523">
        <ele>3165.2</ele>
        <time>2021-08-06 15:09:49</time>
      </trkpt>
      <trkpt lat="37.05419" lon="-3.33524">
        <ele>3165</ele>
        <time>2021-08-06 15:09:50</time>
      </trkpt>
      <trkpt lat="37.05419" lon="-3.33525">
        <ele>3164.8</ele>
        <time>2021-08-06 15:09:51</time>
      </trkpt>
      <trkpt lat="37.05419" lon="-3.33525">
        <ele>3164.6</ele>
        <time>2021-08-06 15:09:52</time>
      </trkpt>
      <trkpt lat="37.05419" lon="-3.33527">
        <ele>3164.6</ele>
        <time>2021-08-06 15:09:53</time>
      </trkpt>
      <trkpt lat="37.05419" lon="-3.33528">
        <ele>3164.6</ele>
        <time>2021-08-06 15:09:54</time>
      </trkpt>
      <trkpt lat="37.05419" lon="-3.33529">
        <ele>3164.4</ele>
        <time>2021-08-06 15:09:55</time>
      </trkpt>
      <trkpt lat="37.0542" lon="-3.3353">
        <ele>3164.4</ele>
        <time>2021-08-06 15:09:56</time>
      </trkpt>
      <trkpt lat="37.0542" lon="-3.3353">
        <ele>3164.2</ele>
        <time>2021-08-06 15:09:57</time>
      </trkpt>
      <trkpt lat="37.05421" lon="-3.33531">
        <ele>3164</ele>
        <time>2021-08-06 15:09:58</time>
      </trkpt>
      <trkpt lat="37.05421" lon="-3.33532">
        <ele>3163.8</ele>
        <time>2021-08-06 15:09:59</time>
      </trkpt>
      <trkpt lat="37.05421" lon="-3.33532">
        <ele>3163.6</ele>
        <time>2021-08-06 15:10:00</time>
      </trkpt>
      <trkpt lat="37.05421" lon="-3.33533">
        <ele>3163.6</ele>
        <time>2021-08-06 15:10:01</time>
      </trkpt>
      <trkpt lat="37.05421" lon="-3.33534">
        <ele>3163.4</ele>
        <time>2021-08-06 15:10:02</time>
      </trkpt>
      <trkpt lat="37.05421" lon="-3.33534">
        <ele>3163.4</ele>
        <time>2021-08-06 15:10:03</time>
      </trkpt>
      <trkpt lat="37.05421" lon="-3.33535">
        <ele>3163.4</ele>
        <time>2021-08-06 15:10:04</time>
      </trkpt>
      <trkpt lat="37.05422" lon="-3.33536">
        <ele>3163.2</ele>
        <time>2021-08-06 15:10:05</time>
      </trkpt>
      <trkpt lat="37.05422" lon="-3.33537">
        <ele>3163.2</ele>
        <time>2021-08-06 15:10:06</time>
      </trkpt>
      <trkpt lat="37.05422" lon="-3.33538">
        <ele>3163.2</ele>
        <time>2021-08-06 15:10:07</time>
      </trkpt>
      <trkpt lat="37.05423" lon="-3.33539">
        <ele>3163.2</ele>
        <time>2021-08-06 15:10:08</time>
      </trkpt>
      <trkpt lat="37.05423" lon="-3.3354">
        <ele>3163</ele>
        <time>2021-08-06 15:10:09</time>
      </trkpt>
      <trkpt lat="37.05423" lon="-3.33541">
        <ele>3163</ele>
        <time>2021-08-06 15:10:10</time>
      </trkpt>
      <trkpt lat="37.05422" lon="-3.33542">
        <ele>3162.8</ele>
        <time>2021-08-06 15:10:11</time>
      </trkpt>
      <trkpt lat="37.05422" lon="-3.33543">
        <ele>3162.8</ele>
        <time>2021-08-06 15:10:12</time>
      </trkpt>
      <trkpt lat="37.05422" lon="-3.33544">
        <ele>3162.6</ele>
        <time>2021-08-06 15:10:13</time>
      </trkpt>
      <trkpt lat="37.05423" lon="-3.33545">
        <ele>3162.2</ele>
        <time>2021-08-06 15:10:14</time>
      </trkpt>
      <trkpt lat="37.05423" lon="-3.33546">
        <ele>3162</ele>
        <time>2021-08-06 15:10:15</time>
      </trkpt>
      <trkpt lat="37.05423" lon="-3.33547">
        <ele>3161.8</ele>
        <time>2021-08-06 15:10:16</time>
      </trkpt>
      <trkpt lat="37.05423" lon="-3.33547">
        <ele>3161.8</ele>
        <time>2021-08-06 15:10:17</time>
      </trkpt>
      <trkpt lat="37.05423" lon="-3.33548">
        <ele>3161.4</ele>
        <time>2021-08-06 15:10:18</time>
      </trkpt>
      <trkpt lat="37.05423" lon="-3.33549">
        <ele>3161.2</ele>
        <time>2021-08-06 15:10:19</time>
      </trkpt>
      <trkpt lat="37.05423" lon="-3.3355">
        <ele>3161</ele>
        <time>2021-08-06 15:10:20</time>
      </trkpt>
      <trkpt lat="37.05423" lon="-3.33551">
        <ele>3161.4</ele>
        <time>2021-08-06 15:10:21</time>
      </trkpt>
      <trkpt lat="37.05422" lon="-3.33552">
        <ele>3161.4</ele>
        <time>2021-08-06 15:10:22</time>
      </trkpt>
      <trkpt lat="37.05422" lon="-3.33553">
        <ele>3161.2</ele>
        <time>2021-08-06 15:10:23</time>
      </trkpt>
      <trkpt lat="37.05422" lon="-3.33554">
        <ele>3161</ele>
        <time>2021-08-06 15:10:24</time>
      </trkpt>
      <trkpt lat="37.05422" lon="-3.33555">
        <ele>3160.4</ele>
        <time>2021-08-06 15:10:25</time>
      </trkpt>
      <trkpt lat="37.05422" lon="-3.33556">
        <ele>3160</ele>
        <time>2021-08-06 15:10:26</time>
      </trkpt>
      <trkpt lat="37.05422" lon="-3.33558">
        <ele>3159.8</ele>
        <time>2021-08-06 15:10:27</time>
      </trkpt>
      <trkpt lat="37.05422" lon="-3.33559">
        <ele>3159.6</ele>
        <time>2021-08-06 15:10:28</time>
      </trkpt>
      <trkpt lat="37.05422" lon="-3.3356">
        <ele>3159.4</ele>
        <time>2021-08-06 15:10:29</time>
      </trkpt>
      <trkpt lat="37.05422" lon="-3.33561">
        <ele>3159.2</ele>
        <time>2021-08-06 15:10:30</time>
      </trkpt>
      <trkpt lat="37.05423" lon="-3.33562">
        <ele>3159.2</ele>
        <time>2021-08-06 15:10:31</time>
      </trkpt>
      <trkpt lat="37.05423" lon="-3.33563">
        <ele>3159.2</ele>
        <time>2021-08-06 15:10:32</time>
      </trkpt>
      <trkpt lat="37.05422" lon="-3.33563">
        <ele>3159.2</ele>
        <time>2021-08-06 15:10:33</time>
      </trkpt>
      <trkpt lat="37.05422" lon="-3.33564">
        <ele>3159.4</ele>
        <time>2021-08-06 15:10:34</time>
      </trkpt>
      <trkpt lat="37.05422" lon="-3.33565">
        <ele>3159.4</ele>
        <time>2021-08-06 15:10:35</time>
      </trkpt>
      <trkpt lat="37.05422" lon="-3.33566">
        <ele>3159.4</ele>
        <time>2021-08-06 15:10:36</time>
      </trkpt>
      <trkpt lat="37.05422" lon="-3.33567">
        <ele>3159.4</ele>
        <time>2021-08-06 15:10:37</time>
      </trkpt>
      <trkpt lat="37.05421" lon="-3.33568">
        <ele>3159.4</ele>
        <time>2021-08-06 15:10:38</time>
      </trkpt>
      <trkpt lat="37.05421" lon="-3.33569">
        <ele>3159.4</ele>
        <time>2021-08-06 15:10:39</time>
      </trkpt>
      <trkpt lat="37.05421" lon="-3.3357">
        <ele>3159</ele>
        <time>2021-08-06 15:10:40</time>
      </trkpt>
      <trkpt lat="37.05421" lon="-3.33571">
        <ele>3159</ele>
        <time>2021-08-06 15:10:41</time>
      </trkpt>
      <trkpt lat="37.05421" lon="-3.33573">
        <ele>3158.8</ele>
        <time>2021-08-06 15:10:42</time>
      </trkpt>
      <trkpt lat="37.05422" lon="-3.33574">
        <ele>3158.6</ele>
        <time>2021-08-06 15:10:43</time>
      </trkpt>
      <trkpt lat="37.05422" lon="-3.33574">
        <ele>3158.4</ele>
        <time>2021-08-06 15:10:44</time>
      </trkpt>
      <trkpt lat="37.05423" lon="-3.33575">
        <ele>3158.2</ele>
        <time>2021-08-06 15:10:45</time>
      </trkpt>
      <trkpt lat="37.05423" lon="-3.33576">
        <ele>3158</ele>
        <time>2021-08-06 15:10:46</time>
      </trkpt>
      <trkpt lat="37.05423" lon="-3.33577">
        <ele>3158</ele>
        <time>2021-08-06 15:10:47</time>
      </trkpt>
      <trkpt lat="37.05423" lon="-3.33578">
        <ele>3157.8</ele>
        <time>2021-08-06 15:10:48</time>
      </trkpt>
      <trkpt lat="37.05423" lon="-3.33579">
        <ele>3157.6</ele>
        <time>2021-08-06 15:10:49</time>
      </trkpt>
      <trkpt lat="37.05422" lon="-3.33579">
        <ele>3157.4</ele>
        <time>2021-08-06 15:10:50</time>
      </trkpt>
      <trkpt lat="37.05422" lon="-3.3358">
        <ele>3157</ele>
        <time>2021-08-06 15:10:51</time>
      </trkpt>
      <trkpt lat="37.05421" lon="-3.33581">
        <ele>3157</ele>
        <time>2021-08-06 15:10:52</time>
      </trkpt>
      <trkpt lat="37.05421" lon="-3.33582">
        <ele>3156.8</ele>
        <time>2021-08-06 15:10:53</time>
      </trkpt>
      <trkpt lat="37.05421" lon="-3.33583">
        <ele>3156.8</ele>
        <time>2021-08-06 15:10:54</time>
      </trkpt>
      <trkpt lat="37.05421" lon="-3.33583">
        <ele>3156.6</ele>
        <time>2021-08-06 15:10:55</time>
      </trkpt>
      <trkpt lat="37.0542" lon="-3.33584">
        <ele>3156.6</ele>
        <time>2021-08-06 15:10:56</time>
      </trkpt>
      <trkpt lat="37.0542" lon="-3.33584">
        <ele>3156.4</ele>
        <time>2021-08-06 15:10:57</time>
      </trkpt>
      <trkpt lat="37.05419" lon="-3.33585">
        <ele>3156.4</ele>
        <time>2021-08-06 15:10:58</time>
      </trkpt>
      <trkpt lat="37.05418" lon="-3.33585">
        <ele>3156.2</ele>
        <time>2021-08-06 15:10:59</time>
      </trkpt>
      <trkpt lat="37.05417" lon="-3.33586">
        <ele>3156.2</ele>
        <time>2021-08-06 15:11:00</time>
      </trkpt>
      <trkpt lat="37.05417" lon="-3.33586">
        <ele>3156</ele>
        <time>2021-08-06 15:11:01</time>
      </trkpt>
      <trkpt lat="37.05417" lon="-3.33587">
        <ele>3155.8</ele>
        <time>2021-08-06 15:11:02</time>
      </trkpt>
      <trkpt lat="37.05417" lon="-3.33588">
        <ele>3155.8</ele>
        <time>2021-08-06 15:11:03</time>
      </trkpt>
      <trkpt lat="37.05417" lon="-3.33588">
        <ele>3155.6</ele>
        <time>2021-08-06 15:11:04</time>
      </trkpt>
      <trkpt lat="37.05417" lon="-3.33589">
        <ele>3155</ele>
        <time>2021-08-06 15:11:05</time>
      </trkpt>
      <trkpt lat="37.05417" lon="-3.33591">
        <ele>3154.2</ele>
        <time>2021-08-06 15:11:06</time>
      </trkpt>
      <trkpt lat="37.05417" lon="-3.33592">
        <ele>3153.4</ele>
        <time>2021-08-06 15:11:07</time>
      </trkpt>
      <trkpt lat="37.05417" lon="-3.33593">
        <ele>3153</ele>
        <time>2021-08-06 15:11:08</time>
      </trkpt>
      <trkpt lat="37.05417" lon="-3.33595">
        <ele>3152.8</ele>
        <time>2021-08-06 15:11:09</time>
      </trkpt>
      <trkpt lat="37.05417" lon="-3.33596">
        <ele>3152.6</ele>
        <time>2021-08-06 15:11:10</time>
      </trkpt>
      <trkpt lat="37.05417" lon="-3.33597">
        <ele>3152.6</ele>
        <time>2021-08-06 15:11:11</time>
      </trkpt>
      <trkpt lat="37.05417" lon="-3.33598">
        <ele>3152.6</ele>
        <time>2021-08-06 15:11:12</time>
      </trkpt>
      <trkpt lat="37.05417" lon="-3.33599">
        <ele>3152.6</ele>
        <time>2021-08-06 15:11:13</time>
      </trkpt>
      <trkpt lat="37.05417" lon="-3.336">
        <ele>3152.4</ele>
        <time>2021-08-06 15:11:14</time>
      </trkpt>
      <trkpt lat="37.05417" lon="-3.33601">
        <ele>3152.2</ele>
        <time>2021-08-06 15:11:15</time>
      </trkpt>
      <trkpt lat="37.05416" lon="-3.33602">
        <ele>3152</ele>
        <time>2021-08-06 15:11:16</time>
      </trkpt>
      <trkpt lat="37.05417" lon="-3.33603">
        <ele>3151.8</ele>
        <time>2021-08-06 15:11:17</time>
      </trkpt>
      <trkpt lat="37.05417" lon="-3.33604">
        <ele>3151.8</ele>
        <time>2021-08-06 15:11:18</time>
      </trkpt>
      <trkpt lat="37.05417" lon="-3.33605">
        <ele>3151.6</ele>
        <time>2021-08-06 15:11:19</time>
      </trkpt>
      <trkpt lat="37.05416" lon="-3.33606">
        <ele>3151.6</ele>
        <time>2021-08-06 15:11:20</time>
      </trkpt>
      <trkpt lat="37.05416" lon="-3.33607">
        <ele>3151.4</ele>
        <time>2021-08-06 15:11:21</time>
      </trkpt>
      <trkpt lat="37.05416" lon="-3.33608">
        <ele>3151.2</ele>
        <time>2021-08-06 15:11:22</time>
      </trkpt>
      <trkpt lat="37.05416" lon="-3.33608">
        <ele>3151</ele>
        <time>2021-08-06 15:11:23</time>
      </trkpt>
      <trkpt lat="37.05415" lon="-3.33609">
        <ele>3151</ele>
        <time>2021-08-06 15:11:24</time>
      </trkpt>
      <trkpt lat="37.05415" lon="-3.3361">
        <ele>3150.8</ele>
        <time>2021-08-06 15:11:25</time>
      </trkpt>
      <trkpt lat="37.05415" lon="-3.33611">
        <ele>3150.8</ele>
        <time>2021-08-06 15:11:26</time>
      </trkpt>
      <trkpt lat="37.05416" lon="-3.33612">
        <ele>3150.4</ele>
        <time>2021-08-06 15:11:27</time>
      </trkpt>
      <trkpt lat="37.05416" lon="-3.33613">
        <ele>3150.4</ele>
        <time>2021-08-06 15:11:28</time>
      </trkpt>
      <trkpt lat="37.05416" lon="-3.33614">
        <ele>3150.2</ele>
        <time>2021-08-06 15:11:29</time>
      </trkpt>
      <trkpt lat="37.05416" lon="-3.33615">
        <ele>3150.2</ele>
        <time>2021-08-06 15:11:30</time>
      </trkpt>
      <trkpt lat="37.05416" lon="-3.33616">
        <ele>3149.8</ele>
        <time>2021-08-06 15:11:31</time>
      </trkpt>
      <trkpt lat="37.05416" lon="-3.33618">
        <ele>3149.6</ele>
        <time>2021-08-06 15:11:32</time>
      </trkpt>
      <trkpt lat="37.05415" lon="-3.33619">
        <ele>3149.4</ele>
        <time>2021-08-06 15:11:33</time>
      </trkpt>
      <trkpt lat="37.05415" lon="-3.33621">
        <ele>3149.2</ele>
        <time>2021-08-06 15:11:34</time>
      </trkpt>
      <trkpt lat="37.05415" lon="-3.33622">
        <ele>3148.8</ele>
        <time>2021-08-06 15:11:35</time>
      </trkpt>
      <trkpt lat="37.05415" lon="-3.33623">
        <ele>3148.6</ele>
        <time>2021-08-06 15:11:36</time>
      </trkpt>
      <trkpt lat="37.05414" lon="-3.33624">
        <ele>3148.6</ele>
        <time>2021-08-06 15:11:37</time>
      </trkpt>
      <trkpt lat="37.05414" lon="-3.33624">
        <ele>3148.4</ele>
        <time>2021-08-06 15:11:38</time>
      </trkpt>
      <trkpt lat="37.05413" lon="-3.33625">
        <ele>3148.2</ele>
        <time>2021-08-06 15:11:39</time>
      </trkpt>
      <trkpt lat="37.05412" lon="-3.33626">
        <ele>3148</ele>
        <time>2021-08-06 15:11:40</time>
      </trkpt>
      <trkpt lat="37.05412" lon="-3.33627">
        <ele>3147.4</ele>
        <time>2021-08-06 15:11:41</time>
      </trkpt>
      <trkpt lat="37.05411" lon="-3.33628">
        <ele>3146.8</ele>
        <time>2021-08-06 15:11:42</time>
      </trkpt>
      <trkpt lat="37.05411" lon="-3.33629">
        <ele>3146.6</ele>
        <time>2021-08-06 15:11:43</time>
      </trkpt>
      <trkpt lat="37.05411" lon="-3.3363">
        <ele>3146.4</ele>
        <time>2021-08-06 15:11:44</time>
      </trkpt>
      <trkpt lat="37.05411" lon="-3.33632">
        <ele>3146.2</ele>
        <time>2021-08-06 15:11:45</time>
      </trkpt>
      <trkpt lat="37.05411" lon="-3.33633">
        <ele>3146</ele>
        <time>2021-08-06 15:11:46</time>
      </trkpt>
      <trkpt lat="37.05412" lon="-3.33634">
        <ele>3146</ele>
        <time>2021-08-06 15:11:47</time>
      </trkpt>
      <trkpt lat="37.05412" lon="-3.33636">
        <ele>3146.2</ele>
        <time>2021-08-06 15:11:48</time>
      </trkpt>
      <trkpt lat="37.05412" lon="-3.33637">
        <ele>3145.6</ele>
        <time>2021-08-06 15:11:49</time>
      </trkpt>
      <trkpt lat="37.05412" lon="-3.33638">
        <ele>3145.4</ele>
        <time>2021-08-06 15:11:50</time>
      </trkpt>
      <trkpt lat="37.05412" lon="-3.33639">
        <ele>3145.4</ele>
        <time>2021-08-06 15:11:51</time>
      </trkpt>
      <trkpt lat="37.05411" lon="-3.33641">
        <ele>3145.2</ele>
        <time>2021-08-06 15:11:52</time>
      </trkpt>
      <trkpt lat="37.05411" lon="-3.33642">
        <ele>3145</ele>
        <time>2021-08-06 15:11:53</time>
      </trkpt>
      <trkpt lat="37.05411" lon="-3.33643">
        <ele>3144.6</ele>
        <time>2021-08-06 15:11:54</time>
      </trkpt>
      <trkpt lat="37.0541" lon="-3.33645">
        <ele>3144.4</ele>
        <time>2021-08-06 15:11:55</time>
      </trkpt>
      <trkpt lat="37.0541" lon="-3.33646">
        <ele>3144.2</ele>
        <time>2021-08-06 15:11:56</time>
      </trkpt>
      <trkpt lat="37.0541" lon="-3.33647">
        <ele>3143.8</ele>
        <time>2021-08-06 15:11:57</time>
      </trkpt>
      <trkpt lat="37.05411" lon="-3.33648">
        <ele>3143.6</ele>
        <time>2021-08-06 15:11:58</time>
      </trkpt>
      <trkpt lat="37.05413" lon="-3.33648">
        <ele>3143.4</ele>
        <time>2021-08-06 15:11:59</time>
      </trkpt>
      <trkpt lat="37.05413" lon="-3.33649">
        <ele>3143.4</ele>
        <time>2021-08-06 15:12:00</time>
      </trkpt>
      <trkpt lat="37.05414" lon="-3.3365">
        <ele>3143.4</ele>
        <time>2021-08-06 15:12:01</time>
      </trkpt>
      <trkpt lat="37.05414" lon="-3.33651">
        <ele>3143.6</ele>
        <time>2021-08-06 15:12:02</time>
      </trkpt>
      <trkpt lat="37.05414" lon="-3.33653">
        <ele>3143.6</ele>
        <time>2021-08-06 15:12:03</time>
      </trkpt>
      <trkpt lat="37.05415" lon="-3.33654">
        <ele>3143.6</ele>
        <time>2021-08-06 15:12:04</time>
      </trkpt>
      <trkpt lat="37.05415" lon="-3.33656">
        <ele>3143.4</ele>
        <time>2021-08-06 15:12:05</time>
      </trkpt>
      <trkpt lat="37.05415" lon="-3.33657">
        <ele>3143</ele>
        <time>2021-08-06 15:12:06</time>
      </trkpt>
      <trkpt lat="37.05415" lon="-3.33659">
        <ele>3142.8</ele>
        <time>2021-08-06 15:12:07</time>
      </trkpt>
      <trkpt lat="37.05415" lon="-3.33659">
        <ele>3142.4</ele>
        <time>2021-08-06 15:12:08</time>
      </trkpt>
      <trkpt lat="37.05415" lon="-3.3366">
        <ele>3142.2</ele>
        <time>2021-08-06 15:12:09</time>
      </trkpt>
      <trkpt lat="37.05415" lon="-3.33662">
        <ele>3142</ele>
        <time>2021-08-06 15:12:10</time>
      </trkpt>
      <trkpt lat="37.05415" lon="-3.33663">
        <ele>3142</ele>
        <time>2021-08-06 15:12:11</time>
      </trkpt>
      <trkpt lat="37.05414" lon="-3.33664">
        <ele>3142</ele>
        <time>2021-08-06 15:12:12</time>
      </trkpt>
      <trkpt lat="37.05414" lon="-3.33664">
        <ele>3141.8</ele>
        <time>2021-08-06 15:12:13</time>
      </trkpt>
      <trkpt lat="37.05415" lon="-3.33665">
        <ele>3141.6</ele>
        <time>2021-08-06 15:12:14</time>
      </trkpt>
      <trkpt lat="37.05415" lon="-3.33666">
        <ele>3141.4</ele>
        <time>2021-08-06 15:12:15</time>
      </trkpt>
      <trkpt lat="37.05415" lon="-3.33666">
        <ele>3141.4</ele>
        <time>2021-08-06 15:12:16</time>
      </trkpt>
      <trkpt lat="37.05415" lon="-3.33667">
        <ele>3141.2</ele>
        <time>2021-08-06 15:12:17</time>
      </trkpt>
      <trkpt lat="37.05415" lon="-3.33668">
        <ele>3141</ele>
        <time>2021-08-06 15:12:18</time>
      </trkpt>
      <trkpt lat="37.05415" lon="-3.33669">
        <ele>3140.8</ele>
        <time>2021-08-06 15:12:19</time>
      </trkpt>
      <trkpt lat="37.05415" lon="-3.3367">
        <ele>3140.2</ele>
        <time>2021-08-06 15:12:20</time>
      </trkpt>
      <trkpt lat="37.05414" lon="-3.33671">
        <ele>3140</ele>
        <time>2021-08-06 15:12:21</time>
      </trkpt>
      <trkpt lat="37.05414" lon="-3.33672">
        <ele>3139.6</ele>
        <time>2021-08-06 15:12:22</time>
      </trkpt>
      <trkpt lat="37.05414" lon="-3.33673">
        <ele>3139.4</ele>
        <time>2021-08-06 15:12:23</time>
      </trkpt>
      <trkpt lat="37.05414" lon="-3.33674">
        <ele>3139.2</ele>
        <time>2021-08-06 15:12:24</time>
      </trkpt>
      <trkpt lat="37.05413" lon="-3.33675">
        <ele>3139</ele>
        <time>2021-08-06 15:12:25</time>
      </trkpt>
      <trkpt lat="37.05413" lon="-3.33676">
        <ele>3139</ele>
        <time>2021-08-06 15:12:26</time>
      </trkpt>
      <trkpt lat="37.05413" lon="-3.33677">
        <ele>3138.8</ele>
        <time>2021-08-06 15:12:27</time>
      </trkpt>
      <trkpt lat="37.05413" lon="-3.33678">
        <ele>3138.8</ele>
        <time>2021-08-06 15:12:28</time>
      </trkpt>
      <trkpt lat="37.05413" lon="-3.33678">
        <ele>3138.8</ele>
        <time>2021-08-06 15:12:29</time>
      </trkpt>
      <trkpt lat="37.05413" lon="-3.33679">
        <ele>3138.4</ele>
        <time>2021-08-06 15:12:30</time>
      </trkpt>
      <trkpt lat="37.05413" lon="-3.3368">
        <ele>3138.4</ele>
        <time>2021-08-06 15:12:31</time>
      </trkpt>
      <trkpt lat="37.05412" lon="-3.33681">
        <ele>3138.4</ele>
        <time>2021-08-06 15:12:32</time>
      </trkpt>
      <trkpt lat="37.05412" lon="-3.33682">
        <ele>3138.4</ele>
        <time>2021-08-06 15:12:33</time>
      </trkpt>
      <trkpt lat="37.05412" lon="-3.33682">
        <ele>3138.2</ele>
        <time>2021-08-06 15:12:34</time>
      </trkpt>
      <trkpt lat="37.05412" lon="-3.33683">
        <ele>3138</ele>
        <time>2021-08-06 15:12:35</time>
      </trkpt>
      <trkpt lat="37.05412" lon="-3.33684">
        <ele>3138</ele>
        <time>2021-08-06 15:12:36</time>
      </trkpt>
      <trkpt lat="37.05411" lon="-3.33685">
        <ele>3137.8</ele>
        <time>2021-08-06 15:12:37</time>
      </trkpt>
      <trkpt lat="37.05411" lon="-3.33686">
        <ele>3137.8</ele>
        <time>2021-08-06 15:12:38</time>
      </trkpt>
      <trkpt lat="37.05411" lon="-3.33687">
        <ele>3137.8</ele>
        <time>2021-08-06 15:12:39</time>
      </trkpt>
      <trkpt lat="37.0541" lon="-3.33688">
        <ele>3137.8</ele>
        <time>2021-08-06 15:12:40</time>
      </trkpt>
      <trkpt lat="37.0541" lon="-3.33689">
        <ele>3137.8</ele>
        <time>2021-08-06 15:12:41</time>
      </trkpt>
      <trkpt lat="37.05409" lon="-3.3369">
        <ele>3137.6</ele>
        <time>2021-08-06 15:12:42</time>
      </trkpt>
      <trkpt lat="37.05409" lon="-3.33691">
        <ele>3137.4</ele>
        <time>2021-08-06 15:12:43</time>
      </trkpt>
      <trkpt lat="37.05409" lon="-3.33692">
        <ele>3137.2</ele>
        <time>2021-08-06 15:12:44</time>
      </trkpt>
      <trkpt lat="37.05409" lon="-3.33693">
        <ele>3136.8</ele>
        <time>2021-08-06 15:12:45</time>
      </trkpt>
      <trkpt lat="37.05409" lon="-3.33694">
        <ele>3136.6</ele>
        <time>2021-08-06 15:12:46</time>
      </trkpt>
      <trkpt lat="37.05409" lon="-3.33695">
        <ele>3136.2</ele>
        <time>2021-08-06 15:12:47</time>
      </trkpt>
      <trkpt lat="37.05409" lon="-3.33696">
        <ele>3136.2</ele>
        <time>2021-08-06 15:12:48</time>
      </trkpt>
      <trkpt lat="37.05409" lon="-3.33697">
        <ele>3136</ele>
        <time>2021-08-06 15:12:49</time>
      </trkpt>
      <trkpt lat="37.0541" lon="-3.33699">
        <ele>3135.8</ele>
        <time>2021-08-06 15:12:50</time>
      </trkpt>
      <trkpt lat="37.0541" lon="-3.337">
        <ele>3135.6</ele>
        <time>2021-08-06 15:12:51</time>
      </trkpt>
      <trkpt lat="37.0541" lon="-3.33701">
        <ele>3135.4</ele>
        <time>2021-08-06 15:12:52</time>
      </trkpt>
      <trkpt lat="37.0541" lon="-3.33702">
        <ele>3135.2</ele>
        <time>2021-08-06 15:12:53</time>
      </trkpt>
      <trkpt lat="37.0541" lon="-3.33703">
        <ele>3135.2</ele>
        <time>2021-08-06 15:12:54</time>
      </trkpt>
      <trkpt lat="37.0541" lon="-3.33704">
        <ele>3134.8</ele>
        <time>2021-08-06 15:12:55</time>
      </trkpt>
      <trkpt lat="37.0541" lon="-3.33705">
        <ele>3134.4</ele>
        <time>2021-08-06 15:12:56</time>
      </trkpt>
      <trkpt lat="37.0541" lon="-3.33706">
        <ele>3133.8</ele>
        <time>2021-08-06 15:12:57</time>
      </trkpt>
      <trkpt lat="37.0541" lon="-3.33707">
        <ele>3133.4</ele>
        <time>2021-08-06 15:12:58</time>
      </trkpt>
      <trkpt lat="37.0541" lon="-3.33708">
        <ele>3133.2</ele>
        <time>2021-08-06 15:12:59</time>
      </trkpt>
      <trkpt lat="37.0541" lon="-3.33708">
        <ele>3132.8</ele>
        <time>2021-08-06 15:13:00</time>
      </trkpt>
      <trkpt lat="37.05411" lon="-3.33709">
        <ele>3132.4</ele>
        <time>2021-08-06 15:13:01</time>
      </trkpt>
      <trkpt lat="37.0541" lon="-3.33711">
        <ele>3132</ele>
        <time>2021-08-06 15:13:02</time>
      </trkpt>
      <trkpt lat="37.0541" lon="-3.33712">
        <ele>3132</ele>
        <time>2021-08-06 15:13:03</time>
      </trkpt>
      <trkpt lat="37.0541" lon="-3.33714">
        <ele>3131.8</ele>
        <time>2021-08-06 15:13:04</time>
      </trkpt>
      <trkpt lat="37.05409" lon="-3.33715">
        <ele>3131.6</ele>
        <time>2021-08-06 15:13:05</time>
      </trkpt>
      <trkpt lat="37.05409" lon="-3.33716">
        <ele>3131.4</ele>
        <time>2021-08-06 15:13:06</time>
      </trkpt>
      <trkpt lat="37.05409" lon="-3.33717">
        <ele>3131.4</ele>
        <time>2021-08-06 15:13:07</time>
      </trkpt>
      <trkpt lat="37.05409" lon="-3.33718">
        <ele>3131.4</ele>
        <time>2021-08-06 15:13:08</time>
      </trkpt>
      <trkpt lat="37.05409" lon="-3.33718">
        <ele>3131.2</ele>
        <time>2021-08-06 15:13:09</time>
      </trkpt>
      <trkpt lat="37.05409" lon="-3.3372">
        <ele>3131.2</ele>
        <time>2021-08-06 15:13:10</time>
      </trkpt>
      <trkpt lat="37.05409" lon="-3.3372">
        <ele>3131.2</ele>
        <time>2021-08-06 15:13:11</time>
      </trkpt>
      <trkpt lat="37.05409" lon="-3.33721">
        <ele>3131.2</ele>
        <time>2021-08-06 15:13:12</time>
      </trkpt>
      <trkpt lat="37.0541" lon="-3.33722">
        <ele>3131</ele>
        <time>2021-08-06 15:13:13</time>
      </trkpt>
      <trkpt lat="37.0541" lon="-3.33722">
        <ele>3131</ele>
        <time>2021-08-06 15:13:14</time>
      </trkpt>
      <trkpt lat="37.05409" lon="-3.33723">
        <ele>3131</ele>
        <time>2021-08-06 15:13:15</time>
      </trkpt>
      <trkpt lat="37.0541" lon="-3.33723">
        <ele>3131</ele>
        <time>2021-08-06 15:13:16</time>
      </trkpt>
      <trkpt lat="37.0541" lon="-3.33724">
        <ele>3130.8</ele>
        <time>2021-08-06 15:13:17</time>
      </trkpt>
      <trkpt lat="37.0541" lon="-3.33725">
        <ele>3130.8</ele>
        <time>2021-08-06 15:13:18</time>
      </trkpt>
      <trkpt lat="37.0541" lon="-3.33726">
        <ele>3130.6</ele>
        <time>2021-08-06 15:13:19</time>
      </trkpt>
      <trkpt lat="37.05409" lon="-3.33727">
        <ele>3130.4</ele>
        <time>2021-08-06 15:13:20</time>
      </trkpt>
      <trkpt lat="37.05409" lon="-3.33728">
        <ele>3130.2</ele>
        <time>2021-08-06 15:13:21</time>
      </trkpt>
      <trkpt lat="37.05409" lon="-3.33729">
        <ele>3130.2</ele>
        <time>2021-08-06 15:13:22</time>
      </trkpt>
      <trkpt lat="37.05408" lon="-3.3373">
        <ele>3130</ele>
        <time>2021-08-06 15:13:23</time>
      </trkpt>
      <trkpt lat="37.05408" lon="-3.33731">
        <ele>3129.6</ele>
        <time>2021-08-06 15:13:24</time>
      </trkpt>
      <trkpt lat="37.05408" lon="-3.33732">
        <ele>3129.6</ele>
        <time>2021-08-06 15:13:25</time>
      </trkpt>
      <trkpt lat="37.05408" lon="-3.33733">
        <ele>3129.8</ele>
        <time>2021-08-06 15:13:26</time>
      </trkpt>
      <trkpt lat="37.05408" lon="-3.33733">
        <ele>3129.8</ele>
        <time>2021-08-06 15:13:27</time>
      </trkpt>
      <trkpt lat="37.05407" lon="-3.33734">
        <ele>3129.8</ele>
        <time>2021-08-06 15:13:28</time>
      </trkpt>
      <trkpt lat="37.05407" lon="-3.33734">
        <ele>3129.8</ele>
        <time>2021-08-06 15:13:29</time>
      </trkpt>
      <trkpt lat="37.05406" lon="-3.33735">
        <ele>3129.4</ele>
        <time>2021-08-06 15:13:30</time>
      </trkpt>
      <trkpt lat="37.05406" lon="-3.33736">
        <ele>3129.2</ele>
        <time>2021-08-06 15:13:31</time>
      </trkpt>
      <trkpt lat="37.05406" lon="-3.33737">
        <ele>3129</ele>
        <time>2021-08-06 15:13:32</time>
      </trkpt>
      <trkpt lat="37.05406" lon="-3.33738">
        <ele>3128.8</ele>
        <time>2021-08-06 15:13:33</time>
      </trkpt>
      <trkpt lat="37.05406" lon="-3.33739">
        <ele>3128.4</ele>
        <time>2021-08-06 15:13:34</time>
      </trkpt>
      <trkpt lat="37.05405" lon="-3.33739">
        <ele>3128.2</ele>
        <time>2021-08-06 15:13:35</time>
      </trkpt>
      <trkpt lat="37.05405" lon="-3.3374">
        <ele>3128</ele>
        <time>2021-08-06 15:13:36</time>
      </trkpt>
      <trkpt lat="37.05404" lon="-3.33741">
        <ele>3128</ele>
        <time>2021-08-06 15:13:37</time>
      </trkpt>
      <trkpt lat="37.05403" lon="-3.33741">
        <ele>3128</ele>
        <time>2021-08-06 15:13:38</time>
      </trkpt>
      <trkpt lat="37.05403" lon="-3.33742">
        <ele>3127.8</ele>
        <time>2021-08-06 15:13:39</time>
      </trkpt>
      <trkpt lat="37.05403" lon="-3.33743">
        <ele>3127.8</ele>
        <time>2021-08-06 15:13:40</time>
      </trkpt>
      <trkpt lat="37.05403" lon="-3.33744">
        <ele>3127.6</ele>
        <time>2021-08-06 15:13:41</time>
      </trkpt>
      <trkpt lat="37.05402" lon="-3.33745">
        <ele>3127.4</ele>
        <time>2021-08-06 15:13:42</time>
      </trkpt>
      <trkpt lat="37.05402" lon="-3.33745">
        <ele>3126.8</ele>
        <time>2021-08-06 15:13:43</time>
      </trkpt>
      <trkpt lat="37.05402" lon="-3.33747">
        <ele>3126.2</ele>
        <time>2021-08-06 15:13:44</time>
      </trkpt>
      <trkpt lat="37.05402" lon="-3.33748">
        <ele>3126</ele>
        <time>2021-08-06 15:13:45</time>
      </trkpt>
      <trkpt lat="37.05402" lon="-3.33749">
        <ele>3126</ele>
        <time>2021-08-06 15:13:46</time>
      </trkpt>
      <trkpt lat="37.05401" lon="-3.33749">
        <ele>3126</ele>
        <time>2021-08-06 15:13:47</time>
      </trkpt>
      <trkpt lat="37.05401" lon="-3.33751">
        <ele>3126</ele>
        <time>2021-08-06 15:13:48</time>
      </trkpt>
      <trkpt lat="37.054" lon="-3.33752">
        <ele>3126</ele>
        <time>2021-08-06 15:13:49</time>
      </trkpt>
      <trkpt lat="37.054" lon="-3.33753">
        <ele>3126</ele>
        <time>2021-08-06 15:13:50</time>
      </trkpt>
      <trkpt lat="37.05399" lon="-3.33754">
        <ele>3126</ele>
        <time>2021-08-06 15:13:51</time>
      </trkpt>
      <trkpt lat="37.05398" lon="-3.33756">
        <ele>3126</ele>
        <time>2021-08-06 15:13:52</time>
      </trkpt>
      <trkpt lat="37.05398" lon="-3.33757">
        <ele>3125.8</ele>
        <time>2021-08-06 15:13:53</time>
      </trkpt>
      <trkpt lat="37.05397" lon="-3.33758">
        <ele>3125.8</ele>
        <time>2021-08-06 15:13:54</time>
      </trkpt>
      <trkpt lat="37.05397" lon="-3.33759">
        <ele>3125.8</ele>
        <time>2021-08-06 15:13:55</time>
      </trkpt>
      <trkpt lat="37.05397" lon="-3.33759">
        <ele>3125.6</ele>
        <time>2021-08-06 15:13:56</time>
      </trkpt>
      <trkpt lat="37.05397" lon="-3.3376">
        <ele>3125.4</ele>
        <time>2021-08-06 15:13:57</time>
      </trkpt>
      <trkpt lat="37.05397" lon="-3.33761">
        <ele>3125</ele>
        <time>2021-08-06 15:13:58</time>
      </trkpt>
      <trkpt lat="37.05397" lon="-3.33762">
        <ele>3124.8</ele>
        <time>2021-08-06 15:13:59</time>
      </trkpt>
      <trkpt lat="37.05397" lon="-3.33763">
        <ele>3124.4</ele>
        <time>2021-08-06 15:14:00</time>
      </trkpt>
      <trkpt lat="37.05397" lon="-3.33764">
        <ele>3124.2</ele>
        <time>2021-08-06 15:14:01</time>
      </trkpt>
      <trkpt lat="37.05397" lon="-3.33765">
        <ele>3124.2</ele>
        <time>2021-08-06 15:14:02</time>
      </trkpt>
      <trkpt lat="37.05397" lon="-3.33765">
        <ele>3124</ele>
        <time>2021-08-06 15:14:03</time>
      </trkpt>
      <trkpt lat="37.05397" lon="-3.33766">
        <ele>3123.6</ele>
        <time>2021-08-06 15:14:04</time>
      </trkpt>
      <trkpt lat="37.05397" lon="-3.33767">
        <ele>3123.6</ele>
        <time>2021-08-06 15:14:05</time>
      </trkpt>
      <trkpt lat="37.05397" lon="-3.33767">
        <ele>3123.8</ele>
        <time>2021-08-06 15:14:06</time>
      </trkpt>
      <trkpt lat="37.05397" lon="-3.33768">
        <ele>3123.6</ele>
        <time>2021-08-06 15:14:07</time>
      </trkpt>
      <trkpt lat="37.05397" lon="-3.33769">
        <ele>3123.2</ele>
        <time>2021-08-06 15:14:08</time>
      </trkpt>
      <trkpt lat="37.05397" lon="-3.33769">
        <ele>3123.2</ele>
        <time>2021-08-06 15:14:09</time>
      </trkpt>
      <trkpt lat="37.05396" lon="-3.3377">
        <ele>3123</ele>
        <time>2021-08-06 15:14:10</time>
      </trkpt>
      <trkpt lat="37.05396" lon="-3.3377">
        <ele>3122.8</ele>
        <time>2021-08-06 15:14:11</time>
      </trkpt>
      <trkpt lat="37.05396" lon="-3.3377">
        <ele>3122.8</ele>
        <time>2021-08-06 15:14:12</time>
      </trkpt>
      <trkpt lat="37.05395" lon="-3.3377">
        <ele>3122.6</ele>
        <time>2021-08-06 15:14:13</time>
      </trkpt>
      <trkpt lat="37.05394" lon="-3.3377">
        <ele>3122.4</ele>
        <time>2021-08-06 15:14:14</time>
      </trkpt>
      <trkpt lat="37.05394" lon="-3.33771">
        <ele>3122.4</ele>
        <time>2021-08-06 15:14:15</time>
      </trkpt>
      <trkpt lat="37.05394" lon="-3.33771">
        <ele>3122.2</ele>
        <time>2021-08-06 15:14:16</time>
      </trkpt>
      <trkpt lat="37.05394" lon="-3.33773">
        <ele>3122</ele>
        <time>2021-08-06 15:14:17</time>
      </trkpt>
      <trkpt lat="37.05393" lon="-3.33774">
        <ele>3121.8</ele>
        <time>2021-08-06 15:14:18</time>
      </trkpt>
      <trkpt lat="37.05394" lon="-3.33774">
        <ele>3121.6</ele>
        <time>2021-08-06 15:14:19</time>
      </trkpt>
      <trkpt lat="37.05393" lon="-3.33775">
        <ele>3121.6</ele>
        <time>2021-08-06 15:14:20</time>
      </trkpt>
      <trkpt lat="37.05393" lon="-3.33776">
        <ele>3121.6</ele>
        <time>2021-08-06 15:14:21</time>
      </trkpt>
      <trkpt lat="37.05393" lon="-3.33777">
        <ele>3121.4</ele>
        <time>2021-08-06 15:14:22</time>
      </trkpt>
      <trkpt lat="37.05392" lon="-3.33778">
        <ele>3121.4</ele>
        <time>2021-08-06 15:14:23</time>
      </trkpt>
      <trkpt lat="37.05392" lon="-3.33778">
        <ele>3121.4</ele>
        <time>2021-08-06 15:14:24</time>
      </trkpt>
      <trkpt lat="37.05391" lon="-3.33778">
        <ele>3121.2</ele>
        <time>2021-08-06 15:14:25</time>
      </trkpt>
      <trkpt lat="37.05391" lon="-3.33778">
        <ele>3121</ele>
        <time>2021-08-06 15:14:26</time>
      </trkpt>
      <trkpt lat="37.0539" lon="-3.33778">
        <ele>3121</ele>
        <time>2021-08-06 15:14:27</time>
      </trkpt>
      <trkpt lat="37.0539" lon="-3.33779">
        <ele>3120.8</ele>
        <time>2021-08-06 15:14:28</time>
      </trkpt>
      <trkpt lat="37.0539" lon="-3.3378">
        <ele>3120.6</ele>
        <time>2021-08-06 15:14:29</time>
      </trkpt>
      <trkpt lat="37.0539" lon="-3.3378">
        <ele>3120.4</ele>
        <time>2021-08-06 15:14:30</time>
      </trkpt>
      <trkpt lat="37.0539" lon="-3.33781">
        <ele>3119.8</ele>
        <time>2021-08-06 15:14:31</time>
      </trkpt>
      <trkpt lat="37.05389" lon="-3.33782">
        <ele>3119</ele>
        <time>2021-08-06 15:14:32</time>
      </trkpt>
      <trkpt lat="37.05389" lon="-3.33782">
        <ele>3118.8</ele>
        <time>2021-08-06 15:14:33</time>
      </trkpt>
      <trkpt lat="37.05389" lon="-3.33783">
        <ele>3118.6</ele>
        <time>2021-08-06 15:14:34</time>
      </trkpt>
      <trkpt lat="37.05388" lon="-3.33784">
        <ele>3118.4</ele>
        <time>2021-08-06 15:14:35</time>
      </trkpt>
      <trkpt lat="37.05387" lon="-3.33785">
        <ele>3118.2</ele>
        <time>2021-08-06 15:14:36</time>
      </trkpt>
      <trkpt lat="37.05387" lon="-3.33786">
        <ele>3118</ele>
        <time>2021-08-06 15:14:37</time>
      </trkpt>
      <trkpt lat="37.05387" lon="-3.33787">
        <ele>3117.6</ele>
        <time>2021-08-06 15:14:38</time>
      </trkpt>
      <trkpt lat="37.05387" lon="-3.33788">
        <ele>3117.2</ele>
        <time>2021-08-06 15:14:39</time>
      </trkpt>
      <trkpt lat="37.05387" lon="-3.33788">
        <ele>3117</ele>
        <time>2021-08-06 15:14:40</time>
      </trkpt>
      <trkpt lat="37.05386" lon="-3.33789">
        <ele>3117</ele>
        <time>2021-08-06 15:14:41</time>
      </trkpt>
      <trkpt lat="37.05386" lon="-3.3379">
        <ele>3117</ele>
        <time>2021-08-06 15:14:42</time>
      </trkpt>
      <trkpt lat="37.05386" lon="-3.33791">
        <ele>3116.8</ele>
        <time>2021-08-06 15:14:43</time>
      </trkpt>
      <trkpt lat="37.05386" lon="-3.33792">
        <ele>3116.8</ele>
        <time>2021-08-06 15:14:44</time>
      </trkpt>
      <trkpt lat="37.05385" lon="-3.33793">
        <ele>3116.8</ele>
        <time>2021-08-06 15:14:45</time>
      </trkpt>
      <trkpt lat="37.05385" lon="-3.33794">
        <ele>3116.8</ele>
        <time>2021-08-06 15:14:46</time>
      </trkpt>
      <trkpt lat="37.05385" lon="-3.33795">
        <ele>3116.8</ele>
        <time>2021-08-06 15:14:47</time>
      </trkpt>
      <trkpt lat="37.05384" lon="-3.33797">
        <ele>3116.6</ele>
        <time>2021-08-06 15:14:48</time>
      </trkpt>
      <trkpt lat="37.05383" lon="-3.33798">
        <ele>3116.4</ele>
        <time>2021-08-06 15:14:49</time>
      </trkpt>
      <trkpt lat="37.05383" lon="-3.33799">
        <ele>3116</ele>
        <time>2021-08-06 15:14:50</time>
      </trkpt>
      <trkpt lat="37.05383" lon="-3.33801">
        <ele>3115.8</ele>
        <time>2021-08-06 15:14:51</time>
      </trkpt>
      <trkpt lat="37.05384" lon="-3.33802">
        <ele>3115.6</ele>
        <time>2021-08-06 15:14:52</time>
      </trkpt>
      <trkpt lat="37.05384" lon="-3.33803">
        <ele>3115.4</ele>
        <time>2021-08-06 15:14:53</time>
      </trkpt>
      <trkpt lat="37.05384" lon="-3.33805">
        <ele>3115.4</ele>
        <time>2021-08-06 15:14:54</time>
      </trkpt>
      <trkpt lat="37.05384" lon="-3.33806">
        <ele>3115</ele>
        <time>2021-08-06 15:14:55</time>
      </trkpt>
      <trkpt lat="37.05384" lon="-3.33807">
        <ele>3114.8</ele>
        <time>2021-08-06 15:14:56</time>
      </trkpt>
      <trkpt lat="37.05385" lon="-3.33809">
        <ele>3114.6</ele>
        <time>2021-08-06 15:14:57</time>
      </trkpt>
      <trkpt lat="37.05385" lon="-3.3381">
        <ele>3114.6</ele>
        <time>2021-08-06 15:14:58</time>
      </trkpt>
      <trkpt lat="37.05386" lon="-3.33811">
        <ele>3114.4</ele>
        <time>2021-08-06 15:14:59</time>
      </trkpt>
      <trkpt lat="37.05386" lon="-3.33812">
        <ele>3114</ele>
        <time>2021-08-06 15:15:00</time>
      </trkpt>
      <trkpt lat="37.05386" lon="-3.33813">
        <ele>3113.8</ele>
        <time>2021-08-06 15:15:01</time>
      </trkpt>
      <trkpt lat="37.05386" lon="-3.33814">
        <ele>3113.8</ele>
        <time>2021-08-06 15:15:02</time>
      </trkpt>
      <trkpt lat="37.05386" lon="-3.33815">
        <ele>3113.8</ele>
        <time>2021-08-06 15:15:03</time>
      </trkpt>
      <trkpt lat="37.05385" lon="-3.33816">
        <ele>3113.6</ele>
        <time>2021-08-06 15:15:04</time>
      </trkpt>
      <trkpt lat="37.05385" lon="-3.33818">
        <ele>3113.4</ele>
        <time>2021-08-06 15:15:05</time>
      </trkpt>
      <trkpt lat="37.05385" lon="-3.33819">
        <ele>3113.4</ele>
        <time>2021-08-06 15:15:06</time>
      </trkpt>
      <trkpt lat="37.05385" lon="-3.3382">
        <ele>3113.4</ele>
        <time>2021-08-06 15:15:07</time>
      </trkpt>
      <trkpt lat="37.05385" lon="-3.33822">
        <ele>3113.4</ele>
        <time>2021-08-06 15:15:08</time>
      </trkpt>
      <trkpt lat="37.05384" lon="-3.33824">
        <ele>3113.2</ele>
        <time>2021-08-06 15:15:09</time>
      </trkpt>
      <trkpt lat="37.05384" lon="-3.33825">
        <ele>3113.2</ele>
        <time>2021-08-06 15:15:10</time>
      </trkpt>
      <trkpt lat="37.05383" lon="-3.33827">
        <ele>3113.2</ele>
        <time>2021-08-06 15:15:11</time>
      </trkpt>
      <trkpt lat="37.05383" lon="-3.33828">
        <ele>3113.4</ele>
        <time>2021-08-06 15:15:12</time>
      </trkpt>
      <trkpt lat="37.05384" lon="-3.3383">
        <ele>3113.4</ele>
        <time>2021-08-06 15:15:13</time>
      </trkpt>
      <trkpt lat="37.05384" lon="-3.33831">
        <ele>3113.4</ele>
        <time>2021-08-06 15:15:14</time>
      </trkpt>
      <trkpt lat="37.05384" lon="-3.33832">
        <ele>3113.4</ele>
        <time>2021-08-06 15:15:15</time>
      </trkpt>
      <trkpt lat="37.05385" lon="-3.33833">
        <ele>3113</ele>
        <time>2021-08-06 15:15:16</time>
      </trkpt>
      <trkpt lat="37.05385" lon="-3.33834">
        <ele>3112.8</ele>
        <time>2021-08-06 15:15:17</time>
      </trkpt>
      <trkpt lat="37.05385" lon="-3.33835">
        <ele>3112.8</ele>
        <time>2021-08-06 15:15:18</time>
      </trkpt>
      <trkpt lat="37.05385" lon="-3.33837">
        <ele>3112.6</ele>
        <time>2021-08-06 15:15:19</time>
      </trkpt>
      <trkpt lat="37.05386" lon="-3.33838">
        <ele>3112.6</ele>
        <time>2021-08-06 15:15:20</time>
      </trkpt>
      <trkpt lat="37.05385" lon="-3.33839">
        <ele>3112.6</ele>
        <time>2021-08-06 15:15:21</time>
      </trkpt>
      <trkpt lat="37.05385" lon="-3.33841">
        <ele>3112.4</ele>
        <time>2021-08-06 15:15:22</time>
      </trkpt>
      <trkpt lat="37.05385" lon="-3.33842">
        <ele>3112.4</ele>
        <time>2021-08-06 15:15:23</time>
      </trkpt>
      <trkpt lat="37.05386" lon="-3.33843">
        <ele>3112.2</ele>
        <time>2021-08-06 15:15:24</time>
      </trkpt>
      <trkpt lat="37.05385" lon="-3.33844">
        <ele>3112</ele>
        <time>2021-08-06 15:15:25</time>
      </trkpt>
      <trkpt lat="37.05386" lon="-3.33845">
        <ele>3112</ele>
        <time>2021-08-06 15:15:26</time>
      </trkpt>
      <trkpt lat="37.05386" lon="-3.33846">
        <ele>3111.8</ele>
        <time>2021-08-06 15:15:27</time>
      </trkpt>
      <trkpt lat="37.05386" lon="-3.33847">
        <ele>3111.8</ele>
        <time>2021-08-06 15:15:28</time>
      </trkpt>
      <trkpt lat="37.05386" lon="-3.33849">
        <ele>3111.8</ele>
        <time>2021-08-06 15:15:29</time>
      </trkpt>
      <trkpt lat="37.05385" lon="-3.33851">
        <ele>3112</ele>
        <time>2021-08-06 15:15:30</time>
      </trkpt>
      <trkpt lat="37.05385" lon="-3.33852">
        <ele>3112.2</ele>
        <time>2021-08-06 15:15:31</time>
      </trkpt>
      <trkpt lat="37.05385" lon="-3.33854">
        <ele>3112.2</ele>
        <time>2021-08-06 15:15:32</time>
      </trkpt>
      <trkpt lat="37.05385" lon="-3.33855">
        <ele>3112</ele>
        <time>2021-08-06 15:15:33</time>
      </trkpt>
      <trkpt lat="37.05385" lon="-3.33856">
        <ele>3111.8</ele>
        <time>2021-08-06 15:15:34</time>
      </trkpt>
      <trkpt lat="37.05385" lon="-3.33858">
        <ele>3111.8</ele>
        <time>2021-08-06 15:15:35</time>
      </trkpt>
      <trkpt lat="37.05386" lon="-3.33859">
        <ele>3111.8</ele>
        <time>2021-08-06 15:15:36</time>
      </trkpt>
      <trkpt lat="37.05386" lon="-3.3386">
        <ele>3111.8</ele>
        <time>2021-08-06 15:15:37</time>
      </trkpt>
      <trkpt lat="37.05386" lon="-3.33862">
        <ele>3111.6</ele>
        <time>2021-08-06 15:15:38</time>
      </trkpt>
      <trkpt lat="37.05386" lon="-3.33863">
        <ele>3111.6</ele>
        <time>2021-08-06 15:15:39</time>
      </trkpt>
      <trkpt lat="37.05386" lon="-3.33864">
        <ele>3111.6</ele>
        <time>2021-08-06 15:15:40</time>
      </trkpt>
      <trkpt lat="37.05387" lon="-3.33865">
        <ele>3111.6</ele>
        <time>2021-08-06 15:15:41</time>
      </trkpt>
      <trkpt lat="37.05387" lon="-3.33866">
        <ele>3111.6</ele>
        <time>2021-08-06 15:15:42</time>
      </trkpt>
      <trkpt lat="37.05387" lon="-3.33867">
        <ele>3111.4</ele>
        <time>2021-08-06 15:15:43</time>
      </trkpt>
      <trkpt lat="37.05387" lon="-3.33868">
        <ele>3111.4</ele>
        <time>2021-08-06 15:15:44</time>
      </trkpt>
      <trkpt lat="37.05387" lon="-3.33869">
        <ele>3111.2</ele>
        <time>2021-08-06 15:15:45</time>
      </trkpt>
      <trkpt lat="37.05388" lon="-3.3387">
        <ele>3111.4</ele>
        <time>2021-08-06 15:15:46</time>
      </trkpt>
      <trkpt lat="37.05388" lon="-3.33871">
        <ele>3111.4</ele>
        <time>2021-08-06 15:15:47</time>
      </trkpt>
      <trkpt lat="37.05388" lon="-3.33872">
        <ele>3111.2</ele>
        <time>2021-08-06 15:15:48</time>
      </trkpt>
      <trkpt lat="37.05389" lon="-3.33873">
        <ele>3111.2</ele>
        <time>2021-08-06 15:15:49</time>
      </trkpt>
      <trkpt lat="37.05389" lon="-3.33873">
        <ele>3111.2</ele>
        <time>2021-08-06 15:15:50</time>
      </trkpt>
      <trkpt lat="37.05389" lon="-3.33873">
        <ele>3111.2</ele>
        <time>2021-08-06 15:15:51</time>
      </trkpt>
      <trkpt lat="37.05388" lon="-3.33873">
        <ele>3111</ele>
        <time>2021-08-06 15:15:52</time>
      </trkpt>
      <trkpt lat="37.05388" lon="-3.33874">
        <ele>3111</ele>
        <time>2021-08-06 15:15:53</time>
      </trkpt>
      <trkpt lat="37.05388" lon="-3.33876">
        <ele>3110.8</ele>
        <time>2021-08-06 15:15:54</time>
      </trkpt>
      <trkpt lat="37.05388" lon="-3.33877">
        <ele>3110.8</ele>
        <time>2021-08-06 15:15:55</time>
      </trkpt>
      <trkpt lat="37.05388" lon="-3.33878">
        <ele>3110.8</ele>
        <time>2021-08-06 15:15:56</time>
      </trkpt>
      <trkpt lat="37.05389" lon="-3.3388">
        <ele>3110.8</ele>
        <time>2021-08-06 15:15:57</time>
      </trkpt>
      <trkpt lat="37.05389" lon="-3.33881">
        <ele>3110.8</ele>
        <time>2021-08-06 15:15:58</time>
      </trkpt>
      <trkpt lat="37.05389" lon="-3.33882">
        <ele>3111</ele>
        <time>2021-08-06 15:15:59</time>
      </trkpt>
      <trkpt lat="37.05389" lon="-3.33884">
        <ele>3110.8</ele>
        <time>2021-08-06 15:16:00</time>
      </trkpt>
      <trkpt lat="37.05389" lon="-3.33886">
        <ele>3110.8</ele>
        <time>2021-08-06 15:16:01</time>
      </trkpt>
      <trkpt lat="37.05389" lon="-3.33887">
        <ele>3110.6</ele>
        <time>2021-08-06 15:16:02</time>
      </trkpt>
      <trkpt lat="37.05389" lon="-3.33888">
        <ele>3110.6</ele>
        <time>2021-08-06 15:16:03</time>
      </trkpt>
      <trkpt lat="37.05389" lon="-3.3389">
        <ele>3110.4</ele>
        <time>2021-08-06 15:16:04</time>
      </trkpt>
      <trkpt lat="37.05389" lon="-3.33891">
        <ele>3110.4</ele>
        <time>2021-08-06 15:16:05</time>
      </trkpt>
      <trkpt lat="37.05389" lon="-3.33892">
        <ele>3110.4</ele>
        <time>2021-08-06 15:16:06</time>
      </trkpt>
      <trkpt lat="37.05389" lon="-3.33894">
        <ele>3110.4</ele>
        <time>2021-08-06 15:16:07</time>
      </trkpt>
      <trkpt lat="37.05389" lon="-3.33895">
        <ele>3110.4</ele>
        <time>2021-08-06 15:16:08</time>
      </trkpt>
      <trkpt lat="37.05389" lon="-3.33897">
        <ele>3110.4</ele>
        <time>2021-08-06 15:16:09</time>
      </trkpt>
      <trkpt lat="37.05389" lon="-3.33898">
        <ele>3110.2</ele>
        <time>2021-08-06 15:16:10</time>
      </trkpt>
      <trkpt lat="37.05389" lon="-3.33899">
        <ele>3110.2</ele>
        <time>2021-08-06 15:16:11</time>
      </trkpt>
      <trkpt lat="37.05389" lon="-3.339">
        <ele>3110</ele>
        <time>2021-08-06 15:16:12</time>
      </trkpt>
      <trkpt lat="37.05389" lon="-3.33901">
        <ele>3110</ele>
        <time>2021-08-06 15:16:13</time>
      </trkpt>
      <trkpt lat="37.0539" lon="-3.33902">
        <ele>3110</ele>
        <time>2021-08-06 15:16:14</time>
      </trkpt>
      <trkpt lat="37.0539" lon="-3.33902">
        <ele>3109.8</ele>
        <time>2021-08-06 15:16:15</time>
      </trkpt>
      <trkpt lat="37.05391" lon="-3.33903">
        <ele>3109.6</ele>
        <time>2021-08-06 15:16:16</time>
      </trkpt>
      <trkpt lat="37.05391" lon="-3.33904">
        <ele>3109.2</ele>
        <time>2021-08-06 15:16:17</time>
      </trkpt>
      <trkpt lat="37.05391" lon="-3.33905">
        <ele>3109</ele>
        <time>2021-08-06 15:16:18</time>
      </trkpt>
      <trkpt lat="37.05391" lon="-3.33906">
        <ele>3108.8</ele>
        <time>2021-08-06 15:16:19</time>
      </trkpt>
      <trkpt lat="37.05391" lon="-3.33908">
        <ele>3108.6</ele>
        <time>2021-08-06 15:16:20</time>
      </trkpt>
      <trkpt lat="37.05391" lon="-3.33909">
        <ele>3108.6</ele>
        <time>2021-08-06 15:16:21</time>
      </trkpt>
      <trkpt lat="37.0539" lon="-3.33911">
        <ele>3108.4</ele>
        <time>2021-08-06 15:16:22</time>
      </trkpt>
      <trkpt lat="37.0539" lon="-3.33912">
        <ele>3108.2</ele>
        <time>2021-08-06 15:16:23</time>
      </trkpt>
      <trkpt lat="37.0539" lon="-3.33913">
        <ele>3108</ele>
        <time>2021-08-06 15:16:24</time>
      </trkpt>
      <trkpt lat="37.0539" lon="-3.33914">
        <ele>3108</ele>
        <time>2021-08-06 15:16:25</time>
      </trkpt>
      <trkpt lat="37.0539" lon="-3.33916">
        <ele>3107.8</ele>
        <time>2021-08-06 15:16:26</time>
      </trkpt>
      <trkpt lat="37.05391" lon="-3.33917">
        <ele>3107.8</ele>
        <time>2021-08-06 15:16:27</time>
      </trkpt>
      <trkpt lat="37.05391" lon="-3.33918">
        <ele>3107.6</ele>
        <time>2021-08-06 15:16:28</time>
      </trkpt>
      <trkpt lat="37.05391" lon="-3.33919">
        <ele>3107.6</ele>
        <time>2021-08-06 15:16:29</time>
      </trkpt>
      <trkpt lat="37.05391" lon="-3.3392">
        <ele>3107.6</ele>
        <time>2021-08-06 15:16:30</time>
      </trkpt>
      <trkpt lat="37.05391" lon="-3.33921">
        <ele>3107.6</ele>
        <time>2021-08-06 15:16:31</time>
      </trkpt>
      <trkpt lat="37.05391" lon="-3.33922">
        <ele>3107.6</ele>
        <time>2021-08-06 15:16:32</time>
      </trkpt>
      <trkpt lat="37.05392" lon="-3.33923">
        <ele>3107.4</ele>
        <time>2021-08-06 15:16:33</time>
      </trkpt>
      <trkpt lat="37.05392" lon="-3.33924">
        <ele>3107</ele>
        <time>2021-08-06 15:16:34</time>
      </trkpt>
      <trkpt lat="37.05392" lon="-3.33925">
        <ele>3106.6</ele>
        <time>2021-08-06 15:16:35</time>
      </trkpt>
      <trkpt lat="37.05392" lon="-3.33926">
        <ele>3106.2</ele>
        <time>2021-08-06 15:16:36</time>
      </trkpt>
      <trkpt lat="37.05392" lon="-3.33927">
        <ele>3106</ele>
        <time>2021-08-06 15:16:37</time>
      </trkpt>
      <trkpt lat="37.05392" lon="-3.33929">
        <ele>3106</ele>
        <time>2021-08-06 15:16:38</time>
      </trkpt>
      <trkpt lat="37.05392" lon="-3.3393">
        <ele>3106</ele>
        <time>2021-08-06 15:16:39</time>
      </trkpt>
      <trkpt lat="37.05391" lon="-3.33932">
        <ele>3106</ele>
        <time>2021-08-06 15:16:40</time>
      </trkpt>
      <trkpt lat="37.05391" lon="-3.33933">
        <ele>3106</ele>
        <time>2021-08-06 15:16:41</time>
      </trkpt>
      <trkpt lat="37.05391" lon="-3.33935">
        <ele>3106</ele>
        <time>2021-08-06 15:16:42</time>
      </trkpt>
      <trkpt lat="37.05391" lon="-3.33936">
        <ele>3105.8</ele>
        <time>2021-08-06 15:16:43</time>
      </trkpt>
      <trkpt lat="37.05391" lon="-3.33938">
        <ele>3105.8</ele>
        <time>2021-08-06 15:16:44</time>
      </trkpt>
      <trkpt lat="37.05391" lon="-3.33939">
        <ele>3105.6</ele>
        <time>2021-08-06 15:16:45</time>
      </trkpt>
      <trkpt lat="37.05391" lon="-3.33941">
        <ele>3105.4</ele>
        <time>2021-08-06 15:16:46</time>
      </trkpt>
      <trkpt lat="37.05391" lon="-3.33943">
        <ele>3105</ele>
        <time>2021-08-06 15:16:47</time>
      </trkpt>
      <trkpt lat="37.0539" lon="-3.33944">
        <ele>3105</ele>
        <time>2021-08-06 15:16:48</time>
      </trkpt>
      <trkpt lat="37.0539" lon="-3.33946">
        <ele>3104.8</ele>
        <time>2021-08-06 15:16:49</time>
      </trkpt>
      <trkpt lat="37.0539" lon="-3.33948">
        <ele>3104.8</ele>
        <time>2021-08-06 15:16:50</time>
      </trkpt>
      <trkpt lat="37.05389" lon="-3.33949">
        <ele>3104.6</ele>
        <time>2021-08-06 15:16:51</time>
      </trkpt>
      <trkpt lat="37.05389" lon="-3.33951">
        <ele>3104.6</ele>
        <time>2021-08-06 15:16:52</time>
      </trkpt>
      <trkpt lat="37.05389" lon="-3.33953">
        <ele>3104.4</ele>
        <time>2021-08-06 15:16:53</time>
      </trkpt>
      <trkpt lat="37.05389" lon="-3.33954">
        <ele>3104.2</ele>
        <time>2021-08-06 15:16:54</time>
      </trkpt>
      <trkpt lat="37.05389" lon="-3.33955">
        <ele>3104.2</ele>
        <time>2021-08-06 15:16:55</time>
      </trkpt>
      <trkpt lat="37.05389" lon="-3.33956">
        <ele>3104</ele>
        <time>2021-08-06 15:16:56</time>
      </trkpt>
      <trkpt lat="37.05389" lon="-3.33957">
        <ele>3103.8</ele>
        <time>2021-08-06 15:16:57</time>
      </trkpt>
      <trkpt lat="37.05389" lon="-3.33959">
        <ele>3103.8</ele>
        <time>2021-08-06 15:16:58</time>
      </trkpt>
      <trkpt lat="37.05389" lon="-3.3396">
        <ele>3103.6</ele>
        <time>2021-08-06 15:16:59</time>
      </trkpt>
      <trkpt lat="37.05389" lon="-3.33961">
        <ele>3103.6</ele>
        <time>2021-08-06 15:17:00</time>
      </trkpt>
      <trkpt lat="37.05389" lon="-3.33962">
        <ele>3103.6</ele>
        <time>2021-08-06 15:17:01</time>
      </trkpt>
      <trkpt lat="37.05389" lon="-3.33964">
        <ele>3103.4</ele>
        <time>2021-08-06 15:17:02</time>
      </trkpt>
      <trkpt lat="37.0539" lon="-3.33965">
        <ele>3103.4</ele>
        <time>2021-08-06 15:17:03</time>
      </trkpt>
      <trkpt lat="37.0539" lon="-3.33967">
        <ele>3103</ele>
        <time>2021-08-06 15:17:04</time>
      </trkpt>
      <trkpt lat="37.0539" lon="-3.33968">
        <ele>3102.8</ele>
        <time>2021-08-06 15:17:05</time>
      </trkpt>
      <trkpt lat="37.05389" lon="-3.33969">
        <ele>3102.8</ele>
        <time>2021-08-06 15:17:06</time>
      </trkpt>
      <trkpt lat="37.05389" lon="-3.33971">
        <ele>3102.6</ele>
        <time>2021-08-06 15:17:07</time>
      </trkpt>
      <trkpt lat="37.05389" lon="-3.33973">
        <ele>3102.6</ele>
        <time>2021-08-06 15:17:08</time>
      </trkpt>
      <trkpt lat="37.05389" lon="-3.33974">
        <ele>3102.6</ele>
        <time>2021-08-06 15:17:09</time>
      </trkpt>
      <trkpt lat="37.05389" lon="-3.33976">
        <ele>3102.6</ele>
        <time>2021-08-06 15:17:10</time>
      </trkpt>
      <trkpt lat="37.05389" lon="-3.33977">
        <ele>3102.6</ele>
        <time>2021-08-06 15:17:11</time>
      </trkpt>
      <trkpt lat="37.0539" lon="-3.33978">
        <ele>3102.6</ele>
        <time>2021-08-06 15:17:12</time>
      </trkpt>
      <trkpt lat="37.0539" lon="-3.33979">
        <ele>3102.4</ele>
        <time>2021-08-06 15:17:13</time>
      </trkpt>
      <trkpt lat="37.05391" lon="-3.3398">
        <ele>3102.4</ele>
        <time>2021-08-06 15:17:14</time>
      </trkpt>
      <trkpt lat="37.05392" lon="-3.33981">
        <ele>3102</ele>
        <time>2021-08-06 15:17:15</time>
      </trkpt>
      <trkpt lat="37.05392" lon="-3.33983">
        <ele>3101.8</ele>
        <time>2021-08-06 15:17:16</time>
      </trkpt>
      <trkpt lat="37.05392" lon="-3.33984">
        <ele>3101.6</ele>
        <time>2021-08-06 15:17:17</time>
      </trkpt>
      <trkpt lat="37.05393" lon="-3.33986">
        <ele>3101.6</ele>
        <time>2021-08-06 15:17:18</time>
      </trkpt>
      <trkpt lat="37.05393" lon="-3.33987">
        <ele>3101.4</ele>
        <time>2021-08-06 15:17:19</time>
      </trkpt>
      <trkpt lat="37.05393" lon="-3.33988">
        <ele>3101.4</ele>
        <time>2021-08-06 15:17:20</time>
      </trkpt>
      <trkpt lat="37.05393" lon="-3.33989">
        <ele>3101.4</ele>
        <time>2021-08-06 15:17:21</time>
      </trkpt>
      <trkpt lat="37.05393" lon="-3.3399">
        <ele>3101.2</ele>
        <time>2021-08-06 15:17:22</time>
      </trkpt>
      <trkpt lat="37.05394" lon="-3.33988">
        <ele>3101</ele>
        <time>2021-08-06 15:17:23</time>
      </trkpt>
      <trkpt lat="37.05394" lon="-3.33991">
        <ele>3100.8</ele>
        <time>2021-08-06 15:17:24</time>
      </trkpt>
      <trkpt lat="37.05394" lon="-3.33992">
        <ele>3100.6</ele>
        <time>2021-08-06 15:17:25</time>
      </trkpt>
      <trkpt lat="37.05394" lon="-3.33993">
        <ele>3100.6</ele>
        <time>2021-08-06 15:17:26</time>
      </trkpt>
      <trkpt lat="37.05395" lon="-3.33995">
        <ele>3100.4</ele>
        <time>2021-08-06 15:17:27</time>
      </trkpt>
      <trkpt lat="37.05395" lon="-3.33996">
        <ele>3100.4</ele>
        <time>2021-08-06 15:17:28</time>
      </trkpt>
      <trkpt lat="37.05395" lon="-3.33997">
        <ele>3100.4</ele>
        <time>2021-08-06 15:17:29</time>
      </trkpt>
      <trkpt lat="37.05395" lon="-3.33998">
        <ele>3100.6</ele>
        <time>2021-08-06 15:17:30</time>
      </trkpt>
      <trkpt lat="37.05395" lon="-3.33999">
        <ele>3100.4</ele>
        <time>2021-08-06 15:17:31</time>
      </trkpt>
      <trkpt lat="37.05396" lon="-3.34">
        <ele>3100.4</ele>
        <time>2021-08-06 15:17:32</time>
      </trkpt>
      <trkpt lat="37.05396" lon="-3.34002">
        <ele>3100.4</ele>
        <time>2021-08-06 15:17:33</time>
      </trkpt>
      <trkpt lat="37.05396" lon="-3.34003">
        <ele>3100</ele>
        <time>2021-08-06 15:17:34</time>
      </trkpt>
      <trkpt lat="37.05396" lon="-3.34004">
        <ele>3099.8</ele>
        <time>2021-08-06 15:17:35</time>
      </trkpt>
      <trkpt lat="37.05396" lon="-3.34006">
        <ele>3099.6</ele>
        <time>2021-08-06 15:17:36</time>
      </trkpt>
      <trkpt lat="37.05396" lon="-3.34007">
        <ele>3100</ele>
        <time>2021-08-06 15:17:37</time>
      </trkpt>
      <trkpt lat="37.05397" lon="-3.34009">
        <ele>3100.2</ele>
        <time>2021-08-06 15:17:38</time>
      </trkpt>
      <trkpt lat="37.05397" lon="-3.3401">
        <ele>3100.2</ele>
        <time>2021-08-06 15:17:39</time>
      </trkpt>
      <trkpt lat="37.05398" lon="-3.34011">
        <ele>3100.2</ele>
        <time>2021-08-06 15:17:40</time>
      </trkpt>
      <trkpt lat="37.05398" lon="-3.34012">
        <ele>3100.4</ele>
        <time>2021-08-06 15:17:41</time>
      </trkpt>
      <trkpt lat="37.05398" lon="-3.34013">
        <ele>3100</ele>
        <time>2021-08-06 15:17:42</time>
      </trkpt>
      <trkpt lat="37.05398" lon="-3.34015">
        <ele>3099.8</ele>
        <time>2021-08-06 15:17:43</time>
      </trkpt>
      <trkpt lat="37.05399" lon="-3.34016">
        <ele>3099.6</ele>
        <time>2021-08-06 15:17:44</time>
      </trkpt>
      <trkpt lat="37.05398" lon="-3.34017">
        <ele>3099.6</ele>
        <time>2021-08-06 15:17:45</time>
      </trkpt>
      <trkpt lat="37.05398" lon="-3.34018">
        <ele>3099.6</ele>
        <time>2021-08-06 15:17:46</time>
      </trkpt>
      <trkpt lat="37.05399" lon="-3.3402">
        <ele>3099.6</ele>
        <time>2021-08-06 15:17:47</time>
      </trkpt>
      <trkpt lat="37.05399" lon="-3.34021">
        <ele>3099.4</ele>
        <time>2021-08-06 15:17:48</time>
      </trkpt>
      <trkpt lat="37.054" lon="-3.34022">
        <ele>3099.4</ele>
        <time>2021-08-06 15:17:49</time>
      </trkpt>
      <trkpt lat="37.054" lon="-3.34023">
        <ele>3099.6</ele>
        <time>2021-08-06 15:17:50</time>
      </trkpt>
      <trkpt lat="37.05401" lon="-3.34024">
        <ele>3099.6</ele>
        <time>2021-08-06 15:17:51</time>
      </trkpt>
      <trkpt lat="37.05401" lon="-3.34025">
        <ele>3099.8</ele>
        <time>2021-08-06 15:17:52</time>
      </trkpt>
      <trkpt lat="37.05401" lon="-3.34026">
        <ele>3099.8</ele>
        <time>2021-08-06 15:17:53</time>
      </trkpt>
      <trkpt lat="37.05401" lon="-3.34027">
        <ele>3100</ele>
        <time>2021-08-06 15:17:54</time>
      </trkpt>
      <trkpt lat="37.05401" lon="-3.34028">
        <ele>3099.8</ele>
        <time>2021-08-06 15:17:55</time>
      </trkpt>
      <trkpt lat="37.05401" lon="-3.3403">
        <ele>3099.8</ele>
        <time>2021-08-06 15:17:56</time>
      </trkpt>
      <trkpt lat="37.05401" lon="-3.34032">
        <ele>3099.6</ele>
        <time>2021-08-06 15:17:57</time>
      </trkpt>
      <trkpt lat="37.05401" lon="-3.34034">
        <ele>3099.4</ele>
        <time>2021-08-06 15:17:58</time>
      </trkpt>
      <trkpt lat="37.05401" lon="-3.34035">
        <ele>3099.2</ele>
        <time>2021-08-06 15:17:59</time>
      </trkpt>
      <trkpt lat="37.05401" lon="-3.34037">
        <ele>3099.2</ele>
        <time>2021-08-06 15:18:00</time>
      </trkpt>
      <trkpt lat="37.05401" lon="-3.34038">
        <ele>3099.2</ele>
        <time>2021-08-06 15:18:01</time>
      </trkpt>
      <trkpt lat="37.05401" lon="-3.3404">
        <ele>3099.2</ele>
        <time>2021-08-06 15:18:02</time>
      </trkpt>
      <trkpt lat="37.05401" lon="-3.34041">
        <ele>3099.2</ele>
        <time>2021-08-06 15:18:03</time>
      </trkpt>
      <trkpt lat="37.05401" lon="-3.34042">
        <ele>3099.2</ele>
        <time>2021-08-06 15:18:04</time>
      </trkpt>
      <trkpt lat="37.05401" lon="-3.34043">
        <ele>3099.2</ele>
        <time>2021-08-06 15:18:05</time>
      </trkpt>
      <trkpt lat="37.05402" lon="-3.34044">
        <ele>3099.2</ele>
        <time>2021-08-06 15:18:06</time>
      </trkpt>
      <trkpt lat="37.05402" lon="-3.34044">
        <ele>3099.2</ele>
        <time>2021-08-06 15:18:07</time>
      </trkpt>
      <trkpt lat="37.05402" lon="-3.34046">
        <ele>3099.2</ele>
        <time>2021-08-06 15:18:08</time>
      </trkpt>
      <trkpt lat="37.05402" lon="-3.34047">
        <ele>3099.2</ele>
        <time>2021-08-06 15:18:09</time>
      </trkpt>
      <trkpt lat="37.05403" lon="-3.34048">
        <ele>3099.2</ele>
        <time>2021-08-06 15:18:10</time>
      </trkpt>
      <trkpt lat="37.05403" lon="-3.34049">
        <ele>3099.2</ele>
        <time>2021-08-06 15:18:11</time>
      </trkpt>
      <trkpt lat="37.05403" lon="-3.3405">
        <ele>3099.2</ele>
        <time>2021-08-06 15:18:12</time>
      </trkpt>
      <trkpt lat="37.05404" lon="-3.34051">
        <ele>3099.4</ele>
        <time>2021-08-06 15:18:13</time>
      </trkpt>
      <trkpt lat="37.05404" lon="-3.34052">
        <ele>3099.4</ele>
        <time>2021-08-06 15:18:14</time>
      </trkpt>
      <trkpt lat="37.05404" lon="-3.34054">
        <ele>3099.2</ele>
        <time>2021-08-06 15:18:15</time>
      </trkpt>
      <trkpt lat="37.05405" lon="-3.34055">
        <ele>3099.4</ele>
        <time>2021-08-06 15:18:16</time>
      </trkpt>
      <trkpt lat="37.05405" lon="-3.34056">
        <ele>3099.4</ele>
        <time>2021-08-06 15:18:17</time>
      </trkpt>
      <trkpt lat="37.05405" lon="-3.34057">
        <ele>3099.4</ele>
        <time>2021-08-06 15:18:18</time>
      </trkpt>
      <trkpt lat="37.05405" lon="-3.34058">
        <ele>3099.4</ele>
        <time>2021-08-06 15:18:19</time>
      </trkpt>
      <trkpt lat="37.05405" lon="-3.3406">
        <ele>3099.4</ele>
        <time>2021-08-06 15:18:20</time>
      </trkpt>
      <trkpt lat="37.05405" lon="-3.34061">
        <ele>3099</ele>
        <time>2021-08-06 15:18:21</time>
      </trkpt>
      <trkpt lat="37.05405" lon="-3.34063">
        <ele>3099</ele>
        <time>2021-08-06 15:18:22</time>
      </trkpt>
      <trkpt lat="37.05405" lon="-3.34064">
        <ele>3098.8</ele>
        <time>2021-08-06 15:18:23</time>
      </trkpt>
      <trkpt lat="37.05405" lon="-3.34065">
        <ele>3098.8</ele>
        <time>2021-08-06 15:18:24</time>
      </trkpt>
      <trkpt lat="37.05406" lon="-3.34066">
        <ele>3098.8</ele>
        <time>2021-08-06 15:18:25</time>
      </trkpt>
      <trkpt lat="37.05406" lon="-3.34067">
        <ele>3098.6</ele>
        <time>2021-08-06 15:18:26</time>
      </trkpt>
      <trkpt lat="37.05407" lon="-3.34068">
        <ele>3098.6</ele>
        <time>2021-08-06 15:18:27</time>
      </trkpt>
      <trkpt lat="37.05407" lon="-3.34068">
        <ele>3098.6</ele>
        <time>2021-08-06 15:18:28</time>
      </trkpt>
      <trkpt lat="37.05408" lon="-3.34069">
        <ele>3098.8</ele>
        <time>2021-08-06 15:18:29</time>
      </trkpt>
      <trkpt lat="37.05408" lon="-3.34069">
        <ele>3099</ele>
        <time>2021-08-06 15:18:30</time>
      </trkpt>
      <trkpt lat="37.05408" lon="-3.3407">
        <ele>3099.2</ele>
        <time>2021-08-06 15:18:31</time>
      </trkpt>
      <trkpt lat="37.05409" lon="-3.34071">
        <ele>3099.4</ele>
        <time>2021-08-06 15:18:32</time>
      </trkpt>
      <trkpt lat="37.05409" lon="-3.34072">
        <ele>3099.4</ele>
        <time>2021-08-06 15:18:33</time>
      </trkpt>
      <trkpt lat="37.05408" lon="-3.34074">
        <ele>3099.4</ele>
        <time>2021-08-06 15:18:34</time>
      </trkpt>
      <trkpt lat="37.05408" lon="-3.34075">
        <ele>3099.6</ele>
        <time>2021-08-06 15:18:35</time>
      </trkpt>
      <trkpt lat="37.05409" lon="-3.34076">
        <ele>3099.6</ele>
        <time>2021-08-06 15:18:36</time>
      </trkpt>
      <trkpt lat="37.05408" lon="-3.34077">
        <ele>3099.8</ele>
        <time>2021-08-06 15:18:37</time>
      </trkpt>
      <trkpt lat="37.05408" lon="-3.34078">
        <ele>3099.8</ele>
        <time>2021-08-06 15:18:38</time>
      </trkpt>
      <trkpt lat="37.05408" lon="-3.34079">
        <ele>3100</ele>
        <time>2021-08-06 15:18:39</time>
      </trkpt>
      <trkpt lat="37.05408" lon="-3.34079">
        <ele>3100.2</ele>
        <time>2021-08-06 15:18:40</time>
      </trkpt>
      <trkpt lat="37.05409" lon="-3.34081">
        <ele>3100.4</ele>
        <time>2021-08-06 15:18:41</time>
      </trkpt>
      <trkpt lat="37.05409" lon="-3.34082">
        <ele>3100.6</ele>
        <time>2021-08-06 15:18:42</time>
      </trkpt>
      <trkpt lat="37.05409" lon="-3.34083">
        <ele>3100.8</ele>
        <time>2021-08-06 15:18:43</time>
      </trkpt>
      <trkpt lat="37.05409" lon="-3.34085">
        <ele>3101</ele>
        <time>2021-08-06 15:18:44</time>
      </trkpt>
      <trkpt lat="37.05409" lon="-3.34086">
        <ele>3101.2</ele>
        <time>2021-08-06 15:18:45</time>
      </trkpt>
      <trkpt lat="37.05408" lon="-3.34087">
        <ele>3101.2</ele>
        <time>2021-08-06 15:18:46</time>
      </trkpt>
      <trkpt lat="37.05408" lon="-3.34088">
        <ele>3101.4</ele>
        <time>2021-08-06 15:18:47</time>
      </trkpt>
      <trkpt lat="37.05409" lon="-3.34089">
        <ele>3101.6</ele>
        <time>2021-08-06 15:18:48</time>
      </trkpt>
      <trkpt lat="37.05409" lon="-3.3409">
        <ele>3101.8</ele>
        <time>2021-08-06 15:18:49</time>
      </trkpt>
      <trkpt lat="37.05409" lon="-3.34091">
        <ele>3101.8</ele>
        <time>2021-08-06 15:18:50</time>
      </trkpt>
      <trkpt lat="37.05409" lon="-3.34092">
        <ele>3101.8</ele>
        <time>2021-08-06 15:18:51</time>
      </trkpt>
      <trkpt lat="37.0541" lon="-3.34093">
        <ele>3101.8</ele>
        <time>2021-08-06 15:18:52</time>
      </trkpt>
      <trkpt lat="37.05409" lon="-3.34094">
        <ele>3102.2</ele>
        <time>2021-08-06 15:18:53</time>
      </trkpt>
      <trkpt lat="37.05409" lon="-3.34096">
        <ele>3102.2</ele>
        <time>2021-08-06 15:18:54</time>
      </trkpt>
      <trkpt lat="37.05409" lon="-3.34097">
        <ele>3102</ele>
        <time>2021-08-06 15:18:55</time>
      </trkpt>
      <trkpt lat="37.05409" lon="-3.34099">
        <ele>3102.2</ele>
        <time>2021-08-06 15:18:56</time>
      </trkpt>
      <trkpt lat="37.05408" lon="-3.341">
        <ele>3102.4</ele>
        <time>2021-08-06 15:18:57</time>
      </trkpt>
      <trkpt lat="37.05407" lon="-3.34101">
        <ele>3102.6</ele>
        <time>2021-08-06 15:18:58</time>
      </trkpt>
      <trkpt lat="37.05407" lon="-3.34102">
        <ele>3102.6</ele>
        <time>2021-08-06 15:18:59</time>
      </trkpt>
      <trkpt lat="37.05407" lon="-3.34104">
        <ele>3102.4</ele>
        <time>2021-08-06 15:19:00</time>
      </trkpt>
      <trkpt lat="37.05406" lon="-3.34105">
        <ele>3102</ele>
        <time>2021-08-06 15:19:01</time>
      </trkpt>
      <trkpt lat="37.05406" lon="-3.34106">
        <ele>3101.8</ele>
        <time>2021-08-06 15:19:02</time>
      </trkpt>
      <trkpt lat="37.05406" lon="-3.34107">
        <ele>3101.6</ele>
        <time>2021-08-06 15:19:03</time>
      </trkpt>
      <trkpt lat="37.05406" lon="-3.34108">
        <ele>3101.6</ele>
        <time>2021-08-06 15:19:04</time>
      </trkpt>
      <trkpt lat="37.05405" lon="-3.34109">
        <ele>3101.6</ele>
        <time>2021-08-06 15:19:05</time>
      </trkpt>
      <trkpt lat="37.05405" lon="-3.34109">
        <ele>3101.6</ele>
        <time>2021-08-06 15:19:06</time>
      </trkpt>
      <trkpt lat="37.05405" lon="-3.3411">
        <ele>3101.6</ele>
        <time>2021-08-06 15:19:07</time>
      </trkpt>
      <trkpt lat="37.05404" lon="-3.34112">
        <ele>3101.6</ele>
        <time>2021-08-06 15:19:08</time>
      </trkpt>
      <trkpt lat="37.05404" lon="-3.34113">
        <ele>3101.8</ele>
        <time>2021-08-06 15:19:09</time>
      </trkpt>
      <trkpt lat="37.05403" lon="-3.34114">
        <ele>3102</ele>
        <time>2021-08-06 15:19:10</time>
      </trkpt>
      <trkpt lat="37.05403" lon="-3.34116">
        <ele>3102</ele>
        <time>2021-08-06 15:19:11</time>
      </trkpt>
      <trkpt lat="37.05403" lon="-3.34117">
        <ele>3102.2</ele>
        <time>2021-08-06 15:19:12</time>
      </trkpt>
      <trkpt lat="37.05402" lon="-3.34118">
        <ele>3102.2</ele>
        <time>2021-08-06 15:19:13</time>
      </trkpt>
      <trkpt lat="37.05402" lon="-3.34119">
        <ele>3102.2</ele>
        <time>2021-08-06 15:19:14</time>
      </trkpt>
      <trkpt lat="37.05402" lon="-3.34121">
        <ele>3102.2</ele>
        <time>2021-08-06 15:19:15</time>
      </trkpt>
      <trkpt lat="37.05402" lon="-3.34122">
        <ele>3102.4</ele>
        <time>2021-08-06 15:19:16</time>
      </trkpt>
      <trkpt lat="37.05401" lon="-3.34123">
        <ele>3102.4</ele>
        <time>2021-08-06 15:19:17</time>
      </trkpt>
      <trkpt lat="37.054" lon="-3.34124">
        <ele>3102.6</ele>
        <time>2021-08-06 15:19:18</time>
      </trkpt>
      <trkpt lat="37.054" lon="-3.34126">
        <ele>3102.8</ele>
        <time>2021-08-06 15:19:19</time>
      </trkpt>
      <trkpt lat="37.054" lon="-3.34127">
        <ele>3103</ele>
        <time>2021-08-06 15:19:20</time>
      </trkpt>
      <trkpt lat="37.05399" lon="-3.34129">
        <ele>3103</ele>
        <time>2021-08-06 15:19:21</time>
      </trkpt>
      <trkpt lat="37.05399" lon="-3.3413">
        <ele>3103</ele>
        <time>2021-08-06 15:19:22</time>
      </trkpt>
      <trkpt lat="37.05398" lon="-3.34132">
        <ele>3103</ele>
        <time>2021-08-06 15:19:23</time>
      </trkpt>
      <trkpt lat="37.05398" lon="-3.34133">
        <ele>3103</ele>
        <time>2021-08-06 15:19:24</time>
      </trkpt>
      <trkpt lat="37.05397" lon="-3.34134">
        <ele>3103</ele>
        <time>2021-08-06 15:19:25</time>
      </trkpt>
      <trkpt lat="37.05397" lon="-3.34136">
        <ele>3103.2</ele>
        <time>2021-08-06 15:19:26</time>
      </trkpt>
      <trkpt lat="37.05396" lon="-3.34138">
        <ele>3103.2</ele>
        <time>2021-08-06 15:19:27</time>
      </trkpt>
      <trkpt lat="37.05396" lon="-3.3414">
        <ele>3103.2</ele>
        <time>2021-08-06 15:19:28</time>
      </trkpt>
      <trkpt lat="37.05395" lon="-3.34141">
        <ele>3103.2</ele>
        <time>2021-08-06 15:19:29</time>
      </trkpt>
      <trkpt lat="37.05395" lon="-3.34143">
        <ele>3103.2</ele>
        <time>2021-08-06 15:19:30</time>
      </trkpt>
      <trkpt lat="37.05395" lon="-3.34144">
        <ele>3103.2</ele>
        <time>2021-08-06 15:19:31</time>
      </trkpt>
      <trkpt lat="37.05395" lon="-3.34146">
        <ele>3103.2</ele>
        <time>2021-08-06 15:19:32</time>
      </trkpt>
      <trkpt lat="37.05395" lon="-3.34147">
        <ele>3103.2</ele>
        <time>2021-08-06 15:19:33</time>
      </trkpt>
      <trkpt lat="37.05394" lon="-3.34148">
        <ele>3103.2</ele>
        <time>2021-08-06 15:19:34</time>
      </trkpt>
      <trkpt lat="37.05394" lon="-3.3415">
        <ele>3103.4</ele>
        <time>2021-08-06 15:19:35</time>
      </trkpt>
      <trkpt lat="37.05394" lon="-3.34151">
        <ele>3103.4</ele>
        <time>2021-08-06 15:19:36</time>
      </trkpt>
      <trkpt lat="37.05394" lon="-3.34153">
        <ele>3103.6</ele>
        <time>2021-08-06 15:19:37</time>
      </trkpt>
      <trkpt lat="37.05394" lon="-3.34154">
        <ele>3103.6</ele>
        <time>2021-08-06 15:19:38</time>
      </trkpt>
      <trkpt lat="37.05393" lon="-3.34155">
        <ele>3103.6</ele>
        <time>2021-08-06 15:19:39</time>
      </trkpt>
      <trkpt lat="37.05393" lon="-3.34157">
        <ele>3103.6</ele>
        <time>2021-08-06 15:19:40</time>
      </trkpt>
      <trkpt lat="37.05393" lon="-3.34158">
        <ele>3103.6</ele>
        <time>2021-08-06 15:19:41</time>
      </trkpt>
      <trkpt lat="37.05393" lon="-3.3416">
        <ele>3103.6</ele>
        <time>2021-08-06 15:19:42</time>
      </trkpt>
      <trkpt lat="37.05393" lon="-3.34161">
        <ele>3103.6</ele>
        <time>2021-08-06 15:19:43</time>
      </trkpt>
      <trkpt lat="37.05393" lon="-3.34163">
        <ele>3103.6</ele>
        <time>2021-08-06 15:19:44</time>
      </trkpt>
      <trkpt lat="37.05393" lon="-3.34164">
        <ele>3103.6</ele>
        <time>2021-08-06 15:19:45</time>
      </trkpt>
      <trkpt lat="37.05393" lon="-3.34165">
        <ele>3103.6</ele>
        <time>2021-08-06 15:19:46</time>
      </trkpt>
      <trkpt lat="37.05393" lon="-3.34167">
        <ele>3103.6</ele>
        <time>2021-08-06 15:19:47</time>
      </trkpt>
      <trkpt lat="37.05393" lon="-3.34169">
        <ele>3103.6</ele>
        <time>2021-08-06 15:19:48</time>
      </trkpt>
      <trkpt lat="37.05393" lon="-3.34171">
        <ele>3103.8</ele>
        <time>2021-08-06 15:19:49</time>
      </trkpt>
      <trkpt lat="37.05393" lon="-3.34172">
        <ele>3103.8</ele>
        <time>2021-08-06 15:19:50</time>
      </trkpt>
      <trkpt lat="37.05393" lon="-3.34174">
        <ele>3103.8</ele>
        <time>2021-08-06 15:19:51</time>
      </trkpt>
      <trkpt lat="37.05393" lon="-3.34176">
        <ele>3103.8</ele>
        <time>2021-08-06 15:19:52</time>
      </trkpt>
      <trkpt lat="37.05393" lon="-3.34178">
        <ele>3103.8</ele>
        <time>2021-08-06 15:19:53</time>
      </trkpt>
      <trkpt lat="37.05393" lon="-3.34179">
        <ele>3104</ele>
        <time>2021-08-06 15:19:54</time>
      </trkpt>
      <trkpt lat="37.05393" lon="-3.3418">
        <ele>3104</ele>
        <time>2021-08-06 15:19:55</time>
      </trkpt>
      <trkpt lat="37.05393" lon="-3.34181">
        <ele>3104</ele>
        <time>2021-08-06 15:19:56</time>
      </trkpt>
      <trkpt lat="37.05393" lon="-3.34182">
        <ele>3104</ele>
        <time>2021-08-06 15:19:57</time>
      </trkpt>
      <trkpt lat="37.05393" lon="-3.34183">
        <ele>3104</ele>
        <time>2021-08-06 15:19:58</time>
      </trkpt>
      <trkpt lat="37.05393" lon="-3.34184">
        <ele>3103.8</ele>
        <time>2021-08-06 15:19:59</time>
      </trkpt>
      <trkpt lat="37.05393" lon="-3.34186">
        <ele>3103.8</ele>
        <time>2021-08-06 15:20:00</time>
      </trkpt>
      <trkpt lat="37.05393" lon="-3.34187">
        <ele>3103.8</ele>
        <time>2021-08-06 15:20:01</time>
      </trkpt>
      <trkpt lat="37.05394" lon="-3.34188">
        <ele>3103.8</ele>
        <time>2021-08-06 15:20:02</time>
      </trkpt>
      <trkpt lat="37.05394" lon="-3.34189">
        <ele>3103.8</ele>
        <time>2021-08-06 15:20:03</time>
      </trkpt>
      <trkpt lat="37.05394" lon="-3.3419">
        <ele>3103.8</ele>
        <time>2021-08-06 15:20:04</time>
      </trkpt>
      <trkpt lat="37.05394" lon="-3.34191">
        <ele>3103.8</ele>
        <time>2021-08-06 15:20:05</time>
      </trkpt>
      <trkpt lat="37.05394" lon="-3.34192">
        <ele>3103.8</ele>
        <time>2021-08-06 15:20:06</time>
      </trkpt>
      <trkpt lat="37.05394" lon="-3.34194">
        <ele>3103.8</ele>
        <time>2021-08-06 15:20:07</time>
      </trkpt>
      <trkpt lat="37.05393" lon="-3.34196">
        <ele>3103.4</ele>
        <time>2021-08-06 15:20:08</time>
      </trkpt>
      <trkpt lat="37.05393" lon="-3.34198">
        <ele>3103.2</ele>
        <time>2021-08-06 15:20:09</time>
      </trkpt>
      <trkpt lat="37.05393" lon="-3.34199">
        <ele>3103.2</ele>
        <time>2021-08-06 15:20:10</time>
      </trkpt>
      <trkpt lat="37.05393" lon="-3.34201">
        <ele>3103</ele>
        <time>2021-08-06 15:20:11</time>
      </trkpt>
      <trkpt lat="37.05393" lon="-3.34202">
        <ele>3103.4</ele>
        <time>2021-08-06 15:20:12</time>
      </trkpt>
      <trkpt lat="37.05393" lon="-3.34204">
        <ele>3103.4</ele>
        <time>2021-08-06 15:20:13</time>
      </trkpt>
      <trkpt lat="37.05393" lon="-3.34205">
        <ele>3103.6</ele>
        <time>2021-08-06 15:20:14</time>
      </trkpt>
      <trkpt lat="37.05393" lon="-3.34207">
        <ele>3103.6</ele>
        <time>2021-08-06 15:20:15</time>
      </trkpt>
      <trkpt lat="37.05393" lon="-3.34208">
        <ele>3103.6</ele>
        <time>2021-08-06 15:20:16</time>
      </trkpt>
      <trkpt lat="37.05393" lon="-3.34209">
        <ele>3103.6</ele>
        <time>2021-08-06 15:20:17</time>
      </trkpt>
      <trkpt lat="37.05393" lon="-3.3421">
        <ele>3103.4</ele>
        <time>2021-08-06 15:20:18</time>
      </trkpt>
      <trkpt lat="37.05393" lon="-3.34212">
        <ele>3103.4</ele>
        <time>2021-08-06 15:20:19</time>
      </trkpt>
      <trkpt lat="37.05393" lon="-3.34214">
        <ele>3103.6</ele>
        <time>2021-08-06 15:20:20</time>
      </trkpt>
      <trkpt lat="37.05393" lon="-3.34215">
        <ele>3103.4</ele>
        <time>2021-08-06 15:20:21</time>
      </trkpt>
      <trkpt lat="37.05393" lon="-3.34216">
        <ele>3103.4</ele>
        <time>2021-08-06 15:20:22</time>
      </trkpt>
      <trkpt lat="37.05393" lon="-3.34217">
        <ele>3103.6</ele>
        <time>2021-08-06 15:20:23</time>
      </trkpt>
      <trkpt lat="37.05393" lon="-3.34218">
        <ele>3103.8</ele>
        <time>2021-08-06 15:20:24</time>
      </trkpt>
      <trkpt lat="37.05393" lon="-3.3422">
        <ele>3103.8</ele>
        <time>2021-08-06 15:20:25</time>
      </trkpt>
      <trkpt lat="37.05393" lon="-3.34221">
        <ele>3103.6</ele>
        <time>2021-08-06 15:20:26</time>
      </trkpt>
      <trkpt lat="37.05392" lon="-3.34223">
        <ele>3103.4</ele>
        <time>2021-08-06 15:20:27</time>
      </trkpt>
      <trkpt lat="37.05392" lon="-3.34225">
        <ele>3103.4</ele>
        <time>2021-08-06 15:20:28</time>
      </trkpt>
      <trkpt lat="37.05391" lon="-3.34227">
        <ele>3103.2</ele>
        <time>2021-08-06 15:20:29</time>
      </trkpt>
      <trkpt lat="37.05391" lon="-3.34229">
        <ele>3103.2</ele>
        <time>2021-08-06 15:20:30</time>
      </trkpt>
      <trkpt lat="37.05391" lon="-3.3423">
        <ele>3103.2</ele>
        <time>2021-08-06 15:20:31</time>
      </trkpt>
      <trkpt lat="37.05391" lon="-3.34231">
        <ele>3103.2</ele>
        <time>2021-08-06 15:20:32</time>
      </trkpt>
      <trkpt lat="37.05391" lon="-3.34233">
        <ele>3103.2</ele>
        <time>2021-08-06 15:20:33</time>
      </trkpt>
      <trkpt lat="37.05391" lon="-3.34234">
        <ele>3103.2</ele>
        <time>2021-08-06 15:20:34</time>
      </trkpt>
      <trkpt lat="37.05391" lon="-3.34235">
        <ele>3103.2</ele>
        <time>2021-08-06 15:20:35</time>
      </trkpt>
      <trkpt lat="37.0539" lon="-3.34236">
        <ele>3103.2</ele>
        <time>2021-08-06 15:20:36</time>
      </trkpt>
      <trkpt lat="37.0539" lon="-3.34238">
        <ele>3103.4</ele>
        <time>2021-08-06 15:20:37</time>
      </trkpt>
      <trkpt lat="37.05389" lon="-3.3424">
        <ele>3103.6</ele>
        <time>2021-08-06 15:20:38</time>
      </trkpt>
      <trkpt lat="37.05389" lon="-3.34241">
        <ele>3103.6</ele>
        <time>2021-08-06 15:20:39</time>
      </trkpt>
      <trkpt lat="37.05388" lon="-3.34242">
        <ele>3103.6</ele>
        <time>2021-08-06 15:20:40</time>
      </trkpt>
      <trkpt lat="37.05388" lon="-3.34243">
        <ele>3103.6</ele>
        <time>2021-08-06 15:20:41</time>
      </trkpt>
      <trkpt lat="37.05388" lon="-3.34244">
        <ele>3103.6</ele>
        <time>2021-08-06 15:20:42</time>
      </trkpt>
      <trkpt lat="37.05387" lon="-3.34245">
        <ele>3103.2</ele>
        <time>2021-08-06 15:20:43</time>
      </trkpt>
      <trkpt lat="37.05387" lon="-3.34247">
        <ele>3102.6</ele>
        <time>2021-08-06 15:20:44</time>
      </trkpt>
      <trkpt lat="37.05387" lon="-3.34248">
        <ele>3102.2</ele>
        <time>2021-08-06 15:20:45</time>
      </trkpt>
      <trkpt lat="37.05386" lon="-3.3425">
        <ele>3102.6</ele>
        <time>2021-08-06 15:20:46</time>
      </trkpt>
      <trkpt lat="37.05386" lon="-3.34251">
        <ele>3102.6</ele>
        <time>2021-08-06 15:20:47</time>
      </trkpt>
      <trkpt lat="37.05386" lon="-3.34252">
        <ele>3102.8</ele>
        <time>2021-08-06 15:20:48</time>
      </trkpt>
      <trkpt lat="37.05386" lon="-3.34253">
        <ele>3102.8</ele>
        <time>2021-08-06 15:20:49</time>
      </trkpt>
      <trkpt lat="37.05386" lon="-3.34254">
        <ele>3102.8</ele>
        <time>2021-08-06 15:20:50</time>
      </trkpt>
      <trkpt lat="37.05386" lon="-3.34256">
        <ele>3102.8</ele>
        <time>2021-08-06 15:20:51</time>
      </trkpt>
      <trkpt lat="37.05385" lon="-3.34257">
        <ele>3102.8</ele>
        <time>2021-08-06 15:20:52</time>
      </trkpt>
      <trkpt lat="37.05385" lon="-3.34259">
        <ele>3102.8</ele>
        <time>2021-08-06 15:20:53</time>
      </trkpt>
      <trkpt lat="37.05385" lon="-3.3426">
        <ele>3102.8</ele>
        <time>2021-08-06 15:20:54</time>
      </trkpt>
      <trkpt lat="37.05385" lon="-3.34262">
        <ele>3102.6</ele>
        <time>2021-08-06 15:20:55</time>
      </trkpt>
      <trkpt lat="37.05385" lon="-3.34263">
        <ele>3102.6</ele>
        <time>2021-08-06 15:20:56</time>
      </trkpt>
      <trkpt lat="37.05385" lon="-3.34264">
        <ele>3102.6</ele>
        <time>2021-08-06 15:20:57</time>
      </trkpt>
      <trkpt lat="37.05385" lon="-3.34265">
        <ele>3102.6</ele>
        <time>2021-08-06 15:20:58</time>
      </trkpt>
      <trkpt lat="37.05386" lon="-3.34266">
        <ele>3102.6</ele>
        <time>2021-08-06 15:20:59</time>
      </trkpt>
      <trkpt lat="37.05386" lon="-3.34267">
        <ele>3102.6</ele>
        <time>2021-08-06 15:21:00</time>
      </trkpt>
      <trkpt lat="37.05387" lon="-3.34268">
        <ele>3102.8</ele>
        <time>2021-08-06 15:21:01</time>
      </trkpt>
      <trkpt lat="37.05387" lon="-3.3427">
        <ele>3102.8</ele>
        <time>2021-08-06 15:21:02</time>
      </trkpt>
      <trkpt lat="37.05387" lon="-3.34271">
        <ele>3102.8</ele>
        <time>2021-08-06 15:21:03</time>
      </trkpt>
      <trkpt lat="37.05387" lon="-3.34272">
        <ele>3102.8</ele>
        <time>2021-08-06 15:21:04</time>
      </trkpt>
      <trkpt lat="37.05387" lon="-3.34273">
        <ele>3102.4</ele>
        <time>2021-08-06 15:21:05</time>
      </trkpt>
      <trkpt lat="37.05387" lon="-3.34275">
        <ele>3102.2</ele>
        <time>2021-08-06 15:21:06</time>
      </trkpt>
      <trkpt lat="37.05387" lon="-3.34277">
        <ele>3102.2</ele>
        <time>2021-08-06 15:21:07</time>
      </trkpt>
      <trkpt lat="37.05386" lon="-3.34278">
        <ele>3102</ele>
        <time>2021-08-06 15:21:08</time>
      </trkpt>
      <trkpt lat="37.05386" lon="-3.3428">
        <ele>3102</ele>
        <time>2021-08-06 15:21:09</time>
      </trkpt>
      <trkpt lat="37.05386" lon="-3.34281">
        <ele>3102</ele>
        <time>2021-08-06 15:21:10</time>
      </trkpt>
      <trkpt lat="37.05386" lon="-3.34283">
        <ele>3102</ele>
        <time>2021-08-06 15:21:11</time>
      </trkpt>
      <trkpt lat="37.05386" lon="-3.34285">
        <ele>3102</ele>
        <time>2021-08-06 15:21:12</time>
      </trkpt>
      <trkpt lat="37.05386" lon="-3.34286">
        <ele>3102</ele>
        <time>2021-08-06 15:21:13</time>
      </trkpt>
      <trkpt lat="37.05386" lon="-3.34287">
        <ele>3102</ele>
        <time>2021-08-06 15:21:14</time>
      </trkpt>
      <trkpt lat="37.05386" lon="-3.34289">
        <ele>3102</ele>
        <time>2021-08-06 15:21:15</time>
      </trkpt>
      <trkpt lat="37.05386" lon="-3.3429">
        <ele>3101.8</ele>
        <time>2021-08-06 15:21:16</time>
      </trkpt>
      <trkpt lat="37.05387" lon="-3.34291">
        <ele>3102</ele>
        <time>2021-08-06 15:21:17</time>
      </trkpt>
      <trkpt lat="37.05387" lon="-3.34293">
        <ele>3102</ele>
        <time>2021-08-06 15:21:18</time>
      </trkpt>
      <trkpt lat="37.05387" lon="-3.34294">
        <ele>3102</ele>
        <time>2021-08-06 15:21:19</time>
      </trkpt>
      <trkpt lat="37.05387" lon="-3.34295">
        <ele>3102</ele>
        <time>2021-08-06 15:21:20</time>
      </trkpt>
      <trkpt lat="37.05387" lon="-3.34296">
        <ele>3101.8</ele>
        <time>2021-08-06 15:21:21</time>
      </trkpt>
      <trkpt lat="37.05387" lon="-3.34298">
        <ele>3101.6</ele>
        <time>2021-08-06 15:21:22</time>
      </trkpt>
      <trkpt lat="37.05387" lon="-3.34299">
        <ele>3101.6</ele>
        <time>2021-08-06 15:21:23</time>
      </trkpt>
      <trkpt lat="37.05387" lon="-3.34301">
        <ele>3101.6</ele>
        <time>2021-08-06 15:21:24</time>
      </trkpt>
      <trkpt lat="37.05387" lon="-3.34302">
        <ele>3101.4</ele>
        <time>2021-08-06 15:21:25</time>
      </trkpt>
      <trkpt lat="37.05387" lon="-3.34303">
        <ele>3101.4</ele>
        <time>2021-08-06 15:21:26</time>
      </trkpt>
      <trkpt lat="37.05388" lon="-3.34305">
        <ele>3101.4</ele>
        <time>2021-08-06 15:21:27</time>
      </trkpt>
      <trkpt lat="37.05388" lon="-3.34306">
        <ele>3101.2</ele>
        <time>2021-08-06 15:21:28</time>
      </trkpt>
      <trkpt lat="37.05388" lon="-3.34308">
        <ele>3101.4</ele>
        <time>2021-08-06 15:21:29</time>
      </trkpt>
      <trkpt lat="37.05388" lon="-3.34309">
        <ele>3101.6</ele>
        <time>2021-08-06 15:21:30</time>
      </trkpt>
      <trkpt lat="37.05389" lon="-3.34311">
        <ele>3101.6</ele>
        <time>2021-08-06 15:21:31</time>
      </trkpt>
      <trkpt lat="37.05389" lon="-3.34312">
        <ele>3101.6</ele>
        <time>2021-08-06 15:21:32</time>
      </trkpt>
      <trkpt lat="37.05389" lon="-3.34314">
        <ele>3101.6</ele>
        <time>2021-08-06 15:21:33</time>
      </trkpt>
      <trkpt lat="37.05389" lon="-3.34316">
        <ele>3101.4</ele>
        <time>2021-08-06 15:21:34</time>
      </trkpt>
      <trkpt lat="37.05389" lon="-3.34317">
        <ele>3101.6</ele>
        <time>2021-08-06 15:21:35</time>
      </trkpt>
      <trkpt lat="37.05389" lon="-3.34318">
        <ele>3101.6</ele>
        <time>2021-08-06 15:21:36</time>
      </trkpt>
      <trkpt lat="37.05389" lon="-3.3432">
        <ele>3101.8</ele>
        <time>2021-08-06 15:21:37</time>
      </trkpt>
      <trkpt lat="37.05389" lon="-3.34321">
        <ele>3102</ele>
        <time>2021-08-06 15:21:38</time>
      </trkpt>
      <trkpt lat="37.0539" lon="-3.34322">
        <ele>3102</ele>
        <time>2021-08-06 15:21:39</time>
      </trkpt>
      <trkpt lat="37.0539" lon="-3.34323">
        <ele>3102</ele>
        <time>2021-08-06 15:21:40</time>
      </trkpt>
      <trkpt lat="37.0539" lon="-3.34325">
        <ele>3102</ele>
        <time>2021-08-06 15:21:41</time>
      </trkpt>
      <trkpt lat="37.0539" lon="-3.34326">
        <ele>3102</ele>
        <time>2021-08-06 15:21:42</time>
      </trkpt>
      <trkpt lat="37.05391" lon="-3.34327">
        <ele>3101.6</ele>
        <time>2021-08-06 15:21:43</time>
      </trkpt>
      <trkpt lat="37.05391" lon="-3.34328">
        <ele>3101.4</ele>
        <time>2021-08-06 15:21:44</time>
      </trkpt>
      <trkpt lat="37.05392" lon="-3.34329">
        <ele>3101.2</ele>
        <time>2021-08-06 15:21:45</time>
      </trkpt>
      <trkpt lat="37.05392" lon="-3.3433">
        <ele>3101.2</ele>
        <time>2021-08-06 15:21:46</time>
      </trkpt>
      <trkpt lat="37.05392" lon="-3.34332">
        <ele>3101</ele>
        <time>2021-08-06 15:21:47</time>
      </trkpt>
      <trkpt lat="37.05393" lon="-3.34333">
        <ele>3101</ele>
        <time>2021-08-06 15:21:48</time>
      </trkpt>
      <trkpt lat="37.05393" lon="-3.34335">
        <ele>3101.2</ele>
        <time>2021-08-06 15:21:49</time>
      </trkpt>
      <trkpt lat="37.05394" lon="-3.34336">
        <ele>3101</ele>
        <time>2021-08-06 15:21:50</time>
      </trkpt>
      <trkpt lat="37.05394" lon="-3.34337">
        <ele>3101.2</ele>
        <time>2021-08-06 15:21:51</time>
      </trkpt>
      <trkpt lat="37.05395" lon="-3.34338">
        <ele>3101.2</ele>
        <time>2021-08-06 15:21:52</time>
      </trkpt>
      <trkpt lat="37.05396" lon="-3.34339">
        <ele>3101.4</ele>
        <time>2021-08-06 15:21:53</time>
      </trkpt>
      <trkpt lat="37.05397" lon="-3.3434">
        <ele>3101.4</ele>
        <time>2021-08-06 15:21:54</time>
      </trkpt>
      <trkpt lat="37.05397" lon="-3.34341">
        <ele>3101.2</ele>
        <time>2021-08-06 15:21:55</time>
      </trkpt>
      <trkpt lat="37.05397" lon="-3.34342">
        <ele>3101</ele>
        <time>2021-08-06 15:21:56</time>
      </trkpt>
      <trkpt lat="37.05397" lon="-3.34343">
        <ele>3101.2</ele>
        <time>2021-08-06 15:21:57</time>
      </trkpt>
      <trkpt lat="37.05398" lon="-3.34344">
        <ele>3101.2</ele>
        <time>2021-08-06 15:21:58</time>
      </trkpt>
      <trkpt lat="37.05398" lon="-3.34345">
        <ele>3101</ele>
        <time>2021-08-06 15:21:59</time>
      </trkpt>
      <trkpt lat="37.05399" lon="-3.34346">
        <ele>3101</ele>
        <time>2021-08-06 15:22:00</time>
      </trkpt>
      <trkpt lat="37.05399" lon="-3.34348">
        <ele>3101.2</ele>
        <time>2021-08-06 15:22:01</time>
      </trkpt>
      <trkpt lat="37.05399" lon="-3.34349">
        <ele>3101.2</ele>
        <time>2021-08-06 15:22:02</time>
      </trkpt>
      <trkpt lat="37.05399" lon="-3.3435">
        <ele>3101.4</ele>
        <time>2021-08-06 15:22:03</time>
      </trkpt>
      <trkpt lat="37.05398" lon="-3.34351">
        <ele>3101.4</ele>
        <time>2021-08-06 15:22:04</time>
      </trkpt>
      <trkpt lat="37.05398" lon="-3.34352">
        <ele>3101.4</ele>
        <time>2021-08-06 15:22:05</time>
      </trkpt>
      <trkpt lat="37.05398" lon="-3.34354">
        <ele>3101.4</ele>
        <time>2021-08-06 15:22:06</time>
      </trkpt>
      <trkpt lat="37.05398" lon="-3.34355">
        <ele>3101.4</ele>
        <time>2021-08-06 15:22:07</time>
      </trkpt>
      <trkpt lat="37.05398" lon="-3.34356">
        <ele>3101.4</ele>
        <time>2021-08-06 15:22:08</time>
      </trkpt>
      <trkpt lat="37.05398" lon="-3.34358">
        <ele>3101.4</ele>
        <time>2021-08-06 15:22:09</time>
      </trkpt>
      <trkpt lat="37.05398" lon="-3.3436">
        <ele>3101.2</ele>
        <time>2021-08-06 15:22:10</time>
      </trkpt>
      <trkpt lat="37.05397" lon="-3.34361">
        <ele>3101.2</ele>
        <time>2021-08-06 15:22:11</time>
      </trkpt>
      <trkpt lat="37.05397" lon="-3.34363">
        <ele>3101.2</ele>
        <time>2021-08-06 15:22:12</time>
      </trkpt>
      <trkpt lat="37.05397" lon="-3.34364">
        <ele>3101.2</ele>
        <time>2021-08-06 15:22:13</time>
      </trkpt>
      <trkpt lat="37.05397" lon="-3.34366">
        <ele>3101.4</ele>
        <time>2021-08-06 15:22:14</time>
      </trkpt>
      <trkpt lat="37.05397" lon="-3.34367">
        <ele>3101.4</ele>
        <time>2021-08-06 15:22:15</time>
      </trkpt>
      <trkpt lat="37.05396" lon="-3.34369">
        <ele>3101.4</ele>
        <time>2021-08-06 15:22:16</time>
      </trkpt>
      <trkpt lat="37.05396" lon="-3.3437">
        <ele>3101.6</ele>
        <time>2021-08-06 15:22:17</time>
      </trkpt>
      <trkpt lat="37.05396" lon="-3.34372">
        <ele>3101.8</ele>
        <time>2021-08-06 15:22:18</time>
      </trkpt>
      <trkpt lat="37.05396" lon="-3.34374">
        <ele>3101.8</ele>
        <time>2021-08-06 15:22:19</time>
      </trkpt>
      <trkpt lat="37.05396" lon="-3.34375">
        <ele>3101.8</ele>
        <time>2021-08-06 15:22:20</time>
      </trkpt>
      <trkpt lat="37.05396" lon="-3.34376">
        <ele>3102</ele>
        <time>2021-08-06 15:22:21</time>
      </trkpt>
      <trkpt lat="37.05396" lon="-3.34377">
        <ele>3102</ele>
        <time>2021-08-06 15:22:22</time>
      </trkpt>
      <trkpt lat="37.05396" lon="-3.34379">
        <ele>3102</ele>
        <time>2021-08-06 15:22:23</time>
      </trkpt>
      <trkpt lat="37.05396" lon="-3.3438">
        <ele>3102</ele>
        <time>2021-08-06 15:22:24</time>
      </trkpt>
      <trkpt lat="37.05396" lon="-3.34382">
        <ele>3101.8</ele>
        <time>2021-08-06 15:22:25</time>
      </trkpt>
      <trkpt lat="37.05396" lon="-3.34382">
        <ele>3101.8</ele>
        <time>2021-08-06 15:22:26</time>
      </trkpt>
      <trkpt lat="37.05396" lon="-3.34383">
        <ele>3101.6</ele>
        <time>2021-08-06 15:22:27</time>
      </trkpt>
      <trkpt lat="37.05396" lon="-3.34385">
        <ele>3101.6</ele>
        <time>2021-08-06 15:22:28</time>
      </trkpt>
      <trkpt lat="37.05395" lon="-3.34386">
        <ele>3101.4</ele>
        <time>2021-08-06 15:22:29</time>
      </trkpt>
      <trkpt lat="37.05395" lon="-3.34388">
        <ele>3101.4</ele>
        <time>2021-08-06 15:22:30</time>
      </trkpt>
      <trkpt lat="37.05395" lon="-3.34389">
        <ele>3101.4</ele>
        <time>2021-08-06 15:22:31</time>
      </trkpt>
      <trkpt lat="37.05395" lon="-3.3439">
        <ele>3101.4</ele>
        <time>2021-08-06 15:22:32</time>
      </trkpt>
      <trkpt lat="37.05395" lon="-3.34392">
        <ele>3101.4</ele>
        <time>2021-08-06 15:22:33</time>
      </trkpt>
      <trkpt lat="37.05396" lon="-3.34393">
        <ele>3101.4</ele>
        <time>2021-08-06 15:22:34</time>
      </trkpt>
      <trkpt lat="37.05395" lon="-3.34394">
        <ele>3101.4</ele>
        <time>2021-08-06 15:22:35</time>
      </trkpt>
      <trkpt lat="37.05395" lon="-3.34396">
        <ele>3101.4</ele>
        <time>2021-08-06 15:22:36</time>
      </trkpt>
      <trkpt lat="37.05395" lon="-3.34397">
        <ele>3101.4</ele>
        <time>2021-08-06 15:22:37</time>
      </trkpt>
      <trkpt lat="37.05395" lon="-3.34398">
        <ele>3101</ele>
        <time>2021-08-06 15:22:38</time>
      </trkpt>
      <trkpt lat="37.05395" lon="-3.34399">
        <ele>3101</ele>
        <time>2021-08-06 15:22:39</time>
      </trkpt>
      <trkpt lat="37.05395" lon="-3.344">
        <ele>3100.6</ele>
        <time>2021-08-06 15:22:40</time>
      </trkpt>
      <trkpt lat="37.05395" lon="-3.34402">
        <ele>3100.2</ele>
        <time>2021-08-06 15:22:41</time>
      </trkpt>
      <trkpt lat="37.05395" lon="-3.34404">
        <ele>3100</ele>
        <time>2021-08-06 15:22:42</time>
      </trkpt>
      <trkpt lat="37.05395" lon="-3.34405">
        <ele>3100</ele>
        <time>2021-08-06 15:22:43</time>
      </trkpt>
      <trkpt lat="37.05395" lon="-3.34405">
        <ele>3100</ele>
        <time>2021-08-06 15:22:44</time>
      </trkpt>
      <trkpt lat="37.05395" lon="-3.34406">
        <ele>3100</ele>
        <time>2021-08-06 15:22:45</time>
      </trkpt>
      <trkpt lat="37.05395" lon="-3.34406">
        <ele>3100</ele>
        <time>2021-08-06 15:22:46</time>
      </trkpt>
      <trkpt lat="37.05395" lon="-3.34406">
        <ele>3100.2</ele>
        <time>2021-08-06 15:22:47</time>
      </trkpt>
      <trkpt lat="37.05395" lon="-3.34406">
        <ele>3100.2</ele>
        <time>2021-08-06 15:22:48</time>
      </trkpt>
      <trkpt lat="37.05395" lon="-3.34407">
        <ele>3100.4</ele>
        <time>2021-08-06 15:22:49</time>
      </trkpt>
      <trkpt lat="37.05395" lon="-3.34408">
        <ele>3100.4</ele>
        <time>2021-08-06 15:22:50</time>
      </trkpt>
      <trkpt lat="37.05394" lon="-3.34408">
        <ele>3100.6</ele>
        <time>2021-08-06 15:22:51</time>
      </trkpt>
      <trkpt lat="37.05394" lon="-3.3441">
        <ele>3100.8</ele>
        <time>2021-08-06 15:22:52</time>
      </trkpt>
      <trkpt lat="37.05393" lon="-3.34411">
        <ele>3100.6</ele>
        <time>2021-08-06 15:22:53</time>
      </trkpt>
      <trkpt lat="37.05393" lon="-3.34413">
        <ele>3100.6</ele>
        <time>2021-08-06 15:22:54</time>
      </trkpt>
      <trkpt lat="37.05392" lon="-3.34414">
        <ele>3100.6</ele>
        <time>2021-08-06 15:22:55</time>
      </trkpt>
      <trkpt lat="37.05392" lon="-3.34416">
        <ele>3100.6</ele>
        <time>2021-08-06 15:22:56</time>
      </trkpt>
      <trkpt lat="37.05392" lon="-3.34417">
        <ele>3100.6</ele>
        <time>2021-08-06 15:22:57</time>
      </trkpt>
      <trkpt lat="37.05391" lon="-3.34418">
        <ele>3100.6</ele>
        <time>2021-08-06 15:22:58</time>
      </trkpt>
      <trkpt lat="37.05391" lon="-3.34419">
        <ele>3100.6</ele>
        <time>2021-08-06 15:22:59</time>
      </trkpt>
      <trkpt lat="37.0539" lon="-3.34421">
        <ele>3100.6</ele>
        <time>2021-08-06 15:23:00</time>
      </trkpt>
      <trkpt lat="37.0539" lon="-3.34422">
        <ele>3101.2</ele>
        <time>2021-08-06 15:23:01</time>
      </trkpt>
      <trkpt lat="37.05389" lon="-3.34424">
        <ele>3101.4</ele>
        <time>2021-08-06 15:23:02</time>
      </trkpt>
      <trkpt lat="37.05388" lon="-3.34425">
        <ele>3101.6</ele>
        <time>2021-08-06 15:23:03</time>
      </trkpt>
      <trkpt lat="37.05388" lon="-3.34426">
        <ele>3101.6</ele>
        <time>2021-08-06 15:23:04</time>
      </trkpt>
      <trkpt lat="37.05387" lon="-3.34427">
        <ele>3101.8</ele>
        <time>2021-08-06 15:23:05</time>
      </trkpt>
      <trkpt lat="37.05386" lon="-3.34428">
        <ele>3101.8</ele>
        <time>2021-08-06 15:23:06</time>
      </trkpt>
      <trkpt lat="37.05386" lon="-3.3443">
        <ele>3101.8</ele>
        <time>2021-08-06 15:23:07</time>
      </trkpt>
      <trkpt lat="37.05385" lon="-3.3443">
        <ele>3101.6</ele>
        <time>2021-08-06 15:23:08</time>
      </trkpt>
      <trkpt lat="37.05385" lon="-3.34431">
        <ele>3101.8</ele>
        <time>2021-08-06 15:23:09</time>
      </trkpt>
      <trkpt lat="37.05385" lon="-3.34432">
        <ele>3101.8</ele>
        <time>2021-08-06 15:23:10</time>
      </trkpt>
      <trkpt lat="37.05384" lon="-3.34434">
        <ele>3101.8</ele>
        <time>2021-08-06 15:23:11</time>
      </trkpt>
      <trkpt lat="37.05383" lon="-3.34435">
        <ele>3101.8</ele>
        <time>2021-08-06 15:23:12</time>
      </trkpt>
      <trkpt lat="37.05383" lon="-3.34436">
        <ele>3101.8</ele>
        <time>2021-08-06 15:23:13</time>
      </trkpt>
      <trkpt lat="37.05382" lon="-3.34438">
        <ele>3102</ele>
        <time>2021-08-06 15:23:14</time>
      </trkpt>
      <trkpt lat="37.05382" lon="-3.34439">
        <ele>3102</ele>
        <time>2021-08-06 15:23:15</time>
      </trkpt>
      <trkpt lat="37.05382" lon="-3.3444">
        <ele>3102.4</ele>
        <time>2021-08-06 15:23:16</time>
      </trkpt>
      <trkpt lat="37.05382" lon="-3.34441">
        <ele>3102.4</ele>
        <time>2021-08-06 15:23:17</time>
      </trkpt>
      <trkpt lat="37.05381" lon="-3.34442">
        <ele>3102.8</ele>
        <time>2021-08-06 15:23:18</time>
      </trkpt>
      <trkpt lat="37.05381" lon="-3.34443">
        <ele>3102.8</ele>
        <time>2021-08-06 15:23:19</time>
      </trkpt>
      <trkpt lat="37.05381" lon="-3.34444">
        <ele>3103</ele>
        <time>2021-08-06 15:23:20</time>
      </trkpt>
      <trkpt lat="37.05381" lon="-3.34446">
        <ele>3103.2</ele>
        <time>2021-08-06 15:23:21</time>
      </trkpt>
      <trkpt lat="37.05381" lon="-3.34447">
        <ele>3103.2</ele>
        <time>2021-08-06 15:23:22</time>
      </trkpt>
      <trkpt lat="37.05382" lon="-3.34448">
        <ele>3103.2</ele>
        <time>2021-08-06 15:23:23</time>
      </trkpt>
      <trkpt lat="37.05382" lon="-3.34449">
        <ele>3103.4</ele>
        <time>2021-08-06 15:23:24</time>
      </trkpt>
      <trkpt lat="37.05382" lon="-3.34451">
        <ele>3103.4</ele>
        <time>2021-08-06 15:23:25</time>
      </trkpt>
      <trkpt lat="37.05382" lon="-3.34452">
        <ele>3103.4</ele>
        <time>2021-08-06 15:23:26</time>
      </trkpt>
      <trkpt lat="37.05382" lon="-3.34453">
        <ele>3103.6</ele>
        <time>2021-08-06 15:23:27</time>
      </trkpt>
      <trkpt lat="37.05382" lon="-3.34454">
        <ele>3103.6</ele>
        <time>2021-08-06 15:23:28</time>
      </trkpt>
      <trkpt lat="37.05383" lon="-3.34455">
        <ele>3103.8</ele>
        <time>2021-08-06 15:23:29</time>
      </trkpt>
      <trkpt lat="37.05383" lon="-3.34457">
        <ele>3104</ele>
        <time>2021-08-06 15:23:30</time>
      </trkpt>
      <trkpt lat="37.05383" lon="-3.34458">
        <ele>3104</ele>
        <time>2021-08-06 15:23:31</time>
      </trkpt>
      <trkpt lat="37.05383" lon="-3.3446">
        <ele>3104</ele>
        <time>2021-08-06 15:23:32</time>
      </trkpt>
      <trkpt lat="37.05383" lon="-3.34461">
        <ele>3104</ele>
        <time>2021-08-06 15:23:33</time>
      </trkpt>
      <trkpt lat="37.05384" lon="-3.34462">
        <ele>3103.8</ele>
        <time>2021-08-06 15:23:34</time>
      </trkpt>
      <trkpt lat="37.05384" lon="-3.34463">
        <ele>3103.8</ele>
        <time>2021-08-06 15:23:35</time>
      </trkpt>
      <trkpt lat="37.05384" lon="-3.34464">
        <ele>3103.8</ele>
        <time>2021-08-06 15:23:36</time>
      </trkpt>
      <trkpt lat="37.05385" lon="-3.34465">
        <ele>3104</ele>
        <time>2021-08-06 15:23:37</time>
      </trkpt>
      <trkpt lat="37.05385" lon="-3.34466">
        <ele>3104.2</ele>
        <time>2021-08-06 15:23:38</time>
      </trkpt>
      <trkpt lat="37.05386" lon="-3.34467">
        <ele>3104.4</ele>
        <time>2021-08-06 15:23:39</time>
      </trkpt>
      <trkpt lat="37.05386" lon="-3.34468">
        <ele>3104.4</ele>
        <time>2021-08-06 15:23:40</time>
      </trkpt>
      <trkpt lat="37.05387" lon="-3.34469">
        <ele>3104.6</ele>
        <time>2021-08-06 15:23:41</time>
      </trkpt>
      <trkpt lat="37.05387" lon="-3.3447">
        <ele>3104.6</ele>
        <time>2021-08-06 15:23:42</time>
      </trkpt>
      <trkpt lat="37.05387" lon="-3.34471">
        <ele>3104.6</ele>
        <time>2021-08-06 15:23:43</time>
      </trkpt>
      <trkpt lat="37.05388" lon="-3.34472">
        <ele>3104.8</ele>
        <time>2021-08-06 15:23:44</time>
      </trkpt>
      <trkpt lat="37.05388" lon="-3.34474">
        <ele>3104.8</ele>
        <time>2021-08-06 15:23:45</time>
      </trkpt>
      <trkpt lat="37.05388" lon="-3.34475">
        <ele>3104.8</ele>
        <time>2021-08-06 15:23:46</time>
      </trkpt>
      <trkpt lat="37.05388" lon="-3.34476">
        <ele>3105</ele>
        <time>2021-08-06 15:23:47</time>
      </trkpt>
      <trkpt lat="37.05388" lon="-3.34478">
        <ele>3105.2</ele>
        <time>2021-08-06 15:23:48</time>
      </trkpt>
      <trkpt lat="37.05389" lon="-3.34479">
        <ele>3105.4</ele>
        <time>2021-08-06 15:23:49</time>
      </trkpt>
      <trkpt lat="37.05389" lon="-3.3448">
        <ele>3105.4</ele>
        <time>2021-08-06 15:23:50</time>
      </trkpt>
      <trkpt lat="37.0539" lon="-3.34481">
        <ele>3105.6</ele>
        <time>2021-08-06 15:23:51</time>
      </trkpt>
      <trkpt lat="37.0539" lon="-3.34482">
        <ele>3105.6</ele>
        <time>2021-08-06 15:23:52</time>
      </trkpt>
      <trkpt lat="37.05391" lon="-3.34483">
        <ele>3105.6</ele>
        <time>2021-08-06 15:23:53</time>
      </trkpt>
      <trkpt lat="37.05391" lon="-3.34484">
        <ele>3105.8</ele>
        <time>2021-08-06 15:23:54</time>
      </trkpt>
      <trkpt lat="37.05391" lon="-3.34485">
        <ele>3105.8</ele>
        <time>2021-08-06 15:23:55</time>
      </trkpt>
      <trkpt lat="37.05391" lon="-3.34486">
        <ele>3105.8</ele>
        <time>2021-08-06 15:23:56</time>
      </trkpt>
      <trkpt lat="37.05391" lon="-3.34488">
        <ele>3105.8</ele>
        <time>2021-08-06 15:23:57</time>
      </trkpt>
      <trkpt lat="37.05391" lon="-3.34489">
        <ele>3105.8</ele>
        <time>2021-08-06 15:23:58</time>
      </trkpt>
      <trkpt lat="37.05391" lon="-3.3449">
        <ele>3106</ele>
        <time>2021-08-06 15:23:59</time>
      </trkpt>
      <trkpt lat="37.05391" lon="-3.34491">
        <ele>3106.2</ele>
        <time>2021-08-06 15:24:00</time>
      </trkpt>
      <trkpt lat="37.05391" lon="-3.34493">
        <ele>3106.4</ele>
        <time>2021-08-06 15:24:01</time>
      </trkpt>
      <trkpt lat="37.05391" lon="-3.34494">
        <ele>3106.4</ele>
        <time>2021-08-06 15:24:02</time>
      </trkpt>
      <trkpt lat="37.05391" lon="-3.34494">
        <ele>3106.4</ele>
        <time>2021-08-06 15:24:03</time>
      </trkpt>
      <trkpt lat="37.05391" lon="-3.34495">
        <ele>3106.6</ele>
        <time>2021-08-06 15:24:04</time>
      </trkpt>
      <trkpt lat="37.05392" lon="-3.34496">
        <ele>3106.6</ele>
        <time>2021-08-06 15:24:05</time>
      </trkpt>
      <trkpt lat="37.05392" lon="-3.34497">
        <ele>3106.8</ele>
        <time>2021-08-06 15:24:06</time>
      </trkpt>
      <trkpt lat="37.05392" lon="-3.34498">
        <ele>3106.8</ele>
        <time>2021-08-06 15:24:07</time>
      </trkpt>
      <trkpt lat="37.05392" lon="-3.345">
        <ele>3106.8</ele>
        <time>2021-08-06 15:24:08</time>
      </trkpt>
      <trkpt lat="37.05392" lon="-3.34501">
        <ele>3106.8</ele>
        <time>2021-08-06 15:24:09</time>
      </trkpt>
      <trkpt lat="37.05392" lon="-3.34503">
        <ele>3106.8</ele>
        <time>2021-08-06 15:24:10</time>
      </trkpt>
      <trkpt lat="37.05391" lon="-3.34504">
        <ele>3106.8</ele>
        <time>2021-08-06 15:24:11</time>
      </trkpt>
      <trkpt lat="37.05391" lon="-3.34506">
        <ele>3106.8</ele>
        <time>2021-08-06 15:24:12</time>
      </trkpt>
      <trkpt lat="37.05391" lon="-3.34508">
        <ele>3106.6</ele>
        <time>2021-08-06 15:24:13</time>
      </trkpt>
      <trkpt lat="37.0539" lon="-3.34509">
        <ele>3106.8</ele>
        <time>2021-08-06 15:24:14</time>
      </trkpt>
      <trkpt lat="37.0539" lon="-3.3451">
        <ele>3107</ele>
        <time>2021-08-06 15:24:15</time>
      </trkpt>
      <trkpt lat="37.0539" lon="-3.34511">
        <ele>3107.2</ele>
        <time>2021-08-06 15:24:16</time>
      </trkpt>
      <trkpt lat="37.0539" lon="-3.34512">
        <ele>3107.4</ele>
        <time>2021-08-06 15:24:17</time>
      </trkpt>
      <trkpt lat="37.0539" lon="-3.34513">
        <ele>3107.6</ele>
        <time>2021-08-06 15:24:18</time>
      </trkpt>
      <trkpt lat="37.0539" lon="-3.34514">
        <ele>3107.8</ele>
        <time>2021-08-06 15:24:19</time>
      </trkpt>
      <trkpt lat="37.0539" lon="-3.34515">
        <ele>3107.8</ele>
        <time>2021-08-06 15:24:20</time>
      </trkpt>
      <trkpt lat="37.0539" lon="-3.34516">
        <ele>3108</ele>
        <time>2021-08-06 15:24:21</time>
      </trkpt>
      <trkpt lat="37.0539" lon="-3.34518">
        <ele>3108</ele>
        <time>2021-08-06 15:24:22</time>
      </trkpt>
      <trkpt lat="37.0539" lon="-3.34519">
        <ele>3108.2</ele>
        <time>2021-08-06 15:24:23</time>
      </trkpt>
      <trkpt lat="37.0539" lon="-3.3452">
        <ele>3108.2</ele>
        <time>2021-08-06 15:24:24</time>
      </trkpt>
      <trkpt lat="37.0539" lon="-3.34522">
        <ele>3108.2</ele>
        <time>2021-08-06 15:24:25</time>
      </trkpt>
      <trkpt lat="37.0539" lon="-3.34523">
        <ele>3108.4</ele>
        <time>2021-08-06 15:24:26</time>
      </trkpt>
      <trkpt lat="37.0539" lon="-3.34524">
        <ele>3108.4</ele>
        <time>2021-08-06 15:24:27</time>
      </trkpt>
      <trkpt lat="37.05391" lon="-3.34525">
        <ele>3108.6</ele>
        <time>2021-08-06 15:24:28</time>
      </trkpt>
      <trkpt lat="37.05391" lon="-3.34527">
        <ele>3108.6</ele>
        <time>2021-08-06 15:24:29</time>
      </trkpt>
      <trkpt lat="37.05391" lon="-3.34528">
        <ele>3108.6</ele>
        <time>2021-08-06 15:24:30</time>
      </trkpt>
      <trkpt lat="37.05391" lon="-3.34529">
        <ele>3108.6</ele>
        <time>2021-08-06 15:24:31</time>
      </trkpt>
      <trkpt lat="37.05392" lon="-3.3453">
        <ele>3108.6</ele>
        <time>2021-08-06 15:24:32</time>
      </trkpt>
      <trkpt lat="37.05392" lon="-3.34531">
        <ele>3108.6</ele>
        <time>2021-08-06 15:24:33</time>
      </trkpt>
      <trkpt lat="37.05392" lon="-3.34533">
        <ele>3108.8</ele>
        <time>2021-08-06 15:24:34</time>
      </trkpt>
      <trkpt lat="37.05393" lon="-3.34534">
        <ele>3109</ele>
        <time>2021-08-06 15:24:35</time>
      </trkpt>
      <trkpt lat="37.05393" lon="-3.34535">
        <ele>3109</ele>
        <time>2021-08-06 15:24:36</time>
      </trkpt>
      <trkpt lat="37.05393" lon="-3.34537">
        <ele>3109</ele>
        <time>2021-08-06 15:24:37</time>
      </trkpt>
      <trkpt lat="37.05393" lon="-3.34538">
        <ele>3109</ele>
        <time>2021-08-06 15:24:38</time>
      </trkpt>
      <trkpt lat="37.05393" lon="-3.34539">
        <ele>3109.2</ele>
        <time>2021-08-06 15:24:39</time>
      </trkpt>
      <trkpt lat="37.05393" lon="-3.3454">
        <ele>3109.2</ele>
        <time>2021-08-06 15:24:40</time>
      </trkpt>
      <trkpt lat="37.05394" lon="-3.34542">
        <ele>3109</ele>
        <time>2021-08-06 15:24:41</time>
      </trkpt>
      <trkpt lat="37.05394" lon="-3.34543">
        <ele>3109.2</ele>
        <time>2021-08-06 15:24:42</time>
      </trkpt>
      <trkpt lat="37.05394" lon="-3.34545">
        <ele>3109.4</ele>
        <time>2021-08-06 15:24:43</time>
      </trkpt>
      <trkpt lat="37.05393" lon="-3.34547">
        <ele>3109.4</ele>
        <time>2021-08-06 15:24:44</time>
      </trkpt>
      <trkpt lat="37.05392" lon="-3.34548">
        <ele>3109.6</ele>
        <time>2021-08-06 15:24:45</time>
      </trkpt>
      <trkpt lat="37.05392" lon="-3.3455">
        <ele>3109.6</ele>
        <time>2021-08-06 15:24:46</time>
      </trkpt>
      <trkpt lat="37.05392" lon="-3.34551">
        <ele>3109.6</ele>
        <time>2021-08-06 15:24:47</time>
      </trkpt>
      <trkpt lat="37.05392" lon="-3.34553">
        <ele>3109.6</ele>
        <time>2021-08-06 15:24:48</time>
      </trkpt>
      <trkpt lat="37.05391" lon="-3.34554">
        <ele>3109.6</ele>
        <time>2021-08-06 15:24:49</time>
      </trkpt>
      <trkpt lat="37.05391" lon="-3.34556">
        <ele>3109.6</ele>
        <time>2021-08-06 15:24:50</time>
      </trkpt>
      <trkpt lat="37.05391" lon="-3.34557">
        <ele>3109.6</ele>
        <time>2021-08-06 15:24:51</time>
      </trkpt>
      <trkpt lat="37.0539" lon="-3.34558">
        <ele>3109.6</ele>
        <time>2021-08-06 15:24:52</time>
      </trkpt>
      <trkpt lat="37.0539" lon="-3.3456">
        <ele>3109.4</ele>
        <time>2021-08-06 15:24:53</time>
      </trkpt>
      <trkpt lat="37.0539" lon="-3.34561">
        <ele>3109.4</ele>
        <time>2021-08-06 15:24:54</time>
      </trkpt>
      <trkpt lat="37.0539" lon="-3.34562">
        <ele>3109.6</ele>
        <time>2021-08-06 15:24:55</time>
      </trkpt>
      <trkpt lat="37.0539" lon="-3.34563">
        <ele>3110</ele>
        <time>2021-08-06 15:24:56</time>
      </trkpt>
      <trkpt lat="37.05389" lon="-3.34564">
        <ele>3110.2</ele>
        <time>2021-08-06 15:24:57</time>
      </trkpt>
      <trkpt lat="37.05389" lon="-3.34566">
        <ele>3110.2</ele>
        <time>2021-08-06 15:24:58</time>
      </trkpt>
      <trkpt lat="37.05389" lon="-3.34567">
        <ele>3110.4</ele>
        <time>2021-08-06 15:24:59</time>
      </trkpt>
      <trkpt lat="37.05389" lon="-3.34568">
        <ele>3110.4</ele>
        <time>2021-08-06 15:25:00</time>
      </trkpt>
      <trkpt lat="37.05388" lon="-3.34569">
        <ele>3110.4</ele>
        <time>2021-08-06 15:25:01</time>
      </trkpt>
      <trkpt lat="37.05388" lon="-3.3457">
        <ele>3110.4</ele>
        <time>2021-08-06 15:25:02</time>
      </trkpt>
      <trkpt lat="37.05389" lon="-3.34571">
        <ele>3110.4</ele>
        <time>2021-08-06 15:25:03</time>
      </trkpt>
      <trkpt lat="37.05389" lon="-3.34573">
        <ele>3110.6</ele>
        <time>2021-08-06 15:25:04</time>
      </trkpt>
      <trkpt lat="37.05389" lon="-3.34574">
        <ele>3110.6</ele>
        <time>2021-08-06 15:25:05</time>
      </trkpt>
      <trkpt lat="37.05388" lon="-3.34575">
        <ele>3110.8</ele>
        <time>2021-08-06 15:25:06</time>
      </trkpt>
      <trkpt lat="37.05388" lon="-3.34576">
        <ele>3111</ele>
        <time>2021-08-06 15:25:07</time>
      </trkpt>
      <trkpt lat="37.05388" lon="-3.34578">
        <ele>3110.8</ele>
        <time>2021-08-06 15:25:08</time>
      </trkpt>
      <trkpt lat="37.05388" lon="-3.34578">
        <ele>3110.8</ele>
        <time>2021-08-06 15:25:09</time>
      </trkpt>
      <trkpt lat="37.05388" lon="-3.34579">
        <ele>3111</ele>
        <time>2021-08-06 15:25:10</time>
      </trkpt>
      <trkpt lat="37.05388" lon="-3.3458">
        <ele>3111.2</ele>
        <time>2021-08-06 15:25:11</time>
      </trkpt>
      <trkpt lat="37.05387" lon="-3.34581">
        <ele>3111.2</ele>
        <time>2021-08-06 15:25:12</time>
      </trkpt>
      <trkpt lat="37.05387" lon="-3.34582">
        <ele>3111.2</ele>
        <time>2021-08-06 15:25:13</time>
      </trkpt>
      <trkpt lat="37.05387" lon="-3.34584">
        <ele>3111.4</ele>
        <time>2021-08-06 15:25:14</time>
      </trkpt>
      <trkpt lat="37.05386" lon="-3.34585">
        <ele>3111.6</ele>
        <time>2021-08-06 15:25:15</time>
      </trkpt>
      <trkpt lat="37.05386" lon="-3.34586">
        <ele>3111.6</ele>
        <time>2021-08-06 15:25:16</time>
      </trkpt>
      <trkpt lat="37.05385" lon="-3.34588">
        <ele>3111.8</ele>
        <time>2021-08-06 15:25:17</time>
      </trkpt>
      <trkpt lat="37.05385" lon="-3.34589">
        <ele>3112</ele>
        <time>2021-08-06 15:25:18</time>
      </trkpt>
      <trkpt lat="37.05385" lon="-3.3459">
        <ele>3112.4</ele>
        <time>2021-08-06 15:25:19</time>
      </trkpt>
      <trkpt lat="37.05384" lon="-3.34591">
        <ele>3112.4</ele>
        <time>2021-08-06 15:25:20</time>
      </trkpt>
      <trkpt lat="37.05384" lon="-3.34592">
        <ele>3112.6</ele>
        <time>2021-08-06 15:25:21</time>
      </trkpt>
      <trkpt lat="37.05383" lon="-3.34594">
        <ele>3112.6</ele>
        <time>2021-08-06 15:25:22</time>
      </trkpt>
      <trkpt lat="37.05383" lon="-3.34595">
        <ele>3112.6</ele>
        <time>2021-08-06 15:25:23</time>
      </trkpt>
      <trkpt lat="37.05383" lon="-3.34596">
        <ele>3112.6</ele>
        <time>2021-08-06 15:25:24</time>
      </trkpt>
      <trkpt lat="37.05383" lon="-3.34596">
        <ele>3112.6</ele>
        <time>2021-08-06 15:25:25</time>
      </trkpt>
      <trkpt lat="37.05382" lon="-3.34597">
        <ele>3112.8</ele>
        <time>2021-08-06 15:25:26</time>
      </trkpt>
      <trkpt lat="37.05382" lon="-3.34598">
        <ele>3112.8</ele>
        <time>2021-08-06 15:25:27</time>
      </trkpt>
      <trkpt lat="37.05381" lon="-3.34599">
        <ele>3113</ele>
        <time>2021-08-06 15:25:28</time>
      </trkpt>
      <trkpt lat="37.05381" lon="-3.34601">
        <ele>3113</ele>
        <time>2021-08-06 15:25:29</time>
      </trkpt>
      <trkpt lat="37.05381" lon="-3.34602">
        <ele>3113.2</ele>
        <time>2021-08-06 15:25:30</time>
      </trkpt>
      <trkpt lat="37.05381" lon="-3.34603">
        <ele>3113.4</ele>
        <time>2021-08-06 15:25:31</time>
      </trkpt>
      <trkpt lat="37.05381" lon="-3.34605">
        <ele>3113.6</ele>
        <time>2021-08-06 15:25:32</time>
      </trkpt>
      <trkpt lat="37.0538" lon="-3.34606">
        <ele>3113.6</ele>
        <time>2021-08-06 15:25:33</time>
      </trkpt>
      <trkpt lat="37.0538" lon="-3.34607">
        <ele>3113.8</ele>
        <time>2021-08-06 15:25:34</time>
      </trkpt>
      <trkpt lat="37.05379" lon="-3.34608">
        <ele>3113.8</ele>
        <time>2021-08-06 15:25:35</time>
      </trkpt>
      <trkpt lat="37.05379" lon="-3.3461">
        <ele>3114</ele>
        <time>2021-08-06 15:25:36</time>
      </trkpt>
      <trkpt lat="37.05379" lon="-3.34611">
        <ele>3114.2</ele>
        <time>2021-08-06 15:25:37</time>
      </trkpt>
      <trkpt lat="37.05379" lon="-3.34612">
        <ele>3114.4</ele>
        <time>2021-08-06 15:25:38</time>
      </trkpt>
      <trkpt lat="37.05378" lon="-3.34613">
        <ele>3114.4</ele>
        <time>2021-08-06 15:25:39</time>
      </trkpt>
      <trkpt lat="37.05378" lon="-3.34615">
        <ele>3114.4</ele>
        <time>2021-08-06 15:25:40</time>
      </trkpt>
      <trkpt lat="37.05378" lon="-3.34616">
        <ele>3114.4</ele>
        <time>2021-08-06 15:25:41</time>
      </trkpt>
      <trkpt lat="37.05377" lon="-3.34617">
        <ele>3114.4</ele>
        <time>2021-08-06 15:25:42</time>
      </trkpt>
      <trkpt lat="37.05377" lon="-3.34618">
        <ele>3114.4</ele>
        <time>2021-08-06 15:25:43</time>
      </trkpt>
      <trkpt lat="37.05376" lon="-3.34619">
        <ele>3114.4</ele>
        <time>2021-08-06 15:25:44</time>
      </trkpt>
      <trkpt lat="37.05376" lon="-3.34618">
        <ele>3114.4</ele>
        <time>2021-08-06 15:25:45</time>
      </trkpt>
      <trkpt lat="37.05376" lon="-3.34618">
        <ele>3114.4</ele>
        <time>2021-08-06 15:25:46</time>
      </trkpt>
      <trkpt lat="37.05376" lon="-3.34619">
        <ele>3114.4</ele>
        <time>2021-08-06 15:25:47</time>
      </trkpt>
      <trkpt lat="37.05376" lon="-3.34619">
        <ele>3114.8</ele>
        <time>2021-08-06 15:25:48</time>
      </trkpt>
      <trkpt lat="37.05375" lon="-3.34621">
        <ele>3115</ele>
        <time>2021-08-06 15:25:49</time>
      </trkpt>
      <trkpt lat="37.05375" lon="-3.34622">
        <ele>3115</ele>
        <time>2021-08-06 15:25:50</time>
      </trkpt>
      <trkpt lat="37.05375" lon="-3.34623">
        <ele>3115.2</ele>
        <time>2021-08-06 15:25:51</time>
      </trkpt>
      <trkpt lat="37.05374" lon="-3.34625">
        <ele>3115.4</ele>
        <time>2021-08-06 15:25:52</time>
      </trkpt>
      <trkpt lat="37.05374" lon="-3.34626">
        <ele>3115.6</ele>
        <time>2021-08-06 15:25:53</time>
      </trkpt>
      <trkpt lat="37.05374" lon="-3.34627">
        <ele>3115.6</ele>
        <time>2021-08-06 15:25:54</time>
      </trkpt>
      <trkpt lat="37.05374" lon="-3.34627">
        <ele>3115.8</ele>
        <time>2021-08-06 15:25:55</time>
      </trkpt>
      <trkpt lat="37.05374" lon="-3.34629">
        <ele>3115.8</ele>
        <time>2021-08-06 15:25:56</time>
      </trkpt>
      <trkpt lat="37.05374" lon="-3.3463">
        <ele>3116.4</ele>
        <time>2021-08-06 15:25:57</time>
      </trkpt>
      <trkpt lat="37.05373" lon="-3.34631">
        <ele>3116.6</ele>
        <time>2021-08-06 15:25:58</time>
      </trkpt>
      <trkpt lat="37.05373" lon="-3.34633">
        <ele>3116.6</ele>
        <time>2021-08-06 15:25:59</time>
      </trkpt>
      <trkpt lat="37.05372" lon="-3.34635">
        <ele>3116.8</ele>
        <time>2021-08-06 15:26:00</time>
      </trkpt>
      <trkpt lat="37.05372" lon="-3.34637">
        <ele>3117</ele>
        <time>2021-08-06 15:26:01</time>
      </trkpt>
      <trkpt lat="37.05372" lon="-3.34638">
        <ele>3116.8</ele>
        <time>2021-08-06 15:26:02</time>
      </trkpt>
      <trkpt lat="37.05371" lon="-3.34641">
        <ele>3117</ele>
        <time>2021-08-06 15:26:03</time>
      </trkpt>
      <trkpt lat="37.0537" lon="-3.34643">
        <ele>3116.8</ele>
        <time>2021-08-06 15:26:04</time>
      </trkpt>
      <trkpt lat="37.0537" lon="-3.34645">
        <ele>3117</ele>
        <time>2021-08-06 15:26:05</time>
      </trkpt>
      <trkpt lat="37.0537" lon="-3.34647">
        <ele>3117.2</ele>
        <time>2021-08-06 15:26:06</time>
      </trkpt>
      <trkpt lat="37.0537" lon="-3.34648">
        <ele>3117.2</ele>
        <time>2021-08-06 15:26:07</time>
      </trkpt>
      <trkpt lat="37.05369" lon="-3.3465">
        <ele>3117.4</ele>
        <time>2021-08-06 15:26:08</time>
      </trkpt>
      <trkpt lat="37.05369" lon="-3.34652">
        <ele>3117.6</ele>
        <time>2021-08-06 15:26:09</time>
      </trkpt>
      <trkpt lat="37.05368" lon="-3.34654">
        <ele>3117.6</ele>
        <time>2021-08-06 15:26:10</time>
      </trkpt>
      <trkpt lat="37.05368" lon="-3.34655">
        <ele>3117.8</ele>
        <time>2021-08-06 15:26:11</time>
      </trkpt>
      <trkpt lat="37.05368" lon="-3.34656">
        <ele>3117.8</ele>
        <time>2021-08-06 15:26:12</time>
      </trkpt>
      <trkpt lat="37.05368" lon="-3.34657">
        <ele>3117.6</ele>
        <time>2021-08-06 15:26:13</time>
      </trkpt>
      <trkpt lat="37.05368" lon="-3.3466">
        <ele>3117.6</ele>
        <time>2021-08-06 15:26:14</time>
      </trkpt>
      <trkpt lat="37.05367" lon="-3.34661">
        <ele>3117.4</ele>
        <time>2021-08-06 15:26:15</time>
      </trkpt>
      <trkpt lat="37.05367" lon="-3.34663">
        <ele>3117.2</ele>
        <time>2021-08-06 15:26:16</time>
      </trkpt>
      <trkpt lat="37.05366" lon="-3.34664">
        <ele>3117.2</ele>
        <time>2021-08-06 15:26:17</time>
      </trkpt>
      <trkpt lat="37.05366" lon="-3.34665">
        <ele>3117</ele>
        <time>2021-08-06 15:26:18</time>
      </trkpt>
      <trkpt lat="37.05367" lon="-3.34666">
        <ele>3117</ele>
        <time>2021-08-06 15:26:19</time>
      </trkpt>
      <trkpt lat="37.05365" lon="-3.34669">
        <ele>3117.2</ele>
        <time>2021-08-06 15:26:20</time>
      </trkpt>
      <trkpt lat="37.05365" lon="-3.34671">
        <ele>3117.2</ele>
        <time>2021-08-06 15:26:21</time>
      </trkpt>
      <trkpt lat="37.05365" lon="-3.34672">
        <ele>3117.4</ele>
        <time>2021-08-06 15:26:22</time>
      </trkpt>
      <trkpt lat="37.05366" lon="-3.34672">
        <ele>3117.4</ele>
        <time>2021-08-06 15:26:23</time>
      </trkpt>
      <trkpt lat="37.05366" lon="-3.34674">
        <ele>3117.6</ele>
        <time>2021-08-06 15:26:24</time>
      </trkpt>
      <trkpt lat="37.05366" lon="-3.34675">
        <ele>3118</ele>
        <time>2021-08-06 15:26:25</time>
      </trkpt>
      <trkpt lat="37.05366" lon="-3.34677">
        <ele>3118.2</ele>
        <time>2021-08-06 15:26:26</time>
      </trkpt>
      <trkpt lat="37.05366" lon="-3.34678">
        <ele>3118.4</ele>
        <time>2021-08-06 15:26:27</time>
      </trkpt>
      <trkpt lat="37.05366" lon="-3.34679">
        <ele>3118.6</ele>
        <time>2021-08-06 15:26:28</time>
      </trkpt>
      <trkpt lat="37.05365" lon="-3.34682">
        <ele>3118.6</ele>
        <time>2021-08-06 15:26:29</time>
      </trkpt>
      <trkpt lat="37.05365" lon="-3.34683">
        <ele>3118.8</ele>
        <time>2021-08-06 15:26:30</time>
      </trkpt>
      <trkpt lat="37.05365" lon="-3.34685">
        <ele>3119</ele>
        <time>2021-08-06 15:26:31</time>
      </trkpt>
      <trkpt lat="37.05365" lon="-3.34687">
        <ele>3119.2</ele>
        <time>2021-08-06 15:26:32</time>
      </trkpt>
      <trkpt lat="37.05366" lon="-3.34687">
        <ele>3119.2</ele>
        <time>2021-08-06 15:26:33</time>
      </trkpt>
      <trkpt lat="37.05367" lon="-3.34687">
        <ele>3119.4</ele>
        <time>2021-08-06 15:26:34</time>
      </trkpt>
      <trkpt lat="37.05367" lon="-3.34688">
        <ele>3119.6</ele>
        <time>2021-08-06 15:26:35</time>
      </trkpt>
      <trkpt lat="37.05367" lon="-3.34689">
        <ele>3119.6</ele>
        <time>2021-08-06 15:26:36</time>
      </trkpt>
      <trkpt lat="37.05367" lon="-3.3469">
        <ele>3119.8</ele>
        <time>2021-08-06 15:26:37</time>
      </trkpt>
      <trkpt lat="37.05368" lon="-3.3469">
        <ele>3119.8</ele>
        <time>2021-08-06 15:26:38</time>
      </trkpt>
      <trkpt lat="37.05368" lon="-3.34691">
        <ele>3119.8</ele>
        <time>2021-08-06 15:26:39</time>
      </trkpt>
      <trkpt lat="37.05368" lon="-3.34692">
        <ele>3119.8</ele>
        <time>2021-08-06 15:26:40</time>
      </trkpt>
      <trkpt lat="37.05369" lon="-3.34692">
        <ele>3119.8</ele>
        <time>2021-08-06 15:26:41</time>
      </trkpt>
      <trkpt lat="37.0537" lon="-3.34693">
        <ele>3119.8</ele>
        <time>2021-08-06 15:26:42</time>
      </trkpt>
      <trkpt lat="37.0537" lon="-3.34693">
        <ele>3119.8</ele>
        <time>2021-08-06 15:26:43</time>
      </trkpt>
      <trkpt lat="37.05371" lon="-3.34693">
        <ele>3119.8</ele>
        <time>2021-08-06 15:26:44</time>
      </trkpt>
      <trkpt lat="37.05371" lon="-3.34694">
        <ele>3120</ele>
        <time>2021-08-06 15:26:45</time>
      </trkpt>
      <trkpt lat="37.05372" lon="-3.34694">
        <ele>3120</ele>
        <time>2021-08-06 15:26:46</time>
      </trkpt>
      <trkpt lat="37.05372" lon="-3.34695">
        <ele>3120</ele>
        <time>2021-08-06 15:26:47</time>
      </trkpt>
      <trkpt lat="37.05372" lon="-3.34695">
        <ele>3120</ele>
        <time>2021-08-06 15:26:48</time>
      </trkpt>
      <trkpt lat="37.05372" lon="-3.34696">
        <ele>3120</ele>
        <time>2021-08-06 15:26:49</time>
      </trkpt>
      <trkpt lat="37.05372" lon="-3.34697">
        <ele>3120</ele>
        <time>2021-08-06 15:26:50</time>
      </trkpt>
      <trkpt lat="37.05372" lon="-3.34698">
        <ele>3120</ele>
        <time>2021-08-06 15:26:51</time>
      </trkpt>
      <trkpt lat="37.05372" lon="-3.34699">
        <ele>3120.2</ele>
        <time>2021-08-06 15:26:52</time>
      </trkpt>
      <trkpt lat="37.05372" lon="-3.34701">
        <ele>3120.2</ele>
        <time>2021-08-06 15:26:53</time>
      </trkpt>
      <trkpt lat="37.05371" lon="-3.34702">
        <ele>3120.2</ele>
        <time>2021-08-06 15:26:54</time>
      </trkpt>
      <trkpt lat="37.05372" lon="-3.34702">
        <ele>3120.6</ele>
        <time>2021-08-06 15:26:55</time>
      </trkpt>
      <trkpt lat="37.05371" lon="-3.34703">
        <ele>3120.8</ele>
        <time>2021-08-06 15:26:56</time>
      </trkpt>
      <trkpt lat="37.05371" lon="-3.34704">
        <ele>3120.8</ele>
        <time>2021-08-06 15:26:57</time>
      </trkpt>
      <trkpt lat="37.05371" lon="-3.34706">
        <ele>3120.8</ele>
        <time>2021-08-06 15:26:58</time>
      </trkpt>
      <trkpt lat="37.0537" lon="-3.34707">
        <ele>3120.8</ele>
        <time>2021-08-06 15:26:59</time>
      </trkpt>
      <trkpt lat="37.0537" lon="-3.34708">
        <ele>3121</ele>
        <time>2021-08-06 15:27:00</time>
      </trkpt>
      <trkpt lat="37.0537" lon="-3.3471">
        <ele>3121</ele>
        <time>2021-08-06 15:27:01</time>
      </trkpt>
      <trkpt lat="37.05369" lon="-3.34711">
        <ele>3121</ele>
        <time>2021-08-06 15:27:02</time>
      </trkpt>
      <trkpt lat="37.05369" lon="-3.34712">
        <ele>3121</ele>
        <time>2021-08-06 15:27:03</time>
      </trkpt>
      <trkpt lat="37.05369" lon="-3.34713">
        <ele>3121</ele>
        <time>2021-08-06 15:27:04</time>
      </trkpt>
      <trkpt lat="37.05368" lon="-3.34714">
        <ele>3121</ele>
        <time>2021-08-06 15:27:05</time>
      </trkpt>
      <trkpt lat="37.05368" lon="-3.34716">
        <ele>3121.2</ele>
        <time>2021-08-06 15:27:06</time>
      </trkpt>
      <trkpt lat="37.05368" lon="-3.34717">
        <ele>3121.2</ele>
        <time>2021-08-06 15:27:07</time>
      </trkpt>
      <trkpt lat="37.05368" lon="-3.34718">
        <ele>3121</ele>
        <time>2021-08-06 15:27:08</time>
      </trkpt>
      <trkpt lat="37.05368" lon="-3.3472">
        <ele>3121</ele>
        <time>2021-08-06 15:27:09</time>
      </trkpt>
      <trkpt lat="37.05368" lon="-3.34721">
        <ele>3121.2</ele>
        <time>2021-08-06 15:27:10</time>
      </trkpt>
      <trkpt lat="37.05368" lon="-3.34723">
        <ele>3121.2</ele>
        <time>2021-08-06 15:27:11</time>
      </trkpt>
      <trkpt lat="37.05368" lon="-3.34724">
        <ele>3121.4</ele>
        <time>2021-08-06 15:27:12</time>
      </trkpt>
      <trkpt lat="37.05368" lon="-3.34726">
        <ele>3121.8</ele>
        <time>2021-08-06 15:27:13</time>
      </trkpt>
      <trkpt lat="37.05368" lon="-3.34727">
        <ele>3122</ele>
        <time>2021-08-06 15:27:14</time>
      </trkpt>
      <trkpt lat="37.05369" lon="-3.34728">
        <ele>3122.2</ele>
        <time>2021-08-06 15:27:15</time>
      </trkpt>
      <trkpt lat="37.05369" lon="-3.34729">
        <ele>3122.2</ele>
        <time>2021-08-06 15:27:16</time>
      </trkpt>
      <trkpt lat="37.05369" lon="-3.3473">
        <ele>3122</ele>
        <time>2021-08-06 15:27:17</time>
      </trkpt>
      <trkpt lat="37.05369" lon="-3.34732">
        <ele>3121.8</ele>
        <time>2021-08-06 15:27:18</time>
      </trkpt>
      <trkpt lat="37.05369" lon="-3.34734">
        <ele>3121.8</ele>
        <time>2021-08-06 15:27:19</time>
      </trkpt>
      <trkpt lat="37.05368" lon="-3.34735">
        <ele>3121.8</ele>
        <time>2021-08-06 15:27:20</time>
      </trkpt>
      <trkpt lat="37.05368" lon="-3.34736">
        <ele>3121.8</ele>
        <time>2021-08-06 15:27:21</time>
      </trkpt>
      <trkpt lat="37.05368" lon="-3.34738">
        <ele>3121.8</ele>
        <time>2021-08-06 15:27:22</time>
      </trkpt>
      <trkpt lat="37.05368" lon="-3.34739">
        <ele>3122</ele>
        <time>2021-08-06 15:27:23</time>
      </trkpt>
      <trkpt lat="37.05368" lon="-3.3474">
        <ele>3122.2</ele>
        <time>2021-08-06 15:27:24</time>
      </trkpt>
      <trkpt lat="37.05368" lon="-3.34741">
        <ele>3122.2</ele>
        <time>2021-08-06 15:27:25</time>
      </trkpt>
      <trkpt lat="37.05368" lon="-3.34742">
        <ele>3122.2</ele>
        <time>2021-08-06 15:27:26</time>
      </trkpt>
      <trkpt lat="37.05367" lon="-3.34743">
        <ele>3122.2</ele>
        <time>2021-08-06 15:27:27</time>
      </trkpt>
      <trkpt lat="37.05367" lon="-3.34745">
        <ele>3122.2</ele>
        <time>2021-08-06 15:27:28</time>
      </trkpt>
      <trkpt lat="37.05367" lon="-3.34746">
        <ele>3122.2</ele>
        <time>2021-08-06 15:27:29</time>
      </trkpt>
      <trkpt lat="37.05367" lon="-3.34747">
        <ele>3122.2</ele>
        <time>2021-08-06 15:27:30</time>
      </trkpt>
      <trkpt lat="37.05367" lon="-3.34748">
        <ele>3122.2</ele>
        <time>2021-08-06 15:27:31</time>
      </trkpt>
      <trkpt lat="37.05366" lon="-3.3475">
        <ele>3122.6</ele>
        <time>2021-08-06 15:27:32</time>
      </trkpt>
      <trkpt lat="37.05366" lon="-3.34751">
        <ele>3122.6</ele>
        <time>2021-08-06 15:27:33</time>
      </trkpt>
      <trkpt lat="37.05366" lon="-3.34752">
        <ele>3122.6</ele>
        <time>2021-08-06 15:27:34</time>
      </trkpt>
      <trkpt lat="37.05366" lon="-3.34754">
        <ele>3122.6</ele>
        <time>2021-08-06 15:27:35</time>
      </trkpt>
      <trkpt lat="37.05366" lon="-3.34755">
        <ele>3122.4</ele>
        <time>2021-08-06 15:27:36</time>
      </trkpt>
      <trkpt lat="37.05366" lon="-3.34756">
        <ele>3122.6</ele>
        <time>2021-08-06 15:27:37</time>
      </trkpt>
      <trkpt lat="37.05366" lon="-3.34757">
        <ele>3122.6</ele>
        <time>2021-08-06 15:27:38</time>
      </trkpt>
      <trkpt lat="37.05366" lon="-3.3476">
        <ele>3122.4</ele>
        <time>2021-08-06 15:27:39</time>
      </trkpt>
      <trkpt lat="37.05366" lon="-3.34762">
        <ele>3122.4</ele>
        <time>2021-08-06 15:27:40</time>
      </trkpt>
      <trkpt lat="37.05365" lon="-3.34763">
        <ele>3122.4</ele>
        <time>2021-08-06 15:27:41</time>
      </trkpt>
      <trkpt lat="37.05365" lon="-3.34764">
        <ele>3122.6</ele>
        <time>2021-08-06 15:27:42</time>
      </trkpt>
      <trkpt lat="37.05364" lon="-3.34765">
        <ele>3122.6</ele>
        <time>2021-08-06 15:27:43</time>
      </trkpt>
      <trkpt lat="37.05365" lon="-3.34765">
        <ele>3122.6</ele>
        <time>2021-08-06 15:27:44</time>
      </trkpt>
      <trkpt lat="37.05365" lon="-3.34766">
        <ele>3122.6</ele>
        <time>2021-08-06 15:27:45</time>
      </trkpt>
      <trkpt lat="37.05364" lon="-3.34767">
        <ele>3123</ele>
        <time>2021-08-06 15:27:46</time>
      </trkpt>
      <trkpt lat="37.05364" lon="-3.34769">
        <ele>3123</ele>
        <time>2021-08-06 15:27:47</time>
      </trkpt>
      <trkpt lat="37.05364" lon="-3.3477">
        <ele>3123</ele>
        <time>2021-08-06 15:27:48</time>
      </trkpt>
      <trkpt lat="37.05363" lon="-3.3477">
        <ele>3123</ele>
        <time>2021-08-06 15:27:49</time>
      </trkpt>
      <trkpt lat="37.05363" lon="-3.34771">
        <ele>3123.2</ele>
        <time>2021-08-06 15:27:50</time>
      </trkpt>
      <trkpt lat="37.05362" lon="-3.34772">
        <ele>3123.4</ele>
        <time>2021-08-06 15:27:51</time>
      </trkpt>
      <trkpt lat="37.05361" lon="-3.34774">
        <ele>3123.4</ele>
        <time>2021-08-06 15:27:52</time>
      </trkpt>
      <trkpt lat="37.0536" lon="-3.34776">
        <ele>3123.6</ele>
        <time>2021-08-06 15:27:53</time>
      </trkpt>
      <trkpt lat="37.05359" lon="-3.34777">
        <ele>3123.8</ele>
        <time>2021-08-06 15:27:54</time>
      </trkpt>
      <trkpt lat="37.05359" lon="-3.34778">
        <ele>3123.8</ele>
        <time>2021-08-06 15:27:55</time>
      </trkpt>
      <trkpt lat="37.05359" lon="-3.3478">
        <ele>3123.8</ele>
        <time>2021-08-06 15:27:56</time>
      </trkpt>
      <trkpt lat="37.05358" lon="-3.34781">
        <ele>3123.8</ele>
        <time>2021-08-06 15:27:57</time>
      </trkpt>
      <trkpt lat="37.05358" lon="-3.34782">
        <ele>3123.8</ele>
        <time>2021-08-06 15:27:58</time>
      </trkpt>
      <trkpt lat="37.05357" lon="-3.34783">
        <ele>3123.8</ele>
        <time>2021-08-06 15:27:59</time>
      </trkpt>
      <trkpt lat="37.05357" lon="-3.34784">
        <ele>3123.8</ele>
        <time>2021-08-06 15:28:00</time>
      </trkpt>
      <trkpt lat="37.05356" lon="-3.34785">
        <ele>3123.8</ele>
        <time>2021-08-06 15:28:01</time>
      </trkpt>
      <trkpt lat="37.05356" lon="-3.34786">
        <ele>3124</ele>
        <time>2021-08-06 15:28:02</time>
      </trkpt>
      <trkpt lat="37.05355" lon="-3.34788">
        <ele>3124</ele>
        <time>2021-08-06 15:28:03</time>
      </trkpt>
      <trkpt lat="37.05354" lon="-3.34789">
        <ele>3124</ele>
        <time>2021-08-06 15:28:04</time>
      </trkpt>
      <trkpt lat="37.05354" lon="-3.3479">
        <ele>3124</ele>
        <time>2021-08-06 15:28:05</time>
      </trkpt>
      <trkpt lat="37.05353" lon="-3.34791">
        <ele>3124.2</ele>
        <time>2021-08-06 15:28:06</time>
      </trkpt>
      <trkpt lat="37.05352" lon="-3.34792">
        <ele>3124.4</ele>
        <time>2021-08-06 15:28:07</time>
      </trkpt>
      <trkpt lat="37.05352" lon="-3.34793">
        <ele>3124.6</ele>
        <time>2021-08-06 15:28:08</time>
      </trkpt>
      <trkpt lat="37.05352" lon="-3.34794">
        <ele>3124.8</ele>
        <time>2021-08-06 15:28:09</time>
      </trkpt>
      <trkpt lat="37.05351" lon="-3.34795">
        <ele>3125</ele>
        <time>2021-08-06 15:28:10</time>
      </trkpt>
      <trkpt lat="37.0535" lon="-3.34796">
        <ele>3125</ele>
        <time>2021-08-06 15:28:11</time>
      </trkpt>
      <trkpt lat="37.0535" lon="-3.34797">
        <ele>3125</ele>
        <time>2021-08-06 15:28:12</time>
      </trkpt>
      <trkpt lat="37.05349" lon="-3.34798">
        <ele>3125</ele>
        <time>2021-08-06 15:28:13</time>
      </trkpt>
      <trkpt lat="37.05348" lon="-3.34799">
        <ele>3125.2</ele>
        <time>2021-08-06 15:28:14</time>
      </trkpt>
      <trkpt lat="37.05348" lon="-3.34801">
        <ele>3125.2</ele>
        <time>2021-08-06 15:28:15</time>
      </trkpt>
      <trkpt lat="37.05347" lon="-3.34802">
        <ele>3125.4</ele>
        <time>2021-08-06 15:28:16</time>
      </trkpt>
      <trkpt lat="37.05347" lon="-3.34803">
        <ele>3125.4</ele>
        <time>2021-08-06 15:28:17</time>
      </trkpt>
      <trkpt lat="37.05347" lon="-3.34804">
        <ele>3125.4</ele>
        <time>2021-08-06 15:28:18</time>
      </trkpt>
      <trkpt lat="37.05346" lon="-3.34805">
        <ele>3125.4</ele>
        <time>2021-08-06 15:28:19</time>
      </trkpt>
      <trkpt lat="37.05346" lon="-3.34807">
        <ele>3125.6</ele>
        <time>2021-08-06 15:28:20</time>
      </trkpt>
      <trkpt lat="37.05346" lon="-3.34808">
        <ele>3125.6</ele>
        <time>2021-08-06 15:28:21</time>
      </trkpt>
      <trkpt lat="37.05345" lon="-3.34809">
        <ele>3125.6</ele>
        <time>2021-08-06 15:28:22</time>
      </trkpt>
      <trkpt lat="37.05344" lon="-3.34811">
        <ele>3125.8</ele>
        <time>2021-08-06 15:28:23</time>
      </trkpt>
      <trkpt lat="37.05344" lon="-3.34812">
        <ele>3125.8</ele>
        <time>2021-08-06 15:28:24</time>
      </trkpt>
      <trkpt lat="37.05343" lon="-3.34813">
        <ele>3126</ele>
        <time>2021-08-06 15:28:25</time>
      </trkpt>
      <trkpt lat="37.05342" lon="-3.34813">
        <ele>3126</ele>
        <time>2021-08-06 15:28:26</time>
      </trkpt>
      <trkpt lat="37.05342" lon="-3.34814">
        <ele>3126.2</ele>
        <time>2021-08-06 15:28:27</time>
      </trkpt>
      <trkpt lat="37.05342" lon="-3.34815">
        <ele>3126.2</ele>
        <time>2021-08-06 15:28:28</time>
      </trkpt>
      <trkpt lat="37.05342" lon="-3.34816">
        <ele>3126.2</ele>
        <time>2021-08-06 15:28:29</time>
      </trkpt>
      <trkpt lat="37.05341" lon="-3.34818">
        <ele>3126.2</ele>
        <time>2021-08-06 15:28:30</time>
      </trkpt>
      <trkpt lat="37.0534" lon="-3.34819">
        <ele>3126.4</ele>
        <time>2021-08-06 15:28:31</time>
      </trkpt>
      <trkpt lat="37.05339" lon="-3.3482">
        <ele>3126.6</ele>
        <time>2021-08-06 15:28:32</time>
      </trkpt>
      <trkpt lat="37.05339" lon="-3.34821">
        <ele>3126.6</ele>
        <time>2021-08-06 15:28:33</time>
      </trkpt>
      <trkpt lat="37.05338" lon="-3.34822">
        <ele>3126.4</ele>
        <time>2021-08-06 15:28:34</time>
      </trkpt>
      <trkpt lat="37.05337" lon="-3.34823">
        <ele>3126.6</ele>
        <time>2021-08-06 15:28:35</time>
      </trkpt>
      <trkpt lat="37.05336" lon="-3.34825">
        <ele>3126.8</ele>
        <time>2021-08-06 15:28:36</time>
      </trkpt>
      <trkpt lat="37.05336" lon="-3.34826">
        <ele>3127</ele>
        <time>2021-08-06 15:28:37</time>
      </trkpt>
      <trkpt lat="37.05335" lon="-3.34826">
        <ele>3127.2</ele>
        <time>2021-08-06 15:28:38</time>
      </trkpt>
      <trkpt lat="37.05335" lon="-3.34827">
        <ele>3127.2</ele>
        <time>2021-08-06 15:28:39</time>
      </trkpt>
      <trkpt lat="37.05334" lon="-3.34827">
        <ele>3127.4</ele>
        <time>2021-08-06 15:28:40</time>
      </trkpt>
      <trkpt lat="37.05333" lon="-3.34828">
        <ele>3127.4</ele>
        <time>2021-08-06 15:28:41</time>
      </trkpt>
      <trkpt lat="37.05333" lon="-3.34828">
        <ele>3127.6</ele>
        <time>2021-08-06 15:28:42</time>
      </trkpt>
      <trkpt lat="37.05332" lon="-3.34829">
        <ele>3127.6</ele>
        <time>2021-08-06 15:28:43</time>
      </trkpt>
      <trkpt lat="37.05331" lon="-3.34829">
        <ele>3127.8</ele>
        <time>2021-08-06 15:28:44</time>
      </trkpt>
      <trkpt lat="37.0533" lon="-3.3483">
        <ele>3128</ele>
        <time>2021-08-06 15:28:45</time>
      </trkpt>
      <trkpt lat="37.0533" lon="-3.34831">
        <ele>3128.2</ele>
        <time>2021-08-06 15:28:46</time>
      </trkpt>
      <trkpt lat="37.05329" lon="-3.34832">
        <ele>3128.2</ele>
        <time>2021-08-06 15:28:47</time>
      </trkpt>
      <trkpt lat="37.05328" lon="-3.34832">
        <ele>3128.6</ele>
        <time>2021-08-06 15:28:48</time>
      </trkpt>
      <trkpt lat="37.05328" lon="-3.34833">
        <ele>3128.8</ele>
        <time>2021-08-06 15:28:49</time>
      </trkpt>
      <trkpt lat="37.05327" lon="-3.34833">
        <ele>3129</ele>
        <time>2021-08-06 15:28:50</time>
      </trkpt>
      <trkpt lat="37.05327" lon="-3.34833">
        <ele>3129.2</ele>
        <time>2021-08-06 15:28:51</time>
      </trkpt>
      <trkpt lat="37.05326" lon="-3.34834">
        <ele>3129.4</ele>
        <time>2021-08-06 15:28:52</time>
      </trkpt>
      <trkpt lat="37.05325" lon="-3.34835">
        <ele>3129.4</ele>
        <time>2021-08-06 15:28:53</time>
      </trkpt>
      <trkpt lat="37.05325" lon="-3.34837">
        <ele>3129.4</ele>
        <time>2021-08-06 15:28:54</time>
      </trkpt>
      <trkpt lat="37.05324" lon="-3.34838">
        <ele>3129.6</ele>
        <time>2021-08-06 15:28:55</time>
      </trkpt>
      <trkpt lat="37.05324" lon="-3.34839">
        <ele>3129.6</ele>
        <time>2021-08-06 15:28:56</time>
      </trkpt>
      <trkpt lat="37.05323" lon="-3.3484">
        <ele>3129.8</ele>
        <time>2021-08-06 15:28:57</time>
      </trkpt>
      <trkpt lat="37.05322" lon="-3.34841">
        <ele>3129.8</ele>
        <time>2021-08-06 15:28:58</time>
      </trkpt>
      <trkpt lat="37.05321" lon="-3.34842">
        <ele>3129.8</ele>
        <time>2021-08-06 15:28:59</time>
      </trkpt>
      <trkpt lat="37.05321" lon="-3.34843">
        <ele>3130</ele>
        <time>2021-08-06 15:29:00</time>
      </trkpt>
      <trkpt lat="37.05321" lon="-3.34845">
        <ele>3130</ele>
        <time>2021-08-06 15:29:01</time>
      </trkpt>
      <trkpt lat="37.05321" lon="-3.34847">
        <ele>3130</ele>
        <time>2021-08-06 15:29:02</time>
      </trkpt>
      <trkpt lat="37.05321" lon="-3.34848">
        <ele>3130.2</ele>
        <time>2021-08-06 15:29:03</time>
      </trkpt>
      <trkpt lat="37.0532" lon="-3.34849">
        <ele>3130</ele>
        <time>2021-08-06 15:29:04</time>
      </trkpt>
      <trkpt lat="37.0532" lon="-3.3485">
        <ele>3130.2</ele>
        <time>2021-08-06 15:29:05</time>
      </trkpt>
      <trkpt lat="37.0532" lon="-3.34851">
        <ele>3130.2</ele>
        <time>2021-08-06 15:29:06</time>
      </trkpt>
      <trkpt lat="37.0532" lon="-3.34852">
        <ele>3130</ele>
        <time>2021-08-06 15:29:07</time>
      </trkpt>
      <trkpt lat="37.05319" lon="-3.34853">
        <ele>3130</ele>
        <time>2021-08-06 15:29:08</time>
      </trkpt>
      <trkpt lat="37.05319" lon="-3.34854">
        <ele>3130</ele>
        <time>2021-08-06 15:29:09</time>
      </trkpt>
      <trkpt lat="37.05319" lon="-3.34855">
        <ele>3130</ele>
        <time>2021-08-06 15:29:10</time>
      </trkpt>
      <trkpt lat="37.05318" lon="-3.34856">
        <ele>3130.2</ele>
        <time>2021-08-06 15:29:11</time>
      </trkpt>
      <trkpt lat="37.05318" lon="-3.34857">
        <ele>3130.2</ele>
        <time>2021-08-06 15:29:12</time>
      </trkpt>
      <trkpt lat="37.05317" lon="-3.34859">
        <ele>3130.2</ele>
        <time>2021-08-06 15:29:13</time>
      </trkpt>
      <trkpt lat="37.05317" lon="-3.3486">
        <ele>3130.2</ele>
        <time>2021-08-06 15:29:14</time>
      </trkpt>
      <trkpt lat="37.05316" lon="-3.34862">
        <ele>3130.6</ele>
        <time>2021-08-06 15:29:15</time>
      </trkpt>
      <trkpt lat="37.05315" lon="-3.34863">
        <ele>3130.8</ele>
        <time>2021-08-06 15:29:16</time>
      </trkpt>
      <trkpt lat="37.05315" lon="-3.34864">
        <ele>3131.2</ele>
        <time>2021-08-06 15:29:17</time>
      </trkpt>
      <trkpt lat="37.05314" lon="-3.34865">
        <ele>3131.2</ele>
        <time>2021-08-06 15:29:18</time>
      </trkpt>
      <trkpt lat="37.05314" lon="-3.34865">
        <ele>3131.4</ele>
        <time>2021-08-06 15:29:19</time>
      </trkpt>
      <trkpt lat="37.05313" lon="-3.34866">
        <ele>3131.4</ele>
        <time>2021-08-06 15:29:20</time>
      </trkpt>
      <trkpt lat="37.05313" lon="-3.34867">
        <ele>3131.4</ele>
        <time>2021-08-06 15:29:21</time>
      </trkpt>
      <trkpt lat="37.05312" lon="-3.34868">
        <ele>3131.6</ele>
        <time>2021-08-06 15:29:22</time>
      </trkpt>
      <trkpt lat="37.05312" lon="-3.34868">
        <ele>3131.4</ele>
        <time>2021-08-06 15:29:23</time>
      </trkpt>
      <trkpt lat="37.05311" lon="-3.34869">
        <ele>3131.4</ele>
        <time>2021-08-06 15:29:24</time>
      </trkpt>
      <trkpt lat="37.05311" lon="-3.3487">
        <ele>3131.2</ele>
        <time>2021-08-06 15:29:25</time>
      </trkpt>
      <trkpt lat="37.0531" lon="-3.34871">
        <ele>3131.8</ele>
        <time>2021-08-06 15:29:26</time>
      </trkpt>
      <trkpt lat="37.0531" lon="-3.34871">
        <ele>3132.4</ele>
        <time>2021-08-06 15:29:27</time>
      </trkpt>
      <trkpt lat="37.05309" lon="-3.34872">
        <ele>3132</ele>
        <time>2021-08-06 15:29:28</time>
      </trkpt>
      <trkpt lat="37.05309" lon="-3.34873">
        <ele>3132.4</ele>
        <time>2021-08-06 15:29:29</time>
      </trkpt>
      <trkpt lat="37.05308" lon="-3.34874">
        <ele>3132.6</ele>
        <time>2021-08-06 15:29:30</time>
      </trkpt>
      <trkpt lat="37.05308" lon="-3.34876">
        <ele>3133</ele>
        <time>2021-08-06 15:29:31</time>
      </trkpt>
      <trkpt lat="37.05307" lon="-3.34877">
        <ele>3133</ele>
        <time>2021-08-06 15:29:32</time>
      </trkpt>
      <trkpt lat="37.05307" lon="-3.34878">
        <ele>3133.2</ele>
        <time>2021-08-06 15:29:33</time>
      </trkpt>
      <trkpt lat="37.05307" lon="-3.34879">
        <ele>3133.2</ele>
        <time>2021-08-06 15:29:34</time>
      </trkpt>
      <trkpt lat="37.05307" lon="-3.34882">
        <ele>3133.4</ele>
        <time>2021-08-06 15:29:35</time>
      </trkpt>
      <trkpt lat="37.05306" lon="-3.34883">
        <ele>3133.4</ele>
        <time>2021-08-06 15:29:36</time>
      </trkpt>
      <trkpt lat="37.05306" lon="-3.34885">
        <ele>3133.4</ele>
        <time>2021-08-06 15:29:37</time>
      </trkpt>
      <trkpt lat="37.05305" lon="-3.34886">
        <ele>3133.4</ele>
        <time>2021-08-06 15:29:38</time>
      </trkpt>
      <trkpt lat="37.05304" lon="-3.34886">
        <ele>3133.8</ele>
        <time>2021-08-06 15:29:39</time>
      </trkpt>
      <trkpt lat="37.05303" lon="-3.34888">
        <ele>3134</ele>
        <time>2021-08-06 15:29:40</time>
      </trkpt>
      <trkpt lat="37.05303" lon="-3.34889">
        <ele>3134.2</ele>
        <time>2021-08-06 15:29:41</time>
      </trkpt>
      <trkpt lat="37.05303" lon="-3.3489">
        <ele>3134.4</ele>
        <time>2021-08-06 15:29:42</time>
      </trkpt>
      <trkpt lat="37.05303" lon="-3.34891">
        <ele>3134.4</ele>
        <time>2021-08-06 15:29:43</time>
      </trkpt>
      <trkpt lat="37.05302" lon="-3.34892">
        <ele>3134.4</ele>
        <time>2021-08-06 15:29:44</time>
      </trkpt>
      <trkpt lat="37.05301" lon="-3.34893">
        <ele>3134.6</ele>
        <time>2021-08-06 15:29:45</time>
      </trkpt>
      <trkpt lat="37.05301" lon="-3.34894">
        <ele>3134.6</ele>
        <time>2021-08-06 15:29:46</time>
      </trkpt>
      <trkpt lat="37.053" lon="-3.34895">
        <ele>3134.6</ele>
        <time>2021-08-06 15:29:47</time>
      </trkpt>
      <trkpt lat="37.053" lon="-3.34896">
        <ele>3134.6</ele>
        <time>2021-08-06 15:29:48</time>
      </trkpt>
      <trkpt lat="37.05299" lon="-3.34897">
        <ele>3134.6</ele>
        <time>2021-08-06 15:29:49</time>
      </trkpt>
      <trkpt lat="37.05298" lon="-3.34898">
        <ele>3134.8</ele>
        <time>2021-08-06 15:29:50</time>
      </trkpt>
      <trkpt lat="37.05298" lon="-3.34899">
        <ele>3134.8</ele>
        <time>2021-08-06 15:29:51</time>
      </trkpt>
      <trkpt lat="37.05297" lon="-3.349">
        <ele>3135</ele>
        <time>2021-08-06 15:29:52</time>
      </trkpt>
      <trkpt lat="37.05296" lon="-3.34902">
        <ele>3135.2</ele>
        <time>2021-08-06 15:29:53</time>
      </trkpt>
      <trkpt lat="37.05296" lon="-3.34903">
        <ele>3135.8</ele>
        <time>2021-08-06 15:29:54</time>
      </trkpt>
      <trkpt lat="37.05296" lon="-3.34903">
        <ele>3136</ele>
        <time>2021-08-06 15:29:55</time>
      </trkpt>
      <trkpt lat="37.05295" lon="-3.34904">
        <ele>3136.2</ele>
        <time>2021-08-06 15:29:56</time>
      </trkpt>
      <trkpt lat="37.05295" lon="-3.34905">
        <ele>3136.2</ele>
        <time>2021-08-06 15:29:57</time>
      </trkpt>
      <trkpt lat="37.05294" lon="-3.34906">
        <ele>3136.4</ele>
        <time>2021-08-06 15:29:58</time>
      </trkpt>
      <trkpt lat="37.05294" lon="-3.34907">
        <ele>3136.6</ele>
        <time>2021-08-06 15:29:59</time>
      </trkpt>
      <trkpt lat="37.05294" lon="-3.34908">
        <ele>3136.8</ele>
        <time>2021-08-06 15:30:00</time>
      </trkpt>
      <trkpt lat="37.05293" lon="-3.34909">
        <ele>3136.8</ele>
        <time>2021-08-06 15:30:01</time>
      </trkpt>
      <trkpt lat="37.05292" lon="-3.3491">
        <ele>3137</ele>
        <time>2021-08-06 15:30:02</time>
      </trkpt>
      <trkpt lat="37.05292" lon="-3.34911">
        <ele>3137.2</ele>
        <time>2021-08-06 15:30:03</time>
      </trkpt>
      <trkpt lat="37.05292" lon="-3.34912">
        <ele>3137.4</ele>
        <time>2021-08-06 15:30:04</time>
      </trkpt>
      <trkpt lat="37.05291" lon="-3.34913">
        <ele>3137.6</ele>
        <time>2021-08-06 15:30:05</time>
      </trkpt>
      <trkpt lat="37.05291" lon="-3.34914">
        <ele>3137.4</ele>
        <time>2021-08-06 15:30:06</time>
      </trkpt>
      <trkpt lat="37.05291" lon="-3.34915">
        <ele>3137.6</ele>
        <time>2021-08-06 15:30:07</time>
      </trkpt>
      <trkpt lat="37.05291" lon="-3.34917">
        <ele>3137.8</ele>
        <time>2021-08-06 15:30:08</time>
      </trkpt>
      <trkpt lat="37.05291" lon="-3.34917">
        <ele>3137.8</ele>
        <time>2021-08-06 15:30:09</time>
      </trkpt>
      <trkpt lat="37.0529" lon="-3.34918">
        <ele>3137.8</ele>
        <time>2021-08-06 15:30:10</time>
      </trkpt>
      <trkpt lat="37.05289" lon="-3.34919">
        <ele>3138</ele>
        <time>2021-08-06 15:30:11</time>
      </trkpt>
      <trkpt lat="37.05289" lon="-3.34921">
        <ele>3138.2</ele>
        <time>2021-08-06 15:30:12</time>
      </trkpt>
      <trkpt lat="37.05288" lon="-3.34922">
        <ele>3138.2</ele>
        <time>2021-08-06 15:30:13</time>
      </trkpt>
      <trkpt lat="37.05287" lon="-3.34923">
        <ele>3138.2</ele>
        <time>2021-08-06 15:30:14</time>
      </trkpt>
      <trkpt lat="37.05287" lon="-3.34924">
        <ele>3138.2</ele>
        <time>2021-08-06 15:30:15</time>
      </trkpt>
      <trkpt lat="37.05286" lon="-3.34924">
        <ele>3138.4</ele>
        <time>2021-08-06 15:30:16</time>
      </trkpt>
      <trkpt lat="37.05285" lon="-3.34925">
        <ele>3138.4</ele>
        <time>2021-08-06 15:30:17</time>
      </trkpt>
      <trkpt lat="37.05285" lon="-3.34926">
        <ele>3138.2</ele>
        <time>2021-08-06 15:30:18</time>
      </trkpt>
      <trkpt lat="37.05284" lon="-3.34926">
        <ele>3138.4</ele>
        <time>2021-08-06 15:30:19</time>
      </trkpt>
      <trkpt lat="37.05284" lon="-3.34927">
        <ele>3138.6</ele>
        <time>2021-08-06 15:30:20</time>
      </trkpt>
      <trkpt lat="37.05284" lon="-3.34928">
        <ele>3138.6</ele>
        <time>2021-08-06 15:30:21</time>
      </trkpt>
      <trkpt lat="37.05284" lon="-3.34929">
        <ele>3138.8</ele>
        <time>2021-08-06 15:30:22</time>
      </trkpt>
      <trkpt lat="37.05284" lon="-3.3493">
        <ele>3139</ele>
        <time>2021-08-06 15:30:23</time>
      </trkpt>
      <trkpt lat="37.05284" lon="-3.34931">
        <ele>3139.2</ele>
        <time>2021-08-06 15:30:24</time>
      </trkpt>
      <trkpt lat="37.05285" lon="-3.34932">
        <ele>3139.4</ele>
        <time>2021-08-06 15:30:25</time>
      </trkpt>
      <trkpt lat="37.05284" lon="-3.34934">
        <ele>3139.4</ele>
        <time>2021-08-06 15:30:26</time>
      </trkpt>
      <trkpt lat="37.05285" lon="-3.34935">
        <ele>3139.6</ele>
        <time>2021-08-06 15:30:27</time>
      </trkpt>
      <trkpt lat="37.05286" lon="-3.34936">
        <ele>3139.8</ele>
        <time>2021-08-06 15:30:28</time>
      </trkpt>
      <trkpt lat="37.05289" lon="-3.34937">
        <ele>3139.8</ele>
        <time>2021-08-06 15:30:29</time>
      </trkpt>
      <trkpt lat="37.05289" lon="-3.34938">
        <ele>3139.8</ele>
        <time>2021-08-06 15:30:30</time>
      </trkpt>
      <trkpt lat="37.0529" lon="-3.34938">
        <ele>3139.8</ele>
        <time>2021-08-06 15:30:31</time>
      </trkpt>
      <trkpt lat="37.0529" lon="-3.34939">
        <ele>3139.8</ele>
        <time>2021-08-06 15:30:32</time>
      </trkpt>
      <trkpt lat="37.0529" lon="-3.3494">
        <ele>3139.8</ele>
        <time>2021-08-06 15:30:33</time>
      </trkpt>
      <trkpt lat="37.0529" lon="-3.3494">
        <ele>3139.8</ele>
        <time>2021-08-06 15:30:34</time>
      </trkpt>
      <trkpt lat="37.05291" lon="-3.34941">
        <ele>3139.8</ele>
        <time>2021-08-06 15:30:35</time>
      </trkpt>
      <trkpt lat="37.05291" lon="-3.34943">
        <ele>3139.8</ele>
        <time>2021-08-06 15:30:36</time>
      </trkpt>
      <trkpt lat="37.05291" lon="-3.34944">
        <ele>3139.8</ele>
        <time>2021-08-06 15:30:37</time>
      </trkpt>
      <trkpt lat="37.05292" lon="-3.34945">
        <ele>3139.8</ele>
        <time>2021-08-06 15:30:38</time>
      </trkpt>
      <trkpt lat="37.05292" lon="-3.34947">
        <ele>3139.8</ele>
        <time>2021-08-06 15:30:39</time>
      </trkpt>
      <trkpt lat="37.05292" lon="-3.34948">
        <ele>3140</ele>
        <time>2021-08-06 15:30:40</time>
      </trkpt>
      <trkpt lat="37.05292" lon="-3.34949">
        <ele>3140.4</ele>
        <time>2021-08-06 15:30:41</time>
      </trkpt>
      <trkpt lat="37.05292" lon="-3.34949">
        <ele>3140.6</ele>
        <time>2021-08-06 15:30:42</time>
      </trkpt>
      <trkpt lat="37.05292" lon="-3.3495">
        <ele>3140.6</ele>
        <time>2021-08-06 15:30:43</time>
      </trkpt>
      <trkpt lat="37.05292" lon="-3.3495">
        <ele>3140.8</ele>
        <time>2021-08-06 15:30:44</time>
      </trkpt>
      <trkpt lat="37.05292" lon="-3.34951">
        <ele>3140.8</ele>
        <time>2021-08-06 15:30:45</time>
      </trkpt>
      <trkpt lat="37.05291" lon="-3.34952">
        <ele>3140.8</ele>
        <time>2021-08-06 15:30:46</time>
      </trkpt>
      <trkpt lat="37.05291" lon="-3.3495">
        <ele>3140.8</ele>
        <time>2021-08-06 15:30:47</time>
      </trkpt>
      <trkpt lat="37.05291" lon="-3.34951">
        <ele>3140.8</ele>
        <time>2021-08-06 15:30:48</time>
      </trkpt>
      <trkpt lat="37.05291" lon="-3.34951">
        <ele>3140.8</ele>
        <time>2021-08-06 15:30:49</time>
      </trkpt>
      <trkpt lat="37.05291" lon="-3.34951">
        <ele>3140.8</ele>
        <time>2021-08-06 15:30:50</time>
      </trkpt>
      <trkpt lat="37.05291" lon="-3.34952">
        <ele>3140.8</ele>
        <time>2021-08-06 15:30:51</time>
      </trkpt>
      <trkpt lat="37.0529" lon="-3.34952">
        <ele>3140.6</ele>
        <time>2021-08-06 15:30:52</time>
      </trkpt>
      <trkpt lat="37.0529" lon="-3.34952">
        <ele>3140.8</ele>
        <time>2021-08-06 15:30:53</time>
      </trkpt>
      <trkpt lat="37.05292" lon="-3.34951">
        <ele>3140.8</ele>
        <time>2021-08-06 15:30:54</time>
      </trkpt>
      <trkpt lat="37.05291" lon="-3.34951">
        <ele>3140.8</ele>
        <time>2021-08-06 15:30:55</time>
      </trkpt>
      <trkpt lat="37.05291" lon="-3.34952">
        <ele>3140.6</ele>
        <time>2021-08-06 15:30:56</time>
      </trkpt>
      <trkpt lat="37.05291" lon="-3.34952">
        <ele>3140.6</ele>
        <time>2021-08-06 15:30:57</time>
      </trkpt>
      <trkpt lat="37.0529" lon="-3.34951">
        <ele>3140.8</ele>
        <time>2021-08-06 15:30:58</time>
      </trkpt>
      <trkpt lat="37.0529" lon="-3.34949">
        <ele>3140.8</ele>
        <time>2021-08-06 15:30:59</time>
      </trkpt>
      <trkpt lat="37.0529" lon="-3.34949">
        <ele>3140.8</ele>
        <time>2021-08-06 15:31:00</time>
      </trkpt>
      <trkpt lat="37.0529" lon="-3.34949">
        <ele>3140.8</ele>
        <time>2021-08-06 15:31:01</time>
      </trkpt>
      <trkpt lat="37.0529" lon="-3.3495">
        <ele>3140.8</ele>
        <time>2021-08-06 15:31:02</time>
      </trkpt>
      <trkpt lat="37.05289" lon="-3.3495">
        <ele>3140.8</ele>
        <time>2021-08-06 15:31:03</time>
      </trkpt>
      <trkpt lat="37.05289" lon="-3.34951">
        <ele>3140.8</ele>
        <time>2021-08-06 15:31:04</time>
      </trkpt>
      <trkpt lat="37.05288" lon="-3.34952">
        <ele>3140.6</ele>
        <time>2021-08-06 15:31:05</time>
      </trkpt>
      <trkpt lat="37.05289" lon="-3.34952">
        <ele>3140.8</ele>
        <time>2021-08-06 15:31:06</time>
      </trkpt>
      <trkpt lat="37.05288" lon="-3.34952">
        <ele>3140.8</ele>
        <time>2021-08-06 15:31:07</time>
      </trkpt>
      <trkpt lat="37.05288" lon="-3.34952">
        <ele>3141</ele>
        <time>2021-08-06 15:31:08</time>
      </trkpt>
      <trkpt lat="37.05287" lon="-3.34953">
        <ele>3141.2</ele>
        <time>2021-08-06 15:31:09</time>
      </trkpt>
      <trkpt lat="37.05287" lon="-3.34954">
        <ele>3141.2</ele>
        <time>2021-08-06 15:31:10</time>
      </trkpt>
      <trkpt lat="37.05287" lon="-3.34953">
        <ele>3141</ele>
        <time>2021-08-06 15:31:11</time>
      </trkpt>
      <trkpt lat="37.05287" lon="-3.34952">
        <ele>3141</ele>
        <time>2021-08-06 15:31:12</time>
      </trkpt>
      <trkpt lat="37.05287" lon="-3.34952">
        <ele>3140.8</ele>
        <time>2021-08-06 15:31:13</time>
      </trkpt>
      <trkpt lat="37.05287" lon="-3.34951">
        <ele>3140.8</ele>
        <time>2021-08-06 15:31:14</time>
      </trkpt>
      <trkpt lat="37.05288" lon="-3.3495">
        <ele>3140.8</ele>
        <time>2021-08-06 15:31:15</time>
      </trkpt>
      <trkpt lat="37.05288" lon="-3.3495">
        <ele>3140.6</ele>
        <time>2021-08-06 15:31:16</time>
      </trkpt>
      <trkpt lat="37.05288" lon="-3.3495">
        <ele>3140.6</ele>
        <time>2021-08-06 15:31:17</time>
      </trkpt>
      <trkpt lat="37.05288" lon="-3.3495">
        <ele>3140.8</ele>
        <time>2021-08-06 15:31:18</time>
      </trkpt>
      <trkpt lat="37.05289" lon="-3.34948">
        <ele>3140.8</ele>
        <time>2021-08-06 15:31:19</time>
      </trkpt>
      <trkpt lat="37.05289" lon="-3.34948">
        <ele>3140.8</ele>
        <time>2021-08-06 15:31:20</time>
      </trkpt>
      <trkpt lat="37.05289" lon="-3.34947">
        <ele>3140.8</ele>
        <time>2021-08-06 15:31:21</time>
      </trkpt>
      <trkpt lat="37.05289" lon="-3.34947">
        <ele>3141</ele>
        <time>2021-08-06 15:31:22</time>
      </trkpt>
      <trkpt lat="37.0529" lon="-3.34946">
        <ele>3141</ele>
        <time>2021-08-06 15:31:23</time>
      </trkpt>
      <trkpt lat="37.05291" lon="-3.34946">
        <ele>3141</ele>
        <time>2021-08-06 15:31:24</time>
      </trkpt>
      <trkpt lat="37.05291" lon="-3.34946">
        <ele>3141</ele>
        <time>2021-08-06 15:31:25</time>
      </trkpt>
      <trkpt lat="37.05292" lon="-3.34946">
        <ele>3141</ele>
        <time>2021-08-06 15:31:26</time>
      </trkpt>
      <trkpt lat="37.05291" lon="-3.34946">
        <ele>3141</ele>
        <time>2021-08-06 15:31:27</time>
      </trkpt>
      <trkpt lat="37.05291" lon="-3.34947">
        <ele>3140.8</ele>
        <time>2021-08-06 15:31:28</time>
      </trkpt>
      <trkpt lat="37.05291" lon="-3.34948">
        <ele>3140.6</ele>
        <time>2021-08-06 15:31:29</time>
      </trkpt>
      <trkpt lat="37.05291" lon="-3.34949">
        <ele>3140.4</ele>
        <time>2021-08-06 15:31:30</time>
      </trkpt>
      <trkpt lat="37.05291" lon="-3.34949">
        <ele>3140.4</ele>
        <time>2021-08-06 15:31:31</time>
      </trkpt>
      <trkpt lat="37.05291" lon="-3.34948">
        <ele>3140.4</ele>
        <time>2021-08-06 15:31:32</time>
      </trkpt>
      <trkpt lat="37.05291" lon="-3.34949">
        <ele>3140.4</ele>
        <time>2021-08-06 15:31:33</time>
      </trkpt>
      <trkpt lat="37.0529" lon="-3.34948">
        <ele>3140.4</ele>
        <time>2021-08-06 15:31:34</time>
      </trkpt>
      <trkpt lat="37.05291" lon="-3.34948">
        <ele>3140.4</ele>
        <time>2021-08-06 15:31:35</time>
      </trkpt>
      <trkpt lat="37.05291" lon="-3.34947">
        <ele>3140.6</ele>
        <time>2021-08-06 15:31:36</time>
      </trkpt>
      <trkpt lat="37.0529" lon="-3.34947">
        <ele>3140.6</ele>
        <time>2021-08-06 15:31:37</time>
      </trkpt>
      <trkpt lat="37.0529" lon="-3.34949">
        <ele>3140.8</ele>
        <time>2021-08-06 15:31:38</time>
      </trkpt>
      <trkpt lat="37.0529" lon="-3.34949">
        <ele>3140.8</ele>
        <time>2021-08-06 15:31:39</time>
      </trkpt>
      <trkpt lat="37.0529" lon="-3.3495">
        <ele>3140.8</ele>
        <time>2021-08-06 15:31:40</time>
      </trkpt>
      <trkpt lat="37.0529" lon="-3.34951">
        <ele>3141.2</ele>
        <time>2021-08-06 15:31:41</time>
      </trkpt>
      <trkpt lat="37.0529" lon="-3.34952">
        <ele>3141.4</ele>
        <time>2021-08-06 15:31:42</time>
      </trkpt>
      <trkpt lat="37.05289" lon="-3.34953">
        <ele>3141.4</ele>
        <time>2021-08-06 15:31:43</time>
      </trkpt>
      <trkpt lat="37.05289" lon="-3.34953">
        <ele>3141.4</ele>
        <time>2021-08-06 15:31:44</time>
      </trkpt>
      <trkpt lat="37.05288" lon="-3.34954">
        <ele>3141.6</ele>
        <time>2021-08-06 15:31:45</time>
      </trkpt>
      <trkpt lat="37.05288" lon="-3.34954">
        <ele>3141.6</ele>
        <time>2021-08-06 15:31:46</time>
      </trkpt>
      <trkpt lat="37.05288" lon="-3.34955">
        <ele>3141.4</ele>
        <time>2021-08-06 15:31:47</time>
      </trkpt>
      <trkpt lat="37.05288" lon="-3.34954">
        <ele>3141.2</ele>
        <time>2021-08-06 15:31:48</time>
      </trkpt>
      <trkpt lat="37.05288" lon="-3.34954">
        <ele>3141.2</ele>
        <time>2021-08-06 15:31:49</time>
      </trkpt>
      <trkpt lat="37.05288" lon="-3.34954">
        <ele>3141</ele>
        <time>2021-08-06 15:31:50</time>
      </trkpt>
      <trkpt lat="37.05288" lon="-3.34954">
        <ele>3141</ele>
        <time>2021-08-06 15:31:51</time>
      </trkpt>
      <trkpt lat="37.05288" lon="-3.34954">
        <ele>3141</ele>
        <time>2021-08-06 15:31:52</time>
      </trkpt>
      <trkpt lat="37.05288" lon="-3.34954">
        <ele>3140.8</ele>
        <time>2021-08-06 15:31:53</time>
      </trkpt>
      <trkpt lat="37.05288" lon="-3.34955">
        <ele>3140.8</ele>
        <time>2021-08-06 15:31:54</time>
      </trkpt>
      <trkpt lat="37.05287" lon="-3.34955">
        <ele>3140.6</ele>
        <time>2021-08-06 15:31:55</time>
      </trkpt>
      <trkpt lat="37.05287" lon="-3.34955">
        <ele>3140.6</ele>
        <time>2021-08-06 15:31:56</time>
      </trkpt>
      <trkpt lat="37.05287" lon="-3.34955">
        <ele>3140.8</ele>
        <time>2021-08-06 15:31:57</time>
      </trkpt>
      <trkpt lat="37.05287" lon="-3.34955">
        <ele>3140.8</ele>
        <time>2021-08-06 15:31:58</time>
      </trkpt>
      <trkpt lat="37.05286" lon="-3.34956">
        <ele>3140.8</ele>
        <time>2021-08-06 15:31:59</time>
      </trkpt>
      <trkpt lat="37.05287" lon="-3.34956">
        <ele>3140.8</ele>
        <time>2021-08-06 15:32:00</time>
      </trkpt>
      <trkpt lat="37.05287" lon="-3.34956">
        <ele>3140.8</ele>
        <time>2021-08-06 15:32:01</time>
      </trkpt>
      <trkpt lat="37.05287" lon="-3.34956">
        <ele>3141</ele>
        <time>2021-08-06 15:32:02</time>
      </trkpt>
      <trkpt lat="37.05287" lon="-3.34955">
        <ele>3141</ele>
        <time>2021-08-06 15:32:03</time>
      </trkpt>
      <trkpt lat="37.05288" lon="-3.34955">
        <ele>3141</ele>
        <time>2021-08-06 15:32:04</time>
      </trkpt>
      <trkpt lat="37.05288" lon="-3.34953">
        <ele>3141</ele>
        <time>2021-08-06 15:32:05</time>
      </trkpt>
      <trkpt lat="37.05289" lon="-3.34952">
        <ele>3141</ele>
        <time>2021-08-06 15:32:06</time>
      </trkpt>
      <trkpt lat="37.05289" lon="-3.34952">
        <ele>3141</ele>
        <time>2021-08-06 15:32:07</time>
      </trkpt>
      <trkpt lat="37.05289" lon="-3.34951">
        <ele>3141.2</ele>
        <time>2021-08-06 15:32:08</time>
      </trkpt>
      <trkpt lat="37.05289" lon="-3.3495">
        <ele>3141.6</ele>
        <time>2021-08-06 15:32:09</time>
      </trkpt>
      <trkpt lat="37.0529" lon="-3.3495">
        <ele>3141.8</ele>
        <time>2021-08-06 15:32:10</time>
      </trkpt>
      <trkpt lat="37.0529" lon="-3.3495">
        <ele>3141.8</ele>
        <time>2021-08-06 15:32:11</time>
      </trkpt>
      <trkpt lat="37.05291" lon="-3.3495">
        <ele>3141.8</ele>
        <time>2021-08-06 15:32:12</time>
      </trkpt>
      <trkpt lat="37.05291" lon="-3.3495">
        <ele>3141.8</ele>
        <time>2021-08-06 15:32:13</time>
      </trkpt>
      <trkpt lat="37.05291" lon="-3.34949">
        <ele>3141.6</ele>
        <time>2021-08-06 15:32:14</time>
      </trkpt>
      <trkpt lat="37.05291" lon="-3.34948">
        <ele>3141.6</ele>
        <time>2021-08-06 15:32:15</time>
      </trkpt>
      <trkpt lat="37.05292" lon="-3.34947">
        <ele>3141.6</ele>
        <time>2021-08-06 15:32:16</time>
      </trkpt>
      <trkpt lat="37.05292" lon="-3.34947">
        <ele>3141.4</ele>
        <time>2021-08-06 15:32:17</time>
      </trkpt>
      <trkpt lat="37.05292" lon="-3.34947">
        <ele>3141.4</ele>
        <time>2021-08-06 15:32:18</time>
      </trkpt>
      <trkpt lat="37.05292" lon="-3.34947">
        <ele>3141.2</ele>
        <time>2021-08-06 15:32:19</time>
      </trkpt>
      <trkpt lat="37.05292" lon="-3.34947">
        <ele>3141.4</ele>
        <time>2021-08-06 15:32:20</time>
      </trkpt>
      <trkpt lat="37.05292" lon="-3.34947">
        <ele>3141.4</ele>
        <time>2021-08-06 15:32:21</time>
      </trkpt>
      <trkpt lat="37.05292" lon="-3.34947">
        <ele>3141</ele>
        <time>2021-08-06 15:32:22</time>
      </trkpt>
      <trkpt lat="37.05292" lon="-3.34948">
        <ele>3141</ele>
        <time>2021-08-06 15:32:23</time>
      </trkpt>
      <trkpt lat="37.05292" lon="-3.34948">
        <ele>3140.8</ele>
        <time>2021-08-06 15:32:24</time>
      </trkpt>
      <trkpt lat="37.05292" lon="-3.34948">
        <ele>3141</ele>
        <time>2021-08-06 15:32:25</time>
      </trkpt>
      <trkpt lat="37.05292" lon="-3.34948">
        <ele>3141</ele>
        <time>2021-08-06 15:32:26</time>
      </trkpt>
      <trkpt lat="37.05292" lon="-3.34948">
        <ele>3141</ele>
        <time>2021-08-06 15:32:27</time>
      </trkpt>
      <trkpt lat="37.05292" lon="-3.34948">
        <ele>3141</ele>
        <time>2021-08-06 15:32:28</time>
      </trkpt>
      <trkpt lat="37.05292" lon="-3.34947">
        <ele>3141</ele>
        <time>2021-08-06 15:32:29</time>
      </trkpt>
      <trkpt lat="37.05292" lon="-3.34947">
        <ele>3141</ele>
        <time>2021-08-06 15:32:30</time>
      </trkpt>
      <trkpt lat="37.05292" lon="-3.34947">
        <ele>3141</ele>
        <time>2021-08-06 15:32:31</time>
      </trkpt>
      <trkpt lat="37.05292" lon="-3.34947">
        <ele>3141</ele>
        <time>2021-08-06 15:32:32</time>
      </trkpt>
      <trkpt lat="37.05292" lon="-3.34947">
        <ele>3141</ele>
        <time>2021-08-06 15:32:33</time>
      </trkpt>
      <trkpt lat="37.05292" lon="-3.34947">
        <ele>3140.8</ele>
        <time>2021-08-06 15:32:34</time>
      </trkpt>
      <trkpt lat="37.05293" lon="-3.34947">
        <ele>3141</ele>
        <time>2021-08-06 15:32:35</time>
      </trkpt>
      <trkpt lat="37.05293" lon="-3.34946">
        <ele>3141.2</ele>
        <time>2021-08-06 15:32:36</time>
      </trkpt>
      <trkpt lat="37.05293" lon="-3.34946">
        <ele>3141.2</ele>
        <time>2021-08-06 15:32:37</time>
      </trkpt>
      <trkpt lat="37.05294" lon="-3.34946">
        <ele>3141.2</ele>
        <time>2021-08-06 15:32:38</time>
      </trkpt>
      <trkpt lat="37.05293" lon="-3.34946">
        <ele>3141.2</ele>
        <time>2021-08-06 15:32:39</time>
      </trkpt>
      <trkpt lat="37.05293" lon="-3.34946">
        <ele>3141.2</ele>
        <time>2021-08-06 15:32:40</time>
      </trkpt>
      <trkpt lat="37.05293" lon="-3.34946">
        <ele>3141.2</ele>
        <time>2021-08-06 15:32:41</time>
      </trkpt>
      <trkpt lat="37.05294" lon="-3.34946">
        <ele>3141.4</ele>
        <time>2021-08-06 15:32:42</time>
      </trkpt>
      <trkpt lat="37.05294" lon="-3.34946">
        <ele>3141.4</ele>
        <time>2021-08-06 15:32:43</time>
      </trkpt>
      <trkpt lat="37.05294" lon="-3.34947">
        <ele>3141.4</ele>
        <time>2021-08-06 15:32:44</time>
      </trkpt>
      <trkpt lat="37.05293" lon="-3.34947">
        <ele>3141.2</ele>
        <time>2021-08-06 15:32:45</time>
      </trkpt>
      <trkpt lat="37.05293" lon="-3.34947">
        <ele>3141.2</ele>
        <time>2021-08-06 15:32:46</time>
      </trkpt>
      <trkpt lat="37.05293" lon="-3.34947">
        <ele>3141.2</ele>
        <time>2021-08-06 15:32:47</time>
      </trkpt>
      <trkpt lat="37.05293" lon="-3.34947">
        <ele>3141</ele>
        <time>2021-08-06 15:32:48</time>
      </trkpt>
      <trkpt lat="37.05292" lon="-3.34948">
        <ele>3140.8</ele>
        <time>2021-08-06 15:32:49</time>
      </trkpt>
      <trkpt lat="37.05292" lon="-3.34948">
        <ele>3140.8</ele>
        <time>2021-08-06 15:32:50</time>
      </trkpt>
      <trkpt lat="37.05292" lon="-3.34948">
        <ele>3140.8</ele>
        <time>2021-08-06 15:32:51</time>
      </trkpt>
      <trkpt lat="37.05291" lon="-3.34948">
        <ele>3140.8</ele>
        <time>2021-08-06 15:32:52</time>
      </trkpt>
      <trkpt lat="37.05291" lon="-3.34949">
        <ele>3140.8</ele>
        <time>2021-08-06 15:32:53</time>
      </trkpt>
      <trkpt lat="37.05291" lon="-3.34949">
        <ele>3140.8</ele>
        <time>2021-08-06 15:32:54</time>
      </trkpt>
      <trkpt lat="37.05291" lon="-3.34949">
        <ele>3140.8</ele>
        <time>2021-08-06 15:32:55</time>
      </trkpt>
      <trkpt lat="37.05291" lon="-3.3495">
        <ele>3141</ele>
        <time>2021-08-06 15:32:56</time>
      </trkpt>
      <trkpt lat="37.05291" lon="-3.3495">
        <ele>3141.8</ele>
        <time>2021-08-06 15:32:57</time>
      </trkpt>
      <trkpt lat="37.05292" lon="-3.34948">
        <ele>3141.8</ele>
        <time>2021-08-06 15:32:58</time>
      </trkpt>
      <trkpt lat="37.05292" lon="-3.34949">
        <ele>3141.8</ele>
        <time>2021-08-06 15:32:59</time>
      </trkpt>
      <trkpt lat="37.05291" lon="-3.34948">
        <ele>3141.8</ele>
        <time>2021-08-06 15:33:00</time>
      </trkpt>
      <trkpt lat="37.05291" lon="-3.34948">
        <ele>3141.8</ele>
        <time>2021-08-06 15:33:01</time>
      </trkpt>
      <trkpt lat="37.05292" lon="-3.34948">
        <ele>3141.8</ele>
        <time>2021-08-06 15:33:02</time>
      </trkpt>
      <trkpt lat="37.05291" lon="-3.34948">
        <ele>3141.8</ele>
        <time>2021-08-06 15:33:03</time>
      </trkpt>
      <trkpt lat="37.05292" lon="-3.34947">
        <ele>3141.8</ele>
        <time>2021-08-06 15:33:04</time>
      </trkpt>
      <trkpt lat="37.05292" lon="-3.34947">
        <ele>3141.8</ele>
        <time>2021-08-06 15:33:05</time>
      </trkpt>
      <trkpt lat="37.0529" lon="-3.34948">
        <ele>3141.8</ele>
        <time>2021-08-06 15:33:06</time>
      </trkpt>
      <trkpt lat="37.05291" lon="-3.34948">
        <ele>3141.8</ele>
        <time>2021-08-06 15:33:07</time>
      </trkpt>
      <trkpt lat="37.0529" lon="-3.34948">
        <ele>3141.8</ele>
        <time>2021-08-06 15:33:08</time>
      </trkpt>
      <trkpt lat="37.0529" lon="-3.34948">
        <ele>3141.8</ele>
        <time>2021-08-06 15:33:09</time>
      </trkpt>
      <trkpt lat="37.05291" lon="-3.34947">
        <ele>3141.8</ele>
        <time>2021-08-06 15:33:10</time>
      </trkpt>
      <trkpt lat="37.0529" lon="-3.34947">
        <ele>3141.8</ele>
        <time>2021-08-06 15:33:11</time>
      </trkpt>
      <trkpt lat="37.0529" lon="-3.34948">
        <ele>3141.8</ele>
        <time>2021-08-06 15:33:12</time>
      </trkpt>
      <trkpt lat="37.05289" lon="-3.34949">
        <ele>3141.8</ele>
        <time>2021-08-06 15:33:13</time>
      </trkpt>
      <trkpt lat="37.05289" lon="-3.3495">
        <ele>3141.8</ele>
        <time>2021-08-06 15:33:14</time>
      </trkpt>
      <trkpt lat="37.0529" lon="-3.34951">
        <ele>3141.8</ele>
        <time>2021-08-06 15:33:15</time>
      </trkpt>
      <trkpt lat="37.0529" lon="-3.3495">
        <ele>3141.8</ele>
        <time>2021-08-06 15:33:16</time>
      </trkpt>
      <trkpt lat="37.0529" lon="-3.3495">
        <ele>3141.8</ele>
        <time>2021-08-06 15:33:17</time>
      </trkpt>
      <trkpt lat="37.05289" lon="-3.34951">
        <ele>3141.8</ele>
        <time>2021-08-06 15:33:18</time>
      </trkpt>
      <trkpt lat="37.05289" lon="-3.34951">
        <ele>3141.8</ele>
        <time>2021-08-06 15:33:19</time>
      </trkpt>
      <trkpt lat="37.05288" lon="-3.34951">
        <ele>3141.8</ele>
        <time>2021-08-06 15:33:20</time>
      </trkpt>
      <trkpt lat="37.05289" lon="-3.34951">
        <ele>3141.8</ele>
        <time>2021-08-06 15:33:21</time>
      </trkpt>
      <trkpt lat="37.05289" lon="-3.34951">
        <ele>3141.8</ele>
        <time>2021-08-06 15:33:22</time>
      </trkpt>
      <trkpt lat="37.05289" lon="-3.34951">
        <ele>3141.8</ele>
        <time>2021-08-06 15:33:23</time>
      </trkpt>
      <trkpt lat="37.05289" lon="-3.3495">
        <ele>3141.8</ele>
        <time>2021-08-06 15:33:24</time>
      </trkpt>
      <trkpt lat="37.05289" lon="-3.34949">
        <ele>3141.8</ele>
        <time>2021-08-06 15:33:25</time>
      </trkpt>
      <trkpt lat="37.05288" lon="-3.34949">
        <ele>3141.8</ele>
        <time>2021-08-06 15:33:26</time>
      </trkpt>
      <trkpt lat="37.05288" lon="-3.34949">
        <ele>3141.8</ele>
        <time>2021-08-06 15:33:27</time>
      </trkpt>
      <trkpt lat="37.05288" lon="-3.34949">
        <ele>3141.8</ele>
        <time>2021-08-06 15:33:28</time>
      </trkpt>
      <trkpt lat="37.05289" lon="-3.34949">
        <ele>3141.8</ele>
        <time>2021-08-06 15:33:29</time>
      </trkpt>
      <trkpt lat="37.05289" lon="-3.34949">
        <ele>3141.8</ele>
        <time>2021-08-06 15:33:30</time>
      </trkpt>
      <trkpt lat="37.0529" lon="-3.34949">
        <ele>3141.8</ele>
        <time>2021-08-06 15:33:31</time>
      </trkpt>
      <trkpt lat="37.0529" lon="-3.34949">
        <ele>3141.8</ele>
        <time>2021-08-06 15:33:32</time>
      </trkpt>
      <trkpt lat="37.0529" lon="-3.34949">
        <ele>3141.8</ele>
        <time>2021-08-06 15:33:33</time>
      </trkpt>
      <trkpt lat="37.0529" lon="-3.34949">
        <ele>3141.8</ele>
        <time>2021-08-06 15:33:34</time>
      </trkpt>
      <trkpt lat="37.0529" lon="-3.34948">
        <ele>3141.8</ele>
        <time>2021-08-06 15:33:35</time>
      </trkpt>
      <trkpt lat="37.0529" lon="-3.34948">
        <ele>3141.8</ele>
        <time>2021-08-06 15:33:36</time>
      </trkpt>
      <trkpt lat="37.0529" lon="-3.34948">
        <ele>3141.8</ele>
        <time>2021-08-06 15:33:37</time>
      </trkpt>
      <trkpt lat="37.0529" lon="-3.34948">
        <ele>3141.8</ele>
        <time>2021-08-06 15:33:38</time>
      </trkpt>
      <trkpt lat="37.0529" lon="-3.34948">
        <ele>3141.8</ele>
        <time>2021-08-06 15:33:39</time>
      </trkpt>
      <trkpt lat="37.05289" lon="-3.34948">
        <ele>3141.8</ele>
        <time>2021-08-06 15:33:40</time>
      </trkpt>
      <trkpt lat="37.05289" lon="-3.34947">
        <ele>3141.8</ele>
        <time>2021-08-06 15:33:41</time>
      </trkpt>
      <trkpt lat="37.05289" lon="-3.34947">
        <ele>3141.8</ele>
        <time>2021-08-06 15:33:42</time>
      </trkpt>
      <trkpt lat="37.05289" lon="-3.34948">
        <ele>3141.8</ele>
        <time>2021-08-06 15:33:43</time>
      </trkpt>
      <trkpt lat="37.05288" lon="-3.34948">
        <ele>3141.8</ele>
        <time>2021-08-06 15:33:44</time>
      </trkpt>
      <trkpt lat="37.05288" lon="-3.34948">
        <ele>3141.8</ele>
        <time>2021-08-06 15:33:45</time>
      </trkpt>
      <trkpt lat="37.0529" lon="-3.34947">
        <ele>3141.8</ele>
        <time>2021-08-06 15:33:46</time>
      </trkpt>
      <trkpt lat="37.05292" lon="-3.34947">
        <ele>3141.8</ele>
        <time>2021-08-06 15:33:47</time>
      </trkpt>
      <trkpt lat="37.05292" lon="-3.34947">
        <ele>3141.8</ele>
        <time>2021-08-06 15:33:48</time>
      </trkpt>
      <trkpt lat="37.05293" lon="-3.34944">
        <ele>3141.8</ele>
        <time>2021-08-06 15:33:49</time>
      </trkpt>
      <trkpt lat="37.05294" lon="-3.34944">
        <ele>3141.8</ele>
        <time>2021-08-06 15:33:50</time>
      </trkpt>
      <trkpt lat="37.05295" lon="-3.34944">
        <ele>3141.8</ele>
        <time>2021-08-06 15:33:51</time>
      </trkpt>
      <trkpt lat="37.05295" lon="-3.34944">
        <ele>3141.8</ele>
        <time>2021-08-06 15:33:52</time>
      </trkpt>
      <trkpt lat="37.05295" lon="-3.34945">
        <ele>3141.8</ele>
        <time>2021-08-06 15:33:53</time>
      </trkpt>
      <trkpt lat="37.05295" lon="-3.34945">
        <ele>3141.8</ele>
        <time>2021-08-06 15:33:54</time>
      </trkpt>
      <trkpt lat="37.05295" lon="-3.34944">
        <ele>3141.8</ele>
        <time>2021-08-06 15:33:55</time>
      </trkpt>
      <trkpt lat="37.05295" lon="-3.34945">
        <ele>3141.8</ele>
        <time>2021-08-06 15:33:56</time>
      </trkpt>
      <trkpt lat="37.05294" lon="-3.34945">
        <ele>3141.8</ele>
        <time>2021-08-06 15:33:57</time>
      </trkpt>
      <trkpt lat="37.05293" lon="-3.34946">
        <ele>3141.8</ele>
        <time>2021-08-06 15:33:58</time>
      </trkpt>
      <trkpt lat="37.05293" lon="-3.34946">
        <ele>3141.8</ele>
        <time>2021-08-06 15:33:59</time>
      </trkpt>
      <trkpt lat="37.05292" lon="-3.34947">
        <ele>3141.8</ele>
        <time>2021-08-06 15:34:00</time>
      </trkpt>
      <trkpt lat="37.05292" lon="-3.34947">
        <ele>3141.8</ele>
        <time>2021-08-06 15:34:01</time>
      </trkpt>
      <trkpt lat="37.05292" lon="-3.34947">
        <ele>3141.8</ele>
        <time>2021-08-06 15:34:02</time>
      </trkpt>
      <trkpt lat="37.05292" lon="-3.34947">
        <ele>3141.8</ele>
        <time>2021-08-06 15:34:03</time>
      </trkpt>
      <trkpt lat="37.05292" lon="-3.34947">
        <ele>3141.8</ele>
        <time>2021-08-06 15:34:04</time>
      </trkpt>
      <trkpt lat="37.05292" lon="-3.34947">
        <ele>3141.8</ele>
        <time>2021-08-06 15:34:05</time>
      </trkpt>
      <trkpt lat="37.05292" lon="-3.34948">
        <ele>3141.8</ele>
        <time>2021-08-06 15:34:06</time>
      </trkpt>
      <trkpt lat="37.05292" lon="-3.34948">
        <ele>3141.8</ele>
        <time>2021-08-06 15:34:07</time>
      </trkpt>
      <trkpt lat="37.05292" lon="-3.34948">
        <ele>3141.8</ele>
        <time>2021-08-06 15:34:08</time>
      </trkpt>
      <trkpt lat="37.05292" lon="-3.34949">
        <ele>3141.8</ele>
        <time>2021-08-06 15:34:09</time>
      </trkpt>
      <trkpt lat="37.05292" lon="-3.34949">
        <ele>3141.8</ele>
        <time>2021-08-06 15:34:10</time>
      </trkpt>
      <trkpt lat="37.05292" lon="-3.3495">
        <ele>3141.8</ele>
        <time>2021-08-06 15:34:11</time>
      </trkpt>
      <trkpt lat="37.05291" lon="-3.34951">
        <ele>3141.8</ele>
        <time>2021-08-06 15:34:12</time>
      </trkpt>
      <trkpt lat="37.05291" lon="-3.34951">
        <ele>3141.8</ele>
        <time>2021-08-06 15:34:13</time>
      </trkpt>
      <trkpt lat="37.05292" lon="-3.34951">
        <ele>3141.8</ele>
        <time>2021-08-06 15:34:14</time>
      </trkpt>
      <trkpt lat="37.05292" lon="-3.34951">
        <ele>3141.8</ele>
        <time>2021-08-06 15:34:15</time>
      </trkpt>
      <trkpt lat="37.05291" lon="-3.34952">
        <ele>3141.8</ele>
        <time>2021-08-06 15:34:16</time>
      </trkpt>
      <trkpt lat="37.05291" lon="-3.34952">
        <ele>3141.8</ele>
        <time>2021-08-06 15:34:17</time>
      </trkpt>
      <trkpt lat="37.05291" lon="-3.34952">
        <ele>3141.8</ele>
        <time>2021-08-06 15:34:18</time>
      </trkpt>
      <trkpt lat="37.05291" lon="-3.34953">
        <ele>3141.8</ele>
        <time>2021-08-06 15:34:19</time>
      </trkpt>
      <trkpt lat="37.05291" lon="-3.34953">
        <ele>3141.8</ele>
        <time>2021-08-06 15:34:20</time>
      </trkpt>
      <trkpt lat="37.05291" lon="-3.34953">
        <ele>3141.8</ele>
        <time>2021-08-06 15:34:21</time>
      </trkpt>
      <trkpt lat="37.05291" lon="-3.34954">
        <ele>3141.8</ele>
        <time>2021-08-06 15:34:22</time>
      </trkpt>
      <trkpt lat="37.05291" lon="-3.34953">
        <ele>3141.8</ele>
        <time>2021-08-06 15:34:23</time>
      </trkpt>
      <trkpt lat="37.05291" lon="-3.34953">
        <ele>3141.8</ele>
        <time>2021-08-06 15:34:24</time>
      </trkpt>
      <trkpt lat="37.05291" lon="-3.34953">
        <ele>3141.8</ele>
        <time>2021-08-06 15:34:25</time>
      </trkpt>
      <trkpt lat="37.05291" lon="-3.34953">
        <ele>3141.8</ele>
        <time>2021-08-06 15:34:26</time>
      </trkpt>
      <trkpt lat="37.05291" lon="-3.34953">
        <ele>3141.8</ele>
        <time>2021-08-06 15:34:27</time>
      </trkpt>
      <trkpt lat="37.05291" lon="-3.34953">
        <ele>3141.8</ele>
        <time>2021-08-06 15:34:28</time>
      </trkpt>
      <trkpt lat="37.05291" lon="-3.34953">
        <ele>3141.8</ele>
        <time>2021-08-06 15:34:29</time>
      </trkpt>
      <trkpt lat="37.05291" lon="-3.34953">
        <ele>3141.8</ele>
        <time>2021-08-06 15:34:30</time>
      </trkpt>
      <trkpt lat="37.05292" lon="-3.34952">
        <ele>3141.8</ele>
        <time>2021-08-06 15:34:31</time>
      </trkpt>
      <trkpt lat="37.05291" lon="-3.34952">
        <ele>3141.8</ele>
        <time>2021-08-06 15:34:32</time>
      </trkpt>
      <trkpt lat="37.05289" lon="-3.34952">
        <ele>3141.8</ele>
        <time>2021-08-06 15:34:33</time>
      </trkpt>
      <trkpt lat="37.05288" lon="-3.34952">
        <ele>3141.8</ele>
        <time>2021-08-06 15:34:34</time>
      </trkpt>
      <trkpt lat="37.05288" lon="-3.34952">
        <ele>3141.8</ele>
        <time>2021-08-06 15:34:35</time>
      </trkpt>
      <trkpt lat="37.05287" lon="-3.34953">
        <ele>3141.8</ele>
        <time>2021-08-06 15:34:36</time>
      </trkpt>
      <trkpt lat="37.05287" lon="-3.34953">
        <ele>3141.8</ele>
        <time>2021-08-06 15:34:37</time>
      </trkpt>
      <trkpt lat="37.05287" lon="-3.34953">
        <ele>3141.8</ele>
        <time>2021-08-06 15:34:38</time>
      </trkpt>
      <trkpt lat="37.05288" lon="-3.34953">
        <ele>3141.8</ele>
        <time>2021-08-06 15:34:39</time>
      </trkpt>
      <trkpt lat="37.05288" lon="-3.34953">
        <ele>3141.8</ele>
        <time>2021-08-06 15:34:40</time>
      </trkpt>
      <trkpt lat="37.05288" lon="-3.34953">
        <ele>3141.8</ele>
        <time>2021-08-06 15:34:41</time>
      </trkpt>
      <trkpt lat="37.05288" lon="-3.34954">
        <ele>3141.8</ele>
        <time>2021-08-06 15:34:42</time>
      </trkpt>
      <trkpt lat="37.05288" lon="-3.34953">
        <ele>3141.8</ele>
        <time>2021-08-06 15:34:43</time>
      </trkpt>
      <trkpt lat="37.05288" lon="-3.34953">
        <ele>3141.8</ele>
        <time>2021-08-06 15:34:44</time>
      </trkpt>
      <trkpt lat="37.05289" lon="-3.34953">
        <ele>3141.8</ele>
        <time>2021-08-06 15:34:45</time>
      </trkpt>
      <trkpt lat="37.05289" lon="-3.34953">
        <ele>3141.8</ele>
        <time>2021-08-06 15:34:46</time>
      </trkpt>
      <trkpt lat="37.0529" lon="-3.34953">
        <ele>3141.8</ele>
        <time>2021-08-06 15:34:47</time>
      </trkpt>
      <trkpt lat="37.0529" lon="-3.34952">
        <ele>3141.8</ele>
        <time>2021-08-06 15:34:48</time>
      </trkpt>
      <trkpt lat="37.0529" lon="-3.34952">
        <ele>3141.8</ele>
        <time>2021-08-06 15:34:49</time>
      </trkpt>
      <trkpt lat="37.0529" lon="-3.34951">
        <ele>3141.8</ele>
        <time>2021-08-06 15:34:50</time>
      </trkpt>
      <trkpt lat="37.0529" lon="-3.34951">
        <ele>3141.8</ele>
        <time>2021-08-06 15:34:51</time>
      </trkpt>
      <trkpt lat="37.0529" lon="-3.34951">
        <ele>3141.8</ele>
        <time>2021-08-06 15:34:52</time>
      </trkpt>
      <trkpt lat="37.0529" lon="-3.34952">
        <ele>3141.8</ele>
        <time>2021-08-06 15:34:53</time>
      </trkpt>
      <trkpt lat="37.0529" lon="-3.34952">
        <ele>3141.8</ele>
        <time>2021-08-06 15:34:54</time>
      </trkpt>
      <trkpt lat="37.0529" lon="-3.34952">
        <ele>3141.8</ele>
        <time>2021-08-06 15:34:55</time>
      </trkpt>
      <trkpt lat="37.0529" lon="-3.34951">
        <ele>3141.8</ele>
        <time>2021-08-06 15:34:56</time>
      </trkpt>
      <trkpt lat="37.05291" lon="-3.34951">
        <ele>3141.8</ele>
        <time>2021-08-06 15:34:57</time>
      </trkpt>
      <trkpt lat="37.05291" lon="-3.34951">
        <ele>3141.8</ele>
        <time>2021-08-06 15:34:58</time>
      </trkpt>
      <trkpt lat="37.05291" lon="-3.34951">
        <ele>3141.8</ele>
        <time>2021-08-06 15:34:59</time>
      </trkpt>
      <trkpt lat="37.05291" lon="-3.34951">
        <ele>3141.8</ele>
        <time>2021-08-06 15:35:00</time>
      </trkpt>
      <trkpt lat="37.05292" lon="-3.34951">
        <ele>3141.8</ele>
        <time>2021-08-06 15:35:01</time>
      </trkpt>
      <trkpt lat="37.05292" lon="-3.34952">
        <ele>3141.8</ele>
        <time>2021-08-06 15:35:02</time>
      </trkpt>
      <trkpt lat="37.05292" lon="-3.34952">
        <ele>3141.8</ele>
        <time>2021-08-06 15:35:03</time>
      </trkpt>
      <trkpt lat="37.05292" lon="-3.34952">
        <ele>3141.8</ele>
        <time>2021-08-06 15:35:04</time>
      </trkpt>
      <trkpt lat="37.05292" lon="-3.34953">
        <ele>3141.8</ele>
        <time>2021-08-06 15:35:05</time>
      </trkpt>
      <trkpt lat="37.05291" lon="-3.34954">
        <ele>3141.8</ele>
        <time>2021-08-06 15:35:06</time>
      </trkpt>
      <trkpt lat="37.05291" lon="-3.34954">
        <ele>3141.8</ele>
        <time>2021-08-06 15:35:07</time>
      </trkpt>
      <trkpt lat="37.05291" lon="-3.34955">
        <ele>3141.8</ele>
        <time>2021-08-06 15:35:08</time>
      </trkpt>
      <trkpt lat="37.05291" lon="-3.34956">
        <ele>3141.8</ele>
        <time>2021-08-06 15:35:09</time>
      </trkpt>
      <trkpt lat="37.05291" lon="-3.34956">
        <ele>3141.8</ele>
        <time>2021-08-06 15:35:10</time>
      </trkpt>
      <trkpt lat="37.05291" lon="-3.34955">
        <ele>3141.8</ele>
        <time>2021-08-06 15:35:11</time>
      </trkpt>
      <trkpt lat="37.05291" lon="-3.34955">
        <ele>3141.8</ele>
        <time>2021-08-06 15:35:12</time>
      </trkpt>
      <trkpt lat="37.05291" lon="-3.34955">
        <ele>3141.8</ele>
        <time>2021-08-06 15:35:13</time>
      </trkpt>
      <trkpt lat="37.05291" lon="-3.34955">
        <ele>3141.8</ele>
        <time>2021-08-06 15:35:14</time>
      </trkpt>
      <trkpt lat="37.05291" lon="-3.34955">
        <ele>3141.8</ele>
        <time>2021-08-06 15:35:15</time>
      </trkpt>
      <trkpt lat="37.0529" lon="-3.34955">
        <ele>3141.8</ele>
        <time>2021-08-06 15:35:16</time>
      </trkpt>
      <trkpt lat="37.0529" lon="-3.34955">
        <ele>3141.8</ele>
        <time>2021-08-06 15:35:17</time>
      </trkpt>
      <trkpt lat="37.0529" lon="-3.34955">
        <ele>3141.8</ele>
        <time>2021-08-06 15:35:18</time>
      </trkpt>
      <trkpt lat="37.0529" lon="-3.34955">
        <ele>3141.8</ele>
        <time>2021-08-06 15:35:19</time>
      </trkpt>
      <trkpt lat="37.0529" lon="-3.34955">
        <ele>3141.8</ele>
        <time>2021-08-06 15:35:20</time>
      </trkpt>
      <trkpt lat="37.0529" lon="-3.34954">
        <ele>3141.8</ele>
        <time>2021-08-06 15:35:21</time>
      </trkpt>
      <trkpt lat="37.0529" lon="-3.34954">
        <ele>3141.8</ele>
        <time>2021-08-06 15:35:22</time>
      </trkpt>
      <trkpt lat="37.0529" lon="-3.34954">
        <ele>3141.8</ele>
        <time>2021-08-06 15:35:23</time>
      </trkpt>
      <trkpt lat="37.0529" lon="-3.34954">
        <ele>3141.8</ele>
        <time>2021-08-06 15:35:24</time>
      </trkpt>
      <trkpt lat="37.0529" lon="-3.34954">
        <ele>3141.8</ele>
        <time>2021-08-06 15:35:25</time>
      </trkpt>
      <trkpt lat="37.0529" lon="-3.34954">
        <ele>3141.8</ele>
        <time>2021-08-06 15:35:26</time>
      </trkpt>
      <trkpt lat="37.0529" lon="-3.34954">
        <ele>3141.8</ele>
        <time>2021-08-06 15:35:27</time>
      </trkpt>
      <trkpt lat="37.0529" lon="-3.34954">
        <ele>3141.8</ele>
        <time>2021-08-06 15:35:28</time>
      </trkpt>
      <trkpt lat="37.0529" lon="-3.34954">
        <ele>3141.8</ele>
        <time>2021-08-06 15:35:29</time>
      </trkpt>
      <trkpt lat="37.0529" lon="-3.34953">
        <ele>3141.8</ele>
        <time>2021-08-06 15:35:30</time>
      </trkpt>
      <trkpt lat="37.0529" lon="-3.34953">
        <ele>3141.8</ele>
        <time>2021-08-06 15:35:31</time>
      </trkpt>
      <trkpt lat="37.05289" lon="-3.34953">
        <ele>3141.8</ele>
        <time>2021-08-06 15:35:32</time>
      </trkpt>
      <trkpt lat="37.05289" lon="-3.34953">
        <ele>3141.8</ele>
        <time>2021-08-06 15:35:33</time>
      </trkpt>
      <trkpt lat="37.05289" lon="-3.34952">
        <ele>3141.8</ele>
        <time>2021-08-06 15:35:34</time>
      </trkpt>
      <trkpt lat="37.05289" lon="-3.34952">
        <ele>3141.8</ele>
        <time>2021-08-06 15:35:35</time>
      </trkpt>
      <trkpt lat="37.05289" lon="-3.34952">
        <ele>3141.8</ele>
        <time>2021-08-06 15:35:36</time>
      </trkpt>
      <trkpt lat="37.0529" lon="-3.34952">
        <ele>3141.8</ele>
        <time>2021-08-06 15:35:37</time>
      </trkpt>
      <trkpt lat="37.05291" lon="-3.34952">
        <ele>3141.8</ele>
        <time>2021-08-06 15:35:38</time>
      </trkpt>
      <trkpt lat="37.05293" lon="-3.3495">
        <ele>3141.8</ele>
        <time>2021-08-06 15:35:39</time>
      </trkpt>
      <trkpt lat="37.05294" lon="-3.3495">
        <ele>3141.8</ele>
        <time>2021-08-06 15:35:40</time>
      </trkpt>
      <trkpt lat="37.05294" lon="-3.3495">
        <ele>3141.8</ele>
        <time>2021-08-06 15:35:41</time>
      </trkpt>
      <trkpt lat="37.05294" lon="-3.3495">
        <ele>3141.8</ele>
        <time>2021-08-06 15:35:42</time>
      </trkpt>
      <trkpt lat="37.05295" lon="-3.34949">
        <ele>3141.8</ele>
        <time>2021-08-06 15:35:43</time>
      </trkpt>
      <trkpt lat="37.05294" lon="-3.34949">
        <ele>3141.8</ele>
        <time>2021-08-06 15:35:44</time>
      </trkpt>
      <trkpt lat="37.05294" lon="-3.34949">
        <ele>3141.8</ele>
        <time>2021-08-06 15:35:45</time>
      </trkpt>
      <trkpt lat="37.05294" lon="-3.34949">
        <ele>3141.8</ele>
        <time>2021-08-06 15:35:46</time>
      </trkpt>
      <trkpt lat="37.05294" lon="-3.34949">
        <ele>3141.8</ele>
        <time>2021-08-06 15:35:47</time>
      </trkpt>
      <trkpt lat="37.05294" lon="-3.34949">
        <ele>3141.8</ele>
        <time>2021-08-06 15:35:48</time>
      </trkpt>
      <trkpt lat="37.05294" lon="-3.3495">
        <ele>3141.8</ele>
        <time>2021-08-06 15:35:49</time>
      </trkpt>
      <trkpt lat="37.05294" lon="-3.3495">
        <ele>3141.8</ele>
        <time>2021-08-06 15:35:50</time>
      </trkpt>
      <trkpt lat="37.05294" lon="-3.3495">
        <ele>3141.8</ele>
        <time>2021-08-06 15:35:51</time>
      </trkpt>
      <trkpt lat="37.05294" lon="-3.3495">
        <ele>3141.8</ele>
        <time>2021-08-06 15:35:52</time>
      </trkpt>
      <trkpt lat="37.05293" lon="-3.3495">
        <ele>3141.8</ele>
        <time>2021-08-06 15:35:53</time>
      </trkpt>
      <trkpt lat="37.05293" lon="-3.3495">
        <ele>3141.8</ele>
        <time>2021-08-06 15:35:54</time>
      </trkpt>
      <trkpt lat="37.05293" lon="-3.3495">
        <ele>3141.8</ele>
        <time>2021-08-06 15:35:55</time>
      </trkpt>
      <trkpt lat="37.05293" lon="-3.3495">
        <ele>3141.8</ele>
        <time>2021-08-06 15:35:56</time>
      </trkpt>
      <trkpt lat="37.05293" lon="-3.3495">
        <ele>3141.8</ele>
        <time>2021-08-06 15:35:57</time>
      </trkpt>
      <trkpt lat="37.05293" lon="-3.34951">
        <ele>3141.8</ele>
        <time>2021-08-06 15:35:58</time>
      </trkpt>
      <trkpt lat="37.05293" lon="-3.34951">
        <ele>3141.8</ele>
        <time>2021-08-06 15:35:59</time>
      </trkpt>
      <trkpt lat="37.05293" lon="-3.3495">
        <ele>3141.8</ele>
        <time>2021-08-06 15:36:00</time>
      </trkpt>
      <trkpt lat="37.05293" lon="-3.3495">
        <ele>3141.8</ele>
        <time>2021-08-06 15:36:01</time>
      </trkpt>
      <trkpt lat="37.05293" lon="-3.3495">
        <ele>3141.8</ele>
        <time>2021-08-06 15:36:02</time>
      </trkpt>
      <trkpt lat="37.05293" lon="-3.3495">
        <ele>3141.8</ele>
        <time>2021-08-06 15:36:03</time>
      </trkpt>
      <trkpt lat="37.05293" lon="-3.3495">
        <ele>3141.8</ele>
        <time>2021-08-06 15:36:04</time>
      </trkpt>
      <trkpt lat="37.05294" lon="-3.3495">
        <ele>3141.8</ele>
        <time>2021-08-06 15:36:05</time>
      </trkpt>
      <trkpt lat="37.05294" lon="-3.34949">
        <ele>3141.8</ele>
        <time>2021-08-06 15:36:06</time>
      </trkpt>
      <trkpt lat="37.05295" lon="-3.34949">
        <ele>3141.8</ele>
        <time>2021-08-06 15:36:07</time>
      </trkpt>
      <trkpt lat="37.05294" lon="-3.34949">
        <ele>3141.8</ele>
        <time>2021-08-06 15:36:08</time>
      </trkpt>
      <trkpt lat="37.05294" lon="-3.34949">
        <ele>3141.8</ele>
        <time>2021-08-06 15:36:09</time>
      </trkpt>
      <trkpt lat="37.05294" lon="-3.34948">
        <ele>3141.8</ele>
        <time>2021-08-06 15:36:10</time>
      </trkpt>
      <trkpt lat="37.05295" lon="-3.34948">
        <ele>3141.8</ele>
        <time>2021-08-06 15:36:11</time>
      </trkpt>
      <trkpt lat="37.05295" lon="-3.34948">
        <ele>3141.8</ele>
        <time>2021-08-06 15:36:12</time>
      </trkpt>
      <trkpt lat="37.05294" lon="-3.34948">
        <ele>3141.8</ele>
        <time>2021-08-06 15:36:13</time>
      </trkpt>
      <trkpt lat="37.05294" lon="-3.34948">
        <ele>3141.8</ele>
        <time>2021-08-06 15:36:14</time>
      </trkpt>
      <trkpt lat="37.05294" lon="-3.34948">
        <ele>3141.8</ele>
        <time>2021-08-06 15:36:15</time>
      </trkpt>
      <trkpt lat="37.05294" lon="-3.34948">
        <ele>3141.8</ele>
        <time>2021-08-06 15:36:16</time>
      </trkpt>
      <trkpt lat="37.05295" lon="-3.34948">
        <ele>3141.8</ele>
        <time>2021-08-06 15:36:17</time>
      </trkpt>
      <trkpt lat="37.05295" lon="-3.34948">
        <ele>3141.8</ele>
        <time>2021-08-06 15:36:18</time>
      </trkpt>
      <trkpt lat="37.05295" lon="-3.34948">
        <ele>3141.8</ele>
        <time>2021-08-06 15:36:19</time>
      </trkpt>
      <trkpt lat="37.05295" lon="-3.34948">
        <ele>3141.8</ele>
        <time>2021-08-06 15:36:20</time>
      </trkpt>
      <trkpt lat="37.05295" lon="-3.34948">
        <ele>3141.8</ele>
        <time>2021-08-06 15:36:21</time>
      </trkpt>
      <trkpt lat="37.053" lon="-3.34956">
        <ele>3141.8</ele>
        <time>2021-08-06 15:36:22</time>
      </trkpt>
      <trkpt lat="37.053" lon="-3.34956">
        <ele>3141.8</ele>
        <time>2021-08-06 15:36:23</time>
      </trkpt>
      <trkpt lat="37.05299" lon="-3.34956">
        <ele>3141.8</ele>
        <time>2021-08-06 15:36:24</time>
      </trkpt>
      <trkpt lat="37.05299" lon="-3.34956">
        <ele>3141.8</ele>
        <time>2021-08-06 15:36:25</time>
      </trkpt>
      <trkpt lat="37.05299" lon="-3.34956">
        <ele>3141.8</ele>
        <time>2021-08-06 15:36:26</time>
      </trkpt>
      <trkpt lat="37.05298" lon="-3.34955">
        <ele>3141.8</ele>
        <time>2021-08-06 15:36:27</time>
      </trkpt>
      <trkpt lat="37.05297" lon="-3.34954">
        <ele>3141.8</ele>
        <time>2021-08-06 15:36:28</time>
      </trkpt>
      <trkpt lat="37.05296" lon="-3.34954">
        <ele>3141.8</ele>
        <time>2021-08-06 15:36:29</time>
      </trkpt>
      <trkpt lat="37.05295" lon="-3.34952">
        <ele>3141.8</ele>
        <time>2021-08-06 15:36:30</time>
      </trkpt>
      <trkpt lat="37.05295" lon="-3.34952">
        <ele>3141.8</ele>
        <time>2021-08-06 15:36:31</time>
      </trkpt>
      <trkpt lat="37.05294" lon="-3.34952">
        <ele>3141.8</ele>
        <time>2021-08-06 15:36:32</time>
      </trkpt>
      <trkpt lat="37.05293" lon="-3.34952">
        <ele>3141.8</ele>
        <time>2021-08-06 15:36:33</time>
      </trkpt>
      <trkpt lat="37.05293" lon="-3.34952">
        <ele>3141.8</ele>
        <time>2021-08-06 15:36:34</time>
      </trkpt>
      <trkpt lat="37.05293" lon="-3.34951">
        <ele>3141.8</ele>
        <time>2021-08-06 15:36:35</time>
      </trkpt>
      <trkpt lat="37.05292" lon="-3.34951">
        <ele>3141.8</ele>
        <time>2021-08-06 15:36:36</time>
      </trkpt>
      <trkpt lat="37.05292" lon="-3.34952">
        <ele>3141.8</ele>
        <time>2021-08-06 15:36:37</time>
      </trkpt>
      <trkpt lat="37.05292" lon="-3.34953">
        <ele>3141.8</ele>
        <time>2021-08-06 15:36:38</time>
      </trkpt>
      <trkpt lat="37.05292" lon="-3.34953">
        <ele>3141.8</ele>
        <time>2021-08-06 15:36:39</time>
      </trkpt>
      <trkpt lat="37.05292" lon="-3.34953">
        <ele>3141.8</ele>
        <time>2021-08-06 15:36:40</time>
      </trkpt>
      <trkpt lat="37.05292" lon="-3.34953">
        <ele>3141.8</ele>
        <time>2021-08-06 15:36:41</time>
      </trkpt>
      <trkpt lat="37.05292" lon="-3.34954">
        <ele>3141.8</ele>
        <time>2021-08-06 15:36:42</time>
      </trkpt>
      <trkpt lat="37.05292" lon="-3.34954">
        <ele>3141.8</ele>
        <time>2021-08-06 15:36:43</time>
      </trkpt>
      <trkpt lat="37.05293" lon="-3.34955">
        <ele>3141.8</ele>
        <time>2021-08-06 15:36:44</time>
      </trkpt>
      <trkpt lat="37.05293" lon="-3.34954">
        <ele>3141.8</ele>
        <time>2021-08-06 15:36:45</time>
      </trkpt>
      <trkpt lat="37.05293" lon="-3.34954">
        <ele>3141.8</ele>
        <time>2021-08-06 15:36:46</time>
      </trkpt>
      <trkpt lat="37.05293" lon="-3.34953">
        <ele>3141.8</ele>
        <time>2021-08-06 15:36:47</time>
      </trkpt>
      <trkpt lat="37.05293" lon="-3.34953">
        <ele>3141.8</ele>
        <time>2021-08-06 15:36:48</time>
      </trkpt>
      <trkpt lat="37.05293" lon="-3.34954">
        <ele>3141.8</ele>
        <time>2021-08-06 15:36:49</time>
      </trkpt>
      <trkpt lat="37.05293" lon="-3.34954">
        <ele>3141.8</ele>
        <time>2021-08-06 15:36:50</time>
      </trkpt>
      <trkpt lat="37.05293" lon="-3.34955">
        <ele>3141.8</ele>
        <time>2021-08-06 15:36:51</time>
      </trkpt>
      <trkpt lat="37.05293" lon="-3.34955">
        <ele>3141.8</ele>
        <time>2021-08-06 15:36:52</time>
      </trkpt>
      <trkpt lat="37.05293" lon="-3.34955">
        <ele>3141.8</ele>
        <time>2021-08-06 15:36:53</time>
      </trkpt>
      <trkpt lat="37.05293" lon="-3.34954">
        <ele>3141.8</ele>
        <time>2021-08-06 15:36:54</time>
      </trkpt>
      <trkpt lat="37.05293" lon="-3.34953">
        <ele>3141.8</ele>
        <time>2021-08-06 15:36:55</time>
      </trkpt>
      <trkpt lat="37.05293" lon="-3.34953">
        <ele>3141.8</ele>
        <time>2021-08-06 15:36:56</time>
      </trkpt>
      <trkpt lat="37.05293" lon="-3.34953">
        <ele>3141.8</ele>
        <time>2021-08-06 15:36:57</time>
      </trkpt>
      <trkpt lat="37.05293" lon="-3.34953">
        <ele>3141.8</ele>
        <time>2021-08-06 15:36:58</time>
      </trkpt>
      <trkpt lat="37.05293" lon="-3.34952">
        <ele>3141.8</ele>
        <time>2021-08-06 15:36:59</time>
      </trkpt>
      <trkpt lat="37.05293" lon="-3.34952">
        <ele>3141.8</ele>
        <time>2021-08-06 15:37:00</time>
      </trkpt>
      <trkpt lat="37.05293" lon="-3.34952">
        <ele>3141.8</ele>
        <time>2021-08-06 15:37:01</time>
      </trkpt>
      <trkpt lat="37.05293" lon="-3.34952">
        <ele>3141.8</ele>
        <time>2021-08-06 15:37:02</time>
      </trkpt>
      <trkpt lat="37.05293" lon="-3.34953">
        <ele>3141.8</ele>
        <time>2021-08-06 15:37:03</time>
      </trkpt>
      <trkpt lat="37.05293" lon="-3.34953">
        <ele>3141.8</ele>
        <time>2021-08-06 15:37:04</time>
      </trkpt>
      <trkpt lat="37.05293" lon="-3.34953">
        <ele>3141.8</ele>
        <time>2021-08-06 15:37:05</time>
      </trkpt>
      <trkpt lat="37.05293" lon="-3.34952">
        <ele>3141.8</ele>
        <time>2021-08-06 15:37:06</time>
      </trkpt>
      <trkpt lat="37.05293" lon="-3.34952">
        <ele>3141.8</ele>
        <time>2021-08-06 15:37:07</time>
      </trkpt>
      <trkpt lat="37.05292" lon="-3.34952">
        <ele>3141.8</ele>
        <time>2021-08-06 15:37:08</time>
      </trkpt>
      <trkpt lat="37.05292" lon="-3.34952">
        <ele>3141.8</ele>
        <time>2021-08-06 15:37:09</time>
      </trkpt>
      <trkpt lat="37.05292" lon="-3.34952">
        <ele>3141.8</ele>
        <time>2021-08-06 15:37:10</time>
      </trkpt>
      <trkpt lat="37.05292" lon="-3.34951">
        <ele>3141.8</ele>
        <time>2021-08-06 15:37:11</time>
      </trkpt>
      <trkpt lat="37.05292" lon="-3.34951">
        <ele>3141.8</ele>
        <time>2021-08-06 15:37:12</time>
      </trkpt>
      <trkpt lat="37.05292" lon="-3.34951">
        <ele>3141.8</ele>
        <time>2021-08-06 15:37:13</time>
      </trkpt>
      <trkpt lat="37.05292" lon="-3.34951">
        <ele>3141.8</ele>
        <time>2021-08-06 15:37:14</time>
      </trkpt>
      <trkpt lat="37.05292" lon="-3.3495">
        <ele>3141.8</ele>
        <time>2021-08-06 15:37:15</time>
      </trkpt>
      <trkpt lat="37.05292" lon="-3.3495">
        <ele>3141.8</ele>
        <time>2021-08-06 15:37:16</time>
      </trkpt>
      <trkpt lat="37.05292" lon="-3.34949">
        <ele>3141.8</ele>
        <time>2021-08-06 15:37:17</time>
      </trkpt>
      <trkpt lat="37.05292" lon="-3.34949">
        <ele>3141.8</ele>
        <time>2021-08-06 15:37:18</time>
      </trkpt>
      <trkpt lat="37.05291" lon="-3.34949">
        <ele>3141.8</ele>
        <time>2021-08-06 15:37:19</time>
      </trkpt>
      <trkpt lat="37.05291" lon="-3.34949">
        <ele>3141.8</ele>
        <time>2021-08-06 15:37:20</time>
      </trkpt>
      <trkpt lat="37.05291" lon="-3.34949">
        <ele>3141.8</ele>
        <time>2021-08-06 15:37:21</time>
      </trkpt>
      <trkpt lat="37.05291" lon="-3.34949">
        <ele>3141.8</ele>
        <time>2021-08-06 15:37:22</time>
      </trkpt>
      <trkpt lat="37.05291" lon="-3.34949">
        <ele>3141.8</ele>
        <time>2021-08-06 15:37:23</time>
      </trkpt>
      <trkpt lat="37.05291" lon="-3.34949">
        <ele>3141.8</ele>
        <time>2021-08-06 15:37:24</time>
      </trkpt>
      <trkpt lat="37.05291" lon="-3.34948">
        <ele>3141.8</ele>
        <time>2021-08-06 15:37:25</time>
      </trkpt>
      <trkpt lat="37.05291" lon="-3.34948">
        <ele>3141.8</ele>
        <time>2021-08-06 15:37:26</time>
      </trkpt>
      <trkpt lat="37.05291" lon="-3.34947">
        <ele>3141.8</ele>
        <time>2021-08-06 15:37:27</time>
      </trkpt>
      <trkpt lat="37.05292" lon="-3.34946">
        <ele>3141.8</ele>
        <time>2021-08-06 15:37:28</time>
      </trkpt>
      <trkpt lat="37.05292" lon="-3.34947">
        <ele>3141.8</ele>
        <time>2021-08-06 15:37:29</time>
      </trkpt>
      <trkpt lat="37.05292" lon="-3.34947">
        <ele>3141.8</ele>
        <time>2021-08-06 15:37:30</time>
      </trkpt>
      <trkpt lat="37.05292" lon="-3.34947">
        <ele>3141.8</ele>
        <time>2021-08-06 15:37:31</time>
      </trkpt>
      <trkpt lat="37.05292" lon="-3.34947">
        <ele>3141.8</ele>
        <time>2021-08-06 15:37:32</time>
      </trkpt>
      <trkpt lat="37.05292" lon="-3.34948">
        <ele>3141.8</ele>
        <time>2021-08-06 15:37:33</time>
      </trkpt>
      <trkpt lat="37.05292" lon="-3.34947">
        <ele>3141.8</ele>
        <time>2021-08-06 15:37:34</time>
      </trkpt>
      <trkpt lat="37.05292" lon="-3.34947">
        <ele>3141.8</ele>
        <time>2021-08-06 15:37:35</time>
      </trkpt>
      <trkpt lat="37.05292" lon="-3.34947">
        <ele>3141.8</ele>
        <time>2021-08-06 15:37:36</time>
      </trkpt>
      <trkpt lat="37.05292" lon="-3.34947">
        <ele>3141.8</ele>
        <time>2021-08-06 15:37:37</time>
      </trkpt>
      <trkpt lat="37.05292" lon="-3.34947">
        <ele>3141.8</ele>
        <time>2021-08-06 15:37:38</time>
      </trkpt>
      <trkpt lat="37.05291" lon="-3.34948">
        <ele>3141.8</ele>
        <time>2021-08-06 15:37:39</time>
      </trkpt>
      <trkpt lat="37.05291" lon="-3.34948">
        <ele>3141.8</ele>
        <time>2021-08-06 15:37:40</time>
      </trkpt>
      <trkpt lat="37.05291" lon="-3.34948">
        <ele>3141.8</ele>
        <time>2021-08-06 15:37:41</time>
      </trkpt>
      <trkpt lat="37.05291" lon="-3.34947">
        <ele>3141.8</ele>
        <time>2021-08-06 15:37:42</time>
      </trkpt>
      <trkpt lat="37.05291" lon="-3.34946">
        <ele>3141.8</ele>
        <time>2021-08-06 15:37:43</time>
      </trkpt>
      <trkpt lat="37.05292" lon="-3.34946">
        <ele>3141.8</ele>
        <time>2021-08-06 15:37:44</time>
      </trkpt>
      <trkpt lat="37.05291" lon="-3.34946">
        <ele>3141.8</ele>
        <time>2021-08-06 15:37:45</time>
      </trkpt>
      <trkpt lat="37.05291" lon="-3.34946">
        <ele>3141.8</ele>
        <time>2021-08-06 15:37:46</time>
      </trkpt>
      <trkpt lat="37.05291" lon="-3.34946">
        <ele>3141.8</ele>
        <time>2021-08-06 15:37:47</time>
      </trkpt>
      <trkpt lat="37.05291" lon="-3.34946">
        <ele>3141.8</ele>
        <time>2021-08-06 15:37:48</time>
      </trkpt>
      <trkpt lat="37.05291" lon="-3.34945">
        <ele>3141.8</ele>
        <time>2021-08-06 15:37:49</time>
      </trkpt>
      <trkpt lat="37.05291" lon="-3.34945">
        <ele>3141.8</ele>
        <time>2021-08-06 15:37:50</time>
      </trkpt>
      <trkpt lat="37.05291" lon="-3.34945">
        <ele>3141.8</ele>
        <time>2021-08-06 15:37:51</time>
      </trkpt>
      <trkpt lat="37.05291" lon="-3.34945">
        <ele>3141.8</ele>
        <time>2021-08-06 15:37:52</time>
      </trkpt>
      <trkpt lat="37.0529" lon="-3.34945">
        <ele>3141.8</ele>
        <time>2021-08-06 15:37:53</time>
      </trkpt>
      <trkpt lat="37.0529" lon="-3.34945">
        <ele>3141.8</ele>
        <time>2021-08-06 15:37:54</time>
      </trkpt>
      <trkpt lat="37.0529" lon="-3.34945">
        <ele>3141.8</ele>
        <time>2021-08-06 15:37:55</time>
      </trkpt>
      <trkpt lat="37.05289" lon="-3.34946">
        <ele>3141.8</ele>
        <time>2021-08-06 15:37:56</time>
      </trkpt>
      <trkpt lat="37.05289" lon="-3.34947">
        <ele>3141.8</ele>
        <time>2021-08-06 15:37:57</time>
      </trkpt>
      <trkpt lat="37.05289" lon="-3.34948">
        <ele>3141.8</ele>
        <time>2021-08-06 15:37:58</time>
      </trkpt>
      <trkpt lat="37.05288" lon="-3.34948">
        <ele>3141.8</ele>
        <time>2021-08-06 15:37:59</time>
      </trkpt>
      <trkpt lat="37.05289" lon="-3.34947">
        <ele>3141.8</ele>
        <time>2021-08-06 15:38:00</time>
      </trkpt>
      <trkpt lat="37.05289" lon="-3.34946">
        <ele>3141.8</ele>
        <time>2021-08-06 15:38:01</time>
      </trkpt>
      <trkpt lat="37.05289" lon="-3.34946">
        <ele>3141.8</ele>
        <time>2021-08-06 15:38:02</time>
      </trkpt>
      <trkpt lat="37.05289" lon="-3.34946">
        <ele>3141.8</ele>
        <time>2021-08-06 15:38:03</time>
      </trkpt>
      <trkpt lat="37.05289" lon="-3.34946">
        <ele>3141.8</ele>
        <time>2021-08-06 15:38:04</time>
      </trkpt>
      <trkpt lat="37.05289" lon="-3.34946">
        <ele>3141.8</ele>
        <time>2021-08-06 15:38:05</time>
      </trkpt>
      <trkpt lat="37.0529" lon="-3.34946">
        <ele>3141.8</ele>
        <time>2021-08-06 15:38:06</time>
      </trkpt>
      <trkpt lat="37.05289" lon="-3.34946">
        <ele>3141.8</ele>
        <time>2021-08-06 15:38:07</time>
      </trkpt>
      <trkpt lat="37.05289" lon="-3.34946">
        <ele>3141.8</ele>
        <time>2021-08-06 15:38:08</time>
      </trkpt>
      <trkpt lat="37.05289" lon="-3.34946">
        <ele>3141.8</ele>
        <time>2021-08-06 15:38:09</time>
      </trkpt>
      <trkpt lat="37.05289" lon="-3.34946">
        <ele>3141.8</ele>
        <time>2021-08-06 15:38:10</time>
      </trkpt>
      <trkpt lat="37.05289" lon="-3.34947">
        <ele>3141.8</ele>
        <time>2021-08-06 15:38:11</time>
      </trkpt>
      <trkpt lat="37.05288" lon="-3.34947">
        <ele>3141.8</ele>
        <time>2021-08-06 15:38:12</time>
      </trkpt>
      <trkpt lat="37.05288" lon="-3.34947">
        <ele>3141.8</ele>
        <time>2021-08-06 15:38:13</time>
      </trkpt>
      <trkpt lat="37.05289" lon="-3.34949">
        <ele>3141.8</ele>
        <time>2021-08-06 15:38:14</time>
      </trkpt>
      <trkpt lat="37.05289" lon="-3.34948">
        <ele>3141.8</ele>
        <time>2021-08-06 15:38:15</time>
      </trkpt>
      <trkpt lat="37.05289" lon="-3.34948">
        <ele>3141.8</ele>
        <time>2021-08-06 15:38:16</time>
      </trkpt>
      <trkpt lat="37.05288" lon="-3.34948">
        <ele>3141.8</ele>
        <time>2021-08-06 15:38:17</time>
      </trkpt>
      <trkpt lat="37.05288" lon="-3.34948">
        <ele>3141.8</ele>
        <time>2021-08-06 15:38:18</time>
      </trkpt>
      <trkpt lat="37.05288" lon="-3.34948">
        <ele>3141.8</ele>
        <time>2021-08-06 15:38:19</time>
      </trkpt>
      <trkpt lat="37.05288" lon="-3.34949">
        <ele>3141.8</ele>
        <time>2021-08-06 15:38:20</time>
      </trkpt>
      <trkpt lat="37.05288" lon="-3.34949">
        <ele>3141.8</ele>
        <time>2021-08-06 15:38:21</time>
      </trkpt>
      <trkpt lat="37.05289" lon="-3.3495">
        <ele>3141.8</ele>
        <time>2021-08-06 15:38:22</time>
      </trkpt>
      <trkpt lat="37.05289" lon="-3.34951">
        <ele>3141.8</ele>
        <time>2021-08-06 15:38:23</time>
      </trkpt>
      <trkpt lat="37.05289" lon="-3.34952">
        <ele>3141.8</ele>
        <time>2021-08-06 15:38:24</time>
      </trkpt>
      <trkpt lat="37.05289" lon="-3.34953">
        <ele>3141.8</ele>
        <time>2021-08-06 15:38:25</time>
      </trkpt>
      <trkpt lat="37.05289" lon="-3.34953">
        <ele>3141.8</ele>
        <time>2021-08-06 15:38:26</time>
      </trkpt>
      <trkpt lat="37.05289" lon="-3.34953">
        <ele>3141.8</ele>
        <time>2021-08-06 15:38:27</time>
      </trkpt>
      <trkpt lat="37.05289" lon="-3.34953">
        <ele>3141.8</ele>
        <time>2021-08-06 15:38:28</time>
      </trkpt>
      <trkpt lat="37.0529" lon="-3.34953">
        <ele>3141.8</ele>
        <time>2021-08-06 15:38:29</time>
      </trkpt>
      <trkpt lat="37.0529" lon="-3.34953">
        <ele>3141.8</ele>
        <time>2021-08-06 15:38:30</time>
      </trkpt>
      <trkpt lat="37.0529" lon="-3.34952">
        <ele>3141.8</ele>
        <time>2021-08-06 15:38:31</time>
      </trkpt>
      <trkpt lat="37.0529" lon="-3.34952">
        <ele>3141.8</ele>
        <time>2021-08-06 15:38:32</time>
      </trkpt>
      <trkpt lat="37.0529" lon="-3.34952">
        <ele>3141.8</ele>
        <time>2021-08-06 15:38:33</time>
      </trkpt>
      <trkpt lat="37.0529" lon="-3.34952">
        <ele>3141.8</ele>
        <time>2021-08-06 15:38:34</time>
      </trkpt>
      <trkpt lat="37.0529" lon="-3.34952">
        <ele>3141.8</ele>
        <time>2021-08-06 15:38:35</time>
      </trkpt>
      <trkpt lat="37.0529" lon="-3.34952">
        <ele>3141.8</ele>
        <time>2021-08-06 15:38:36</time>
      </trkpt>
      <trkpt lat="37.0529" lon="-3.34953">
        <ele>3141.8</ele>
        <time>2021-08-06 15:38:37</time>
      </trkpt>
      <trkpt lat="37.0529" lon="-3.34953">
        <ele>3141.8</ele>
        <time>2021-08-06 15:38:38</time>
      </trkpt>
      <trkpt lat="37.0529" lon="-3.34953">
        <ele>3141.8</ele>
        <time>2021-08-06 15:38:39</time>
      </trkpt>
      <trkpt lat="37.0529" lon="-3.34953">
        <ele>3141.8</ele>
        <time>2021-08-06 15:38:40</time>
      </trkpt>
      <trkpt lat="37.0529" lon="-3.34954">
        <ele>3141.8</ele>
        <time>2021-08-06 15:38:41</time>
      </trkpt>
      <trkpt lat="37.0529" lon="-3.34953">
        <ele>3141.8</ele>
        <time>2021-08-06 15:38:42</time>
      </trkpt>
      <trkpt lat="37.05291" lon="-3.34952">
        <ele>3141.8</ele>
        <time>2021-08-06 15:38:43</time>
      </trkpt>
      <trkpt lat="37.05292" lon="-3.34952">
        <ele>3141.8</ele>
        <time>2021-08-06 15:38:44</time>
      </trkpt>
      <trkpt lat="37.05292" lon="-3.34952">
        <ele>3141.8</ele>
        <time>2021-08-06 15:38:45</time>
      </trkpt>
      <trkpt lat="37.05292" lon="-3.34952">
        <ele>3141.8</ele>
        <time>2021-08-06 15:38:46</time>
      </trkpt>
      <trkpt lat="37.05292" lon="-3.3495">
        <ele>3141.8</ele>
        <time>2021-08-06 15:38:47</time>
      </trkpt>
      <trkpt lat="37.05293" lon="-3.34951">
        <ele>3141.8</ele>
        <time>2021-08-06 15:38:48</time>
      </trkpt>
      <trkpt lat="37.05293" lon="-3.34951">
        <ele>3141.8</ele>
        <time>2021-08-06 15:38:49</time>
      </trkpt>
      <trkpt lat="37.05293" lon="-3.34951">
        <ele>3141.8</ele>
        <time>2021-08-06 15:38:50</time>
      </trkpt>
      <trkpt lat="37.05294" lon="-3.3495">
        <ele>3141.8</ele>
        <time>2021-08-06 15:38:51</time>
      </trkpt>
      <trkpt lat="37.05294" lon="-3.3495">
        <ele>3141.8</ele>
        <time>2021-08-06 15:38:52</time>
      </trkpt>
      <trkpt lat="37.05294" lon="-3.3495">
        <ele>3141.8</ele>
        <time>2021-08-06 15:38:53</time>
      </trkpt>
      <trkpt lat="37.05294" lon="-3.3495">
        <ele>3141.8</ele>
        <time>2021-08-06 15:38:54</time>
      </trkpt>
      <trkpt lat="37.05293" lon="-3.34951">
        <ele>3141.8</ele>
        <time>2021-08-06 15:38:55</time>
      </trkpt>
      <trkpt lat="37.05292" lon="-3.34951">
        <ele>3141.8</ele>
        <time>2021-08-06 15:38:56</time>
      </trkpt>
      <trkpt lat="37.05292" lon="-3.34951">
        <ele>3141.8</ele>
        <time>2021-08-06 15:38:57</time>
      </trkpt>
      <trkpt lat="37.05292" lon="-3.34951">
        <ele>3141.8</ele>
        <time>2021-08-06 15:38:58</time>
      </trkpt>
      <trkpt lat="37.05292" lon="-3.34951">
        <ele>3141.8</ele>
        <time>2021-08-06 15:38:59</time>
      </trkpt>
      <trkpt lat="37.05291" lon="-3.34952">
        <ele>3141.8</ele>
        <time>2021-08-06 15:39:00</time>
      </trkpt>
      <trkpt lat="37.05291" lon="-3.34952">
        <ele>3141.8</ele>
        <time>2021-08-06 15:39:01</time>
      </trkpt>
      <trkpt lat="37.05291" lon="-3.34952">
        <ele>3141.8</ele>
        <time>2021-08-06 15:39:02</time>
      </trkpt>
      <trkpt lat="37.05291" lon="-3.34952">
        <ele>3141.8</ele>
        <time>2021-08-06 15:39:03</time>
      </trkpt>
      <trkpt lat="37.05291" lon="-3.34952">
        <ele>3141.8</ele>
        <time>2021-08-06 15:39:04</time>
      </trkpt>
      <trkpt lat="37.05291" lon="-3.34952">
        <ele>3141.8</ele>
        <time>2021-08-06 15:39:05</time>
      </trkpt>
      <trkpt lat="37.0529" lon="-3.34952">
        <ele>3141.8</ele>
        <time>2021-08-06 15:39:06</time>
      </trkpt>
      <trkpt lat="37.0529" lon="-3.34952">
        <ele>3141.8</ele>
        <time>2021-08-06 15:39:07</time>
      </trkpt>
      <trkpt lat="37.0529" lon="-3.34952">
        <ele>3141.8</ele>
        <time>2021-08-06 15:39:08</time>
      </trkpt>
      <trkpt lat="37.0529" lon="-3.34951">
        <ele>3141.8</ele>
        <time>2021-08-06 15:39:09</time>
      </trkpt>
      <trkpt lat="37.0529" lon="-3.34951">
        <ele>3141.8</ele>
        <time>2021-08-06 15:39:10</time>
      </trkpt>
      <trkpt lat="37.0529" lon="-3.34951">
        <ele>3141.8</ele>
        <time>2021-08-06 15:39:11</time>
      </trkpt>
      <trkpt lat="37.0529" lon="-3.34953">
        <ele>3141.8</ele>
        <time>2021-08-06 15:39:12</time>
      </trkpt>
      <trkpt lat="37.0529" lon="-3.34952">
        <ele>3141.8</ele>
        <time>2021-08-06 15:39:13</time>
      </trkpt>
      <trkpt lat="37.0529" lon="-3.34951">
        <ele>3141.8</ele>
        <time>2021-08-06 15:39:14</time>
      </trkpt>
      <trkpt lat="37.0529" lon="-3.34951">
        <ele>3141.8</ele>
        <time>2021-08-06 15:39:15</time>
      </trkpt>
      <trkpt lat="37.0529" lon="-3.34951">
        <ele>3141.8</ele>
        <time>2021-08-06 15:39:16</time>
      </trkpt>
      <trkpt lat="37.0529" lon="-3.34951">
        <ele>3141.8</ele>
        <time>2021-08-06 15:39:17</time>
      </trkpt>
      <trkpt lat="37.0529" lon="-3.3495">
        <ele>3141.8</ele>
        <time>2021-08-06 15:39:18</time>
      </trkpt>
      <trkpt lat="37.05291" lon="-3.34948">
        <ele>3141.8</ele>
        <time>2021-08-06 15:39:19</time>
      </trkpt>
      <trkpt lat="37.0529" lon="-3.34949">
        <ele>3141.8</ele>
        <time>2021-08-06 15:39:20</time>
      </trkpt>
      <trkpt lat="37.0529" lon="-3.34949">
        <ele>3141.8</ele>
        <time>2021-08-06 15:39:21</time>
      </trkpt>
      <trkpt lat="37.0529" lon="-3.3495">
        <ele>3141.8</ele>
        <time>2021-08-06 15:39:22</time>
      </trkpt>
      <trkpt lat="37.0529" lon="-3.3495">
        <ele>3141.8</ele>
        <time>2021-08-06 15:39:23</time>
      </trkpt>
      <trkpt lat="37.0529" lon="-3.34951">
        <ele>3141.8</ele>
        <time>2021-08-06 15:39:24</time>
      </trkpt>
      <trkpt lat="37.05289" lon="-3.3495">
        <ele>3141.8</ele>
        <time>2021-08-06 15:39:25</time>
      </trkpt>
      <trkpt lat="37.05289" lon="-3.34949">
        <ele>3141.8</ele>
        <time>2021-08-06 15:39:26</time>
      </trkpt>
      <trkpt lat="37.05289" lon="-3.34949">
        <ele>3141.8</ele>
        <time>2021-08-06 15:39:27</time>
      </trkpt>
      <trkpt lat="37.05289" lon="-3.34948">
        <ele>3141.8</ele>
        <time>2021-08-06 15:39:28</time>
      </trkpt>
      <trkpt lat="37.05289" lon="-3.34948">
        <ele>3141.8</ele>
        <time>2021-08-06 15:39:29</time>
      </trkpt>
      <trkpt lat="37.05289" lon="-3.34948">
        <ele>3141.8</ele>
        <time>2021-08-06 15:39:30</time>
      </trkpt>
      <trkpt lat="37.05289" lon="-3.34948">
        <ele>3141.8</ele>
        <time>2021-08-06 15:39:31</time>
      </trkpt>
      <trkpt lat="37.05289" lon="-3.34948">
        <ele>3141.8</ele>
        <time>2021-08-06 15:39:32</time>
      </trkpt>
      <trkpt lat="37.05289" lon="-3.34948">
        <ele>3141.8</ele>
        <time>2021-08-06 15:39:33</time>
      </trkpt>
      <trkpt lat="37.05289" lon="-3.34949">
        <ele>3141.8</ele>
        <time>2021-08-06 15:39:34</time>
      </trkpt>
      <trkpt lat="37.05289" lon="-3.3495">
        <ele>3141.8</ele>
        <time>2021-08-06 15:39:35</time>
      </trkpt>
      <trkpt lat="37.05289" lon="-3.3495">
        <ele>3141.8</ele>
        <time>2021-08-06 15:39:36</time>
      </trkpt>
      <trkpt lat="37.05289" lon="-3.34949">
        <ele>3141.8</ele>
        <time>2021-08-06 15:39:37</time>
      </trkpt>
      <trkpt lat="37.05289" lon="-3.34949">
        <ele>3141.8</ele>
        <time>2021-08-06 15:39:38</time>
      </trkpt>
      <trkpt lat="37.05289" lon="-3.34949">
        <ele>3141.8</ele>
        <time>2021-08-06 15:39:39</time>
      </trkpt>
      <trkpt lat="37.05289" lon="-3.3495">
        <ele>3141.8</ele>
        <time>2021-08-06 15:39:40</time>
      </trkpt>
      <trkpt lat="37.05289" lon="-3.3495">
        <ele>3141.8</ele>
        <time>2021-08-06 15:39:41</time>
      </trkpt>
      <trkpt lat="37.05289" lon="-3.3495">
        <ele>3141.8</ele>
        <time>2021-08-06 15:39:42</time>
      </trkpt>
      <trkpt lat="37.05289" lon="-3.3495">
        <ele>3141.8</ele>
        <time>2021-08-06 15:39:43</time>
      </trkpt>
      <trkpt lat="37.0529" lon="-3.3495">
        <ele>3141.8</ele>
        <time>2021-08-06 15:39:44</time>
      </trkpt>
      <trkpt lat="37.0529" lon="-3.34949">
        <ele>3141.8</ele>
        <time>2021-08-06 15:39:45</time>
      </trkpt>
      <trkpt lat="37.0529" lon="-3.34949">
        <ele>3141.8</ele>
        <time>2021-08-06 15:39:46</time>
      </trkpt>
      <trkpt lat="37.0529" lon="-3.34948">
        <ele>3141.8</ele>
        <time>2021-08-06 15:39:47</time>
      </trkpt>
      <trkpt lat="37.0529" lon="-3.34949">
        <ele>3141.8</ele>
        <time>2021-08-06 15:39:48</time>
      </trkpt>
      <trkpt lat="37.05293" lon="-3.34948">
        <ele>3141.8</ele>
        <time>2021-08-06 15:39:49</time>
      </trkpt>
      <trkpt lat="37.05294" lon="-3.34948">
        <ele>3141.8</ele>
        <time>2021-08-06 15:39:50</time>
      </trkpt>
      <trkpt lat="37.05295" lon="-3.34947">
        <ele>3141.8</ele>
        <time>2021-08-06 15:39:51</time>
      </trkpt>
      <trkpt lat="37.05296" lon="-3.34946">
        <ele>3141.8</ele>
        <time>2021-08-06 15:39:52</time>
      </trkpt>
      <trkpt lat="37.05297" lon="-3.34946">
        <ele>3141.8</ele>
        <time>2021-08-06 15:39:53</time>
      </trkpt>
      <trkpt lat="37.05297" lon="-3.34946">
        <ele>3141.8</ele>
        <time>2021-08-06 15:39:54</time>
      </trkpt>
      <trkpt lat="37.05297" lon="-3.34946">
        <ele>3141.8</ele>
        <time>2021-08-06 15:39:55</time>
      </trkpt>
      <trkpt lat="37.05297" lon="-3.34946">
        <ele>3141.8</ele>
        <time>2021-08-06 15:39:56</time>
      </trkpt>
      <trkpt lat="37.05297" lon="-3.34946">
        <ele>3141.8</ele>
        <time>2021-08-06 15:39:57</time>
      </trkpt>
      <trkpt lat="37.05297" lon="-3.34946">
        <ele>3141.8</ele>
        <time>2021-08-06 15:39:58</time>
      </trkpt>
      <trkpt lat="37.05297" lon="-3.34946">
        <ele>3141.8</ele>
        <time>2021-08-06 15:39:59</time>
      </trkpt>
      <trkpt lat="37.05297" lon="-3.34946">
        <ele>3141.8</ele>
        <time>2021-08-06 15:40:00</time>
      </trkpt>
      <trkpt lat="37.05298" lon="-3.34945">
        <ele>3141.8</ele>
        <time>2021-08-06 15:40:01</time>
      </trkpt>
      <trkpt lat="37.05297" lon="-3.34945">
        <ele>3141.8</ele>
        <time>2021-08-06 15:40:02</time>
      </trkpt>
      <trkpt lat="37.05297" lon="-3.34945">
        <ele>3141.8</ele>
        <time>2021-08-06 15:40:03</time>
      </trkpt>
      <trkpt lat="37.05297" lon="-3.34945">
        <ele>3141.8</ele>
        <time>2021-08-06 15:40:04</time>
      </trkpt>
      <trkpt lat="37.05297" lon="-3.34945">
        <ele>3141.8</ele>
        <time>2021-08-06 15:40:05</time>
      </trkpt>
      <trkpt lat="37.05296" lon="-3.34946">
        <ele>3141.8</ele>
        <time>2021-08-06 15:40:06</time>
      </trkpt>
      <trkpt lat="37.05295" lon="-3.34948">
        <ele>3141.8</ele>
        <time>2021-08-06 15:40:07</time>
      </trkpt>
      <trkpt lat="37.05295" lon="-3.34948">
        <ele>3141.8</ele>
        <time>2021-08-06 15:40:08</time>
      </trkpt>
      <trkpt lat="37.05296" lon="-3.34947">
        <ele>3141.8</ele>
        <time>2021-08-06 15:40:09</time>
      </trkpt>
      <trkpt lat="37.05296" lon="-3.34947">
        <ele>3141.8</ele>
        <time>2021-08-06 15:40:10</time>
      </trkpt>
      <trkpt lat="37.05296" lon="-3.34947">
        <ele>3141.8</ele>
        <time>2021-08-06 15:40:11</time>
      </trkpt>
      <trkpt lat="37.05292" lon="-3.34948">
        <ele>3141.8</ele>
        <time>2021-08-06 15:40:12</time>
      </trkpt>
      <trkpt lat="37.05292" lon="-3.34948">
        <ele>3141.8</ele>
        <time>2021-08-06 15:40:13</time>
      </trkpt>
      <trkpt lat="37.05292" lon="-3.34948">
        <ele>3141.8</ele>
        <time>2021-08-06 15:40:14</time>
      </trkpt>
      <trkpt lat="37.05292" lon="-3.34948">
        <ele>3141.8</ele>
        <time>2021-08-06 15:40:15</time>
      </trkpt>
      <trkpt lat="37.05292" lon="-3.34948">
        <ele>3141.8</ele>
        <time>2021-08-06 15:40:16</time>
      </trkpt>
      <trkpt lat="37.05292" lon="-3.34949">
        <ele>3141.8</ele>
        <time>2021-08-06 15:40:17</time>
      </trkpt>
      <trkpt lat="37.05293" lon="-3.34944">
        <ele>3141.8</ele>
        <time>2021-08-06 15:40:18</time>
      </trkpt>
      <trkpt lat="37.05293" lon="-3.34944">
        <ele>3141.8</ele>
        <time>2021-08-06 15:40:19</time>
      </trkpt>
      <trkpt lat="37.05292" lon="-3.34945">
        <ele>3141.8</ele>
        <time>2021-08-06 15:40:20</time>
      </trkpt>
      <trkpt lat="37.05293" lon="-3.34943">
        <ele>3141.8</ele>
        <time>2021-08-06 15:40:21</time>
      </trkpt>
      <trkpt lat="37.05293" lon="-3.34943">
        <ele>3141.8</ele>
        <time>2021-08-06 15:40:22</time>
      </trkpt>
      <trkpt lat="37.05293" lon="-3.34943">
        <ele>3141.8</ele>
        <time>2021-08-06 15:40:23</time>
      </trkpt>
      <trkpt lat="37.05293" lon="-3.34943">
        <ele>3141.8</ele>
        <time>2021-08-06 15:40:24</time>
      </trkpt>
      <trkpt lat="37.05294" lon="-3.34942">
        <ele>3141.8</ele>
        <time>2021-08-06 15:40:25</time>
      </trkpt>
      <trkpt lat="37.05295" lon="-3.34942">
        <ele>3141.8</ele>
        <time>2021-08-06 15:40:26</time>
      </trkpt>
      <trkpt lat="37.05295" lon="-3.34942">
        <ele>3141.8</ele>
        <time>2021-08-06 15:40:27</time>
      </trkpt>
      <trkpt lat="37.05296" lon="-3.34942">
        <ele>3141.8</ele>
        <time>2021-08-06 15:40:28</time>
      </trkpt>
      <trkpt lat="37.05297" lon="-3.34943">
        <ele>3141.8</ele>
        <time>2021-08-06 15:40:29</time>
      </trkpt>
      <trkpt lat="37.05298" lon="-3.34944">
        <ele>3141.8</ele>
        <time>2021-08-06 15:40:30</time>
      </trkpt>
      <trkpt lat="37.05298" lon="-3.34945">
        <ele>3142</ele>
        <time>2021-08-06 15:40:31</time>
      </trkpt>
      <trkpt lat="37.05298" lon="-3.34949">
        <ele>3142.2</ele>
        <time>2021-08-06 15:40:32</time>
      </trkpt>
      <trkpt lat="37.05299" lon="-3.3495">
        <ele>3142.4</ele>
        <time>2021-08-06 15:40:33</time>
      </trkpt>
      <trkpt lat="37.053" lon="-3.3495">
        <ele>3142.4</ele>
        <time>2021-08-06 15:40:34</time>
      </trkpt>
      <trkpt lat="37.05301" lon="-3.34951">
        <ele>3142.6</ele>
        <time>2021-08-06 15:40:35</time>
      </trkpt>
      <trkpt lat="37.05303" lon="-3.3495">
        <ele>3142.6</ele>
        <time>2021-08-06 15:40:36</time>
      </trkpt>
      <trkpt lat="37.05304" lon="-3.3495">
        <ele>3142.4</ele>
        <time>2021-08-06 15:40:37</time>
      </trkpt>
      <trkpt lat="37.05305" lon="-3.34949">
        <ele>3142.2</ele>
        <time>2021-08-06 15:40:38</time>
      </trkpt>
      <trkpt lat="37.05306" lon="-3.34949">
        <ele>3142</ele>
        <time>2021-08-06 15:40:39</time>
      </trkpt>
      <trkpt lat="37.05307" lon="-3.34949">
        <ele>3142.2</ele>
        <time>2021-08-06 15:40:40</time>
      </trkpt>
      <trkpt lat="37.05308" lon="-3.34949">
        <ele>3142</ele>
        <time>2021-08-06 15:40:41</time>
      </trkpt>
      <trkpt lat="37.05309" lon="-3.34949">
        <ele>3142</ele>
        <time>2021-08-06 15:40:42</time>
      </trkpt>
      <trkpt lat="37.0531" lon="-3.3495">
        <ele>3141.8</ele>
        <time>2021-08-06 15:40:43</time>
      </trkpt>
      <trkpt lat="37.05311" lon="-3.3495">
        <ele>3141.8</ele>
        <time>2021-08-06 15:40:44</time>
      </trkpt>
      <trkpt lat="37.05312" lon="-3.3495">
        <ele>3141.6</ele>
        <time>2021-08-06 15:40:45</time>
      </trkpt>
      <trkpt lat="37.05313" lon="-3.34951">
        <ele>3141.4</ele>
        <time>2021-08-06 15:40:46</time>
      </trkpt>
      <trkpt lat="37.05314" lon="-3.34951">
        <ele>3141.2</ele>
        <time>2021-08-06 15:40:47</time>
      </trkpt>
      <trkpt lat="37.05314" lon="-3.34952">
        <ele>3141.2</ele>
        <time>2021-08-06 15:40:48</time>
      </trkpt>
      <trkpt lat="37.05315" lon="-3.34953">
        <ele>3141.2</ele>
        <time>2021-08-06 15:40:49</time>
      </trkpt>
      <trkpt lat="37.05315" lon="-3.34954">
        <ele>3141</ele>
        <time>2021-08-06 15:40:50</time>
      </trkpt>
      <trkpt lat="37.05316" lon="-3.34955">
        <ele>3140.8</ele>
        <time>2021-08-06 15:40:51</time>
      </trkpt>
      <trkpt lat="37.05317" lon="-3.34956">
        <ele>3140.6</ele>
        <time>2021-08-06 15:40:52</time>
      </trkpt>
      <trkpt lat="37.05318" lon="-3.34957">
        <ele>3140.4</ele>
        <time>2021-08-06 15:40:53</time>
      </trkpt>
      <trkpt lat="37.05319" lon="-3.34959">
        <ele>3140.2</ele>
        <time>2021-08-06 15:40:54</time>
      </trkpt>
      <trkpt lat="37.05319" lon="-3.3496">
        <ele>3140.2</ele>
        <time>2021-08-06 15:40:55</time>
      </trkpt>
      <trkpt lat="37.0532" lon="-3.3496">
        <ele>3140.2</ele>
        <time>2021-08-06 15:40:56</time>
      </trkpt>
      <trkpt lat="37.05321" lon="-3.34961">
        <ele>3140</ele>
        <time>2021-08-06 15:40:57</time>
      </trkpt>
      <trkpt lat="37.05321" lon="-3.34963">
        <ele>3140</ele>
        <time>2021-08-06 15:40:58</time>
      </trkpt>
      <trkpt lat="37.05322" lon="-3.34964">
        <ele>3140</ele>
        <time>2021-08-06 15:40:59</time>
      </trkpt>
      <trkpt lat="37.05323" lon="-3.34965">
        <ele>3139.8</ele>
        <time>2021-08-06 15:41:00</time>
      </trkpt>
      <trkpt lat="37.05323" lon="-3.34966">
        <ele>3139.8</ele>
        <time>2021-08-06 15:41:01</time>
      </trkpt>
      <trkpt lat="37.05324" lon="-3.34967">
        <ele>3139.8</ele>
        <time>2021-08-06 15:41:02</time>
      </trkpt>
      <trkpt lat="37.05324" lon="-3.3497">
        <ele>3139.8</ele>
        <time>2021-08-06 15:41:03</time>
      </trkpt>
      <trkpt lat="37.05325" lon="-3.34971">
        <ele>3139.8</ele>
        <time>2021-08-06 15:41:04</time>
      </trkpt>
      <trkpt lat="37.05326" lon="-3.34972">
        <ele>3139.8</ele>
        <time>2021-08-06 15:41:05</time>
      </trkpt>
      <trkpt lat="37.05326" lon="-3.34973">
        <ele>3139.8</ele>
        <time>2021-08-06 15:41:06</time>
      </trkpt>
      <trkpt lat="37.05327" lon="-3.34974">
        <ele>3139.8</ele>
        <time>2021-08-06 15:41:07</time>
      </trkpt>
      <trkpt lat="37.05328" lon="-3.34975">
        <ele>3139.8</ele>
        <time>2021-08-06 15:41:08</time>
      </trkpt>
      <trkpt lat="37.05329" lon="-3.34976">
        <ele>3139.6</ele>
        <time>2021-08-06 15:41:09</time>
      </trkpt>
      <trkpt lat="37.05329" lon="-3.34977">
        <ele>3139.6</ele>
        <time>2021-08-06 15:41:10</time>
      </trkpt>
      <trkpt lat="37.0533" lon="-3.34978">
        <ele>3139.6</ele>
        <time>2021-08-06 15:41:11</time>
      </trkpt>
      <trkpt lat="37.05331" lon="-3.34979">
        <ele>3139.6</ele>
        <time>2021-08-06 15:41:12</time>
      </trkpt>
      <trkpt lat="37.05332" lon="-3.34979">
        <ele>3139.6</ele>
        <time>2021-08-06 15:41:13</time>
      </trkpt>
      <trkpt lat="37.05332" lon="-3.34981">
        <ele>3139.8</ele>
        <time>2021-08-06 15:41:14</time>
      </trkpt>
      <trkpt lat="37.05333" lon="-3.34982">
        <ele>3139.8</ele>
        <time>2021-08-06 15:41:15</time>
      </trkpt>
      <trkpt lat="37.05334" lon="-3.34983">
        <ele>3140</ele>
        <time>2021-08-06 15:41:16</time>
      </trkpt>
      <trkpt lat="37.05335" lon="-3.34983">
        <ele>3140</ele>
        <time>2021-08-06 15:41:17</time>
      </trkpt>
      <trkpt lat="37.05335" lon="-3.34984">
        <ele>3140</ele>
        <time>2021-08-06 15:41:18</time>
      </trkpt>
      <trkpt lat="37.05336" lon="-3.34984">
        <ele>3139.8</ele>
        <time>2021-08-06 15:41:19</time>
      </trkpt>
      <trkpt lat="37.05337" lon="-3.34985">
        <ele>3140</ele>
        <time>2021-08-06 15:41:20</time>
      </trkpt>
      <trkpt lat="37.05338" lon="-3.34985">
        <ele>3139.8</ele>
        <time>2021-08-06 15:41:21</time>
      </trkpt>
      <trkpt lat="37.05339" lon="-3.34986">
        <ele>3139.8</ele>
        <time>2021-08-06 15:41:22</time>
      </trkpt>
      <trkpt lat="37.0534" lon="-3.34987">
        <ele>3140</ele>
        <time>2021-08-06 15:41:23</time>
      </trkpt>
      <trkpt lat="37.05341" lon="-3.34988">
        <ele>3140</ele>
        <time>2021-08-06 15:41:24</time>
      </trkpt>
      <trkpt lat="37.05342" lon="-3.34989">
        <ele>3140.2</ele>
        <time>2021-08-06 15:41:25</time>
      </trkpt>
      <trkpt lat="37.05343" lon="-3.34989">
        <ele>3140.2</ele>
        <time>2021-08-06 15:41:26</time>
      </trkpt>
      <trkpt lat="37.05344" lon="-3.3499">
        <ele>3140.2</ele>
        <time>2021-08-06 15:41:27</time>
      </trkpt>
      <trkpt lat="37.05344" lon="-3.34991">
        <ele>3140.2</ele>
        <time>2021-08-06 15:41:28</time>
      </trkpt>
      <trkpt lat="37.05345" lon="-3.34993">
        <ele>3140.2</ele>
        <time>2021-08-06 15:41:29</time>
      </trkpt>
      <trkpt lat="37.05346" lon="-3.34994">
        <ele>3140.2</ele>
        <time>2021-08-06 15:41:30</time>
      </trkpt>
      <trkpt lat="37.05346" lon="-3.34995">
        <ele>3140.4</ele>
        <time>2021-08-06 15:41:31</time>
      </trkpt>
      <trkpt lat="37.05347" lon="-3.34996">
        <ele>3140.4</ele>
        <time>2021-08-06 15:41:32</time>
      </trkpt>
      <trkpt lat="37.05348" lon="-3.34997">
        <ele>3140.6</ele>
        <time>2021-08-06 15:41:33</time>
      </trkpt>
      <trkpt lat="37.05349" lon="-3.34998">
        <ele>3140.4</ele>
        <time>2021-08-06 15:41:34</time>
      </trkpt>
      <trkpt lat="37.0535" lon="-3.34998">
        <ele>3140.4</ele>
        <time>2021-08-06 15:41:35</time>
      </trkpt>
      <trkpt lat="37.05351" lon="-3.34999">
        <ele>3140.4</ele>
        <time>2021-08-06 15:41:36</time>
      </trkpt>
      <trkpt lat="37.05352" lon="-3.35">
        <ele>3140.6</ele>
        <time>2021-08-06 15:41:37</time>
      </trkpt>
      <trkpt lat="37.05353" lon="-3.35001">
        <ele>3140.4</ele>
        <time>2021-08-06 15:41:38</time>
      </trkpt>
      <trkpt lat="37.05354" lon="-3.35001">
        <ele>3140.4</ele>
        <time>2021-08-06 15:41:39</time>
      </trkpt>
      <trkpt lat="37.05354" lon="-3.35002">
        <ele>3140.4</ele>
        <time>2021-08-06 15:41:40</time>
      </trkpt>
      <trkpt lat="37.05355" lon="-3.35002">
        <ele>3140.4</ele>
        <time>2021-08-06 15:41:41</time>
      </trkpt>
      <trkpt lat="37.05356" lon="-3.35003">
        <ele>3140.4</ele>
        <time>2021-08-06 15:41:42</time>
      </trkpt>
      <trkpt lat="37.05357" lon="-3.35004">
        <ele>3140.6</ele>
        <time>2021-08-06 15:41:43</time>
      </trkpt>
      <trkpt lat="37.05358" lon="-3.35006">
        <ele>3140.6</ele>
        <time>2021-08-06 15:41:44</time>
      </trkpt>
      <trkpt lat="37.05359" lon="-3.35007">
        <ele>3140.6</ele>
        <time>2021-08-06 15:41:45</time>
      </trkpt>
      <trkpt lat="37.05359" lon="-3.35008">
        <ele>3140.6</ele>
        <time>2021-08-06 15:41:46</time>
      </trkpt>
      <trkpt lat="37.0536" lon="-3.35009">
        <ele>3140.6</ele>
        <time>2021-08-06 15:41:47</time>
      </trkpt>
      <trkpt lat="37.05361" lon="-3.3501">
        <ele>3140.6</ele>
        <time>2021-08-06 15:41:48</time>
      </trkpt>
      <trkpt lat="37.05362" lon="-3.35011">
        <ele>3140.8</ele>
        <time>2021-08-06 15:41:49</time>
      </trkpt>
      <trkpt lat="37.05363" lon="-3.35011">
        <ele>3140.8</ele>
        <time>2021-08-06 15:41:50</time>
      </trkpt>
      <trkpt lat="37.05364" lon="-3.35012">
        <ele>3140.8</ele>
        <time>2021-08-06 15:41:51</time>
      </trkpt>
      <trkpt lat="37.05365" lon="-3.35012">
        <ele>3140.8</ele>
        <time>2021-08-06 15:41:52</time>
      </trkpt>
      <trkpt lat="37.05366" lon="-3.35013">
        <ele>3140.8</ele>
        <time>2021-08-06 15:41:53</time>
      </trkpt>
      <trkpt lat="37.05366" lon="-3.35014">
        <ele>3140.8</ele>
        <time>2021-08-06 15:41:54</time>
      </trkpt>
      <trkpt lat="37.05367" lon="-3.35015">
        <ele>3141</ele>
        <time>2021-08-06 15:41:55</time>
      </trkpt>
      <trkpt lat="37.05368" lon="-3.35016">
        <ele>3141</ele>
        <time>2021-08-06 15:41:56</time>
      </trkpt>
      <trkpt lat="37.05368" lon="-3.35017">
        <ele>3141</ele>
        <time>2021-08-06 15:41:57</time>
      </trkpt>
      <trkpt lat="37.05369" lon="-3.35019">
        <ele>3141.2</ele>
        <time>2021-08-06 15:41:58</time>
      </trkpt>
      <trkpt lat="37.0537" lon="-3.3502">
        <ele>3141.2</ele>
        <time>2021-08-06 15:41:59</time>
      </trkpt>
      <trkpt lat="37.05371" lon="-3.35022">
        <ele>3141.2</ele>
        <time>2021-08-06 15:42:00</time>
      </trkpt>
      <trkpt lat="37.05372" lon="-3.35023">
        <ele>3141.2</ele>
        <time>2021-08-06 15:42:01</time>
      </trkpt>
      <trkpt lat="37.05372" lon="-3.35024">
        <ele>3141.2</ele>
        <time>2021-08-06 15:42:02</time>
      </trkpt>
      <trkpt lat="37.05373" lon="-3.35025">
        <ele>3141.2</ele>
        <time>2021-08-06 15:42:03</time>
      </trkpt>
      <trkpt lat="37.05374" lon="-3.35027">
        <ele>3141.2</ele>
        <time>2021-08-06 15:42:04</time>
      </trkpt>
      <trkpt lat="37.05375" lon="-3.35028">
        <ele>3141.2</ele>
        <time>2021-08-06 15:42:05</time>
      </trkpt>
      <trkpt lat="37.05376" lon="-3.35029">
        <ele>3141.4</ele>
        <time>2021-08-06 15:42:06</time>
      </trkpt>
      <trkpt lat="37.05377" lon="-3.3503">
        <ele>3141.4</ele>
        <time>2021-08-06 15:42:07</time>
      </trkpt>
      <trkpt lat="37.05378" lon="-3.35031">
        <ele>3141.4</ele>
        <time>2021-08-06 15:42:08</time>
      </trkpt>
      <trkpt lat="37.05379" lon="-3.35032">
        <ele>3141.4</ele>
        <time>2021-08-06 15:42:09</time>
      </trkpt>
      <trkpt lat="37.05379" lon="-3.35033">
        <ele>3141.4</ele>
        <time>2021-08-06 15:42:10</time>
      </trkpt>
      <trkpt lat="37.0538" lon="-3.35034">
        <ele>3141.4</ele>
        <time>2021-08-06 15:42:11</time>
      </trkpt>
      <trkpt lat="37.05381" lon="-3.35035">
        <ele>3141.4</ele>
        <time>2021-08-06 15:42:12</time>
      </trkpt>
      <trkpt lat="37.05382" lon="-3.35036">
        <ele>3141.4</ele>
        <time>2021-08-06 15:42:13</time>
      </trkpt>
      <trkpt lat="37.05383" lon="-3.35037">
        <ele>3141.4</ele>
        <time>2021-08-06 15:42:14</time>
      </trkpt>
      <trkpt lat="37.05384" lon="-3.35038">
        <ele>3141.4</ele>
        <time>2021-08-06 15:42:15</time>
      </trkpt>
      <trkpt lat="37.05385" lon="-3.35039">
        <ele>3141.4</ele>
        <time>2021-08-06 15:42:16</time>
      </trkpt>
      <trkpt lat="37.05385" lon="-3.3504">
        <ele>3141.4</ele>
        <time>2021-08-06 15:42:17</time>
      </trkpt>
      <trkpt lat="37.05386" lon="-3.35041">
        <ele>3141.4</ele>
        <time>2021-08-06 15:42:18</time>
      </trkpt>
      <trkpt lat="37.05387" lon="-3.35042">
        <ele>3141.4</ele>
        <time>2021-08-06 15:42:19</time>
      </trkpt>
      <trkpt lat="37.05388" lon="-3.35043">
        <ele>3141.4</ele>
        <time>2021-08-06 15:42:20</time>
      </trkpt>
      <trkpt lat="37.05389" lon="-3.35044">
        <ele>3141.6</ele>
        <time>2021-08-06 15:42:21</time>
      </trkpt>
      <trkpt lat="37.05389" lon="-3.35046">
        <ele>3141.8</ele>
        <time>2021-08-06 15:42:22</time>
      </trkpt>
      <trkpt lat="37.0539" lon="-3.35047">
        <ele>3141.8</ele>
        <time>2021-08-06 15:42:23</time>
      </trkpt>
      <trkpt lat="37.05391" lon="-3.35047">
        <ele>3142</ele>
        <time>2021-08-06 15:42:24</time>
      </trkpt>
      <trkpt lat="37.05392" lon="-3.35048">
        <ele>3142</ele>
        <time>2021-08-06 15:42:25</time>
      </trkpt>
      <trkpt lat="37.05393" lon="-3.35049">
        <ele>3142.2</ele>
        <time>2021-08-06 15:42:26</time>
      </trkpt>
      <trkpt lat="37.05394" lon="-3.3505">
        <ele>3142.2</ele>
        <time>2021-08-06 15:42:27</time>
      </trkpt>
      <trkpt lat="37.05394" lon="-3.35051">
        <ele>3142.2</ele>
        <time>2021-08-06 15:42:28</time>
      </trkpt>
      <trkpt lat="37.05395" lon="-3.35052">
        <ele>3142.2</ele>
        <time>2021-08-06 15:42:29</time>
      </trkpt>
      <trkpt lat="37.05396" lon="-3.35053">
        <ele>3142.2</ele>
        <time>2021-08-06 15:42:30</time>
      </trkpt>
      <trkpt lat="37.05396" lon="-3.35054">
        <ele>3142.2</ele>
        <time>2021-08-06 15:42:31</time>
      </trkpt>
      <trkpt lat="37.05397" lon="-3.35055">
        <ele>3142.2</ele>
        <time>2021-08-06 15:42:32</time>
      </trkpt>
      <trkpt lat="37.05397" lon="-3.35055">
        <ele>3142.4</ele>
        <time>2021-08-06 15:42:33</time>
      </trkpt>
      <trkpt lat="37.05398" lon="-3.35056">
        <ele>3142.4</ele>
        <time>2021-08-06 15:42:34</time>
      </trkpt>
      <trkpt lat="37.05398" lon="-3.35057">
        <ele>3142.4</ele>
        <time>2021-08-06 15:42:35</time>
      </trkpt>
      <trkpt lat="37.05398" lon="-3.35057">
        <ele>3142.6</ele>
        <time>2021-08-06 15:42:36</time>
      </trkpt>
      <trkpt lat="37.05398" lon="-3.35057">
        <ele>3142.6</ele>
        <time>2021-08-06 15:42:37</time>
      </trkpt>
      <trkpt lat="37.05399" lon="-3.35058">
        <ele>3142.6</ele>
        <time>2021-08-06 15:42:38</time>
      </trkpt>
      <trkpt lat="37.05399" lon="-3.35059">
        <ele>3142.6</ele>
        <time>2021-08-06 15:42:39</time>
      </trkpt>
      <trkpt lat="37.05399" lon="-3.3506">
        <ele>3142.6</ele>
        <time>2021-08-06 15:42:40</time>
      </trkpt>
      <trkpt lat="37.054" lon="-3.35062">
        <ele>3142</ele>
        <time>2021-08-06 15:42:41</time>
      </trkpt>
      <trkpt lat="37.05401" lon="-3.35063">
        <ele>3142</ele>
        <time>2021-08-06 15:42:42</time>
      </trkpt>
      <trkpt lat="37.05401" lon="-3.35065">
        <ele>3142</ele>
        <time>2021-08-06 15:42:43</time>
      </trkpt>
      <trkpt lat="37.05401" lon="-3.35066">
        <ele>3142</ele>
        <time>2021-08-06 15:42:44</time>
      </trkpt>
      <trkpt lat="37.05401" lon="-3.35067">
        <ele>3142</ele>
        <time>2021-08-06 15:42:45</time>
      </trkpt>
      <trkpt lat="37.05401" lon="-3.35068">
        <ele>3142</ele>
        <time>2021-08-06 15:42:46</time>
      </trkpt>
      <trkpt lat="37.05402" lon="-3.35069">
        <ele>3142</ele>
        <time>2021-08-06 15:42:47</time>
      </trkpt>
      <trkpt lat="37.05402" lon="-3.35071">
        <ele>3142</ele>
        <time>2021-08-06 15:42:48</time>
      </trkpt>
      <trkpt lat="37.05402" lon="-3.35073">
        <ele>3142</ele>
        <time>2021-08-06 15:42:49</time>
      </trkpt>
      <trkpt lat="37.05402" lon="-3.35074">
        <ele>3142.2</ele>
        <time>2021-08-06 15:42:50</time>
      </trkpt>
      <trkpt lat="37.05402" lon="-3.35076">
        <ele>3142.4</ele>
        <time>2021-08-06 15:42:51</time>
      </trkpt>
      <trkpt lat="37.05402" lon="-3.35077">
        <ele>3142.6</ele>
        <time>2021-08-06 15:42:52</time>
      </trkpt>
      <trkpt lat="37.05402" lon="-3.35079">
        <ele>3142.6</ele>
        <time>2021-08-06 15:42:53</time>
      </trkpt>
      <trkpt lat="37.05401" lon="-3.3508">
        <ele>3142.8</ele>
        <time>2021-08-06 15:42:54</time>
      </trkpt>
      <trkpt lat="37.05401" lon="-3.35081">
        <ele>3142.8</ele>
        <time>2021-08-06 15:42:55</time>
      </trkpt>
      <trkpt lat="37.05401" lon="-3.35083">
        <ele>3143</ele>
        <time>2021-08-06 15:42:56</time>
      </trkpt>
      <trkpt lat="37.05401" lon="-3.35084">
        <ele>3143.2</ele>
        <time>2021-08-06 15:42:57</time>
      </trkpt>
      <trkpt lat="37.05401" lon="-3.35085">
        <ele>3143.4</ele>
        <time>2021-08-06 15:42:58</time>
      </trkpt>
      <trkpt lat="37.05401" lon="-3.35087">
        <ele>3143.4</ele>
        <time>2021-08-06 15:42:59</time>
      </trkpt>
      <trkpt lat="37.05401" lon="-3.35088">
        <ele>3143.4</ele>
        <time>2021-08-06 15:43:00</time>
      </trkpt>
      <trkpt lat="37.05401" lon="-3.3509">
        <ele>3143.4</ele>
        <time>2021-08-06 15:43:01</time>
      </trkpt>
      <trkpt lat="37.05401" lon="-3.35091">
        <ele>3143.4</ele>
        <time>2021-08-06 15:43:02</time>
      </trkpt>
      <trkpt lat="37.05401" lon="-3.35092">
        <ele>3143.4</ele>
        <time>2021-08-06 15:43:03</time>
      </trkpt>
      <trkpt lat="37.05401" lon="-3.35094">
        <ele>3143.6</ele>
        <time>2021-08-06 15:43:04</time>
      </trkpt>
      <trkpt lat="37.05401" lon="-3.35095">
        <ele>3143.6</ele>
        <time>2021-08-06 15:43:05</time>
      </trkpt>
      <trkpt lat="37.05401" lon="-3.35097">
        <ele>3143.6</ele>
        <time>2021-08-06 15:43:06</time>
      </trkpt>
      <trkpt lat="37.05401" lon="-3.35098">
        <ele>3143.6</ele>
        <time>2021-08-06 15:43:07</time>
      </trkpt>
      <trkpt lat="37.05402" lon="-3.35099">
        <ele>3143.6</ele>
        <time>2021-08-06 15:43:08</time>
      </trkpt>
      <trkpt lat="37.05402" lon="-3.35099">
        <ele>3143.6</ele>
        <time>2021-08-06 15:43:09</time>
      </trkpt>
      <trkpt lat="37.05402" lon="-3.35101">
        <ele>3143.6</ele>
        <time>2021-08-06 15:43:10</time>
      </trkpt>
      <trkpt lat="37.05402" lon="-3.35102">
        <ele>3143.6</ele>
        <time>2021-08-06 15:43:11</time>
      </trkpt>
      <trkpt lat="37.05402" lon="-3.35104">
        <ele>3143.6</ele>
        <time>2021-08-06 15:43:12</time>
      </trkpt>
      <trkpt lat="37.05402" lon="-3.35105">
        <ele>3143.6</ele>
        <time>2021-08-06 15:43:13</time>
      </trkpt>
      <trkpt lat="37.05403" lon="-3.35106">
        <ele>3143.6</ele>
        <time>2021-08-06 15:43:14</time>
      </trkpt>
      <trkpt lat="37.05403" lon="-3.35108">
        <ele>3143.6</ele>
        <time>2021-08-06 15:43:15</time>
      </trkpt>
      <trkpt lat="37.05404" lon="-3.35109">
        <ele>3143.6</ele>
        <time>2021-08-06 15:43:16</time>
      </trkpt>
      <trkpt lat="37.05404" lon="-3.3511">
        <ele>3143.6</ele>
        <time>2021-08-06 15:43:17</time>
      </trkpt>
      <trkpt lat="37.05404" lon="-3.35112">
        <ele>3143.8</ele>
        <time>2021-08-06 15:43:18</time>
      </trkpt>
      <trkpt lat="37.05405" lon="-3.35113">
        <ele>3143.8</ele>
        <time>2021-08-06 15:43:19</time>
      </trkpt>
      <trkpt lat="37.05405" lon="-3.35114">
        <ele>3144</ele>
        <time>2021-08-06 15:43:20</time>
      </trkpt>
      <trkpt lat="37.05406" lon="-3.35115">
        <ele>3144</ele>
        <time>2021-08-06 15:43:21</time>
      </trkpt>
      <trkpt lat="37.05407" lon="-3.35116">
        <ele>3144.4</ele>
        <time>2021-08-06 15:43:22</time>
      </trkpt>
      <trkpt lat="37.05407" lon="-3.35117">
        <ele>3144.4</ele>
        <time>2021-08-06 15:43:23</time>
      </trkpt>
      <trkpt lat="37.05407" lon="-3.35119">
        <ele>3144.4</ele>
        <time>2021-08-06 15:43:24</time>
      </trkpt>
      <trkpt lat="37.05408" lon="-3.3512">
        <ele>3144.6</ele>
        <time>2021-08-06 15:43:25</time>
      </trkpt>
      <trkpt lat="37.05408" lon="-3.3512">
        <ele>3144.6</ele>
        <time>2021-08-06 15:43:26</time>
      </trkpt>
      <trkpt lat="37.05408" lon="-3.35121">
        <ele>3144.8</ele>
        <time>2021-08-06 15:43:27</time>
      </trkpt>
      <trkpt lat="37.05409" lon="-3.35122">
        <ele>3144.8</ele>
        <time>2021-08-06 15:43:28</time>
      </trkpt>
      <trkpt lat="37.0541" lon="-3.35123">
        <ele>3144.6</ele>
        <time>2021-08-06 15:43:29</time>
      </trkpt>
      <trkpt lat="37.0541" lon="-3.35124">
        <ele>3144.6</ele>
        <time>2021-08-06 15:43:30</time>
      </trkpt>
      <trkpt lat="37.05411" lon="-3.35125">
        <ele>3144.6</ele>
        <time>2021-08-06 15:43:31</time>
      </trkpt>
      <trkpt lat="37.05411" lon="-3.35126">
        <ele>3144.8</ele>
        <time>2021-08-06 15:43:32</time>
      </trkpt>
      <trkpt lat="37.05411" lon="-3.35127">
        <ele>3144.8</ele>
        <time>2021-08-06 15:43:33</time>
      </trkpt>
      <trkpt lat="37.05412" lon="-3.35128">
        <ele>3144.8</ele>
        <time>2021-08-06 15:43:34</time>
      </trkpt>
      <trkpt lat="37.05413" lon="-3.35129">
        <ele>3144.8</ele>
        <time>2021-08-06 15:43:35</time>
      </trkpt>
      <trkpt lat="37.05413" lon="-3.3513">
        <ele>3144.8</ele>
        <time>2021-08-06 15:43:36</time>
      </trkpt>
      <trkpt lat="37.05413" lon="-3.35131">
        <ele>3144.8</ele>
        <time>2021-08-06 15:43:37</time>
      </trkpt>
      <trkpt lat="37.05413" lon="-3.35133">
        <ele>3144.8</ele>
        <time>2021-08-06 15:43:38</time>
      </trkpt>
      <trkpt lat="37.05414" lon="-3.35133">
        <ele>3145</ele>
        <time>2021-08-06 15:43:39</time>
      </trkpt>
      <trkpt lat="37.05414" lon="-3.35134">
        <ele>3145.2</ele>
        <time>2021-08-06 15:43:40</time>
      </trkpt>
      <trkpt lat="37.05414" lon="-3.35136">
        <ele>3145.4</ele>
        <time>2021-08-06 15:43:41</time>
      </trkpt>
      <trkpt lat="37.05415" lon="-3.35136">
        <ele>3145.4</ele>
        <time>2021-08-06 15:43:42</time>
      </trkpt>
      <trkpt lat="37.05415" lon="-3.35137">
        <ele>3145.4</ele>
        <time>2021-08-06 15:43:43</time>
      </trkpt>
      <trkpt lat="37.05415" lon="-3.35138">
        <ele>3145.4</ele>
        <time>2021-08-06 15:43:44</time>
      </trkpt>
      <trkpt lat="37.05415" lon="-3.35138">
        <ele>3145.6</ele>
        <time>2021-08-06 15:43:45</time>
      </trkpt>
      <trkpt lat="37.05415" lon="-3.35139">
        <ele>3145.8</ele>
        <time>2021-08-06 15:43:46</time>
      </trkpt>
      <trkpt lat="37.05415" lon="-3.35139">
        <ele>3145.8</ele>
        <time>2021-08-06 15:43:47</time>
      </trkpt>
      <trkpt lat="37.05415" lon="-3.35139">
        <ele>3146</ele>
        <time>2021-08-06 15:43:48</time>
      </trkpt>
      <trkpt lat="37.05416" lon="-3.35139">
        <ele>3146</ele>
        <time>2021-08-06 15:43:49</time>
      </trkpt>
      <trkpt lat="37.05416" lon="-3.35139">
        <ele>3146.2</ele>
        <time>2021-08-06 15:43:50</time>
      </trkpt>
      <trkpt lat="37.05416" lon="-3.35139">
        <ele>3146.2</ele>
        <time>2021-08-06 15:43:51</time>
      </trkpt>
      <trkpt lat="37.05416" lon="-3.35138">
        <ele>3146</ele>
        <time>2021-08-06 15:43:52</time>
      </trkpt>
      <trkpt lat="37.05416" lon="-3.35138">
        <ele>3146</ele>
        <time>2021-08-06 15:43:53</time>
      </trkpt>
      <trkpt lat="37.05416" lon="-3.35138">
        <ele>3145.8</ele>
        <time>2021-08-06 15:43:54</time>
      </trkpt>
      <trkpt lat="37.05416" lon="-3.35138">
        <ele>3145.8</ele>
        <time>2021-08-06 15:43:55</time>
      </trkpt>
      <trkpt lat="37.05416" lon="-3.35138">
        <ele>3145.8</ele>
        <time>2021-08-06 15:43:56</time>
      </trkpt>
      <trkpt lat="37.05416" lon="-3.35138">
        <ele>3145.6</ele>
        <time>2021-08-06 15:43:57</time>
      </trkpt>
      <trkpt lat="37.05416" lon="-3.35138">
        <ele>3145.4</ele>
        <time>2021-08-06 15:43:58</time>
      </trkpt>
      <trkpt lat="37.05417" lon="-3.35139">
        <ele>3145.4</ele>
        <time>2021-08-06 15:43:59</time>
      </trkpt>
      <trkpt lat="37.05417" lon="-3.3514">
        <ele>3145.4</ele>
        <time>2021-08-06 15:44:00</time>
      </trkpt>
      <trkpt lat="37.05417" lon="-3.3514">
        <ele>3145.4</ele>
        <time>2021-08-06 15:44:01</time>
      </trkpt>
      <trkpt lat="37.05418" lon="-3.3514">
        <ele>3145.6</ele>
        <time>2021-08-06 15:44:02</time>
      </trkpt>
      <trkpt lat="37.05418" lon="-3.35142">
        <ele>3145.6</ele>
        <time>2021-08-06 15:44:03</time>
      </trkpt>
      <trkpt lat="37.05419" lon="-3.35143">
        <ele>3145.6</ele>
        <time>2021-08-06 15:44:04</time>
      </trkpt>
      <trkpt lat="37.05419" lon="-3.35144">
        <ele>3145.6</ele>
        <time>2021-08-06 15:44:05</time>
      </trkpt>
      <trkpt lat="37.0542" lon="-3.35145">
        <ele>3145.6</ele>
        <time>2021-08-06 15:44:06</time>
      </trkpt>
      <trkpt lat="37.0542" lon="-3.35146">
        <ele>3145.8</ele>
        <time>2021-08-06 15:44:07</time>
      </trkpt>
      <trkpt lat="37.05421" lon="-3.35147">
        <ele>3145.8</ele>
        <time>2021-08-06 15:44:08</time>
      </trkpt>
      <trkpt lat="37.05421" lon="-3.35148">
        <ele>3145.8</ele>
        <time>2021-08-06 15:44:09</time>
      </trkpt>
      <trkpt lat="37.05422" lon="-3.3515">
        <ele>3146</ele>
        <time>2021-08-06 15:44:10</time>
      </trkpt>
      <trkpt lat="37.05423" lon="-3.35151">
        <ele>3146.2</ele>
        <time>2021-08-06 15:44:11</time>
      </trkpt>
      <trkpt lat="37.05423" lon="-3.35152">
        <ele>3146.4</ele>
        <time>2021-08-06 15:44:12</time>
      </trkpt>
      <trkpt lat="37.05424" lon="-3.35153">
        <ele>3146.6</ele>
        <time>2021-08-06 15:44:13</time>
      </trkpt>
      <trkpt lat="37.05424" lon="-3.35154">
        <ele>3146.6</ele>
        <time>2021-08-06 15:44:14</time>
      </trkpt>
      <trkpt lat="37.05425" lon="-3.35155">
        <ele>3146.6</ele>
        <time>2021-08-06 15:44:15</time>
      </trkpt>
      <trkpt lat="37.05426" lon="-3.35156">
        <ele>3146.8</ele>
        <time>2021-08-06 15:44:16</time>
      </trkpt>
      <trkpt lat="37.05427" lon="-3.35158">
        <ele>3147</ele>
        <time>2021-08-06 15:44:17</time>
      </trkpt>
      <trkpt lat="37.05427" lon="-3.35159">
        <ele>3147.2</ele>
        <time>2021-08-06 15:44:18</time>
      </trkpt>
      <trkpt lat="37.05428" lon="-3.3516">
        <ele>3147.2</ele>
        <time>2021-08-06 15:44:19</time>
      </trkpt>
      <trkpt lat="37.05429" lon="-3.35161">
        <ele>3147.2</ele>
        <time>2021-08-06 15:44:20</time>
      </trkpt>
      <trkpt lat="37.0543" lon="-3.35162">
        <ele>3147.2</ele>
        <time>2021-08-06 15:44:21</time>
      </trkpt>
      <trkpt lat="37.05431" lon="-3.35163">
        <ele>3147.4</ele>
        <time>2021-08-06 15:44:22</time>
      </trkpt>
      <trkpt lat="37.05431" lon="-3.35164">
        <ele>3147.4</ele>
        <time>2021-08-06 15:44:23</time>
      </trkpt>
      <trkpt lat="37.05431" lon="-3.35166">
        <ele>3147.4</ele>
        <time>2021-08-06 15:44:24</time>
      </trkpt>
      <trkpt lat="37.05432" lon="-3.35166">
        <ele>3147.4</ele>
        <time>2021-08-06 15:44:25</time>
      </trkpt>
      <trkpt lat="37.05432" lon="-3.35167">
        <ele>3147.6</ele>
        <time>2021-08-06 15:44:26</time>
      </trkpt>
      <trkpt lat="37.05433" lon="-3.35167">
        <ele>3147.8</ele>
        <time>2021-08-06 15:44:27</time>
      </trkpt>
      <trkpt lat="37.05434" lon="-3.35168">
        <ele>3148</ele>
        <time>2021-08-06 15:44:28</time>
      </trkpt>
      <trkpt lat="37.05435" lon="-3.35169">
        <ele>3148</ele>
        <time>2021-08-06 15:44:29</time>
      </trkpt>
      <trkpt lat="37.05435" lon="-3.3517">
        <ele>3148</ele>
        <time>2021-08-06 15:44:30</time>
      </trkpt>
      <trkpt lat="37.05436" lon="-3.35172">
        <ele>3148</ele>
        <time>2021-08-06 15:44:31</time>
      </trkpt>
      <trkpt lat="37.05436" lon="-3.35173">
        <ele>3148</ele>
        <time>2021-08-06 15:44:32</time>
      </trkpt>
      <trkpt lat="37.05437" lon="-3.35173">
        <ele>3148</ele>
        <time>2021-08-06 15:44:33</time>
      </trkpt>
      <trkpt lat="37.05438" lon="-3.35174">
        <ele>3148</ele>
        <time>2021-08-06 15:44:34</time>
      </trkpt>
      <trkpt lat="37.05438" lon="-3.35175">
        <ele>3148</ele>
        <time>2021-08-06 15:44:35</time>
      </trkpt>
      <trkpt lat="37.05439" lon="-3.35176">
        <ele>3148</ele>
        <time>2021-08-06 15:44:36</time>
      </trkpt>
      <trkpt lat="37.05439" lon="-3.35177">
        <ele>3148</ele>
        <time>2021-08-06 15:44:37</time>
      </trkpt>
      <trkpt lat="37.0544" lon="-3.35178">
        <ele>3148</ele>
        <time>2021-08-06 15:44:38</time>
      </trkpt>
      <trkpt lat="37.0544" lon="-3.35179">
        <ele>3148.2</ele>
        <time>2021-08-06 15:44:39</time>
      </trkpt>
      <trkpt lat="37.0544" lon="-3.35181">
        <ele>3148.4</ele>
        <time>2021-08-06 15:44:40</time>
      </trkpt>
      <trkpt lat="37.05441" lon="-3.35182">
        <ele>3148.4</ele>
        <time>2021-08-06 15:44:41</time>
      </trkpt>
      <trkpt lat="37.05441" lon="-3.35183">
        <ele>3148.6</ele>
        <time>2021-08-06 15:44:42</time>
      </trkpt>
      <trkpt lat="37.05442" lon="-3.35184">
        <ele>3148.6</ele>
        <time>2021-08-06 15:44:43</time>
      </trkpt>
      <trkpt lat="37.05442" lon="-3.35185">
        <ele>3148.8</ele>
        <time>2021-08-06 15:44:44</time>
      </trkpt>
      <trkpt lat="37.05442" lon="-3.35187">
        <ele>3149</ele>
        <time>2021-08-06 15:44:45</time>
      </trkpt>
      <trkpt lat="37.05442" lon="-3.35188">
        <ele>3149</ele>
        <time>2021-08-06 15:44:46</time>
      </trkpt>
      <trkpt lat="37.05442" lon="-3.35189">
        <ele>3149.2</ele>
        <time>2021-08-06 15:44:47</time>
      </trkpt>
      <trkpt lat="37.05442" lon="-3.35191">
        <ele>3149.2</ele>
        <time>2021-08-06 15:44:48</time>
      </trkpt>
      <trkpt lat="37.05443" lon="-3.35192">
        <ele>3149.2</ele>
        <time>2021-08-06 15:44:49</time>
      </trkpt>
      <trkpt lat="37.05443" lon="-3.35193">
        <ele>3149.2</ele>
        <time>2021-08-06 15:44:50</time>
      </trkpt>
      <trkpt lat="37.05443" lon="-3.35194">
        <ele>3149.2</ele>
        <time>2021-08-06 15:44:51</time>
      </trkpt>
      <trkpt lat="37.05444" lon="-3.35195">
        <ele>3149.4</ele>
        <time>2021-08-06 15:44:52</time>
      </trkpt>
      <trkpt lat="37.05444" lon="-3.35196">
        <ele>3149.6</ele>
        <time>2021-08-06 15:44:53</time>
      </trkpt>
      <trkpt lat="37.05445" lon="-3.35197">
        <ele>3149.6</ele>
        <time>2021-08-06 15:44:54</time>
      </trkpt>
      <trkpt lat="37.05445" lon="-3.35198">
        <ele>3149.8</ele>
        <time>2021-08-06 15:44:55</time>
      </trkpt>
      <trkpt lat="37.05446" lon="-3.35199">
        <ele>3149.8</ele>
        <time>2021-08-06 15:44:56</time>
      </trkpt>
      <trkpt lat="37.05446" lon="-3.35199">
        <ele>3150</ele>
        <time>2021-08-06 15:44:57</time>
      </trkpt>
      <trkpt lat="37.05447" lon="-3.352">
        <ele>3150</ele>
        <time>2021-08-06 15:44:58</time>
      </trkpt>
      <trkpt lat="37.05448" lon="-3.35201">
        <ele>3150.2</ele>
        <time>2021-08-06 15:44:59</time>
      </trkpt>
      <trkpt lat="37.05448" lon="-3.35202">
        <ele>3150.2</ele>
        <time>2021-08-06 15:45:00</time>
      </trkpt>
      <trkpt lat="37.05448" lon="-3.35203">
        <ele>3150.2</ele>
        <time>2021-08-06 15:45:01</time>
      </trkpt>
      <trkpt lat="37.05448" lon="-3.35204">
        <ele>3150.2</ele>
        <time>2021-08-06 15:45:02</time>
      </trkpt>
      <trkpt lat="37.05449" lon="-3.35205">
        <ele>3150.4</ele>
        <time>2021-08-06 15:45:03</time>
      </trkpt>
      <trkpt lat="37.05449" lon="-3.35206">
        <ele>3150.4</ele>
        <time>2021-08-06 15:45:04</time>
      </trkpt>
      <trkpt lat="37.05449" lon="-3.35207">
        <ele>3150.6</ele>
        <time>2021-08-06 15:45:05</time>
      </trkpt>
      <trkpt lat="37.0545" lon="-3.35208">
        <ele>3151</ele>
        <time>2021-08-06 15:45:06</time>
      </trkpt>
      <trkpt lat="37.0545" lon="-3.35209">
        <ele>3151.2</ele>
        <time>2021-08-06 15:45:07</time>
      </trkpt>
      <trkpt lat="37.0545" lon="-3.3521">
        <ele>3151.2</ele>
        <time>2021-08-06 15:45:08</time>
      </trkpt>
      <trkpt lat="37.05451" lon="-3.35211">
        <ele>3151.2</ele>
        <time>2021-08-06 15:45:09</time>
      </trkpt>
      <trkpt lat="37.05452" lon="-3.35212">
        <ele>3151.2</ele>
        <time>2021-08-06 15:45:10</time>
      </trkpt>
      <trkpt lat="37.05452" lon="-3.35212">
        <ele>3151.2</ele>
        <time>2021-08-06 15:45:11</time>
      </trkpt>
      <trkpt lat="37.05453" lon="-3.35213">
        <ele>3151</ele>
        <time>2021-08-06 15:45:12</time>
      </trkpt>
      <trkpt lat="37.05453" lon="-3.35214">
        <ele>3151</ele>
        <time>2021-08-06 15:45:13</time>
      </trkpt>
      <trkpt lat="37.05454" lon="-3.35215">
        <ele>3151</ele>
        <time>2021-08-06 15:45:14</time>
      </trkpt>
      <trkpt lat="37.05454" lon="-3.35216">
        <ele>3151</ele>
        <time>2021-08-06 15:45:15</time>
      </trkpt>
      <trkpt lat="37.05455" lon="-3.35216">
        <ele>3151</ele>
        <time>2021-08-06 15:45:16</time>
      </trkpt>
      <trkpt lat="37.05456" lon="-3.35216">
        <ele>3151</ele>
        <time>2021-08-06 15:45:17</time>
      </trkpt>
      <trkpt lat="37.05456" lon="-3.35216">
        <ele>3151.2</ele>
        <time>2021-08-06 15:45:18</time>
      </trkpt>
      <trkpt lat="37.05456" lon="-3.35217">
        <ele>3151.4</ele>
        <time>2021-08-06 15:45:19</time>
      </trkpt>
      <trkpt lat="37.05457" lon="-3.35218">
        <ele>3151.4</ele>
        <time>2021-08-06 15:45:20</time>
      </trkpt>
      <trkpt lat="37.05457" lon="-3.35219">
        <ele>3151.6</ele>
        <time>2021-08-06 15:45:21</time>
      </trkpt>
      <trkpt lat="37.05458" lon="-3.3522">
        <ele>3151.6</ele>
        <time>2021-08-06 15:45:22</time>
      </trkpt>
      <trkpt lat="37.05458" lon="-3.35221">
        <ele>3151.4</ele>
        <time>2021-08-06 15:45:23</time>
      </trkpt>
      <trkpt lat="37.05459" lon="-3.35222">
        <ele>3151.4</ele>
        <time>2021-08-06 15:45:24</time>
      </trkpt>
      <trkpt lat="37.05459" lon="-3.35223">
        <ele>3151.4</ele>
        <time>2021-08-06 15:45:25</time>
      </trkpt>
      <trkpt lat="37.0546" lon="-3.35224">
        <ele>3151.4</ele>
        <time>2021-08-06 15:45:26</time>
      </trkpt>
      <trkpt lat="37.0546" lon="-3.35225">
        <ele>3151.4</ele>
        <time>2021-08-06 15:45:27</time>
      </trkpt>
      <trkpt lat="37.05461" lon="-3.35227">
        <ele>3151.6</ele>
        <time>2021-08-06 15:45:28</time>
      </trkpt>
      <trkpt lat="37.05461" lon="-3.35228">
        <ele>3151.4</ele>
        <time>2021-08-06 15:45:29</time>
      </trkpt>
      <trkpt lat="37.05462" lon="-3.35229">
        <ele>3151.6</ele>
        <time>2021-08-06 15:45:30</time>
      </trkpt>
      <trkpt lat="37.05462" lon="-3.35231">
        <ele>3151.8</ele>
        <time>2021-08-06 15:45:31</time>
      </trkpt>
      <trkpt lat="37.05463" lon="-3.35232">
        <ele>3151.8</ele>
        <time>2021-08-06 15:45:32</time>
      </trkpt>
      <trkpt lat="37.05464" lon="-3.35233">
        <ele>3151.8</ele>
        <time>2021-08-06 15:45:33</time>
      </trkpt>
      <trkpt lat="37.05464" lon="-3.35234">
        <ele>3151.8</ele>
        <time>2021-08-06 15:45:34</time>
      </trkpt>
      <trkpt lat="37.05465" lon="-3.35235">
        <ele>3151.8</ele>
        <time>2021-08-06 15:45:35</time>
      </trkpt>
      <trkpt lat="37.05466" lon="-3.35235">
        <ele>3152.4</ele>
        <time>2021-08-06 15:45:36</time>
      </trkpt>
      <trkpt lat="37.05466" lon="-3.35236">
        <ele>3152.6</ele>
        <time>2021-08-06 15:45:37</time>
      </trkpt>
      <trkpt lat="37.05467" lon="-3.35237">
        <ele>3152.8</ele>
        <time>2021-08-06 15:45:38</time>
      </trkpt>
      <trkpt lat="37.05467" lon="-3.35238">
        <ele>3152.8</ele>
        <time>2021-08-06 15:45:39</time>
      </trkpt>
      <trkpt lat="37.05468" lon="-3.35238">
        <ele>3153</ele>
        <time>2021-08-06 15:45:40</time>
      </trkpt>
      <trkpt lat="37.05469" lon="-3.35239">
        <ele>3153</ele>
        <time>2021-08-06 15:45:41</time>
      </trkpt>
      <trkpt lat="37.05469" lon="-3.3524">
        <ele>3153</ele>
        <time>2021-08-06 15:45:42</time>
      </trkpt>
      <trkpt lat="37.0547" lon="-3.3524">
        <ele>3153</ele>
        <time>2021-08-06 15:45:43</time>
      </trkpt>
      <trkpt lat="37.05471" lon="-3.35241">
        <ele>3153.2</ele>
        <time>2021-08-06 15:45:44</time>
      </trkpt>
      <trkpt lat="37.05471" lon="-3.35242">
        <ele>3153.2</ele>
        <time>2021-08-06 15:45:45</time>
      </trkpt>
      <trkpt lat="37.05472" lon="-3.35242">
        <ele>3153.2</ele>
        <time>2021-08-06 15:45:46</time>
      </trkpt>
      <trkpt lat="37.05473" lon="-3.35243">
        <ele>3153.4</ele>
        <time>2021-08-06 15:45:47</time>
      </trkpt>
      <trkpt lat="37.05473" lon="-3.35244">
        <ele>3153.4</ele>
        <time>2021-08-06 15:45:48</time>
      </trkpt>
      <trkpt lat="37.05474" lon="-3.35245">
        <ele>3153.4</ele>
        <time>2021-08-06 15:45:49</time>
      </trkpt>
      <trkpt lat="37.05474" lon="-3.35246">
        <ele>3153.6</ele>
        <time>2021-08-06 15:45:50</time>
      </trkpt>
      <trkpt lat="37.05475" lon="-3.35246">
        <ele>3153.6</ele>
        <time>2021-08-06 15:45:51</time>
      </trkpt>
      <trkpt lat="37.05476" lon="-3.35247">
        <ele>3153.6</ele>
        <time>2021-08-06 15:45:52</time>
      </trkpt>
      <trkpt lat="37.05477" lon="-3.35248">
        <ele>3153.8</ele>
        <time>2021-08-06 15:45:53</time>
      </trkpt>
      <trkpt lat="37.05477" lon="-3.35248">
        <ele>3153.8</ele>
        <time>2021-08-06 15:45:54</time>
      </trkpt>
      <trkpt lat="37.05478" lon="-3.35249">
        <ele>3153.8</ele>
        <time>2021-08-06 15:45:55</time>
      </trkpt>
      <trkpt lat="37.05479" lon="-3.3525">
        <ele>3153.8</ele>
        <time>2021-08-06 15:45:56</time>
      </trkpt>
      <trkpt lat="37.0548" lon="-3.3525">
        <ele>3153.6</ele>
        <time>2021-08-06 15:45:57</time>
      </trkpt>
      <trkpt lat="37.0548" lon="-3.35251">
        <ele>3153.6</ele>
        <time>2021-08-06 15:45:58</time>
      </trkpt>
      <trkpt lat="37.05481" lon="-3.35252">
        <ele>3153.6</ele>
        <time>2021-08-06 15:45:59</time>
      </trkpt>
      <trkpt lat="37.05482" lon="-3.35252">
        <ele>3153.6</ele>
        <time>2021-08-06 15:46:00</time>
      </trkpt>
      <trkpt lat="37.05482" lon="-3.35252">
        <ele>3153.6</ele>
        <time>2021-08-06 15:46:01</time>
      </trkpt>
      <trkpt lat="37.05482" lon="-3.35252">
        <ele>3153.6</ele>
        <time>2021-08-06 15:46:02</time>
      </trkpt>
      <trkpt lat="37.05482" lon="-3.35252">
        <ele>3153.6</ele>
        <time>2021-08-06 15:46:03</time>
      </trkpt>
      <trkpt lat="37.05482" lon="-3.35252">
        <ele>3153.6</ele>
        <time>2021-08-06 15:46:04</time>
      </trkpt>
      <trkpt lat="37.05482" lon="-3.35253">
        <ele>3153.6</ele>
        <time>2021-08-06 15:46:05</time>
      </trkpt>
      <trkpt lat="37.05481" lon="-3.35254">
        <ele>3153.4</ele>
        <time>2021-08-06 15:46:06</time>
      </trkpt>
      <trkpt lat="37.05481" lon="-3.35256">
        <ele>3153.4</ele>
        <time>2021-08-06 15:46:07</time>
      </trkpt>
      <trkpt lat="37.05482" lon="-3.35257">
        <ele>3153.4</ele>
        <time>2021-08-06 15:46:08</time>
      </trkpt>
      <trkpt lat="37.05483" lon="-3.35258">
        <ele>3153.4</ele>
        <time>2021-08-06 15:46:09</time>
      </trkpt>
      <trkpt lat="37.05484" lon="-3.3526">
        <ele>3153</ele>
        <time>2021-08-06 15:46:10</time>
      </trkpt>
      <trkpt lat="37.05485" lon="-3.35261">
        <ele>3153</ele>
        <time>2021-08-06 15:46:11</time>
      </trkpt>
      <trkpt lat="37.05486" lon="-3.35262">
        <ele>3153</ele>
        <time>2021-08-06 15:46:12</time>
      </trkpt>
      <trkpt lat="37.05487" lon="-3.35263">
        <ele>3153</ele>
        <time>2021-08-06 15:46:13</time>
      </trkpt>
      <trkpt lat="37.05488" lon="-3.35263">
        <ele>3152.8</ele>
        <time>2021-08-06 15:46:14</time>
      </trkpt>
      <trkpt lat="37.05489" lon="-3.35264">
        <ele>3153</ele>
        <time>2021-08-06 15:46:15</time>
      </trkpt>
      <trkpt lat="37.0549" lon="-3.35264">
        <ele>3153</ele>
        <time>2021-08-06 15:46:16</time>
      </trkpt>
      <trkpt lat="37.05491" lon="-3.35264">
        <ele>3153.2</ele>
        <time>2021-08-06 15:46:17</time>
      </trkpt>
      <trkpt lat="37.05492" lon="-3.35264">
        <ele>3153.4</ele>
        <time>2021-08-06 15:46:18</time>
      </trkpt>
      <trkpt lat="37.05493" lon="-3.35263">
        <ele>3153.4</ele>
        <time>2021-08-06 15:46:19</time>
      </trkpt>
      <trkpt lat="37.05494" lon="-3.35263">
        <ele>3153.6</ele>
        <time>2021-08-06 15:46:20</time>
      </trkpt>
      <trkpt lat="37.05496" lon="-3.35263">
        <ele>3153.6</ele>
        <time>2021-08-06 15:46:21</time>
      </trkpt>
      <trkpt lat="37.05498" lon="-3.35264">
        <ele>3153.6</ele>
        <time>2021-08-06 15:46:22</time>
      </trkpt>
      <trkpt lat="37.05499" lon="-3.35264">
        <ele>3153.6</ele>
        <time>2021-08-06 15:46:23</time>
      </trkpt>
      <trkpt lat="37.055" lon="-3.35265">
        <ele>3153.6</ele>
        <time>2021-08-06 15:46:24</time>
      </trkpt>
      <trkpt lat="37.05501" lon="-3.35266">
        <ele>3153.8</ele>
        <time>2021-08-06 15:46:25</time>
      </trkpt>
      <trkpt lat="37.05503" lon="-3.35266">
        <ele>3153.8</ele>
        <time>2021-08-06 15:46:26</time>
      </trkpt>
      <trkpt lat="37.05504" lon="-3.35267">
        <ele>3154</ele>
        <time>2021-08-06 15:46:27</time>
      </trkpt>
      <trkpt lat="37.05505" lon="-3.35269">
        <ele>3154</ele>
        <time>2021-08-06 15:46:28</time>
      </trkpt>
      <trkpt lat="37.05505" lon="-3.3527">
        <ele>3154.2</ele>
        <time>2021-08-06 15:46:29</time>
      </trkpt>
      <trkpt lat="37.05506" lon="-3.35271">
        <ele>3154.2</ele>
        <time>2021-08-06 15:46:30</time>
      </trkpt>
      <trkpt lat="37.05507" lon="-3.35272">
        <ele>3154.4</ele>
        <time>2021-08-06 15:46:31</time>
      </trkpt>
      <trkpt lat="37.05508" lon="-3.35273">
        <ele>3154.4</ele>
        <time>2021-08-06 15:46:32</time>
      </trkpt>
      <trkpt lat="37.05508" lon="-3.35275">
        <ele>3154.2</ele>
        <time>2021-08-06 15:46:33</time>
      </trkpt>
      <trkpt lat="37.05509" lon="-3.35276">
        <ele>3154</ele>
        <time>2021-08-06 15:46:34</time>
      </trkpt>
      <trkpt lat="37.0551" lon="-3.35277">
        <ele>3154.2</ele>
        <time>2021-08-06 15:46:35</time>
      </trkpt>
      <trkpt lat="37.05511" lon="-3.35278">
        <ele>3154.2</ele>
        <time>2021-08-06 15:46:36</time>
      </trkpt>
      <trkpt lat="37.05512" lon="-3.35279">
        <ele>3154.2</ele>
        <time>2021-08-06 15:46:37</time>
      </trkpt>
      <trkpt lat="37.05513" lon="-3.3528">
        <ele>3154.2</ele>
        <time>2021-08-06 15:46:38</time>
      </trkpt>
      <trkpt lat="37.05514" lon="-3.35281">
        <ele>3154</ele>
        <time>2021-08-06 15:46:39</time>
      </trkpt>
      <trkpt lat="37.05515" lon="-3.35281">
        <ele>3154</ele>
        <time>2021-08-06 15:46:40</time>
      </trkpt>
      <trkpt lat="37.05516" lon="-3.35281">
        <ele>3154</ele>
        <time>2021-08-06 15:46:41</time>
      </trkpt>
      <trkpt lat="37.05517" lon="-3.35282">
        <ele>3154</ele>
        <time>2021-08-06 15:46:42</time>
      </trkpt>
      <trkpt lat="37.05518" lon="-3.35282">
        <ele>3153.8</ele>
        <time>2021-08-06 15:46:43</time>
      </trkpt>
      <trkpt lat="37.05519" lon="-3.35282">
        <ele>3153.6</ele>
        <time>2021-08-06 15:46:44</time>
      </trkpt>
      <trkpt lat="37.0552" lon="-3.35283">
        <ele>3153.6</ele>
        <time>2021-08-06 15:46:45</time>
      </trkpt>
      <trkpt lat="37.05521" lon="-3.35283">
        <ele>3153.6</ele>
        <time>2021-08-06 15:46:46</time>
      </trkpt>
      <trkpt lat="37.05522" lon="-3.35284">
        <ele>3153.6</ele>
        <time>2021-08-06 15:46:47</time>
      </trkpt>
      <trkpt lat="37.05523" lon="-3.35284">
        <ele>3153.6</ele>
        <time>2021-08-06 15:46:48</time>
      </trkpt>
      <trkpt lat="37.05524" lon="-3.35285">
        <ele>3153.6</ele>
        <time>2021-08-06 15:46:49</time>
      </trkpt>
      <trkpt lat="37.05525" lon="-3.35286">
        <ele>3153.6</ele>
        <time>2021-08-06 15:46:50</time>
      </trkpt>
      <trkpt lat="37.05526" lon="-3.35286">
        <ele>3153.6</ele>
        <time>2021-08-06 15:46:51</time>
      </trkpt>
      <trkpt lat="37.05528" lon="-3.35286">
        <ele>3153.6</ele>
        <time>2021-08-06 15:46:52</time>
      </trkpt>
      <trkpt lat="37.05528" lon="-3.35287">
        <ele>3153.6</ele>
        <time>2021-08-06 15:46:53</time>
      </trkpt>
      <trkpt lat="37.05529" lon="-3.35288">
        <ele>3153.6</ele>
        <time>2021-08-06 15:46:54</time>
      </trkpt>
      <trkpt lat="37.0553" lon="-3.35289">
        <ele>3153.6</ele>
        <time>2021-08-06 15:46:55</time>
      </trkpt>
      <trkpt lat="37.05531" lon="-3.35289">
        <ele>3153.6</ele>
        <time>2021-08-06 15:46:56</time>
      </trkpt>
      <trkpt lat="37.05532" lon="-3.35289">
        <ele>3153.2</ele>
        <time>2021-08-06 15:46:57</time>
      </trkpt>
      <trkpt lat="37.05533" lon="-3.35289">
        <ele>3153</ele>
        <time>2021-08-06 15:46:58</time>
      </trkpt>
      <trkpt lat="37.05534" lon="-3.3529">
        <ele>3153</ele>
        <time>2021-08-06 15:46:59</time>
      </trkpt>
      <trkpt lat="37.05535" lon="-3.3529">
        <ele>3152.8</ele>
        <time>2021-08-06 15:47:00</time>
      </trkpt>
      <trkpt lat="37.05536" lon="-3.35291">
        <ele>3152.8</ele>
        <time>2021-08-06 15:47:01</time>
      </trkpt>
      <trkpt lat="37.05537" lon="-3.35292">
        <ele>3153</ele>
        <time>2021-08-06 15:47:02</time>
      </trkpt>
      <trkpt lat="37.05538" lon="-3.35293">
        <ele>3153</ele>
        <time>2021-08-06 15:47:03</time>
      </trkpt>
      <trkpt lat="37.05539" lon="-3.35293">
        <ele>3153.2</ele>
        <time>2021-08-06 15:47:04</time>
      </trkpt>
      <trkpt lat="37.0554" lon="-3.35294">
        <ele>3153.2</ele>
        <time>2021-08-06 15:47:05</time>
      </trkpt>
      <trkpt lat="37.05541" lon="-3.35295">
        <ele>3153.4</ele>
        <time>2021-08-06 15:47:06</time>
      </trkpt>
      <trkpt lat="37.05541" lon="-3.35296">
        <ele>3153.4</ele>
        <time>2021-08-06 15:47:07</time>
      </trkpt>
      <trkpt lat="37.05542" lon="-3.35297">
        <ele>3153.4</ele>
        <time>2021-08-06 15:47:08</time>
      </trkpt>
      <trkpt lat="37.05543" lon="-3.35298">
        <ele>3153.4</ele>
        <time>2021-08-06 15:47:09</time>
      </trkpt>
      <trkpt lat="37.05544" lon="-3.35299">
        <ele>3153.2</ele>
        <time>2021-08-06 15:47:10</time>
      </trkpt>
      <trkpt lat="37.05544" lon="-3.353">
        <ele>3153</ele>
        <time>2021-08-06 15:47:11</time>
      </trkpt>
      <trkpt lat="37.05545" lon="-3.353">
        <ele>3152.8</ele>
        <time>2021-08-06 15:47:12</time>
      </trkpt>
      <trkpt lat="37.05546" lon="-3.35301">
        <ele>3152.8</ele>
        <time>2021-08-06 15:47:13</time>
      </trkpt>
      <trkpt lat="37.05547" lon="-3.35302">
        <ele>3152.6</ele>
        <time>2021-08-06 15:47:14</time>
      </trkpt>
      <trkpt lat="37.05548" lon="-3.35303">
        <ele>3152.6</ele>
        <time>2021-08-06 15:47:15</time>
      </trkpt>
      <trkpt lat="37.05548" lon="-3.35304">
        <ele>3152.6</ele>
        <time>2021-08-06 15:47:16</time>
      </trkpt>
      <trkpt lat="37.05548" lon="-3.35305">
        <ele>3152.6</ele>
        <time>2021-08-06 15:47:17</time>
      </trkpt>
      <trkpt lat="37.05549" lon="-3.35306">
        <ele>3152.6</ele>
        <time>2021-08-06 15:47:18</time>
      </trkpt>
      <trkpt lat="37.0555" lon="-3.35307">
        <ele>3152.6</ele>
        <time>2021-08-06 15:47:19</time>
      </trkpt>
      <trkpt lat="37.0555" lon="-3.35308">
        <ele>3152.6</ele>
        <time>2021-08-06 15:47:20</time>
      </trkpt>
      <trkpt lat="37.0555" lon="-3.3531">
        <ele>3152.4</ele>
        <time>2021-08-06 15:47:21</time>
      </trkpt>
      <trkpt lat="37.05551" lon="-3.35311">
        <ele>3152.4</ele>
        <time>2021-08-06 15:47:22</time>
      </trkpt>
      <trkpt lat="37.05551" lon="-3.35313">
        <ele>3152.4</ele>
        <time>2021-08-06 15:47:23</time>
      </trkpt>
      <trkpt lat="37.05552" lon="-3.35314">
        <ele>3152.4</ele>
        <time>2021-08-06 15:47:24</time>
      </trkpt>
      <trkpt lat="37.05552" lon="-3.35316">
        <ele>3152.2</ele>
        <time>2021-08-06 15:47:25</time>
      </trkpt>
      <trkpt lat="37.05553" lon="-3.35317">
        <ele>3152</ele>
        <time>2021-08-06 15:47:26</time>
      </trkpt>
      <trkpt lat="37.05553" lon="-3.35319">
        <ele>3152</ele>
        <time>2021-08-06 15:47:27</time>
      </trkpt>
      <trkpt lat="37.05553" lon="-3.3532">
        <ele>3152</ele>
        <time>2021-08-06 15:47:28</time>
      </trkpt>
      <trkpt lat="37.05554" lon="-3.35322">
        <ele>3152</ele>
        <time>2021-08-06 15:47:29</time>
      </trkpt>
      <trkpt lat="37.05554" lon="-3.35323">
        <ele>3152</ele>
        <time>2021-08-06 15:47:30</time>
      </trkpt>
      <trkpt lat="37.05554" lon="-3.35325">
        <ele>3152</ele>
        <time>2021-08-06 15:47:31</time>
      </trkpt>
      <trkpt lat="37.05554" lon="-3.35326">
        <ele>3151.8</ele>
        <time>2021-08-06 15:47:32</time>
      </trkpt>
      <trkpt lat="37.05555" lon="-3.35327">
        <ele>3151.6</ele>
        <time>2021-08-06 15:47:33</time>
      </trkpt>
      <trkpt lat="37.05555" lon="-3.35329">
        <ele>3151.6</ele>
        <time>2021-08-06 15:47:34</time>
      </trkpt>
      <trkpt lat="37.05555" lon="-3.3533">
        <ele>3151.6</ele>
        <time>2021-08-06 15:47:35</time>
      </trkpt>
      <trkpt lat="37.05556" lon="-3.35332">
        <ele>3151.6</ele>
        <time>2021-08-06 15:47:36</time>
      </trkpt>
      <trkpt lat="37.05556" lon="-3.35333">
        <ele>3151.6</ele>
        <time>2021-08-06 15:47:37</time>
      </trkpt>
      <trkpt lat="37.05556" lon="-3.35334">
        <ele>3151.6</ele>
        <time>2021-08-06 15:47:38</time>
      </trkpt>
      <trkpt lat="37.05557" lon="-3.35335">
        <ele>3151.6</ele>
        <time>2021-08-06 15:47:39</time>
      </trkpt>
      <trkpt lat="37.05557" lon="-3.35336">
        <ele>3151.6</ele>
        <time>2021-08-06 15:47:40</time>
      </trkpt>
      <trkpt lat="37.05558" lon="-3.35338">
        <ele>3151.6</ele>
        <time>2021-08-06 15:47:41</time>
      </trkpt>
      <trkpt lat="37.05558" lon="-3.35339">
        <ele>3151.6</ele>
        <time>2021-08-06 15:47:42</time>
      </trkpt>
      <trkpt lat="37.05558" lon="-3.3534">
        <ele>3151.6</ele>
        <time>2021-08-06 15:47:43</time>
      </trkpt>
      <trkpt lat="37.05558" lon="-3.35341">
        <ele>3151.6</ele>
        <time>2021-08-06 15:47:44</time>
      </trkpt>
      <trkpt lat="37.05559" lon="-3.35343">
        <ele>3151.4</ele>
        <time>2021-08-06 15:47:45</time>
      </trkpt>
      <trkpt lat="37.05559" lon="-3.35344">
        <ele>3151.4</ele>
        <time>2021-08-06 15:47:46</time>
      </trkpt>
      <trkpt lat="37.05559" lon="-3.35346">
        <ele>3151.4</ele>
        <time>2021-08-06 15:47:47</time>
      </trkpt>
      <trkpt lat="37.0556" lon="-3.35347">
        <ele>3151.6</ele>
        <time>2021-08-06 15:47:48</time>
      </trkpt>
      <trkpt lat="37.0556" lon="-3.35348">
        <ele>3151.6</ele>
        <time>2021-08-06 15:47:49</time>
      </trkpt>
      <trkpt lat="37.0556" lon="-3.3535">
        <ele>3151.4</ele>
        <time>2021-08-06 15:47:50</time>
      </trkpt>
      <trkpt lat="37.05561" lon="-3.35351">
        <ele>3151.6</ele>
        <time>2021-08-06 15:47:51</time>
      </trkpt>
      <trkpt lat="37.05561" lon="-3.35352">
        <ele>3151.4</ele>
        <time>2021-08-06 15:47:52</time>
      </trkpt>
      <trkpt lat="37.05561" lon="-3.35354">
        <ele>3151.4</ele>
        <time>2021-08-06 15:47:53</time>
      </trkpt>
      <trkpt lat="37.05562" lon="-3.35355">
        <ele>3151.4</ele>
        <time>2021-08-06 15:47:54</time>
      </trkpt>
      <trkpt lat="37.05562" lon="-3.35356">
        <ele>3151.4</ele>
        <time>2021-08-06 15:47:55</time>
      </trkpt>
      <trkpt lat="37.05561" lon="-3.35357">
        <ele>3151.6</ele>
        <time>2021-08-06 15:47:56</time>
      </trkpt>
      <trkpt lat="37.05561" lon="-3.35358">
        <ele>3151.8</ele>
        <time>2021-08-06 15:47:57</time>
      </trkpt>
      <trkpt lat="37.05561" lon="-3.35359">
        <ele>3151.8</ele>
        <time>2021-08-06 15:47:58</time>
      </trkpt>
      <trkpt lat="37.05562" lon="-3.3536">
        <ele>3151.8</ele>
        <time>2021-08-06 15:47:59</time>
      </trkpt>
      <trkpt lat="37.05562" lon="-3.35361">
        <ele>3152</ele>
        <time>2021-08-06 15:48:00</time>
      </trkpt>
      <trkpt lat="37.05563" lon="-3.35362">
        <ele>3152</ele>
        <time>2021-08-06 15:48:01</time>
      </trkpt>
      <trkpt lat="37.05563" lon="-3.35363">
        <ele>3151.8</ele>
        <time>2021-08-06 15:48:02</time>
      </trkpt>
      <trkpt lat="37.05563" lon="-3.35364">
        <ele>3151.8</ele>
        <time>2021-08-06 15:48:03</time>
      </trkpt>
      <trkpt lat="37.05563" lon="-3.35366">
        <ele>3151.6</ele>
        <time>2021-08-06 15:48:04</time>
      </trkpt>
      <trkpt lat="37.05563" lon="-3.35367">
        <ele>3152</ele>
        <time>2021-08-06 15:48:05</time>
      </trkpt>
      <trkpt lat="37.05563" lon="-3.35368">
        <ele>3152</ele>
        <time>2021-08-06 15:48:06</time>
      </trkpt>
      <trkpt lat="37.05563" lon="-3.35369">
        <ele>3152</ele>
        <time>2021-08-06 15:48:07</time>
      </trkpt>
      <trkpt lat="37.05563" lon="-3.35371">
        <ele>3152.2</ele>
        <time>2021-08-06 15:48:08</time>
      </trkpt>
      <trkpt lat="37.05563" lon="-3.35372">
        <ele>3152.2</ele>
        <time>2021-08-06 15:48:09</time>
      </trkpt>
      <trkpt lat="37.05563" lon="-3.35373">
        <ele>3152.2</ele>
        <time>2021-08-06 15:48:10</time>
      </trkpt>
      <trkpt lat="37.05563" lon="-3.35374">
        <ele>3152.4</ele>
        <time>2021-08-06 15:48:11</time>
      </trkpt>
      <trkpt lat="37.05563" lon="-3.35375">
        <ele>3152.2</ele>
        <time>2021-08-06 15:48:12</time>
      </trkpt>
      <trkpt lat="37.05563" lon="-3.35376">
        <ele>3152.2</ele>
        <time>2021-08-06 15:48:13</time>
      </trkpt>
      <trkpt lat="37.05563" lon="-3.35377">
        <ele>3152.4</ele>
        <time>2021-08-06 15:48:14</time>
      </trkpt>
      <trkpt lat="37.05564" lon="-3.35379">
        <ele>3152.4</ele>
        <time>2021-08-06 15:48:15</time>
      </trkpt>
      <trkpt lat="37.05564" lon="-3.3538">
        <ele>3152.4</ele>
        <time>2021-08-06 15:48:16</time>
      </trkpt>
      <trkpt lat="37.05565" lon="-3.35381">
        <ele>3152.6</ele>
        <time>2021-08-06 15:48:17</time>
      </trkpt>
      <trkpt lat="37.05565" lon="-3.35383">
        <ele>3152.4</ele>
        <time>2021-08-06 15:48:18</time>
      </trkpt>
      <trkpt lat="37.05565" lon="-3.35384">
        <ele>3152.6</ele>
        <time>2021-08-06 15:48:19</time>
      </trkpt>
      <trkpt lat="37.05565" lon="-3.35385">
        <ele>3152.6</ele>
        <time>2021-08-06 15:48:20</time>
      </trkpt>
      <trkpt lat="37.05565" lon="-3.35386">
        <ele>3152.6</ele>
        <time>2021-08-06 15:48:21</time>
      </trkpt>
      <trkpt lat="37.05565" lon="-3.35387">
        <ele>3152.6</ele>
        <time>2021-08-06 15:48:22</time>
      </trkpt>
      <trkpt lat="37.05565" lon="-3.35387">
        <ele>3152.6</ele>
        <time>2021-08-06 15:48:23</time>
      </trkpt>
      <trkpt lat="37.05565" lon="-3.35388">
        <ele>3152.6</ele>
        <time>2021-08-06 15:48:24</time>
      </trkpt>
      <trkpt lat="37.05565" lon="-3.35389">
        <ele>3152.6</ele>
        <time>2021-08-06 15:48:25</time>
      </trkpt>
      <trkpt lat="37.05565" lon="-3.3539">
        <ele>3152.4</ele>
        <time>2021-08-06 15:48:26</time>
      </trkpt>
      <trkpt lat="37.05565" lon="-3.35392">
        <ele>3152.4</ele>
        <time>2021-08-06 15:48:27</time>
      </trkpt>
      <trkpt lat="37.05565" lon="-3.35393">
        <ele>3152.6</ele>
        <time>2021-08-06 15:48:28</time>
      </trkpt>
      <trkpt lat="37.05565" lon="-3.35395">
        <ele>3152.6</ele>
        <time>2021-08-06 15:48:29</time>
      </trkpt>
      <trkpt lat="37.05565" lon="-3.35396">
        <ele>3152.6</ele>
        <time>2021-08-06 15:48:30</time>
      </trkpt>
      <trkpt lat="37.05565" lon="-3.35397">
        <ele>3152.8</ele>
        <time>2021-08-06 15:48:31</time>
      </trkpt>
      <trkpt lat="37.05564" lon="-3.35399">
        <ele>3153</ele>
        <time>2021-08-06 15:48:32</time>
      </trkpt>
      <trkpt lat="37.05564" lon="-3.354">
        <ele>3153.2</ele>
        <time>2021-08-06 15:48:33</time>
      </trkpt>
      <trkpt lat="37.05564" lon="-3.35401">
        <ele>3153.4</ele>
        <time>2021-08-06 15:48:34</time>
      </trkpt>
      <trkpt lat="37.05564" lon="-3.35402">
        <ele>3153.4</ele>
        <time>2021-08-06 15:48:35</time>
      </trkpt>
      <trkpt lat="37.05564" lon="-3.35404">
        <ele>3153.4</ele>
        <time>2021-08-06 15:48:36</time>
      </trkpt>
      <trkpt lat="37.05564" lon="-3.35405">
        <ele>3153.2</ele>
        <time>2021-08-06 15:48:37</time>
      </trkpt>
      <trkpt lat="37.05564" lon="-3.35406">
        <ele>3153.2</ele>
        <time>2021-08-06 15:48:38</time>
      </trkpt>
      <trkpt lat="37.05564" lon="-3.35408">
        <ele>3153.2</ele>
        <time>2021-08-06 15:48:39</time>
      </trkpt>
      <trkpt lat="37.05564" lon="-3.35409">
        <ele>3153.2</ele>
        <time>2021-08-06 15:48:40</time>
      </trkpt>
      <trkpt lat="37.05564" lon="-3.3541">
        <ele>3153</ele>
        <time>2021-08-06 15:48:41</time>
      </trkpt>
      <trkpt lat="37.05564" lon="-3.35411">
        <ele>3153</ele>
        <time>2021-08-06 15:48:42</time>
      </trkpt>
      <trkpt lat="37.05564" lon="-3.35412">
        <ele>3153</ele>
        <time>2021-08-06 15:48:43</time>
      </trkpt>
      <trkpt lat="37.05564" lon="-3.35413">
        <ele>3153</ele>
        <time>2021-08-06 15:48:44</time>
      </trkpt>
      <trkpt lat="37.05564" lon="-3.35415">
        <ele>3153</ele>
        <time>2021-08-06 15:48:45</time>
      </trkpt>
      <trkpt lat="37.05564" lon="-3.35416">
        <ele>3152.8</ele>
        <time>2021-08-06 15:48:46</time>
      </trkpt>
      <trkpt lat="37.05564" lon="-3.35418">
        <ele>3152.8</ele>
        <time>2021-08-06 15:48:47</time>
      </trkpt>
      <trkpt lat="37.05563" lon="-3.35419">
        <ele>3152.8</ele>
        <time>2021-08-06 15:48:48</time>
      </trkpt>
      <trkpt lat="37.05562" lon="-3.35421">
        <ele>3152.8</ele>
        <time>2021-08-06 15:48:49</time>
      </trkpt>
      <trkpt lat="37.05562" lon="-3.35423">
        <ele>3152.8</ele>
        <time>2021-08-06 15:48:50</time>
      </trkpt>
      <trkpt lat="37.05562" lon="-3.35424">
        <ele>3152.8</ele>
        <time>2021-08-06 15:48:51</time>
      </trkpt>
      <trkpt lat="37.05562" lon="-3.35425">
        <ele>3152.8</ele>
        <time>2021-08-06 15:48:52</time>
      </trkpt>
      <trkpt lat="37.05562" lon="-3.35427">
        <ele>3152.8</ele>
        <time>2021-08-06 15:48:53</time>
      </trkpt>
      <trkpt lat="37.05561" lon="-3.35428">
        <ele>3152.8</ele>
        <time>2021-08-06 15:48:54</time>
      </trkpt>
      <trkpt lat="37.05561" lon="-3.35429">
        <ele>3153</ele>
        <time>2021-08-06 15:48:55</time>
      </trkpt>
      <trkpt lat="37.05561" lon="-3.3543">
        <ele>3152.8</ele>
        <time>2021-08-06 15:48:56</time>
      </trkpt>
      <trkpt lat="37.05561" lon="-3.35431">
        <ele>3152.8</ele>
        <time>2021-08-06 15:48:57</time>
      </trkpt>
      <trkpt lat="37.0556" lon="-3.35432">
        <ele>3153</ele>
        <time>2021-08-06 15:48:58</time>
      </trkpt>
      <trkpt lat="37.0556" lon="-3.35433">
        <ele>3153</ele>
        <time>2021-08-06 15:48:59</time>
      </trkpt>
      <trkpt lat="37.0556" lon="-3.35434">
        <ele>3153.2</ele>
        <time>2021-08-06 15:49:00</time>
      </trkpt>
      <trkpt lat="37.0556" lon="-3.35435">
        <ele>3153.4</ele>
        <time>2021-08-06 15:49:01</time>
      </trkpt>
      <trkpt lat="37.05559" lon="-3.35437">
        <ele>3153.4</ele>
        <time>2021-08-06 15:49:02</time>
      </trkpt>
      <trkpt lat="37.05559" lon="-3.35438">
        <ele>3153.6</ele>
        <time>2021-08-06 15:49:03</time>
      </trkpt>
      <trkpt lat="37.05559" lon="-3.3544">
        <ele>3153.6</ele>
        <time>2021-08-06 15:49:04</time>
      </trkpt>
      <trkpt lat="37.05559" lon="-3.35441">
        <ele>3153.6</ele>
        <time>2021-08-06 15:49:05</time>
      </trkpt>
      <trkpt lat="37.05559" lon="-3.35442">
        <ele>3153.8</ele>
        <time>2021-08-06 15:49:06</time>
      </trkpt>
      <trkpt lat="37.05559" lon="-3.35444">
        <ele>3153.8</ele>
        <time>2021-08-06 15:49:07</time>
      </trkpt>
      <trkpt lat="37.05558" lon="-3.35445">
        <ele>3153.6</ele>
        <time>2021-08-06 15:49:08</time>
      </trkpt>
      <trkpt lat="37.05558" lon="-3.35446">
        <ele>3153.6</ele>
        <time>2021-08-06 15:49:09</time>
      </trkpt>
      <trkpt lat="37.05558" lon="-3.35448">
        <ele>3153.8</ele>
        <time>2021-08-06 15:49:10</time>
      </trkpt>
      <trkpt lat="37.05558" lon="-3.35448">
        <ele>3153.8</ele>
        <time>2021-08-06 15:49:11</time>
      </trkpt>
      <trkpt lat="37.05557" lon="-3.35449">
        <ele>3153.8</ele>
        <time>2021-08-06 15:49:12</time>
      </trkpt>
      <trkpt lat="37.05558" lon="-3.3545">
        <ele>3153.8</ele>
        <time>2021-08-06 15:49:13</time>
      </trkpt>
      <trkpt lat="37.05558" lon="-3.35451">
        <ele>3153.8</ele>
        <time>2021-08-06 15:49:14</time>
      </trkpt>
      <trkpt lat="37.05558" lon="-3.35452">
        <ele>3153.8</ele>
        <time>2021-08-06 15:49:15</time>
      </trkpt>
      <trkpt lat="37.05557" lon="-3.35454">
        <ele>3153.6</ele>
        <time>2021-08-06 15:49:16</time>
      </trkpt>
      <trkpt lat="37.05557" lon="-3.35455">
        <ele>3153.6</ele>
        <time>2021-08-06 15:49:17</time>
      </trkpt>
      <trkpt lat="37.05557" lon="-3.35456">
        <ele>3153.6</ele>
        <time>2021-08-06 15:49:18</time>
      </trkpt>
      <trkpt lat="37.05557" lon="-3.35458">
        <ele>3153.6</ele>
        <time>2021-08-06 15:49:19</time>
      </trkpt>
      <trkpt lat="37.05557" lon="-3.35459">
        <ele>3153.6</ele>
        <time>2021-08-06 15:49:20</time>
      </trkpt>
      <trkpt lat="37.05557" lon="-3.35461">
        <ele>3153.6</ele>
        <time>2021-08-06 15:49:21</time>
      </trkpt>
      <trkpt lat="37.05556" lon="-3.35462">
        <ele>3153.6</ele>
        <time>2021-08-06 15:49:22</time>
      </trkpt>
      <trkpt lat="37.05556" lon="-3.35463">
        <ele>3153.8</ele>
        <time>2021-08-06 15:49:23</time>
      </trkpt>
      <trkpt lat="37.05555" lon="-3.35464">
        <ele>3153.8</ele>
        <time>2021-08-06 15:49:24</time>
      </trkpt>
      <trkpt lat="37.05555" lon="-3.35465">
        <ele>3153.8</ele>
        <time>2021-08-06 15:49:25</time>
      </trkpt>
      <trkpt lat="37.05554" lon="-3.35467">
        <ele>3153.8</ele>
        <time>2021-08-06 15:49:26</time>
      </trkpt>
      <trkpt lat="37.05554" lon="-3.35468">
        <ele>3153.8</ele>
        <time>2021-08-06 15:49:27</time>
      </trkpt>
      <trkpt lat="37.05554" lon="-3.35469">
        <ele>3153.8</ele>
        <time>2021-08-06 15:49:28</time>
      </trkpt>
      <trkpt lat="37.05554" lon="-3.35471">
        <ele>3153.8</ele>
        <time>2021-08-06 15:49:29</time>
      </trkpt>
      <trkpt lat="37.05554" lon="-3.35472">
        <ele>3153.8</ele>
        <time>2021-08-06 15:49:30</time>
      </trkpt>
      <trkpt lat="37.05553" lon="-3.35473">
        <ele>3153.8</ele>
        <time>2021-08-06 15:49:31</time>
      </trkpt>
      <trkpt lat="37.05552" lon="-3.35474">
        <ele>3153.8</ele>
        <time>2021-08-06 15:49:32</time>
      </trkpt>
      <trkpt lat="37.05552" lon="-3.35475">
        <ele>3153.8</ele>
        <time>2021-08-06 15:49:33</time>
      </trkpt>
      <trkpt lat="37.05552" lon="-3.35477">
        <ele>3153.8</ele>
        <time>2021-08-06 15:49:34</time>
      </trkpt>
      <trkpt lat="37.05552" lon="-3.35478">
        <ele>3153.6</ele>
        <time>2021-08-06 15:49:35</time>
      </trkpt>
      <trkpt lat="37.05551" lon="-3.35479">
        <ele>3153.4</ele>
        <time>2021-08-06 15:49:36</time>
      </trkpt>
      <trkpt lat="37.05551" lon="-3.3548">
        <ele>3153.4</ele>
        <time>2021-08-06 15:49:37</time>
      </trkpt>
      <trkpt lat="37.05551" lon="-3.35481">
        <ele>3153.2</ele>
        <time>2021-08-06 15:49:38</time>
      </trkpt>
      <trkpt lat="37.0555" lon="-3.35483">
        <ele>3153.2</ele>
        <time>2021-08-06 15:49:39</time>
      </trkpt>
      <trkpt lat="37.0555" lon="-3.35483">
        <ele>3153.2</ele>
        <time>2021-08-06 15:49:40</time>
      </trkpt>
      <trkpt lat="37.05549" lon="-3.35484">
        <ele>3153.2</ele>
        <time>2021-08-06 15:49:41</time>
      </trkpt>
      <trkpt lat="37.05549" lon="-3.35485">
        <ele>3153.2</ele>
        <time>2021-08-06 15:49:42</time>
      </trkpt>
      <trkpt lat="37.05549" lon="-3.35486">
        <ele>3153.2</ele>
        <time>2021-08-06 15:49:43</time>
      </trkpt>
      <trkpt lat="37.05549" lon="-3.35487">
        <ele>3153.2</ele>
        <time>2021-08-06 15:49:44</time>
      </trkpt>
      <trkpt lat="37.05548" lon="-3.35488">
        <ele>3153.4</ele>
        <time>2021-08-06 15:49:45</time>
      </trkpt>
      <trkpt lat="37.05548" lon="-3.3549">
        <ele>3153.4</ele>
        <time>2021-08-06 15:49:46</time>
      </trkpt>
      <trkpt lat="37.05547" lon="-3.35491">
        <ele>3153.6</ele>
        <time>2021-08-06 15:49:47</time>
      </trkpt>
      <trkpt lat="37.05547" lon="-3.35492">
        <ele>3153.8</ele>
        <time>2021-08-06 15:49:48</time>
      </trkpt>
      <trkpt lat="37.05546" lon="-3.35493">
        <ele>3154</ele>
        <time>2021-08-06 15:49:49</time>
      </trkpt>
      <trkpt lat="37.05545" lon="-3.35494">
        <ele>3154.2</ele>
        <time>2021-08-06 15:49:50</time>
      </trkpt>
      <trkpt lat="37.05544" lon="-3.35495">
        <ele>3154.2</ele>
        <time>2021-08-06 15:49:51</time>
      </trkpt>
      <trkpt lat="37.05544" lon="-3.35496">
        <ele>3154.2</ele>
        <time>2021-08-06 15:49:52</time>
      </trkpt>
      <trkpt lat="37.05543" lon="-3.35497">
        <ele>3154.4</ele>
        <time>2021-08-06 15:49:53</time>
      </trkpt>
      <trkpt lat="37.05544" lon="-3.35498">
        <ele>3154.4</ele>
        <time>2021-08-06 15:49:54</time>
      </trkpt>
      <trkpt lat="37.05543" lon="-3.35499">
        <ele>3154.2</ele>
        <time>2021-08-06 15:49:55</time>
      </trkpt>
      <trkpt lat="37.05543" lon="-3.355">
        <ele>3154.2</ele>
        <time>2021-08-06 15:49:56</time>
      </trkpt>
      <trkpt lat="37.05542" lon="-3.35501">
        <ele>3154.4</ele>
        <time>2021-08-06 15:49:57</time>
      </trkpt>
      <trkpt lat="37.05542" lon="-3.35502">
        <ele>3154.4</ele>
        <time>2021-08-06 15:49:58</time>
      </trkpt>
      <trkpt lat="37.05541" lon="-3.35503">
        <ele>3154.4</ele>
        <time>2021-08-06 15:49:59</time>
      </trkpt>
      <trkpt lat="37.05541" lon="-3.35504">
        <ele>3154.4</ele>
        <time>2021-08-06 15:50:00</time>
      </trkpt>
      <trkpt lat="37.05541" lon="-3.35505">
        <ele>3154.4</ele>
        <time>2021-08-06 15:50:01</time>
      </trkpt>
      <trkpt lat="37.05541" lon="-3.35506">
        <ele>3154.6</ele>
        <time>2021-08-06 15:50:02</time>
      </trkpt>
      <trkpt lat="37.0554" lon="-3.35507">
        <ele>3154.6</ele>
        <time>2021-08-06 15:50:03</time>
      </trkpt>
      <trkpt lat="37.05539" lon="-3.35509">
        <ele>3154.8</ele>
        <time>2021-08-06 15:50:04</time>
      </trkpt>
      <trkpt lat="37.05538" lon="-3.3551">
        <ele>3154.8</ele>
        <time>2021-08-06 15:50:05</time>
      </trkpt>
      <trkpt lat="37.05537" lon="-3.3551">
        <ele>3154.8</ele>
        <time>2021-08-06 15:50:06</time>
      </trkpt>
      <trkpt lat="37.05536" lon="-3.35511">
        <ele>3154.8</ele>
        <time>2021-08-06 15:50:07</time>
      </trkpt>
      <trkpt lat="37.05535" lon="-3.35512">
        <ele>3154.8</ele>
        <time>2021-08-06 15:50:08</time>
      </trkpt>
      <trkpt lat="37.05535" lon="-3.35513">
        <ele>3154.8</ele>
        <time>2021-08-06 15:50:09</time>
      </trkpt>
      <trkpt lat="37.05534" lon="-3.35514">
        <ele>3155</ele>
        <time>2021-08-06 15:50:10</time>
      </trkpt>
      <trkpt lat="37.05534" lon="-3.35514">
        <ele>3155</ele>
        <time>2021-08-06 15:50:11</time>
      </trkpt>
      <trkpt lat="37.05534" lon="-3.35515">
        <ele>3155</ele>
        <time>2021-08-06 15:50:12</time>
      </trkpt>
      <trkpt lat="37.05534" lon="-3.35517">
        <ele>3155.4</ele>
        <time>2021-08-06 15:50:13</time>
      </trkpt>
      <trkpt lat="37.05533" lon="-3.35518">
        <ele>3155.6</ele>
        <time>2021-08-06 15:50:14</time>
      </trkpt>
      <trkpt lat="37.05533" lon="-3.35519">
        <ele>3155.6</ele>
        <time>2021-08-06 15:50:15</time>
      </trkpt>
      <trkpt lat="37.05534" lon="-3.3552">
        <ele>3155.6</ele>
        <time>2021-08-06 15:50:16</time>
      </trkpt>
      <trkpt lat="37.05534" lon="-3.35521">
        <ele>3155.8</ele>
        <time>2021-08-06 15:50:17</time>
      </trkpt>
      <trkpt lat="37.05533" lon="-3.35521">
        <ele>3155.8</ele>
        <time>2021-08-06 15:50:18</time>
      </trkpt>
      <trkpt lat="37.05533" lon="-3.35523">
        <ele>3155.8</ele>
        <time>2021-08-06 15:50:19</time>
      </trkpt>
      <trkpt lat="37.05532" lon="-3.35524">
        <ele>3155.8</ele>
        <time>2021-08-06 15:50:20</time>
      </trkpt>
      <trkpt lat="37.05531" lon="-3.35525">
        <ele>3155.8</ele>
        <time>2021-08-06 15:50:21</time>
      </trkpt>
      <trkpt lat="37.05531" lon="-3.35526">
        <ele>3155.8</ele>
        <time>2021-08-06 15:50:22</time>
      </trkpt>
      <trkpt lat="37.0553" lon="-3.35528">
        <ele>3155.8</ele>
        <time>2021-08-06 15:50:23</time>
      </trkpt>
      <trkpt lat="37.0553" lon="-3.35531">
        <ele>3155.6</ele>
        <time>2021-08-06 15:50:24</time>
      </trkpt>
      <trkpt lat="37.05529" lon="-3.35533">
        <ele>3155.6</ele>
        <time>2021-08-06 15:50:25</time>
      </trkpt>
      <trkpt lat="37.05528" lon="-3.35534">
        <ele>3155.6</ele>
        <time>2021-08-06 15:50:26</time>
      </trkpt>
      <trkpt lat="37.05528" lon="-3.35536">
        <ele>3155.6</ele>
        <time>2021-08-06 15:50:27</time>
      </trkpt>
      <trkpt lat="37.05528" lon="-3.35538">
        <ele>3155.6</ele>
        <time>2021-08-06 15:50:28</time>
      </trkpt>
      <trkpt lat="37.05527" lon="-3.35539">
        <ele>3155.6</ele>
        <time>2021-08-06 15:50:29</time>
      </trkpt>
      <trkpt lat="37.05527" lon="-3.3554">
        <ele>3156.2</ele>
        <time>2021-08-06 15:50:30</time>
      </trkpt>
      <trkpt lat="37.05526" lon="-3.35541">
        <ele>3156.4</ele>
        <time>2021-08-06 15:50:31</time>
      </trkpt>
      <trkpt lat="37.05526" lon="-3.35542">
        <ele>3156.6</ele>
        <time>2021-08-06 15:50:32</time>
      </trkpt>
      <trkpt lat="37.05525" lon="-3.35543">
        <ele>3156.6</ele>
        <time>2021-08-06 15:50:33</time>
      </trkpt>
      <trkpt lat="37.05524" lon="-3.35544">
        <ele>3156.6</ele>
        <time>2021-08-06 15:50:34</time>
      </trkpt>
      <trkpt lat="37.05523" lon="-3.35544">
        <ele>3156.8</ele>
        <time>2021-08-06 15:50:35</time>
      </trkpt>
      <trkpt lat="37.05523" lon="-3.35546">
        <ele>3156.8</ele>
        <time>2021-08-06 15:50:36</time>
      </trkpt>
      <trkpt lat="37.05522" lon="-3.35547">
        <ele>3157</ele>
        <time>2021-08-06 15:50:37</time>
      </trkpt>
      <trkpt lat="37.05521" lon="-3.35548">
        <ele>3157.2</ele>
        <time>2021-08-06 15:50:38</time>
      </trkpt>
      <trkpt lat="37.05521" lon="-3.35549">
        <ele>3157.2</ele>
        <time>2021-08-06 15:50:39</time>
      </trkpt>
      <trkpt lat="37.05521" lon="-3.35551">
        <ele>3157.2</ele>
        <time>2021-08-06 15:50:40</time>
      </trkpt>
      <trkpt lat="37.0552" lon="-3.35552">
        <ele>3157.2</ele>
        <time>2021-08-06 15:50:41</time>
      </trkpt>
      <trkpt lat="37.05519" lon="-3.35553">
        <ele>3157</ele>
        <time>2021-08-06 15:50:42</time>
      </trkpt>
      <trkpt lat="37.05519" lon="-3.35554">
        <ele>3157</ele>
        <time>2021-08-06 15:50:43</time>
      </trkpt>
      <trkpt lat="37.05518" lon="-3.35555">
        <ele>3157</ele>
        <time>2021-08-06 15:50:44</time>
      </trkpt>
      <trkpt lat="37.05517" lon="-3.35556">
        <ele>3157</ele>
        <time>2021-08-06 15:50:45</time>
      </trkpt>
      <trkpt lat="37.05516" lon="-3.35557">
        <ele>3157.2</ele>
        <time>2021-08-06 15:50:46</time>
      </trkpt>
      <trkpt lat="37.05516" lon="-3.35558">
        <ele>3157.2</ele>
        <time>2021-08-06 15:50:47</time>
      </trkpt>
      <trkpt lat="37.05515" lon="-3.35559">
        <ele>3157.4</ele>
        <time>2021-08-06 15:50:48</time>
      </trkpt>
      <trkpt lat="37.05514" lon="-3.35559">
        <ele>3157.4</ele>
        <time>2021-08-06 15:50:49</time>
      </trkpt>
      <trkpt lat="37.05513" lon="-3.3556">
        <ele>3157.6</ele>
        <time>2021-08-06 15:50:50</time>
      </trkpt>
      <trkpt lat="37.05512" lon="-3.3556">
        <ele>3157.6</ele>
        <time>2021-08-06 15:50:51</time>
      </trkpt>
      <trkpt lat="37.05511" lon="-3.35561">
        <ele>3157.8</ele>
        <time>2021-08-06 15:50:52</time>
      </trkpt>
      <trkpt lat="37.05511" lon="-3.35562">
        <ele>3157.8</ele>
        <time>2021-08-06 15:50:53</time>
      </trkpt>
      <trkpt lat="37.0551" lon="-3.35563">
        <ele>3157.8</ele>
        <time>2021-08-06 15:50:54</time>
      </trkpt>
      <trkpt lat="37.0551" lon="-3.35564">
        <ele>3157.8</ele>
        <time>2021-08-06 15:50:55</time>
      </trkpt>
      <trkpt lat="37.05509" lon="-3.35565">
        <ele>3158</ele>
        <time>2021-08-06 15:50:56</time>
      </trkpt>
      <trkpt lat="37.05509" lon="-3.35567">
        <ele>3158</ele>
        <time>2021-08-06 15:50:57</time>
      </trkpt>
      <trkpt lat="37.05508" lon="-3.35568">
        <ele>3158.2</ele>
        <time>2021-08-06 15:50:58</time>
      </trkpt>
      <trkpt lat="37.05508" lon="-3.35569">
        <ele>3158.2</ele>
        <time>2021-08-06 15:50:59</time>
      </trkpt>
      <trkpt lat="37.05507" lon="-3.35569">
        <ele>3158.2</ele>
        <time>2021-08-06 15:51:00</time>
      </trkpt>
      <trkpt lat="37.05506" lon="-3.35571">
        <ele>3158.4</ele>
        <time>2021-08-06 15:51:01</time>
      </trkpt>
      <trkpt lat="37.05505" lon="-3.35572">
        <ele>3158.4</ele>
        <time>2021-08-06 15:51:02</time>
      </trkpt>
      <trkpt lat="37.05505" lon="-3.35572">
        <ele>3158.4</ele>
        <time>2021-08-06 15:51:03</time>
      </trkpt>
      <trkpt lat="37.05504" lon="-3.35573">
        <ele>3158.4</ele>
        <time>2021-08-06 15:51:04</time>
      </trkpt>
      <trkpt lat="37.05503" lon="-3.35574">
        <ele>3158.6</ele>
        <time>2021-08-06 15:51:05</time>
      </trkpt>
      <trkpt lat="37.05502" lon="-3.35574">
        <ele>3158.6</ele>
        <time>2021-08-06 15:51:06</time>
      </trkpt>
      <trkpt lat="37.05502" lon="-3.35574">
        <ele>3158.6</ele>
        <time>2021-08-06 15:51:07</time>
      </trkpt>
      <trkpt lat="37.05501" lon="-3.35575">
        <ele>3158.6</ele>
        <time>2021-08-06 15:51:08</time>
      </trkpt>
      <trkpt lat="37.05501" lon="-3.35576">
        <ele>3158.8</ele>
        <time>2021-08-06 15:51:09</time>
      </trkpt>
      <trkpt lat="37.055" lon="-3.35577">
        <ele>3158.8</ele>
        <time>2021-08-06 15:51:10</time>
      </trkpt>
      <trkpt lat="37.055" lon="-3.35578">
        <ele>3158.8</ele>
        <time>2021-08-06 15:51:11</time>
      </trkpt>
      <trkpt lat="37.05499" lon="-3.35579">
        <ele>3159</ele>
        <time>2021-08-06 15:51:12</time>
      </trkpt>
      <trkpt lat="37.05499" lon="-3.3558">
        <ele>3159</ele>
        <time>2021-08-06 15:51:13</time>
      </trkpt>
      <trkpt lat="37.05498" lon="-3.35581">
        <ele>3159</ele>
        <time>2021-08-06 15:51:14</time>
      </trkpt>
      <trkpt lat="37.05498" lon="-3.35583">
        <ele>3159</ele>
        <time>2021-08-06 15:51:15</time>
      </trkpt>
      <trkpt lat="37.05498" lon="-3.35584">
        <ele>3159</ele>
        <time>2021-08-06 15:51:16</time>
      </trkpt>
      <trkpt lat="37.05498" lon="-3.35586">
        <ele>3159</ele>
        <time>2021-08-06 15:51:17</time>
      </trkpt>
      <trkpt lat="37.05498" lon="-3.35587">
        <ele>3159.2</ele>
        <time>2021-08-06 15:51:18</time>
      </trkpt>
      <trkpt lat="37.05498" lon="-3.35589">
        <ele>3159.2</ele>
        <time>2021-08-06 15:51:19</time>
      </trkpt>
      <trkpt lat="37.05498" lon="-3.3559">
        <ele>3159.2</ele>
        <time>2021-08-06 15:51:20</time>
      </trkpt>
      <trkpt lat="37.05498" lon="-3.35592">
        <ele>3159.2</ele>
        <time>2021-08-06 15:51:21</time>
      </trkpt>
      <trkpt lat="37.05498" lon="-3.35594">
        <ele>3159.2</ele>
        <time>2021-08-06 15:51:22</time>
      </trkpt>
      <trkpt lat="37.05498" lon="-3.35595">
        <ele>3159.2</ele>
        <time>2021-08-06 15:51:23</time>
      </trkpt>
      <trkpt lat="37.05497" lon="-3.35596">
        <ele>3159.2</ele>
        <time>2021-08-06 15:51:24</time>
      </trkpt>
      <trkpt lat="37.05497" lon="-3.35598">
        <ele>3159.2</ele>
        <time>2021-08-06 15:51:25</time>
      </trkpt>
      <trkpt lat="37.05497" lon="-3.356">
        <ele>3159.2</ele>
        <time>2021-08-06 15:51:26</time>
      </trkpt>
      <trkpt lat="37.05497" lon="-3.35601">
        <ele>3159.2</ele>
        <time>2021-08-06 15:51:27</time>
      </trkpt>
      <trkpt lat="37.05496" lon="-3.35603">
        <ele>3159.4</ele>
        <time>2021-08-06 15:51:28</time>
      </trkpt>
      <trkpt lat="37.05496" lon="-3.35604">
        <ele>3159.4</ele>
        <time>2021-08-06 15:51:29</time>
      </trkpt>
      <trkpt lat="37.05496" lon="-3.35606">
        <ele>3159.6</ele>
        <time>2021-08-06 15:51:30</time>
      </trkpt>
      <trkpt lat="37.05496" lon="-3.35607">
        <ele>3159.6</ele>
        <time>2021-08-06 15:51:31</time>
      </trkpt>
      <trkpt lat="37.05495" lon="-3.35608">
        <ele>3159.6</ele>
        <time>2021-08-06 15:51:32</time>
      </trkpt>
      <trkpt lat="37.05494" lon="-3.3561">
        <ele>3159.6</ele>
        <time>2021-08-06 15:51:33</time>
      </trkpt>
      <trkpt lat="37.05494" lon="-3.35611">
        <ele>3159.6</ele>
        <time>2021-08-06 15:51:34</time>
      </trkpt>
      <trkpt lat="37.05494" lon="-3.35612">
        <ele>3159.4</ele>
        <time>2021-08-06 15:51:35</time>
      </trkpt>
      <trkpt lat="37.05494" lon="-3.35613">
        <ele>3159.4</ele>
        <time>2021-08-06 15:51:36</time>
      </trkpt>
      <trkpt lat="37.05493" lon="-3.35615">
        <ele>3159.4</ele>
        <time>2021-08-06 15:51:37</time>
      </trkpt>
      <trkpt lat="37.05493" lon="-3.35617">
        <ele>3159.4</ele>
        <time>2021-08-06 15:51:38</time>
      </trkpt>
      <trkpt lat="37.05493" lon="-3.35618">
        <ele>3159.4</ele>
        <time>2021-08-06 15:51:39</time>
      </trkpt>
      <trkpt lat="37.05493" lon="-3.35619">
        <ele>3159.4</ele>
        <time>2021-08-06 15:51:40</time>
      </trkpt>
      <trkpt lat="37.05493" lon="-3.3562">
        <ele>3159.6</ele>
        <time>2021-08-06 15:51:41</time>
      </trkpt>
      <trkpt lat="37.05492" lon="-3.35622">
        <ele>3159.6</ele>
        <time>2021-08-06 15:51:42</time>
      </trkpt>
      <trkpt lat="37.05492" lon="-3.35623">
        <ele>3159.6</ele>
        <time>2021-08-06 15:51:43</time>
      </trkpt>
      <trkpt lat="37.05492" lon="-3.35624">
        <ele>3159.6</ele>
        <time>2021-08-06 15:51:44</time>
      </trkpt>
      <trkpt lat="37.05491" lon="-3.35625">
        <ele>3159.6</ele>
        <time>2021-08-06 15:51:45</time>
      </trkpt>
      <trkpt lat="37.05491" lon="-3.35626">
        <ele>3159.8</ele>
        <time>2021-08-06 15:51:46</time>
      </trkpt>
      <trkpt lat="37.05491" lon="-3.35627">
        <ele>3160</ele>
        <time>2021-08-06 15:51:47</time>
      </trkpt>
      <trkpt lat="37.0549" lon="-3.35629">
        <ele>3160</ele>
        <time>2021-08-06 15:51:48</time>
      </trkpt>
      <trkpt lat="37.0549" lon="-3.3563">
        <ele>3160</ele>
        <time>2021-08-06 15:51:49</time>
      </trkpt>
      <trkpt lat="37.0549" lon="-3.35631">
        <ele>3160</ele>
        <time>2021-08-06 15:51:50</time>
      </trkpt>
      <trkpt lat="37.0549" lon="-3.35633">
        <ele>3160.2</ele>
        <time>2021-08-06 15:51:51</time>
      </trkpt>
      <trkpt lat="37.0549" lon="-3.35635">
        <ele>3160.2</ele>
        <time>2021-08-06 15:51:52</time>
      </trkpt>
      <trkpt lat="37.0549" lon="-3.35636">
        <ele>3160.2</ele>
        <time>2021-08-06 15:51:53</time>
      </trkpt>
      <trkpt lat="37.0549" lon="-3.35636">
        <ele>3160</ele>
        <time>2021-08-06 15:51:54</time>
      </trkpt>
      <trkpt lat="37.0549" lon="-3.35637">
        <ele>3160</ele>
        <time>2021-08-06 15:51:55</time>
      </trkpt>
      <trkpt lat="37.0549" lon="-3.35637">
        <ele>3160</ele>
        <time>2021-08-06 15:51:56</time>
      </trkpt>
      <trkpt lat="37.05489" lon="-3.35638">
        <ele>3160</ele>
        <time>2021-08-06 15:51:57</time>
      </trkpt>
      <trkpt lat="37.05489" lon="-3.3564">
        <ele>3160</ele>
        <time>2021-08-06 15:51:58</time>
      </trkpt>
      <trkpt lat="37.05489" lon="-3.35641">
        <ele>3160</ele>
        <time>2021-08-06 15:51:59</time>
      </trkpt>
      <trkpt lat="37.05489" lon="-3.35643">
        <ele>3160.2</ele>
        <time>2021-08-06 15:52:00</time>
      </trkpt>
      <trkpt lat="37.0549" lon="-3.35644">
        <ele>3160.2</ele>
        <time>2021-08-06 15:52:01</time>
      </trkpt>
      <trkpt lat="37.0549" lon="-3.35645">
        <ele>3160.4</ele>
        <time>2021-08-06 15:52:02</time>
      </trkpt>
      <trkpt lat="37.0549" lon="-3.35646">
        <ele>3160.4</ele>
        <time>2021-08-06 15:52:03</time>
      </trkpt>
      <trkpt lat="37.0549" lon="-3.35647">
        <ele>3160.4</ele>
        <time>2021-08-06 15:52:04</time>
      </trkpt>
      <trkpt lat="37.0549" lon="-3.35649">
        <ele>3160.6</ele>
        <time>2021-08-06 15:52:05</time>
      </trkpt>
      <trkpt lat="37.05489" lon="-3.3565">
        <ele>3160.6</ele>
        <time>2021-08-06 15:52:06</time>
      </trkpt>
      <trkpt lat="37.05489" lon="-3.35651">
        <ele>3160.6</ele>
        <time>2021-08-06 15:52:07</time>
      </trkpt>
      <trkpt lat="37.05489" lon="-3.35652">
        <ele>3160.6</ele>
        <time>2021-08-06 15:52:08</time>
      </trkpt>
      <trkpt lat="37.05488" lon="-3.35652">
        <ele>3160.6</ele>
        <time>2021-08-06 15:52:09</time>
      </trkpt>
      <trkpt lat="37.05488" lon="-3.35654">
        <ele>3160.6</ele>
        <time>2021-08-06 15:52:10</time>
      </trkpt>
      <trkpt lat="37.05487" lon="-3.35655">
        <ele>3160.8</ele>
        <time>2021-08-06 15:52:11</time>
      </trkpt>
      <trkpt lat="37.05487" lon="-3.35656">
        <ele>3160.8</ele>
        <time>2021-08-06 15:52:12</time>
      </trkpt>
      <trkpt lat="37.05486" lon="-3.35657">
        <ele>3160.6</ele>
        <time>2021-08-06 15:52:13</time>
      </trkpt>
      <trkpt lat="37.05486" lon="-3.35658">
        <ele>3160.8</ele>
        <time>2021-08-06 15:52:14</time>
      </trkpt>
      <trkpt lat="37.05486" lon="-3.35659">
        <ele>3161</ele>
        <time>2021-08-06 15:52:15</time>
      </trkpt>
      <trkpt lat="37.05485" lon="-3.3566">
        <ele>3161.2</ele>
        <time>2021-08-06 15:52:16</time>
      </trkpt>
      <trkpt lat="37.05485" lon="-3.35662">
        <ele>3161.2</ele>
        <time>2021-08-06 15:52:17</time>
      </trkpt>
      <trkpt lat="37.05485" lon="-3.35664">
        <ele>3161.4</ele>
        <time>2021-08-06 15:52:18</time>
      </trkpt>
      <trkpt lat="37.05485" lon="-3.35665">
        <ele>3161.4</ele>
        <time>2021-08-06 15:52:19</time>
      </trkpt>
      <trkpt lat="37.05485" lon="-3.35667">
        <ele>3161.6</ele>
        <time>2021-08-06 15:52:20</time>
      </trkpt>
      <trkpt lat="37.05485" lon="-3.35668">
        <ele>3161.8</ele>
        <time>2021-08-06 15:52:21</time>
      </trkpt>
      <trkpt lat="37.05484" lon="-3.3567">
        <ele>3161.8</ele>
        <time>2021-08-06 15:52:22</time>
      </trkpt>
      <trkpt lat="37.05484" lon="-3.35671">
        <ele>3161.8</ele>
        <time>2021-08-06 15:52:23</time>
      </trkpt>
      <trkpt lat="37.05484" lon="-3.35672">
        <ele>3161.8</ele>
        <time>2021-08-06 15:52:24</time>
      </trkpt>
      <trkpt lat="37.05484" lon="-3.35673">
        <ele>3161.8</ele>
        <time>2021-08-06 15:52:25</time>
      </trkpt>
      <trkpt lat="37.05484" lon="-3.35674">
        <ele>3161.8</ele>
        <time>2021-08-06 15:52:26</time>
      </trkpt>
      <trkpt lat="37.05484" lon="-3.35676">
        <ele>3161.8</ele>
        <time>2021-08-06 15:52:27</time>
      </trkpt>
      <trkpt lat="37.05484" lon="-3.35677">
        <ele>3161.8</ele>
        <time>2021-08-06 15:52:28</time>
      </trkpt>
      <trkpt lat="37.05485" lon="-3.35679">
        <ele>3161.8</ele>
        <time>2021-08-06 15:52:29</time>
      </trkpt>
      <trkpt lat="37.05485" lon="-3.3568">
        <ele>3161.8</ele>
        <time>2021-08-06 15:52:30</time>
      </trkpt>
      <trkpt lat="37.05484" lon="-3.35681">
        <ele>3161.8</ele>
        <time>2021-08-06 15:52:31</time>
      </trkpt>
      <trkpt lat="37.05484" lon="-3.35683">
        <ele>3162</ele>
        <time>2021-08-06 15:52:32</time>
      </trkpt>
      <trkpt lat="37.05484" lon="-3.35684">
        <ele>3162</ele>
        <time>2021-08-06 15:52:33</time>
      </trkpt>
      <trkpt lat="37.05484" lon="-3.35686">
        <ele>3162.2</ele>
        <time>2021-08-06 15:52:34</time>
      </trkpt>
      <trkpt lat="37.05484" lon="-3.35687">
        <ele>3162.2</ele>
        <time>2021-08-06 15:52:35</time>
      </trkpt>
      <trkpt lat="37.05483" lon="-3.35688">
        <ele>3162.2</ele>
        <time>2021-08-06 15:52:36</time>
      </trkpt>
      <trkpt lat="37.05483" lon="-3.3569">
        <ele>3162.2</ele>
        <time>2021-08-06 15:52:37</time>
      </trkpt>
      <trkpt lat="37.05483" lon="-3.35691">
        <ele>3162.2</ele>
        <time>2021-08-06 15:52:38</time>
      </trkpt>
      <trkpt lat="37.05483" lon="-3.35692">
        <ele>3162.2</ele>
        <time>2021-08-06 15:52:39</time>
      </trkpt>
      <trkpt lat="37.05483" lon="-3.35693">
        <ele>3162.2</ele>
        <time>2021-08-06 15:52:40</time>
      </trkpt>
      <trkpt lat="37.05482" lon="-3.35695">
        <ele>3162.2</ele>
        <time>2021-08-06 15:52:41</time>
      </trkpt>
      <trkpt lat="37.05482" lon="-3.35696">
        <ele>3162.2</ele>
        <time>2021-08-06 15:52:42</time>
      </trkpt>
      <trkpt lat="37.05482" lon="-3.35697">
        <ele>3162.4</ele>
        <time>2021-08-06 15:52:43</time>
      </trkpt>
      <trkpt lat="37.05482" lon="-3.35698">
        <ele>3162.6</ele>
        <time>2021-08-06 15:52:44</time>
      </trkpt>
      <trkpt lat="37.05482" lon="-3.35699">
        <ele>3162.6</ele>
        <time>2021-08-06 15:52:45</time>
      </trkpt>
      <trkpt lat="37.05481" lon="-3.357">
        <ele>3162.6</ele>
        <time>2021-08-06 15:52:46</time>
      </trkpt>
      <trkpt lat="37.0548" lon="-3.35701">
        <ele>3162.6</ele>
        <time>2021-08-06 15:52:47</time>
      </trkpt>
      <trkpt lat="37.0548" lon="-3.35703">
        <ele>3162.6</ele>
        <time>2021-08-06 15:52:48</time>
      </trkpt>
      <trkpt lat="37.05479" lon="-3.35704">
        <ele>3162.4</ele>
        <time>2021-08-06 15:52:49</time>
      </trkpt>
      <trkpt lat="37.05478" lon="-3.35705">
        <ele>3162.4</ele>
        <time>2021-08-06 15:52:50</time>
      </trkpt>
      <trkpt lat="37.05477" lon="-3.35706">
        <ele>3162.2</ele>
        <time>2021-08-06 15:52:51</time>
      </trkpt>
      <trkpt lat="37.05477" lon="-3.35707">
        <ele>3162.2</ele>
        <time>2021-08-06 15:52:52</time>
      </trkpt>
      <trkpt lat="37.05477" lon="-3.35709">
        <ele>3162.2</ele>
        <time>2021-08-06 15:52:53</time>
      </trkpt>
      <trkpt lat="37.05477" lon="-3.35711">
        <ele>3162.2</ele>
        <time>2021-08-06 15:52:54</time>
      </trkpt>
      <trkpt lat="37.05476" lon="-3.35712">
        <ele>3162.2</ele>
        <time>2021-08-06 15:52:55</time>
      </trkpt>
      <trkpt lat="37.05476" lon="-3.35713">
        <ele>3162.2</ele>
        <time>2021-08-06 15:52:56</time>
      </trkpt>
      <trkpt lat="37.05475" lon="-3.35714">
        <ele>3162.6</ele>
        <time>2021-08-06 15:52:57</time>
      </trkpt>
      <trkpt lat="37.05475" lon="-3.35715">
        <ele>3162.6</ele>
        <time>2021-08-06 15:52:58</time>
      </trkpt>
      <trkpt lat="37.05475" lon="-3.35715">
        <ele>3163</ele>
        <time>2021-08-06 15:52:59</time>
      </trkpt>
      <trkpt lat="37.05474" lon="-3.35716">
        <ele>3163</ele>
        <time>2021-08-06 15:53:00</time>
      </trkpt>
      <trkpt lat="37.05474" lon="-3.35718">
        <ele>3163.2</ele>
        <time>2021-08-06 15:53:01</time>
      </trkpt>
      <trkpt lat="37.05474" lon="-3.35719">
        <ele>3163</ele>
        <time>2021-08-06 15:53:02</time>
      </trkpt>
      <trkpt lat="37.05474" lon="-3.35721">
        <ele>3163</ele>
        <time>2021-08-06 15:53:03</time>
      </trkpt>
      <trkpt lat="37.05474" lon="-3.35722">
        <ele>3162.8</ele>
        <time>2021-08-06 15:53:04</time>
      </trkpt>
      <trkpt lat="37.05473" lon="-3.35723">
        <ele>3163</ele>
        <time>2021-08-06 15:53:05</time>
      </trkpt>
      <trkpt lat="37.05473" lon="-3.35724">
        <ele>3163</ele>
        <time>2021-08-06 15:53:06</time>
      </trkpt>
      <trkpt lat="37.05473" lon="-3.35725">
        <ele>3162.8</ele>
        <time>2021-08-06 15:53:07</time>
      </trkpt>
      <trkpt lat="37.05472" lon="-3.35727">
        <ele>3163</ele>
        <time>2021-08-06 15:53:08</time>
      </trkpt>
      <trkpt lat="37.05472" lon="-3.35728">
        <ele>3163</ele>
        <time>2021-08-06 15:53:09</time>
      </trkpt>
      <trkpt lat="37.05472" lon="-3.35729">
        <ele>3163</ele>
        <time>2021-08-06 15:53:10</time>
      </trkpt>
      <trkpt lat="37.05472" lon="-3.3573">
        <ele>3163</ele>
        <time>2021-08-06 15:53:11</time>
      </trkpt>
      <trkpt lat="37.05472" lon="-3.35732">
        <ele>3163</ele>
        <time>2021-08-06 15:53:12</time>
      </trkpt>
      <trkpt lat="37.05471" lon="-3.35733">
        <ele>3163.2</ele>
        <time>2021-08-06 15:53:13</time>
      </trkpt>
      <trkpt lat="37.05471" lon="-3.35734">
        <ele>3163.2</ele>
        <time>2021-08-06 15:53:14</time>
      </trkpt>
      <trkpt lat="37.0547" lon="-3.35735">
        <ele>3163.2</ele>
        <time>2021-08-06 15:53:15</time>
      </trkpt>
      <trkpt lat="37.05469" lon="-3.35737">
        <ele>3163.2</ele>
        <time>2021-08-06 15:53:16</time>
      </trkpt>
      <trkpt lat="37.05469" lon="-3.35738">
        <ele>3163.4</ele>
        <time>2021-08-06 15:53:17</time>
      </trkpt>
      <trkpt lat="37.05468" lon="-3.35739">
        <ele>3163.4</ele>
        <time>2021-08-06 15:53:18</time>
      </trkpt>
      <trkpt lat="37.05468" lon="-3.3574">
        <ele>3163.4</ele>
        <time>2021-08-06 15:53:19</time>
      </trkpt>
      <trkpt lat="37.05467" lon="-3.35742">
        <ele>3163.4</ele>
        <time>2021-08-06 15:53:20</time>
      </trkpt>
      <trkpt lat="37.05467" lon="-3.35743">
        <ele>3163.6</ele>
        <time>2021-08-06 15:53:21</time>
      </trkpt>
      <trkpt lat="37.05467" lon="-3.35744">
        <ele>3163.6</ele>
        <time>2021-08-06 15:53:22</time>
      </trkpt>
      <trkpt lat="37.05466" lon="-3.35746">
        <ele>3163.8</ele>
        <time>2021-08-06 15:53:23</time>
      </trkpt>
      <trkpt lat="37.05466" lon="-3.35747">
        <ele>3163.6</ele>
        <time>2021-08-06 15:53:24</time>
      </trkpt>
      <trkpt lat="37.05466" lon="-3.35748">
        <ele>3163.8</ele>
        <time>2021-08-06 15:53:25</time>
      </trkpt>
      <trkpt lat="37.05466" lon="-3.35749">
        <ele>3163.8</ele>
        <time>2021-08-06 15:53:26</time>
      </trkpt>
      <trkpt lat="37.05466" lon="-3.3575">
        <ele>3163.8</ele>
        <time>2021-08-06 15:53:27</time>
      </trkpt>
      <trkpt lat="37.05467" lon="-3.35752">
        <ele>3163.8</ele>
        <time>2021-08-06 15:53:28</time>
      </trkpt>
      <trkpt lat="37.05467" lon="-3.35753">
        <ele>3163.8</ele>
        <time>2021-08-06 15:53:29</time>
      </trkpt>
      <trkpt lat="37.05466" lon="-3.35754">
        <ele>3163.6</ele>
        <time>2021-08-06 15:53:30</time>
      </trkpt>
      <trkpt lat="37.05467" lon="-3.35756">
        <ele>3163.6</ele>
        <time>2021-08-06 15:53:31</time>
      </trkpt>
      <trkpt lat="37.05466" lon="-3.35757">
        <ele>3163.6</ele>
        <time>2021-08-06 15:53:32</time>
      </trkpt>
      <trkpt lat="37.05466" lon="-3.35758">
        <ele>3163.6</ele>
        <time>2021-08-06 15:53:33</time>
      </trkpt>
      <trkpt lat="37.05465" lon="-3.35759">
        <ele>3163.8</ele>
        <time>2021-08-06 15:53:34</time>
      </trkpt>
      <trkpt lat="37.05465" lon="-3.3576">
        <ele>3164</ele>
        <time>2021-08-06 15:53:35</time>
      </trkpt>
      <trkpt lat="37.05464" lon="-3.35762">
        <ele>3164.2</ele>
        <time>2021-08-06 15:53:36</time>
      </trkpt>
      <trkpt lat="37.05464" lon="-3.35763">
        <ele>3164.2</ele>
        <time>2021-08-06 15:53:37</time>
      </trkpt>
      <trkpt lat="37.05464" lon="-3.35764">
        <ele>3164.2</ele>
        <time>2021-08-06 15:53:38</time>
      </trkpt>
      <trkpt lat="37.05463" lon="-3.35766">
        <ele>3164.2</ele>
        <time>2021-08-06 15:53:39</time>
      </trkpt>
      <trkpt lat="37.05463" lon="-3.35767">
        <ele>3164.2</ele>
        <time>2021-08-06 15:53:40</time>
      </trkpt>
      <trkpt lat="37.05463" lon="-3.35769">
        <ele>3164.2</ele>
        <time>2021-08-06 15:53:41</time>
      </trkpt>
      <trkpt lat="37.05463" lon="-3.3577">
        <ele>3164.2</ele>
        <time>2021-08-06 15:53:42</time>
      </trkpt>
      <trkpt lat="37.05462" lon="-3.35771">
        <ele>3164.2</ele>
        <time>2021-08-06 15:53:43</time>
      </trkpt>
      <trkpt lat="37.05462" lon="-3.35773">
        <ele>3164.4</ele>
        <time>2021-08-06 15:53:44</time>
      </trkpt>
      <trkpt lat="37.05461" lon="-3.35774">
        <ele>3164.4</ele>
        <time>2021-08-06 15:53:45</time>
      </trkpt>
      <trkpt lat="37.0546" lon="-3.35775">
        <ele>3164.6</ele>
        <time>2021-08-06 15:53:46</time>
      </trkpt>
      <trkpt lat="37.05459" lon="-3.35776">
        <ele>3164.6</ele>
        <time>2021-08-06 15:53:47</time>
      </trkpt>
      <trkpt lat="37.05458" lon="-3.35777">
        <ele>3164.8</ele>
        <time>2021-08-06 15:53:48</time>
      </trkpt>
      <trkpt lat="37.05458" lon="-3.35778">
        <ele>3164.8</ele>
        <time>2021-08-06 15:53:49</time>
      </trkpt>
      <trkpt lat="37.05457" lon="-3.35779">
        <ele>3165</ele>
        <time>2021-08-06 15:53:50</time>
      </trkpt>
      <trkpt lat="37.05456" lon="-3.3578">
        <ele>3165</ele>
        <time>2021-08-06 15:53:51</time>
      </trkpt>
      <trkpt lat="37.05456" lon="-3.35781">
        <ele>3165</ele>
        <time>2021-08-06 15:53:52</time>
      </trkpt>
      <trkpt lat="37.05455" lon="-3.35782">
        <ele>3165</ele>
        <time>2021-08-06 15:53:53</time>
      </trkpt>
      <trkpt lat="37.05455" lon="-3.35783">
        <ele>3165</ele>
        <time>2021-08-06 15:53:54</time>
      </trkpt>
      <trkpt lat="37.05454" lon="-3.35784">
        <ele>3165</ele>
        <time>2021-08-06 15:53:55</time>
      </trkpt>
      <trkpt lat="37.05453" lon="-3.35785">
        <ele>3165</ele>
        <time>2021-08-06 15:53:56</time>
      </trkpt>
      <trkpt lat="37.05452" lon="-3.35786">
        <ele>3164.8</ele>
        <time>2021-08-06 15:53:57</time>
      </trkpt>
      <trkpt lat="37.05452" lon="-3.35787">
        <ele>3164.8</ele>
        <time>2021-08-06 15:53:58</time>
      </trkpt>
      <trkpt lat="37.05451" lon="-3.35788">
        <ele>3165</ele>
        <time>2021-08-06 15:53:59</time>
      </trkpt>
      <trkpt lat="37.05451" lon="-3.35789">
        <ele>3165</ele>
        <time>2021-08-06 15:54:00</time>
      </trkpt>
      <trkpt lat="37.05451" lon="-3.3579">
        <ele>3165.2</ele>
        <time>2021-08-06 15:54:01</time>
      </trkpt>
      <trkpt lat="37.0545" lon="-3.35792">
        <ele>3165.4</ele>
        <time>2021-08-06 15:54:02</time>
      </trkpt>
      <trkpt lat="37.0545" lon="-3.35793">
        <ele>3165.6</ele>
        <time>2021-08-06 15:54:03</time>
      </trkpt>
      <trkpt lat="37.05449" lon="-3.35794">
        <ele>3165.6</ele>
        <time>2021-08-06 15:54:04</time>
      </trkpt>
      <trkpt lat="37.05448" lon="-3.35795">
        <ele>3165.6</ele>
        <time>2021-08-06 15:54:05</time>
      </trkpt>
      <trkpt lat="37.05447" lon="-3.35796">
        <ele>3165.6</ele>
        <time>2021-08-06 15:54:06</time>
      </trkpt>
      <trkpt lat="37.05447" lon="-3.35797">
        <ele>3165.6</ele>
        <time>2021-08-06 15:54:07</time>
      </trkpt>
      <trkpt lat="37.05446" lon="-3.35798">
        <ele>3165.6</ele>
        <time>2021-08-06 15:54:08</time>
      </trkpt>
      <trkpt lat="37.05446" lon="-3.35799">
        <ele>3165.4</ele>
        <time>2021-08-06 15:54:09</time>
      </trkpt>
      <trkpt lat="37.05445" lon="-3.358">
        <ele>3165.6</ele>
        <time>2021-08-06 15:54:10</time>
      </trkpt>
      <trkpt lat="37.05444" lon="-3.35801">
        <ele>3165.8</ele>
        <time>2021-08-06 15:54:11</time>
      </trkpt>
      <trkpt lat="37.05443" lon="-3.35802">
        <ele>3165.8</ele>
        <time>2021-08-06 15:54:12</time>
      </trkpt>
      <trkpt lat="37.05442" lon="-3.35802">
        <ele>3166</ele>
        <time>2021-08-06 15:54:13</time>
      </trkpt>
      <trkpt lat="37.05441" lon="-3.35803">
        <ele>3166</ele>
        <time>2021-08-06 15:54:14</time>
      </trkpt>
      <trkpt lat="37.0544" lon="-3.35804">
        <ele>3166</ele>
        <time>2021-08-06 15:54:15</time>
      </trkpt>
      <trkpt lat="37.0544" lon="-3.35805">
        <ele>3166</ele>
        <time>2021-08-06 15:54:16</time>
      </trkpt>
      <trkpt lat="37.05439" lon="-3.35805">
        <ele>3166</ele>
        <time>2021-08-06 15:54:17</time>
      </trkpt>
      <trkpt lat="37.05438" lon="-3.35806">
        <ele>3166</ele>
        <time>2021-08-06 15:54:18</time>
      </trkpt>
      <trkpt lat="37.05438" lon="-3.35807">
        <ele>3165.8</ele>
        <time>2021-08-06 15:54:19</time>
      </trkpt>
      <trkpt lat="37.05438" lon="-3.35808">
        <ele>3165.8</ele>
        <time>2021-08-06 15:54:20</time>
      </trkpt>
      <trkpt lat="37.05437" lon="-3.3581">
        <ele>3165.8</ele>
        <time>2021-08-06 15:54:21</time>
      </trkpt>
      <trkpt lat="37.05436" lon="-3.35811">
        <ele>3166</ele>
        <time>2021-08-06 15:54:22</time>
      </trkpt>
      <trkpt lat="37.05436" lon="-3.35812">
        <ele>3166</ele>
        <time>2021-08-06 15:54:23</time>
      </trkpt>
      <trkpt lat="37.05436" lon="-3.35813">
        <ele>3166</ele>
        <time>2021-08-06 15:54:24</time>
      </trkpt>
      <trkpt lat="37.05435" lon="-3.35815">
        <ele>3166.2</ele>
        <time>2021-08-06 15:54:25</time>
      </trkpt>
      <trkpt lat="37.05435" lon="-3.35816">
        <ele>3166.2</ele>
        <time>2021-08-06 15:54:26</time>
      </trkpt>
      <trkpt lat="37.05434" lon="-3.35817">
        <ele>3166.4</ele>
        <time>2021-08-06 15:54:27</time>
      </trkpt>
      <trkpt lat="37.05434" lon="-3.35819">
        <ele>3166.4</ele>
        <time>2021-08-06 15:54:28</time>
      </trkpt>
      <trkpt lat="37.05433" lon="-3.3582">
        <ele>3166.4</ele>
        <time>2021-08-06 15:54:29</time>
      </trkpt>
      <trkpt lat="37.05432" lon="-3.35822">
        <ele>3166.4</ele>
        <time>2021-08-06 15:54:30</time>
      </trkpt>
      <trkpt lat="37.05431" lon="-3.35823">
        <ele>3166.4</ele>
        <time>2021-08-06 15:54:31</time>
      </trkpt>
      <trkpt lat="37.0543" lon="-3.35824">
        <ele>3166.4</ele>
        <time>2021-08-06 15:54:32</time>
      </trkpt>
      <trkpt lat="37.0543" lon="-3.35825">
        <ele>3166.6</ele>
        <time>2021-08-06 15:54:33</time>
      </trkpt>
      <trkpt lat="37.0543" lon="-3.35827">
        <ele>3167</ele>
        <time>2021-08-06 15:54:34</time>
      </trkpt>
      <trkpt lat="37.05429" lon="-3.35829">
        <ele>3167.2</ele>
        <time>2021-08-06 15:54:35</time>
      </trkpt>
      <trkpt lat="37.05429" lon="-3.3583">
        <ele>3167.4</ele>
        <time>2021-08-06 15:54:36</time>
      </trkpt>
      <trkpt lat="37.05428" lon="-3.35831">
        <ele>3167.6</ele>
        <time>2021-08-06 15:54:37</time>
      </trkpt>
      <trkpt lat="37.05427" lon="-3.35832">
        <ele>3167.6</ele>
        <time>2021-08-06 15:54:38</time>
      </trkpt>
      <trkpt lat="37.05427" lon="-3.35833">
        <ele>3167.6</ele>
        <time>2021-08-06 15:54:39</time>
      </trkpt>
      <trkpt lat="37.05426" lon="-3.35834">
        <ele>3167.6</ele>
        <time>2021-08-06 15:54:40</time>
      </trkpt>
      <trkpt lat="37.05425" lon="-3.35835">
        <ele>3167.4</ele>
        <time>2021-08-06 15:54:41</time>
      </trkpt>
      <trkpt lat="37.05424" lon="-3.35836">
        <ele>3167.4</ele>
        <time>2021-08-06 15:54:42</time>
      </trkpt>
      <trkpt lat="37.05425" lon="-3.35837">
        <ele>3167.4</ele>
        <time>2021-08-06 15:54:43</time>
      </trkpt>
      <trkpt lat="37.05425" lon="-3.35838">
        <ele>3167.4</ele>
        <time>2021-08-06 15:54:44</time>
      </trkpt>
      <trkpt lat="37.05424" lon="-3.3584">
        <ele>3167.6</ele>
        <time>2021-08-06 15:54:45</time>
      </trkpt>
      <trkpt lat="37.05424" lon="-3.35841">
        <ele>3167.8</ele>
        <time>2021-08-06 15:54:46</time>
      </trkpt>
      <trkpt lat="37.05423" lon="-3.35842">
        <ele>3167.8</ele>
        <time>2021-08-06 15:54:47</time>
      </trkpt>
      <trkpt lat="37.05423" lon="-3.35843">
        <ele>3168</ele>
        <time>2021-08-06 15:54:48</time>
      </trkpt>
      <trkpt lat="37.05423" lon="-3.35845">
        <ele>3168</ele>
        <time>2021-08-06 15:54:49</time>
      </trkpt>
      <trkpt lat="37.05422" lon="-3.35846">
        <ele>3168</ele>
        <time>2021-08-06 15:54:50</time>
      </trkpt>
      <trkpt lat="37.05421" lon="-3.35847">
        <ele>3168</ele>
        <time>2021-08-06 15:54:51</time>
      </trkpt>
      <trkpt lat="37.05421" lon="-3.35849">
        <ele>3168</ele>
        <time>2021-08-06 15:54:52</time>
      </trkpt>
      <trkpt lat="37.0542" lon="-3.3585">
        <ele>3168</ele>
        <time>2021-08-06 15:54:53</time>
      </trkpt>
      <trkpt lat="37.0542" lon="-3.35851">
        <ele>3168</ele>
        <time>2021-08-06 15:54:54</time>
      </trkpt>
      <trkpt lat="37.0542" lon="-3.35852">
        <ele>3168</ele>
        <time>2021-08-06 15:54:55</time>
      </trkpt>
      <trkpt lat="37.05419" lon="-3.35853">
        <ele>3168.2</ele>
        <time>2021-08-06 15:54:56</time>
      </trkpt>
      <trkpt lat="37.05418" lon="-3.35854">
        <ele>3168.2</ele>
        <time>2021-08-06 15:54:57</time>
      </trkpt>
      <trkpt lat="37.05417" lon="-3.35855">
        <ele>3168.2</ele>
        <time>2021-08-06 15:54:58</time>
      </trkpt>
      <trkpt lat="37.05416" lon="-3.35856">
        <ele>3168.4</ele>
        <time>2021-08-06 15:54:59</time>
      </trkpt>
      <trkpt lat="37.05416" lon="-3.35857">
        <ele>3168.2</ele>
        <time>2021-08-06 15:55:00</time>
      </trkpt>
      <trkpt lat="37.05415" lon="-3.35858">
        <ele>3168.2</ele>
        <time>2021-08-06 15:55:01</time>
      </trkpt>
      <trkpt lat="37.05414" lon="-3.35859">
        <ele>3168.2</ele>
        <time>2021-08-06 15:55:02</time>
      </trkpt>
      <trkpt lat="37.05413" lon="-3.3586">
        <ele>3168.2</ele>
        <time>2021-08-06 15:55:03</time>
      </trkpt>
      <trkpt lat="37.05413" lon="-3.35861">
        <ele>3168.2</ele>
        <time>2021-08-06 15:55:04</time>
      </trkpt>
      <trkpt lat="37.05412" lon="-3.35862">
        <ele>3168.2</ele>
        <time>2021-08-06 15:55:05</time>
      </trkpt>
      <trkpt lat="37.05411" lon="-3.35862">
        <ele>3168.2</ele>
        <time>2021-08-06 15:55:06</time>
      </trkpt>
      <trkpt lat="37.05411" lon="-3.35863">
        <ele>3168.2</ele>
        <time>2021-08-06 15:55:07</time>
      </trkpt>
      <trkpt lat="37.0541" lon="-3.35864">
        <ele>3168.2</ele>
        <time>2021-08-06 15:55:08</time>
      </trkpt>
      <trkpt lat="37.0541" lon="-3.35865">
        <ele>3168.4</ele>
        <time>2021-08-06 15:55:09</time>
      </trkpt>
      <trkpt lat="37.05409" lon="-3.35866">
        <ele>3168.6</ele>
        <time>2021-08-06 15:55:10</time>
      </trkpt>
      <trkpt lat="37.05409" lon="-3.35867">
        <ele>3168.6</ele>
        <time>2021-08-06 15:55:11</time>
      </trkpt>
      <trkpt lat="37.05408" lon="-3.35868">
        <ele>3168.6</ele>
        <time>2021-08-06 15:55:12</time>
      </trkpt>
      <trkpt lat="37.05408" lon="-3.3587">
        <ele>3168.6</ele>
        <time>2021-08-06 15:55:13</time>
      </trkpt>
      <trkpt lat="37.05407" lon="-3.3587">
        <ele>3168.6</ele>
        <time>2021-08-06 15:55:14</time>
      </trkpt>
      <trkpt lat="37.05407" lon="-3.35871">
        <ele>3168.4</ele>
        <time>2021-08-06 15:55:15</time>
      </trkpt>
      <trkpt lat="37.05406" lon="-3.35873">
        <ele>3168.4</ele>
        <time>2021-08-06 15:55:16</time>
      </trkpt>
      <trkpt lat="37.05406" lon="-3.35874">
        <ele>3168.4</ele>
        <time>2021-08-06 15:55:17</time>
      </trkpt>
      <trkpt lat="37.05405" lon="-3.35875">
        <ele>3168.4</ele>
        <time>2021-08-06 15:55:18</time>
      </trkpt>
      <trkpt lat="37.05404" lon="-3.35875">
        <ele>3168.4</ele>
        <time>2021-08-06 15:55:19</time>
      </trkpt>
      <trkpt lat="37.05403" lon="-3.35876">
        <ele>3168.2</ele>
        <time>2021-08-06 15:55:20</time>
      </trkpt>
      <trkpt lat="37.05402" lon="-3.35876">
        <ele>3168.4</ele>
        <time>2021-08-06 15:55:21</time>
      </trkpt>
      <trkpt lat="37.05401" lon="-3.35877">
        <ele>3168.6</ele>
        <time>2021-08-06 15:55:22</time>
      </trkpt>
      <trkpt lat="37.054" lon="-3.35878">
        <ele>3168.6</ele>
        <time>2021-08-06 15:55:23</time>
      </trkpt>
      <trkpt lat="37.05399" lon="-3.35879">
        <ele>3168.8</ele>
        <time>2021-08-06 15:55:24</time>
      </trkpt>
      <trkpt lat="37.05398" lon="-3.35879">
        <ele>3168.8</ele>
        <time>2021-08-06 15:55:25</time>
      </trkpt>
      <trkpt lat="37.05398" lon="-3.3588">
        <ele>3168.8</ele>
        <time>2021-08-06 15:55:26</time>
      </trkpt>
      <trkpt lat="37.05397" lon="-3.35881">
        <ele>3168.8</ele>
        <time>2021-08-06 15:55:27</time>
      </trkpt>
      <trkpt lat="37.05396" lon="-3.35882">
        <ele>3169</ele>
        <time>2021-08-06 15:55:28</time>
      </trkpt>
      <trkpt lat="37.05395" lon="-3.35882">
        <ele>3169</ele>
        <time>2021-08-06 15:55:29</time>
      </trkpt>
      <trkpt lat="37.05395" lon="-3.35883">
        <ele>3169.2</ele>
        <time>2021-08-06 15:55:30</time>
      </trkpt>
      <trkpt lat="37.05394" lon="-3.35884">
        <ele>3169.2</ele>
        <time>2021-08-06 15:55:31</time>
      </trkpt>
      <trkpt lat="37.05394" lon="-3.35885">
        <ele>3169.2</ele>
        <time>2021-08-06 15:55:32</time>
      </trkpt>
      <trkpt lat="37.05393" lon="-3.35886">
        <ele>3169.2</ele>
        <time>2021-08-06 15:55:33</time>
      </trkpt>
      <trkpt lat="37.05392" lon="-3.35887">
        <ele>3169.2</ele>
        <time>2021-08-06 15:55:34</time>
      </trkpt>
      <trkpt lat="37.05392" lon="-3.35888">
        <ele>3169.4</ele>
        <time>2021-08-06 15:55:35</time>
      </trkpt>
      <trkpt lat="37.05392" lon="-3.35888">
        <ele>3169.4</ele>
        <time>2021-08-06 15:55:36</time>
      </trkpt>
      <trkpt lat="37.05392" lon="-3.35889">
        <ele>3169.6</ele>
        <time>2021-08-06 15:55:37</time>
      </trkpt>
      <trkpt lat="37.05392" lon="-3.3589">
        <ele>3169.6</ele>
        <time>2021-08-06 15:55:38</time>
      </trkpt>
      <trkpt lat="37.05391" lon="-3.3589">
        <ele>3169.6</ele>
        <time>2021-08-06 15:55:39</time>
      </trkpt>
      <trkpt lat="37.05391" lon="-3.3589">
        <ele>3169.6</ele>
        <time>2021-08-06 15:55:40</time>
      </trkpt>
      <trkpt lat="37.05391" lon="-3.3589">
        <ele>3169.6</ele>
        <time>2021-08-06 15:55:41</time>
      </trkpt>
      <trkpt lat="37.05391" lon="-3.3589">
        <ele>3169.4</ele>
        <time>2021-08-06 15:55:42</time>
      </trkpt>
      <trkpt lat="37.0539" lon="-3.35891">
        <ele>3169.4</ele>
        <time>2021-08-06 15:55:43</time>
      </trkpt>
      <trkpt lat="37.05389" lon="-3.35891">
        <ele>3169.2</ele>
        <time>2021-08-06 15:55:44</time>
      </trkpt>
      <trkpt lat="37.05388" lon="-3.35891">
        <ele>3169.2</ele>
        <time>2021-08-06 15:55:45</time>
      </trkpt>
      <trkpt lat="37.05387" lon="-3.35891">
        <ele>3169.2</ele>
        <time>2021-08-06 15:55:46</time>
      </trkpt>
      <trkpt lat="37.05386" lon="-3.35892">
        <ele>3169.2</ele>
        <time>2021-08-06 15:55:47</time>
      </trkpt>
      <trkpt lat="37.05386" lon="-3.35893">
        <ele>3169.2</ele>
        <time>2021-08-06 15:55:48</time>
      </trkpt>
      <trkpt lat="37.05385" lon="-3.35894">
        <ele>3169.2</ele>
        <time>2021-08-06 15:55:49</time>
      </trkpt>
      <trkpt lat="37.05385" lon="-3.35895">
        <ele>3169.2</ele>
        <time>2021-08-06 15:55:50</time>
      </trkpt>
      <trkpt lat="37.05385" lon="-3.35897">
        <ele>3169.2</ele>
        <time>2021-08-06 15:55:51</time>
      </trkpt>
      <trkpt lat="37.05384" lon="-3.35898">
        <ele>3169.2</ele>
        <time>2021-08-06 15:55:52</time>
      </trkpt>
      <trkpt lat="37.05383" lon="-3.35898">
        <ele>3169.2</ele>
        <time>2021-08-06 15:55:53</time>
      </trkpt>
      <trkpt lat="37.05383" lon="-3.35899">
        <ele>3169.4</ele>
        <time>2021-08-06 15:55:54</time>
      </trkpt>
      <trkpt lat="37.05382" lon="-3.359">
        <ele>3169.4</ele>
        <time>2021-08-06 15:55:55</time>
      </trkpt>
      <trkpt lat="37.05382" lon="-3.35901">
        <ele>3169.6</ele>
        <time>2021-08-06 15:55:56</time>
      </trkpt>
      <trkpt lat="37.05383" lon="-3.35902">
        <ele>3169.6</ele>
        <time>2021-08-06 15:55:57</time>
      </trkpt>
      <trkpt lat="37.05382" lon="-3.35903">
        <ele>3169.6</ele>
        <time>2021-08-06 15:55:58</time>
      </trkpt>
      <trkpt lat="37.05382" lon="-3.35904">
        <ele>3169.6</ele>
        <time>2021-08-06 15:55:59</time>
      </trkpt>
      <trkpt lat="37.05382" lon="-3.35906">
        <ele>3169.6</ele>
        <time>2021-08-06 15:56:00</time>
      </trkpt>
      <trkpt lat="37.05382" lon="-3.35908">
        <ele>3169.4</ele>
        <time>2021-08-06 15:56:01</time>
      </trkpt>
      <trkpt lat="37.05381" lon="-3.35909">
        <ele>3169.6</ele>
        <time>2021-08-06 15:56:02</time>
      </trkpt>
      <trkpt lat="37.05381" lon="-3.3591">
        <ele>3169.6</ele>
        <time>2021-08-06 15:56:03</time>
      </trkpt>
      <trkpt lat="37.0538" lon="-3.35911">
        <ele>3169.6</ele>
        <time>2021-08-06 15:56:04</time>
      </trkpt>
      <trkpt lat="37.05379" lon="-3.35912">
        <ele>3169.4</ele>
        <time>2021-08-06 15:56:05</time>
      </trkpt>
      <trkpt lat="37.05379" lon="-3.35913">
        <ele>3169.6</ele>
        <time>2021-08-06 15:56:06</time>
      </trkpt>
      <trkpt lat="37.05378" lon="-3.35915">
        <ele>3169.6</ele>
        <time>2021-08-06 15:56:07</time>
      </trkpt>
      <trkpt lat="37.05378" lon="-3.35916">
        <ele>3169.6</ele>
        <time>2021-08-06 15:56:08</time>
      </trkpt>
      <trkpt lat="37.05377" lon="-3.35917">
        <ele>3169.8</ele>
        <time>2021-08-06 15:56:09</time>
      </trkpt>
      <trkpt lat="37.05376" lon="-3.35918">
        <ele>3169.8</ele>
        <time>2021-08-06 15:56:10</time>
      </trkpt>
      <trkpt lat="37.05374" lon="-3.3592">
        <ele>3169.8</ele>
        <time>2021-08-06 15:56:11</time>
      </trkpt>
      <trkpt lat="37.05374" lon="-3.35921">
        <ele>3169.8</ele>
        <time>2021-08-06 15:56:12</time>
      </trkpt>
      <trkpt lat="37.05373" lon="-3.35922">
        <ele>3169.8</ele>
        <time>2021-08-06 15:56:13</time>
      </trkpt>
      <trkpt lat="37.05372" lon="-3.35923">
        <ele>3169.8</ele>
        <time>2021-08-06 15:56:14</time>
      </trkpt>
      <trkpt lat="37.05372" lon="-3.35924">
        <ele>3169.8</ele>
        <time>2021-08-06 15:56:15</time>
      </trkpt>
      <trkpt lat="37.05371" lon="-3.35926">
        <ele>3169.6</ele>
        <time>2021-08-06 15:56:16</time>
      </trkpt>
      <trkpt lat="37.05371" lon="-3.35927">
        <ele>3169.6</ele>
        <time>2021-08-06 15:56:17</time>
      </trkpt>
      <trkpt lat="37.0537" lon="-3.35927">
        <ele>3169.6</ele>
        <time>2021-08-06 15:56:18</time>
      </trkpt>
      <trkpt lat="37.05369" lon="-3.35928">
        <ele>3169.8</ele>
        <time>2021-08-06 15:56:19</time>
      </trkpt>
      <trkpt lat="37.05368" lon="-3.35929">
        <ele>3169.6</ele>
        <time>2021-08-06 15:56:20</time>
      </trkpt>
      <trkpt lat="37.05367" lon="-3.35929">
        <ele>3169.8</ele>
        <time>2021-08-06 15:56:21</time>
      </trkpt>
      <trkpt lat="37.05367" lon="-3.35931">
        <ele>3170</ele>
        <time>2021-08-06 15:56:22</time>
      </trkpt>
      <trkpt lat="37.05366" lon="-3.35932">
        <ele>3170.2</ele>
        <time>2021-08-06 15:56:23</time>
      </trkpt>
      <trkpt lat="37.05366" lon="-3.35933">
        <ele>3170.2</ele>
        <time>2021-08-06 15:56:24</time>
      </trkpt>
      <trkpt lat="37.05365" lon="-3.35935">
        <ele>3170.4</ele>
        <time>2021-08-06 15:56:25</time>
      </trkpt>
      <trkpt lat="37.05365" lon="-3.35937">
        <ele>3170.4</ele>
        <time>2021-08-06 15:56:26</time>
      </trkpt>
      <trkpt lat="37.05362" lon="-3.35936">
        <ele>3170.4</ele>
        <time>2021-08-06 15:56:27</time>
      </trkpt>
      <trkpt lat="37.05361" lon="-3.35937">
        <ele>3170.6</ele>
        <time>2021-08-06 15:56:28</time>
      </trkpt>
      <trkpt lat="37.0536" lon="-3.35937">
        <ele>3170.6</ele>
        <time>2021-08-06 15:56:29</time>
      </trkpt>
      <trkpt lat="37.05359" lon="-3.35938">
        <ele>3170.6</ele>
        <time>2021-08-06 15:56:30</time>
      </trkpt>
      <trkpt lat="37.05359" lon="-3.35938">
        <ele>3170.6</ele>
        <time>2021-08-06 15:56:31</time>
      </trkpt>
      <trkpt lat="37.05358" lon="-3.35939">
        <ele>3170.8</ele>
        <time>2021-08-06 15:56:32</time>
      </trkpt>
      <trkpt lat="37.05357" lon="-3.35939">
        <ele>3170.8</ele>
        <time>2021-08-06 15:56:33</time>
      </trkpt>
      <trkpt lat="37.05356" lon="-3.35941">
        <ele>3171</ele>
        <time>2021-08-06 15:56:34</time>
      </trkpt>
      <trkpt lat="37.05356" lon="-3.35942">
        <ele>3171</ele>
        <time>2021-08-06 15:56:35</time>
      </trkpt>
      <trkpt lat="37.05355" lon="-3.35943">
        <ele>3171</ele>
        <time>2021-08-06 15:56:36</time>
      </trkpt>
      <trkpt lat="37.05355" lon="-3.35944">
        <ele>3171</ele>
        <time>2021-08-06 15:56:37</time>
      </trkpt>
      <trkpt lat="37.05354" lon="-3.35945">
        <ele>3171.2</ele>
        <time>2021-08-06 15:56:38</time>
      </trkpt>
      <trkpt lat="37.05354" lon="-3.35946">
        <ele>3171.4</ele>
        <time>2021-08-06 15:56:39</time>
      </trkpt>
      <trkpt lat="37.05353" lon="-3.35948">
        <ele>3171.6</ele>
        <time>2021-08-06 15:56:40</time>
      </trkpt>
      <trkpt lat="37.05352" lon="-3.35949">
        <ele>3171.6</ele>
        <time>2021-08-06 15:56:41</time>
      </trkpt>
      <trkpt lat="37.05351" lon="-3.3595">
        <ele>3171.8</ele>
        <time>2021-08-06 15:56:42</time>
      </trkpt>
      <trkpt lat="37.05351" lon="-3.35951">
        <ele>3171.8</ele>
        <time>2021-08-06 15:56:43</time>
      </trkpt>
      <trkpt lat="37.05351" lon="-3.35953">
        <ele>3171.6</ele>
        <time>2021-08-06 15:56:44</time>
      </trkpt>
      <trkpt lat="37.0535" lon="-3.35954">
        <ele>3171.4</ele>
        <time>2021-08-06 15:56:45</time>
      </trkpt>
      <trkpt lat="37.05349" lon="-3.35955">
        <ele>3171.4</ele>
        <time>2021-08-06 15:56:46</time>
      </trkpt>
      <trkpt lat="37.05348" lon="-3.35955">
        <ele>3171.4</ele>
        <time>2021-08-06 15:56:47</time>
      </trkpt>
      <trkpt lat="37.05347" lon="-3.35956">
        <ele>3171.4</ele>
        <time>2021-08-06 15:56:48</time>
      </trkpt>
      <trkpt lat="37.05347" lon="-3.35957">
        <ele>3171.6</ele>
        <time>2021-08-06 15:56:49</time>
      </trkpt>
      <trkpt lat="37.05346" lon="-3.35958">
        <ele>3171.6</ele>
        <time>2021-08-06 15:56:50</time>
      </trkpt>
      <trkpt lat="37.05345" lon="-3.3596">
        <ele>3171.6</ele>
        <time>2021-08-06 15:56:51</time>
      </trkpt>
      <trkpt lat="37.05345" lon="-3.35961">
        <ele>3171.8</ele>
        <time>2021-08-06 15:56:52</time>
      </trkpt>
      <trkpt lat="37.05345" lon="-3.35962">
        <ele>3171.8</ele>
        <time>2021-08-06 15:56:53</time>
      </trkpt>
      <trkpt lat="37.05344" lon="-3.35963">
        <ele>3171.8</ele>
        <time>2021-08-06 15:56:54</time>
      </trkpt>
      <trkpt lat="37.05344" lon="-3.35964">
        <ele>3171.8</ele>
        <time>2021-08-06 15:56:55</time>
      </trkpt>
      <trkpt lat="37.05344" lon="-3.35965">
        <ele>3171.8</ele>
        <time>2021-08-06 15:56:56</time>
      </trkpt>
      <trkpt lat="37.05344" lon="-3.35967">
        <ele>3171.8</ele>
        <time>2021-08-06 15:56:57</time>
      </trkpt>
      <trkpt lat="37.05343" lon="-3.35968">
        <ele>3171.8</ele>
        <time>2021-08-06 15:56:58</time>
      </trkpt>
      <trkpt lat="37.05343" lon="-3.35968">
        <ele>3171.8</ele>
        <time>2021-08-06 15:56:59</time>
      </trkpt>
      <trkpt lat="37.05342" lon="-3.35969">
        <ele>3171.8</ele>
        <time>2021-08-06 15:57:00</time>
      </trkpt>
      <trkpt lat="37.05341" lon="-3.3597">
        <ele>3171.8</ele>
        <time>2021-08-06 15:57:01</time>
      </trkpt>
      <trkpt lat="37.05341" lon="-3.35971">
        <ele>3171.8</ele>
        <time>2021-08-06 15:57:02</time>
      </trkpt>
      <trkpt lat="37.05339" lon="-3.35972">
        <ele>3171.8</ele>
        <time>2021-08-06 15:57:03</time>
      </trkpt>
      <trkpt lat="37.05339" lon="-3.35972">
        <ele>3171.8</ele>
        <time>2021-08-06 15:57:04</time>
      </trkpt>
      <trkpt lat="37.05339" lon="-3.35973">
        <ele>3172</ele>
        <time>2021-08-06 15:57:05</time>
      </trkpt>
      <trkpt lat="37.05338" lon="-3.35974">
        <ele>3172.2</ele>
        <time>2021-08-06 15:57:06</time>
      </trkpt>
      <trkpt lat="37.05337" lon="-3.35975">
        <ele>3172.4</ele>
        <time>2021-08-06 15:57:07</time>
      </trkpt>
      <trkpt lat="37.05336" lon="-3.35975">
        <ele>3172.6</ele>
        <time>2021-08-06 15:57:08</time>
      </trkpt>
      <trkpt lat="37.05336" lon="-3.35976">
        <ele>3172.8</ele>
        <time>2021-08-06 15:57:09</time>
      </trkpt>
      <trkpt lat="37.05335" lon="-3.35976">
        <ele>3173</ele>
        <time>2021-08-06 15:57:10</time>
      </trkpt>
      <trkpt lat="37.05334" lon="-3.35976">
        <ele>3173</ele>
        <time>2021-08-06 15:57:11</time>
      </trkpt>
      <trkpt lat="37.05333" lon="-3.35977">
        <ele>3173.4</ele>
        <time>2021-08-06 15:57:12</time>
      </trkpt>
      <trkpt lat="37.05332" lon="-3.35978">
        <ele>3173.4</ele>
        <time>2021-08-06 15:57:13</time>
      </trkpt>
      <trkpt lat="37.05332" lon="-3.35978">
        <ele>3173.4</ele>
        <time>2021-08-06 15:57:14</time>
      </trkpt>
      <trkpt lat="37.05331" lon="-3.35979">
        <ele>3173.6</ele>
        <time>2021-08-06 15:57:15</time>
      </trkpt>
      <trkpt lat="37.0533" lon="-3.3598">
        <ele>3173.4</ele>
        <time>2021-08-06 15:57:16</time>
      </trkpt>
      <trkpt lat="37.05329" lon="-3.35981">
        <ele>3173.2</ele>
        <time>2021-08-06 15:57:17</time>
      </trkpt>
      <trkpt lat="37.05328" lon="-3.35982">
        <ele>3173.2</ele>
        <time>2021-08-06 15:57:18</time>
      </trkpt>
      <trkpt lat="37.05328" lon="-3.35983">
        <ele>3173</ele>
        <time>2021-08-06 15:57:19</time>
      </trkpt>
      <trkpt lat="37.05327" lon="-3.35984">
        <ele>3173.2</ele>
        <time>2021-08-06 15:57:20</time>
      </trkpt>
      <trkpt lat="37.05326" lon="-3.35984">
        <ele>3173.4</ele>
        <time>2021-08-06 15:57:21</time>
      </trkpt>
      <trkpt lat="37.05325" lon="-3.35985">
        <ele>3173.4</ele>
        <time>2021-08-06 15:57:22</time>
      </trkpt>
      <trkpt lat="37.05325" lon="-3.35986">
        <ele>3173.4</ele>
        <time>2021-08-06 15:57:23</time>
      </trkpt>
      <trkpt lat="37.05324" lon="-3.35987">
        <ele>3173.4</ele>
        <time>2021-08-06 15:57:24</time>
      </trkpt>
      <trkpt lat="37.05323" lon="-3.35988">
        <ele>3173.4</ele>
        <time>2021-08-06 15:57:25</time>
      </trkpt>
      <trkpt lat="37.05322" lon="-3.35989">
        <ele>3173.6</ele>
        <time>2021-08-06 15:57:26</time>
      </trkpt>
      <trkpt lat="37.05321" lon="-3.3599">
        <ele>3173.6</ele>
        <time>2021-08-06 15:57:27</time>
      </trkpt>
      <trkpt lat="37.0532" lon="-3.35991">
        <ele>3173.4</ele>
        <time>2021-08-06 15:57:28</time>
      </trkpt>
      <trkpt lat="37.0532" lon="-3.35992">
        <ele>3173.4</ele>
        <time>2021-08-06 15:57:29</time>
      </trkpt>
      <trkpt lat="37.05319" lon="-3.35994">
        <ele>3173.4</ele>
        <time>2021-08-06 15:57:30</time>
      </trkpt>
      <trkpt lat="37.05318" lon="-3.35995">
        <ele>3173.4</ele>
        <time>2021-08-06 15:57:31</time>
      </trkpt>
      <trkpt lat="37.05317" lon="-3.35996">
        <ele>3173.6</ele>
        <time>2021-08-06 15:57:32</time>
      </trkpt>
      <trkpt lat="37.05317" lon="-3.35997">
        <ele>3173.6</ele>
        <time>2021-08-06 15:57:33</time>
      </trkpt>
      <trkpt lat="37.05316" lon="-3.35998">
        <ele>3173.6</ele>
        <time>2021-08-06 15:57:34</time>
      </trkpt>
      <trkpt lat="37.05315" lon="-3.35999">
        <ele>3173.6</ele>
        <time>2021-08-06 15:57:35</time>
      </trkpt>
      <trkpt lat="37.05314" lon="-3.36">
        <ele>3173.8</ele>
        <time>2021-08-06 15:57:36</time>
      </trkpt>
      <trkpt lat="37.05314" lon="-3.36">
        <ele>3173.8</ele>
        <time>2021-08-06 15:57:37</time>
      </trkpt>
      <trkpt lat="37.05313" lon="-3.36001">
        <ele>3174</ele>
        <time>2021-08-06 15:57:38</time>
      </trkpt>
      <trkpt lat="37.05312" lon="-3.36001">
        <ele>3174</ele>
        <time>2021-08-06 15:57:39</time>
      </trkpt>
      <trkpt lat="37.05311" lon="-3.36002">
        <ele>3174</ele>
        <time>2021-08-06 15:57:40</time>
      </trkpt>
      <trkpt lat="37.05311" lon="-3.36003">
        <ele>3174</ele>
        <time>2021-08-06 15:57:41</time>
      </trkpt>
      <trkpt lat="37.05309" lon="-3.36003">
        <ele>3174</ele>
        <time>2021-08-06 15:57:42</time>
      </trkpt>
      <trkpt lat="37.05308" lon="-3.36003">
        <ele>3174.2</ele>
        <time>2021-08-06 15:57:43</time>
      </trkpt>
      <trkpt lat="37.05308" lon="-3.36004">
        <ele>3174.2</ele>
        <time>2021-08-06 15:57:44</time>
      </trkpt>
      <trkpt lat="37.05307" lon="-3.36005">
        <ele>3174.2</ele>
        <time>2021-08-06 15:57:45</time>
      </trkpt>
      <trkpt lat="37.05306" lon="-3.36006">
        <ele>3174.4</ele>
        <time>2021-08-06 15:57:46</time>
      </trkpt>
      <trkpt lat="37.05305" lon="-3.36006">
        <ele>3174.6</ele>
        <time>2021-08-06 15:57:47</time>
      </trkpt>
      <trkpt lat="37.05304" lon="-3.36007">
        <ele>3174.8</ele>
        <time>2021-08-06 15:57:48</time>
      </trkpt>
      <trkpt lat="37.05303" lon="-3.36007">
        <ele>3175</ele>
        <time>2021-08-06 15:57:49</time>
      </trkpt>
      <trkpt lat="37.05302" lon="-3.36007">
        <ele>3175</ele>
        <time>2021-08-06 15:57:50</time>
      </trkpt>
      <trkpt lat="37.05301" lon="-3.36008">
        <ele>3175</ele>
        <time>2021-08-06 15:57:51</time>
      </trkpt>
      <trkpt lat="37.053" lon="-3.36009">
        <ele>3175</ele>
        <time>2021-08-06 15:57:52</time>
      </trkpt>
      <trkpt lat="37.05299" lon="-3.3601">
        <ele>3175</ele>
        <time>2021-08-06 15:57:53</time>
      </trkpt>
      <trkpt lat="37.05298" lon="-3.3601">
        <ele>3175</ele>
        <time>2021-08-06 15:57:54</time>
      </trkpt>
      <trkpt lat="37.05297" lon="-3.36011">
        <ele>3174.6</ele>
        <time>2021-08-06 15:57:55</time>
      </trkpt>
      <trkpt lat="37.05296" lon="-3.36012">
        <ele>3174.4</ele>
        <time>2021-08-06 15:57:56</time>
      </trkpt>
      <trkpt lat="37.05295" lon="-3.36012">
        <ele>3174.2</ele>
        <time>2021-08-06 15:57:57</time>
      </trkpt>
      <trkpt lat="37.05294" lon="-3.36013">
        <ele>3174.2</ele>
        <time>2021-08-06 15:57:58</time>
      </trkpt>
      <trkpt lat="37.05294" lon="-3.36014">
        <ele>3174.6</ele>
        <time>2021-08-06 15:57:59</time>
      </trkpt>
      <trkpt lat="37.05293" lon="-3.36015">
        <ele>3174.8</ele>
        <time>2021-08-06 15:58:00</time>
      </trkpt>
      <trkpt lat="37.05292" lon="-3.36015">
        <ele>3174.8</ele>
        <time>2021-08-06 15:58:01</time>
      </trkpt>
      <trkpt lat="37.05291" lon="-3.36016">
        <ele>3175</ele>
        <time>2021-08-06 15:58:02</time>
      </trkpt>
      <trkpt lat="37.0529" lon="-3.36017">
        <ele>3175.2</ele>
        <time>2021-08-06 15:58:03</time>
      </trkpt>
      <trkpt lat="37.0529" lon="-3.36018">
        <ele>3175</ele>
        <time>2021-08-06 15:58:04</time>
      </trkpt>
      <trkpt lat="37.05289" lon="-3.36019">
        <ele>3175</ele>
        <time>2021-08-06 15:58:05</time>
      </trkpt>
      <trkpt lat="37.05288" lon="-3.3602">
        <ele>3174.8</ele>
        <time>2021-08-06 15:58:06</time>
      </trkpt>
      <trkpt lat="37.05288" lon="-3.36021">
        <ele>3174.8</ele>
        <time>2021-08-06 15:58:07</time>
      </trkpt>
      <trkpt lat="37.05287" lon="-3.36022">
        <ele>3174.8</ele>
        <time>2021-08-06 15:58:08</time>
      </trkpt>
      <trkpt lat="37.05287" lon="-3.36023">
        <ele>3174.8</ele>
        <time>2021-08-06 15:58:09</time>
      </trkpt>
      <trkpt lat="37.05286" lon="-3.36024">
        <ele>3174.8</ele>
        <time>2021-08-06 15:58:10</time>
      </trkpt>
      <trkpt lat="37.05286" lon="-3.36025">
        <ele>3175</ele>
        <time>2021-08-06 15:58:11</time>
      </trkpt>
      <trkpt lat="37.05285" lon="-3.36027">
        <ele>3175</ele>
        <time>2021-08-06 15:58:12</time>
      </trkpt>
      <trkpt lat="37.05285" lon="-3.36028">
        <ele>3175.2</ele>
        <time>2021-08-06 15:58:13</time>
      </trkpt>
      <trkpt lat="37.05284" lon="-3.36029">
        <ele>3175.4</ele>
        <time>2021-08-06 15:58:14</time>
      </trkpt>
      <trkpt lat="37.05283" lon="-3.36029">
        <ele>3175.6</ele>
        <time>2021-08-06 15:58:15</time>
      </trkpt>
      <trkpt lat="37.05282" lon="-3.3603">
        <ele>3175.8</ele>
        <time>2021-08-06 15:58:16</time>
      </trkpt>
      <trkpt lat="37.05282" lon="-3.36031">
        <ele>3176</ele>
        <time>2021-08-06 15:58:17</time>
      </trkpt>
      <trkpt lat="37.05281" lon="-3.36032">
        <ele>3176</ele>
        <time>2021-08-06 15:58:18</time>
      </trkpt>
      <trkpt lat="37.0528" lon="-3.36033">
        <ele>3176</ele>
        <time>2021-08-06 15:58:19</time>
      </trkpt>
      <trkpt lat="37.0528" lon="-3.36034">
        <ele>3176</ele>
        <time>2021-08-06 15:58:20</time>
      </trkpt>
      <trkpt lat="37.05279" lon="-3.36035">
        <ele>3176</ele>
        <time>2021-08-06 15:58:21</time>
      </trkpt>
      <trkpt lat="37.05279" lon="-3.36035">
        <ele>3176.2</ele>
        <time>2021-08-06 15:58:22</time>
      </trkpt>
      <trkpt lat="37.05278" lon="-3.36036">
        <ele>3176.4</ele>
        <time>2021-08-06 15:58:23</time>
      </trkpt>
      <trkpt lat="37.05278" lon="-3.36037">
        <ele>3176.8</ele>
        <time>2021-08-06 15:58:24</time>
      </trkpt>
      <trkpt lat="37.05278" lon="-3.36038">
        <ele>3177</ele>
        <time>2021-08-06 15:58:25</time>
      </trkpt>
      <trkpt lat="37.05277" lon="-3.36038">
        <ele>3177</ele>
        <time>2021-08-06 15:58:26</time>
      </trkpt>
      <trkpt lat="37.05276" lon="-3.36039">
        <ele>3177.2</ele>
        <time>2021-08-06 15:58:27</time>
      </trkpt>
      <trkpt lat="37.05276" lon="-3.3604">
        <ele>3177.2</ele>
        <time>2021-08-06 15:58:28</time>
      </trkpt>
      <trkpt lat="37.05275" lon="-3.36041">
        <ele>3177.2</ele>
        <time>2021-08-06 15:58:29</time>
      </trkpt>
      <trkpt lat="37.05275" lon="-3.36042">
        <ele>3177.2</ele>
        <time>2021-08-06 15:58:30</time>
      </trkpt>
      <trkpt lat="37.05274" lon="-3.36042">
        <ele>3177.4</ele>
        <time>2021-08-06 15:58:31</time>
      </trkpt>
      <trkpt lat="37.05273" lon="-3.36043">
        <ele>3177.4</ele>
        <time>2021-08-06 15:58:32</time>
      </trkpt>
      <trkpt lat="37.05273" lon="-3.36043">
        <ele>3177.6</ele>
        <time>2021-08-06 15:58:33</time>
      </trkpt>
      <trkpt lat="37.05272" lon="-3.36044">
        <ele>3177.8</ele>
        <time>2021-08-06 15:58:34</time>
      </trkpt>
      <trkpt lat="37.05272" lon="-3.36044">
        <ele>3177.8</ele>
        <time>2021-08-06 15:58:35</time>
      </trkpt>
      <trkpt lat="37.05271" lon="-3.36045">
        <ele>3178</ele>
        <time>2021-08-06 15:58:36</time>
      </trkpt>
      <trkpt lat="37.05271" lon="-3.36046">
        <ele>3178</ele>
        <time>2021-08-06 15:58:37</time>
      </trkpt>
      <trkpt lat="37.05271" lon="-3.36046">
        <ele>3178.2</ele>
        <time>2021-08-06 15:58:38</time>
      </trkpt>
      <trkpt lat="37.0527" lon="-3.36046">
        <ele>3178.2</ele>
        <time>2021-08-06 15:58:39</time>
      </trkpt>
      <trkpt lat="37.05269" lon="-3.36047">
        <ele>3178.2</ele>
        <time>2021-08-06 15:58:40</time>
      </trkpt>
      <trkpt lat="37.05269" lon="-3.36048">
        <ele>3178.4</ele>
        <time>2021-08-06 15:58:41</time>
      </trkpt>
      <trkpt lat="37.05268" lon="-3.36049">
        <ele>3178.6</ele>
        <time>2021-08-06 15:58:42</time>
      </trkpt>
      <trkpt lat="37.05267" lon="-3.36049">
        <ele>3178.6</ele>
        <time>2021-08-06 15:58:43</time>
      </trkpt>
      <trkpt lat="37.05267" lon="-3.3605">
        <ele>3178.8</ele>
        <time>2021-08-06 15:58:44</time>
      </trkpt>
      <trkpt lat="37.05267" lon="-3.36051">
        <ele>3178.8</ele>
        <time>2021-08-06 15:58:45</time>
      </trkpt>
      <trkpt lat="37.05267" lon="-3.36052">
        <ele>3178.8</ele>
        <time>2021-08-06 15:58:46</time>
      </trkpt>
      <trkpt lat="37.05267" lon="-3.36053">
        <ele>3178.8</ele>
        <time>2021-08-06 15:58:47</time>
      </trkpt>
      <trkpt lat="37.05267" lon="-3.36053">
        <ele>3179</ele>
        <time>2021-08-06 15:58:48</time>
      </trkpt>
      <trkpt lat="37.05266" lon="-3.36053">
        <ele>3179.2</ele>
        <time>2021-08-06 15:58:49</time>
      </trkpt>
      <trkpt lat="37.05265" lon="-3.36053">
        <ele>3179.6</ele>
        <time>2021-08-06 15:58:50</time>
      </trkpt>
      <trkpt lat="37.05264" lon="-3.36053">
        <ele>3179.8</ele>
        <time>2021-08-06 15:58:51</time>
      </trkpt>
      <trkpt lat="37.05263" lon="-3.36053">
        <ele>3180</ele>
        <time>2021-08-06 15:58:52</time>
      </trkpt>
      <trkpt lat="37.05263" lon="-3.36053">
        <ele>3180</ele>
        <time>2021-08-06 15:58:53</time>
      </trkpt>
      <trkpt lat="37.05261" lon="-3.36053">
        <ele>3180.2</ele>
        <time>2021-08-06 15:58:54</time>
      </trkpt>
      <trkpt lat="37.05261" lon="-3.36053">
        <ele>3180.4</ele>
        <time>2021-08-06 15:58:55</time>
      </trkpt>
      <trkpt lat="37.0526" lon="-3.36054">
        <ele>3180.4</ele>
        <time>2021-08-06 15:58:56</time>
      </trkpt>
      <trkpt lat="37.05259" lon="-3.36054">
        <ele>3180.4</ele>
        <time>2021-08-06 15:58:57</time>
      </trkpt>
      <trkpt lat="37.05259" lon="-3.36055">
        <ele>3180.6</ele>
        <time>2021-08-06 15:58:58</time>
      </trkpt>
      <trkpt lat="37.05259" lon="-3.36056">
        <ele>3180.8</ele>
        <time>2021-08-06 15:58:59</time>
      </trkpt>
      <trkpt lat="37.05258" lon="-3.36056">
        <ele>3180.8</ele>
        <time>2021-08-06 15:59:00</time>
      </trkpt>
      <trkpt lat="37.05257" lon="-3.36056">
        <ele>3181</ele>
        <time>2021-08-06 15:59:01</time>
      </trkpt>
      <trkpt lat="37.05256" lon="-3.36057">
        <ele>3181.2</ele>
        <time>2021-08-06 15:59:02</time>
      </trkpt>
      <trkpt lat="37.05255" lon="-3.36058">
        <ele>3181.2</ele>
        <time>2021-08-06 15:59:03</time>
      </trkpt>
      <trkpt lat="37.05254" lon="-3.36058">
        <ele>3181.4</ele>
        <time>2021-08-06 15:59:04</time>
      </trkpt>
      <trkpt lat="37.05253" lon="-3.36059">
        <ele>3181.4</ele>
        <time>2021-08-06 15:59:05</time>
      </trkpt>
      <trkpt lat="37.05252" lon="-3.36059">
        <ele>3181.6</ele>
        <time>2021-08-06 15:59:06</time>
      </trkpt>
      <trkpt lat="37.05251" lon="-3.36059">
        <ele>3181.8</ele>
        <time>2021-08-06 15:59:07</time>
      </trkpt>
      <trkpt lat="37.05251" lon="-3.3606">
        <ele>3181.8</ele>
        <time>2021-08-06 15:59:08</time>
      </trkpt>
      <trkpt lat="37.0525" lon="-3.3606">
        <ele>3182</ele>
        <time>2021-08-06 15:59:09</time>
      </trkpt>
      <trkpt lat="37.05249" lon="-3.36061">
        <ele>3182.2</ele>
        <time>2021-08-06 15:59:10</time>
      </trkpt>
      <trkpt lat="37.05248" lon="-3.36062">
        <ele>3182.4</ele>
        <time>2021-08-06 15:59:11</time>
      </trkpt>
      <trkpt lat="37.05248" lon="-3.36064">
        <ele>3182.4</ele>
        <time>2021-08-06 15:59:12</time>
      </trkpt>
      <trkpt lat="37.05248" lon="-3.36065">
        <ele>3182.6</ele>
        <time>2021-08-06 15:59:13</time>
      </trkpt>
      <trkpt lat="37.05247" lon="-3.36066">
        <ele>3182.6</ele>
        <time>2021-08-06 15:59:14</time>
      </trkpt>
      <trkpt lat="37.05247" lon="-3.36067">
        <ele>3182.6</ele>
        <time>2021-08-06 15:59:15</time>
      </trkpt>
      <trkpt lat="37.05247" lon="-3.36069">
        <ele>3182.8</ele>
        <time>2021-08-06 15:59:16</time>
      </trkpt>
      <trkpt lat="37.05246" lon="-3.3607">
        <ele>3182.8</ele>
        <time>2021-08-06 15:59:17</time>
      </trkpt>
      <trkpt lat="37.05246" lon="-3.3607">
        <ele>3182.8</ele>
        <time>2021-08-06 15:59:18</time>
      </trkpt>
      <trkpt lat="37.05246" lon="-3.36071">
        <ele>3182.8</ele>
        <time>2021-08-06 15:59:19</time>
      </trkpt>
      <trkpt lat="37.05245" lon="-3.36071">
        <ele>3183</ele>
        <time>2021-08-06 15:59:20</time>
      </trkpt>
      <trkpt lat="37.05244" lon="-3.36071">
        <ele>3183</ele>
        <time>2021-08-06 15:59:21</time>
      </trkpt>
      <trkpt lat="37.05243" lon="-3.36072">
        <ele>3183</ele>
        <time>2021-08-06 15:59:22</time>
      </trkpt>
      <trkpt lat="37.05242" lon="-3.36072">
        <ele>3183.2</ele>
        <time>2021-08-06 15:59:23</time>
      </trkpt>
      <trkpt lat="37.05241" lon="-3.36072">
        <ele>3183.4</ele>
        <time>2021-08-06 15:59:24</time>
      </trkpt>
      <trkpt lat="37.05241" lon="-3.36073">
        <ele>3183.6</ele>
        <time>2021-08-06 15:59:25</time>
      </trkpt>
      <trkpt lat="37.0524" lon="-3.36073">
        <ele>3183.6</ele>
        <time>2021-08-06 15:59:26</time>
      </trkpt>
      <trkpt lat="37.05239" lon="-3.36073">
        <ele>3183.6</ele>
        <time>2021-08-06 15:59:27</time>
      </trkpt>
      <trkpt lat="37.05238" lon="-3.36074">
        <ele>3183.6</ele>
        <time>2021-08-06 15:59:28</time>
      </trkpt>
      <trkpt lat="37.05238" lon="-3.36075">
        <ele>3183.8</ele>
        <time>2021-08-06 15:59:29</time>
      </trkpt>
      <trkpt lat="37.05237" lon="-3.36075">
        <ele>3183.6</ele>
        <time>2021-08-06 15:59:30</time>
      </trkpt>
      <trkpt lat="37.05236" lon="-3.36076">
        <ele>3183.4</ele>
        <time>2021-08-06 15:59:31</time>
      </trkpt>
      <trkpt lat="37.05235" lon="-3.36076">
        <ele>3183.4</ele>
        <time>2021-08-06 15:59:32</time>
      </trkpt>
      <trkpt lat="37.05235" lon="-3.36076">
        <ele>3183.6</ele>
        <time>2021-08-06 15:59:33</time>
      </trkpt>
      <trkpt lat="37.05234" lon="-3.36076">
        <ele>3183.8</ele>
        <time>2021-08-06 15:59:34</time>
      </trkpt>
      <trkpt lat="37.05233" lon="-3.36076">
        <ele>3184</ele>
        <time>2021-08-06 15:59:35</time>
      </trkpt>
      <trkpt lat="37.05232" lon="-3.36078">
        <ele>3184</ele>
        <time>2021-08-06 15:59:36</time>
      </trkpt>
      <trkpt lat="37.05232" lon="-3.36079">
        <ele>3184</ele>
        <time>2021-08-06 15:59:37</time>
      </trkpt>
      <trkpt lat="37.05231" lon="-3.3608">
        <ele>3183.8</ele>
        <time>2021-08-06 15:59:38</time>
      </trkpt>
      <trkpt lat="37.0523" lon="-3.3608">
        <ele>3183.8</ele>
        <time>2021-08-06 15:59:39</time>
      </trkpt>
      <trkpt lat="37.0523" lon="-3.36083">
        <ele>3183.6</ele>
        <time>2021-08-06 15:59:40</time>
      </trkpt>
      <trkpt lat="37.05229" lon="-3.36083">
        <ele>3183.6</ele>
        <time>2021-08-06 15:59:41</time>
      </trkpt>
      <trkpt lat="37.05228" lon="-3.36084">
        <ele>3183.6</ele>
        <time>2021-08-06 15:59:42</time>
      </trkpt>
      <trkpt lat="37.05227" lon="-3.36085">
        <ele>3183.4</ele>
        <time>2021-08-06 15:59:43</time>
      </trkpt>
      <trkpt lat="37.05226" lon="-3.36085">
        <ele>3183.4</ele>
        <time>2021-08-06 15:59:44</time>
      </trkpt>
      <trkpt lat="37.05225" lon="-3.36086">
        <ele>3183.4</ele>
        <time>2021-08-06 15:59:45</time>
      </trkpt>
      <trkpt lat="37.05224" lon="-3.36086">
        <ele>3183.2</ele>
        <time>2021-08-06 15:59:46</time>
      </trkpt>
      <trkpt lat="37.05223" lon="-3.36087">
        <ele>3183.2</ele>
        <time>2021-08-06 15:59:47</time>
      </trkpt>
      <trkpt lat="37.05221" lon="-3.36088">
        <ele>3183</ele>
        <time>2021-08-06 15:59:48</time>
      </trkpt>
      <trkpt lat="37.0522" lon="-3.36088">
        <ele>3182.8</ele>
        <time>2021-08-06 15:59:49</time>
      </trkpt>
      <trkpt lat="37.05219" lon="-3.36089">
        <ele>3182.4</ele>
        <time>2021-08-06 15:59:50</time>
      </trkpt>
      <trkpt lat="37.05218" lon="-3.36089">
        <ele>3182.2</ele>
        <time>2021-08-06 15:59:51</time>
      </trkpt>
      <trkpt lat="37.05218" lon="-3.3609">
        <ele>3182</ele>
        <time>2021-08-06 15:59:52</time>
      </trkpt>
      <trkpt lat="37.05216" lon="-3.3609">
        <ele>3181.8</ele>
        <time>2021-08-06 15:59:53</time>
      </trkpt>
      <trkpt lat="37.05215" lon="-3.3609">
        <ele>3181.6</ele>
        <time>2021-08-06 15:59:54</time>
      </trkpt>
      <trkpt lat="37.05214" lon="-3.3609">
        <ele>3181.6</ele>
        <time>2021-08-06 15:59:55</time>
      </trkpt>
      <trkpt lat="37.05213" lon="-3.36091">
        <ele>3181.6</ele>
        <time>2021-08-06 15:59:56</time>
      </trkpt>
      <trkpt lat="37.05212" lon="-3.36091">
        <ele>3181.6</ele>
        <time>2021-08-06 15:59:57</time>
      </trkpt>
      <trkpt lat="37.05211" lon="-3.36091">
        <ele>3181.4</ele>
        <time>2021-08-06 15:59:58</time>
      </trkpt>
      <trkpt lat="37.0521" lon="-3.36092">
        <ele>3181</ele>
        <time>2021-08-06 15:59:59</time>
      </trkpt>
      <trkpt lat="37.05209" lon="-3.36093">
        <ele>3180.8</ele>
        <time>2021-08-06 16:00:00</time>
      </trkpt>
      <trkpt lat="37.05208" lon="-3.36094">
        <ele>3180.8</ele>
        <time>2021-08-06 16:00:01</time>
      </trkpt>
      <trkpt lat="37.05207" lon="-3.36095">
        <ele>3180.8</ele>
        <time>2021-08-06 16:00:02</time>
      </trkpt>
      <trkpt lat="37.05206" lon="-3.36096">
        <ele>3180.6</ele>
        <time>2021-08-06 16:00:03</time>
      </trkpt>
      <trkpt lat="37.05205" lon="-3.36096">
        <ele>3180.6</ele>
        <time>2021-08-06 16:00:04</time>
      </trkpt>
      <trkpt lat="37.05205" lon="-3.36098">
        <ele>3180.4</ele>
        <time>2021-08-06 16:00:05</time>
      </trkpt>
      <trkpt lat="37.05204" lon="-3.36099">
        <ele>3180.2</ele>
        <time>2021-08-06 16:00:06</time>
      </trkpt>
      <trkpt lat="37.05203" lon="-3.361">
        <ele>3179.8</ele>
        <time>2021-08-06 16:00:07</time>
      </trkpt>
      <trkpt lat="37.05202" lon="-3.36101">
        <ele>3179.6</ele>
        <time>2021-08-06 16:00:08</time>
      </trkpt>
      <trkpt lat="37.05201" lon="-3.36102">
        <ele>3179.6</ele>
        <time>2021-08-06 16:00:09</time>
      </trkpt>
      <trkpt lat="37.052" lon="-3.36103">
        <ele>3179.6</ele>
        <time>2021-08-06 16:00:10</time>
      </trkpt>
      <trkpt lat="37.05199" lon="-3.36103">
        <ele>3179.6</ele>
        <time>2021-08-06 16:00:11</time>
      </trkpt>
      <trkpt lat="37.05199" lon="-3.36104">
        <ele>3179.6</ele>
        <time>2021-08-06 16:00:12</time>
      </trkpt>
      <trkpt lat="37.05198" lon="-3.36105">
        <ele>3179.6</ele>
        <time>2021-08-06 16:00:13</time>
      </trkpt>
      <trkpt lat="37.05197" lon="-3.36106">
        <ele>3179.6</ele>
        <time>2021-08-06 16:00:14</time>
      </trkpt>
      <trkpt lat="37.05196" lon="-3.36107">
        <ele>3179.4</ele>
        <time>2021-08-06 16:00:15</time>
      </trkpt>
      <trkpt lat="37.05195" lon="-3.36108">
        <ele>3179.2</ele>
        <time>2021-08-06 16:00:16</time>
      </trkpt>
      <trkpt lat="37.05195" lon="-3.36109">
        <ele>3179</ele>
        <time>2021-08-06 16:00:17</time>
      </trkpt>
      <trkpt lat="37.05194" lon="-3.3611">
        <ele>3179</ele>
        <time>2021-08-06 16:00:18</time>
      </trkpt>
      <trkpt lat="37.05194" lon="-3.36112">
        <ele>3179</ele>
        <time>2021-08-06 16:00:19</time>
      </trkpt>
      <trkpt lat="37.05194" lon="-3.36114">
        <ele>3179</ele>
        <time>2021-08-06 16:00:20</time>
      </trkpt>
      <trkpt lat="37.05193" lon="-3.36116">
        <ele>3178.8</ele>
        <time>2021-08-06 16:00:21</time>
      </trkpt>
      <trkpt lat="37.05192" lon="-3.36117">
        <ele>3178.8</ele>
        <time>2021-08-06 16:00:22</time>
      </trkpt>
      <trkpt lat="37.05192" lon="-3.36118">
        <ele>3178.6</ele>
        <time>2021-08-06 16:00:23</time>
      </trkpt>
      <trkpt lat="37.05191" lon="-3.3612">
        <ele>3178.6</ele>
        <time>2021-08-06 16:00:24</time>
      </trkpt>
      <trkpt lat="37.05191" lon="-3.36121">
        <ele>3178.4</ele>
        <time>2021-08-06 16:00:25</time>
      </trkpt>
      <trkpt lat="37.05191" lon="-3.36122">
        <ele>3178.4</ele>
        <time>2021-08-06 16:00:26</time>
      </trkpt>
      <trkpt lat="37.0519" lon="-3.36123">
        <ele>3178.6</ele>
        <time>2021-08-06 16:00:27</time>
      </trkpt>
      <trkpt lat="37.0519" lon="-3.36124">
        <ele>3178.6</ele>
        <time>2021-08-06 16:00:28</time>
      </trkpt>
      <trkpt lat="37.05189" lon="-3.36125">
        <ele>3178.6</ele>
        <time>2021-08-06 16:00:29</time>
      </trkpt>
      <trkpt lat="37.05189" lon="-3.36126">
        <ele>3178.6</ele>
        <time>2021-08-06 16:00:30</time>
      </trkpt>
      <trkpt lat="37.05189" lon="-3.36127">
        <ele>3178.6</ele>
        <time>2021-08-06 16:00:31</time>
      </trkpt>
      <trkpt lat="37.05188" lon="-3.36128">
        <ele>3178.6</ele>
        <time>2021-08-06 16:00:32</time>
      </trkpt>
      <trkpt lat="37.05188" lon="-3.36129">
        <ele>3178.6</ele>
        <time>2021-08-06 16:00:33</time>
      </trkpt>
      <trkpt lat="37.05188" lon="-3.3613">
        <ele>3178.6</ele>
        <time>2021-08-06 16:00:34</time>
      </trkpt>
      <trkpt lat="37.05188" lon="-3.36131">
        <ele>3178.4</ele>
        <time>2021-08-06 16:00:35</time>
      </trkpt>
      <trkpt lat="37.05188" lon="-3.36133">
        <ele>3178.4</ele>
        <time>2021-08-06 16:00:36</time>
      </trkpt>
      <trkpt lat="37.05188" lon="-3.36133">
        <ele>3178.4</ele>
        <time>2021-08-06 16:00:37</time>
      </trkpt>
      <trkpt lat="37.05188" lon="-3.36134">
        <ele>3178.4</ele>
        <time>2021-08-06 16:00:38</time>
      </trkpt>
      <trkpt lat="37.05188" lon="-3.36134">
        <ele>3178.4</ele>
        <time>2021-08-06 16:00:39</time>
      </trkpt>
      <trkpt lat="37.05188" lon="-3.36134">
        <ele>3178.4</ele>
        <time>2021-08-06 16:00:40</time>
      </trkpt>
      <trkpt lat="37.05188" lon="-3.36135">
        <ele>3178.4</ele>
        <time>2021-08-06 16:00:41</time>
      </trkpt>
      <trkpt lat="37.05188" lon="-3.36135">
        <ele>3178.4</ele>
        <time>2021-08-06 16:00:42</time>
      </trkpt>
      <trkpt lat="37.05188" lon="-3.36135">
        <ele>3178.4</ele>
        <time>2021-08-06 16:00:43</time>
      </trkpt>
      <trkpt lat="37.05189" lon="-3.36135">
        <ele>3178.2</ele>
        <time>2021-08-06 16:00:44</time>
      </trkpt>
      <trkpt lat="37.05189" lon="-3.36135">
        <ele>3178.2</ele>
        <time>2021-08-06 16:00:45</time>
      </trkpt>
      <trkpt lat="37.05188" lon="-3.36135">
        <ele>3178</ele>
        <time>2021-08-06 16:00:46</time>
      </trkpt>
      <trkpt lat="37.05188" lon="-3.36135">
        <ele>3178</ele>
        <time>2021-08-06 16:00:47</time>
      </trkpt>
      <trkpt lat="37.05188" lon="-3.36135">
        <ele>3177.8</ele>
        <time>2021-08-06 16:00:48</time>
      </trkpt>
      <trkpt lat="37.05189" lon="-3.36135">
        <ele>3177.8</ele>
        <time>2021-08-06 16:00:49</time>
      </trkpt>
      <trkpt lat="37.05189" lon="-3.36135">
        <ele>3177.8</ele>
        <time>2021-08-06 16:00:50</time>
      </trkpt>
      <trkpt lat="37.05189" lon="-3.36135">
        <ele>3177.8</ele>
        <time>2021-08-06 16:00:51</time>
      </trkpt>
      <trkpt lat="37.05189" lon="-3.36135">
        <ele>3177.8</ele>
        <time>2021-08-06 16:00:52</time>
      </trkpt>
      <trkpt lat="37.05188" lon="-3.36135">
        <ele>3177.8</ele>
        <time>2021-08-06 16:00:53</time>
      </trkpt>
      <trkpt lat="37.05188" lon="-3.36136">
        <ele>3177.8</ele>
        <time>2021-08-06 16:00:54</time>
      </trkpt>
      <trkpt lat="37.05189" lon="-3.36137">
        <ele>3178</ele>
        <time>2021-08-06 16:00:55</time>
      </trkpt>
      <trkpt lat="37.05189" lon="-3.36137">
        <ele>3178</ele>
        <time>2021-08-06 16:00:56</time>
      </trkpt>
      <trkpt lat="37.0519" lon="-3.36137">
        <ele>3178</ele>
        <time>2021-08-06 16:00:57</time>
      </trkpt>
      <trkpt lat="37.0519" lon="-3.36137">
        <ele>3178</ele>
        <time>2021-08-06 16:00:58</time>
      </trkpt>
      <trkpt lat="37.05191" lon="-3.36135">
        <ele>3178</ele>
        <time>2021-08-06 16:00:59</time>
      </trkpt>
      <trkpt lat="37.05191" lon="-3.36135">
        <ele>3178.4</ele>
        <time>2021-08-06 16:01:00</time>
      </trkpt>
      <trkpt lat="37.05191" lon="-3.36135">
        <ele>3178.6</ele>
        <time>2021-08-06 16:01:01</time>
      </trkpt>
      <trkpt lat="37.05191" lon="-3.36135">
        <ele>3178.6</ele>
        <time>2021-08-06 16:01:02</time>
      </trkpt>
      <trkpt lat="37.0519" lon="-3.36135">
        <ele>3178.8</ele>
        <time>2021-08-06 16:01:03</time>
      </trkpt>
      <trkpt lat="37.0519" lon="-3.36136">
        <ele>3178.8</ele>
        <time>2021-08-06 16:01:04</time>
      </trkpt>
      <trkpt lat="37.05191" lon="-3.36137">
        <ele>3178.8</ele>
        <time>2021-08-06 16:01:05</time>
      </trkpt>
      <trkpt lat="37.0519" lon="-3.36138">
        <ele>3178.8</ele>
        <time>2021-08-06 16:01:06</time>
      </trkpt>
      <trkpt lat="37.05191" lon="-3.36138">
        <ele>3178.8</ele>
        <time>2021-08-06 16:01:07</time>
      </trkpt>
      <trkpt lat="37.05191" lon="-3.36138">
        <ele>3178.8</ele>
        <time>2021-08-06 16:01:08</time>
      </trkpt>
      <trkpt lat="37.05191" lon="-3.36138">
        <ele>3178.8</ele>
        <time>2021-08-06 16:01:09</time>
      </trkpt>
      <trkpt lat="37.05191" lon="-3.36137">
        <ele>3178.8</ele>
        <time>2021-08-06 16:01:10</time>
      </trkpt>
      <trkpt lat="37.05191" lon="-3.36137">
        <ele>3178.6</ele>
        <time>2021-08-06 16:01:11</time>
      </trkpt>
      <trkpt lat="37.05192" lon="-3.36136">
        <ele>3178.6</ele>
        <time>2021-08-06 16:01:12</time>
      </trkpt>
      <trkpt lat="37.05191" lon="-3.36136">
        <ele>3178.6</ele>
        <time>2021-08-06 16:01:13</time>
      </trkpt>
      <trkpt lat="37.05189" lon="-3.36136">
        <ele>3178.4</ele>
        <time>2021-08-06 16:01:14</time>
      </trkpt>
      <trkpt lat="37.05189" lon="-3.36137">
        <ele>3178.2</ele>
        <time>2021-08-06 16:01:15</time>
      </trkpt>
      <trkpt lat="37.05188" lon="-3.36137">
        <ele>3178.2</ele>
        <time>2021-08-06 16:01:16</time>
      </trkpt>
      <trkpt lat="37.05188" lon="-3.36137">
        <ele>3178.2</ele>
        <time>2021-08-06 16:01:17</time>
      </trkpt>
      <trkpt lat="37.05188" lon="-3.36137">
        <ele>3178.2</ele>
        <time>2021-08-06 16:01:18</time>
      </trkpt>
      <trkpt lat="37.05188" lon="-3.36137">
        <ele>3178.6</ele>
        <time>2021-08-06 16:01:19</time>
      </trkpt>
      <trkpt lat="37.05188" lon="-3.36138">
        <ele>3178.4</ele>
        <time>2021-08-06 16:01:20</time>
      </trkpt>
      <trkpt lat="37.05187" lon="-3.36138">
        <ele>3178.6</ele>
        <time>2021-08-06 16:01:21</time>
      </trkpt>
      <trkpt lat="37.05187" lon="-3.36138">
        <ele>3178.6</ele>
        <time>2021-08-06 16:01:22</time>
      </trkpt>
      <trkpt lat="37.05187" lon="-3.36138">
        <ele>3178.8</ele>
        <time>2021-08-06 16:01:23</time>
      </trkpt>
      <trkpt lat="37.05187" lon="-3.36138">
        <ele>3178.8</ele>
        <time>2021-08-06 16:01:24</time>
      </trkpt>
      <trkpt lat="37.05188" lon="-3.36138">
        <ele>3178.8</ele>
        <time>2021-08-06 16:01:25</time>
      </trkpt>
      <trkpt lat="37.05188" lon="-3.36138">
        <ele>3179</ele>
        <time>2021-08-06 16:01:26</time>
      </trkpt>
      <trkpt lat="37.05188" lon="-3.36137">
        <ele>3179</ele>
        <time>2021-08-06 16:01:27</time>
      </trkpt>
      <trkpt lat="37.05188" lon="-3.36137">
        <ele>3179</ele>
        <time>2021-08-06 16:01:28</time>
      </trkpt>
      <trkpt lat="37.05188" lon="-3.36137">
        <ele>3179</ele>
        <time>2021-08-06 16:01:29</time>
      </trkpt>
      <trkpt lat="37.05188" lon="-3.36137">
        <ele>3179</ele>
        <time>2021-08-06 16:01:30</time>
      </trkpt>
      <trkpt lat="37.05188" lon="-3.36137">
        <ele>3179</ele>
        <time>2021-08-06 16:01:31</time>
      </trkpt>
      <trkpt lat="37.05189" lon="-3.36137">
        <ele>3179</ele>
        <time>2021-08-06 16:01:32</time>
      </trkpt>
      <trkpt lat="37.05189" lon="-3.36137">
        <ele>3179</ele>
        <time>2021-08-06 16:01:33</time>
      </trkpt>
      <trkpt lat="37.05189" lon="-3.36137">
        <ele>3179</ele>
        <time>2021-08-06 16:01:34</time>
      </trkpt>
      <trkpt lat="37.05189" lon="-3.36137">
        <ele>3179</ele>
        <time>2021-08-06 16:01:35</time>
      </trkpt>
      <trkpt lat="37.05189" lon="-3.36137">
        <ele>3179</ele>
        <time>2021-08-06 16:01:36</time>
      </trkpt>
      <trkpt lat="37.0519" lon="-3.36137">
        <ele>3178.8</ele>
        <time>2021-08-06 16:01:37</time>
      </trkpt>
      <trkpt lat="37.0519" lon="-3.36137">
        <ele>3178.6</ele>
        <time>2021-08-06 16:01:38</time>
      </trkpt>
      <trkpt lat="37.0519" lon="-3.36137">
        <ele>3178.6</ele>
        <time>2021-08-06 16:01:39</time>
      </trkpt>
      <trkpt lat="37.05191" lon="-3.36137">
        <ele>3178.8</ele>
        <time>2021-08-06 16:01:40</time>
      </trkpt>
      <trkpt lat="37.05192" lon="-3.36138">
        <ele>3178.8</ele>
        <time>2021-08-06 16:01:41</time>
      </trkpt>
      <trkpt lat="37.05193" lon="-3.36138">
        <ele>3179</ele>
        <time>2021-08-06 16:01:42</time>
      </trkpt>
      <trkpt lat="37.05194" lon="-3.36139">
        <ele>3179.2</ele>
        <time>2021-08-06 16:01:43</time>
      </trkpt>
      <trkpt lat="37.05195" lon="-3.36141">
        <ele>3179.6</ele>
        <time>2021-08-06 16:01:44</time>
      </trkpt>
      <trkpt lat="37.05196" lon="-3.3614">
        <ele>3180</ele>
        <time>2021-08-06 16:01:45</time>
      </trkpt>
      <trkpt lat="37.05198" lon="-3.36138">
        <ele>3180.4</ele>
        <time>2021-08-06 16:01:46</time>
      </trkpt>
      <trkpt lat="37.05199" lon="-3.36136">
        <ele>3180.6</ele>
        <time>2021-08-06 16:01:47</time>
      </trkpt>
      <trkpt lat="37.05199" lon="-3.36135">
        <ele>3181.4</ele>
        <time>2021-08-06 16:01:48</time>
      </trkpt>
      <trkpt lat="37.052" lon="-3.36134">
        <ele>3181.8</ele>
        <time>2021-08-06 16:01:49</time>
      </trkpt>
      <trkpt lat="37.052" lon="-3.36133">
        <ele>3182</ele>
        <time>2021-08-06 16:01:50</time>
      </trkpt>
      <trkpt lat="37.052" lon="-3.36132">
        <ele>3182.4</ele>
        <time>2021-08-06 16:01:51</time>
      </trkpt>
      <trkpt lat="37.05201" lon="-3.36132">
        <ele>3182.2</ele>
        <time>2021-08-06 16:01:52</time>
      </trkpt>
      <trkpt lat="37.05201" lon="-3.36131">
        <ele>3182.4</ele>
        <time>2021-08-06 16:01:53</time>
      </trkpt>
      <trkpt lat="37.05202" lon="-3.3613">
        <ele>3182.4</ele>
        <time>2021-08-06 16:01:54</time>
      </trkpt>
      <trkpt lat="37.05202" lon="-3.36129">
        <ele>3182.6</ele>
        <time>2021-08-06 16:01:55</time>
      </trkpt>
      <trkpt lat="37.05203" lon="-3.36127">
        <ele>3182.8</ele>
        <time>2021-08-06 16:01:56</time>
      </trkpt>
      <trkpt lat="37.05203" lon="-3.36126">
        <ele>3182.8</ele>
        <time>2021-08-06 16:01:57</time>
      </trkpt>
      <trkpt lat="37.05203" lon="-3.36125">
        <ele>3183</ele>
        <time>2021-08-06 16:01:58</time>
      </trkpt>
      <trkpt lat="37.05205" lon="-3.36125">
        <ele>3183</ele>
        <time>2021-08-06 16:01:59</time>
      </trkpt>
      <trkpt lat="37.05205" lon="-3.36125">
        <ele>3183.2</ele>
        <time>2021-08-06 16:02:00</time>
      </trkpt>
      <trkpt lat="37.05204" lon="-3.36125">
        <ele>3183.2</ele>
        <time>2021-08-06 16:02:01</time>
      </trkpt>
      <trkpt lat="37.05204" lon="-3.36125">
        <ele>3183.4</ele>
        <time>2021-08-06 16:02:02</time>
      </trkpt>
      <trkpt lat="37.05204" lon="-3.36125">
        <ele>3183.4</ele>
        <time>2021-08-06 16:02:03</time>
      </trkpt>
      <trkpt lat="37.05204" lon="-3.36125">
        <ele>3183.6</ele>
        <time>2021-08-06 16:02:04</time>
      </trkpt>
      <trkpt lat="37.05204" lon="-3.36125">
        <ele>3183.4</ele>
        <time>2021-08-06 16:02:05</time>
      </trkpt>
      <trkpt lat="37.05204" lon="-3.36125">
        <ele>3183.6</ele>
        <time>2021-08-06 16:02:06</time>
      </trkpt>
      <trkpt lat="37.05204" lon="-3.36125">
        <ele>3183.8</ele>
        <time>2021-08-06 16:02:07</time>
      </trkpt>
      <trkpt lat="37.05204" lon="-3.36125">
        <ele>3183.8</ele>
        <time>2021-08-06 16:02:08</time>
      </trkpt>
      <trkpt lat="37.05203" lon="-3.36125">
        <ele>3183.6</ele>
        <time>2021-08-06 16:02:09</time>
      </trkpt>
      <trkpt lat="37.05203" lon="-3.36125">
        <ele>3183.6</ele>
        <time>2021-08-06 16:02:10</time>
      </trkpt>
      <trkpt lat="37.05203" lon="-3.36125">
        <ele>3183.6</ele>
        <time>2021-08-06 16:02:11</time>
      </trkpt>
      <trkpt lat="37.05203" lon="-3.36125">
        <ele>3183.6</ele>
        <time>2021-08-06 16:02:12</time>
      </trkpt>
      <trkpt lat="37.05202" lon="-3.36125">
        <ele>3183.4</ele>
        <time>2021-08-06 16:02:13</time>
      </trkpt>
      <trkpt lat="37.05202" lon="-3.36125">
        <ele>3183.4</ele>
        <time>2021-08-06 16:02:14</time>
      </trkpt>
      <trkpt lat="37.05202" lon="-3.36125">
        <ele>3183.6</ele>
        <time>2021-08-06 16:02:15</time>
      </trkpt>
      <trkpt lat="37.05201" lon="-3.36127">
        <ele>3183.6</ele>
        <time>2021-08-06 16:02:16</time>
      </trkpt>
      <trkpt lat="37.05201" lon="-3.36127">
        <ele>3183.6</ele>
        <time>2021-08-06 16:02:17</time>
      </trkpt>
      <trkpt lat="37.05201" lon="-3.36127">
        <ele>3183.6</ele>
        <time>2021-08-06 16:02:18</time>
      </trkpt>
      <trkpt lat="37.052" lon="-3.36128">
        <ele>3183.6</ele>
        <time>2021-08-06 16:02:19</time>
      </trkpt>
      <trkpt lat="37.052" lon="-3.36129">
        <ele>3183.6</ele>
        <time>2021-08-06 16:02:20</time>
      </trkpt>
      <trkpt lat="37.05201" lon="-3.36128">
        <ele>3183.6</ele>
        <time>2021-08-06 16:02:21</time>
      </trkpt>
      <trkpt lat="37.05201" lon="-3.36128">
        <ele>3183.6</ele>
        <time>2021-08-06 16:02:22</time>
      </trkpt>
      <trkpt lat="37.05202" lon="-3.36127">
        <ele>3183.6</ele>
        <time>2021-08-06 16:02:23</time>
      </trkpt>
      <trkpt lat="37.05203" lon="-3.36126">
        <ele>3183.6</ele>
        <time>2021-08-06 16:02:24</time>
      </trkpt>
      <trkpt lat="37.05204" lon="-3.36125">
        <ele>3183.6</ele>
        <time>2021-08-06 16:02:25</time>
      </trkpt>
      <trkpt lat="37.05204" lon="-3.36125">
        <ele>3183.8</ele>
        <time>2021-08-06 16:02:26</time>
      </trkpt>
      <trkpt lat="37.05204" lon="-3.36125">
        <ele>3184</ele>
        <time>2021-08-06 16:02:27</time>
      </trkpt>
      <trkpt lat="37.05204" lon="-3.36125">
        <ele>3184</ele>
        <time>2021-08-06 16:02:28</time>
      </trkpt>
      <trkpt lat="37.05204" lon="-3.36125">
        <ele>3184</ele>
        <time>2021-08-06 16:02:29</time>
      </trkpt>
      <trkpt lat="37.05203" lon="-3.36125">
        <ele>3184</ele>
        <time>2021-08-06 16:02:30</time>
      </trkpt>
      <trkpt lat="37.05202" lon="-3.36125">
        <ele>3184</ele>
        <time>2021-08-06 16:02:31</time>
      </trkpt>
      <trkpt lat="37.05202" lon="-3.36125">
        <ele>3184</ele>
        <time>2021-08-06 16:02:32</time>
      </trkpt>
      <trkpt lat="37.05202" lon="-3.36125">
        <ele>3184</ele>
        <time>2021-08-06 16:02:33</time>
      </trkpt>
      <trkpt lat="37.05202" lon="-3.36125">
        <ele>3183.8</ele>
        <time>2021-08-06 16:02:34</time>
      </trkpt>
      <trkpt lat="37.05201" lon="-3.36126">
        <ele>3183.8</ele>
        <time>2021-08-06 16:02:35</time>
      </trkpt>
      <trkpt lat="37.05201" lon="-3.36126">
        <ele>3183.8</ele>
        <time>2021-08-06 16:02:36</time>
      </trkpt>
      <trkpt lat="37.05201" lon="-3.36127">
        <ele>3183.6</ele>
        <time>2021-08-06 16:02:37</time>
      </trkpt>
      <trkpt lat="37.052" lon="-3.36128">
        <ele>3183.6</ele>
        <time>2021-08-06 16:02:38</time>
      </trkpt>
      <trkpt lat="37.052" lon="-3.36128">
        <ele>3183.8</ele>
        <time>2021-08-06 16:02:39</time>
      </trkpt>
      <trkpt lat="37.05199" lon="-3.36129">
        <ele>3183.6</ele>
        <time>2021-08-06 16:02:40</time>
      </trkpt>
      <trkpt lat="37.05199" lon="-3.3613">
        <ele>3183.6</ele>
        <time>2021-08-06 16:02:41</time>
      </trkpt>
      <trkpt lat="37.05198" lon="-3.36131">
        <ele>3183.6</ele>
        <time>2021-08-06 16:02:42</time>
      </trkpt>
      <trkpt lat="37.05197" lon="-3.36131">
        <ele>3183.4</ele>
        <time>2021-08-06 16:02:43</time>
      </trkpt>
      <trkpt lat="37.05197" lon="-3.36131">
        <ele>3183</ele>
        <time>2021-08-06 16:02:44</time>
      </trkpt>
      <trkpt lat="37.05197" lon="-3.36131">
        <ele>3182.8</ele>
        <time>2021-08-06 16:02:45</time>
      </trkpt>
      <trkpt lat="37.05197" lon="-3.36131">
        <ele>3182.6</ele>
        <time>2021-08-06 16:02:46</time>
      </trkpt>
      <trkpt lat="37.05197" lon="-3.36131">
        <ele>3182.8</ele>
        <time>2021-08-06 16:02:47</time>
      </trkpt>
      <trkpt lat="37.05197" lon="-3.36131">
        <ele>3182.8</ele>
        <time>2021-08-06 16:02:48</time>
      </trkpt>
      <trkpt lat="37.05198" lon="-3.36132">
        <ele>3182.8</ele>
        <time>2021-08-06 16:02:49</time>
      </trkpt>
      <trkpt lat="37.05198" lon="-3.36132">
        <ele>3182.6</ele>
        <time>2021-08-06 16:02:50</time>
      </trkpt>
      <trkpt lat="37.05198" lon="-3.36132">
        <ele>3182.8</ele>
        <time>2021-08-06 16:02:51</time>
      </trkpt>
      <trkpt lat="37.05198" lon="-3.36132">
        <ele>3182.6</ele>
        <time>2021-08-06 16:02:52</time>
      </trkpt>
      <trkpt lat="37.05198" lon="-3.36133">
        <ele>3182.6</ele>
        <time>2021-08-06 16:02:53</time>
      </trkpt>
      <trkpt lat="37.05198" lon="-3.36133">
        <ele>3182.4</ele>
        <time>2021-08-06 16:02:54</time>
      </trkpt>
      <trkpt lat="37.05198" lon="-3.36133">
        <ele>3182.2</ele>
        <time>2021-08-06 16:02:55</time>
      </trkpt>
      <trkpt lat="37.05198" lon="-3.36133">
        <ele>3182.2</ele>
        <time>2021-08-06 16:02:56</time>
      </trkpt>
      <trkpt lat="37.05199" lon="-3.36133">
        <ele>3182</ele>
        <time>2021-08-06 16:02:57</time>
      </trkpt>
      <trkpt lat="37.05199" lon="-3.36133">
        <ele>3181.8</ele>
        <time>2021-08-06 16:02:58</time>
      </trkpt>
      <trkpt lat="37.05199" lon="-3.36133">
        <ele>3181.8</ele>
        <time>2021-08-06 16:02:59</time>
      </trkpt>
      <trkpt lat="37.05198" lon="-3.36132">
        <ele>3181.8</ele>
        <time>2021-08-06 16:03:00</time>
      </trkpt>
      <trkpt lat="37.05197" lon="-3.36132">
        <ele>3182</ele>
        <time>2021-08-06 16:03:01</time>
      </trkpt>
      <trkpt lat="37.05197" lon="-3.36131">
        <ele>3181.8</ele>
        <time>2021-08-06 16:03:02</time>
      </trkpt>
      <trkpt lat="37.05198" lon="-3.36131">
        <ele>3181.8</ele>
        <time>2021-08-06 16:03:03</time>
      </trkpt>
      <trkpt lat="37.05198" lon="-3.36131">
        <ele>3182</ele>
        <time>2021-08-06 16:03:04</time>
      </trkpt>
      <trkpt lat="37.05198" lon="-3.36131">
        <ele>3182</ele>
        <time>2021-08-06 16:03:05</time>
      </trkpt>
      <trkpt lat="37.05198" lon="-3.36131">
        <ele>3182</ele>
        <time>2021-08-06 16:03:06</time>
      </trkpt>
      <trkpt lat="37.05198" lon="-3.3613">
        <ele>3182</ele>
        <time>2021-08-06 16:03:07</time>
      </trkpt>
      <trkpt lat="37.052" lon="-3.36132">
        <ele>3182</ele>
        <time>2021-08-06 16:03:08</time>
      </trkpt>
      <trkpt lat="37.052" lon="-3.36132">
        <ele>3182</ele>
        <time>2021-08-06 16:03:09</time>
      </trkpt>
      <trkpt lat="37.052" lon="-3.36132">
        <ele>3182</ele>
        <time>2021-08-06 16:03:10</time>
      </trkpt>
      <trkpt lat="37.052" lon="-3.36132">
        <ele>3182</ele>
        <time>2021-08-06 16:03:11</time>
      </trkpt>
      <trkpt lat="37.052" lon="-3.36132">
        <ele>3182.2</ele>
        <time>2021-08-06 16:03:12</time>
      </trkpt>
      <trkpt lat="37.052" lon="-3.36131">
        <ele>3182.2</ele>
        <time>2021-08-06 16:03:13</time>
      </trkpt>
      <trkpt lat="37.05201" lon="-3.3613">
        <ele>3182.2</ele>
        <time>2021-08-06 16:03:14</time>
      </trkpt>
      <trkpt lat="37.05199" lon="-3.36131">
        <ele>3182.2</ele>
        <time>2021-08-06 16:03:15</time>
      </trkpt>
      <trkpt lat="37.05199" lon="-3.36131">
        <ele>3182.2</ele>
        <time>2021-08-06 16:03:16</time>
      </trkpt>
      <trkpt lat="37.05199" lon="-3.36131">
        <ele>3182.2</ele>
        <time>2021-08-06 16:03:17</time>
      </trkpt>
      <trkpt lat="37.05199" lon="-3.36131">
        <ele>3182.2</ele>
        <time>2021-08-06 16:03:18</time>
      </trkpt>
      <trkpt lat="37.052" lon="-3.36135">
        <ele>3182.2</ele>
        <time>2021-08-06 16:03:19</time>
      </trkpt>
      <trkpt lat="37.052" lon="-3.36135">
        <ele>3182</ele>
        <time>2021-08-06 16:03:20</time>
      </trkpt>
      <trkpt lat="37.05199" lon="-3.36134">
        <ele>3182</ele>
        <time>2021-08-06 16:03:21</time>
      </trkpt>
      <trkpt lat="37.05199" lon="-3.36134">
        <ele>3182</ele>
        <time>2021-08-06 16:03:22</time>
      </trkpt>
      <trkpt lat="37.05199" lon="-3.36134">
        <ele>3182.2</ele>
        <time>2021-08-06 16:03:23</time>
      </trkpt>
      <trkpt lat="37.05198" lon="-3.36134">
        <ele>3182.2</ele>
        <time>2021-08-06 16:03:24</time>
      </trkpt>
      <trkpt lat="37.05198" lon="-3.36134">
        <ele>3182.2</ele>
        <time>2021-08-06 16:03:25</time>
      </trkpt>
      <trkpt lat="37.05198" lon="-3.36134">
        <ele>3182.4</ele>
        <time>2021-08-06 16:03:26</time>
      </trkpt>
      <trkpt lat="37.05198" lon="-3.36134">
        <ele>3182.4</ele>
        <time>2021-08-06 16:03:27</time>
      </trkpt>
      <trkpt lat="37.05198" lon="-3.36134">
        <ele>3182.4</ele>
        <time>2021-08-06 16:03:28</time>
      </trkpt>
      <trkpt lat="37.05198" lon="-3.36134">
        <ele>3182.6</ele>
        <time>2021-08-06 16:03:29</time>
      </trkpt>
      <trkpt lat="37.05198" lon="-3.36133">
        <ele>3182.6</ele>
        <time>2021-08-06 16:03:30</time>
      </trkpt>
      <trkpt lat="37.05198" lon="-3.36133">
        <ele>3182.6</ele>
        <time>2021-08-06 16:03:31</time>
      </trkpt>
      <trkpt lat="37.05198" lon="-3.36133">
        <ele>3182.4</ele>
        <time>2021-08-06 16:03:32</time>
      </trkpt>
      <trkpt lat="37.05198" lon="-3.36133">
        <ele>3182.2</ele>
        <time>2021-08-06 16:03:33</time>
      </trkpt>
      <trkpt lat="37.05198" lon="-3.36132">
        <ele>3182.2</ele>
        <time>2021-08-06 16:03:34</time>
      </trkpt>
      <trkpt lat="37.05199" lon="-3.36133">
        <ele>3182</ele>
        <time>2021-08-06 16:03:35</time>
      </trkpt>
      <trkpt lat="37.05199" lon="-3.36133">
        <ele>3181.8</ele>
        <time>2021-08-06 16:03:36</time>
      </trkpt>
      <trkpt lat="37.05199" lon="-3.36132">
        <ele>3181.8</ele>
        <time>2021-08-06 16:03:37</time>
      </trkpt>
      <trkpt lat="37.05199" lon="-3.36133">
        <ele>3181.8</ele>
        <time>2021-08-06 16:03:38</time>
      </trkpt>
      <trkpt lat="37.05199" lon="-3.36133">
        <ele>3181.8</ele>
        <time>2021-08-06 16:03:39</time>
      </trkpt>
      <trkpt lat="37.05199" lon="-3.36133">
        <ele>3181.8</ele>
        <time>2021-08-06 16:03:40</time>
      </trkpt>
      <trkpt lat="37.05198" lon="-3.36134">
        <ele>3181.8</ele>
        <time>2021-08-06 16:03:41</time>
      </trkpt>
      <trkpt lat="37.05198" lon="-3.36134">
        <ele>3181.8</ele>
        <time>2021-08-06 16:03:42</time>
      </trkpt>
      <trkpt lat="37.05198" lon="-3.36134">
        <ele>3181.8</ele>
        <time>2021-08-06 16:03:43</time>
      </trkpt>
      <trkpt lat="37.05198" lon="-3.36134">
        <ele>3181.8</ele>
        <time>2021-08-06 16:03:44</time>
      </trkpt>
      <trkpt lat="37.05198" lon="-3.36134">
        <ele>3182</ele>
        <time>2021-08-06 16:03:45</time>
      </trkpt>
      <trkpt lat="37.05198" lon="-3.36135">
        <ele>3182.2</ele>
        <time>2021-08-06 16:03:46</time>
      </trkpt>
      <trkpt lat="37.05197" lon="-3.36135">
        <ele>3182.2</ele>
        <time>2021-08-06 16:03:47</time>
      </trkpt>
      <trkpt lat="37.05197" lon="-3.36135">
        <ele>3182</ele>
        <time>2021-08-06 16:03:48</time>
      </trkpt>
      <trkpt lat="37.05197" lon="-3.36135">
        <ele>3181.8</ele>
        <time>2021-08-06 16:03:49</time>
      </trkpt>
      <trkpt lat="37.05196" lon="-3.36135">
        <ele>3181.6</ele>
        <time>2021-08-06 16:03:50</time>
      </trkpt>
      <trkpt lat="37.05196" lon="-3.36136">
        <ele>3181.6</ele>
        <time>2021-08-06 16:03:51</time>
      </trkpt>
      <trkpt lat="37.05196" lon="-3.36136">
        <ele>3181.6</ele>
        <time>2021-08-06 16:03:52</time>
      </trkpt>
      <trkpt lat="37.05195" lon="-3.36136">
        <ele>3181.6</ele>
        <time>2021-08-06 16:03:53</time>
      </trkpt>
      <trkpt lat="37.05195" lon="-3.36136">
        <ele>3181.6</ele>
        <time>2021-08-06 16:03:54</time>
      </trkpt>
      <trkpt lat="37.05195" lon="-3.36135">
        <ele>3181.4</ele>
        <time>2021-08-06 16:03:55</time>
      </trkpt>
      <trkpt lat="37.05194" lon="-3.36135">
        <ele>3181.6</ele>
        <time>2021-08-06 16:03:56</time>
      </trkpt>
      <trkpt lat="37.05194" lon="-3.36135">
        <ele>3181.6</ele>
        <time>2021-08-06 16:03:57</time>
      </trkpt>
      <trkpt lat="37.05195" lon="-3.36136">
        <ele>3181.6</ele>
        <time>2021-08-06 16:03:58</time>
      </trkpt>
      <trkpt lat="37.05195" lon="-3.36136">
        <ele>3181.6</ele>
        <time>2021-08-06 16:03:59</time>
      </trkpt>
      <trkpt lat="37.05196" lon="-3.36136">
        <ele>3181.6</ele>
        <time>2021-08-06 16:04:00</time>
      </trkpt>
      <trkpt lat="37.05197" lon="-3.36136">
        <ele>3181.4</ele>
        <time>2021-08-06 16:04:01</time>
      </trkpt>
      <trkpt lat="37.05197" lon="-3.36136">
        <ele>3181.6</ele>
        <time>2021-08-06 16:04:02</time>
      </trkpt>
      <trkpt lat="37.05196" lon="-3.36134">
        <ele>3181.4</ele>
        <time>2021-08-06 16:04:03</time>
      </trkpt>
      <trkpt lat="37.05196" lon="-3.36134">
        <ele>3181.4</ele>
        <time>2021-08-06 16:04:04</time>
      </trkpt>
      <trkpt lat="37.05196" lon="-3.36134">
        <ele>3181.4</ele>
        <time>2021-08-06 16:04:05</time>
      </trkpt>
      <trkpt lat="37.05197" lon="-3.36134">
        <ele>3181.2</ele>
        <time>2021-08-06 16:04:06</time>
      </trkpt>
      <trkpt lat="37.05197" lon="-3.36134">
        <ele>3181.4</ele>
        <time>2021-08-06 16:04:07</time>
      </trkpt>
      <trkpt lat="37.05196" lon="-3.36133">
        <ele>3181.6</ele>
        <time>2021-08-06 16:04:08</time>
      </trkpt>
      <trkpt lat="37.05194" lon="-3.36132">
        <ele>3181.6</ele>
        <time>2021-08-06 16:04:09</time>
      </trkpt>
      <trkpt lat="37.05193" lon="-3.36131">
        <ele>3181.6</ele>
        <time>2021-08-06 16:04:10</time>
      </trkpt>
      <trkpt lat="37.05193" lon="-3.36131">
        <ele>3181.6</ele>
        <time>2021-08-06 16:04:11</time>
      </trkpt>
      <trkpt lat="37.05193" lon="-3.36131">
        <ele>3181.2</ele>
        <time>2021-08-06 16:04:12</time>
      </trkpt>
      <trkpt lat="37.05193" lon="-3.36131">
        <ele>3180.8</ele>
        <time>2021-08-06 16:04:13</time>
      </trkpt>
      <trkpt lat="37.05193" lon="-3.3613">
        <ele>3180.4</ele>
        <time>2021-08-06 16:04:14</time>
      </trkpt>
      <trkpt lat="37.05193" lon="-3.3613">
        <ele>3180.2</ele>
        <time>2021-08-06 16:04:15</time>
      </trkpt>
      <trkpt lat="37.05193" lon="-3.36131">
        <ele>3179.8</ele>
        <time>2021-08-06 16:04:16</time>
      </trkpt>
      <trkpt lat="37.05193" lon="-3.36131">
        <ele>3179.6</ele>
        <time>2021-08-06 16:04:17</time>
      </trkpt>
      <trkpt lat="37.05193" lon="-3.36131">
        <ele>3179.6</ele>
        <time>2021-08-06 16:04:18</time>
      </trkpt>
      <trkpt lat="37.05192" lon="-3.36132">
        <ele>3179.6</ele>
        <time>2021-08-06 16:04:19</time>
      </trkpt>
      <trkpt lat="37.05193" lon="-3.36133">
        <ele>3179.6</ele>
        <time>2021-08-06 16:04:20</time>
      </trkpt>
      <trkpt lat="37.05193" lon="-3.36133">
        <ele>3179.4</ele>
        <time>2021-08-06 16:04:21</time>
      </trkpt>
      <trkpt lat="37.05194" lon="-3.36132">
        <ele>3179.4</ele>
        <time>2021-08-06 16:04:22</time>
      </trkpt>
      <trkpt lat="37.05194" lon="-3.36132">
        <ele>3179.4</ele>
        <time>2021-08-06 16:04:23</time>
      </trkpt>
      <trkpt lat="37.05195" lon="-3.36132">
        <ele>3179.2</ele>
        <time>2021-08-06 16:04:24</time>
      </trkpt>
      <trkpt lat="37.05195" lon="-3.36132">
        <ele>3179</ele>
        <time>2021-08-06 16:04:25</time>
      </trkpt>
      <trkpt lat="37.05195" lon="-3.36131">
        <ele>3178.8</ele>
        <time>2021-08-06 16:04:26</time>
      </trkpt>
      <trkpt lat="37.05195" lon="-3.36131">
        <ele>3178.6</ele>
        <time>2021-08-06 16:04:27</time>
      </trkpt>
      <trkpt lat="37.05195" lon="-3.36131">
        <ele>3178.4</ele>
        <time>2021-08-06 16:04:28</time>
      </trkpt>
      <trkpt lat="37.05194" lon="-3.36131">
        <ele>3178.4</ele>
        <time>2021-08-06 16:04:29</time>
      </trkpt>
      <trkpt lat="37.05194" lon="-3.36132">
        <ele>3178.4</ele>
        <time>2021-08-06 16:04:30</time>
      </trkpt>
      <trkpt lat="37.05194" lon="-3.36132">
        <ele>3178.4</ele>
        <time>2021-08-06 16:04:31</time>
      </trkpt>
      <trkpt lat="37.05194" lon="-3.36132">
        <ele>3178.4</ele>
        <time>2021-08-06 16:04:32</time>
      </trkpt>
      <trkpt lat="37.05194" lon="-3.36132">
        <ele>3178.4</ele>
        <time>2021-08-06 16:04:33</time>
      </trkpt>
      <trkpt lat="37.05194" lon="-3.36132">
        <ele>3178.4</ele>
        <time>2021-08-06 16:04:34</time>
      </trkpt>
      <trkpt lat="37.05194" lon="-3.36132">
        <ele>3178.4</ele>
        <time>2021-08-06 16:04:35</time>
      </trkpt>
      <trkpt lat="37.05194" lon="-3.36133">
        <ele>3178.4</ele>
        <time>2021-08-06 16:04:36</time>
      </trkpt>
      <trkpt lat="37.05193" lon="-3.36133">
        <ele>3178.4</ele>
        <time>2021-08-06 16:04:37</time>
      </trkpt>
      <trkpt lat="37.05193" lon="-3.36133">
        <ele>3178.2</ele>
        <time>2021-08-06 16:04:38</time>
      </trkpt>
      <trkpt lat="37.05193" lon="-3.36134">
        <ele>3178.2</ele>
        <time>2021-08-06 16:04:39</time>
      </trkpt>
      <trkpt lat="37.05193" lon="-3.36133">
        <ele>3178.2</ele>
        <time>2021-08-06 16:04:40</time>
      </trkpt>
      <trkpt lat="37.05193" lon="-3.36133">
        <ele>3178.2</ele>
        <time>2021-08-06 16:04:41</time>
      </trkpt>
      <trkpt lat="37.05192" lon="-3.36132">
        <ele>3178.2</ele>
        <time>2021-08-06 16:04:42</time>
      </trkpt>
      <trkpt lat="37.05192" lon="-3.36132">
        <ele>3178</ele>
        <time>2021-08-06 16:04:43</time>
      </trkpt>
      <trkpt lat="37.05192" lon="-3.36132">
        <ele>3178</ele>
        <time>2021-08-06 16:04:44</time>
      </trkpt>
      <trkpt lat="37.05192" lon="-3.36132">
        <ele>3178</ele>
        <time>2021-08-06 16:04:45</time>
      </trkpt>
      <trkpt lat="37.05192" lon="-3.36131">
        <ele>3178</ele>
        <time>2021-08-06 16:04:46</time>
      </trkpt>
      <trkpt lat="37.05192" lon="-3.36131">
        <ele>3178</ele>
        <time>2021-08-06 16:04:47</time>
      </trkpt>
      <trkpt lat="37.05192" lon="-3.36131">
        <ele>3178</ele>
        <time>2021-08-06 16:04:48</time>
      </trkpt>
      <trkpt lat="37.05192" lon="-3.36131">
        <ele>3178</ele>
        <time>2021-08-06 16:04:49</time>
      </trkpt>
      <trkpt lat="37.05191" lon="-3.36132">
        <ele>3178</ele>
        <time>2021-08-06 16:04:50</time>
      </trkpt>
      <trkpt lat="37.05191" lon="-3.36132">
        <ele>3178</ele>
        <time>2021-08-06 16:04:51</time>
      </trkpt>
      <trkpt lat="37.05192" lon="-3.36129">
        <ele>3178</ele>
        <time>2021-08-06 16:04:52</time>
      </trkpt>
      <trkpt lat="37.05191" lon="-3.36129">
        <ele>3178</ele>
        <time>2021-08-06 16:04:53</time>
      </trkpt>
      <trkpt lat="37.05192" lon="-3.36129">
        <ele>3178</ele>
        <time>2021-08-06 16:04:54</time>
      </trkpt>
      <trkpt lat="37.05192" lon="-3.36129">
        <ele>3178</ele>
        <time>2021-08-06 16:04:55</time>
      </trkpt>
      <trkpt lat="37.05192" lon="-3.36129">
        <ele>3178</ele>
        <time>2021-08-06 16:04:56</time>
      </trkpt>
      <trkpt lat="37.05191" lon="-3.36129">
        <ele>3178.2</ele>
        <time>2021-08-06 16:04:57</time>
      </trkpt>
      <trkpt lat="37.05192" lon="-3.36128">
        <ele>3178.2</ele>
        <time>2021-08-06 16:04:58</time>
      </trkpt>
      <trkpt lat="37.05191" lon="-3.36129">
        <ele>3178.2</ele>
        <time>2021-08-06 16:04:59</time>
      </trkpt>
      <trkpt lat="37.05191" lon="-3.36129">
        <ele>3178.2</ele>
        <time>2021-08-06 16:05:00</time>
      </trkpt>
      <trkpt lat="37.0519" lon="-3.36129">
        <ele>3178.4</ele>
        <time>2021-08-06 16:05:01</time>
      </trkpt>
      <trkpt lat="37.0519" lon="-3.36129">
        <ele>3178.4</ele>
        <time>2021-08-06 16:05:02</time>
      </trkpt>
      <trkpt lat="37.0519" lon="-3.36129">
        <ele>3178.4</ele>
        <time>2021-08-06 16:05:03</time>
      </trkpt>
      <trkpt lat="37.0519" lon="-3.36129">
        <ele>3178.4</ele>
        <time>2021-08-06 16:05:04</time>
      </trkpt>
      <trkpt lat="37.0519" lon="-3.36129">
        <ele>3178.4</ele>
        <time>2021-08-06 16:05:05</time>
      </trkpt>
      <trkpt lat="37.05191" lon="-3.36131">
        <ele>3178.4</ele>
        <time>2021-08-06 16:05:06</time>
      </trkpt>
      <trkpt lat="37.0519" lon="-3.36132">
        <ele>3178.6</ele>
        <time>2021-08-06 16:05:07</time>
      </trkpt>
      <trkpt lat="37.0519" lon="-3.36132">
        <ele>3178.8</ele>
        <time>2021-08-06 16:05:08</time>
      </trkpt>
      <trkpt lat="37.0519" lon="-3.36132">
        <ele>3179</ele>
        <time>2021-08-06 16:05:09</time>
      </trkpt>
      <trkpt lat="37.05191" lon="-3.36133">
        <ele>3179</ele>
        <time>2021-08-06 16:05:10</time>
      </trkpt>
      <trkpt lat="37.05191" lon="-3.36133">
        <ele>3179</ele>
        <time>2021-08-06 16:05:11</time>
      </trkpt>
      <trkpt lat="37.05191" lon="-3.36133">
        <ele>3179</ele>
        <time>2021-08-06 16:05:12</time>
      </trkpt>
      <trkpt lat="37.05192" lon="-3.36133">
        <ele>3178.8</ele>
        <time>2021-08-06 16:05:13</time>
      </trkpt>
      <trkpt lat="37.05192" lon="-3.36133">
        <ele>3178.6</ele>
        <time>2021-08-06 16:05:14</time>
      </trkpt>
      <trkpt lat="37.05192" lon="-3.36133">
        <ele>3178.4</ele>
        <time>2021-08-06 16:05:15</time>
      </trkpt>
      <trkpt lat="37.05192" lon="-3.36133">
        <ele>3178.4</ele>
        <time>2021-08-06 16:05:16</time>
      </trkpt>
      <trkpt lat="37.05192" lon="-3.36133">
        <ele>3178.4</ele>
        <time>2021-08-06 16:05:17</time>
      </trkpt>
      <trkpt lat="37.05192" lon="-3.36132">
        <ele>3178.6</ele>
        <time>2021-08-06 16:05:18</time>
      </trkpt>
      <trkpt lat="37.05192" lon="-3.36132">
        <ele>3178.8</ele>
        <time>2021-08-06 16:05:19</time>
      </trkpt>
      <trkpt lat="37.05192" lon="-3.36132">
        <ele>3178.8</ele>
        <time>2021-08-06 16:05:20</time>
      </trkpt>
      <trkpt lat="37.05192" lon="-3.36132">
        <ele>3178.8</ele>
        <time>2021-08-06 16:05:21</time>
      </trkpt>
      <trkpt lat="37.05192" lon="-3.36133">
        <ele>3178.8</ele>
        <time>2021-08-06 16:05:22</time>
      </trkpt>
      <trkpt lat="37.05192" lon="-3.36133">
        <ele>3178.8</ele>
        <time>2021-08-06 16:05:23</time>
      </trkpt>
      <trkpt lat="37.05192" lon="-3.36133">
        <ele>3178.8</ele>
        <time>2021-08-06 16:05:24</time>
      </trkpt>
      <trkpt lat="37.05192" lon="-3.36134">
        <ele>3178.8</ele>
        <time>2021-08-06 16:05:25</time>
      </trkpt>
      <trkpt lat="37.05192" lon="-3.36134">
        <ele>3178.4</ele>
        <time>2021-08-06 16:05:26</time>
      </trkpt>
      <trkpt lat="37.05192" lon="-3.36133">
        <ele>3178.2</ele>
        <time>2021-08-06 16:05:27</time>
      </trkpt>
      <trkpt lat="37.05192" lon="-3.36133">
        <ele>3178</ele>
        <time>2021-08-06 16:05:28</time>
      </trkpt>
      <trkpt lat="37.05192" lon="-3.36133">
        <ele>3178</ele>
        <time>2021-08-06 16:05:29</time>
      </trkpt>
      <trkpt lat="37.05193" lon="-3.36133">
        <ele>3178.2</ele>
        <time>2021-08-06 16:05:30</time>
      </trkpt>
      <trkpt lat="37.05192" lon="-3.36133">
        <ele>3178.4</ele>
        <time>2021-08-06 16:05:31</time>
      </trkpt>
      <trkpt lat="37.05192" lon="-3.36133">
        <ele>3178.4</ele>
        <time>2021-08-06 16:05:32</time>
      </trkpt>
      <trkpt lat="37.05191" lon="-3.36133">
        <ele>3178.4</ele>
        <time>2021-08-06 16:05:33</time>
      </trkpt>
      <trkpt lat="37.05191" lon="-3.36133">
        <ele>3178.6</ele>
        <time>2021-08-06 16:05:34</time>
      </trkpt>
      <trkpt lat="37.0519" lon="-3.36133">
        <ele>3178.6</ele>
        <time>2021-08-06 16:05:35</time>
      </trkpt>
      <trkpt lat="37.0519" lon="-3.36134">
        <ele>3178.6</ele>
        <time>2021-08-06 16:05:36</time>
      </trkpt>
      <trkpt lat="37.0519" lon="-3.36134">
        <ele>3178.6</ele>
        <time>2021-08-06 16:05:37</time>
      </trkpt>
      <trkpt lat="37.0519" lon="-3.36135">
        <ele>3178.6</ele>
        <time>2021-08-06 16:05:38</time>
      </trkpt>
      <trkpt lat="37.05189" lon="-3.36135">
        <ele>3178.4</ele>
        <time>2021-08-06 16:05:39</time>
      </trkpt>
      <trkpt lat="37.05189" lon="-3.36135">
        <ele>3178.4</ele>
        <time>2021-08-06 16:05:40</time>
      </trkpt>
      <trkpt lat="37.05189" lon="-3.36135">
        <ele>3178.4</ele>
        <time>2021-08-06 16:05:41</time>
      </trkpt>
      <trkpt lat="37.05189" lon="-3.36135">
        <ele>3178.2</ele>
        <time>2021-08-06 16:05:42</time>
      </trkpt>
      <trkpt lat="37.05189" lon="-3.36135">
        <ele>3178.2</ele>
        <time>2021-08-06 16:05:43</time>
      </trkpt>
      <trkpt lat="37.05189" lon="-3.36135">
        <ele>3178.2</ele>
        <time>2021-08-06 16:05:44</time>
      </trkpt>
      <trkpt lat="37.05189" lon="-3.36135">
        <ele>3178</ele>
        <time>2021-08-06 16:05:45</time>
      </trkpt>
      <trkpt lat="37.05189" lon="-3.36135">
        <ele>3178</ele>
        <time>2021-08-06 16:05:46</time>
      </trkpt>
      <trkpt lat="37.05189" lon="-3.36135">
        <ele>3178</ele>
        <time>2021-08-06 16:05:47</time>
      </trkpt>
      <trkpt lat="37.05189" lon="-3.36135">
        <ele>3178</ele>
        <time>2021-08-06 16:05:48</time>
      </trkpt>
      <trkpt lat="37.05189" lon="-3.36135">
        <ele>3178</ele>
        <time>2021-08-06 16:05:49</time>
      </trkpt>
      <trkpt lat="37.05189" lon="-3.36135">
        <ele>3178</ele>
        <time>2021-08-06 16:05:50</time>
      </trkpt>
      <trkpt lat="37.05189" lon="-3.36135">
        <ele>3178</ele>
        <time>2021-08-06 16:05:51</time>
      </trkpt>
      <trkpt lat="37.05189" lon="-3.36135">
        <ele>3178</ele>
        <time>2021-08-06 16:05:52</time>
      </trkpt>
      <trkpt lat="37.05189" lon="-3.36135">
        <ele>3178</ele>
        <time>2021-08-06 16:05:53</time>
      </trkpt>
      <trkpt lat="37.05189" lon="-3.36135">
        <ele>3178</ele>
        <time>2021-08-06 16:05:54</time>
      </trkpt>
      <trkpt lat="37.05189" lon="-3.36135">
        <ele>3178</ele>
        <time>2021-08-06 16:05:55</time>
      </trkpt>
      <trkpt lat="37.05189" lon="-3.36135">
        <ele>3178</ele>
        <time>2021-08-06 16:05:56</time>
      </trkpt>
      <trkpt lat="37.05189" lon="-3.36136">
        <ele>3178</ele>
        <time>2021-08-06 16:05:57</time>
      </trkpt>
      <trkpt lat="37.0519" lon="-3.36134">
        <ele>3178</ele>
        <time>2021-08-06 16:05:58</time>
      </trkpt>
      <trkpt lat="37.0519" lon="-3.36132">
        <ele>3178</ele>
        <time>2021-08-06 16:05:59</time>
      </trkpt>
      <trkpt lat="37.05191" lon="-3.3613">
        <ele>3178</ele>
        <time>2021-08-06 16:06:00</time>
      </trkpt>
      <trkpt lat="37.05191" lon="-3.36129">
        <ele>3178.2</ele>
        <time>2021-08-06 16:06:01</time>
      </trkpt>
      <trkpt lat="37.05191" lon="-3.36129">
        <ele>3178.2</ele>
        <time>2021-08-06 16:06:02</time>
      </trkpt>
      <trkpt lat="37.05192" lon="-3.36129">
        <ele>3178.4</ele>
        <time>2021-08-06 16:06:03</time>
      </trkpt>
      <trkpt lat="37.05192" lon="-3.36129">
        <ele>3178.4</ele>
        <time>2021-08-06 16:06:04</time>
      </trkpt>
      <trkpt lat="37.05192" lon="-3.36129">
        <ele>3178.4</ele>
        <time>2021-08-06 16:06:05</time>
      </trkpt>
      <trkpt lat="37.05191" lon="-3.36128">
        <ele>3178.4</ele>
        <time>2021-08-06 16:06:06</time>
      </trkpt>
      <trkpt lat="37.05191" lon="-3.36128">
        <ele>3178.4</ele>
        <time>2021-08-06 16:06:07</time>
      </trkpt>
      <trkpt lat="37.05191" lon="-3.36128">
        <ele>3178.4</ele>
        <time>2021-08-06 16:06:08</time>
      </trkpt>
      <trkpt lat="37.05191" lon="-3.36128">
        <ele>3178.2</ele>
        <time>2021-08-06 16:06:09</time>
      </trkpt>
      <trkpt lat="37.05191" lon="-3.36128">
        <ele>3178</ele>
        <time>2021-08-06 16:06:10</time>
      </trkpt>
      <trkpt lat="37.05191" lon="-3.36128">
        <ele>3178</ele>
        <time>2021-08-06 16:06:11</time>
      </trkpt>
      <trkpt lat="37.05191" lon="-3.36129">
        <ele>3178</ele>
        <time>2021-08-06 16:06:12</time>
      </trkpt>
      <trkpt lat="37.05191" lon="-3.36129">
        <ele>3178</ele>
        <time>2021-08-06 16:06:13</time>
      </trkpt>
      <trkpt lat="37.05191" lon="-3.36129">
        <ele>3178</ele>
        <time>2021-08-06 16:06:14</time>
      </trkpt>
      <trkpt lat="37.05191" lon="-3.3613">
        <ele>3178</ele>
        <time>2021-08-06 16:06:15</time>
      </trkpt>
      <trkpt lat="37.05191" lon="-3.3613">
        <ele>3178</ele>
        <time>2021-08-06 16:06:16</time>
      </trkpt>
      <trkpt lat="37.05191" lon="-3.3613">
        <ele>3178</ele>
        <time>2021-08-06 16:06:17</time>
      </trkpt>
      <trkpt lat="37.0519" lon="-3.36131">
        <ele>3178</ele>
        <time>2021-08-06 16:06:18</time>
      </trkpt>
      <trkpt lat="37.0519" lon="-3.36131">
        <ele>3178</ele>
        <time>2021-08-06 16:06:19</time>
      </trkpt>
      <trkpt lat="37.05191" lon="-3.36131">
        <ele>3178</ele>
        <time>2021-08-06 16:06:20</time>
      </trkpt>
      <trkpt lat="37.05191" lon="-3.36131">
        <ele>3178</ele>
        <time>2021-08-06 16:06:21</time>
      </trkpt>
      <trkpt lat="37.05191" lon="-3.36131">
        <ele>3178</ele>
        <time>2021-08-06 16:06:22</time>
      </trkpt>
      <trkpt lat="37.05191" lon="-3.3613">
        <ele>3178.2</ele>
        <time>2021-08-06 16:06:23</time>
      </trkpt>
      <trkpt lat="37.0519" lon="-3.36131">
        <ele>3178.2</ele>
        <time>2021-08-06 16:06:24</time>
      </trkpt>
      <trkpt lat="37.0519" lon="-3.36131">
        <ele>3178.2</ele>
        <time>2021-08-06 16:06:25</time>
      </trkpt>
      <trkpt lat="37.0519" lon="-3.36132">
        <ele>3178.4</ele>
        <time>2021-08-06 16:06:26</time>
      </trkpt>
      <trkpt lat="37.05191" lon="-3.36132">
        <ele>3178.4</ele>
        <time>2021-08-06 16:06:27</time>
      </trkpt>
      <trkpt lat="37.05191" lon="-3.36133">
        <ele>3178.4</ele>
        <time>2021-08-06 16:06:28</time>
      </trkpt>
      <trkpt lat="37.0519" lon="-3.36133">
        <ele>3178.4</ele>
        <time>2021-08-06 16:06:29</time>
      </trkpt>
      <trkpt lat="37.0519" lon="-3.36133">
        <ele>3178.4</ele>
        <time>2021-08-06 16:06:30</time>
      </trkpt>
      <trkpt lat="37.0519" lon="-3.36133">
        <ele>3178.4</ele>
        <time>2021-08-06 16:06:31</time>
      </trkpt>
      <trkpt lat="37.0519" lon="-3.36133">
        <ele>3178.6</ele>
        <time>2021-08-06 16:06:32</time>
      </trkpt>
      <trkpt lat="37.0519" lon="-3.36133">
        <ele>3178.6</ele>
        <time>2021-08-06 16:06:33</time>
      </trkpt>
      <trkpt lat="37.0519" lon="-3.36133">
        <ele>3178.6</ele>
        <time>2021-08-06 16:06:34</time>
      </trkpt>
      <trkpt lat="37.0519" lon="-3.36133">
        <ele>3178.4</ele>
        <time>2021-08-06 16:06:35</time>
      </trkpt>
      <trkpt lat="37.0519" lon="-3.36133">
        <ele>3178.4</ele>
        <time>2021-08-06 16:06:36</time>
      </trkpt>
      <trkpt lat="37.0519" lon="-3.36133">
        <ele>3178.4</ele>
        <time>2021-08-06 16:06:37</time>
      </trkpt>
      <trkpt lat="37.0519" lon="-3.36133">
        <ele>3178.2</ele>
        <time>2021-08-06 16:06:38</time>
      </trkpt>
      <trkpt lat="37.0519" lon="-3.36133">
        <ele>3178.2</ele>
        <time>2021-08-06 16:06:39</time>
      </trkpt>
      <trkpt lat="37.0519" lon="-3.36132">
        <ele>3178.2</ele>
        <time>2021-08-06 16:06:40</time>
      </trkpt>
      <trkpt lat="37.0519" lon="-3.36132">
        <ele>3178.2</ele>
        <time>2021-08-06 16:06:41</time>
      </trkpt>
      <trkpt lat="37.0519" lon="-3.36132">
        <ele>3178</ele>
        <time>2021-08-06 16:06:42</time>
      </trkpt>
      <trkpt lat="37.0519" lon="-3.36132">
        <ele>3178</ele>
        <time>2021-08-06 16:06:43</time>
      </trkpt>
      <trkpt lat="37.0519" lon="-3.36132">
        <ele>3178.2</ele>
        <time>2021-08-06 16:06:44</time>
      </trkpt>
      <trkpt lat="37.0519" lon="-3.36132">
        <ele>3178.4</ele>
        <time>2021-08-06 16:06:45</time>
      </trkpt>
      <trkpt lat="37.05191" lon="-3.36132">
        <ele>3178.6</ele>
        <time>2021-08-06 16:06:46</time>
      </trkpt>
      <trkpt lat="37.05191" lon="-3.36132">
        <ele>3178.8</ele>
        <time>2021-08-06 16:06:47</time>
      </trkpt>
      <trkpt lat="37.05191" lon="-3.36132">
        <ele>3178.8</ele>
        <time>2021-08-06 16:06:48</time>
      </trkpt>
      <trkpt lat="37.05192" lon="-3.36132">
        <ele>3179</ele>
        <time>2021-08-06 16:06:49</time>
      </trkpt>
      <trkpt lat="37.05192" lon="-3.36132">
        <ele>3179</ele>
        <time>2021-08-06 16:06:50</time>
      </trkpt>
      <trkpt lat="37.05192" lon="-3.36132">
        <ele>3178.8</ele>
        <time>2021-08-06 16:06:51</time>
      </trkpt>
      <trkpt lat="37.05192" lon="-3.36132">
        <ele>3178.8</ele>
        <time>2021-08-06 16:06:52</time>
      </trkpt>
      <trkpt lat="37.05192" lon="-3.36132">
        <ele>3178.8</ele>
        <time>2021-08-06 16:06:53</time>
      </trkpt>
      <trkpt lat="37.05192" lon="-3.36132">
        <ele>3178.6</ele>
        <time>2021-08-06 16:06:54</time>
      </trkpt>
      <trkpt lat="37.05192" lon="-3.36132">
        <ele>3178.6</ele>
        <time>2021-08-06 16:06:55</time>
      </trkpt>
      <trkpt lat="37.05192" lon="-3.36132">
        <ele>3178.4</ele>
        <time>2021-08-06 16:06:56</time>
      </trkpt>
      <trkpt lat="37.05191" lon="-3.36132">
        <ele>3178.2</ele>
        <time>2021-08-06 16:06:57</time>
      </trkpt>
      <trkpt lat="37.05191" lon="-3.36132">
        <ele>3178.2</ele>
        <time>2021-08-06 16:06:58</time>
      </trkpt>
      <trkpt lat="37.05191" lon="-3.36132">
        <ele>3178</ele>
        <time>2021-08-06 16:06:59</time>
      </trkpt>
      <trkpt lat="37.05191" lon="-3.36132">
        <ele>3178</ele>
        <time>2021-08-06 16:07:00</time>
      </trkpt>
      <trkpt lat="37.05191" lon="-3.36132">
        <ele>3178</ele>
        <time>2021-08-06 16:07:01</time>
      </trkpt>
      <trkpt lat="37.05191" lon="-3.36133">
        <ele>3178</ele>
        <time>2021-08-06 16:07:02</time>
      </trkpt>
      <trkpt lat="37.05191" lon="-3.36133">
        <ele>3178</ele>
        <time>2021-08-06 16:07:03</time>
      </trkpt>
      <trkpt lat="37.05191" lon="-3.36133">
        <ele>3178</ele>
        <time>2021-08-06 16:07:04</time>
      </trkpt>
      <trkpt lat="37.05191" lon="-3.36133">
        <ele>3178</ele>
        <time>2021-08-06 16:07:05</time>
      </trkpt>
      <trkpt lat="37.05191" lon="-3.36133">
        <ele>3178</ele>
        <time>2021-08-06 16:07:06</time>
      </trkpt>
      <trkpt lat="37.05191" lon="-3.36133">
        <ele>3177.8</ele>
        <time>2021-08-06 16:07:07</time>
      </trkpt>
      <trkpt lat="37.0519" lon="-3.36133">
        <ele>3177.8</ele>
        <time>2021-08-06 16:07:08</time>
      </trkpt>
      <trkpt lat="37.0519" lon="-3.36133">
        <ele>3177.8</ele>
        <time>2021-08-06 16:07:09</time>
      </trkpt>
      <trkpt lat="37.05191" lon="-3.36133">
        <ele>3177.8</ele>
        <time>2021-08-06 16:07:10</time>
      </trkpt>
      <trkpt lat="37.05191" lon="-3.36133">
        <ele>3178</ele>
        <time>2021-08-06 16:07:11</time>
      </trkpt>
      <trkpt lat="37.05191" lon="-3.36133">
        <ele>3178.4</ele>
        <time>2021-08-06 16:07:12</time>
      </trkpt>
      <trkpt lat="37.05191" lon="-3.36133">
        <ele>3178.6</ele>
        <time>2021-08-06 16:07:13</time>
      </trkpt>
      <trkpt lat="37.05191" lon="-3.36133">
        <ele>3178.6</ele>
        <time>2021-08-06 16:07:14</time>
      </trkpt>
      <trkpt lat="37.0519" lon="-3.36133">
        <ele>3178.6</ele>
        <time>2021-08-06 16:07:15</time>
      </trkpt>
      <trkpt lat="37.0519" lon="-3.36133">
        <ele>3178.4</ele>
        <time>2021-08-06 16:07:16</time>
      </trkpt>
      <trkpt lat="37.0519" lon="-3.36133">
        <ele>3178.2</ele>
        <time>2021-08-06 16:07:17</time>
      </trkpt>
      <trkpt lat="37.05191" lon="-3.36133">
        <ele>3178</ele>
        <time>2021-08-06 16:07:18</time>
      </trkpt>
      <trkpt lat="37.05191" lon="-3.36133">
        <ele>3178</ele>
        <time>2021-08-06 16:07:19</time>
      </trkpt>
      <trkpt lat="37.05191" lon="-3.36133">
        <ele>3177.8</ele>
        <time>2021-08-06 16:07:20</time>
      </trkpt>
      <trkpt lat="37.05191" lon="-3.36133">
        <ele>3177.4</ele>
        <time>2021-08-06 16:07:21</time>
      </trkpt>
      <trkpt lat="37.0519" lon="-3.36132">
        <ele>3177.4</ele>
        <time>2021-08-06 16:07:22</time>
      </trkpt>
      <trkpt lat="37.0519" lon="-3.36132">
        <ele>3177.4</ele>
        <time>2021-08-06 16:07:23</time>
      </trkpt>
      <trkpt lat="37.0519" lon="-3.36131">
        <ele>3177.4</ele>
        <time>2021-08-06 16:07:24</time>
      </trkpt>
      <trkpt lat="37.0519" lon="-3.36131">
        <ele>3177.4</ele>
        <time>2021-08-06 16:07:25</time>
      </trkpt>
      <trkpt lat="37.0519" lon="-3.36131">
        <ele>3177.4</ele>
        <time>2021-08-06 16:07:26</time>
      </trkpt>
      <trkpt lat="37.0519" lon="-3.36131">
        <ele>3177.4</ele>
        <time>2021-08-06 16:07:27</time>
      </trkpt>
      <trkpt lat="37.05191" lon="-3.36132">
        <ele>3177.6</ele>
        <time>2021-08-06 16:07:28</time>
      </trkpt>
      <trkpt lat="37.05191" lon="-3.36132">
        <ele>3177.8</ele>
        <time>2021-08-06 16:07:29</time>
      </trkpt>
      <trkpt lat="37.0519" lon="-3.36132">
        <ele>3178</ele>
        <time>2021-08-06 16:07:30</time>
      </trkpt>
      <trkpt lat="37.0519" lon="-3.36132">
        <ele>3178.2</ele>
        <time>2021-08-06 16:07:31</time>
      </trkpt>
      <trkpt lat="37.0519" lon="-3.36132">
        <ele>3178.4</ele>
        <time>2021-08-06 16:07:32</time>
      </trkpt>
      <trkpt lat="37.05191" lon="-3.36132">
        <ele>3178.4</ele>
        <time>2021-08-06 16:07:33</time>
      </trkpt>
      <trkpt lat="37.05191" lon="-3.36132">
        <ele>3178.6</ele>
        <time>2021-08-06 16:07:34</time>
      </trkpt>
      <trkpt lat="37.05191" lon="-3.36132">
        <ele>3178.8</ele>
        <time>2021-08-06 16:07:35</time>
      </trkpt>
      <trkpt lat="37.05191" lon="-3.36133">
        <ele>3178.8</ele>
        <time>2021-08-06 16:07:36</time>
      </trkpt>
      <trkpt lat="37.05191" lon="-3.36132">
        <ele>3178.8</ele>
        <time>2021-08-06 16:07:37</time>
      </trkpt>
      <trkpt lat="37.05191" lon="-3.36133">
        <ele>3178.8</ele>
        <time>2021-08-06 16:07:38</time>
      </trkpt>
      <trkpt lat="37.05191" lon="-3.36132">
        <ele>3178.8</ele>
        <time>2021-08-06 16:07:39</time>
      </trkpt>
      <trkpt lat="37.05192" lon="-3.36132">
        <ele>3178.8</ele>
        <time>2021-08-06 16:07:40</time>
      </trkpt>
      <trkpt lat="37.05192" lon="-3.36132">
        <ele>3179</ele>
        <time>2021-08-06 16:07:41</time>
      </trkpt>
      <trkpt lat="37.05192" lon="-3.36132">
        <ele>3178.8</ele>
        <time>2021-08-06 16:07:42</time>
      </trkpt>
      <trkpt lat="37.05192" lon="-3.36132">
        <ele>3179</ele>
        <time>2021-08-06 16:07:43</time>
      </trkpt>
      <trkpt lat="37.05191" lon="-3.36132">
        <ele>3179</ele>
        <time>2021-08-06 16:07:44</time>
      </trkpt>
      <trkpt lat="37.05193" lon="-3.36135">
        <ele>3179</ele>
        <time>2021-08-06 16:07:45</time>
      </trkpt>
      <trkpt lat="37.05194" lon="-3.36136">
        <ele>3179</ele>
        <time>2021-08-06 16:07:46</time>
      </trkpt>
      <trkpt lat="37.05194" lon="-3.36137">
        <ele>3179</ele>
        <time>2021-08-06 16:07:47</time>
      </trkpt>
      <trkpt lat="37.05195" lon="-3.36138">
        <ele>3178.8</ele>
        <time>2021-08-06 16:07:48</time>
      </trkpt>
      <trkpt lat="37.05194" lon="-3.36138">
        <ele>3178.8</ele>
        <time>2021-08-06 16:07:49</time>
      </trkpt>
      <trkpt lat="37.05194" lon="-3.36139">
        <ele>3178.8</ele>
        <time>2021-08-06 16:07:50</time>
      </trkpt>
      <trkpt lat="37.05193" lon="-3.36138">
        <ele>3178.8</ele>
        <time>2021-08-06 16:07:51</time>
      </trkpt>
      <trkpt lat="37.05193" lon="-3.36138">
        <ele>3178.8</ele>
        <time>2021-08-06 16:07:52</time>
      </trkpt>
      <trkpt lat="37.05193" lon="-3.36138">
        <ele>3178.8</ele>
        <time>2021-08-06 16:07:53</time>
      </trkpt>
      <trkpt lat="37.05193" lon="-3.36138">
        <ele>3178.8</ele>
        <time>2021-08-06 16:07:54</time>
      </trkpt>
      <trkpt lat="37.05192" lon="-3.36138">
        <ele>3178.8</ele>
        <time>2021-08-06 16:07:55</time>
      </trkpt>
      <trkpt lat="37.05192" lon="-3.36137">
        <ele>3178.8</ele>
        <time>2021-08-06 16:07:56</time>
      </trkpt>
      <trkpt lat="37.05192" lon="-3.36137">
        <ele>3178.6</ele>
        <time>2021-08-06 16:07:57</time>
      </trkpt>
      <trkpt lat="37.05191" lon="-3.36137">
        <ele>3178.4</ele>
        <time>2021-08-06 16:07:58</time>
      </trkpt>
      <trkpt lat="37.05191" lon="-3.36137">
        <ele>3178.4</ele>
        <time>2021-08-06 16:07:59</time>
      </trkpt>
      <trkpt lat="37.05191" lon="-3.36136">
        <ele>3178.4</ele>
        <time>2021-08-06 16:08:00</time>
      </trkpt>
      <trkpt lat="37.05191" lon="-3.36136">
        <ele>3178.4</ele>
        <time>2021-08-06 16:08:01</time>
      </trkpt>
      <trkpt lat="37.05191" lon="-3.36136">
        <ele>3178.6</ele>
        <time>2021-08-06 16:08:02</time>
      </trkpt>
      <trkpt lat="37.05192" lon="-3.36135">
        <ele>3178.6</ele>
        <time>2021-08-06 16:08:03</time>
      </trkpt>
      <trkpt lat="37.05192" lon="-3.36135">
        <ele>3178.8</ele>
        <time>2021-08-06 16:08:04</time>
      </trkpt>
      <trkpt lat="37.05191" lon="-3.36135">
        <ele>3178.8</ele>
        <time>2021-08-06 16:08:05</time>
      </trkpt>
      <trkpt lat="37.05191" lon="-3.36135">
        <ele>3178.8</ele>
        <time>2021-08-06 16:08:06</time>
      </trkpt>
      <trkpt lat="37.05191" lon="-3.36135">
        <ele>3178.8</ele>
        <time>2021-08-06 16:08:07</time>
      </trkpt>
      <trkpt lat="37.05191" lon="-3.36135">
        <ele>3178.8</ele>
        <time>2021-08-06 16:08:08</time>
      </trkpt>
      <trkpt lat="37.05191" lon="-3.36135">
        <ele>3178.8</ele>
        <time>2021-08-06 16:08:09</time>
      </trkpt>
      <trkpt lat="37.05191" lon="-3.36134">
        <ele>3178.8</ele>
        <time>2021-08-06 16:08:10</time>
      </trkpt>
      <trkpt lat="37.05191" lon="-3.36134">
        <ele>3178.6</ele>
        <time>2021-08-06 16:08:11</time>
      </trkpt>
      <trkpt lat="37.05191" lon="-3.36134">
        <ele>3178.6</ele>
        <time>2021-08-06 16:08:12</time>
      </trkpt>
      <trkpt lat="37.05191" lon="-3.36135">
        <ele>3178.6</ele>
        <time>2021-08-06 16:08:13</time>
      </trkpt>
      <trkpt lat="37.05191" lon="-3.36134">
        <ele>3178.6</ele>
        <time>2021-08-06 16:08:14</time>
      </trkpt>
      <trkpt lat="37.05191" lon="-3.36134">
        <ele>3178.8</ele>
        <time>2021-08-06 16:08:15</time>
      </trkpt>
      <trkpt lat="37.05191" lon="-3.36134">
        <ele>3178.8</ele>
        <time>2021-08-06 16:08:16</time>
      </trkpt>
      <trkpt lat="37.05191" lon="-3.36134">
        <ele>3178.8</ele>
        <time>2021-08-06 16:08:17</time>
      </trkpt>
      <trkpt lat="37.05191" lon="-3.36134">
        <ele>3179</ele>
        <time>2021-08-06 16:08:18</time>
      </trkpt>
      <trkpt lat="37.05191" lon="-3.36134">
        <ele>3179</ele>
        <time>2021-08-06 16:08:19</time>
      </trkpt>
      <trkpt lat="37.05191" lon="-3.36134">
        <ele>3179</ele>
        <time>2021-08-06 16:08:20</time>
      </trkpt>
      <trkpt lat="37.05191" lon="-3.36134">
        <ele>3179</ele>
        <time>2021-08-06 16:08:21</time>
      </trkpt>
      <trkpt lat="37.05191" lon="-3.36133">
        <ele>3178.8</ele>
        <time>2021-08-06 16:08:22</time>
      </trkpt>
      <trkpt lat="37.05191" lon="-3.36133">
        <ele>3178.6</ele>
        <time>2021-08-06 16:08:23</time>
      </trkpt>
      <trkpt lat="37.05191" lon="-3.36133">
        <ele>3178.6</ele>
        <time>2021-08-06 16:08:24</time>
      </trkpt>
      <trkpt lat="37.05191" lon="-3.36132">
        <ele>3178.6</ele>
        <time>2021-08-06 16:08:25</time>
      </trkpt>
      <trkpt lat="37.05191" lon="-3.36132">
        <ele>3178.6</ele>
        <time>2021-08-06 16:08:26</time>
      </trkpt>
      <trkpt lat="37.05191" lon="-3.36132">
        <ele>3178.6</ele>
        <time>2021-08-06 16:08:27</time>
      </trkpt>
      <trkpt lat="37.05191" lon="-3.36132">
        <ele>3178.6</ele>
        <time>2021-08-06 16:08:28</time>
      </trkpt>
      <trkpt lat="37.05191" lon="-3.36132">
        <ele>3178.6</ele>
        <time>2021-08-06 16:08:29</time>
      </trkpt>
      <trkpt lat="37.05191" lon="-3.36132">
        <ele>3178.6</ele>
        <time>2021-08-06 16:08:30</time>
      </trkpt>
      <trkpt lat="37.05191" lon="-3.36132">
        <ele>3178.6</ele>
        <time>2021-08-06 16:08:31</time>
      </trkpt>
      <trkpt lat="37.05191" lon="-3.36133">
        <ele>3178.4</ele>
        <time>2021-08-06 16:08:32</time>
      </trkpt>
      <trkpt lat="37.05191" lon="-3.36133">
        <ele>3178.6</ele>
        <time>2021-08-06 16:08:33</time>
      </trkpt>
      <trkpt lat="37.05191" lon="-3.36133">
        <ele>3178.4</ele>
        <time>2021-08-06 16:08:34</time>
      </trkpt>
      <trkpt lat="37.05191" lon="-3.36133">
        <ele>3178.2</ele>
        <time>2021-08-06 16:08:35</time>
      </trkpt>
      <trkpt lat="37.05191" lon="-3.36133">
        <ele>3178.2</ele>
        <time>2021-08-06 16:08:36</time>
      </trkpt>
      <trkpt lat="37.05191" lon="-3.36133">
        <ele>3178.2</ele>
        <time>2021-08-06 16:08:37</time>
      </trkpt>
      <trkpt lat="37.05191" lon="-3.36133">
        <ele>3178.2</ele>
        <time>2021-08-06 16:08:38</time>
      </trkpt>
      <trkpt lat="37.05191" lon="-3.36133">
        <ele>3178.2</ele>
        <time>2021-08-06 16:08:39</time>
      </trkpt>
      <trkpt lat="37.05191" lon="-3.36133">
        <ele>3178.2</ele>
        <time>2021-08-06 16:08:40</time>
      </trkpt>
      <trkpt lat="37.05191" lon="-3.36133">
        <ele>3178.2</ele>
        <time>2021-08-06 16:08:41</time>
      </trkpt>
      <trkpt lat="37.05191" lon="-3.36133">
        <ele>3178.4</ele>
        <time>2021-08-06 16:08:42</time>
      </trkpt>
      <trkpt lat="37.05191" lon="-3.36133">
        <ele>3178.4</ele>
        <time>2021-08-06 16:08:43</time>
      </trkpt>
      <trkpt lat="37.05191" lon="-3.36133">
        <ele>3178.4</ele>
        <time>2021-08-06 16:08:44</time>
      </trkpt>
      <trkpt lat="37.05191" lon="-3.36133">
        <ele>3178.4</ele>
        <time>2021-08-06 16:08:45</time>
      </trkpt>
      <trkpt lat="37.0519" lon="-3.36133">
        <ele>3178.6</ele>
        <time>2021-08-06 16:08:46</time>
      </trkpt>
      <trkpt lat="37.0519" lon="-3.36133">
        <ele>3178.6</ele>
        <time>2021-08-06 16:08:47</time>
      </trkpt>
      <trkpt lat="37.0519" lon="-3.36133">
        <ele>3178.6</ele>
        <time>2021-08-06 16:08:48</time>
      </trkpt>
      <trkpt lat="37.0519" lon="-3.36133">
        <ele>3178.6</ele>
        <time>2021-08-06 16:08:49</time>
      </trkpt>
      <trkpt lat="37.05191" lon="-3.36133">
        <ele>3178.8</ele>
        <time>2021-08-06 16:08:50</time>
      </trkpt>
      <trkpt lat="37.05191" lon="-3.36133">
        <ele>3178.8</ele>
        <time>2021-08-06 16:08:51</time>
      </trkpt>
      <trkpt lat="37.05191" lon="-3.36133">
        <ele>3178.8</ele>
        <time>2021-08-06 16:08:52</time>
      </trkpt>
      <trkpt lat="37.05191" lon="-3.36133">
        <ele>3179</ele>
        <time>2021-08-06 16:08:53</time>
      </trkpt>
      <trkpt lat="37.05191" lon="-3.36132">
        <ele>3179.2</ele>
        <time>2021-08-06 16:08:54</time>
      </trkpt>
      <trkpt lat="37.05191" lon="-3.36132">
        <ele>3179.2</ele>
        <time>2021-08-06 16:08:55</time>
      </trkpt>
      <trkpt lat="37.0519" lon="-3.36132">
        <ele>3179.2</ele>
        <time>2021-08-06 16:08:56</time>
      </trkpt>
      <trkpt lat="37.0519" lon="-3.36133">
        <ele>3179.2</ele>
        <time>2021-08-06 16:08:57</time>
      </trkpt>
      <trkpt lat="37.0519" lon="-3.36133">
        <ele>3179.2</ele>
        <time>2021-08-06 16:08:58</time>
      </trkpt>
      <trkpt lat="37.0519" lon="-3.36133">
        <ele>3179.2</ele>
        <time>2021-08-06 16:08:59</time>
      </trkpt>
      <trkpt lat="37.05191" lon="-3.36132">
        <ele>3179.2</ele>
        <time>2021-08-06 16:09:00</time>
      </trkpt>
      <trkpt lat="37.05191" lon="-3.36132">
        <ele>3179.2</ele>
        <time>2021-08-06 16:09:01</time>
      </trkpt>
      <trkpt lat="37.05191" lon="-3.36132">
        <ele>3179.2</ele>
        <time>2021-08-06 16:09:02</time>
      </trkpt>
      <trkpt lat="37.05191" lon="-3.36132">
        <ele>3179.2</ele>
        <time>2021-08-06 16:09:03</time>
      </trkpt>
      <trkpt lat="37.05191" lon="-3.36132">
        <ele>3179.2</ele>
        <time>2021-08-06 16:09:04</time>
      </trkpt>
      <trkpt lat="37.0519" lon="-3.36132">
        <ele>3179.2</ele>
        <time>2021-08-06 16:09:05</time>
      </trkpt>
      <trkpt lat="37.0519" lon="-3.36132">
        <ele>3179.2</ele>
        <time>2021-08-06 16:09:06</time>
      </trkpt>
      <trkpt lat="37.0519" lon="-3.36132">
        <ele>3179.2</ele>
        <time>2021-08-06 16:09:07</time>
      </trkpt>
      <trkpt lat="37.0519" lon="-3.36132">
        <ele>3179.2</ele>
        <time>2021-08-06 16:09:08</time>
      </trkpt>
      <trkpt lat="37.0519" lon="-3.36132">
        <ele>3179.2</ele>
        <time>2021-08-06 16:09:09</time>
      </trkpt>
      <trkpt lat="37.0519" lon="-3.36132">
        <ele>3179.2</ele>
        <time>2021-08-06 16:09:10</time>
      </trkpt>
      <trkpt lat="37.0519" lon="-3.36132">
        <ele>3179.2</ele>
        <time>2021-08-06 16:09:11</time>
      </trkpt>
      <trkpt lat="37.0519" lon="-3.36132">
        <ele>3179.2</ele>
        <time>2021-08-06 16:09:12</time>
      </trkpt>
      <trkpt lat="37.05189" lon="-3.36134">
        <ele>3179.2</ele>
        <time>2021-08-06 16:09:13</time>
      </trkpt>
      <trkpt lat="37.05189" lon="-3.36134">
        <ele>3179.2</ele>
        <time>2021-08-06 16:09:14</time>
      </trkpt>
      <trkpt lat="37.05189" lon="-3.36133">
        <ele>3179.2</ele>
        <time>2021-08-06 16:09:15</time>
      </trkpt>
      <trkpt lat="37.0519" lon="-3.36133">
        <ele>3179.2</ele>
        <time>2021-08-06 16:09:16</time>
      </trkpt>
      <trkpt lat="37.0519" lon="-3.36133">
        <ele>3179.2</ele>
        <time>2021-08-06 16:09:17</time>
      </trkpt>
      <trkpt lat="37.0519" lon="-3.36134">
        <ele>3179.2</ele>
        <time>2021-08-06 16:09:18</time>
      </trkpt>
      <trkpt lat="37.05189" lon="-3.36134">
        <ele>3179.2</ele>
        <time>2021-08-06 16:09:19</time>
      </trkpt>
      <trkpt lat="37.05189" lon="-3.36134">
        <ele>3179.2</ele>
        <time>2021-08-06 16:09:20</time>
      </trkpt>
      <trkpt lat="37.05189" lon="-3.36134">
        <ele>3179.2</ele>
        <time>2021-08-06 16:09:21</time>
      </trkpt>
      <trkpt lat="37.05189" lon="-3.36134">
        <ele>3179.2</ele>
        <time>2021-08-06 16:09:22</time>
      </trkpt>
      <trkpt lat="37.05189" lon="-3.36135">
        <ele>3179.2</ele>
        <time>2021-08-06 16:09:23</time>
      </trkpt>
      <trkpt lat="37.05189" lon="-3.36135">
        <ele>3179.2</ele>
        <time>2021-08-06 16:09:24</time>
      </trkpt>
      <trkpt lat="37.05189" lon="-3.36135">
        <ele>3179.2</ele>
        <time>2021-08-06 16:09:25</time>
      </trkpt>
      <trkpt lat="37.05189" lon="-3.36135">
        <ele>3179.2</ele>
        <time>2021-08-06 16:09:26</time>
      </trkpt>
      <trkpt lat="37.05189" lon="-3.36135">
        <ele>3179.2</ele>
        <time>2021-08-06 16:09:27</time>
      </trkpt>
      <trkpt lat="37.05189" lon="-3.36134">
        <ele>3179.2</ele>
        <time>2021-08-06 16:09:28</time>
      </trkpt>
      <trkpt lat="37.05189" lon="-3.36134">
        <ele>3179.2</ele>
        <time>2021-08-06 16:09:29</time>
      </trkpt>
      <trkpt lat="37.0519" lon="-3.36134">
        <ele>3179.2</ele>
        <time>2021-08-06 16:09:30</time>
      </trkpt>
      <trkpt lat="37.0519" lon="-3.36134">
        <ele>3179.2</ele>
        <time>2021-08-06 16:09:31</time>
      </trkpt>
      <trkpt lat="37.0519" lon="-3.36134">
        <ele>3179.2</ele>
        <time>2021-08-06 16:09:32</time>
      </trkpt>
      <trkpt lat="37.0519" lon="-3.36134">
        <ele>3179.2</ele>
        <time>2021-08-06 16:09:33</time>
      </trkpt>
      <trkpt lat="37.05189" lon="-3.36134">
        <ele>3179.2</ele>
        <time>2021-08-06 16:09:34</time>
      </trkpt>
      <trkpt lat="37.05189" lon="-3.36134">
        <ele>3179.2</ele>
        <time>2021-08-06 16:09:35</time>
      </trkpt>
      <trkpt lat="37.05189" lon="-3.36135">
        <ele>3179.2</ele>
        <time>2021-08-06 16:09:36</time>
      </trkpt>
      <trkpt lat="37.05189" lon="-3.36135">
        <ele>3179.2</ele>
        <time>2021-08-06 16:09:37</time>
      </trkpt>
      <trkpt lat="37.05189" lon="-3.36135">
        <ele>3179.2</ele>
        <time>2021-08-06 16:09:38</time>
      </trkpt>
      <trkpt lat="37.05189" lon="-3.36135">
        <ele>3179.2</ele>
        <time>2021-08-06 16:09:39</time>
      </trkpt>
      <trkpt lat="37.05189" lon="-3.36135">
        <ele>3179.2</ele>
        <time>2021-08-06 16:09:40</time>
      </trkpt>
      <trkpt lat="37.0519" lon="-3.36135">
        <ele>3179.2</ele>
        <time>2021-08-06 16:09:41</time>
      </trkpt>
      <trkpt lat="37.0519" lon="-3.36135">
        <ele>3179.2</ele>
        <time>2021-08-06 16:09:42</time>
      </trkpt>
      <trkpt lat="37.0519" lon="-3.36135">
        <ele>3179.2</ele>
        <time>2021-08-06 16:09:43</time>
      </trkpt>
      <trkpt lat="37.0519" lon="-3.36134">
        <ele>3179.2</ele>
        <time>2021-08-06 16:09:44</time>
      </trkpt>
      <trkpt lat="37.0519" lon="-3.36134">
        <ele>3179.2</ele>
        <time>2021-08-06 16:09:45</time>
      </trkpt>
      <trkpt lat="37.0519" lon="-3.36134">
        <ele>3179.2</ele>
        <time>2021-08-06 16:09:46</time>
      </trkpt>
      <trkpt lat="37.0519" lon="-3.36134">
        <ele>3179.2</ele>
        <time>2021-08-06 16:09:47</time>
      </trkpt>
      <trkpt lat="37.0519" lon="-3.36134">
        <ele>3179.2</ele>
        <time>2021-08-06 16:09:48</time>
      </trkpt>
      <trkpt lat="37.0519" lon="-3.36135">
        <ele>3179.2</ele>
        <time>2021-08-06 16:09:49</time>
      </trkpt>
      <trkpt lat="37.0519" lon="-3.36135">
        <ele>3179.2</ele>
        <time>2021-08-06 16:09:50</time>
      </trkpt>
      <trkpt lat="37.0519" lon="-3.36135">
        <ele>3179.2</ele>
        <time>2021-08-06 16:09:51</time>
      </trkpt>
      <trkpt lat="37.0519" lon="-3.36135">
        <ele>3179.2</ele>
        <time>2021-08-06 16:09:52</time>
      </trkpt>
      <trkpt lat="37.0519" lon="-3.36135">
        <ele>3179.2</ele>
        <time>2021-08-06 16:09:53</time>
      </trkpt>
      <trkpt lat="37.0519" lon="-3.36135">
        <ele>3179.2</ele>
        <time>2021-08-06 16:09:54</time>
      </trkpt>
      <trkpt lat="37.0519" lon="-3.36135">
        <ele>3179.2</ele>
        <time>2021-08-06 16:09:55</time>
      </trkpt>
      <trkpt lat="37.0519" lon="-3.36135">
        <ele>3179.2</ele>
        <time>2021-08-06 16:09:56</time>
      </trkpt>
      <trkpt lat="37.0519" lon="-3.36135">
        <ele>3179.2</ele>
        <time>2021-08-06 16:09:57</time>
      </trkpt>
      <trkpt lat="37.0519" lon="-3.36135">
        <ele>3179.2</ele>
        <time>2021-08-06 16:09:58</time>
      </trkpt>
      <trkpt lat="37.0519" lon="-3.36135">
        <ele>3179.2</ele>
        <time>2021-08-06 16:09:59</time>
      </trkpt>
      <trkpt lat="37.05191" lon="-3.36136">
        <ele>3179.2</ele>
        <time>2021-08-06 16:10:00</time>
      </trkpt>
      <trkpt lat="37.05191" lon="-3.36136">
        <ele>3179.2</ele>
        <time>2021-08-06 16:10:01</time>
      </trkpt>
      <trkpt lat="37.05191" lon="-3.36136">
        <ele>3179.2</ele>
        <time>2021-08-06 16:10:02</time>
      </trkpt>
      <trkpt lat="37.05191" lon="-3.36135">
        <ele>3179.2</ele>
        <time>2021-08-06 16:10:03</time>
      </trkpt>
      <trkpt lat="37.05191" lon="-3.36135">
        <ele>3179.2</ele>
        <time>2021-08-06 16:10:04</time>
      </trkpt>
      <trkpt lat="37.0519" lon="-3.36135">
        <ele>3179.2</ele>
        <time>2021-08-06 16:10:05</time>
      </trkpt>
      <trkpt lat="37.05191" lon="-3.36135">
        <ele>3179.2</ele>
        <time>2021-08-06 16:10:06</time>
      </trkpt>
      <trkpt lat="37.05191" lon="-3.36135">
        <ele>3179.2</ele>
        <time>2021-08-06 16:10:07</time>
      </trkpt>
      <trkpt lat="37.05191" lon="-3.36135">
        <ele>3179.2</ele>
        <time>2021-08-06 16:10:08</time>
      </trkpt>
      <trkpt lat="37.05191" lon="-3.36135">
        <ele>3179.2</ele>
        <time>2021-08-06 16:10:09</time>
      </trkpt>
      <trkpt lat="37.05191" lon="-3.36135">
        <ele>3179.2</ele>
        <time>2021-08-06 16:10:10</time>
      </trkpt>
      <trkpt lat="37.05191" lon="-3.36135">
        <ele>3179.2</ele>
        <time>2021-08-06 16:10:11</time>
      </trkpt>
      <trkpt lat="37.05191" lon="-3.36135">
        <ele>3179.2</ele>
        <time>2021-08-06 16:10:12</time>
      </trkpt>
      <trkpt lat="37.05191" lon="-3.36135">
        <ele>3179.2</ele>
        <time>2021-08-06 16:10:13</time>
      </trkpt>
      <trkpt lat="37.05191" lon="-3.36134">
        <ele>3179.2</ele>
        <time>2021-08-06 16:10:14</time>
      </trkpt>
      <trkpt lat="37.05191" lon="-3.36134">
        <ele>3179.2</ele>
        <time>2021-08-06 16:10:15</time>
      </trkpt>
      <trkpt lat="37.05191" lon="-3.36134">
        <ele>3179.2</ele>
        <time>2021-08-06 16:10:16</time>
      </trkpt>
      <trkpt lat="37.05191" lon="-3.36134">
        <ele>3179.2</ele>
        <time>2021-08-06 16:10:17</time>
      </trkpt>
      <trkpt lat="37.05191" lon="-3.36134">
        <ele>3179.2</ele>
        <time>2021-08-06 16:10:18</time>
      </trkpt>
      <trkpt lat="37.05191" lon="-3.36134">
        <ele>3179.2</ele>
        <time>2021-08-06 16:10:19</time>
      </trkpt>
      <trkpt lat="37.05191" lon="-3.36134">
        <ele>3179.2</ele>
        <time>2021-08-06 16:10:20</time>
      </trkpt>
      <trkpt lat="37.05191" lon="-3.36134">
        <ele>3179.2</ele>
        <time>2021-08-06 16:10:21</time>
      </trkpt>
      <trkpt lat="37.0519" lon="-3.36134">
        <ele>3179.2</ele>
        <time>2021-08-06 16:10:22</time>
      </trkpt>
      <trkpt lat="37.0519" lon="-3.36135">
        <ele>3179.2</ele>
        <time>2021-08-06 16:10:23</time>
      </trkpt>
      <trkpt lat="37.0519" lon="-3.36135">
        <ele>3179.2</ele>
        <time>2021-08-06 16:10:24</time>
      </trkpt>
      <trkpt lat="37.0519" lon="-3.36135">
        <ele>3179.2</ele>
        <time>2021-08-06 16:10:25</time>
      </trkpt>
      <trkpt lat="37.0519" lon="-3.36135">
        <ele>3179.2</ele>
        <time>2021-08-06 16:10:26</time>
      </trkpt>
      <trkpt lat="37.0519" lon="-3.36135">
        <ele>3179.2</ele>
        <time>2021-08-06 16:10:27</time>
      </trkpt>
      <trkpt lat="37.0519" lon="-3.36135">
        <ele>3179.2</ele>
        <time>2021-08-06 16:10:28</time>
      </trkpt>
      <trkpt lat="37.0519" lon="-3.36135">
        <ele>3179.2</ele>
        <time>2021-08-06 16:10:29</time>
      </trkpt>
      <trkpt lat="37.0519" lon="-3.36135">
        <ele>3179.2</ele>
        <time>2021-08-06 16:10:30</time>
      </trkpt>
      <trkpt lat="37.0519" lon="-3.36135">
        <ele>3179.2</ele>
        <time>2021-08-06 16:10:31</time>
      </trkpt>
      <trkpt lat="37.0519" lon="-3.36135">
        <ele>3179.2</ele>
        <time>2021-08-06 16:10:32</time>
      </trkpt>
      <trkpt lat="37.0519" lon="-3.36135">
        <ele>3179.2</ele>
        <time>2021-08-06 16:10:33</time>
      </trkpt>
      <trkpt lat="37.0519" lon="-3.36134">
        <ele>3179.2</ele>
        <time>2021-08-06 16:10:34</time>
      </trkpt>
      <trkpt lat="37.05191" lon="-3.36134">
        <ele>3179.2</ele>
        <time>2021-08-06 16:10:35</time>
      </trkpt>
      <trkpt lat="37.05191" lon="-3.36134">
        <ele>3179.2</ele>
        <time>2021-08-06 16:10:36</time>
      </trkpt>
      <trkpt lat="37.05191" lon="-3.36134">
        <ele>3179.2</ele>
        <time>2021-08-06 16:10:37</time>
      </trkpt>
      <trkpt lat="37.05192" lon="-3.36134">
        <ele>3179.2</ele>
        <time>2021-08-06 16:10:38</time>
      </trkpt>
      <trkpt lat="37.05191" lon="-3.36134">
        <ele>3179.2</ele>
        <time>2021-08-06 16:10:39</time>
      </trkpt>
      <trkpt lat="37.05191" lon="-3.36134">
        <ele>3179.2</ele>
        <time>2021-08-06 16:10:40</time>
      </trkpt>
      <trkpt lat="37.05191" lon="-3.36134">
        <ele>3179.2</ele>
        <time>2021-08-06 16:10:41</time>
      </trkpt>
      <trkpt lat="37.05191" lon="-3.36135">
        <ele>3179.2</ele>
        <time>2021-08-06 16:10:42</time>
      </trkpt>
      <trkpt lat="37.05191" lon="-3.36135">
        <ele>3179.2</ele>
        <time>2021-08-06 16:10:43</time>
      </trkpt>
      <trkpt lat="37.05191" lon="-3.36136">
        <ele>3179.2</ele>
        <time>2021-08-06 16:10:44</time>
      </trkpt>
      <trkpt lat="37.05191" lon="-3.36137">
        <ele>3179.2</ele>
        <time>2021-08-06 16:10:45</time>
      </trkpt>
      <trkpt lat="37.05191" lon="-3.36138">
        <ele>3179.2</ele>
        <time>2021-08-06 16:10:46</time>
      </trkpt>
      <trkpt lat="37.05192" lon="-3.36138">
        <ele>3179.2</ele>
        <time>2021-08-06 16:10:47</time>
      </trkpt>
      <trkpt lat="37.05192" lon="-3.36138">
        <ele>3179.2</ele>
        <time>2021-08-06 16:10:48</time>
      </trkpt>
      <trkpt lat="37.05191" lon="-3.36139">
        <ele>3179.2</ele>
        <time>2021-08-06 16:10:49</time>
      </trkpt>
      <trkpt lat="37.0519" lon="-3.3614">
        <ele>3179.2</ele>
        <time>2021-08-06 16:10:50</time>
      </trkpt>
      <trkpt lat="37.05189" lon="-3.3614">
        <ele>3179.2</ele>
        <time>2021-08-06 16:10:51</time>
      </trkpt>
      <trkpt lat="37.05189" lon="-3.36139">
        <ele>3179.2</ele>
        <time>2021-08-06 16:10:52</time>
      </trkpt>
      <trkpt lat="37.05188" lon="-3.36138">
        <ele>3179.2</ele>
        <time>2021-08-06 16:10:53</time>
      </trkpt>
      <trkpt lat="37.05188" lon="-3.36137">
        <ele>3179.2</ele>
        <time>2021-08-06 16:10:54</time>
      </trkpt>
      <trkpt lat="37.05189" lon="-3.36136">
        <ele>3179.2</ele>
        <time>2021-08-06 16:10:55</time>
      </trkpt>
      <trkpt lat="37.05189" lon="-3.36135">
        <ele>3179.2</ele>
        <time>2021-08-06 16:10:56</time>
      </trkpt>
      <trkpt lat="37.05189" lon="-3.36135">
        <ele>3179.2</ele>
        <time>2021-08-06 16:10:57</time>
      </trkpt>
      <trkpt lat="37.05189" lon="-3.36134">
        <ele>3179.2</ele>
        <time>2021-08-06 16:10:58</time>
      </trkpt>
      <trkpt lat="37.05189" lon="-3.36134">
        <ele>3179.2</ele>
        <time>2021-08-06 16:10:59</time>
      </trkpt>
      <trkpt lat="37.05189" lon="-3.36134">
        <ele>3179</ele>
        <time>2021-08-06 16:11:00</time>
      </trkpt>
      <trkpt lat="37.05188" lon="-3.36134">
        <ele>3179</ele>
        <time>2021-08-06 16:11:01</time>
      </trkpt>
      <trkpt lat="37.05188" lon="-3.36134">
        <ele>3178.8</ele>
        <time>2021-08-06 16:11:02</time>
      </trkpt>
      <trkpt lat="37.05189" lon="-3.36134">
        <ele>3178.6</ele>
        <time>2021-08-06 16:11:03</time>
      </trkpt>
      <trkpt lat="37.0519" lon="-3.36134">
        <ele>3178.6</ele>
        <time>2021-08-06 16:11:04</time>
      </trkpt>
      <trkpt lat="37.0519" lon="-3.36134">
        <ele>3178.6</ele>
        <time>2021-08-06 16:11:05</time>
      </trkpt>
      <trkpt lat="37.0519" lon="-3.36134">
        <ele>3178.4</ele>
        <time>2021-08-06 16:11:06</time>
      </trkpt>
      <trkpt lat="37.0519" lon="-3.36134">
        <ele>3178.4</ele>
        <time>2021-08-06 16:11:07</time>
      </trkpt>
      <trkpt lat="37.05191" lon="-3.36135">
        <ele>3178.4</ele>
        <time>2021-08-06 16:11:08</time>
      </trkpt>
      <trkpt lat="37.05191" lon="-3.36135">
        <ele>3178.4</ele>
        <time>2021-08-06 16:11:09</time>
      </trkpt>
      <trkpt lat="37.05191" lon="-3.36135">
        <ele>3178.4</ele>
        <time>2021-08-06 16:11:10</time>
      </trkpt>
      <trkpt lat="37.05191" lon="-3.36135">
        <ele>3178.2</ele>
        <time>2021-08-06 16:11:11</time>
      </trkpt>
      <trkpt lat="37.05192" lon="-3.36135">
        <ele>3178.4</ele>
        <time>2021-08-06 16:11:12</time>
      </trkpt>
      <trkpt lat="37.05192" lon="-3.36134">
        <ele>3178.6</ele>
        <time>2021-08-06 16:11:13</time>
      </trkpt>
      <trkpt lat="37.05192" lon="-3.36135">
        <ele>3178.6</ele>
        <time>2021-08-06 16:11:14</time>
      </trkpt>
      <trkpt lat="37.05192" lon="-3.36135">
        <ele>3178.6</ele>
        <time>2021-08-06 16:11:15</time>
      </trkpt>
      <trkpt lat="37.05192" lon="-3.36135">
        <ele>3178.6</ele>
        <time>2021-08-06 16:11:16</time>
      </trkpt>
      <trkpt lat="37.05191" lon="-3.36135">
        <ele>3178.8</ele>
        <time>2021-08-06 16:11:17</time>
      </trkpt>
      <trkpt lat="37.05191" lon="-3.36136">
        <ele>3179</ele>
        <time>2021-08-06 16:11:18</time>
      </trkpt>
      <trkpt lat="37.05191" lon="-3.36136">
        <ele>3179</ele>
        <time>2021-08-06 16:11:19</time>
      </trkpt>
      <trkpt lat="37.05191" lon="-3.36135">
        <ele>3179</ele>
        <time>2021-08-06 16:11:20</time>
      </trkpt>
      <trkpt lat="37.05191" lon="-3.36135">
        <ele>3179</ele>
        <time>2021-08-06 16:11:21</time>
      </trkpt>
      <trkpt lat="37.0519" lon="-3.36135">
        <ele>3179</ele>
        <time>2021-08-06 16:11:22</time>
      </trkpt>
      <trkpt lat="37.0519" lon="-3.36135">
        <ele>3179</ele>
        <time>2021-08-06 16:11:23</time>
      </trkpt>
      <trkpt lat="37.0519" lon="-3.36135">
        <ele>3179</ele>
        <time>2021-08-06 16:11:24</time>
      </trkpt>
      <trkpt lat="37.0519" lon="-3.36135">
        <ele>3179</ele>
        <time>2021-08-06 16:11:25</time>
      </trkpt>
      <trkpt lat="37.0519" lon="-3.36135">
        <ele>3179</ele>
        <time>2021-08-06 16:11:26</time>
      </trkpt>
      <trkpt lat="37.0519" lon="-3.36135">
        <ele>3179</ele>
        <time>2021-08-06 16:11:27</time>
      </trkpt>
      <trkpt lat="37.0519" lon="-3.36135">
        <ele>3179</ele>
        <time>2021-08-06 16:11:28</time>
      </trkpt>
      <trkpt lat="37.0519" lon="-3.36135">
        <ele>3178.8</ele>
        <time>2021-08-06 16:11:29</time>
      </trkpt>
      <trkpt lat="37.0519" lon="-3.36135">
        <ele>3178.6</ele>
        <time>2021-08-06 16:11:30</time>
      </trkpt>
      <trkpt lat="37.05191" lon="-3.36135">
        <ele>3178.4</ele>
        <time>2021-08-06 16:11:31</time>
      </trkpt>
      <trkpt lat="37.05191" lon="-3.36135">
        <ele>3178.2</ele>
        <time>2021-08-06 16:11:32</time>
      </trkpt>
      <trkpt lat="37.05191" lon="-3.36135">
        <ele>3178</ele>
        <time>2021-08-06 16:11:33</time>
      </trkpt>
      <trkpt lat="37.05191" lon="-3.36134">
        <ele>3178</ele>
        <time>2021-08-06 16:11:34</time>
      </trkpt>
      <trkpt lat="37.05191" lon="-3.36133">
        <ele>3178.2</ele>
        <time>2021-08-06 16:11:35</time>
      </trkpt>
      <trkpt lat="37.05191" lon="-3.36134">
        <ele>3178.2</ele>
        <time>2021-08-06 16:11:36</time>
      </trkpt>
      <trkpt lat="37.05191" lon="-3.36135">
        <ele>3178.2</ele>
        <time>2021-08-06 16:11:37</time>
      </trkpt>
      <trkpt lat="37.05191" lon="-3.36136">
        <ele>3178.2</ele>
        <time>2021-08-06 16:11:38</time>
      </trkpt>
      <trkpt lat="37.0519" lon="-3.36137">
        <ele>3178.2</ele>
        <time>2021-08-06 16:11:39</time>
      </trkpt>
      <trkpt lat="37.0519" lon="-3.36138">
        <ele>3178.2</ele>
        <time>2021-08-06 16:11:40</time>
      </trkpt>
      <trkpt lat="37.0519" lon="-3.36139">
        <ele>3178.2</ele>
        <time>2021-08-06 16:11:41</time>
      </trkpt>
      <trkpt lat="37.0519" lon="-3.36139">
        <ele>3178.2</ele>
        <time>2021-08-06 16:11:42</time>
      </trkpt>
      <trkpt lat="37.0519" lon="-3.3614">
        <ele>3178.4</ele>
        <time>2021-08-06 16:11:43</time>
      </trkpt>
      <trkpt lat="37.0519" lon="-3.36141">
        <ele>3178.4</ele>
        <time>2021-08-06 16:11:44</time>
      </trkpt>
      <trkpt lat="37.0519" lon="-3.36142">
        <ele>3178.2</ele>
        <time>2021-08-06 16:11:45</time>
      </trkpt>
      <trkpt lat="37.05189" lon="-3.36146">
        <ele>3178.2</ele>
        <time>2021-08-06 16:11:46</time>
      </trkpt>
      <trkpt lat="37.05189" lon="-3.36147">
        <ele>3178</ele>
        <time>2021-08-06 16:11:47</time>
      </trkpt>
      <trkpt lat="37.05189" lon="-3.36149">
        <ele>3177.8</ele>
        <time>2021-08-06 16:11:48</time>
      </trkpt>
      <trkpt lat="37.05188" lon="-3.36151">
        <ele>3177.6</ele>
        <time>2021-08-06 16:11:49</time>
      </trkpt>
      <trkpt lat="37.05188" lon="-3.36152">
        <ele>3177.4</ele>
        <time>2021-08-06 16:11:50</time>
      </trkpt>
      <trkpt lat="37.05188" lon="-3.36153">
        <ele>3177.4</ele>
        <time>2021-08-06 16:11:51</time>
      </trkpt>
      <trkpt lat="37.05188" lon="-3.36153">
        <ele>3177.4</ele>
        <time>2021-08-06 16:11:52</time>
      </trkpt>
      <trkpt lat="37.05188" lon="-3.36154">
        <ele>3177.4</ele>
        <time>2021-08-06 16:11:53</time>
      </trkpt>
      <trkpt lat="37.05188" lon="-3.36156">
        <ele>3177.4</ele>
        <time>2021-08-06 16:11:54</time>
      </trkpt>
      <trkpt lat="37.05188" lon="-3.36157">
        <ele>3177.4</ele>
        <time>2021-08-06 16:11:55</time>
      </trkpt>
      <trkpt lat="37.05188" lon="-3.36158">
        <ele>3177.4</ele>
        <time>2021-08-06 16:11:56</time>
      </trkpt>
      <trkpt lat="37.05188" lon="-3.36158">
        <ele>3177.4</ele>
        <time>2021-08-06 16:11:57</time>
      </trkpt>
      <trkpt lat="37.05188" lon="-3.36159">
        <ele>3177.4</ele>
        <time>2021-08-06 16:11:58</time>
      </trkpt>
      <trkpt lat="37.05188" lon="-3.36159">
        <ele>3177.4</ele>
        <time>2021-08-06 16:11:59</time>
      </trkpt>
      <trkpt lat="37.05188" lon="-3.36159">
        <ele>3177.4</ele>
        <time>2021-08-06 16:12:00</time>
      </trkpt>
      <trkpt lat="37.05188" lon="-3.3616">
        <ele>3177.4</ele>
        <time>2021-08-06 16:12:01</time>
      </trkpt>
      <trkpt lat="37.05188" lon="-3.36161">
        <ele>3177.2</ele>
        <time>2021-08-06 16:12:02</time>
      </trkpt>
      <trkpt lat="37.05188" lon="-3.36161">
        <ele>3177.2</ele>
        <time>2021-08-06 16:12:03</time>
      </trkpt>
      <trkpt lat="37.05189" lon="-3.36163">
        <ele>3177.2</ele>
        <time>2021-08-06 16:12:04</time>
      </trkpt>
      <trkpt lat="37.05189" lon="-3.36164">
        <ele>3177.2</ele>
        <time>2021-08-06 16:12:05</time>
      </trkpt>
      <trkpt lat="37.05189" lon="-3.36166">
        <ele>3177.2</ele>
        <time>2021-08-06 16:12:06</time>
      </trkpt>
      <trkpt lat="37.0519" lon="-3.36167">
        <ele>3177.2</ele>
        <time>2021-08-06 16:12:07</time>
      </trkpt>
      <trkpt lat="37.0519" lon="-3.36167">
        <ele>3177.2</ele>
        <time>2021-08-06 16:12:08</time>
      </trkpt>
      <trkpt lat="37.0519" lon="-3.36168">
        <ele>3177.4</ele>
        <time>2021-08-06 16:12:09</time>
      </trkpt>
      <trkpt lat="37.05191" lon="-3.36169">
        <ele>3177.4</ele>
        <time>2021-08-06 16:12:10</time>
      </trkpt>
      <trkpt lat="37.05192" lon="-3.3617">
        <ele>3177.4</ele>
        <time>2021-08-06 16:12:11</time>
      </trkpt>
      <trkpt lat="37.05192" lon="-3.36171">
        <ele>3177.4</ele>
        <time>2021-08-06 16:12:12</time>
      </trkpt>
      <trkpt lat="37.05192" lon="-3.36172">
        <ele>3177.6</ele>
        <time>2021-08-06 16:12:13</time>
      </trkpt>
      <trkpt lat="37.05193" lon="-3.36172">
        <ele>3177.6</ele>
        <time>2021-08-06 16:12:14</time>
      </trkpt>
      <trkpt lat="37.05194" lon="-3.36172">
        <ele>3178</ele>
        <time>2021-08-06 16:12:15</time>
      </trkpt>
      <trkpt lat="37.05194" lon="-3.36173">
        <ele>3178</ele>
        <time>2021-08-06 16:12:16</time>
      </trkpt>
      <trkpt lat="37.05195" lon="-3.36173">
        <ele>3178</ele>
        <time>2021-08-06 16:12:17</time>
      </trkpt>
      <trkpt lat="37.05196" lon="-3.36174">
        <ele>3178.2</ele>
        <time>2021-08-06 16:12:18</time>
      </trkpt>
      <trkpt lat="37.05196" lon="-3.36176">
        <ele>3178.2</ele>
        <time>2021-08-06 16:12:19</time>
      </trkpt>
      <trkpt lat="37.05196" lon="-3.36176">
        <ele>3178.2</ele>
        <time>2021-08-06 16:12:20</time>
      </trkpt>
      <trkpt lat="37.05197" lon="-3.36177">
        <ele>3178</ele>
        <time>2021-08-06 16:12:21</time>
      </trkpt>
      <trkpt lat="37.05196" lon="-3.36179">
        <ele>3178</ele>
        <time>2021-08-06 16:12:22</time>
      </trkpt>
      <trkpt lat="37.05196" lon="-3.3618">
        <ele>3178.2</ele>
        <time>2021-08-06 16:12:23</time>
      </trkpt>
      <trkpt lat="37.05197" lon="-3.36181">
        <ele>3178.4</ele>
        <time>2021-08-06 16:12:24</time>
      </trkpt>
      <trkpt lat="37.05197" lon="-3.36182">
        <ele>3178.6</ele>
        <time>2021-08-06 16:12:25</time>
      </trkpt>
      <trkpt lat="37.05197" lon="-3.36183">
        <ele>3178.8</ele>
        <time>2021-08-06 16:12:26</time>
      </trkpt>
      <trkpt lat="37.05198" lon="-3.36184">
        <ele>3178.8</ele>
        <time>2021-08-06 16:12:27</time>
      </trkpt>
      <trkpt lat="37.05199" lon="-3.36184">
        <ele>3179</ele>
        <time>2021-08-06 16:12:28</time>
      </trkpt>
      <trkpt lat="37.05199" lon="-3.36185">
        <ele>3179.4</ele>
        <time>2021-08-06 16:12:29</time>
      </trkpt>
      <trkpt lat="37.05199" lon="-3.36186">
        <ele>3179.6</ele>
        <time>2021-08-06 16:12:30</time>
      </trkpt>
      <trkpt lat="37.052" lon="-3.36187">
        <ele>3179.6</ele>
        <time>2021-08-06 16:12:31</time>
      </trkpt>
      <trkpt lat="37.052" lon="-3.36188">
        <ele>3179.8</ele>
        <time>2021-08-06 16:12:32</time>
      </trkpt>
      <trkpt lat="37.05201" lon="-3.36189">
        <ele>3180</ele>
        <time>2021-08-06 16:12:33</time>
      </trkpt>
      <trkpt lat="37.05201" lon="-3.36189">
        <ele>3180.2</ele>
        <time>2021-08-06 16:12:34</time>
      </trkpt>
      <trkpt lat="37.05201" lon="-3.36191">
        <ele>3180.4</ele>
        <time>2021-08-06 16:12:35</time>
      </trkpt>
      <trkpt lat="37.05201" lon="-3.36192">
        <ele>3180.6</ele>
        <time>2021-08-06 16:12:36</time>
      </trkpt>
      <trkpt lat="37.05201" lon="-3.36193">
        <ele>3180.8</ele>
        <time>2021-08-06 16:12:37</time>
      </trkpt>
      <trkpt lat="37.05201" lon="-3.36194">
        <ele>3180.8</ele>
        <time>2021-08-06 16:12:38</time>
      </trkpt>
      <trkpt lat="37.05201" lon="-3.36196">
        <ele>3181</ele>
        <time>2021-08-06 16:12:39</time>
      </trkpt>
      <trkpt lat="37.05201" lon="-3.36197">
        <ele>3181</ele>
        <time>2021-08-06 16:12:40</time>
      </trkpt>
      <trkpt lat="37.05201" lon="-3.36198">
        <ele>3181.2</ele>
        <time>2021-08-06 16:12:41</time>
      </trkpt>
      <trkpt lat="37.05201" lon="-3.362">
        <ele>3181.2</ele>
        <time>2021-08-06 16:12:42</time>
      </trkpt>
      <trkpt lat="37.05201" lon="-3.36201">
        <ele>3181.4</ele>
        <time>2021-08-06 16:12:43</time>
      </trkpt>
      <trkpt lat="37.05201" lon="-3.36202">
        <ele>3181.4</ele>
        <time>2021-08-06 16:12:44</time>
      </trkpt>
      <trkpt lat="37.05201" lon="-3.36203">
        <ele>3181.4</ele>
        <time>2021-08-06 16:12:45</time>
      </trkpt>
      <trkpt lat="37.05201" lon="-3.36204">
        <ele>3181.4</ele>
        <time>2021-08-06 16:12:46</time>
      </trkpt>
      <trkpt lat="37.05201" lon="-3.36206">
        <ele>3181.6</ele>
        <time>2021-08-06 16:12:47</time>
      </trkpt>
      <trkpt lat="37.05201" lon="-3.36208">
        <ele>3181.8</ele>
        <time>2021-08-06 16:12:48</time>
      </trkpt>
      <trkpt lat="37.05202" lon="-3.36209">
        <ele>3181.6</ele>
        <time>2021-08-06 16:12:49</time>
      </trkpt>
      <trkpt lat="37.05202" lon="-3.3621">
        <ele>3181.6</ele>
        <time>2021-08-06 16:12:50</time>
      </trkpt>
      <trkpt lat="37.05202" lon="-3.36212">
        <ele>3181.4</ele>
        <time>2021-08-06 16:12:51</time>
      </trkpt>
      <trkpt lat="37.05203" lon="-3.36213">
        <ele>3181.4</ele>
        <time>2021-08-06 16:12:52</time>
      </trkpt>
      <trkpt lat="37.05203" lon="-3.36214">
        <ele>3181.6</ele>
        <time>2021-08-06 16:12:53</time>
      </trkpt>
      <trkpt lat="37.05203" lon="-3.36216">
        <ele>3181.6</ele>
        <time>2021-08-06 16:12:54</time>
      </trkpt>
      <trkpt lat="37.05204" lon="-3.36217">
        <ele>3181.6</ele>
        <time>2021-08-06 16:12:55</time>
      </trkpt>
      <trkpt lat="37.05204" lon="-3.36218">
        <ele>3181.8</ele>
        <time>2021-08-06 16:12:56</time>
      </trkpt>
      <trkpt lat="37.05204" lon="-3.36219">
        <ele>3182</ele>
        <time>2021-08-06 16:12:57</time>
      </trkpt>
      <trkpt lat="37.05205" lon="-3.3622">
        <ele>3182</ele>
        <time>2021-08-06 16:12:58</time>
      </trkpt>
      <trkpt lat="37.05205" lon="-3.36222">
        <ele>3182.2</ele>
        <time>2021-08-06 16:12:59</time>
      </trkpt>
      <trkpt lat="37.05205" lon="-3.36223">
        <ele>3182.2</ele>
        <time>2021-08-06 16:13:00</time>
      </trkpt>
      <trkpt lat="37.05206" lon="-3.36224">
        <ele>3182.4</ele>
        <time>2021-08-06 16:13:01</time>
      </trkpt>
      <trkpt lat="37.05206" lon="-3.36225">
        <ele>3182.8</ele>
        <time>2021-08-06 16:13:02</time>
      </trkpt>
      <trkpt lat="37.05206" lon="-3.36226">
        <ele>3183</ele>
        <time>2021-08-06 16:13:03</time>
      </trkpt>
      <trkpt lat="37.05207" lon="-3.36227">
        <ele>3183</ele>
        <time>2021-08-06 16:13:04</time>
      </trkpt>
      <trkpt lat="37.05208" lon="-3.36228">
        <ele>3183</ele>
        <time>2021-08-06 16:13:05</time>
      </trkpt>
      <trkpt lat="37.0521" lon="-3.36228">
        <ele>3183.2</ele>
        <time>2021-08-06 16:13:06</time>
      </trkpt>
      <trkpt lat="37.05211" lon="-3.36229">
        <ele>3183.2</ele>
        <time>2021-08-06 16:13:07</time>
      </trkpt>
      <trkpt lat="37.05212" lon="-3.36229">
        <ele>3183.2</ele>
        <time>2021-08-06 16:13:08</time>
      </trkpt>
      <trkpt lat="37.05212" lon="-3.36229">
        <ele>3183.2</ele>
        <time>2021-08-06 16:13:09</time>
      </trkpt>
      <trkpt lat="37.05213" lon="-3.3623">
        <ele>3183.2</ele>
        <time>2021-08-06 16:13:10</time>
      </trkpt>
      <trkpt lat="37.05214" lon="-3.3623">
        <ele>3183.2</ele>
        <time>2021-08-06 16:13:11</time>
      </trkpt>
      <trkpt lat="37.05215" lon="-3.3623">
        <ele>3183.4</ele>
        <time>2021-08-06 16:13:12</time>
      </trkpt>
      <trkpt lat="37.05216" lon="-3.36229">
        <ele>3183.4</ele>
        <time>2021-08-06 16:13:13</time>
      </trkpt>
      <trkpt lat="37.05217" lon="-3.3623">
        <ele>3183.4</ele>
        <time>2021-08-06 16:13:14</time>
      </trkpt>
      <trkpt lat="37.05218" lon="-3.3623">
        <ele>3183.6</ele>
        <time>2021-08-06 16:13:15</time>
      </trkpt>
      <trkpt lat="37.05219" lon="-3.3623">
        <ele>3183.8</ele>
        <time>2021-08-06 16:13:16</time>
      </trkpt>
      <trkpt lat="37.0522" lon="-3.3623">
        <ele>3183.8</ele>
        <time>2021-08-06 16:13:17</time>
      </trkpt>
      <trkpt lat="37.05221" lon="-3.3623">
        <ele>3184</ele>
        <time>2021-08-06 16:13:18</time>
      </trkpt>
      <trkpt lat="37.05222" lon="-3.3623">
        <ele>3184</ele>
        <time>2021-08-06 16:13:19</time>
      </trkpt>
      <trkpt lat="37.05223" lon="-3.3623">
        <ele>3184.2</ele>
        <time>2021-08-06 16:13:20</time>
      </trkpt>
      <trkpt lat="37.05225" lon="-3.3623">
        <ele>3184.2</ele>
        <time>2021-08-06 16:13:21</time>
      </trkpt>
      <trkpt lat="37.05225" lon="-3.36231">
        <ele>3184.2</ele>
        <time>2021-08-06 16:13:22</time>
      </trkpt>
      <trkpt lat="37.05227" lon="-3.36231">
        <ele>3184.2</ele>
        <time>2021-08-06 16:13:23</time>
      </trkpt>
      <trkpt lat="37.05228" lon="-3.36232">
        <ele>3184.4</ele>
        <time>2021-08-06 16:13:24</time>
      </trkpt>
      <trkpt lat="37.05228" lon="-3.36233">
        <ele>3184.6</ele>
        <time>2021-08-06 16:13:25</time>
      </trkpt>
      <trkpt lat="37.05229" lon="-3.36234">
        <ele>3184.6</ele>
        <time>2021-08-06 16:13:26</time>
      </trkpt>
      <trkpt lat="37.0523" lon="-3.36235">
        <ele>3184.6</ele>
        <time>2021-08-06 16:13:27</time>
      </trkpt>
      <trkpt lat="37.05231" lon="-3.36235">
        <ele>3184.8</ele>
        <time>2021-08-06 16:13:28</time>
      </trkpt>
      <trkpt lat="37.05232" lon="-3.36236">
        <ele>3184.8</ele>
        <time>2021-08-06 16:13:29</time>
      </trkpt>
      <trkpt lat="37.05233" lon="-3.36236">
        <ele>3184.6</ele>
        <time>2021-08-06 16:13:30</time>
      </trkpt>
      <trkpt lat="37.05234" lon="-3.36236">
        <ele>3184.6</ele>
        <time>2021-08-06 16:13:31</time>
      </trkpt>
      <trkpt lat="37.05235" lon="-3.36236">
        <ele>3184.6</ele>
        <time>2021-08-06 16:13:32</time>
      </trkpt>
      <trkpt lat="37.05236" lon="-3.36236">
        <ele>3184.6</ele>
        <time>2021-08-06 16:13:33</time>
      </trkpt>
      <trkpt lat="37.05237" lon="-3.36237">
        <ele>3184.6</ele>
        <time>2021-08-06 16:13:34</time>
      </trkpt>
      <trkpt lat="37.05238" lon="-3.36237">
        <ele>3184.6</ele>
        <time>2021-08-06 16:13:35</time>
      </trkpt>
      <trkpt lat="37.05238" lon="-3.36237">
        <ele>3184.8</ele>
        <time>2021-08-06 16:13:36</time>
      </trkpt>
      <trkpt lat="37.05239" lon="-3.36238">
        <ele>3185</ele>
        <time>2021-08-06 16:13:37</time>
      </trkpt>
      <trkpt lat="37.05239" lon="-3.36239">
        <ele>3185.2</ele>
        <time>2021-08-06 16:13:38</time>
      </trkpt>
      <trkpt lat="37.0524" lon="-3.3624">
        <ele>3185.4</ele>
        <time>2021-08-06 16:13:39</time>
      </trkpt>
      <trkpt lat="37.0524" lon="-3.36241">
        <ele>3185.2</ele>
        <time>2021-08-06 16:13:40</time>
      </trkpt>
      <trkpt lat="37.0524" lon="-3.36242">
        <ele>3185.2</ele>
        <time>2021-08-06 16:13:41</time>
      </trkpt>
      <trkpt lat="37.05241" lon="-3.36243">
        <ele>3185.2</ele>
        <time>2021-08-06 16:13:42</time>
      </trkpt>
      <trkpt lat="37.05241" lon="-3.36243">
        <ele>3185.2</ele>
        <time>2021-08-06 16:13:43</time>
      </trkpt>
      <trkpt lat="37.05241" lon="-3.36244">
        <ele>3185.2</ele>
        <time>2021-08-06 16:13:44</time>
      </trkpt>
      <trkpt lat="37.05242" lon="-3.36245">
        <ele>3185.2</ele>
        <time>2021-08-06 16:13:45</time>
      </trkpt>
      <trkpt lat="37.05242" lon="-3.36247">
        <ele>3185.2</ele>
        <time>2021-08-06 16:13:46</time>
      </trkpt>
      <trkpt lat="37.05242" lon="-3.36248">
        <ele>3185.2</ele>
        <time>2021-08-06 16:13:47</time>
      </trkpt>
      <trkpt lat="37.05242" lon="-3.36248">
        <ele>3185.2</ele>
        <time>2021-08-06 16:13:48</time>
      </trkpt>
      <trkpt lat="37.05243" lon="-3.3625">
        <ele>3185.2</ele>
        <time>2021-08-06 16:13:49</time>
      </trkpt>
      <trkpt lat="37.05243" lon="-3.36251">
        <ele>3185.2</ele>
        <time>2021-08-06 16:13:50</time>
      </trkpt>
      <trkpt lat="37.05244" lon="-3.36252">
        <ele>3185.2</ele>
        <time>2021-08-06 16:13:51</time>
      </trkpt>
      <trkpt lat="37.05244" lon="-3.36253">
        <ele>3185.2</ele>
        <time>2021-08-06 16:13:52</time>
      </trkpt>
      <trkpt lat="37.05244" lon="-3.36254">
        <ele>3185.6</ele>
        <time>2021-08-06 16:13:53</time>
      </trkpt>
      <trkpt lat="37.05245" lon="-3.36256">
        <ele>3185.8</ele>
        <time>2021-08-06 16:13:54</time>
      </trkpt>
      <trkpt lat="37.05245" lon="-3.36257">
        <ele>3185.8</ele>
        <time>2021-08-06 16:13:55</time>
      </trkpt>
      <trkpt lat="37.05246" lon="-3.36258">
        <ele>3186</ele>
        <time>2021-08-06 16:13:56</time>
      </trkpt>
      <trkpt lat="37.05246" lon="-3.36259">
        <ele>3186</ele>
        <time>2021-08-06 16:13:57</time>
      </trkpt>
      <trkpt lat="37.05247" lon="-3.36259">
        <ele>3186</ele>
        <time>2021-08-06 16:13:58</time>
      </trkpt>
      <trkpt lat="37.05247" lon="-3.3626">
        <ele>3186</ele>
        <time>2021-08-06 16:13:59</time>
      </trkpt>
      <trkpt lat="37.05247" lon="-3.36262">
        <ele>3186</ele>
        <time>2021-08-06 16:14:00</time>
      </trkpt>
      <trkpt lat="37.05247" lon="-3.36263">
        <ele>3186</ele>
        <time>2021-08-06 16:14:01</time>
      </trkpt>
      <trkpt lat="37.05248" lon="-3.36264">
        <ele>3186</ele>
        <time>2021-08-06 16:14:02</time>
      </trkpt>
      <trkpt lat="37.05248" lon="-3.36265">
        <ele>3186.4</ele>
        <time>2021-08-06 16:14:03</time>
      </trkpt>
      <trkpt lat="37.05249" lon="-3.36266">
        <ele>3186.2</ele>
        <time>2021-08-06 16:14:04</time>
      </trkpt>
      <trkpt lat="37.0525" lon="-3.36267">
        <ele>3186.4</ele>
        <time>2021-08-06 16:14:05</time>
      </trkpt>
      <trkpt lat="37.0525" lon="-3.36268">
        <ele>3186.6</ele>
        <time>2021-08-06 16:14:06</time>
      </trkpt>
      <trkpt lat="37.05251" lon="-3.36269">
        <ele>3186.6</ele>
        <time>2021-08-06 16:14:07</time>
      </trkpt>
      <trkpt lat="37.05252" lon="-3.3627">
        <ele>3186.8</ele>
        <time>2021-08-06 16:14:08</time>
      </trkpt>
      <trkpt lat="37.05252" lon="-3.36271">
        <ele>3186.8</ele>
        <time>2021-08-06 16:14:09</time>
      </trkpt>
      <trkpt lat="37.05253" lon="-3.36272">
        <ele>3186.8</ele>
        <time>2021-08-06 16:14:10</time>
      </trkpt>
      <trkpt lat="37.05253" lon="-3.36272">
        <ele>3187</ele>
        <time>2021-08-06 16:14:11</time>
      </trkpt>
      <trkpt lat="37.05254" lon="-3.36273">
        <ele>3187</ele>
        <time>2021-08-06 16:14:12</time>
      </trkpt>
      <trkpt lat="37.05254" lon="-3.36274">
        <ele>3187</ele>
        <time>2021-08-06 16:14:13</time>
      </trkpt>
      <trkpt lat="37.05255" lon="-3.36275">
        <ele>3187</ele>
        <time>2021-08-06 16:14:14</time>
      </trkpt>
      <trkpt lat="37.05255" lon="-3.36275">
        <ele>3186.8</ele>
        <time>2021-08-06 16:14:15</time>
      </trkpt>
      <trkpt lat="37.05256" lon="-3.36276">
        <ele>3186.6</ele>
        <time>2021-08-06 16:14:16</time>
      </trkpt>
      <trkpt lat="37.05256" lon="-3.36276">
        <ele>3186.6</ele>
        <time>2021-08-06 16:14:17</time>
      </trkpt>
      <trkpt lat="37.05257" lon="-3.36277">
        <ele>3186.6</ele>
        <time>2021-08-06 16:14:18</time>
      </trkpt>
      <trkpt lat="37.05257" lon="-3.36278">
        <ele>3187</ele>
        <time>2021-08-06 16:14:19</time>
      </trkpt>
      <trkpt lat="37.05258" lon="-3.36278">
        <ele>3187</ele>
        <time>2021-08-06 16:14:20</time>
      </trkpt>
      <trkpt lat="37.05259" lon="-3.36279">
        <ele>3187</ele>
        <time>2021-08-06 16:14:21</time>
      </trkpt>
      <trkpt lat="37.05259" lon="-3.3628">
        <ele>3187</ele>
        <time>2021-08-06 16:14:22</time>
      </trkpt>
      <trkpt lat="37.0526" lon="-3.36281">
        <ele>3187</ele>
        <time>2021-08-06 16:14:23</time>
      </trkpt>
      <trkpt lat="37.05261" lon="-3.36281">
        <ele>3187</ele>
        <time>2021-08-06 16:14:24</time>
      </trkpt>
      <trkpt lat="37.05261" lon="-3.36282">
        <ele>3187</ele>
        <time>2021-08-06 16:14:25</time>
      </trkpt>
      <trkpt lat="37.05262" lon="-3.36282">
        <ele>3187</ele>
        <time>2021-08-06 16:14:26</time>
      </trkpt>
      <trkpt lat="37.05262" lon="-3.36284">
        <ele>3187.6</ele>
        <time>2021-08-06 16:14:27</time>
      </trkpt>
      <trkpt lat="37.05263" lon="-3.36284">
        <ele>3187.8</ele>
        <time>2021-08-06 16:14:28</time>
      </trkpt>
      <trkpt lat="37.05263" lon="-3.36285">
        <ele>3188</ele>
        <time>2021-08-06 16:14:29</time>
      </trkpt>
      <trkpt lat="37.05264" lon="-3.36286">
        <ele>3188.2</ele>
        <time>2021-08-06 16:14:30</time>
      </trkpt>
      <trkpt lat="37.05265" lon="-3.36285">
        <ele>3188.2</ele>
        <time>2021-08-06 16:14:31</time>
      </trkpt>
      <trkpt lat="37.05266" lon="-3.36285">
        <ele>3188.2</ele>
        <time>2021-08-06 16:14:32</time>
      </trkpt>
      <trkpt lat="37.05266" lon="-3.36285">
        <ele>3188.4</ele>
        <time>2021-08-06 16:14:33</time>
      </trkpt>
      <trkpt lat="37.05267" lon="-3.36286">
        <ele>3188.4</ele>
        <time>2021-08-06 16:14:34</time>
      </trkpt>
      <trkpt lat="37.05268" lon="-3.36286">
        <ele>3188.6</ele>
        <time>2021-08-06 16:14:35</time>
      </trkpt>
      <trkpt lat="37.05268" lon="-3.36287">
        <ele>3188.8</ele>
        <time>2021-08-06 16:14:36</time>
      </trkpt>
      <trkpt lat="37.05269" lon="-3.36287">
        <ele>3188.6</ele>
        <time>2021-08-06 16:14:37</time>
      </trkpt>
      <trkpt lat="37.05269" lon="-3.36288">
        <ele>3188.6</ele>
        <time>2021-08-06 16:14:38</time>
      </trkpt>
      <trkpt lat="37.0527" lon="-3.36288">
        <ele>3188.6</ele>
        <time>2021-08-06 16:14:39</time>
      </trkpt>
      <trkpt lat="37.0527" lon="-3.36288">
        <ele>3188.6</ele>
        <time>2021-08-06 16:14:40</time>
      </trkpt>
      <trkpt lat="37.05271" lon="-3.36288">
        <ele>3188.4</ele>
        <time>2021-08-06 16:14:41</time>
      </trkpt>
      <trkpt lat="37.05272" lon="-3.36289">
        <ele>3188.4</ele>
        <time>2021-08-06 16:14:42</time>
      </trkpt>
      <trkpt lat="37.05272" lon="-3.3629">
        <ele>3188.4</ele>
        <time>2021-08-06 16:14:43</time>
      </trkpt>
      <trkpt lat="37.05273" lon="-3.3629">
        <ele>3188.4</ele>
        <time>2021-08-06 16:14:44</time>
      </trkpt>
      <trkpt lat="37.05274" lon="-3.36291">
        <ele>3188.4</ele>
        <time>2021-08-06 16:14:45</time>
      </trkpt>
      <trkpt lat="37.05274" lon="-3.36292">
        <ele>3188.4</ele>
        <time>2021-08-06 16:14:46</time>
      </trkpt>
      <trkpt lat="37.05275" lon="-3.36292">
        <ele>3188.4</ele>
        <time>2021-08-06 16:14:47</time>
      </trkpt>
      <trkpt lat="37.05276" lon="-3.36293">
        <ele>3188.4</ele>
        <time>2021-08-06 16:14:48</time>
      </trkpt>
      <trkpt lat="37.05276" lon="-3.36294">
        <ele>3188.4</ele>
        <time>2021-08-06 16:14:49</time>
      </trkpt>
      <trkpt lat="37.05277" lon="-3.36294">
        <ele>3188.4</ele>
        <time>2021-08-06 16:14:50</time>
      </trkpt>
      <trkpt lat="37.05277" lon="-3.36294">
        <ele>3188.4</ele>
        <time>2021-08-06 16:14:51</time>
      </trkpt>
      <trkpt lat="37.05278" lon="-3.36295">
        <ele>3188.8</ele>
        <time>2021-08-06 16:14:52</time>
      </trkpt>
      <trkpt lat="37.05279" lon="-3.36295">
        <ele>3189</ele>
        <time>2021-08-06 16:14:53</time>
      </trkpt>
      <trkpt lat="37.0528" lon="-3.36295">
        <ele>3189</ele>
        <time>2021-08-06 16:14:54</time>
      </trkpt>
      <trkpt lat="37.05281" lon="-3.36295">
        <ele>3189.2</ele>
        <time>2021-08-06 16:14:55</time>
      </trkpt>
      <trkpt lat="37.05281" lon="-3.36296">
        <ele>3189.4</ele>
        <time>2021-08-06 16:14:56</time>
      </trkpt>
      <trkpt lat="37.05282" lon="-3.36296">
        <ele>3189.4</ele>
        <time>2021-08-06 16:14:57</time>
      </trkpt>
      <trkpt lat="37.05282" lon="-3.36296">
        <ele>3189.4</ele>
        <time>2021-08-06 16:14:58</time>
      </trkpt>
      <trkpt lat="37.05283" lon="-3.36297">
        <ele>3189.6</ele>
        <time>2021-08-06 16:14:59</time>
      </trkpt>
      <trkpt lat="37.05284" lon="-3.36297">
        <ele>3189.6</ele>
        <time>2021-08-06 16:15:00</time>
      </trkpt>
      <trkpt lat="37.05284" lon="-3.36297">
        <ele>3189.6</ele>
        <time>2021-08-06 16:15:01</time>
      </trkpt>
      <trkpt lat="37.05285" lon="-3.36297">
        <ele>3189.6</ele>
        <time>2021-08-06 16:15:02</time>
      </trkpt>
      <trkpt lat="37.05286" lon="-3.36298">
        <ele>3189.6</ele>
        <time>2021-08-06 16:15:03</time>
      </trkpt>
      <trkpt lat="37.05286" lon="-3.36299">
        <ele>3190</ele>
        <time>2021-08-06 16:15:04</time>
      </trkpt>
      <trkpt lat="37.05287" lon="-3.36299">
        <ele>3189.8</ele>
        <time>2021-08-06 16:15:05</time>
      </trkpt>
      <trkpt lat="37.05288" lon="-3.363">
        <ele>3189.6</ele>
        <time>2021-08-06 16:15:06</time>
      </trkpt>
      <trkpt lat="37.05288" lon="-3.363">
        <ele>3189.6</ele>
        <time>2021-08-06 16:15:07</time>
      </trkpt>
      <trkpt lat="37.05289" lon="-3.36299">
        <ele>3189.4</ele>
        <time>2021-08-06 16:15:08</time>
      </trkpt>
      <trkpt lat="37.0529" lon="-3.36301">
        <ele>3189.6</ele>
        <time>2021-08-06 16:15:09</time>
      </trkpt>
      <trkpt lat="37.05291" lon="-3.36301">
        <ele>3189.6</ele>
        <time>2021-08-06 16:15:10</time>
      </trkpt>
      <trkpt lat="37.05291" lon="-3.36302">
        <ele>3189.4</ele>
        <time>2021-08-06 16:15:11</time>
      </trkpt>
      <trkpt lat="37.05292" lon="-3.36303">
        <ele>3189.6</ele>
        <time>2021-08-06 16:15:12</time>
      </trkpt>
      <trkpt lat="37.05292" lon="-3.36303">
        <ele>3189.8</ele>
        <time>2021-08-06 16:15:13</time>
      </trkpt>
      <trkpt lat="37.05293" lon="-3.36304">
        <ele>3189.8</ele>
        <time>2021-08-06 16:15:14</time>
      </trkpt>
      <trkpt lat="37.05293" lon="-3.36305">
        <ele>3190</ele>
        <time>2021-08-06 16:15:15</time>
      </trkpt>
      <trkpt lat="37.05294" lon="-3.36305">
        <ele>3190</ele>
        <time>2021-08-06 16:15:16</time>
      </trkpt>
      <trkpt lat="37.05294" lon="-3.36305">
        <ele>3190</ele>
        <time>2021-08-06 16:15:17</time>
      </trkpt>
      <trkpt lat="37.05294" lon="-3.36306">
        <ele>3190</ele>
        <time>2021-08-06 16:15:18</time>
      </trkpt>
      <trkpt lat="37.05295" lon="-3.36306">
        <ele>3190.4</ele>
        <time>2021-08-06 16:15:19</time>
      </trkpt>
      <trkpt lat="37.05296" lon="-3.36307">
        <ele>3190.8</ele>
        <time>2021-08-06 16:15:20</time>
      </trkpt>
      <trkpt lat="37.05297" lon="-3.36307">
        <ele>3191</ele>
        <time>2021-08-06 16:15:21</time>
      </trkpt>
      <trkpt lat="37.05297" lon="-3.36307">
        <ele>3191.2</ele>
        <time>2021-08-06 16:15:22</time>
      </trkpt>
      <trkpt lat="37.05298" lon="-3.36307">
        <ele>3191.2</ele>
        <time>2021-08-06 16:15:23</time>
      </trkpt>
      <trkpt lat="37.05299" lon="-3.36308">
        <ele>3191.4</ele>
        <time>2021-08-06 16:15:24</time>
      </trkpt>
      <trkpt lat="37.053" lon="-3.36308">
        <ele>3191.4</ele>
        <time>2021-08-06 16:15:25</time>
      </trkpt>
      <trkpt lat="37.05301" lon="-3.36309">
        <ele>3191.6</ele>
        <time>2021-08-06 16:15:26</time>
      </trkpt>
      <trkpt lat="37.05301" lon="-3.36309">
        <ele>3191.6</ele>
        <time>2021-08-06 16:15:27</time>
      </trkpt>
      <trkpt lat="37.05302" lon="-3.3631">
        <ele>3191.8</ele>
        <time>2021-08-06 16:15:28</time>
      </trkpt>
      <trkpt lat="37.05302" lon="-3.3631">
        <ele>3191.8</ele>
        <time>2021-08-06 16:15:29</time>
      </trkpt>
      <trkpt lat="37.05303" lon="-3.36311">
        <ele>3191.8</ele>
        <time>2021-08-06 16:15:30</time>
      </trkpt>
      <trkpt lat="37.05303" lon="-3.36312">
        <ele>3192</ele>
        <time>2021-08-06 16:15:31</time>
      </trkpt>
      <trkpt lat="37.05304" lon="-3.36312">
        <ele>3192</ele>
        <time>2021-08-06 16:15:32</time>
      </trkpt>
      <trkpt lat="37.05305" lon="-3.36311">
        <ele>3192</ele>
        <time>2021-08-06 16:15:33</time>
      </trkpt>
      <trkpt lat="37.05306" lon="-3.3631">
        <ele>3192</ele>
        <time>2021-08-06 16:15:34</time>
      </trkpt>
      <trkpt lat="37.05307" lon="-3.3631">
        <ele>3192</ele>
        <time>2021-08-06 16:15:35</time>
      </trkpt>
      <trkpt lat="37.05308" lon="-3.36309">
        <ele>3192</ele>
        <time>2021-08-06 16:15:36</time>
      </trkpt>
      <trkpt lat="37.05309" lon="-3.36309">
        <ele>3192</ele>
        <time>2021-08-06 16:15:37</time>
      </trkpt>
      <trkpt lat="37.0531" lon="-3.3631">
        <ele>3192</ele>
        <time>2021-08-06 16:15:38</time>
      </trkpt>
      <trkpt lat="37.05311" lon="-3.3631">
        <ele>3192</ele>
        <time>2021-08-06 16:15:39</time>
      </trkpt>
      <trkpt lat="37.05312" lon="-3.36309">
        <ele>3192</ele>
        <time>2021-08-06 16:15:40</time>
      </trkpt>
      <trkpt lat="37.05313" lon="-3.36308">
        <ele>3192</ele>
        <time>2021-08-06 16:15:41</time>
      </trkpt>
      <trkpt lat="37.05313" lon="-3.36307">
        <ele>3192</ele>
        <time>2021-08-06 16:15:42</time>
      </trkpt>
      <trkpt lat="37.05314" lon="-3.36307">
        <ele>3192</ele>
        <time>2021-08-06 16:15:43</time>
      </trkpt>
      <trkpt lat="37.05314" lon="-3.36307">
        <ele>3192</ele>
        <time>2021-08-06 16:15:44</time>
      </trkpt>
      <trkpt lat="37.05314" lon="-3.36307">
        <ele>3192.2</ele>
        <time>2021-08-06 16:15:45</time>
      </trkpt>
      <trkpt lat="37.05314" lon="-3.36306">
        <ele>3192.2</ele>
        <time>2021-08-06 16:15:46</time>
      </trkpt>
      <trkpt lat="37.05315" lon="-3.36307">
        <ele>3192</ele>
        <time>2021-08-06 16:15:47</time>
      </trkpt>
      <trkpt lat="37.05316" lon="-3.36308">
        <ele>3192</ele>
        <time>2021-08-06 16:15:48</time>
      </trkpt>
      <trkpt lat="37.05317" lon="-3.36308">
        <ele>3192</ele>
        <time>2021-08-06 16:15:49</time>
      </trkpt>
      <trkpt lat="37.05318" lon="-3.36309">
        <ele>3192</ele>
        <time>2021-08-06 16:15:50</time>
      </trkpt>
      <trkpt lat="37.05319" lon="-3.36309">
        <ele>3191.8</ele>
        <time>2021-08-06 16:15:51</time>
      </trkpt>
      <trkpt lat="37.0532" lon="-3.36309">
        <ele>3191.8</ele>
        <time>2021-08-06 16:15:52</time>
      </trkpt>
      <trkpt lat="37.05321" lon="-3.36308">
        <ele>3192</ele>
        <time>2021-08-06 16:15:53</time>
      </trkpt>
      <trkpt lat="37.05322" lon="-3.36308">
        <ele>3192</ele>
        <time>2021-08-06 16:15:54</time>
      </trkpt>
      <trkpt lat="37.05324" lon="-3.36307">
        <ele>3192.4</ele>
        <time>2021-08-06 16:15:55</time>
      </trkpt>
      <trkpt lat="37.05324" lon="-3.36308">
        <ele>3192.6</ele>
        <time>2021-08-06 16:15:56</time>
      </trkpt>
      <trkpt lat="37.05325" lon="-3.36309">
        <ele>3192.6</ele>
        <time>2021-08-06 16:15:57</time>
      </trkpt>
      <trkpt lat="37.05326" lon="-3.36309">
        <ele>3192.8</ele>
        <time>2021-08-06 16:15:58</time>
      </trkpt>
      <trkpt lat="37.05327" lon="-3.3631">
        <ele>3192.8</ele>
        <time>2021-08-06 16:15:59</time>
      </trkpt>
      <trkpt lat="37.05327" lon="-3.36311">
        <ele>3193.2</ele>
        <time>2021-08-06 16:16:00</time>
      </trkpt>
      <trkpt lat="37.05327" lon="-3.36312">
        <ele>3193.4</ele>
        <time>2021-08-06 16:16:01</time>
      </trkpt>
      <trkpt lat="37.05327" lon="-3.36313">
        <ele>3193.6</ele>
        <time>2021-08-06 16:16:02</time>
      </trkpt>
      <trkpt lat="37.05328" lon="-3.36313">
        <ele>3193.6</ele>
        <time>2021-08-06 16:16:03</time>
      </trkpt>
      <trkpt lat="37.05328" lon="-3.36313">
        <ele>3193.6</ele>
        <time>2021-08-06 16:16:04</time>
      </trkpt>
      <trkpt lat="37.05329" lon="-3.36314">
        <ele>3193.6</ele>
        <time>2021-08-06 16:16:05</time>
      </trkpt>
      <trkpt lat="37.05329" lon="-3.36314">
        <ele>3193.6</ele>
        <time>2021-08-06 16:16:06</time>
      </trkpt>
      <trkpt lat="37.05329" lon="-3.36314">
        <ele>3193.8</ele>
        <time>2021-08-06 16:16:07</time>
      </trkpt>
      <trkpt lat="37.0533" lon="-3.36314">
        <ele>3193.8</ele>
        <time>2021-08-06 16:16:08</time>
      </trkpt>
      <trkpt lat="37.0533" lon="-3.36314">
        <ele>3193.8</ele>
        <time>2021-08-06 16:16:09</time>
      </trkpt>
      <trkpt lat="37.05331" lon="-3.36315">
        <ele>3193.8</ele>
        <time>2021-08-06 16:16:10</time>
      </trkpt>
      <trkpt lat="37.05332" lon="-3.36316">
        <ele>3193.8</ele>
        <time>2021-08-06 16:16:11</time>
      </trkpt>
      <trkpt lat="37.05332" lon="-3.36316">
        <ele>3193.8</ele>
        <time>2021-08-06 16:16:12</time>
      </trkpt>
      <trkpt lat="37.05333" lon="-3.36316">
        <ele>3193.8</ele>
        <time>2021-08-06 16:16:13</time>
      </trkpt>
      <trkpt lat="37.05334" lon="-3.36316">
        <ele>3194</ele>
        <time>2021-08-06 16:16:14</time>
      </trkpt>
      <trkpt lat="37.05335" lon="-3.36316">
        <ele>3194.2</ele>
        <time>2021-08-06 16:16:15</time>
      </trkpt>
      <trkpt lat="37.05336" lon="-3.36315">
        <ele>3194.2</ele>
        <time>2021-08-06 16:16:16</time>
      </trkpt>
      <trkpt lat="37.05337" lon="-3.36315">
        <ele>3194.2</ele>
        <time>2021-08-06 16:16:17</time>
      </trkpt>
      <trkpt lat="37.05338" lon="-3.36315">
        <ele>3194.2</ele>
        <time>2021-08-06 16:16:18</time>
      </trkpt>
      <trkpt lat="37.05339" lon="-3.36315">
        <ele>3194.2</ele>
        <time>2021-08-06 16:16:19</time>
      </trkpt>
      <trkpt lat="37.0534" lon="-3.36315">
        <ele>3194.2</ele>
        <time>2021-08-06 16:16:20</time>
      </trkpt>
      <trkpt lat="37.05341" lon="-3.36315">
        <ele>3194.2</ele>
        <time>2021-08-06 16:16:21</time>
      </trkpt>
      <trkpt lat="37.05342" lon="-3.36315">
        <ele>3194.2</ele>
        <time>2021-08-06 16:16:22</time>
      </trkpt>
      <trkpt lat="37.05343" lon="-3.36315">
        <ele>3194.2</ele>
        <time>2021-08-06 16:16:23</time>
      </trkpt>
      <trkpt lat="37.05344" lon="-3.36316">
        <ele>3194</ele>
        <time>2021-08-06 16:16:24</time>
      </trkpt>
      <trkpt lat="37.05344" lon="-3.36316">
        <ele>3194.2</ele>
        <time>2021-08-06 16:16:25</time>
      </trkpt>
      <trkpt lat="37.05345" lon="-3.36317">
        <ele>3194.4</ele>
        <time>2021-08-06 16:16:26</time>
      </trkpt>
      <trkpt lat="37.05345" lon="-3.36317">
        <ele>3194.4</ele>
        <time>2021-08-06 16:16:27</time>
      </trkpt>
      <trkpt lat="37.05347" lon="-3.36316">
        <ele>3194.6</ele>
        <time>2021-08-06 16:16:28</time>
      </trkpt>
      <trkpt lat="37.05348" lon="-3.36316">
        <ele>3194.6</ele>
        <time>2021-08-06 16:16:29</time>
      </trkpt>
      <trkpt lat="37.05348" lon="-3.36317">
        <ele>3194.8</ele>
        <time>2021-08-06 16:16:30</time>
      </trkpt>
      <trkpt lat="37.05348" lon="-3.36317">
        <ele>3195</ele>
        <time>2021-08-06 16:16:31</time>
      </trkpt>
      <trkpt lat="37.05349" lon="-3.36317">
        <ele>3195</ele>
        <time>2021-08-06 16:16:32</time>
      </trkpt>
      <trkpt lat="37.0535" lon="-3.36316">
        <ele>3195</ele>
        <time>2021-08-06 16:16:33</time>
      </trkpt>
      <trkpt lat="37.05351" lon="-3.36316">
        <ele>3195</ele>
        <time>2021-08-06 16:16:34</time>
      </trkpt>
      <trkpt lat="37.05351" lon="-3.36315">
        <ele>3195</ele>
        <time>2021-08-06 16:16:35</time>
      </trkpt>
      <trkpt lat="37.05352" lon="-3.36315">
        <ele>3195.2</ele>
        <time>2021-08-06 16:16:36</time>
      </trkpt>
      <trkpt lat="37.05353" lon="-3.36316">
        <ele>3195.2</ele>
        <time>2021-08-06 16:16:37</time>
      </trkpt>
      <trkpt lat="37.05354" lon="-3.36316">
        <ele>3195.4</ele>
        <time>2021-08-06 16:16:38</time>
      </trkpt>
      <trkpt lat="37.05354" lon="-3.36316">
        <ele>3195.4</ele>
        <time>2021-08-06 16:16:39</time>
      </trkpt>
      <trkpt lat="37.05355" lon="-3.36316">
        <ele>3195.6</ele>
        <time>2021-08-06 16:16:40</time>
      </trkpt>
      <trkpt lat="37.05356" lon="-3.36316">
        <ele>3195.6</ele>
        <time>2021-08-06 16:16:41</time>
      </trkpt>
      <trkpt lat="37.05356" lon="-3.36316">
        <ele>3195.8</ele>
        <time>2021-08-06 16:16:42</time>
      </trkpt>
      <trkpt lat="37.05356" lon="-3.36316">
        <ele>3196</ele>
        <time>2021-08-06 16:16:43</time>
      </trkpt>
      <trkpt lat="37.05355" lon="-3.36316">
        <ele>3196</ele>
        <time>2021-08-06 16:16:44</time>
      </trkpt>
      <trkpt lat="37.05355" lon="-3.36317">
        <ele>3196</ele>
        <time>2021-08-06 16:16:45</time>
      </trkpt>
      <trkpt lat="37.05355" lon="-3.36317">
        <ele>3196.2</ele>
        <time>2021-08-06 16:16:46</time>
      </trkpt>
      <trkpt lat="37.05355" lon="-3.36318">
        <ele>3196</ele>
        <time>2021-08-06 16:16:47</time>
      </trkpt>
      <trkpt lat="37.05355" lon="-3.36319">
        <ele>3196</ele>
        <time>2021-08-06 16:16:48</time>
      </trkpt>
      <trkpt lat="37.05355" lon="-3.36319">
        <ele>3195.8</ele>
        <time>2021-08-06 16:16:49</time>
      </trkpt>
      <trkpt lat="37.05355" lon="-3.36319">
        <ele>3195.6</ele>
        <time>2021-08-06 16:16:50</time>
      </trkpt>
      <trkpt lat="37.05356" lon="-3.36319">
        <ele>3195.6</ele>
        <time>2021-08-06 16:16:51</time>
      </trkpt>
      <trkpt lat="37.05356" lon="-3.36319">
        <ele>3195.6</ele>
        <time>2021-08-06 16:16:52</time>
      </trkpt>
      <trkpt lat="37.05357" lon="-3.3632">
        <ele>3195.6</ele>
        <time>2021-08-06 16:16:53</time>
      </trkpt>
      <trkpt lat="37.05358" lon="-3.3632">
        <ele>3195.6</ele>
        <time>2021-08-06 16:16:54</time>
      </trkpt>
      <trkpt lat="37.05359" lon="-3.3632">
        <ele>3195.6</ele>
        <time>2021-08-06 16:16:55</time>
      </trkpt>
      <trkpt lat="37.0536" lon="-3.3632">
        <ele>3195.8</ele>
        <time>2021-08-06 16:16:56</time>
      </trkpt>
      <trkpt lat="37.0536" lon="-3.3632">
        <ele>3196</ele>
        <time>2021-08-06 16:16:57</time>
      </trkpt>
      <trkpt lat="37.05361" lon="-3.3632">
        <ele>3196.2</ele>
        <time>2021-08-06 16:16:58</time>
      </trkpt>
      <trkpt lat="37.05362" lon="-3.3632">
        <ele>3196.4</ele>
        <time>2021-08-06 16:16:59</time>
      </trkpt>
      <trkpt lat="37.05363" lon="-3.36319">
        <ele>3196.6</ele>
        <time>2021-08-06 16:17:00</time>
      </trkpt>
      <trkpt lat="37.05364" lon="-3.36319">
        <ele>3196.6</ele>
        <time>2021-08-06 16:17:01</time>
      </trkpt>
      <trkpt lat="37.05365" lon="-3.36319">
        <ele>3196.6</ele>
        <time>2021-08-06 16:17:02</time>
      </trkpt>
      <trkpt lat="37.05366" lon="-3.36319">
        <ele>3196.6</ele>
        <time>2021-08-06 16:17:03</time>
      </trkpt>
      <trkpt lat="37.05366" lon="-3.36319">
        <ele>3196.8</ele>
        <time>2021-08-06 16:17:04</time>
      </trkpt>
      <trkpt lat="37.05367" lon="-3.3632">
        <ele>3196.8</ele>
        <time>2021-08-06 16:17:05</time>
      </trkpt>
      <trkpt lat="37.05368" lon="-3.3632">
        <ele>3196.8</ele>
        <time>2021-08-06 16:17:06</time>
      </trkpt>
      <trkpt lat="37.05369" lon="-3.36321">
        <ele>3197</ele>
        <time>2021-08-06 16:17:07</time>
      </trkpt>
      <trkpt lat="37.0537" lon="-3.36321">
        <ele>3197.2</ele>
        <time>2021-08-06 16:17:08</time>
      </trkpt>
      <trkpt lat="37.0537" lon="-3.36321">
        <ele>3197.2</ele>
        <time>2021-08-06 16:17:09</time>
      </trkpt>
      <trkpt lat="37.05371" lon="-3.3632">
        <ele>3197.4</ele>
        <time>2021-08-06 16:17:10</time>
      </trkpt>
      <trkpt lat="37.05372" lon="-3.3632">
        <ele>3197.4</ele>
        <time>2021-08-06 16:17:11</time>
      </trkpt>
      <trkpt lat="37.05373" lon="-3.3632">
        <ele>3197.6</ele>
        <time>2021-08-06 16:17:12</time>
      </trkpt>
      <trkpt lat="37.05373" lon="-3.3632">
        <ele>3197.6</ele>
        <time>2021-08-06 16:17:13</time>
      </trkpt>
      <trkpt lat="37.05373" lon="-3.3632">
        <ele>3197.6</ele>
        <time>2021-08-06 16:17:14</time>
      </trkpt>
      <trkpt lat="37.05373" lon="-3.36321">
        <ele>3197.8</ele>
        <time>2021-08-06 16:17:15</time>
      </trkpt>
      <trkpt lat="37.05373" lon="-3.36321">
        <ele>3198</ele>
        <time>2021-08-06 16:17:16</time>
      </trkpt>
      <trkpt lat="37.05373" lon="-3.3632">
        <ele>3198.2</ele>
        <time>2021-08-06 16:17:17</time>
      </trkpt>
      <trkpt lat="37.05374" lon="-3.3632">
        <ele>3198.4</ele>
        <time>2021-08-06 16:17:18</time>
      </trkpt>
      <trkpt lat="37.05375" lon="-3.3632">
        <ele>3198.4</ele>
        <time>2021-08-06 16:17:19</time>
      </trkpt>
      <trkpt lat="37.05375" lon="-3.36321">
        <ele>3198.4</ele>
        <time>2021-08-06 16:17:20</time>
      </trkpt>
      <trkpt lat="37.05376" lon="-3.36321">
        <ele>3198.4</ele>
        <time>2021-08-06 16:17:21</time>
      </trkpt>
      <trkpt lat="37.05377" lon="-3.36321">
        <ele>3198.4</ele>
        <time>2021-08-06 16:17:22</time>
      </trkpt>
      <trkpt lat="37.05378" lon="-3.36322">
        <ele>3198.2</ele>
        <time>2021-08-06 16:17:23</time>
      </trkpt>
      <trkpt lat="37.05379" lon="-3.36322">
        <ele>3198.2</ele>
        <time>2021-08-06 16:17:24</time>
      </trkpt>
      <trkpt lat="37.05379" lon="-3.36322">
        <ele>3198.2</ele>
        <time>2021-08-06 16:17:25</time>
      </trkpt>
      <trkpt lat="37.0538" lon="-3.36323">
        <ele>3198.4</ele>
        <time>2021-08-06 16:17:26</time>
      </trkpt>
      <trkpt lat="37.05381" lon="-3.36323">
        <ele>3198.4</ele>
        <time>2021-08-06 16:17:27</time>
      </trkpt>
      <trkpt lat="37.05382" lon="-3.36324">
        <ele>3198.6</ele>
        <time>2021-08-06 16:17:28</time>
      </trkpt>
      <trkpt lat="37.05383" lon="-3.36324">
        <ele>3199</ele>
        <time>2021-08-06 16:17:29</time>
      </trkpt>
      <trkpt lat="37.05384" lon="-3.36325">
        <ele>3199</ele>
        <time>2021-08-06 16:17:30</time>
      </trkpt>
      <trkpt lat="37.05385" lon="-3.36326">
        <ele>3199.2</ele>
        <time>2021-08-06 16:17:31</time>
      </trkpt>
      <trkpt lat="37.05385" lon="-3.36327">
        <ele>3199.2</ele>
        <time>2021-08-06 16:17:32</time>
      </trkpt>
      <trkpt lat="37.05386" lon="-3.36327">
        <ele>3199.4</ele>
        <time>2021-08-06 16:17:33</time>
      </trkpt>
      <trkpt lat="37.05387" lon="-3.36328">
        <ele>3199.2</ele>
        <time>2021-08-06 16:17:34</time>
      </trkpt>
      <trkpt lat="37.05387" lon="-3.36329">
        <ele>3199.4</ele>
        <time>2021-08-06 16:17:35</time>
      </trkpt>
      <trkpt lat="37.05388" lon="-3.3633">
        <ele>3199.4</ele>
        <time>2021-08-06 16:17:36</time>
      </trkpt>
      <trkpt lat="37.05388" lon="-3.36331">
        <ele>3199.2</ele>
        <time>2021-08-06 16:17:37</time>
      </trkpt>
      <trkpt lat="37.05389" lon="-3.36332">
        <ele>3199.2</ele>
        <time>2021-08-06 16:17:38</time>
      </trkpt>
      <trkpt lat="37.05389" lon="-3.36332">
        <ele>3199.4</ele>
        <time>2021-08-06 16:17:39</time>
      </trkpt>
      <trkpt lat="37.0539" lon="-3.36333">
        <ele>3199.4</ele>
        <time>2021-08-06 16:17:40</time>
      </trkpt>
      <trkpt lat="37.0539" lon="-3.36334">
        <ele>3199.4</ele>
        <time>2021-08-06 16:17:41</time>
      </trkpt>
      <trkpt lat="37.05391" lon="-3.36334">
        <ele>3199.4</ele>
        <time>2021-08-06 16:17:42</time>
      </trkpt>
      <trkpt lat="37.05392" lon="-3.36335">
        <ele>3199.4</ele>
        <time>2021-08-06 16:17:43</time>
      </trkpt>
      <trkpt lat="37.05393" lon="-3.36337">
        <ele>3199.4</ele>
        <time>2021-08-06 16:17:44</time>
      </trkpt>
      <trkpt lat="37.05394" lon="-3.36337">
        <ele>3199.4</ele>
        <time>2021-08-06 16:17:45</time>
      </trkpt>
      <trkpt lat="37.05395" lon="-3.36337">
        <ele>3199.4</ele>
        <time>2021-08-06 16:17:46</time>
      </trkpt>
      <trkpt lat="37.05396" lon="-3.36338">
        <ele>3199.4</ele>
        <time>2021-08-06 16:17:47</time>
      </trkpt>
      <trkpt lat="37.05397" lon="-3.36339">
        <ele>3199.6</ele>
        <time>2021-08-06 16:17:48</time>
      </trkpt>
      <trkpt lat="37.05397" lon="-3.36339">
        <ele>3200</ele>
        <time>2021-08-06 16:17:49</time>
      </trkpt>
      <trkpt lat="37.05398" lon="-3.3634">
        <ele>3200.2</ele>
        <time>2021-08-06 16:17:50</time>
      </trkpt>
      <trkpt lat="37.05398" lon="-3.36341">
        <ele>3200.4</ele>
        <time>2021-08-06 16:17:51</time>
      </trkpt>
      <trkpt lat="37.05399" lon="-3.36341">
        <ele>3200.6</ele>
        <time>2021-08-06 16:17:52</time>
      </trkpt>
      <trkpt lat="37.05401" lon="-3.36341">
        <ele>3200.6</ele>
        <time>2021-08-06 16:17:53</time>
      </trkpt>
      <trkpt lat="37.05401" lon="-3.36341">
        <ele>3200.6</ele>
        <time>2021-08-06 16:17:54</time>
      </trkpt>
      <trkpt lat="37.05402" lon="-3.36341">
        <ele>3200.6</ele>
        <time>2021-08-06 16:17:55</time>
      </trkpt>
      <trkpt lat="37.05402" lon="-3.36342">
        <ele>3200.4</ele>
        <time>2021-08-06 16:17:56</time>
      </trkpt>
      <trkpt lat="37.05403" lon="-3.36343">
        <ele>3200.4</ele>
        <time>2021-08-06 16:17:57</time>
      </trkpt>
      <trkpt lat="37.05404" lon="-3.36344">
        <ele>3200.4</ele>
        <time>2021-08-06 16:17:58</time>
      </trkpt>
      <trkpt lat="37.05404" lon="-3.36344">
        <ele>3200.4</ele>
        <time>2021-08-06 16:17:59</time>
      </trkpt>
      <trkpt lat="37.05406" lon="-3.36344">
        <ele>3200.2</ele>
        <time>2021-08-06 16:18:00</time>
      </trkpt>
      <trkpt lat="37.05406" lon="-3.36344">
        <ele>3200.2</ele>
        <time>2021-08-06 16:18:01</time>
      </trkpt>
      <trkpt lat="37.05407" lon="-3.36345">
        <ele>3200.2</ele>
        <time>2021-08-06 16:18:02</time>
      </trkpt>
      <trkpt lat="37.05407" lon="-3.36346">
        <ele>3200.2</ele>
        <time>2021-08-06 16:18:03</time>
      </trkpt>
      <trkpt lat="37.05408" lon="-3.36347">
        <ele>3200.2</ele>
        <time>2021-08-06 16:18:04</time>
      </trkpt>
      <trkpt lat="37.05409" lon="-3.36346">
        <ele>3200.2</ele>
        <time>2021-08-06 16:18:05</time>
      </trkpt>
      <trkpt lat="37.05411" lon="-3.36346">
        <ele>3200.2</ele>
        <time>2021-08-06 16:18:06</time>
      </trkpt>
      <trkpt lat="37.05412" lon="-3.36346">
        <ele>3200.2</ele>
        <time>2021-08-06 16:18:07</time>
      </trkpt>
      <trkpt lat="37.05413" lon="-3.36347">
        <ele>3200.2</ele>
        <time>2021-08-06 16:18:08</time>
      </trkpt>
      <trkpt lat="37.05413" lon="-3.36347">
        <ele>3200.4</ele>
        <time>2021-08-06 16:18:09</time>
      </trkpt>
      <trkpt lat="37.05416" lon="-3.36349">
        <ele>3200.4</ele>
        <time>2021-08-06 16:18:10</time>
      </trkpt>
      <trkpt lat="37.05417" lon="-3.36349">
        <ele>3200.4</ele>
        <time>2021-08-06 16:18:11</time>
      </trkpt>
      <trkpt lat="37.05416" lon="-3.36349">
        <ele>3200.6</ele>
        <time>2021-08-06 16:18:12</time>
      </trkpt>
      <trkpt lat="37.05417" lon="-3.36349">
        <ele>3200.8</ele>
        <time>2021-08-06 16:18:13</time>
      </trkpt>
      <trkpt lat="37.05418" lon="-3.3635">
        <ele>3201</ele>
        <time>2021-08-06 16:18:14</time>
      </trkpt>
      <trkpt lat="37.05418" lon="-3.3635">
        <ele>3201</ele>
        <time>2021-08-06 16:18:15</time>
      </trkpt>
      <trkpt lat="37.05419" lon="-3.36351">
        <ele>3201</ele>
        <time>2021-08-06 16:18:16</time>
      </trkpt>
      <trkpt lat="37.0542" lon="-3.36352">
        <ele>3201</ele>
        <time>2021-08-06 16:18:17</time>
      </trkpt>
      <trkpt lat="37.0542" lon="-3.36352">
        <ele>3201</ele>
        <time>2021-08-06 16:18:18</time>
      </trkpt>
      <trkpt lat="37.0542" lon="-3.36353">
        <ele>3201</ele>
        <time>2021-08-06 16:18:19</time>
      </trkpt>
      <trkpt lat="37.05421" lon="-3.36354">
        <ele>3201</ele>
        <time>2021-08-06 16:18:20</time>
      </trkpt>
      <trkpt lat="37.05421" lon="-3.36355">
        <ele>3201</ele>
        <time>2021-08-06 16:18:21</time>
      </trkpt>
      <trkpt lat="37.05422" lon="-3.36355">
        <ele>3201</ele>
        <time>2021-08-06 16:18:22</time>
      </trkpt>
      <trkpt lat="37.05422" lon="-3.36356">
        <ele>3201</ele>
        <time>2021-08-06 16:18:23</time>
      </trkpt>
      <trkpt lat="37.05423" lon="-3.36357">
        <ele>3201.2</ele>
        <time>2021-08-06 16:18:24</time>
      </trkpt>
      <trkpt lat="37.05424" lon="-3.36358">
        <ele>3201.4</ele>
        <time>2021-08-06 16:18:25</time>
      </trkpt>
      <trkpt lat="37.05424" lon="-3.3636">
        <ele>3201.4</ele>
        <time>2021-08-06 16:18:26</time>
      </trkpt>
      <trkpt lat="37.05424" lon="-3.3636">
        <ele>3201.6</ele>
        <time>2021-08-06 16:18:27</time>
      </trkpt>
      <trkpt lat="37.05424" lon="-3.36361">
        <ele>3201.6</ele>
        <time>2021-08-06 16:18:28</time>
      </trkpt>
      <trkpt lat="37.05424" lon="-3.36363">
        <ele>3201.6</ele>
        <time>2021-08-06 16:18:29</time>
      </trkpt>
      <trkpt lat="37.05424" lon="-3.36364">
        <ele>3201.6</ele>
        <time>2021-08-06 16:18:30</time>
      </trkpt>
      <trkpt lat="37.05424" lon="-3.36365">
        <ele>3201.6</ele>
        <time>2021-08-06 16:18:31</time>
      </trkpt>
      <trkpt lat="37.05425" lon="-3.36367">
        <ele>3201.4</ele>
        <time>2021-08-06 16:18:32</time>
      </trkpt>
      <trkpt lat="37.05426" lon="-3.36367">
        <ele>3201.4</ele>
        <time>2021-08-06 16:18:33</time>
      </trkpt>
      <trkpt lat="37.05426" lon="-3.36368">
        <ele>3201.4</ele>
        <time>2021-08-06 16:18:34</time>
      </trkpt>
      <trkpt lat="37.05426" lon="-3.36369">
        <ele>3201.4</ele>
        <time>2021-08-06 16:18:35</time>
      </trkpt>
      <trkpt lat="37.05426" lon="-3.3637">
        <ele>3201.4</ele>
        <time>2021-08-06 16:18:36</time>
      </trkpt>
      <trkpt lat="37.05426" lon="-3.36371">
        <ele>3201.6</ele>
        <time>2021-08-06 16:18:37</time>
      </trkpt>
      <trkpt lat="37.05426" lon="-3.36372">
        <ele>3201.8</ele>
        <time>2021-08-06 16:18:38</time>
      </trkpt>
      <trkpt lat="37.05426" lon="-3.36373">
        <ele>3202</ele>
        <time>2021-08-06 16:18:39</time>
      </trkpt>
      <trkpt lat="37.05426" lon="-3.36374">
        <ele>3202</ele>
        <time>2021-08-06 16:18:40</time>
      </trkpt>
      <trkpt lat="37.05425" lon="-3.36375">
        <ele>3202</ele>
        <time>2021-08-06 16:18:41</time>
      </trkpt>
      <trkpt lat="37.05425" lon="-3.36375">
        <ele>3202</ele>
        <time>2021-08-06 16:18:42</time>
      </trkpt>
      <trkpt lat="37.05425" lon="-3.36376">
        <ele>3202</ele>
        <time>2021-08-06 16:18:43</time>
      </trkpt>
      <trkpt lat="37.05424" lon="-3.36377">
        <ele>3202</ele>
        <time>2021-08-06 16:18:44</time>
      </trkpt>
      <trkpt lat="37.05424" lon="-3.36378">
        <ele>3201.8</ele>
        <time>2021-08-06 16:18:45</time>
      </trkpt>
      <trkpt lat="37.05425" lon="-3.36378">
        <ele>3201.6</ele>
        <time>2021-08-06 16:18:46</time>
      </trkpt>
      <trkpt lat="37.05424" lon="-3.36378">
        <ele>3201.6</ele>
        <time>2021-08-06 16:18:47</time>
      </trkpt>
      <trkpt lat="37.05424" lon="-3.36378">
        <ele>3201.6</ele>
        <time>2021-08-06 16:18:48</time>
      </trkpt>
      <trkpt lat="37.05424" lon="-3.36379">
        <ele>3201.6</ele>
        <time>2021-08-06 16:18:49</time>
      </trkpt>
      <trkpt lat="37.05424" lon="-3.3638">
        <ele>3201.6</ele>
        <time>2021-08-06 16:18:50</time>
      </trkpt>
      <trkpt lat="37.05424" lon="-3.36381">
        <ele>3201.6</ele>
        <time>2021-08-06 16:18:51</time>
      </trkpt>
      <trkpt lat="37.05424" lon="-3.36382">
        <ele>3201.4</ele>
        <time>2021-08-06 16:18:52</time>
      </trkpt>
      <trkpt lat="37.05424" lon="-3.36384">
        <ele>3201.4</ele>
        <time>2021-08-06 16:18:53</time>
      </trkpt>
      <trkpt lat="37.05424" lon="-3.36385">
        <ele>3201.4</ele>
        <time>2021-08-06 16:18:54</time>
      </trkpt>
      <trkpt lat="37.05425" lon="-3.36386">
        <ele>3201.4</ele>
        <time>2021-08-06 16:18:55</time>
      </trkpt>
      <trkpt lat="37.05425" lon="-3.36387">
        <ele>3201.4</ele>
        <time>2021-08-06 16:18:56</time>
      </trkpt>
      <trkpt lat="37.05425" lon="-3.36388">
        <ele>3201.6</ele>
        <time>2021-08-06 16:18:57</time>
      </trkpt>
      <trkpt lat="37.05425" lon="-3.36389">
        <ele>3201.6</ele>
        <time>2021-08-06 16:18:58</time>
      </trkpt>
      <trkpt lat="37.05426" lon="-3.3639">
        <ele>3201.6</ele>
        <time>2021-08-06 16:18:59</time>
      </trkpt>
      <trkpt lat="37.05427" lon="-3.3639">
        <ele>3201.6</ele>
        <time>2021-08-06 16:19:00</time>
      </trkpt>
      <trkpt lat="37.05427" lon="-3.36391">
        <ele>3201.6</ele>
        <time>2021-08-06 16:19:01</time>
      </trkpt>
      <trkpt lat="37.05427" lon="-3.36392">
        <ele>3201.8</ele>
        <time>2021-08-06 16:19:02</time>
      </trkpt>
      <trkpt lat="37.05428" lon="-3.36393">
        <ele>3201.8</ele>
        <time>2021-08-06 16:19:03</time>
      </trkpt>
      <trkpt lat="37.05428" lon="-3.36394">
        <ele>3202</ele>
        <time>2021-08-06 16:19:04</time>
      </trkpt>
      <trkpt lat="37.05429" lon="-3.36394">
        <ele>3202</ele>
        <time>2021-08-06 16:19:05</time>
      </trkpt>
      <trkpt lat="37.05429" lon="-3.36395">
        <ele>3202</ele>
        <time>2021-08-06 16:19:06</time>
      </trkpt>
      <trkpt lat="37.05429" lon="-3.36396">
        <ele>3202.2</ele>
        <time>2021-08-06 16:19:07</time>
      </trkpt>
      <trkpt lat="37.0543" lon="-3.36396">
        <ele>3202.4</ele>
        <time>2021-08-06 16:19:08</time>
      </trkpt>
      <trkpt lat="37.0543" lon="-3.36396">
        <ele>3202.6</ele>
        <time>2021-08-06 16:19:09</time>
      </trkpt>
      <trkpt lat="37.0543" lon="-3.36397">
        <ele>3202.6</ele>
        <time>2021-08-06 16:19:10</time>
      </trkpt>
      <trkpt lat="37.0543" lon="-3.36397">
        <ele>3202.6</ele>
        <time>2021-08-06 16:19:11</time>
      </trkpt>
      <trkpt lat="37.0543" lon="-3.36397">
        <ele>3202.6</ele>
        <time>2021-08-06 16:19:12</time>
      </trkpt>
      <trkpt lat="37.05431" lon="-3.36398">
        <ele>3202.8</ele>
        <time>2021-08-06 16:19:13</time>
      </trkpt>
      <trkpt lat="37.05431" lon="-3.36398">
        <ele>3202.8</ele>
        <time>2021-08-06 16:19:14</time>
      </trkpt>
      <trkpt lat="37.05431" lon="-3.36399">
        <ele>3202.6</ele>
        <time>2021-08-06 16:19:15</time>
      </trkpt>
      <trkpt lat="37.05431" lon="-3.364">
        <ele>3202.8</ele>
        <time>2021-08-06 16:19:16</time>
      </trkpt>
      <trkpt lat="37.05431" lon="-3.36401">
        <ele>3202.4</ele>
        <time>2021-08-06 16:19:17</time>
      </trkpt>
      <trkpt lat="37.05431" lon="-3.36402">
        <ele>3202.4</ele>
        <time>2021-08-06 16:19:18</time>
      </trkpt>
      <trkpt lat="37.0543" lon="-3.36402">
        <ele>3202.6</ele>
        <time>2021-08-06 16:19:19</time>
      </trkpt>
      <trkpt lat="37.0543" lon="-3.36402">
        <ele>3202.6</ele>
        <time>2021-08-06 16:19:20</time>
      </trkpt>
      <trkpt lat="37.05429" lon="-3.36402">
        <ele>3202.8</ele>
        <time>2021-08-06 16:19:21</time>
      </trkpt>
      <trkpt lat="37.05428" lon="-3.36402">
        <ele>3202.8</ele>
        <time>2021-08-06 16:19:22</time>
      </trkpt>
      <trkpt lat="37.05427" lon="-3.36402">
        <ele>3202.8</ele>
        <time>2021-08-06 16:19:23</time>
      </trkpt>
      <trkpt lat="37.05427" lon="-3.36403">
        <ele>3202.8</ele>
        <time>2021-08-06 16:19:24</time>
      </trkpt>
      <trkpt lat="37.05427" lon="-3.36404">
        <ele>3202.8</ele>
        <time>2021-08-06 16:19:25</time>
      </trkpt>
      <trkpt lat="37.05427" lon="-3.36405">
        <ele>3202.8</ele>
        <time>2021-08-06 16:19:26</time>
      </trkpt>
      <trkpt lat="37.05427" lon="-3.36406">
        <ele>3202.8</ele>
        <time>2021-08-06 16:19:27</time>
      </trkpt>
      <trkpt lat="37.05427" lon="-3.36407">
        <ele>3202.8</ele>
        <time>2021-08-06 16:19:28</time>
      </trkpt>
      <trkpt lat="37.05427" lon="-3.36408">
        <ele>3202.8</ele>
        <time>2021-08-06 16:19:29</time>
      </trkpt>
      <trkpt lat="37.05426" lon="-3.36409">
        <ele>3202.8</ele>
        <time>2021-08-06 16:19:30</time>
      </trkpt>
      <trkpt lat="37.05426" lon="-3.3641">
        <ele>3202.8</ele>
        <time>2021-08-06 16:19:31</time>
      </trkpt>
      <trkpt lat="37.05426" lon="-3.36411">
        <ele>3203</ele>
        <time>2021-08-06 16:19:32</time>
      </trkpt>
      <trkpt lat="37.05427" lon="-3.36411">
        <ele>3203</ele>
        <time>2021-08-06 16:19:33</time>
      </trkpt>
      <trkpt lat="37.05426" lon="-3.36412">
        <ele>3203</ele>
        <time>2021-08-06 16:19:34</time>
      </trkpt>
      <trkpt lat="37.05426" lon="-3.36413">
        <ele>3203</ele>
        <time>2021-08-06 16:19:35</time>
      </trkpt>
      <trkpt lat="37.05425" lon="-3.36414">
        <ele>3203.2</ele>
        <time>2021-08-06 16:19:36</time>
      </trkpt>
      <trkpt lat="37.05424" lon="-3.36417">
        <ele>3203.2</ele>
        <time>2021-08-06 16:19:37</time>
      </trkpt>
      <trkpt lat="37.05424" lon="-3.36418">
        <ele>3203.2</ele>
        <time>2021-08-06 16:19:38</time>
      </trkpt>
      <trkpt lat="37.05424" lon="-3.36419">
        <ele>3203.2</ele>
        <time>2021-08-06 16:19:39</time>
      </trkpt>
      <trkpt lat="37.05423" lon="-3.3642">
        <ele>3203.4</ele>
        <time>2021-08-06 16:19:40</time>
      </trkpt>
      <trkpt lat="37.05424" lon="-3.36421">
        <ele>3203.4</ele>
        <time>2021-08-06 16:19:41</time>
      </trkpt>
      <trkpt lat="37.05424" lon="-3.36422">
        <ele>3203.4</ele>
        <time>2021-08-06 16:19:42</time>
      </trkpt>
      <trkpt lat="37.05424" lon="-3.36422">
        <ele>3203.4</ele>
        <time>2021-08-06 16:19:43</time>
      </trkpt>
      <trkpt lat="37.05424" lon="-3.36423">
        <ele>3203.6</ele>
        <time>2021-08-06 16:19:44</time>
      </trkpt>
      <trkpt lat="37.05425" lon="-3.36423">
        <ele>3203.6</ele>
        <time>2021-08-06 16:19:45</time>
      </trkpt>
      <trkpt lat="37.05425" lon="-3.36424">
        <ele>3203.6</ele>
        <time>2021-08-06 16:19:46</time>
      </trkpt>
      <trkpt lat="37.05425" lon="-3.36425">
        <ele>3203.6</ele>
        <time>2021-08-06 16:19:47</time>
      </trkpt>
      <trkpt lat="37.05425" lon="-3.36425">
        <ele>3203.8</ele>
        <time>2021-08-06 16:19:48</time>
      </trkpt>
      <trkpt lat="37.05425" lon="-3.36427">
        <ele>3204</ele>
        <time>2021-08-06 16:19:49</time>
      </trkpt>
      <trkpt lat="37.05426" lon="-3.36428">
        <ele>3204</ele>
        <time>2021-08-06 16:19:50</time>
      </trkpt>
      <trkpt lat="37.05426" lon="-3.36429">
        <ele>3203.8</ele>
        <time>2021-08-06 16:19:51</time>
      </trkpt>
      <trkpt lat="37.05426" lon="-3.3643">
        <ele>3203.8</ele>
        <time>2021-08-06 16:19:52</time>
      </trkpt>
      <trkpt lat="37.05426" lon="-3.36431">
        <ele>3204</ele>
        <time>2021-08-06 16:19:53</time>
      </trkpt>
      <trkpt lat="37.05426" lon="-3.36433">
        <ele>3204</ele>
        <time>2021-08-06 16:19:54</time>
      </trkpt>
      <trkpt lat="37.05425" lon="-3.36434">
        <ele>3204</ele>
        <time>2021-08-06 16:19:55</time>
      </trkpt>
      <trkpt lat="37.05425" lon="-3.36435">
        <ele>3204</ele>
        <time>2021-08-06 16:19:56</time>
      </trkpt>
      <trkpt lat="37.05425" lon="-3.36437">
        <ele>3204</ele>
        <time>2021-08-06 16:19:57</time>
      </trkpt>
      <trkpt lat="37.05425" lon="-3.36438">
        <ele>3204</ele>
        <time>2021-08-06 16:19:58</time>
      </trkpt>
      <trkpt lat="37.05424" lon="-3.36438">
        <ele>3204.2</ele>
        <time>2021-08-06 16:19:59</time>
      </trkpt>
      <trkpt lat="37.05423" lon="-3.3644">
        <ele>3204</ele>
        <time>2021-08-06 16:20:00</time>
      </trkpt>
      <trkpt lat="37.05423" lon="-3.36441">
        <ele>3204</ele>
        <time>2021-08-06 16:20:01</time>
      </trkpt>
      <trkpt lat="37.05422" lon="-3.36442">
        <ele>3204</ele>
        <time>2021-08-06 16:20:02</time>
      </trkpt>
      <trkpt lat="37.05421" lon="-3.36443">
        <ele>3204</ele>
        <time>2021-08-06 16:20:03</time>
      </trkpt>
      <trkpt lat="37.05421" lon="-3.36444">
        <ele>3204</ele>
        <time>2021-08-06 16:20:04</time>
      </trkpt>
      <trkpt lat="37.05421" lon="-3.36444">
        <ele>3204</ele>
        <time>2021-08-06 16:20:05</time>
      </trkpt>
      <trkpt lat="37.05421" lon="-3.36445">
        <ele>3204</ele>
        <time>2021-08-06 16:20:06</time>
      </trkpt>
      <trkpt lat="37.05421" lon="-3.36446">
        <ele>3204</ele>
        <time>2021-08-06 16:20:07</time>
      </trkpt>
      <trkpt lat="37.0542" lon="-3.36446">
        <ele>3204.2</ele>
        <time>2021-08-06 16:20:08</time>
      </trkpt>
      <trkpt lat="37.0542" lon="-3.36447">
        <ele>3204.2</ele>
        <time>2021-08-06 16:20:09</time>
      </trkpt>
      <trkpt lat="37.05419" lon="-3.36449">
        <ele>3204.2</ele>
        <time>2021-08-06 16:20:10</time>
      </trkpt>
      <trkpt lat="37.05419" lon="-3.3645">
        <ele>3204.4</ele>
        <time>2021-08-06 16:20:11</time>
      </trkpt>
      <trkpt lat="37.05418" lon="-3.36451">
        <ele>3204.4</ele>
        <time>2021-08-06 16:20:12</time>
      </trkpt>
      <trkpt lat="37.05418" lon="-3.36452">
        <ele>3204.4</ele>
        <time>2021-08-06 16:20:13</time>
      </trkpt>
      <trkpt lat="37.05417" lon="-3.36453">
        <ele>3204.4</ele>
        <time>2021-08-06 16:20:14</time>
      </trkpt>
      <trkpt lat="37.05417" lon="-3.36454">
        <ele>3204.4</ele>
        <time>2021-08-06 16:20:15</time>
      </trkpt>
      <trkpt lat="37.05416" lon="-3.36455">
        <ele>3204.4</ele>
        <time>2021-08-06 16:20:16</time>
      </trkpt>
      <trkpt lat="37.05415" lon="-3.36456">
        <ele>3204.4</ele>
        <time>2021-08-06 16:20:17</time>
      </trkpt>
      <trkpt lat="37.05414" lon="-3.36457">
        <ele>3204.4</ele>
        <time>2021-08-06 16:20:18</time>
      </trkpt>
      <trkpt lat="37.05413" lon="-3.36458">
        <ele>3204.4</ele>
        <time>2021-08-06 16:20:19</time>
      </trkpt>
      <trkpt lat="37.05413" lon="-3.36458">
        <ele>3204.4</ele>
        <time>2021-08-06 16:20:20</time>
      </trkpt>
      <trkpt lat="37.05412" lon="-3.36459">
        <ele>3204.2</ele>
        <time>2021-08-06 16:20:21</time>
      </trkpt>
      <trkpt lat="37.05411" lon="-3.36459">
        <ele>3204.2</ele>
        <time>2021-08-06 16:20:22</time>
      </trkpt>
      <trkpt lat="37.05411" lon="-3.3646">
        <ele>3204.4</ele>
        <time>2021-08-06 16:20:23</time>
      </trkpt>
      <trkpt lat="37.0541" lon="-3.36461">
        <ele>3204.6</ele>
        <time>2021-08-06 16:20:24</time>
      </trkpt>
      <trkpt lat="37.0541" lon="-3.36462">
        <ele>3205</ele>
        <time>2021-08-06 16:20:25</time>
      </trkpt>
      <trkpt lat="37.0541" lon="-3.36463">
        <ele>3205.2</ele>
        <time>2021-08-06 16:20:26</time>
      </trkpt>
      <trkpt lat="37.05409" lon="-3.36465">
        <ele>3205.2</ele>
        <time>2021-08-06 16:20:27</time>
      </trkpt>
      <trkpt lat="37.05409" lon="-3.36466">
        <ele>3205.4</ele>
        <time>2021-08-06 16:20:28</time>
      </trkpt>
      <trkpt lat="37.05408" lon="-3.36467">
        <ele>3205.4</ele>
        <time>2021-08-06 16:20:29</time>
      </trkpt>
      <trkpt lat="37.05408" lon="-3.36468">
        <ele>3205.4</ele>
        <time>2021-08-06 16:20:30</time>
      </trkpt>
      <trkpt lat="37.05407" lon="-3.36469">
        <ele>3205.4</ele>
        <time>2021-08-06 16:20:31</time>
      </trkpt>
      <trkpt lat="37.05407" lon="-3.3647">
        <ele>3205.4</ele>
        <time>2021-08-06 16:20:32</time>
      </trkpt>
      <trkpt lat="37.05407" lon="-3.3647">
        <ele>3205.6</ele>
        <time>2021-08-06 16:20:33</time>
      </trkpt>
      <trkpt lat="37.05407" lon="-3.3647">
        <ele>3205.8</ele>
        <time>2021-08-06 16:20:34</time>
      </trkpt>
      <trkpt lat="37.05407" lon="-3.36471">
        <ele>3206</ele>
        <time>2021-08-06 16:20:35</time>
      </trkpt>
      <trkpt lat="37.05406" lon="-3.36471">
        <ele>3206.2</ele>
        <time>2021-08-06 16:20:36</time>
      </trkpt>
      <trkpt lat="37.05406" lon="-3.36472">
        <ele>3206.2</ele>
        <time>2021-08-06 16:20:37</time>
      </trkpt>
      <trkpt lat="37.05406" lon="-3.36472">
        <ele>3206.4</ele>
        <time>2021-08-06 16:20:38</time>
      </trkpt>
      <trkpt lat="37.05406" lon="-3.36473">
        <ele>3206.4</ele>
        <time>2021-08-06 16:20:39</time>
      </trkpt>
      <trkpt lat="37.05406" lon="-3.36474">
        <ele>3206.4</ele>
        <time>2021-08-06 16:20:40</time>
      </trkpt>
      <trkpt lat="37.05406" lon="-3.36475">
        <ele>3206.6</ele>
        <time>2021-08-06 16:20:41</time>
      </trkpt>
      <trkpt lat="37.05405" lon="-3.36476">
        <ele>3206.6</ele>
        <time>2021-08-06 16:20:42</time>
      </trkpt>
      <trkpt lat="37.05404" lon="-3.36476">
        <ele>3206.8</ele>
        <time>2021-08-06 16:20:43</time>
      </trkpt>
      <trkpt lat="37.05404" lon="-3.36477">
        <ele>3207</ele>
        <time>2021-08-06 16:20:44</time>
      </trkpt>
      <trkpt lat="37.05403" lon="-3.36478">
        <ele>3207.4</ele>
        <time>2021-08-06 16:20:45</time>
      </trkpt>
      <trkpt lat="37.05402" lon="-3.36478">
        <ele>3207.6</ele>
        <time>2021-08-06 16:20:46</time>
      </trkpt>
      <trkpt lat="37.05401" lon="-3.36479">
        <ele>3207.6</ele>
        <time>2021-08-06 16:20:47</time>
      </trkpt>
      <trkpt lat="37.054" lon="-3.36478">
        <ele>3207.8</ele>
        <time>2021-08-06 16:20:48</time>
      </trkpt>
      <trkpt lat="37.054" lon="-3.36479">
        <ele>3207.8</ele>
        <time>2021-08-06 16:20:49</time>
      </trkpt>
      <trkpt lat="37.05399" lon="-3.3648">
        <ele>3207.6</ele>
        <time>2021-08-06 16:20:50</time>
      </trkpt>
      <trkpt lat="37.054" lon="-3.36482">
        <ele>3207.6</ele>
        <time>2021-08-06 16:20:51</time>
      </trkpt>
      <trkpt lat="37.054" lon="-3.36483">
        <ele>3207.6</ele>
        <time>2021-08-06 16:20:52</time>
      </trkpt>
      <trkpt lat="37.054" lon="-3.36484">
        <ele>3207.6</ele>
        <time>2021-08-06 16:20:53</time>
      </trkpt>
      <trkpt lat="37.05399" lon="-3.36485">
        <ele>3207.6</ele>
        <time>2021-08-06 16:20:54</time>
      </trkpt>
      <trkpt lat="37.05397" lon="-3.36485">
        <ele>3207.6</ele>
        <time>2021-08-06 16:20:55</time>
      </trkpt>
      <trkpt lat="37.05397" lon="-3.36487">
        <ele>3207.6</ele>
        <time>2021-08-06 16:20:56</time>
      </trkpt>
      <trkpt lat="37.05397" lon="-3.36488">
        <ele>3207.8</ele>
        <time>2021-08-06 16:20:57</time>
      </trkpt>
      <trkpt lat="37.05397" lon="-3.36488">
        <ele>3207.8</ele>
        <time>2021-08-06 16:20:58</time>
      </trkpt>
      <trkpt lat="37.05398" lon="-3.36489">
        <ele>3208.2</ele>
        <time>2021-08-06 16:20:59</time>
      </trkpt>
      <trkpt lat="37.05398" lon="-3.3649">
        <ele>3208.2</ele>
        <time>2021-08-06 16:21:00</time>
      </trkpt>
      <trkpt lat="37.05397" lon="-3.3649">
        <ele>3208.2</ele>
        <time>2021-08-06 16:21:01</time>
      </trkpt>
      <trkpt lat="37.05397" lon="-3.36491">
        <ele>3208</ele>
        <time>2021-08-06 16:21:02</time>
      </trkpt>
      <trkpt lat="37.05397" lon="-3.36492">
        <ele>3208</ele>
        <time>2021-08-06 16:21:03</time>
      </trkpt>
      <trkpt lat="37.05397" lon="-3.36493">
        <ele>3208</ele>
        <time>2021-08-06 16:21:04</time>
      </trkpt>
      <trkpt lat="37.05397" lon="-3.36494">
        <ele>3207.8</ele>
        <time>2021-08-06 16:21:05</time>
      </trkpt>
      <trkpt lat="37.05397" lon="-3.36494">
        <ele>3207.8</ele>
        <time>2021-08-06 16:21:06</time>
      </trkpt>
      <trkpt lat="37.05397" lon="-3.36495">
        <ele>3207.8</ele>
        <time>2021-08-06 16:21:07</time>
      </trkpt>
      <trkpt lat="37.05398" lon="-3.36496">
        <ele>3207.8</ele>
        <time>2021-08-06 16:21:08</time>
      </trkpt>
      <trkpt lat="37.05398" lon="-3.36497">
        <ele>3208.4</ele>
        <time>2021-08-06 16:21:09</time>
      </trkpt>
      <trkpt lat="37.05398" lon="-3.36498">
        <ele>3208.8</ele>
        <time>2021-08-06 16:21:10</time>
      </trkpt>
      <trkpt lat="37.05397" lon="-3.36499">
        <ele>3208.8</ele>
        <time>2021-08-06 16:21:11</time>
      </trkpt>
      <trkpt lat="37.05397" lon="-3.365">
        <ele>3209</ele>
        <time>2021-08-06 16:21:12</time>
      </trkpt>
      <trkpt lat="37.05397" lon="-3.36501">
        <ele>3209</ele>
        <time>2021-08-06 16:21:13</time>
      </trkpt>
      <trkpt lat="37.05397" lon="-3.36503">
        <ele>3209.2</ele>
        <time>2021-08-06 16:21:14</time>
      </trkpt>
      <trkpt lat="37.05397" lon="-3.36504">
        <ele>3209.4</ele>
        <time>2021-08-06 16:21:15</time>
      </trkpt>
      <trkpt lat="37.05397" lon="-3.36505">
        <ele>3209.4</ele>
        <time>2021-08-06 16:21:16</time>
      </trkpt>
      <trkpt lat="37.05397" lon="-3.36506">
        <ele>3209.4</ele>
        <time>2021-08-06 16:21:17</time>
      </trkpt>
      <trkpt lat="37.05397" lon="-3.36507">
        <ele>3209.6</ele>
        <time>2021-08-06 16:21:18</time>
      </trkpt>
      <trkpt lat="37.05396" lon="-3.36508">
        <ele>3209.8</ele>
        <time>2021-08-06 16:21:19</time>
      </trkpt>
      <trkpt lat="37.05396" lon="-3.36509">
        <ele>3209.6</ele>
        <time>2021-08-06 16:21:20</time>
      </trkpt>
      <trkpt lat="37.05395" lon="-3.36509">
        <ele>3209.4</ele>
        <time>2021-08-06 16:21:21</time>
      </trkpt>
      <trkpt lat="37.05395" lon="-3.3651">
        <ele>3209.2</ele>
        <time>2021-08-06 16:21:22</time>
      </trkpt>
      <trkpt lat="37.05395" lon="-3.3651">
        <ele>3209.2</ele>
        <time>2021-08-06 16:21:23</time>
      </trkpt>
      <trkpt lat="37.05394" lon="-3.3651">
        <ele>3209.6</ele>
        <time>2021-08-06 16:21:24</time>
      </trkpt>
      <trkpt lat="37.05394" lon="-3.3651">
        <ele>3209.8</ele>
        <time>2021-08-06 16:21:25</time>
      </trkpt>
      <trkpt lat="37.05395" lon="-3.3651">
        <ele>3210</ele>
        <time>2021-08-06 16:21:26</time>
      </trkpt>
      <trkpt lat="37.05395" lon="-3.3651">
        <ele>3210.2</ele>
        <time>2021-08-06 16:21:27</time>
      </trkpt>
      <trkpt lat="37.05395" lon="-3.3651">
        <ele>3210.2</ele>
        <time>2021-08-06 16:21:28</time>
      </trkpt>
      <trkpt lat="37.05395" lon="-3.3651">
        <ele>3210</ele>
        <time>2021-08-06 16:21:29</time>
      </trkpt>
      <trkpt lat="37.05395" lon="-3.3651">
        <ele>3209.8</ele>
        <time>2021-08-06 16:21:30</time>
      </trkpt>
      <trkpt lat="37.05395" lon="-3.36511">
        <ele>3209.8</ele>
        <time>2021-08-06 16:21:31</time>
      </trkpt>
      <trkpt lat="37.05394" lon="-3.36511">
        <ele>3209.6</ele>
        <time>2021-08-06 16:21:32</time>
      </trkpt>
      <trkpt lat="37.05393" lon="-3.36512">
        <ele>3209.6</ele>
        <time>2021-08-06 16:21:33</time>
      </trkpt>
      <trkpt lat="37.05392" lon="-3.36512">
        <ele>3209.6</ele>
        <time>2021-08-06 16:21:34</time>
      </trkpt>
      <trkpt lat="37.05392" lon="-3.36513">
        <ele>3209.6</ele>
        <time>2021-08-06 16:21:35</time>
      </trkpt>
      <trkpt lat="37.05392" lon="-3.36514">
        <ele>3209.6</ele>
        <time>2021-08-06 16:21:36</time>
      </trkpt>
      <trkpt lat="37.05392" lon="-3.36515">
        <ele>3209.6</ele>
        <time>2021-08-06 16:21:37</time>
      </trkpt>
      <trkpt lat="37.05393" lon="-3.36517">
        <ele>3209.6</ele>
        <time>2021-08-06 16:21:38</time>
      </trkpt>
      <trkpt lat="37.05394" lon="-3.36519">
        <ele>3209.8</ele>
        <time>2021-08-06 16:21:39</time>
      </trkpt>
      <trkpt lat="37.05394" lon="-3.3652">
        <ele>3210</ele>
        <time>2021-08-06 16:21:40</time>
      </trkpt>
      <trkpt lat="37.05394" lon="-3.3652">
        <ele>3210.2</ele>
        <time>2021-08-06 16:21:41</time>
      </trkpt>
      <trkpt lat="37.05393" lon="-3.36521">
        <ele>3210.2</ele>
        <time>2021-08-06 16:21:42</time>
      </trkpt>
      <trkpt lat="37.05393" lon="-3.36521">
        <ele>3210.4</ele>
        <time>2021-08-06 16:21:43</time>
      </trkpt>
      <trkpt lat="37.05392" lon="-3.36521">
        <ele>3210.6</ele>
        <time>2021-08-06 16:21:44</time>
      </trkpt>
      <trkpt lat="37.05392" lon="-3.36521">
        <ele>3210.8</ele>
        <time>2021-08-06 16:21:45</time>
      </trkpt>
      <trkpt lat="37.05391" lon="-3.36521">
        <ele>3210.8</ele>
        <time>2021-08-06 16:21:46</time>
      </trkpt>
      <trkpt lat="37.05389" lon="-3.36521">
        <ele>3210.8</ele>
        <time>2021-08-06 16:21:47</time>
      </trkpt>
      <trkpt lat="37.05388" lon="-3.36521">
        <ele>3211</ele>
        <time>2021-08-06 16:21:48</time>
      </trkpt>
      <trkpt lat="37.05386" lon="-3.36522">
        <ele>3211</ele>
        <time>2021-08-06 16:21:49</time>
      </trkpt>
      <trkpt lat="37.05385" lon="-3.36522">
        <ele>3211</ele>
        <time>2021-08-06 16:21:50</time>
      </trkpt>
      <trkpt lat="37.05384" lon="-3.36523">
        <ele>3210.8</ele>
        <time>2021-08-06 16:21:51</time>
      </trkpt>
      <trkpt lat="37.05384" lon="-3.36524">
        <ele>3210.8</ele>
        <time>2021-08-06 16:21:52</time>
      </trkpt>
      <trkpt lat="37.05384" lon="-3.36525">
        <ele>3211</ele>
        <time>2021-08-06 16:21:53</time>
      </trkpt>
      <trkpt lat="37.05385" lon="-3.36527">
        <ele>3211</ele>
        <time>2021-08-06 16:21:54</time>
      </trkpt>
      <trkpt lat="37.05385" lon="-3.36527">
        <ele>3210.8</ele>
        <time>2021-08-06 16:21:55</time>
      </trkpt>
      <trkpt lat="37.05386" lon="-3.36528">
        <ele>3210.8</ele>
        <time>2021-08-06 16:21:56</time>
      </trkpt>
      <trkpt lat="37.05386" lon="-3.3653">
        <ele>3211</ele>
        <time>2021-08-06 16:21:57</time>
      </trkpt>
      <trkpt lat="37.05387" lon="-3.36531">
        <ele>3211</ele>
        <time>2021-08-06 16:21:58</time>
      </trkpt>
      <trkpt lat="37.05387" lon="-3.36533">
        <ele>3211</ele>
        <time>2021-08-06 16:21:59</time>
      </trkpt>
      <trkpt lat="37.05388" lon="-3.36534">
        <ele>3211</ele>
        <time>2021-08-06 16:22:00</time>
      </trkpt>
      <trkpt lat="37.05389" lon="-3.36534">
        <ele>3211.2</ele>
        <time>2021-08-06 16:22:01</time>
      </trkpt>
      <trkpt lat="37.05389" lon="-3.36534">
        <ele>3211.2</ele>
        <time>2021-08-06 16:22:02</time>
      </trkpt>
      <trkpt lat="37.05389" lon="-3.36534">
        <ele>3211.2</ele>
        <time>2021-08-06 16:22:03</time>
      </trkpt>
      <trkpt lat="37.0539" lon="-3.36534">
        <ele>3211.2</ele>
        <time>2021-08-06 16:22:04</time>
      </trkpt>
      <trkpt lat="37.05389" lon="-3.36534">
        <ele>3211.4</ele>
        <time>2021-08-06 16:22:05</time>
      </trkpt>
      <trkpt lat="37.05389" lon="-3.36535">
        <ele>3211.6</ele>
        <time>2021-08-06 16:22:06</time>
      </trkpt>
      <trkpt lat="37.0539" lon="-3.36535">
        <ele>3211.6</ele>
        <time>2021-08-06 16:22:07</time>
      </trkpt>
      <trkpt lat="37.0539" lon="-3.36536">
        <ele>3211.6</ele>
        <time>2021-08-06 16:22:08</time>
      </trkpt>
      <trkpt lat="37.0539" lon="-3.36536">
        <ele>3211.6</ele>
        <time>2021-08-06 16:22:09</time>
      </trkpt>
      <trkpt lat="37.0539" lon="-3.36537">
        <ele>3211.6</ele>
        <time>2021-08-06 16:22:10</time>
      </trkpt>
      <trkpt lat="37.05389" lon="-3.36537">
        <ele>3211.6</ele>
        <time>2021-08-06 16:22:11</time>
      </trkpt>
      <trkpt lat="37.0539" lon="-3.36538">
        <ele>3211.6</ele>
        <time>2021-08-06 16:22:12</time>
      </trkpt>
      <trkpt lat="37.0539" lon="-3.36539">
        <ele>3211.6</ele>
        <time>2021-08-06 16:22:13</time>
      </trkpt>
      <trkpt lat="37.0539" lon="-3.3654">
        <ele>3211.6</ele>
        <time>2021-08-06 16:22:14</time>
      </trkpt>
      <trkpt lat="37.05389" lon="-3.3654">
        <ele>3211.6</ele>
        <time>2021-08-06 16:22:15</time>
      </trkpt>
      <trkpt lat="37.05387" lon="-3.36538">
        <ele>3211.6</ele>
        <time>2021-08-06 16:22:16</time>
      </trkpt>
      <trkpt lat="37.05385" lon="-3.36537">
        <ele>3211.6</ele>
        <time>2021-08-06 16:22:17</time>
      </trkpt>
      <trkpt lat="37.05384" lon="-3.36537">
        <ele>3211.8</ele>
        <time>2021-08-06 16:22:18</time>
      </trkpt>
      <trkpt lat="37.05384" lon="-3.36537">
        <ele>3211.8</ele>
        <time>2021-08-06 16:22:19</time>
      </trkpt>
      <trkpt lat="37.05383" lon="-3.36537">
        <ele>3211.8</ele>
        <time>2021-08-06 16:22:20</time>
      </trkpt>
      <trkpt lat="37.05383" lon="-3.36537">
        <ele>3211.8</ele>
        <time>2021-08-06 16:22:21</time>
      </trkpt>
      <trkpt lat="37.05383" lon="-3.36537">
        <ele>3211.8</ele>
        <time>2021-08-06 16:22:22</time>
      </trkpt>
      <trkpt lat="37.05382" lon="-3.36537">
        <ele>3212</ele>
        <time>2021-08-06 16:22:23</time>
      </trkpt>
      <trkpt lat="37.05382" lon="-3.36538">
        <ele>3212</ele>
        <time>2021-08-06 16:22:24</time>
      </trkpt>
      <trkpt lat="37.05383" lon="-3.36538">
        <ele>3211.8</ele>
        <time>2021-08-06 16:22:25</time>
      </trkpt>
      <trkpt lat="37.05382" lon="-3.36539">
        <ele>3211.8</ele>
        <time>2021-08-06 16:22:26</time>
      </trkpt>
      <trkpt lat="37.05381" lon="-3.3654">
        <ele>3211.8</ele>
        <time>2021-08-06 16:22:27</time>
      </trkpt>
      <trkpt lat="37.05381" lon="-3.3654">
        <ele>3211.8</ele>
        <time>2021-08-06 16:22:28</time>
      </trkpt>
      <trkpt lat="37.0538" lon="-3.3654">
        <ele>3212</ele>
        <time>2021-08-06 16:22:29</time>
      </trkpt>
      <trkpt lat="37.05381" lon="-3.36541">
        <ele>3211.8</ele>
        <time>2021-08-06 16:22:30</time>
      </trkpt>
      <trkpt lat="37.0538" lon="-3.3654">
        <ele>3211.8</ele>
        <time>2021-08-06 16:22:31</time>
      </trkpt>
      <trkpt lat="37.0538" lon="-3.3654">
        <ele>3212</ele>
        <time>2021-08-06 16:22:32</time>
      </trkpt>
      <trkpt lat="37.05379" lon="-3.3654">
        <ele>3212.2</ele>
        <time>2021-08-06 16:22:33</time>
      </trkpt>
      <trkpt lat="37.05378" lon="-3.3654">
        <ele>3212.2</ele>
        <time>2021-08-06 16:22:34</time>
      </trkpt>
      <trkpt lat="37.05378" lon="-3.36541">
        <ele>3212.4</ele>
        <time>2021-08-06 16:22:35</time>
      </trkpt>
      <trkpt lat="37.05378" lon="-3.36541">
        <ele>3212.4</ele>
        <time>2021-08-06 16:22:36</time>
      </trkpt>
      <trkpt lat="37.05377" lon="-3.36542">
        <ele>3212.4</ele>
        <time>2021-08-06 16:22:37</time>
      </trkpt>
      <trkpt lat="37.05376" lon="-3.36543">
        <ele>3212.4</ele>
        <time>2021-08-06 16:22:38</time>
      </trkpt>
      <trkpt lat="37.05376" lon="-3.36544">
        <ele>3212.4</ele>
        <time>2021-08-06 16:22:39</time>
      </trkpt>
      <trkpt lat="37.05376" lon="-3.36545">
        <ele>3212.4</ele>
        <time>2021-08-06 16:22:40</time>
      </trkpt>
      <trkpt lat="37.05376" lon="-3.36546">
        <ele>3212.8</ele>
        <time>2021-08-06 16:22:41</time>
      </trkpt>
      <trkpt lat="37.05377" lon="-3.36548">
        <ele>3212.8</ele>
        <time>2021-08-06 16:22:42</time>
      </trkpt>
      <trkpt lat="37.05379" lon="-3.3655">
        <ele>3213</ele>
        <time>2021-08-06 16:22:43</time>
      </trkpt>
      <trkpt lat="37.0538" lon="-3.36552">
        <ele>3213</ele>
        <time>2021-08-06 16:22:44</time>
      </trkpt>
      <trkpt lat="37.05381" lon="-3.36553">
        <ele>3213</ele>
        <time>2021-08-06 16:22:45</time>
      </trkpt>
      <trkpt lat="37.05382" lon="-3.36554">
        <ele>3213</ele>
        <time>2021-08-06 16:22:46</time>
      </trkpt>
      <trkpt lat="37.05382" lon="-3.36555">
        <ele>3213</ele>
        <time>2021-08-06 16:22:47</time>
      </trkpt>
      <trkpt lat="37.0538" lon="-3.36554">
        <ele>3213</ele>
        <time>2021-08-06 16:22:48</time>
      </trkpt>
      <trkpt lat="37.0538" lon="-3.36554">
        <ele>3213.2</ele>
        <time>2021-08-06 16:22:49</time>
      </trkpt>
      <trkpt lat="37.0538" lon="-3.36554">
        <ele>3213.2</ele>
        <time>2021-08-06 16:22:50</time>
      </trkpt>
      <trkpt lat="37.05379" lon="-3.36554">
        <ele>3213.2</ele>
        <time>2021-08-06 16:22:51</time>
      </trkpt>
      <trkpt lat="37.05379" lon="-3.36554">
        <ele>3213.2</ele>
        <time>2021-08-06 16:22:52</time>
      </trkpt>
      <trkpt lat="37.05379" lon="-3.36553">
        <ele>3213.4</ele>
        <time>2021-08-06 16:22:53</time>
      </trkpt>
      <trkpt lat="37.05379" lon="-3.36554">
        <ele>3213.4</ele>
        <time>2021-08-06 16:22:54</time>
      </trkpt>
      <trkpt lat="37.05378" lon="-3.36553">
        <ele>3213.4</ele>
        <time>2021-08-06 16:22:55</time>
      </trkpt>
      <trkpt lat="37.05379" lon="-3.36555">
        <ele>3213.4</ele>
        <time>2021-08-06 16:22:56</time>
      </trkpt>
      <trkpt lat="37.0538" lon="-3.36556">
        <ele>3213.4</ele>
        <time>2021-08-06 16:22:57</time>
      </trkpt>
      <trkpt lat="37.0538" lon="-3.36556">
        <ele>3213.4</ele>
        <time>2021-08-06 16:22:58</time>
      </trkpt>
      <trkpt lat="37.05379" lon="-3.36556">
        <ele>3213.4</ele>
        <time>2021-08-06 16:22:59</time>
      </trkpt>
      <trkpt lat="37.05378" lon="-3.36554">
        <ele>3213.4</ele>
        <time>2021-08-06 16:23:00</time>
      </trkpt>
      <trkpt lat="37.05377" lon="-3.36553">
        <ele>3213.4</ele>
        <time>2021-08-06 16:23:01</time>
      </trkpt>
      <trkpt lat="37.05376" lon="-3.36551">
        <ele>3213.4</ele>
        <time>2021-08-06 16:23:02</time>
      </trkpt>
      <trkpt lat="37.05375" lon="-3.3655">
        <ele>3213.2</ele>
        <time>2021-08-06 16:23:03</time>
      </trkpt>
      <trkpt lat="37.05374" lon="-3.36548">
        <ele>3213.2</ele>
        <time>2021-08-06 16:23:04</time>
      </trkpt>
      <trkpt lat="37.05371" lon="-3.36541">
        <ele>3213</ele>
        <time>2021-08-06 16:23:05</time>
      </trkpt>
      <trkpt lat="37.0537" lon="-3.36541">
        <ele>3213.2</ele>
        <time>2021-08-06 16:23:06</time>
      </trkpt>
      <trkpt lat="37.05369" lon="-3.36541">
        <ele>3213.4</ele>
        <time>2021-08-06 16:23:07</time>
      </trkpt>
      <trkpt lat="37.05369" lon="-3.36541">
        <ele>3213.4</ele>
        <time>2021-08-06 16:23:08</time>
      </trkpt>
      <trkpt lat="37.05369" lon="-3.36541">
        <ele>3213.4</ele>
        <time>2021-08-06 16:23:09</time>
      </trkpt>
      <trkpt lat="37.05369" lon="-3.36541">
        <ele>3213.4</ele>
        <time>2021-08-06 16:23:10</time>
      </trkpt>
      <trkpt lat="37.05369" lon="-3.36541">
        <ele>3213.4</ele>
        <time>2021-08-06 16:23:11</time>
      </trkpt>
      <trkpt lat="37.05369" lon="-3.36542">
        <ele>3213.6</ele>
        <time>2021-08-06 16:23:12</time>
      </trkpt>
      <trkpt lat="37.05369" lon="-3.36542">
        <ele>3213.6</ele>
        <time>2021-08-06 16:23:13</time>
      </trkpt>
      <trkpt lat="37.0537" lon="-3.36543">
        <ele>3213.6</ele>
        <time>2021-08-06 16:23:14</time>
      </trkpt>
      <trkpt lat="37.0537" lon="-3.36544">
        <ele>3213.6</ele>
        <time>2021-08-06 16:23:15</time>
      </trkpt>
      <trkpt lat="37.05372" lon="-3.36545">
        <ele>3213.6</ele>
        <time>2021-08-06 16:23:16</time>
      </trkpt>
      <trkpt lat="37.05373" lon="-3.36547">
        <ele>3213.8</ele>
        <time>2021-08-06 16:23:17</time>
      </trkpt>
      <trkpt lat="37.05373" lon="-3.36547">
        <ele>3214</ele>
        <time>2021-08-06 16:23:18</time>
      </trkpt>
      <trkpt lat="37.05373" lon="-3.36547">
        <ele>3214</ele>
        <time>2021-08-06 16:23:19</time>
      </trkpt>
      <trkpt lat="37.05373" lon="-3.36547">
        <ele>3214</ele>
        <time>2021-08-06 16:23:20</time>
      </trkpt>
      <trkpt lat="37.05373" lon="-3.36548">
        <ele>3213.8</ele>
        <time>2021-08-06 16:23:21</time>
      </trkpt>
      <trkpt lat="37.05373" lon="-3.36548">
        <ele>3214</ele>
        <time>2021-08-06 16:23:22</time>
      </trkpt>
      <trkpt lat="37.05373" lon="-3.36548">
        <ele>3213.8</ele>
        <time>2021-08-06 16:23:23</time>
      </trkpt>
      <trkpt lat="37.05373" lon="-3.36548">
        <ele>3213.8</ele>
        <time>2021-08-06 16:23:24</time>
      </trkpt>
      <trkpt lat="37.05373" lon="-3.36548">
        <ele>3213.8</ele>
        <time>2021-08-06 16:23:25</time>
      </trkpt>
      <trkpt lat="37.05374" lon="-3.36549">
        <ele>3213.8</ele>
        <time>2021-08-06 16:23:26</time>
      </trkpt>
      <trkpt lat="37.05373" lon="-3.36549">
        <ele>3214</ele>
        <time>2021-08-06 16:23:27</time>
      </trkpt>
      <trkpt lat="37.05372" lon="-3.36548">
        <ele>3214</ele>
        <time>2021-08-06 16:23:28</time>
      </trkpt>
      <trkpt lat="37.05368" lon="-3.36546">
        <ele>3213.8</ele>
        <time>2021-08-06 16:23:29</time>
      </trkpt>
      <trkpt lat="37.05366" lon="-3.36545">
        <ele>3213.8</ele>
        <time>2021-08-06 16:23:30</time>
      </trkpt>
      <trkpt lat="37.05366" lon="-3.36545">
        <ele>3213.8</ele>
        <time>2021-08-06 16:23:31</time>
      </trkpt>
      <trkpt lat="37.05366" lon="-3.36545">
        <ele>3213.8</ele>
        <time>2021-08-06 16:23:32</time>
      </trkpt>
      <trkpt lat="37.05364" lon="-3.36544">
        <ele>3213.8</ele>
        <time>2021-08-06 16:23:33</time>
      </trkpt>
      <trkpt lat="37.05364" lon="-3.36544">
        <ele>3213.6</ele>
        <time>2021-08-06 16:23:34</time>
      </trkpt>
      <trkpt lat="37.05363" lon="-3.36543">
        <ele>3213.6</ele>
        <time>2021-08-06 16:23:35</time>
      </trkpt>
      <trkpt lat="37.05362" lon="-3.36542">
        <ele>3213.6</ele>
        <time>2021-08-06 16:23:36</time>
      </trkpt>
      <trkpt lat="37.05357" lon="-3.3654">
        <ele>3213.6</ele>
        <time>2021-08-06 16:23:37</time>
      </trkpt>
      <trkpt lat="37.05357" lon="-3.3654">
        <ele>3213.6</ele>
        <time>2021-08-06 16:23:38</time>
      </trkpt>
      <trkpt lat="37.05357" lon="-3.3654">
        <ele>3213.4</ele>
        <time>2021-08-06 16:23:39</time>
      </trkpt>
      <trkpt lat="37.05358" lon="-3.3654">
        <ele>3213.4</ele>
        <time>2021-08-06 16:23:40</time>
      </trkpt>
      <trkpt lat="37.05358" lon="-3.3654">
        <ele>3213.6</ele>
        <time>2021-08-06 16:23:41</time>
      </trkpt>
      <trkpt lat="37.05359" lon="-3.36542">
        <ele>3213.8</ele>
        <time>2021-08-06 16:23:42</time>
      </trkpt>
      <trkpt lat="37.05359" lon="-3.36543">
        <ele>3213.8</ele>
        <time>2021-08-06 16:23:43</time>
      </trkpt>
      <trkpt lat="37.0536" lon="-3.36544">
        <ele>3213.8</ele>
        <time>2021-08-06 16:23:44</time>
      </trkpt>
      <trkpt lat="37.0536" lon="-3.36546">
        <ele>3213.8</ele>
        <time>2021-08-06 16:23:45</time>
      </trkpt>
      <trkpt lat="37.05361" lon="-3.36546">
        <ele>3213.8</ele>
        <time>2021-08-06 16:23:46</time>
      </trkpt>
      <trkpt lat="37.05361" lon="-3.36547">
        <ele>3213.8</ele>
        <time>2021-08-06 16:23:47</time>
      </trkpt>
      <trkpt lat="37.05364" lon="-3.36548">
        <ele>3213.8</ele>
        <time>2021-08-06 16:23:48</time>
      </trkpt>
      <trkpt lat="37.05365" lon="-3.36549">
        <ele>3213.8</ele>
        <time>2021-08-06 16:23:49</time>
      </trkpt>
      <trkpt lat="37.05366" lon="-3.3655">
        <ele>3213.8</ele>
        <time>2021-08-06 16:23:50</time>
      </trkpt>
      <trkpt lat="37.05366" lon="-3.3655">
        <ele>3213.8</ele>
        <time>2021-08-06 16:23:51</time>
      </trkpt>
      <trkpt lat="37.05366" lon="-3.3655">
        <ele>3213.8</ele>
        <time>2021-08-06 16:23:52</time>
      </trkpt>
      <trkpt lat="37.05366" lon="-3.3655">
        <ele>3213.6</ele>
        <time>2021-08-06 16:23:53</time>
      </trkpt>
      <trkpt lat="37.05366" lon="-3.3655">
        <ele>3213.6</ele>
        <time>2021-08-06 16:23:54</time>
      </trkpt>
      <trkpt lat="37.05366" lon="-3.3655">
        <ele>3213.6</ele>
        <time>2021-08-06 16:23:55</time>
      </trkpt>
      <trkpt lat="37.05365" lon="-3.36551">
        <ele>3213.8</ele>
        <time>2021-08-06 16:23:56</time>
      </trkpt>
      <trkpt lat="37.05366" lon="-3.36551">
        <ele>3213.8</ele>
        <time>2021-08-06 16:23:57</time>
      </trkpt>
      <trkpt lat="37.05366" lon="-3.36552">
        <ele>3213.8</ele>
        <time>2021-08-06 16:23:58</time>
      </trkpt>
      <trkpt lat="37.05377" lon="-3.36559">
        <ele>3213.8</ele>
        <time>2021-08-06 16:23:59</time>
      </trkpt>
      <trkpt lat="37.05378" lon="-3.36559">
        <ele>3213.8</ele>
        <time>2021-08-06 16:24:00</time>
      </trkpt>
      <trkpt lat="37.05379" lon="-3.3656">
        <ele>3213.8</ele>
        <time>2021-08-06 16:24:01</time>
      </trkpt>
      <trkpt lat="37.05379" lon="-3.3656">
        <ele>3213.8</ele>
        <time>2021-08-06 16:24:02</time>
      </trkpt>
      <trkpt lat="37.05379" lon="-3.3656">
        <ele>3213.6</ele>
        <time>2021-08-06 16:24:03</time>
      </trkpt>
      <trkpt lat="37.05379" lon="-3.36559">
        <ele>3213.4</ele>
        <time>2021-08-06 16:24:04</time>
      </trkpt>
      <trkpt lat="37.05379" lon="-3.36559">
        <ele>3213.2</ele>
        <time>2021-08-06 16:24:05</time>
      </trkpt>
      <trkpt lat="37.05379" lon="-3.36559">
        <ele>3213.2</ele>
        <time>2021-08-06 16:24:06</time>
      </trkpt>
      <trkpt lat="37.05378" lon="-3.36559">
        <ele>3213.2</ele>
        <time>2021-08-06 16:24:07</time>
      </trkpt>
      <trkpt lat="37.05378" lon="-3.36559">
        <ele>3213.6</ele>
        <time>2021-08-06 16:24:08</time>
      </trkpt>
      <trkpt lat="37.05376" lon="-3.36557">
        <ele>3213.8</ele>
        <time>2021-08-06 16:24:09</time>
      </trkpt>
      <trkpt lat="37.05375" lon="-3.36557">
        <ele>3213.8</ele>
        <time>2021-08-06 16:24:10</time>
      </trkpt>
      <trkpt lat="37.05375" lon="-3.36557">
        <ele>3213.8</ele>
        <time>2021-08-06 16:24:11</time>
      </trkpt>
      <trkpt lat="37.05374" lon="-3.36556">
        <ele>3213.8</ele>
        <time>2021-08-06 16:24:12</time>
      </trkpt>
      <trkpt lat="37.05374" lon="-3.36555">
        <ele>3213.8</ele>
        <time>2021-08-06 16:24:13</time>
      </trkpt>
      <trkpt lat="37.05374" lon="-3.36555">
        <ele>3213.8</ele>
        <time>2021-08-06 16:24:14</time>
      </trkpt>
      <trkpt lat="37.05374" lon="-3.36554">
        <ele>3213.8</ele>
        <time>2021-08-06 16:24:15</time>
      </trkpt>
      <trkpt lat="37.05375" lon="-3.36554">
        <ele>3213.8</ele>
        <time>2021-08-06 16:24:16</time>
      </trkpt>
      <trkpt lat="37.05375" lon="-3.36553">
        <ele>3213.8</ele>
        <time>2021-08-06 16:24:17</time>
      </trkpt>
      <trkpt lat="37.05378" lon="-3.36556">
        <ele>3213.8</ele>
        <time>2021-08-06 16:24:18</time>
      </trkpt>
      <trkpt lat="37.05379" lon="-3.36556">
        <ele>3213.8</ele>
        <time>2021-08-06 16:24:19</time>
      </trkpt>
      <trkpt lat="37.05379" lon="-3.36555">
        <ele>3213.8</ele>
        <time>2021-08-06 16:24:20</time>
      </trkpt>
      <trkpt lat="37.05379" lon="-3.36555">
        <ele>3213.8</ele>
        <time>2021-08-06 16:24:21</time>
      </trkpt>
      <trkpt lat="37.0538" lon="-3.36555">
        <ele>3213.8</ele>
        <time>2021-08-06 16:24:22</time>
      </trkpt>
      <trkpt lat="37.0538" lon="-3.36555">
        <ele>3213.8</ele>
        <time>2021-08-06 16:24:23</time>
      </trkpt>
      <trkpt lat="37.0538" lon="-3.36554">
        <ele>3213.8</ele>
        <time>2021-08-06 16:24:24</time>
      </trkpt>
      <trkpt lat="37.0538" lon="-3.36554">
        <ele>3213.8</ele>
        <time>2021-08-06 16:24:25</time>
      </trkpt>
      <trkpt lat="37.0538" lon="-3.36554">
        <ele>3213.8</ele>
        <time>2021-08-06 16:24:26</time>
      </trkpt>
      <trkpt lat="37.05381" lon="-3.36556">
        <ele>3213.8</ele>
        <time>2021-08-06 16:24:27</time>
      </trkpt>
      <trkpt lat="37.05381" lon="-3.36556">
        <ele>3213.8</ele>
        <time>2021-08-06 16:24:28</time>
      </trkpt>
      <trkpt lat="37.0538" lon="-3.36556">
        <ele>3213.8</ele>
        <time>2021-08-06 16:24:29</time>
      </trkpt>
      <trkpt lat="37.05381" lon="-3.36556">
        <ele>3213.8</ele>
        <time>2021-08-06 16:24:30</time>
      </trkpt>
      <trkpt lat="37.05381" lon="-3.36556">
        <ele>3213.8</ele>
        <time>2021-08-06 16:24:31</time>
      </trkpt>
      <trkpt lat="37.05381" lon="-3.36557">
        <ele>3213.8</ele>
        <time>2021-08-06 16:24:32</time>
      </trkpt>
      <trkpt lat="37.05381" lon="-3.36557">
        <ele>3213.8</ele>
        <time>2021-08-06 16:24:33</time>
      </trkpt>
      <trkpt lat="37.05381" lon="-3.36557">
        <ele>3213.8</ele>
        <time>2021-08-06 16:24:34</time>
      </trkpt>
      <trkpt lat="37.0538" lon="-3.36556">
        <ele>3213.8</ele>
        <time>2021-08-06 16:24:35</time>
      </trkpt>
      <trkpt lat="37.05379" lon="-3.36556">
        <ele>3213.8</ele>
        <time>2021-08-06 16:24:36</time>
      </trkpt>
      <trkpt lat="37.05379" lon="-3.36555">
        <ele>3213.8</ele>
        <time>2021-08-06 16:24:37</time>
      </trkpt>
      <trkpt lat="37.05378" lon="-3.36554">
        <ele>3213.8</ele>
        <time>2021-08-06 16:24:38</time>
      </trkpt>
      <trkpt lat="37.05378" lon="-3.36554">
        <ele>3213.8</ele>
        <time>2021-08-06 16:24:39</time>
      </trkpt>
      <trkpt lat="37.05378" lon="-3.36554">
        <ele>3213.8</ele>
        <time>2021-08-06 16:24:40</time>
      </trkpt>
      <trkpt lat="37.05378" lon="-3.36554">
        <ele>3213.8</ele>
        <time>2021-08-06 16:24:41</time>
      </trkpt>
      <trkpt lat="37.05379" lon="-3.36554">
        <ele>3213.8</ele>
        <time>2021-08-06 16:24:42</time>
      </trkpt>
      <trkpt lat="37.05379" lon="-3.36554">
        <ele>3213.8</ele>
        <time>2021-08-06 16:24:43</time>
      </trkpt>
      <trkpt lat="37.05379" lon="-3.36554">
        <ele>3213.8</ele>
        <time>2021-08-06 16:24:44</time>
      </trkpt>
      <trkpt lat="37.05379" lon="-3.36554">
        <ele>3213.8</ele>
        <time>2021-08-06 16:24:45</time>
      </trkpt>
      <trkpt lat="37.05379" lon="-3.36553">
        <ele>3213.8</ele>
        <time>2021-08-06 16:24:46</time>
      </trkpt>
      <trkpt lat="37.05379" lon="-3.36553">
        <ele>3213.8</ele>
        <time>2021-08-06 16:24:47</time>
      </trkpt>
      <trkpt lat="37.05378" lon="-3.36552">
        <ele>3213.8</ele>
        <time>2021-08-06 16:24:48</time>
      </trkpt>
      <trkpt lat="37.05378" lon="-3.36551">
        <ele>3213.8</ele>
        <time>2021-08-06 16:24:49</time>
      </trkpt>
      <trkpt lat="37.05377" lon="-3.3655">
        <ele>3213.8</ele>
        <time>2021-08-06 16:24:50</time>
      </trkpt>
      <trkpt lat="37.05377" lon="-3.3655">
        <ele>3213.8</ele>
        <time>2021-08-06 16:24:51</time>
      </trkpt>
      <trkpt lat="37.05376" lon="-3.3655">
        <ele>3213.8</ele>
        <time>2021-08-06 16:24:52</time>
      </trkpt>
      <trkpt lat="37.05376" lon="-3.3655">
        <ele>3213.8</ele>
        <time>2021-08-06 16:24:53</time>
      </trkpt>
      <trkpt lat="37.05375" lon="-3.3655">
        <ele>3213.8</ele>
        <time>2021-08-06 16:24:54</time>
      </trkpt>
      <trkpt lat="37.05375" lon="-3.3655">
        <ele>3213.8</ele>
        <time>2021-08-06 16:24:55</time>
      </trkpt>
      <trkpt lat="37.05374" lon="-3.3655">
        <ele>3213.8</ele>
        <time>2021-08-06 16:24:56</time>
      </trkpt>
      <trkpt lat="37.05374" lon="-3.3655">
        <ele>3213.8</ele>
        <time>2021-08-06 16:24:57</time>
      </trkpt>
      <trkpt lat="37.05375" lon="-3.36552">
        <ele>3213.8</ele>
        <time>2021-08-06 16:24:58</time>
      </trkpt>
      <trkpt lat="37.05375" lon="-3.36551">
        <ele>3213.8</ele>
        <time>2021-08-06 16:24:59</time>
      </trkpt>
      <trkpt lat="37.05375" lon="-3.36551">
        <ele>3213.8</ele>
        <time>2021-08-06 16:25:00</time>
      </trkpt>
      <trkpt lat="37.05375" lon="-3.36551">
        <ele>3213.8</ele>
        <time>2021-08-06 16:25:01</time>
      </trkpt>
      <trkpt lat="37.05375" lon="-3.36551">
        <ele>3213.8</ele>
        <time>2021-08-06 16:25:02</time>
      </trkpt>
      <trkpt lat="37.05376" lon="-3.36552">
        <ele>3213.8</ele>
        <time>2021-08-06 16:25:03</time>
      </trkpt>
      <trkpt lat="37.05376" lon="-3.36552">
        <ele>3213.8</ele>
        <time>2021-08-06 16:25:04</time>
      </trkpt>
      <trkpt lat="37.05377" lon="-3.36553">
        <ele>3213.8</ele>
        <time>2021-08-06 16:25:05</time>
      </trkpt>
      <trkpt lat="37.05377" lon="-3.36554">
        <ele>3213.8</ele>
        <time>2021-08-06 16:25:06</time>
      </trkpt>
      <trkpt lat="37.05376" lon="-3.36554">
        <ele>3213.8</ele>
        <time>2021-08-06 16:25:07</time>
      </trkpt>
      <trkpt lat="37.05376" lon="-3.36554">
        <ele>3213.8</ele>
        <time>2021-08-06 16:25:08</time>
      </trkpt>
      <trkpt lat="37.05372" lon="-3.36547">
        <ele>3213.8</ele>
        <time>2021-08-06 16:25:09</time>
      </trkpt>
      <trkpt lat="37.05371" lon="-3.36546">
        <ele>3213.8</ele>
        <time>2021-08-06 16:25:10</time>
      </trkpt>
      <trkpt lat="37.05369" lon="-3.36543">
        <ele>3213.8</ele>
        <time>2021-08-06 16:25:11</time>
      </trkpt>
      <trkpt lat="37.05368" lon="-3.36542">
        <ele>3213.8</ele>
        <time>2021-08-06 16:25:12</time>
      </trkpt>
      <trkpt lat="37.05367" lon="-3.36541">
        <ele>3213.8</ele>
        <time>2021-08-06 16:25:13</time>
      </trkpt>
      <trkpt lat="37.05367" lon="-3.3654">
        <ele>3213.8</ele>
        <time>2021-08-06 16:25:14</time>
      </trkpt>
      <trkpt lat="37.05368" lon="-3.3654">
        <ele>3213.8</ele>
        <time>2021-08-06 16:25:15</time>
      </trkpt>
      <trkpt lat="37.05368" lon="-3.3654">
        <ele>3213.8</ele>
        <time>2021-08-06 16:25:16</time>
      </trkpt>
      <trkpt lat="37.05369" lon="-3.3654">
        <ele>3213.8</ele>
        <time>2021-08-06 16:25:17</time>
      </trkpt>
      <trkpt lat="37.0537" lon="-3.36541">
        <ele>3213.8</ele>
        <time>2021-08-06 16:25:18</time>
      </trkpt>
      <trkpt lat="37.05373" lon="-3.36542">
        <ele>3213.8</ele>
        <time>2021-08-06 16:25:19</time>
      </trkpt>
      <trkpt lat="37.05375" lon="-3.36543">
        <ele>3213.8</ele>
        <time>2021-08-06 16:25:20</time>
      </trkpt>
      <trkpt lat="37.05377" lon="-3.36543">
        <ele>3213.8</ele>
        <time>2021-08-06 16:25:21</time>
      </trkpt>
      <trkpt lat="37.05377" lon="-3.36542">
        <ele>3213.8</ele>
        <time>2021-08-06 16:25:22</time>
      </trkpt>
      <trkpt lat="37.05376" lon="-3.36542">
        <ele>3213.8</ele>
        <time>2021-08-06 16:25:23</time>
      </trkpt>
      <trkpt lat="37.05376" lon="-3.36542">
        <ele>3213.8</ele>
        <time>2021-08-06 16:25:24</time>
      </trkpt>
      <trkpt lat="37.05377" lon="-3.36545">
        <ele>3214.2</ele>
        <time>2021-08-06 16:25:25</time>
      </trkpt>
      <trkpt lat="37.05376" lon="-3.36545">
        <ele>3215.4</ele>
        <time>2021-08-06 16:25:26</time>
      </trkpt>
      <trkpt lat="37.05376" lon="-3.36545">
        <ele>3216</ele>
        <time>2021-08-06 16:25:27</time>
      </trkpt>
      <trkpt lat="37.05377" lon="-3.36545">
        <ele>3216.4</ele>
        <time>2021-08-06 16:25:28</time>
      </trkpt>
      <trkpt lat="37.05377" lon="-3.36546">
        <ele>3216.4</ele>
        <time>2021-08-06 16:25:29</time>
      </trkpt>
      <trkpt lat="37.0538" lon="-3.36548">
        <ele>3216.6</ele>
        <time>2021-08-06 16:25:30</time>
      </trkpt>
      <trkpt lat="37.05387" lon="-3.36553">
        <ele>3216.6</ele>
        <time>2021-08-06 16:25:31</time>
      </trkpt>
      <trkpt lat="37.05389" lon="-3.36554">
        <ele>3216.6</ele>
        <time>2021-08-06 16:25:32</time>
      </trkpt>
      <trkpt lat="37.0539" lon="-3.36555">
        <ele>3216.6</ele>
        <time>2021-08-06 16:25:33</time>
      </trkpt>
      <trkpt lat="37.05391" lon="-3.36555">
        <ele>3216.8</ele>
        <time>2021-08-06 16:25:34</time>
      </trkpt>
      <trkpt lat="37.05393" lon="-3.36557">
        <ele>3216.8</ele>
        <time>2021-08-06 16:25:35</time>
      </trkpt>
      <trkpt lat="37.05393" lon="-3.36557">
        <ele>3217.2</ele>
        <time>2021-08-06 16:25:36</time>
      </trkpt>
      <trkpt lat="37.05393" lon="-3.36557">
        <ele>3217.4</ele>
        <time>2021-08-06 16:25:37</time>
      </trkpt>
      <trkpt lat="37.05393" lon="-3.36557">
        <ele>3217.6</ele>
        <time>2021-08-06 16:25:38</time>
      </trkpt>
      <trkpt lat="37.05393" lon="-3.36557">
        <ele>3217.8</ele>
        <time>2021-08-06 16:25:39</time>
      </trkpt>
      <trkpt lat="37.05393" lon="-3.36558">
        <ele>3218</ele>
        <time>2021-08-06 16:25:40</time>
      </trkpt>
      <trkpt lat="37.05394" lon="-3.36558">
        <ele>3218</ele>
        <time>2021-08-06 16:25:41</time>
      </trkpt>
      <trkpt lat="37.05394" lon="-3.36559">
        <ele>3218</ele>
        <time>2021-08-06 16:25:42</time>
      </trkpt>
      <trkpt lat="37.05393" lon="-3.36558">
        <ele>3218.2</ele>
        <time>2021-08-06 16:25:43</time>
      </trkpt>
      <trkpt lat="37.05393" lon="-3.36558">
        <ele>3218.2</ele>
        <time>2021-08-06 16:25:44</time>
      </trkpt>
      <trkpt lat="37.05392" lon="-3.36556">
        <ele>3218.4</ele>
        <time>2021-08-06 16:25:45</time>
      </trkpt>
      <trkpt lat="37.0539" lon="-3.36555">
        <ele>3218.6</ele>
        <time>2021-08-06 16:25:46</time>
      </trkpt>
      <trkpt lat="37.05389" lon="-3.36554">
        <ele>3218.6</ele>
        <time>2021-08-06 16:25:47</time>
      </trkpt>
      <trkpt lat="37.05388" lon="-3.36554">
        <ele>3218.6</ele>
        <time>2021-08-06 16:25:48</time>
      </trkpt>
      <trkpt lat="37.05388" lon="-3.36554">
        <ele>3218.8</ele>
        <time>2021-08-06 16:25:49</time>
      </trkpt>
      <trkpt lat="37.05387" lon="-3.36553">
        <ele>3218.8</ele>
        <time>2021-08-06 16:25:50</time>
      </trkpt>
      <trkpt lat="37.05387" lon="-3.36553">
        <ele>3218.8</ele>
        <time>2021-08-06 16:25:51</time>
      </trkpt>
      <trkpt lat="37.05387" lon="-3.36553">
        <ele>3218.8</ele>
        <time>2021-08-06 16:25:52</time>
      </trkpt>
      <trkpt lat="37.05388" lon="-3.36554">
        <ele>3218.8</ele>
        <time>2021-08-06 16:25:53</time>
      </trkpt>
      <trkpt lat="37.05388" lon="-3.36554">
        <ele>3219</ele>
        <time>2021-08-06 16:25:54</time>
      </trkpt>
      <trkpt lat="37.0539" lon="-3.36555">
        <ele>3219</ele>
        <time>2021-08-06 16:25:55</time>
      </trkpt>
      <trkpt lat="37.05389" lon="-3.36556">
        <ele>3219.2</ele>
        <time>2021-08-06 16:25:56</time>
      </trkpt>
      <trkpt lat="37.05389" lon="-3.36555">
        <ele>3219.2</ele>
        <time>2021-08-06 16:25:57</time>
      </trkpt>
      <trkpt lat="37.05388" lon="-3.36555">
        <ele>3219.2</ele>
        <time>2021-08-06 16:25:58</time>
      </trkpt>
      <trkpt lat="37.05388" lon="-3.36556">
        <ele>3219.2</ele>
        <time>2021-08-06 16:25:59</time>
      </trkpt>
      <trkpt lat="37.05388" lon="-3.36556">
        <ele>3219.2</ele>
        <time>2021-08-06 16:26:00</time>
      </trkpt>
      <trkpt lat="37.05387" lon="-3.36557">
        <ele>3219.2</ele>
        <time>2021-08-06 16:26:01</time>
      </trkpt>
      <trkpt lat="37.05387" lon="-3.36557">
        <ele>3219.2</ele>
        <time>2021-08-06 16:26:02</time>
      </trkpt>
      <trkpt lat="37.05386" lon="-3.36557">
        <ele>3219.2</ele>
        <time>2021-08-06 16:26:03</time>
      </trkpt>
      <trkpt lat="37.05385" lon="-3.36557">
        <ele>3219.2</ele>
        <time>2021-08-06 16:26:04</time>
      </trkpt>
      <trkpt lat="37.05384" lon="-3.36557">
        <ele>3219.2</ele>
        <time>2021-08-06 16:26:05</time>
      </trkpt>
      <trkpt lat="37.05384" lon="-3.36557">
        <ele>3219.2</ele>
        <time>2021-08-06 16:26:06</time>
      </trkpt>
      <trkpt lat="37.05383" lon="-3.36557">
        <ele>3219.2</ele>
        <time>2021-08-06 16:26:07</time>
      </trkpt>
      <trkpt lat="37.05387" lon="-3.36558">
        <ele>3219.4</ele>
        <time>2021-08-06 16:26:08</time>
      </trkpt>
      <trkpt lat="37.05388" lon="-3.36559">
        <ele>3219.4</ele>
        <time>2021-08-06 16:26:09</time>
      </trkpt>
      <trkpt lat="37.05387" lon="-3.36558">
        <ele>3219.4</ele>
        <time>2021-08-06 16:26:10</time>
      </trkpt>
      <trkpt lat="37.05387" lon="-3.36558">
        <ele>3219.6</ele>
        <time>2021-08-06 16:26:11</time>
      </trkpt>
      <trkpt lat="37.05387" lon="-3.36559">
        <ele>3220</ele>
        <time>2021-08-06 16:26:12</time>
      </trkpt>
      <trkpt lat="37.05387" lon="-3.36559">
        <ele>3220.2</ele>
        <time>2021-08-06 16:26:13</time>
      </trkpt>
      <trkpt lat="37.05386" lon="-3.36558">
        <ele>3220.4</ele>
        <time>2021-08-06 16:26:14</time>
      </trkpt>
      <trkpt lat="37.05386" lon="-3.36557">
        <ele>3220.6</ele>
        <time>2021-08-06 16:26:15</time>
      </trkpt>
      <trkpt lat="37.05382" lon="-3.36555">
        <ele>3220.6</ele>
        <time>2021-08-06 16:26:16</time>
      </trkpt>
      <trkpt lat="37.05381" lon="-3.36554">
        <ele>3220.6</ele>
        <time>2021-08-06 16:26:17</time>
      </trkpt>
      <trkpt lat="37.0538" lon="-3.36553">
        <ele>3220.6</ele>
        <time>2021-08-06 16:26:18</time>
      </trkpt>
      <trkpt lat="37.05383" lon="-3.36558">
        <ele>3220.6</ele>
        <time>2021-08-06 16:26:19</time>
      </trkpt>
      <trkpt lat="37.05381" lon="-3.36557">
        <ele>3220.8</ele>
        <time>2021-08-06 16:26:20</time>
      </trkpt>
      <trkpt lat="37.05381" lon="-3.36558">
        <ele>3220.8</ele>
        <time>2021-08-06 16:26:21</time>
      </trkpt>
      <trkpt lat="37.05381" lon="-3.36558">
        <ele>3220.8</ele>
        <time>2021-08-06 16:26:22</time>
      </trkpt>
      <trkpt lat="37.0538" lon="-3.36557">
        <ele>3220.8</ele>
        <time>2021-08-06 16:26:23</time>
      </trkpt>
      <trkpt lat="37.0538" lon="-3.36557">
        <ele>3221</ele>
        <time>2021-08-06 16:26:24</time>
      </trkpt>
      <trkpt lat="37.05379" lon="-3.36556">
        <ele>3221</ele>
        <time>2021-08-06 16:26:25</time>
      </trkpt>
      <trkpt lat="37.05378" lon="-3.36556">
        <ele>3221.2</ele>
        <time>2021-08-06 16:26:26</time>
      </trkpt>
      <trkpt lat="37.05377" lon="-3.36556">
        <ele>3221.6</ele>
        <time>2021-08-06 16:26:27</time>
      </trkpt>
      <trkpt lat="37.05376" lon="-3.36555">
        <ele>3221.8</ele>
        <time>2021-08-06 16:26:28</time>
      </trkpt>
      <trkpt lat="37.05375" lon="-3.36555">
        <ele>3222</ele>
        <time>2021-08-06 16:26:29</time>
      </trkpt>
      <trkpt lat="37.05374" lon="-3.36556">
        <ele>3222.2</ele>
        <time>2021-08-06 16:26:30</time>
      </trkpt>
      <trkpt lat="37.05374" lon="-3.36556">
        <ele>3222.2</ele>
        <time>2021-08-06 16:26:31</time>
      </trkpt>
      <trkpt lat="37.05373" lon="-3.36555">
        <ele>3222.4</ele>
        <time>2021-08-06 16:26:32</time>
      </trkpt>
      <trkpt lat="37.05373" lon="-3.36555">
        <ele>3222.4</ele>
        <time>2021-08-06 16:26:33</time>
      </trkpt>
      <trkpt lat="37.05373" lon="-3.36555">
        <ele>3222.4</ele>
        <time>2021-08-06 16:26:34</time>
      </trkpt>
      <trkpt lat="37.05373" lon="-3.36554">
        <ele>3222.4</ele>
        <time>2021-08-06 16:26:35</time>
      </trkpt>
      <trkpt lat="37.05373" lon="-3.36554">
        <ele>3222.4</ele>
        <time>2021-08-06 16:26:36</time>
      </trkpt>
      <trkpt lat="37.05373" lon="-3.36554">
        <ele>3222.4</ele>
        <time>2021-08-06 16:26:37</time>
      </trkpt>
      <trkpt lat="37.05372" lon="-3.36554">
        <ele>3222.4</ele>
        <time>2021-08-06 16:26:38</time>
      </trkpt>
      <trkpt lat="37.05371" lon="-3.36554">
        <ele>3222.4</ele>
        <time>2021-08-06 16:26:39</time>
      </trkpt>
      <trkpt lat="37.05372" lon="-3.36553">
        <ele>3222.2</ele>
        <time>2021-08-06 16:26:40</time>
      </trkpt>
      <trkpt lat="37.05371" lon="-3.36554">
        <ele>3222.2</ele>
        <time>2021-08-06 16:26:41</time>
      </trkpt>
      <trkpt lat="37.05371" lon="-3.36554">
        <ele>3222</ele>
        <time>2021-08-06 16:26:42</time>
      </trkpt>
      <trkpt lat="37.0537" lon="-3.36554">
        <ele>3222</ele>
        <time>2021-08-06 16:26:43</time>
      </trkpt>
      <trkpt lat="37.0537" lon="-3.36554">
        <ele>3221.8</ele>
        <time>2021-08-06 16:26:44</time>
      </trkpt>
      <trkpt lat="37.05369" lon="-3.36554">
        <ele>3221.8</ele>
        <time>2021-08-06 16:26:45</time>
      </trkpt>
      <trkpt lat="37.05368" lon="-3.36554">
        <ele>3221.8</ele>
        <time>2021-08-06 16:26:46</time>
      </trkpt>
      <trkpt lat="37.05368" lon="-3.36554">
        <ele>3221.8</ele>
        <time>2021-08-06 16:26:47</time>
      </trkpt>
      <trkpt lat="37.05366" lon="-3.36553">
        <ele>3221.6</ele>
        <time>2021-08-06 16:26:48</time>
      </trkpt>
      <trkpt lat="37.05364" lon="-3.36551">
        <ele>3221.6</ele>
        <time>2021-08-06 16:26:49</time>
      </trkpt>
      <trkpt lat="37.05362" lon="-3.36549">
        <ele>3221.6</ele>
        <time>2021-08-06 16:26:50</time>
      </trkpt>
      <trkpt lat="37.05361" lon="-3.36548">
        <ele>3221.6</ele>
        <time>2021-08-06 16:26:51</time>
      </trkpt>
      <trkpt lat="37.05359" lon="-3.36547">
        <ele>3221.6</ele>
        <time>2021-08-06 16:26:52</time>
      </trkpt>
      <trkpt lat="37.05358" lon="-3.36546">
        <ele>3221.6</ele>
        <time>2021-08-06 16:26:53</time>
      </trkpt>
      <trkpt lat="37.05356" lon="-3.36545">
        <ele>3221.6</ele>
        <time>2021-08-06 16:26:54</time>
      </trkpt>
      <trkpt lat="37.05356" lon="-3.36546">
        <ele>3221.6</ele>
        <time>2021-08-06 16:26:55</time>
      </trkpt>
      <trkpt lat="37.05357" lon="-3.36546">
        <ele>3221.6</ele>
        <time>2021-08-06 16:26:56</time>
      </trkpt>
      <trkpt lat="37.05369" lon="-3.36554">
        <ele>3221.4</ele>
        <time>2021-08-06 16:26:57</time>
      </trkpt>
      <trkpt lat="37.0537" lon="-3.36554">
        <ele>3221.4</ele>
        <time>2021-08-06 16:26:58</time>
      </trkpt>
      <trkpt lat="37.05371" lon="-3.36554">
        <ele>3221.4</ele>
        <time>2021-08-06 16:26:59</time>
      </trkpt>
      <trkpt lat="37.05372" lon="-3.36554">
        <ele>3221.2</ele>
        <time>2021-08-06 16:27:00</time>
      </trkpt>
      <trkpt lat="37.05375" lon="-3.36556">
        <ele>3221.4</ele>
        <time>2021-08-06 16:27:01</time>
      </trkpt>
      <trkpt lat="37.05375" lon="-3.36555">
        <ele>3221.8</ele>
        <time>2021-08-06 16:27:02</time>
      </trkpt>
      <trkpt lat="37.05376" lon="-3.36557">
        <ele>3222</ele>
        <time>2021-08-06 16:27:03</time>
      </trkpt>
      <trkpt lat="37.05377" lon="-3.36558">
        <ele>3222.4</ele>
        <time>2021-08-06 16:27:04</time>
      </trkpt>
      <trkpt lat="37.05377" lon="-3.36559">
        <ele>3222.4</ele>
        <time>2021-08-06 16:27:05</time>
      </trkpt>
      <trkpt lat="37.05377" lon="-3.3656">
        <ele>3222.6</ele>
        <time>2021-08-06 16:27:06</time>
      </trkpt>
      <trkpt lat="37.05376" lon="-3.3656">
        <ele>3222.6</ele>
        <time>2021-08-06 16:27:07</time>
      </trkpt>
      <trkpt lat="37.05376" lon="-3.3656">
        <ele>3222.6</ele>
        <time>2021-08-06 16:27:08</time>
      </trkpt>
      <trkpt lat="37.05375" lon="-3.36561">
        <ele>3222.6</ele>
        <time>2021-08-06 16:27:09</time>
      </trkpt>
      <trkpt lat="37.05375" lon="-3.36562">
        <ele>3222.6</ele>
        <time>2021-08-06 16:27:10</time>
      </trkpt>
      <trkpt lat="37.05374" lon="-3.36562">
        <ele>3222.8</ele>
        <time>2021-08-06 16:27:11</time>
      </trkpt>
      <trkpt lat="37.05373" lon="-3.36562">
        <ele>3222.8</ele>
        <time>2021-08-06 16:27:12</time>
      </trkpt>
      <trkpt lat="37.05372" lon="-3.36562">
        <ele>3223.4</ele>
        <time>2021-08-06 16:27:13</time>
      </trkpt>
      <trkpt lat="37.05371" lon="-3.36563">
        <ele>3223.8</ele>
        <time>2021-08-06 16:27:14</time>
      </trkpt>
      <trkpt lat="37.05371" lon="-3.36562">
        <ele>3224</ele>
        <time>2021-08-06 16:27:15</time>
      </trkpt>
      <trkpt lat="37.0537" lon="-3.36563">
        <ele>3224.2</ele>
        <time>2021-08-06 16:27:16</time>
      </trkpt>
      <trkpt lat="37.05369" lon="-3.36564">
        <ele>3224.2</ele>
        <time>2021-08-06 16:27:17</time>
      </trkpt>
      <trkpt lat="37.05369" lon="-3.36564">
        <ele>3224.2</ele>
        <time>2021-08-06 16:27:18</time>
      </trkpt>
      <trkpt lat="37.05369" lon="-3.36565">
        <ele>3224.2</ele>
        <time>2021-08-06 16:27:19</time>
      </trkpt>
      <trkpt lat="37.05369" lon="-3.36566">
        <ele>3224.2</ele>
        <time>2021-08-06 16:27:20</time>
      </trkpt>
      <trkpt lat="37.05369" lon="-3.36568">
        <ele>3224.2</ele>
        <time>2021-08-06 16:27:21</time>
      </trkpt>
      <trkpt lat="37.05369" lon="-3.36568">
        <ele>3224.4</ele>
        <time>2021-08-06 16:27:22</time>
      </trkpt>
      <trkpt lat="37.05368" lon="-3.36568">
        <ele>3224.4</ele>
        <time>2021-08-06 16:27:23</time>
      </trkpt>
      <trkpt lat="37.05368" lon="-3.36568">
        <ele>3224.4</ele>
        <time>2021-08-06 16:27:24</time>
      </trkpt>
      <trkpt lat="37.05368" lon="-3.36569">
        <ele>3224.6</ele>
        <time>2021-08-06 16:27:25</time>
      </trkpt>
      <trkpt lat="37.05369" lon="-3.36571">
        <ele>3224.6</ele>
        <time>2021-08-06 16:27:26</time>
      </trkpt>
      <trkpt lat="37.05369" lon="-3.36571">
        <ele>3224.6</ele>
        <time>2021-08-06 16:27:27</time>
      </trkpt>
      <trkpt lat="37.05368" lon="-3.36571">
        <ele>3224.8</ele>
        <time>2021-08-06 16:27:28</time>
      </trkpt>
      <trkpt lat="37.05368" lon="-3.36572">
        <ele>3224.8</ele>
        <time>2021-08-06 16:27:29</time>
      </trkpt>
      <trkpt lat="37.05368" lon="-3.36573">
        <ele>3224.8</ele>
        <time>2021-08-06 16:27:30</time>
      </trkpt>
      <trkpt lat="37.05368" lon="-3.36573">
        <ele>3224.8</ele>
        <time>2021-08-06 16:27:31</time>
      </trkpt>
      <trkpt lat="37.05368" lon="-3.36572">
        <ele>3225</ele>
        <time>2021-08-06 16:27:32</time>
      </trkpt>
      <trkpt lat="37.05368" lon="-3.36572">
        <ele>3225.2</ele>
        <time>2021-08-06 16:27:33</time>
      </trkpt>
      <trkpt lat="37.05368" lon="-3.36571">
        <ele>3225.2</ele>
        <time>2021-08-06 16:27:34</time>
      </trkpt>
      <trkpt lat="37.05367" lon="-3.36572">
        <ele>3225.4</ele>
        <time>2021-08-06 16:27:35</time>
      </trkpt>
      <trkpt lat="37.05367" lon="-3.36573">
        <ele>3225.4</ele>
        <time>2021-08-06 16:27:36</time>
      </trkpt>
      <trkpt lat="37.05367" lon="-3.36573">
        <ele>3225.4</ele>
        <time>2021-08-06 16:27:37</time>
      </trkpt>
      <trkpt lat="37.05366" lon="-3.36573">
        <ele>3225.4</ele>
        <time>2021-08-06 16:27:38</time>
      </trkpt>
      <trkpt lat="37.05366" lon="-3.36574">
        <ele>3225.2</ele>
        <time>2021-08-06 16:27:39</time>
      </trkpt>
      <trkpt lat="37.05366" lon="-3.36574">
        <ele>3225</ele>
        <time>2021-08-06 16:27:40</time>
      </trkpt>
      <trkpt lat="37.05365" lon="-3.36575">
        <ele>3225.2</ele>
        <time>2021-08-06 16:27:41</time>
      </trkpt>
      <trkpt lat="37.05365" lon="-3.36575">
        <ele>3225</ele>
        <time>2021-08-06 16:27:42</time>
      </trkpt>
      <trkpt lat="37.05365" lon="-3.36574">
        <ele>3225.4</ele>
        <time>2021-08-06 16:27:43</time>
      </trkpt>
      <trkpt lat="37.05365" lon="-3.36574">
        <ele>3225.6</ele>
        <time>2021-08-06 16:27:44</time>
      </trkpt>
      <trkpt lat="37.05366" lon="-3.36574">
        <ele>3225.6</ele>
        <time>2021-08-06 16:27:45</time>
      </trkpt>
      <trkpt lat="37.05366" lon="-3.36574">
        <ele>3225.6</ele>
        <time>2021-08-06 16:27:46</time>
      </trkpt>
      <trkpt lat="37.05366" lon="-3.36573">
        <ele>3225.4</ele>
        <time>2021-08-06 16:27:47</time>
      </trkpt>
      <trkpt lat="37.05366" lon="-3.36572">
        <ele>3225.4</ele>
        <time>2021-08-06 16:27:48</time>
      </trkpt>
      <trkpt lat="37.05366" lon="-3.36571">
        <ele>3225.4</ele>
        <time>2021-08-06 16:27:49</time>
      </trkpt>
      <trkpt lat="37.05366" lon="-3.36569">
        <ele>3225.6</ele>
        <time>2021-08-06 16:27:50</time>
      </trkpt>
      <trkpt lat="37.05365" lon="-3.36568">
        <ele>3225.6</ele>
        <time>2021-08-06 16:27:51</time>
      </trkpt>
      <trkpt lat="37.05365" lon="-3.36568">
        <ele>3225.6</ele>
        <time>2021-08-06 16:27:52</time>
      </trkpt>
      <trkpt lat="37.05366" lon="-3.36569">
        <ele>3225.6</ele>
        <time>2021-08-06 16:27:53</time>
      </trkpt>
      <trkpt lat="37.05366" lon="-3.3657">
        <ele>3225.6</ele>
        <time>2021-08-06 16:27:54</time>
      </trkpt>
      <trkpt lat="37.05365" lon="-3.36571">
        <ele>3225.6</ele>
        <time>2021-08-06 16:27:55</time>
      </trkpt>
      <trkpt lat="37.05365" lon="-3.36571">
        <ele>3225.4</ele>
        <time>2021-08-06 16:27:56</time>
      </trkpt>
      <trkpt lat="37.05365" lon="-3.36571">
        <ele>3225.4</ele>
        <time>2021-08-06 16:27:57</time>
      </trkpt>
      <trkpt lat="37.05364" lon="-3.36572">
        <ele>3225.4</ele>
        <time>2021-08-06 16:27:58</time>
      </trkpt>
      <trkpt lat="37.05364" lon="-3.36572">
        <ele>3225.4</ele>
        <time>2021-08-06 16:27:59</time>
      </trkpt>
      <trkpt lat="37.05364" lon="-3.36572">
        <ele>3225.4</ele>
        <time>2021-08-06 16:28:00</time>
      </trkpt>
      <trkpt lat="37.05364" lon="-3.36572">
        <ele>3225.4</ele>
        <time>2021-08-06 16:28:01</time>
      </trkpt>
      <trkpt lat="37.05364" lon="-3.36572">
        <ele>3225.4</ele>
        <time>2021-08-06 16:28:02</time>
      </trkpt>
      <trkpt lat="37.05364" lon="-3.36573">
        <ele>3225.6</ele>
        <time>2021-08-06 16:28:03</time>
      </trkpt>
      <trkpt lat="37.05364" lon="-3.36573">
        <ele>3225.4</ele>
        <time>2021-08-06 16:28:04</time>
      </trkpt>
      <trkpt lat="37.05364" lon="-3.36573">
        <ele>3225.6</ele>
        <time>2021-08-06 16:28:05</time>
      </trkpt>
      <trkpt lat="37.05365" lon="-3.36574">
        <ele>3225.6</ele>
        <time>2021-08-06 16:28:06</time>
      </trkpt>
      <trkpt lat="37.05365" lon="-3.36573">
        <ele>3225.4</ele>
        <time>2021-08-06 16:28:07</time>
      </trkpt>
      <trkpt lat="37.05364" lon="-3.36573">
        <ele>3225.4</ele>
        <time>2021-08-06 16:28:08</time>
      </trkpt>
      <trkpt lat="37.05364" lon="-3.36573">
        <ele>3225</ele>
        <time>2021-08-06 16:28:09</time>
      </trkpt>
      <trkpt lat="37.05364" lon="-3.36572">
        <ele>3225</ele>
        <time>2021-08-06 16:28:10</time>
      </trkpt>
      <trkpt lat="37.05364" lon="-3.36572">
        <ele>3225.2</ele>
        <time>2021-08-06 16:28:11</time>
      </trkpt>
      <trkpt lat="37.05364" lon="-3.36573">
        <ele>3225.2</ele>
        <time>2021-08-06 16:28:12</time>
      </trkpt>
      <trkpt lat="37.05364" lon="-3.36574">
        <ele>3225</ele>
        <time>2021-08-06 16:28:13</time>
      </trkpt>
      <trkpt lat="37.05363" lon="-3.36575">
        <ele>3225.2</ele>
        <time>2021-08-06 16:28:14</time>
      </trkpt>
      <trkpt lat="37.05363" lon="-3.36575">
        <ele>3225.4</ele>
        <time>2021-08-06 16:28:15</time>
      </trkpt>
      <trkpt lat="37.05363" lon="-3.36575">
        <ele>3225.4</ele>
        <time>2021-08-06 16:28:16</time>
      </trkpt>
      <trkpt lat="37.05362" lon="-3.36575">
        <ele>3225.4</ele>
        <time>2021-08-06 16:28:17</time>
      </trkpt>
      <trkpt lat="37.05362" lon="-3.36575">
        <ele>3225.4</ele>
        <time>2021-08-06 16:28:18</time>
      </trkpt>
      <trkpt lat="37.05361" lon="-3.36575">
        <ele>3225.4</ele>
        <time>2021-08-06 16:28:19</time>
      </trkpt>
      <trkpt lat="37.05361" lon="-3.36583">
        <ele>3226.4</ele>
        <time>2021-08-06 16:28:20</time>
      </trkpt>
      <trkpt lat="37.05361" lon="-3.36583">
        <ele>3226.6</ele>
        <time>2021-08-06 16:28:21</time>
      </trkpt>
      <trkpt lat="37.05361" lon="-3.36583">
        <ele>3226.8</ele>
        <time>2021-08-06 16:28:22</time>
      </trkpt>
      <trkpt lat="37.0536" lon="-3.36584">
        <ele>3227</ele>
        <time>2021-08-06 16:28:23</time>
      </trkpt>
      <trkpt lat="37.0536" lon="-3.36584">
        <ele>3227.2</ele>
        <time>2021-08-06 16:28:24</time>
      </trkpt>
      <trkpt lat="37.0536" lon="-3.36582">
        <ele>3227.2</ele>
        <time>2021-08-06 16:28:25</time>
      </trkpt>
      <trkpt lat="37.0536" lon="-3.36582">
        <ele>3227.2</ele>
        <time>2021-08-06 16:28:26</time>
      </trkpt>
      <trkpt lat="37.05359" lon="-3.36583">
        <ele>3227.4</ele>
        <time>2021-08-06 16:28:27</time>
      </trkpt>
      <trkpt lat="37.05358" lon="-3.36567">
        <ele>3227.4</ele>
        <time>2021-08-06 16:28:28</time>
      </trkpt>
      <trkpt lat="37.05358" lon="-3.36566">
        <ele>3227.4</ele>
        <time>2021-08-06 16:28:29</time>
      </trkpt>
      <trkpt lat="37.05358" lon="-3.36566">
        <ele>3227.4</ele>
        <time>2021-08-06 16:28:30</time>
      </trkpt>
      <trkpt lat="37.05358" lon="-3.36564">
        <ele>3227.6</ele>
        <time>2021-08-06 16:28:31</time>
      </trkpt>
      <trkpt lat="37.0536" lon="-3.36564">
        <ele>3227.6</ele>
        <time>2021-08-06 16:28:32</time>
      </trkpt>
      <trkpt lat="37.0536" lon="-3.36564">
        <ele>3227.8</ele>
        <time>2021-08-06 16:28:33</time>
      </trkpt>
      <trkpt lat="37.05359" lon="-3.36563">
        <ele>3227.8</ele>
        <time>2021-08-06 16:28:34</time>
      </trkpt>
      <trkpt lat="37.05359" lon="-3.36563">
        <ele>3227.8</ele>
        <time>2021-08-06 16:28:35</time>
      </trkpt>
      <trkpt lat="37.05359" lon="-3.36562">
        <ele>3228</ele>
        <time>2021-08-06 16:28:36</time>
      </trkpt>
      <trkpt lat="37.05358" lon="-3.36561">
        <ele>3228</ele>
        <time>2021-08-06 16:28:37</time>
      </trkpt>
      <trkpt lat="37.05356" lon="-3.3656">
        <ele>3228.2</ele>
        <time>2021-08-06 16:28:38</time>
      </trkpt>
      <trkpt lat="37.05356" lon="-3.3656">
        <ele>3228.2</ele>
        <time>2021-08-06 16:28:39</time>
      </trkpt>
      <trkpt lat="37.05356" lon="-3.36561">
        <ele>3228.4</ele>
        <time>2021-08-06 16:28:40</time>
      </trkpt>
      <trkpt lat="37.05355" lon="-3.36561">
        <ele>3228.8</ele>
        <time>2021-08-06 16:28:41</time>
      </trkpt>
      <trkpt lat="37.05355" lon="-3.36562">
        <ele>3229</ele>
        <time>2021-08-06 16:28:42</time>
      </trkpt>
      <trkpt lat="37.05354" lon="-3.36562">
        <ele>3229.2</ele>
        <time>2021-08-06 16:28:43</time>
      </trkpt>
      <trkpt lat="37.05354" lon="-3.36562">
        <ele>3229.2</ele>
        <time>2021-08-06 16:28:44</time>
      </trkpt>
      <trkpt lat="37.05354" lon="-3.36562">
        <ele>3229.6</ele>
        <time>2021-08-06 16:28:45</time>
      </trkpt>
      <trkpt lat="37.05354" lon="-3.36561">
        <ele>3229.6</ele>
        <time>2021-08-06 16:28:46</time>
      </trkpt>
      <trkpt lat="37.05355" lon="-3.36561">
        <ele>3229.8</ele>
        <time>2021-08-06 16:28:47</time>
      </trkpt>
      <trkpt lat="37.05354" lon="-3.3656">
        <ele>3229.8</ele>
        <time>2021-08-06 16:28:48</time>
      </trkpt>
      <trkpt lat="37.05354" lon="-3.3656">
        <ele>3229.8</ele>
        <time>2021-08-06 16:28:49</time>
      </trkpt>
      <trkpt lat="37.05354" lon="-3.3656">
        <ele>3230</ele>
        <time>2021-08-06 16:28:50</time>
      </trkpt>
      <trkpt lat="37.05354" lon="-3.3656">
        <ele>3230</ele>
        <time>2021-08-06 16:28:51</time>
      </trkpt>
      <trkpt lat="37.05355" lon="-3.3656">
        <ele>3230.2</ele>
        <time>2021-08-06 16:28:52</time>
      </trkpt>
      <trkpt lat="37.05355" lon="-3.3656">
        <ele>3230.4</ele>
        <time>2021-08-06 16:28:53</time>
      </trkpt>
      <trkpt lat="37.05355" lon="-3.36559">
        <ele>3230.2</ele>
        <time>2021-08-06 16:28:54</time>
      </trkpt>
      <trkpt lat="37.05355" lon="-3.36559">
        <ele>3230.4</ele>
        <time>2021-08-06 16:28:55</time>
      </trkpt>
      <trkpt lat="37.05355" lon="-3.36559">
        <ele>3230.6</ele>
        <time>2021-08-06 16:28:56</time>
      </trkpt>
      <trkpt lat="37.05354" lon="-3.36559">
        <ele>3230.6</ele>
        <time>2021-08-06 16:28:57</time>
      </trkpt>
      <trkpt lat="37.05354" lon="-3.3656">
        <ele>3230.6</ele>
        <time>2021-08-06 16:28:58</time>
      </trkpt>
      <trkpt lat="37.05353" lon="-3.36561">
        <ele>3230.6</ele>
        <time>2021-08-06 16:28:59</time>
      </trkpt>
      <trkpt lat="37.05352" lon="-3.36561">
        <ele>3230.8</ele>
        <time>2021-08-06 16:29:00</time>
      </trkpt>
      <trkpt lat="37.05352" lon="-3.36562">
        <ele>3230.8</ele>
        <time>2021-08-06 16:29:01</time>
      </trkpt>
      <trkpt lat="37.05351" lon="-3.36561">
        <ele>3230.8</ele>
        <time>2021-08-06 16:29:02</time>
      </trkpt>
      <trkpt lat="37.0535" lon="-3.36562">
        <ele>3230.8</ele>
        <time>2021-08-06 16:29:03</time>
      </trkpt>
      <trkpt lat="37.0535" lon="-3.36562">
        <ele>3230.8</ele>
        <time>2021-08-06 16:29:04</time>
      </trkpt>
      <trkpt lat="37.05351" lon="-3.36563">
        <ele>3230.8</ele>
        <time>2021-08-06 16:29:05</time>
      </trkpt>
      <trkpt lat="37.05351" lon="-3.36563">
        <ele>3230.6</ele>
        <time>2021-08-06 16:29:06</time>
      </trkpt>
      <trkpt lat="37.05352" lon="-3.36565">
        <ele>3230.6</ele>
        <time>2021-08-06 16:29:07</time>
      </trkpt>
      <trkpt lat="37.05352" lon="-3.36565">
        <ele>3230.4</ele>
        <time>2021-08-06 16:29:08</time>
      </trkpt>
      <trkpt lat="37.05352" lon="-3.36565">
        <ele>3230.2</ele>
        <time>2021-08-06 16:29:09</time>
      </trkpt>
      <trkpt lat="37.05353" lon="-3.36568">
        <ele>3230.2</ele>
        <time>2021-08-06 16:29:10</time>
      </trkpt>
      <trkpt lat="37.05352" lon="-3.36568">
        <ele>3230.2</ele>
        <time>2021-08-06 16:29:11</time>
      </trkpt>
      <trkpt lat="37.05352" lon="-3.36569">
        <ele>3230.2</ele>
        <time>2021-08-06 16:29:12</time>
      </trkpt>
      <trkpt lat="37.05352" lon="-3.36568">
        <ele>3230.2</ele>
        <time>2021-08-06 16:29:13</time>
      </trkpt>
      <trkpt lat="37.05352" lon="-3.36568">
        <ele>3230.2</ele>
        <time>2021-08-06 16:29:14</time>
      </trkpt>
      <trkpt lat="37.05352" lon="-3.36568">
        <ele>3230.2</ele>
        <time>2021-08-06 16:29:15</time>
      </trkpt>
      <trkpt lat="37.05352" lon="-3.36568">
        <ele>3230.2</ele>
        <time>2021-08-06 16:29:16</time>
      </trkpt>
      <trkpt lat="37.05353" lon="-3.36568">
        <ele>3230.2</ele>
        <time>2021-08-06 16:29:17</time>
      </trkpt>
      <trkpt lat="37.05353" lon="-3.36568">
        <ele>3230.2</ele>
        <time>2021-08-06 16:29:18</time>
      </trkpt>
      <trkpt lat="37.05353" lon="-3.36567">
        <ele>3230</ele>
        <time>2021-08-06 16:29:19</time>
      </trkpt>
      <trkpt lat="37.05353" lon="-3.36567">
        <ele>3230</ele>
        <time>2021-08-06 16:29:20</time>
      </trkpt>
      <trkpt lat="37.05353" lon="-3.36567">
        <ele>3230</ele>
        <time>2021-08-06 16:29:21</time>
      </trkpt>
      <trkpt lat="37.05353" lon="-3.36566">
        <ele>3230</ele>
        <time>2021-08-06 16:29:22</time>
      </trkpt>
      <trkpt lat="37.05352" lon="-3.36565">
        <ele>3230</ele>
        <time>2021-08-06 16:29:23</time>
      </trkpt>
      <trkpt lat="37.05352" lon="-3.36565">
        <ele>3230.2</ele>
        <time>2021-08-06 16:29:24</time>
      </trkpt>
      <trkpt lat="37.05351" lon="-3.36565">
        <ele>3230.2</ele>
        <time>2021-08-06 16:29:25</time>
      </trkpt>
      <trkpt lat="37.05351" lon="-3.36564">
        <ele>3230.2</ele>
        <time>2021-08-06 16:29:26</time>
      </trkpt>
      <trkpt lat="37.0535" lon="-3.36564">
        <ele>3230</ele>
        <time>2021-08-06 16:29:27</time>
      </trkpt>
      <trkpt lat="37.0535" lon="-3.36563">
        <ele>3230</ele>
        <time>2021-08-06 16:29:28</time>
      </trkpt>
      <trkpt lat="37.05349" lon="-3.36563">
        <ele>3230</ele>
        <time>2021-08-06 16:29:29</time>
      </trkpt>
      <trkpt lat="37.05349" lon="-3.36562">
        <ele>3230</ele>
        <time>2021-08-06 16:29:30</time>
      </trkpt>
      <trkpt lat="37.05349" lon="-3.36562">
        <ele>3230.2</ele>
        <time>2021-08-06 16:29:31</time>
      </trkpt>
      <trkpt lat="37.05349" lon="-3.36562">
        <ele>3230.2</ele>
        <time>2021-08-06 16:29:32</time>
      </trkpt>
      <trkpt lat="37.05349" lon="-3.36562">
        <ele>3230.2</ele>
        <time>2021-08-06 16:29:33</time>
      </trkpt>
      <trkpt lat="37.05349" lon="-3.3656">
        <ele>3230.2</ele>
        <time>2021-08-06 16:29:34</time>
      </trkpt>
      <trkpt lat="37.0535" lon="-3.36559">
        <ele>3230.2</ele>
        <time>2021-08-06 16:29:35</time>
      </trkpt>
      <trkpt lat="37.05349" lon="-3.36559">
        <ele>3230.2</ele>
        <time>2021-08-06 16:29:36</time>
      </trkpt>
      <trkpt lat="37.05349" lon="-3.36558">
        <ele>3230</ele>
        <time>2021-08-06 16:29:37</time>
      </trkpt>
      <trkpt lat="37.05349" lon="-3.36558">
        <ele>3230</ele>
        <time>2021-08-06 16:29:38</time>
      </trkpt>
      <trkpt lat="37.05349" lon="-3.36559">
        <ele>3230</ele>
        <time>2021-08-06 16:29:39</time>
      </trkpt>
      <trkpt lat="37.05349" lon="-3.36559">
        <ele>3230</ele>
        <time>2021-08-06 16:29:40</time>
      </trkpt>
      <trkpt lat="37.0535" lon="-3.36559">
        <ele>3230</ele>
        <time>2021-08-06 16:29:41</time>
      </trkpt>
      <trkpt lat="37.0535" lon="-3.3656">
        <ele>3230</ele>
        <time>2021-08-06 16:29:42</time>
      </trkpt>
      <trkpt lat="37.0535" lon="-3.3656">
        <ele>3230</ele>
        <time>2021-08-06 16:29:43</time>
      </trkpt>
      <trkpt lat="37.0535" lon="-3.3656">
        <ele>3230</ele>
        <time>2021-08-06 16:29:44</time>
      </trkpt>
      <trkpt lat="37.0535" lon="-3.36561">
        <ele>3230</ele>
        <time>2021-08-06 16:29:45</time>
      </trkpt>
      <trkpt lat="37.05351" lon="-3.36562">
        <ele>3230</ele>
        <time>2021-08-06 16:29:46</time>
      </trkpt>
      <trkpt lat="37.05351" lon="-3.36562">
        <ele>3229.8</ele>
        <time>2021-08-06 16:29:47</time>
      </trkpt>
      <trkpt lat="37.05352" lon="-3.36562">
        <ele>3229.8</ele>
        <time>2021-08-06 16:29:48</time>
      </trkpt>
      <trkpt lat="37.05352" lon="-3.36563">
        <ele>3229.8</ele>
        <time>2021-08-06 16:29:49</time>
      </trkpt>
      <trkpt lat="37.05352" lon="-3.36563">
        <ele>3229.8</ele>
        <time>2021-08-06 16:29:50</time>
      </trkpt>
      <trkpt lat="37.05352" lon="-3.36563">
        <ele>3229.8</ele>
        <time>2021-08-06 16:29:51</time>
      </trkpt>
      <trkpt lat="37.05352" lon="-3.36563">
        <ele>3229.8</ele>
        <time>2021-08-06 16:29:52</time>
      </trkpt>
      <trkpt lat="37.05353" lon="-3.36564">
        <ele>3230</ele>
        <time>2021-08-06 16:29:53</time>
      </trkpt>
      <trkpt lat="37.05354" lon="-3.36565">
        <ele>3230</ele>
        <time>2021-08-06 16:29:54</time>
      </trkpt>
      <trkpt lat="37.05354" lon="-3.36566">
        <ele>3230</ele>
        <time>2021-08-06 16:29:55</time>
      </trkpt>
      <trkpt lat="37.05354" lon="-3.36566">
        <ele>3230</ele>
        <time>2021-08-06 16:29:56</time>
      </trkpt>
      <trkpt lat="37.05355" lon="-3.36566">
        <ele>3230.2</ele>
        <time>2021-08-06 16:29:57</time>
      </trkpt>
      <trkpt lat="37.05355" lon="-3.36567">
        <ele>3230.2</ele>
        <time>2021-08-06 16:29:58</time>
      </trkpt>
      <trkpt lat="37.05355" lon="-3.36568">
        <ele>3230.2</ele>
        <time>2021-08-06 16:29:59</time>
      </trkpt>
      <trkpt lat="37.05355" lon="-3.36568">
        <ele>3230.2</ele>
        <time>2021-08-06 16:30:00</time>
      </trkpt>
      <trkpt lat="37.05354" lon="-3.36568">
        <ele>3230</ele>
        <time>2021-08-06 16:30:01</time>
      </trkpt>
      <trkpt lat="37.05353" lon="-3.36567">
        <ele>3230</ele>
        <time>2021-08-06 16:30:02</time>
      </trkpt>
      <trkpt lat="37.05353" lon="-3.36567">
        <ele>3230</ele>
        <time>2021-08-06 16:30:03</time>
      </trkpt>
      <trkpt lat="37.05354" lon="-3.36566">
        <ele>3229.8</ele>
        <time>2021-08-06 16:30:04</time>
      </trkpt>
      <trkpt lat="37.05354" lon="-3.36566">
        <ele>3229.6</ele>
        <time>2021-08-06 16:30:05</time>
      </trkpt>
      <trkpt lat="37.05353" lon="-3.36566">
        <ele>3229.8</ele>
        <time>2021-08-06 16:30:06</time>
      </trkpt>
      <trkpt lat="37.05352" lon="-3.36565">
        <ele>3229.6</ele>
        <time>2021-08-06 16:30:07</time>
      </trkpt>
      <trkpt lat="37.05352" lon="-3.36565">
        <ele>3229.6</ele>
        <time>2021-08-06 16:30:08</time>
      </trkpt>
      <trkpt lat="37.05352" lon="-3.36564">
        <ele>3229.8</ele>
        <time>2021-08-06 16:30:09</time>
      </trkpt>
      <trkpt lat="37.05353" lon="-3.36564">
        <ele>3229.8</ele>
        <time>2021-08-06 16:30:10</time>
      </trkpt>
      <trkpt lat="37.05353" lon="-3.36563">
        <ele>3230</ele>
        <time>2021-08-06 16:30:11</time>
      </trkpt>
      <trkpt lat="37.05353" lon="-3.36564">
        <ele>3230.2</ele>
        <time>2021-08-06 16:30:12</time>
      </trkpt>
      <trkpt lat="37.05352" lon="-3.36564">
        <ele>3230</ele>
        <time>2021-08-06 16:30:13</time>
      </trkpt>
      <trkpt lat="37.05353" lon="-3.36565">
        <ele>3230</ele>
        <time>2021-08-06 16:30:14</time>
      </trkpt>
      <trkpt lat="37.05356" lon="-3.36566">
        <ele>3230</ele>
        <time>2021-08-06 16:30:15</time>
      </trkpt>
      <trkpt lat="37.05354" lon="-3.36566">
        <ele>3230</ele>
        <time>2021-08-06 16:30:16</time>
      </trkpt>
      <trkpt lat="37.05353" lon="-3.36565">
        <ele>3230</ele>
        <time>2021-08-06 16:30:17</time>
      </trkpt>
      <trkpt lat="37.05353" lon="-3.36565">
        <ele>3229.8</ele>
        <time>2021-08-06 16:30:18</time>
      </trkpt>
      <trkpt lat="37.05352" lon="-3.36564">
        <ele>3229.8</ele>
        <time>2021-08-06 16:30:19</time>
      </trkpt>
      <trkpt lat="37.0535" lon="-3.36563">
        <ele>3229.8</ele>
        <time>2021-08-06 16:30:20</time>
      </trkpt>
      <trkpt lat="37.0535" lon="-3.36563">
        <ele>3229.8</ele>
        <time>2021-08-06 16:30:21</time>
      </trkpt>
      <trkpt lat="37.0535" lon="-3.36563">
        <ele>3230</ele>
        <time>2021-08-06 16:30:22</time>
      </trkpt>
      <trkpt lat="37.0535" lon="-3.36563">
        <ele>3230</ele>
        <time>2021-08-06 16:30:23</time>
      </trkpt>
      <trkpt lat="37.0535" lon="-3.36564">
        <ele>3230</ele>
        <time>2021-08-06 16:30:24</time>
      </trkpt>
      <trkpt lat="37.0535" lon="-3.36564">
        <ele>3230</ele>
        <time>2021-08-06 16:30:25</time>
      </trkpt>
      <trkpt lat="37.0535" lon="-3.36564">
        <ele>3230</ele>
        <time>2021-08-06 16:30:26</time>
      </trkpt>
      <trkpt lat="37.0535" lon="-3.36564">
        <ele>3230</ele>
        <time>2021-08-06 16:30:27</time>
      </trkpt>
      <trkpt lat="37.05351" lon="-3.36564">
        <ele>3230</ele>
        <time>2021-08-06 16:30:28</time>
      </trkpt>
      <trkpt lat="37.05351" lon="-3.36564">
        <ele>3230</ele>
        <time>2021-08-06 16:30:29</time>
      </trkpt>
      <trkpt lat="37.05352" lon="-3.36565">
        <ele>3229.8</ele>
        <time>2021-08-06 16:30:30</time>
      </trkpt>
      <trkpt lat="37.05353" lon="-3.36565">
        <ele>3229.8</ele>
        <time>2021-08-06 16:30:31</time>
      </trkpt>
      <trkpt lat="37.05353" lon="-3.36567">
        <ele>3230</ele>
        <time>2021-08-06 16:30:32</time>
      </trkpt>
      <trkpt lat="37.05352" lon="-3.36567">
        <ele>3230</ele>
        <time>2021-08-06 16:30:33</time>
      </trkpt>
      <trkpt lat="37.05352" lon="-3.36566">
        <ele>3230</ele>
        <time>2021-08-06 16:30:34</time>
      </trkpt>
      <trkpt lat="37.05353" lon="-3.36566">
        <ele>3230</ele>
        <time>2021-08-06 16:30:35</time>
      </trkpt>
      <trkpt lat="37.05353" lon="-3.36566">
        <ele>3230</ele>
        <time>2021-08-06 16:30:36</time>
      </trkpt>
      <trkpt lat="37.05353" lon="-3.36566">
        <ele>3230.2</ele>
        <time>2021-08-06 16:30:37</time>
      </trkpt>
      <trkpt lat="37.05353" lon="-3.36566">
        <ele>3230.2</ele>
        <time>2021-08-06 16:30:38</time>
      </trkpt>
      <trkpt lat="37.05354" lon="-3.36566">
        <ele>3230.2</ele>
        <time>2021-08-06 16:30:39</time>
      </trkpt>
      <trkpt lat="37.05354" lon="-3.36567">
        <ele>3230.2</ele>
        <time>2021-08-06 16:30:40</time>
      </trkpt>
      <trkpt lat="37.05355" lon="-3.36567">
        <ele>3230.2</ele>
        <time>2021-08-06 16:30:41</time>
      </trkpt>
      <trkpt lat="37.05354" lon="-3.36568">
        <ele>3230.2</ele>
        <time>2021-08-06 16:30:42</time>
      </trkpt>
      <trkpt lat="37.05354" lon="-3.36568">
        <ele>3230.2</ele>
        <time>2021-08-06 16:30:43</time>
      </trkpt>
      <trkpt lat="37.05353" lon="-3.36567">
        <ele>3230.2</ele>
        <time>2021-08-06 16:30:44</time>
      </trkpt>
      <trkpt lat="37.0535" lon="-3.36567">
        <ele>3229.2</ele>
        <time>2021-08-06 16:30:45</time>
      </trkpt>
      <trkpt lat="37.05347" lon="-3.36566">
        <ele>3229.2</ele>
        <time>2021-08-06 16:30:46</time>
      </trkpt>
      <trkpt lat="37.05346" lon="-3.36565">
        <ele>3229.2</ele>
        <time>2021-08-06 16:30:47</time>
      </trkpt>
      <trkpt lat="37.05346" lon="-3.36564">
        <ele>3229.2</ele>
        <time>2021-08-06 16:30:48</time>
      </trkpt>
      <trkpt lat="37.05345" lon="-3.36564">
        <ele>3229.2</ele>
        <time>2021-08-06 16:30:49</time>
      </trkpt>
      <trkpt lat="37.05345" lon="-3.36563">
        <ele>3229.2</ele>
        <time>2021-08-06 16:30:50</time>
      </trkpt>
      <trkpt lat="37.05345" lon="-3.36562">
        <ele>3229.2</ele>
        <time>2021-08-06 16:30:51</time>
      </trkpt>
      <trkpt lat="37.05345" lon="-3.36561">
        <ele>3229.2</ele>
        <time>2021-08-06 16:30:52</time>
      </trkpt>
      <trkpt lat="37.05345" lon="-3.36561">
        <ele>3229.2</ele>
        <time>2021-08-06 16:30:53</time>
      </trkpt>
      <trkpt lat="37.05345" lon="-3.36561">
        <ele>3229.2</ele>
        <time>2021-08-06 16:30:54</time>
      </trkpt>
      <trkpt lat="37.05344" lon="-3.36562">
        <ele>3229.2</ele>
        <time>2021-08-06 16:30:55</time>
      </trkpt>
      <trkpt lat="37.05344" lon="-3.36562">
        <ele>3229.2</ele>
        <time>2021-08-06 16:30:56</time>
      </trkpt>
      <trkpt lat="37.05346" lon="-3.36563">
        <ele>3229.2</ele>
        <time>2021-08-06 16:30:57</time>
      </trkpt>
      <trkpt lat="37.05352" lon="-3.36571">
        <ele>3229.2</ele>
        <time>2021-08-06 16:30:58</time>
      </trkpt>
      <trkpt lat="37.05352" lon="-3.36571">
        <ele>3229.2</ele>
        <time>2021-08-06 16:30:59</time>
      </trkpt>
      <trkpt lat="37.05353" lon="-3.36571">
        <ele>3229.2</ele>
        <time>2021-08-06 16:31:00</time>
      </trkpt>
      <trkpt lat="37.05353" lon="-3.36571">
        <ele>3229.2</ele>
        <time>2021-08-06 16:31:01</time>
      </trkpt>
      <trkpt lat="37.05353" lon="-3.3657">
        <ele>3229.2</ele>
        <time>2021-08-06 16:31:02</time>
      </trkpt>
      <trkpt lat="37.05351" lon="-3.36571">
        <ele>3229.2</ele>
        <time>2021-08-06 16:31:03</time>
      </trkpt>
      <trkpt lat="37.0535" lon="-3.3657">
        <ele>3229.2</ele>
        <time>2021-08-06 16:31:04</time>
      </trkpt>
      <trkpt lat="37.05349" lon="-3.3657">
        <ele>3229.2</ele>
        <time>2021-08-06 16:31:05</time>
      </trkpt>
      <trkpt lat="37.05349" lon="-3.3657">
        <ele>3229.2</ele>
        <time>2021-08-06 16:31:06</time>
      </trkpt>
      <trkpt lat="37.05351" lon="-3.36572">
        <ele>3229.2</ele>
        <time>2021-08-06 16:31:07</time>
      </trkpt>
      <trkpt lat="37.05354" lon="-3.36574">
        <ele>3229.2</ele>
        <time>2021-08-06 16:31:08</time>
      </trkpt>
      <trkpt lat="37.05353" lon="-3.36574">
        <ele>3229.2</ele>
        <time>2021-08-06 16:31:09</time>
      </trkpt>
      <trkpt lat="37.05353" lon="-3.36574">
        <ele>3229.2</ele>
        <time>2021-08-06 16:31:10</time>
      </trkpt>
      <trkpt lat="37.05353" lon="-3.36574">
        <ele>3229.2</ele>
        <time>2021-08-06 16:31:11</time>
      </trkpt>
      <trkpt lat="37.05352" lon="-3.36573">
        <ele>3229.2</ele>
        <time>2021-08-06 16:31:12</time>
      </trkpt>
      <trkpt lat="37.05351" lon="-3.36571">
        <ele>3229.2</ele>
        <time>2021-08-06 16:31:13</time>
      </trkpt>
      <trkpt lat="37.0535" lon="-3.36569">
        <ele>3229.2</ele>
        <time>2021-08-06 16:31:14</time>
      </trkpt>
      <trkpt lat="37.05349" lon="-3.36568">
        <ele>3229.2</ele>
        <time>2021-08-06 16:31:15</time>
      </trkpt>
      <trkpt lat="37.05348" lon="-3.36568">
        <ele>3229.2</ele>
        <time>2021-08-06 16:31:16</time>
      </trkpt>
      <trkpt lat="37.0535" lon="-3.36569">
        <ele>3229.2</ele>
        <time>2021-08-06 16:31:17</time>
      </trkpt>
      <trkpt lat="37.05348" lon="-3.36567">
        <ele>3229.2</ele>
        <time>2021-08-06 16:31:18</time>
      </trkpt>
      <trkpt lat="37.05347" lon="-3.36567">
        <ele>3229.2</ele>
        <time>2021-08-06 16:31:19</time>
      </trkpt>
      <trkpt lat="37.05347" lon="-3.36567">
        <ele>3229.2</ele>
        <time>2021-08-06 16:31:20</time>
      </trkpt>
      <trkpt lat="37.05347" lon="-3.36566">
        <ele>3229.6</ele>
        <time>2021-08-06 16:31:21</time>
      </trkpt>
      <trkpt lat="37.05347" lon="-3.36566">
        <ele>3229.8</ele>
        <time>2021-08-06 16:31:22</time>
      </trkpt>
      <trkpt lat="37.05347" lon="-3.36566">
        <ele>3230</ele>
        <time>2021-08-06 16:31:23</time>
      </trkpt>
      <trkpt lat="37.05346" lon="-3.36564">
        <ele>3230</ele>
        <time>2021-08-06 16:31:24</time>
      </trkpt>
      <trkpt lat="37.05346" lon="-3.36564">
        <ele>3230</ele>
        <time>2021-08-06 16:31:25</time>
      </trkpt>
      <trkpt lat="37.05347" lon="-3.36564">
        <ele>3230</ele>
        <time>2021-08-06 16:31:26</time>
      </trkpt>
      <trkpt lat="37.05347" lon="-3.36564">
        <ele>3230.2</ele>
        <time>2021-08-06 16:31:27</time>
      </trkpt>
      <trkpt lat="37.05347" lon="-3.36564">
        <ele>3230.2</ele>
        <time>2021-08-06 16:31:28</time>
      </trkpt>
      <trkpt lat="37.05348" lon="-3.36564">
        <ele>3230.2</ele>
        <time>2021-08-06 16:31:29</time>
      </trkpt>
      <trkpt lat="37.05348" lon="-3.36564">
        <ele>3230.4</ele>
        <time>2021-08-06 16:31:30</time>
      </trkpt>
      <trkpt lat="37.05349" lon="-3.36565">
        <ele>3230.6</ele>
        <time>2021-08-06 16:31:31</time>
      </trkpt>
      <trkpt lat="37.0535" lon="-3.36566">
        <ele>3230.8</ele>
        <time>2021-08-06 16:31:32</time>
      </trkpt>
      <trkpt lat="37.0535" lon="-3.36566">
        <ele>3230.8</ele>
        <time>2021-08-06 16:31:33</time>
      </trkpt>
      <trkpt lat="37.05351" lon="-3.36566">
        <ele>3230.8</ele>
        <time>2021-08-06 16:31:34</time>
      </trkpt>
      <trkpt lat="37.05351" lon="-3.36566">
        <ele>3230.8</ele>
        <time>2021-08-06 16:31:35</time>
      </trkpt>
      <trkpt lat="37.05352" lon="-3.36566">
        <ele>3230.8</ele>
        <time>2021-08-06 16:31:36</time>
      </trkpt>
      <trkpt lat="37.05352" lon="-3.36565">
        <ele>3230.8</ele>
        <time>2021-08-06 16:31:37</time>
      </trkpt>
      <trkpt lat="37.05351" lon="-3.36565">
        <ele>3230.8</ele>
        <time>2021-08-06 16:31:38</time>
      </trkpt>
      <trkpt lat="37.05351" lon="-3.36564">
        <ele>3230.8</ele>
        <time>2021-08-06 16:31:39</time>
      </trkpt>
      <trkpt lat="37.05352" lon="-3.36563">
        <ele>3230.8</ele>
        <time>2021-08-06 16:31:40</time>
      </trkpt>
      <trkpt lat="37.05352" lon="-3.36563">
        <ele>3230.8</ele>
        <time>2021-08-06 16:31:41</time>
      </trkpt>
      <trkpt lat="37.05352" lon="-3.36563">
        <ele>3230.8</ele>
        <time>2021-08-06 16:31:42</time>
      </trkpt>
      <trkpt lat="37.05352" lon="-3.36563">
        <ele>3230.8</ele>
        <time>2021-08-06 16:31:43</time>
      </trkpt>
      <trkpt lat="37.05351" lon="-3.36562">
        <ele>3230.8</ele>
        <time>2021-08-06 16:31:44</time>
      </trkpt>
      <trkpt lat="37.05351" lon="-3.36563">
        <ele>3230.6</ele>
        <time>2021-08-06 16:31:45</time>
      </trkpt>
      <trkpt lat="37.0535" lon="-3.36562">
        <ele>3230.4</ele>
        <time>2021-08-06 16:31:46</time>
      </trkpt>
      <trkpt lat="37.05349" lon="-3.36562">
        <ele>3230.2</ele>
        <time>2021-08-06 16:31:47</time>
      </trkpt>
      <trkpt lat="37.05348" lon="-3.36561">
        <ele>3230.2</ele>
        <time>2021-08-06 16:31:48</time>
      </trkpt>
      <trkpt lat="37.05348" lon="-3.36561">
        <ele>3230</ele>
        <time>2021-08-06 16:31:49</time>
      </trkpt>
      <trkpt lat="37.05348" lon="-3.36561">
        <ele>3230</ele>
        <time>2021-08-06 16:31:50</time>
      </trkpt>
      <trkpt lat="37.05348" lon="-3.36561">
        <ele>3230</ele>
        <time>2021-08-06 16:31:51</time>
      </trkpt>
      <trkpt lat="37.05348" lon="-3.36562">
        <ele>3230</ele>
        <time>2021-08-06 16:31:52</time>
      </trkpt>
      <trkpt lat="37.05349" lon="-3.36562">
        <ele>3230</ele>
        <time>2021-08-06 16:31:53</time>
      </trkpt>
      <trkpt lat="37.05349" lon="-3.36562">
        <ele>3230</ele>
        <time>2021-08-06 16:31:54</time>
      </trkpt>
      <trkpt lat="37.05349" lon="-3.36563">
        <ele>3230</ele>
        <time>2021-08-06 16:31:55</time>
      </trkpt>
      <trkpt lat="37.05348" lon="-3.36563">
        <ele>3230</ele>
        <time>2021-08-06 16:31:56</time>
      </trkpt>
      <trkpt lat="37.05348" lon="-3.36562">
        <ele>3230.2</ele>
        <time>2021-08-06 16:31:57</time>
      </trkpt>
      <trkpt lat="37.05347" lon="-3.36561">
        <ele>3230</ele>
        <time>2021-08-06 16:31:58</time>
      </trkpt>
      <trkpt lat="37.05347" lon="-3.3656">
        <ele>3230</ele>
        <time>2021-08-06 16:31:59</time>
      </trkpt>
      <trkpt lat="37.05348" lon="-3.3656">
        <ele>3230</ele>
        <time>2021-08-06 16:32:00</time>
      </trkpt>
      <trkpt lat="37.05347" lon="-3.3656">
        <ele>3229.8</ele>
        <time>2021-08-06 16:32:01</time>
      </trkpt>
      <trkpt lat="37.05347" lon="-3.3656">
        <ele>3229.8</ele>
        <time>2021-08-06 16:32:02</time>
      </trkpt>
      <trkpt lat="37.05347" lon="-3.3656">
        <ele>3229.8</ele>
        <time>2021-08-06 16:32:03</time>
      </trkpt>
      <trkpt lat="37.05347" lon="-3.3656">
        <ele>3229.8</ele>
        <time>2021-08-06 16:32:04</time>
      </trkpt>
      <trkpt lat="37.05347" lon="-3.36559">
        <ele>3230</ele>
        <time>2021-08-06 16:32:05</time>
      </trkpt>
      <trkpt lat="37.05348" lon="-3.36559">
        <ele>3230</ele>
        <time>2021-08-06 16:32:06</time>
      </trkpt>
      <trkpt lat="37.05348" lon="-3.3656">
        <ele>3230</ele>
        <time>2021-08-06 16:32:07</time>
      </trkpt>
      <trkpt lat="37.05348" lon="-3.3656">
        <ele>3230</ele>
        <time>2021-08-06 16:32:08</time>
      </trkpt>
      <trkpt lat="37.05348" lon="-3.36561">
        <ele>3230.2</ele>
        <time>2021-08-06 16:32:09</time>
      </trkpt>
      <trkpt lat="37.05349" lon="-3.36561">
        <ele>3230.2</ele>
        <time>2021-08-06 16:32:10</time>
      </trkpt>
      <trkpt lat="37.05349" lon="-3.36561">
        <ele>3230.2</ele>
        <time>2021-08-06 16:32:11</time>
      </trkpt>
      <trkpt lat="37.05349" lon="-3.36561">
        <ele>3230.4</ele>
        <time>2021-08-06 16:32:12</time>
      </trkpt>
      <trkpt lat="37.05349" lon="-3.36561">
        <ele>3230.4</ele>
        <time>2021-08-06 16:32:13</time>
      </trkpt>
      <trkpt lat="37.05349" lon="-3.36561">
        <ele>3230.4</ele>
        <time>2021-08-06 16:32:14</time>
      </trkpt>
      <trkpt lat="37.0535" lon="-3.36562">
        <ele>3230.4</ele>
        <time>2021-08-06 16:32:15</time>
      </trkpt>
      <trkpt lat="37.0535" lon="-3.36562">
        <ele>3230.4</ele>
        <time>2021-08-06 16:32:16</time>
      </trkpt>
      <trkpt lat="37.05351" lon="-3.36562">
        <ele>3230.4</ele>
        <time>2021-08-06 16:32:17</time>
      </trkpt>
      <trkpt lat="37.05351" lon="-3.36562">
        <ele>3230.4</ele>
        <time>2021-08-06 16:32:18</time>
      </trkpt>
      <trkpt lat="37.05352" lon="-3.36562">
        <ele>3230.6</ele>
        <time>2021-08-06 16:32:19</time>
      </trkpt>
      <trkpt lat="37.05352" lon="-3.36563">
        <ele>3230.6</ele>
        <time>2021-08-06 16:32:20</time>
      </trkpt>
      <trkpt lat="37.05352" lon="-3.36563">
        <ele>3230.6</ele>
        <time>2021-08-06 16:32:21</time>
      </trkpt>
      <trkpt lat="37.05352" lon="-3.36562">
        <ele>3230.6</ele>
        <time>2021-08-06 16:32:22</time>
      </trkpt>
      <trkpt lat="37.05351" lon="-3.36561">
        <ele>3230.4</ele>
        <time>2021-08-06 16:32:23</time>
      </trkpt>
      <trkpt lat="37.05351" lon="-3.36562">
        <ele>3230.4</ele>
        <time>2021-08-06 16:32:24</time>
      </trkpt>
      <trkpt lat="37.05351" lon="-3.36562">
        <ele>3230.2</ele>
        <time>2021-08-06 16:32:25</time>
      </trkpt>
      <trkpt lat="37.0535" lon="-3.36562">
        <ele>3230.2</ele>
        <time>2021-08-06 16:32:26</time>
      </trkpt>
      <trkpt lat="37.05351" lon="-3.36564">
        <ele>3230.2</ele>
        <time>2021-08-06 16:32:27</time>
      </trkpt>
      <trkpt lat="37.05351" lon="-3.36564">
        <ele>3230.2</ele>
        <time>2021-08-06 16:32:28</time>
      </trkpt>
      <trkpt lat="37.05352" lon="-3.36565">
        <ele>3230</ele>
        <time>2021-08-06 16:32:29</time>
      </trkpt>
      <trkpt lat="37.05352" lon="-3.36565">
        <ele>3230.2</ele>
        <time>2021-08-06 16:32:30</time>
      </trkpt>
      <trkpt lat="37.05352" lon="-3.36565">
        <ele>3230.2</ele>
        <time>2021-08-06 16:32:31</time>
      </trkpt>
      <trkpt lat="37.05351" lon="-3.36565">
        <ele>3230.2</ele>
        <time>2021-08-06 16:32:32</time>
      </trkpt>
      <trkpt lat="37.05351" lon="-3.36566">
        <ele>3230.2</ele>
        <time>2021-08-06 16:32:33</time>
      </trkpt>
      <trkpt lat="37.0535" lon="-3.36567">
        <ele>3230.6</ele>
        <time>2021-08-06 16:32:34</time>
      </trkpt>
      <trkpt lat="37.0535" lon="-3.36568">
        <ele>3230.6</ele>
        <time>2021-08-06 16:32:35</time>
      </trkpt>
      <trkpt lat="37.05348" lon="-3.36567">
        <ele>3230.8</ele>
        <time>2021-08-06 16:32:36</time>
      </trkpt>
      <trkpt lat="37.05348" lon="-3.36567">
        <ele>3230.8</ele>
        <time>2021-08-06 16:32:37</time>
      </trkpt>
      <trkpt lat="37.05349" lon="-3.36567">
        <ele>3230.6</ele>
        <time>2021-08-06 16:32:38</time>
      </trkpt>
      <trkpt lat="37.05349" lon="-3.36566">
        <ele>3230.6</ele>
        <time>2021-08-06 16:32:39</time>
      </trkpt>
      <trkpt lat="37.0535" lon="-3.36567">
        <ele>3230.6</ele>
        <time>2021-08-06 16:32:40</time>
      </trkpt>
      <trkpt lat="37.0535" lon="-3.36566">
        <ele>3230.4</ele>
        <time>2021-08-06 16:32:41</time>
      </trkpt>
      <trkpt lat="37.05351" lon="-3.36565">
        <ele>3230.2</ele>
        <time>2021-08-06 16:32:42</time>
      </trkpt>
      <trkpt lat="37.05351" lon="-3.36564">
        <ele>3230.2</ele>
        <time>2021-08-06 16:32:43</time>
      </trkpt>
      <trkpt lat="37.05351" lon="-3.36564">
        <ele>3230.2</ele>
        <time>2021-08-06 16:32:44</time>
      </trkpt>
      <trkpt lat="37.05351" lon="-3.36564">
        <ele>3230.2</ele>
        <time>2021-08-06 16:32:45</time>
      </trkpt>
      <trkpt lat="37.05351" lon="-3.36565">
        <ele>3230.2</ele>
        <time>2021-08-06 16:32:46</time>
      </trkpt>
      <trkpt lat="37.05352" lon="-3.36566">
        <ele>3230.2</ele>
        <time>2021-08-06 16:32:47</time>
      </trkpt>
      <trkpt lat="37.05352" lon="-3.36567">
        <ele>3230.2</ele>
        <time>2021-08-06 16:32:48</time>
      </trkpt>
      <trkpt lat="37.05352" lon="-3.36569">
        <ele>3230.2</ele>
        <time>2021-08-06 16:32:49</time>
      </trkpt>
      <trkpt lat="37.05353" lon="-3.3657">
        <ele>3230.2</ele>
        <time>2021-08-06 16:32:50</time>
      </trkpt>
      <trkpt lat="37.05352" lon="-3.3657">
        <ele>3230.4</ele>
        <time>2021-08-06 16:32:51</time>
      </trkpt>
      <trkpt lat="37.05352" lon="-3.36571">
        <ele>3230.4</ele>
        <time>2021-08-06 16:32:52</time>
      </trkpt>
      <trkpt lat="37.05352" lon="-3.36571">
        <ele>3230.4</ele>
        <time>2021-08-06 16:32:53</time>
      </trkpt>
      <trkpt lat="37.05352" lon="-3.36568">
        <ele>3230.4</ele>
        <time>2021-08-06 16:32:54</time>
      </trkpt>
      <trkpt lat="37.0535" lon="-3.36573">
        <ele>3230.4</ele>
        <time>2021-08-06 16:32:55</time>
      </trkpt>
      <trkpt lat="37.0535" lon="-3.36574">
        <ele>3230.4</ele>
        <time>2021-08-06 16:32:56</time>
      </trkpt>
      <trkpt lat="37.05349" lon="-3.36573">
        <ele>3230.4</ele>
        <time>2021-08-06 16:32:57</time>
      </trkpt>
      <trkpt lat="37.05349" lon="-3.36573">
        <ele>3230.4</ele>
        <time>2021-08-06 16:32:58</time>
      </trkpt>
      <trkpt lat="37.05349" lon="-3.36573">
        <ele>3230.2</ele>
        <time>2021-08-06 16:32:59</time>
      </trkpt>
      <trkpt lat="37.05349" lon="-3.36573">
        <ele>3230.2</ele>
        <time>2021-08-06 16:33:00</time>
      </trkpt>
      <trkpt lat="37.0535" lon="-3.36573">
        <ele>3230.2</ele>
        <time>2021-08-06 16:33:01</time>
      </trkpt>
      <trkpt lat="37.0535" lon="-3.36573">
        <ele>3230.2</ele>
        <time>2021-08-06 16:33:02</time>
      </trkpt>
      <trkpt lat="37.05351" lon="-3.36573">
        <ele>3230.2</ele>
        <time>2021-08-06 16:33:03</time>
      </trkpt>
      <trkpt lat="37.05351" lon="-3.36572">
        <ele>3230.2</ele>
        <time>2021-08-06 16:33:04</time>
      </trkpt>
      <trkpt lat="37.05351" lon="-3.36571">
        <ele>3230.2</ele>
        <time>2021-08-06 16:33:05</time>
      </trkpt>
      <trkpt lat="37.05351" lon="-3.36571">
        <ele>3230.4</ele>
        <time>2021-08-06 16:33:06</time>
      </trkpt>
      <trkpt lat="37.05351" lon="-3.36571">
        <ele>3230.4</ele>
        <time>2021-08-06 16:33:07</time>
      </trkpt>
      <trkpt lat="37.05351" lon="-3.36571">
        <ele>3230.4</ele>
        <time>2021-08-06 16:33:08</time>
      </trkpt>
      <trkpt lat="37.05351" lon="-3.36571">
        <ele>3230.4</ele>
        <time>2021-08-06 16:33:09</time>
      </trkpt>
      <trkpt lat="37.05351" lon="-3.36571">
        <ele>3230.4</ele>
        <time>2021-08-06 16:33:10</time>
      </trkpt>
      <trkpt lat="37.05351" lon="-3.36571">
        <ele>3230.4</ele>
        <time>2021-08-06 16:33:11</time>
      </trkpt>
      <trkpt lat="37.0535" lon="-3.36571">
        <ele>3230.4</ele>
        <time>2021-08-06 16:33:12</time>
      </trkpt>
      <trkpt lat="37.0535" lon="-3.36571">
        <ele>3230.4</ele>
        <time>2021-08-06 16:33:13</time>
      </trkpt>
      <trkpt lat="37.05349" lon="-3.3657">
        <ele>3230.4</ele>
        <time>2021-08-06 16:33:14</time>
      </trkpt>
      <trkpt lat="37.05348" lon="-3.36569">
        <ele>3230.4</ele>
        <time>2021-08-06 16:33:15</time>
      </trkpt>
      <trkpt lat="37.05346" lon="-3.36568">
        <ele>3230.4</ele>
        <time>2021-08-06 16:33:16</time>
      </trkpt>
      <trkpt lat="37.05345" lon="-3.36568">
        <ele>3230.4</ele>
        <time>2021-08-06 16:33:17</time>
      </trkpt>
      <trkpt lat="37.05344" lon="-3.36568">
        <ele>3230.4</ele>
        <time>2021-08-06 16:33:18</time>
      </trkpt>
      <trkpt lat="37.05343" lon="-3.36566">
        <ele>3230.4</ele>
        <time>2021-08-06 16:33:19</time>
      </trkpt>
      <trkpt lat="37.05342" lon="-3.36566">
        <ele>3230.4</ele>
        <time>2021-08-06 16:33:20</time>
      </trkpt>
      <trkpt lat="37.05341" lon="-3.36566">
        <ele>3230.4</ele>
        <time>2021-08-06 16:33:21</time>
      </trkpt>
      <trkpt lat="37.0534" lon="-3.36565">
        <ele>3230.6</ele>
        <time>2021-08-06 16:33:22</time>
      </trkpt>
      <trkpt lat="37.05339" lon="-3.36564">
        <ele>3230.6</ele>
        <time>2021-08-06 16:33:23</time>
      </trkpt>
      <trkpt lat="37.05338" lon="-3.36564">
        <ele>3230.6</ele>
        <time>2021-08-06 16:33:24</time>
      </trkpt>
      <trkpt lat="37.05337" lon="-3.36565">
        <ele>3230.6</ele>
        <time>2021-08-06 16:33:25</time>
      </trkpt>
      <trkpt lat="37.05337" lon="-3.36565">
        <ele>3230.4</ele>
        <time>2021-08-06 16:33:26</time>
      </trkpt>
      <trkpt lat="37.05336" lon="-3.36566">
        <ele>3230.4</ele>
        <time>2021-08-06 16:33:27</time>
      </trkpt>
      <trkpt lat="37.05336" lon="-3.36566">
        <ele>3230</ele>
        <time>2021-08-06 16:33:28</time>
      </trkpt>
      <trkpt lat="37.05335" lon="-3.36566">
        <ele>3229.8</ele>
        <time>2021-08-06 16:33:29</time>
      </trkpt>
      <trkpt lat="37.05333" lon="-3.36566">
        <ele>3229.8</ele>
        <time>2021-08-06 16:33:30</time>
      </trkpt>
      <trkpt lat="37.05332" lon="-3.36566">
        <ele>3229.6</ele>
        <time>2021-08-06 16:33:31</time>
      </trkpt>
      <trkpt lat="37.05332" lon="-3.36566">
        <ele>3229.6</ele>
        <time>2021-08-06 16:33:32</time>
      </trkpt>
      <trkpt lat="37.05331" lon="-3.36567">
        <ele>3229.6</ele>
        <time>2021-08-06 16:33:33</time>
      </trkpt>
      <trkpt lat="37.0533" lon="-3.36567">
        <ele>3229.6</ele>
        <time>2021-08-06 16:33:34</time>
      </trkpt>
      <trkpt lat="37.05329" lon="-3.36568">
        <ele>3229.6</ele>
        <time>2021-08-06 16:33:35</time>
      </trkpt>
      <trkpt lat="37.05328" lon="-3.36569">
        <ele>3229.8</ele>
        <time>2021-08-06 16:33:36</time>
      </trkpt>
      <trkpt lat="37.05328" lon="-3.36569">
        <ele>3229.8</ele>
        <time>2021-08-06 16:33:37</time>
      </trkpt>
      <trkpt lat="37.05328" lon="-3.3657">
        <ele>3229.8</ele>
        <time>2021-08-06 16:33:38</time>
      </trkpt>
      <trkpt lat="37.05327" lon="-3.36571">
        <ele>3229.8</ele>
        <time>2021-08-06 16:33:39</time>
      </trkpt>
      <trkpt lat="37.05327" lon="-3.36572">
        <ele>3230</ele>
        <time>2021-08-06 16:33:40</time>
      </trkpt>
      <trkpt lat="37.05326" lon="-3.36573">
        <ele>3230</ele>
        <time>2021-08-06 16:33:41</time>
      </trkpt>
      <trkpt lat="37.05325" lon="-3.36574">
        <ele>3230</ele>
        <time>2021-08-06 16:33:42</time>
      </trkpt>
      <trkpt lat="37.05325" lon="-3.36575">
        <ele>3230</ele>
        <time>2021-08-06 16:33:43</time>
      </trkpt>
      <trkpt lat="37.05324" lon="-3.36576">
        <ele>3230</ele>
        <time>2021-08-06 16:33:44</time>
      </trkpt>
      <trkpt lat="37.05323" lon="-3.36577">
        <ele>3230</ele>
        <time>2021-08-06 16:33:45</time>
      </trkpt>
      <trkpt lat="37.05323" lon="-3.36577">
        <ele>3230.2</ele>
        <time>2021-08-06 16:33:46</time>
      </trkpt>
      <trkpt lat="37.05322" lon="-3.36578">
        <ele>3230</ele>
        <time>2021-08-06 16:33:47</time>
      </trkpt>
      <trkpt lat="37.05321" lon="-3.36579">
        <ele>3230</ele>
        <time>2021-08-06 16:33:48</time>
      </trkpt>
      <trkpt lat="37.0532" lon="-3.3658">
        <ele>3229.6</ele>
        <time>2021-08-06 16:33:49</time>
      </trkpt>
      <trkpt lat="37.05319" lon="-3.36581">
        <ele>3229.4</ele>
        <time>2021-08-06 16:33:50</time>
      </trkpt>
      <trkpt lat="37.05318" lon="-3.36582">
        <ele>3229.4</ele>
        <time>2021-08-06 16:33:51</time>
      </trkpt>
      <trkpt lat="37.05317" lon="-3.36583">
        <ele>3229.4</ele>
        <time>2021-08-06 16:33:52</time>
      </trkpt>
      <trkpt lat="37.05316" lon="-3.36584">
        <ele>3229.4</ele>
        <time>2021-08-06 16:33:53</time>
      </trkpt>
      <trkpt lat="37.05315" lon="-3.36585">
        <ele>3229.4</ele>
        <time>2021-08-06 16:33:54</time>
      </trkpt>
      <trkpt lat="37.05314" lon="-3.36586">
        <ele>3229.4</ele>
        <time>2021-08-06 16:33:55</time>
      </trkpt>
      <trkpt lat="37.05313" lon="-3.36587">
        <ele>3229.4</ele>
        <time>2021-08-06 16:33:56</time>
      </trkpt>
      <trkpt lat="37.05312" lon="-3.36588">
        <ele>3229.4</ele>
        <time>2021-08-06 16:33:57</time>
      </trkpt>
      <trkpt lat="37.05311" lon="-3.36589">
        <ele>3229.2</ele>
        <time>2021-08-06 16:33:58</time>
      </trkpt>
      <trkpt lat="37.0531" lon="-3.3659">
        <ele>3228.8</ele>
        <time>2021-08-06 16:33:59</time>
      </trkpt>
      <trkpt lat="37.05309" lon="-3.36591">
        <ele>3228.6</ele>
        <time>2021-08-06 16:34:00</time>
      </trkpt>
      <trkpt lat="37.05308" lon="-3.36591">
        <ele>3228.6</ele>
        <time>2021-08-06 16:34:01</time>
      </trkpt>
      <trkpt lat="37.05307" lon="-3.36592">
        <ele>3228.4</ele>
        <time>2021-08-06 16:34:02</time>
      </trkpt>
      <trkpt lat="37.05306" lon="-3.36593">
        <ele>3228.2</ele>
        <time>2021-08-06 16:34:03</time>
      </trkpt>
      <trkpt lat="37.05306" lon="-3.36593">
        <ele>3228.2</ele>
        <time>2021-08-06 16:34:04</time>
      </trkpt>
      <trkpt lat="37.05305" lon="-3.36594">
        <ele>3228.2</ele>
        <time>2021-08-06 16:34:05</time>
      </trkpt>
      <trkpt lat="37.05304" lon="-3.36595">
        <ele>3228.2</ele>
        <time>2021-08-06 16:34:06</time>
      </trkpt>
      <trkpt lat="37.05303" lon="-3.36596">
        <ele>3228.2</ele>
        <time>2021-08-06 16:34:07</time>
      </trkpt>
      <trkpt lat="37.05302" lon="-3.36596">
        <ele>3228.2</ele>
        <time>2021-08-06 16:34:08</time>
      </trkpt>
      <trkpt lat="37.05301" lon="-3.36597">
        <ele>3228</ele>
        <time>2021-08-06 16:34:09</time>
      </trkpt>
      <trkpt lat="37.053" lon="-3.36598">
        <ele>3228.2</ele>
        <time>2021-08-06 16:34:10</time>
      </trkpt>
      <trkpt lat="37.05299" lon="-3.36599">
        <ele>3228</ele>
        <time>2021-08-06 16:34:11</time>
      </trkpt>
      <trkpt lat="37.05298" lon="-3.36599">
        <ele>3227.8</ele>
        <time>2021-08-06 16:34:12</time>
      </trkpt>
      <trkpt lat="37.05298" lon="-3.36599">
        <ele>3227.6</ele>
        <time>2021-08-06 16:34:13</time>
      </trkpt>
      <trkpt lat="37.05297" lon="-3.366">
        <ele>3228</ele>
        <time>2021-08-06 16:34:14</time>
      </trkpt>
      <trkpt lat="37.05295" lon="-3.366">
        <ele>3228.2</ele>
        <time>2021-08-06 16:34:15</time>
      </trkpt>
      <trkpt lat="37.05294" lon="-3.366">
        <ele>3227.8</ele>
        <time>2021-08-06 16:34:16</time>
      </trkpt>
      <trkpt lat="37.05293" lon="-3.36601">
        <ele>3227.8</ele>
        <time>2021-08-06 16:34:17</time>
      </trkpt>
      <trkpt lat="37.05292" lon="-3.36601">
        <ele>3227.4</ele>
        <time>2021-08-06 16:34:18</time>
      </trkpt>
      <trkpt lat="37.05291" lon="-3.36602">
        <ele>3227.4</ele>
        <time>2021-08-06 16:34:19</time>
      </trkpt>
      <trkpt lat="37.0529" lon="-3.36602">
        <ele>3227.2</ele>
        <time>2021-08-06 16:34:20</time>
      </trkpt>
      <trkpt lat="37.05289" lon="-3.36603">
        <ele>3227.2</ele>
        <time>2021-08-06 16:34:21</time>
      </trkpt>
      <trkpt lat="37.05288" lon="-3.36604">
        <ele>3227.2</ele>
        <time>2021-08-06 16:34:22</time>
      </trkpt>
      <trkpt lat="37.05287" lon="-3.36604">
        <ele>3227.2</ele>
        <time>2021-08-06 16:34:23</time>
      </trkpt>
      <trkpt lat="37.05286" lon="-3.36605">
        <ele>3227.2</ele>
        <time>2021-08-06 16:34:24</time>
      </trkpt>
      <trkpt lat="37.05286" lon="-3.36606">
        <ele>3227.2</ele>
        <time>2021-08-06 16:34:25</time>
      </trkpt>
      <trkpt lat="37.05285" lon="-3.36606">
        <ele>3227</ele>
        <time>2021-08-06 16:34:26</time>
      </trkpt>
      <trkpt lat="37.05285" lon="-3.36607">
        <ele>3227</ele>
        <time>2021-08-06 16:34:27</time>
      </trkpt>
      <trkpt lat="37.05283" lon="-3.36607">
        <ele>3227</ele>
        <time>2021-08-06 16:34:28</time>
      </trkpt>
      <trkpt lat="37.05283" lon="-3.36608">
        <ele>3226.8</ele>
        <time>2021-08-06 16:34:29</time>
      </trkpt>
      <trkpt lat="37.05282" lon="-3.36608">
        <ele>3226.8</ele>
        <time>2021-08-06 16:34:30</time>
      </trkpt>
      <trkpt lat="37.05281" lon="-3.36609">
        <ele>3226.6</ele>
        <time>2021-08-06 16:34:31</time>
      </trkpt>
      <trkpt lat="37.0528" lon="-3.36609">
        <ele>3226.4</ele>
        <time>2021-08-06 16:34:32</time>
      </trkpt>
      <trkpt lat="37.05279" lon="-3.3661">
        <ele>3225.8</ele>
        <time>2021-08-06 16:34:33</time>
      </trkpt>
      <trkpt lat="37.05278" lon="-3.36611">
        <ele>3225.4</ele>
        <time>2021-08-06 16:34:34</time>
      </trkpt>
      <trkpt lat="37.05277" lon="-3.36612">
        <ele>3225</ele>
        <time>2021-08-06 16:34:35</time>
      </trkpt>
      <trkpt lat="37.05276" lon="-3.36613">
        <ele>3225.2</ele>
        <time>2021-08-06 16:34:36</time>
      </trkpt>
      <trkpt lat="37.05275" lon="-3.36613">
        <ele>3225.2</ele>
        <time>2021-08-06 16:34:37</time>
      </trkpt>
      <trkpt lat="37.05274" lon="-3.36613">
        <ele>3225.2</ele>
        <time>2021-08-06 16:34:38</time>
      </trkpt>
      <trkpt lat="37.05273" lon="-3.36614">
        <ele>3225</ele>
        <time>2021-08-06 16:34:39</time>
      </trkpt>
      <trkpt lat="37.05273" lon="-3.36615">
        <ele>3224.8</ele>
        <time>2021-08-06 16:34:40</time>
      </trkpt>
      <trkpt lat="37.05273" lon="-3.36617">
        <ele>3224.6</ele>
        <time>2021-08-06 16:34:41</time>
      </trkpt>
      <trkpt lat="37.05273" lon="-3.36619">
        <ele>3224.4</ele>
        <time>2021-08-06 16:34:42</time>
      </trkpt>
      <trkpt lat="37.05272" lon="-3.3662">
        <ele>3224.4</ele>
        <time>2021-08-06 16:34:43</time>
      </trkpt>
      <trkpt lat="37.05272" lon="-3.36622">
        <ele>3224.2</ele>
        <time>2021-08-06 16:34:44</time>
      </trkpt>
      <trkpt lat="37.05271" lon="-3.36623">
        <ele>3223.8</ele>
        <time>2021-08-06 16:34:45</time>
      </trkpt>
      <trkpt lat="37.0527" lon="-3.36624">
        <ele>3223.6</ele>
        <time>2021-08-06 16:34:46</time>
      </trkpt>
      <trkpt lat="37.05269" lon="-3.36624">
        <ele>3223.2</ele>
        <time>2021-08-06 16:34:47</time>
      </trkpt>
      <trkpt lat="37.05268" lon="-3.36625">
        <ele>3223</ele>
        <time>2021-08-06 16:34:48</time>
      </trkpt>
      <trkpt lat="37.05267" lon="-3.36627">
        <ele>3222.8</ele>
        <time>2021-08-06 16:34:49</time>
      </trkpt>
      <trkpt lat="37.05267" lon="-3.36628">
        <ele>3222.8</ele>
        <time>2021-08-06 16:34:50</time>
      </trkpt>
      <trkpt lat="37.05266" lon="-3.36629">
        <ele>3222.6</ele>
        <time>2021-08-06 16:34:51</time>
      </trkpt>
      <trkpt lat="37.05266" lon="-3.3663">
        <ele>3222.4</ele>
        <time>2021-08-06 16:34:52</time>
      </trkpt>
      <trkpt lat="37.05265" lon="-3.36632">
        <ele>3222</ele>
        <time>2021-08-06 16:34:53</time>
      </trkpt>
      <trkpt lat="37.05264" lon="-3.36633">
        <ele>3221.8</ele>
        <time>2021-08-06 16:34:54</time>
      </trkpt>
      <trkpt lat="37.05263" lon="-3.36634">
        <ele>3221.8</ele>
        <time>2021-08-06 16:34:55</time>
      </trkpt>
      <trkpt lat="37.05262" lon="-3.36635">
        <ele>3221.8</ele>
        <time>2021-08-06 16:34:56</time>
      </trkpt>
      <trkpt lat="37.05262" lon="-3.36636">
        <ele>3221.8</ele>
        <time>2021-08-06 16:34:57</time>
      </trkpt>
      <trkpt lat="37.05261" lon="-3.36637">
        <ele>3221.6</ele>
        <time>2021-08-06 16:34:58</time>
      </trkpt>
      <trkpt lat="37.05261" lon="-3.36638">
        <ele>3221.6</ele>
        <time>2021-08-06 16:34:59</time>
      </trkpt>
      <trkpt lat="37.05261" lon="-3.3664">
        <ele>3221.8</ele>
        <time>2021-08-06 16:35:00</time>
      </trkpt>
      <trkpt lat="37.05261" lon="-3.3664">
        <ele>3221.8</ele>
        <time>2021-08-06 16:35:01</time>
      </trkpt>
      <trkpt lat="37.05261" lon="-3.36641">
        <ele>3221.8</ele>
        <time>2021-08-06 16:35:02</time>
      </trkpt>
      <trkpt lat="37.05261" lon="-3.36642">
        <ele>3221.8</ele>
        <time>2021-08-06 16:35:03</time>
      </trkpt>
      <trkpt lat="37.0526" lon="-3.36642">
        <ele>3221.8</ele>
        <time>2021-08-06 16:35:04</time>
      </trkpt>
      <trkpt lat="37.0526" lon="-3.36643">
        <ele>3221.8</ele>
        <time>2021-08-06 16:35:05</time>
      </trkpt>
      <trkpt lat="37.0526" lon="-3.36644">
        <ele>3221.8</ele>
        <time>2021-08-06 16:35:06</time>
      </trkpt>
      <trkpt lat="37.05259" lon="-3.36644">
        <ele>3222</ele>
        <time>2021-08-06 16:35:07</time>
      </trkpt>
      <trkpt lat="37.05259" lon="-3.36645">
        <ele>3222</ele>
        <time>2021-08-06 16:35:08</time>
      </trkpt>
      <trkpt lat="37.05259" lon="-3.36645">
        <ele>3222.2</ele>
        <time>2021-08-06 16:35:09</time>
      </trkpt>
      <trkpt lat="37.05259" lon="-3.36646">
        <ele>3222.2</ele>
        <time>2021-08-06 16:35:10</time>
      </trkpt>
      <trkpt lat="37.05259" lon="-3.36646">
        <ele>3222.2</ele>
        <time>2021-08-06 16:35:11</time>
      </trkpt>
      <trkpt lat="37.05259" lon="-3.36647">
        <ele>3222.4</ele>
        <time>2021-08-06 16:35:12</time>
      </trkpt>
      <trkpt lat="37.05259" lon="-3.36647">
        <ele>3222.6</ele>
        <time>2021-08-06 16:35:13</time>
      </trkpt>
      <trkpt lat="37.05259" lon="-3.36647">
        <ele>3222.8</ele>
        <time>2021-08-06 16:35:14</time>
      </trkpt>
      <trkpt lat="37.05259" lon="-3.36647">
        <ele>3222.8</ele>
        <time>2021-08-06 16:35:15</time>
      </trkpt>
      <trkpt lat="37.05259" lon="-3.36647">
        <ele>3223</ele>
        <time>2021-08-06 16:35:16</time>
      </trkpt>
      <trkpt lat="37.0526" lon="-3.36648">
        <ele>3223</ele>
        <time>2021-08-06 16:35:17</time>
      </trkpt>
      <trkpt lat="37.05259" lon="-3.36648">
        <ele>3223.2</ele>
        <time>2021-08-06 16:35:18</time>
      </trkpt>
      <trkpt lat="37.0526" lon="-3.36648">
        <ele>3223.2</ele>
        <time>2021-08-06 16:35:19</time>
      </trkpt>
      <trkpt lat="37.0526" lon="-3.36649">
        <ele>3223.2</ele>
        <time>2021-08-06 16:35:20</time>
      </trkpt>
      <trkpt lat="37.0526" lon="-3.36649">
        <ele>3223.2</ele>
        <time>2021-08-06 16:35:21</time>
      </trkpt>
      <trkpt lat="37.05259" lon="-3.36649">
        <ele>3223.2</ele>
        <time>2021-08-06 16:35:22</time>
      </trkpt>
      <trkpt lat="37.05259" lon="-3.36649">
        <ele>3223.4</ele>
        <time>2021-08-06 16:35:23</time>
      </trkpt>
      <trkpt lat="37.05258" lon="-3.36649">
        <ele>3223.6</ele>
        <time>2021-08-06 16:35:24</time>
      </trkpt>
      <trkpt lat="37.05258" lon="-3.36649">
        <ele>3223.6</ele>
        <time>2021-08-06 16:35:25</time>
      </trkpt>
      <trkpt lat="37.05258" lon="-3.36649">
        <ele>3223.8</ele>
        <time>2021-08-06 16:35:26</time>
      </trkpt>
      <trkpt lat="37.05256" lon="-3.36648">
        <ele>3223.8</ele>
        <time>2021-08-06 16:35:27</time>
      </trkpt>
      <trkpt lat="37.05255" lon="-3.36647">
        <ele>3224</ele>
        <time>2021-08-06 16:35:28</time>
      </trkpt>
      <trkpt lat="37.05254" lon="-3.36647">
        <ele>3223.8</ele>
        <time>2021-08-06 16:35:29</time>
      </trkpt>
      <trkpt lat="37.05253" lon="-3.36646">
        <ele>3224</ele>
        <time>2021-08-06 16:35:30</time>
      </trkpt>
      <trkpt lat="37.05252" lon="-3.36646">
        <ele>3224</ele>
        <time>2021-08-06 16:35:31</time>
      </trkpt>
      <trkpt lat="37.05252" lon="-3.36646">
        <ele>3224</ele>
        <time>2021-08-06 16:35:32</time>
      </trkpt>
      <trkpt lat="37.05252" lon="-3.36647">
        <ele>3223.8</ele>
        <time>2021-08-06 16:35:33</time>
      </trkpt>
      <trkpt lat="37.05252" lon="-3.36648">
        <ele>3223.8</ele>
        <time>2021-08-06 16:35:34</time>
      </trkpt>
      <trkpt lat="37.05251" lon="-3.36649">
        <ele>3223.8</ele>
        <time>2021-08-06 16:35:35</time>
      </trkpt>
      <trkpt lat="37.05251" lon="-3.3665">
        <ele>3223.8</ele>
        <time>2021-08-06 16:35:36</time>
      </trkpt>
      <trkpt lat="37.0525" lon="-3.3665">
        <ele>3223.6</ele>
        <time>2021-08-06 16:35:37</time>
      </trkpt>
      <trkpt lat="37.05249" lon="-3.36651">
        <ele>3223.4</ele>
        <time>2021-08-06 16:35:38</time>
      </trkpt>
      <trkpt lat="37.05249" lon="-3.36652">
        <ele>3223.4</ele>
        <time>2021-08-06 16:35:39</time>
      </trkpt>
      <trkpt lat="37.05249" lon="-3.36653">
        <ele>3223.4</ele>
        <time>2021-08-06 16:35:40</time>
      </trkpt>
      <trkpt lat="37.05248" lon="-3.36654">
        <ele>3223.4</ele>
        <time>2021-08-06 16:35:41</time>
      </trkpt>
      <trkpt lat="37.05247" lon="-3.36654">
        <ele>3223.4</ele>
        <time>2021-08-06 16:35:42</time>
      </trkpt>
      <trkpt lat="37.05246" lon="-3.36655">
        <ele>3223.6</ele>
        <time>2021-08-06 16:35:43</time>
      </trkpt>
      <trkpt lat="37.05245" lon="-3.36656">
        <ele>3223.6</ele>
        <time>2021-08-06 16:35:44</time>
      </trkpt>
      <trkpt lat="37.05243" lon="-3.36656">
        <ele>3223.6</ele>
        <time>2021-08-06 16:35:45</time>
      </trkpt>
      <trkpt lat="37.05242" lon="-3.36657">
        <ele>3223.6</ele>
        <time>2021-08-06 16:35:46</time>
      </trkpt>
      <trkpt lat="37.0524" lon="-3.36657">
        <ele>3223.8</ele>
        <time>2021-08-06 16:35:47</time>
      </trkpt>
      <trkpt lat="37.0524" lon="-3.36657">
        <ele>3223.8</ele>
        <time>2021-08-06 16:35:48</time>
      </trkpt>
      <trkpt lat="37.05239" lon="-3.36657">
        <ele>3223.8</ele>
        <time>2021-08-06 16:35:49</time>
      </trkpt>
      <trkpt lat="37.05239" lon="-3.36657">
        <ele>3224</ele>
        <time>2021-08-06 16:35:50</time>
      </trkpt>
      <trkpt lat="37.05239" lon="-3.36658">
        <ele>3223.8</ele>
        <time>2021-08-06 16:35:51</time>
      </trkpt>
      <trkpt lat="37.05238" lon="-3.36658">
        <ele>3224</ele>
        <time>2021-08-06 16:35:52</time>
      </trkpt>
      <trkpt lat="37.05238" lon="-3.36658">
        <ele>3224</ele>
        <time>2021-08-06 16:35:53</time>
      </trkpt>
      <trkpt lat="37.05238" lon="-3.36658">
        <ele>3224.2</ele>
        <time>2021-08-06 16:35:54</time>
      </trkpt>
      <trkpt lat="37.05237" lon="-3.36658">
        <ele>3224.2</ele>
        <time>2021-08-06 16:35:55</time>
      </trkpt>
      <trkpt lat="37.05238" lon="-3.36659">
        <ele>3224.4</ele>
        <time>2021-08-06 16:35:56</time>
      </trkpt>
      <trkpt lat="37.05238" lon="-3.3666">
        <ele>3224.4</ele>
        <time>2021-08-06 16:35:57</time>
      </trkpt>
      <trkpt lat="37.05238" lon="-3.36661">
        <ele>3224.6</ele>
        <time>2021-08-06 16:35:58</time>
      </trkpt>
      <trkpt lat="37.05238" lon="-3.36661">
        <ele>3224.6</ele>
        <time>2021-08-06 16:35:59</time>
      </trkpt>
      <trkpt lat="37.05238" lon="-3.36663">
        <ele>3224.8</ele>
        <time>2021-08-06 16:36:00</time>
      </trkpt>
      <trkpt lat="37.05239" lon="-3.36665">
        <ele>3224.8</ele>
        <time>2021-08-06 16:36:01</time>
      </trkpt>
      <trkpt lat="37.05238" lon="-3.36666">
        <ele>3224.8</ele>
        <time>2021-08-06 16:36:02</time>
      </trkpt>
      <trkpt lat="37.05238" lon="-3.36667">
        <ele>3224.8</ele>
        <time>2021-08-06 16:36:03</time>
      </trkpt>
      <trkpt lat="37.05236" lon="-3.36667">
        <ele>3224.8</ele>
        <time>2021-08-06 16:36:04</time>
      </trkpt>
      <trkpt lat="37.05236" lon="-3.36668">
        <ele>3224.8</ele>
        <time>2021-08-06 16:36:05</time>
      </trkpt>
      <trkpt lat="37.05234" lon="-3.36668">
        <ele>3224.8</ele>
        <time>2021-08-06 16:36:06</time>
      </trkpt>
      <trkpt lat="37.05233" lon="-3.36667">
        <ele>3225</ele>
        <time>2021-08-06 16:36:07</time>
      </trkpt>
      <trkpt lat="37.05232" lon="-3.36668">
        <ele>3225</ele>
        <time>2021-08-06 16:36:08</time>
      </trkpt>
      <trkpt lat="37.05232" lon="-3.36669">
        <ele>3225</ele>
        <time>2021-08-06 16:36:09</time>
      </trkpt>
      <trkpt lat="37.05232" lon="-3.3667">
        <ele>3225.2</ele>
        <time>2021-08-06 16:36:10</time>
      </trkpt>
      <trkpt lat="37.05232" lon="-3.36671">
        <ele>3225.2</ele>
        <time>2021-08-06 16:36:11</time>
      </trkpt>
      <trkpt lat="37.05232" lon="-3.36671">
        <ele>3225.2</ele>
        <time>2021-08-06 16:36:12</time>
      </trkpt>
      <trkpt lat="37.05231" lon="-3.36672">
        <ele>3225.4</ele>
        <time>2021-08-06 16:36:13</time>
      </trkpt>
      <trkpt lat="37.0523" lon="-3.36672">
        <ele>3225.4</ele>
        <time>2021-08-06 16:36:14</time>
      </trkpt>
      <trkpt lat="37.05229" lon="-3.36672">
        <ele>3225.4</ele>
        <time>2021-08-06 16:36:15</time>
      </trkpt>
      <trkpt lat="37.05229" lon="-3.36673">
        <ele>3225.4</ele>
        <time>2021-08-06 16:36:16</time>
      </trkpt>
      <trkpt lat="37.05227" lon="-3.36673">
        <ele>3225.4</ele>
        <time>2021-08-06 16:36:17</time>
      </trkpt>
      <trkpt lat="37.05227" lon="-3.36673">
        <ele>3225.4</ele>
        <time>2021-08-06 16:36:18</time>
      </trkpt>
      <trkpt lat="37.05227" lon="-3.36674">
        <ele>3225.4</ele>
        <time>2021-08-06 16:36:19</time>
      </trkpt>
      <trkpt lat="37.05226" lon="-3.36674">
        <ele>3225.4</ele>
        <time>2021-08-06 16:36:20</time>
      </trkpt>
      <trkpt lat="37.05226" lon="-3.36675">
        <ele>3225.2</ele>
        <time>2021-08-06 16:36:21</time>
      </trkpt>
      <trkpt lat="37.05225" lon="-3.36676">
        <ele>3225</ele>
        <time>2021-08-06 16:36:22</time>
      </trkpt>
      <trkpt lat="37.05225" lon="-3.36677">
        <ele>3224.6</ele>
        <time>2021-08-06 16:36:23</time>
      </trkpt>
      <trkpt lat="37.05224" lon="-3.36678">
        <ele>3224.4</ele>
        <time>2021-08-06 16:36:24</time>
      </trkpt>
      <trkpt lat="37.05224" lon="-3.36678">
        <ele>3224.2</ele>
        <time>2021-08-06 16:36:25</time>
      </trkpt>
      <trkpt lat="37.05223" lon="-3.36679">
        <ele>3224</ele>
        <time>2021-08-06 16:36:26</time>
      </trkpt>
      <trkpt lat="37.05223" lon="-3.36679">
        <ele>3224</ele>
        <time>2021-08-06 16:36:27</time>
      </trkpt>
      <trkpt lat="37.05223" lon="-3.3668">
        <ele>3224</ele>
        <time>2021-08-06 16:36:28</time>
      </trkpt>
      <trkpt lat="37.05223" lon="-3.3668">
        <ele>3223.8</ele>
        <time>2021-08-06 16:36:29</time>
      </trkpt>
      <trkpt lat="37.05222" lon="-3.3668">
        <ele>3223.8</ele>
        <time>2021-08-06 16:36:30</time>
      </trkpt>
      <trkpt lat="37.05221" lon="-3.36681">
        <ele>3223.6</ele>
        <time>2021-08-06 16:36:31</time>
      </trkpt>
      <trkpt lat="37.05221" lon="-3.36681">
        <ele>3223.6</ele>
        <time>2021-08-06 16:36:32</time>
      </trkpt>
      <trkpt lat="37.05221" lon="-3.36682">
        <ele>3223.6</ele>
        <time>2021-08-06 16:36:33</time>
      </trkpt>
      <trkpt lat="37.0522" lon="-3.36683">
        <ele>3223.2</ele>
        <time>2021-08-06 16:36:34</time>
      </trkpt>
      <trkpt lat="37.0522" lon="-3.36684">
        <ele>3223.2</ele>
        <time>2021-08-06 16:36:35</time>
      </trkpt>
      <trkpt lat="37.0522" lon="-3.36686">
        <ele>3223</ele>
        <time>2021-08-06 16:36:36</time>
      </trkpt>
      <trkpt lat="37.0522" lon="-3.36687">
        <ele>3222.6</ele>
        <time>2021-08-06 16:36:37</time>
      </trkpt>
      <trkpt lat="37.0522" lon="-3.36688">
        <ele>3222.6</ele>
        <time>2021-08-06 16:36:38</time>
      </trkpt>
      <trkpt lat="37.0522" lon="-3.36689">
        <ele>3222.6</ele>
        <time>2021-08-06 16:36:39</time>
      </trkpt>
      <trkpt lat="37.05218" lon="-3.3669">
        <ele>3222.6</ele>
        <time>2021-08-06 16:36:40</time>
      </trkpt>
      <trkpt lat="37.05217" lon="-3.36691">
        <ele>3222.6</ele>
        <time>2021-08-06 16:36:41</time>
      </trkpt>
      <trkpt lat="37.05217" lon="-3.36692">
        <ele>3222.4</ele>
        <time>2021-08-06 16:36:42</time>
      </trkpt>
      <trkpt lat="37.05216" lon="-3.36694">
        <ele>3222.4</ele>
        <time>2021-08-06 16:36:43</time>
      </trkpt>
      <trkpt lat="37.05216" lon="-3.36695">
        <ele>3222.4</ele>
        <time>2021-08-06 16:36:44</time>
      </trkpt>
      <trkpt lat="37.05215" lon="-3.36696">
        <ele>3222</ele>
        <time>2021-08-06 16:36:45</time>
      </trkpt>
      <trkpt lat="37.05215" lon="-3.36697">
        <ele>3222</ele>
        <time>2021-08-06 16:36:46</time>
      </trkpt>
      <trkpt lat="37.05214" lon="-3.36698">
        <ele>3222</ele>
        <time>2021-08-06 16:36:47</time>
      </trkpt>
      <trkpt lat="37.05213" lon="-3.36699">
        <ele>3221.8</ele>
        <time>2021-08-06 16:36:48</time>
      </trkpt>
      <trkpt lat="37.05212" lon="-3.367">
        <ele>3221.8</ele>
        <time>2021-08-06 16:36:49</time>
      </trkpt>
      <trkpt lat="37.05212" lon="-3.36701">
        <ele>3222</ele>
        <time>2021-08-06 16:36:50</time>
      </trkpt>
      <trkpt lat="37.05211" lon="-3.36702">
        <ele>3222</ele>
        <time>2021-08-06 16:36:51</time>
      </trkpt>
      <trkpt lat="37.05211" lon="-3.36702">
        <ele>3222</ele>
        <time>2021-08-06 16:36:52</time>
      </trkpt>
      <trkpt lat="37.0521" lon="-3.36703">
        <ele>3222</ele>
        <time>2021-08-06 16:36:53</time>
      </trkpt>
      <trkpt lat="37.05209" lon="-3.36704">
        <ele>3222</ele>
        <time>2021-08-06 16:36:54</time>
      </trkpt>
      <trkpt lat="37.05208" lon="-3.36705">
        <ele>3221.8</ele>
        <time>2021-08-06 16:36:55</time>
      </trkpt>
      <trkpt lat="37.05207" lon="-3.36706">
        <ele>3221.6</ele>
        <time>2021-08-06 16:36:56</time>
      </trkpt>
      <trkpt lat="37.05206" lon="-3.36707">
        <ele>3221.6</ele>
        <time>2021-08-06 16:36:57</time>
      </trkpt>
      <trkpt lat="37.05206" lon="-3.36707">
        <ele>3221.4</ele>
        <time>2021-08-06 16:36:58</time>
      </trkpt>
      <trkpt lat="37.05205" lon="-3.36708">
        <ele>3221.4</ele>
        <time>2021-08-06 16:36:59</time>
      </trkpt>
      <trkpt lat="37.05204" lon="-3.36709">
        <ele>3221</ele>
        <time>2021-08-06 16:37:00</time>
      </trkpt>
      <trkpt lat="37.05203" lon="-3.36709">
        <ele>3220.8</ele>
        <time>2021-08-06 16:37:01</time>
      </trkpt>
      <trkpt lat="37.05203" lon="-3.3671">
        <ele>3220.6</ele>
        <time>2021-08-06 16:37:02</time>
      </trkpt>
      <trkpt lat="37.05202" lon="-3.3671">
        <ele>3220.4</ele>
        <time>2021-08-06 16:37:03</time>
      </trkpt>
      <trkpt lat="37.05202" lon="-3.36711">
        <ele>3220.4</ele>
        <time>2021-08-06 16:37:04</time>
      </trkpt>
      <trkpt lat="37.05202" lon="-3.36713">
        <ele>3220.2</ele>
        <time>2021-08-06 16:37:05</time>
      </trkpt>
      <trkpt lat="37.05202" lon="-3.36714">
        <ele>3220.2</ele>
        <time>2021-08-06 16:37:06</time>
      </trkpt>
      <trkpt lat="37.05202" lon="-3.36715">
        <ele>3220</ele>
        <time>2021-08-06 16:37:07</time>
      </trkpt>
      <trkpt lat="37.05202" lon="-3.36716">
        <ele>3220</ele>
        <time>2021-08-06 16:37:08</time>
      </trkpt>
      <trkpt lat="37.05201" lon="-3.36717">
        <ele>3220.2</ele>
        <time>2021-08-06 16:37:09</time>
      </trkpt>
      <trkpt lat="37.05201" lon="-3.36718">
        <ele>3220.2</ele>
        <time>2021-08-06 16:37:10</time>
      </trkpt>
      <trkpt lat="37.05201" lon="-3.36719">
        <ele>3220.2</ele>
        <time>2021-08-06 16:37:11</time>
      </trkpt>
      <trkpt lat="37.05202" lon="-3.3672">
        <ele>3220.2</ele>
        <time>2021-08-06 16:37:12</time>
      </trkpt>
      <trkpt lat="37.05201" lon="-3.36722">
        <ele>3220.2</ele>
        <time>2021-08-06 16:37:13</time>
      </trkpt>
      <trkpt lat="37.052" lon="-3.36723">
        <ele>3220</ele>
        <time>2021-08-06 16:37:14</time>
      </trkpt>
      <trkpt lat="37.05199" lon="-3.36724">
        <ele>3220</ele>
        <time>2021-08-06 16:37:15</time>
      </trkpt>
      <trkpt lat="37.05199" lon="-3.36725">
        <ele>3220</ele>
        <time>2021-08-06 16:37:16</time>
      </trkpt>
      <trkpt lat="37.05199" lon="-3.36725">
        <ele>3220</ele>
        <time>2021-08-06 16:37:17</time>
      </trkpt>
      <trkpt lat="37.05198" lon="-3.36726">
        <ele>3219.8</ele>
        <time>2021-08-06 16:37:18</time>
      </trkpt>
      <trkpt lat="37.05197" lon="-3.36727">
        <ele>3219.8</ele>
        <time>2021-08-06 16:37:19</time>
      </trkpt>
      <trkpt lat="37.05196" lon="-3.36727">
        <ele>3219.8</ele>
        <time>2021-08-06 16:37:20</time>
      </trkpt>
      <trkpt lat="37.05196" lon="-3.36728">
        <ele>3219.8</ele>
        <time>2021-08-06 16:37:21</time>
      </trkpt>
      <trkpt lat="37.05195" lon="-3.36729">
        <ele>3219.8</ele>
        <time>2021-08-06 16:37:22</time>
      </trkpt>
      <trkpt lat="37.05195" lon="-3.3673">
        <ele>3219.8</ele>
        <time>2021-08-06 16:37:23</time>
      </trkpt>
      <trkpt lat="37.05194" lon="-3.36731">
        <ele>3219.6</ele>
        <time>2021-08-06 16:37:24</time>
      </trkpt>
      <trkpt lat="37.05194" lon="-3.36732">
        <ele>3219.8</ele>
        <time>2021-08-06 16:37:25</time>
      </trkpt>
      <trkpt lat="37.05193" lon="-3.36733">
        <ele>3219.8</ele>
        <time>2021-08-06 16:37:26</time>
      </trkpt>
      <trkpt lat="37.05192" lon="-3.36734">
        <ele>3219.6</ele>
        <time>2021-08-06 16:37:27</time>
      </trkpt>
      <trkpt lat="37.05192" lon="-3.36734">
        <ele>3219.6</ele>
        <time>2021-08-06 16:37:28</time>
      </trkpt>
      <trkpt lat="37.05191" lon="-3.36735">
        <ele>3219.6</ele>
        <time>2021-08-06 16:37:29</time>
      </trkpt>
      <trkpt lat="37.0519" lon="-3.36735">
        <ele>3219.6</ele>
        <time>2021-08-06 16:37:30</time>
      </trkpt>
      <trkpt lat="37.05189" lon="-3.36736">
        <ele>3219.6</ele>
        <time>2021-08-06 16:37:31</time>
      </trkpt>
      <trkpt lat="37.05189" lon="-3.36736">
        <ele>3219.6</ele>
        <time>2021-08-06 16:37:32</time>
      </trkpt>
      <trkpt lat="37.05188" lon="-3.36737">
        <ele>3219.6</ele>
        <time>2021-08-06 16:37:33</time>
      </trkpt>
      <trkpt lat="37.05188" lon="-3.36737">
        <ele>3219.2</ele>
        <time>2021-08-06 16:37:34</time>
      </trkpt>
      <trkpt lat="37.05187" lon="-3.36738">
        <ele>3219</ele>
        <time>2021-08-06 16:37:35</time>
      </trkpt>
      <trkpt lat="37.05186" lon="-3.36738">
        <ele>3218.8</ele>
        <time>2021-08-06 16:37:36</time>
      </trkpt>
      <trkpt lat="37.05186" lon="-3.3674">
        <ele>3218.8</ele>
        <time>2021-08-06 16:37:37</time>
      </trkpt>
      <trkpt lat="37.05186" lon="-3.3674">
        <ele>3218.8</ele>
        <time>2021-08-06 16:37:38</time>
      </trkpt>
      <trkpt lat="37.05184" lon="-3.3674">
        <ele>3218.6</ele>
        <time>2021-08-06 16:37:39</time>
      </trkpt>
      <trkpt lat="37.05184" lon="-3.36741">
        <ele>3218.6</ele>
        <time>2021-08-06 16:37:40</time>
      </trkpt>
      <trkpt lat="37.05183" lon="-3.36741">
        <ele>3218.4</ele>
        <time>2021-08-06 16:37:41</time>
      </trkpt>
      <trkpt lat="37.05182" lon="-3.36742">
        <ele>3218.2</ele>
        <time>2021-08-06 16:37:42</time>
      </trkpt>
      <trkpt lat="37.05181" lon="-3.36742">
        <ele>3218.2</ele>
        <time>2021-08-06 16:37:43</time>
      </trkpt>
      <trkpt lat="37.0518" lon="-3.36742">
        <ele>3218.2</ele>
        <time>2021-08-06 16:37:44</time>
      </trkpt>
      <trkpt lat="37.05179" lon="-3.36743">
        <ele>3218</ele>
        <time>2021-08-06 16:37:45</time>
      </trkpt>
      <trkpt lat="37.05179" lon="-3.36743">
        <ele>3218</ele>
        <time>2021-08-06 16:37:46</time>
      </trkpt>
      <trkpt lat="37.05178" lon="-3.36744">
        <ele>3218</ele>
        <time>2021-08-06 16:37:47</time>
      </trkpt>
      <trkpt lat="37.05178" lon="-3.36745">
        <ele>3218</ele>
        <time>2021-08-06 16:37:48</time>
      </trkpt>
      <trkpt lat="37.05177" lon="-3.36745">
        <ele>3218</ele>
        <time>2021-08-06 16:37:49</time>
      </trkpt>
      <trkpt lat="37.05177" lon="-3.36746">
        <ele>3218</ele>
        <time>2021-08-06 16:37:50</time>
      </trkpt>
      <trkpt lat="37.05175" lon="-3.36746">
        <ele>3218</ele>
        <time>2021-08-06 16:37:51</time>
      </trkpt>
      <trkpt lat="37.05175" lon="-3.36747">
        <ele>3218</ele>
        <time>2021-08-06 16:37:52</time>
      </trkpt>
      <trkpt lat="37.05174" lon="-3.36747">
        <ele>3218</ele>
        <time>2021-08-06 16:37:53</time>
      </trkpt>
      <trkpt lat="37.05173" lon="-3.36747">
        <ele>3218</ele>
        <time>2021-08-06 16:37:54</time>
      </trkpt>
      <trkpt lat="37.05172" lon="-3.36747">
        <ele>3218</ele>
        <time>2021-08-06 16:37:55</time>
      </trkpt>
      <trkpt lat="37.05171" lon="-3.36748">
        <ele>3218</ele>
        <time>2021-08-06 16:37:56</time>
      </trkpt>
      <trkpt lat="37.05171" lon="-3.36749">
        <ele>3218</ele>
        <time>2021-08-06 16:37:57</time>
      </trkpt>
      <trkpt lat="37.0517" lon="-3.36749">
        <ele>3217.8</ele>
        <time>2021-08-06 16:37:58</time>
      </trkpt>
      <trkpt lat="37.05169" lon="-3.3675">
        <ele>3217.6</ele>
        <time>2021-08-06 16:37:59</time>
      </trkpt>
      <trkpt lat="37.05169" lon="-3.36751">
        <ele>3217.6</ele>
        <time>2021-08-06 16:38:00</time>
      </trkpt>
      <trkpt lat="37.05168" lon="-3.36752">
        <ele>3217.4</ele>
        <time>2021-08-06 16:38:01</time>
      </trkpt>
      <trkpt lat="37.05168" lon="-3.36752">
        <ele>3217.2</ele>
        <time>2021-08-06 16:38:02</time>
      </trkpt>
      <trkpt lat="37.05168" lon="-3.36753">
        <ele>3217.2</ele>
        <time>2021-08-06 16:38:03</time>
      </trkpt>
      <trkpt lat="37.05167" lon="-3.36753">
        <ele>3217</ele>
        <time>2021-08-06 16:38:04</time>
      </trkpt>
      <trkpt lat="37.05167" lon="-3.36753">
        <ele>3217</ele>
        <time>2021-08-06 16:38:05</time>
      </trkpt>
      <trkpt lat="37.05166" lon="-3.36754">
        <ele>3216.8</ele>
        <time>2021-08-06 16:38:06</time>
      </trkpt>
      <trkpt lat="37.05165" lon="-3.36754">
        <ele>3216.6</ele>
        <time>2021-08-06 16:38:07</time>
      </trkpt>
      <trkpt lat="37.05164" lon="-3.36754">
        <ele>3216.6</ele>
        <time>2021-08-06 16:38:08</time>
      </trkpt>
      <trkpt lat="37.05164" lon="-3.36755">
        <ele>3216.6</ele>
        <time>2021-08-06 16:38:09</time>
      </trkpt>
      <trkpt lat="37.05163" lon="-3.36755">
        <ele>3216.4</ele>
        <time>2021-08-06 16:38:10</time>
      </trkpt>
      <trkpt lat="37.05162" lon="-3.36755">
        <ele>3216.4</ele>
        <time>2021-08-06 16:38:11</time>
      </trkpt>
      <trkpt lat="37.05162" lon="-3.36756">
        <ele>3216.2</ele>
        <time>2021-08-06 16:38:12</time>
      </trkpt>
      <trkpt lat="37.05161" lon="-3.36757">
        <ele>3216.2</ele>
        <time>2021-08-06 16:38:13</time>
      </trkpt>
      <trkpt lat="37.05162" lon="-3.36759">
        <ele>3216.2</ele>
        <time>2021-08-06 16:38:14</time>
      </trkpt>
      <trkpt lat="37.05161" lon="-3.3676">
        <ele>3216</ele>
        <time>2021-08-06 16:38:15</time>
      </trkpt>
      <trkpt lat="37.05161" lon="-3.36762">
        <ele>3215.8</ele>
        <time>2021-08-06 16:38:16</time>
      </trkpt>
      <trkpt lat="37.05161" lon="-3.36763">
        <ele>3215.8</ele>
        <time>2021-08-06 16:38:17</time>
      </trkpt>
      <trkpt lat="37.05158" lon="-3.36763">
        <ele>3215.8</ele>
        <time>2021-08-06 16:38:18</time>
      </trkpt>
      <trkpt lat="37.05157" lon="-3.36764">
        <ele>3215.6</ele>
        <time>2021-08-06 16:38:19</time>
      </trkpt>
      <trkpt lat="37.05156" lon="-3.36765">
        <ele>3215.4</ele>
        <time>2021-08-06 16:38:20</time>
      </trkpt>
      <trkpt lat="37.05155" lon="-3.36766">
        <ele>3215.4</ele>
        <time>2021-08-06 16:38:21</time>
      </trkpt>
      <trkpt lat="37.05154" lon="-3.36767">
        <ele>3215.4</ele>
        <time>2021-08-06 16:38:22</time>
      </trkpt>
      <trkpt lat="37.05153" lon="-3.36767">
        <ele>3215.2</ele>
        <time>2021-08-06 16:38:23</time>
      </trkpt>
      <trkpt lat="37.05153" lon="-3.36768">
        <ele>3215.2</ele>
        <time>2021-08-06 16:38:24</time>
      </trkpt>
      <trkpt lat="37.05152" lon="-3.3677">
        <ele>3215.2</ele>
        <time>2021-08-06 16:38:25</time>
      </trkpt>
      <trkpt lat="37.05152" lon="-3.36771">
        <ele>3215.2</ele>
        <time>2021-08-06 16:38:26</time>
      </trkpt>
      <trkpt lat="37.05152" lon="-3.36772">
        <ele>3215.2</ele>
        <time>2021-08-06 16:38:27</time>
      </trkpt>
      <trkpt lat="37.05152" lon="-3.36774">
        <ele>3215</ele>
        <time>2021-08-06 16:38:28</time>
      </trkpt>
      <trkpt lat="37.05152" lon="-3.36775">
        <ele>3215</ele>
        <time>2021-08-06 16:38:29</time>
      </trkpt>
      <trkpt lat="37.05151" lon="-3.36776">
        <ele>3215</ele>
        <time>2021-08-06 16:38:30</time>
      </trkpt>
      <trkpt lat="37.0515" lon="-3.36776">
        <ele>3215</ele>
        <time>2021-08-06 16:38:31</time>
      </trkpt>
      <trkpt lat="37.05149" lon="-3.36777">
        <ele>3215.2</ele>
        <time>2021-08-06 16:38:32</time>
      </trkpt>
      <trkpt lat="37.05148" lon="-3.36778">
        <ele>3215.4</ele>
        <time>2021-08-06 16:38:33</time>
      </trkpt>
      <trkpt lat="37.05147" lon="-3.36778">
        <ele>3215.4</ele>
        <time>2021-08-06 16:38:34</time>
      </trkpt>
      <trkpt lat="37.05147" lon="-3.36779">
        <ele>3215.4</ele>
        <time>2021-08-06 16:38:35</time>
      </trkpt>
      <trkpt lat="37.05146" lon="-3.3678">
        <ele>3215.4</ele>
        <time>2021-08-06 16:38:36</time>
      </trkpt>
      <trkpt lat="37.05145" lon="-3.36781">
        <ele>3215.6</ele>
        <time>2021-08-06 16:38:37</time>
      </trkpt>
      <trkpt lat="37.05145" lon="-3.36782">
        <ele>3215.6</ele>
        <time>2021-08-06 16:38:38</time>
      </trkpt>
      <trkpt lat="37.05144" lon="-3.36782">
        <ele>3215.6</ele>
        <time>2021-08-06 16:38:39</time>
      </trkpt>
      <trkpt lat="37.05144" lon="-3.36784">
        <ele>3215.6</ele>
        <time>2021-08-06 16:38:40</time>
      </trkpt>
      <trkpt lat="37.05144" lon="-3.36785">
        <ele>3215.8</ele>
        <time>2021-08-06 16:38:41</time>
      </trkpt>
      <trkpt lat="37.05143" lon="-3.36786">
        <ele>3215.8</ele>
        <time>2021-08-06 16:38:42</time>
      </trkpt>
      <trkpt lat="37.05143" lon="-3.36787">
        <ele>3215.8</ele>
        <time>2021-08-06 16:38:43</time>
      </trkpt>
      <trkpt lat="37.05142" lon="-3.36788">
        <ele>3215.8</ele>
        <time>2021-08-06 16:38:44</time>
      </trkpt>
      <trkpt lat="37.05141" lon="-3.36789">
        <ele>3215.8</ele>
        <time>2021-08-06 16:38:45</time>
      </trkpt>
      <trkpt lat="37.0514" lon="-3.36791">
        <ele>3215.8</ele>
        <time>2021-08-06 16:38:46</time>
      </trkpt>
      <trkpt lat="37.0514" lon="-3.36792">
        <ele>3215.8</ele>
        <time>2021-08-06 16:38:47</time>
      </trkpt>
      <trkpt lat="37.0514" lon="-3.36793">
        <ele>3215.8</ele>
        <time>2021-08-06 16:38:48</time>
      </trkpt>
      <trkpt lat="37.0514" lon="-3.36795">
        <ele>3215.6</ele>
        <time>2021-08-06 16:38:49</time>
      </trkpt>
      <trkpt lat="37.0514" lon="-3.36797">
        <ele>3215.6</ele>
        <time>2021-08-06 16:38:50</time>
      </trkpt>
      <trkpt lat="37.0514" lon="-3.36798">
        <ele>3215.6</ele>
        <time>2021-08-06 16:38:51</time>
      </trkpt>
      <trkpt lat="37.0514" lon="-3.36799">
        <ele>3215.6</ele>
        <time>2021-08-06 16:38:52</time>
      </trkpt>
      <trkpt lat="37.0514" lon="-3.368">
        <ele>3215.6</ele>
        <time>2021-08-06 16:38:53</time>
      </trkpt>
      <trkpt lat="37.0514" lon="-3.36801">
        <ele>3215.6</ele>
        <time>2021-08-06 16:38:54</time>
      </trkpt>
      <trkpt lat="37.05139" lon="-3.36802">
        <ele>3215.4</ele>
        <time>2021-08-06 16:38:55</time>
      </trkpt>
      <trkpt lat="37.05139" lon="-3.36803">
        <ele>3215.4</ele>
        <time>2021-08-06 16:38:56</time>
      </trkpt>
      <trkpt lat="37.05139" lon="-3.36804">
        <ele>3215.4</ele>
        <time>2021-08-06 16:38:57</time>
      </trkpt>
      <trkpt lat="37.05139" lon="-3.36805">
        <ele>3215.2</ele>
        <time>2021-08-06 16:38:58</time>
      </trkpt>
      <trkpt lat="37.05139" lon="-3.36806">
        <ele>3215</ele>
        <time>2021-08-06 16:38:59</time>
      </trkpt>
      <trkpt lat="37.05139" lon="-3.36807">
        <ele>3214.8</ele>
        <time>2021-08-06 16:39:00</time>
      </trkpt>
      <trkpt lat="37.05139" lon="-3.36808">
        <ele>3214.8</ele>
        <time>2021-08-06 16:39:01</time>
      </trkpt>
      <trkpt lat="37.05138" lon="-3.36809">
        <ele>3214.6</ele>
        <time>2021-08-06 16:39:02</time>
      </trkpt>
      <trkpt lat="37.05137" lon="-3.3681">
        <ele>3214.6</ele>
        <time>2021-08-06 16:39:03</time>
      </trkpt>
      <trkpt lat="37.05137" lon="-3.36812">
        <ele>3214.2</ele>
        <time>2021-08-06 16:39:04</time>
      </trkpt>
      <trkpt lat="37.05136" lon="-3.36813">
        <ele>3214</ele>
        <time>2021-08-06 16:39:05</time>
      </trkpt>
      <trkpt lat="37.05136" lon="-3.36815">
        <ele>3214</ele>
        <time>2021-08-06 16:39:06</time>
      </trkpt>
      <trkpt lat="37.05136" lon="-3.36816">
        <ele>3214</ele>
        <time>2021-08-06 16:39:07</time>
      </trkpt>
      <trkpt lat="37.05136" lon="-3.36818">
        <ele>3214</ele>
        <time>2021-08-06 16:39:08</time>
      </trkpt>
      <trkpt lat="37.05136" lon="-3.36819">
        <ele>3214</ele>
        <time>2021-08-06 16:39:09</time>
      </trkpt>
      <trkpt lat="37.05136" lon="-3.36821">
        <ele>3214</ele>
        <time>2021-08-06 16:39:10</time>
      </trkpt>
      <trkpt lat="37.05136" lon="-3.36822">
        <ele>3213.8</ele>
        <time>2021-08-06 16:39:11</time>
      </trkpt>
      <trkpt lat="37.05136" lon="-3.36823">
        <ele>3213.6</ele>
        <time>2021-08-06 16:39:12</time>
      </trkpt>
      <trkpt lat="37.05136" lon="-3.36825">
        <ele>3213.4</ele>
        <time>2021-08-06 16:39:13</time>
      </trkpt>
      <trkpt lat="37.05136" lon="-3.36826">
        <ele>3213.4</ele>
        <time>2021-08-06 16:39:14</time>
      </trkpt>
      <trkpt lat="37.05136" lon="-3.36828">
        <ele>3213.4</ele>
        <time>2021-08-06 16:39:15</time>
      </trkpt>
      <trkpt lat="37.05136" lon="-3.3683">
        <ele>3213.4</ele>
        <time>2021-08-06 16:39:16</time>
      </trkpt>
      <trkpt lat="37.05137" lon="-3.36831">
        <ele>3213.2</ele>
        <time>2021-08-06 16:39:17</time>
      </trkpt>
      <trkpt lat="37.05137" lon="-3.36833">
        <ele>3213.2</ele>
        <time>2021-08-06 16:39:18</time>
      </trkpt>
      <trkpt lat="37.05137" lon="-3.36834">
        <ele>3213.4</ele>
        <time>2021-08-06 16:39:19</time>
      </trkpt>
      <trkpt lat="37.05137" lon="-3.36835">
        <ele>3213.4</ele>
        <time>2021-08-06 16:39:20</time>
      </trkpt>
      <trkpt lat="37.05137" lon="-3.36836">
        <ele>3213.4</ele>
        <time>2021-08-06 16:39:21</time>
      </trkpt>
      <trkpt lat="37.05137" lon="-3.36837">
        <ele>3213.2</ele>
        <time>2021-08-06 16:39:22</time>
      </trkpt>
      <trkpt lat="37.05137" lon="-3.36838">
        <ele>3213.4</ele>
        <time>2021-08-06 16:39:23</time>
      </trkpt>
      <trkpt lat="37.05138" lon="-3.36839">
        <ele>3213.6</ele>
        <time>2021-08-06 16:39:24</time>
      </trkpt>
      <trkpt lat="37.05138" lon="-3.3684">
        <ele>3213.6</ele>
        <time>2021-08-06 16:39:25</time>
      </trkpt>
      <trkpt lat="37.05138" lon="-3.36841">
        <ele>3213.8</ele>
        <time>2021-08-06 16:39:26</time>
      </trkpt>
      <trkpt lat="37.05138" lon="-3.36842">
        <ele>3213.6</ele>
        <time>2021-08-06 16:39:27</time>
      </trkpt>
      <trkpt lat="37.05139" lon="-3.36843">
        <ele>3213.6</ele>
        <time>2021-08-06 16:39:28</time>
      </trkpt>
      <trkpt lat="37.05139" lon="-3.36844">
        <ele>3213.6</ele>
        <time>2021-08-06 16:39:29</time>
      </trkpt>
      <trkpt lat="37.05139" lon="-3.36846">
        <ele>3213.8</ele>
        <time>2021-08-06 16:39:30</time>
      </trkpt>
      <trkpt lat="37.05138" lon="-3.36847">
        <ele>3213.8</ele>
        <time>2021-08-06 16:39:31</time>
      </trkpt>
      <trkpt lat="37.05138" lon="-3.36848">
        <ele>3213.8</ele>
        <time>2021-08-06 16:39:32</time>
      </trkpt>
      <trkpt lat="37.05138" lon="-3.3685">
        <ele>3213.8</ele>
        <time>2021-08-06 16:39:33</time>
      </trkpt>
      <trkpt lat="37.05138" lon="-3.36851">
        <ele>3213.6</ele>
        <time>2021-08-06 16:39:34</time>
      </trkpt>
      <trkpt lat="37.05139" lon="-3.36852">
        <ele>3213.6</ele>
        <time>2021-08-06 16:39:35</time>
      </trkpt>
      <trkpt lat="37.05138" lon="-3.36852">
        <ele>3213.6</ele>
        <time>2021-08-06 16:39:36</time>
      </trkpt>
      <trkpt lat="37.05138" lon="-3.36853">
        <ele>3213.6</ele>
        <time>2021-08-06 16:39:37</time>
      </trkpt>
      <trkpt lat="37.05138" lon="-3.36855">
        <ele>3213.6</ele>
        <time>2021-08-06 16:39:38</time>
      </trkpt>
      <trkpt lat="37.05138" lon="-3.36856">
        <ele>3213.6</ele>
        <time>2021-08-06 16:39:39</time>
      </trkpt>
      <trkpt lat="37.05138" lon="-3.36857">
        <ele>3213.6</ele>
        <time>2021-08-06 16:39:40</time>
      </trkpt>
      <trkpt lat="37.05138" lon="-3.36859">
        <ele>3213.8</ele>
        <time>2021-08-06 16:39:41</time>
      </trkpt>
      <trkpt lat="37.05138" lon="-3.3686">
        <ele>3213.8</ele>
        <time>2021-08-06 16:39:42</time>
      </trkpt>
      <trkpt lat="37.05138" lon="-3.36861">
        <ele>3213.8</ele>
        <time>2021-08-06 16:39:43</time>
      </trkpt>
      <trkpt lat="37.05137" lon="-3.36863">
        <ele>3213.8</ele>
        <time>2021-08-06 16:39:44</time>
      </trkpt>
      <trkpt lat="37.05137" lon="-3.36864">
        <ele>3214</ele>
        <time>2021-08-06 16:39:45</time>
      </trkpt>
      <trkpt lat="37.05137" lon="-3.36865">
        <ele>3214</ele>
        <time>2021-08-06 16:39:46</time>
      </trkpt>
      <trkpt lat="37.05137" lon="-3.36867">
        <ele>3214</ele>
        <time>2021-08-06 16:39:47</time>
      </trkpt>
      <trkpt lat="37.05137" lon="-3.36869">
        <ele>3214</ele>
        <time>2021-08-06 16:39:48</time>
      </trkpt>
      <trkpt lat="37.05137" lon="-3.3687">
        <ele>3214.2</ele>
        <time>2021-08-06 16:39:49</time>
      </trkpt>
      <trkpt lat="37.05136" lon="-3.36872">
        <ele>3214.4</ele>
        <time>2021-08-06 16:39:50</time>
      </trkpt>
      <trkpt lat="37.05136" lon="-3.36873">
        <ele>3214.6</ele>
        <time>2021-08-06 16:39:51</time>
      </trkpt>
      <trkpt lat="37.05136" lon="-3.36874">
        <ele>3214.6</ele>
        <time>2021-08-06 16:39:52</time>
      </trkpt>
      <trkpt lat="37.05135" lon="-3.36876">
        <ele>3214.8</ele>
        <time>2021-08-06 16:39:53</time>
      </trkpt>
      <trkpt lat="37.05135" lon="-3.36877">
        <ele>3214.8</ele>
        <time>2021-08-06 16:39:54</time>
      </trkpt>
      <trkpt lat="37.05134" lon="-3.36878">
        <ele>3214.8</ele>
        <time>2021-08-06 16:39:55</time>
      </trkpt>
      <trkpt lat="37.05133" lon="-3.3688">
        <ele>3215</ele>
        <time>2021-08-06 16:39:56</time>
      </trkpt>
      <trkpt lat="37.05132" lon="-3.3688">
        <ele>3215</ele>
        <time>2021-08-06 16:39:57</time>
      </trkpt>
      <trkpt lat="37.05131" lon="-3.36882">
        <ele>3215</ele>
        <time>2021-08-06 16:39:58</time>
      </trkpt>
      <trkpt lat="37.05131" lon="-3.36883">
        <ele>3215</ele>
        <time>2021-08-06 16:39:59</time>
      </trkpt>
      <trkpt lat="37.0513" lon="-3.36884">
        <ele>3215</ele>
        <time>2021-08-06 16:40:00</time>
      </trkpt>
      <trkpt lat="37.0513" lon="-3.36885">
        <ele>3215</ele>
        <time>2021-08-06 16:40:01</time>
      </trkpt>
      <trkpt lat="37.05129" lon="-3.36886">
        <ele>3215</ele>
        <time>2021-08-06 16:40:02</time>
      </trkpt>
      <trkpt lat="37.05129" lon="-3.36887">
        <ele>3215</ele>
        <time>2021-08-06 16:40:03</time>
      </trkpt>
      <trkpt lat="37.05129" lon="-3.36888">
        <ele>3215</ele>
        <time>2021-08-06 16:40:04</time>
      </trkpt>
      <trkpt lat="37.05129" lon="-3.36889">
        <ele>3215</ele>
        <time>2021-08-06 16:40:05</time>
      </trkpt>
      <trkpt lat="37.05129" lon="-3.36891">
        <ele>3215</ele>
        <time>2021-08-06 16:40:06</time>
      </trkpt>
      <trkpt lat="37.05129" lon="-3.36892">
        <ele>3215.2</ele>
        <time>2021-08-06 16:40:07</time>
      </trkpt>
      <trkpt lat="37.05129" lon="-3.36894">
        <ele>3215.2</ele>
        <time>2021-08-06 16:40:08</time>
      </trkpt>
      <trkpt lat="37.05128" lon="-3.36895">
        <ele>3215.4</ele>
        <time>2021-08-06 16:40:09</time>
      </trkpt>
      <trkpt lat="37.05128" lon="-3.36896">
        <ele>3215.4</ele>
        <time>2021-08-06 16:40:10</time>
      </trkpt>
      <trkpt lat="37.05127" lon="-3.36897">
        <ele>3215.4</ele>
        <time>2021-08-06 16:40:11</time>
      </trkpt>
      <trkpt lat="37.05126" lon="-3.36898">
        <ele>3215.4</ele>
        <time>2021-08-06 16:40:12</time>
      </trkpt>
      <trkpt lat="37.05126" lon="-3.36899">
        <ele>3215.4</ele>
        <time>2021-08-06 16:40:13</time>
      </trkpt>
      <trkpt lat="37.05126" lon="-3.36901">
        <ele>3215.4</ele>
        <time>2021-08-06 16:40:14</time>
      </trkpt>
      <trkpt lat="37.05125" lon="-3.36902">
        <ele>3215.4</ele>
        <time>2021-08-06 16:40:15</time>
      </trkpt>
      <trkpt lat="37.05125" lon="-3.36903">
        <ele>3215.4</ele>
        <time>2021-08-06 16:40:16</time>
      </trkpt>
      <trkpt lat="37.05125" lon="-3.36904">
        <ele>3215.4</ele>
        <time>2021-08-06 16:40:17</time>
      </trkpt>
      <trkpt lat="37.05125" lon="-3.36905">
        <ele>3215.6</ele>
        <time>2021-08-06 16:40:18</time>
      </trkpt>
      <trkpt lat="37.05125" lon="-3.36907">
        <ele>3215.6</ele>
        <time>2021-08-06 16:40:19</time>
      </trkpt>
      <trkpt lat="37.05125" lon="-3.36908">
        <ele>3215.8</ele>
        <time>2021-08-06 16:40:20</time>
      </trkpt>
      <trkpt lat="37.05124" lon="-3.36909">
        <ele>3215.8</ele>
        <time>2021-08-06 16:40:21</time>
      </trkpt>
      <trkpt lat="37.05124" lon="-3.36911">
        <ele>3216</ele>
        <time>2021-08-06 16:40:22</time>
      </trkpt>
      <trkpt lat="37.05123" lon="-3.36913">
        <ele>3216</ele>
        <time>2021-08-06 16:40:23</time>
      </trkpt>
      <trkpt lat="37.05123" lon="-3.36914">
        <ele>3216</ele>
        <time>2021-08-06 16:40:24</time>
      </trkpt>
      <trkpt lat="37.05123" lon="-3.36915">
        <ele>3216</ele>
        <time>2021-08-06 16:40:25</time>
      </trkpt>
      <trkpt lat="37.05123" lon="-3.36917">
        <ele>3216</ele>
        <time>2021-08-06 16:40:26</time>
      </trkpt>
      <trkpt lat="37.05122" lon="-3.36918">
        <ele>3216</ele>
        <time>2021-08-06 16:40:27</time>
      </trkpt>
      <trkpt lat="37.05121" lon="-3.3692">
        <ele>3216</ele>
        <time>2021-08-06 16:40:28</time>
      </trkpt>
      <trkpt lat="37.05121" lon="-3.36921">
        <ele>3216</ele>
        <time>2021-08-06 16:40:29</time>
      </trkpt>
      <trkpt lat="37.05121" lon="-3.36922">
        <ele>3216</ele>
        <time>2021-08-06 16:40:30</time>
      </trkpt>
      <trkpt lat="37.05121" lon="-3.36923">
        <ele>3216</ele>
        <time>2021-08-06 16:40:31</time>
      </trkpt>
      <trkpt lat="37.05121" lon="-3.36925">
        <ele>3216.2</ele>
        <time>2021-08-06 16:40:32</time>
      </trkpt>
      <trkpt lat="37.05121" lon="-3.36927">
        <ele>3216.2</ele>
        <time>2021-08-06 16:40:33</time>
      </trkpt>
      <trkpt lat="37.05121" lon="-3.36928">
        <ele>3216.4</ele>
        <time>2021-08-06 16:40:34</time>
      </trkpt>
      <trkpt lat="37.05121" lon="-3.3693">
        <ele>3216.4</ele>
        <time>2021-08-06 16:40:35</time>
      </trkpt>
      <trkpt lat="37.05121" lon="-3.36931">
        <ele>3216.4</ele>
        <time>2021-08-06 16:40:36</time>
      </trkpt>
      <trkpt lat="37.05121" lon="-3.36932">
        <ele>3216.4</ele>
        <time>2021-08-06 16:40:37</time>
      </trkpt>
      <trkpt lat="37.05121" lon="-3.36934">
        <ele>3216.4</ele>
        <time>2021-08-06 16:40:38</time>
      </trkpt>
      <trkpt lat="37.05121" lon="-3.36935">
        <ele>3216.6</ele>
        <time>2021-08-06 16:40:39</time>
      </trkpt>
      <trkpt lat="37.05121" lon="-3.36936">
        <ele>3216.6</ele>
        <time>2021-08-06 16:40:40</time>
      </trkpt>
      <trkpt lat="37.0512" lon="-3.36937">
        <ele>3216.6</ele>
        <time>2021-08-06 16:40:41</time>
      </trkpt>
      <trkpt lat="37.05119" lon="-3.36938">
        <ele>3216.4</ele>
        <time>2021-08-06 16:40:42</time>
      </trkpt>
      <trkpt lat="37.05119" lon="-3.36939">
        <ele>3216</ele>
        <time>2021-08-06 16:40:43</time>
      </trkpt>
      <trkpt lat="37.05119" lon="-3.36941">
        <ele>3215.8</ele>
        <time>2021-08-06 16:40:44</time>
      </trkpt>
      <trkpt lat="37.05118" lon="-3.36942">
        <ele>3215.6</ele>
        <time>2021-08-06 16:40:45</time>
      </trkpt>
      <trkpt lat="37.05117" lon="-3.36943">
        <ele>3215.6</ele>
        <time>2021-08-06 16:40:46</time>
      </trkpt>
      <trkpt lat="37.05116" lon="-3.36943">
        <ele>3215.6</ele>
        <time>2021-08-06 16:40:47</time>
      </trkpt>
      <trkpt lat="37.05116" lon="-3.36943">
        <ele>3215.6</ele>
        <time>2021-08-06 16:40:48</time>
      </trkpt>
      <trkpt lat="37.05115" lon="-3.36944">
        <ele>3215.8</ele>
        <time>2021-08-06 16:40:49</time>
      </trkpt>
      <trkpt lat="37.05114" lon="-3.36945">
        <ele>3216</ele>
        <time>2021-08-06 16:40:50</time>
      </trkpt>
      <trkpt lat="37.05113" lon="-3.36946">
        <ele>3216</ele>
        <time>2021-08-06 16:40:51</time>
      </trkpt>
      <trkpt lat="37.05113" lon="-3.36947">
        <ele>3216</ele>
        <time>2021-08-06 16:40:52</time>
      </trkpt>
      <trkpt lat="37.05112" lon="-3.36948">
        <ele>3216.2</ele>
        <time>2021-08-06 16:40:53</time>
      </trkpt>
      <trkpt lat="37.05112" lon="-3.3695">
        <ele>3216.2</ele>
        <time>2021-08-06 16:40:54</time>
      </trkpt>
      <trkpt lat="37.05111" lon="-3.36951">
        <ele>3216.4</ele>
        <time>2021-08-06 16:40:55</time>
      </trkpt>
      <trkpt lat="37.0511" lon="-3.36952">
        <ele>3216.4</ele>
        <time>2021-08-06 16:40:56</time>
      </trkpt>
      <trkpt lat="37.05109" lon="-3.36953">
        <ele>3216.4</ele>
        <time>2021-08-06 16:40:57</time>
      </trkpt>
      <trkpt lat="37.05108" lon="-3.36954">
        <ele>3216.4</ele>
        <time>2021-08-06 16:40:58</time>
      </trkpt>
      <trkpt lat="37.05107" lon="-3.36955">
        <ele>3216.6</ele>
        <time>2021-08-06 16:40:59</time>
      </trkpt>
      <trkpt lat="37.05107" lon="-3.36957">
        <ele>3216.8</ele>
        <time>2021-08-06 16:41:00</time>
      </trkpt>
      <trkpt lat="37.05106" lon="-3.36958">
        <ele>3216.8</ele>
        <time>2021-08-06 16:41:01</time>
      </trkpt>
      <trkpt lat="37.05106" lon="-3.3696">
        <ele>3216.8</ele>
        <time>2021-08-06 16:41:02</time>
      </trkpt>
      <trkpt lat="37.05106" lon="-3.36961">
        <ele>3216.6</ele>
        <time>2021-08-06 16:41:03</time>
      </trkpt>
      <trkpt lat="37.05106" lon="-3.36963">
        <ele>3216.6</ele>
        <time>2021-08-06 16:41:04</time>
      </trkpt>
      <trkpt lat="37.05106" lon="-3.36964">
        <ele>3216.6</ele>
        <time>2021-08-06 16:41:05</time>
      </trkpt>
      <trkpt lat="37.05105" lon="-3.36966">
        <ele>3216.6</ele>
        <time>2021-08-06 16:41:06</time>
      </trkpt>
      <trkpt lat="37.05105" lon="-3.36967">
        <ele>3216.6</ele>
        <time>2021-08-06 16:41:07</time>
      </trkpt>
      <trkpt lat="37.05104" lon="-3.36968">
        <ele>3216.6</ele>
        <time>2021-08-06 16:41:08</time>
      </trkpt>
      <trkpt lat="37.05104" lon="-3.3697">
        <ele>3216.6</ele>
        <time>2021-08-06 16:41:09</time>
      </trkpt>
      <trkpt lat="37.05103" lon="-3.36971">
        <ele>3216.6</ele>
        <time>2021-08-06 16:41:10</time>
      </trkpt>
      <trkpt lat="37.05103" lon="-3.36973">
        <ele>3217</ele>
        <time>2021-08-06 16:41:11</time>
      </trkpt>
      <trkpt lat="37.05103" lon="-3.36974">
        <ele>3217</ele>
        <time>2021-08-06 16:41:12</time>
      </trkpt>
      <trkpt lat="37.05102" lon="-3.36975">
        <ele>3217.2</ele>
        <time>2021-08-06 16:41:13</time>
      </trkpt>
      <trkpt lat="37.05102" lon="-3.36977">
        <ele>3217.4</ele>
        <time>2021-08-06 16:41:14</time>
      </trkpt>
      <trkpt lat="37.05101" lon="-3.36978">
        <ele>3217.4</ele>
        <time>2021-08-06 16:41:15</time>
      </trkpt>
      <trkpt lat="37.05101" lon="-3.36979">
        <ele>3217.4</ele>
        <time>2021-08-06 16:41:16</time>
      </trkpt>
      <trkpt lat="37.05101" lon="-3.3698">
        <ele>3217.2</ele>
        <time>2021-08-06 16:41:17</time>
      </trkpt>
      <trkpt lat="37.05101" lon="-3.36982">
        <ele>3217</ele>
        <time>2021-08-06 16:41:18</time>
      </trkpt>
      <trkpt lat="37.05101" lon="-3.36983">
        <ele>3217</ele>
        <time>2021-08-06 16:41:19</time>
      </trkpt>
      <trkpt lat="37.051" lon="-3.36984">
        <ele>3217</ele>
        <time>2021-08-06 16:41:20</time>
      </trkpt>
      <trkpt lat="37.051" lon="-3.36984">
        <ele>3216.8</ele>
        <time>2021-08-06 16:41:21</time>
      </trkpt>
      <trkpt lat="37.05099" lon="-3.36985">
        <ele>3216.8</ele>
        <time>2021-08-06 16:41:22</time>
      </trkpt>
      <trkpt lat="37.05099" lon="-3.36986">
        <ele>3216.8</ele>
        <time>2021-08-06 16:41:23</time>
      </trkpt>
      <trkpt lat="37.05098" lon="-3.36987">
        <ele>3217</ele>
        <time>2021-08-06 16:41:24</time>
      </trkpt>
      <trkpt lat="37.05099" lon="-3.36989">
        <ele>3217</ele>
        <time>2021-08-06 16:41:25</time>
      </trkpt>
      <trkpt lat="37.05099" lon="-3.36991">
        <ele>3217.2</ele>
        <time>2021-08-06 16:41:26</time>
      </trkpt>
      <trkpt lat="37.05099" lon="-3.36992">
        <ele>3217.2</ele>
        <time>2021-08-06 16:41:27</time>
      </trkpt>
      <trkpt lat="37.05098" lon="-3.36992">
        <ele>3217.2</ele>
        <time>2021-08-06 16:41:28</time>
      </trkpt>
      <trkpt lat="37.05098" lon="-3.36993">
        <ele>3217.4</ele>
        <time>2021-08-06 16:41:29</time>
      </trkpt>
      <trkpt lat="37.05097" lon="-3.36994">
        <ele>3217.6</ele>
        <time>2021-08-06 16:41:30</time>
      </trkpt>
      <trkpt lat="37.05096" lon="-3.36995">
        <ele>3217.8</ele>
        <time>2021-08-06 16:41:31</time>
      </trkpt>
      <trkpt lat="37.05095" lon="-3.36996">
        <ele>3218</ele>
        <time>2021-08-06 16:41:32</time>
      </trkpt>
      <trkpt lat="37.05094" lon="-3.36998">
        <ele>3218</ele>
        <time>2021-08-06 16:41:33</time>
      </trkpt>
      <trkpt lat="37.05093" lon="-3.36998">
        <ele>3218.4</ele>
        <time>2021-08-06 16:41:34</time>
      </trkpt>
      <trkpt lat="37.05092" lon="-3.36999">
        <ele>3218.6</ele>
        <time>2021-08-06 16:41:35</time>
      </trkpt>
      <trkpt lat="37.05091" lon="-3.37">
        <ele>3218.8</ele>
        <time>2021-08-06 16:41:36</time>
      </trkpt>
      <trkpt lat="37.0509" lon="-3.37001">
        <ele>3218.8</ele>
        <time>2021-08-06 16:41:37</time>
      </trkpt>
      <trkpt lat="37.0509" lon="-3.37002">
        <ele>3218.8</ele>
        <time>2021-08-06 16:41:38</time>
      </trkpt>
      <trkpt lat="37.05089" lon="-3.37003">
        <ele>3218.8</ele>
        <time>2021-08-06 16:41:39</time>
      </trkpt>
      <trkpt lat="37.05089" lon="-3.37004">
        <ele>3218.8</ele>
        <time>2021-08-06 16:41:40</time>
      </trkpt>
      <trkpt lat="37.05088" lon="-3.37005">
        <ele>3218.8</ele>
        <time>2021-08-06 16:41:41</time>
      </trkpt>
      <trkpt lat="37.05088" lon="-3.37006">
        <ele>3218.8</ele>
        <time>2021-08-06 16:41:42</time>
      </trkpt>
      <trkpt lat="37.05087" lon="-3.37007">
        <ele>3218.8</ele>
        <time>2021-08-06 16:41:43</time>
      </trkpt>
      <trkpt lat="37.05086" lon="-3.37007">
        <ele>3219</ele>
        <time>2021-08-06 16:41:44</time>
      </trkpt>
      <trkpt lat="37.05086" lon="-3.37009">
        <ele>3219</ele>
        <time>2021-08-06 16:41:45</time>
      </trkpt>
      <trkpt lat="37.05085" lon="-3.3701">
        <ele>3219.2</ele>
        <time>2021-08-06 16:41:46</time>
      </trkpt>
      <trkpt lat="37.05084" lon="-3.37011">
        <ele>3219.2</ele>
        <time>2021-08-06 16:41:47</time>
      </trkpt>
      <trkpt lat="37.05081" lon="-3.3701">
        <ele>3219.4</ele>
        <time>2021-08-06 16:41:48</time>
      </trkpt>
      <trkpt lat="37.0508" lon="-3.37011">
        <ele>3219.6</ele>
        <time>2021-08-06 16:41:49</time>
      </trkpt>
      <trkpt lat="37.05079" lon="-3.37012">
        <ele>3219.8</ele>
        <time>2021-08-06 16:41:50</time>
      </trkpt>
      <trkpt lat="37.05077" lon="-3.37012">
        <ele>3220</ele>
        <time>2021-08-06 16:41:51</time>
      </trkpt>
      <trkpt lat="37.05076" lon="-3.37012">
        <ele>3220</ele>
        <time>2021-08-06 16:41:52</time>
      </trkpt>
      <trkpt lat="37.05075" lon="-3.37013">
        <ele>3220.4</ele>
        <time>2021-08-06 16:41:53</time>
      </trkpt>
      <trkpt lat="37.05074" lon="-3.37014">
        <ele>3220.6</ele>
        <time>2021-08-06 16:41:54</time>
      </trkpt>
      <trkpt lat="37.05073" lon="-3.37015">
        <ele>3220.8</ele>
        <time>2021-08-06 16:41:55</time>
      </trkpt>
      <trkpt lat="37.05071" lon="-3.37015">
        <ele>3220.8</ele>
        <time>2021-08-06 16:41:56</time>
      </trkpt>
      <trkpt lat="37.0507" lon="-3.37015">
        <ele>3220.8</ele>
        <time>2021-08-06 16:41:57</time>
      </trkpt>
      <trkpt lat="37.05069" lon="-3.37016">
        <ele>3220.8</ele>
        <time>2021-08-06 16:41:58</time>
      </trkpt>
      <trkpt lat="37.05068" lon="-3.37017">
        <ele>3220.6</ele>
        <time>2021-08-06 16:41:59</time>
      </trkpt>
      <trkpt lat="37.05067" lon="-3.37017">
        <ele>3220.6</ele>
        <time>2021-08-06 16:42:00</time>
      </trkpt>
      <trkpt lat="37.05066" lon="-3.37018">
        <ele>3220.8</ele>
        <time>2021-08-06 16:42:01</time>
      </trkpt>
      <trkpt lat="37.05065" lon="-3.37019">
        <ele>3220.8</ele>
        <time>2021-08-06 16:42:02</time>
      </trkpt>
      <trkpt lat="37.05065" lon="-3.3702">
        <ele>3220.6</ele>
        <time>2021-08-06 16:42:03</time>
      </trkpt>
      <trkpt lat="37.05063" lon="-3.37021">
        <ele>3220.6</ele>
        <time>2021-08-06 16:42:04</time>
      </trkpt>
      <trkpt lat="37.05063" lon="-3.37021">
        <ele>3220.6</ele>
        <time>2021-08-06 16:42:05</time>
      </trkpt>
      <trkpt lat="37.05061" lon="-3.37022">
        <ele>3220.6</ele>
        <time>2021-08-06 16:42:06</time>
      </trkpt>
      <trkpt lat="37.0506" lon="-3.37022">
        <ele>3220.6</ele>
        <time>2021-08-06 16:42:07</time>
      </trkpt>
      <trkpt lat="37.05059" lon="-3.37023">
        <ele>3220.4</ele>
        <time>2021-08-06 16:42:08</time>
      </trkpt>
      <trkpt lat="37.05058" lon="-3.37024">
        <ele>3220.4</ele>
        <time>2021-08-06 16:42:09</time>
      </trkpt>
      <trkpt lat="37.05058" lon="-3.37025">
        <ele>3220.4</ele>
        <time>2021-08-06 16:42:10</time>
      </trkpt>
      <trkpt lat="37.05057" lon="-3.37026">
        <ele>3220.4</ele>
        <time>2021-08-06 16:42:11</time>
      </trkpt>
      <trkpt lat="37.05056" lon="-3.37027">
        <ele>3220.8</ele>
        <time>2021-08-06 16:42:12</time>
      </trkpt>
      <trkpt lat="37.05056" lon="-3.37027">
        <ele>3221</ele>
        <time>2021-08-06 16:42:13</time>
      </trkpt>
      <trkpt lat="37.05055" lon="-3.37028">
        <ele>3221.2</ele>
        <time>2021-08-06 16:42:14</time>
      </trkpt>
      <trkpt lat="37.05056" lon="-3.37029">
        <ele>3221.4</ele>
        <time>2021-08-06 16:42:15</time>
      </trkpt>
      <trkpt lat="37.05055" lon="-3.3703">
        <ele>3221.4</ele>
        <time>2021-08-06 16:42:16</time>
      </trkpt>
      <trkpt lat="37.05054" lon="-3.37031">
        <ele>3221.6</ele>
        <time>2021-08-06 16:42:17</time>
      </trkpt>
      <trkpt lat="37.05054" lon="-3.37032">
        <ele>3221.6</ele>
        <time>2021-08-06 16:42:18</time>
      </trkpt>
      <trkpt lat="37.05054" lon="-3.37033">
        <ele>3221.6</ele>
        <time>2021-08-06 16:42:19</time>
      </trkpt>
      <trkpt lat="37.05053" lon="-3.37034">
        <ele>3221.8</ele>
        <time>2021-08-06 16:42:20</time>
      </trkpt>
      <trkpt lat="37.05053" lon="-3.37035">
        <ele>3222</ele>
        <time>2021-08-06 16:42:21</time>
      </trkpt>
      <trkpt lat="37.05051" lon="-3.37036">
        <ele>3222</ele>
        <time>2021-08-06 16:42:22</time>
      </trkpt>
      <trkpt lat="37.0505" lon="-3.37037">
        <ele>3222</ele>
        <time>2021-08-06 16:42:23</time>
      </trkpt>
      <trkpt lat="37.05049" lon="-3.37038">
        <ele>3222.2</ele>
        <time>2021-08-06 16:42:24</time>
      </trkpt>
      <trkpt lat="37.05047" lon="-3.37038">
        <ele>3222</ele>
        <time>2021-08-06 16:42:25</time>
      </trkpt>
      <trkpt lat="37.05046" lon="-3.37039">
        <ele>3222.2</ele>
        <time>2021-08-06 16:42:26</time>
      </trkpt>
      <trkpt lat="37.05044" lon="-3.3704">
        <ele>3222.2</ele>
        <time>2021-08-06 16:42:27</time>
      </trkpt>
      <trkpt lat="37.05043" lon="-3.37041">
        <ele>3222.2</ele>
        <time>2021-08-06 16:42:28</time>
      </trkpt>
      <trkpt lat="37.05042" lon="-3.37042">
        <ele>3222.2</ele>
        <time>2021-08-06 16:42:29</time>
      </trkpt>
      <trkpt lat="37.0504" lon="-3.37043">
        <ele>3222.2</ele>
        <time>2021-08-06 16:42:30</time>
      </trkpt>
      <trkpt lat="37.05039" lon="-3.37044">
        <ele>3222.4</ele>
        <time>2021-08-06 16:42:31</time>
      </trkpt>
      <trkpt lat="37.05037" lon="-3.37045">
        <ele>3222.6</ele>
        <time>2021-08-06 16:42:32</time>
      </trkpt>
      <trkpt lat="37.05036" lon="-3.37046">
        <ele>3222.6</ele>
        <time>2021-08-06 16:42:33</time>
      </trkpt>
      <trkpt lat="37.05035" lon="-3.37046">
        <ele>3222.6</ele>
        <time>2021-08-06 16:42:34</time>
      </trkpt>
      <trkpt lat="37.05033" lon="-3.37046">
        <ele>3222.6</ele>
        <time>2021-08-06 16:42:35</time>
      </trkpt>
      <trkpt lat="37.05032" lon="-3.37047">
        <ele>3222.6</ele>
        <time>2021-08-06 16:42:36</time>
      </trkpt>
      <trkpt lat="37.05031" lon="-3.37048">
        <ele>3222.8</ele>
        <time>2021-08-06 16:42:37</time>
      </trkpt>
      <trkpt lat="37.0503" lon="-3.37048">
        <ele>3222.8</ele>
        <time>2021-08-06 16:42:38</time>
      </trkpt>
      <trkpt lat="37.0503" lon="-3.37049">
        <ele>3222.8</ele>
        <time>2021-08-06 16:42:39</time>
      </trkpt>
      <trkpt lat="37.05029" lon="-3.37051">
        <ele>3222.8</ele>
        <time>2021-08-06 16:42:40</time>
      </trkpt>
      <trkpt lat="37.05028" lon="-3.37052">
        <ele>3223</ele>
        <time>2021-08-06 16:42:41</time>
      </trkpt>
      <trkpt lat="37.05027" lon="-3.37052">
        <ele>3223</ele>
        <time>2021-08-06 16:42:42</time>
      </trkpt>
      <trkpt lat="37.05026" lon="-3.37053">
        <ele>3223</ele>
        <time>2021-08-06 16:42:43</time>
      </trkpt>
      <trkpt lat="37.05025" lon="-3.37054">
        <ele>3223</ele>
        <time>2021-08-06 16:42:44</time>
      </trkpt>
      <trkpt lat="37.05025" lon="-3.37055">
        <ele>3223</ele>
        <time>2021-08-06 16:42:45</time>
      </trkpt>
      <trkpt lat="37.05024" lon="-3.37057">
        <ele>3223</ele>
        <time>2021-08-06 16:42:46</time>
      </trkpt>
      <trkpt lat="37.05023" lon="-3.37058">
        <ele>3223</ele>
        <time>2021-08-06 16:42:47</time>
      </trkpt>
      <trkpt lat="37.05023" lon="-3.3706">
        <ele>3223</ele>
        <time>2021-08-06 16:42:48</time>
      </trkpt>
      <trkpt lat="37.05022" lon="-3.37061">
        <ele>3223</ele>
        <time>2021-08-06 16:42:49</time>
      </trkpt>
      <trkpt lat="37.05021" lon="-3.37062">
        <ele>3223</ele>
        <time>2021-08-06 16:42:50</time>
      </trkpt>
      <trkpt lat="37.05021" lon="-3.37063">
        <ele>3223</ele>
        <time>2021-08-06 16:42:51</time>
      </trkpt>
      <trkpt lat="37.0502" lon="-3.37064">
        <ele>3223</ele>
        <time>2021-08-06 16:42:52</time>
      </trkpt>
      <trkpt lat="37.05019" lon="-3.37065">
        <ele>3223.2</ele>
        <time>2021-08-06 16:42:53</time>
      </trkpt>
      <trkpt lat="37.05019" lon="-3.37067">
        <ele>3223.2</ele>
        <time>2021-08-06 16:42:54</time>
      </trkpt>
      <trkpt lat="37.05018" lon="-3.37068">
        <ele>3223.2</ele>
        <time>2021-08-06 16:42:55</time>
      </trkpt>
      <trkpt lat="37.05017" lon="-3.37069">
        <ele>3223.4</ele>
        <time>2021-08-06 16:42:56</time>
      </trkpt>
      <trkpt lat="37.05016" lon="-3.3707">
        <ele>3223.4</ele>
        <time>2021-08-06 16:42:57</time>
      </trkpt>
      <trkpt lat="37.05015" lon="-3.37071">
        <ele>3223.6</ele>
        <time>2021-08-06 16:42:58</time>
      </trkpt>
      <trkpt lat="37.05014" lon="-3.37072">
        <ele>3223.6</ele>
        <time>2021-08-06 16:42:59</time>
      </trkpt>
      <trkpt lat="37.05014" lon="-3.37073">
        <ele>3223.6</ele>
        <time>2021-08-06 16:43:00</time>
      </trkpt>
      <trkpt lat="37.05013" lon="-3.37074">
        <ele>3223.6</ele>
        <time>2021-08-06 16:43:01</time>
      </trkpt>
      <trkpt lat="37.05012" lon="-3.37075">
        <ele>3223.8</ele>
        <time>2021-08-06 16:43:02</time>
      </trkpt>
      <trkpt lat="37.05012" lon="-3.37076">
        <ele>3224</ele>
        <time>2021-08-06 16:43:03</time>
      </trkpt>
      <trkpt lat="37.05011" lon="-3.37077">
        <ele>3224.4</ele>
        <time>2021-08-06 16:43:04</time>
      </trkpt>
      <trkpt lat="37.0501" lon="-3.37077">
        <ele>3224.8</ele>
        <time>2021-08-06 16:43:05</time>
      </trkpt>
      <trkpt lat="37.05009" lon="-3.37078">
        <ele>3225</ele>
        <time>2021-08-06 16:43:06</time>
      </trkpt>
      <trkpt lat="37.05007" lon="-3.37079">
        <ele>3225.2</ele>
        <time>2021-08-06 16:43:07</time>
      </trkpt>
      <trkpt lat="37.05006" lon="-3.37079">
        <ele>3225.2</ele>
        <time>2021-08-06 16:43:08</time>
      </trkpt>
      <trkpt lat="37.05005" lon="-3.3708">
        <ele>3225.2</ele>
        <time>2021-08-06 16:43:09</time>
      </trkpt>
      <trkpt lat="37.05003" lon="-3.3708">
        <ele>3225.2</ele>
        <time>2021-08-06 16:43:10</time>
      </trkpt>
      <trkpt lat="37.05002" lon="-3.3708">
        <ele>3225.4</ele>
        <time>2021-08-06 16:43:11</time>
      </trkpt>
      <trkpt lat="37.05001" lon="-3.37081">
        <ele>3225.6</ele>
        <time>2021-08-06 16:43:12</time>
      </trkpt>
      <trkpt lat="37.05" lon="-3.37082">
        <ele>3225.8</ele>
        <time>2021-08-06 16:43:13</time>
      </trkpt>
      <trkpt lat="37.04998" lon="-3.37082">
        <ele>3225.8</ele>
        <time>2021-08-06 16:43:14</time>
      </trkpt>
      <trkpt lat="37.04997" lon="-3.37083">
        <ele>3226</ele>
        <time>2021-08-06 16:43:15</time>
      </trkpt>
      <trkpt lat="37.04996" lon="-3.37084">
        <ele>3226.2</ele>
        <time>2021-08-06 16:43:16</time>
      </trkpt>
      <trkpt lat="37.04995" lon="-3.37085">
        <ele>3226.2</ele>
        <time>2021-08-06 16:43:17</time>
      </trkpt>
      <trkpt lat="37.04994" lon="-3.37085">
        <ele>3226.2</ele>
        <time>2021-08-06 16:43:18</time>
      </trkpt>
      <trkpt lat="37.04993" lon="-3.37085">
        <ele>3226.4</ele>
        <time>2021-08-06 16:43:19</time>
      </trkpt>
      <trkpt lat="37.04992" lon="-3.37086">
        <ele>3226.4</ele>
        <time>2021-08-06 16:43:20</time>
      </trkpt>
      <trkpt lat="37.04991" lon="-3.37086">
        <ele>3226.4</ele>
        <time>2021-08-06 16:43:21</time>
      </trkpt>
      <trkpt lat="37.04989" lon="-3.37087">
        <ele>3226.6</ele>
        <time>2021-08-06 16:43:22</time>
      </trkpt>
      <trkpt lat="37.04988" lon="-3.37088">
        <ele>3226.6</ele>
        <time>2021-08-06 16:43:23</time>
      </trkpt>
      <trkpt lat="37.04987" lon="-3.37089">
        <ele>3226.6</ele>
        <time>2021-08-06 16:43:24</time>
      </trkpt>
      <trkpt lat="37.04986" lon="-3.3709">
        <ele>3226.6</ele>
        <time>2021-08-06 16:43:25</time>
      </trkpt>
      <trkpt lat="37.04985" lon="-3.37091">
        <ele>3226.6</ele>
        <time>2021-08-06 16:43:26</time>
      </trkpt>
      <trkpt lat="37.04984" lon="-3.37091">
        <ele>3226.6</ele>
        <time>2021-08-06 16:43:27</time>
      </trkpt>
      <trkpt lat="37.04983" lon="-3.37092">
        <ele>3227</ele>
        <time>2021-08-06 16:43:28</time>
      </trkpt>
      <trkpt lat="37.04982" lon="-3.37092">
        <ele>3227.2</ele>
        <time>2021-08-06 16:43:29</time>
      </trkpt>
      <trkpt lat="37.04981" lon="-3.37092">
        <ele>3227.2</ele>
        <time>2021-08-06 16:43:30</time>
      </trkpt>
      <trkpt lat="37.0498" lon="-3.37092">
        <ele>3227.4</ele>
        <time>2021-08-06 16:43:31</time>
      </trkpt>
      <trkpt lat="37.04979" lon="-3.37092">
        <ele>3227.6</ele>
        <time>2021-08-06 16:43:32</time>
      </trkpt>
      <trkpt lat="37.04978" lon="-3.37092">
        <ele>3227.6</ele>
        <time>2021-08-06 16:43:33</time>
      </trkpt>
      <trkpt lat="37.04977" lon="-3.37092">
        <ele>3227.6</ele>
        <time>2021-08-06 16:43:34</time>
      </trkpt>
      <trkpt lat="37.04976" lon="-3.37093">
        <ele>3227.6</ele>
        <time>2021-08-06 16:43:35</time>
      </trkpt>
      <trkpt lat="37.04975" lon="-3.37093">
        <ele>3228</ele>
        <time>2021-08-06 16:43:36</time>
      </trkpt>
      <trkpt lat="37.04975" lon="-3.37094">
        <ele>3228.2</ele>
        <time>2021-08-06 16:43:37</time>
      </trkpt>
      <trkpt lat="37.04974" lon="-3.37095">
        <ele>3228</ele>
        <time>2021-08-06 16:43:38</time>
      </trkpt>
      <trkpt lat="37.04973" lon="-3.37096">
        <ele>3228</ele>
        <time>2021-08-06 16:43:39</time>
      </trkpt>
      <trkpt lat="37.04972" lon="-3.37097">
        <ele>3228</ele>
        <time>2021-08-06 16:43:40</time>
      </trkpt>
      <trkpt lat="37.04971" lon="-3.37097">
        <ele>3228</ele>
        <time>2021-08-06 16:43:41</time>
      </trkpt>
      <trkpt lat="37.0497" lon="-3.37097">
        <ele>3227.8</ele>
        <time>2021-08-06 16:43:42</time>
      </trkpt>
      <trkpt lat="37.0497" lon="-3.37098">
        <ele>3227.6</ele>
        <time>2021-08-06 16:43:43</time>
      </trkpt>
      <trkpt lat="37.04969" lon="-3.37099">
        <ele>3227.6</ele>
        <time>2021-08-06 16:43:44</time>
      </trkpt>
      <trkpt lat="37.04969" lon="-3.371">
        <ele>3227.4</ele>
        <time>2021-08-06 16:43:45</time>
      </trkpt>
      <trkpt lat="37.04968" lon="-3.37101">
        <ele>3227.4</ele>
        <time>2021-08-06 16:43:46</time>
      </trkpt>
      <trkpt lat="37.04967" lon="-3.37101">
        <ele>3227.6</ele>
        <time>2021-08-06 16:43:47</time>
      </trkpt>
      <trkpt lat="37.04966" lon="-3.37102">
        <ele>3227.8</ele>
        <time>2021-08-06 16:43:48</time>
      </trkpt>
      <trkpt lat="37.04965" lon="-3.37103">
        <ele>3228</ele>
        <time>2021-08-06 16:43:49</time>
      </trkpt>
      <trkpt lat="37.04964" lon="-3.37104">
        <ele>3228</ele>
        <time>2021-08-06 16:43:50</time>
      </trkpt>
      <trkpt lat="37.04963" lon="-3.37105">
        <ele>3228</ele>
        <time>2021-08-06 16:43:51</time>
      </trkpt>
      <trkpt lat="37.04962" lon="-3.37107">
        <ele>3227.8</ele>
        <time>2021-08-06 16:43:52</time>
      </trkpt>
      <trkpt lat="37.04962" lon="-3.37108">
        <ele>3227.8</ele>
        <time>2021-08-06 16:43:53</time>
      </trkpt>
      <trkpt lat="37.04961" lon="-3.37109">
        <ele>3227.6</ele>
        <time>2021-08-06 16:43:54</time>
      </trkpt>
      <trkpt lat="37.04961" lon="-3.3711">
        <ele>3227.6</ele>
        <time>2021-08-06 16:43:55</time>
      </trkpt>
      <trkpt lat="37.0496" lon="-3.3711">
        <ele>3227.8</ele>
        <time>2021-08-06 16:43:56</time>
      </trkpt>
      <trkpt lat="37.04959" lon="-3.37112">
        <ele>3227.8</ele>
        <time>2021-08-06 16:43:57</time>
      </trkpt>
      <trkpt lat="37.04958" lon="-3.37113">
        <ele>3227.8</ele>
        <time>2021-08-06 16:43:58</time>
      </trkpt>
      <trkpt lat="37.04957" lon="-3.37114">
        <ele>3227.8</ele>
        <time>2021-08-06 16:43:59</time>
      </trkpt>
      <trkpt lat="37.04956" lon="-3.37114">
        <ele>3227.8</ele>
        <time>2021-08-06 16:44:00</time>
      </trkpt>
      <trkpt lat="37.04955" lon="-3.37115">
        <ele>3227.8</ele>
        <time>2021-08-06 16:44:01</time>
      </trkpt>
      <trkpt lat="37.04954" lon="-3.37116">
        <ele>3228</ele>
        <time>2021-08-06 16:44:02</time>
      </trkpt>
      <trkpt lat="37.04954" lon="-3.37117">
        <ele>3228.2</ele>
        <time>2021-08-06 16:44:03</time>
      </trkpt>
      <trkpt lat="37.04952" lon="-3.37117">
        <ele>3228.2</ele>
        <time>2021-08-06 16:44:04</time>
      </trkpt>
      <trkpt lat="37.04951" lon="-3.37118">
        <ele>3228.4</ele>
        <time>2021-08-06 16:44:05</time>
      </trkpt>
      <trkpt lat="37.0495" lon="-3.37119">
        <ele>3228.6</ele>
        <time>2021-08-06 16:44:06</time>
      </trkpt>
      <trkpt lat="37.04949" lon="-3.3712">
        <ele>3228.6</ele>
        <time>2021-08-06 16:44:07</time>
      </trkpt>
      <trkpt lat="37.04948" lon="-3.37121">
        <ele>3228.8</ele>
        <time>2021-08-06 16:44:08</time>
      </trkpt>
      <trkpt lat="37.04947" lon="-3.37122">
        <ele>3228.8</ele>
        <time>2021-08-06 16:44:09</time>
      </trkpt>
      <trkpt lat="37.04946" lon="-3.37123">
        <ele>3229</ele>
        <time>2021-08-06 16:44:10</time>
      </trkpt>
      <trkpt lat="37.04946" lon="-3.37124">
        <ele>3229</ele>
        <time>2021-08-06 16:44:11</time>
      </trkpt>
      <trkpt lat="37.04946" lon="-3.37125">
        <ele>3229</ele>
        <time>2021-08-06 16:44:12</time>
      </trkpt>
      <trkpt lat="37.04946" lon="-3.37126">
        <ele>3229</ele>
        <time>2021-08-06 16:44:13</time>
      </trkpt>
      <trkpt lat="37.04946" lon="-3.37127">
        <ele>3228.8</ele>
        <time>2021-08-06 16:44:14</time>
      </trkpt>
      <trkpt lat="37.04946" lon="-3.37129">
        <ele>3228.6</ele>
        <time>2021-08-06 16:44:15</time>
      </trkpt>
      <trkpt lat="37.04947" lon="-3.3713">
        <ele>3228.6</ele>
        <time>2021-08-06 16:44:16</time>
      </trkpt>
      <trkpt lat="37.04947" lon="-3.37132">
        <ele>3228.4</ele>
        <time>2021-08-06 16:44:17</time>
      </trkpt>
      <trkpt lat="37.04947" lon="-3.37133">
        <ele>3228.4</ele>
        <time>2021-08-06 16:44:18</time>
      </trkpt>
      <trkpt lat="37.04947" lon="-3.37135">
        <ele>3228.4</ele>
        <time>2021-08-06 16:44:19</time>
      </trkpt>
      <trkpt lat="37.04947" lon="-3.37136">
        <ele>3228.4</ele>
        <time>2021-08-06 16:44:20</time>
      </trkpt>
      <trkpt lat="37.04947" lon="-3.37138">
        <ele>3228.2</ele>
        <time>2021-08-06 16:44:21</time>
      </trkpt>
      <trkpt lat="37.04947" lon="-3.3714">
        <ele>3228.2</ele>
        <time>2021-08-06 16:44:22</time>
      </trkpt>
      <trkpt lat="37.04947" lon="-3.37141">
        <ele>3228.2</ele>
        <time>2021-08-06 16:44:23</time>
      </trkpt>
      <trkpt lat="37.04947" lon="-3.3714">
        <ele>3228</ele>
        <time>2021-08-06 16:44:24</time>
      </trkpt>
      <trkpt lat="37.04947" lon="-3.3714">
        <ele>3228</ele>
        <time>2021-08-06 16:44:25</time>
      </trkpt>
      <trkpt lat="37.04947" lon="-3.3714">
        <ele>3228.2</ele>
        <time>2021-08-06 16:44:26</time>
      </trkpt>
      <trkpt lat="37.04946" lon="-3.3714">
        <ele>3228.2</ele>
        <time>2021-08-06 16:44:27</time>
      </trkpt>
      <trkpt lat="37.04946" lon="-3.3714">
        <ele>3228.2</ele>
        <time>2021-08-06 16:44:28</time>
      </trkpt>
      <trkpt lat="37.04946" lon="-3.3714">
        <ele>3228.4</ele>
        <time>2021-08-06 16:44:29</time>
      </trkpt>
      <trkpt lat="37.04946" lon="-3.37141">
        <ele>3228.6</ele>
        <time>2021-08-06 16:44:30</time>
      </trkpt>
      <trkpt lat="37.04946" lon="-3.37141">
        <ele>3228.6</ele>
        <time>2021-08-06 16:44:31</time>
      </trkpt>
      <trkpt lat="37.04946" lon="-3.3714">
        <ele>3228.2</ele>
        <time>2021-08-06 16:44:32</time>
      </trkpt>
      <trkpt lat="37.04946" lon="-3.3714">
        <ele>3228.2</ele>
        <time>2021-08-06 16:44:33</time>
      </trkpt>
      <trkpt lat="37.04946" lon="-3.3714">
        <ele>3228.2</ele>
        <time>2021-08-06 16:44:34</time>
      </trkpt>
      <trkpt lat="37.04946" lon="-3.37139">
        <ele>3228.2</ele>
        <time>2021-08-06 16:44:35</time>
      </trkpt>
      <trkpt lat="37.04946" lon="-3.37138">
        <ele>3228.2</ele>
        <time>2021-08-06 16:44:36</time>
      </trkpt>
      <trkpt lat="37.04946" lon="-3.37138">
        <ele>3228.2</ele>
        <time>2021-08-06 16:44:37</time>
      </trkpt>
      <trkpt lat="37.04947" lon="-3.37138">
        <ele>3228.2</ele>
        <time>2021-08-06 16:44:38</time>
      </trkpt>
      <trkpt lat="37.04947" lon="-3.37138">
        <ele>3228.2</ele>
        <time>2021-08-06 16:44:39</time>
      </trkpt>
      <trkpt lat="37.04947" lon="-3.37139">
        <ele>3228.2</ele>
        <time>2021-08-06 16:44:40</time>
      </trkpt>
      <trkpt lat="37.04946" lon="-3.37141">
        <ele>3228.2</ele>
        <time>2021-08-06 16:44:41</time>
      </trkpt>
      <trkpt lat="37.04946" lon="-3.37142">
        <ele>3228.2</ele>
        <time>2021-08-06 16:44:42</time>
      </trkpt>
      <trkpt lat="37.04946" lon="-3.37144">
        <ele>3228.2</ele>
        <time>2021-08-06 16:44:43</time>
      </trkpt>
      <trkpt lat="37.04945" lon="-3.37145">
        <ele>3228.2</ele>
        <time>2021-08-06 16:44:44</time>
      </trkpt>
      <trkpt lat="37.04945" lon="-3.37146">
        <ele>3228.2</ele>
        <time>2021-08-06 16:44:45</time>
      </trkpt>
      <trkpt lat="37.04945" lon="-3.37147">
        <ele>3228.2</ele>
        <time>2021-08-06 16:44:46</time>
      </trkpt>
      <trkpt lat="37.04945" lon="-3.37148">
        <ele>3228.2</ele>
        <time>2021-08-06 16:44:47</time>
      </trkpt>
      <trkpt lat="37.04945" lon="-3.37149">
        <ele>3228.2</ele>
        <time>2021-08-06 16:44:48</time>
      </trkpt>
      <trkpt lat="37.04946" lon="-3.37149">
        <ele>3228.2</ele>
        <time>2021-08-06 16:44:49</time>
      </trkpt>
      <trkpt lat="37.04946" lon="-3.3715">
        <ele>3228.2</ele>
        <time>2021-08-06 16:44:50</time>
      </trkpt>
      <trkpt lat="37.04945" lon="-3.3715">
        <ele>3228.2</ele>
        <time>2021-08-06 16:44:51</time>
      </trkpt>
      <trkpt lat="37.04945" lon="-3.3715">
        <ele>3228.2</ele>
        <time>2021-08-06 16:44:52</time>
      </trkpt>
      <trkpt lat="37.04945" lon="-3.37149">
        <ele>3228.6</ele>
        <time>2021-08-06 16:44:53</time>
      </trkpt>
      <trkpt lat="37.04945" lon="-3.37149">
        <ele>3228.6</ele>
        <time>2021-08-06 16:44:54</time>
      </trkpt>
      <trkpt lat="37.04945" lon="-3.37149">
        <ele>3229.2</ele>
        <time>2021-08-06 16:44:55</time>
      </trkpt>
      <trkpt lat="37.04945" lon="-3.37149">
        <ele>3229.4</ele>
        <time>2021-08-06 16:44:56</time>
      </trkpt>
      <trkpt lat="37.04945" lon="-3.37149">
        <ele>3229.6</ele>
        <time>2021-08-06 16:44:57</time>
      </trkpt>
      <trkpt lat="37.04945" lon="-3.37149">
        <ele>3229.8</ele>
        <time>2021-08-06 16:44:58</time>
      </trkpt>
      <trkpt lat="37.04945" lon="-3.37149">
        <ele>3229.8</ele>
        <time>2021-08-06 16:44:59</time>
      </trkpt>
      <trkpt lat="37.04945" lon="-3.37149">
        <ele>3229.8</ele>
        <time>2021-08-06 16:45:00</time>
      </trkpt>
      <trkpt lat="37.04945" lon="-3.3715">
        <ele>3229.8</ele>
        <time>2021-08-06 16:45:01</time>
      </trkpt>
      <trkpt lat="37.04945" lon="-3.3715">
        <ele>3229.8</ele>
        <time>2021-08-06 16:45:02</time>
      </trkpt>
      <trkpt lat="37.04945" lon="-3.3715">
        <ele>3229.6</ele>
        <time>2021-08-06 16:45:03</time>
      </trkpt>
      <trkpt lat="37.04945" lon="-3.37151">
        <ele>3229.6</ele>
        <time>2021-08-06 16:45:04</time>
      </trkpt>
      <trkpt lat="37.04945" lon="-3.37151">
        <ele>3229.4</ele>
        <time>2021-08-06 16:45:05</time>
      </trkpt>
      <trkpt lat="37.04945" lon="-3.37151">
        <ele>3229.2</ele>
        <time>2021-08-06 16:45:06</time>
      </trkpt>
      <trkpt lat="37.04945" lon="-3.37151">
        <ele>3229</ele>
        <time>2021-08-06 16:45:07</time>
      </trkpt>
      <trkpt lat="37.04945" lon="-3.37151">
        <ele>3229</ele>
        <time>2021-08-06 16:45:08</time>
      </trkpt>
      <trkpt lat="37.04945" lon="-3.37151">
        <ele>3229.2</ele>
        <time>2021-08-06 16:45:09</time>
      </trkpt>
      <trkpt lat="37.04945" lon="-3.37152">
        <ele>3229.2</ele>
        <time>2021-08-06 16:45:10</time>
      </trkpt>
      <trkpt lat="37.04945" lon="-3.37152">
        <ele>3229.4</ele>
        <time>2021-08-06 16:45:11</time>
      </trkpt>
      <trkpt lat="37.04945" lon="-3.37152">
        <ele>3229.4</ele>
        <time>2021-08-06 16:45:12</time>
      </trkpt>
      <trkpt lat="37.04945" lon="-3.37152">
        <ele>3229.4</ele>
        <time>2021-08-06 16:45:13</time>
      </trkpt>
      <trkpt lat="37.04945" lon="-3.37152">
        <ele>3229.2</ele>
        <time>2021-08-06 16:45:14</time>
      </trkpt>
      <trkpt lat="37.04945" lon="-3.37152">
        <ele>3229.2</ele>
        <time>2021-08-06 16:45:15</time>
      </trkpt>
      <trkpt lat="37.04945" lon="-3.37152">
        <ele>3229.2</ele>
        <time>2021-08-06 16:45:16</time>
      </trkpt>
      <trkpt lat="37.04946" lon="-3.37152">
        <ele>3229.2</ele>
        <time>2021-08-06 16:45:17</time>
      </trkpt>
      <trkpt lat="37.04946" lon="-3.37153">
        <ele>3229.2</ele>
        <time>2021-08-06 16:45:18</time>
      </trkpt>
      <trkpt lat="37.04946" lon="-3.37153">
        <ele>3229.2</ele>
        <time>2021-08-06 16:45:19</time>
      </trkpt>
      <trkpt lat="37.04946" lon="-3.37153">
        <ele>3229.2</ele>
        <time>2021-08-06 16:45:20</time>
      </trkpt>
      <trkpt lat="37.04946" lon="-3.37153">
        <ele>3229.2</ele>
        <time>2021-08-06 16:45:21</time>
      </trkpt>
      <trkpt lat="37.04946" lon="-3.37153">
        <ele>3229</ele>
        <time>2021-08-06 16:45:22</time>
      </trkpt>
      <trkpt lat="37.04946" lon="-3.37153">
        <ele>3228.6</ele>
        <time>2021-08-06 16:45:23</time>
      </trkpt>
      <trkpt lat="37.04946" lon="-3.37153">
        <ele>3228.6</ele>
        <time>2021-08-06 16:45:24</time>
      </trkpt>
      <trkpt lat="37.04946" lon="-3.37154">
        <ele>3228.4</ele>
        <time>2021-08-06 16:45:25</time>
      </trkpt>
      <trkpt lat="37.04946" lon="-3.37154">
        <ele>3228.4</ele>
        <time>2021-08-06 16:45:26</time>
      </trkpt>
      <trkpt lat="37.04946" lon="-3.37154">
        <ele>3228.4</ele>
        <time>2021-08-06 16:45:27</time>
      </trkpt>
      <trkpt lat="37.04946" lon="-3.37154">
        <ele>3228.8</ele>
        <time>2021-08-06 16:45:28</time>
      </trkpt>
      <trkpt lat="37.04945" lon="-3.37154">
        <ele>3229.2</ele>
        <time>2021-08-06 16:45:29</time>
      </trkpt>
      <trkpt lat="37.04945" lon="-3.37154">
        <ele>3229.2</ele>
        <time>2021-08-06 16:45:30</time>
      </trkpt>
      <trkpt lat="37.04945" lon="-3.37154">
        <ele>3229.2</ele>
        <time>2021-08-06 16:45:31</time>
      </trkpt>
      <trkpt lat="37.04945" lon="-3.37154">
        <ele>3229.2</ele>
        <time>2021-08-06 16:45:32</time>
      </trkpt>
      <trkpt lat="37.04945" lon="-3.37154">
        <ele>3228.8</ele>
        <time>2021-08-06 16:45:33</time>
      </trkpt>
      <trkpt lat="37.04945" lon="-3.37154">
        <ele>3228.4</ele>
        <time>2021-08-06 16:45:34</time>
      </trkpt>
      <trkpt lat="37.04946" lon="-3.37154">
        <ele>3228.4</ele>
        <time>2021-08-06 16:45:35</time>
      </trkpt>
      <trkpt lat="37.04946" lon="-3.37154">
        <ele>3228.2</ele>
        <time>2021-08-06 16:45:36</time>
      </trkpt>
      <trkpt lat="37.04946" lon="-3.37154">
        <ele>3228.2</ele>
        <time>2021-08-06 16:45:37</time>
      </trkpt>
      <trkpt lat="37.04946" lon="-3.37154">
        <ele>3228.2</ele>
        <time>2021-08-06 16:45:38</time>
      </trkpt>
      <trkpt lat="37.04946" lon="-3.37154">
        <ele>3228.2</ele>
        <time>2021-08-06 16:45:39</time>
      </trkpt>
      <trkpt lat="37.04945" lon="-3.37154">
        <ele>3228.2</ele>
        <time>2021-08-06 16:45:40</time>
      </trkpt>
      <trkpt lat="37.04945" lon="-3.37155">
        <ele>3228</ele>
        <time>2021-08-06 16:45:41</time>
      </trkpt>
      <trkpt lat="37.04945" lon="-3.37155">
        <ele>3227.8</ele>
        <time>2021-08-06 16:45:42</time>
      </trkpt>
      <trkpt lat="37.04945" lon="-3.37155">
        <ele>3227.8</ele>
        <time>2021-08-06 16:45:43</time>
      </trkpt>
      <trkpt lat="37.04945" lon="-3.37156">
        <ele>3227.8</ele>
        <time>2021-08-06 16:45:44</time>
      </trkpt>
      <trkpt lat="37.04945" lon="-3.37156">
        <ele>3227.8</ele>
        <time>2021-08-06 16:45:45</time>
      </trkpt>
      <trkpt lat="37.04944" lon="-3.37156">
        <ele>3227.8</ele>
        <time>2021-08-06 16:45:46</time>
      </trkpt>
      <trkpt lat="37.04945" lon="-3.37155">
        <ele>3228</ele>
        <time>2021-08-06 16:45:47</time>
      </trkpt>
      <trkpt lat="37.04945" lon="-3.37155">
        <ele>3228.4</ele>
        <time>2021-08-06 16:45:48</time>
      </trkpt>
      <trkpt lat="37.04944" lon="-3.37155">
        <ele>3228.8</ele>
        <time>2021-08-06 16:45:49</time>
      </trkpt>
      <trkpt lat="37.04944" lon="-3.37155">
        <ele>3229</ele>
        <time>2021-08-06 16:45:50</time>
      </trkpt>
      <trkpt lat="37.04944" lon="-3.37155">
        <ele>3229</ele>
        <time>2021-08-06 16:45:51</time>
      </trkpt>
      <trkpt lat="37.04944" lon="-3.37155">
        <ele>3229.2</ele>
        <time>2021-08-06 16:45:52</time>
      </trkpt>
      <trkpt lat="37.04944" lon="-3.37155">
        <ele>3229.2</ele>
        <time>2021-08-06 16:45:53</time>
      </trkpt>
      <trkpt lat="37.04945" lon="-3.37154">
        <ele>3229.2</ele>
        <time>2021-08-06 16:45:54</time>
      </trkpt>
      <trkpt lat="37.04945" lon="-3.37153">
        <ele>3229.8</ele>
        <time>2021-08-06 16:45:55</time>
      </trkpt>
      <trkpt lat="37.04945" lon="-3.37151">
        <ele>3229.8</ele>
        <time>2021-08-06 16:45:56</time>
      </trkpt>
      <trkpt lat="37.04946" lon="-3.3715">
        <ele>3229.8</ele>
        <time>2021-08-06 16:45:57</time>
      </trkpt>
      <trkpt lat="37.04946" lon="-3.37149">
        <ele>3229.8</ele>
        <time>2021-08-06 16:45:58</time>
      </trkpt>
      <trkpt lat="37.04946" lon="-3.37148">
        <ele>3229.8</ele>
        <time>2021-08-06 16:45:59</time>
      </trkpt>
      <trkpt lat="37.04947" lon="-3.37147">
        <ele>3229.8</ele>
        <time>2021-08-06 16:46:00</time>
      </trkpt>
      <trkpt lat="37.04947" lon="-3.37147">
        <ele>3229.8</ele>
        <time>2021-08-06 16:46:01</time>
      </trkpt>
      <trkpt lat="37.04948" lon="-3.37146">
        <ele>3229.8</ele>
        <time>2021-08-06 16:46:02</time>
      </trkpt>
      <trkpt lat="37.04948" lon="-3.37145">
        <ele>3229.8</ele>
        <time>2021-08-06 16:46:03</time>
      </trkpt>
      <trkpt lat="37.0495" lon="-3.37145">
        <ele>3229.8</ele>
        <time>2021-08-06 16:46:04</time>
      </trkpt>
      <trkpt lat="37.0495" lon="-3.37143">
        <ele>3229.8</ele>
        <time>2021-08-06 16:46:05</time>
      </trkpt>
      <trkpt lat="37.04951" lon="-3.37142">
        <ele>3229.8</ele>
        <time>2021-08-06 16:46:06</time>
      </trkpt>
      <trkpt lat="37.04951" lon="-3.37141">
        <ele>3229.8</ele>
        <time>2021-08-06 16:46:07</time>
      </trkpt>
      <trkpt lat="37.04951" lon="-3.3714">
        <ele>3229.8</ele>
        <time>2021-08-06 16:46:08</time>
      </trkpt>
      <trkpt lat="37.04951" lon="-3.37139">
        <ele>3229.8</ele>
        <time>2021-08-06 16:46:09</time>
      </trkpt>
      <trkpt lat="37.04951" lon="-3.37139">
        <ele>3229.8</ele>
        <time>2021-08-06 16:46:10</time>
      </trkpt>
      <trkpt lat="37.04951" lon="-3.37138">
        <ele>3229.8</ele>
        <time>2021-08-06 16:46:11</time>
      </trkpt>
      <trkpt lat="37.04951" lon="-3.37138">
        <ele>3229.8</ele>
        <time>2021-08-06 16:46:12</time>
      </trkpt>
      <trkpt lat="37.04951" lon="-3.37138">
        <ele>3229.8</ele>
        <time>2021-08-06 16:46:13</time>
      </trkpt>
      <trkpt lat="37.04953" lon="-3.37137">
        <ele>3229.8</ele>
        <time>2021-08-06 16:46:14</time>
      </trkpt>
      <trkpt lat="37.04953" lon="-3.37138">
        <ele>3230</ele>
        <time>2021-08-06 16:46:15</time>
      </trkpt>
      <trkpt lat="37.04954" lon="-3.37137">
        <ele>3230.2</ele>
        <time>2021-08-06 16:46:16</time>
      </trkpt>
      <trkpt lat="37.04955" lon="-3.37136">
        <ele>3230.4</ele>
        <time>2021-08-06 16:46:17</time>
      </trkpt>
      <trkpt lat="37.04956" lon="-3.37136">
        <ele>3230.6</ele>
        <time>2021-08-06 16:46:18</time>
      </trkpt>
      <trkpt lat="37.04955" lon="-3.37136">
        <ele>3230.6</ele>
        <time>2021-08-06 16:46:19</time>
      </trkpt>
      <trkpt lat="37.04956" lon="-3.37136">
        <ele>3230.6</ele>
        <time>2021-08-06 16:46:20</time>
      </trkpt>
      <trkpt lat="37.04958" lon="-3.37136">
        <ele>3230.6</ele>
        <time>2021-08-06 16:46:21</time>
      </trkpt>
      <trkpt lat="37.04959" lon="-3.37135">
        <ele>3230.8</ele>
        <time>2021-08-06 16:46:22</time>
      </trkpt>
      <trkpt lat="37.0496" lon="-3.37135">
        <ele>3231</ele>
        <time>2021-08-06 16:46:23</time>
      </trkpt>
      <trkpt lat="37.04961" lon="-3.37135">
        <ele>3231.2</ele>
        <time>2021-08-06 16:46:24</time>
      </trkpt>
      <trkpt lat="37.04962" lon="-3.37134">
        <ele>3231.4</ele>
        <time>2021-08-06 16:46:25</time>
      </trkpt>
      <trkpt lat="37.04963" lon="-3.37133">
        <ele>3231.6</ele>
        <time>2021-08-06 16:46:26</time>
      </trkpt>
      <trkpt lat="37.04963" lon="-3.37133">
        <ele>3232</ele>
        <time>2021-08-06 16:46:27</time>
      </trkpt>
      <trkpt lat="37.04964" lon="-3.37132">
        <ele>3232</ele>
        <time>2021-08-06 16:46:28</time>
      </trkpt>
      <trkpt lat="37.04964" lon="-3.37131">
        <ele>3232.2</ele>
        <time>2021-08-06 16:46:29</time>
      </trkpt>
      <trkpt lat="37.04965" lon="-3.3713">
        <ele>3232.4</ele>
        <time>2021-08-06 16:46:30</time>
      </trkpt>
      <trkpt lat="37.04965" lon="-3.3713">
        <ele>3232.6</ele>
        <time>2021-08-06 16:46:31</time>
      </trkpt>
      <trkpt lat="37.04964" lon="-3.37129">
        <ele>3232.8</ele>
        <time>2021-08-06 16:46:32</time>
      </trkpt>
      <trkpt lat="37.04964" lon="-3.37128">
        <ele>3233</ele>
        <time>2021-08-06 16:46:33</time>
      </trkpt>
      <trkpt lat="37.04964" lon="-3.37128">
        <ele>3233</ele>
        <time>2021-08-06 16:46:34</time>
      </trkpt>
      <trkpt lat="37.04964" lon="-3.37127">
        <ele>3233</ele>
        <time>2021-08-06 16:46:35</time>
      </trkpt>
      <trkpt lat="37.04965" lon="-3.37127">
        <ele>3233</ele>
        <time>2021-08-06 16:46:36</time>
      </trkpt>
      <trkpt lat="37.04965" lon="-3.37126">
        <ele>3233.4</ele>
        <time>2021-08-06 16:46:37</time>
      </trkpt>
      <trkpt lat="37.04966" lon="-3.37125">
        <ele>3233.8</ele>
        <time>2021-08-06 16:46:38</time>
      </trkpt>
      <trkpt lat="37.04966" lon="-3.37124">
        <ele>3234</ele>
        <time>2021-08-06 16:46:39</time>
      </trkpt>
      <trkpt lat="37.04967" lon="-3.37123">
        <ele>3234</ele>
        <time>2021-08-06 16:46:40</time>
      </trkpt>
      <trkpt lat="37.04968" lon="-3.37122">
        <ele>3234.2</ele>
        <time>2021-08-06 16:46:41</time>
      </trkpt>
      <trkpt lat="37.0497" lon="-3.37121">
        <ele>3234.4</ele>
        <time>2021-08-06 16:46:42</time>
      </trkpt>
      <trkpt lat="37.04971" lon="-3.3712">
        <ele>3234.4</ele>
        <time>2021-08-06 16:46:43</time>
      </trkpt>
      <trkpt lat="37.04972" lon="-3.37119">
        <ele>3234.6</ele>
        <time>2021-08-06 16:46:44</time>
      </trkpt>
      <trkpt lat="37.04973" lon="-3.37118">
        <ele>3234.8</ele>
        <time>2021-08-06 16:46:45</time>
      </trkpt>
      <trkpt lat="37.04973" lon="-3.37117">
        <ele>3235</ele>
        <time>2021-08-06 16:46:46</time>
      </trkpt>
      <trkpt lat="37.04974" lon="-3.37116">
        <ele>3235</ele>
        <time>2021-08-06 16:46:47</time>
      </trkpt>
      <trkpt lat="37.04975" lon="-3.37115">
        <ele>3235</ele>
        <time>2021-08-06 16:46:48</time>
      </trkpt>
      <trkpt lat="37.04975" lon="-3.37113">
        <ele>3235</ele>
        <time>2021-08-06 16:46:49</time>
      </trkpt>
      <trkpt lat="37.04975" lon="-3.37112">
        <ele>3235</ele>
        <time>2021-08-06 16:46:50</time>
      </trkpt>
      <trkpt lat="37.04975" lon="-3.37111">
        <ele>3235</ele>
        <time>2021-08-06 16:46:51</time>
      </trkpt>
      <trkpt lat="37.04975" lon="-3.37111">
        <ele>3235</ele>
        <time>2021-08-06 16:46:52</time>
      </trkpt>
      <trkpt lat="37.04975" lon="-3.3711">
        <ele>3235</ele>
        <time>2021-08-06 16:46:53</time>
      </trkpt>
      <trkpt lat="37.04976" lon="-3.3711">
        <ele>3235.2</ele>
        <time>2021-08-06 16:46:54</time>
      </trkpt>
      <trkpt lat="37.04976" lon="-3.3711">
        <ele>3235.6</ele>
        <time>2021-08-06 16:46:55</time>
      </trkpt>
      <trkpt lat="37.04977" lon="-3.3711">
        <ele>3235.8</ele>
        <time>2021-08-06 16:46:56</time>
      </trkpt>
      <trkpt lat="37.04977" lon="-3.3711">
        <ele>3235.8</ele>
        <time>2021-08-06 16:46:57</time>
      </trkpt>
      <trkpt lat="37.04977" lon="-3.37111">
        <ele>3235.8</ele>
        <time>2021-08-06 16:46:58</time>
      </trkpt>
      <trkpt lat="37.04977" lon="-3.37112">
        <ele>3235.6</ele>
        <time>2021-08-06 16:46:59</time>
      </trkpt>
      <trkpt lat="37.04977" lon="-3.37112">
        <ele>3235.4</ele>
        <time>2021-08-06 16:47:00</time>
      </trkpt>
      <trkpt lat="37.04977" lon="-3.37113">
        <ele>3235.4</ele>
        <time>2021-08-06 16:47:01</time>
      </trkpt>
      <trkpt lat="37.04978" lon="-3.37114">
        <ele>3235.4</ele>
        <time>2021-08-06 16:47:02</time>
      </trkpt>
      <trkpt lat="37.04978" lon="-3.37115">
        <ele>3235.4</ele>
        <time>2021-08-06 16:47:03</time>
      </trkpt>
      <trkpt lat="37.04979" lon="-3.37116">
        <ele>3235.4</ele>
        <time>2021-08-06 16:47:04</time>
      </trkpt>
      <trkpt lat="37.04979" lon="-3.37117">
        <ele>3235.4</ele>
        <time>2021-08-06 16:47:05</time>
      </trkpt>
      <trkpt lat="37.0498" lon="-3.37118">
        <ele>3235.4</ele>
        <time>2021-08-06 16:47:06</time>
      </trkpt>
      <trkpt lat="37.04981" lon="-3.37119">
        <ele>3235.4</ele>
        <time>2021-08-06 16:47:07</time>
      </trkpt>
      <trkpt lat="37.04981" lon="-3.37119">
        <ele>3235.4</ele>
        <time>2021-08-06 16:47:08</time>
      </trkpt>
      <trkpt lat="37.04982" lon="-3.3712">
        <ele>3235</ele>
        <time>2021-08-06 16:47:09</time>
      </trkpt>
      <trkpt lat="37.04981" lon="-3.3712">
        <ele>3234.8</ele>
        <time>2021-08-06 16:47:10</time>
      </trkpt>
      <trkpt lat="37.04982" lon="-3.3712">
        <ele>3234.8</ele>
        <time>2021-08-06 16:47:11</time>
      </trkpt>
      <trkpt lat="37.04982" lon="-3.37121">
        <ele>3234.8</ele>
        <time>2021-08-06 16:47:12</time>
      </trkpt>
      <trkpt lat="37.04983" lon="-3.37122">
        <ele>3234.8</ele>
        <time>2021-08-06 16:47:13</time>
      </trkpt>
      <trkpt lat="37.04983" lon="-3.37122">
        <ele>3234.8</ele>
        <time>2021-08-06 16:47:14</time>
      </trkpt>
      <trkpt lat="37.04985" lon="-3.37124">
        <ele>3234.8</ele>
        <time>2021-08-06 16:47:15</time>
      </trkpt>
      <trkpt lat="37.04987" lon="-3.37124">
        <ele>3234.8</ele>
        <time>2021-08-06 16:47:16</time>
      </trkpt>
      <trkpt lat="37.04968" lon="-3.37113">
        <ele>3203.8</ele>
        <time>2021-08-06 16:47:17</time>
      </trkpt>
      <trkpt lat="37.04968" lon="-3.37112">
        <ele>3203.8</ele>
        <time>2021-08-06 16:47:18</time>
      </trkpt>
      <trkpt lat="37.04968" lon="-3.37112">
        <ele>3203.8</ele>
        <time>2021-08-06 16:47:19</time>
      </trkpt>
      <trkpt lat="37.04969" lon="-3.37111">
        <ele>3203.8</ele>
        <time>2021-08-06 16:47:20</time>
      </trkpt>
      <trkpt lat="37.04969" lon="-3.37108">
        <ele>3203.8</ele>
        <time>2021-08-06 16:47:21</time>
      </trkpt>
      <trkpt lat="37.04969" lon="-3.37108">
        <ele>3203.8</ele>
        <time>2021-08-06 16:47:22</time>
      </trkpt>
      <trkpt lat="37.04968" lon="-3.37109">
        <ele>3203.8</ele>
        <time>2021-08-06 16:47:23</time>
      </trkpt>
      <trkpt lat="37.04968" lon="-3.37109">
        <ele>3203.8</ele>
        <time>2021-08-06 16:47:24</time>
      </trkpt>
      <trkpt lat="37.04968" lon="-3.3711">
        <ele>3203.8</ele>
        <time>2021-08-06 16:47:25</time>
      </trkpt>
      <trkpt lat="37.04968" lon="-3.37111">
        <ele>3203.8</ele>
        <time>2021-08-06 16:47:26</time>
      </trkpt>
      <trkpt lat="37.04968" lon="-3.37111">
        <ele>3203.6</ele>
        <time>2021-08-06 16:47:27</time>
      </trkpt>
      <trkpt lat="37.04969" lon="-3.37111">
        <ele>3203.6</ele>
        <time>2021-08-06 16:47:28</time>
      </trkpt>
      <trkpt lat="37.04977" lon="-3.37121">
        <ele>3206</ele>
        <time>2021-08-06 16:47:29</time>
      </trkpt>
      <trkpt lat="37.04977" lon="-3.37121">
        <ele>3206</ele>
        <time>2021-08-06 16:47:30</time>
      </trkpt>
      <trkpt lat="37.04977" lon="-3.37121">
        <ele>3206</ele>
        <time>2021-08-06 16:47:31</time>
      </trkpt>
      <trkpt lat="37.04977" lon="-3.37121">
        <ele>3206</ele>
        <time>2021-08-06 16:47:32</time>
      </trkpt>
      <trkpt lat="37.04977" lon="-3.3712">
        <ele>3206.2</ele>
        <time>2021-08-06 16:47:33</time>
      </trkpt>
      <trkpt lat="37.04976" lon="-3.37121">
        <ele>3206.4</ele>
        <time>2021-08-06 16:47:34</time>
      </trkpt>
      <trkpt lat="37.04976" lon="-3.37121">
        <ele>3206.8</ele>
        <time>2021-08-06 16:47:35</time>
      </trkpt>
      <trkpt lat="37.04976" lon="-3.37121">
        <ele>3206.8</ele>
        <time>2021-08-06 16:47:36</time>
      </trkpt>
      <trkpt lat="37.04976" lon="-3.3712">
        <ele>3206.8</ele>
        <time>2021-08-06 16:47:37</time>
      </trkpt>
      <trkpt lat="37.04976" lon="-3.3712">
        <ele>3207</ele>
        <time>2021-08-06 16:47:38</time>
      </trkpt>
      <trkpt lat="37.04975" lon="-3.3712">
        <ele>3207</ele>
        <time>2021-08-06 16:47:39</time>
      </trkpt>
      <trkpt lat="37.04975" lon="-3.37121">
        <ele>3206.8</ele>
        <time>2021-08-06 16:47:40</time>
      </trkpt>
      <trkpt lat="37.04975" lon="-3.37122">
        <ele>3206.8</ele>
        <time>2021-08-06 16:47:41</time>
      </trkpt>
      <trkpt lat="37.04975" lon="-3.37123">
        <ele>3206.8</ele>
        <time>2021-08-06 16:47:42</time>
      </trkpt>
      <trkpt lat="37.04975" lon="-3.37124">
        <ele>3206.8</ele>
        <time>2021-08-06 16:47:43</time>
      </trkpt>
      <trkpt lat="37.04974" lon="-3.37125">
        <ele>3206.8</ele>
        <time>2021-08-06 16:47:44</time>
      </trkpt>
      <trkpt lat="37.04974" lon="-3.37126">
        <ele>3206.6</ele>
        <time>2021-08-06 16:47:45</time>
      </trkpt>
      <trkpt lat="37.04974" lon="-3.37128">
        <ele>3206</ele>
        <time>2021-08-06 16:47:46</time>
      </trkpt>
      <trkpt lat="37.04974" lon="-3.37129">
        <ele>3205.6</ele>
        <time>2021-08-06 16:47:47</time>
      </trkpt>
      <trkpt lat="37.04973" lon="-3.3713">
        <ele>3205.4</ele>
        <time>2021-08-06 16:47:48</time>
      </trkpt>
      <trkpt lat="37.04975" lon="-3.37131">
        <ele>3205.2</ele>
        <time>2021-08-06 16:47:49</time>
      </trkpt>
      <trkpt lat="37.04975" lon="-3.37132">
        <ele>3205.4</ele>
        <time>2021-08-06 16:47:50</time>
      </trkpt>
      <trkpt lat="37.04974" lon="-3.37133">
        <ele>3205.6</ele>
        <time>2021-08-06 16:47:51</time>
      </trkpt>
      <trkpt lat="37.04973" lon="-3.37134">
        <ele>3205.6</ele>
        <time>2021-08-06 16:47:52</time>
      </trkpt>
      <trkpt lat="37.0497" lon="-3.37135">
        <ele>3206</ele>
        <time>2021-08-06 16:47:53</time>
      </trkpt>
      <trkpt lat="37.04969" lon="-3.37136">
        <ele>3206.2</ele>
        <time>2021-08-06 16:47:54</time>
      </trkpt>
      <trkpt lat="37.04969" lon="-3.37137">
        <ele>3206.2</ele>
        <time>2021-08-06 16:47:55</time>
      </trkpt>
      <trkpt lat="37.04968" lon="-3.37137">
        <ele>3206.2</ele>
        <time>2021-08-06 16:47:56</time>
      </trkpt>
      <trkpt lat="37.04967" lon="-3.37138">
        <ele>3206.2</ele>
        <time>2021-08-06 16:47:57</time>
      </trkpt>
      <trkpt lat="37.04966" lon="-3.37139">
        <ele>3206</ele>
        <time>2021-08-06 16:47:58</time>
      </trkpt>
      <trkpt lat="37.04965" lon="-3.37139">
        <ele>3205.6</ele>
        <time>2021-08-06 16:47:59</time>
      </trkpt>
      <trkpt lat="37.04964" lon="-3.3714">
        <ele>3205.2</ele>
        <time>2021-08-06 16:48:00</time>
      </trkpt>
      <trkpt lat="37.04963" lon="-3.3714">
        <ele>3204.8</ele>
        <time>2021-08-06 16:48:01</time>
      </trkpt>
      <trkpt lat="37.04961" lon="-3.3714">
        <ele>3204.6</ele>
        <time>2021-08-06 16:48:02</time>
      </trkpt>
      <trkpt lat="37.0496" lon="-3.3714">
        <ele>3204.2</ele>
        <time>2021-08-06 16:48:03</time>
      </trkpt>
      <trkpt lat="37.04959" lon="-3.37141">
        <ele>3203.6</ele>
        <time>2021-08-06 16:48:04</time>
      </trkpt>
      <trkpt lat="37.04957" lon="-3.3714">
        <ele>3203</ele>
        <time>2021-08-06 16:48:05</time>
      </trkpt>
      <trkpt lat="37.04955" lon="-3.37139">
        <ele>3202.2</ele>
        <time>2021-08-06 16:48:06</time>
      </trkpt>
      <trkpt lat="37.04954" lon="-3.3714">
        <ele>3201.6</ele>
        <time>2021-08-06 16:48:07</time>
      </trkpt>
      <trkpt lat="37.04954" lon="-3.3714">
        <ele>3201.4</ele>
        <time>2021-08-06 16:48:08</time>
      </trkpt>
      <trkpt lat="37.04953" lon="-3.37141">
        <ele>3201.2</ele>
        <time>2021-08-06 16:48:09</time>
      </trkpt>
      <trkpt lat="37.04952" lon="-3.37142">
        <ele>3201</ele>
        <time>2021-08-06 16:48:10</time>
      </trkpt>
      <trkpt lat="37.04951" lon="-3.37143">
        <ele>3201</ele>
        <time>2021-08-06 16:48:11</time>
      </trkpt>
      <trkpt lat="37.0495" lon="-3.37144">
        <ele>3200.6</ele>
        <time>2021-08-06 16:48:12</time>
      </trkpt>
      <trkpt lat="37.04949" lon="-3.37145">
        <ele>3200.4</ele>
        <time>2021-08-06 16:48:13</time>
      </trkpt>
      <trkpt lat="37.04949" lon="-3.37147">
        <ele>3200.4</ele>
        <time>2021-08-06 16:48:14</time>
      </trkpt>
      <trkpt lat="37.04949" lon="-3.37148">
        <ele>3200.2</ele>
        <time>2021-08-06 16:48:15</time>
      </trkpt>
      <trkpt lat="37.0495" lon="-3.37148">
        <ele>3199.8</ele>
        <time>2021-08-06 16:48:16</time>
      </trkpt>
      <trkpt lat="37.0495" lon="-3.37149">
        <ele>3199.4</ele>
        <time>2021-08-06 16:48:17</time>
      </trkpt>
      <trkpt lat="37.04951" lon="-3.3715">
        <ele>3199.2</ele>
        <time>2021-08-06 16:48:18</time>
      </trkpt>
      <trkpt lat="37.04952" lon="-3.37151">
        <ele>3199</ele>
        <time>2021-08-06 16:48:19</time>
      </trkpt>
      <trkpt lat="37.04953" lon="-3.37152">
        <ele>3199</ele>
        <time>2021-08-06 16:48:20</time>
      </trkpt>
      <trkpt lat="37.04954" lon="-3.37153">
        <ele>3199.2</ele>
        <time>2021-08-06 16:48:21</time>
      </trkpt>
      <trkpt lat="37.04955" lon="-3.37155">
        <ele>3199.4</ele>
        <time>2021-08-06 16:48:22</time>
      </trkpt>
      <trkpt lat="37.04956" lon="-3.37156">
        <ele>3199.6</ele>
        <time>2021-08-06 16:48:23</time>
      </trkpt>
      <trkpt lat="37.04957" lon="-3.37155">
        <ele>3199.8</ele>
        <time>2021-08-06 16:48:24</time>
      </trkpt>
      <trkpt lat="37.04959" lon="-3.37155">
        <ele>3199.8</ele>
        <time>2021-08-06 16:48:25</time>
      </trkpt>
      <trkpt lat="37.0496" lon="-3.37156">
        <ele>3200</ele>
        <time>2021-08-06 16:48:26</time>
      </trkpt>
      <trkpt lat="37.04961" lon="-3.37156">
        <ele>3199.8</ele>
        <time>2021-08-06 16:48:27</time>
      </trkpt>
      <trkpt lat="37.04961" lon="-3.37157">
        <ele>3199.8</ele>
        <time>2021-08-06 16:48:28</time>
      </trkpt>
      <trkpt lat="37.04962" lon="-3.37157">
        <ele>3199.8</ele>
        <time>2021-08-06 16:48:29</time>
      </trkpt>
      <trkpt lat="37.04963" lon="-3.37158">
        <ele>3199.6</ele>
        <time>2021-08-06 16:48:30</time>
      </trkpt>
      <trkpt lat="37.04964" lon="-3.37159">
        <ele>3199.6</ele>
        <time>2021-08-06 16:48:31</time>
      </trkpt>
      <trkpt lat="37.04965" lon="-3.3716">
        <ele>3199.6</ele>
        <time>2021-08-06 16:48:32</time>
      </trkpt>
      <trkpt lat="37.04966" lon="-3.37161">
        <ele>3199.6</ele>
        <time>2021-08-06 16:48:33</time>
      </trkpt>
      <trkpt lat="37.04967" lon="-3.37161">
        <ele>3199.4</ele>
        <time>2021-08-06 16:48:34</time>
      </trkpt>
      <trkpt lat="37.04968" lon="-3.37162">
        <ele>3199.4</ele>
        <time>2021-08-06 16:48:35</time>
      </trkpt>
      <trkpt lat="37.0497" lon="-3.37164">
        <ele>3199.2</ele>
        <time>2021-08-06 16:48:36</time>
      </trkpt>
      <trkpt lat="37.0497" lon="-3.37165">
        <ele>3199.2</ele>
        <time>2021-08-06 16:48:37</time>
      </trkpt>
      <trkpt lat="37.04971" lon="-3.37166">
        <ele>3199.2</ele>
        <time>2021-08-06 16:48:38</time>
      </trkpt>
      <trkpt lat="37.04972" lon="-3.37167">
        <ele>3199.2</ele>
        <time>2021-08-06 16:48:39</time>
      </trkpt>
      <trkpt lat="37.04973" lon="-3.37168">
        <ele>3199.2</ele>
        <time>2021-08-06 16:48:40</time>
      </trkpt>
      <trkpt lat="37.04974" lon="-3.37168">
        <ele>3199.2</ele>
        <time>2021-08-06 16:48:41</time>
      </trkpt>
      <trkpt lat="37.04974" lon="-3.37169">
        <ele>3199.2</ele>
        <time>2021-08-06 16:48:42</time>
      </trkpt>
      <trkpt lat="37.04975" lon="-3.3717">
        <ele>3199.4</ele>
        <time>2021-08-06 16:48:43</time>
      </trkpt>
      <trkpt lat="37.04976" lon="-3.37171">
        <ele>3199.4</ele>
        <time>2021-08-06 16:48:44</time>
      </trkpt>
      <trkpt lat="37.04976" lon="-3.37171">
        <ele>3199.4</ele>
        <time>2021-08-06 16:48:45</time>
      </trkpt>
      <trkpt lat="37.04977" lon="-3.37172">
        <ele>3199.6</ele>
        <time>2021-08-06 16:48:46</time>
      </trkpt>
      <trkpt lat="37.04978" lon="-3.37173">
        <ele>3199.6</ele>
        <time>2021-08-06 16:48:47</time>
      </trkpt>
      <trkpt lat="37.04978" lon="-3.37174">
        <ele>3199.6</ele>
        <time>2021-08-06 16:48:48</time>
      </trkpt>
      <trkpt lat="37.04979" lon="-3.37174">
        <ele>3200</ele>
        <time>2021-08-06 16:48:49</time>
      </trkpt>
      <trkpt lat="37.0498" lon="-3.37175">
        <ele>3200.2</ele>
        <time>2021-08-06 16:48:50</time>
      </trkpt>
      <trkpt lat="37.0498" lon="-3.37176">
        <ele>3200.2</ele>
        <time>2021-08-06 16:48:51</time>
      </trkpt>
      <trkpt lat="37.0498" lon="-3.37176">
        <ele>3200.4</ele>
        <time>2021-08-06 16:48:52</time>
      </trkpt>
      <trkpt lat="37.0498" lon="-3.37177">
        <ele>3200.4</ele>
        <time>2021-08-06 16:48:53</time>
      </trkpt>
      <trkpt lat="37.04981" lon="-3.37178">
        <ele>3200.4</ele>
        <time>2021-08-06 16:48:54</time>
      </trkpt>
      <trkpt lat="37.04981" lon="-3.3718">
        <ele>3200.4</ele>
        <time>2021-08-06 16:48:55</time>
      </trkpt>
      <trkpt lat="37.04982" lon="-3.37181">
        <ele>3200.4</ele>
        <time>2021-08-06 16:48:56</time>
      </trkpt>
      <trkpt lat="37.04983" lon="-3.37182">
        <ele>3200.4</ele>
        <time>2021-08-06 16:48:57</time>
      </trkpt>
      <trkpt lat="37.04984" lon="-3.37183">
        <ele>3200.4</ele>
        <time>2021-08-06 16:48:58</time>
      </trkpt>
      <trkpt lat="37.04985" lon="-3.37184">
        <ele>3200.6</ele>
        <time>2021-08-06 16:48:59</time>
      </trkpt>
      <trkpt lat="37.04985" lon="-3.37185">
        <ele>3200.6</ele>
        <time>2021-08-06 16:49:00</time>
      </trkpt>
      <trkpt lat="37.04986" lon="-3.37186">
        <ele>3200.8</ele>
        <time>2021-08-06 16:49:01</time>
      </trkpt>
      <trkpt lat="37.04987" lon="-3.37187">
        <ele>3201</ele>
        <time>2021-08-06 16:49:02</time>
      </trkpt>
      <trkpt lat="37.04988" lon="-3.37188">
        <ele>3201</ele>
        <time>2021-08-06 16:49:03</time>
      </trkpt>
      <trkpt lat="37.04989" lon="-3.3719">
        <ele>3201.2</ele>
        <time>2021-08-06 16:49:04</time>
      </trkpt>
      <trkpt lat="37.0499" lon="-3.3719">
        <ele>3201.4</ele>
        <time>2021-08-06 16:49:05</time>
      </trkpt>
      <trkpt lat="37.0499" lon="-3.37191">
        <ele>3201.4</ele>
        <time>2021-08-06 16:49:06</time>
      </trkpt>
      <trkpt lat="37.04992" lon="-3.37192">
        <ele>3201.2</ele>
        <time>2021-08-06 16:49:07</time>
      </trkpt>
      <trkpt lat="37.04992" lon="-3.37193">
        <ele>3201.2</ele>
        <time>2021-08-06 16:49:08</time>
      </trkpt>
      <trkpt lat="37.04993" lon="-3.37194">
        <ele>3201</ele>
        <time>2021-08-06 16:49:09</time>
      </trkpt>
      <trkpt lat="37.04994" lon="-3.37194">
        <ele>3201.2</ele>
        <time>2021-08-06 16:49:10</time>
      </trkpt>
      <trkpt lat="37.04994" lon="-3.37195">
        <ele>3201.2</ele>
        <time>2021-08-06 16:49:11</time>
      </trkpt>
      <trkpt lat="37.04995" lon="-3.37195">
        <ele>3201.2</ele>
        <time>2021-08-06 16:49:12</time>
      </trkpt>
      <trkpt lat="37.04996" lon="-3.37195">
        <ele>3201</ele>
        <time>2021-08-06 16:49:13</time>
      </trkpt>
      <trkpt lat="37.04998" lon="-3.37196">
        <ele>3201.6</ele>
        <time>2021-08-06 16:49:14</time>
      </trkpt>
      <trkpt lat="37.04998" lon="-3.37197">
        <ele>3201.8</ele>
        <time>2021-08-06 16:49:15</time>
      </trkpt>
      <trkpt lat="37.04999" lon="-3.37197">
        <ele>3201.8</ele>
        <time>2021-08-06 16:49:16</time>
      </trkpt>
      <trkpt lat="37.05" lon="-3.37197">
        <ele>3201.8</ele>
        <time>2021-08-06 16:49:17</time>
      </trkpt>
      <trkpt lat="37.05002" lon="-3.37195">
        <ele>3201.6</ele>
        <time>2021-08-06 16:49:18</time>
      </trkpt>
      <trkpt lat="37.05003" lon="-3.37195">
        <ele>3201.6</ele>
        <time>2021-08-06 16:49:19</time>
      </trkpt>
      <trkpt lat="37.05003" lon="-3.37195">
        <ele>3201.6</ele>
        <time>2021-08-06 16:49:20</time>
      </trkpt>
      <trkpt lat="37.05004" lon="-3.37195">
        <ele>3201.6</ele>
        <time>2021-08-06 16:49:21</time>
      </trkpt>
      <trkpt lat="37.05005" lon="-3.37196">
        <ele>3201.4</ele>
        <time>2021-08-06 16:49:22</time>
      </trkpt>
      <trkpt lat="37.05006" lon="-3.37196">
        <ele>3201.6</ele>
        <time>2021-08-06 16:49:23</time>
      </trkpt>
      <trkpt lat="37.05007" lon="-3.37196">
        <ele>3201.6</ele>
        <time>2021-08-06 16:49:24</time>
      </trkpt>
      <trkpt lat="37.05008" lon="-3.37196">
        <ele>3201.6</ele>
        <time>2021-08-06 16:49:25</time>
      </trkpt>
      <trkpt lat="37.05009" lon="-3.37197">
        <ele>3201.6</ele>
        <time>2021-08-06 16:49:26</time>
      </trkpt>
      <trkpt lat="37.0501" lon="-3.37197">
        <ele>3201.6</ele>
        <time>2021-08-06 16:49:27</time>
      </trkpt>
      <trkpt lat="37.05011" lon="-3.37197">
        <ele>3201.6</ele>
        <time>2021-08-06 16:49:28</time>
      </trkpt>
      <trkpt lat="37.05011" lon="-3.37197">
        <ele>3201.8</ele>
        <time>2021-08-06 16:49:29</time>
      </trkpt>
      <trkpt lat="37.05012" lon="-3.37197">
        <ele>3202</ele>
        <time>2021-08-06 16:49:30</time>
      </trkpt>
      <trkpt lat="37.05013" lon="-3.37197">
        <ele>3202</ele>
        <time>2021-08-06 16:49:31</time>
      </trkpt>
      <trkpt lat="37.05014" lon="-3.37197">
        <ele>3202</ele>
        <time>2021-08-06 16:49:32</time>
      </trkpt>
      <trkpt lat="37.05015" lon="-3.37197">
        <ele>3202.4</ele>
        <time>2021-08-06 16:49:33</time>
      </trkpt>
      <trkpt lat="37.05016" lon="-3.37196">
        <ele>3202.2</ele>
        <time>2021-08-06 16:49:34</time>
      </trkpt>
      <trkpt lat="37.05017" lon="-3.37196">
        <ele>3202.2</ele>
        <time>2021-08-06 16:49:35</time>
      </trkpt>
      <trkpt lat="37.05018" lon="-3.37196">
        <ele>3201.8</ele>
        <time>2021-08-06 16:49:36</time>
      </trkpt>
      <trkpt lat="37.05019" lon="-3.37196">
        <ele>3201.6</ele>
        <time>2021-08-06 16:49:37</time>
      </trkpt>
      <trkpt lat="37.0502" lon="-3.37196">
        <ele>3201.4</ele>
        <time>2021-08-06 16:49:38</time>
      </trkpt>
      <trkpt lat="37.05021" lon="-3.37196">
        <ele>3201.4</ele>
        <time>2021-08-06 16:49:39</time>
      </trkpt>
      <trkpt lat="37.05022" lon="-3.37196">
        <ele>3201.4</ele>
        <time>2021-08-06 16:49:40</time>
      </trkpt>
      <trkpt lat="37.05023" lon="-3.37196">
        <ele>3201.4</ele>
        <time>2021-08-06 16:49:41</time>
      </trkpt>
      <trkpt lat="37.05024" lon="-3.37196">
        <ele>3201.4</ele>
        <time>2021-08-06 16:49:42</time>
      </trkpt>
      <trkpt lat="37.05025" lon="-3.37195">
        <ele>3201</ele>
        <time>2021-08-06 16:49:43</time>
      </trkpt>
      <trkpt lat="37.05027" lon="-3.37195">
        <ele>3200.6</ele>
        <time>2021-08-06 16:49:44</time>
      </trkpt>
      <trkpt lat="37.05028" lon="-3.37195">
        <ele>3200.6</ele>
        <time>2021-08-06 16:49:45</time>
      </trkpt>
      <trkpt lat="37.0503" lon="-3.37195">
        <ele>3200.6</ele>
        <time>2021-08-06 16:49:46</time>
      </trkpt>
      <trkpt lat="37.05031" lon="-3.37195">
        <ele>3200.4</ele>
        <time>2021-08-06 16:49:47</time>
      </trkpt>
      <trkpt lat="37.05032" lon="-3.37195">
        <ele>3200.4</ele>
        <time>2021-08-06 16:49:48</time>
      </trkpt>
      <trkpt lat="37.05033" lon="-3.37195">
        <ele>3200.4</ele>
        <time>2021-08-06 16:49:49</time>
      </trkpt>
      <trkpt lat="37.05034" lon="-3.37196">
        <ele>3200.6</ele>
        <time>2021-08-06 16:49:50</time>
      </trkpt>
      <trkpt lat="37.05035" lon="-3.37196">
        <ele>3201</ele>
        <time>2021-08-06 16:49:51</time>
      </trkpt>
      <trkpt lat="37.05036" lon="-3.37196">
        <ele>3200.8</ele>
        <time>2021-08-06 16:49:52</time>
      </trkpt>
      <trkpt lat="37.05038" lon="-3.37196">
        <ele>3200.8</ele>
        <time>2021-08-06 16:49:53</time>
      </trkpt>
      <trkpt lat="37.05039" lon="-3.37196">
        <ele>3200.8</ele>
        <time>2021-08-06 16:49:54</time>
      </trkpt>
      <trkpt lat="37.0504" lon="-3.37196">
        <ele>3200.8</ele>
        <time>2021-08-06 16:49:55</time>
      </trkpt>
      <trkpt lat="37.05041" lon="-3.37197">
        <ele>3200.8</ele>
        <time>2021-08-06 16:49:56</time>
      </trkpt>
      <trkpt lat="37.05042" lon="-3.37197">
        <ele>3200.8</ele>
        <time>2021-08-06 16:49:57</time>
      </trkpt>
      <trkpt lat="37.05043" lon="-3.37197">
        <ele>3201</ele>
        <time>2021-08-06 16:49:58</time>
      </trkpt>
      <trkpt lat="37.05044" lon="-3.37197">
        <ele>3201</ele>
        <time>2021-08-06 16:49:59</time>
      </trkpt>
      <trkpt lat="37.05044" lon="-3.37197">
        <ele>3201</ele>
        <time>2021-08-06 16:50:00</time>
      </trkpt>
      <trkpt lat="37.05045" lon="-3.37197">
        <ele>3201</ele>
        <time>2021-08-06 16:50:01</time>
      </trkpt>
      <trkpt lat="37.05046" lon="-3.37196">
        <ele>3201.2</ele>
        <time>2021-08-06 16:50:02</time>
      </trkpt>
      <trkpt lat="37.05047" lon="-3.37197">
        <ele>3201</ele>
        <time>2021-08-06 16:50:03</time>
      </trkpt>
      <trkpt lat="37.05048" lon="-3.37199">
        <ele>3201</ele>
        <time>2021-08-06 16:50:04</time>
      </trkpt>
      <trkpt lat="37.05049" lon="-3.37199">
        <ele>3201</ele>
        <time>2021-08-06 16:50:05</time>
      </trkpt>
      <trkpt lat="37.05049" lon="-3.372">
        <ele>3201</ele>
        <time>2021-08-06 16:50:06</time>
      </trkpt>
      <trkpt lat="37.05051" lon="-3.372">
        <ele>3200.8</ele>
        <time>2021-08-06 16:50:07</time>
      </trkpt>
      <trkpt lat="37.05052" lon="-3.37202">
        <ele>3200.6</ele>
        <time>2021-08-06 16:50:08</time>
      </trkpt>
      <trkpt lat="37.05053" lon="-3.37202">
        <ele>3200.8</ele>
        <time>2021-08-06 16:50:09</time>
      </trkpt>
      <trkpt lat="37.05053" lon="-3.37202">
        <ele>3200.8</ele>
        <time>2021-08-06 16:50:10</time>
      </trkpt>
      <trkpt lat="37.05054" lon="-3.37203">
        <ele>3200.8</ele>
        <time>2021-08-06 16:50:11</time>
      </trkpt>
      <trkpt lat="37.05058" lon="-3.37201">
        <ele>3200.8</ele>
        <time>2021-08-06 16:50:12</time>
      </trkpt>
      <trkpt lat="37.05059" lon="-3.37203">
        <ele>3201</ele>
        <time>2021-08-06 16:50:13</time>
      </trkpt>
      <trkpt lat="37.0506" lon="-3.37204">
        <ele>3201</ele>
        <time>2021-08-06 16:50:14</time>
      </trkpt>
      <trkpt lat="37.05061" lon="-3.37204">
        <ele>3201.2</ele>
        <time>2021-08-06 16:50:15</time>
      </trkpt>
      <trkpt lat="37.05061" lon="-3.37205">
        <ele>3201.2</ele>
        <time>2021-08-06 16:50:16</time>
      </trkpt>
      <trkpt lat="37.05062" lon="-3.37206">
        <ele>3201</ele>
        <time>2021-08-06 16:50:17</time>
      </trkpt>
      <trkpt lat="37.05063" lon="-3.37207">
        <ele>3201</ele>
        <time>2021-08-06 16:50:18</time>
      </trkpt>
      <trkpt lat="37.05064" lon="-3.37208">
        <ele>3201</ele>
        <time>2021-08-06 16:50:19</time>
      </trkpt>
      <trkpt lat="37.05064" lon="-3.37209">
        <ele>3201</ele>
        <time>2021-08-06 16:50:20</time>
      </trkpt>
      <trkpt lat="37.05065" lon="-3.3721">
        <ele>3201</ele>
        <time>2021-08-06 16:50:21</time>
      </trkpt>
      <trkpt lat="37.05065" lon="-3.3721">
        <ele>3201</ele>
        <time>2021-08-06 16:50:22</time>
      </trkpt>
      <trkpt lat="37.05066" lon="-3.37211">
        <ele>3200.8</ele>
        <time>2021-08-06 16:50:23</time>
      </trkpt>
      <trkpt lat="37.05066" lon="-3.37212">
        <ele>3200.8</ele>
        <time>2021-08-06 16:50:24</time>
      </trkpt>
      <trkpt lat="37.05066" lon="-3.37212">
        <ele>3200.8</ele>
        <time>2021-08-06 16:50:25</time>
      </trkpt>
      <trkpt lat="37.05067" lon="-3.37213">
        <ele>3200.8</ele>
        <time>2021-08-06 16:50:26</time>
      </trkpt>
      <trkpt lat="37.05068" lon="-3.37213">
        <ele>3200.8</ele>
        <time>2021-08-06 16:50:27</time>
      </trkpt>
      <trkpt lat="37.05068" lon="-3.37214">
        <ele>3200.8</ele>
        <time>2021-08-06 16:50:28</time>
      </trkpt>
      <trkpt lat="37.05069" lon="-3.37214">
        <ele>3200.8</ele>
        <time>2021-08-06 16:50:29</time>
      </trkpt>
      <trkpt lat="37.05069" lon="-3.37215">
        <ele>3200.8</ele>
        <time>2021-08-06 16:50:30</time>
      </trkpt>
      <trkpt lat="37.0507" lon="-3.37215">
        <ele>3200.8</ele>
        <time>2021-08-06 16:50:31</time>
      </trkpt>
      <trkpt lat="37.05071" lon="-3.37216">
        <ele>3200.8</ele>
        <time>2021-08-06 16:50:32</time>
      </trkpt>
      <trkpt lat="37.05072" lon="-3.37217">
        <ele>3200.8</ele>
        <time>2021-08-06 16:50:33</time>
      </trkpt>
      <trkpt lat="37.05073" lon="-3.37217">
        <ele>3200.8</ele>
        <time>2021-08-06 16:50:34</time>
      </trkpt>
      <trkpt lat="37.05074" lon="-3.37218">
        <ele>3200.6</ele>
        <time>2021-08-06 16:50:35</time>
      </trkpt>
      <trkpt lat="37.05075" lon="-3.37219">
        <ele>3200.8</ele>
        <time>2021-08-06 16:50:36</time>
      </trkpt>
      <trkpt lat="37.05075" lon="-3.37219">
        <ele>3200.8</ele>
        <time>2021-08-06 16:50:37</time>
      </trkpt>
      <trkpt lat="37.05076" lon="-3.3722">
        <ele>3201</ele>
        <time>2021-08-06 16:50:38</time>
      </trkpt>
      <trkpt lat="37.05082" lon="-3.37219">
        <ele>3201</ele>
        <time>2021-08-06 16:50:39</time>
      </trkpt>
      <trkpt lat="37.05084" lon="-3.37219">
        <ele>3201</ele>
        <time>2021-08-06 16:50:40</time>
      </trkpt>
      <trkpt lat="37.05085" lon="-3.3722">
        <ele>3201.2</ele>
        <time>2021-08-06 16:50:41</time>
      </trkpt>
      <trkpt lat="37.05086" lon="-3.3722">
        <ele>3201.2</ele>
        <time>2021-08-06 16:50:42</time>
      </trkpt>
      <trkpt lat="37.05086" lon="-3.3722">
        <ele>3201.2</ele>
        <time>2021-08-06 16:50:43</time>
      </trkpt>
      <trkpt lat="37.05087" lon="-3.3722">
        <ele>3201.4</ele>
        <time>2021-08-06 16:50:44</time>
      </trkpt>
      <trkpt lat="37.05088" lon="-3.37219">
        <ele>3201.6</ele>
        <time>2021-08-06 16:50:45</time>
      </trkpt>
      <trkpt lat="37.0509" lon="-3.37219">
        <ele>3201.8</ele>
        <time>2021-08-06 16:50:46</time>
      </trkpt>
      <trkpt lat="37.05091" lon="-3.37219">
        <ele>3201.8</ele>
        <time>2021-08-06 16:50:47</time>
      </trkpt>
      <trkpt lat="37.05092" lon="-3.37219">
        <ele>3201.8</ele>
        <time>2021-08-06 16:50:48</time>
      </trkpt>
      <trkpt lat="37.05094" lon="-3.37219">
        <ele>3201.8</ele>
        <time>2021-08-06 16:50:49</time>
      </trkpt>
      <trkpt lat="37.05095" lon="-3.3722">
        <ele>3201.8</ele>
        <time>2021-08-06 16:50:50</time>
      </trkpt>
      <trkpt lat="37.05096" lon="-3.3722">
        <ele>3202</ele>
        <time>2021-08-06 16:50:51</time>
      </trkpt>
      <trkpt lat="37.05097" lon="-3.37222">
        <ele>3202</ele>
        <time>2021-08-06 16:50:52</time>
      </trkpt>
      <trkpt lat="37.05098" lon="-3.37223">
        <ele>3202</ele>
        <time>2021-08-06 16:50:53</time>
      </trkpt>
      <trkpt lat="37.05098" lon="-3.37224">
        <ele>3202</ele>
        <time>2021-08-06 16:50:54</time>
      </trkpt>
      <trkpt lat="37.05099" lon="-3.37225">
        <ele>3202</ele>
        <time>2021-08-06 16:50:55</time>
      </trkpt>
      <trkpt lat="37.051" lon="-3.37226">
        <ele>3202.2</ele>
        <time>2021-08-06 16:50:56</time>
      </trkpt>
      <trkpt lat="37.05101" lon="-3.37227">
        <ele>3202.2</ele>
        <time>2021-08-06 16:50:57</time>
      </trkpt>
      <trkpt lat="37.05101" lon="-3.37228">
        <ele>3202.2</ele>
        <time>2021-08-06 16:50:58</time>
      </trkpt>
      <trkpt lat="37.05102" lon="-3.37229">
        <ele>3202.2</ele>
        <time>2021-08-06 16:50:59</time>
      </trkpt>
      <trkpt lat="37.05103" lon="-3.37229">
        <ele>3202.4</ele>
        <time>2021-08-06 16:51:00</time>
      </trkpt>
      <trkpt lat="37.05104" lon="-3.3723">
        <ele>3202.4</ele>
        <time>2021-08-06 16:51:01</time>
      </trkpt>
      <trkpt lat="37.05105" lon="-3.3723">
        <ele>3202.6</ele>
        <time>2021-08-06 16:51:02</time>
      </trkpt>
      <trkpt lat="37.05106" lon="-3.37231">
        <ele>3202.6</ele>
        <time>2021-08-06 16:51:03</time>
      </trkpt>
      <trkpt lat="37.05107" lon="-3.37232">
        <ele>3202.8</ele>
        <time>2021-08-06 16:51:04</time>
      </trkpt>
      <trkpt lat="37.05107" lon="-3.37232">
        <ele>3202.8</ele>
        <time>2021-08-06 16:51:05</time>
      </trkpt>
      <trkpt lat="37.05108" lon="-3.37233">
        <ele>3203</ele>
        <time>2021-08-06 16:51:06</time>
      </trkpt>
      <trkpt lat="37.05109" lon="-3.37233">
        <ele>3203</ele>
        <time>2021-08-06 16:51:07</time>
      </trkpt>
      <trkpt lat="37.0511" lon="-3.37235">
        <ele>3203</ele>
        <time>2021-08-06 16:51:08</time>
      </trkpt>
      <trkpt lat="37.05111" lon="-3.37236">
        <ele>3203</ele>
        <time>2021-08-06 16:51:09</time>
      </trkpt>
      <trkpt lat="37.05112" lon="-3.37236">
        <ele>3203</ele>
        <time>2021-08-06 16:51:10</time>
      </trkpt>
      <trkpt lat="37.05113" lon="-3.37237">
        <ele>3202.8</ele>
        <time>2021-08-06 16:51:11</time>
      </trkpt>
      <trkpt lat="37.05114" lon="-3.37237">
        <ele>3202.8</ele>
        <time>2021-08-06 16:51:12</time>
      </trkpt>
      <trkpt lat="37.05114" lon="-3.37237">
        <ele>3202.8</ele>
        <time>2021-08-06 16:51:13</time>
      </trkpt>
      <trkpt lat="37.05115" lon="-3.37237">
        <ele>3202.8</ele>
        <time>2021-08-06 16:51:14</time>
      </trkpt>
      <trkpt lat="37.05115" lon="-3.37238">
        <ele>3202.8</ele>
        <time>2021-08-06 16:51:15</time>
      </trkpt>
      <trkpt lat="37.05116" lon="-3.37238">
        <ele>3202.6</ele>
        <time>2021-08-06 16:51:16</time>
      </trkpt>
      <trkpt lat="37.05117" lon="-3.37239">
        <ele>3202.6</ele>
        <time>2021-08-06 16:51:17</time>
      </trkpt>
      <trkpt lat="37.05117" lon="-3.37239">
        <ele>3202.4</ele>
        <time>2021-08-06 16:51:18</time>
      </trkpt>
      <trkpt lat="37.05117" lon="-3.37239">
        <ele>3202.2</ele>
        <time>2021-08-06 16:51:19</time>
      </trkpt>
      <trkpt lat="37.05116" lon="-3.3724">
        <ele>3202.4</ele>
        <time>2021-08-06 16:51:20</time>
      </trkpt>
      <trkpt lat="37.05117" lon="-3.3724">
        <ele>3202.4</ele>
        <time>2021-08-06 16:51:21</time>
      </trkpt>
      <trkpt lat="37.05118" lon="-3.37241">
        <ele>3202.4</ele>
        <time>2021-08-06 16:51:22</time>
      </trkpt>
      <trkpt lat="37.05119" lon="-3.37243">
        <ele>3202.6</ele>
        <time>2021-08-06 16:51:23</time>
      </trkpt>
      <trkpt lat="37.0512" lon="-3.37244">
        <ele>3202.8</ele>
        <time>2021-08-06 16:51:24</time>
      </trkpt>
      <trkpt lat="37.05122" lon="-3.37245">
        <ele>3202.8</ele>
        <time>2021-08-06 16:51:25</time>
      </trkpt>
      <trkpt lat="37.05123" lon="-3.37245">
        <ele>3203</ele>
        <time>2021-08-06 16:51:26</time>
      </trkpt>
      <trkpt lat="37.05124" lon="-3.37245">
        <ele>3203</ele>
        <time>2021-08-06 16:51:27</time>
      </trkpt>
      <trkpt lat="37.05125" lon="-3.37246">
        <ele>3203</ele>
        <time>2021-08-06 16:51:28</time>
      </trkpt>
      <trkpt lat="37.05126" lon="-3.37245">
        <ele>3203</ele>
        <time>2021-08-06 16:51:29</time>
      </trkpt>
      <trkpt lat="37.05127" lon="-3.37244">
        <ele>3203</ele>
        <time>2021-08-06 16:51:30</time>
      </trkpt>
      <trkpt lat="37.05128" lon="-3.37243">
        <ele>3202.8</ele>
        <time>2021-08-06 16:51:31</time>
      </trkpt>
      <trkpt lat="37.0513" lon="-3.37243">
        <ele>3202.8</ele>
        <time>2021-08-06 16:51:32</time>
      </trkpt>
      <trkpt lat="37.05131" lon="-3.37242">
        <ele>3202.8</ele>
        <time>2021-08-06 16:51:33</time>
      </trkpt>
      <trkpt lat="37.05132" lon="-3.37242">
        <ele>3202.8</ele>
        <time>2021-08-06 16:51:34</time>
      </trkpt>
      <trkpt lat="37.05133" lon="-3.37242">
        <ele>3202.8</ele>
        <time>2021-08-06 16:51:35</time>
      </trkpt>
      <trkpt lat="37.05134" lon="-3.37242">
        <ele>3202.6</ele>
        <time>2021-08-06 16:51:36</time>
      </trkpt>
      <trkpt lat="37.05135" lon="-3.3724">
        <ele>3202.6</ele>
        <time>2021-08-06 16:51:37</time>
      </trkpt>
      <trkpt lat="37.05136" lon="-3.3724">
        <ele>3202.8</ele>
        <time>2021-08-06 16:51:38</time>
      </trkpt>
      <trkpt lat="37.05137" lon="-3.3724">
        <ele>3203</ele>
        <time>2021-08-06 16:51:39</time>
      </trkpt>
      <trkpt lat="37.05138" lon="-3.3724">
        <ele>3203</ele>
        <time>2021-08-06 16:51:40</time>
      </trkpt>
      <trkpt lat="37.05139" lon="-3.3724">
        <ele>3203</ele>
        <time>2021-08-06 16:51:41</time>
      </trkpt>
      <trkpt lat="37.0514" lon="-3.37239">
        <ele>3203</ele>
        <time>2021-08-06 16:51:42</time>
      </trkpt>
      <trkpt lat="37.05141" lon="-3.37238">
        <ele>3203</ele>
        <time>2021-08-06 16:51:43</time>
      </trkpt>
      <trkpt lat="37.05142" lon="-3.37238">
        <ele>3203</ele>
        <time>2021-08-06 16:51:44</time>
      </trkpt>
      <trkpt lat="37.05143" lon="-3.37238">
        <ele>3203</ele>
        <time>2021-08-06 16:51:45</time>
      </trkpt>
      <trkpt lat="37.05144" lon="-3.37238">
        <ele>3203</ele>
        <time>2021-08-06 16:51:46</time>
      </trkpt>
      <trkpt lat="37.05145" lon="-3.37238">
        <ele>3202.8</ele>
        <time>2021-08-06 16:51:47</time>
      </trkpt>
      <trkpt lat="37.05146" lon="-3.37238">
        <ele>3202.8</ele>
        <time>2021-08-06 16:51:48</time>
      </trkpt>
      <trkpt lat="37.05147" lon="-3.37238">
        <ele>3202.8</ele>
        <time>2021-08-06 16:51:49</time>
      </trkpt>
      <trkpt lat="37.05148" lon="-3.37238">
        <ele>3202.6</ele>
        <time>2021-08-06 16:51:50</time>
      </trkpt>
      <trkpt lat="37.05149" lon="-3.37239">
        <ele>3202.4</ele>
        <time>2021-08-06 16:51:51</time>
      </trkpt>
      <trkpt lat="37.0515" lon="-3.37239">
        <ele>3202.4</ele>
        <time>2021-08-06 16:51:52</time>
      </trkpt>
      <trkpt lat="37.05151" lon="-3.37239">
        <ele>3202.2</ele>
        <time>2021-08-06 16:51:53</time>
      </trkpt>
      <trkpt lat="37.05152" lon="-3.37239">
        <ele>3202.2</ele>
        <time>2021-08-06 16:51:54</time>
      </trkpt>
      <trkpt lat="37.05153" lon="-3.37239">
        <ele>3202.2</ele>
        <time>2021-08-06 16:51:55</time>
      </trkpt>
      <trkpt lat="37.05154" lon="-3.37239">
        <ele>3202.2</ele>
        <time>2021-08-06 16:51:56</time>
      </trkpt>
      <trkpt lat="37.05155" lon="-3.37239">
        <ele>3202.2</ele>
        <time>2021-08-06 16:51:57</time>
      </trkpt>
      <trkpt lat="37.05156" lon="-3.37239">
        <ele>3202.6</ele>
        <time>2021-08-06 16:51:58</time>
      </trkpt>
      <trkpt lat="37.05157" lon="-3.37239">
        <ele>3202.8</ele>
        <time>2021-08-06 16:51:59</time>
      </trkpt>
      <trkpt lat="37.05158" lon="-3.37239">
        <ele>3203</ele>
        <time>2021-08-06 16:52:00</time>
      </trkpt>
      <trkpt lat="37.05159" lon="-3.37239">
        <ele>3203</ele>
        <time>2021-08-06 16:52:01</time>
      </trkpt>
      <trkpt lat="37.0516" lon="-3.37239">
        <ele>3203</ele>
        <time>2021-08-06 16:52:02</time>
      </trkpt>
      <trkpt lat="37.05161" lon="-3.37239">
        <ele>3202.8</ele>
        <time>2021-08-06 16:52:03</time>
      </trkpt>
      <trkpt lat="37.05162" lon="-3.37238">
        <ele>3202.6</ele>
        <time>2021-08-06 16:52:04</time>
      </trkpt>
      <trkpt lat="37.05164" lon="-3.37238">
        <ele>3202.6</ele>
        <time>2021-08-06 16:52:05</time>
      </trkpt>
      <trkpt lat="37.05165" lon="-3.37238">
        <ele>3202.6</ele>
        <time>2021-08-06 16:52:06</time>
      </trkpt>
      <trkpt lat="37.05166" lon="-3.37238">
        <ele>3202.6</ele>
        <time>2021-08-06 16:52:07</time>
      </trkpt>
      <trkpt lat="37.05167" lon="-3.37238">
        <ele>3202.4</ele>
        <time>2021-08-06 16:52:08</time>
      </trkpt>
      <trkpt lat="37.05168" lon="-3.37238">
        <ele>3202.6</ele>
        <time>2021-08-06 16:52:09</time>
      </trkpt>
      <trkpt lat="37.05169" lon="-3.37238">
        <ele>3202.8</ele>
        <time>2021-08-06 16:52:10</time>
      </trkpt>
      <trkpt lat="37.05169" lon="-3.37237">
        <ele>3203</ele>
        <time>2021-08-06 16:52:11</time>
      </trkpt>
      <trkpt lat="37.0517" lon="-3.37238">
        <ele>3203.2</ele>
        <time>2021-08-06 16:52:12</time>
      </trkpt>
      <trkpt lat="37.05171" lon="-3.37237">
        <ele>3203.2</ele>
        <time>2021-08-06 16:52:13</time>
      </trkpt>
      <trkpt lat="37.05172" lon="-3.37237">
        <ele>3203.2</ele>
        <time>2021-08-06 16:52:14</time>
      </trkpt>
      <trkpt lat="37.05173" lon="-3.37236">
        <ele>3203.2</ele>
        <time>2021-08-06 16:52:15</time>
      </trkpt>
      <trkpt lat="37.05174" lon="-3.37236">
        <ele>3203.2</ele>
        <time>2021-08-06 16:52:16</time>
      </trkpt>
      <trkpt lat="37.05175" lon="-3.37236">
        <ele>3203.2</ele>
        <time>2021-08-06 16:52:17</time>
      </trkpt>
      <trkpt lat="37.05176" lon="-3.37236">
        <ele>3203.2</ele>
        <time>2021-08-06 16:52:18</time>
      </trkpt>
      <trkpt lat="37.05177" lon="-3.37237">
        <ele>3203.2</ele>
        <time>2021-08-06 16:52:19</time>
      </trkpt>
      <trkpt lat="37.05178" lon="-3.37237">
        <ele>3203.2</ele>
        <time>2021-08-06 16:52:20</time>
      </trkpt>
      <trkpt lat="37.05179" lon="-3.37235">
        <ele>3203</ele>
        <time>2021-08-06 16:52:21</time>
      </trkpt>
      <trkpt lat="37.0518" lon="-3.37234">
        <ele>3203</ele>
        <time>2021-08-06 16:52:22</time>
      </trkpt>
      <trkpt lat="37.05181" lon="-3.37234">
        <ele>3203</ele>
        <time>2021-08-06 16:52:23</time>
      </trkpt>
      <trkpt lat="37.05182" lon="-3.37234">
        <ele>3203</ele>
        <time>2021-08-06 16:52:24</time>
      </trkpt>
      <trkpt lat="37.05183" lon="-3.37233">
        <ele>3203</ele>
        <time>2021-08-06 16:52:25</time>
      </trkpt>
      <trkpt lat="37.05184" lon="-3.37231">
        <ele>3203</ele>
        <time>2021-08-06 16:52:26</time>
      </trkpt>
      <trkpt lat="37.05185" lon="-3.37232">
        <ele>3203.2</ele>
        <time>2021-08-06 16:52:27</time>
      </trkpt>
      <trkpt lat="37.05186" lon="-3.37231">
        <ele>3203.4</ele>
        <time>2021-08-06 16:52:28</time>
      </trkpt>
      <trkpt lat="37.05186" lon="-3.37231">
        <ele>3203.4</ele>
        <time>2021-08-06 16:52:29</time>
      </trkpt>
      <trkpt lat="37.05187" lon="-3.37231">
        <ele>3203.4</ele>
        <time>2021-08-06 16:52:30</time>
      </trkpt>
      <trkpt lat="37.05189" lon="-3.37231">
        <ele>3203.4</ele>
        <time>2021-08-06 16:52:31</time>
      </trkpt>
      <trkpt lat="37.0519" lon="-3.3723">
        <ele>3203.2</ele>
        <time>2021-08-06 16:52:32</time>
      </trkpt>
      <trkpt lat="37.05191" lon="-3.37229">
        <ele>3203.2</ele>
        <time>2021-08-06 16:52:33</time>
      </trkpt>
      <trkpt lat="37.05192" lon="-3.37229">
        <ele>3203.2</ele>
        <time>2021-08-06 16:52:34</time>
      </trkpt>
      <trkpt lat="37.05193" lon="-3.37228">
        <ele>3203.2</ele>
        <time>2021-08-06 16:52:35</time>
      </trkpt>
      <trkpt lat="37.05193" lon="-3.37228">
        <ele>3203.4</ele>
        <time>2021-08-06 16:52:36</time>
      </trkpt>
      <trkpt lat="37.05194" lon="-3.37227">
        <ele>3203.6</ele>
        <time>2021-08-06 16:52:37</time>
      </trkpt>
      <trkpt lat="37.05195" lon="-3.37226">
        <ele>3203.6</ele>
        <time>2021-08-06 16:52:38</time>
      </trkpt>
      <trkpt lat="37.05196" lon="-3.37227">
        <ele>3203.8</ele>
        <time>2021-08-06 16:52:39</time>
      </trkpt>
      <trkpt lat="37.05197" lon="-3.37227">
        <ele>3203.8</ele>
        <time>2021-08-06 16:52:40</time>
      </trkpt>
      <trkpt lat="37.05198" lon="-3.37227">
        <ele>3204</ele>
        <time>2021-08-06 16:52:41</time>
      </trkpt>
      <trkpt lat="37.05199" lon="-3.37228">
        <ele>3204</ele>
        <time>2021-08-06 16:52:42</time>
      </trkpt>
      <trkpt lat="37.052" lon="-3.37228">
        <ele>3204.2</ele>
        <time>2021-08-06 16:52:43</time>
      </trkpt>
      <trkpt lat="37.05201" lon="-3.37229">
        <ele>3204.2</ele>
        <time>2021-08-06 16:52:44</time>
      </trkpt>
      <trkpt lat="37.05202" lon="-3.37229">
        <ele>3203.6</ele>
        <time>2021-08-06 16:52:45</time>
      </trkpt>
      <trkpt lat="37.05203" lon="-3.37229">
        <ele>3203.4</ele>
        <time>2021-08-06 16:52:46</time>
      </trkpt>
      <trkpt lat="37.05204" lon="-3.37229">
        <ele>3203.2</ele>
        <time>2021-08-06 16:52:47</time>
      </trkpt>
      <trkpt lat="37.05205" lon="-3.37229">
        <ele>3203</ele>
        <time>2021-08-06 16:52:48</time>
      </trkpt>
      <trkpt lat="37.05206" lon="-3.37228">
        <ele>3203</ele>
        <time>2021-08-06 16:52:49</time>
      </trkpt>
      <trkpt lat="37.05207" lon="-3.37227">
        <ele>3203.2</ele>
        <time>2021-08-06 16:52:50</time>
      </trkpt>
      <trkpt lat="37.05208" lon="-3.37227">
        <ele>3203</ele>
        <time>2021-08-06 16:52:51</time>
      </trkpt>
      <trkpt lat="37.05209" lon="-3.37226">
        <ele>3203.4</ele>
        <time>2021-08-06 16:52:52</time>
      </trkpt>
      <trkpt lat="37.0521" lon="-3.37225">
        <ele>3203.8</ele>
        <time>2021-08-06 16:52:53</time>
      </trkpt>
      <trkpt lat="37.05211" lon="-3.37225">
        <ele>3203.8</ele>
        <time>2021-08-06 16:52:54</time>
      </trkpt>
      <trkpt lat="37.05212" lon="-3.37224">
        <ele>3204</ele>
        <time>2021-08-06 16:52:55</time>
      </trkpt>
      <trkpt lat="37.05212" lon="-3.37224">
        <ele>3204.2</ele>
        <time>2021-08-06 16:52:56</time>
      </trkpt>
      <trkpt lat="37.05213" lon="-3.37223">
        <ele>3204.2</ele>
        <time>2021-08-06 16:52:57</time>
      </trkpt>
      <trkpt lat="37.05214" lon="-3.37223">
        <ele>3204</ele>
        <time>2021-08-06 16:52:58</time>
      </trkpt>
      <trkpt lat="37.05215" lon="-3.37222">
        <ele>3204</ele>
        <time>2021-08-06 16:52:59</time>
      </trkpt>
      <trkpt lat="37.05216" lon="-3.37219">
        <ele>3203.8</ele>
        <time>2021-08-06 16:53:00</time>
      </trkpt>
      <trkpt lat="37.05217" lon="-3.37217">
        <ele>3203.8</ele>
        <time>2021-08-06 16:53:01</time>
      </trkpt>
      <trkpt lat="37.05218" lon="-3.37217">
        <ele>3203.8</ele>
        <time>2021-08-06 16:53:02</time>
      </trkpt>
      <trkpt lat="37.05219" lon="-3.37217">
        <ele>3203.6</ele>
        <time>2021-08-06 16:53:03</time>
      </trkpt>
      <trkpt lat="37.05219" lon="-3.37216">
        <ele>3203.6</ele>
        <time>2021-08-06 16:53:04</time>
      </trkpt>
      <trkpt lat="37.05219" lon="-3.37216">
        <ele>3203.6</ele>
        <time>2021-08-06 16:53:05</time>
      </trkpt>
      <trkpt lat="37.0522" lon="-3.37216">
        <ele>3203.4</ele>
        <time>2021-08-06 16:53:06</time>
      </trkpt>
      <trkpt lat="37.05221" lon="-3.37216">
        <ele>3203.4</ele>
        <time>2021-08-06 16:53:07</time>
      </trkpt>
      <trkpt lat="37.05221" lon="-3.37216">
        <ele>3203.4</ele>
        <time>2021-08-06 16:53:08</time>
      </trkpt>
      <trkpt lat="37.05222" lon="-3.37215">
        <ele>3203.4</ele>
        <time>2021-08-06 16:53:09</time>
      </trkpt>
      <trkpt lat="37.05223" lon="-3.37215">
        <ele>3203.4</ele>
        <time>2021-08-06 16:53:10</time>
      </trkpt>
      <trkpt lat="37.05224" lon="-3.37215">
        <ele>3203.4</ele>
        <time>2021-08-06 16:53:11</time>
      </trkpt>
      <trkpt lat="37.05225" lon="-3.37214">
        <ele>3203.4</ele>
        <time>2021-08-06 16:53:12</time>
      </trkpt>
      <trkpt lat="37.05226" lon="-3.37213">
        <ele>3203.4</ele>
        <time>2021-08-06 16:53:13</time>
      </trkpt>
      <trkpt lat="37.05227" lon="-3.37213">
        <ele>3203.4</ele>
        <time>2021-08-06 16:53:14</time>
      </trkpt>
      <trkpt lat="37.05229" lon="-3.37213">
        <ele>3203.4</ele>
        <time>2021-08-06 16:53:15</time>
      </trkpt>
      <trkpt lat="37.0523" lon="-3.37212">
        <ele>3203.4</ele>
        <time>2021-08-06 16:53:16</time>
      </trkpt>
      <trkpt lat="37.05231" lon="-3.37212">
        <ele>3203.4</ele>
        <time>2021-08-06 16:53:17</time>
      </trkpt>
      <trkpt lat="37.05233" lon="-3.37211">
        <ele>3203.2</ele>
        <time>2021-08-06 16:53:18</time>
      </trkpt>
      <trkpt lat="37.05235" lon="-3.37211">
        <ele>3203.2</ele>
        <time>2021-08-06 16:53:19</time>
      </trkpt>
      <trkpt lat="37.05236" lon="-3.3721">
        <ele>3203.2</ele>
        <time>2021-08-06 16:53:20</time>
      </trkpt>
      <trkpt lat="37.05237" lon="-3.3721">
        <ele>3203.2</ele>
        <time>2021-08-06 16:53:21</time>
      </trkpt>
      <trkpt lat="37.05238" lon="-3.3721">
        <ele>3203.2</ele>
        <time>2021-08-06 16:53:22</time>
      </trkpt>
      <trkpt lat="37.05239" lon="-3.37209">
        <ele>3203.2</ele>
        <time>2021-08-06 16:53:23</time>
      </trkpt>
      <trkpt lat="37.0524" lon="-3.37209">
        <ele>3203.2</ele>
        <time>2021-08-06 16:53:24</time>
      </trkpt>
      <trkpt lat="37.05241" lon="-3.37209">
        <ele>3203.4</ele>
        <time>2021-08-06 16:53:25</time>
      </trkpt>
      <trkpt lat="37.05242" lon="-3.37209">
        <ele>3203.4</ele>
        <time>2021-08-06 16:53:26</time>
      </trkpt>
      <trkpt lat="37.05243" lon="-3.37208">
        <ele>3203.2</ele>
        <time>2021-08-06 16:53:27</time>
      </trkpt>
      <trkpt lat="37.05244" lon="-3.37208">
        <ele>3203.4</ele>
        <time>2021-08-06 16:53:28</time>
      </trkpt>
      <trkpt lat="37.05245" lon="-3.37207">
        <ele>3203.4</ele>
        <time>2021-08-06 16:53:29</time>
      </trkpt>
      <trkpt lat="37.05245" lon="-3.37206">
        <ele>3203.4</ele>
        <time>2021-08-06 16:53:30</time>
      </trkpt>
      <trkpt lat="37.05246" lon="-3.37206">
        <ele>3203.4</ele>
        <time>2021-08-06 16:53:31</time>
      </trkpt>
      <trkpt lat="37.05247" lon="-3.37205">
        <ele>3203.4</ele>
        <time>2021-08-06 16:53:32</time>
      </trkpt>
      <trkpt lat="37.05248" lon="-3.37205">
        <ele>3203.4</ele>
        <time>2021-08-06 16:53:33</time>
      </trkpt>
      <trkpt lat="37.05249" lon="-3.37205">
        <ele>3203.4</ele>
        <time>2021-08-06 16:53:34</time>
      </trkpt>
      <trkpt lat="37.0525" lon="-3.37205">
        <ele>3203.4</ele>
        <time>2021-08-06 16:53:35</time>
      </trkpt>
      <trkpt lat="37.0525" lon="-3.37204">
        <ele>3203.4</ele>
        <time>2021-08-06 16:53:36</time>
      </trkpt>
      <trkpt lat="37.05251" lon="-3.37203">
        <ele>3203.6</ele>
        <time>2021-08-06 16:53:37</time>
      </trkpt>
      <trkpt lat="37.05252" lon="-3.37203">
        <ele>3203.8</ele>
        <time>2021-08-06 16:53:38</time>
      </trkpt>
      <trkpt lat="37.05253" lon="-3.37203">
        <ele>3203.6</ele>
        <time>2021-08-06 16:53:39</time>
      </trkpt>
      <trkpt lat="37.05254" lon="-3.37203">
        <ele>3203.6</ele>
        <time>2021-08-06 16:53:40</time>
      </trkpt>
      <trkpt lat="37.05255" lon="-3.37203">
        <ele>3203.8</ele>
        <time>2021-08-06 16:53:41</time>
      </trkpt>
      <trkpt lat="37.05256" lon="-3.37203">
        <ele>3204</ele>
        <time>2021-08-06 16:53:42</time>
      </trkpt>
      <trkpt lat="37.05256" lon="-3.37203">
        <ele>3204</ele>
        <time>2021-08-06 16:53:43</time>
      </trkpt>
      <trkpt lat="37.05257" lon="-3.37202">
        <ele>3204</ele>
        <time>2021-08-06 16:53:44</time>
      </trkpt>
      <trkpt lat="37.05258" lon="-3.37202">
        <ele>3204</ele>
        <time>2021-08-06 16:53:45</time>
      </trkpt>
      <trkpt lat="37.05259" lon="-3.37201">
        <ele>3204</ele>
        <time>2021-08-06 16:53:46</time>
      </trkpt>
      <trkpt lat="37.0526" lon="-3.372">
        <ele>3203.8</ele>
        <time>2021-08-06 16:53:47</time>
      </trkpt>
      <trkpt lat="37.05261" lon="-3.372">
        <ele>3203.8</ele>
        <time>2021-08-06 16:53:48</time>
      </trkpt>
      <trkpt lat="37.05262" lon="-3.37199">
        <ele>3203.8</ele>
        <time>2021-08-06 16:53:49</time>
      </trkpt>
      <trkpt lat="37.05263" lon="-3.37198">
        <ele>3203.6</ele>
        <time>2021-08-06 16:53:50</time>
      </trkpt>
      <trkpt lat="37.05264" lon="-3.37198">
        <ele>3203.4</ele>
        <time>2021-08-06 16:53:51</time>
      </trkpt>
      <trkpt lat="37.05265" lon="-3.37197">
        <ele>3203.4</ele>
        <time>2021-08-06 16:53:52</time>
      </trkpt>
      <trkpt lat="37.05266" lon="-3.37196">
        <ele>3203.6</ele>
        <time>2021-08-06 16:53:53</time>
      </trkpt>
      <trkpt lat="37.05267" lon="-3.37196">
        <ele>3203.6</ele>
        <time>2021-08-06 16:53:54</time>
      </trkpt>
      <trkpt lat="37.05268" lon="-3.37195">
        <ele>3203.6</ele>
        <time>2021-08-06 16:53:55</time>
      </trkpt>
      <trkpt lat="37.05269" lon="-3.37194">
        <ele>3203.6</ele>
        <time>2021-08-06 16:53:56</time>
      </trkpt>
      <trkpt lat="37.0527" lon="-3.37194">
        <ele>3203.6</ele>
        <time>2021-08-06 16:53:57</time>
      </trkpt>
      <trkpt lat="37.0527" lon="-3.37193">
        <ele>3203.6</ele>
        <time>2021-08-06 16:53:58</time>
      </trkpt>
      <trkpt lat="37.05271" lon="-3.37192">
        <ele>3203.4</ele>
        <time>2021-08-06 16:53:59</time>
      </trkpt>
      <trkpt lat="37.05272" lon="-3.37192">
        <ele>3203.4</ele>
        <time>2021-08-06 16:54:00</time>
      </trkpt>
      <trkpt lat="37.05273" lon="-3.37192">
        <ele>3203.4</ele>
        <time>2021-08-06 16:54:01</time>
      </trkpt>
      <trkpt lat="37.05274" lon="-3.37191">
        <ele>3203.4</ele>
        <time>2021-08-06 16:54:02</time>
      </trkpt>
      <trkpt lat="37.05275" lon="-3.3719">
        <ele>3203.6</ele>
        <time>2021-08-06 16:54:03</time>
      </trkpt>
      <trkpt lat="37.05276" lon="-3.3719">
        <ele>3204</ele>
        <time>2021-08-06 16:54:04</time>
      </trkpt>
      <trkpt lat="37.05277" lon="-3.3719">
        <ele>3204.2</ele>
        <time>2021-08-06 16:54:05</time>
      </trkpt>
      <trkpt lat="37.05278" lon="-3.3719">
        <ele>3204.4</ele>
        <time>2021-08-06 16:54:06</time>
      </trkpt>
      <trkpt lat="37.05279" lon="-3.3719">
        <ele>3204.6</ele>
        <time>2021-08-06 16:54:07</time>
      </trkpt>
      <trkpt lat="37.0528" lon="-3.3719">
        <ele>3204.6</ele>
        <time>2021-08-06 16:54:08</time>
      </trkpt>
      <trkpt lat="37.05281" lon="-3.37189">
        <ele>3204.6</ele>
        <time>2021-08-06 16:54:09</time>
      </trkpt>
      <trkpt lat="37.05282" lon="-3.37188">
        <ele>3204.8</ele>
        <time>2021-08-06 16:54:10</time>
      </trkpt>
      <trkpt lat="37.05283" lon="-3.37188">
        <ele>3205</ele>
        <time>2021-08-06 16:54:11</time>
      </trkpt>
      <trkpt lat="37.05284" lon="-3.37188">
        <ele>3205</ele>
        <time>2021-08-06 16:54:12</time>
      </trkpt>
      <trkpt lat="37.05285" lon="-3.37187">
        <ele>3205</ele>
        <time>2021-08-06 16:54:13</time>
      </trkpt>
      <trkpt lat="37.05286" lon="-3.37186">
        <ele>3204.8</ele>
        <time>2021-08-06 16:54:14</time>
      </trkpt>
      <trkpt lat="37.05287" lon="-3.37185">
        <ele>3204.8</ele>
        <time>2021-08-06 16:54:15</time>
      </trkpt>
      <trkpt lat="37.05288" lon="-3.37184">
        <ele>3204.6</ele>
        <time>2021-08-06 16:54:16</time>
      </trkpt>
      <trkpt lat="37.05289" lon="-3.37184">
        <ele>3204.6</ele>
        <time>2021-08-06 16:54:17</time>
      </trkpt>
      <trkpt lat="37.05289" lon="-3.37183">
        <ele>3204.6</ele>
        <time>2021-08-06 16:54:18</time>
      </trkpt>
      <trkpt lat="37.0529" lon="-3.37181">
        <ele>3204.6</ele>
        <time>2021-08-06 16:54:19</time>
      </trkpt>
      <trkpt lat="37.0529" lon="-3.37181">
        <ele>3204.4</ele>
        <time>2021-08-06 16:54:20</time>
      </trkpt>
      <trkpt lat="37.05291" lon="-3.3718">
        <ele>3204.6</ele>
        <time>2021-08-06 16:54:21</time>
      </trkpt>
      <trkpt lat="37.05292" lon="-3.37178">
        <ele>3204.8</ele>
        <time>2021-08-06 16:54:22</time>
      </trkpt>
      <trkpt lat="37.05292" lon="-3.37178">
        <ele>3204.8</ele>
        <time>2021-08-06 16:54:23</time>
      </trkpt>
      <trkpt lat="37.05293" lon="-3.37177">
        <ele>3205</ele>
        <time>2021-08-06 16:54:24</time>
      </trkpt>
      <trkpt lat="37.05294" lon="-3.37177">
        <ele>3205</ele>
        <time>2021-08-06 16:54:25</time>
      </trkpt>
      <trkpt lat="37.05295" lon="-3.37176">
        <ele>3205.2</ele>
        <time>2021-08-06 16:54:26</time>
      </trkpt>
      <trkpt lat="37.05296" lon="-3.37175">
        <ele>3205.2</ele>
        <time>2021-08-06 16:54:27</time>
      </trkpt>
      <trkpt lat="37.05296" lon="-3.37173">
        <ele>3205</ele>
        <time>2021-08-06 16:54:28</time>
      </trkpt>
      <trkpt lat="37.05297" lon="-3.37173">
        <ele>3205</ele>
        <time>2021-08-06 16:54:29</time>
      </trkpt>
      <trkpt lat="37.05298" lon="-3.37172">
        <ele>3204.8</ele>
        <time>2021-08-06 16:54:30</time>
      </trkpt>
      <trkpt lat="37.05298" lon="-3.37172">
        <ele>3204.8</ele>
        <time>2021-08-06 16:54:31</time>
      </trkpt>
      <trkpt lat="37.05299" lon="-3.37171">
        <ele>3204.8</ele>
        <time>2021-08-06 16:54:32</time>
      </trkpt>
      <trkpt lat="37.053" lon="-3.3717">
        <ele>3204.8</ele>
        <time>2021-08-06 16:54:33</time>
      </trkpt>
      <trkpt lat="37.05301" lon="-3.3717">
        <ele>3204.8</ele>
        <time>2021-08-06 16:54:34</time>
      </trkpt>
      <trkpt lat="37.05302" lon="-3.3717">
        <ele>3204.8</ele>
        <time>2021-08-06 16:54:35</time>
      </trkpt>
      <trkpt lat="37.05303" lon="-3.3717">
        <ele>3204.8</ele>
        <time>2021-08-06 16:54:36</time>
      </trkpt>
      <trkpt lat="37.05304" lon="-3.3717">
        <ele>3204.8</ele>
        <time>2021-08-06 16:54:37</time>
      </trkpt>
      <trkpt lat="37.05305" lon="-3.37169">
        <ele>3204.8</ele>
        <time>2021-08-06 16:54:38</time>
      </trkpt>
      <trkpt lat="37.05306" lon="-3.37168">
        <ele>3204.8</ele>
        <time>2021-08-06 16:54:39</time>
      </trkpt>
      <trkpt lat="37.05307" lon="-3.37168">
        <ele>3204.6</ele>
        <time>2021-08-06 16:54:40</time>
      </trkpt>
      <trkpt lat="37.05308" lon="-3.37167">
        <ele>3204.4</ele>
        <time>2021-08-06 16:54:41</time>
      </trkpt>
      <trkpt lat="37.05309" lon="-3.37166">
        <ele>3204.6</ele>
        <time>2021-08-06 16:54:42</time>
      </trkpt>
      <trkpt lat="37.0531" lon="-3.37165">
        <ele>3204.4</ele>
        <time>2021-08-06 16:54:43</time>
      </trkpt>
      <trkpt lat="37.05311" lon="-3.37165">
        <ele>3204.4</ele>
        <time>2021-08-06 16:54:44</time>
      </trkpt>
      <trkpt lat="37.05312" lon="-3.37164">
        <ele>3204.4</ele>
        <time>2021-08-06 16:54:45</time>
      </trkpt>
      <trkpt lat="37.05313" lon="-3.37164">
        <ele>3204.8</ele>
        <time>2021-08-06 16:54:46</time>
      </trkpt>
      <trkpt lat="37.05314" lon="-3.37163">
        <ele>3204.8</ele>
        <time>2021-08-06 16:54:47</time>
      </trkpt>
      <trkpt lat="37.05315" lon="-3.37163">
        <ele>3204.8</ele>
        <time>2021-08-06 16:54:48</time>
      </trkpt>
      <trkpt lat="37.05315" lon="-3.37162">
        <ele>3204.6</ele>
        <time>2021-08-06 16:54:49</time>
      </trkpt>
      <trkpt lat="37.05316" lon="-3.37162">
        <ele>3204.6</ele>
        <time>2021-08-06 16:54:50</time>
      </trkpt>
      <trkpt lat="37.05317" lon="-3.37161">
        <ele>3204.6</ele>
        <time>2021-08-06 16:54:51</time>
      </trkpt>
      <trkpt lat="37.05318" lon="-3.37161">
        <ele>3204.4</ele>
        <time>2021-08-06 16:54:52</time>
      </trkpt>
      <trkpt lat="37.05318" lon="-3.3716">
        <ele>3204.2</ele>
        <time>2021-08-06 16:54:53</time>
      </trkpt>
      <trkpt lat="37.05319" lon="-3.3716">
        <ele>3204</ele>
        <time>2021-08-06 16:54:54</time>
      </trkpt>
      <trkpt lat="37.0532" lon="-3.3716">
        <ele>3204</ele>
        <time>2021-08-06 16:54:55</time>
      </trkpt>
      <trkpt lat="37.05321" lon="-3.37159">
        <ele>3204.4</ele>
        <time>2021-08-06 16:54:56</time>
      </trkpt>
      <trkpt lat="37.05322" lon="-3.37159">
        <ele>3204.4</ele>
        <time>2021-08-06 16:54:57</time>
      </trkpt>
      <trkpt lat="37.05323" lon="-3.37158">
        <ele>3204.6</ele>
        <time>2021-08-06 16:54:58</time>
      </trkpt>
      <trkpt lat="37.05323" lon="-3.37158">
        <ele>3204.6</ele>
        <time>2021-08-06 16:54:59</time>
      </trkpt>
      <trkpt lat="37.05324" lon="-3.37157">
        <ele>3204.8</ele>
        <time>2021-08-06 16:55:00</time>
      </trkpt>
      <trkpt lat="37.05324" lon="-3.37157">
        <ele>3205</ele>
        <time>2021-08-06 16:55:01</time>
      </trkpt>
      <trkpt lat="37.05324" lon="-3.37157">
        <ele>3205.2</ele>
        <time>2021-08-06 16:55:02</time>
      </trkpt>
      <trkpt lat="37.05324" lon="-3.37157">
        <ele>3205.2</ele>
        <time>2021-08-06 16:55:03</time>
      </trkpt>
      <trkpt lat="37.05324" lon="-3.37157">
        <ele>3205.4</ele>
        <time>2021-08-06 16:55:04</time>
      </trkpt>
      <trkpt lat="37.05324" lon="-3.37157">
        <ele>3205.4</ele>
        <time>2021-08-06 16:55:05</time>
      </trkpt>
      <trkpt lat="37.05324" lon="-3.37157">
        <ele>3205.4</ele>
        <time>2021-08-06 16:55:06</time>
      </trkpt>
      <trkpt lat="37.05324" lon="-3.37157">
        <ele>3205.4</ele>
        <time>2021-08-06 16:55:07</time>
      </trkpt>
      <trkpt lat="37.05324" lon="-3.37158">
        <ele>3205.4</ele>
        <time>2021-08-06 16:55:08</time>
      </trkpt>
      <trkpt lat="37.05324" lon="-3.37158">
        <ele>3205.4</ele>
        <time>2021-08-06 16:55:09</time>
      </trkpt>
      <trkpt lat="37.05323" lon="-3.37158">
        <ele>3205.4</ele>
        <time>2021-08-06 16:55:10</time>
      </trkpt>
      <trkpt lat="37.05323" lon="-3.37157">
        <ele>3205.4</ele>
        <time>2021-08-06 16:55:11</time>
      </trkpt>
      <trkpt lat="37.05324" lon="-3.37157">
        <ele>3205.2</ele>
        <time>2021-08-06 16:55:12</time>
      </trkpt>
      <trkpt lat="37.05324" lon="-3.37157">
        <ele>3205</ele>
        <time>2021-08-06 16:55:13</time>
      </trkpt>
      <trkpt lat="37.05325" lon="-3.37157">
        <ele>3205.2</ele>
        <time>2021-08-06 16:55:14</time>
      </trkpt>
      <trkpt lat="37.05325" lon="-3.37156">
        <ele>3205.2</ele>
        <time>2021-08-06 16:55:15</time>
      </trkpt>
      <trkpt lat="37.05326" lon="-3.37156">
        <ele>3205.2</ele>
        <time>2021-08-06 16:55:16</time>
      </trkpt>
      <trkpt lat="37.05327" lon="-3.37155">
        <ele>3205.4</ele>
        <time>2021-08-06 16:55:17</time>
      </trkpt>
      <trkpt lat="37.05328" lon="-3.37156">
        <ele>3205.6</ele>
        <time>2021-08-06 16:55:18</time>
      </trkpt>
      <trkpt lat="37.05328" lon="-3.37156">
        <ele>3205.6</ele>
        <time>2021-08-06 16:55:19</time>
      </trkpt>
      <trkpt lat="37.05329" lon="-3.37156">
        <ele>3205.6</ele>
        <time>2021-08-06 16:55:20</time>
      </trkpt>
      <trkpt lat="37.05331" lon="-3.37158">
        <ele>3205.6</ele>
        <time>2021-08-06 16:55:21</time>
      </trkpt>
      <trkpt lat="37.05331" lon="-3.37156">
        <ele>3205.8</ele>
        <time>2021-08-06 16:55:22</time>
      </trkpt>
      <trkpt lat="37.05332" lon="-3.37155">
        <ele>3205.6</ele>
        <time>2021-08-06 16:55:23</time>
      </trkpt>
      <trkpt lat="37.05333" lon="-3.37155">
        <ele>3205.4</ele>
        <time>2021-08-06 16:55:24</time>
      </trkpt>
      <trkpt lat="37.05334" lon="-3.37154">
        <ele>3205.4</ele>
        <time>2021-08-06 16:55:25</time>
      </trkpt>
      <trkpt lat="37.05335" lon="-3.37153">
        <ele>3205.2</ele>
        <time>2021-08-06 16:55:26</time>
      </trkpt>
      <trkpt lat="37.05336" lon="-3.37153">
        <ele>3205</ele>
        <time>2021-08-06 16:55:27</time>
      </trkpt>
      <trkpt lat="37.05337" lon="-3.37152">
        <ele>3205</ele>
        <time>2021-08-06 16:55:28</time>
      </trkpt>
      <trkpt lat="37.05339" lon="-3.37151">
        <ele>3204.8</ele>
        <time>2021-08-06 16:55:29</time>
      </trkpt>
      <trkpt lat="37.0534" lon="-3.37151">
        <ele>3204.8</ele>
        <time>2021-08-06 16:55:30</time>
      </trkpt>
      <trkpt lat="37.05341" lon="-3.37151">
        <ele>3204.8</ele>
        <time>2021-08-06 16:55:31</time>
      </trkpt>
      <trkpt lat="37.05342" lon="-3.37151">
        <ele>3204.8</ele>
        <time>2021-08-06 16:55:32</time>
      </trkpt>
      <trkpt lat="37.05343" lon="-3.3715">
        <ele>3204.8</ele>
        <time>2021-08-06 16:55:33</time>
      </trkpt>
      <trkpt lat="37.05344" lon="-3.3715">
        <ele>3205.2</ele>
        <time>2021-08-06 16:55:34</time>
      </trkpt>
      <trkpt lat="37.05345" lon="-3.3715">
        <ele>3205.6</ele>
        <time>2021-08-06 16:55:35</time>
      </trkpt>
      <trkpt lat="37.05346" lon="-3.3715">
        <ele>3205.6</ele>
        <time>2021-08-06 16:55:36</time>
      </trkpt>
      <trkpt lat="37.05347" lon="-3.3715">
        <ele>3205.6</ele>
        <time>2021-08-06 16:55:37</time>
      </trkpt>
      <trkpt lat="37.05348" lon="-3.3715">
        <ele>3205.6</ele>
        <time>2021-08-06 16:55:38</time>
      </trkpt>
      <trkpt lat="37.05349" lon="-3.3715">
        <ele>3205.4</ele>
        <time>2021-08-06 16:55:39</time>
      </trkpt>
      <trkpt lat="37.0535" lon="-3.3715">
        <ele>3205.2</ele>
        <time>2021-08-06 16:55:40</time>
      </trkpt>
      <trkpt lat="37.0535" lon="-3.37149">
        <ele>3205</ele>
        <time>2021-08-06 16:55:41</time>
      </trkpt>
      <trkpt lat="37.05351" lon="-3.37149">
        <ele>3205</ele>
        <time>2021-08-06 16:55:42</time>
      </trkpt>
      <trkpt lat="37.05352" lon="-3.37149">
        <ele>3205</ele>
        <time>2021-08-06 16:55:43</time>
      </trkpt>
      <trkpt lat="37.05353" lon="-3.37149">
        <ele>3205</ele>
        <time>2021-08-06 16:55:44</time>
      </trkpt>
      <trkpt lat="37.05354" lon="-3.37149">
        <ele>3205</ele>
        <time>2021-08-06 16:55:45</time>
      </trkpt>
      <trkpt lat="37.05355" lon="-3.37149">
        <ele>3205</ele>
        <time>2021-08-06 16:55:46</time>
      </trkpt>
      <trkpt lat="37.05356" lon="-3.37149">
        <ele>3205</ele>
        <time>2021-08-06 16:55:47</time>
      </trkpt>
      <trkpt lat="37.05357" lon="-3.37149">
        <ele>3205.2</ele>
        <time>2021-08-06 16:55:48</time>
      </trkpt>
      <trkpt lat="37.05359" lon="-3.37149">
        <ele>3205.4</ele>
        <time>2021-08-06 16:55:49</time>
      </trkpt>
      <trkpt lat="37.0536" lon="-3.37148">
        <ele>3205.4</ele>
        <time>2021-08-06 16:55:50</time>
      </trkpt>
      <trkpt lat="37.0536" lon="-3.37148">
        <ele>3205.4</ele>
        <time>2021-08-06 16:55:51</time>
      </trkpt>
      <trkpt lat="37.05361" lon="-3.37148">
        <ele>3205.4</ele>
        <time>2021-08-06 16:55:52</time>
      </trkpt>
      <trkpt lat="37.05361" lon="-3.37147">
        <ele>3205.4</ele>
        <time>2021-08-06 16:55:53</time>
      </trkpt>
      <trkpt lat="37.05362" lon="-3.37147">
        <ele>3205.4</ele>
        <time>2021-08-06 16:55:54</time>
      </trkpt>
      <trkpt lat="37.05364" lon="-3.37147">
        <ele>3205.2</ele>
        <time>2021-08-06 16:55:55</time>
      </trkpt>
      <trkpt lat="37.05365" lon="-3.37146">
        <ele>3205.6</ele>
        <time>2021-08-06 16:55:56</time>
      </trkpt>
      <trkpt lat="37.05366" lon="-3.37146">
        <ele>3205.6</ele>
        <time>2021-08-06 16:55:57</time>
      </trkpt>
      <trkpt lat="37.05367" lon="-3.37145">
        <ele>3205.8</ele>
        <time>2021-08-06 16:55:58</time>
      </trkpt>
      <trkpt lat="37.05368" lon="-3.37145">
        <ele>3205.8</ele>
        <time>2021-08-06 16:55:59</time>
      </trkpt>
      <trkpt lat="37.05369" lon="-3.37145">
        <ele>3206</ele>
        <time>2021-08-06 16:56:00</time>
      </trkpt>
      <trkpt lat="37.0537" lon="-3.37144">
        <ele>3206.2</ele>
        <time>2021-08-06 16:56:01</time>
      </trkpt>
      <trkpt lat="37.05371" lon="-3.37144">
        <ele>3206.2</ele>
        <time>2021-08-06 16:56:02</time>
      </trkpt>
      <trkpt lat="37.05373" lon="-3.37144">
        <ele>3206.2</ele>
        <time>2021-08-06 16:56:03</time>
      </trkpt>
      <trkpt lat="37.05374" lon="-3.37143">
        <ele>3206</ele>
        <time>2021-08-06 16:56:04</time>
      </trkpt>
      <trkpt lat="37.05375" lon="-3.37143">
        <ele>3205.8</ele>
        <time>2021-08-06 16:56:05</time>
      </trkpt>
      <trkpt lat="37.05376" lon="-3.37142">
        <ele>3205.4</ele>
        <time>2021-08-06 16:56:06</time>
      </trkpt>
      <trkpt lat="37.05377" lon="-3.37142">
        <ele>3205.2</ele>
        <time>2021-08-06 16:56:07</time>
      </trkpt>
      <trkpt lat="37.05378" lon="-3.37142">
        <ele>3205</ele>
        <time>2021-08-06 16:56:08</time>
      </trkpt>
      <trkpt lat="37.05379" lon="-3.37141">
        <ele>3205</ele>
        <time>2021-08-06 16:56:09</time>
      </trkpt>
      <trkpt lat="37.0538" lon="-3.37141">
        <ele>3205.6</ele>
        <time>2021-08-06 16:56:10</time>
      </trkpt>
      <trkpt lat="37.05381" lon="-3.37141">
        <ele>3206</ele>
        <time>2021-08-06 16:56:11</time>
      </trkpt>
      <trkpt lat="37.05382" lon="-3.37141">
        <ele>3206.2</ele>
        <time>2021-08-06 16:56:12</time>
      </trkpt>
      <trkpt lat="37.05383" lon="-3.37141">
        <ele>3206.2</ele>
        <time>2021-08-06 16:56:13</time>
      </trkpt>
      <trkpt lat="37.05384" lon="-3.3714">
        <ele>3206.2</ele>
        <time>2021-08-06 16:56:14</time>
      </trkpt>
      <trkpt lat="37.05385" lon="-3.3714">
        <ele>3206.2</ele>
        <time>2021-08-06 16:56:15</time>
      </trkpt>
      <trkpt lat="37.05386" lon="-3.3714">
        <ele>3206.2</ele>
        <time>2021-08-06 16:56:16</time>
      </trkpt>
      <trkpt lat="37.05387" lon="-3.3714">
        <ele>3206</ele>
        <time>2021-08-06 16:56:17</time>
      </trkpt>
      <trkpt lat="37.05388" lon="-3.3714">
        <ele>3206</ele>
        <time>2021-08-06 16:56:18</time>
      </trkpt>
      <trkpt lat="37.05389" lon="-3.3714">
        <ele>3206</ele>
        <time>2021-08-06 16:56:19</time>
      </trkpt>
      <trkpt lat="37.0539" lon="-3.3714">
        <ele>3206</ele>
        <time>2021-08-06 16:56:20</time>
      </trkpt>
      <trkpt lat="37.05391" lon="-3.3714">
        <ele>3206</ele>
        <time>2021-08-06 16:56:21</time>
      </trkpt>
      <trkpt lat="37.05392" lon="-3.37139">
        <ele>3206</ele>
        <time>2021-08-06 16:56:22</time>
      </trkpt>
      <trkpt lat="37.05393" lon="-3.37139">
        <ele>3205.8</ele>
        <time>2021-08-06 16:56:23</time>
      </trkpt>
      <trkpt lat="37.05394" lon="-3.37138">
        <ele>3205.6</ele>
        <time>2021-08-06 16:56:24</time>
      </trkpt>
      <trkpt lat="37.05395" lon="-3.37138">
        <ele>3205.6</ele>
        <time>2021-08-06 16:56:25</time>
      </trkpt>
      <trkpt lat="37.05396" lon="-3.37137">
        <ele>3205.6</ele>
        <time>2021-08-06 16:56:26</time>
      </trkpt>
      <trkpt lat="37.05397" lon="-3.37137">
        <ele>3205.6</ele>
        <time>2021-08-06 16:56:27</time>
      </trkpt>
      <trkpt lat="37.05398" lon="-3.37137">
        <ele>3205.6</ele>
        <time>2021-08-06 16:56:28</time>
      </trkpt>
      <trkpt lat="37.05399" lon="-3.37137">
        <ele>3205.6</ele>
        <time>2021-08-06 16:56:29</time>
      </trkpt>
      <trkpt lat="37.054" lon="-3.37136">
        <ele>3205.6</ele>
        <time>2021-08-06 16:56:30</time>
      </trkpt>
      <trkpt lat="37.05401" lon="-3.37136">
        <ele>3205.8</ele>
        <time>2021-08-06 16:56:31</time>
      </trkpt>
      <trkpt lat="37.05402" lon="-3.37137">
        <ele>3205.8</ele>
        <time>2021-08-06 16:56:32</time>
      </trkpt>
      <trkpt lat="37.05403" lon="-3.37136">
        <ele>3205.8</ele>
        <time>2021-08-06 16:56:33</time>
      </trkpt>
      <trkpt lat="37.05404" lon="-3.37136">
        <ele>3206</ele>
        <time>2021-08-06 16:56:34</time>
      </trkpt>
      <trkpt lat="37.05404" lon="-3.37136">
        <ele>3206</ele>
        <time>2021-08-06 16:56:35</time>
      </trkpt>
      <trkpt lat="37.05405" lon="-3.37135">
        <ele>3205.6</ele>
        <time>2021-08-06 16:56:36</time>
      </trkpt>
      <trkpt lat="37.05406" lon="-3.37134">
        <ele>3205.6</ele>
        <time>2021-08-06 16:56:37</time>
      </trkpt>
      <trkpt lat="37.05407" lon="-3.37134">
        <ele>3205.6</ele>
        <time>2021-08-06 16:56:38</time>
      </trkpt>
      <trkpt lat="37.05408" lon="-3.37134">
        <ele>3205.6</ele>
        <time>2021-08-06 16:56:39</time>
      </trkpt>
      <trkpt lat="37.05409" lon="-3.37133">
        <ele>3205.6</ele>
        <time>2021-08-06 16:56:40</time>
      </trkpt>
      <trkpt lat="37.0541" lon="-3.37133">
        <ele>3205.6</ele>
        <time>2021-08-06 16:56:41</time>
      </trkpt>
      <trkpt lat="37.05411" lon="-3.37133">
        <ele>3205.6</ele>
        <time>2021-08-06 16:56:42</time>
      </trkpt>
      <trkpt lat="37.05412" lon="-3.37133">
        <ele>3205.8</ele>
        <time>2021-08-06 16:56:43</time>
      </trkpt>
      <trkpt lat="37.05413" lon="-3.37133">
        <ele>3205.8</ele>
        <time>2021-08-06 16:56:44</time>
      </trkpt>
      <trkpt lat="37.05413" lon="-3.37133">
        <ele>3205.8</ele>
        <time>2021-08-06 16:56:45</time>
      </trkpt>
      <trkpt lat="37.05414" lon="-3.37132">
        <ele>3206</ele>
        <time>2021-08-06 16:56:46</time>
      </trkpt>
      <trkpt lat="37.05415" lon="-3.37132">
        <ele>3206</ele>
        <time>2021-08-06 16:56:47</time>
      </trkpt>
      <trkpt lat="37.05416" lon="-3.37132">
        <ele>3205.8</ele>
        <time>2021-08-06 16:56:48</time>
      </trkpt>
      <trkpt lat="37.05417" lon="-3.37131">
        <ele>3206.2</ele>
        <time>2021-08-06 16:56:49</time>
      </trkpt>
      <trkpt lat="37.05418" lon="-3.37131">
        <ele>3206</ele>
        <time>2021-08-06 16:56:50</time>
      </trkpt>
      <trkpt lat="37.05419" lon="-3.37131">
        <ele>3206</ele>
        <time>2021-08-06 16:56:51</time>
      </trkpt>
      <trkpt lat="37.0542" lon="-3.37131">
        <ele>3206</ele>
        <time>2021-08-06 16:56:52</time>
      </trkpt>
      <trkpt lat="37.05422" lon="-3.37131">
        <ele>3206</ele>
        <time>2021-08-06 16:56:53</time>
      </trkpt>
      <trkpt lat="37.05423" lon="-3.3713">
        <ele>3206</ele>
        <time>2021-08-06 16:56:54</time>
      </trkpt>
      <trkpt lat="37.05424" lon="-3.3713">
        <ele>3206</ele>
        <time>2021-08-06 16:56:55</time>
      </trkpt>
      <trkpt lat="37.05425" lon="-3.3713">
        <ele>3206</ele>
        <time>2021-08-06 17:31:55</time>
      </trkpt>
      <trkpt lat="37.05426" lon="-3.37129">
        <ele>3205.8</ele>
        <time>2021-08-06 17:31:56</time>
      </trkpt>
      <trkpt lat="37.05427" lon="-3.37129">
        <ele>3205.6</ele>
        <time>2021-08-06 17:31:57</time>
      </trkpt>
      <trkpt lat="37.05428" lon="-3.3713">
        <ele>3205.6</ele>
        <time>2021-08-06 17:31:58</time>
      </trkpt>
      <trkpt lat="37.05429" lon="-3.3713">
        <ele>3205.4</ele>
        <time>2021-08-06 17:31:59</time>
      </trkpt>
      <trkpt lat="37.0543" lon="-3.37131">
        <ele>3205.4</ele>
        <time>2021-08-06 17:32:00</time>
      </trkpt>
      <trkpt lat="37.05431" lon="-3.37131">
        <ele>3205.4</ele>
        <time>2021-08-06 17:32:01</time>
      </trkpt>
      <trkpt lat="37.05433" lon="-3.37132">
        <ele>3205.4</ele>
        <time>2021-08-06 17:32:02</time>
      </trkpt>
      <trkpt lat="37.05434" lon="-3.37132">
        <ele>3205.4</ele>
        <time>2021-08-06 17:32:03</time>
      </trkpt>
      <trkpt lat="37.05435" lon="-3.37132">
        <ele>3205.4</ele>
        <time>2021-08-06 17:32:04</time>
      </trkpt>
      <trkpt lat="37.05436" lon="-3.37131">
        <ele>3205.2</ele>
        <time>2021-08-06 17:32:05</time>
      </trkpt>
      <trkpt lat="37.05437" lon="-3.37131">
        <ele>3205.4</ele>
        <time>2021-08-06 17:32:06</time>
      </trkpt>
      <trkpt lat="37.05438" lon="-3.37131">
        <ele>3205.4</ele>
        <time>2021-08-06 17:32:07</time>
      </trkpt>
      <trkpt lat="37.05439" lon="-3.3713">
        <ele>3205.4</ele>
        <time>2021-08-06 17:32:08</time>
      </trkpt>
      <trkpt lat="37.0544" lon="-3.37131">
        <ele>3205.4</ele>
        <time>2021-08-06 17:32:09</time>
      </trkpt>
      <trkpt lat="37.05441" lon="-3.37131">
        <ele>3205.4</ele>
        <time>2021-08-06 17:32:10</time>
      </trkpt>
      <trkpt lat="37.05442" lon="-3.3713">
        <ele>3205.4</ele>
        <time>2021-08-06 17:32:11</time>
      </trkpt>
      <trkpt lat="37.05443" lon="-3.3713">
        <ele>3205.4</ele>
        <time>2021-08-06 17:32:12</time>
      </trkpt>
      <trkpt lat="37.05444" lon="-3.3713">
        <ele>3205.4</ele>
        <time>2021-08-06 17:32:13</time>
      </trkpt>
      <trkpt lat="37.05445" lon="-3.3713">
        <ele>3205.2</ele>
        <time>2021-08-06 17:32:14</time>
      </trkpt>
      <trkpt lat="37.05446" lon="-3.37133">
        <ele>3205.2</ele>
        <time>2021-08-06 17:32:15</time>
      </trkpt>
      <trkpt lat="37.05447" lon="-3.37133">
        <ele>3205.2</ele>
        <time>2021-08-06 17:32:16</time>
      </trkpt>
      <trkpt lat="37.05448" lon="-3.37133">
        <ele>3205.2</ele>
        <time>2021-08-06 17:32:17</time>
      </trkpt>
      <trkpt lat="37.05449" lon="-3.37129">
        <ele>3205.2</ele>
        <time>2021-08-06 17:32:18</time>
      </trkpt>
      <trkpt lat="37.0545" lon="-3.37129">
        <ele>3205.6</ele>
        <time>2021-08-06 17:32:19</time>
      </trkpt>
      <trkpt lat="37.05451" lon="-3.37129">
        <ele>3205.4</ele>
        <time>2021-08-06 17:32:20</time>
      </trkpt>
      <trkpt lat="37.05452" lon="-3.3713">
        <ele>3205.6</ele>
        <time>2021-08-06 17:32:21</time>
      </trkpt>
      <trkpt lat="37.05453" lon="-3.37129">
        <ele>3205.8</ele>
        <time>2021-08-06 17:32:22</time>
      </trkpt>
      <trkpt lat="37.05454" lon="-3.37129">
        <ele>3205.8</ele>
        <time>2021-08-06 17:32:23</time>
      </trkpt>
      <trkpt lat="37.05455" lon="-3.3713">
        <ele>3205.8</ele>
        <time>2021-08-06 17:32:24</time>
      </trkpt>
      <trkpt lat="37.05456" lon="-3.37129">
        <ele>3205.6</ele>
        <time>2021-08-06 17:32:25</time>
      </trkpt>
      <trkpt lat="37.05457" lon="-3.37129">
        <ele>3205.2</ele>
        <time>2021-08-06 17:32:26</time>
      </trkpt>
      <trkpt lat="37.05458" lon="-3.37129">
        <ele>3205.2</ele>
        <time>2021-08-06 17:32:27</time>
      </trkpt>
      <trkpt lat="37.0546" lon="-3.37128">
        <ele>3205.2</ele>
        <time>2021-08-06 17:32:28</time>
      </trkpt>
      <trkpt lat="37.05461" lon="-3.37128">
        <ele>3205</ele>
        <time>2021-08-06 17:32:29</time>
      </trkpt>
      <trkpt lat="37.05462" lon="-3.37128">
        <ele>3205</ele>
        <time>2021-08-06 17:32:30</time>
      </trkpt>
      <trkpt lat="37.05463" lon="-3.37129">
        <ele>3205</ele>
        <time>2021-08-06 17:32:31</time>
      </trkpt>
      <trkpt lat="37.05464" lon="-3.37128">
        <ele>3205.2</ele>
        <time>2021-08-06 17:32:32</time>
      </trkpt>
      <trkpt lat="37.05466" lon="-3.37127">
        <ele>3205.2</ele>
        <time>2021-08-06 17:32:33</time>
      </trkpt>
      <trkpt lat="37.05467" lon="-3.37126">
        <ele>3205.4</ele>
        <time>2021-08-06 17:32:34</time>
      </trkpt>
      <trkpt lat="37.05468" lon="-3.37126">
        <ele>3205.6</ele>
        <time>2021-08-06 17:32:35</time>
      </trkpt>
      <trkpt lat="37.05469" lon="-3.37125">
        <ele>3205.6</ele>
        <time>2021-08-06 17:32:36</time>
      </trkpt>
      <trkpt lat="37.0547" lon="-3.37125">
        <ele>3205.6</ele>
        <time>2021-08-06 17:32:37</time>
      </trkpt>
      <trkpt lat="37.05471" lon="-3.37125">
        <ele>3205.6</ele>
        <time>2021-08-06 17:32:38</time>
      </trkpt>
      <trkpt lat="37.05472" lon="-3.37126">
        <ele>3205.4</ele>
        <time>2021-08-06 17:32:39</time>
      </trkpt>
      <trkpt lat="37.05473" lon="-3.37126">
        <ele>3205.2</ele>
        <time>2021-08-06 17:32:40</time>
      </trkpt>
      <trkpt lat="37.05474" lon="-3.37126">
        <ele>3205.2</ele>
        <time>2021-08-06 17:32:41</time>
      </trkpt>
      <trkpt lat="37.05475" lon="-3.37126">
        <ele>3205.2</ele>
        <time>2021-08-06 17:32:42</time>
      </trkpt>
      <trkpt lat="37.05476" lon="-3.37126">
        <ele>3205</ele>
        <time>2021-08-06 17:32:43</time>
      </trkpt>
      <trkpt lat="37.05476" lon="-3.37126">
        <ele>3205</ele>
        <time>2021-08-06 17:32:44</time>
      </trkpt>
      <trkpt lat="37.05477" lon="-3.37126">
        <ele>3205</ele>
        <time>2021-08-06 17:32:45</time>
      </trkpt>
      <trkpt lat="37.05478" lon="-3.37126">
        <ele>3204.6</ele>
        <time>2021-08-06 17:32:51</time>
      </trkpt>
      <trkpt lat="37.05479" lon="-3.37125">
        <ele>3204.4</ele>
        <time>2021-08-06 17:32:52</time>
      </trkpt>
      <trkpt lat="37.0548" lon="-3.37125">
        <ele>3204.2</ele>
        <time>2021-08-06 17:32:53</time>
      </trkpt>
      <trkpt lat="37.05481" lon="-3.37125">
        <ele>3204.2</ele>
        <time>2021-08-06 17:32:54</time>
      </trkpt>
      <trkpt lat="37.05482" lon="-3.37125">
        <ele>3204.2</ele>
        <time>2021-08-06 17:32:55</time>
      </trkpt>
      <trkpt lat="37.05482" lon="-3.37125">
        <ele>3204</ele>
        <time>2021-08-06 17:32:56</time>
      </trkpt>
      <trkpt lat="37.05483" lon="-3.37125">
        <ele>3203.8</ele>
        <time>2021-08-06 17:32:57</time>
      </trkpt>
      <trkpt lat="37.05483" lon="-3.37125">
        <ele>3204</ele>
        <time>2021-08-06 17:32:58</time>
      </trkpt>
      <trkpt lat="37.05483" lon="-3.37126">
        <ele>3204</ele>
        <time>2021-08-06 17:32:59</time>
      </trkpt>
      <trkpt lat="37.05483" lon="-3.37126">
        <ele>3204</ele>
        <time>2021-08-06 17:33:00</time>
      </trkpt>
      <trkpt lat="37.05483" lon="-3.37125">
        <ele>3204</ele>
        <time>2021-08-06 17:33:01</time>
      </trkpt>
      <trkpt lat="37.05483" lon="-3.37125">
        <ele>3204</ele>
        <time>2021-08-06 17:34:04</time>
      </trkpt>
      <trkpt lat="37.05483" lon="-3.37125">
        <ele>3204</ele>
        <time>2021-08-06 17:34:05</time>
      </trkpt>
      <trkpt lat="37.05484" lon="-3.37126">
        <ele>3204</ele>
        <time>2021-08-06 17:34:06</time>
      </trkpt>
      <trkpt lat="37.05485" lon="-3.37126">
        <ele>3204</ele>
        <time>2021-08-06 17:34:07</time>
      </trkpt>
      <trkpt lat="37.05485" lon="-3.37127">
        <ele>3203.8</ele>
        <time>2021-08-06 17:34:29</time>
      </trkpt>
      <trkpt lat="37.05486" lon="-3.37127">
        <ele>3203.6</ele>
        <time>2021-08-06 17:34:30</time>
      </trkpt>
      <trkpt lat="37.05488" lon="-3.37128">
        <ele>3203.6</ele>
        <time>2021-08-06 17:34:31</time>
      </trkpt>
      <trkpt lat="37.05489" lon="-3.37128">
        <ele>3203.6</ele>
        <time>2021-08-06 17:34:32</time>
      </trkpt>
      <trkpt lat="37.0549" lon="-3.37129">
        <ele>3203.4</ele>
        <time>2021-08-06 17:34:33</time>
      </trkpt>
      <trkpt lat="37.05491" lon="-3.37129">
        <ele>3203.2</ele>
        <time>2021-08-06 17:34:34</time>
      </trkpt>
      <trkpt lat="37.05493" lon="-3.37129">
        <ele>3203</ele>
        <time>2021-08-06 17:34:35</time>
      </trkpt>
      <trkpt lat="37.05493" lon="-3.37129">
        <ele>3202.6</ele>
        <time>2021-08-06 17:34:36</time>
      </trkpt>
      <trkpt lat="37.05495" lon="-3.37128">
        <ele>3202.6</ele>
        <time>2021-08-06 18:00:05</time>
      </trkpt>
      <trkpt lat="37.05495" lon="-3.37126">
        <ele>3202.6</ele>
        <time>2021-08-06 18:00:06</time>
      </trkpt>
      <trkpt lat="37.05497" lon="-3.37127">
        <ele>3202.6</ele>
        <time>2021-08-06 18:00:07</time>
      </trkpt>
      <trkpt lat="37.05498" lon="-3.37127">
        <ele>3202.4</ele>
        <time>2021-08-06 18:00:08</time>
      </trkpt>
      <trkpt lat="37.05499" lon="-3.37127">
        <ele>3202.4</ele>
        <time>2021-08-06 18:00:09</time>
      </trkpt>
      <trkpt lat="37.055" lon="-3.37126">
        <ele>3202.4</ele>
        <time>2021-08-06 18:00:10</time>
      </trkpt>
      <trkpt lat="37.05501" lon="-3.37126">
        <ele>3202.2</ele>
        <time>2021-08-06 18:00:11</time>
      </trkpt>
      <trkpt lat="37.05503" lon="-3.37127">
        <ele>3202</ele>
        <time>2021-08-06 18:00:12</time>
      </trkpt>
      <trkpt lat="37.05504" lon="-3.37128">
        <ele>3201.8</ele>
        <time>2021-08-06 18:00:13</time>
      </trkpt>
      <trkpt lat="37.05505" lon="-3.37129">
        <ele>3201.8</ele>
        <time>2021-08-06 18:00:14</time>
      </trkpt>
      <trkpt lat="37.05506" lon="-3.37129">
        <ele>3201.8</ele>
        <time>2021-08-06 18:00:15</time>
      </trkpt>
      <trkpt lat="37.05507" lon="-3.3713">
        <ele>3201.8</ele>
        <time>2021-08-06 18:00:16</time>
      </trkpt>
      <trkpt lat="37.05509" lon="-3.3713">
        <ele>3201.8</ele>
        <time>2021-08-06 18:00:17</time>
      </trkpt>
      <trkpt lat="37.0551" lon="-3.3713">
        <ele>3201.6</ele>
        <time>2021-08-06 18:00:18</time>
      </trkpt>
      <trkpt lat="37.0551" lon="-3.37131">
        <ele>3201.6</ele>
        <time>2021-08-06 18:00:19</time>
      </trkpt>
      <trkpt lat="37.05512" lon="-3.3713">
        <ele>3201.4</ele>
        <time>2021-08-06 18:00:20</time>
      </trkpt>
      <trkpt lat="37.05513" lon="-3.3713">
        <ele>3201.4</ele>
        <time>2021-08-06 18:00:21</time>
      </trkpt>
      <trkpt lat="37.05514" lon="-3.37132">
        <ele>3201.2</ele>
        <time>2021-08-06 18:00:22</time>
      </trkpt>
      <trkpt lat="37.05515" lon="-3.37132">
        <ele>3201</ele>
        <time>2021-08-06 18:00:23</time>
      </trkpt>
      <trkpt lat="37.05516" lon="-3.37132">
        <ele>3200.8</ele>
        <time>2021-08-06 18:00:24</time>
      </trkpt>
      <trkpt lat="37.05517" lon="-3.37133">
        <ele>3201</ele>
        <time>2021-08-06 18:00:25</time>
      </trkpt>
      <trkpt lat="37.05519" lon="-3.37134">
        <ele>3200.6</ele>
        <time>2021-08-06 18:00:26</time>
      </trkpt>
      <trkpt lat="37.0552" lon="-3.37134">
        <ele>3200.4</ele>
        <time>2021-08-06 18:00:27</time>
      </trkpt>
      <trkpt lat="37.05521" lon="-3.37135">
        <ele>3200.4</ele>
        <time>2021-08-06 18:00:28</time>
      </trkpt>
      <trkpt lat="37.05522" lon="-3.37136">
        <ele>3200.4</ele>
        <time>2021-08-06 18:00:29</time>
      </trkpt>
      <trkpt lat="37.05524" lon="-3.37138">
        <ele>3200.2</ele>
        <time>2021-08-06 18:00:30</time>
      </trkpt>
      <trkpt lat="37.05525" lon="-3.37138">
        <ele>3200.2</ele>
        <time>2021-08-06 18:00:31</time>
      </trkpt>
      <trkpt lat="37.05526" lon="-3.37139">
        <ele>3200</ele>
        <time>2021-08-06 18:00:32</time>
      </trkpt>
      <trkpt lat="37.05527" lon="-3.37139">
        <ele>3200.2</ele>
        <time>2021-08-06 18:00:33</time>
      </trkpt>
      <trkpt lat="37.05528" lon="-3.37139">
        <ele>3200.2</ele>
        <time>2021-08-06 18:00:34</time>
      </trkpt>
      <trkpt lat="37.05529" lon="-3.3714">
        <ele>3200</ele>
        <time>2021-08-06 18:00:35</time>
      </trkpt>
      <trkpt lat="37.05529" lon="-3.37139">
        <ele>3199.8</ele>
        <time>2021-08-06 18:00:36</time>
      </trkpt>
      <trkpt lat="37.0553" lon="-3.37139">
        <ele>3199.6</ele>
        <time>2021-08-06 18:00:37</time>
      </trkpt>
      <trkpt lat="37.05531" lon="-3.37139">
        <ele>3199.6</ele>
        <time>2021-08-06 18:00:38</time>
      </trkpt>
      <trkpt lat="37.05532" lon="-3.3714">
        <ele>3199.4</ele>
        <time>2021-08-06 18:00:39</time>
      </trkpt>
      <trkpt lat="37.05533" lon="-3.3714">
        <ele>3199</ele>
        <time>2021-08-06 18:00:40</time>
      </trkpt>
      <trkpt lat="37.05535" lon="-3.3714">
        <ele>3198.8</ele>
        <time>2021-08-06 18:00:41</time>
      </trkpt>
      <trkpt lat="37.05536" lon="-3.3714">
        <ele>3198.6</ele>
        <time>2021-08-06 18:00:42</time>
      </trkpt>
      <trkpt lat="37.05537" lon="-3.3714">
        <ele>3198.6</ele>
        <time>2021-08-06 18:00:43</time>
      </trkpt>
      <trkpt lat="37.05538" lon="-3.37139">
        <ele>3198.6</ele>
        <time>2021-08-06 18:00:44</time>
      </trkpt>
      <trkpt lat="37.05539" lon="-3.37139">
        <ele>3198.6</ele>
        <time>2021-08-06 18:00:45</time>
      </trkpt>
      <trkpt lat="37.0554" lon="-3.3714">
        <ele>3198.6</ele>
        <time>2021-08-06 18:00:46</time>
      </trkpt>
      <trkpt lat="37.05541" lon="-3.37139">
        <ele>3198.4</ele>
        <time>2021-08-06 18:00:47</time>
      </trkpt>
      <trkpt lat="37.05542" lon="-3.37139">
        <ele>3198.4</ele>
        <time>2021-08-06 18:00:48</time>
      </trkpt>
      <trkpt lat="37.05542" lon="-3.37138">
        <ele>3198.4</ele>
        <time>2021-08-06 18:00:49</time>
      </trkpt>
      <trkpt lat="37.05543" lon="-3.37137">
        <ele>3198.4</ele>
        <time>2021-08-06 18:00:50</time>
      </trkpt>
      <trkpt lat="37.05544" lon="-3.37138">
        <ele>3198.2</ele>
        <time>2021-08-06 18:00:51</time>
      </trkpt>
      <trkpt lat="37.05545" lon="-3.37138">
        <ele>3198.2</ele>
        <time>2021-08-06 18:00:52</time>
      </trkpt>
      <trkpt lat="37.05546" lon="-3.37138">
        <ele>3198</ele>
        <time>2021-08-06 18:00:53</time>
      </trkpt>
      <trkpt lat="37.05547" lon="-3.37138">
        <ele>3198</ele>
        <time>2021-08-06 18:00:54</time>
      </trkpt>
      <trkpt lat="37.05549" lon="-3.37142">
        <ele>3198</ele>
        <time>2021-08-06 18:00:55</time>
      </trkpt>
      <trkpt lat="37.0555" lon="-3.37142">
        <ele>3197.8</ele>
        <time>2021-08-06 18:00:56</time>
      </trkpt>
      <trkpt lat="37.05551" lon="-3.37143">
        <ele>3197.8</ele>
        <time>2021-08-06 18:00:57</time>
      </trkpt>
      <trkpt lat="37.05552" lon="-3.37143">
        <ele>3197.4</ele>
        <time>2021-08-06 18:00:58</time>
      </trkpt>
      <trkpt lat="37.05553" lon="-3.37143">
        <ele>3197.2</ele>
        <time>2021-08-06 18:00:59</time>
      </trkpt>
      <trkpt lat="37.05553" lon="-3.37142">
        <ele>3197</ele>
        <time>2021-08-06 18:01:00</time>
      </trkpt>
      <trkpt lat="37.05554" lon="-3.37142">
        <ele>3197</ele>
        <time>2021-08-06 18:01:01</time>
      </trkpt>
      <trkpt lat="37.05556" lon="-3.37142">
        <ele>3196.8</ele>
        <time>2021-08-06 18:01:02</time>
      </trkpt>
      <trkpt lat="37.05557" lon="-3.37142">
        <ele>3196.6</ele>
        <time>2021-08-06 18:01:03</time>
      </trkpt>
      <trkpt lat="37.05558" lon="-3.37143">
        <ele>3196.6</ele>
        <time>2021-08-06 18:01:04</time>
      </trkpt>
      <trkpt lat="37.05559" lon="-3.37144">
        <ele>3196.6</ele>
        <time>2021-08-06 18:01:05</time>
      </trkpt>
      <trkpt lat="37.0556" lon="-3.37144">
        <ele>3196.6</ele>
        <time>2021-08-06 18:01:06</time>
      </trkpt>
      <trkpt lat="37.05561" lon="-3.37145">
        <ele>3196.6</ele>
        <time>2021-08-06 18:01:07</time>
      </trkpt>
      <trkpt lat="37.05562" lon="-3.37146">
        <ele>3196.6</ele>
        <time>2021-08-06 18:01:08</time>
      </trkpt>
      <trkpt lat="37.05563" lon="-3.37147">
        <ele>3196.8</ele>
        <time>2021-08-06 18:01:09</time>
      </trkpt>
      <trkpt lat="37.05564" lon="-3.37148">
        <ele>3197</ele>
        <time>2021-08-06 18:01:10</time>
      </trkpt>
      <trkpt lat="37.05565" lon="-3.37149">
        <ele>3197</ele>
        <time>2021-08-06 18:01:11</time>
      </trkpt>
      <trkpt lat="37.05566" lon="-3.37149">
        <ele>3196.8</ele>
        <time>2021-08-06 18:01:12</time>
      </trkpt>
      <trkpt lat="37.05567" lon="-3.3715">
        <ele>3196.6</ele>
        <time>2021-08-06 18:01:13</time>
      </trkpt>
      <trkpt lat="37.05568" lon="-3.3715">
        <ele>3196.4</ele>
        <time>2021-08-06 18:01:14</time>
      </trkpt>
      <trkpt lat="37.05569" lon="-3.3715">
        <ele>3196.2</ele>
        <time>2021-08-06 18:01:15</time>
      </trkpt>
      <trkpt lat="37.05569" lon="-3.37151">
        <ele>3196</ele>
        <time>2021-08-06 18:01:16</time>
      </trkpt>
      <trkpt lat="37.0557" lon="-3.37151">
        <ele>3196</ele>
        <time>2021-08-06 18:01:17</time>
      </trkpt>
      <trkpt lat="37.05571" lon="-3.37151">
        <ele>3195.8</ele>
        <time>2021-08-06 18:01:18</time>
      </trkpt>
      <trkpt lat="37.05572" lon="-3.3715">
        <ele>3195.6</ele>
        <time>2021-08-06 18:01:19</time>
      </trkpt>
      <trkpt lat="37.05574" lon="-3.37149">
        <ele>3195.6</ele>
        <time>2021-08-06 18:01:20</time>
      </trkpt>
      <trkpt lat="37.05575" lon="-3.37149">
        <ele>3195.8</ele>
        <time>2021-08-06 18:01:21</time>
      </trkpt>
      <trkpt lat="37.05576" lon="-3.37148">
        <ele>3195.8</ele>
        <time>2021-08-06 18:01:22</time>
      </trkpt>
      <trkpt lat="37.05577" lon="-3.37148">
        <ele>3196</ele>
        <time>2021-08-06 18:01:23</time>
      </trkpt>
      <trkpt lat="37.05577" lon="-3.37148">
        <ele>3196</ele>
        <time>2021-08-06 18:01:24</time>
      </trkpt>
      <trkpt lat="37.05578" lon="-3.37148">
        <ele>3196</ele>
        <time>2021-08-06 18:01:25</time>
      </trkpt>
      <trkpt lat="37.05579" lon="-3.37148">
        <ele>3196</ele>
        <time>2021-08-06 18:01:26</time>
      </trkpt>
      <trkpt lat="37.0558" lon="-3.37148">
        <ele>3196</ele>
        <time>2021-08-06 18:01:27</time>
      </trkpt>
      <trkpt lat="37.05581" lon="-3.37148">
        <ele>3196</ele>
        <time>2021-08-06 18:01:28</time>
      </trkpt>
      <trkpt lat="37.05581" lon="-3.37148">
        <ele>3195.8</ele>
        <time>2021-08-06 18:01:29</time>
      </trkpt>
      <trkpt lat="37.05581" lon="-3.37152">
        <ele>3195.6</ele>
        <time>2021-08-06 18:01:30</time>
      </trkpt>
      <trkpt lat="37.05581" lon="-3.37152">
        <ele>3195.6</ele>
        <time>2021-08-06 18:01:31</time>
      </trkpt>
      <trkpt lat="37.05581" lon="-3.37152">
        <ele>3195.8</ele>
        <time>2021-08-06 18:01:32</time>
      </trkpt>
      <trkpt lat="37.05581" lon="-3.37152">
        <ele>3196</ele>
        <time>2021-08-06 18:01:33</time>
      </trkpt>
      <trkpt lat="37.05581" lon="-3.37152">
        <ele>3195.8</ele>
        <time>2021-08-06 18:01:34</time>
      </trkpt>
      <trkpt lat="37.0558" lon="-3.37153">
        <ele>3195.6</ele>
        <time>2021-08-06 18:01:35</time>
      </trkpt>
      <trkpt lat="37.05579" lon="-3.37153">
        <ele>3195.6</ele>
        <time>2021-08-06 18:01:36</time>
      </trkpt>
      <trkpt lat="37.05579" lon="-3.37153">
        <ele>3195.4</ele>
        <time>2021-08-06 18:01:37</time>
      </trkpt>
      <trkpt lat="37.05579" lon="-3.37153">
        <ele>3195.8</ele>
        <time>2021-08-06 18:01:38</time>
      </trkpt>
      <trkpt lat="37.05579" lon="-3.37154">
        <ele>3196</ele>
        <time>2021-08-06 18:01:39</time>
      </trkpt>
      <trkpt lat="37.05579" lon="-3.37151">
        <ele>3195.6</ele>
        <time>2021-08-06 18:01:40</time>
      </trkpt>
      <trkpt lat="37.05579" lon="-3.3715">
        <ele>3195.8</ele>
        <time>2021-08-06 18:01:41</time>
      </trkpt>
      <trkpt lat="37.05579" lon="-3.37149">
        <ele>3196</ele>
        <time>2021-08-06 18:01:42</time>
      </trkpt>
      <trkpt lat="37.05579" lon="-3.37149">
        <ele>3196.2</ele>
        <time>2021-08-06 18:01:43</time>
      </trkpt>
      <trkpt lat="37.05579" lon="-3.37149">
        <ele>3196.2</ele>
        <time>2021-08-06 18:01:44</time>
      </trkpt>
      <trkpt lat="37.05579" lon="-3.37149">
        <ele>3196.2</ele>
        <time>2021-08-06 18:01:45</time>
      </trkpt>
      <trkpt lat="37.05579" lon="-3.37149">
        <ele>3196</ele>
        <time>2021-08-06 18:01:46</time>
      </trkpt>
      <trkpt lat="37.0558" lon="-3.37149">
        <ele>3196</ele>
        <time>2021-08-06 18:01:47</time>
      </trkpt>
      <trkpt lat="37.0558" lon="-3.37149">
        <ele>3195.8</ele>
        <time>2021-08-06 18:01:48</time>
      </trkpt>
      <trkpt lat="37.0558" lon="-3.37149">
        <ele>3195.8</ele>
        <time>2021-08-06 18:01:49</time>
      </trkpt>
      <trkpt lat="37.0558" lon="-3.3715">
        <ele>3195.8</ele>
        <time>2021-08-06 18:01:50</time>
      </trkpt>
      <trkpt lat="37.0558" lon="-3.37149">
        <ele>3195.6</ele>
        <time>2021-08-06 18:01:51</time>
      </trkpt>
      <trkpt lat="37.05581" lon="-3.37149">
        <ele>3195.8</ele>
        <time>2021-08-06 18:01:52</time>
      </trkpt>
      <trkpt lat="37.05582" lon="-3.37149">
        <ele>3196</ele>
        <time>2021-08-06 18:01:53</time>
      </trkpt>
      <trkpt lat="37.05583" lon="-3.37149">
        <ele>3196</ele>
        <time>2021-08-06 18:01:54</time>
      </trkpt>
      <trkpt lat="37.05584" lon="-3.3715">
        <ele>3196.2</ele>
        <time>2021-08-06 18:01:55</time>
      </trkpt>
      <trkpt lat="37.05586" lon="-3.37151">
        <ele>3196.2</ele>
        <time>2021-08-06 18:01:56</time>
      </trkpt>
      <trkpt lat="37.05587" lon="-3.37151">
        <ele>3196.2</ele>
        <time>2021-08-06 18:01:57</time>
      </trkpt>
      <trkpt lat="37.05588" lon="-3.37152">
        <ele>3196.4</ele>
        <time>2021-08-06 18:01:58</time>
      </trkpt>
      <trkpt lat="37.05589" lon="-3.37152">
        <ele>3196.4</ele>
        <time>2021-08-06 18:01:59</time>
      </trkpt>
      <trkpt lat="37.0559" lon="-3.37152">
        <ele>3196.4</ele>
        <time>2021-08-06 18:02:00</time>
      </trkpt>
      <trkpt lat="37.05592" lon="-3.37152">
        <ele>3196.2</ele>
        <time>2021-08-06 18:02:01</time>
      </trkpt>
      <trkpt lat="37.05593" lon="-3.37153">
        <ele>3196</ele>
        <time>2021-08-06 18:02:02</time>
      </trkpt>
      <trkpt lat="37.05594" lon="-3.37153">
        <ele>3195.8</ele>
        <time>2021-08-06 18:02:03</time>
      </trkpt>
      <trkpt lat="37.05595" lon="-3.37153">
        <ele>3195.8</ele>
        <time>2021-08-06 18:02:04</time>
      </trkpt>
      <trkpt lat="37.05597" lon="-3.37154">
        <ele>3195.8</ele>
        <time>2021-08-06 18:02:05</time>
      </trkpt>
      <trkpt lat="37.05598" lon="-3.37155">
        <ele>3195.6</ele>
        <time>2021-08-06 18:02:06</time>
      </trkpt>
      <trkpt lat="37.05599" lon="-3.37156">
        <ele>3195.6</ele>
        <time>2021-08-06 18:02:07</time>
      </trkpt>
      <trkpt lat="37.056" lon="-3.37156">
        <ele>3195.4</ele>
        <time>2021-08-06 18:02:08</time>
      </trkpt>
      <trkpt lat="37.05601" lon="-3.37157">
        <ele>3195</ele>
        <time>2021-08-06 18:02:09</time>
      </trkpt>
      <trkpt lat="37.05603" lon="-3.37158">
        <ele>3195</ele>
        <time>2021-08-06 18:02:10</time>
      </trkpt>
      <trkpt lat="37.05604" lon="-3.37159">
        <ele>3194.8</ele>
        <time>2021-08-06 18:02:11</time>
      </trkpt>
      <trkpt lat="37.05605" lon="-3.3716">
        <ele>3194.6</ele>
        <time>2021-08-06 18:02:12</time>
      </trkpt>
      <trkpt lat="37.05606" lon="-3.37161">
        <ele>3194.6</ele>
        <time>2021-08-06 18:02:13</time>
      </trkpt>
      <trkpt lat="37.05607" lon="-3.37162">
        <ele>3194.6</ele>
        <time>2021-08-06 18:02:14</time>
      </trkpt>
      <trkpt lat="37.05608" lon="-3.37163">
        <ele>3194.4</ele>
        <time>2021-08-06 18:02:15</time>
      </trkpt>
      <trkpt lat="37.0561" lon="-3.37164">
        <ele>3194.2</ele>
        <time>2021-08-06 18:02:16</time>
      </trkpt>
      <trkpt lat="37.05611" lon="-3.37165">
        <ele>3194</ele>
        <time>2021-08-06 18:02:17</time>
      </trkpt>
      <trkpt lat="37.05612" lon="-3.37165">
        <ele>3193.8</ele>
        <time>2021-08-06 18:02:18</time>
      </trkpt>
      <trkpt lat="37.05613" lon="-3.37166">
        <ele>3193.6</ele>
        <time>2021-08-06 18:02:19</time>
      </trkpt>
      <trkpt lat="37.05614" lon="-3.37166">
        <ele>3193.6</ele>
        <time>2021-08-06 18:02:20</time>
      </trkpt>
      <trkpt lat="37.05616" lon="-3.37166">
        <ele>3193.4</ele>
        <time>2021-08-06 18:02:21</time>
      </trkpt>
      <trkpt lat="37.05616" lon="-3.37167">
        <ele>3193.4</ele>
        <time>2021-08-06 18:02:22</time>
      </trkpt>
      <trkpt lat="37.05617" lon="-3.37167">
        <ele>3193.4</ele>
        <time>2021-08-06 18:02:23</time>
      </trkpt>
      <trkpt lat="37.05618" lon="-3.37167">
        <ele>3193.2</ele>
        <time>2021-08-06 18:02:24</time>
      </trkpt>
      <trkpt lat="37.05619" lon="-3.37167">
        <ele>3193.2</ele>
        <time>2021-08-06 18:02:25</time>
      </trkpt>
      <trkpt lat="37.0562" lon="-3.37168">
        <ele>3193.2</ele>
        <time>2021-08-06 18:02:26</time>
      </trkpt>
      <trkpt lat="37.05621" lon="-3.37169">
        <ele>3192.8</ele>
        <time>2021-08-06 18:02:27</time>
      </trkpt>
      <trkpt lat="37.05622" lon="-3.3717">
        <ele>3192.6</ele>
        <time>2021-08-06 18:02:28</time>
      </trkpt>
      <trkpt lat="37.05623" lon="-3.37171">
        <ele>3192.4</ele>
        <time>2021-08-06 18:02:29</time>
      </trkpt>
      <trkpt lat="37.05624" lon="-3.37172">
        <ele>3192.4</ele>
        <time>2021-08-06 18:02:30</time>
      </trkpt>
      <trkpt lat="37.05625" lon="-3.37173">
        <ele>3192.4</ele>
        <time>2021-08-06 18:02:31</time>
      </trkpt>
      <trkpt lat="37.05626" lon="-3.37174">
        <ele>3192.4</ele>
        <time>2021-08-06 18:02:32</time>
      </trkpt>
      <trkpt lat="37.05627" lon="-3.37174">
        <ele>3192.4</ele>
        <time>2021-08-06 18:02:33</time>
      </trkpt>
      <trkpt lat="37.05629" lon="-3.37174">
        <ele>3191.8</ele>
        <time>2021-08-06 18:02:34</time>
      </trkpt>
      <trkpt lat="37.0563" lon="-3.37175">
        <ele>3191.6</ele>
        <time>2021-08-06 18:02:35</time>
      </trkpt>
      <trkpt lat="37.05631" lon="-3.37174">
        <ele>3191.8</ele>
        <time>2021-08-06 18:02:36</time>
      </trkpt>
      <trkpt lat="37.05632" lon="-3.37174">
        <ele>3191.8</ele>
        <time>2021-08-06 18:02:37</time>
      </trkpt>
      <trkpt lat="37.05633" lon="-3.37174">
        <ele>3191.8</ele>
        <time>2021-08-06 18:02:38</time>
      </trkpt>
      <trkpt lat="37.05634" lon="-3.37174">
        <ele>3191.8</ele>
        <time>2021-08-06 18:02:39</time>
      </trkpt>
      <trkpt lat="37.05635" lon="-3.37174">
        <ele>3192</ele>
        <time>2021-08-06 18:02:40</time>
      </trkpt>
      <trkpt lat="37.05636" lon="-3.37174">
        <ele>3192</ele>
        <time>2021-08-06 18:02:41</time>
      </trkpt>
      <trkpt lat="37.05637" lon="-3.37174">
        <ele>3192</ele>
        <time>2021-08-06 18:02:42</time>
      </trkpt>
      <trkpt lat="37.05637" lon="-3.37174">
        <ele>3191.8</ele>
        <time>2021-08-06 18:02:43</time>
      </trkpt>
      <trkpt lat="37.05638" lon="-3.37173">
        <ele>3191.8</ele>
        <time>2021-08-06 18:02:44</time>
      </trkpt>
      <trkpt lat="37.05638" lon="-3.37172">
        <ele>3191.4</ele>
        <time>2021-08-06 18:02:45</time>
      </trkpt>
      <trkpt lat="37.05638" lon="-3.37172">
        <ele>3191.4</ele>
        <time>2021-08-06 18:02:46</time>
      </trkpt>
      <trkpt lat="37.05638" lon="-3.37172">
        <ele>3191.2</ele>
        <time>2021-08-06 18:02:47</time>
      </trkpt>
      <trkpt lat="37.05638" lon="-3.37173">
        <ele>3191.4</ele>
        <time>2021-08-06 18:02:48</time>
      </trkpt>
      <trkpt lat="37.05638" lon="-3.37173">
        <ele>3191.4</ele>
        <time>2021-08-06 18:02:49</time>
      </trkpt>
      <trkpt lat="37.05639" lon="-3.37173">
        <ele>3191.4</ele>
        <time>2021-08-06 18:02:50</time>
      </trkpt>
      <trkpt lat="37.05639" lon="-3.37174">
        <ele>3191.6</ele>
        <time>2021-08-06 18:02:51</time>
      </trkpt>
      <trkpt lat="37.05638" lon="-3.37174">
        <ele>3191.6</ele>
        <time>2021-08-06 18:02:52</time>
      </trkpt>
      <trkpt lat="37.05638" lon="-3.37174">
        <ele>3191.6</ele>
        <time>2021-08-06 18:02:53</time>
      </trkpt>
      <trkpt lat="37.05638" lon="-3.37174">
        <ele>3191.6</ele>
        <time>2021-08-06 18:02:54</time>
      </trkpt>
      <trkpt lat="37.05638" lon="-3.37175">
        <ele>3191.6</ele>
        <time>2021-08-06 18:02:55</time>
      </trkpt>
      <trkpt lat="37.05637" lon="-3.37175">
        <ele>3191.4</ele>
        <time>2021-08-06 18:02:56</time>
      </trkpt>
      <trkpt lat="37.05637" lon="-3.37175">
        <ele>3191.4</ele>
        <time>2021-08-06 18:02:57</time>
      </trkpt>
      <trkpt lat="37.05637" lon="-3.37175">
        <ele>3191.2</ele>
        <time>2021-08-06 18:02:58</time>
      </trkpt>
      <trkpt lat="37.05637" lon="-3.37175">
        <ele>3191.2</ele>
        <time>2021-08-06 18:02:59</time>
      </trkpt>
      <trkpt lat="37.05638" lon="-3.37175">
        <ele>3191</ele>
        <time>2021-08-06 18:03:00</time>
      </trkpt>
      <trkpt lat="37.05638" lon="-3.37173">
        <ele>3191</ele>
        <time>2021-08-06 18:03:01</time>
      </trkpt>
      <trkpt lat="37.05638" lon="-3.37173">
        <ele>3191</ele>
        <time>2021-08-06 18:03:02</time>
      </trkpt>
      <trkpt lat="37.05638" lon="-3.37172">
        <ele>3190.8</ele>
        <time>2021-08-06 18:03:03</time>
      </trkpt>
      <trkpt lat="37.05636" lon="-3.37171">
        <ele>3190.8</ele>
        <time>2021-08-06 18:03:04</time>
      </trkpt>
      <trkpt lat="37.05636" lon="-3.37172">
        <ele>3190.8</ele>
        <time>2021-08-06 18:03:05</time>
      </trkpt>
      <trkpt lat="37.05638" lon="-3.37172">
        <ele>3190.8</ele>
        <time>2021-08-06 18:03:06</time>
      </trkpt>
      <trkpt lat="37.05638" lon="-3.37173">
        <ele>3190.8</ele>
        <time>2021-08-06 18:03:07</time>
      </trkpt>
      <trkpt lat="37.05638" lon="-3.37172">
        <ele>3190.6</ele>
        <time>2021-08-06 18:03:08</time>
      </trkpt>
      <trkpt lat="37.05639" lon="-3.37172">
        <ele>3190.6</ele>
        <time>2021-08-06 18:03:09</time>
      </trkpt>
      <trkpt lat="37.05639" lon="-3.37172">
        <ele>3190.8</ele>
        <time>2021-08-06 18:03:10</time>
      </trkpt>
      <trkpt lat="37.05639" lon="-3.37172">
        <ele>3190.8</ele>
        <time>2021-08-06 18:03:11</time>
      </trkpt>
      <trkpt lat="37.05639" lon="-3.37172">
        <ele>3190.8</ele>
        <time>2021-08-06 18:03:12</time>
      </trkpt>
      <trkpt lat="37.05639" lon="-3.37172">
        <ele>3190.8</ele>
        <time>2021-08-06 18:03:13</time>
      </trkpt>
      <trkpt lat="37.05639" lon="-3.37172">
        <ele>3190.8</ele>
        <time>2021-08-06 18:03:14</time>
      </trkpt>
      <trkpt lat="37.05639" lon="-3.37172">
        <ele>3190.8</ele>
        <time>2021-08-06 18:03:15</time>
      </trkpt>
      <trkpt lat="37.05639" lon="-3.37172">
        <ele>3190.8</ele>
        <time>2021-08-06 18:03:16</time>
      </trkpt>
      <trkpt lat="37.05639" lon="-3.37172">
        <ele>3190.6</ele>
        <time>2021-08-06 18:03:17</time>
      </trkpt>
      <trkpt lat="37.05639" lon="-3.37172">
        <ele>3190.4</ele>
        <time>2021-08-06 18:03:18</time>
      </trkpt>
      <trkpt lat="37.05639" lon="-3.37172">
        <ele>3190.2</ele>
        <time>2021-08-06 18:03:19</time>
      </trkpt>
      <trkpt lat="37.05639" lon="-3.37172">
        <ele>3190.4</ele>
        <time>2021-08-06 18:03:20</time>
      </trkpt>
      <trkpt lat="37.05639" lon="-3.37172">
        <ele>3190.4</ele>
        <time>2021-08-06 18:03:21</time>
      </trkpt>
      <trkpt lat="37.05639" lon="-3.37172">
        <ele>3190.6</ele>
        <time>2021-08-06 18:03:22</time>
      </trkpt>
      <trkpt lat="37.0564" lon="-3.37172">
        <ele>3190.4</ele>
        <time>2021-08-06 18:03:23</time>
      </trkpt>
      <trkpt lat="37.05641" lon="-3.37172">
        <ele>3190.6</ele>
        <time>2021-08-06 18:03:24</time>
      </trkpt>
      <trkpt lat="37.05641" lon="-3.37172">
        <ele>3190.8</ele>
        <time>2021-08-06 18:03:25</time>
      </trkpt>
      <trkpt lat="37.05641" lon="-3.37172">
        <ele>3190.8</ele>
        <time>2021-08-06 18:03:26</time>
      </trkpt>
      <trkpt lat="37.05641" lon="-3.37172">
        <ele>3190.8</ele>
        <time>2021-08-06 18:03:27</time>
      </trkpt>
      <trkpt lat="37.05639" lon="-3.37173">
        <ele>3190.8</ele>
        <time>2021-08-06 18:03:28</time>
      </trkpt>
      <trkpt lat="37.05639" lon="-3.37174">
        <ele>3190.6</ele>
        <time>2021-08-06 18:03:29</time>
      </trkpt>
      <trkpt lat="37.05638" lon="-3.37175">
        <ele>3190.8</ele>
        <time>2021-08-06 18:03:30</time>
      </trkpt>
      <trkpt lat="37.05639" lon="-3.37175">
        <ele>3190.8</ele>
        <time>2021-08-06 18:03:31</time>
      </trkpt>
      <trkpt lat="37.05639" lon="-3.37174">
        <ele>3190.6</ele>
        <time>2021-08-06 18:03:32</time>
      </trkpt>
      <trkpt lat="37.0564" lon="-3.37175">
        <ele>3190.6</ele>
        <time>2021-08-06 18:03:33</time>
      </trkpt>
      <trkpt lat="37.05639" lon="-3.37176">
        <ele>3190.6</ele>
        <time>2021-08-06 18:03:34</time>
      </trkpt>
      <trkpt lat="37.0564" lon="-3.37176">
        <ele>3190.6</ele>
        <time>2021-08-06 18:03:35</time>
      </trkpt>
      <trkpt lat="37.0564" lon="-3.37177">
        <ele>3190.6</ele>
        <time>2021-08-06 18:03:36</time>
      </trkpt>
      <trkpt lat="37.05642" lon="-3.37178">
        <ele>3190.6</ele>
        <time>2021-08-06 18:03:37</time>
      </trkpt>
      <trkpt lat="37.05642" lon="-3.37179">
        <ele>3190.6</ele>
        <time>2021-08-06 18:03:38</time>
      </trkpt>
      <trkpt lat="37.05644" lon="-3.37179">
        <ele>3190.4</ele>
        <time>2021-08-06 18:03:39</time>
      </trkpt>
      <trkpt lat="37.05645" lon="-3.3718">
        <ele>3190.4</ele>
        <time>2021-08-06 18:03:40</time>
      </trkpt>
      <trkpt lat="37.05646" lon="-3.3718">
        <ele>3190.4</ele>
        <time>2021-08-06 18:03:41</time>
      </trkpt>
      <trkpt lat="37.05646" lon="-3.3718">
        <ele>3190.4</ele>
        <time>2021-08-06 18:03:42</time>
      </trkpt>
      <trkpt lat="37.05647" lon="-3.37181">
        <ele>3190.4</ele>
        <time>2021-08-06 18:03:43</time>
      </trkpt>
      <trkpt lat="37.05648" lon="-3.37181">
        <ele>3190.4</ele>
        <time>2021-08-06 18:03:44</time>
      </trkpt>
      <trkpt lat="37.05649" lon="-3.37182">
        <ele>3190.2</ele>
        <time>2021-08-06 18:03:45</time>
      </trkpt>
      <trkpt lat="37.0565" lon="-3.37182">
        <ele>3190</ele>
        <time>2021-08-06 18:03:46</time>
      </trkpt>
      <trkpt lat="37.05651" lon="-3.37182">
        <ele>3189.8</ele>
        <time>2021-08-06 18:03:47</time>
      </trkpt>
      <trkpt lat="37.05652" lon="-3.37182">
        <ele>3189.8</ele>
        <time>2021-08-06 18:03:48</time>
      </trkpt>
      <trkpt lat="37.05653" lon="-3.37183">
        <ele>3189.8</ele>
        <time>2021-08-06 18:03:49</time>
      </trkpt>
      <trkpt lat="37.05654" lon="-3.37183">
        <ele>3189.6</ele>
        <time>2021-08-06 18:03:50</time>
      </trkpt>
      <trkpt lat="37.05655" lon="-3.37183">
        <ele>3189.6</ele>
        <time>2021-08-06 18:03:51</time>
      </trkpt>
      <trkpt lat="37.05656" lon="-3.37182">
        <ele>3189.6</ele>
        <time>2021-08-06 18:03:52</time>
      </trkpt>
      <trkpt lat="37.05657" lon="-3.37182">
        <ele>3189.6</ele>
        <time>2021-08-06 18:03:53</time>
      </trkpt>
      <trkpt lat="37.05658" lon="-3.37182">
        <ele>3189.6</ele>
        <time>2021-08-06 18:03:54</time>
      </trkpt>
      <trkpt lat="37.05659" lon="-3.37181">
        <ele>3189.6</ele>
        <time>2021-08-06 18:03:55</time>
      </trkpt>
      <trkpt lat="37.0566" lon="-3.37182">
        <ele>3189.6</ele>
        <time>2021-08-06 18:03:56</time>
      </trkpt>
      <trkpt lat="37.05661" lon="-3.37183">
        <ele>3189.6</ele>
        <time>2021-08-06 18:03:57</time>
      </trkpt>
      <trkpt lat="37.05662" lon="-3.37185">
        <ele>3189.4</ele>
        <time>2021-08-06 18:03:58</time>
      </trkpt>
      <trkpt lat="37.05663" lon="-3.37185">
        <ele>3189.2</ele>
        <time>2021-08-06 18:03:59</time>
      </trkpt>
      <trkpt lat="37.05664" lon="-3.37186">
        <ele>3189</ele>
        <time>2021-08-06 18:04:00</time>
      </trkpt>
      <trkpt lat="37.05666" lon="-3.37188">
        <ele>3189</ele>
        <time>2021-08-06 18:04:01</time>
      </trkpt>
      <trkpt lat="37.05667" lon="-3.37189">
        <ele>3188.8</ele>
        <time>2021-08-06 18:04:02</time>
      </trkpt>
      <trkpt lat="37.05667" lon="-3.3719">
        <ele>3188.8</ele>
        <time>2021-08-06 18:04:03</time>
      </trkpt>
      <trkpt lat="37.05668" lon="-3.37191">
        <ele>3188.8</ele>
        <time>2021-08-06 18:04:04</time>
      </trkpt>
      <trkpt lat="37.05669" lon="-3.37191">
        <ele>3188.8</ele>
        <time>2021-08-06 18:04:05</time>
      </trkpt>
      <trkpt lat="37.0567" lon="-3.37192">
        <ele>3188.8</ele>
        <time>2021-08-06 18:04:06</time>
      </trkpt>
      <trkpt lat="37.05671" lon="-3.37192">
        <ele>3188.8</ele>
        <time>2021-08-06 18:04:07</time>
      </trkpt>
      <trkpt lat="37.05672" lon="-3.37192">
        <ele>3188.8</ele>
        <time>2021-08-06 18:04:08</time>
      </trkpt>
      <trkpt lat="37.05673" lon="-3.37192">
        <ele>3188.6</ele>
        <time>2021-08-06 18:04:09</time>
      </trkpt>
      <trkpt lat="37.05674" lon="-3.37192">
        <ele>3188.6</ele>
        <time>2021-08-06 18:04:10</time>
      </trkpt>
      <trkpt lat="37.05675" lon="-3.37192">
        <ele>3188.4</ele>
        <time>2021-08-06 18:04:11</time>
      </trkpt>
      <trkpt lat="37.05676" lon="-3.37192">
        <ele>3188.2</ele>
        <time>2021-08-06 18:04:12</time>
      </trkpt>
      <trkpt lat="37.05677" lon="-3.37193">
        <ele>3188</ele>
        <time>2021-08-06 18:04:13</time>
      </trkpt>
      <trkpt lat="37.05678" lon="-3.37193">
        <ele>3188.2</ele>
        <time>2021-08-06 18:04:14</time>
      </trkpt>
      <trkpt lat="37.05678" lon="-3.37194">
        <ele>3188</ele>
        <time>2021-08-06 18:04:15</time>
      </trkpt>
      <trkpt lat="37.05679" lon="-3.37195">
        <ele>3187.8</ele>
        <time>2021-08-06 18:04:16</time>
      </trkpt>
      <trkpt lat="37.0568" lon="-3.37195">
        <ele>3187.8</ele>
        <time>2021-08-06 18:04:17</time>
      </trkpt>
      <trkpt lat="37.0568" lon="-3.37196">
        <ele>3187.6</ele>
        <time>2021-08-06 18:04:18</time>
      </trkpt>
      <trkpt lat="37.05681" lon="-3.37196">
        <ele>3187.6</ele>
        <time>2021-08-06 18:04:19</time>
      </trkpt>
      <trkpt lat="37.05682" lon="-3.37197">
        <ele>3187.6</ele>
        <time>2021-08-06 18:04:20</time>
      </trkpt>
      <trkpt lat="37.05683" lon="-3.37197">
        <ele>3187.6</ele>
        <time>2021-08-06 18:04:21</time>
      </trkpt>
      <trkpt lat="37.05685" lon="-3.37197">
        <ele>3187.6</ele>
        <time>2021-08-06 18:04:22</time>
      </trkpt>
      <trkpt lat="37.05686" lon="-3.37197">
        <ele>3187.6</ele>
        <time>2021-08-06 18:04:23</time>
      </trkpt>
      <trkpt lat="37.05686" lon="-3.37197">
        <ele>3187.6</ele>
        <time>2021-08-06 18:04:24</time>
      </trkpt>
      <trkpt lat="37.05687" lon="-3.37197">
        <ele>3187.6</ele>
        <time>2021-08-06 18:04:25</time>
      </trkpt>
      <trkpt lat="37.05688" lon="-3.37198">
        <ele>3187.6</ele>
        <time>2021-08-06 18:04:26</time>
      </trkpt>
      <trkpt lat="37.0569" lon="-3.37199">
        <ele>3187.4</ele>
        <time>2021-08-06 18:04:27</time>
      </trkpt>
      <trkpt lat="37.05691" lon="-3.37199">
        <ele>3187.4</ele>
        <time>2021-08-06 18:04:28</time>
      </trkpt>
      <trkpt lat="37.05692" lon="-3.372">
        <ele>3187.2</ele>
        <time>2021-08-06 18:04:29</time>
      </trkpt>
      <trkpt lat="37.05693" lon="-3.37201">
        <ele>3186.8</ele>
        <time>2021-08-06 18:04:30</time>
      </trkpt>
      <trkpt lat="37.05694" lon="-3.37201">
        <ele>3186.6</ele>
        <time>2021-08-06 18:04:31</time>
      </trkpt>
      <trkpt lat="37.05695" lon="-3.37201">
        <ele>3186.4</ele>
        <time>2021-08-06 18:04:32</time>
      </trkpt>
      <trkpt lat="37.05696" lon="-3.37202">
        <ele>3186.4</ele>
        <time>2021-08-06 18:04:33</time>
      </trkpt>
      <trkpt lat="37.05697" lon="-3.37201">
        <ele>3186.2</ele>
        <time>2021-08-06 18:04:34</time>
      </trkpt>
      <trkpt lat="37.05698" lon="-3.37201">
        <ele>3186.2</ele>
        <time>2021-08-06 18:04:35</time>
      </trkpt>
      <trkpt lat="37.05699" lon="-3.37201">
        <ele>3186</ele>
        <time>2021-08-06 18:04:36</time>
      </trkpt>
      <trkpt lat="37.05701" lon="-3.37201">
        <ele>3186</ele>
        <time>2021-08-06 18:04:37</time>
      </trkpt>
      <trkpt lat="37.05702" lon="-3.37201">
        <ele>3185.8</ele>
        <time>2021-08-06 18:04:38</time>
      </trkpt>
      <trkpt lat="37.05703" lon="-3.37201">
        <ele>3185.8</ele>
        <time>2021-08-06 18:04:39</time>
      </trkpt>
      <trkpt lat="37.05704" lon="-3.37201">
        <ele>3185.8</ele>
        <time>2021-08-06 18:04:40</time>
      </trkpt>
      <trkpt lat="37.05705" lon="-3.37201">
        <ele>3186</ele>
        <time>2021-08-06 18:04:41</time>
      </trkpt>
      <trkpt lat="37.05706" lon="-3.37202">
        <ele>3186.2</ele>
        <time>2021-08-06 18:04:42</time>
      </trkpt>
      <trkpt lat="37.05707" lon="-3.37202">
        <ele>3186.2</ele>
        <time>2021-08-06 18:04:43</time>
      </trkpt>
      <trkpt lat="37.05708" lon="-3.37203">
        <ele>3186.2</ele>
        <time>2021-08-06 18:04:44</time>
      </trkpt>
      <trkpt lat="37.05709" lon="-3.37204">
        <ele>3186.2</ele>
        <time>2021-08-06 18:04:45</time>
      </trkpt>
      <trkpt lat="37.0571" lon="-3.37204">
        <ele>3185.8</ele>
        <time>2021-08-06 18:04:46</time>
      </trkpt>
      <trkpt lat="37.05711" lon="-3.37205">
        <ele>3185.4</ele>
        <time>2021-08-06 18:04:47</time>
      </trkpt>
      <trkpt lat="37.05712" lon="-3.37205">
        <ele>3185.2</ele>
        <time>2021-08-06 18:04:48</time>
      </trkpt>
      <trkpt lat="37.05713" lon="-3.37206">
        <ele>3185.2</ele>
        <time>2021-08-06 18:04:49</time>
      </trkpt>
      <trkpt lat="37.05714" lon="-3.37206">
        <ele>3185</ele>
        <time>2021-08-06 18:04:50</time>
      </trkpt>
      <trkpt lat="37.05716" lon="-3.37206">
        <ele>3184.6</ele>
        <time>2021-08-06 18:04:51</time>
      </trkpt>
      <trkpt lat="37.05717" lon="-3.37207">
        <ele>3184.4</ele>
        <time>2021-08-06 18:04:52</time>
      </trkpt>
      <trkpt lat="37.05718" lon="-3.37207">
        <ele>3184.4</ele>
        <time>2021-08-06 18:04:53</time>
      </trkpt>
      <trkpt lat="37.05719" lon="-3.37207">
        <ele>3184</ele>
        <time>2021-08-06 18:04:54</time>
      </trkpt>
      <trkpt lat="37.0572" lon="-3.37207">
        <ele>3184.2</ele>
        <time>2021-08-06 18:04:55</time>
      </trkpt>
      <trkpt lat="37.05721" lon="-3.37208">
        <ele>3183.8</ele>
        <time>2021-08-06 18:04:56</time>
      </trkpt>
      <trkpt lat="37.05723" lon="-3.37208">
        <ele>3183.6</ele>
        <time>2021-08-06 18:04:57</time>
      </trkpt>
      <trkpt lat="37.05724" lon="-3.37208">
        <ele>3184</ele>
        <time>2021-08-06 18:04:58</time>
      </trkpt>
      <trkpt lat="37.05725" lon="-3.37209">
        <ele>3183.8</ele>
        <time>2021-08-06 18:04:59</time>
      </trkpt>
      <trkpt lat="37.05726" lon="-3.37209">
        <ele>3183.8</ele>
        <time>2021-08-06 18:05:00</time>
      </trkpt>
      <trkpt lat="37.05727" lon="-3.37209">
        <ele>3183.8</ele>
        <time>2021-08-06 18:05:01</time>
      </trkpt>
      <trkpt lat="37.05728" lon="-3.3721">
        <ele>3183.6</ele>
        <time>2021-08-06 18:05:02</time>
      </trkpt>
      <trkpt lat="37.05729" lon="-3.3721">
        <ele>3183.4</ele>
        <time>2021-08-06 18:05:03</time>
      </trkpt>
      <trkpt lat="37.0573" lon="-3.3721">
        <ele>3183.4</ele>
        <time>2021-08-06 18:05:04</time>
      </trkpt>
      <trkpt lat="37.05731" lon="-3.3721">
        <ele>3183.2</ele>
        <time>2021-08-06 18:05:05</time>
      </trkpt>
      <trkpt lat="37.05732" lon="-3.3721">
        <ele>3183</ele>
        <time>2021-08-06 18:05:06</time>
      </trkpt>
      <trkpt lat="37.05733" lon="-3.37211">
        <ele>3183</ele>
        <time>2021-08-06 18:05:07</time>
      </trkpt>
      <trkpt lat="37.05734" lon="-3.37211">
        <ele>3183</ele>
        <time>2021-08-06 18:05:08</time>
      </trkpt>
      <trkpt lat="37.05736" lon="-3.37211">
        <ele>3183</ele>
        <time>2021-08-06 18:05:09</time>
      </trkpt>
      <trkpt lat="37.05737" lon="-3.37212">
        <ele>3183</ele>
        <time>2021-08-06 18:05:10</time>
      </trkpt>
      <trkpt lat="37.05738" lon="-3.37212">
        <ele>3183</ele>
        <time>2021-08-06 18:05:11</time>
      </trkpt>
      <trkpt lat="37.05739" lon="-3.37212">
        <ele>3182.8</ele>
        <time>2021-08-06 18:05:12</time>
      </trkpt>
      <trkpt lat="37.0574" lon="-3.37212">
        <ele>3182.6</ele>
        <time>2021-08-06 18:05:13</time>
      </trkpt>
      <trkpt lat="37.05741" lon="-3.37213">
        <ele>3182.6</ele>
        <time>2021-08-06 18:05:14</time>
      </trkpt>
      <trkpt lat="37.05742" lon="-3.37213">
        <ele>3182.2</ele>
        <time>2021-08-06 18:05:15</time>
      </trkpt>
      <trkpt lat="37.05743" lon="-3.37213">
        <ele>3182</ele>
        <time>2021-08-06 18:05:16</time>
      </trkpt>
      <trkpt lat="37.05745" lon="-3.37213">
        <ele>3181.8</ele>
        <time>2021-08-06 18:05:17</time>
      </trkpt>
      <trkpt lat="37.05746" lon="-3.37214">
        <ele>3181.8</ele>
        <time>2021-08-06 18:05:18</time>
      </trkpt>
      <trkpt lat="37.05747" lon="-3.37214">
        <ele>3181.6</ele>
        <time>2021-08-06 18:05:19</time>
      </trkpt>
      <trkpt lat="37.05748" lon="-3.37215">
        <ele>3181.6</ele>
        <time>2021-08-06 18:05:20</time>
      </trkpt>
      <trkpt lat="37.05749" lon="-3.37215">
        <ele>3181.4</ele>
        <time>2021-08-06 18:05:21</time>
      </trkpt>
      <trkpt lat="37.0575" lon="-3.37216">
        <ele>3181.4</ele>
        <time>2021-08-06 18:05:22</time>
      </trkpt>
      <trkpt lat="37.05751" lon="-3.37216">
        <ele>3181.2</ele>
        <time>2021-08-06 18:05:23</time>
      </trkpt>
      <trkpt lat="37.05752" lon="-3.37217">
        <ele>3181</ele>
        <time>2021-08-06 18:05:24</time>
      </trkpt>
      <trkpt lat="37.05754" lon="-3.37217">
        <ele>3181</ele>
        <time>2021-08-06 18:05:25</time>
      </trkpt>
      <trkpt lat="37.05755" lon="-3.37217">
        <ele>3180.8</ele>
        <time>2021-08-06 18:05:26</time>
      </trkpt>
      <trkpt lat="37.05756" lon="-3.37217">
        <ele>3180.8</ele>
        <time>2021-08-06 18:05:27</time>
      </trkpt>
      <trkpt lat="37.05758" lon="-3.37217">
        <ele>3180.8</ele>
        <time>2021-08-06 18:05:28</time>
      </trkpt>
      <trkpt lat="37.05759" lon="-3.37217">
        <ele>3180.8</ele>
        <time>2021-08-06 18:05:29</time>
      </trkpt>
      <trkpt lat="37.0576" lon="-3.37217">
        <ele>3180.8</ele>
        <time>2021-08-06 18:05:30</time>
      </trkpt>
      <trkpt lat="37.05761" lon="-3.37217">
        <ele>3181</ele>
        <time>2021-08-06 18:05:31</time>
      </trkpt>
      <trkpt lat="37.05762" lon="-3.37217">
        <ele>3181.2</ele>
        <time>2021-08-06 18:05:32</time>
      </trkpt>
      <trkpt lat="37.05763" lon="-3.37217">
        <ele>3181.2</ele>
        <time>2021-08-06 18:05:33</time>
      </trkpt>
      <trkpt lat="37.05764" lon="-3.37216">
        <ele>3181.2</ele>
        <time>2021-08-06 18:05:34</time>
      </trkpt>
      <trkpt lat="37.05766" lon="-3.37216">
        <ele>3181</ele>
        <time>2021-08-06 18:05:35</time>
      </trkpt>
      <trkpt lat="37.05767" lon="-3.37216">
        <ele>3181.2</ele>
        <time>2021-08-06 18:05:36</time>
      </trkpt>
      <trkpt lat="37.05768" lon="-3.37216">
        <ele>3181.2</ele>
        <time>2021-08-06 18:05:37</time>
      </trkpt>
      <trkpt lat="37.05769" lon="-3.37217">
        <ele>3181.2</ele>
        <time>2021-08-06 18:05:38</time>
      </trkpt>
      <trkpt lat="37.05771" lon="-3.37217">
        <ele>3181.2</ele>
        <time>2021-08-06 18:05:39</time>
      </trkpt>
      <trkpt lat="37.05772" lon="-3.37218">
        <ele>3181.2</ele>
        <time>2021-08-06 18:05:40</time>
      </trkpt>
      <trkpt lat="37.05773" lon="-3.37218">
        <ele>3181.2</ele>
        <time>2021-08-06 18:05:41</time>
      </trkpt>
      <trkpt lat="37.05774" lon="-3.37218">
        <ele>3181.2</ele>
        <time>2021-08-06 18:05:42</time>
      </trkpt>
      <trkpt lat="37.05776" lon="-3.37218">
        <ele>3181.2</ele>
        <time>2021-08-06 18:05:43</time>
      </trkpt>
      <trkpt lat="37.05777" lon="-3.37218">
        <ele>3180.8</ele>
        <time>2021-08-06 18:05:44</time>
      </trkpt>
      <trkpt lat="37.05778" lon="-3.37218">
        <ele>3180.6</ele>
        <time>2021-08-06 18:05:45</time>
      </trkpt>
      <trkpt lat="37.05779" lon="-3.3722">
        <ele>3180.4</ele>
        <time>2021-08-06 18:05:46</time>
      </trkpt>
      <trkpt lat="37.0578" lon="-3.3722">
        <ele>3180.2</ele>
        <time>2021-08-06 18:05:47</time>
      </trkpt>
      <trkpt lat="37.05781" lon="-3.3722">
        <ele>3180</ele>
        <time>2021-08-06 18:05:48</time>
      </trkpt>
      <trkpt lat="37.05782" lon="-3.3722">
        <ele>3179.8</ele>
        <time>2021-08-06 18:05:49</time>
      </trkpt>
      <trkpt lat="37.05783" lon="-3.37221">
        <ele>3179.8</ele>
        <time>2021-08-06 18:05:50</time>
      </trkpt>
      <trkpt lat="37.05784" lon="-3.37221">
        <ele>3179.4</ele>
        <time>2021-08-06 18:05:51</time>
      </trkpt>
      <trkpt lat="37.05785" lon="-3.37221">
        <ele>3179.2</ele>
        <time>2021-08-06 18:05:52</time>
      </trkpt>
      <trkpt lat="37.05786" lon="-3.37222">
        <ele>3179.4</ele>
        <time>2021-08-06 18:05:53</time>
      </trkpt>
      <trkpt lat="37.05787" lon="-3.37221">
        <ele>3179.2</ele>
        <time>2021-08-06 18:05:54</time>
      </trkpt>
      <trkpt lat="37.05788" lon="-3.37221">
        <ele>3179.2</ele>
        <time>2021-08-06 18:05:55</time>
      </trkpt>
      <trkpt lat="37.05789" lon="-3.37221">
        <ele>3179.2</ele>
        <time>2021-08-06 18:05:56</time>
      </trkpt>
      <trkpt lat="37.0579" lon="-3.3722">
        <ele>3179</ele>
        <time>2021-08-06 18:05:57</time>
      </trkpt>
      <trkpt lat="37.05791" lon="-3.3722">
        <ele>3179</ele>
        <time>2021-08-06 18:05:58</time>
      </trkpt>
      <trkpt lat="37.05792" lon="-3.3722">
        <ele>3178.8</ele>
        <time>2021-08-06 18:05:59</time>
      </trkpt>
      <trkpt lat="37.05793" lon="-3.37221">
        <ele>3178.6</ele>
        <time>2021-08-06 18:06:00</time>
      </trkpt>
      <trkpt lat="37.05794" lon="-3.37221">
        <ele>3178.6</ele>
        <time>2021-08-06 18:06:01</time>
      </trkpt>
      <trkpt lat="37.05795" lon="-3.37221">
        <ele>3178.6</ele>
        <time>2021-08-06 18:06:02</time>
      </trkpt>
      <trkpt lat="37.05796" lon="-3.37221">
        <ele>3178.6</ele>
        <time>2021-08-06 18:06:03</time>
      </trkpt>
      <trkpt lat="37.05797" lon="-3.37221">
        <ele>3178.4</ele>
        <time>2021-08-06 18:06:04</time>
      </trkpt>
      <trkpt lat="37.05798" lon="-3.37222">
        <ele>3178.4</ele>
        <time>2021-08-06 18:06:05</time>
      </trkpt>
      <trkpt lat="37.05799" lon="-3.37222">
        <ele>3178.2</ele>
        <time>2021-08-06 18:06:06</time>
      </trkpt>
      <trkpt lat="37.058" lon="-3.37223">
        <ele>3178.2</ele>
        <time>2021-08-06 18:06:07</time>
      </trkpt>
      <trkpt lat="37.05802" lon="-3.37222">
        <ele>3178</ele>
        <time>2021-08-06 18:06:08</time>
      </trkpt>
      <trkpt lat="37.05803" lon="-3.37222">
        <ele>3177.8</ele>
        <time>2021-08-06 18:06:09</time>
      </trkpt>
      <trkpt lat="37.05804" lon="-3.37223">
        <ele>3177.8</ele>
        <time>2021-08-06 18:06:10</time>
      </trkpt>
      <trkpt lat="37.05805" lon="-3.37223">
        <ele>3177.8</ele>
        <time>2021-08-06 18:06:11</time>
      </trkpt>
      <trkpt lat="37.05806" lon="-3.37225">
        <ele>3177.8</ele>
        <time>2021-08-06 18:06:12</time>
      </trkpt>
      <trkpt lat="37.05808" lon="-3.37225">
        <ele>3177.8</ele>
        <time>2021-08-06 18:06:13</time>
      </trkpt>
      <trkpt lat="37.05809" lon="-3.37225">
        <ele>3177.6</ele>
        <time>2021-08-06 18:06:14</time>
      </trkpt>
      <trkpt lat="37.0581" lon="-3.37225">
        <ele>3177.6</ele>
        <time>2021-08-06 18:06:15</time>
      </trkpt>
      <trkpt lat="37.05811" lon="-3.37225">
        <ele>3177.6</ele>
        <time>2021-08-06 18:06:16</time>
      </trkpt>
      <trkpt lat="37.05812" lon="-3.37226">
        <ele>3177.6</ele>
        <time>2021-08-06 18:06:17</time>
      </trkpt>
      <trkpt lat="37.05813" lon="-3.37227">
        <ele>3177.6</ele>
        <time>2021-08-06 18:06:18</time>
      </trkpt>
      <trkpt lat="37.05814" lon="-3.37227">
        <ele>3177.6</ele>
        <time>2021-08-06 18:06:19</time>
      </trkpt>
      <trkpt lat="37.05814" lon="-3.37226">
        <ele>3177.4</ele>
        <time>2021-08-06 18:06:20</time>
      </trkpt>
      <trkpt lat="37.05815" lon="-3.37226">
        <ele>3177.4</ele>
        <time>2021-08-06 18:06:21</time>
      </trkpt>
      <trkpt lat="37.05816" lon="-3.37226">
        <ele>3177.2</ele>
        <time>2021-08-06 18:06:22</time>
      </trkpt>
      <trkpt lat="37.05818" lon="-3.37225">
        <ele>3177</ele>
        <time>2021-08-06 18:06:23</time>
      </trkpt>
      <trkpt lat="37.05819" lon="-3.37225">
        <ele>3176.8</ele>
        <time>2021-08-06 18:06:24</time>
      </trkpt>
      <trkpt lat="37.05819" lon="-3.37225">
        <ele>3176.6</ele>
        <time>2021-08-06 18:06:25</time>
      </trkpt>
      <trkpt lat="37.0582" lon="-3.37224">
        <ele>3176.4</ele>
        <time>2021-08-06 18:06:26</time>
      </trkpt>
      <trkpt lat="37.05821" lon="-3.37224">
        <ele>3176.6</ele>
        <time>2021-08-06 18:06:27</time>
      </trkpt>
      <trkpt lat="37.05822" lon="-3.37224">
        <ele>3176.6</ele>
        <time>2021-08-06 18:06:28</time>
      </trkpt>
      <trkpt lat="37.05823" lon="-3.37224">
        <ele>3176.6</ele>
        <time>2021-08-06 18:06:29</time>
      </trkpt>
      <trkpt lat="37.05824" lon="-3.37223">
        <ele>3176.6</ele>
        <time>2021-08-06 18:06:30</time>
      </trkpt>
      <trkpt lat="37.05825" lon="-3.37223">
        <ele>3176.6</ele>
        <time>2021-08-06 18:06:31</time>
      </trkpt>
      <trkpt lat="37.05826" lon="-3.37224">
        <ele>3176.2</ele>
        <time>2021-08-06 18:06:32</time>
      </trkpt>
      <trkpt lat="37.05827" lon="-3.37225">
        <ele>3176</ele>
        <time>2021-08-06 18:06:33</time>
      </trkpt>
      <trkpt lat="37.05828" lon="-3.37226">
        <ele>3176</ele>
        <time>2021-08-06 18:06:34</time>
      </trkpt>
      <trkpt lat="37.05829" lon="-3.37226">
        <ele>3175.8</ele>
        <time>2021-08-06 18:06:35</time>
      </trkpt>
      <trkpt lat="37.0583" lon="-3.37226">
        <ele>3175.8</ele>
        <time>2021-08-06 18:06:36</time>
      </trkpt>
      <trkpt lat="37.05831" lon="-3.37227">
        <ele>3176</ele>
        <time>2021-08-06 18:06:37</time>
      </trkpt>
      <trkpt lat="37.05832" lon="-3.37227">
        <ele>3176</ele>
        <time>2021-08-06 18:06:38</time>
      </trkpt>
      <trkpt lat="37.05833" lon="-3.37227">
        <ele>3176</ele>
        <time>2021-08-06 18:06:39</time>
      </trkpt>
      <trkpt lat="37.05835" lon="-3.37227">
        <ele>3176.2</ele>
        <time>2021-08-06 18:06:40</time>
      </trkpt>
      <trkpt lat="37.05836" lon="-3.37227">
        <ele>3176.2</ele>
        <time>2021-08-06 18:06:41</time>
      </trkpt>
      <trkpt lat="37.05837" lon="-3.37227">
        <ele>3176.2</ele>
        <time>2021-08-06 18:06:42</time>
      </trkpt>
      <trkpt lat="37.05838" lon="-3.37227">
        <ele>3176.2</ele>
        <time>2021-08-06 18:06:43</time>
      </trkpt>
      <trkpt lat="37.05839" lon="-3.37227">
        <ele>3176.2</ele>
        <time>2021-08-06 18:06:44</time>
      </trkpt>
      <trkpt lat="37.0584" lon="-3.37227">
        <ele>3175.8</ele>
        <time>2021-08-06 18:06:45</time>
      </trkpt>
      <trkpt lat="37.05841" lon="-3.37227">
        <ele>3175.8</ele>
        <time>2021-08-06 18:06:46</time>
      </trkpt>
      <trkpt lat="37.05842" lon="-3.37226">
        <ele>3175.6</ele>
        <time>2021-08-06 18:06:47</time>
      </trkpt>
      <trkpt lat="37.05843" lon="-3.37226">
        <ele>3175.6</ele>
        <time>2021-08-06 18:06:48</time>
      </trkpt>
      <trkpt lat="37.05844" lon="-3.37225">
        <ele>3175.4</ele>
        <time>2021-08-06 18:06:49</time>
      </trkpt>
      <trkpt lat="37.05846" lon="-3.37225">
        <ele>3175.2</ele>
        <time>2021-08-06 18:06:50</time>
      </trkpt>
      <trkpt lat="37.05847" lon="-3.37224">
        <ele>3175.2</ele>
        <time>2021-08-06 18:06:51</time>
      </trkpt>
      <trkpt lat="37.05848" lon="-3.37225">
        <ele>3174.8</ele>
        <time>2021-08-06 18:06:52</time>
      </trkpt>
      <trkpt lat="37.05849" lon="-3.37225">
        <ele>3174.8</ele>
        <time>2021-08-06 18:06:53</time>
      </trkpt>
      <trkpt lat="37.0585" lon="-3.37224">
        <ele>3174.8</ele>
        <time>2021-08-06 18:06:54</time>
      </trkpt>
      <trkpt lat="37.05851" lon="-3.37225">
        <ele>3174.6</ele>
        <time>2021-08-06 18:06:55</time>
      </trkpt>
      <trkpt lat="37.05852" lon="-3.37225">
        <ele>3174.6</ele>
        <time>2021-08-06 18:06:56</time>
      </trkpt>
      <trkpt lat="37.05853" lon="-3.37225">
        <ele>3174.4</ele>
        <time>2021-08-06 18:06:57</time>
      </trkpt>
      <trkpt lat="37.05854" lon="-3.37224">
        <ele>3174.2</ele>
        <time>2021-08-06 18:06:58</time>
      </trkpt>
      <trkpt lat="37.05855" lon="-3.37223">
        <ele>3174</ele>
        <time>2021-08-06 18:06:59</time>
      </trkpt>
      <trkpt lat="37.05856" lon="-3.37223">
        <ele>3173.8</ele>
        <time>2021-08-06 18:07:00</time>
      </trkpt>
      <trkpt lat="37.05856" lon="-3.37223">
        <ele>3173.6</ele>
        <time>2021-08-06 18:07:01</time>
      </trkpt>
      <trkpt lat="37.05857" lon="-3.37223">
        <ele>3173.6</ele>
        <time>2021-08-06 18:07:02</time>
      </trkpt>
      <trkpt lat="37.05858" lon="-3.37223">
        <ele>3173.4</ele>
        <time>2021-08-06 18:07:03</time>
      </trkpt>
      <trkpt lat="37.05859" lon="-3.37222">
        <ele>3173.4</ele>
        <time>2021-08-06 18:07:04</time>
      </trkpt>
      <trkpt lat="37.05859" lon="-3.37222">
        <ele>3173.4</ele>
        <time>2021-08-06 18:07:05</time>
      </trkpt>
      <trkpt lat="37.0586" lon="-3.37222">
        <ele>3173.4</ele>
        <time>2021-08-06 18:07:06</time>
      </trkpt>
      <trkpt lat="37.05862" lon="-3.37222">
        <ele>3173.4</ele>
        <time>2021-08-06 18:07:07</time>
      </trkpt>
      <trkpt lat="37.05863" lon="-3.37223">
        <ele>3173.4</ele>
        <time>2021-08-06 18:07:08</time>
      </trkpt>
      <trkpt lat="37.05863" lon="-3.37222">
        <ele>3173.4</ele>
        <time>2021-08-06 18:07:09</time>
      </trkpt>
      <trkpt lat="37.05864" lon="-3.37222">
        <ele>3173.4</ele>
        <time>2021-08-06 18:07:10</time>
      </trkpt>
      <trkpt lat="37.05864" lon="-3.37222">
        <ele>3173.4</ele>
        <time>2021-08-06 18:07:11</time>
      </trkpt>
      <trkpt lat="37.05865" lon="-3.37222">
        <ele>3173.6</ele>
        <time>2021-08-06 18:07:12</time>
      </trkpt>
      <trkpt lat="37.05866" lon="-3.37221">
        <ele>3173.6</ele>
        <time>2021-08-06 18:07:13</time>
      </trkpt>
      <trkpt lat="37.05867" lon="-3.37222">
        <ele>3173.4</ele>
        <time>2021-08-06 18:07:14</time>
      </trkpt>
      <trkpt lat="37.05868" lon="-3.37222">
        <ele>3173.2</ele>
        <time>2021-08-06 18:07:15</time>
      </trkpt>
      <trkpt lat="37.05869" lon="-3.37222">
        <ele>3172.8</ele>
        <time>2021-08-06 18:07:16</time>
      </trkpt>
      <trkpt lat="37.05869" lon="-3.37222">
        <ele>3172.6</ele>
        <time>2021-08-06 18:07:17</time>
      </trkpt>
      <trkpt lat="37.0587" lon="-3.37222">
        <ele>3172.4</ele>
        <time>2021-08-06 18:07:18</time>
      </trkpt>
      <trkpt lat="37.05871" lon="-3.37221">
        <ele>3172.4</ele>
        <time>2021-08-06 18:07:19</time>
      </trkpt>
      <trkpt lat="37.05872" lon="-3.3722">
        <ele>3172.4</ele>
        <time>2021-08-06 18:07:20</time>
      </trkpt>
      <trkpt lat="37.05873" lon="-3.3722">
        <ele>3172.4</ele>
        <time>2021-08-06 18:07:21</time>
      </trkpt>
      <trkpt lat="37.05873" lon="-3.3722">
        <ele>3172.4</ele>
        <time>2021-08-06 18:07:22</time>
      </trkpt>
      <trkpt lat="37.05874" lon="-3.37219">
        <ele>3172.4</ele>
        <time>2021-08-06 18:07:23</time>
      </trkpt>
      <trkpt lat="37.05875" lon="-3.37219">
        <ele>3172.2</ele>
        <time>2021-08-06 18:07:24</time>
      </trkpt>
      <trkpt lat="37.05877" lon="-3.37218">
        <ele>3172.2</ele>
        <time>2021-08-06 18:07:25</time>
      </trkpt>
      <trkpt lat="37.05878" lon="-3.37218">
        <ele>3171.8</ele>
        <time>2021-08-06 18:07:26</time>
      </trkpt>
      <trkpt lat="37.05879" lon="-3.37218">
        <ele>3172.2</ele>
        <time>2021-08-06 18:07:27</time>
      </trkpt>
      <trkpt lat="37.05881" lon="-3.37217">
        <ele>3171.8</ele>
        <time>2021-08-06 18:07:28</time>
      </trkpt>
      <trkpt lat="37.05882" lon="-3.37217">
        <ele>3171.4</ele>
        <time>2021-08-06 18:07:29</time>
      </trkpt>
      <trkpt lat="37.05883" lon="-3.37216">
        <ele>3170.8</ele>
        <time>2021-08-06 18:07:30</time>
      </trkpt>
      <trkpt lat="37.05884" lon="-3.37215">
        <ele>3170.6</ele>
        <time>2021-08-06 18:07:31</time>
      </trkpt>
      <trkpt lat="37.05885" lon="-3.37215">
        <ele>3170.6</ele>
        <time>2021-08-06 18:07:32</time>
      </trkpt>
      <trkpt lat="37.05886" lon="-3.37215">
        <ele>3170.4</ele>
        <time>2021-08-06 18:07:33</time>
      </trkpt>
      <trkpt lat="37.05888" lon="-3.37216">
        <ele>3170.2</ele>
        <time>2021-08-06 18:07:34</time>
      </trkpt>
      <trkpt lat="37.05889" lon="-3.37216">
        <ele>3170</ele>
        <time>2021-08-06 18:07:35</time>
      </trkpt>
      <trkpt lat="37.0589" lon="-3.37216">
        <ele>3169.8</ele>
        <time>2021-08-06 18:07:36</time>
      </trkpt>
      <trkpt lat="37.05891" lon="-3.37216">
        <ele>3169.8</ele>
        <time>2021-08-06 18:07:37</time>
      </trkpt>
      <trkpt lat="37.05892" lon="-3.37216">
        <ele>3169.6</ele>
        <time>2021-08-06 18:07:38</time>
      </trkpt>
      <trkpt lat="37.05893" lon="-3.37215">
        <ele>3169.6</ele>
        <time>2021-08-06 18:07:39</time>
      </trkpt>
      <trkpt lat="37.05894" lon="-3.37216">
        <ele>3169.6</ele>
        <time>2021-08-06 18:07:40</time>
      </trkpt>
      <trkpt lat="37.05895" lon="-3.37216">
        <ele>3169.8</ele>
        <time>2021-08-06 18:07:41</time>
      </trkpt>
      <trkpt lat="37.05896" lon="-3.37216">
        <ele>3169.8</ele>
        <time>2021-08-06 18:07:42</time>
      </trkpt>
      <trkpt lat="37.05897" lon="-3.37216">
        <ele>3170</ele>
        <time>2021-08-06 18:07:43</time>
      </trkpt>
      <trkpt lat="37.05898" lon="-3.37216">
        <ele>3170</ele>
        <time>2021-08-06 18:07:44</time>
      </trkpt>
      <trkpt lat="37.05899" lon="-3.37215">
        <ele>3170</ele>
        <time>2021-08-06 18:07:45</time>
      </trkpt>
      <trkpt lat="37.059" lon="-3.37215">
        <ele>3169.8</ele>
        <time>2021-08-06 18:07:46</time>
      </trkpt>
      <trkpt lat="37.05901" lon="-3.37215">
        <ele>3169.6</ele>
        <time>2021-08-06 18:07:47</time>
      </trkpt>
      <trkpt lat="37.05902" lon="-3.37214">
        <ele>3169.6</ele>
        <time>2021-08-06 18:07:48</time>
      </trkpt>
      <trkpt lat="37.05903" lon="-3.37214">
        <ele>3169.4</ele>
        <time>2021-08-06 18:07:49</time>
      </trkpt>
      <trkpt lat="37.05905" lon="-3.37213">
        <ele>3169.4</ele>
        <time>2021-08-06 18:07:50</time>
      </trkpt>
      <trkpt lat="37.05906" lon="-3.37213">
        <ele>3169.2</ele>
        <time>2021-08-06 18:07:51</time>
      </trkpt>
      <trkpt lat="37.05907" lon="-3.37213">
        <ele>3169</ele>
        <time>2021-08-06 18:07:52</time>
      </trkpt>
      <trkpt lat="37.05908" lon="-3.37212">
        <ele>3169</ele>
        <time>2021-08-06 18:07:53</time>
      </trkpt>
      <trkpt lat="37.05909" lon="-3.37212">
        <ele>3168.8</ele>
        <time>2021-08-06 18:07:54</time>
      </trkpt>
      <trkpt lat="37.05909" lon="-3.37212">
        <ele>3168.8</ele>
        <time>2021-08-06 18:07:55</time>
      </trkpt>
      <trkpt lat="37.0591" lon="-3.37211">
        <ele>3168.8</ele>
        <time>2021-08-06 18:07:56</time>
      </trkpt>
      <trkpt lat="37.05912" lon="-3.3721">
        <ele>3168.8</ele>
        <time>2021-08-06 18:07:57</time>
      </trkpt>
      <trkpt lat="37.05912" lon="-3.3721">
        <ele>3168.8</ele>
        <time>2021-08-06 18:07:58</time>
      </trkpt>
      <trkpt lat="37.05913" lon="-3.37209">
        <ele>3168.4</ele>
        <time>2021-08-06 18:07:59</time>
      </trkpt>
      <trkpt lat="37.05914" lon="-3.37209">
        <ele>3168.4</ele>
        <time>2021-08-06 18:08:00</time>
      </trkpt>
      <trkpt lat="37.05914" lon="-3.37209">
        <ele>3168.2</ele>
        <time>2021-08-06 18:08:01</time>
      </trkpt>
      <trkpt lat="37.05914" lon="-3.37209">
        <ele>3168.2</ele>
        <time>2021-08-06 18:08:02</time>
      </trkpt>
      <trkpt lat="37.05914" lon="-3.37209">
        <ele>3168.2</ele>
        <time>2021-08-06 18:08:03</time>
      </trkpt>
      <trkpt lat="37.05914" lon="-3.37209">
        <ele>3168.2</ele>
        <time>2021-08-06 18:08:04</time>
      </trkpt>
      <trkpt lat="37.05914" lon="-3.37209">
        <ele>3168.4</ele>
        <time>2021-08-06 18:08:05</time>
      </trkpt>
      <trkpt lat="37.05915" lon="-3.37209">
        <ele>3168.4</ele>
        <time>2021-08-06 18:08:06</time>
      </trkpt>
      <trkpt lat="37.05915" lon="-3.37209">
        <ele>3168.4</ele>
        <time>2021-08-06 18:08:07</time>
      </trkpt>
      <trkpt lat="37.05916" lon="-3.3721">
        <ele>3168.4</ele>
        <time>2021-08-06 18:08:08</time>
      </trkpt>
      <trkpt lat="37.05916" lon="-3.3721">
        <ele>3168.2</ele>
        <time>2021-08-06 18:08:09</time>
      </trkpt>
      <trkpt lat="37.05917" lon="-3.37209">
        <ele>3168.2</ele>
        <time>2021-08-06 18:08:10</time>
      </trkpt>
      <trkpt lat="37.05919" lon="-3.37209">
        <ele>3168.2</ele>
        <time>2021-08-06 18:08:11</time>
      </trkpt>
      <trkpt lat="37.0592" lon="-3.37209">
        <ele>3168.2</ele>
        <time>2021-08-06 18:08:12</time>
      </trkpt>
      <trkpt lat="37.05921" lon="-3.3721">
        <ele>3168.2</ele>
        <time>2021-08-06 18:08:13</time>
      </trkpt>
      <trkpt lat="37.05922" lon="-3.3721">
        <ele>3168</ele>
        <time>2021-08-06 18:08:14</time>
      </trkpt>
      <trkpt lat="37.05923" lon="-3.37209">
        <ele>3168</ele>
        <time>2021-08-06 18:08:15</time>
      </trkpt>
      <trkpt lat="37.05924" lon="-3.37208">
        <ele>3168</ele>
        <time>2021-08-06 18:08:16</time>
      </trkpt>
      <trkpt lat="37.05925" lon="-3.37206">
        <ele>3167.6</ele>
        <time>2021-08-06 18:08:17</time>
      </trkpt>
      <trkpt lat="37.05926" lon="-3.37206">
        <ele>3167.6</ele>
        <time>2021-08-06 18:08:18</time>
      </trkpt>
      <trkpt lat="37.05927" lon="-3.37204">
        <ele>3167.4</ele>
        <time>2021-08-06 18:08:19</time>
      </trkpt>
      <trkpt lat="37.05927" lon="-3.37203">
        <ele>3167.4</ele>
        <time>2021-08-06 18:08:20</time>
      </trkpt>
      <trkpt lat="37.05928" lon="-3.37203">
        <ele>3167.4</ele>
        <time>2021-08-06 18:08:21</time>
      </trkpt>
      <trkpt lat="37.0593" lon="-3.37202">
        <ele>3167.4</ele>
        <time>2021-08-06 18:08:22</time>
      </trkpt>
      <trkpt lat="37.05931" lon="-3.37201">
        <ele>3167</ele>
        <time>2021-08-06 18:08:23</time>
      </trkpt>
      <trkpt lat="37.05932" lon="-3.372">
        <ele>3166.8</ele>
        <time>2021-08-06 18:08:24</time>
      </trkpt>
      <trkpt lat="37.05933" lon="-3.37199">
        <ele>3166.8</ele>
        <time>2021-08-06 18:08:25</time>
      </trkpt>
      <trkpt lat="37.05934" lon="-3.37199">
        <ele>3166.6</ele>
        <time>2021-08-06 18:08:26</time>
      </trkpt>
      <trkpt lat="37.05935" lon="-3.37198">
        <ele>3166.4</ele>
        <time>2021-08-06 18:08:27</time>
      </trkpt>
      <trkpt lat="37.05936" lon="-3.37197">
        <ele>3166.2</ele>
        <time>2021-08-06 18:08:28</time>
      </trkpt>
      <trkpt lat="37.05936" lon="-3.37197">
        <ele>3166.2</ele>
        <time>2021-08-06 18:08:29</time>
      </trkpt>
      <trkpt lat="37.05937" lon="-3.37196">
        <ele>3166</ele>
        <time>2021-08-06 18:08:30</time>
      </trkpt>
      <trkpt lat="37.05938" lon="-3.37196">
        <ele>3166</ele>
        <time>2021-08-06 18:08:31</time>
      </trkpt>
      <trkpt lat="37.05939" lon="-3.37195">
        <ele>3166</ele>
        <time>2021-08-06 18:08:32</time>
      </trkpt>
      <trkpt lat="37.0594" lon="-3.37195">
        <ele>3166</ele>
        <time>2021-08-06 18:08:33</time>
      </trkpt>
      <trkpt lat="37.05941" lon="-3.37196">
        <ele>3166</ele>
        <time>2021-08-06 18:08:34</time>
      </trkpt>
      <trkpt lat="37.05942" lon="-3.37195">
        <ele>3166</ele>
        <time>2021-08-06 18:08:35</time>
      </trkpt>
      <trkpt lat="37.05943" lon="-3.37195">
        <ele>3166</ele>
        <time>2021-08-06 18:08:36</time>
      </trkpt>
      <trkpt lat="37.05944" lon="-3.37195">
        <ele>3166</ele>
        <time>2021-08-06 18:08:37</time>
      </trkpt>
      <trkpt lat="37.05945" lon="-3.37194">
        <ele>3166</ele>
        <time>2021-08-06 18:08:38</time>
      </trkpt>
      <trkpt lat="37.05946" lon="-3.37194">
        <ele>3166</ele>
        <time>2021-08-06 18:08:39</time>
      </trkpt>
      <trkpt lat="37.05947" lon="-3.37194">
        <ele>3166</ele>
        <time>2021-08-06 18:08:40</time>
      </trkpt>
      <trkpt lat="37.05948" lon="-3.37194">
        <ele>3165.8</ele>
        <time>2021-08-06 18:08:41</time>
      </trkpt>
      <trkpt lat="37.05948" lon="-3.37193">
        <ele>3165.6</ele>
        <time>2021-08-06 18:08:42</time>
      </trkpt>
      <trkpt lat="37.05949" lon="-3.37192">
        <ele>3165.6</ele>
        <time>2021-08-06 18:08:43</time>
      </trkpt>
      <trkpt lat="37.05949" lon="-3.37191">
        <ele>3165.4</ele>
        <time>2021-08-06 18:08:44</time>
      </trkpt>
      <trkpt lat="37.0595" lon="-3.37191">
        <ele>3165.4</ele>
        <time>2021-08-06 18:08:45</time>
      </trkpt>
      <trkpt lat="37.0595" lon="-3.37189">
        <ele>3165.2</ele>
        <time>2021-08-06 18:08:46</time>
      </trkpt>
      <trkpt lat="37.05951" lon="-3.3719">
        <ele>3165.2</ele>
        <time>2021-08-06 18:08:47</time>
      </trkpt>
      <trkpt lat="37.05951" lon="-3.37191">
        <ele>3165.2</ele>
        <time>2021-08-06 18:08:48</time>
      </trkpt>
      <trkpt lat="37.05952" lon="-3.3719">
        <ele>3165.4</ele>
        <time>2021-08-06 18:08:49</time>
      </trkpt>
      <trkpt lat="37.05953" lon="-3.37189">
        <ele>3165</ele>
        <time>2021-08-06 18:08:50</time>
      </trkpt>
      <trkpt lat="37.05954" lon="-3.37188">
        <ele>3164.8</ele>
        <time>2021-08-06 18:08:51</time>
      </trkpt>
      <trkpt lat="37.05955" lon="-3.37187">
        <ele>3165</ele>
        <time>2021-08-06 18:08:52</time>
      </trkpt>
      <trkpt lat="37.05956" lon="-3.37186">
        <ele>3165.2</ele>
        <time>2021-08-06 18:08:53</time>
      </trkpt>
      <trkpt lat="37.05957" lon="-3.37186">
        <ele>3165.2</ele>
        <time>2021-08-06 18:08:54</time>
      </trkpt>
      <trkpt lat="37.05957" lon="-3.37185">
        <ele>3165.2</ele>
        <time>2021-08-06 18:08:55</time>
      </trkpt>
      <trkpt lat="37.05957" lon="-3.37184">
        <ele>3165</ele>
        <time>2021-08-06 18:08:56</time>
      </trkpt>
      <trkpt lat="37.05957" lon="-3.37184">
        <ele>3165</ele>
        <time>2021-08-06 18:08:57</time>
      </trkpt>
      <trkpt lat="37.05958" lon="-3.37184">
        <ele>3165.2</ele>
        <time>2021-08-06 18:08:58</time>
      </trkpt>
      <trkpt lat="37.05958" lon="-3.37185">
        <ele>3165.4</ele>
        <time>2021-08-06 18:08:59</time>
      </trkpt>
      <trkpt lat="37.05959" lon="-3.37185">
        <ele>3165.6</ele>
        <time>2021-08-06 18:09:00</time>
      </trkpt>
      <trkpt lat="37.0596" lon="-3.37185">
        <ele>3165.8</ele>
        <time>2021-08-06 18:09:01</time>
      </trkpt>
      <trkpt lat="37.05961" lon="-3.37185">
        <ele>3165.8</ele>
        <time>2021-08-06 18:09:02</time>
      </trkpt>
      <trkpt lat="37.05962" lon="-3.37184">
        <ele>3165.8</ele>
        <time>2021-08-06 18:09:03</time>
      </trkpt>
      <trkpt lat="37.05963" lon="-3.37184">
        <ele>3165.8</ele>
        <time>2021-08-06 18:09:04</time>
      </trkpt>
      <trkpt lat="37.05964" lon="-3.37182">
        <ele>3165.8</ele>
        <time>2021-08-06 18:09:05</time>
      </trkpt>
      <trkpt lat="37.05965" lon="-3.37182">
        <ele>3165.6</ele>
        <time>2021-08-06 18:09:06</time>
      </trkpt>
      <trkpt lat="37.05966" lon="-3.37182">
        <ele>3165.4</ele>
        <time>2021-08-06 18:09:07</time>
      </trkpt>
      <trkpt lat="37.05967" lon="-3.37182">
        <ele>3165.4</ele>
        <time>2021-08-06 18:09:08</time>
      </trkpt>
      <trkpt lat="37.05968" lon="-3.37182">
        <ele>3165.2</ele>
        <time>2021-08-06 18:09:09</time>
      </trkpt>
      <trkpt lat="37.05968" lon="-3.37181">
        <ele>3165.2</ele>
        <time>2021-08-06 18:09:10</time>
      </trkpt>
      <trkpt lat="37.0597" lon="-3.37181">
        <ele>3165.2</ele>
        <time>2021-08-06 18:09:11</time>
      </trkpt>
      <trkpt lat="37.05971" lon="-3.37181">
        <ele>3165.2</ele>
        <time>2021-08-06 18:09:12</time>
      </trkpt>
      <trkpt lat="37.05971" lon="-3.37181">
        <ele>3165.2</ele>
        <time>2021-08-06 18:09:13</time>
      </trkpt>
      <trkpt lat="37.05972" lon="-3.3718">
        <ele>3165.2</ele>
        <time>2021-08-06 18:09:14</time>
      </trkpt>
      <trkpt lat="37.05973" lon="-3.3718">
        <ele>3165</ele>
        <time>2021-08-06 18:09:15</time>
      </trkpt>
      <trkpt lat="37.05974" lon="-3.37178">
        <ele>3165</ele>
        <time>2021-08-06 18:09:16</time>
      </trkpt>
      <trkpt lat="37.05975" lon="-3.37178">
        <ele>3164.8</ele>
        <time>2021-08-06 18:09:17</time>
      </trkpt>
      <trkpt lat="37.05976" lon="-3.37178">
        <ele>3164.8</ele>
        <time>2021-08-06 18:09:18</time>
      </trkpt>
      <trkpt lat="37.05977" lon="-3.37177">
        <ele>3164.2</ele>
        <time>2021-08-06 18:09:19</time>
      </trkpt>
      <trkpt lat="37.05978" lon="-3.37179">
        <ele>3163.8</ele>
        <time>2021-08-06 18:09:20</time>
      </trkpt>
      <trkpt lat="37.05979" lon="-3.37178">
        <ele>3163.6</ele>
        <time>2021-08-06 18:09:21</time>
      </trkpt>
      <trkpt lat="37.05981" lon="-3.37177">
        <ele>3163.6</ele>
        <time>2021-08-06 18:09:22</time>
      </trkpt>
      <trkpt lat="37.05981" lon="-3.37176">
        <ele>3163.6</ele>
        <time>2021-08-06 18:09:23</time>
      </trkpt>
      <trkpt lat="37.05982" lon="-3.37175">
        <ele>3163.6</ele>
        <time>2021-08-06 18:09:24</time>
      </trkpt>
      <trkpt lat="37.05983" lon="-3.37175">
        <ele>3163.6</ele>
        <time>2021-08-06 18:09:25</time>
      </trkpt>
      <trkpt lat="37.05984" lon="-3.37173">
        <ele>3163.6</ele>
        <time>2021-08-06 18:09:26</time>
      </trkpt>
      <trkpt lat="37.05985" lon="-3.37173">
        <ele>3163.4</ele>
        <time>2021-08-06 18:09:27</time>
      </trkpt>
      <trkpt lat="37.05986" lon="-3.37172">
        <ele>3163.2</ele>
        <time>2021-08-06 18:09:28</time>
      </trkpt>
      <trkpt lat="37.05987" lon="-3.37172">
        <ele>3163</ele>
        <time>2021-08-06 18:09:29</time>
      </trkpt>
      <trkpt lat="37.05988" lon="-3.37171">
        <ele>3163.2</ele>
        <time>2021-08-06 18:09:30</time>
      </trkpt>
      <trkpt lat="37.05988" lon="-3.37171">
        <ele>3163.2</ele>
        <time>2021-08-06 18:09:31</time>
      </trkpt>
      <trkpt lat="37.05989" lon="-3.37171">
        <ele>3163.2</ele>
        <time>2021-08-06 18:09:32</time>
      </trkpt>
      <trkpt lat="37.0599" lon="-3.37171">
        <ele>3163.4</ele>
        <time>2021-08-06 18:09:33</time>
      </trkpt>
      <trkpt lat="37.05991" lon="-3.37171">
        <ele>3163.4</ele>
        <time>2021-08-06 18:09:34</time>
      </trkpt>
      <trkpt lat="37.05992" lon="-3.37171">
        <ele>3163.4</ele>
        <time>2021-08-06 18:09:35</time>
      </trkpt>
      <trkpt lat="37.05993" lon="-3.37172">
        <ele>3163.4</ele>
        <time>2021-08-06 18:09:36</time>
      </trkpt>
      <trkpt lat="37.05994" lon="-3.37173">
        <ele>3163.4</ele>
        <time>2021-08-06 18:09:37</time>
      </trkpt>
      <trkpt lat="37.05994" lon="-3.37173">
        <ele>3163</ele>
        <time>2021-08-06 18:09:38</time>
      </trkpt>
      <trkpt lat="37.05995" lon="-3.37174">
        <ele>3162.8</ele>
        <time>2021-08-06 18:09:39</time>
      </trkpt>
      <trkpt lat="37.05996" lon="-3.37174">
        <ele>3162.8</ele>
        <time>2021-08-06 18:09:40</time>
      </trkpt>
      <trkpt lat="37.05997" lon="-3.37173">
        <ele>3162.6</ele>
        <time>2021-08-06 18:09:41</time>
      </trkpt>
      <trkpt lat="37.05998" lon="-3.37173">
        <ele>3162.4</ele>
        <time>2021-08-06 18:09:42</time>
      </trkpt>
      <trkpt lat="37.05999" lon="-3.37174">
        <ele>3162.4</ele>
        <time>2021-08-06 18:09:43</time>
      </trkpt>
      <trkpt lat="37.06001" lon="-3.37174">
        <ele>3162.4</ele>
        <time>2021-08-06 18:09:44</time>
      </trkpt>
      <trkpt lat="37.06002" lon="-3.37174">
        <ele>3162</ele>
        <time>2021-08-06 18:09:45</time>
      </trkpt>
      <trkpt lat="37.06003" lon="-3.37173">
        <ele>3161.8</ele>
        <time>2021-08-06 18:09:46</time>
      </trkpt>
      <trkpt lat="37.06004" lon="-3.37172">
        <ele>3161.8</ele>
        <time>2021-08-06 18:09:47</time>
      </trkpt>
      <trkpt lat="37.06004" lon="-3.37171">
        <ele>3161.8</ele>
        <time>2021-08-06 18:09:48</time>
      </trkpt>
      <trkpt lat="37.06005" lon="-3.37171">
        <ele>3161.8</ele>
        <time>2021-08-06 18:09:49</time>
      </trkpt>
      <trkpt lat="37.06007" lon="-3.37171">
        <ele>3161.6</ele>
        <time>2021-08-06 18:09:50</time>
      </trkpt>
      <trkpt lat="37.06008" lon="-3.37171">
        <ele>3161.6</ele>
        <time>2021-08-06 18:09:51</time>
      </trkpt>
      <trkpt lat="37.06009" lon="-3.3717">
        <ele>3161.6</ele>
        <time>2021-08-06 18:09:52</time>
      </trkpt>
      <trkpt lat="37.0601" lon="-3.3717">
        <ele>3161.6</ele>
        <time>2021-08-06 18:09:53</time>
      </trkpt>
      <trkpt lat="37.06011" lon="-3.37169">
        <ele>3161.4</ele>
        <time>2021-08-06 18:09:54</time>
      </trkpt>
      <trkpt lat="37.06013" lon="-3.3717">
        <ele>3161.2</ele>
        <time>2021-08-06 18:09:55</time>
      </trkpt>
      <trkpt lat="37.06014" lon="-3.3717">
        <ele>3161.2</ele>
        <time>2021-08-06 18:09:56</time>
      </trkpt>
      <trkpt lat="37.06015" lon="-3.37169">
        <ele>3161.2</ele>
        <time>2021-08-06 18:09:57</time>
      </trkpt>
      <trkpt lat="37.06016" lon="-3.37169">
        <ele>3161.2</ele>
        <time>2021-08-06 18:09:58</time>
      </trkpt>
      <trkpt lat="37.06017" lon="-3.37168">
        <ele>3161</ele>
        <time>2021-08-06 18:09:59</time>
      </trkpt>
      <trkpt lat="37.06018" lon="-3.37169">
        <ele>3160.8</ele>
        <time>2021-08-06 18:10:00</time>
      </trkpt>
      <trkpt lat="37.06018" lon="-3.37169">
        <ele>3160.8</ele>
        <time>2021-08-06 18:10:01</time>
      </trkpt>
      <trkpt lat="37.06019" lon="-3.37169">
        <ele>3160.8</ele>
        <time>2021-08-06 18:10:02</time>
      </trkpt>
      <trkpt lat="37.0602" lon="-3.37169">
        <ele>3160.6</ele>
        <time>2021-08-06 18:10:03</time>
      </trkpt>
      <trkpt lat="37.06021" lon="-3.37168">
        <ele>3160.6</ele>
        <time>2021-08-06 18:10:04</time>
      </trkpt>
      <trkpt lat="37.06022" lon="-3.37168">
        <ele>3160.6</ele>
        <time>2021-08-06 18:10:05</time>
      </trkpt>
      <trkpt lat="37.06023" lon="-3.37167">
        <ele>3160.6</ele>
        <time>2021-08-06 18:10:06</time>
      </trkpt>
      <trkpt lat="37.06023" lon="-3.37167">
        <ele>3160.6</ele>
        <time>2021-08-06 18:10:07</time>
      </trkpt>
      <trkpt lat="37.06023" lon="-3.37166">
        <ele>3160.6</ele>
        <time>2021-08-06 18:10:08</time>
      </trkpt>
      <trkpt lat="37.06023" lon="-3.37165">
        <ele>3160.4</ele>
        <time>2021-08-06 18:10:09</time>
      </trkpt>
      <trkpt lat="37.06023" lon="-3.37165">
        <ele>3160.4</ele>
        <time>2021-08-06 18:10:10</time>
      </trkpt>
      <trkpt lat="37.06023" lon="-3.37165">
        <ele>3160.4</ele>
        <time>2021-08-06 18:10:11</time>
      </trkpt>
      <trkpt lat="37.06023" lon="-3.37165">
        <ele>3160.4</ele>
        <time>2021-08-06 18:10:12</time>
      </trkpt>
      <trkpt lat="37.06023" lon="-3.37165">
        <ele>3160.4</ele>
        <time>2021-08-06 18:10:13</time>
      </trkpt>
      <trkpt lat="37.06023" lon="-3.37165">
        <ele>3160.4</ele>
        <time>2021-08-06 18:10:14</time>
      </trkpt>
      <trkpt lat="37.06023" lon="-3.37165">
        <ele>3160.4</ele>
        <time>2021-08-06 18:10:15</time>
      </trkpt>
      <trkpt lat="37.06023" lon="-3.37165">
        <ele>3160.4</ele>
        <time>2021-08-06 18:10:16</time>
      </trkpt>
      <trkpt lat="37.06024" lon="-3.37165">
        <ele>3160.4</ele>
        <time>2021-08-06 18:10:17</time>
      </trkpt>
      <trkpt lat="37.06024" lon="-3.37165">
        <ele>3160.4</ele>
        <time>2021-08-06 18:10:18</time>
      </trkpt>
      <trkpt lat="37.06024" lon="-3.37165">
        <ele>3160.4</ele>
        <time>2021-08-06 18:10:19</time>
      </trkpt>
      <trkpt lat="37.06025" lon="-3.37166">
        <ele>3160.4</ele>
        <time>2021-08-06 18:10:20</time>
      </trkpt>
      <trkpt lat="37.06025" lon="-3.37166">
        <ele>3160.4</ele>
        <time>2021-08-06 18:10:21</time>
      </trkpt>
      <trkpt lat="37.06025" lon="-3.37164">
        <ele>3160.6</ele>
        <time>2021-08-06 18:10:22</time>
      </trkpt>
      <trkpt lat="37.06025" lon="-3.37164">
        <ele>3160.8</ele>
        <time>2021-08-06 18:10:23</time>
      </trkpt>
      <trkpt lat="37.06025" lon="-3.37163">
        <ele>3160.8</ele>
        <time>2021-08-06 18:10:24</time>
      </trkpt>
      <trkpt lat="37.06025" lon="-3.37163">
        <ele>3160.8</ele>
        <time>2021-08-06 18:10:25</time>
      </trkpt>
      <trkpt lat="37.06025" lon="-3.37163">
        <ele>3160.8</ele>
        <time>2021-08-06 18:10:26</time>
      </trkpt>
      <trkpt lat="37.06025" lon="-3.37163">
        <ele>3160.8</ele>
        <time>2021-08-06 18:10:27</time>
      </trkpt>
      <trkpt lat="37.06024" lon="-3.37163">
        <ele>3160.8</ele>
        <time>2021-08-06 18:10:28</time>
      </trkpt>
      <trkpt lat="37.06024" lon="-3.37163">
        <ele>3160.8</ele>
        <time>2021-08-06 18:10:29</time>
      </trkpt>
      <trkpt lat="37.06024" lon="-3.37163">
        <ele>3160.8</ele>
        <time>2021-08-06 18:10:30</time>
      </trkpt>
      <trkpt lat="37.06024" lon="-3.37163">
        <ele>3160.6</ele>
        <time>2021-08-06 18:10:31</time>
      </trkpt>
      <trkpt lat="37.06024" lon="-3.37164">
        <ele>3160.4</ele>
        <time>2021-08-06 18:10:32</time>
      </trkpt>
      <trkpt lat="37.06024" lon="-3.37163">
        <ele>3160.4</ele>
        <time>2021-08-06 18:10:33</time>
      </trkpt>
      <trkpt lat="37.06024" lon="-3.37164">
        <ele>3160.2</ele>
        <time>2021-08-06 18:10:34</time>
      </trkpt>
      <trkpt lat="37.06024" lon="-3.37165">
        <ele>3160.2</ele>
        <time>2021-08-06 18:10:35</time>
      </trkpt>
      <trkpt lat="37.06024" lon="-3.37166">
        <ele>3160</ele>
        <time>2021-08-06 18:10:36</time>
      </trkpt>
      <trkpt lat="37.06024" lon="-3.37166">
        <ele>3159.8</ele>
        <time>2021-08-06 18:10:37</time>
      </trkpt>
      <trkpt lat="37.06024" lon="-3.37166">
        <ele>3159.6</ele>
        <time>2021-08-06 18:10:38</time>
      </trkpt>
      <trkpt lat="37.06025" lon="-3.37167">
        <ele>3159.6</ele>
        <time>2021-08-06 18:10:39</time>
      </trkpt>
      <trkpt lat="37.06025" lon="-3.37167">
        <ele>3159.2</ele>
        <time>2021-08-06 18:10:40</time>
      </trkpt>
      <trkpt lat="37.06026" lon="-3.37168">
        <ele>3158.8</ele>
        <time>2021-08-06 18:10:41</time>
      </trkpt>
      <trkpt lat="37.06027" lon="-3.37168">
        <ele>3158.4</ele>
        <time>2021-08-06 18:10:42</time>
      </trkpt>
      <trkpt lat="37.06027" lon="-3.37168">
        <ele>3158.2</ele>
        <time>2021-08-06 18:10:43</time>
      </trkpt>
      <trkpt lat="37.06029" lon="-3.37168">
        <ele>3158.2</ele>
        <time>2021-08-06 18:10:44</time>
      </trkpt>
      <trkpt lat="37.0603" lon="-3.3717">
        <ele>3158.2</ele>
        <time>2021-08-06 18:10:45</time>
      </trkpt>
      <trkpt lat="37.0603" lon="-3.3717">
        <ele>3158</ele>
        <time>2021-08-06 18:10:46</time>
      </trkpt>
      <trkpt lat="37.0603" lon="-3.37172">
        <ele>3158</ele>
        <time>2021-08-06 18:10:47</time>
      </trkpt>
      <trkpt lat="37.0603" lon="-3.37172">
        <ele>3157.8</ele>
        <time>2021-08-06 18:10:48</time>
      </trkpt>
      <trkpt lat="37.0603" lon="-3.37172">
        <ele>3157.8</ele>
        <time>2021-08-06 18:10:49</time>
      </trkpt>
      <trkpt lat="37.0603" lon="-3.37173">
        <ele>3157.6</ele>
        <time>2021-08-06 18:10:50</time>
      </trkpt>
      <trkpt lat="37.06031" lon="-3.37173">
        <ele>3157.2</ele>
        <time>2021-08-06 18:10:51</time>
      </trkpt>
      <trkpt lat="37.06031" lon="-3.37173">
        <ele>3157</ele>
        <time>2021-08-06 18:10:52</time>
      </trkpt>
      <trkpt lat="37.06031" lon="-3.37173">
        <ele>3157</ele>
        <time>2021-08-06 18:10:53</time>
      </trkpt>
      <trkpt lat="37.06031" lon="-3.37174">
        <ele>3156.8</ele>
        <time>2021-08-06 18:10:54</time>
      </trkpt>
      <trkpt lat="37.06032" lon="-3.37174">
        <ele>3156.6</ele>
        <time>2021-08-06 18:10:55</time>
      </trkpt>
      <trkpt lat="37.06032" lon="-3.37174">
        <ele>3156.4</ele>
        <time>2021-08-06 18:10:56</time>
      </trkpt>
      <trkpt lat="37.06033" lon="-3.37174">
        <ele>3156.2</ele>
        <time>2021-08-06 18:10:57</time>
      </trkpt>
      <trkpt lat="37.06033" lon="-3.37174">
        <ele>3156.2</ele>
        <time>2021-08-06 18:10:58</time>
      </trkpt>
      <trkpt lat="37.06034" lon="-3.37174">
        <ele>3156</ele>
        <time>2021-08-06 18:10:59</time>
      </trkpt>
      <trkpt lat="37.06035" lon="-3.37174">
        <ele>3155.8</ele>
        <time>2021-08-06 18:11:00</time>
      </trkpt>
      <trkpt lat="37.06035" lon="-3.37174">
        <ele>3155.6</ele>
        <time>2021-08-06 18:11:01</time>
      </trkpt>
      <trkpt lat="37.06035" lon="-3.37175">
        <ele>3155.4</ele>
        <time>2021-08-06 18:11:02</time>
      </trkpt>
      <trkpt lat="37.06036" lon="-3.37175">
        <ele>3155.2</ele>
        <time>2021-08-06 18:11:03</time>
      </trkpt>
      <trkpt lat="37.06036" lon="-3.37175">
        <ele>3155</ele>
        <time>2021-08-06 18:11:04</time>
      </trkpt>
      <trkpt lat="37.06037" lon="-3.37176">
        <ele>3155</ele>
        <time>2021-08-06 18:11:05</time>
      </trkpt>
      <trkpt lat="37.06037" lon="-3.37176">
        <ele>3154.6</ele>
        <time>2021-08-06 18:11:06</time>
      </trkpt>
      <trkpt lat="37.06038" lon="-3.37177">
        <ele>3154.4</ele>
        <time>2021-08-06 18:11:07</time>
      </trkpt>
      <trkpt lat="37.06038" lon="-3.37177">
        <ele>3154.2</ele>
        <time>2021-08-06 18:11:08</time>
      </trkpt>
      <trkpt lat="37.06038" lon="-3.37177">
        <ele>3154.2</ele>
        <time>2021-08-06 18:11:09</time>
      </trkpt>
      <trkpt lat="37.06039" lon="-3.37177">
        <ele>3154.2</ele>
        <time>2021-08-06 18:11:10</time>
      </trkpt>
      <trkpt lat="37.06039" lon="-3.37178">
        <ele>3154</ele>
        <time>2021-08-06 18:11:11</time>
      </trkpt>
      <trkpt lat="37.06039" lon="-3.37177">
        <ele>3153.6</ele>
        <time>2021-08-06 18:11:12</time>
      </trkpt>
      <trkpt lat="37.06039" lon="-3.37176">
        <ele>3153.2</ele>
        <time>2021-08-06 18:11:13</time>
      </trkpt>
      <trkpt lat="37.06039" lon="-3.37173">
        <ele>3153</ele>
        <time>2021-08-06 18:11:14</time>
      </trkpt>
      <trkpt lat="37.06039" lon="-3.37172">
        <ele>3152.8</ele>
        <time>2021-08-06 18:11:15</time>
      </trkpt>
      <trkpt lat="37.0604" lon="-3.37172">
        <ele>3152.6</ele>
        <time>2021-08-06 18:11:16</time>
      </trkpt>
      <trkpt lat="37.0604" lon="-3.37172">
        <ele>3152.4</ele>
        <time>2021-08-06 18:11:17</time>
      </trkpt>
      <trkpt lat="37.0604" lon="-3.37172">
        <ele>3152.4</ele>
        <time>2021-08-06 18:11:18</time>
      </trkpt>
      <trkpt lat="37.0604" lon="-3.37172">
        <ele>3152.2</ele>
        <time>2021-08-06 18:11:19</time>
      </trkpt>
      <trkpt lat="37.06041" lon="-3.37172">
        <ele>3152.2</ele>
        <time>2021-08-06 18:11:20</time>
      </trkpt>
      <trkpt lat="37.06042" lon="-3.37172">
        <ele>3152</ele>
        <time>2021-08-06 18:11:21</time>
      </trkpt>
      <trkpt lat="37.06042" lon="-3.37172">
        <ele>3151.6</ele>
        <time>2021-08-06 18:11:22</time>
      </trkpt>
      <trkpt lat="37.06043" lon="-3.37172">
        <ele>3151.4</ele>
        <time>2021-08-06 18:11:23</time>
      </trkpt>
      <trkpt lat="37.06044" lon="-3.37173">
        <ele>3151.2</ele>
        <time>2021-08-06 18:11:24</time>
      </trkpt>
      <trkpt lat="37.06045" lon="-3.37172">
        <ele>3151</ele>
        <time>2021-08-06 18:11:25</time>
      </trkpt>
      <trkpt lat="37.06045" lon="-3.37171">
        <ele>3150.8</ele>
        <time>2021-08-06 18:11:26</time>
      </trkpt>
      <trkpt lat="37.06046" lon="-3.37171">
        <ele>3150.6</ele>
        <time>2021-08-06 18:11:27</time>
      </trkpt>
      <trkpt lat="37.06047" lon="-3.37171">
        <ele>3150.4</ele>
        <time>2021-08-06 18:11:28</time>
      </trkpt>
      <trkpt lat="37.06047" lon="-3.37171">
        <ele>3150.4</ele>
        <time>2021-08-06 18:11:29</time>
      </trkpt>
      <trkpt lat="37.06048" lon="-3.37171">
        <ele>3150.2</ele>
        <time>2021-08-06 18:11:30</time>
      </trkpt>
      <trkpt lat="37.06048" lon="-3.37171">
        <ele>3150</ele>
        <time>2021-08-06 18:11:31</time>
      </trkpt>
      <trkpt lat="37.06049" lon="-3.37172">
        <ele>3149.8</ele>
        <time>2021-08-06 18:11:32</time>
      </trkpt>
      <trkpt lat="37.06049" lon="-3.37174">
        <ele>3149.8</ele>
        <time>2021-08-06 18:11:33</time>
      </trkpt>
      <trkpt lat="37.0605" lon="-3.37175">
        <ele>3149.6</ele>
        <time>2021-08-06 18:11:34</time>
      </trkpt>
      <trkpt lat="37.0605" lon="-3.37176">
        <ele>3149.4</ele>
        <time>2021-08-06 18:11:35</time>
      </trkpt>
      <trkpt lat="37.06051" lon="-3.37177">
        <ele>3149.2</ele>
        <time>2021-08-06 18:11:36</time>
      </trkpt>
      <trkpt lat="37.06051" lon="-3.37177">
        <ele>3149</ele>
        <time>2021-08-06 18:11:37</time>
      </trkpt>
      <trkpt lat="37.06052" lon="-3.37177">
        <ele>3148.8</ele>
        <time>2021-08-06 18:11:38</time>
      </trkpt>
      <trkpt lat="37.06052" lon="-3.37176">
        <ele>3148.4</ele>
        <time>2021-08-06 18:11:39</time>
      </trkpt>
      <trkpt lat="37.06053" lon="-3.37174">
        <ele>3148.4</ele>
        <time>2021-08-06 18:11:40</time>
      </trkpt>
      <trkpt lat="37.06053" lon="-3.37171">
        <ele>3148.2</ele>
        <time>2021-08-06 18:11:41</time>
      </trkpt>
      <trkpt lat="37.06054" lon="-3.37168">
        <ele>3148</ele>
        <time>2021-08-06 18:11:42</time>
      </trkpt>
      <trkpt lat="37.06054" lon="-3.37167">
        <ele>3147.8</ele>
        <time>2021-08-06 18:11:43</time>
      </trkpt>
      <trkpt lat="37.06055" lon="-3.37167">
        <ele>3147.6</ele>
        <time>2021-08-06 18:11:44</time>
      </trkpt>
      <trkpt lat="37.06055" lon="-3.37166">
        <ele>3147.4</ele>
        <time>2021-08-06 18:11:45</time>
      </trkpt>
      <trkpt lat="37.06055" lon="-3.37166">
        <ele>3147.4</ele>
        <time>2021-08-06 18:11:46</time>
      </trkpt>
      <trkpt lat="37.06056" lon="-3.37166">
        <ele>3147.4</ele>
        <time>2021-08-06 18:11:47</time>
      </trkpt>
      <trkpt lat="37.06057" lon="-3.37166">
        <ele>3147.4</ele>
        <time>2021-08-06 18:11:48</time>
      </trkpt>
      <trkpt lat="37.06058" lon="-3.37166">
        <ele>3147.2</ele>
        <time>2021-08-06 18:11:49</time>
      </trkpt>
      <trkpt lat="37.06058" lon="-3.37165">
        <ele>3147</ele>
        <time>2021-08-06 18:11:50</time>
      </trkpt>
      <trkpt lat="37.06059" lon="-3.37165">
        <ele>3146.8</ele>
        <time>2021-08-06 18:11:51</time>
      </trkpt>
      <trkpt lat="37.0606" lon="-3.37166">
        <ele>3146.8</ele>
        <time>2021-08-06 18:11:52</time>
      </trkpt>
      <trkpt lat="37.06061" lon="-3.37165">
        <ele>3146.8</ele>
        <time>2021-08-06 18:11:53</time>
      </trkpt>
      <trkpt lat="37.06061" lon="-3.37165">
        <ele>3146.6</ele>
        <time>2021-08-06 18:11:54</time>
      </trkpt>
      <trkpt lat="37.06062" lon="-3.37164">
        <ele>3146.6</ele>
        <time>2021-08-06 18:11:55</time>
      </trkpt>
      <trkpt lat="37.06063" lon="-3.37164">
        <ele>3146.2</ele>
        <time>2021-08-06 18:11:56</time>
      </trkpt>
      <trkpt lat="37.06064" lon="-3.37163">
        <ele>3146</ele>
        <time>2021-08-06 18:11:57</time>
      </trkpt>
      <trkpt lat="37.06065" lon="-3.37163">
        <ele>3145.8</ele>
        <time>2021-08-06 18:11:58</time>
      </trkpt>
      <trkpt lat="37.06065" lon="-3.37162">
        <ele>3145.8</ele>
        <time>2021-08-06 18:11:59</time>
      </trkpt>
      <trkpt lat="37.06066" lon="-3.37162">
        <ele>3145.6</ele>
        <time>2021-08-06 18:12:00</time>
      </trkpt>
      <trkpt lat="37.06066" lon="-3.37161">
        <ele>3145.4</ele>
        <time>2021-08-06 18:12:01</time>
      </trkpt>
      <trkpt lat="37.06067" lon="-3.37161">
        <ele>3145.2</ele>
        <time>2021-08-06 18:12:02</time>
      </trkpt>
      <trkpt lat="37.06067" lon="-3.37161">
        <ele>3145</ele>
        <time>2021-08-06 18:12:03</time>
      </trkpt>
      <trkpt lat="37.06068" lon="-3.37161">
        <ele>3145</ele>
        <time>2021-08-06 18:12:04</time>
      </trkpt>
      <trkpt lat="37.06067" lon="-3.37161">
        <ele>3145</ele>
        <time>2021-08-06 18:12:05</time>
      </trkpt>
      <trkpt lat="37.06068" lon="-3.3716">
        <ele>3145</ele>
        <time>2021-08-06 18:12:06</time>
      </trkpt>
      <trkpt lat="37.06068" lon="-3.3716">
        <ele>3144.8</ele>
        <time>2021-08-06 18:12:07</time>
      </trkpt>
      <trkpt lat="37.06069" lon="-3.3716">
        <ele>3144.4</ele>
        <time>2021-08-06 18:12:08</time>
      </trkpt>
      <trkpt lat="37.06069" lon="-3.3716">
        <ele>3144.2</ele>
        <time>2021-08-06 18:12:09</time>
      </trkpt>
      <trkpt lat="37.06069" lon="-3.3716">
        <ele>3144.2</ele>
        <time>2021-08-06 18:12:10</time>
      </trkpt>
      <trkpt lat="37.06069" lon="-3.3716">
        <ele>3144</ele>
        <time>2021-08-06 18:12:11</time>
      </trkpt>
      <trkpt lat="37.06069" lon="-3.37161">
        <ele>3144</ele>
        <time>2021-08-06 18:12:12</time>
      </trkpt>
      <trkpt lat="37.06069" lon="-3.3716">
        <ele>3144</ele>
        <time>2021-08-06 18:12:13</time>
      </trkpt>
      <trkpt lat="37.06069" lon="-3.3716">
        <ele>3144.2</ele>
        <time>2021-08-06 18:12:14</time>
      </trkpt>
      <trkpt lat="37.06069" lon="-3.3716">
        <ele>3144.2</ele>
        <time>2021-08-06 18:12:15</time>
      </trkpt>
      <trkpt lat="37.06069" lon="-3.3716">
        <ele>3144.2</ele>
        <time>2021-08-06 18:12:16</time>
      </trkpt>
      <trkpt lat="37.06069" lon="-3.3716">
        <ele>3144.2</ele>
        <time>2021-08-06 18:12:17</time>
      </trkpt>
      <trkpt lat="37.0607" lon="-3.3716">
        <ele>3144</ele>
        <time>2021-08-06 18:12:18</time>
      </trkpt>
      <trkpt lat="37.0607" lon="-3.3716">
        <ele>3143.8</ele>
        <time>2021-08-06 18:12:19</time>
      </trkpt>
      <trkpt lat="37.0607" lon="-3.37161">
        <ele>3143.8</ele>
        <time>2021-08-06 18:12:20</time>
      </trkpt>
      <trkpt lat="37.0607" lon="-3.37162">
        <ele>3143.6</ele>
        <time>2021-08-06 18:12:21</time>
      </trkpt>
      <trkpt lat="37.0607" lon="-3.37163">
        <ele>3143.8</ele>
        <time>2021-08-06 18:12:22</time>
      </trkpt>
      <trkpt lat="37.0607" lon="-3.37164">
        <ele>3143.8</ele>
        <time>2021-08-06 18:12:23</time>
      </trkpt>
      <trkpt lat="37.06071" lon="-3.37164">
        <ele>3143.4</ele>
        <time>2021-08-06 18:12:24</time>
      </trkpt>
      <trkpt lat="37.06071" lon="-3.37165">
        <ele>3143.2</ele>
        <time>2021-08-06 18:12:25</time>
      </trkpt>
      <trkpt lat="37.06072" lon="-3.37167">
        <ele>3143</ele>
        <time>2021-08-06 18:12:26</time>
      </trkpt>
      <trkpt lat="37.06072" lon="-3.37169">
        <ele>3142.8</ele>
        <time>2021-08-06 18:12:27</time>
      </trkpt>
      <trkpt lat="37.06072" lon="-3.37169">
        <ele>3142.6</ele>
        <time>2021-08-06 18:12:28</time>
      </trkpt>
      <trkpt lat="37.06073" lon="-3.3717">
        <ele>3142.2</ele>
        <time>2021-08-06 18:12:29</time>
      </trkpt>
      <trkpt lat="37.06073" lon="-3.37171">
        <ele>3142</ele>
        <time>2021-08-06 18:12:30</time>
      </trkpt>
      <trkpt lat="37.06073" lon="-3.37172">
        <ele>3142</ele>
        <time>2021-08-06 18:12:31</time>
      </trkpt>
      <trkpt lat="37.06073" lon="-3.37173">
        <ele>3141.6</ele>
        <time>2021-08-06 18:12:32</time>
      </trkpt>
      <trkpt lat="37.06073" lon="-3.37174">
        <ele>3141.6</ele>
        <time>2021-08-06 18:12:33</time>
      </trkpt>
      <trkpt lat="37.06073" lon="-3.37177">
        <ele>3141.4</ele>
        <time>2021-08-06 18:12:34</time>
      </trkpt>
      <trkpt lat="37.06074" lon="-3.37174">
        <ele>3141.4</ele>
        <time>2021-08-06 18:12:35</time>
      </trkpt>
      <trkpt lat="37.06074" lon="-3.37174">
        <ele>3141.4</ele>
        <time>2021-08-06 18:12:36</time>
      </trkpt>
      <trkpt lat="37.06074" lon="-3.37173">
        <ele>3141.4</ele>
        <time>2021-08-06 18:12:37</time>
      </trkpt>
      <trkpt lat="37.06074" lon="-3.37173">
        <ele>3141.4</ele>
        <time>2021-08-06 18:12:38</time>
      </trkpt>
      <trkpt lat="37.06074" lon="-3.37175">
        <ele>3141.4</ele>
        <time>2021-08-06 18:12:39</time>
      </trkpt>
      <trkpt lat="37.06074" lon="-3.37176">
        <ele>3141.2</ele>
        <time>2021-08-06 18:12:40</time>
      </trkpt>
      <trkpt lat="37.06074" lon="-3.37177">
        <ele>3140.8</ele>
        <time>2021-08-06 18:12:41</time>
      </trkpt>
      <trkpt lat="37.06075" lon="-3.37178">
        <ele>3140.6</ele>
        <time>2021-08-06 18:12:42</time>
      </trkpt>
      <trkpt lat="37.06075" lon="-3.37178">
        <ele>3140.2</ele>
        <time>2021-08-06 18:12:43</time>
      </trkpt>
      <trkpt lat="37.06076" lon="-3.37178">
        <ele>3140</ele>
        <time>2021-08-06 18:12:44</time>
      </trkpt>
      <trkpt lat="37.06077" lon="-3.37178">
        <ele>3140</ele>
        <time>2021-08-06 18:12:45</time>
      </trkpt>
      <trkpt lat="37.06077" lon="-3.37179">
        <ele>3139.6</ele>
        <time>2021-08-06 18:12:46</time>
      </trkpt>
      <trkpt lat="37.06078" lon="-3.37179">
        <ele>3139.2</ele>
        <time>2021-08-06 18:12:47</time>
      </trkpt>
      <trkpt lat="37.06078" lon="-3.3718">
        <ele>3139</ele>
        <time>2021-08-06 18:12:48</time>
      </trkpt>
      <trkpt lat="37.06078" lon="-3.3718">
        <ele>3138.8</ele>
        <time>2021-08-06 18:12:49</time>
      </trkpt>
      <trkpt lat="37.06079" lon="-3.37181">
        <ele>3138.8</ele>
        <time>2021-08-06 18:12:50</time>
      </trkpt>
      <trkpt lat="37.06079" lon="-3.37181">
        <ele>3138.4</ele>
        <time>2021-08-06 18:12:51</time>
      </trkpt>
      <trkpt lat="37.0608" lon="-3.3718">
        <ele>3137.8</ele>
        <time>2021-08-06 18:12:52</time>
      </trkpt>
      <trkpt lat="37.0608" lon="-3.37181">
        <ele>3137.6</ele>
        <time>2021-08-06 18:12:53</time>
      </trkpt>
      <trkpt lat="37.0608" lon="-3.37181">
        <ele>3137.4</ele>
        <time>2021-08-06 18:12:54</time>
      </trkpt>
      <trkpt lat="37.0608" lon="-3.37182">
        <ele>3137.2</ele>
        <time>2021-08-06 18:12:55</time>
      </trkpt>
      <trkpt lat="37.0608" lon="-3.37183">
        <ele>3137.2</ele>
        <time>2021-08-06 18:12:56</time>
      </trkpt>
      <trkpt lat="37.0608" lon="-3.37184">
        <ele>3137.2</ele>
        <time>2021-08-06 18:12:57</time>
      </trkpt>
      <trkpt lat="37.06081" lon="-3.37185">
        <ele>3136.8</ele>
        <time>2021-08-06 18:12:58</time>
      </trkpt>
      <trkpt lat="37.06081" lon="-3.37186">
        <ele>3136.6</ele>
        <time>2021-08-06 18:12:59</time>
      </trkpt>
      <trkpt lat="37.06082" lon="-3.37187">
        <ele>3136.6</ele>
        <time>2021-08-06 18:13:00</time>
      </trkpt>
      <trkpt lat="37.06082" lon="-3.37188">
        <ele>3136.4</ele>
        <time>2021-08-06 18:13:01</time>
      </trkpt>
      <trkpt lat="37.06082" lon="-3.37189">
        <ele>3136.2</ele>
        <time>2021-08-06 18:13:02</time>
      </trkpt>
      <trkpt lat="37.06083" lon="-3.37189">
        <ele>3135.8</ele>
        <time>2021-08-06 18:13:03</time>
      </trkpt>
      <trkpt lat="37.06083" lon="-3.37189">
        <ele>3135.8</ele>
        <time>2021-08-06 18:13:04</time>
      </trkpt>
      <trkpt lat="37.06084" lon="-3.37188">
        <ele>3135.6</ele>
        <time>2021-08-06 18:13:05</time>
      </trkpt>
      <trkpt lat="37.06084" lon="-3.37188">
        <ele>3135.6</ele>
        <time>2021-08-06 18:13:06</time>
      </trkpt>
      <trkpt lat="37.06084" lon="-3.37186">
        <ele>3135.4</ele>
        <time>2021-08-06 18:13:07</time>
      </trkpt>
      <trkpt lat="37.06085" lon="-3.37186">
        <ele>3135.4</ele>
        <time>2021-08-06 18:13:08</time>
      </trkpt>
      <trkpt lat="37.06085" lon="-3.37186">
        <ele>3135.2</ele>
        <time>2021-08-06 18:13:09</time>
      </trkpt>
      <trkpt lat="37.06086" lon="-3.37188">
        <ele>3135</ele>
        <time>2021-08-06 18:13:10</time>
      </trkpt>
      <trkpt lat="37.06086" lon="-3.37187">
        <ele>3134.8</ele>
        <time>2021-08-06 18:13:11</time>
      </trkpt>
      <trkpt lat="37.06086" lon="-3.37187">
        <ele>3134.8</ele>
        <time>2021-08-06 18:13:12</time>
      </trkpt>
      <trkpt lat="37.06087" lon="-3.37187">
        <ele>3134.8</ele>
        <time>2021-08-06 18:13:13</time>
      </trkpt>
      <trkpt lat="37.06087" lon="-3.37187">
        <ele>3134.6</ele>
        <time>2021-08-06 18:13:14</time>
      </trkpt>
      <trkpt lat="37.06087" lon="-3.37187">
        <ele>3134.4</ele>
        <time>2021-08-06 18:13:15</time>
      </trkpt>
      <trkpt lat="37.06087" lon="-3.37188">
        <ele>3134.4</ele>
        <time>2021-08-06 18:13:16</time>
      </trkpt>
      <trkpt lat="37.06088" lon="-3.37187">
        <ele>3134</ele>
        <time>2021-08-06 18:13:17</time>
      </trkpt>
      <trkpt lat="37.06088" lon="-3.37187">
        <ele>3133.8</ele>
        <time>2021-08-06 18:13:18</time>
      </trkpt>
      <trkpt lat="37.06088" lon="-3.37187">
        <ele>3133.8</ele>
        <time>2021-08-06 18:13:19</time>
      </trkpt>
      <trkpt lat="37.06088" lon="-3.37187">
        <ele>3133.6</ele>
        <time>2021-08-06 18:13:20</time>
      </trkpt>
      <trkpt lat="37.06089" lon="-3.37187">
        <ele>3133.6</ele>
        <time>2021-08-06 18:13:21</time>
      </trkpt>
      <trkpt lat="37.0609" lon="-3.37187">
        <ele>3133.4</ele>
        <time>2021-08-06 18:13:22</time>
      </trkpt>
      <trkpt lat="37.0609" lon="-3.37187">
        <ele>3133.4</ele>
        <time>2021-08-06 18:13:23</time>
      </trkpt>
      <trkpt lat="37.0609" lon="-3.37187">
        <ele>3133.4</ele>
        <time>2021-08-06 18:13:24</time>
      </trkpt>
      <trkpt lat="37.06091" lon="-3.37189">
        <ele>3133.2</ele>
        <time>2021-08-06 18:13:25</time>
      </trkpt>
      <trkpt lat="37.06091" lon="-3.37189">
        <ele>3132.8</ele>
        <time>2021-08-06 18:13:26</time>
      </trkpt>
      <trkpt lat="37.06091" lon="-3.3719">
        <ele>3132.6</ele>
        <time>2021-08-06 18:13:27</time>
      </trkpt>
      <trkpt lat="37.06091" lon="-3.3719">
        <ele>3132.4</ele>
        <time>2021-08-06 18:13:28</time>
      </trkpt>
      <trkpt lat="37.06092" lon="-3.37191">
        <ele>3132.2</ele>
        <time>2021-08-06 18:13:29</time>
      </trkpt>
      <trkpt lat="37.06092" lon="-3.37191">
        <ele>3132</ele>
        <time>2021-08-06 18:13:30</time>
      </trkpt>
      <trkpt lat="37.06092" lon="-3.37191">
        <ele>3132</ele>
        <time>2021-08-06 18:13:31</time>
      </trkpt>
      <trkpt lat="37.06093" lon="-3.37191">
        <ele>3132</ele>
        <time>2021-08-06 18:13:32</time>
      </trkpt>
      <trkpt lat="37.06093" lon="-3.37191">
        <ele>3132</ele>
        <time>2021-08-06 18:13:33</time>
      </trkpt>
      <trkpt lat="37.06094" lon="-3.3719">
        <ele>3131.8</ele>
        <time>2021-08-06 18:13:34</time>
      </trkpt>
      <trkpt lat="37.06095" lon="-3.3719">
        <ele>3131.6</ele>
        <time>2021-08-06 18:13:35</time>
      </trkpt>
      <trkpt lat="37.06095" lon="-3.37189">
        <ele>3131.6</ele>
        <time>2021-08-06 18:13:36</time>
      </trkpt>
      <trkpt lat="37.06096" lon="-3.37188">
        <ele>3131.6</ele>
        <time>2021-08-06 18:13:37</time>
      </trkpt>
      <trkpt lat="37.06097" lon="-3.37187">
        <ele>3131.6</ele>
        <time>2021-08-06 18:13:38</time>
      </trkpt>
      <trkpt lat="37.06097" lon="-3.37186">
        <ele>3131.4</ele>
        <time>2021-08-06 18:13:39</time>
      </trkpt>
      <trkpt lat="37.06097" lon="-3.37185">
        <ele>3131.2</ele>
        <time>2021-08-06 18:13:40</time>
      </trkpt>
      <trkpt lat="37.06097" lon="-3.37185">
        <ele>3131</ele>
        <time>2021-08-06 18:13:41</time>
      </trkpt>
      <trkpt lat="37.06097" lon="-3.37185">
        <ele>3130.8</ele>
        <time>2021-08-06 18:13:42</time>
      </trkpt>
      <trkpt lat="37.06098" lon="-3.37184">
        <ele>3130.4</ele>
        <time>2021-08-06 18:13:43</time>
      </trkpt>
      <trkpt lat="37.06099" lon="-3.37183">
        <ele>3130.2</ele>
        <time>2021-08-06 18:13:44</time>
      </trkpt>
      <trkpt lat="37.06099" lon="-3.37182">
        <ele>3130</ele>
        <time>2021-08-06 18:13:45</time>
      </trkpt>
      <trkpt lat="37.061" lon="-3.37182">
        <ele>3129.8</ele>
        <time>2021-08-06 18:13:46</time>
      </trkpt>
      <trkpt lat="37.061" lon="-3.37181">
        <ele>3129.8</ele>
        <time>2021-08-06 18:13:47</time>
      </trkpt>
      <trkpt lat="37.061" lon="-3.37181">
        <ele>3129.6</ele>
        <time>2021-08-06 18:13:48</time>
      </trkpt>
      <trkpt lat="37.061" lon="-3.37182">
        <ele>3129.6</ele>
        <time>2021-08-06 18:13:49</time>
      </trkpt>
      <trkpt lat="37.06101" lon="-3.37183">
        <ele>3129.6</ele>
        <time>2021-08-06 18:13:50</time>
      </trkpt>
      <trkpt lat="37.06102" lon="-3.37184">
        <ele>3129.6</ele>
        <time>2021-08-06 18:13:51</time>
      </trkpt>
      <trkpt lat="37.06103" lon="-3.37184">
        <ele>3129.6</ele>
        <time>2021-08-06 18:13:52</time>
      </trkpt>
      <trkpt lat="37.06103" lon="-3.37184">
        <ele>3129.6</ele>
        <time>2021-08-06 18:13:53</time>
      </trkpt>
      <trkpt lat="37.06104" lon="-3.37183">
        <ele>3129.6</ele>
        <time>2021-08-06 18:13:54</time>
      </trkpt>
      <trkpt lat="37.06105" lon="-3.37182">
        <ele>3129.6</ele>
        <time>2021-08-06 18:13:55</time>
      </trkpt>
      <trkpt lat="37.06105" lon="-3.37182">
        <ele>3129.4</ele>
        <time>2021-08-06 18:13:56</time>
      </trkpt>
      <trkpt lat="37.06106" lon="-3.37184">
        <ele>3129.4</ele>
        <time>2021-08-06 18:13:57</time>
      </trkpt>
      <trkpt lat="37.06107" lon="-3.37185">
        <ele>3129.2</ele>
        <time>2021-08-06 18:13:58</time>
      </trkpt>
      <trkpt lat="37.06108" lon="-3.37186">
        <ele>3129.2</ele>
        <time>2021-08-06 18:13:59</time>
      </trkpt>
      <trkpt lat="37.06109" lon="-3.37187">
        <ele>3129.2</ele>
        <time>2021-08-06 18:14:00</time>
      </trkpt>
      <trkpt lat="37.0611" lon="-3.37187">
        <ele>3128.8</ele>
        <time>2021-08-06 18:14:01</time>
      </trkpt>
      <trkpt lat="37.06111" lon="-3.37184">
        <ele>3128.6</ele>
        <time>2021-08-06 18:14:02</time>
      </trkpt>
      <trkpt lat="37.06112" lon="-3.37184">
        <ele>3128.4</ele>
        <time>2021-08-06 18:14:03</time>
      </trkpt>
      <trkpt lat="37.06113" lon="-3.37183">
        <ele>3128.2</ele>
        <time>2021-08-06 18:14:04</time>
      </trkpt>
      <trkpt lat="37.06114" lon="-3.37181">
        <ele>3127.6</ele>
        <time>2021-08-06 18:14:05</time>
      </trkpt>
      <trkpt lat="37.06115" lon="-3.3718">
        <ele>3127.2</ele>
        <time>2021-08-06 18:14:06</time>
      </trkpt>
      <trkpt lat="37.06116" lon="-3.37179">
        <ele>3127</ele>
        <time>2021-08-06 18:14:07</time>
      </trkpt>
      <trkpt lat="37.06117" lon="-3.37178">
        <ele>3126.6</ele>
        <time>2021-08-06 18:14:08</time>
      </trkpt>
      <trkpt lat="37.06118" lon="-3.37178">
        <ele>3126.6</ele>
        <time>2021-08-06 18:14:09</time>
      </trkpt>
      <trkpt lat="37.06118" lon="-3.37177">
        <ele>3126.6</ele>
        <time>2021-08-06 18:14:10</time>
      </trkpt>
      <trkpt lat="37.0612" lon="-3.37177">
        <ele>3126.8</ele>
        <time>2021-08-06 18:14:11</time>
      </trkpt>
      <trkpt lat="37.0612" lon="-3.37177">
        <ele>3126.6</ele>
        <time>2021-08-06 18:14:12</time>
      </trkpt>
      <trkpt lat="37.06121" lon="-3.37178">
        <ele>3126.2</ele>
        <time>2021-08-06 18:14:13</time>
      </trkpt>
      <trkpt lat="37.06121" lon="-3.37179">
        <ele>3126</ele>
        <time>2021-08-06 18:14:14</time>
      </trkpt>
      <trkpt lat="37.06121" lon="-3.3718">
        <ele>3125.8</ele>
        <time>2021-08-06 18:14:15</time>
      </trkpt>
      <trkpt lat="37.0612" lon="-3.3718">
        <ele>3125.6</ele>
        <time>2021-08-06 18:14:16</time>
      </trkpt>
      <trkpt lat="37.0612" lon="-3.37181">
        <ele>3125.4</ele>
        <time>2021-08-06 18:14:17</time>
      </trkpt>
      <trkpt lat="37.0612" lon="-3.37181">
        <ele>3125.4</ele>
        <time>2021-08-06 18:14:18</time>
      </trkpt>
      <trkpt lat="37.0612" lon="-3.37182">
        <ele>3125.4</ele>
        <time>2021-08-06 18:14:19</time>
      </trkpt>
      <trkpt lat="37.06121" lon="-3.37182">
        <ele>3125.4</ele>
        <time>2021-08-06 18:14:20</time>
      </trkpt>
      <trkpt lat="37.06121" lon="-3.37182">
        <ele>3125.4</ele>
        <time>2021-08-06 18:14:21</time>
      </trkpt>
      <trkpt lat="37.06122" lon="-3.37182">
        <ele>3125.4</ele>
        <time>2021-08-06 18:14:22</time>
      </trkpt>
      <trkpt lat="37.06123" lon="-3.37183">
        <ele>3125.6</ele>
        <time>2021-08-06 18:14:23</time>
      </trkpt>
      <trkpt lat="37.06125" lon="-3.37182">
        <ele>3125.6</ele>
        <time>2021-08-06 18:14:24</time>
      </trkpt>
      <trkpt lat="37.06126" lon="-3.37181">
        <ele>3125.8</ele>
        <time>2021-08-06 18:14:25</time>
      </trkpt>
      <trkpt lat="37.06127" lon="-3.3718">
        <ele>3125.8</ele>
        <time>2021-08-06 18:14:26</time>
      </trkpt>
      <trkpt lat="37.06127" lon="-3.37179">
        <ele>3125.8</ele>
        <time>2021-08-06 18:14:27</time>
      </trkpt>
      <trkpt lat="37.06128" lon="-3.37178">
        <ele>3125.8</ele>
        <time>2021-08-06 18:14:28</time>
      </trkpt>
      <trkpt lat="37.06129" lon="-3.37178">
        <ele>3125.8</ele>
        <time>2021-08-06 18:14:29</time>
      </trkpt>
      <trkpt lat="37.0613" lon="-3.37177">
        <ele>3125.2</ele>
        <time>2021-08-06 18:14:30</time>
      </trkpt>
      <trkpt lat="37.0613" lon="-3.37176">
        <ele>3124.8</ele>
        <time>2021-08-06 18:14:31</time>
      </trkpt>
      <trkpt lat="37.06131" lon="-3.37176">
        <ele>3124.4</ele>
        <time>2021-08-06 18:14:32</time>
      </trkpt>
      <trkpt lat="37.06132" lon="-3.37176">
        <ele>3124.2</ele>
        <time>2021-08-06 18:14:33</time>
      </trkpt>
      <trkpt lat="37.06133" lon="-3.37176">
        <ele>3124.2</ele>
        <time>2021-08-06 18:14:34</time>
      </trkpt>
      <trkpt lat="37.06134" lon="-3.37176">
        <ele>3124</ele>
        <time>2021-08-06 18:14:35</time>
      </trkpt>
      <trkpt lat="37.06135" lon="-3.37176">
        <ele>3123.8</ele>
        <time>2021-08-06 18:14:36</time>
      </trkpt>
      <trkpt lat="37.06135" lon="-3.37177">
        <ele>3123.8</ele>
        <time>2021-08-06 18:14:37</time>
      </trkpt>
      <trkpt lat="37.06136" lon="-3.37177">
        <ele>3123.8</ele>
        <time>2021-08-06 18:14:38</time>
      </trkpt>
      <trkpt lat="37.06137" lon="-3.37177">
        <ele>3123.4</ele>
        <time>2021-08-06 18:14:39</time>
      </trkpt>
      <trkpt lat="37.06137" lon="-3.37176">
        <ele>3123.2</ele>
        <time>2021-08-06 18:14:40</time>
      </trkpt>
      <trkpt lat="37.06138" lon="-3.37176">
        <ele>3123.2</ele>
        <time>2021-08-06 18:14:41</time>
      </trkpt>
      <trkpt lat="37.06138" lon="-3.37175">
        <ele>3123.2</ele>
        <time>2021-08-06 18:14:42</time>
      </trkpt>
      <trkpt lat="37.06138" lon="-3.37175">
        <ele>3122.8</ele>
        <time>2021-08-06 18:14:43</time>
      </trkpt>
      <trkpt lat="37.06138" lon="-3.37175">
        <ele>3122.8</ele>
        <time>2021-08-06 18:14:44</time>
      </trkpt>
      <trkpt lat="37.06139" lon="-3.37175">
        <ele>3122.8</ele>
        <time>2021-08-06 18:14:45</time>
      </trkpt>
      <trkpt lat="37.06139" lon="-3.37175">
        <ele>3122.6</ele>
        <time>2021-08-06 18:14:46</time>
      </trkpt>
      <trkpt lat="37.06139" lon="-3.37176">
        <ele>3122.6</ele>
        <time>2021-08-06 18:14:47</time>
      </trkpt>
      <trkpt lat="37.06139" lon="-3.37177">
        <ele>3122.6</ele>
        <time>2021-08-06 18:14:48</time>
      </trkpt>
      <trkpt lat="37.06139" lon="-3.37177">
        <ele>3122.6</ele>
        <time>2021-08-06 18:14:49</time>
      </trkpt>
      <trkpt lat="37.06139" lon="-3.37179">
        <ele>3122.2</ele>
        <time>2021-08-06 18:14:50</time>
      </trkpt>
      <trkpt lat="37.06138" lon="-3.3718">
        <ele>3122</ele>
        <time>2021-08-06 18:14:51</time>
      </trkpt>
      <trkpt lat="37.06138" lon="-3.37181">
        <ele>3121.8</ele>
        <time>2021-08-06 18:14:52</time>
      </trkpt>
      <trkpt lat="37.06138" lon="-3.37182">
        <ele>3121.6</ele>
        <time>2021-08-06 18:14:53</time>
      </trkpt>
      <trkpt lat="37.06138" lon="-3.37182">
        <ele>3121.6</ele>
        <time>2021-08-06 18:14:54</time>
      </trkpt>
      <trkpt lat="37.06137" lon="-3.37182">
        <ele>3121.4</ele>
        <time>2021-08-06 18:14:55</time>
      </trkpt>
      <trkpt lat="37.06137" lon="-3.37181">
        <ele>3121.4</ele>
        <time>2021-08-06 18:14:56</time>
      </trkpt>
      <trkpt lat="37.06137" lon="-3.37181">
        <ele>3121.4</ele>
        <time>2021-08-06 18:14:57</time>
      </trkpt>
      <trkpt lat="37.06137" lon="-3.37182">
        <ele>3121.4</ele>
        <time>2021-08-06 18:14:58</time>
      </trkpt>
      <trkpt lat="37.06137" lon="-3.37182">
        <ele>3121.2</ele>
        <time>2021-08-06 18:14:59</time>
      </trkpt>
      <trkpt lat="37.06137" lon="-3.37183">
        <ele>3121.2</ele>
        <time>2021-08-06 18:15:00</time>
      </trkpt>
      <trkpt lat="37.06137" lon="-3.37183">
        <ele>3121.2</ele>
        <time>2021-08-06 18:15:01</time>
      </trkpt>
      <trkpt lat="37.06137" lon="-3.37183">
        <ele>3121</ele>
        <time>2021-08-06 18:15:02</time>
      </trkpt>
      <trkpt lat="37.06138" lon="-3.37182">
        <ele>3120.8</ele>
        <time>2021-08-06 18:15:03</time>
      </trkpt>
      <trkpt lat="37.06138" lon="-3.37182">
        <ele>3120.2</ele>
        <time>2021-08-06 18:15:04</time>
      </trkpt>
      <trkpt lat="37.06139" lon="-3.37179">
        <ele>3120</ele>
        <time>2021-08-06 18:15:05</time>
      </trkpt>
      <trkpt lat="37.0614" lon="-3.37179">
        <ele>3119.8</ele>
        <time>2021-08-06 18:15:06</time>
      </trkpt>
      <trkpt lat="37.06141" lon="-3.37179">
        <ele>3119.6</ele>
        <time>2021-08-06 18:15:07</time>
      </trkpt>
      <trkpt lat="37.06141" lon="-3.37178">
        <ele>3119.4</ele>
        <time>2021-08-06 18:15:08</time>
      </trkpt>
      <trkpt lat="37.06142" lon="-3.37178">
        <ele>3119.2</ele>
        <time>2021-08-06 18:15:09</time>
      </trkpt>
      <trkpt lat="37.06143" lon="-3.37177">
        <ele>3118.8</ele>
        <time>2021-08-06 18:15:10</time>
      </trkpt>
      <trkpt lat="37.06143" lon="-3.37177">
        <ele>3118.6</ele>
        <time>2021-08-06 18:15:11</time>
      </trkpt>
      <trkpt lat="37.06144" lon="-3.37178">
        <ele>3118.2</ele>
        <time>2021-08-06 18:15:12</time>
      </trkpt>
      <trkpt lat="37.06145" lon="-3.37178">
        <ele>3118</ele>
        <time>2021-08-06 18:15:13</time>
      </trkpt>
      <trkpt lat="37.06145" lon="-3.37178">
        <ele>3117.8</ele>
        <time>2021-08-06 18:15:14</time>
      </trkpt>
      <trkpt lat="37.06147" lon="-3.37178">
        <ele>3117.6</ele>
        <time>2021-08-06 18:15:15</time>
      </trkpt>
      <trkpt lat="37.06149" lon="-3.37179">
        <ele>3117.4</ele>
        <time>2021-08-06 18:15:16</time>
      </trkpt>
      <trkpt lat="37.0615" lon="-3.3718">
        <ele>3117.2</ele>
        <time>2021-08-06 18:15:17</time>
      </trkpt>
      <trkpt lat="37.0615" lon="-3.37181">
        <ele>3117</ele>
        <time>2021-08-06 18:15:18</time>
      </trkpt>
      <trkpt lat="37.0615" lon="-3.37181">
        <ele>3116.8</ele>
        <time>2021-08-06 18:15:19</time>
      </trkpt>
      <trkpt lat="37.0615" lon="-3.3718">
        <ele>3116.8</ele>
        <time>2021-08-06 18:15:20</time>
      </trkpt>
      <trkpt lat="37.0615" lon="-3.3718">
        <ele>3116.8</ele>
        <time>2021-08-06 18:15:21</time>
      </trkpt>
      <trkpt lat="37.0615" lon="-3.3718">
        <ele>3116.8</ele>
        <time>2021-08-06 18:15:22</time>
      </trkpt>
      <trkpt lat="37.0615" lon="-3.3718">
        <ele>3116.6</ele>
        <time>2021-08-06 18:15:23</time>
      </trkpt>
      <trkpt lat="37.06151" lon="-3.37181">
        <ele>3116.6</ele>
        <time>2021-08-06 18:15:24</time>
      </trkpt>
      <trkpt lat="37.06151" lon="-3.37181">
        <ele>3116.4</ele>
        <time>2021-08-06 18:15:25</time>
      </trkpt>
      <trkpt lat="37.06152" lon="-3.37182">
        <ele>3116.4</ele>
        <time>2021-08-06 18:15:26</time>
      </trkpt>
      <trkpt lat="37.06152" lon="-3.37182">
        <ele>3115.8</ele>
        <time>2021-08-06 18:15:27</time>
      </trkpt>
      <trkpt lat="37.06152" lon="-3.37183">
        <ele>3115.6</ele>
        <time>2021-08-06 18:15:28</time>
      </trkpt>
      <trkpt lat="37.06152" lon="-3.37183">
        <ele>3115.4</ele>
        <time>2021-08-06 18:15:29</time>
      </trkpt>
      <trkpt lat="37.06152" lon="-3.37184">
        <ele>3115.2</ele>
        <time>2021-08-06 18:15:30</time>
      </trkpt>
      <trkpt lat="37.06152" lon="-3.37184">
        <ele>3115</ele>
        <time>2021-08-06 18:15:31</time>
      </trkpt>
      <trkpt lat="37.06152" lon="-3.37185">
        <ele>3114.8</ele>
        <time>2021-08-06 18:15:32</time>
      </trkpt>
      <trkpt lat="37.06153" lon="-3.37185">
        <ele>3114.6</ele>
        <time>2021-08-06 18:15:33</time>
      </trkpt>
      <trkpt lat="37.06153" lon="-3.37186">
        <ele>3114.2</ele>
        <time>2021-08-06 18:15:34</time>
      </trkpt>
      <trkpt lat="37.06153" lon="-3.37186">
        <ele>3114</ele>
        <time>2021-08-06 18:15:35</time>
      </trkpt>
      <trkpt lat="37.06154" lon="-3.37187">
        <ele>3113.8</ele>
        <time>2021-08-06 18:15:36</time>
      </trkpt>
      <trkpt lat="37.06155" lon="-3.37187">
        <ele>3113.4</ele>
        <time>2021-08-06 18:15:37</time>
      </trkpt>
      <trkpt lat="37.06155" lon="-3.37186">
        <ele>3113.2</ele>
        <time>2021-08-06 18:15:38</time>
      </trkpt>
      <trkpt lat="37.06156" lon="-3.37186">
        <ele>3113</ele>
        <time>2021-08-06 18:15:39</time>
      </trkpt>
      <trkpt lat="37.06157" lon="-3.37186">
        <ele>3113</ele>
        <time>2021-08-06 18:15:40</time>
      </trkpt>
      <trkpt lat="37.06158" lon="-3.37186">
        <ele>3113</ele>
        <time>2021-08-06 18:15:41</time>
      </trkpt>
      <trkpt lat="37.06158" lon="-3.37187">
        <ele>3113</ele>
        <time>2021-08-06 18:15:42</time>
      </trkpt>
      <trkpt lat="37.06159" lon="-3.37187">
        <ele>3113</ele>
        <time>2021-08-06 18:15:43</time>
      </trkpt>
      <trkpt lat="37.06159" lon="-3.37186">
        <ele>3113</ele>
        <time>2021-08-06 18:15:44</time>
      </trkpt>
      <trkpt lat="37.0616" lon="-3.37184">
        <ele>3112.8</ele>
        <time>2021-08-06 18:15:45</time>
      </trkpt>
      <trkpt lat="37.0616" lon="-3.37182">
        <ele>3112.4</ele>
        <time>2021-08-06 18:15:46</time>
      </trkpt>
      <trkpt lat="37.0616" lon="-3.37182">
        <ele>3112.2</ele>
        <time>2021-08-06 18:15:47</time>
      </trkpt>
      <trkpt lat="37.0616" lon="-3.37181">
        <ele>3112</ele>
        <time>2021-08-06 18:15:48</time>
      </trkpt>
      <trkpt lat="37.0616" lon="-3.37181">
        <ele>3111.8</ele>
        <time>2021-08-06 18:15:49</time>
      </trkpt>
      <trkpt lat="37.0616" lon="-3.37181">
        <ele>3111.6</ele>
        <time>2021-08-06 18:15:50</time>
      </trkpt>
      <trkpt lat="37.0616" lon="-3.37182">
        <ele>3111.4</ele>
        <time>2021-08-06 18:15:51</time>
      </trkpt>
      <trkpt lat="37.06161" lon="-3.37182">
        <ele>3111.4</ele>
        <time>2021-08-06 18:15:52</time>
      </trkpt>
      <trkpt lat="37.06161" lon="-3.37181">
        <ele>3111.2</ele>
        <time>2021-08-06 18:15:53</time>
      </trkpt>
      <trkpt lat="37.06161" lon="-3.37181">
        <ele>3110.8</ele>
        <time>2021-08-06 18:15:54</time>
      </trkpt>
      <trkpt lat="37.06162" lon="-3.3718">
        <ele>3110.6</ele>
        <time>2021-08-06 18:15:55</time>
      </trkpt>
      <trkpt lat="37.06162" lon="-3.3718">
        <ele>3110.4</ele>
        <time>2021-08-06 18:15:56</time>
      </trkpt>
      <trkpt lat="37.06163" lon="-3.3718">
        <ele>3110.4</ele>
        <time>2021-08-06 18:15:57</time>
      </trkpt>
      <trkpt lat="37.06163" lon="-3.37181">
        <ele>3110.2</ele>
        <time>2021-08-06 18:15:58</time>
      </trkpt>
      <trkpt lat="37.06163" lon="-3.37181">
        <ele>3110</ele>
        <time>2021-08-06 18:15:59</time>
      </trkpt>
      <trkpt lat="37.06164" lon="-3.37181">
        <ele>3109.6</ele>
        <time>2021-08-06 18:16:00</time>
      </trkpt>
      <trkpt lat="37.06164" lon="-3.37181">
        <ele>3109.6</ele>
        <time>2021-08-06 18:16:01</time>
      </trkpt>
      <trkpt lat="37.06165" lon="-3.3718">
        <ele>3109.4</ele>
        <time>2021-08-06 18:16:02</time>
      </trkpt>
      <trkpt lat="37.06165" lon="-3.3718">
        <ele>3109.2</ele>
        <time>2021-08-06 18:16:03</time>
      </trkpt>
      <trkpt lat="37.06166" lon="-3.37179">
        <ele>3109</ele>
        <time>2021-08-06 18:16:04</time>
      </trkpt>
      <trkpt lat="37.06167" lon="-3.37179">
        <ele>3108.8</ele>
        <time>2021-08-06 18:16:05</time>
      </trkpt>
      <trkpt lat="37.06167" lon="-3.37179">
        <ele>3108.8</ele>
        <time>2021-08-06 18:16:06</time>
      </trkpt>
      <trkpt lat="37.06167" lon="-3.37177">
        <ele>3108.6</ele>
        <time>2021-08-06 18:16:07</time>
      </trkpt>
      <trkpt lat="37.06168" lon="-3.37176">
        <ele>3108.6</ele>
        <time>2021-08-06 18:16:08</time>
      </trkpt>
      <trkpt lat="37.06168" lon="-3.37176">
        <ele>3108.2</ele>
        <time>2021-08-06 18:16:09</time>
      </trkpt>
      <trkpt lat="37.06168" lon="-3.37176">
        <ele>3108</ele>
        <time>2021-08-06 18:16:10</time>
      </trkpt>
      <trkpt lat="37.06168" lon="-3.37177">
        <ele>3108</ele>
        <time>2021-08-06 18:16:11</time>
      </trkpt>
      <trkpt lat="37.06168" lon="-3.37178">
        <ele>3108</ele>
        <time>2021-08-06 18:16:12</time>
      </trkpt>
      <trkpt lat="37.06168" lon="-3.37178">
        <ele>3107.8</ele>
        <time>2021-08-06 18:16:13</time>
      </trkpt>
      <trkpt lat="37.06167" lon="-3.37179">
        <ele>3107.8</ele>
        <time>2021-08-06 18:16:14</time>
      </trkpt>
      <trkpt lat="37.06167" lon="-3.3718">
        <ele>3107.8</ele>
        <time>2021-08-06 18:16:15</time>
      </trkpt>
      <trkpt lat="37.06168" lon="-3.37179">
        <ele>3107.6</ele>
        <time>2021-08-06 18:16:16</time>
      </trkpt>
      <trkpt lat="37.06169" lon="-3.37177">
        <ele>3107.6</ele>
        <time>2021-08-06 18:16:17</time>
      </trkpt>
      <trkpt lat="37.06169" lon="-3.37176">
        <ele>3107</ele>
        <time>2021-08-06 18:16:18</time>
      </trkpt>
      <trkpt lat="37.06169" lon="-3.37176">
        <ele>3106.6</ele>
        <time>2021-08-06 18:16:19</time>
      </trkpt>
      <trkpt lat="37.0617" lon="-3.37174">
        <ele>3106.2</ele>
        <time>2021-08-06 18:16:20</time>
      </trkpt>
      <trkpt lat="37.0617" lon="-3.37174">
        <ele>3106</ele>
        <time>2021-08-06 18:16:21</time>
      </trkpt>
      <trkpt lat="37.06171" lon="-3.37173">
        <ele>3105.8</ele>
        <time>2021-08-06 18:16:22</time>
      </trkpt>
      <trkpt lat="37.06172" lon="-3.37173">
        <ele>3105.6</ele>
        <time>2021-08-06 18:16:23</time>
      </trkpt>
      <trkpt lat="37.06173" lon="-3.37173">
        <ele>3105.4</ele>
        <time>2021-08-06 18:16:24</time>
      </trkpt>
      <trkpt lat="37.06174" lon="-3.37173">
        <ele>3105</ele>
        <time>2021-08-06 18:16:25</time>
      </trkpt>
      <trkpt lat="37.06174" lon="-3.37175">
        <ele>3104.8</ele>
        <time>2021-08-06 18:16:26</time>
      </trkpt>
      <trkpt lat="37.06174" lon="-3.37176">
        <ele>3104.4</ele>
        <time>2021-08-06 18:16:27</time>
      </trkpt>
      <trkpt lat="37.06175" lon="-3.37177">
        <ele>3104.4</ele>
        <time>2021-08-06 18:16:28</time>
      </trkpt>
      <trkpt lat="37.06175" lon="-3.37178">
        <ele>3104.2</ele>
        <time>2021-08-06 18:16:29</time>
      </trkpt>
      <trkpt lat="37.06175" lon="-3.37178">
        <ele>3104.2</ele>
        <time>2021-08-06 18:16:30</time>
      </trkpt>
      <trkpt lat="37.06176" lon="-3.37184">
        <ele>3104.2</ele>
        <time>2021-08-06 18:16:31</time>
      </trkpt>
      <trkpt lat="37.06176" lon="-3.37185">
        <ele>3104.2</ele>
        <time>2021-08-06 18:16:32</time>
      </trkpt>
      <trkpt lat="37.06176" lon="-3.37186">
        <ele>3104.2</ele>
        <time>2021-08-06 18:16:33</time>
      </trkpt>
      <trkpt lat="37.06176" lon="-3.37188">
        <ele>3104.2</ele>
        <time>2021-08-06 18:16:34</time>
      </trkpt>
      <trkpt lat="37.06176" lon="-3.37189">
        <ele>3104</ele>
        <time>2021-08-06 18:16:35</time>
      </trkpt>
      <trkpt lat="37.06175" lon="-3.3719">
        <ele>3103.8</ele>
        <time>2021-08-06 18:16:36</time>
      </trkpt>
      <trkpt lat="37.06174" lon="-3.37191">
        <ele>3103.4</ele>
        <time>2021-08-06 18:16:37</time>
      </trkpt>
      <trkpt lat="37.06174" lon="-3.37191">
        <ele>3103</ele>
        <time>2021-08-06 18:16:38</time>
      </trkpt>
      <trkpt lat="37.06174" lon="-3.37192">
        <ele>3102.8</ele>
        <time>2021-08-06 18:16:39</time>
      </trkpt>
      <trkpt lat="37.06174" lon="-3.37193">
        <ele>3102.6</ele>
        <time>2021-08-06 18:16:40</time>
      </trkpt>
      <trkpt lat="37.06174" lon="-3.37194">
        <ele>3102.4</ele>
        <time>2021-08-06 18:16:41</time>
      </trkpt>
      <trkpt lat="37.06174" lon="-3.37195">
        <ele>3102.2</ele>
        <time>2021-08-06 18:16:42</time>
      </trkpt>
      <trkpt lat="37.06174" lon="-3.37195">
        <ele>3102</ele>
        <time>2021-08-06 18:16:43</time>
      </trkpt>
      <trkpt lat="37.06174" lon="-3.37196">
        <ele>3101.6</ele>
        <time>2021-08-06 18:16:44</time>
      </trkpt>
      <trkpt lat="37.06174" lon="-3.37197">
        <ele>3101.4</ele>
        <time>2021-08-06 18:16:45</time>
      </trkpt>
      <trkpt lat="37.06174" lon="-3.37198">
        <ele>3101</ele>
        <time>2021-08-06 18:16:46</time>
      </trkpt>
      <trkpt lat="37.06175" lon="-3.37199">
        <ele>3100.8</ele>
        <time>2021-08-06 18:16:47</time>
      </trkpt>
      <trkpt lat="37.06176" lon="-3.372">
        <ele>3100.4</ele>
        <time>2021-08-06 18:16:48</time>
      </trkpt>
      <trkpt lat="37.06176" lon="-3.37198">
        <ele>3100</ele>
        <time>2021-08-06 18:16:49</time>
      </trkpt>
      <trkpt lat="37.06177" lon="-3.37197">
        <ele>3099.8</ele>
        <time>2021-08-06 18:16:50</time>
      </trkpt>
      <trkpt lat="37.06178" lon="-3.37197">
        <ele>3099.6</ele>
        <time>2021-08-06 18:16:51</time>
      </trkpt>
      <trkpt lat="37.06178" lon="-3.37197">
        <ele>3099.4</ele>
        <time>2021-08-06 18:16:52</time>
      </trkpt>
      <trkpt lat="37.06179" lon="-3.37196">
        <ele>3099.4</ele>
        <time>2021-08-06 18:16:53</time>
      </trkpt>
      <trkpt lat="37.06179" lon="-3.37196">
        <ele>3099.4</ele>
        <time>2021-08-06 18:16:54</time>
      </trkpt>
      <trkpt lat="37.0618" lon="-3.37195">
        <ele>3099.4</ele>
        <time>2021-08-06 18:16:55</time>
      </trkpt>
      <trkpt lat="37.06181" lon="-3.37195">
        <ele>3099.2</ele>
        <time>2021-08-06 18:16:56</time>
      </trkpt>
      <trkpt lat="37.06181" lon="-3.37195">
        <ele>3099.2</ele>
        <time>2021-08-06 18:16:57</time>
      </trkpt>
      <trkpt lat="37.06182" lon="-3.37195">
        <ele>3099.2</ele>
        <time>2021-08-06 18:16:58</time>
      </trkpt>
      <trkpt lat="37.06181" lon="-3.37195">
        <ele>3099</ele>
        <time>2021-08-06 18:16:59</time>
      </trkpt>
      <trkpt lat="37.0618" lon="-3.37195">
        <ele>3099</ele>
        <time>2021-08-06 18:17:00</time>
      </trkpt>
      <trkpt lat="37.0618" lon="-3.37199">
        <ele>3098.8</ele>
        <time>2021-08-06 18:17:01</time>
      </trkpt>
      <trkpt lat="37.0618" lon="-3.372">
        <ele>3098.6</ele>
        <time>2021-08-06 18:17:02</time>
      </trkpt>
      <trkpt lat="37.0618" lon="-3.37201">
        <ele>3098.4</ele>
        <time>2021-08-06 18:17:03</time>
      </trkpt>
      <trkpt lat="37.0618" lon="-3.37203">
        <ele>3098.4</ele>
        <time>2021-08-06 18:17:04</time>
      </trkpt>
      <trkpt lat="37.0618" lon="-3.37203">
        <ele>3098.4</ele>
        <time>2021-08-06 18:17:05</time>
      </trkpt>
      <trkpt lat="37.0618" lon="-3.37204">
        <ele>3098.4</ele>
        <time>2021-08-06 18:17:06</time>
      </trkpt>
      <trkpt lat="37.0618" lon="-3.37204">
        <ele>3098.4</ele>
        <time>2021-08-06 18:17:07</time>
      </trkpt>
      <trkpt lat="37.0618" lon="-3.37205">
        <ele>3098.2</ele>
        <time>2021-08-06 18:17:08</time>
      </trkpt>
      <trkpt lat="37.0618" lon="-3.37206">
        <ele>3098.2</ele>
        <time>2021-08-06 18:17:09</time>
      </trkpt>
      <trkpt lat="37.06182" lon="-3.37205">
        <ele>3098</ele>
        <time>2021-08-06 18:17:10</time>
      </trkpt>
      <trkpt lat="37.06182" lon="-3.37206">
        <ele>3097.6</ele>
        <time>2021-08-06 18:17:11</time>
      </trkpt>
      <trkpt lat="37.06182" lon="-3.37206">
        <ele>3097</ele>
        <time>2021-08-06 18:17:12</time>
      </trkpt>
      <trkpt lat="37.06182" lon="-3.37207">
        <ele>3096.8</ele>
        <time>2021-08-06 18:17:13</time>
      </trkpt>
      <trkpt lat="37.06182" lon="-3.37208">
        <ele>3096.6</ele>
        <time>2021-08-06 18:17:14</time>
      </trkpt>
      <trkpt lat="37.06182" lon="-3.37208">
        <ele>3096.6</ele>
        <time>2021-08-06 18:17:15</time>
      </trkpt>
      <trkpt lat="37.06182" lon="-3.37208">
        <ele>3096.4</ele>
        <time>2021-08-06 18:17:16</time>
      </trkpt>
      <trkpt lat="37.06183" lon="-3.37208">
        <ele>3096.4</ele>
        <time>2021-08-06 18:17:17</time>
      </trkpt>
      <trkpt lat="37.06184" lon="-3.37207">
        <ele>3096</ele>
        <time>2021-08-06 18:17:18</time>
      </trkpt>
      <trkpt lat="37.06185" lon="-3.37206">
        <ele>3095.4</ele>
        <time>2021-08-06 18:17:19</time>
      </trkpt>
      <trkpt lat="37.06186" lon="-3.37206">
        <ele>3095</ele>
        <time>2021-08-06 18:17:20</time>
      </trkpt>
      <trkpt lat="37.06187" lon="-3.37205">
        <ele>3094.8</ele>
        <time>2021-08-06 18:17:21</time>
      </trkpt>
      <trkpt lat="37.06187" lon="-3.37204">
        <ele>3094.6</ele>
        <time>2021-08-06 18:17:22</time>
      </trkpt>
      <trkpt lat="37.06188" lon="-3.37203">
        <ele>3094.4</ele>
        <time>2021-08-06 18:17:23</time>
      </trkpt>
      <trkpt lat="37.06189" lon="-3.37202">
        <ele>3094.2</ele>
        <time>2021-08-06 18:17:24</time>
      </trkpt>
      <trkpt lat="37.06189" lon="-3.37202">
        <ele>3094.2</ele>
        <time>2021-08-06 18:17:25</time>
      </trkpt>
      <trkpt lat="37.06189" lon="-3.37202">
        <ele>3094</ele>
        <time>2021-08-06 18:17:26</time>
      </trkpt>
      <trkpt lat="37.06189" lon="-3.37201">
        <ele>3094</ele>
        <time>2021-08-06 18:17:27</time>
      </trkpt>
      <trkpt lat="37.06189" lon="-3.37202">
        <ele>3093.8</ele>
        <time>2021-08-06 18:17:28</time>
      </trkpt>
      <trkpt lat="37.0619" lon="-3.37201">
        <ele>3093.6</ele>
        <time>2021-08-06 18:17:29</time>
      </trkpt>
      <trkpt lat="37.0619" lon="-3.37205">
        <ele>3093.2</ele>
        <time>2021-08-06 18:17:30</time>
      </trkpt>
      <trkpt lat="37.0619" lon="-3.37205">
        <ele>3093</ele>
        <time>2021-08-06 18:17:31</time>
      </trkpt>
      <trkpt lat="37.0619" lon="-3.37205">
        <ele>3092.8</ele>
        <time>2021-08-06 18:17:32</time>
      </trkpt>
      <trkpt lat="37.06191" lon="-3.37204">
        <ele>3092.8</ele>
        <time>2021-08-06 18:17:33</time>
      </trkpt>
      <trkpt lat="37.06191" lon="-3.37204">
        <ele>3092.8</ele>
        <time>2021-08-06 18:17:34</time>
      </trkpt>
      <trkpt lat="37.06192" lon="-3.37204">
        <ele>3092.6</ele>
        <time>2021-08-06 18:17:35</time>
      </trkpt>
      <trkpt lat="37.06193" lon="-3.37205">
        <ele>3092.8</ele>
        <time>2021-08-06 18:17:36</time>
      </trkpt>
      <trkpt lat="37.06194" lon="-3.37209">
        <ele>3092.8</ele>
        <time>2021-08-06 18:17:37</time>
      </trkpt>
      <trkpt lat="37.06194" lon="-3.3721">
        <ele>3092.8</ele>
        <time>2021-08-06 18:17:38</time>
      </trkpt>
      <trkpt lat="37.06193" lon="-3.3721">
        <ele>3092.6</ele>
        <time>2021-08-06 18:17:39</time>
      </trkpt>
      <trkpt lat="37.06193" lon="-3.3721">
        <ele>3092.4</ele>
        <time>2021-08-06 18:17:40</time>
      </trkpt>
      <trkpt lat="37.06192" lon="-3.37211">
        <ele>3092</ele>
        <time>2021-08-06 18:17:41</time>
      </trkpt>
      <trkpt lat="37.06192" lon="-3.37211">
        <ele>3091.8</ele>
        <time>2021-08-06 18:17:42</time>
      </trkpt>
      <trkpt lat="37.06192" lon="-3.37211">
        <ele>3091.4</ele>
        <time>2021-08-06 18:17:43</time>
      </trkpt>
      <trkpt lat="37.06192" lon="-3.37211">
        <ele>3091</ele>
        <time>2021-08-06 18:17:44</time>
      </trkpt>
      <trkpt lat="37.06193" lon="-3.37212">
        <ele>3090.8</ele>
        <time>2021-08-06 18:17:45</time>
      </trkpt>
      <trkpt lat="37.06194" lon="-3.3721">
        <ele>3090.4</ele>
        <time>2021-08-06 18:17:46</time>
      </trkpt>
      <trkpt lat="37.06194" lon="-3.3721">
        <ele>3090.2</ele>
        <time>2021-08-06 18:17:47</time>
      </trkpt>
      <trkpt lat="37.06195" lon="-3.3721">
        <ele>3090</ele>
        <time>2021-08-06 18:17:48</time>
      </trkpt>
      <trkpt lat="37.06195" lon="-3.37209">
        <ele>3089.8</ele>
        <time>2021-08-06 18:17:49</time>
      </trkpt>
      <trkpt lat="37.06195" lon="-3.37209">
        <ele>3089.6</ele>
        <time>2021-08-06 18:17:50</time>
      </trkpt>
      <trkpt lat="37.06196" lon="-3.37209">
        <ele>3089.6</ele>
        <time>2021-08-06 18:17:51</time>
      </trkpt>
      <trkpt lat="37.06196" lon="-3.37209">
        <ele>3089.4</ele>
        <time>2021-08-06 18:17:52</time>
      </trkpt>
      <trkpt lat="37.06196" lon="-3.37208">
        <ele>3089.4</ele>
        <time>2021-08-06 18:17:53</time>
      </trkpt>
      <trkpt lat="37.06196" lon="-3.37209">
        <ele>3089.4</ele>
        <time>2021-08-06 18:17:54</time>
      </trkpt>
      <trkpt lat="37.06197" lon="-3.37209">
        <ele>3089.4</ele>
        <time>2021-08-06 18:17:55</time>
      </trkpt>
      <trkpt lat="37.06197" lon="-3.37209">
        <ele>3089.4</ele>
        <time>2021-08-06 18:17:56</time>
      </trkpt>
      <trkpt lat="37.06197" lon="-3.37213">
        <ele>3089.4</ele>
        <time>2021-08-06 18:17:57</time>
      </trkpt>
      <trkpt lat="37.06198" lon="-3.37213">
        <ele>3089.4</ele>
        <time>2021-08-06 18:17:58</time>
      </trkpt>
      <trkpt lat="37.06198" lon="-3.37213">
        <ele>3089.2</ele>
        <time>2021-08-06 18:17:59</time>
      </trkpt>
      <trkpt lat="37.06199" lon="-3.37213">
        <ele>3089</ele>
        <time>2021-08-06 18:18:00</time>
      </trkpt>
      <trkpt lat="37.06199" lon="-3.37214">
        <ele>3088.8</ele>
        <time>2021-08-06 18:18:01</time>
      </trkpt>
      <trkpt lat="37.062" lon="-3.37213">
        <ele>3088.6</ele>
        <time>2021-08-06 18:18:02</time>
      </trkpt>
      <trkpt lat="37.06201" lon="-3.37213">
        <ele>3088.6</ele>
        <time>2021-08-06 18:18:03</time>
      </trkpt>
      <trkpt lat="37.06202" lon="-3.37213">
        <ele>3088.2</ele>
        <time>2021-08-06 18:18:04</time>
      </trkpt>
      <trkpt lat="37.06203" lon="-3.37211">
        <ele>3088</ele>
        <time>2021-08-06 18:18:05</time>
      </trkpt>
      <trkpt lat="37.06203" lon="-3.37211">
        <ele>3087.8</ele>
        <time>2021-08-06 18:18:06</time>
      </trkpt>
      <trkpt lat="37.06204" lon="-3.37211">
        <ele>3087.6</ele>
        <time>2021-08-06 18:18:07</time>
      </trkpt>
      <trkpt lat="37.06205" lon="-3.37211">
        <ele>3087.4</ele>
        <time>2021-08-06 18:18:08</time>
      </trkpt>
      <trkpt lat="37.06205" lon="-3.37211">
        <ele>3087.2</ele>
        <time>2021-08-06 18:18:09</time>
      </trkpt>
      <trkpt lat="37.06206" lon="-3.37211">
        <ele>3087</ele>
        <time>2021-08-06 18:18:10</time>
      </trkpt>
      <trkpt lat="37.06207" lon="-3.37211">
        <ele>3087</ele>
        <time>2021-08-06 18:18:11</time>
      </trkpt>
      <trkpt lat="37.06208" lon="-3.37212">
        <ele>3086.8</ele>
        <time>2021-08-06 18:18:12</time>
      </trkpt>
      <trkpt lat="37.06208" lon="-3.37208">
        <ele>3086.6</ele>
        <time>2021-08-06 18:18:13</time>
      </trkpt>
      <trkpt lat="37.06208" lon="-3.37208">
        <ele>3086.6</ele>
        <time>2021-08-06 18:18:14</time>
      </trkpt>
      <trkpt lat="37.06208" lon="-3.37208">
        <ele>3086.6</ele>
        <time>2021-08-06 18:18:15</time>
      </trkpt>
      <trkpt lat="37.06207" lon="-3.37209">
        <ele>3086.6</ele>
        <time>2021-08-06 18:18:16</time>
      </trkpt>
      <trkpt lat="37.06207" lon="-3.37209">
        <ele>3086.6</ele>
        <time>2021-08-06 18:18:17</time>
      </trkpt>
      <trkpt lat="37.06207" lon="-3.3721">
        <ele>3086.6</ele>
        <time>2021-08-06 18:18:18</time>
      </trkpt>
      <trkpt lat="37.06207" lon="-3.3721">
        <ele>3086.4</ele>
        <time>2021-08-06 18:18:19</time>
      </trkpt>
      <trkpt lat="37.06207" lon="-3.37211">
        <ele>3086</ele>
        <time>2021-08-06 18:18:20</time>
      </trkpt>
      <trkpt lat="37.06208" lon="-3.37211">
        <ele>3085.6</ele>
        <time>2021-08-06 18:18:21</time>
      </trkpt>
      <trkpt lat="37.06208" lon="-3.37212">
        <ele>3085.2</ele>
        <time>2021-08-06 18:18:22</time>
      </trkpt>
      <trkpt lat="37.06209" lon="-3.37211">
        <ele>3084.8</ele>
        <time>2021-08-06 18:18:23</time>
      </trkpt>
      <trkpt lat="37.0621" lon="-3.37211">
        <ele>3084.4</ele>
        <time>2021-08-06 18:18:24</time>
      </trkpt>
      <trkpt lat="37.0621" lon="-3.37211">
        <ele>3084.2</ele>
        <time>2021-08-06 18:18:25</time>
      </trkpt>
      <trkpt lat="37.0621" lon="-3.37211">
        <ele>3084.2</ele>
        <time>2021-08-06 18:18:26</time>
      </trkpt>
      <trkpt lat="37.06211" lon="-3.37212">
        <ele>3084</ele>
        <time>2021-08-06 18:18:27</time>
      </trkpt>
      <trkpt lat="37.06211" lon="-3.37212">
        <ele>3083.8</ele>
        <time>2021-08-06 18:18:28</time>
      </trkpt>
      <trkpt lat="37.0621" lon="-3.37213">
        <ele>3083.8</ele>
        <time>2021-08-06 18:18:29</time>
      </trkpt>
      <trkpt lat="37.0621" lon="-3.37214">
        <ele>3083.8</ele>
        <time>2021-08-06 18:18:30</time>
      </trkpt>
      <trkpt lat="37.0621" lon="-3.37215">
        <ele>3083.8</ele>
        <time>2021-08-06 18:18:31</time>
      </trkpt>
      <trkpt lat="37.0621" lon="-3.37216">
        <ele>3083.2</ele>
        <time>2021-08-06 18:18:32</time>
      </trkpt>
      <trkpt lat="37.06209" lon="-3.37217">
        <ele>3083</ele>
        <time>2021-08-06 18:18:33</time>
      </trkpt>
      <trkpt lat="37.06209" lon="-3.37218">
        <ele>3082.8</ele>
        <time>2021-08-06 18:18:34</time>
      </trkpt>
      <trkpt lat="37.06209" lon="-3.37219">
        <ele>3082.6</ele>
        <time>2021-08-06 18:18:35</time>
      </trkpt>
      <trkpt lat="37.06209" lon="-3.3722">
        <ele>3082.4</ele>
        <time>2021-08-06 18:18:36</time>
      </trkpt>
      <trkpt lat="37.0621" lon="-3.3722">
        <ele>3082.2</ele>
        <time>2021-08-06 18:18:37</time>
      </trkpt>
      <trkpt lat="37.06211" lon="-3.3722">
        <ele>3082.2</ele>
        <time>2021-08-06 18:18:38</time>
      </trkpt>
      <trkpt lat="37.06211" lon="-3.37221">
        <ele>3082</ele>
        <time>2021-08-06 18:18:39</time>
      </trkpt>
      <trkpt lat="37.06211" lon="-3.37221">
        <ele>3081.6</ele>
        <time>2021-08-06 18:18:40</time>
      </trkpt>
      <trkpt lat="37.06212" lon="-3.37222">
        <ele>3081.2</ele>
        <time>2021-08-06 18:18:41</time>
      </trkpt>
      <trkpt lat="37.06212" lon="-3.37219">
        <ele>3081</ele>
        <time>2021-08-06 18:18:42</time>
      </trkpt>
      <trkpt lat="37.06212" lon="-3.37219">
        <ele>3081</ele>
        <time>2021-08-06 18:18:43</time>
      </trkpt>
      <trkpt lat="37.06213" lon="-3.37219">
        <ele>3080.8</ele>
        <time>2021-08-06 18:18:44</time>
      </trkpt>
      <trkpt lat="37.06213" lon="-3.3722">
        <ele>3080.8</ele>
        <time>2021-08-06 18:18:45</time>
      </trkpt>
      <trkpt lat="37.06213" lon="-3.3722">
        <ele>3080.6</ele>
        <time>2021-08-06 18:18:46</time>
      </trkpt>
      <trkpt lat="37.06213" lon="-3.37221">
        <ele>3080.6</ele>
        <time>2021-08-06 18:18:47</time>
      </trkpt>
      <trkpt lat="37.06213" lon="-3.37221">
        <ele>3080.6</ele>
        <time>2021-08-06 18:18:48</time>
      </trkpt>
      <trkpt lat="37.06213" lon="-3.37222">
        <ele>3080.4</ele>
        <time>2021-08-06 18:18:49</time>
      </trkpt>
      <trkpt lat="37.06214" lon="-3.37222">
        <ele>3080.4</ele>
        <time>2021-08-06 18:18:50</time>
      </trkpt>
      <trkpt lat="37.06214" lon="-3.37222">
        <ele>3080.2</ele>
        <time>2021-08-06 18:18:51</time>
      </trkpt>
      <trkpt lat="37.06213" lon="-3.37223">
        <ele>3080.2</ele>
        <time>2021-08-06 18:18:52</time>
      </trkpt>
      <trkpt lat="37.06213" lon="-3.37225">
        <ele>3080</ele>
        <time>2021-08-06 18:18:53</time>
      </trkpt>
      <trkpt lat="37.06213" lon="-3.37225">
        <ele>3080</ele>
        <time>2021-08-06 18:18:54</time>
      </trkpt>
      <trkpt lat="37.06213" lon="-3.37226">
        <ele>3079.6</ele>
        <time>2021-08-06 18:18:55</time>
      </trkpt>
      <trkpt lat="37.06214" lon="-3.37226">
        <ele>3079.4</ele>
        <time>2021-08-06 18:18:56</time>
      </trkpt>
      <trkpt lat="37.06214" lon="-3.37226">
        <ele>3079.2</ele>
        <time>2021-08-06 18:18:57</time>
      </trkpt>
      <trkpt lat="37.06214" lon="-3.37226">
        <ele>3079</ele>
        <time>2021-08-06 18:18:58</time>
      </trkpt>
      <trkpt lat="37.06214" lon="-3.37226">
        <ele>3078.6</ele>
        <time>2021-08-06 18:18:59</time>
      </trkpt>
      <trkpt lat="37.06214" lon="-3.37226">
        <ele>3078.6</ele>
        <time>2021-08-06 18:19:00</time>
      </trkpt>
      <trkpt lat="37.06214" lon="-3.37225">
        <ele>3078.4</ele>
        <time>2021-08-06 18:19:01</time>
      </trkpt>
      <trkpt lat="37.06215" lon="-3.37225">
        <ele>3078.4</ele>
        <time>2021-08-06 18:19:02</time>
      </trkpt>
      <trkpt lat="37.06215" lon="-3.37225">
        <ele>3078.2</ele>
        <time>2021-08-06 18:19:03</time>
      </trkpt>
      <trkpt lat="37.06216" lon="-3.37224">
        <ele>3078.2</ele>
        <time>2021-08-06 18:19:04</time>
      </trkpt>
      <trkpt lat="37.06216" lon="-3.37224">
        <ele>3078.2</ele>
        <time>2021-08-06 18:19:05</time>
      </trkpt>
      <trkpt lat="37.06217" lon="-3.37224">
        <ele>3078.2</ele>
        <time>2021-08-06 18:19:06</time>
      </trkpt>
      <trkpt lat="37.06217" lon="-3.37223">
        <ele>3078</ele>
        <time>2021-08-06 18:19:07</time>
      </trkpt>
      <trkpt lat="37.06218" lon="-3.37222">
        <ele>3077.6</ele>
        <time>2021-08-06 18:19:08</time>
      </trkpt>
      <trkpt lat="37.06218" lon="-3.37223">
        <ele>3077.4</ele>
        <time>2021-08-06 18:19:09</time>
      </trkpt>
      <trkpt lat="37.06218" lon="-3.37223">
        <ele>3077.2</ele>
        <time>2021-08-06 18:19:10</time>
      </trkpt>
      <trkpt lat="37.06218" lon="-3.37224">
        <ele>3077</ele>
        <time>2021-08-06 18:19:11</time>
      </trkpt>
      <trkpt lat="37.06218" lon="-3.37224">
        <ele>3076.6</ele>
        <time>2021-08-06 18:19:12</time>
      </trkpt>
      <trkpt lat="37.06219" lon="-3.37224">
        <ele>3076.4</ele>
        <time>2021-08-06 18:19:13</time>
      </trkpt>
      <trkpt lat="37.06219" lon="-3.37227">
        <ele>3076.4</ele>
        <time>2021-08-06 18:19:14</time>
      </trkpt>
      <trkpt lat="37.06219" lon="-3.37228">
        <ele>3076.4</ele>
        <time>2021-08-06 18:19:15</time>
      </trkpt>
      <trkpt lat="37.06219" lon="-3.37228">
        <ele>3076.4</ele>
        <time>2021-08-06 18:19:16</time>
      </trkpt>
      <trkpt lat="37.06219" lon="-3.37229">
        <ele>3076.2</ele>
        <time>2021-08-06 18:19:17</time>
      </trkpt>
      <trkpt lat="37.06219" lon="-3.37229">
        <ele>3076</ele>
        <time>2021-08-06 18:19:18</time>
      </trkpt>
      <trkpt lat="37.06219" lon="-3.37229">
        <ele>3075.8</ele>
        <time>2021-08-06 18:19:19</time>
      </trkpt>
      <trkpt lat="37.06219" lon="-3.37233">
        <ele>3075.6</ele>
        <time>2021-08-06 18:19:20</time>
      </trkpt>
      <trkpt lat="37.06219" lon="-3.37233">
        <ele>3075.4</ele>
        <time>2021-08-06 18:19:21</time>
      </trkpt>
      <trkpt lat="37.06218" lon="-3.37233">
        <ele>3075.2</ele>
        <time>2021-08-06 18:19:22</time>
      </trkpt>
      <trkpt lat="37.06219" lon="-3.37231">
        <ele>3075.2</ele>
        <time>2021-08-06 18:19:23</time>
      </trkpt>
      <trkpt lat="37.0622" lon="-3.37231">
        <ele>3075.2</ele>
        <time>2021-08-06 18:19:24</time>
      </trkpt>
      <trkpt lat="37.0622" lon="-3.37231">
        <ele>3075.2</ele>
        <time>2021-08-06 18:19:25</time>
      </trkpt>
      <trkpt lat="37.06219" lon="-3.37231">
        <ele>3075.2</ele>
        <time>2021-08-06 18:19:26</time>
      </trkpt>
      <trkpt lat="37.06219" lon="-3.3723">
        <ele>3075.2</ele>
        <time>2021-08-06 18:19:27</time>
      </trkpt>
      <trkpt lat="37.06219" lon="-3.3723">
        <ele>3075.4</ele>
        <time>2021-08-06 18:19:28</time>
      </trkpt>
      <trkpt lat="37.06219" lon="-3.3723">
        <ele>3075.6</ele>
        <time>2021-08-06 18:19:29</time>
      </trkpt>
      <trkpt lat="37.06219" lon="-3.3723">
        <ele>3075.8</ele>
        <time>2021-08-06 18:19:30</time>
      </trkpt>
      <trkpt lat="37.06219" lon="-3.3723">
        <ele>3075.8</ele>
        <time>2021-08-06 18:19:31</time>
      </trkpt>
      <trkpt lat="37.0622" lon="-3.3723">
        <ele>3075.6</ele>
        <time>2021-08-06 18:19:32</time>
      </trkpt>
      <trkpt lat="37.0622" lon="-3.3723">
        <ele>3075.6</ele>
        <time>2021-08-06 18:19:33</time>
      </trkpt>
      <trkpt lat="37.0622" lon="-3.3723">
        <ele>3075.6</ele>
        <time>2021-08-06 18:19:34</time>
      </trkpt>
      <trkpt lat="37.06221" lon="-3.3723">
        <ele>3075.6</ele>
        <time>2021-08-06 18:19:35</time>
      </trkpt>
      <trkpt lat="37.06221" lon="-3.3723">
        <ele>3075.4</ele>
        <time>2021-08-06 18:19:36</time>
      </trkpt>
      <trkpt lat="37.06221" lon="-3.3723">
        <ele>3075.4</ele>
        <time>2021-08-06 18:19:37</time>
      </trkpt>
      <trkpt lat="37.06222" lon="-3.37231">
        <ele>3075</ele>
        <time>2021-08-06 18:19:38</time>
      </trkpt>
      <trkpt lat="37.06222" lon="-3.37231">
        <ele>3074.8</ele>
        <time>2021-08-06 18:19:39</time>
      </trkpt>
      <trkpt lat="37.06222" lon="-3.3723">
        <ele>3074.6</ele>
        <time>2021-08-06 18:19:40</time>
      </trkpt>
      <trkpt lat="37.06222" lon="-3.37231">
        <ele>3074.6</ele>
        <time>2021-08-06 18:19:41</time>
      </trkpt>
      <trkpt lat="37.06222" lon="-3.37231">
        <ele>3074.6</ele>
        <time>2021-08-06 18:19:42</time>
      </trkpt>
      <trkpt lat="37.06222" lon="-3.37232">
        <ele>3074.6</ele>
        <time>2021-08-06 18:19:43</time>
      </trkpt>
      <trkpt lat="37.06222" lon="-3.37234">
        <ele>3074.4</ele>
        <time>2021-08-06 18:19:44</time>
      </trkpt>
      <trkpt lat="37.06222" lon="-3.37234">
        <ele>3074.2</ele>
        <time>2021-08-06 18:19:45</time>
      </trkpt>
      <trkpt lat="37.06222" lon="-3.37235">
        <ele>3074.2</ele>
        <time>2021-08-06 18:19:46</time>
      </trkpt>
      <trkpt lat="37.06223" lon="-3.37235">
        <ele>3073.8</ele>
        <time>2021-08-06 18:19:47</time>
      </trkpt>
      <trkpt lat="37.06223" lon="-3.37236">
        <ele>3073.2</ele>
        <time>2021-08-06 18:19:48</time>
      </trkpt>
      <trkpt lat="37.06224" lon="-3.37236">
        <ele>3073</ele>
        <time>2021-08-06 18:19:49</time>
      </trkpt>
      <trkpt lat="37.06225" lon="-3.37236">
        <ele>3072.4</ele>
        <time>2021-08-06 18:19:50</time>
      </trkpt>
      <trkpt lat="37.06226" lon="-3.37236">
        <ele>3072</ele>
        <time>2021-08-06 18:19:51</time>
      </trkpt>
      <trkpt lat="37.06227" lon="-3.37236">
        <ele>3071.6</ele>
        <time>2021-08-06 18:19:52</time>
      </trkpt>
      <trkpt lat="37.06228" lon="-3.37236">
        <ele>3071.2</ele>
        <time>2021-08-06 18:19:53</time>
      </trkpt>
      <trkpt lat="37.0623" lon="-3.37237">
        <ele>3071</ele>
        <time>2021-08-06 18:19:54</time>
      </trkpt>
      <trkpt lat="37.06231" lon="-3.37237">
        <ele>3071</ele>
        <time>2021-08-06 18:19:55</time>
      </trkpt>
      <trkpt lat="37.06232" lon="-3.37238">
        <ele>3071</ele>
        <time>2021-08-06 18:19:56</time>
      </trkpt>
      <trkpt lat="37.06234" lon="-3.37238">
        <ele>3071</ele>
        <time>2021-08-06 18:19:57</time>
      </trkpt>
      <trkpt lat="37.06235" lon="-3.37239">
        <ele>3071</ele>
        <time>2021-08-06 18:19:58</time>
      </trkpt>
      <trkpt lat="37.06236" lon="-3.3724">
        <ele>3071.2</ele>
        <time>2021-08-06 18:19:59</time>
      </trkpt>
      <trkpt lat="37.06237" lon="-3.37242">
        <ele>3071.4</ele>
        <time>2021-08-06 18:20:00</time>
      </trkpt>
      <trkpt lat="37.06239" lon="-3.37243">
        <ele>3071.4</ele>
        <time>2021-08-06 18:20:01</time>
      </trkpt>
      <trkpt lat="37.0624" lon="-3.37244">
        <ele>3071.4</ele>
        <time>2021-08-06 18:20:02</time>
      </trkpt>
      <trkpt lat="37.06241" lon="-3.37244">
        <ele>3070.8</ele>
        <time>2021-08-06 18:20:03</time>
      </trkpt>
      <trkpt lat="37.06242" lon="-3.37244">
        <ele>3070.2</ele>
        <time>2021-08-06 18:20:04</time>
      </trkpt>
      <trkpt lat="37.06244" lon="-3.37244">
        <ele>3070</ele>
        <time>2021-08-06 18:20:05</time>
      </trkpt>
      <trkpt lat="37.06245" lon="-3.37245">
        <ele>3069.8</ele>
        <time>2021-08-06 18:20:06</time>
      </trkpt>
      <trkpt lat="37.06246" lon="-3.37245">
        <ele>3069.8</ele>
        <time>2021-08-06 18:20:07</time>
      </trkpt>
      <trkpt lat="37.06246" lon="-3.37245">
        <ele>3069.6</ele>
        <time>2021-08-06 18:20:08</time>
      </trkpt>
      <trkpt lat="37.06248" lon="-3.37244">
        <ele>3069.6</ele>
        <time>2021-08-06 18:20:09</time>
      </trkpt>
      <trkpt lat="37.06249" lon="-3.37243">
        <ele>3069.4</ele>
        <time>2021-08-06 18:20:10</time>
      </trkpt>
      <trkpt lat="37.06249" lon="-3.37241">
        <ele>3069</ele>
        <time>2021-08-06 18:20:11</time>
      </trkpt>
      <trkpt lat="37.0625" lon="-3.37241">
        <ele>3069</ele>
        <time>2021-08-06 18:20:12</time>
      </trkpt>
      <trkpt lat="37.06251" lon="-3.37241">
        <ele>3068.8</ele>
        <time>2021-08-06 18:20:13</time>
      </trkpt>
      <trkpt lat="37.06253" lon="-3.37239">
        <ele>3068.4</ele>
        <time>2021-08-06 18:20:14</time>
      </trkpt>
      <trkpt lat="37.06254" lon="-3.37238">
        <ele>3068.6</ele>
        <time>2021-08-06 18:20:15</time>
      </trkpt>
      <trkpt lat="37.06255" lon="-3.37238">
        <ele>3068.6</ele>
        <time>2021-08-06 18:20:16</time>
      </trkpt>
      <trkpt lat="37.06256" lon="-3.37238">
        <ele>3068.6</ele>
        <time>2021-08-06 18:20:17</time>
      </trkpt>
      <trkpt lat="37.06258" lon="-3.37238">
        <ele>3068.4</ele>
        <time>2021-08-06 18:20:18</time>
      </trkpt>
      <trkpt lat="37.06259" lon="-3.37238">
        <ele>3068.2</ele>
        <time>2021-08-06 18:20:19</time>
      </trkpt>
      <trkpt lat="37.0626" lon="-3.37238">
        <ele>3068</ele>
        <time>2021-08-06 18:20:20</time>
      </trkpt>
      <trkpt lat="37.06262" lon="-3.37238">
        <ele>3068</ele>
        <time>2021-08-06 18:20:21</time>
      </trkpt>
      <trkpt lat="37.06263" lon="-3.37238">
        <ele>3068</ele>
        <time>2021-08-06 18:20:22</time>
      </trkpt>
      <trkpt lat="37.06264" lon="-3.37238">
        <ele>3067.8</ele>
        <time>2021-08-06 18:20:23</time>
      </trkpt>
      <trkpt lat="37.06265" lon="-3.37238">
        <ele>3067.8</ele>
        <time>2021-08-06 18:20:24</time>
      </trkpt>
      <trkpt lat="37.06266" lon="-3.37238">
        <ele>3067.8</ele>
        <time>2021-08-06 18:20:25</time>
      </trkpt>
      <trkpt lat="37.06267" lon="-3.37238">
        <ele>3067.8</ele>
        <time>2021-08-06 18:20:26</time>
      </trkpt>
      <trkpt lat="37.06268" lon="-3.37238">
        <ele>3067.8</ele>
        <time>2021-08-06 18:20:27</time>
      </trkpt>
      <trkpt lat="37.06269" lon="-3.37237">
        <ele>3067.8</ele>
        <time>2021-08-06 18:20:28</time>
      </trkpt>
      <trkpt lat="37.0627" lon="-3.37237">
        <ele>3067.6</ele>
        <time>2021-08-06 18:20:29</time>
      </trkpt>
      <trkpt lat="37.06271" lon="-3.37236">
        <ele>3067.6</ele>
        <time>2021-08-06 18:20:30</time>
      </trkpt>
      <trkpt lat="37.06272" lon="-3.37236">
        <ele>3067.4</ele>
        <time>2021-08-06 18:20:31</time>
      </trkpt>
      <trkpt lat="37.06273" lon="-3.37236">
        <ele>3067</ele>
        <time>2021-08-06 18:20:32</time>
      </trkpt>
      <trkpt lat="37.06274" lon="-3.37236">
        <ele>3066.8</ele>
        <time>2021-08-06 18:20:33</time>
      </trkpt>
      <trkpt lat="37.06274" lon="-3.37236">
        <ele>3066.6</ele>
        <time>2021-08-06 18:20:34</time>
      </trkpt>
      <trkpt lat="37.06275" lon="-3.37235">
        <ele>3066.6</ele>
        <time>2021-08-06 18:20:35</time>
      </trkpt>
      <trkpt lat="37.06275" lon="-3.37235">
        <ele>3066.6</ele>
        <time>2021-08-06 18:20:36</time>
      </trkpt>
      <trkpt lat="37.06276" lon="-3.37235">
        <ele>3066.6</ele>
        <time>2021-08-06 18:20:37</time>
      </trkpt>
      <trkpt lat="37.06277" lon="-3.37235">
        <ele>3066.6</ele>
        <time>2021-08-06 18:20:38</time>
      </trkpt>
      <trkpt lat="37.06278" lon="-3.37235">
        <ele>3066.6</ele>
        <time>2021-08-06 18:20:39</time>
      </trkpt>
      <trkpt lat="37.06278" lon="-3.37236">
        <ele>3066.4</ele>
        <time>2021-08-06 18:20:40</time>
      </trkpt>
      <trkpt lat="37.06279" lon="-3.37237">
        <ele>3066.2</ele>
        <time>2021-08-06 18:20:41</time>
      </trkpt>
      <trkpt lat="37.06281" lon="-3.37238">
        <ele>3066.2</ele>
        <time>2021-08-06 18:20:42</time>
      </trkpt>
      <trkpt lat="37.06282" lon="-3.37238">
        <ele>3066</ele>
        <time>2021-08-06 18:20:43</time>
      </trkpt>
      <trkpt lat="37.06282" lon="-3.37238">
        <ele>3066</ele>
        <time>2021-08-06 18:20:44</time>
      </trkpt>
      <trkpt lat="37.06283" lon="-3.37239">
        <ele>3065.6</ele>
        <time>2021-08-06 18:20:45</time>
      </trkpt>
      <trkpt lat="37.06284" lon="-3.37239">
        <ele>3065.4</ele>
        <time>2021-08-06 18:20:46</time>
      </trkpt>
      <trkpt lat="37.06285" lon="-3.37239">
        <ele>3065.2</ele>
        <time>2021-08-06 18:20:47</time>
      </trkpt>
      <trkpt lat="37.06286" lon="-3.37239">
        <ele>3065</ele>
        <time>2021-08-06 18:20:48</time>
      </trkpt>
      <trkpt lat="37.06287" lon="-3.37239">
        <ele>3065</ele>
        <time>2021-08-06 18:20:49</time>
      </trkpt>
      <trkpt lat="37.06287" lon="-3.37238">
        <ele>3064.8</ele>
        <time>2021-08-06 18:20:50</time>
      </trkpt>
      <trkpt lat="37.06288" lon="-3.37238">
        <ele>3064.6</ele>
        <time>2021-08-06 18:20:51</time>
      </trkpt>
      <trkpt lat="37.06289" lon="-3.37238">
        <ele>3064.2</ele>
        <time>2021-08-06 18:20:52</time>
      </trkpt>
      <trkpt lat="37.06291" lon="-3.37238">
        <ele>3064</ele>
        <time>2021-08-06 18:20:53</time>
      </trkpt>
      <trkpt lat="37.06291" lon="-3.37238">
        <ele>3064.2</ele>
        <time>2021-08-06 18:20:54</time>
      </trkpt>
      <trkpt lat="37.06292" lon="-3.37238">
        <ele>3064</ele>
        <time>2021-08-06 18:20:55</time>
      </trkpt>
      <trkpt lat="37.06293" lon="-3.37239">
        <ele>3064</ele>
        <time>2021-08-06 18:20:56</time>
      </trkpt>
      <trkpt lat="37.06294" lon="-3.37238">
        <ele>3064.2</ele>
        <time>2021-08-06 18:20:57</time>
      </trkpt>
      <trkpt lat="37.06295" lon="-3.37238">
        <ele>3064.2</ele>
        <time>2021-08-06 18:20:58</time>
      </trkpt>
      <trkpt lat="37.06295" lon="-3.37237">
        <ele>3064.2</ele>
        <time>2021-08-06 18:20:59</time>
      </trkpt>
      <trkpt lat="37.06296" lon="-3.37237">
        <ele>3064</ele>
        <time>2021-08-06 18:21:00</time>
      </trkpt>
      <trkpt lat="37.06297" lon="-3.37237">
        <ele>3063.8</ele>
        <time>2021-08-06 18:21:01</time>
      </trkpt>
      <trkpt lat="37.06297" lon="-3.37238">
        <ele>3063.6</ele>
        <time>2021-08-06 18:21:02</time>
      </trkpt>
      <trkpt lat="37.06299" lon="-3.37238">
        <ele>3063.4</ele>
        <time>2021-08-06 18:21:03</time>
      </trkpt>
      <trkpt lat="37.063" lon="-3.37238">
        <ele>3063.2</ele>
        <time>2021-08-06 18:21:04</time>
      </trkpt>
      <trkpt lat="37.06301" lon="-3.37238">
        <ele>3063.2</ele>
        <time>2021-08-06 18:21:05</time>
      </trkpt>
      <trkpt lat="37.06301" lon="-3.37238">
        <ele>3063</ele>
        <time>2021-08-06 18:21:06</time>
      </trkpt>
      <trkpt lat="37.06302" lon="-3.37238">
        <ele>3062.8</ele>
        <time>2021-08-06 18:21:07</time>
      </trkpt>
      <trkpt lat="37.06303" lon="-3.37238">
        <ele>3062.8</ele>
        <time>2021-08-06 18:21:08</time>
      </trkpt>
      <trkpt lat="37.06304" lon="-3.37238">
        <ele>3062.6</ele>
        <time>2021-08-06 18:21:09</time>
      </trkpt>
      <trkpt lat="37.06305" lon="-3.37238">
        <ele>3062.6</ele>
        <time>2021-08-06 18:21:10</time>
      </trkpt>
      <trkpt lat="37.06306" lon="-3.37239">
        <ele>3062.4</ele>
        <time>2021-08-06 18:21:11</time>
      </trkpt>
      <trkpt lat="37.06307" lon="-3.3724">
        <ele>3062.4</ele>
        <time>2021-08-06 18:21:12</time>
      </trkpt>
      <trkpt lat="37.06308" lon="-3.3724">
        <ele>3062.2</ele>
        <time>2021-08-06 18:21:13</time>
      </trkpt>
      <trkpt lat="37.06309" lon="-3.3724">
        <ele>3062</ele>
        <time>2021-08-06 18:21:14</time>
      </trkpt>
      <trkpt lat="37.0631" lon="-3.37241">
        <ele>3062</ele>
        <time>2021-08-06 18:21:15</time>
      </trkpt>
      <trkpt lat="37.06311" lon="-3.37241">
        <ele>3062</ele>
        <time>2021-08-06 18:21:16</time>
      </trkpt>
      <trkpt lat="37.06312" lon="-3.37241">
        <ele>3061.8</ele>
        <time>2021-08-06 18:21:17</time>
      </trkpt>
      <trkpt lat="37.06313" lon="-3.37241">
        <ele>3061.8</ele>
        <time>2021-08-06 18:21:18</time>
      </trkpt>
      <trkpt lat="37.06314" lon="-3.37242">
        <ele>3061.8</ele>
        <time>2021-08-06 18:21:19</time>
      </trkpt>
      <trkpt lat="37.06315" lon="-3.37241">
        <ele>3061.8</ele>
        <time>2021-08-06 18:21:20</time>
      </trkpt>
      <trkpt lat="37.06316" lon="-3.37241">
        <ele>3061.6</ele>
        <time>2021-08-06 18:21:21</time>
      </trkpt>
      <trkpt lat="37.06317" lon="-3.37241">
        <ele>3061.4</ele>
        <time>2021-08-06 18:21:22</time>
      </trkpt>
      <trkpt lat="37.06318" lon="-3.3724">
        <ele>3061.4</ele>
        <time>2021-08-06 18:21:23</time>
      </trkpt>
      <trkpt lat="37.06319" lon="-3.3724">
        <ele>3061.4</ele>
        <time>2021-08-06 18:21:24</time>
      </trkpt>
      <trkpt lat="37.0632" lon="-3.3724">
        <ele>3061.4</ele>
        <time>2021-08-06 18:21:25</time>
      </trkpt>
      <trkpt lat="37.06321" lon="-3.3724">
        <ele>3061.2</ele>
        <time>2021-08-06 18:21:26</time>
      </trkpt>
      <trkpt lat="37.06322" lon="-3.37241">
        <ele>3061</ele>
        <time>2021-08-06 18:21:27</time>
      </trkpt>
      <trkpt lat="37.06322" lon="-3.37241">
        <ele>3061</ele>
        <time>2021-08-06 18:21:28</time>
      </trkpt>
      <trkpt lat="37.06323" lon="-3.37241">
        <ele>3061</ele>
        <time>2021-08-06 18:21:29</time>
      </trkpt>
      <trkpt lat="37.06324" lon="-3.37241">
        <ele>3060.8</ele>
        <time>2021-08-06 18:21:30</time>
      </trkpt>
      <trkpt lat="37.06325" lon="-3.37241">
        <ele>3060.8</ele>
        <time>2021-08-06 18:21:31</time>
      </trkpt>
      <trkpt lat="37.06326" lon="-3.37242">
        <ele>3060.8</ele>
        <time>2021-08-06 18:21:32</time>
      </trkpt>
      <trkpt lat="37.06327" lon="-3.37242">
        <ele>3060.8</ele>
        <time>2021-08-06 18:21:33</time>
      </trkpt>
      <trkpt lat="37.06327" lon="-3.37242">
        <ele>3060.8</ele>
        <time>2021-08-06 18:21:34</time>
      </trkpt>
      <trkpt lat="37.06328" lon="-3.37241">
        <ele>3060</ele>
        <time>2021-08-06 18:21:35</time>
      </trkpt>
      <trkpt lat="37.06329" lon="-3.37241">
        <ele>3059.8</ele>
        <time>2021-08-06 18:21:36</time>
      </trkpt>
      <trkpt lat="37.06331" lon="-3.37242">
        <ele>3059.6</ele>
        <time>2021-08-06 18:21:37</time>
      </trkpt>
      <trkpt lat="37.06332" lon="-3.37242">
        <ele>3059.6</ele>
        <time>2021-08-06 18:21:38</time>
      </trkpt>
      <trkpt lat="37.06333" lon="-3.37242">
        <ele>3059.6</ele>
        <time>2021-08-06 18:21:39</time>
      </trkpt>
      <trkpt lat="37.06334" lon="-3.37242">
        <ele>3059.6</ele>
        <time>2021-08-06 18:21:40</time>
      </trkpt>
      <trkpt lat="37.06335" lon="-3.37242">
        <ele>3059.6</ele>
        <time>2021-08-06 18:21:41</time>
      </trkpt>
      <trkpt lat="37.06336" lon="-3.37241">
        <ele>3059.8</ele>
        <time>2021-08-06 18:21:42</time>
      </trkpt>
      <trkpt lat="37.06337" lon="-3.37239">
        <ele>3059.8</ele>
        <time>2021-08-06 18:21:43</time>
      </trkpt>
      <trkpt lat="37.06338" lon="-3.37239">
        <ele>3060</ele>
        <time>2021-08-06 18:21:44</time>
      </trkpt>
      <trkpt lat="37.06339" lon="-3.37238">
        <ele>3060</ele>
        <time>2021-08-06 18:21:45</time>
      </trkpt>
      <trkpt lat="37.0634" lon="-3.37239">
        <ele>3060</ele>
        <time>2021-08-06 18:21:46</time>
      </trkpt>
      <trkpt lat="37.06341" lon="-3.37239">
        <ele>3059.8</ele>
        <time>2021-08-06 18:21:47</time>
      </trkpt>
      <trkpt lat="37.06342" lon="-3.37239">
        <ele>3059.6</ele>
        <time>2021-08-06 18:21:48</time>
      </trkpt>
      <trkpt lat="37.06342" lon="-3.3724">
        <ele>3059.6</ele>
        <time>2021-08-06 18:21:49</time>
      </trkpt>
      <trkpt lat="37.06343" lon="-3.3724">
        <ele>3059.4</ele>
        <time>2021-08-06 18:21:50</time>
      </trkpt>
      <trkpt lat="37.06344" lon="-3.3724">
        <ele>3059.2</ele>
        <time>2021-08-06 18:21:51</time>
      </trkpt>
      <trkpt lat="37.06345" lon="-3.3724">
        <ele>3059</ele>
        <time>2021-08-06 18:21:52</time>
      </trkpt>
      <trkpt lat="37.06345" lon="-3.37242">
        <ele>3059</ele>
        <time>2021-08-06 18:21:53</time>
      </trkpt>
      <trkpt lat="37.06345" lon="-3.37243">
        <ele>3059</ele>
        <time>2021-08-06 18:21:54</time>
      </trkpt>
      <trkpt lat="37.06346" lon="-3.37244">
        <ele>3059</ele>
        <time>2021-08-06 18:21:55</time>
      </trkpt>
      <trkpt lat="37.06346" lon="-3.37245">
        <ele>3059</ele>
        <time>2021-08-06 18:21:56</time>
      </trkpt>
      <trkpt lat="37.06347" lon="-3.37245">
        <ele>3058.8</ele>
        <time>2021-08-06 18:21:57</time>
      </trkpt>
      <trkpt lat="37.06348" lon="-3.37246">
        <ele>3058.8</ele>
        <time>2021-08-06 18:21:58</time>
      </trkpt>
      <trkpt lat="37.06349" lon="-3.37246">
        <ele>3058.8</ele>
        <time>2021-08-06 18:21:59</time>
      </trkpt>
      <trkpt lat="37.06351" lon="-3.37246">
        <ele>3058.6</ele>
        <time>2021-08-06 18:22:00</time>
      </trkpt>
      <trkpt lat="37.06352" lon="-3.37247">
        <ele>3058.6</ele>
        <time>2021-08-06 18:22:01</time>
      </trkpt>
      <trkpt lat="37.06353" lon="-3.37248">
        <ele>3058.4</ele>
        <time>2021-08-06 18:22:02</time>
      </trkpt>
      <trkpt lat="37.06354" lon="-3.37248">
        <ele>3058.4</ele>
        <time>2021-08-06 18:22:03</time>
      </trkpt>
      <trkpt lat="37.06355" lon="-3.37247">
        <ele>3058.4</ele>
        <time>2021-08-06 18:22:04</time>
      </trkpt>
      <trkpt lat="37.06356" lon="-3.37247">
        <ele>3058.4</ele>
        <time>2021-08-06 18:22:05</time>
      </trkpt>
      <trkpt lat="37.06357" lon="-3.37248">
        <ele>3058.4</ele>
        <time>2021-08-06 18:22:06</time>
      </trkpt>
      <trkpt lat="37.06357" lon="-3.37249">
        <ele>3058.4</ele>
        <time>2021-08-06 18:22:07</time>
      </trkpt>
      <trkpt lat="37.06358" lon="-3.3725">
        <ele>3058</ele>
        <time>2021-08-06 18:22:08</time>
      </trkpt>
      <trkpt lat="37.06359" lon="-3.3725">
        <ele>3057.6</ele>
        <time>2021-08-06 18:22:09</time>
      </trkpt>
      <trkpt lat="37.06359" lon="-3.37251">
        <ele>3057.4</ele>
        <time>2021-08-06 18:22:10</time>
      </trkpt>
      <trkpt lat="37.0636" lon="-3.3725">
        <ele>3057.4</ele>
        <time>2021-08-06 18:22:11</time>
      </trkpt>
      <trkpt lat="37.06361" lon="-3.37251">
        <ele>3057.2</ele>
        <time>2021-08-06 18:22:12</time>
      </trkpt>
      <trkpt lat="37.06362" lon="-3.37252">
        <ele>3057.2</ele>
        <time>2021-08-06 18:22:13</time>
      </trkpt>
      <trkpt lat="37.06363" lon="-3.37253">
        <ele>3057.4</ele>
        <time>2021-08-06 18:22:14</time>
      </trkpt>
      <trkpt lat="37.06363" lon="-3.37253">
        <ele>3057.8</ele>
        <time>2021-08-06 18:22:15</time>
      </trkpt>
      <trkpt lat="37.06364" lon="-3.37253">
        <ele>3058</ele>
        <time>2021-08-06 18:22:16</time>
      </trkpt>
      <trkpt lat="37.06364" lon="-3.37253">
        <ele>3058</ele>
        <time>2021-08-06 18:22:17</time>
      </trkpt>
      <trkpt lat="37.06364" lon="-3.37255">
        <ele>3058</ele>
        <time>2021-08-06 18:22:18</time>
      </trkpt>
      <trkpt lat="37.06364" lon="-3.37256">
        <ele>3058.2</ele>
        <time>2021-08-06 18:22:19</time>
      </trkpt>
      <trkpt lat="37.06365" lon="-3.37257">
        <ele>3058</ele>
        <time>2021-08-06 18:22:20</time>
      </trkpt>
      <trkpt lat="37.06365" lon="-3.37258">
        <ele>3057.8</ele>
        <time>2021-08-06 18:22:21</time>
      </trkpt>
      <trkpt lat="37.06366" lon="-3.37256">
        <ele>3057.8</ele>
        <time>2021-08-06 18:22:22</time>
      </trkpt>
      <trkpt lat="37.06367" lon="-3.37256">
        <ele>3057.8</ele>
        <time>2021-08-06 18:22:23</time>
      </trkpt>
      <trkpt lat="37.06368" lon="-3.37256">
        <ele>3057.6</ele>
        <time>2021-08-06 18:22:24</time>
      </trkpt>
      <trkpt lat="37.06368" lon="-3.37258">
        <ele>3057.4</ele>
        <time>2021-08-06 18:22:25</time>
      </trkpt>
      <trkpt lat="37.06369" lon="-3.37259">
        <ele>3057.2</ele>
        <time>2021-08-06 18:22:26</time>
      </trkpt>
      <trkpt lat="37.0637" lon="-3.3726">
        <ele>3057</ele>
        <time>2021-08-06 18:22:27</time>
      </trkpt>
      <trkpt lat="37.06371" lon="-3.37259">
        <ele>3056.8</ele>
        <time>2021-08-06 18:22:28</time>
      </trkpt>
      <trkpt lat="37.06371" lon="-3.37259">
        <ele>3056.6</ele>
        <time>2021-08-06 18:22:29</time>
      </trkpt>
      <trkpt lat="37.06372" lon="-3.3726">
        <ele>3056.6</ele>
        <time>2021-08-06 18:22:30</time>
      </trkpt>
      <trkpt lat="37.06373" lon="-3.37262">
        <ele>3056.4</ele>
        <time>2021-08-06 18:22:31</time>
      </trkpt>
      <trkpt lat="37.06374" lon="-3.37264">
        <ele>3056.2</ele>
        <time>2021-08-06 18:22:32</time>
      </trkpt>
      <trkpt lat="37.06374" lon="-3.37266">
        <ele>3056.2</ele>
        <time>2021-08-06 18:22:33</time>
      </trkpt>
      <trkpt lat="37.06375" lon="-3.37268">
        <ele>3056.2</ele>
        <time>2021-08-06 18:22:34</time>
      </trkpt>
      <trkpt lat="37.06376" lon="-3.37269">
        <ele>3056.2</ele>
        <time>2021-08-06 18:22:35</time>
      </trkpt>
      <trkpt lat="37.06377" lon="-3.37269">
        <ele>3056</ele>
        <time>2021-08-06 18:22:36</time>
      </trkpt>
      <trkpt lat="37.06377" lon="-3.37269">
        <ele>3056</ele>
        <time>2021-08-06 18:22:37</time>
      </trkpt>
      <trkpt lat="37.06378" lon="-3.3727">
        <ele>3056</ele>
        <time>2021-08-06 18:22:38</time>
      </trkpt>
      <trkpt lat="37.06379" lon="-3.37271">
        <ele>3056</ele>
        <time>2021-08-06 18:22:39</time>
      </trkpt>
      <trkpt lat="37.0638" lon="-3.37272">
        <ele>3055.8</ele>
        <time>2021-08-06 18:22:40</time>
      </trkpt>
      <trkpt lat="37.06381" lon="-3.37272">
        <ele>3055.6</ele>
        <time>2021-08-06 18:22:41</time>
      </trkpt>
      <trkpt lat="37.06382" lon="-3.3727">
        <ele>3055.6</ele>
        <time>2021-08-06 18:22:42</time>
      </trkpt>
      <trkpt lat="37.06383" lon="-3.3727">
        <ele>3055.6</ele>
        <time>2021-08-06 18:22:43</time>
      </trkpt>
      <trkpt lat="37.06384" lon="-3.37271">
        <ele>3055.4</ele>
        <time>2021-08-06 18:22:44</time>
      </trkpt>
      <trkpt lat="37.06384" lon="-3.37275">
        <ele>3055.4</ele>
        <time>2021-08-06 18:22:45</time>
      </trkpt>
      <trkpt lat="37.06385" lon="-3.37278">
        <ele>3055.4</ele>
        <time>2021-08-06 18:22:46</time>
      </trkpt>
      <trkpt lat="37.06386" lon="-3.37279">
        <ele>3055.4</ele>
        <time>2021-08-06 18:22:47</time>
      </trkpt>
      <trkpt lat="37.06387" lon="-3.3728">
        <ele>3055.4</ele>
        <time>2021-08-06 18:22:48</time>
      </trkpt>
      <trkpt lat="37.06388" lon="-3.37281">
        <ele>3055.4</ele>
        <time>2021-08-06 18:22:49</time>
      </trkpt>
      <trkpt lat="37.06389" lon="-3.37282">
        <ele>3055.4</ele>
        <time>2021-08-06 18:22:50</time>
      </trkpt>
      <trkpt lat="37.0639" lon="-3.37284">
        <ele>3055.6</ele>
        <time>2021-08-06 18:22:51</time>
      </trkpt>
      <trkpt lat="37.06391" lon="-3.37284">
        <ele>3055.6</ele>
        <time>2021-08-06 18:22:52</time>
      </trkpt>
      <trkpt lat="37.06392" lon="-3.37284">
        <ele>3055.6</ele>
        <time>2021-08-06 18:22:53</time>
      </trkpt>
      <trkpt lat="37.06393" lon="-3.37285">
        <ele>3055.6</ele>
        <time>2021-08-06 18:22:54</time>
      </trkpt>
      <trkpt lat="37.06394" lon="-3.37286">
        <ele>3055.6</ele>
        <time>2021-08-06 18:22:55</time>
      </trkpt>
      <trkpt lat="37.06394" lon="-3.37287">
        <ele>3055.6</ele>
        <time>2021-08-06 18:22:56</time>
      </trkpt>
      <trkpt lat="37.06395" lon="-3.37287">
        <ele>3055.8</ele>
        <time>2021-08-06 18:22:57</time>
      </trkpt>
      <trkpt lat="37.06396" lon="-3.37288">
        <ele>3055.8</ele>
        <time>2021-08-06 18:22:58</time>
      </trkpt>
      <trkpt lat="37.06396" lon="-3.37289">
        <ele>3055.8</ele>
        <time>2021-08-06 18:22:59</time>
      </trkpt>
      <trkpt lat="37.06397" lon="-3.37289">
        <ele>3055.8</ele>
        <time>2021-08-06 18:23:00</time>
      </trkpt>
      <trkpt lat="37.06397" lon="-3.37288">
        <ele>3055.2</ele>
        <time>2021-08-06 18:23:01</time>
      </trkpt>
      <trkpt lat="37.06397" lon="-3.37287">
        <ele>3054.6</ele>
        <time>2021-08-06 18:23:02</time>
      </trkpt>
      <trkpt lat="37.06398" lon="-3.37287">
        <ele>3054.2</ele>
        <time>2021-08-06 18:23:03</time>
      </trkpt>
      <trkpt lat="37.06398" lon="-3.37287">
        <ele>3054</ele>
        <time>2021-08-06 18:23:04</time>
      </trkpt>
      <trkpt lat="37.06399" lon="-3.3729">
        <ele>3053.8</ele>
        <time>2021-08-06 18:23:05</time>
      </trkpt>
      <trkpt lat="37.064" lon="-3.37291">
        <ele>3053.8</ele>
        <time>2021-08-06 18:23:06</time>
      </trkpt>
      <trkpt lat="37.064" lon="-3.37292">
        <ele>3053.8</ele>
        <time>2021-08-06 18:23:07</time>
      </trkpt>
      <trkpt lat="37.064" lon="-3.37292">
        <ele>3053.8</ele>
        <time>2021-08-06 18:23:08</time>
      </trkpt>
      <trkpt lat="37.06401" lon="-3.37292">
        <ele>3053.8</ele>
        <time>2021-08-06 18:23:09</time>
      </trkpt>
      <trkpt lat="37.06401" lon="-3.37293">
        <ele>3054.2</ele>
        <time>2021-08-06 18:23:10</time>
      </trkpt>
      <trkpt lat="37.06401" lon="-3.37293">
        <ele>3054.2</ele>
        <time>2021-08-06 18:23:11</time>
      </trkpt>
      <trkpt lat="37.06402" lon="-3.37295">
        <ele>3054.2</ele>
        <time>2021-08-06 18:23:12</time>
      </trkpt>
      <trkpt lat="37.06403" lon="-3.37295">
        <ele>3054.4</ele>
        <time>2021-08-06 18:23:13</time>
      </trkpt>
      <trkpt lat="37.06404" lon="-3.37296">
        <ele>3054</ele>
        <time>2021-08-06 18:23:14</time>
      </trkpt>
      <trkpt lat="37.06405" lon="-3.37296">
        <ele>3053.8</ele>
        <time>2021-08-06 18:23:15</time>
      </trkpt>
      <trkpt lat="37.06405" lon="-3.37296">
        <ele>3053.6</ele>
        <time>2021-08-06 18:23:16</time>
      </trkpt>
      <trkpt lat="37.06406" lon="-3.37296">
        <ele>3053.6</ele>
        <time>2021-08-06 18:23:17</time>
      </trkpt>
      <trkpt lat="37.06407" lon="-3.37297">
        <ele>3053.4</ele>
        <time>2021-08-06 18:23:18</time>
      </trkpt>
      <trkpt lat="37.06408" lon="-3.37297">
        <ele>3053.2</ele>
        <time>2021-08-06 18:23:19</time>
      </trkpt>
      <trkpt lat="37.06409" lon="-3.37297">
        <ele>3052.6</ele>
        <time>2021-08-06 18:23:20</time>
      </trkpt>
      <trkpt lat="37.06409" lon="-3.37298">
        <ele>3052.4</ele>
        <time>2021-08-06 18:23:21</time>
      </trkpt>
      <trkpt lat="37.0641" lon="-3.37298">
        <ele>3052.4</ele>
        <time>2021-08-06 18:23:22</time>
      </trkpt>
      <trkpt lat="37.06411" lon="-3.37298">
        <ele>3052.4</ele>
        <time>2021-08-06 18:23:23</time>
      </trkpt>
      <trkpt lat="37.06411" lon="-3.37298">
        <ele>3052.2</ele>
        <time>2021-08-06 18:23:24</time>
      </trkpt>
      <trkpt lat="37.06412" lon="-3.37298">
        <ele>3052.2</ele>
        <time>2021-08-06 18:23:25</time>
      </trkpt>
      <trkpt lat="37.06413" lon="-3.37297">
        <ele>3052.2</ele>
        <time>2021-08-06 18:23:26</time>
      </trkpt>
      <trkpt lat="37.06414" lon="-3.37296">
        <ele>3052.2</ele>
        <time>2021-08-06 18:23:27</time>
      </trkpt>
      <trkpt lat="37.06415" lon="-3.37296">
        <ele>3052</ele>
        <time>2021-08-06 18:23:28</time>
      </trkpt>
      <trkpt lat="37.06415" lon="-3.37295">
        <ele>3051.8</ele>
        <time>2021-08-06 18:23:29</time>
      </trkpt>
      <trkpt lat="37.06416" lon="-3.37295">
        <ele>3051.4</ele>
        <time>2021-08-06 18:23:30</time>
      </trkpt>
      <trkpt lat="37.06416" lon="-3.37296">
        <ele>3051</ele>
        <time>2021-08-06 18:23:31</time>
      </trkpt>
      <trkpt lat="37.06417" lon="-3.37296">
        <ele>3050.8</ele>
        <time>2021-08-06 18:23:32</time>
      </trkpt>
      <trkpt lat="37.06417" lon="-3.37296">
        <ele>3050.6</ele>
        <time>2021-08-06 18:23:33</time>
      </trkpt>
      <trkpt lat="37.06417" lon="-3.37297">
        <ele>3050.4</ele>
        <time>2021-08-06 18:23:34</time>
      </trkpt>
      <trkpt lat="37.06417" lon="-3.37296">
        <ele>3050.2</ele>
        <time>2021-08-06 18:23:35</time>
      </trkpt>
      <trkpt lat="37.06418" lon="-3.37296">
        <ele>3050</ele>
        <time>2021-08-06 18:23:36</time>
      </trkpt>
      <trkpt lat="37.06418" lon="-3.37296">
        <ele>3049.8</ele>
        <time>2021-08-06 18:23:37</time>
      </trkpt>
      <trkpt lat="37.06418" lon="-3.37296">
        <ele>3049.8</ele>
        <time>2021-08-06 18:23:38</time>
      </trkpt>
      <trkpt lat="37.06418" lon="-3.37296">
        <ele>3049.8</ele>
        <time>2021-08-06 18:23:39</time>
      </trkpt>
      <trkpt lat="37.06418" lon="-3.37296">
        <ele>3050</ele>
        <time>2021-08-06 18:23:40</time>
      </trkpt>
      <trkpt lat="37.06418" lon="-3.37296">
        <ele>3050.2</ele>
        <time>2021-08-06 18:23:41</time>
      </trkpt>
      <trkpt lat="37.06419" lon="-3.37297">
        <ele>3050.2</ele>
        <time>2021-08-06 18:23:42</time>
      </trkpt>
      <trkpt lat="37.06419" lon="-3.37296">
        <ele>3050.2</ele>
        <time>2021-08-06 18:23:43</time>
      </trkpt>
      <trkpt lat="37.0642" lon="-3.37295">
        <ele>3050.2</ele>
        <time>2021-08-06 18:23:44</time>
      </trkpt>
      <trkpt lat="37.0642" lon="-3.37295">
        <ele>3050</ele>
        <time>2021-08-06 18:23:45</time>
      </trkpt>
      <trkpt lat="37.0642" lon="-3.37295">
        <ele>3049.6</ele>
        <time>2021-08-06 18:23:46</time>
      </trkpt>
      <trkpt lat="37.06421" lon="-3.37295">
        <ele>3049.4</ele>
        <time>2021-08-06 18:23:47</time>
      </trkpt>
      <trkpt lat="37.06421" lon="-3.37295">
        <ele>3049</ele>
        <time>2021-08-06 18:23:48</time>
      </trkpt>
      <trkpt lat="37.06422" lon="-3.37295">
        <ele>3048.8</ele>
        <time>2021-08-06 18:23:49</time>
      </trkpt>
      <trkpt lat="37.06423" lon="-3.37296">
        <ele>3048.6</ele>
        <time>2021-08-06 18:23:50</time>
      </trkpt>
      <trkpt lat="37.06423" lon="-3.37296">
        <ele>3048.4</ele>
        <time>2021-08-06 18:23:51</time>
      </trkpt>
      <trkpt lat="37.06423" lon="-3.37297">
        <ele>3048.6</ele>
        <time>2021-08-06 18:23:52</time>
      </trkpt>
      <trkpt lat="37.06424" lon="-3.37297">
        <ele>3048.4</ele>
        <time>2021-08-06 18:23:53</time>
      </trkpt>
      <trkpt lat="37.06424" lon="-3.37297">
        <ele>3048.4</ele>
        <time>2021-08-06 18:23:54</time>
      </trkpt>
      <trkpt lat="37.06425" lon="-3.37298">
        <ele>3048.2</ele>
        <time>2021-08-06 18:23:55</time>
      </trkpt>
      <trkpt lat="37.06425" lon="-3.37299">
        <ele>3048</ele>
        <time>2021-08-06 18:23:56</time>
      </trkpt>
      <trkpt lat="37.06425" lon="-3.37299">
        <ele>3048</ele>
        <time>2021-08-06 18:23:57</time>
      </trkpt>
      <trkpt lat="37.06425" lon="-3.37299">
        <ele>3047.8</ele>
        <time>2021-08-06 18:23:58</time>
      </trkpt>
      <trkpt lat="37.06426" lon="-3.37301">
        <ele>3047.6</ele>
        <time>2021-08-06 18:23:59</time>
      </trkpt>
      <trkpt lat="37.06426" lon="-3.37301">
        <ele>3047.6</ele>
        <time>2021-08-06 18:24:00</time>
      </trkpt>
      <trkpt lat="37.06426" lon="-3.37301">
        <ele>3047.8</ele>
        <time>2021-08-06 18:24:01</time>
      </trkpt>
      <trkpt lat="37.06426" lon="-3.37301">
        <ele>3047.8</ele>
        <time>2021-08-06 18:24:02</time>
      </trkpt>
      <trkpt lat="37.06426" lon="-3.37301">
        <ele>3047.8</ele>
        <time>2021-08-06 18:24:03</time>
      </trkpt>
      <trkpt lat="37.06426" lon="-3.37301">
        <ele>3047.8</ele>
        <time>2021-08-06 18:24:04</time>
      </trkpt>
      <trkpt lat="37.06426" lon="-3.37301">
        <ele>3047.8</ele>
        <time>2021-08-06 18:24:05</time>
      </trkpt>
      <trkpt lat="37.06426" lon="-3.37301">
        <ele>3047.8</ele>
        <time>2021-08-06 18:24:06</time>
      </trkpt>
      <trkpt lat="37.06426" lon="-3.373">
        <ele>3047.8</ele>
        <time>2021-08-06 18:24:07</time>
      </trkpt>
      <trkpt lat="37.06425" lon="-3.373">
        <ele>3048</ele>
        <time>2021-08-06 18:24:08</time>
      </trkpt>
      <trkpt lat="37.06425" lon="-3.373">
        <ele>3048</ele>
        <time>2021-08-06 18:24:09</time>
      </trkpt>
      <trkpt lat="37.06425" lon="-3.37301">
        <ele>3048</ele>
        <time>2021-08-06 18:24:10</time>
      </trkpt>
      <trkpt lat="37.06425" lon="-3.37301">
        <ele>3047.4</ele>
        <time>2021-08-06 18:24:11</time>
      </trkpt>
      <trkpt lat="37.06425" lon="-3.37303">
        <ele>3047.2</ele>
        <time>2021-08-06 18:24:12</time>
      </trkpt>
      <trkpt lat="37.06425" lon="-3.37303">
        <ele>3047.2</ele>
        <time>2021-08-06 18:24:13</time>
      </trkpt>
      <trkpt lat="37.06425" lon="-3.37305">
        <ele>3047</ele>
        <time>2021-08-06 18:24:14</time>
      </trkpt>
      <trkpt lat="37.06425" lon="-3.37305">
        <ele>3047.2</ele>
        <time>2021-08-06 18:24:15</time>
      </trkpt>
      <trkpt lat="37.06425" lon="-3.37305">
        <ele>3047.4</ele>
        <time>2021-08-06 18:24:16</time>
      </trkpt>
      <trkpt lat="37.06425" lon="-3.37305">
        <ele>3047.4</ele>
        <time>2021-08-06 18:24:17</time>
      </trkpt>
      <trkpt lat="37.06425" lon="-3.37306">
        <ele>3047.6</ele>
        <time>2021-08-06 18:24:18</time>
      </trkpt>
      <trkpt lat="37.06426" lon="-3.37306">
        <ele>3047.8</ele>
        <time>2021-08-06 18:24:19</time>
      </trkpt>
      <trkpt lat="37.06426" lon="-3.37306">
        <ele>3048</ele>
        <time>2021-08-06 18:24:20</time>
      </trkpt>
      <trkpt lat="37.06426" lon="-3.37306">
        <ele>3048</ele>
        <time>2021-08-06 18:24:21</time>
      </trkpt>
      <trkpt lat="37.06426" lon="-3.37306">
        <ele>3048</ele>
        <time>2021-08-06 18:24:22</time>
      </trkpt>
      <trkpt lat="37.06426" lon="-3.37306">
        <ele>3048</ele>
        <time>2021-08-06 18:24:23</time>
      </trkpt>
      <trkpt lat="37.06426" lon="-3.37306">
        <ele>3048.2</ele>
        <time>2021-08-06 18:24:24</time>
      </trkpt>
      <trkpt lat="37.06427" lon="-3.37306">
        <ele>3048</ele>
        <time>2021-08-06 18:24:25</time>
      </trkpt>
      <trkpt lat="37.06427" lon="-3.37305">
        <ele>3048</ele>
        <time>2021-08-06 18:24:26</time>
      </trkpt>
      <trkpt lat="37.06427" lon="-3.37306">
        <ele>3048</ele>
        <time>2021-08-06 18:24:27</time>
      </trkpt>
      <trkpt lat="37.06427" lon="-3.37307">
        <ele>3048.2</ele>
        <time>2021-08-06 18:24:28</time>
      </trkpt>
      <trkpt lat="37.06427" lon="-3.37307">
        <ele>3048.2</ele>
        <time>2021-08-06 18:24:29</time>
      </trkpt>
      <trkpt lat="37.06428" lon="-3.37308">
        <ele>3048</ele>
        <time>2021-08-06 18:24:30</time>
      </trkpt>
      <trkpt lat="37.06428" lon="-3.37308">
        <ele>3047.8</ele>
        <time>2021-08-06 18:24:31</time>
      </trkpt>
      <trkpt lat="37.06429" lon="-3.37308">
        <ele>3047.4</ele>
        <time>2021-08-06 18:24:32</time>
      </trkpt>
      <trkpt lat="37.06429" lon="-3.37308">
        <ele>3047.2</ele>
        <time>2021-08-06 18:24:33</time>
      </trkpt>
      <trkpt lat="37.0643" lon="-3.37308">
        <ele>3047</ele>
        <time>2021-08-06 18:24:34</time>
      </trkpt>
      <trkpt lat="37.0643" lon="-3.37308">
        <ele>3046.8</ele>
        <time>2021-08-06 18:24:35</time>
      </trkpt>
      <trkpt lat="37.0643" lon="-3.37303">
        <ele>3046.6</ele>
        <time>2021-08-06 18:24:36</time>
      </trkpt>
      <trkpt lat="37.06431" lon="-3.37303">
        <ele>3046.6</ele>
        <time>2021-08-06 18:24:37</time>
      </trkpt>
      <trkpt lat="37.06432" lon="-3.37302">
        <ele>3046.4</ele>
        <time>2021-08-06 18:24:38</time>
      </trkpt>
      <trkpt lat="37.06431" lon="-3.3731">
        <ele>3046.4</ele>
        <time>2021-08-06 18:24:39</time>
      </trkpt>
      <trkpt lat="37.06432" lon="-3.37309">
        <ele>3046</ele>
        <time>2021-08-06 18:24:40</time>
      </trkpt>
      <trkpt lat="37.06433" lon="-3.37308">
        <ele>3045.6</ele>
        <time>2021-08-06 18:24:41</time>
      </trkpt>
      <trkpt lat="37.06434" lon="-3.37307">
        <ele>3045.4</ele>
        <time>2021-08-06 18:24:42</time>
      </trkpt>
      <trkpt lat="37.06434" lon="-3.37306">
        <ele>3045.4</ele>
        <time>2021-08-06 18:24:43</time>
      </trkpt>
      <trkpt lat="37.06435" lon="-3.37306">
        <ele>3045.2</ele>
        <time>2021-08-06 18:24:44</time>
      </trkpt>
      <trkpt lat="37.06435" lon="-3.37306">
        <ele>3045.2</ele>
        <time>2021-08-06 18:24:45</time>
      </trkpt>
      <trkpt lat="37.06436" lon="-3.37306">
        <ele>3045.2</ele>
        <time>2021-08-06 18:24:46</time>
      </trkpt>
      <trkpt lat="37.06437" lon="-3.37306">
        <ele>3045.4</ele>
        <time>2021-08-06 18:24:47</time>
      </trkpt>
      <trkpt lat="37.06437" lon="-3.37306">
        <ele>3045.4</ele>
        <time>2021-08-06 18:24:48</time>
      </trkpt>
      <trkpt lat="37.06438" lon="-3.37306">
        <ele>3045</ele>
        <time>2021-08-06 18:24:49</time>
      </trkpt>
      <trkpt lat="37.06439" lon="-3.37303">
        <ele>3044.8</ele>
        <time>2021-08-06 18:24:50</time>
      </trkpt>
      <trkpt lat="37.06439" lon="-3.37302">
        <ele>3044.6</ele>
        <time>2021-08-06 18:24:51</time>
      </trkpt>
      <trkpt lat="37.0644" lon="-3.37302">
        <ele>3044.6</ele>
        <time>2021-08-06 18:24:52</time>
      </trkpt>
      <trkpt lat="37.06441" lon="-3.37303">
        <ele>3044.4</ele>
        <time>2021-08-06 18:24:53</time>
      </trkpt>
      <trkpt lat="37.06441" lon="-3.37303">
        <ele>3044.2</ele>
        <time>2021-08-06 18:24:54</time>
      </trkpt>
      <trkpt lat="37.06442" lon="-3.37303">
        <ele>3044</ele>
        <time>2021-08-06 18:24:55</time>
      </trkpt>
      <trkpt lat="37.06443" lon="-3.37305">
        <ele>3043.8</ele>
        <time>2021-08-06 18:24:56</time>
      </trkpt>
      <trkpt lat="37.06443" lon="-3.37305">
        <ele>3043.4</ele>
        <time>2021-08-06 18:24:57</time>
      </trkpt>
      <trkpt lat="37.06444" lon="-3.37305">
        <ele>3043.2</ele>
        <time>2021-08-06 18:24:58</time>
      </trkpt>
      <trkpt lat="37.06445" lon="-3.37304">
        <ele>3043.2</ele>
        <time>2021-08-06 18:24:59</time>
      </trkpt>
      <trkpt lat="37.06445" lon="-3.37304">
        <ele>3043</ele>
        <time>2021-08-06 18:25:00</time>
      </trkpt>
      <trkpt lat="37.06446" lon="-3.37303">
        <ele>3042.8</ele>
        <time>2021-08-06 18:25:01</time>
      </trkpt>
      <trkpt lat="37.06446" lon="-3.37304">
        <ele>3042.8</ele>
        <time>2021-08-06 18:25:02</time>
      </trkpt>
      <trkpt lat="37.06447" lon="-3.37304">
        <ele>3043</ele>
        <time>2021-08-06 18:25:03</time>
      </trkpt>
      <trkpt lat="37.06448" lon="-3.37305">
        <ele>3043</ele>
        <time>2021-08-06 18:25:04</time>
      </trkpt>
      <trkpt lat="37.06448" lon="-3.37305">
        <ele>3043.2</ele>
        <time>2021-08-06 18:25:05</time>
      </trkpt>
      <trkpt lat="37.06448" lon="-3.37306">
        <ele>3043.4</ele>
        <time>2021-08-06 18:25:06</time>
      </trkpt>
      <trkpt lat="37.06449" lon="-3.37306">
        <ele>3043.2</ele>
        <time>2021-08-06 18:25:07</time>
      </trkpt>
      <trkpt lat="37.0645" lon="-3.37307">
        <ele>3043.2</ele>
        <time>2021-08-06 18:25:08</time>
      </trkpt>
      <trkpt lat="37.0645" lon="-3.37307">
        <ele>3043</ele>
        <time>2021-08-06 18:25:09</time>
      </trkpt>
      <trkpt lat="37.06451" lon="-3.37307">
        <ele>3043</ele>
        <time>2021-08-06 18:25:10</time>
      </trkpt>
      <trkpt lat="37.06451" lon="-3.37308">
        <ele>3042.4</ele>
        <time>2021-08-06 18:25:11</time>
      </trkpt>
      <trkpt lat="37.06452" lon="-3.37308">
        <ele>3042</ele>
        <time>2021-08-06 18:25:12</time>
      </trkpt>
      <trkpt lat="37.06452" lon="-3.37309">
        <ele>3041.8</ele>
        <time>2021-08-06 18:25:13</time>
      </trkpt>
      <trkpt lat="37.06453" lon="-3.37312">
        <ele>3041.8</ele>
        <time>2021-08-06 18:25:14</time>
      </trkpt>
      <trkpt lat="37.06453" lon="-3.37312">
        <ele>3041.6</ele>
        <time>2021-08-06 18:25:15</time>
      </trkpt>
      <trkpt lat="37.06454" lon="-3.37313">
        <ele>3041.4</ele>
        <time>2021-08-06 18:25:16</time>
      </trkpt>
      <trkpt lat="37.06454" lon="-3.37313">
        <ele>3041</ele>
        <time>2021-08-06 18:25:17</time>
      </trkpt>
      <trkpt lat="37.06455" lon="-3.37314">
        <ele>3040.8</ele>
        <time>2021-08-06 18:25:18</time>
      </trkpt>
      <trkpt lat="37.06455" lon="-3.37314">
        <ele>3040.6</ele>
        <time>2021-08-06 18:25:19</time>
      </trkpt>
      <trkpt lat="37.06456" lon="-3.37314">
        <ele>3040.6</ele>
        <time>2021-08-06 18:25:20</time>
      </trkpt>
      <trkpt lat="37.06457" lon="-3.37315">
        <ele>3040.6</ele>
        <time>2021-08-06 18:25:21</time>
      </trkpt>
      <trkpt lat="37.06457" lon="-3.37316">
        <ele>3040.4</ele>
        <time>2021-08-06 18:25:22</time>
      </trkpt>
      <trkpt lat="37.06458" lon="-3.37316">
        <ele>3040.4</ele>
        <time>2021-08-06 18:25:23</time>
      </trkpt>
      <trkpt lat="37.06459" lon="-3.37314">
        <ele>3040.4</ele>
        <time>2021-08-06 18:25:24</time>
      </trkpt>
      <trkpt lat="37.0646" lon="-3.37316">
        <ele>3040.4</ele>
        <time>2021-08-06 18:25:25</time>
      </trkpt>
      <trkpt lat="37.06461" lon="-3.37317">
        <ele>3040.2</ele>
        <time>2021-08-06 18:25:26</time>
      </trkpt>
      <trkpt lat="37.06461" lon="-3.37317">
        <ele>3039.8</ele>
        <time>2021-08-06 18:25:27</time>
      </trkpt>
      <trkpt lat="37.06461" lon="-3.37318">
        <ele>3039.4</ele>
        <time>2021-08-06 18:25:28</time>
      </trkpt>
      <trkpt lat="37.06462" lon="-3.37318">
        <ele>3039.4</ele>
        <time>2021-08-06 18:25:29</time>
      </trkpt>
      <trkpt lat="37.06462" lon="-3.37318">
        <ele>3039.2</ele>
        <time>2021-08-06 18:25:30</time>
      </trkpt>
      <trkpt lat="37.06462" lon="-3.37319">
        <ele>3038.8</ele>
        <time>2021-08-06 18:25:31</time>
      </trkpt>
      <trkpt lat="37.06462" lon="-3.37319">
        <ele>3038.6</ele>
        <time>2021-08-06 18:25:32</time>
      </trkpt>
      <trkpt lat="37.06463" lon="-3.37319">
        <ele>3038.4</ele>
        <time>2021-08-06 18:25:33</time>
      </trkpt>
      <trkpt lat="37.06463" lon="-3.37319">
        <ele>3038.2</ele>
        <time>2021-08-06 18:25:34</time>
      </trkpt>
      <trkpt lat="37.06463" lon="-3.37319">
        <ele>3038</ele>
        <time>2021-08-06 18:25:35</time>
      </trkpt>
      <trkpt lat="37.06463" lon="-3.37319">
        <ele>3038</ele>
        <time>2021-08-06 18:25:36</time>
      </trkpt>
      <trkpt lat="37.06464" lon="-3.37319">
        <ele>3037.8</ele>
        <time>2021-08-06 18:25:37</time>
      </trkpt>
      <trkpt lat="37.06464" lon="-3.37319">
        <ele>3037.8</ele>
        <time>2021-08-06 18:25:38</time>
      </trkpt>
      <trkpt lat="37.06464" lon="-3.37319">
        <ele>3037.8</ele>
        <time>2021-08-06 18:25:39</time>
      </trkpt>
      <trkpt lat="37.06465" lon="-3.3732">
        <ele>3037.6</ele>
        <time>2021-08-06 18:25:40</time>
      </trkpt>
      <trkpt lat="37.06465" lon="-3.3732">
        <ele>3037</ele>
        <time>2021-08-06 18:25:41</time>
      </trkpt>
      <trkpt lat="37.06465" lon="-3.3732">
        <ele>3036.8</ele>
        <time>2021-08-06 18:25:42</time>
      </trkpt>
      <trkpt lat="37.06466" lon="-3.37321">
        <ele>3036.6</ele>
        <time>2021-08-06 18:25:43</time>
      </trkpt>
      <trkpt lat="37.06466" lon="-3.37321">
        <ele>3036.4</ele>
        <time>2021-08-06 18:25:44</time>
      </trkpt>
      <trkpt lat="37.06467" lon="-3.37321">
        <ele>3036.4</ele>
        <time>2021-08-06 18:25:45</time>
      </trkpt>
      <trkpt lat="37.06467" lon="-3.37321">
        <ele>3036</ele>
        <time>2021-08-06 18:25:46</time>
      </trkpt>
      <trkpt lat="37.06468" lon="-3.3732">
        <ele>3035.8</ele>
        <time>2021-08-06 18:25:47</time>
      </trkpt>
      <trkpt lat="37.06468" lon="-3.3732">
        <ele>3035.6</ele>
        <time>2021-08-06 18:25:48</time>
      </trkpt>
      <trkpt lat="37.06469" lon="-3.3732">
        <ele>3035.4</ele>
        <time>2021-08-06 18:25:49</time>
      </trkpt>
      <trkpt lat="37.0647" lon="-3.3732">
        <ele>3035.2</ele>
        <time>2021-08-06 18:25:50</time>
      </trkpt>
      <trkpt lat="37.0647" lon="-3.37321">
        <ele>3035</ele>
        <time>2021-08-06 18:25:51</time>
      </trkpt>
      <trkpt lat="37.06471" lon="-3.37321">
        <ele>3035</ele>
        <time>2021-08-06 18:25:52</time>
      </trkpt>
      <trkpt lat="37.06471" lon="-3.37322">
        <ele>3035</ele>
        <time>2021-08-06 18:25:53</time>
      </trkpt>
      <trkpt lat="37.06471" lon="-3.37322">
        <ele>3035</ele>
        <time>2021-08-06 18:25:54</time>
      </trkpt>
      <trkpt lat="37.06471" lon="-3.37322">
        <ele>3034.8</ele>
        <time>2021-08-06 18:25:55</time>
      </trkpt>
      <trkpt lat="37.06472" lon="-3.37323">
        <ele>3034.6</ele>
        <time>2021-08-06 18:25:56</time>
      </trkpt>
      <trkpt lat="37.06472" lon="-3.37323">
        <ele>3034.2</ele>
        <time>2021-08-06 18:25:57</time>
      </trkpt>
      <trkpt lat="37.06472" lon="-3.37324">
        <ele>3034</ele>
        <time>2021-08-06 18:25:58</time>
      </trkpt>
      <trkpt lat="37.06473" lon="-3.37324">
        <ele>3033.8</ele>
        <time>2021-08-06 18:25:59</time>
      </trkpt>
      <trkpt lat="37.06473" lon="-3.37326">
        <ele>3033.8</ele>
        <time>2021-08-06 18:26:00</time>
      </trkpt>
      <trkpt lat="37.06474" lon="-3.37327">
        <ele>3033.8</ele>
        <time>2021-08-06 18:26:01</time>
      </trkpt>
      <trkpt lat="37.06474" lon="-3.37327">
        <ele>3033.8</ele>
        <time>2021-08-06 18:26:02</time>
      </trkpt>
      <trkpt lat="37.06475" lon="-3.37328">
        <ele>3033.6</ele>
        <time>2021-08-06 18:26:03</time>
      </trkpt>
      <trkpt lat="37.06476" lon="-3.37328">
        <ele>3033.6</ele>
        <time>2021-08-06 18:26:04</time>
      </trkpt>
      <trkpt lat="37.06476" lon="-3.37329">
        <ele>3033.4</ele>
        <time>2021-08-06 18:26:05</time>
      </trkpt>
      <trkpt lat="37.06477" lon="-3.37329">
        <ele>3033.2</ele>
        <time>2021-08-06 18:26:06</time>
      </trkpt>
      <trkpt lat="37.06478" lon="-3.37329">
        <ele>3033</ele>
        <time>2021-08-06 18:26:07</time>
      </trkpt>
      <trkpt lat="37.06478" lon="-3.37329">
        <ele>3032.6</ele>
        <time>2021-08-06 18:26:08</time>
      </trkpt>
      <trkpt lat="37.06479" lon="-3.3733">
        <ele>3032.4</ele>
        <time>2021-08-06 18:26:09</time>
      </trkpt>
      <trkpt lat="37.0648" lon="-3.3733">
        <ele>3032.4</ele>
        <time>2021-08-06 18:26:10</time>
      </trkpt>
      <trkpt lat="37.0648" lon="-3.37331">
        <ele>3032</ele>
        <time>2021-08-06 18:26:11</time>
      </trkpt>
      <trkpt lat="37.0648" lon="-3.37331">
        <ele>3031.8</ele>
        <time>2021-08-06 18:26:12</time>
      </trkpt>
      <trkpt lat="37.0648" lon="-3.37331">
        <ele>3031.6</ele>
        <time>2021-08-06 18:26:13</time>
      </trkpt>
      <trkpt lat="37.06481" lon="-3.37331">
        <ele>3031.6</ele>
        <time>2021-08-06 18:26:14</time>
      </trkpt>
      <trkpt lat="37.06481" lon="-3.37332">
        <ele>3031.4</ele>
        <time>2021-08-06 18:26:15</time>
      </trkpt>
      <trkpt lat="37.06482" lon="-3.37332">
        <ele>3031.4</ele>
        <time>2021-08-06 18:26:16</time>
      </trkpt>
      <trkpt lat="37.06482" lon="-3.37332">
        <ele>3031.2</ele>
        <time>2021-08-06 18:26:17</time>
      </trkpt>
      <trkpt lat="37.06482" lon="-3.37333">
        <ele>3031</ele>
        <time>2021-08-06 18:26:18</time>
      </trkpt>
      <trkpt lat="37.06483" lon="-3.37333">
        <ele>3031</ele>
        <time>2021-08-06 18:26:19</time>
      </trkpt>
      <trkpt lat="37.06484" lon="-3.37333">
        <ele>3031</ele>
        <time>2021-08-06 18:26:20</time>
      </trkpt>
      <trkpt lat="37.06484" lon="-3.37334">
        <ele>3030.8</ele>
        <time>2021-08-06 18:26:21</time>
      </trkpt>
      <trkpt lat="37.06484" lon="-3.37334">
        <ele>3030.8</ele>
        <time>2021-08-06 18:26:22</time>
      </trkpt>
      <trkpt lat="37.06485" lon="-3.37333">
        <ele>3030.8</ele>
        <time>2021-08-06 18:26:23</time>
      </trkpt>
      <trkpt lat="37.06486" lon="-3.37332">
        <ele>3030.8</ele>
        <time>2021-08-06 18:26:24</time>
      </trkpt>
      <trkpt lat="37.06486" lon="-3.37331">
        <ele>3030.6</ele>
        <time>2021-08-06 18:26:25</time>
      </trkpt>
      <trkpt lat="37.06487" lon="-3.37332">
        <ele>3030.2</ele>
        <time>2021-08-06 18:26:26</time>
      </trkpt>
      <trkpt lat="37.06487" lon="-3.37333">
        <ele>3029.8</ele>
        <time>2021-08-06 18:26:27</time>
      </trkpt>
      <trkpt lat="37.06488" lon="-3.37333">
        <ele>3029.4</ele>
        <time>2021-08-06 18:26:28</time>
      </trkpt>
      <trkpt lat="37.06488" lon="-3.37334">
        <ele>3029.2</ele>
        <time>2021-08-06 18:26:29</time>
      </trkpt>
      <trkpt lat="37.06489" lon="-3.37335">
        <ele>3029.2</ele>
        <time>2021-08-06 18:26:30</time>
      </trkpt>
      <trkpt lat="37.06489" lon="-3.37337">
        <ele>3029.2</ele>
        <time>2021-08-06 18:26:31</time>
      </trkpt>
      <trkpt lat="37.06489" lon="-3.37338">
        <ele>3029.2</ele>
        <time>2021-08-06 18:26:32</time>
      </trkpt>
      <trkpt lat="37.06489" lon="-3.3734">
        <ele>3029.2</ele>
        <time>2021-08-06 18:26:33</time>
      </trkpt>
      <trkpt lat="37.0649" lon="-3.3734">
        <ele>3029.2</ele>
        <time>2021-08-06 18:26:34</time>
      </trkpt>
      <trkpt lat="37.0649" lon="-3.37341">
        <ele>3029.2</ele>
        <time>2021-08-06 18:26:35</time>
      </trkpt>
      <trkpt lat="37.0649" lon="-3.37341">
        <ele>3029</ele>
        <time>2021-08-06 18:26:36</time>
      </trkpt>
      <trkpt lat="37.06491" lon="-3.37342">
        <ele>3028.8</ele>
        <time>2021-08-06 18:26:37</time>
      </trkpt>
      <trkpt lat="37.06491" lon="-3.37342">
        <ele>3028.6</ele>
        <time>2021-08-06 18:26:38</time>
      </trkpt>
      <trkpt lat="37.06492" lon="-3.37344">
        <ele>3028.6</ele>
        <time>2021-08-06 18:26:39</time>
      </trkpt>
      <trkpt lat="37.06493" lon="-3.37344">
        <ele>3028.4</ele>
        <time>2021-08-06 18:26:40</time>
      </trkpt>
      <trkpt lat="37.06493" lon="-3.37345">
        <ele>3028.4</ele>
        <time>2021-08-06 18:26:41</time>
      </trkpt>
      <trkpt lat="37.06493" lon="-3.37345">
        <ele>3028</ele>
        <time>2021-08-06 18:26:42</time>
      </trkpt>
      <trkpt lat="37.06493" lon="-3.37345">
        <ele>3027.8</ele>
        <time>2021-08-06 18:26:43</time>
      </trkpt>
      <trkpt lat="37.06493" lon="-3.37346">
        <ele>3027.6</ele>
        <time>2021-08-06 18:26:44</time>
      </trkpt>
      <trkpt lat="37.06494" lon="-3.37346">
        <ele>3027.4</ele>
        <time>2021-08-06 18:26:45</time>
      </trkpt>
      <trkpt lat="37.06494" lon="-3.37344">
        <ele>3027.2</ele>
        <time>2021-08-06 18:26:46</time>
      </trkpt>
      <trkpt lat="37.06495" lon="-3.37345">
        <ele>3027.2</ele>
        <time>2021-08-06 18:26:47</time>
      </trkpt>
      <trkpt lat="37.06496" lon="-3.37345">
        <ele>3027.2</ele>
        <time>2021-08-06 18:26:48</time>
      </trkpt>
      <trkpt lat="37.06496" lon="-3.37345">
        <ele>3027</ele>
        <time>2021-08-06 18:26:49</time>
      </trkpt>
      <trkpt lat="37.06497" lon="-3.37346">
        <ele>3026.8</ele>
        <time>2021-08-06 18:26:50</time>
      </trkpt>
      <trkpt lat="37.06497" lon="-3.37345">
        <ele>3026.8</ele>
        <time>2021-08-06 18:26:51</time>
      </trkpt>
      <trkpt lat="37.06498" lon="-3.37343">
        <ele>3026.6</ele>
        <time>2021-08-06 18:26:52</time>
      </trkpt>
      <trkpt lat="37.06499" lon="-3.37342">
        <ele>3026</ele>
        <time>2021-08-06 18:26:53</time>
      </trkpt>
      <trkpt lat="37.06499" lon="-3.37342">
        <ele>3025.8</ele>
        <time>2021-08-06 18:26:54</time>
      </trkpt>
      <trkpt lat="37.06499" lon="-3.37342">
        <ele>3025.6</ele>
        <time>2021-08-06 18:26:55</time>
      </trkpt>
      <trkpt lat="37.06499" lon="-3.37342">
        <ele>3025.4</ele>
        <time>2021-08-06 18:26:56</time>
      </trkpt>
      <trkpt lat="37.065" lon="-3.37343">
        <ele>3025.4</ele>
        <time>2021-08-06 18:26:57</time>
      </trkpt>
      <trkpt lat="37.06501" lon="-3.37344">
        <ele>3025.2</ele>
        <time>2021-08-06 18:26:58</time>
      </trkpt>
      <trkpt lat="37.06502" lon="-3.37344">
        <ele>3025.2</ele>
        <time>2021-08-06 18:26:59</time>
      </trkpt>
      <trkpt lat="37.06503" lon="-3.37345">
        <ele>3025.2</ele>
        <time>2021-08-06 18:27:00</time>
      </trkpt>
      <trkpt lat="37.06504" lon="-3.37346">
        <ele>3025</ele>
        <time>2021-08-06 18:27:01</time>
      </trkpt>
      <trkpt lat="37.06504" lon="-3.37347">
        <ele>3025.2</ele>
        <time>2021-08-06 18:27:02</time>
      </trkpt>
      <trkpt lat="37.06505" lon="-3.37346">
        <ele>3025.2</ele>
        <time>2021-08-06 18:27:03</time>
      </trkpt>
      <trkpt lat="37.06505" lon="-3.37346">
        <ele>3025.2</ele>
        <time>2021-08-06 18:27:04</time>
      </trkpt>
      <trkpt lat="37.06505" lon="-3.37347">
        <ele>3025.2</ele>
        <time>2021-08-06 18:27:05</time>
      </trkpt>
      <trkpt lat="37.06505" lon="-3.37347">
        <ele>3025</ele>
        <time>2021-08-06 18:27:06</time>
      </trkpt>
      <trkpt lat="37.06505" lon="-3.37347">
        <ele>3024.8</ele>
        <time>2021-08-06 18:27:07</time>
      </trkpt>
      <trkpt lat="37.06506" lon="-3.37348">
        <ele>3024.6</ele>
        <time>2021-08-06 18:27:08</time>
      </trkpt>
      <trkpt lat="37.06507" lon="-3.37348">
        <ele>3024.6</ele>
        <time>2021-08-06 18:27:09</time>
      </trkpt>
      <trkpt lat="37.06508" lon="-3.37348">
        <ele>3024</ele>
        <time>2021-08-06 18:27:10</time>
      </trkpt>
      <trkpt lat="37.06508" lon="-3.37348">
        <ele>3023.8</ele>
        <time>2021-08-06 18:27:11</time>
      </trkpt>
      <trkpt lat="37.06509" lon="-3.37349">
        <ele>3023.4</ele>
        <time>2021-08-06 18:27:12</time>
      </trkpt>
      <trkpt lat="37.06509" lon="-3.3735">
        <ele>3023.4</ele>
        <time>2021-08-06 18:27:13</time>
      </trkpt>
      <trkpt lat="37.0651" lon="-3.37352">
        <ele>3023.2</ele>
        <time>2021-08-06 18:27:14</time>
      </trkpt>
      <trkpt lat="37.0651" lon="-3.37353">
        <ele>3023.2</ele>
        <time>2021-08-06 18:27:15</time>
      </trkpt>
      <trkpt lat="37.0651" lon="-3.37354">
        <ele>3023.2</ele>
        <time>2021-08-06 18:27:16</time>
      </trkpt>
      <trkpt lat="37.0651" lon="-3.37355">
        <ele>3022.8</ele>
        <time>2021-08-06 18:27:17</time>
      </trkpt>
      <trkpt lat="37.0651" lon="-3.37359">
        <ele>3022.6</ele>
        <time>2021-08-06 18:27:18</time>
      </trkpt>
      <trkpt lat="37.0651" lon="-3.3736">
        <ele>3022.2</ele>
        <time>2021-08-06 18:27:19</time>
      </trkpt>
      <trkpt lat="37.06511" lon="-3.37361">
        <ele>3022</ele>
        <time>2021-08-06 18:27:20</time>
      </trkpt>
      <trkpt lat="37.06512" lon="-3.37361">
        <ele>3022</ele>
        <time>2021-08-06 18:27:21</time>
      </trkpt>
      <trkpt lat="37.06513" lon="-3.3736">
        <ele>3021.8</ele>
        <time>2021-08-06 18:27:22</time>
      </trkpt>
      <trkpt lat="37.06513" lon="-3.3736">
        <ele>3021.6</ele>
        <time>2021-08-06 18:27:23</time>
      </trkpt>
      <trkpt lat="37.06514" lon="-3.3736">
        <ele>3021.6</ele>
        <time>2021-08-06 18:27:24</time>
      </trkpt>
      <trkpt lat="37.06514" lon="-3.37361">
        <ele>3021</ele>
        <time>2021-08-06 18:27:25</time>
      </trkpt>
      <trkpt lat="37.06515" lon="-3.37361">
        <ele>3020.6</ele>
        <time>2021-08-06 18:27:26</time>
      </trkpt>
      <trkpt lat="37.06515" lon="-3.37362">
        <ele>3020.2</ele>
        <time>2021-08-06 18:27:27</time>
      </trkpt>
      <trkpt lat="37.06516" lon="-3.3736">
        <ele>3020.2</ele>
        <time>2021-08-06 18:27:28</time>
      </trkpt>
      <trkpt lat="37.06516" lon="-3.3736">
        <ele>3020</ele>
        <time>2021-08-06 18:27:29</time>
      </trkpt>
      <trkpt lat="37.06517" lon="-3.37361">
        <ele>3020</ele>
        <time>2021-08-06 18:27:30</time>
      </trkpt>
      <trkpt lat="37.06517" lon="-3.37361">
        <ele>3020</ele>
        <time>2021-08-06 18:27:31</time>
      </trkpt>
      <trkpt lat="37.06518" lon="-3.37362">
        <ele>3019.8</ele>
        <time>2021-08-06 18:27:32</time>
      </trkpt>
      <trkpt lat="37.06518" lon="-3.37362">
        <ele>3019.6</ele>
        <time>2021-08-06 18:27:33</time>
      </trkpt>
      <trkpt lat="37.06519" lon="-3.37362">
        <ele>3019.6</ele>
        <time>2021-08-06 18:27:34</time>
      </trkpt>
      <trkpt lat="37.06519" lon="-3.37362">
        <ele>3019.6</ele>
        <time>2021-08-06 18:27:35</time>
      </trkpt>
      <trkpt lat="37.06519" lon="-3.37362">
        <ele>3019.4</ele>
        <time>2021-08-06 18:27:36</time>
      </trkpt>
      <trkpt lat="37.0652" lon="-3.37363">
        <ele>3019.2</ele>
        <time>2021-08-06 18:27:37</time>
      </trkpt>
      <trkpt lat="37.06521" lon="-3.37363">
        <ele>3019.2</ele>
        <time>2021-08-06 18:27:38</time>
      </trkpt>
      <trkpt lat="37.06521" lon="-3.37364">
        <ele>3019</ele>
        <time>2021-08-06 18:27:39</time>
      </trkpt>
      <trkpt lat="37.06522" lon="-3.37365">
        <ele>3018.8</ele>
        <time>2021-08-06 18:27:40</time>
      </trkpt>
      <trkpt lat="37.06522" lon="-3.37365">
        <ele>3018.6</ele>
        <time>2021-08-06 18:27:41</time>
      </trkpt>
      <trkpt lat="37.06522" lon="-3.37364">
        <ele>3018.4</ele>
        <time>2021-08-06 18:27:42</time>
      </trkpt>
      <trkpt lat="37.06523" lon="-3.37364">
        <ele>3018.2</ele>
        <time>2021-08-06 18:27:43</time>
      </trkpt>
      <trkpt lat="37.06523" lon="-3.37365">
        <ele>3018.2</ele>
        <time>2021-08-06 18:27:44</time>
      </trkpt>
      <trkpt lat="37.06524" lon="-3.37365">
        <ele>3018</ele>
        <time>2021-08-06 18:27:45</time>
      </trkpt>
      <trkpt lat="37.06524" lon="-3.37365">
        <ele>3017.6</ele>
        <time>2021-08-06 18:27:46</time>
      </trkpt>
      <trkpt lat="37.06524" lon="-3.37365">
        <ele>3017.6</ele>
        <time>2021-08-06 18:27:47</time>
      </trkpt>
      <trkpt lat="37.06525" lon="-3.37366">
        <ele>3017.4</ele>
        <time>2021-08-06 18:27:48</time>
      </trkpt>
      <trkpt lat="37.06525" lon="-3.37366">
        <ele>3017.4</ele>
        <time>2021-08-06 18:27:49</time>
      </trkpt>
      <trkpt lat="37.06526" lon="-3.37366">
        <ele>3017.4</ele>
        <time>2021-08-06 18:27:50</time>
      </trkpt>
      <trkpt lat="37.06527" lon="-3.37366">
        <ele>3017.4</ele>
        <time>2021-08-06 18:27:51</time>
      </trkpt>
      <trkpt lat="37.06528" lon="-3.37366">
        <ele>3017.2</ele>
        <time>2021-08-06 18:27:52</time>
      </trkpt>
      <trkpt lat="37.06528" lon="-3.37366">
        <ele>3017.2</ele>
        <time>2021-08-06 18:27:53</time>
      </trkpt>
      <trkpt lat="37.06529" lon="-3.37366">
        <ele>3017</ele>
        <time>2021-08-06 18:27:54</time>
      </trkpt>
      <trkpt lat="37.0653" lon="-3.37366">
        <ele>3017</ele>
        <time>2021-08-06 18:27:55</time>
      </trkpt>
      <trkpt lat="37.06531" lon="-3.37367">
        <ele>3016.6</ele>
        <time>2021-08-06 18:27:56</time>
      </trkpt>
      <trkpt lat="37.06531" lon="-3.37367">
        <ele>3016.4</ele>
        <time>2021-08-06 18:27:57</time>
      </trkpt>
      <trkpt lat="37.06531" lon="-3.37368">
        <ele>3015.6</ele>
        <time>2021-08-06 18:27:58</time>
      </trkpt>
      <trkpt lat="37.06532" lon="-3.37369">
        <ele>3015.2</ele>
        <time>2021-08-06 18:27:59</time>
      </trkpt>
      <trkpt lat="37.06532" lon="-3.3737">
        <ele>3014.8</ele>
        <time>2021-08-06 18:28:00</time>
      </trkpt>
      <trkpt lat="37.06533" lon="-3.3737">
        <ele>3014.8</ele>
        <time>2021-08-06 18:28:01</time>
      </trkpt>
      <trkpt lat="37.06533" lon="-3.37372">
        <ele>3014.6</ele>
        <time>2021-08-06 18:28:02</time>
      </trkpt>
      <trkpt lat="37.06534" lon="-3.37373">
        <ele>3014.6</ele>
        <time>2021-08-06 18:28:03</time>
      </trkpt>
      <trkpt lat="37.06534" lon="-3.37374">
        <ele>3014.6</ele>
        <time>2021-08-06 18:28:04</time>
      </trkpt>
      <trkpt lat="37.06535" lon="-3.37375">
        <ele>3014.4</ele>
        <time>2021-08-06 18:28:05</time>
      </trkpt>
      <trkpt lat="37.06535" lon="-3.37376">
        <ele>3014.2</ele>
        <time>2021-08-06 18:28:06</time>
      </trkpt>
      <trkpt lat="37.06535" lon="-3.37377">
        <ele>3013.8</ele>
        <time>2021-08-06 18:28:07</time>
      </trkpt>
      <trkpt lat="37.06536" lon="-3.37377">
        <ele>3013.6</ele>
        <time>2021-08-06 18:28:08</time>
      </trkpt>
      <trkpt lat="37.06537" lon="-3.37376">
        <ele>3013.4</ele>
        <time>2021-08-06 18:28:09</time>
      </trkpt>
      <trkpt lat="37.06538" lon="-3.37376">
        <ele>3013.2</ele>
        <time>2021-08-06 18:28:10</time>
      </trkpt>
      <trkpt lat="37.06538" lon="-3.37376">
        <ele>3013.2</ele>
        <time>2021-08-06 18:28:11</time>
      </trkpt>
      <trkpt lat="37.06539" lon="-3.37376">
        <ele>3012.8</ele>
        <time>2021-08-06 18:28:12</time>
      </trkpt>
      <trkpt lat="37.06539" lon="-3.37377">
        <ele>3012.2</ele>
        <time>2021-08-06 18:28:13</time>
      </trkpt>
      <trkpt lat="37.0654" lon="-3.37378">
        <ele>3011.6</ele>
        <time>2021-08-06 18:28:14</time>
      </trkpt>
      <trkpt lat="37.0654" lon="-3.37378">
        <ele>3011.4</ele>
        <time>2021-08-06 18:28:15</time>
      </trkpt>
      <trkpt lat="37.0654" lon="-3.37378">
        <ele>3011.2</ele>
        <time>2021-08-06 18:28:16</time>
      </trkpt>
      <trkpt lat="37.06541" lon="-3.37379">
        <ele>3011.4</ele>
        <time>2021-08-06 18:28:17</time>
      </trkpt>
      <trkpt lat="37.06541" lon="-3.3738">
        <ele>3011.6</ele>
        <time>2021-08-06 18:28:18</time>
      </trkpt>
      <trkpt lat="37.06541" lon="-3.37381">
        <ele>3011.6</ele>
        <time>2021-08-06 18:28:19</time>
      </trkpt>
      <trkpt lat="37.06542" lon="-3.37381">
        <ele>3011.6</ele>
        <time>2021-08-06 18:28:20</time>
      </trkpt>
      <trkpt lat="37.06542" lon="-3.37382">
        <ele>3011.6</ele>
        <time>2021-08-06 18:28:21</time>
      </trkpt>
      <trkpt lat="37.06542" lon="-3.37382">
        <ele>3011.4</ele>
        <time>2021-08-06 18:28:22</time>
      </trkpt>
      <trkpt lat="37.06543" lon="-3.37384">
        <ele>3011.2</ele>
        <time>2021-08-06 18:28:23</time>
      </trkpt>
      <trkpt lat="37.06543" lon="-3.37384">
        <ele>3011</ele>
        <time>2021-08-06 18:28:24</time>
      </trkpt>
      <trkpt lat="37.06544" lon="-3.37385">
        <ele>3010.8</ele>
        <time>2021-08-06 18:28:25</time>
      </trkpt>
      <trkpt lat="37.06544" lon="-3.37385">
        <ele>3010.8</ele>
        <time>2021-08-06 18:28:26</time>
      </trkpt>
      <trkpt lat="37.06545" lon="-3.37385">
        <ele>3010.6</ele>
        <time>2021-08-06 18:28:27</time>
      </trkpt>
      <trkpt lat="37.06545" lon="-3.37386">
        <ele>3010.4</ele>
        <time>2021-08-06 18:28:28</time>
      </trkpt>
      <trkpt lat="37.06546" lon="-3.37387">
        <ele>3010.2</ele>
        <time>2021-08-06 18:28:29</time>
      </trkpt>
      <trkpt lat="37.06546" lon="-3.37392">
        <ele>3010</ele>
        <time>2021-08-06 18:28:30</time>
      </trkpt>
      <trkpt lat="37.06546" lon="-3.37393">
        <ele>3010</ele>
        <time>2021-08-06 18:28:31</time>
      </trkpt>
      <trkpt lat="37.06547" lon="-3.37394">
        <ele>3009.8</ele>
        <time>2021-08-06 18:28:32</time>
      </trkpt>
      <trkpt lat="37.06548" lon="-3.37394">
        <ele>3009.8</ele>
        <time>2021-08-06 18:28:33</time>
      </trkpt>
      <trkpt lat="37.06549" lon="-3.37395">
        <ele>3009.8</ele>
        <time>2021-08-06 18:28:34</time>
      </trkpt>
      <trkpt lat="37.0655" lon="-3.37396">
        <ele>3009.6</ele>
        <time>2021-08-06 18:28:35</time>
      </trkpt>
      <trkpt lat="37.06551" lon="-3.37396">
        <ele>3009.4</ele>
        <time>2021-08-06 18:28:36</time>
      </trkpt>
      <trkpt lat="37.06552" lon="-3.37395">
        <ele>3009.4</ele>
        <time>2021-08-06 18:28:37</time>
      </trkpt>
      <trkpt lat="37.06553" lon="-3.37396">
        <ele>3009.2</ele>
        <time>2021-08-06 18:28:38</time>
      </trkpt>
      <trkpt lat="37.06553" lon="-3.37396">
        <ele>3009</ele>
        <time>2021-08-06 18:28:39</time>
      </trkpt>
      <trkpt lat="37.06554" lon="-3.37397">
        <ele>3008.8</ele>
        <time>2021-08-06 18:28:40</time>
      </trkpt>
      <trkpt lat="37.06555" lon="-3.37397">
        <ele>3008.6</ele>
        <time>2021-08-06 18:28:41</time>
      </trkpt>
      <trkpt lat="37.06556" lon="-3.37398">
        <ele>3008.2</ele>
        <time>2021-08-06 18:28:42</time>
      </trkpt>
      <trkpt lat="37.06557" lon="-3.37399">
        <ele>3008.2</ele>
        <time>2021-08-06 18:28:43</time>
      </trkpt>
      <trkpt lat="37.06558" lon="-3.374">
        <ele>3008</ele>
        <time>2021-08-06 18:28:44</time>
      </trkpt>
      <trkpt lat="37.06559" lon="-3.37401">
        <ele>3007.8</ele>
        <time>2021-08-06 18:28:45</time>
      </trkpt>
      <trkpt lat="37.0656" lon="-3.37401">
        <ele>3007.8</ele>
        <time>2021-08-06 18:28:46</time>
      </trkpt>
      <trkpt lat="37.06561" lon="-3.37402">
        <ele>3007.8</ele>
        <time>2021-08-06 18:28:47</time>
      </trkpt>
      <trkpt lat="37.06563" lon="-3.37402">
        <ele>3007.8</ele>
        <time>2021-08-06 18:28:48</time>
      </trkpt>
      <trkpt lat="37.06564" lon="-3.37403">
        <ele>3007.8</ele>
        <time>2021-08-06 18:28:49</time>
      </trkpt>
      <trkpt lat="37.06565" lon="-3.37402">
        <ele>3007.8</ele>
        <time>2021-08-06 18:28:50</time>
      </trkpt>
      <trkpt lat="37.06566" lon="-3.37402">
        <ele>3007.8</ele>
        <time>2021-08-06 18:28:51</time>
      </trkpt>
      <trkpt lat="37.06567" lon="-3.37402">
        <ele>3008</ele>
        <time>2021-08-06 18:28:52</time>
      </trkpt>
      <trkpt lat="37.06568" lon="-3.37401">
        <ele>3008</ele>
        <time>2021-08-06 18:28:53</time>
      </trkpt>
      <trkpt lat="37.06569" lon="-3.37401">
        <ele>3008</ele>
        <time>2021-08-06 18:28:54</time>
      </trkpt>
      <trkpt lat="37.0657" lon="-3.37402">
        <ele>3008.2</ele>
        <time>2021-08-06 18:28:55</time>
      </trkpt>
      <trkpt lat="37.06571" lon="-3.37403">
        <ele>3008.2</ele>
        <time>2021-08-06 18:28:56</time>
      </trkpt>
      <trkpt lat="37.06572" lon="-3.37403">
        <ele>3008.2</ele>
        <time>2021-08-06 18:28:57</time>
      </trkpt>
      <trkpt lat="37.06573" lon="-3.37403">
        <ele>3008</ele>
        <time>2021-08-06 18:28:58</time>
      </trkpt>
      <trkpt lat="37.06575" lon="-3.37399">
        <ele>3008</ele>
        <time>2021-08-06 18:28:59</time>
      </trkpt>
      <trkpt lat="37.06576" lon="-3.37398">
        <ele>3008</ele>
        <time>2021-08-06 18:29:00</time>
      </trkpt>
      <trkpt lat="37.06577" lon="-3.37397">
        <ele>3007.8</ele>
        <time>2021-08-06 18:29:01</time>
      </trkpt>
      <trkpt lat="37.06579" lon="-3.37395">
        <ele>3007.8</ele>
        <time>2021-08-06 18:29:02</time>
      </trkpt>
      <trkpt lat="37.0658" lon="-3.37395">
        <ele>3008</ele>
        <time>2021-08-06 18:29:03</time>
      </trkpt>
      <trkpt lat="37.06581" lon="-3.37395">
        <ele>3008</ele>
        <time>2021-08-06 18:29:04</time>
      </trkpt>
      <trkpt lat="37.06582" lon="-3.37394">
        <ele>3008</ele>
        <time>2021-08-06 18:29:05</time>
      </trkpt>
      <trkpt lat="37.06583" lon="-3.37394">
        <ele>3008</ele>
        <time>2021-08-06 18:29:06</time>
      </trkpt>
      <trkpt lat="37.06584" lon="-3.37394">
        <ele>3008</ele>
        <time>2021-08-06 18:29:07</time>
      </trkpt>
      <trkpt lat="37.06585" lon="-3.37394">
        <ele>3008</ele>
        <time>2021-08-06 18:29:08</time>
      </trkpt>
      <trkpt lat="37.06585" lon="-3.37394">
        <ele>3008</ele>
        <time>2021-08-06 18:29:09</time>
      </trkpt>
      <trkpt lat="37.06587" lon="-3.37395">
        <ele>3008</ele>
        <time>2021-08-06 18:29:10</time>
      </trkpt>
      <trkpt lat="37.06587" lon="-3.37395">
        <ele>3007.8</ele>
        <time>2021-08-06 18:29:11</time>
      </trkpt>
      <trkpt lat="37.06588" lon="-3.37395">
        <ele>3007.8</ele>
        <time>2021-08-06 18:29:12</time>
      </trkpt>
      <trkpt lat="37.06588" lon="-3.37396">
        <ele>3007.6</ele>
        <time>2021-08-06 18:29:13</time>
      </trkpt>
      <trkpt lat="37.06589" lon="-3.37396">
        <ele>3007.2</ele>
        <time>2021-08-06 18:29:14</time>
      </trkpt>
      <trkpt lat="37.0659" lon="-3.37397">
        <ele>3007</ele>
        <time>2021-08-06 18:29:15</time>
      </trkpt>
      <trkpt lat="37.0659" lon="-3.37398">
        <ele>3006.8</ele>
        <time>2021-08-06 18:29:16</time>
      </trkpt>
      <trkpt lat="37.06591" lon="-3.37399">
        <ele>3006.6</ele>
        <time>2021-08-06 18:29:17</time>
      </trkpt>
      <trkpt lat="37.06592" lon="-3.374">
        <ele>3006.6</ele>
        <time>2021-08-06 18:29:18</time>
      </trkpt>
      <trkpt lat="37.06593" lon="-3.37401">
        <ele>3006.6</ele>
        <time>2021-08-06 18:29:19</time>
      </trkpt>
      <trkpt lat="37.06594" lon="-3.37402">
        <ele>3006.6</ele>
        <time>2021-08-06 18:29:20</time>
      </trkpt>
      <trkpt lat="37.06594" lon="-3.37403">
        <ele>3006.6</ele>
        <time>2021-08-06 18:29:21</time>
      </trkpt>
      <trkpt lat="37.06595" lon="-3.37404">
        <ele>3006.6</ele>
        <time>2021-08-06 18:29:22</time>
      </trkpt>
      <trkpt lat="37.06596" lon="-3.37404">
        <ele>3006.4</ele>
        <time>2021-08-06 18:29:23</time>
      </trkpt>
      <trkpt lat="37.06597" lon="-3.37405">
        <ele>3006.2</ele>
        <time>2021-08-06 18:29:24</time>
      </trkpt>
      <trkpt lat="37.06598" lon="-3.37406">
        <ele>3006</ele>
        <time>2021-08-06 18:29:25</time>
      </trkpt>
      <trkpt lat="37.06598" lon="-3.37407">
        <ele>3005.8</ele>
        <time>2021-08-06 18:29:26</time>
      </trkpt>
      <trkpt lat="37.06599" lon="-3.37408">
        <ele>3005.8</ele>
        <time>2021-08-06 18:29:27</time>
      </trkpt>
      <trkpt lat="37.066" lon="-3.37409">
        <ele>3005.8</ele>
        <time>2021-08-06 18:29:28</time>
      </trkpt>
      <trkpt lat="37.06601" lon="-3.37412">
        <ele>3005.8</ele>
        <time>2021-08-06 18:29:29</time>
      </trkpt>
      <trkpt lat="37.06602" lon="-3.37413">
        <ele>3005.8</ele>
        <time>2021-08-06 18:29:30</time>
      </trkpt>
      <trkpt lat="37.06603" lon="-3.37413">
        <ele>3005.6</ele>
        <time>2021-08-06 18:29:31</time>
      </trkpt>
      <trkpt lat="37.06605" lon="-3.37414">
        <ele>3005.6</ele>
        <time>2021-08-06 18:29:32</time>
      </trkpt>
      <trkpt lat="37.06606" lon="-3.37415">
        <ele>3005.6</ele>
        <time>2021-08-06 18:29:33</time>
      </trkpt>
      <trkpt lat="37.06606" lon="-3.37415">
        <ele>3005.6</ele>
        <time>2021-08-06 18:29:34</time>
      </trkpt>
      <trkpt lat="37.06608" lon="-3.37416">
        <ele>3005.6</ele>
        <time>2021-08-06 18:29:35</time>
      </trkpt>
      <trkpt lat="37.06608" lon="-3.37417">
        <ele>3005.6</ele>
        <time>2021-08-06 18:29:36</time>
      </trkpt>
      <trkpt lat="37.06609" lon="-3.37418">
        <ele>3005.4</ele>
        <time>2021-08-06 18:29:37</time>
      </trkpt>
      <trkpt lat="37.0661" lon="-3.37418">
        <ele>3005.2</ele>
        <time>2021-08-06 18:29:38</time>
      </trkpt>
      <trkpt lat="37.06611" lon="-3.37418">
        <ele>3005.2</ele>
        <time>2021-08-06 18:29:39</time>
      </trkpt>
      <trkpt lat="37.06612" lon="-3.37418">
        <ele>3005</ele>
        <time>2021-08-06 18:29:40</time>
      </trkpt>
      <trkpt lat="37.06613" lon="-3.37418">
        <ele>3005</ele>
        <time>2021-08-06 18:29:41</time>
      </trkpt>
      <trkpt lat="37.06614" lon="-3.37417">
        <ele>3005</ele>
        <time>2021-08-06 18:29:42</time>
      </trkpt>
      <trkpt lat="37.06615" lon="-3.37417">
        <ele>3005</ele>
        <time>2021-08-06 18:29:43</time>
      </trkpt>
      <trkpt lat="37.06616" lon="-3.37417">
        <ele>3005</ele>
        <time>2021-08-06 18:29:44</time>
      </trkpt>
      <trkpt lat="37.06618" lon="-3.37417">
        <ele>3005</ele>
        <time>2021-08-06 18:29:45</time>
      </trkpt>
      <trkpt lat="37.06619" lon="-3.37418">
        <ele>3004.8</ele>
        <time>2021-08-06 18:29:46</time>
      </trkpt>
      <trkpt lat="37.0662" lon="-3.37418">
        <ele>3004.8</ele>
        <time>2021-08-06 18:29:47</time>
      </trkpt>
      <trkpt lat="37.06621" lon="-3.37418">
        <ele>3004.8</ele>
        <time>2021-08-06 18:29:48</time>
      </trkpt>
      <trkpt lat="37.06621" lon="-3.37419">
        <ele>3004.8</ele>
        <time>2021-08-06 18:29:49</time>
      </trkpt>
      <trkpt lat="37.06621" lon="-3.37419">
        <ele>3004.8</ele>
        <time>2021-08-06 18:29:50</time>
      </trkpt>
      <trkpt lat="37.06622" lon="-3.37419">
        <ele>3004.6</ele>
        <time>2021-08-06 18:29:51</time>
      </trkpt>
      <trkpt lat="37.06623" lon="-3.37418">
        <ele>3004.4</ele>
        <time>2021-08-06 18:29:52</time>
      </trkpt>
      <trkpt lat="37.06623" lon="-3.37419">
        <ele>3004.2</ele>
        <time>2021-08-06 18:29:53</time>
      </trkpt>
      <trkpt lat="37.06624" lon="-3.3742">
        <ele>3003.8</ele>
        <time>2021-08-06 18:29:54</time>
      </trkpt>
      <trkpt lat="37.06625" lon="-3.3742">
        <ele>3003.6</ele>
        <time>2021-08-06 18:29:55</time>
      </trkpt>
      <trkpt lat="37.06626" lon="-3.3742">
        <ele>3003.2</ele>
        <time>2021-08-06 18:29:56</time>
      </trkpt>
      <trkpt lat="37.06627" lon="-3.3742">
        <ele>3003.2</ele>
        <time>2021-08-06 18:29:57</time>
      </trkpt>
      <trkpt lat="37.06628" lon="-3.3742">
        <ele>3003.2</ele>
        <time>2021-08-06 18:29:58</time>
      </trkpt>
      <trkpt lat="37.06629" lon="-3.37421">
        <ele>3003.4</ele>
        <time>2021-08-06 18:29:59</time>
      </trkpt>
      <trkpt lat="37.06629" lon="-3.37423">
        <ele>3003.4</ele>
        <time>2021-08-06 18:30:00</time>
      </trkpt>
      <trkpt lat="37.0663" lon="-3.37424">
        <ele>3003.4</ele>
        <time>2021-08-06 18:30:01</time>
      </trkpt>
      <trkpt lat="37.06631" lon="-3.37425">
        <ele>3003.4</ele>
        <time>2021-08-06 18:30:02</time>
      </trkpt>
      <trkpt lat="37.06632" lon="-3.37427">
        <ele>3003.6</ele>
        <time>2021-08-06 18:30:03</time>
      </trkpt>
      <trkpt lat="37.06633" lon="-3.37428">
        <ele>3003.4</ele>
        <time>2021-08-06 18:30:04</time>
      </trkpt>
      <trkpt lat="37.06633" lon="-3.37428">
        <ele>3003.4</ele>
        <time>2021-08-06 18:30:05</time>
      </trkpt>
      <trkpt lat="37.06634" lon="-3.37429">
        <ele>3003.4</ele>
        <time>2021-08-06 18:30:06</time>
      </trkpt>
      <trkpt lat="37.06635" lon="-3.3743">
        <ele>3003.4</ele>
        <time>2021-08-06 18:30:07</time>
      </trkpt>
      <trkpt lat="37.06635" lon="-3.37431">
        <ele>3003.2</ele>
        <time>2021-08-06 18:30:08</time>
      </trkpt>
      <trkpt lat="37.06636" lon="-3.37435">
        <ele>3003.2</ele>
        <time>2021-08-06 18:30:09</time>
      </trkpt>
      <trkpt lat="37.06637" lon="-3.37435">
        <ele>3003</ele>
        <time>2021-08-06 18:30:10</time>
      </trkpt>
      <trkpt lat="37.06638" lon="-3.37436">
        <ele>3003</ele>
        <time>2021-08-06 18:30:11</time>
      </trkpt>
      <trkpt lat="37.06639" lon="-3.37436">
        <ele>3003</ele>
        <time>2021-08-06 18:30:12</time>
      </trkpt>
      <trkpt lat="37.06641" lon="-3.37432">
        <ele>3003</ele>
        <time>2021-08-06 18:30:13</time>
      </trkpt>
      <trkpt lat="37.06642" lon="-3.37432">
        <ele>3003</ele>
        <time>2021-08-06 18:30:14</time>
      </trkpt>
      <trkpt lat="37.06643" lon="-3.37432">
        <ele>3003</ele>
        <time>2021-08-06 18:30:15</time>
      </trkpt>
      <trkpt lat="37.06643" lon="-3.37435">
        <ele>3003</ele>
        <time>2021-08-06 18:30:16</time>
      </trkpt>
      <trkpt lat="37.06644" lon="-3.37436">
        <ele>3003</ele>
        <time>2021-08-06 18:30:17</time>
      </trkpt>
      <trkpt lat="37.06646" lon="-3.37436">
        <ele>3002.8</ele>
        <time>2021-08-06 18:30:18</time>
      </trkpt>
      <trkpt lat="37.06647" lon="-3.37436">
        <ele>3002.8</ele>
        <time>2021-08-06 18:30:19</time>
      </trkpt>
      <trkpt lat="37.06648" lon="-3.37435">
        <ele>3002.6</ele>
        <time>2021-08-06 18:30:20</time>
      </trkpt>
      <trkpt lat="37.06649" lon="-3.37435">
        <ele>3002.4</ele>
        <time>2021-08-06 18:30:21</time>
      </trkpt>
      <trkpt lat="37.0665" lon="-3.37434">
        <ele>3002.4</ele>
        <time>2021-08-06 18:30:22</time>
      </trkpt>
      <trkpt lat="37.0665" lon="-3.37436">
        <ele>3002.2</ele>
        <time>2021-08-06 18:30:23</time>
      </trkpt>
      <trkpt lat="37.06651" lon="-3.37438">
        <ele>3002.2</ele>
        <time>2021-08-06 18:30:24</time>
      </trkpt>
      <trkpt lat="37.06652" lon="-3.37438">
        <ele>3002</ele>
        <time>2021-08-06 18:30:25</time>
      </trkpt>
      <trkpt lat="37.06653" lon="-3.37438">
        <ele>3002</ele>
        <time>2021-08-06 18:30:26</time>
      </trkpt>
      <trkpt lat="37.06654" lon="-3.37438">
        <ele>3002</ele>
        <time>2021-08-06 18:30:27</time>
      </trkpt>
      <trkpt lat="37.06655" lon="-3.37438">
        <ele>3002.2</ele>
        <time>2021-08-06 18:30:28</time>
      </trkpt>
      <trkpt lat="37.06656" lon="-3.37438">
        <ele>3002.2</ele>
        <time>2021-08-06 18:30:29</time>
      </trkpt>
      <trkpt lat="37.06657" lon="-3.37439">
        <ele>3002.2</ele>
        <time>2021-08-06 18:30:30</time>
      </trkpt>
      <trkpt lat="37.06658" lon="-3.37438">
        <ele>3002.2</ele>
        <time>2021-08-06 18:30:31</time>
      </trkpt>
      <trkpt lat="37.06659" lon="-3.37438">
        <ele>3002.2</ele>
        <time>2021-08-06 18:30:32</time>
      </trkpt>
      <trkpt lat="37.06659" lon="-3.37438">
        <ele>3002</ele>
        <time>2021-08-06 18:30:33</time>
      </trkpt>
      <trkpt lat="37.0666" lon="-3.37438">
        <ele>3001.6</ele>
        <time>2021-08-06 18:30:34</time>
      </trkpt>
      <trkpt lat="37.06661" lon="-3.37438">
        <ele>3001.2</ele>
        <time>2021-08-06 18:30:35</time>
      </trkpt>
      <trkpt lat="37.06663" lon="-3.37438">
        <ele>3001.2</ele>
        <time>2021-08-06 18:30:36</time>
      </trkpt>
      <trkpt lat="37.06663" lon="-3.37438">
        <ele>3001</ele>
        <time>2021-08-06 18:30:37</time>
      </trkpt>
      <trkpt lat="37.06665" lon="-3.37438">
        <ele>3001</ele>
        <time>2021-08-06 18:30:38</time>
      </trkpt>
      <trkpt lat="37.06666" lon="-3.37439">
        <ele>3001</ele>
        <time>2021-08-06 18:30:39</time>
      </trkpt>
      <trkpt lat="37.06667" lon="-3.37439">
        <ele>3001</ele>
        <time>2021-08-06 18:30:40</time>
      </trkpt>
      <trkpt lat="37.06669" lon="-3.37439">
        <ele>3001</ele>
        <time>2021-08-06 18:30:41</time>
      </trkpt>
      <trkpt lat="37.06669" lon="-3.37439">
        <ele>3001</ele>
        <time>2021-08-06 18:30:42</time>
      </trkpt>
      <trkpt lat="37.0667" lon="-3.37439">
        <ele>3000.8</ele>
        <time>2021-08-06 18:30:43</time>
      </trkpt>
      <trkpt lat="37.06671" lon="-3.37439">
        <ele>3000.8</ele>
        <time>2021-08-06 18:30:44</time>
      </trkpt>
      <trkpt lat="37.06672" lon="-3.37439">
        <ele>3000.6</ele>
        <time>2021-08-06 18:30:45</time>
      </trkpt>
      <trkpt lat="37.06673" lon="-3.37438">
        <ele>3000.6</ele>
        <time>2021-08-06 18:30:46</time>
      </trkpt>
      <trkpt lat="37.06674" lon="-3.37438">
        <ele>3000.4</ele>
        <time>2021-08-06 18:30:47</time>
      </trkpt>
      <trkpt lat="37.06676" lon="-3.37439">
        <ele>3000.4</ele>
        <time>2021-08-06 18:30:48</time>
      </trkpt>
      <trkpt lat="37.06677" lon="-3.37439">
        <ele>3000.4</ele>
        <time>2021-08-06 18:30:49</time>
      </trkpt>
      <trkpt lat="37.06678" lon="-3.37439">
        <ele>3000.2</ele>
        <time>2021-08-06 18:30:50</time>
      </trkpt>
      <trkpt lat="37.06679" lon="-3.37439">
        <ele>3000.2</ele>
        <time>2021-08-06 18:30:51</time>
      </trkpt>
      <trkpt lat="37.0668" lon="-3.37439">
        <ele>3000</ele>
        <time>2021-08-06 18:30:52</time>
      </trkpt>
      <trkpt lat="37.06682" lon="-3.37441">
        <ele>2999.8</ele>
        <time>2021-08-06 18:30:53</time>
      </trkpt>
      <trkpt lat="37.06682" lon="-3.37441">
        <ele>2999.8</ele>
        <time>2021-08-06 18:30:54</time>
      </trkpt>
      <trkpt lat="37.06683" lon="-3.37442">
        <ele>2999.6</ele>
        <time>2021-08-06 18:30:55</time>
      </trkpt>
      <trkpt lat="37.06684" lon="-3.37442">
        <ele>2999.6</ele>
        <time>2021-08-06 18:30:56</time>
      </trkpt>
      <trkpt lat="37.06685" lon="-3.37444">
        <ele>2999.6</ele>
        <time>2021-08-06 18:30:57</time>
      </trkpt>
      <trkpt lat="37.06686" lon="-3.37445">
        <ele>2999.6</ele>
        <time>2021-08-06 18:30:58</time>
      </trkpt>
      <trkpt lat="37.06687" lon="-3.37445">
        <ele>2999.6</ele>
        <time>2021-08-06 18:30:59</time>
      </trkpt>
      <trkpt lat="37.06688" lon="-3.37446">
        <ele>2999.6</ele>
        <time>2021-08-06 18:31:00</time>
      </trkpt>
      <trkpt lat="37.06689" lon="-3.37446">
        <ele>2999.4</ele>
        <time>2021-08-06 18:31:01</time>
      </trkpt>
      <trkpt lat="37.0669" lon="-3.37446">
        <ele>2999.4</ele>
        <time>2021-08-06 18:31:02</time>
      </trkpt>
      <trkpt lat="37.0669" lon="-3.37446">
        <ele>2999.2</ele>
        <time>2021-08-06 18:31:03</time>
      </trkpt>
      <trkpt lat="37.06691" lon="-3.37446">
        <ele>2999.2</ele>
        <time>2021-08-06 18:31:04</time>
      </trkpt>
      <trkpt lat="37.06692" lon="-3.37447">
        <ele>2999.2</ele>
        <time>2021-08-06 18:31:05</time>
      </trkpt>
      <trkpt lat="37.06694" lon="-3.37446">
        <ele>2999.2</ele>
        <time>2021-08-06 18:31:06</time>
      </trkpt>
      <trkpt lat="37.06694" lon="-3.37446">
        <ele>2999.2</ele>
        <time>2021-08-06 18:31:07</time>
      </trkpt>
      <trkpt lat="37.06695" lon="-3.37447">
        <ele>2999.2</ele>
        <time>2021-08-06 18:31:08</time>
      </trkpt>
      <trkpt lat="37.06697" lon="-3.37445">
        <ele>2999</ele>
        <time>2021-08-06 18:31:09</time>
      </trkpt>
      <trkpt lat="37.06698" lon="-3.37444">
        <ele>2998.6</ele>
        <time>2021-08-06 18:31:10</time>
      </trkpt>
      <trkpt lat="37.06699" lon="-3.37444">
        <ele>2998.4</ele>
        <time>2021-08-06 18:31:11</time>
      </trkpt>
      <trkpt lat="37.067" lon="-3.37444">
        <ele>2998.4</ele>
        <time>2021-08-06 18:31:12</time>
      </trkpt>
      <trkpt lat="37.067" lon="-3.37444">
        <ele>2999</ele>
        <time>2021-08-06 18:31:13</time>
      </trkpt>
      <trkpt lat="37.067" lon="-3.37443">
        <ele>2999.6</ele>
        <time>2021-08-06 18:31:14</time>
      </trkpt>
      <trkpt lat="37.06701" lon="-3.37442">
        <ele>2999</ele>
        <time>2021-08-06 18:31:15</time>
      </trkpt>
      <trkpt lat="37.06701" lon="-3.37443">
        <ele>2998.8</ele>
        <time>2021-08-06 18:31:16</time>
      </trkpt>
      <trkpt lat="37.06701" lon="-3.37444">
        <ele>2998.6</ele>
        <time>2021-08-06 18:31:17</time>
      </trkpt>
      <trkpt lat="37.06702" lon="-3.37444">
        <ele>2998.6</ele>
        <time>2021-08-06 18:31:18</time>
      </trkpt>
      <trkpt lat="37.06703" lon="-3.37446">
        <ele>2998.6</ele>
        <time>2021-08-06 18:31:19</time>
      </trkpt>
      <trkpt lat="37.06704" lon="-3.37446">
        <ele>2998.6</ele>
        <time>2021-08-06 18:31:20</time>
      </trkpt>
      <trkpt lat="37.06704" lon="-3.37447">
        <ele>2998.4</ele>
        <time>2021-08-06 18:31:21</time>
      </trkpt>
      <trkpt lat="37.06704" lon="-3.37447">
        <ele>2998.4</ele>
        <time>2021-08-06 18:31:22</time>
      </trkpt>
      <trkpt lat="37.06705" lon="-3.37448">
        <ele>2998.2</ele>
        <time>2021-08-06 18:31:23</time>
      </trkpt>
      <trkpt lat="37.06706" lon="-3.37449">
        <ele>2998</ele>
        <time>2021-08-06 18:31:24</time>
      </trkpt>
      <trkpt lat="37.06706" lon="-3.37451">
        <ele>2997.8</ele>
        <time>2021-08-06 18:31:25</time>
      </trkpt>
      <trkpt lat="37.06707" lon="-3.37451">
        <ele>2997.6</ele>
        <time>2021-08-06 18:31:26</time>
      </trkpt>
      <trkpt lat="37.06707" lon="-3.37451">
        <ele>2997.4</ele>
        <time>2021-08-06 18:31:27</time>
      </trkpt>
      <trkpt lat="37.06708" lon="-3.37452">
        <ele>2997.2</ele>
        <time>2021-08-06 18:31:28</time>
      </trkpt>
      <trkpt lat="37.06707" lon="-3.37452">
        <ele>2997.2</ele>
        <time>2021-08-06 18:31:29</time>
      </trkpt>
      <trkpt lat="37.06707" lon="-3.37452">
        <ele>2997.4</ele>
        <time>2021-08-06 18:31:30</time>
      </trkpt>
      <trkpt lat="37.06707" lon="-3.37452">
        <ele>2997.8</ele>
        <time>2021-08-06 18:31:31</time>
      </trkpt>
      <trkpt lat="37.06707" lon="-3.37451">
        <ele>2998.2</ele>
        <time>2021-08-06 18:31:32</time>
      </trkpt>
      <trkpt lat="37.06707" lon="-3.37451">
        <ele>2998.4</ele>
        <time>2021-08-06 18:31:33</time>
      </trkpt>
      <trkpt lat="37.06707" lon="-3.37451">
        <ele>2998.4</ele>
        <time>2021-08-06 18:31:34</time>
      </trkpt>
      <trkpt lat="37.06707" lon="-3.37451">
        <ele>2998.2</ele>
        <time>2021-08-06 18:31:35</time>
      </trkpt>
      <trkpt lat="37.06707" lon="-3.37451">
        <ele>2998</ele>
        <time>2021-08-06 18:31:36</time>
      </trkpt>
      <trkpt lat="37.06707" lon="-3.37451">
        <ele>2998</ele>
        <time>2021-08-06 18:31:37</time>
      </trkpt>
      <trkpt lat="37.06707" lon="-3.37451">
        <ele>2998</ele>
        <time>2021-08-06 18:31:38</time>
      </trkpt>
      <trkpt lat="37.06707" lon="-3.3745">
        <ele>2997.8</ele>
        <time>2021-08-06 18:31:39</time>
      </trkpt>
      <trkpt lat="37.06707" lon="-3.37451">
        <ele>2997.8</ele>
        <time>2021-08-06 18:31:40</time>
      </trkpt>
      <trkpt lat="37.06707" lon="-3.37451">
        <ele>2997.8</ele>
        <time>2021-08-06 18:31:41</time>
      </trkpt>
      <trkpt lat="37.06707" lon="-3.37451">
        <ele>2997.8</ele>
        <time>2021-08-06 18:31:42</time>
      </trkpt>
      <trkpt lat="37.06707" lon="-3.37451">
        <ele>2997.8</ele>
        <time>2021-08-06 18:31:43</time>
      </trkpt>
      <trkpt lat="37.06707" lon="-3.37451">
        <ele>2997.6</ele>
        <time>2021-08-06 18:31:44</time>
      </trkpt>
      <trkpt lat="37.06707" lon="-3.37451">
        <ele>2997.6</ele>
        <time>2021-08-06 18:31:45</time>
      </trkpt>
      <trkpt lat="37.06707" lon="-3.3745">
        <ele>2997.4</ele>
        <time>2021-08-06 18:31:46</time>
      </trkpt>
      <trkpt lat="37.06707" lon="-3.3745">
        <ele>2997.2</ele>
        <time>2021-08-06 18:31:47</time>
      </trkpt>
      <trkpt lat="37.06707" lon="-3.3745">
        <ele>2997</ele>
        <time>2021-08-06 18:31:48</time>
      </trkpt>
      <trkpt lat="37.06707" lon="-3.37449">
        <ele>2997.2</ele>
        <time>2021-08-06 18:31:49</time>
      </trkpt>
      <trkpt lat="37.06707" lon="-3.3745">
        <ele>2997.4</ele>
        <time>2021-08-06 18:31:50</time>
      </trkpt>
      <trkpt lat="37.06707" lon="-3.3745">
        <ele>2997.6</ele>
        <time>2021-08-06 18:31:51</time>
      </trkpt>
      <trkpt lat="37.06706" lon="-3.3745">
        <ele>2997.8</ele>
        <time>2021-08-06 18:31:52</time>
      </trkpt>
      <trkpt lat="37.06706" lon="-3.37447">
        <ele>2997.8</ele>
        <time>2021-08-06 18:31:53</time>
      </trkpt>
      <trkpt lat="37.06706" lon="-3.37448">
        <ele>2997.8</ele>
        <time>2021-08-06 18:31:54</time>
      </trkpt>
      <trkpt lat="37.06706" lon="-3.37448">
        <ele>2997.8</ele>
        <time>2021-08-06 18:31:55</time>
      </trkpt>
      <trkpt lat="37.06706" lon="-3.37448">
        <ele>2997.8</ele>
        <time>2021-08-06 18:31:56</time>
      </trkpt>
      <trkpt lat="37.06706" lon="-3.37447">
        <ele>2997.8</ele>
        <time>2021-08-06 18:31:57</time>
      </trkpt>
      <trkpt lat="37.06708" lon="-3.37444">
        <ele>2997.8</ele>
        <time>2021-08-06 18:31:58</time>
      </trkpt>
      <trkpt lat="37.06708" lon="-3.37444">
        <ele>2997.8</ele>
        <time>2021-08-06 18:31:59</time>
      </trkpt>
      <trkpt lat="37.06708" lon="-3.37444">
        <ele>2997.8</ele>
        <time>2021-08-06 18:32:00</time>
      </trkpt>
      <trkpt lat="37.06709" lon="-3.37444">
        <ele>2998</ele>
        <time>2021-08-06 18:32:01</time>
      </trkpt>
      <trkpt lat="37.06709" lon="-3.37445">
        <ele>2998</ele>
        <time>2021-08-06 18:32:02</time>
      </trkpt>
      <trkpt lat="37.06709" lon="-3.37445">
        <ele>2998</ele>
        <time>2021-08-06 18:32:03</time>
      </trkpt>
      <trkpt lat="37.06709" lon="-3.37446">
        <ele>2998</ele>
        <time>2021-08-06 18:32:04</time>
      </trkpt>
      <trkpt lat="37.0671" lon="-3.37447">
        <ele>2997.8</ele>
        <time>2021-08-06 18:32:05</time>
      </trkpt>
      <trkpt lat="37.06711" lon="-3.37447">
        <ele>2997.8</ele>
        <time>2021-08-06 18:32:06</time>
      </trkpt>
      <trkpt lat="37.06712" lon="-3.37448">
        <ele>2997.8</ele>
        <time>2021-08-06 18:32:07</time>
      </trkpt>
      <trkpt lat="37.06713" lon="-3.37448">
        <ele>2997.8</ele>
        <time>2021-08-06 18:32:08</time>
      </trkpt>
      <trkpt lat="37.06713" lon="-3.37448">
        <ele>2997.8</ele>
        <time>2021-08-06 18:32:09</time>
      </trkpt>
      <trkpt lat="37.06715" lon="-3.37448">
        <ele>2997.6</ele>
        <time>2021-08-06 18:32:10</time>
      </trkpt>
      <trkpt lat="37.06716" lon="-3.37448">
        <ele>2997.2</ele>
        <time>2021-08-06 18:32:11</time>
      </trkpt>
      <trkpt lat="37.06716" lon="-3.37449">
        <ele>2996.8</ele>
        <time>2021-08-06 18:32:12</time>
      </trkpt>
      <trkpt lat="37.06717" lon="-3.37449">
        <ele>2996.6</ele>
        <time>2021-08-06 18:32:13</time>
      </trkpt>
      <trkpt lat="37.06718" lon="-3.3745">
        <ele>2996.6</ele>
        <time>2021-08-06 18:32:14</time>
      </trkpt>
      <trkpt lat="37.06718" lon="-3.3745">
        <ele>2996.6</ele>
        <time>2021-08-06 18:32:15</time>
      </trkpt>
      <trkpt lat="37.06719" lon="-3.3745">
        <ele>2996.6</ele>
        <time>2021-08-06 18:32:16</time>
      </trkpt>
      <trkpt lat="37.0672" lon="-3.3745">
        <ele>2996.6</ele>
        <time>2021-08-06 18:32:17</time>
      </trkpt>
      <trkpt lat="37.06721" lon="-3.37451">
        <ele>2996.6</ele>
        <time>2021-08-06 18:32:18</time>
      </trkpt>
      <trkpt lat="37.06722" lon="-3.37451">
        <ele>2996.6</ele>
        <time>2021-08-06 18:32:19</time>
      </trkpt>
      <trkpt lat="37.06722" lon="-3.37451">
        <ele>2996</ele>
        <time>2021-08-06 18:32:20</time>
      </trkpt>
      <trkpt lat="37.06723" lon="-3.37452">
        <ele>2995.6</ele>
        <time>2021-08-06 18:32:21</time>
      </trkpt>
      <trkpt lat="37.06724" lon="-3.37451">
        <ele>2995.4</ele>
        <time>2021-08-06 18:32:22</time>
      </trkpt>
      <trkpt lat="37.06725" lon="-3.37452">
        <ele>2995.4</ele>
        <time>2021-08-06 18:32:23</time>
      </trkpt>
      <trkpt lat="37.06726" lon="-3.37452">
        <ele>2995.4</ele>
        <time>2021-08-06 18:32:24</time>
      </trkpt>
      <trkpt lat="37.06727" lon="-3.37453">
        <ele>2995.6</ele>
        <time>2021-08-06 18:32:25</time>
      </trkpt>
      <trkpt lat="37.06728" lon="-3.37453">
        <ele>2995.8</ele>
        <time>2021-08-06 18:32:26</time>
      </trkpt>
      <trkpt lat="37.06729" lon="-3.37454">
        <ele>2995.8</ele>
        <time>2021-08-06 18:32:27</time>
      </trkpt>
      <trkpt lat="37.06729" lon="-3.37455">
        <ele>2996</ele>
        <time>2021-08-06 18:32:28</time>
      </trkpt>
      <trkpt lat="37.0673" lon="-3.37456">
        <ele>2996.2</ele>
        <time>2021-08-06 18:32:29</time>
      </trkpt>
      <trkpt lat="37.06731" lon="-3.37457">
        <ele>2996.2</ele>
        <time>2021-08-06 18:32:30</time>
      </trkpt>
      <trkpt lat="37.06731" lon="-3.37457">
        <ele>2996.2</ele>
        <time>2021-08-06 18:32:31</time>
      </trkpt>
      <trkpt lat="37.06732" lon="-3.37458">
        <ele>2996.4</ele>
        <time>2021-08-06 18:32:32</time>
      </trkpt>
      <trkpt lat="37.06733" lon="-3.37458">
        <ele>2996.4</ele>
        <time>2021-08-06 18:32:33</time>
      </trkpt>
      <trkpt lat="37.06734" lon="-3.37459">
        <ele>2996.2</ele>
        <time>2021-08-06 18:32:34</time>
      </trkpt>
      <trkpt lat="37.06735" lon="-3.3746">
        <ele>2996.2</ele>
        <time>2021-08-06 18:32:35</time>
      </trkpt>
      <trkpt lat="37.06736" lon="-3.37461">
        <ele>2996.2</ele>
        <time>2021-08-06 18:32:36</time>
      </trkpt>
      <trkpt lat="37.06736" lon="-3.37462">
        <ele>2995.8</ele>
        <time>2021-08-06 18:32:37</time>
      </trkpt>
      <trkpt lat="37.06737" lon="-3.37463">
        <ele>2995.8</ele>
        <time>2021-08-06 18:32:38</time>
      </trkpt>
      <trkpt lat="37.06739" lon="-3.37463">
        <ele>2995.8</ele>
        <time>2021-08-06 18:32:39</time>
      </trkpt>
      <trkpt lat="37.0674" lon="-3.37463">
        <ele>2995.6</ele>
        <time>2021-08-06 18:32:40</time>
      </trkpt>
      <trkpt lat="37.06741" lon="-3.37464">
        <ele>2995.4</ele>
        <time>2021-08-06 18:32:41</time>
      </trkpt>
      <trkpt lat="37.06742" lon="-3.37464">
        <ele>2995.6</ele>
        <time>2021-08-06 18:32:42</time>
      </trkpt>
      <trkpt lat="37.06742" lon="-3.37466">
        <ele>2995.4</ele>
        <time>2021-08-06 18:32:43</time>
      </trkpt>
      <trkpt lat="37.06743" lon="-3.37467">
        <ele>2995.4</ele>
        <time>2021-08-06 18:32:44</time>
      </trkpt>
      <trkpt lat="37.06743" lon="-3.37467">
        <ele>2995.2</ele>
        <time>2021-08-06 18:32:45</time>
      </trkpt>
      <trkpt lat="37.06744" lon="-3.37468">
        <ele>2995.2</ele>
        <time>2021-08-06 18:32:46</time>
      </trkpt>
      <trkpt lat="37.06746" lon="-3.37468">
        <ele>2995.2</ele>
        <time>2021-08-06 18:32:47</time>
      </trkpt>
      <trkpt lat="37.06746" lon="-3.37469">
        <ele>2995.2</ele>
        <time>2021-08-06 18:32:48</time>
      </trkpt>
      <trkpt lat="37.06748" lon="-3.37467">
        <ele>2995.2</ele>
        <time>2021-08-06 18:32:49</time>
      </trkpt>
      <trkpt lat="37.06749" lon="-3.37467">
        <ele>2995.2</ele>
        <time>2021-08-06 18:32:50</time>
      </trkpt>
      <trkpt lat="37.06749" lon="-3.37468">
        <ele>2995.2</ele>
        <time>2021-08-06 18:32:51</time>
      </trkpt>
      <trkpt lat="37.0675" lon="-3.37469">
        <ele>2995.2</ele>
        <time>2021-08-06 18:32:52</time>
      </trkpt>
      <trkpt lat="37.0675" lon="-3.3747">
        <ele>2995</ele>
        <time>2021-08-06 18:32:53</time>
      </trkpt>
      <trkpt lat="37.06751" lon="-3.37471">
        <ele>2994.8</ele>
        <time>2021-08-06 18:32:54</time>
      </trkpt>
      <trkpt lat="37.06751" lon="-3.37471">
        <ele>2994.2</ele>
        <time>2021-08-06 18:32:55</time>
      </trkpt>
      <trkpt lat="37.06752" lon="-3.37472">
        <ele>2994</ele>
        <time>2021-08-06 18:32:56</time>
      </trkpt>
      <trkpt lat="37.06753" lon="-3.37472">
        <ele>2994</ele>
        <time>2021-08-06 18:32:57</time>
      </trkpt>
      <trkpt lat="37.06754" lon="-3.37473">
        <ele>2993.8</ele>
        <time>2021-08-06 18:32:58</time>
      </trkpt>
      <trkpt lat="37.06754" lon="-3.37473">
        <ele>2993.8</ele>
        <time>2021-08-06 18:32:59</time>
      </trkpt>
      <trkpt lat="37.06755" lon="-3.37473">
        <ele>2993.8</ele>
        <time>2021-08-06 18:33:00</time>
      </trkpt>
      <trkpt lat="37.06756" lon="-3.37473">
        <ele>2993.8</ele>
        <time>2021-08-06 18:33:01</time>
      </trkpt>
      <trkpt lat="37.06756" lon="-3.37474">
        <ele>2993.8</ele>
        <time>2021-08-06 18:33:02</time>
      </trkpt>
      <trkpt lat="37.06757" lon="-3.37475">
        <ele>2993.8</ele>
        <time>2021-08-06 18:33:03</time>
      </trkpt>
      <trkpt lat="37.06758" lon="-3.37475">
        <ele>2993.8</ele>
        <time>2021-08-06 18:33:04</time>
      </trkpt>
      <trkpt lat="37.06759" lon="-3.37474">
        <ele>2993.6</ele>
        <time>2021-08-06 18:33:05</time>
      </trkpt>
      <trkpt lat="37.06761" lon="-3.37474">
        <ele>2993.8</ele>
        <time>2021-08-06 18:33:06</time>
      </trkpt>
      <trkpt lat="37.06761" lon="-3.37474">
        <ele>2993.8</ele>
        <time>2021-08-06 18:33:07</time>
      </trkpt>
      <trkpt lat="37.06762" lon="-3.37474">
        <ele>2993.8</ele>
        <time>2021-08-06 18:33:08</time>
      </trkpt>
      <trkpt lat="37.06763" lon="-3.37475">
        <ele>2993.8</ele>
        <time>2021-08-06 18:33:09</time>
      </trkpt>
      <trkpt lat="37.06764" lon="-3.37475">
        <ele>2993.6</ele>
        <time>2021-08-06 18:33:10</time>
      </trkpt>
      <trkpt lat="37.06765" lon="-3.37475">
        <ele>2993.6</ele>
        <time>2021-08-06 18:33:11</time>
      </trkpt>
      <trkpt lat="37.06766" lon="-3.37476">
        <ele>2993.6</ele>
        <time>2021-08-06 18:33:12</time>
      </trkpt>
      <trkpt lat="37.06766" lon="-3.37477">
        <ele>2993.6</ele>
        <time>2021-08-06 18:33:13</time>
      </trkpt>
      <trkpt lat="37.06767" lon="-3.37477">
        <ele>2993.2</ele>
        <time>2021-08-06 18:33:14</time>
      </trkpt>
      <trkpt lat="37.06768" lon="-3.37478">
        <ele>2993.2</ele>
        <time>2021-08-06 18:33:15</time>
      </trkpt>
      <trkpt lat="37.06769" lon="-3.37479">
        <ele>2993</ele>
        <time>2021-08-06 18:33:16</time>
      </trkpt>
      <trkpt lat="37.06769" lon="-3.37479">
        <ele>2993</ele>
        <time>2021-08-06 18:33:17</time>
      </trkpt>
      <trkpt lat="37.0677" lon="-3.3748">
        <ele>2993</ele>
        <time>2021-08-06 18:33:18</time>
      </trkpt>
      <trkpt lat="37.06771" lon="-3.37481">
        <ele>2992.8</ele>
        <time>2021-08-06 18:33:19</time>
      </trkpt>
      <trkpt lat="37.06772" lon="-3.37481">
        <ele>2992.6</ele>
        <time>2021-08-06 18:33:20</time>
      </trkpt>
      <trkpt lat="37.06772" lon="-3.37482">
        <ele>2992.4</ele>
        <time>2021-08-06 18:33:21</time>
      </trkpt>
      <trkpt lat="37.06773" lon="-3.37482">
        <ele>2992.2</ele>
        <time>2021-08-06 18:33:22</time>
      </trkpt>
      <trkpt lat="37.06773" lon="-3.37483">
        <ele>2992.2</ele>
        <time>2021-08-06 18:33:23</time>
      </trkpt>
      <trkpt lat="37.06774" lon="-3.37483">
        <ele>2992</ele>
        <time>2021-08-06 18:33:24</time>
      </trkpt>
      <trkpt lat="37.06774" lon="-3.37484">
        <ele>2992.2</ele>
        <time>2021-08-06 18:33:25</time>
      </trkpt>
      <trkpt lat="37.06775" lon="-3.37484">
        <ele>2992.2</ele>
        <time>2021-08-06 18:33:26</time>
      </trkpt>
      <trkpt lat="37.06776" lon="-3.37485">
        <ele>2992.4</ele>
        <time>2021-08-06 18:33:27</time>
      </trkpt>
      <trkpt lat="37.06777" lon="-3.37486">
        <ele>2992.4</ele>
        <time>2021-08-06 18:33:28</time>
      </trkpt>
      <trkpt lat="37.06777" lon="-3.37486">
        <ele>2992.4</ele>
        <time>2021-08-06 18:33:29</time>
      </trkpt>
      <trkpt lat="37.06778" lon="-3.37486">
        <ele>2992.4</ele>
        <time>2021-08-06 18:33:30</time>
      </trkpt>
      <trkpt lat="37.06779" lon="-3.37487">
        <ele>2992.4</ele>
        <time>2021-08-06 18:33:31</time>
      </trkpt>
      <trkpt lat="37.06779" lon="-3.37487">
        <ele>2992.4</ele>
        <time>2021-08-06 18:33:32</time>
      </trkpt>
      <trkpt lat="37.0678" lon="-3.37488">
        <ele>2992.4</ele>
        <time>2021-08-06 18:33:33</time>
      </trkpt>
      <trkpt lat="37.06781" lon="-3.37488">
        <ele>2992.4</ele>
        <time>2021-08-06 18:33:34</time>
      </trkpt>
      <trkpt lat="37.06782" lon="-3.3749">
        <ele>2992.2</ele>
        <time>2021-08-06 18:33:35</time>
      </trkpt>
      <trkpt lat="37.06782" lon="-3.37492">
        <ele>2992.2</ele>
        <time>2021-08-06 18:33:36</time>
      </trkpt>
      <trkpt lat="37.06783" lon="-3.37493">
        <ele>2992</ele>
        <time>2021-08-06 18:33:37</time>
      </trkpt>
      <trkpt lat="37.06783" lon="-3.37494">
        <ele>2992</ele>
        <time>2021-08-06 18:33:38</time>
      </trkpt>
      <trkpt lat="37.06784" lon="-3.37495">
        <ele>2991.8</ele>
        <time>2021-08-06 18:33:39</time>
      </trkpt>
      <trkpt lat="37.06784" lon="-3.37496">
        <ele>2991.6</ele>
        <time>2021-08-06 18:33:40</time>
      </trkpt>
      <trkpt lat="37.06785" lon="-3.37497">
        <ele>2991.4</ele>
        <time>2021-08-06 18:33:41</time>
      </trkpt>
      <trkpt lat="37.06786" lon="-3.37498">
        <ele>2991.2</ele>
        <time>2021-08-06 18:33:42</time>
      </trkpt>
      <trkpt lat="37.06786" lon="-3.37499">
        <ele>2991</ele>
        <time>2021-08-06 18:33:43</time>
      </trkpt>
      <trkpt lat="37.06787" lon="-3.375">
        <ele>2990.8</ele>
        <time>2021-08-06 18:33:44</time>
      </trkpt>
      <trkpt lat="37.06788" lon="-3.37501">
        <ele>2990.8</ele>
        <time>2021-08-06 18:33:45</time>
      </trkpt>
      <trkpt lat="37.06789" lon="-3.37502">
        <ele>2990.8</ele>
        <time>2021-08-06 18:33:46</time>
      </trkpt>
      <trkpt lat="37.06789" lon="-3.37503">
        <ele>2990.8</ele>
        <time>2021-08-06 18:33:47</time>
      </trkpt>
      <trkpt lat="37.0679" lon="-3.37503">
        <ele>2990.6</ele>
        <time>2021-08-06 18:33:48</time>
      </trkpt>
      <trkpt lat="37.06791" lon="-3.37504">
        <ele>2990.4</ele>
        <time>2021-08-06 18:33:49</time>
      </trkpt>
      <trkpt lat="37.06791" lon="-3.37504">
        <ele>2990.4</ele>
        <time>2021-08-06 18:33:50</time>
      </trkpt>
      <trkpt lat="37.06792" lon="-3.37505">
        <ele>2990.4</ele>
        <time>2021-08-06 18:33:51</time>
      </trkpt>
      <trkpt lat="37.06793" lon="-3.37505">
        <ele>2990.2</ele>
        <time>2021-08-06 18:33:52</time>
      </trkpt>
      <trkpt lat="37.06794" lon="-3.37506">
        <ele>2990</ele>
        <time>2021-08-06 18:33:53</time>
      </trkpt>
      <trkpt lat="37.06794" lon="-3.37506">
        <ele>2990</ele>
        <time>2021-08-06 18:33:54</time>
      </trkpt>
      <trkpt lat="37.06795" lon="-3.37507">
        <ele>2990</ele>
        <time>2021-08-06 18:33:55</time>
      </trkpt>
      <trkpt lat="37.06796" lon="-3.37508">
        <ele>2990</ele>
        <time>2021-08-06 18:33:56</time>
      </trkpt>
      <trkpt lat="37.06796" lon="-3.3751">
        <ele>2989.8</ele>
        <time>2021-08-06 18:33:57</time>
      </trkpt>
      <trkpt lat="37.06797" lon="-3.37511">
        <ele>2989.8</ele>
        <time>2021-08-06 18:33:58</time>
      </trkpt>
      <trkpt lat="37.06798" lon="-3.37513">
        <ele>2989.8</ele>
        <time>2021-08-06 18:33:59</time>
      </trkpt>
      <trkpt lat="37.06799" lon="-3.37514">
        <ele>2989.6</ele>
        <time>2021-08-06 18:34:00</time>
      </trkpt>
      <trkpt lat="37.06799" lon="-3.37516">
        <ele>2989.6</ele>
        <time>2021-08-06 18:34:01</time>
      </trkpt>
      <trkpt lat="37.068" lon="-3.37517">
        <ele>2989.6</ele>
        <time>2021-08-06 18:34:02</time>
      </trkpt>
      <trkpt lat="37.06801" lon="-3.37518">
        <ele>2989.6</ele>
        <time>2021-08-06 18:34:03</time>
      </trkpt>
      <trkpt lat="37.06802" lon="-3.37519">
        <ele>2989.6</ele>
        <time>2021-08-06 18:34:04</time>
      </trkpt>
      <trkpt lat="37.06802" lon="-3.3752">
        <ele>2989.4</ele>
        <time>2021-08-06 18:34:05</time>
      </trkpt>
      <trkpt lat="37.06803" lon="-3.37522">
        <ele>2989.2</ele>
        <time>2021-08-06 18:34:06</time>
      </trkpt>
      <trkpt lat="37.06804" lon="-3.37522">
        <ele>2989</ele>
        <time>2021-08-06 18:34:07</time>
      </trkpt>
      <trkpt lat="37.06804" lon="-3.37523">
        <ele>2988.8</ele>
        <time>2021-08-06 18:34:08</time>
      </trkpt>
      <trkpt lat="37.06805" lon="-3.37525">
        <ele>2988.8</ele>
        <time>2021-08-06 18:34:09</time>
      </trkpt>
      <trkpt lat="37.06806" lon="-3.37526">
        <ele>2988.8</ele>
        <time>2021-08-06 18:34:10</time>
      </trkpt>
      <trkpt lat="37.06806" lon="-3.37527">
        <ele>2988.8</ele>
        <time>2021-08-06 18:34:11</time>
      </trkpt>
      <trkpt lat="37.06807" lon="-3.37529">
        <ele>2988.8</ele>
        <time>2021-08-06 18:34:12</time>
      </trkpt>
      <trkpt lat="37.06807" lon="-3.3753">
        <ele>2988.8</ele>
        <time>2021-08-06 18:34:13</time>
      </trkpt>
      <trkpt lat="37.06807" lon="-3.37532">
        <ele>2988.6</ele>
        <time>2021-08-06 18:34:14</time>
      </trkpt>
      <trkpt lat="37.06808" lon="-3.37533">
        <ele>2988.6</ele>
        <time>2021-08-06 18:34:15</time>
      </trkpt>
      <trkpt lat="37.06808" lon="-3.37535">
        <ele>2988.6</ele>
        <time>2021-08-06 18:34:16</time>
      </trkpt>
      <trkpt lat="37.06809" lon="-3.37535">
        <ele>2988.4</ele>
        <time>2021-08-06 18:34:17</time>
      </trkpt>
      <trkpt lat="37.0681" lon="-3.37536">
        <ele>2988.4</ele>
        <time>2021-08-06 18:34:18</time>
      </trkpt>
      <trkpt lat="37.0681" lon="-3.37536">
        <ele>2988.4</ele>
        <time>2021-08-06 18:34:19</time>
      </trkpt>
      <trkpt lat="37.06811" lon="-3.37538">
        <ele>2988.4</ele>
        <time>2021-08-06 18:34:20</time>
      </trkpt>
      <trkpt lat="37.06811" lon="-3.37538">
        <ele>2988.4</ele>
        <time>2021-08-06 18:34:21</time>
      </trkpt>
      <trkpt lat="37.06812" lon="-3.37538">
        <ele>2988.4</ele>
        <time>2021-08-06 18:34:22</time>
      </trkpt>
      <trkpt lat="37.06813" lon="-3.37539">
        <ele>2988.6</ele>
        <time>2021-08-06 18:34:23</time>
      </trkpt>
      <trkpt lat="37.06813" lon="-3.3754">
        <ele>2988.6</ele>
        <time>2021-08-06 18:34:24</time>
      </trkpt>
      <trkpt lat="37.06814" lon="-3.37541">
        <ele>2988.6</ele>
        <time>2021-08-06 18:34:25</time>
      </trkpt>
      <trkpt lat="37.06814" lon="-3.37542">
        <ele>2988.4</ele>
        <time>2021-08-06 18:34:26</time>
      </trkpt>
      <trkpt lat="37.06814" lon="-3.37543">
        <ele>2988.2</ele>
        <time>2021-08-06 18:34:27</time>
      </trkpt>
      <trkpt lat="37.06815" lon="-3.37544">
        <ele>2988</ele>
        <time>2021-08-06 18:34:28</time>
      </trkpt>
      <trkpt lat="37.06815" lon="-3.37545">
        <ele>2988</ele>
        <time>2021-08-06 18:34:29</time>
      </trkpt>
      <trkpt lat="37.06816" lon="-3.37546">
        <ele>2987.6</ele>
        <time>2021-08-06 18:34:30</time>
      </trkpt>
      <trkpt lat="37.06816" lon="-3.37547">
        <ele>2987.2</ele>
        <time>2021-08-06 18:34:31</time>
      </trkpt>
      <trkpt lat="37.06817" lon="-3.37548">
        <ele>2987.2</ele>
        <time>2021-08-06 18:34:32</time>
      </trkpt>
      <trkpt lat="37.06818" lon="-3.37549">
        <ele>2987</ele>
        <time>2021-08-06 18:34:33</time>
      </trkpt>
      <trkpt lat="37.06818" lon="-3.3755">
        <ele>2987</ele>
        <time>2021-08-06 18:34:34</time>
      </trkpt>
      <trkpt lat="37.06819" lon="-3.37551">
        <ele>2987</ele>
        <time>2021-08-06 18:34:35</time>
      </trkpt>
      <trkpt lat="37.06819" lon="-3.37553">
        <ele>2987</ele>
        <time>2021-08-06 18:34:36</time>
      </trkpt>
      <trkpt lat="37.0682" lon="-3.37554">
        <ele>2987</ele>
        <time>2021-08-06 18:34:37</time>
      </trkpt>
      <trkpt lat="37.0682" lon="-3.37555">
        <ele>2986.8</ele>
        <time>2021-08-06 18:34:38</time>
      </trkpt>
      <trkpt lat="37.0682" lon="-3.37557">
        <ele>2986.8</ele>
        <time>2021-08-06 18:34:39</time>
      </trkpt>
      <trkpt lat="37.06821" lon="-3.37558">
        <ele>2986.4</ele>
        <time>2021-08-06 18:34:40</time>
      </trkpt>
      <trkpt lat="37.06821" lon="-3.37559">
        <ele>2986.2</ele>
        <time>2021-08-06 18:34:41</time>
      </trkpt>
      <trkpt lat="37.06822" lon="-3.3756">
        <ele>2986.2</ele>
        <time>2021-08-06 18:34:42</time>
      </trkpt>
      <trkpt lat="37.06822" lon="-3.37562">
        <ele>2985.6</ele>
        <time>2021-08-06 18:34:43</time>
      </trkpt>
      <trkpt lat="37.06823" lon="-3.37563">
        <ele>2985.2</ele>
        <time>2021-08-06 18:34:44</time>
      </trkpt>
      <trkpt lat="37.06823" lon="-3.37564">
        <ele>2985</ele>
        <time>2021-08-06 18:34:45</time>
      </trkpt>
      <trkpt lat="37.06824" lon="-3.37565">
        <ele>2985</ele>
        <time>2021-08-06 18:34:46</time>
      </trkpt>
      <trkpt lat="37.06824" lon="-3.37565">
        <ele>2984.8</ele>
        <time>2021-08-06 18:34:47</time>
      </trkpt>
      <trkpt lat="37.06825" lon="-3.37566">
        <ele>2984.6</ele>
        <time>2021-08-06 18:34:48</time>
      </trkpt>
      <trkpt lat="37.06825" lon="-3.37567">
        <ele>2984.6</ele>
        <time>2021-08-06 18:34:49</time>
      </trkpt>
      <trkpt lat="37.06826" lon="-3.37568">
        <ele>2984.8</ele>
        <time>2021-08-06 18:34:50</time>
      </trkpt>
      <trkpt lat="37.06826" lon="-3.37569">
        <ele>2984.8</ele>
        <time>2021-08-06 18:34:51</time>
      </trkpt>
      <trkpt lat="37.06827" lon="-3.3757">
        <ele>2984.8</ele>
        <time>2021-08-06 18:34:52</time>
      </trkpt>
      <trkpt lat="37.06828" lon="-3.37571">
        <ele>2984.8</ele>
        <time>2021-08-06 18:34:53</time>
      </trkpt>
      <trkpt lat="37.06828" lon="-3.37572">
        <ele>2985.2</ele>
        <time>2021-08-06 18:34:54</time>
      </trkpt>
      <trkpt lat="37.06829" lon="-3.37573">
        <ele>2985.2</ele>
        <time>2021-08-06 18:34:55</time>
      </trkpt>
      <trkpt lat="37.0683" lon="-3.37573">
        <ele>2985.4</ele>
        <time>2021-08-06 18:34:56</time>
      </trkpt>
      <trkpt lat="37.0683" lon="-3.37574">
        <ele>2985.4</ele>
        <time>2021-08-06 18:34:57</time>
      </trkpt>
      <trkpt lat="37.06831" lon="-3.37571">
        <ele>2985.4</ele>
        <time>2021-08-06 18:34:58</time>
      </trkpt>
      <trkpt lat="37.06832" lon="-3.37572">
        <ele>2985.4</ele>
        <time>2021-08-06 18:34:59</time>
      </trkpt>
      <trkpt lat="37.06833" lon="-3.37572">
        <ele>2985.2</ele>
        <time>2021-08-06 18:35:00</time>
      </trkpt>
      <trkpt lat="37.06833" lon="-3.37572">
        <ele>2985</ele>
        <time>2021-08-06 18:35:01</time>
      </trkpt>
      <trkpt lat="37.06834" lon="-3.37573">
        <ele>2984.8</ele>
        <time>2021-08-06 18:35:02</time>
      </trkpt>
      <trkpt lat="37.06835" lon="-3.37572">
        <ele>2984.6</ele>
        <time>2021-08-06 18:35:03</time>
      </trkpt>
      <trkpt lat="37.06835" lon="-3.37572">
        <ele>2984.6</ele>
        <time>2021-08-06 18:35:04</time>
      </trkpt>
      <trkpt lat="37.06836" lon="-3.37572">
        <ele>2984.6</ele>
        <time>2021-08-06 18:35:05</time>
      </trkpt>
      <trkpt lat="37.06836" lon="-3.37572">
        <ele>2984.6</ele>
        <time>2021-08-06 18:35:06</time>
      </trkpt>
      <trkpt lat="37.06835" lon="-3.37572">
        <ele>2984.8</ele>
        <time>2021-08-06 18:35:07</time>
      </trkpt>
      <trkpt lat="37.06836" lon="-3.37572">
        <ele>2984.8</ele>
        <time>2021-08-06 18:35:08</time>
      </trkpt>
      <trkpt lat="37.06836" lon="-3.37572">
        <ele>2984.8</ele>
        <time>2021-08-06 18:35:09</time>
      </trkpt>
      <trkpt lat="37.06836" lon="-3.37572">
        <ele>2984.8</ele>
        <time>2021-08-06 18:35:10</time>
      </trkpt>
      <trkpt lat="37.06836" lon="-3.37572">
        <ele>2984.8</ele>
        <time>2021-08-06 18:35:11</time>
      </trkpt>
      <trkpt lat="37.06835" lon="-3.37572">
        <ele>2984.8</ele>
        <time>2021-08-06 18:35:12</time>
      </trkpt>
      <trkpt lat="37.06835" lon="-3.37572">
        <ele>2984.8</ele>
        <time>2021-08-06 18:35:13</time>
      </trkpt>
      <trkpt lat="37.06835" lon="-3.37571">
        <ele>2984.8</ele>
        <time>2021-08-06 18:35:14</time>
      </trkpt>
      <trkpt lat="37.06835" lon="-3.37571">
        <ele>2985</ele>
        <time>2021-08-06 18:35:15</time>
      </trkpt>
      <trkpt lat="37.06835" lon="-3.37573">
        <ele>2984.8</ele>
        <time>2021-08-06 18:35:16</time>
      </trkpt>
      <trkpt lat="37.06835" lon="-3.37573">
        <ele>2985</ele>
        <time>2021-08-06 18:35:17</time>
      </trkpt>
      <trkpt lat="37.06836" lon="-3.37573">
        <ele>2985.2</ele>
        <time>2021-08-06 18:35:18</time>
      </trkpt>
      <trkpt lat="37.06835" lon="-3.37574">
        <ele>2985.2</ele>
        <time>2021-08-06 18:35:19</time>
      </trkpt>
      <trkpt lat="37.06835" lon="-3.37575">
        <ele>2985.2</ele>
        <time>2021-08-06 18:35:20</time>
      </trkpt>
      <trkpt lat="37.06835" lon="-3.37575">
        <ele>2985.2</ele>
        <time>2021-08-06 18:35:21</time>
      </trkpt>
      <trkpt lat="37.06835" lon="-3.37575">
        <ele>2985.2</ele>
        <time>2021-08-06 18:35:22</time>
      </trkpt>
      <trkpt lat="37.06835" lon="-3.37574">
        <ele>2985.2</ele>
        <time>2021-08-06 18:35:23</time>
      </trkpt>
      <trkpt lat="37.06835" lon="-3.37574">
        <ele>2985</ele>
        <time>2021-08-06 18:35:24</time>
      </trkpt>
      <trkpt lat="37.06835" lon="-3.37575">
        <ele>2984.8</ele>
        <time>2021-08-06 18:35:25</time>
      </trkpt>
      <trkpt lat="37.06834" lon="-3.37576">
        <ele>2984.8</ele>
        <time>2021-08-06 18:35:26</time>
      </trkpt>
      <trkpt lat="37.06834" lon="-3.37577">
        <ele>2984.8</ele>
        <time>2021-08-06 18:35:27</time>
      </trkpt>
      <trkpt lat="37.06834" lon="-3.37578">
        <ele>2985</ele>
        <time>2021-08-06 18:35:28</time>
      </trkpt>
      <trkpt lat="37.06834" lon="-3.37579">
        <ele>2985</ele>
        <time>2021-08-06 18:35:29</time>
      </trkpt>
      <trkpt lat="37.06833" lon="-3.3758">
        <ele>2985.2</ele>
        <time>2021-08-06 18:35:30</time>
      </trkpt>
      <trkpt lat="37.06834" lon="-3.37581">
        <ele>2985.2</ele>
        <time>2021-08-06 18:35:31</time>
      </trkpt>
      <trkpt lat="37.06833" lon="-3.37582">
        <ele>2985.2</ele>
        <time>2021-08-06 18:35:32</time>
      </trkpt>
      <trkpt lat="37.06833" lon="-3.37582">
        <ele>2985</ele>
        <time>2021-08-06 18:35:33</time>
      </trkpt>
      <trkpt lat="37.06833" lon="-3.37583">
        <ele>2984.6</ele>
        <time>2021-08-06 18:35:34</time>
      </trkpt>
      <trkpt lat="37.06835" lon="-3.37581">
        <ele>2984.2</ele>
        <time>2021-08-06 18:35:35</time>
      </trkpt>
      <trkpt lat="37.06835" lon="-3.3758">
        <ele>2984</ele>
        <time>2021-08-06 18:35:36</time>
      </trkpt>
      <trkpt lat="37.06835" lon="-3.3758">
        <ele>2984</ele>
        <time>2021-08-06 18:35:37</time>
      </trkpt>
      <trkpt lat="37.06835" lon="-3.3758">
        <ele>2983.8</ele>
        <time>2021-08-06 18:35:38</time>
      </trkpt>
      <trkpt lat="37.06834" lon="-3.3758">
        <ele>2983.8</ele>
        <time>2021-08-06 18:35:39</time>
      </trkpt>
      <trkpt lat="37.06834" lon="-3.37579">
        <ele>2983.8</ele>
        <time>2021-08-06 18:35:40</time>
      </trkpt>
      <trkpt lat="37.06834" lon="-3.37579">
        <ele>2983.8</ele>
        <time>2021-08-06 18:35:41</time>
      </trkpt>
      <trkpt lat="37.06834" lon="-3.37579">
        <ele>2983.6</ele>
        <time>2021-08-06 18:35:42</time>
      </trkpt>
      <trkpt lat="37.06834" lon="-3.37578">
        <ele>2983.6</ele>
        <time>2021-08-06 18:35:43</time>
      </trkpt>
      <trkpt lat="37.06834" lon="-3.37578">
        <ele>2983.6</ele>
        <time>2021-08-06 18:35:44</time>
      </trkpt>
      <trkpt lat="37.06835" lon="-3.37578">
        <ele>2983.4</ele>
        <time>2021-08-06 18:35:45</time>
      </trkpt>
      <trkpt lat="37.06835" lon="-3.37578">
        <ele>2983.4</ele>
        <time>2021-08-06 18:35:46</time>
      </trkpt>
      <trkpt lat="37.06834" lon="-3.37578">
        <ele>2983.2</ele>
        <time>2021-08-06 18:35:47</time>
      </trkpt>
      <trkpt lat="37.06834" lon="-3.37578">
        <ele>2983.4</ele>
        <time>2021-08-06 18:35:48</time>
      </trkpt>
      <trkpt lat="37.06834" lon="-3.37578">
        <ele>2983.6</ele>
        <time>2021-08-06 18:35:49</time>
      </trkpt>
      <trkpt lat="37.06834" lon="-3.37579">
        <ele>2984.2</ele>
        <time>2021-08-06 18:35:50</time>
      </trkpt>
      <trkpt lat="37.06834" lon="-3.37579">
        <ele>2984.4</ele>
        <time>2021-08-06 18:35:51</time>
      </trkpt>
      <trkpt lat="37.06834" lon="-3.3758">
        <ele>2984.6</ele>
        <time>2021-08-06 18:35:52</time>
      </trkpt>
      <trkpt lat="37.06834" lon="-3.37581">
        <ele>2984.8</ele>
        <time>2021-08-06 18:35:53</time>
      </trkpt>
      <trkpt lat="37.06835" lon="-3.37581">
        <ele>2985</ele>
        <time>2021-08-06 18:35:54</time>
      </trkpt>
      <trkpt lat="37.06835" lon="-3.37581">
        <ele>2985.2</ele>
        <time>2021-08-06 18:35:55</time>
      </trkpt>
      <trkpt lat="37.06836" lon="-3.37582">
        <ele>2985</ele>
        <time>2021-08-06 18:35:56</time>
      </trkpt>
      <trkpt lat="37.06837" lon="-3.37582">
        <ele>2985</ele>
        <time>2021-08-06 18:35:57</time>
      </trkpt>
      <trkpt lat="37.06837" lon="-3.37582">
        <ele>2985</ele>
        <time>2021-08-06 18:35:58</time>
      </trkpt>
      <trkpt lat="37.06836" lon="-3.37583">
        <ele>2984.8</ele>
        <time>2021-08-06 18:35:59</time>
      </trkpt>
      <trkpt lat="37.06836" lon="-3.37583">
        <ele>2984.8</ele>
        <time>2021-08-06 18:36:00</time>
      </trkpt>
      <trkpt lat="37.06836" lon="-3.37584">
        <ele>2984.8</ele>
        <time>2021-08-06 18:36:01</time>
      </trkpt>
      <trkpt lat="37.06836" lon="-3.37584">
        <ele>2984.8</ele>
        <time>2021-08-06 18:36:02</time>
      </trkpt>
      <trkpt lat="37.06836" lon="-3.37584">
        <ele>2984.8</ele>
        <time>2021-08-06 18:36:03</time>
      </trkpt>
      <trkpt lat="37.06836" lon="-3.37585">
        <ele>2984.8</ele>
        <time>2021-08-06 18:36:04</time>
      </trkpt>
      <trkpt lat="37.06836" lon="-3.37585">
        <ele>2984.8</ele>
        <time>2021-08-06 18:36:05</time>
      </trkpt>
      <trkpt lat="37.06836" lon="-3.37585">
        <ele>2984.8</ele>
        <time>2021-08-06 18:36:06</time>
      </trkpt>
      <trkpt lat="37.06836" lon="-3.37585">
        <ele>2984.8</ele>
        <time>2021-08-06 18:36:07</time>
      </trkpt>
      <trkpt lat="37.06835" lon="-3.37585">
        <ele>2984.8</ele>
        <time>2021-08-06 18:36:08</time>
      </trkpt>
      <trkpt lat="37.06835" lon="-3.37585">
        <ele>2984.8</ele>
        <time>2021-08-06 18:36:09</time>
      </trkpt>
      <trkpt lat="37.06833" lon="-3.37586">
        <ele>2985</ele>
        <time>2021-08-06 18:36:10</time>
      </trkpt>
      <trkpt lat="37.06833" lon="-3.37586">
        <ele>2985</ele>
        <time>2021-08-06 18:36:11</time>
      </trkpt>
      <trkpt lat="37.06833" lon="-3.37586">
        <ele>2985</ele>
        <time>2021-08-06 18:36:12</time>
      </trkpt>
      <trkpt lat="37.06831" lon="-3.37586">
        <ele>2985</ele>
        <time>2021-08-06 18:36:13</time>
      </trkpt>
      <trkpt lat="37.06831" lon="-3.37586">
        <ele>2985</ele>
        <time>2021-08-06 18:36:14</time>
      </trkpt>
      <trkpt lat="37.06831" lon="-3.37587">
        <ele>2985</ele>
        <time>2021-08-06 18:36:15</time>
      </trkpt>
      <trkpt lat="37.06831" lon="-3.37588">
        <ele>2985</ele>
        <time>2021-08-06 18:36:16</time>
      </trkpt>
      <trkpt lat="37.0683" lon="-3.37589">
        <ele>2985</ele>
        <time>2021-08-06 18:36:17</time>
      </trkpt>
      <trkpt lat="37.06829" lon="-3.3759">
        <ele>2985</ele>
        <time>2021-08-06 18:36:18</time>
      </trkpt>
      <trkpt lat="37.06829" lon="-3.3759">
        <ele>2985</ele>
        <time>2021-08-06 18:36:19</time>
      </trkpt>
      <trkpt lat="37.06829" lon="-3.3759">
        <ele>2984.8</ele>
        <time>2021-08-06 18:36:20</time>
      </trkpt>
      <trkpt lat="37.06829" lon="-3.37589">
        <ele>2984.6</ele>
        <time>2021-08-06 18:36:21</time>
      </trkpt>
      <trkpt lat="37.06829" lon="-3.37589">
        <ele>2984.4</ele>
        <time>2021-08-06 18:36:22</time>
      </trkpt>
      <trkpt lat="37.06829" lon="-3.37588">
        <ele>2984.4</ele>
        <time>2021-08-06 18:36:23</time>
      </trkpt>
      <trkpt lat="37.06829" lon="-3.37588">
        <ele>2984.4</ele>
        <time>2021-08-06 18:36:24</time>
      </trkpt>
      <trkpt lat="37.06829" lon="-3.37588">
        <ele>2984.4</ele>
        <time>2021-08-06 18:36:25</time>
      </trkpt>
      <trkpt lat="37.06829" lon="-3.37587">
        <ele>2984.4</ele>
        <time>2021-08-06 18:36:26</time>
      </trkpt>
      <trkpt lat="37.06828" lon="-3.37586">
        <ele>2984.6</ele>
        <time>2021-08-06 18:36:27</time>
      </trkpt>
      <trkpt lat="37.06828" lon="-3.37586">
        <ele>2984.8</ele>
        <time>2021-08-06 18:36:28</time>
      </trkpt>
      <trkpt lat="37.06828" lon="-3.37586">
        <ele>2984.8</ele>
        <time>2021-08-06 18:36:29</time>
      </trkpt>
      <trkpt lat="37.06828" lon="-3.37586">
        <ele>2984.8</ele>
        <time>2021-08-06 18:36:30</time>
      </trkpt>
      <trkpt lat="37.06828" lon="-3.37585">
        <ele>2984.6</ele>
        <time>2021-08-06 18:36:31</time>
      </trkpt>
      <trkpt lat="37.06828" lon="-3.37585">
        <ele>2984.6</ele>
        <time>2021-08-06 18:36:32</time>
      </trkpt>
      <trkpt lat="37.06828" lon="-3.37585">
        <ele>2984.8</ele>
        <time>2021-08-06 18:36:33</time>
      </trkpt>
      <trkpt lat="37.06829" lon="-3.37585">
        <ele>2984.8</ele>
        <time>2021-08-06 18:36:34</time>
      </trkpt>
      <trkpt lat="37.06829" lon="-3.37584">
        <ele>2984.8</ele>
        <time>2021-08-06 18:36:35</time>
      </trkpt>
      <trkpt lat="37.0683" lon="-3.37584">
        <ele>2984.8</ele>
        <time>2021-08-06 18:36:36</time>
      </trkpt>
      <trkpt lat="37.0683" lon="-3.37584">
        <ele>2984.8</ele>
        <time>2021-08-06 18:36:37</time>
      </trkpt>
      <trkpt lat="37.0683" lon="-3.37584">
        <ele>2984.8</ele>
        <time>2021-08-06 18:36:38</time>
      </trkpt>
      <trkpt lat="37.06829" lon="-3.37584">
        <ele>2984.8</ele>
        <time>2021-08-06 18:36:39</time>
      </trkpt>
      <trkpt lat="37.0683" lon="-3.37584">
        <ele>2984.8</ele>
        <time>2021-08-06 18:36:40</time>
      </trkpt>
      <trkpt lat="37.0683" lon="-3.37583">
        <ele>2984.8</ele>
        <time>2021-08-06 18:36:41</time>
      </trkpt>
      <trkpt lat="37.0683" lon="-3.37583">
        <ele>2984.8</ele>
        <time>2021-08-06 18:36:42</time>
      </trkpt>
      <trkpt lat="37.06828" lon="-3.37587">
        <ele>2984.8</ele>
        <time>2021-08-06 18:36:43</time>
      </trkpt>
      <trkpt lat="37.06827" lon="-3.37589">
        <ele>2984.8</ele>
        <time>2021-08-06 18:36:44</time>
      </trkpt>
      <trkpt lat="37.06826" lon="-3.37591">
        <ele>2984.8</ele>
        <time>2021-08-06 18:36:45</time>
      </trkpt>
      <trkpt lat="37.06825" lon="-3.37591">
        <ele>2984.8</ele>
        <time>2021-08-06 18:36:46</time>
      </trkpt>
      <trkpt lat="37.06825" lon="-3.37591">
        <ele>2984.8</ele>
        <time>2021-08-06 18:36:47</time>
      </trkpt>
      <trkpt lat="37.06824" lon="-3.37592">
        <ele>2985</ele>
        <time>2021-08-06 18:36:48</time>
      </trkpt>
      <trkpt lat="37.06823" lon="-3.37592">
        <ele>2985</ele>
        <time>2021-08-06 18:36:49</time>
      </trkpt>
      <trkpt lat="37.06822" lon="-3.37591">
        <ele>2985</ele>
        <time>2021-08-06 18:36:50</time>
      </trkpt>
      <trkpt lat="37.06821" lon="-3.37591">
        <ele>2985</ele>
        <time>2021-08-06 18:36:51</time>
      </trkpt>
      <trkpt lat="37.06822" lon="-3.3759">
        <ele>2985</ele>
        <time>2021-08-06 18:36:52</time>
      </trkpt>
      <trkpt lat="37.06823" lon="-3.37589">
        <ele>2985</ele>
        <time>2021-08-06 18:36:53</time>
      </trkpt>
      <trkpt lat="37.06823" lon="-3.37589">
        <ele>2984.8</ele>
        <time>2021-08-06 18:36:54</time>
      </trkpt>
      <trkpt lat="37.06824" lon="-3.37589">
        <ele>2984.8</ele>
        <time>2021-08-06 18:36:55</time>
      </trkpt>
      <trkpt lat="37.06828" lon="-3.37587">
        <ele>2984.8</ele>
        <time>2021-08-06 18:36:56</time>
      </trkpt>
      <trkpt lat="37.06828" lon="-3.37586">
        <ele>2984.8</ele>
        <time>2021-08-06 18:36:57</time>
      </trkpt>
      <trkpt lat="37.06833" lon="-3.37584">
        <ele>2985</ele>
        <time>2021-08-06 18:36:58</time>
      </trkpt>
      <trkpt lat="37.06833" lon="-3.37583">
        <ele>2985</ele>
        <time>2021-08-06 18:36:59</time>
      </trkpt>
      <trkpt lat="37.06833" lon="-3.37583">
        <ele>2985</ele>
        <time>2021-08-06 18:37:00</time>
      </trkpt>
      <trkpt lat="37.06834" lon="-3.37583">
        <ele>2985</ele>
        <time>2021-08-06 18:37:01</time>
      </trkpt>
      <trkpt lat="37.06834" lon="-3.37583">
        <ele>2985</ele>
        <time>2021-08-06 18:37:02</time>
      </trkpt>
      <trkpt lat="37.06834" lon="-3.37582">
        <ele>2985</ele>
        <time>2021-08-06 18:37:03</time>
      </trkpt>
      <trkpt lat="37.06833" lon="-3.37581">
        <ele>2985</ele>
        <time>2021-08-06 18:37:04</time>
      </trkpt>
      <trkpt lat="37.06833" lon="-3.3758">
        <ele>2985</ele>
        <time>2021-08-06 18:37:05</time>
      </trkpt>
      <trkpt lat="37.06833" lon="-3.37579">
        <ele>2984.8</ele>
        <time>2021-08-06 18:37:06</time>
      </trkpt>
      <trkpt lat="37.06833" lon="-3.37578">
        <ele>2985</ele>
        <time>2021-08-06 18:37:07</time>
      </trkpt>
      <trkpt lat="37.06833" lon="-3.37577">
        <ele>2985</ele>
        <time>2021-08-06 18:37:08</time>
      </trkpt>
      <trkpt lat="37.06833" lon="-3.37577">
        <ele>2985</ele>
        <time>2021-08-06 18:37:09</time>
      </trkpt>
      <trkpt lat="37.06833" lon="-3.37577">
        <ele>2985.2</ele>
        <time>2021-08-06 18:37:10</time>
      </trkpt>
      <trkpt lat="37.06833" lon="-3.37578">
        <ele>2985.2</ele>
        <time>2021-08-06 18:37:11</time>
      </trkpt>
      <trkpt lat="37.06833" lon="-3.37578">
        <ele>2985.2</ele>
        <time>2021-08-06 18:37:12</time>
      </trkpt>
      <trkpt lat="37.06834" lon="-3.37578">
        <ele>2985.2</ele>
        <time>2021-08-06 18:37:13</time>
      </trkpt>
      <trkpt lat="37.06834" lon="-3.37578">
        <ele>2985.2</ele>
        <time>2021-08-06 18:37:14</time>
      </trkpt>
      <trkpt lat="37.06835" lon="-3.37578">
        <ele>2985.2</ele>
        <time>2021-08-06 18:37:15</time>
      </trkpt>
      <trkpt lat="37.06835" lon="-3.37579">
        <ele>2985</ele>
        <time>2021-08-06 18:37:16</time>
      </trkpt>
      <trkpt lat="37.06839" lon="-3.3758">
        <ele>2985</ele>
        <time>2021-08-06 18:37:17</time>
      </trkpt>
      <trkpt lat="37.06841" lon="-3.3758">
        <ele>2985</ele>
        <time>2021-08-06 18:37:18</time>
      </trkpt>
      <trkpt lat="37.06842" lon="-3.3758">
        <ele>2985.2</ele>
        <time>2021-08-06 18:37:19</time>
      </trkpt>
      <trkpt lat="37.06842" lon="-3.3758">
        <ele>2985.4</ele>
        <time>2021-08-06 18:37:20</time>
      </trkpt>
      <trkpt lat="37.06842" lon="-3.3758">
        <ele>2985.4</ele>
        <time>2021-08-06 18:37:21</time>
      </trkpt>
      <trkpt lat="37.06843" lon="-3.3758">
        <ele>2985.6</ele>
        <time>2021-08-06 18:37:22</time>
      </trkpt>
      <trkpt lat="37.06843" lon="-3.3758">
        <ele>2985.8</ele>
        <time>2021-08-06 18:37:23</time>
      </trkpt>
      <trkpt lat="37.06844" lon="-3.3758">
        <ele>2985.8</ele>
        <time>2021-08-06 18:37:24</time>
      </trkpt>
      <trkpt lat="37.06844" lon="-3.3758">
        <ele>2985.8</ele>
        <time>2021-08-06 18:37:25</time>
      </trkpt>
      <trkpt lat="37.06844" lon="-3.3758">
        <ele>2985.8</ele>
        <time>2021-08-06 18:37:26</time>
      </trkpt>
      <trkpt lat="37.06844" lon="-3.3758">
        <ele>2985.8</ele>
        <time>2021-08-06 18:37:27</time>
      </trkpt>
      <trkpt lat="37.06844" lon="-3.37579">
        <ele>2985.8</ele>
        <time>2021-08-06 18:37:28</time>
      </trkpt>
      <trkpt lat="37.06844" lon="-3.37579">
        <ele>2985.8</ele>
        <time>2021-08-06 18:37:29</time>
      </trkpt>
      <trkpt lat="37.06844" lon="-3.37578">
        <ele>2985.8</ele>
        <time>2021-08-06 18:37:30</time>
      </trkpt>
      <trkpt lat="37.06844" lon="-3.37577">
        <ele>2985.6</ele>
        <time>2021-08-06 18:37:31</time>
      </trkpt>
      <trkpt lat="37.06844" lon="-3.37577">
        <ele>2985.6</ele>
        <time>2021-08-06 18:37:32</time>
      </trkpt>
      <trkpt lat="37.06842" lon="-3.37577">
        <ele>2985.6</ele>
        <time>2021-08-06 18:37:33</time>
      </trkpt>
      <trkpt lat="37.06841" lon="-3.37577">
        <ele>2985.6</ele>
        <time>2021-08-06 18:37:34</time>
      </trkpt>
      <trkpt lat="37.06841" lon="-3.37577">
        <ele>2985.6</ele>
        <time>2021-08-06 18:37:35</time>
      </trkpt>
      <trkpt lat="37.0684" lon="-3.37577">
        <ele>2985.8</ele>
        <time>2021-08-06 18:37:36</time>
      </trkpt>
      <trkpt lat="37.06839" lon="-3.37577">
        <ele>2985.8</ele>
        <time>2021-08-06 18:37:37</time>
      </trkpt>
      <trkpt lat="37.0684" lon="-3.37577">
        <ele>2986</ele>
        <time>2021-08-06 18:37:38</time>
      </trkpt>
      <trkpt lat="37.0684" lon="-3.37577">
        <ele>2986</ele>
        <time>2021-08-06 18:37:39</time>
      </trkpt>
      <trkpt lat="37.0684" lon="-3.37577">
        <ele>2986</ele>
        <time>2021-08-06 18:37:40</time>
      </trkpt>
      <trkpt lat="37.06839" lon="-3.37578">
        <ele>2986</ele>
        <time>2021-08-06 18:37:41</time>
      </trkpt>
      <trkpt lat="37.06839" lon="-3.37578">
        <ele>2986</ele>
        <time>2021-08-06 18:37:42</time>
      </trkpt>
      <trkpt lat="37.06837" lon="-3.37577">
        <ele>2986</ele>
        <time>2021-08-06 18:37:43</time>
      </trkpt>
      <trkpt lat="37.06833" lon="-3.37576">
        <ele>2986</ele>
        <time>2021-08-06 18:37:44</time>
      </trkpt>
      <trkpt lat="37.06833" lon="-3.37576">
        <ele>2986</ele>
        <time>2021-08-06 18:37:45</time>
      </trkpt>
      <trkpt lat="37.06833" lon="-3.37575">
        <ele>2986</ele>
        <time>2021-08-06 18:37:46</time>
      </trkpt>
      <trkpt lat="37.06833" lon="-3.37575">
        <ele>2986</ele>
        <time>2021-08-06 18:37:47</time>
      </trkpt>
      <trkpt lat="37.06833" lon="-3.37575">
        <ele>2986</ele>
        <time>2021-08-06 18:37:48</time>
      </trkpt>
      <trkpt lat="37.06834" lon="-3.37575">
        <ele>2985.8</ele>
        <time>2021-08-06 18:37:49</time>
      </trkpt>
      <trkpt lat="37.06834" lon="-3.37576">
        <ele>2985.6</ele>
        <time>2021-08-06 18:37:50</time>
      </trkpt>
      <trkpt lat="37.06834" lon="-3.37576">
        <ele>2985.4</ele>
        <time>2021-08-06 18:37:51</time>
      </trkpt>
      <trkpt lat="37.06834" lon="-3.37577">
        <ele>2985.2</ele>
        <time>2021-08-06 18:37:52</time>
      </trkpt>
      <trkpt lat="37.06834" lon="-3.37577">
        <ele>2985.2</ele>
        <time>2021-08-06 18:37:53</time>
      </trkpt>
      <trkpt lat="37.06834" lon="-3.37577">
        <ele>2985.2</ele>
        <time>2021-08-06 18:37:54</time>
      </trkpt>
      <trkpt lat="37.06834" lon="-3.37577">
        <ele>2985.2</ele>
        <time>2021-08-06 18:37:55</time>
      </trkpt>
      <trkpt lat="37.06834" lon="-3.37576">
        <ele>2985.2</ele>
        <time>2021-08-06 18:37:56</time>
      </trkpt>
      <trkpt lat="37.06834" lon="-3.37576">
        <ele>2985.4</ele>
        <time>2021-08-06 18:37:57</time>
      </trkpt>
      <trkpt lat="37.06834" lon="-3.37576">
        <ele>2985.4</ele>
        <time>2021-08-06 18:37:58</time>
      </trkpt>
      <trkpt lat="37.06834" lon="-3.37577">
        <ele>2985.6</ele>
        <time>2021-08-06 18:37:59</time>
      </trkpt>
      <trkpt lat="37.06834" lon="-3.37577">
        <ele>2985.6</ele>
        <time>2021-08-06 18:38:00</time>
      </trkpt>
      <trkpt lat="37.06834" lon="-3.37576">
        <ele>2985.8</ele>
        <time>2021-08-06 18:38:01</time>
      </trkpt>
      <trkpt lat="37.06834" lon="-3.37576">
        <ele>2985.8</ele>
        <time>2021-08-06 18:38:02</time>
      </trkpt>
      <trkpt lat="37.06834" lon="-3.37576">
        <ele>2985.8</ele>
        <time>2021-08-06 18:38:03</time>
      </trkpt>
      <trkpt lat="37.06834" lon="-3.37577">
        <ele>2985.8</ele>
        <time>2021-08-06 18:38:04</time>
      </trkpt>
      <trkpt lat="37.06834" lon="-3.37577">
        <ele>2985.8</ele>
        <time>2021-08-06 18:38:05</time>
      </trkpt>
      <trkpt lat="37.06835" lon="-3.37577">
        <ele>2985.6</ele>
        <time>2021-08-06 18:38:06</time>
      </trkpt>
      <trkpt lat="37.06835" lon="-3.37577">
        <ele>2985.6</ele>
        <time>2021-08-06 18:38:07</time>
      </trkpt>
      <trkpt lat="37.06835" lon="-3.37578">
        <ele>2985.4</ele>
        <time>2021-08-06 18:38:08</time>
      </trkpt>
      <trkpt lat="37.06836" lon="-3.37578">
        <ele>2985.2</ele>
        <time>2021-08-06 18:38:09</time>
      </trkpt>
      <trkpt lat="37.06836" lon="-3.37578">
        <ele>2985.2</ele>
        <time>2021-08-06 18:38:10</time>
      </trkpt>
      <trkpt lat="37.06836" lon="-3.37579">
        <ele>2985</ele>
        <time>2021-08-06 18:38:11</time>
      </trkpt>
      <trkpt lat="37.06837" lon="-3.37579">
        <ele>2985</ele>
        <time>2021-08-06 18:38:12</time>
      </trkpt>
      <trkpt lat="37.06837" lon="-3.37579">
        <ele>2985</ele>
        <time>2021-08-06 18:38:13</time>
      </trkpt>
      <trkpt lat="37.06837" lon="-3.3758">
        <ele>2985</ele>
        <time>2021-08-06 18:38:14</time>
      </trkpt>
      <trkpt lat="37.06837" lon="-3.37581">
        <ele>2984.8</ele>
        <time>2021-08-06 18:38:15</time>
      </trkpt>
      <trkpt lat="37.06838" lon="-3.37581">
        <ele>2984.6</ele>
        <time>2021-08-06 18:38:16</time>
      </trkpt>
      <trkpt lat="37.06838" lon="-3.37582">
        <ele>2984.4</ele>
        <time>2021-08-06 18:38:17</time>
      </trkpt>
      <trkpt lat="37.06839" lon="-3.37583">
        <ele>2984.4</ele>
        <time>2021-08-06 18:38:18</time>
      </trkpt>
      <trkpt lat="37.06839" lon="-3.37584">
        <ele>2984.4</ele>
        <time>2021-08-06 18:38:19</time>
      </trkpt>
      <trkpt lat="37.0684" lon="-3.37585">
        <ele>2984.4</ele>
        <time>2021-08-06 18:38:20</time>
      </trkpt>
      <trkpt lat="37.06841" lon="-3.37586">
        <ele>2984.4</ele>
        <time>2021-08-06 18:38:21</time>
      </trkpt>
      <trkpt lat="37.06841" lon="-3.37586">
        <ele>2984.6</ele>
        <time>2021-08-06 18:38:22</time>
      </trkpt>
      <trkpt lat="37.06842" lon="-3.37587">
        <ele>2984.8</ele>
        <time>2021-08-06 18:38:23</time>
      </trkpt>
      <trkpt lat="37.06842" lon="-3.37588">
        <ele>2985</ele>
        <time>2021-08-06 18:38:24</time>
      </trkpt>
      <trkpt lat="37.06843" lon="-3.37588">
        <ele>2984.8</ele>
        <time>2021-08-06 18:38:25</time>
      </trkpt>
      <trkpt lat="37.06844" lon="-3.37588">
        <ele>2984.8</ele>
        <time>2021-08-06 18:38:26</time>
      </trkpt>
      <trkpt lat="37.06845" lon="-3.37586">
        <ele>2984.6</ele>
        <time>2021-08-06 18:38:27</time>
      </trkpt>
      <trkpt lat="37.06846" lon="-3.37586">
        <ele>2984.4</ele>
        <time>2021-08-06 18:38:28</time>
      </trkpt>
      <trkpt lat="37.06847" lon="-3.37586">
        <ele>2984.2</ele>
        <time>2021-08-06 18:38:29</time>
      </trkpt>
      <trkpt lat="37.06848" lon="-3.37586">
        <ele>2984</ele>
        <time>2021-08-06 18:38:30</time>
      </trkpt>
      <trkpt lat="37.06849" lon="-3.37587">
        <ele>2983.8</ele>
        <time>2021-08-06 18:38:31</time>
      </trkpt>
      <trkpt lat="37.0685" lon="-3.37587">
        <ele>2983.6</ele>
        <time>2021-08-06 18:38:32</time>
      </trkpt>
      <trkpt lat="37.06852" lon="-3.37588">
        <ele>2983.6</ele>
        <time>2021-08-06 18:38:33</time>
      </trkpt>
      <trkpt lat="37.06853" lon="-3.37589">
        <ele>2983.4</ele>
        <time>2021-08-06 18:38:34</time>
      </trkpt>
      <trkpt lat="37.06854" lon="-3.3759">
        <ele>2983</ele>
        <time>2021-08-06 18:38:35</time>
      </trkpt>
      <trkpt lat="37.06855" lon="-3.37591">
        <ele>2982.8</ele>
        <time>2021-08-06 18:38:36</time>
      </trkpt>
      <trkpt lat="37.06856" lon="-3.3759">
        <ele>2982.6</ele>
        <time>2021-08-06 18:38:37</time>
      </trkpt>
      <trkpt lat="37.06857" lon="-3.3759">
        <ele>2982.6</ele>
        <time>2021-08-06 18:38:38</time>
      </trkpt>
      <trkpt lat="37.06858" lon="-3.3759">
        <ele>2982.8</ele>
        <time>2021-08-06 18:38:39</time>
      </trkpt>
      <trkpt lat="37.06858" lon="-3.37591">
        <ele>2983</ele>
        <time>2021-08-06 18:38:40</time>
      </trkpt>
      <trkpt lat="37.06859" lon="-3.37592">
        <ele>2983.2</ele>
        <time>2021-08-06 18:38:41</time>
      </trkpt>
      <trkpt lat="37.0686" lon="-3.37593">
        <ele>2983.4</ele>
        <time>2021-08-06 18:38:42</time>
      </trkpt>
      <trkpt lat="37.06861" lon="-3.37594">
        <ele>2983.6</ele>
        <time>2021-08-06 18:38:43</time>
      </trkpt>
      <trkpt lat="37.06861" lon="-3.37594">
        <ele>2983.8</ele>
        <time>2021-08-06 18:38:44</time>
      </trkpt>
      <trkpt lat="37.06862" lon="-3.37595">
        <ele>2983.6</ele>
        <time>2021-08-06 18:38:45</time>
      </trkpt>
      <trkpt lat="37.06863" lon="-3.37596">
        <ele>2983.6</ele>
        <time>2021-08-06 18:38:46</time>
      </trkpt>
      <trkpt lat="37.06863" lon="-3.37596">
        <ele>2983.6</ele>
        <time>2021-08-06 18:38:47</time>
      </trkpt>
      <trkpt lat="37.06864" lon="-3.37597">
        <ele>2983.4</ele>
        <time>2021-08-06 18:38:48</time>
      </trkpt>
      <trkpt lat="37.06864" lon="-3.37597">
        <ele>2983.2</ele>
        <time>2021-08-06 18:38:49</time>
      </trkpt>
      <trkpt lat="37.06865" lon="-3.37598">
        <ele>2982.8</ele>
        <time>2021-08-06 18:38:50</time>
      </trkpt>
      <trkpt lat="37.06866" lon="-3.37598">
        <ele>2982.4</ele>
        <time>2021-08-06 18:38:51</time>
      </trkpt>
      <trkpt lat="37.06867" lon="-3.37598">
        <ele>2982</ele>
        <time>2021-08-06 18:38:52</time>
      </trkpt>
      <trkpt lat="37.06867" lon="-3.37599">
        <ele>2981.6</ele>
        <time>2021-08-06 18:38:53</time>
      </trkpt>
      <trkpt lat="37.06869" lon="-3.37598">
        <ele>2981.4</ele>
        <time>2021-08-06 18:38:54</time>
      </trkpt>
      <trkpt lat="37.06869" lon="-3.37598">
        <ele>2981.2</ele>
        <time>2021-08-06 18:38:55</time>
      </trkpt>
      <trkpt lat="37.0687" lon="-3.37599">
        <ele>2981.2</ele>
        <time>2021-08-06 18:38:56</time>
      </trkpt>
      <trkpt lat="37.0687" lon="-3.37601">
        <ele>2981</ele>
        <time>2021-08-06 18:38:57</time>
      </trkpt>
      <trkpt lat="37.06871" lon="-3.37603">
        <ele>2981</ele>
        <time>2021-08-06 18:38:58</time>
      </trkpt>
      <trkpt lat="37.06872" lon="-3.37605">
        <ele>2980.8</ele>
        <time>2021-08-06 18:38:59</time>
      </trkpt>
      <trkpt lat="37.06872" lon="-3.37607">
        <ele>2980.8</ele>
        <time>2021-08-06 18:39:00</time>
      </trkpt>
      <trkpt lat="37.06873" lon="-3.37609">
        <ele>2980.6</ele>
        <time>2021-08-06 18:39:01</time>
      </trkpt>
      <trkpt lat="37.06874" lon="-3.37609">
        <ele>2980.8</ele>
        <time>2021-08-06 18:39:02</time>
      </trkpt>
      <trkpt lat="37.06875" lon="-3.3761">
        <ele>2980.6</ele>
        <time>2021-08-06 18:39:03</time>
      </trkpt>
      <trkpt lat="37.06876" lon="-3.37611">
        <ele>2980.4</ele>
        <time>2021-08-06 18:39:04</time>
      </trkpt>
      <trkpt lat="37.06877" lon="-3.37611">
        <ele>2980.4</ele>
        <time>2021-08-06 18:39:05</time>
      </trkpt>
      <trkpt lat="37.06878" lon="-3.37611">
        <ele>2980.4</ele>
        <time>2021-08-06 18:39:06</time>
      </trkpt>
      <trkpt lat="37.06879" lon="-3.37612">
        <ele>2980.6</ele>
        <time>2021-08-06 18:39:07</time>
      </trkpt>
      <trkpt lat="37.0688" lon="-3.37612">
        <ele>2980.8</ele>
        <time>2021-08-06 18:39:08</time>
      </trkpt>
      <trkpt lat="37.06881" lon="-3.37613">
        <ele>2980.8</ele>
        <time>2021-08-06 18:39:09</time>
      </trkpt>
      <trkpt lat="37.06882" lon="-3.37614">
        <ele>2980.8</ele>
        <time>2021-08-06 18:39:10</time>
      </trkpt>
      <trkpt lat="37.06882" lon="-3.37615">
        <ele>2981</ele>
        <time>2021-08-06 18:39:11</time>
      </trkpt>
      <trkpt lat="37.06883" lon="-3.37616">
        <ele>2981</ele>
        <time>2021-08-06 18:39:12</time>
      </trkpt>
      <trkpt lat="37.06883" lon="-3.37617">
        <ele>2981</ele>
        <time>2021-08-06 18:39:13</time>
      </trkpt>
      <trkpt lat="37.06884" lon="-3.37618">
        <ele>2980.8</ele>
        <time>2021-08-06 18:39:14</time>
      </trkpt>
      <trkpt lat="37.06885" lon="-3.3762">
        <ele>2980.8</ele>
        <time>2021-08-06 18:39:15</time>
      </trkpt>
      <trkpt lat="37.06886" lon="-3.37622">
        <ele>2980.4</ele>
        <time>2021-08-06 18:39:16</time>
      </trkpt>
      <trkpt lat="37.06887" lon="-3.37622">
        <ele>2980.2</ele>
        <time>2021-08-06 18:39:17</time>
      </trkpt>
      <trkpt lat="37.06888" lon="-3.37623">
        <ele>2979.8</ele>
        <time>2021-08-06 18:39:18</time>
      </trkpt>
      <trkpt lat="37.06889" lon="-3.37625">
        <ele>2979.8</ele>
        <time>2021-08-06 18:39:19</time>
      </trkpt>
      <trkpt lat="37.0689" lon="-3.37625">
        <ele>2979.8</ele>
        <time>2021-08-06 18:39:20</time>
      </trkpt>
      <trkpt lat="37.06891" lon="-3.37626">
        <ele>2979.8</ele>
        <time>2021-08-06 18:39:21</time>
      </trkpt>
      <trkpt lat="37.06892" lon="-3.37627">
        <ele>2979.8</ele>
        <time>2021-08-06 18:39:22</time>
      </trkpt>
      <trkpt lat="37.06893" lon="-3.37628">
        <ele>2979.8</ele>
        <time>2021-08-06 18:39:23</time>
      </trkpt>
      <trkpt lat="37.06894" lon="-3.37629">
        <ele>2979.8</ele>
        <time>2021-08-06 18:39:24</time>
      </trkpt>
      <trkpt lat="37.06894" lon="-3.37629">
        <ele>2979.8</ele>
        <time>2021-08-06 18:39:25</time>
      </trkpt>
      <trkpt lat="37.06895" lon="-3.3763">
        <ele>2979.8</ele>
        <time>2021-08-06 18:39:26</time>
      </trkpt>
      <trkpt lat="37.06896" lon="-3.3763">
        <ele>2979.8</ele>
        <time>2021-08-06 18:39:27</time>
      </trkpt>
      <trkpt lat="37.06897" lon="-3.37631">
        <ele>2979.6</ele>
        <time>2021-08-06 18:39:28</time>
      </trkpt>
      <trkpt lat="37.06899" lon="-3.37631">
        <ele>2979.6</ele>
        <time>2021-08-06 18:39:29</time>
      </trkpt>
      <trkpt lat="37.069" lon="-3.3763">
        <ele>2979.6</ele>
        <time>2021-08-06 18:39:30</time>
      </trkpt>
      <trkpt lat="37.06902" lon="-3.3763">
        <ele>2979.6</ele>
        <time>2021-08-06 18:39:31</time>
      </trkpt>
      <trkpt lat="37.06903" lon="-3.37629">
        <ele>2979.2</ele>
        <time>2021-08-06 18:39:32</time>
      </trkpt>
      <trkpt lat="37.06904" lon="-3.37629">
        <ele>2979</ele>
        <time>2021-08-06 18:39:33</time>
      </trkpt>
      <trkpt lat="37.06906" lon="-3.37627">
        <ele>2978.8</ele>
        <time>2021-08-06 18:39:34</time>
      </trkpt>
      <trkpt lat="37.06908" lon="-3.37627">
        <ele>2979</ele>
        <time>2021-08-06 18:39:35</time>
      </trkpt>
      <trkpt lat="37.06909" lon="-3.37626">
        <ele>2979</ele>
        <time>2021-08-06 18:39:36</time>
      </trkpt>
      <trkpt lat="37.06909" lon="-3.37626">
        <ele>2979</ele>
        <time>2021-08-06 18:39:37</time>
      </trkpt>
      <trkpt lat="37.0691" lon="-3.37626">
        <ele>2979</ele>
        <time>2021-08-06 18:39:38</time>
      </trkpt>
      <trkpt lat="37.0691" lon="-3.37626">
        <ele>2979</ele>
        <time>2021-08-06 18:39:39</time>
      </trkpt>
      <trkpt lat="37.06911" lon="-3.37626">
        <ele>2979</ele>
        <time>2021-08-06 18:39:40</time>
      </trkpt>
      <trkpt lat="37.06913" lon="-3.37626">
        <ele>2978.8</ele>
        <time>2021-08-06 18:39:41</time>
      </trkpt>
      <trkpt lat="37.06914" lon="-3.37626">
        <ele>2978.6</ele>
        <time>2021-08-06 18:39:42</time>
      </trkpt>
      <trkpt lat="37.06914" lon="-3.37626">
        <ele>2978.6</ele>
        <time>2021-08-06 18:39:43</time>
      </trkpt>
      <trkpt lat="37.06915" lon="-3.37626">
        <ele>2978.6</ele>
        <time>2021-08-06 18:39:44</time>
      </trkpt>
      <trkpt lat="37.06916" lon="-3.37626">
        <ele>2978.2</ele>
        <time>2021-08-06 18:39:45</time>
      </trkpt>
      <trkpt lat="37.06917" lon="-3.37626">
        <ele>2978.4</ele>
        <time>2021-08-06 18:39:46</time>
      </trkpt>
      <trkpt lat="37.06918" lon="-3.37625">
        <ele>2978.4</ele>
        <time>2021-08-06 18:39:47</time>
      </trkpt>
      <trkpt lat="37.06919" lon="-3.37625">
        <ele>2978.4</ele>
        <time>2021-08-06 18:39:48</time>
      </trkpt>
      <trkpt lat="37.06919" lon="-3.37624">
        <ele>2978.4</ele>
        <time>2021-08-06 18:39:49</time>
      </trkpt>
      <trkpt lat="37.0692" lon="-3.37624">
        <ele>2978.4</ele>
        <time>2021-08-06 18:39:50</time>
      </trkpt>
      <trkpt lat="37.06921" lon="-3.37624">
        <ele>2978</ele>
        <time>2021-08-06 18:39:51</time>
      </trkpt>
      <trkpt lat="37.06922" lon="-3.37624">
        <ele>2978</ele>
        <time>2021-08-06 18:39:52</time>
      </trkpt>
      <trkpt lat="37.06923" lon="-3.37623">
        <ele>2977.8</ele>
        <time>2021-08-06 18:39:53</time>
      </trkpt>
      <trkpt lat="37.06924" lon="-3.37623">
        <ele>2977.4</ele>
        <time>2021-08-06 18:39:54</time>
      </trkpt>
      <trkpt lat="37.06925" lon="-3.37623">
        <ele>2977.4</ele>
        <time>2021-08-06 18:39:55</time>
      </trkpt>
      <trkpt lat="37.06925" lon="-3.37624">
        <ele>2977.6</ele>
        <time>2021-08-06 18:39:56</time>
      </trkpt>
      <trkpt lat="37.06926" lon="-3.37625">
        <ele>2977.8</ele>
        <time>2021-08-06 18:39:57</time>
      </trkpt>
      <trkpt lat="37.06926" lon="-3.37626">
        <ele>2977.4</ele>
        <time>2021-08-06 18:39:58</time>
      </trkpt>
      <trkpt lat="37.06926" lon="-3.37627">
        <ele>2977.4</ele>
        <time>2021-08-06 18:39:59</time>
      </trkpt>
      <trkpt lat="37.06927" lon="-3.37627">
        <ele>2977.4</ele>
        <time>2021-08-06 18:40:00</time>
      </trkpt>
      <trkpt lat="37.06927" lon="-3.37627">
        <ele>2977.6</ele>
        <time>2021-08-06 18:40:01</time>
      </trkpt>
      <trkpt lat="37.06928" lon="-3.37625">
        <ele>2977.6</ele>
        <time>2021-08-06 18:40:02</time>
      </trkpt>
      <trkpt lat="37.06928" lon="-3.37623">
        <ele>2977</ele>
        <time>2021-08-06 18:40:03</time>
      </trkpt>
      <trkpt lat="37.06929" lon="-3.37622">
        <ele>2976.8</ele>
        <time>2021-08-06 18:40:04</time>
      </trkpt>
      <trkpt lat="37.06929" lon="-3.37622">
        <ele>2976.6</ele>
        <time>2021-08-06 18:40:05</time>
      </trkpt>
      <trkpt lat="37.0693" lon="-3.37622">
        <ele>2976.4</ele>
        <time>2021-08-06 18:40:06</time>
      </trkpt>
      <trkpt lat="37.0693" lon="-3.37624">
        <ele>2976.2</ele>
        <time>2021-08-06 18:40:07</time>
      </trkpt>
      <trkpt lat="37.06931" lon="-3.37625">
        <ele>2975.8</ele>
        <time>2021-08-06 18:40:08</time>
      </trkpt>
      <trkpt lat="37.06931" lon="-3.37625">
        <ele>2975.6</ele>
        <time>2021-08-06 18:40:09</time>
      </trkpt>
      <trkpt lat="37.06932" lon="-3.37628">
        <ele>2975.4</ele>
        <time>2021-08-06 18:40:10</time>
      </trkpt>
      <trkpt lat="37.06932" lon="-3.37629">
        <ele>2975.2</ele>
        <time>2021-08-06 18:40:11</time>
      </trkpt>
      <trkpt lat="37.06932" lon="-3.3763">
        <ele>2975.2</ele>
        <time>2021-08-06 18:40:12</time>
      </trkpt>
      <trkpt lat="37.06932" lon="-3.3763">
        <ele>2975.2</ele>
        <time>2021-08-06 18:40:13</time>
      </trkpt>
      <trkpt lat="37.06933" lon="-3.37631">
        <ele>2975.2</ele>
        <time>2021-08-06 18:40:14</time>
      </trkpt>
      <trkpt lat="37.06933" lon="-3.37631">
        <ele>2975.2</ele>
        <time>2021-08-06 18:40:15</time>
      </trkpt>
      <trkpt lat="37.06933" lon="-3.37631">
        <ele>2975.4</ele>
        <time>2021-08-06 18:40:16</time>
      </trkpt>
      <trkpt lat="37.06934" lon="-3.37632">
        <ele>2975.4</ele>
        <time>2021-08-06 18:40:17</time>
      </trkpt>
      <trkpt lat="37.06934" lon="-3.37633">
        <ele>2974.8</ele>
        <time>2021-08-06 18:40:18</time>
      </trkpt>
      <trkpt lat="37.06935" lon="-3.37634">
        <ele>2974.4</ele>
        <time>2021-08-06 18:40:19</time>
      </trkpt>
      <trkpt lat="37.06936" lon="-3.37634">
        <ele>2973.6</ele>
        <time>2021-08-06 18:40:20</time>
      </trkpt>
      <trkpt lat="37.06936" lon="-3.37634">
        <ele>2973.2</ele>
        <time>2021-08-06 18:40:21</time>
      </trkpt>
      <trkpt lat="37.06937" lon="-3.37634">
        <ele>2973</ele>
        <time>2021-08-06 18:40:22</time>
      </trkpt>
      <trkpt lat="37.06938" lon="-3.37633">
        <ele>2973</ele>
        <time>2021-08-06 18:40:23</time>
      </trkpt>
      <trkpt lat="37.06938" lon="-3.37633">
        <ele>2973</ele>
        <time>2021-08-06 18:40:24</time>
      </trkpt>
      <trkpt lat="37.06939" lon="-3.37633">
        <ele>2973.4</ele>
        <time>2021-08-06 18:40:25</time>
      </trkpt>
      <trkpt lat="37.06939" lon="-3.37633">
        <ele>2973.8</ele>
        <time>2021-08-06 18:40:26</time>
      </trkpt>
      <trkpt lat="37.0694" lon="-3.37633">
        <ele>2974.2</ele>
        <time>2021-08-06 18:40:27</time>
      </trkpt>
      <trkpt lat="37.06941" lon="-3.37633">
        <ele>2974.2</ele>
        <time>2021-08-06 18:40:28</time>
      </trkpt>
      <trkpt lat="37.0694" lon="-3.37635">
        <ele>2974</ele>
        <time>2021-08-06 18:40:29</time>
      </trkpt>
      <trkpt lat="37.06941" lon="-3.37635">
        <ele>2973.2</ele>
        <time>2021-08-06 18:40:30</time>
      </trkpt>
      <trkpt lat="37.06941" lon="-3.37636">
        <ele>2972.8</ele>
        <time>2021-08-06 18:40:31</time>
      </trkpt>
      <trkpt lat="37.06942" lon="-3.37636">
        <ele>2972.4</ele>
        <time>2021-08-06 18:40:32</time>
      </trkpt>
      <trkpt lat="37.06943" lon="-3.37636">
        <ele>2972</ele>
        <time>2021-08-06 18:40:33</time>
      </trkpt>
      <trkpt lat="37.06943" lon="-3.37636">
        <ele>2971.8</ele>
        <time>2021-08-06 18:40:34</time>
      </trkpt>
      <trkpt lat="37.06943" lon="-3.37636">
        <ele>2971.6</ele>
        <time>2021-08-06 18:40:35</time>
      </trkpt>
      <trkpt lat="37.06943" lon="-3.37636">
        <ele>2971.6</ele>
        <time>2021-08-06 18:40:36</time>
      </trkpt>
      <trkpt lat="37.06944" lon="-3.37635">
        <ele>2971.6</ele>
        <time>2021-08-06 18:40:37</time>
      </trkpt>
      <trkpt lat="37.06944" lon="-3.37635">
        <ele>2971.4</ele>
        <time>2021-08-06 18:40:38</time>
      </trkpt>
      <trkpt lat="37.06944" lon="-3.37635">
        <ele>2971.4</ele>
        <time>2021-08-06 18:40:39</time>
      </trkpt>
      <trkpt lat="37.06945" lon="-3.37634">
        <ele>2971.4</ele>
        <time>2021-08-06 18:40:40</time>
      </trkpt>
      <trkpt lat="37.06945" lon="-3.37635">
        <ele>2972.2</ele>
        <time>2021-08-06 18:40:41</time>
      </trkpt>
      <trkpt lat="37.06945" lon="-3.37635">
        <ele>2972.4</ele>
        <time>2021-08-06 18:40:42</time>
      </trkpt>
      <trkpt lat="37.06946" lon="-3.37636">
        <ele>2972</ele>
        <time>2021-08-06 18:40:43</time>
      </trkpt>
      <trkpt lat="37.06946" lon="-3.37638">
        <ele>2972.2</ele>
        <time>2021-08-06 18:40:44</time>
      </trkpt>
      <trkpt lat="37.06947" lon="-3.37639">
        <ele>2972.2</ele>
        <time>2021-08-06 18:40:45</time>
      </trkpt>
      <trkpt lat="37.06948" lon="-3.37639">
        <ele>2972.2</ele>
        <time>2021-08-06 18:40:46</time>
      </trkpt>
      <trkpt lat="37.06949" lon="-3.37639">
        <ele>2971.4</ele>
        <time>2021-08-06 18:40:47</time>
      </trkpt>
      <trkpt lat="37.0695" lon="-3.37639">
        <ele>2970.8</ele>
        <time>2021-08-06 18:40:48</time>
      </trkpt>
      <trkpt lat="37.06951" lon="-3.37639">
        <ele>2970.2</ele>
        <time>2021-08-06 18:40:49</time>
      </trkpt>
      <trkpt lat="37.06951" lon="-3.3764">
        <ele>2970.4</ele>
        <time>2021-08-06 18:40:50</time>
      </trkpt>
      <trkpt lat="37.06951" lon="-3.37641">
        <ele>2970.2</ele>
        <time>2021-08-06 18:40:51</time>
      </trkpt>
      <trkpt lat="37.06952" lon="-3.37643">
        <ele>2970</ele>
        <time>2021-08-06 18:40:52</time>
      </trkpt>
      <trkpt lat="37.06952" lon="-3.37645">
        <ele>2969.8</ele>
        <time>2021-08-06 18:40:53</time>
      </trkpt>
      <trkpt lat="37.06953" lon="-3.37646">
        <ele>2969.4</ele>
        <time>2021-08-06 18:40:54</time>
      </trkpt>
      <trkpt lat="37.06953" lon="-3.37647">
        <ele>2969.2</ele>
        <time>2021-08-06 18:40:55</time>
      </trkpt>
      <trkpt lat="37.06954" lon="-3.37647">
        <ele>2969</ele>
        <time>2021-08-06 18:40:56</time>
      </trkpt>
      <trkpt lat="37.06955" lon="-3.37647">
        <ele>2968.4</ele>
        <time>2021-08-06 18:40:57</time>
      </trkpt>
      <trkpt lat="37.06955" lon="-3.37646">
        <ele>2968.2</ele>
        <time>2021-08-06 18:40:58</time>
      </trkpt>
      <trkpt lat="37.06956" lon="-3.37646">
        <ele>2968</ele>
        <time>2021-08-06 18:40:59</time>
      </trkpt>
      <trkpt lat="37.06957" lon="-3.37645">
        <ele>2967.8</ele>
        <time>2021-08-06 18:41:00</time>
      </trkpt>
      <trkpt lat="37.06958" lon="-3.37646">
        <ele>2967.6</ele>
        <time>2021-08-06 18:41:01</time>
      </trkpt>
      <trkpt lat="37.06958" lon="-3.37646">
        <ele>2967.6</ele>
        <time>2021-08-06 18:41:02</time>
      </trkpt>
      <trkpt lat="37.06959" lon="-3.37646">
        <ele>2967.4</ele>
        <time>2021-08-06 18:41:03</time>
      </trkpt>
      <trkpt lat="37.06959" lon="-3.37646">
        <ele>2967.4</ele>
        <time>2021-08-06 18:41:04</time>
      </trkpt>
      <trkpt lat="37.0696" lon="-3.37646">
        <ele>2967.2</ele>
        <time>2021-08-06 18:41:05</time>
      </trkpt>
      <trkpt lat="37.0696" lon="-3.37645">
        <ele>2967.2</ele>
        <time>2021-08-06 18:41:06</time>
      </trkpt>
      <trkpt lat="37.06961" lon="-3.37645">
        <ele>2967</ele>
        <time>2021-08-06 18:41:07</time>
      </trkpt>
      <trkpt lat="37.06962" lon="-3.37645">
        <ele>2966.8</ele>
        <time>2021-08-06 18:41:08</time>
      </trkpt>
      <trkpt lat="37.06962" lon="-3.37645">
        <ele>2966.6</ele>
        <time>2021-08-06 18:41:09</time>
      </trkpt>
      <trkpt lat="37.06963" lon="-3.37646">
        <ele>2966.4</ele>
        <time>2021-08-06 18:41:10</time>
      </trkpt>
      <trkpt lat="37.06964" lon="-3.37647">
        <ele>2966.2</ele>
        <time>2021-08-06 18:41:11</time>
      </trkpt>
      <trkpt lat="37.06964" lon="-3.37647">
        <ele>2966.2</ele>
        <time>2021-08-06 18:41:12</time>
      </trkpt>
      <trkpt lat="37.06965" lon="-3.37647">
        <ele>2966.2</ele>
        <time>2021-08-06 18:41:13</time>
      </trkpt>
      <trkpt lat="37.06965" lon="-3.37647">
        <ele>2966.2</ele>
        <time>2021-08-06 18:41:14</time>
      </trkpt>
      <trkpt lat="37.06965" lon="-3.37647">
        <ele>2966.4</ele>
        <time>2021-08-06 18:41:15</time>
      </trkpt>
      <trkpt lat="37.06965" lon="-3.37647">
        <ele>2966.4</ele>
        <time>2021-08-06 18:41:16</time>
      </trkpt>
      <trkpt lat="37.06965" lon="-3.37647">
        <ele>2966.4</ele>
        <time>2021-08-06 18:41:17</time>
      </trkpt>
      <trkpt lat="37.06965" lon="-3.37648">
        <ele>2966.6</ele>
        <time>2021-08-06 18:41:18</time>
      </trkpt>
      <trkpt lat="37.06966" lon="-3.37648">
        <ele>2966</ele>
        <time>2021-08-06 18:41:19</time>
      </trkpt>
      <trkpt lat="37.06966" lon="-3.37648">
        <ele>2965.8</ele>
        <time>2021-08-06 18:41:20</time>
      </trkpt>
      <trkpt lat="37.06967" lon="-3.37649">
        <ele>2965.4</ele>
        <time>2021-08-06 18:41:21</time>
      </trkpt>
      <trkpt lat="37.06968" lon="-3.37649">
        <ele>2965.2</ele>
        <time>2021-08-06 18:41:22</time>
      </trkpt>
      <trkpt lat="37.06968" lon="-3.3765">
        <ele>2965</ele>
        <time>2021-08-06 18:41:23</time>
      </trkpt>
      <trkpt lat="37.06968" lon="-3.3765">
        <ele>2964.4</ele>
        <time>2021-08-06 18:41:24</time>
      </trkpt>
      <trkpt lat="37.06969" lon="-3.37651">
        <ele>2964.2</ele>
        <time>2021-08-06 18:41:25</time>
      </trkpt>
      <trkpt lat="37.06969" lon="-3.37651">
        <ele>2963.8</ele>
        <time>2021-08-06 18:41:26</time>
      </trkpt>
      <trkpt lat="37.0697" lon="-3.37651">
        <ele>2963.4</ele>
        <time>2021-08-06 18:41:27</time>
      </trkpt>
      <trkpt lat="37.0697" lon="-3.37651">
        <ele>2963</ele>
        <time>2021-08-06 18:41:28</time>
      </trkpt>
      <trkpt lat="37.06971" lon="-3.3765">
        <ele>2962.8</ele>
        <time>2021-08-06 18:41:29</time>
      </trkpt>
      <trkpt lat="37.06972" lon="-3.3765">
        <ele>2963</ele>
        <time>2021-08-06 18:41:30</time>
      </trkpt>
      <trkpt lat="37.06973" lon="-3.3765">
        <ele>2963.2</ele>
        <time>2021-08-06 18:41:31</time>
      </trkpt>
      <trkpt lat="37.06974" lon="-3.37649">
        <ele>2963.2</ele>
        <time>2021-08-06 18:41:32</time>
      </trkpt>
      <trkpt lat="37.06974" lon="-3.37649">
        <ele>2963.2</ele>
        <time>2021-08-06 18:41:33</time>
      </trkpt>
      <trkpt lat="37.06975" lon="-3.37649">
        <ele>2963.4</ele>
        <time>2021-08-06 18:41:34</time>
      </trkpt>
      <trkpt lat="37.06976" lon="-3.37648">
        <ele>2963.4</ele>
        <time>2021-08-06 18:41:35</time>
      </trkpt>
      <trkpt lat="37.06977" lon="-3.37648">
        <ele>2963.2</ele>
        <time>2021-08-06 18:41:36</time>
      </trkpt>
      <trkpt lat="37.06978" lon="-3.37648">
        <ele>2963</ele>
        <time>2021-08-06 18:41:37</time>
      </trkpt>
      <trkpt lat="37.06978" lon="-3.37648">
        <ele>2962.6</ele>
        <time>2021-08-06 18:41:38</time>
      </trkpt>
      <trkpt lat="37.06979" lon="-3.37648">
        <ele>2962</ele>
        <time>2021-08-06 18:41:39</time>
      </trkpt>
      <trkpt lat="37.0698" lon="-3.37648">
        <ele>2961.6</ele>
        <time>2021-08-06 18:41:40</time>
      </trkpt>
      <trkpt lat="37.06981" lon="-3.37648">
        <ele>2961.2</ele>
        <time>2021-08-06 18:41:41</time>
      </trkpt>
      <trkpt lat="37.06981" lon="-3.37649">
        <ele>2961</ele>
        <time>2021-08-06 18:41:42</time>
      </trkpt>
      <trkpt lat="37.06981" lon="-3.3765">
        <ele>2960.8</ele>
        <time>2021-08-06 18:41:43</time>
      </trkpt>
      <trkpt lat="37.06982" lon="-3.37649">
        <ele>2960.6</ele>
        <time>2021-08-06 18:41:44</time>
      </trkpt>
      <trkpt lat="37.06983" lon="-3.37649">
        <ele>2960.6</ele>
        <time>2021-08-06 18:41:45</time>
      </trkpt>
      <trkpt lat="37.06984" lon="-3.37648">
        <ele>2960.8</ele>
        <time>2021-08-06 18:41:46</time>
      </trkpt>
      <trkpt lat="37.06985" lon="-3.37648">
        <ele>2960.8</ele>
        <time>2021-08-06 18:41:47</time>
      </trkpt>
      <trkpt lat="37.06985" lon="-3.37649">
        <ele>2960.8</ele>
        <time>2021-08-06 18:41:48</time>
      </trkpt>
      <trkpt lat="37.06986" lon="-3.37649">
        <ele>2960.4</ele>
        <time>2021-08-06 18:41:49</time>
      </trkpt>
      <trkpt lat="37.06987" lon="-3.37649">
        <ele>2960.4</ele>
        <time>2021-08-06 18:41:50</time>
      </trkpt>
      <trkpt lat="37.06987" lon="-3.37649">
        <ele>2960.2</ele>
        <time>2021-08-06 18:41:51</time>
      </trkpt>
      <trkpt lat="37.06988" lon="-3.37649">
        <ele>2960</ele>
        <time>2021-08-06 18:41:52</time>
      </trkpt>
      <trkpt lat="37.06989" lon="-3.37649">
        <ele>2960</ele>
        <time>2021-08-06 18:41:53</time>
      </trkpt>
      <trkpt lat="37.0699" lon="-3.37649">
        <ele>2959.8</ele>
        <time>2021-08-06 18:41:54</time>
      </trkpt>
      <trkpt lat="37.06991" lon="-3.37648">
        <ele>2959.8</ele>
        <time>2021-08-06 18:41:55</time>
      </trkpt>
      <trkpt lat="37.06992" lon="-3.37648">
        <ele>2959.8</ele>
        <time>2021-08-06 18:41:56</time>
      </trkpt>
      <trkpt lat="37.06993" lon="-3.37648">
        <ele>2959.8</ele>
        <time>2021-08-06 18:41:57</time>
      </trkpt>
      <trkpt lat="37.06994" lon="-3.37648">
        <ele>2959.6</ele>
        <time>2021-08-06 18:41:58</time>
      </trkpt>
      <trkpt lat="37.06995" lon="-3.37647">
        <ele>2959.6</ele>
        <time>2021-08-06 18:41:59</time>
      </trkpt>
      <trkpt lat="37.06996" lon="-3.37647">
        <ele>2959.4</ele>
        <time>2021-08-06 18:42:00</time>
      </trkpt>
      <trkpt lat="37.06997" lon="-3.37646">
        <ele>2959.2</ele>
        <time>2021-08-06 18:42:01</time>
      </trkpt>
      <trkpt lat="37.06998" lon="-3.37646">
        <ele>2959.2</ele>
        <time>2021-08-06 18:42:02</time>
      </trkpt>
      <trkpt lat="37.06999" lon="-3.37647">
        <ele>2959.2</ele>
        <time>2021-08-06 18:42:03</time>
      </trkpt>
      <trkpt lat="37.06999" lon="-3.37647">
        <ele>2959</ele>
        <time>2021-08-06 18:42:04</time>
      </trkpt>
      <trkpt lat="37.07" lon="-3.37648">
        <ele>2958.8</ele>
        <time>2021-08-06 18:42:05</time>
      </trkpt>
      <trkpt lat="37.07" lon="-3.37649">
        <ele>2958.6</ele>
        <time>2021-08-06 18:42:06</time>
      </trkpt>
      <trkpt lat="37.07" lon="-3.3765">
        <ele>2958.6</ele>
        <time>2021-08-06 18:42:07</time>
      </trkpt>
      <trkpt lat="37.07" lon="-3.37651">
        <ele>2958.4</ele>
        <time>2021-08-06 18:42:08</time>
      </trkpt>
      <trkpt lat="37.07" lon="-3.37652">
        <ele>2958.2</ele>
        <time>2021-08-06 18:42:09</time>
      </trkpt>
      <trkpt lat="37.07001" lon="-3.37652">
        <ele>2958</ele>
        <time>2021-08-06 18:42:10</time>
      </trkpt>
      <trkpt lat="37.07001" lon="-3.37653">
        <ele>2957.8</ele>
        <time>2021-08-06 18:42:11</time>
      </trkpt>
      <trkpt lat="37.07002" lon="-3.37653">
        <ele>2957.6</ele>
        <time>2021-08-06 18:42:12</time>
      </trkpt>
      <trkpt lat="37.07003" lon="-3.37654">
        <ele>2957.2</ele>
        <time>2021-08-06 18:42:13</time>
      </trkpt>
      <trkpt lat="37.07003" lon="-3.37656">
        <ele>2957</ele>
        <time>2021-08-06 18:42:14</time>
      </trkpt>
      <trkpt lat="37.07004" lon="-3.37657">
        <ele>2956.8</ele>
        <time>2021-08-06 18:42:15</time>
      </trkpt>
      <trkpt lat="37.07005" lon="-3.37659">
        <ele>2956.6</ele>
        <time>2021-08-06 18:42:16</time>
      </trkpt>
      <trkpt lat="37.07005" lon="-3.37658">
        <ele>2956.2</ele>
        <time>2021-08-06 18:42:17</time>
      </trkpt>
      <trkpt lat="37.07006" lon="-3.37658">
        <ele>2955.6</ele>
        <time>2021-08-06 18:42:18</time>
      </trkpt>
      <trkpt lat="37.07006" lon="-3.3766">
        <ele>2955.4</ele>
        <time>2021-08-06 18:42:19</time>
      </trkpt>
      <trkpt lat="37.07007" lon="-3.3766">
        <ele>2955</ele>
        <time>2021-08-06 18:42:20</time>
      </trkpt>
      <trkpt lat="37.07007" lon="-3.3766">
        <ele>2954.8</ele>
        <time>2021-08-06 18:42:21</time>
      </trkpt>
      <trkpt lat="37.07008" lon="-3.37662">
        <ele>2954.8</ele>
        <time>2021-08-06 18:42:22</time>
      </trkpt>
      <trkpt lat="37.07008" lon="-3.37663">
        <ele>2954.6</ele>
        <time>2021-08-06 18:42:23</time>
      </trkpt>
      <trkpt lat="37.07009" lon="-3.37664">
        <ele>2954.6</ele>
        <time>2021-08-06 18:42:24</time>
      </trkpt>
      <trkpt lat="37.0701" lon="-3.37665">
        <ele>2954.4</ele>
        <time>2021-08-06 18:42:25</time>
      </trkpt>
      <trkpt lat="37.0701" lon="-3.37666">
        <ele>2954.2</ele>
        <time>2021-08-06 18:42:26</time>
      </trkpt>
      <trkpt lat="37.07011" lon="-3.37667">
        <ele>2954.2</ele>
        <time>2021-08-06 18:42:27</time>
      </trkpt>
      <trkpt lat="37.07012" lon="-3.37667">
        <ele>2954</ele>
        <time>2021-08-06 18:42:28</time>
      </trkpt>
      <trkpt lat="37.07012" lon="-3.37668">
        <ele>2954.2</ele>
        <time>2021-08-06 18:42:29</time>
      </trkpt>
      <trkpt lat="37.07012" lon="-3.37668">
        <ele>2954.4</ele>
        <time>2021-08-06 18:42:30</time>
      </trkpt>
      <trkpt lat="37.07012" lon="-3.37669">
        <ele>2954.4</ele>
        <time>2021-08-06 18:42:31</time>
      </trkpt>
      <trkpt lat="37.07012" lon="-3.3767">
        <ele>2954.6</ele>
        <time>2021-08-06 18:42:32</time>
      </trkpt>
      <trkpt lat="37.07013" lon="-3.37672">
        <ele>2954.6</ele>
        <time>2021-08-06 18:42:33</time>
      </trkpt>
      <trkpt lat="37.07014" lon="-3.37672">
        <ele>2954.6</ele>
        <time>2021-08-06 18:42:34</time>
      </trkpt>
      <trkpt lat="37.07014" lon="-3.37672">
        <ele>2953.8</ele>
        <time>2021-08-06 18:42:35</time>
      </trkpt>
      <trkpt lat="37.07015" lon="-3.37673">
        <ele>2953.6</ele>
        <time>2021-08-06 18:42:36</time>
      </trkpt>
      <trkpt lat="37.07016" lon="-3.37673">
        <ele>2953.2</ele>
        <time>2021-08-06 18:42:37</time>
      </trkpt>
      <trkpt lat="37.07016" lon="-3.37674">
        <ele>2953</ele>
        <time>2021-08-06 18:42:38</time>
      </trkpt>
      <trkpt lat="37.07017" lon="-3.37674">
        <ele>2952.8</ele>
        <time>2021-08-06 18:42:39</time>
      </trkpt>
      <trkpt lat="37.07017" lon="-3.37675">
        <ele>2952.8</ele>
        <time>2021-08-06 18:42:40</time>
      </trkpt>
      <trkpt lat="37.07018" lon="-3.37676">
        <ele>2952.4</ele>
        <time>2021-08-06 18:42:41</time>
      </trkpt>
      <trkpt lat="37.07019" lon="-3.37677">
        <ele>2952.2</ele>
        <time>2021-08-06 18:42:42</time>
      </trkpt>
      <trkpt lat="37.07019" lon="-3.37678">
        <ele>2952</ele>
        <time>2021-08-06 18:42:43</time>
      </trkpt>
      <trkpt lat="37.0702" lon="-3.37679">
        <ele>2951.8</ele>
        <time>2021-08-06 18:42:44</time>
      </trkpt>
      <trkpt lat="37.0702" lon="-3.37682">
        <ele>2951.6</ele>
        <time>2021-08-06 18:42:45</time>
      </trkpt>
      <trkpt lat="37.0702" lon="-3.37685">
        <ele>2951.6</ele>
        <time>2021-08-06 18:42:46</time>
      </trkpt>
      <trkpt lat="37.07021" lon="-3.37686">
        <ele>2951.6</ele>
        <time>2021-08-06 18:42:47</time>
      </trkpt>
      <trkpt lat="37.07021" lon="-3.37687">
        <ele>2951.4</ele>
        <time>2021-08-06 18:42:48</time>
      </trkpt>
      <trkpt lat="37.07022" lon="-3.37687">
        <ele>2951.2</ele>
        <time>2021-08-06 18:42:49</time>
      </trkpt>
      <trkpt lat="37.07023" lon="-3.37688">
        <ele>2951.2</ele>
        <time>2021-08-06 18:42:50</time>
      </trkpt>
      <trkpt lat="37.07024" lon="-3.37688">
        <ele>2951.2</ele>
        <time>2021-08-06 18:42:51</time>
      </trkpt>
      <trkpt lat="37.07025" lon="-3.3769">
        <ele>2951.4</ele>
        <time>2021-08-06 18:42:52</time>
      </trkpt>
      <trkpt lat="37.07026" lon="-3.3769">
        <ele>2951.6</ele>
        <time>2021-08-06 18:42:53</time>
      </trkpt>
      <trkpt lat="37.07026" lon="-3.37691">
        <ele>2951.6</ele>
        <time>2021-08-06 18:42:54</time>
      </trkpt>
      <trkpt lat="37.07027" lon="-3.37692">
        <ele>2951.8</ele>
        <time>2021-08-06 18:42:55</time>
      </trkpt>
      <trkpt lat="37.07028" lon="-3.37692">
        <ele>2951.8</ele>
        <time>2021-08-06 18:42:56</time>
      </trkpt>
      <trkpt lat="37.07028" lon="-3.37692">
        <ele>2951.8</ele>
        <time>2021-08-06 18:42:57</time>
      </trkpt>
      <trkpt lat="37.0703" lon="-3.37693">
        <ele>2951.8</ele>
        <time>2021-08-06 18:42:58</time>
      </trkpt>
      <trkpt lat="37.07031" lon="-3.37694">
        <ele>2951.6</ele>
        <time>2021-08-06 18:42:59</time>
      </trkpt>
      <trkpt lat="37.07032" lon="-3.37694">
        <ele>2951.2</ele>
        <time>2021-08-06 18:43:00</time>
      </trkpt>
      <trkpt lat="37.07033" lon="-3.37695">
        <ele>2951</ele>
        <time>2021-08-06 18:43:01</time>
      </trkpt>
      <trkpt lat="37.07033" lon="-3.37695">
        <ele>2950.6</ele>
        <time>2021-08-06 18:43:02</time>
      </trkpt>
      <trkpt lat="37.07034" lon="-3.37696">
        <ele>2950.4</ele>
        <time>2021-08-06 18:43:03</time>
      </trkpt>
      <trkpt lat="37.07035" lon="-3.37697">
        <ele>2950.8</ele>
        <time>2021-08-06 18:43:04</time>
      </trkpt>
      <trkpt lat="37.07036" lon="-3.37697">
        <ele>2950.8</ele>
        <time>2021-08-06 18:43:05</time>
      </trkpt>
      <trkpt lat="37.07036" lon="-3.37698">
        <ele>2950.6</ele>
        <time>2021-08-06 18:43:06</time>
      </trkpt>
      <trkpt lat="37.07036" lon="-3.37698">
        <ele>2950.4</ele>
        <time>2021-08-06 18:43:07</time>
      </trkpt>
      <trkpt lat="37.07037" lon="-3.37698">
        <ele>2950</ele>
        <time>2021-08-06 18:43:08</time>
      </trkpt>
      <trkpt lat="37.07037" lon="-3.37698">
        <ele>2949.8</ele>
        <time>2021-08-06 18:43:09</time>
      </trkpt>
      <trkpt lat="37.07038" lon="-3.37698">
        <ele>2949</ele>
        <time>2021-08-06 18:43:10</time>
      </trkpt>
      <trkpt lat="37.07039" lon="-3.37697">
        <ele>2948.6</ele>
        <time>2021-08-06 18:43:11</time>
      </trkpt>
      <trkpt lat="37.0704" lon="-3.37697">
        <ele>2948.2</ele>
        <time>2021-08-06 18:43:12</time>
      </trkpt>
      <trkpt lat="37.07042" lon="-3.37697">
        <ele>2947.8</ele>
        <time>2021-08-06 18:43:13</time>
      </trkpt>
      <trkpt lat="37.07042" lon="-3.37696">
        <ele>2947.6</ele>
        <time>2021-08-06 18:43:14</time>
      </trkpt>
      <trkpt lat="37.07043" lon="-3.37695">
        <ele>2947.6</ele>
        <time>2021-08-06 18:43:15</time>
      </trkpt>
      <trkpt lat="37.07045" lon="-3.37695">
        <ele>2947</ele>
        <time>2021-08-06 18:43:16</time>
      </trkpt>
      <trkpt lat="37.07046" lon="-3.37694">
        <ele>2946.6</ele>
        <time>2021-08-06 18:43:17</time>
      </trkpt>
      <trkpt lat="37.07045" lon="-3.37692">
        <ele>2946.4</ele>
        <time>2021-08-06 18:43:18</time>
      </trkpt>
      <trkpt lat="37.07046" lon="-3.37692">
        <ele>2946.4</ele>
        <time>2021-08-06 18:43:19</time>
      </trkpt>
      <trkpt lat="37.07047" lon="-3.37692">
        <ele>2946.4</ele>
        <time>2021-08-06 18:43:20</time>
      </trkpt>
      <trkpt lat="37.07048" lon="-3.37692">
        <ele>2946.6</ele>
        <time>2021-08-06 18:43:21</time>
      </trkpt>
      <trkpt lat="37.07049" lon="-3.37691">
        <ele>2946.6</ele>
        <time>2021-08-06 18:43:22</time>
      </trkpt>
      <trkpt lat="37.0705" lon="-3.3769">
        <ele>2946.6</ele>
        <time>2021-08-06 18:43:23</time>
      </trkpt>
      <trkpt lat="37.07051" lon="-3.37689">
        <ele>2946.6</ele>
        <time>2021-08-06 18:43:24</time>
      </trkpt>
      <trkpt lat="37.07053" lon="-3.37688">
        <ele>2946.6</ele>
        <time>2021-08-06 18:43:25</time>
      </trkpt>
      <trkpt lat="37.07054" lon="-3.37687">
        <ele>2946.6</ele>
        <time>2021-08-06 18:43:26</time>
      </trkpt>
      <trkpt lat="37.07055" lon="-3.3769">
        <ele>2946.6</ele>
        <time>2021-08-06 18:43:27</time>
      </trkpt>
      <trkpt lat="37.07056" lon="-3.37691">
        <ele>2946.4</ele>
        <time>2021-08-06 18:43:28</time>
      </trkpt>
      <trkpt lat="37.07056" lon="-3.37691">
        <ele>2946.4</ele>
        <time>2021-08-06 18:43:29</time>
      </trkpt>
      <trkpt lat="37.07057" lon="-3.37693">
        <ele>2946.2</ele>
        <time>2021-08-06 18:43:30</time>
      </trkpt>
      <trkpt lat="37.07056" lon="-3.37696">
        <ele>2946.2</ele>
        <time>2021-08-06 18:43:31</time>
      </trkpt>
      <trkpt lat="37.07057" lon="-3.37696">
        <ele>2946.2</ele>
        <time>2021-08-06 18:43:32</time>
      </trkpt>
      <trkpt lat="37.07057" lon="-3.37696">
        <ele>2946.2</ele>
        <time>2021-08-06 18:43:33</time>
      </trkpt>
      <trkpt lat="37.07055" lon="-3.377">
        <ele>2946.2</ele>
        <time>2021-08-06 18:43:34</time>
      </trkpt>
      <trkpt lat="37.07054" lon="-3.37702">
        <ele>2946</ele>
        <time>2021-08-06 18:43:35</time>
      </trkpt>
      <trkpt lat="37.07054" lon="-3.37704">
        <ele>2945.6</ele>
        <time>2021-08-06 18:43:36</time>
      </trkpt>
      <trkpt lat="37.07053" lon="-3.37703">
        <ele>2945.4</ele>
        <time>2021-08-06 18:43:37</time>
      </trkpt>
      <trkpt lat="37.07053" lon="-3.37703">
        <ele>2945.2</ele>
        <time>2021-08-06 18:43:38</time>
      </trkpt>
      <trkpt lat="37.07054" lon="-3.37704">
        <ele>2945</ele>
        <time>2021-08-06 18:43:39</time>
      </trkpt>
      <trkpt lat="37.07054" lon="-3.37705">
        <ele>2944.8</ele>
        <time>2021-08-06 18:43:40</time>
      </trkpt>
      <trkpt lat="37.07054" lon="-3.37707">
        <ele>2944.8</ele>
        <time>2021-08-06 18:43:41</time>
      </trkpt>
      <trkpt lat="37.07055" lon="-3.3771">
        <ele>2944.6</ele>
        <time>2021-08-06 18:43:42</time>
      </trkpt>
      <trkpt lat="37.07056" lon="-3.3771">
        <ele>2944.6</ele>
        <time>2021-08-06 18:43:43</time>
      </trkpt>
      <trkpt lat="37.07057" lon="-3.37711">
        <ele>2944.4</ele>
        <time>2021-08-06 18:43:44</time>
      </trkpt>
      <trkpt lat="37.07058" lon="-3.37711">
        <ele>2944.2</ele>
        <time>2021-08-06 18:43:45</time>
      </trkpt>
      <trkpt lat="37.07058" lon="-3.37712">
        <ele>2943.8</ele>
        <time>2021-08-06 18:43:46</time>
      </trkpt>
      <trkpt lat="37.07059" lon="-3.37711">
        <ele>2943.6</ele>
        <time>2021-08-06 18:43:47</time>
      </trkpt>
      <trkpt lat="37.0706" lon="-3.37711">
        <ele>2943.2</ele>
        <time>2021-08-06 18:43:48</time>
      </trkpt>
      <trkpt lat="37.07062" lon="-3.37711">
        <ele>2943.2</ele>
        <time>2021-08-06 18:43:49</time>
      </trkpt>
      <trkpt lat="37.07063" lon="-3.37712">
        <ele>2943</ele>
        <time>2021-08-06 18:43:50</time>
      </trkpt>
      <trkpt lat="37.07064" lon="-3.37712">
        <ele>2943</ele>
        <time>2021-08-06 18:43:51</time>
      </trkpt>
      <trkpt lat="37.07065" lon="-3.37712">
        <ele>2943</ele>
        <time>2021-08-06 18:43:52</time>
      </trkpt>
      <trkpt lat="37.07066" lon="-3.37715">
        <ele>2942.8</ele>
        <time>2021-08-06 18:43:53</time>
      </trkpt>
      <trkpt lat="37.07067" lon="-3.37716">
        <ele>2943</ele>
        <time>2021-08-06 18:43:54</time>
      </trkpt>
      <trkpt lat="37.07068" lon="-3.37717">
        <ele>2942.6</ele>
        <time>2021-08-06 18:43:55</time>
      </trkpt>
      <trkpt lat="37.07069" lon="-3.37719">
        <ele>2942.8</ele>
        <time>2021-08-06 18:43:56</time>
      </trkpt>
      <trkpt lat="37.07069" lon="-3.3772">
        <ele>2942.6</ele>
        <time>2021-08-06 18:43:57</time>
      </trkpt>
      <trkpt lat="37.0707" lon="-3.37722">
        <ele>2942.4</ele>
        <time>2021-08-06 18:43:58</time>
      </trkpt>
      <trkpt lat="37.07071" lon="-3.37723">
        <ele>2942.2</ele>
        <time>2021-08-06 18:43:59</time>
      </trkpt>
      <trkpt lat="37.07072" lon="-3.37724">
        <ele>2942</ele>
        <time>2021-08-06 18:44:00</time>
      </trkpt>
      <trkpt lat="37.07073" lon="-3.37724">
        <ele>2941.8</ele>
        <time>2021-08-06 18:44:01</time>
      </trkpt>
      <trkpt lat="37.07074" lon="-3.37724">
        <ele>2941.6</ele>
        <time>2021-08-06 18:44:02</time>
      </trkpt>
      <trkpt lat="37.07075" lon="-3.37725">
        <ele>2941.4</ele>
        <time>2021-08-06 18:44:03</time>
      </trkpt>
      <trkpt lat="37.07075" lon="-3.37726">
        <ele>2941.4</ele>
        <time>2021-08-06 18:44:04</time>
      </trkpt>
      <trkpt lat="37.07076" lon="-3.37726">
        <ele>2941.2</ele>
        <time>2021-08-06 18:44:05</time>
      </trkpt>
      <trkpt lat="37.07077" lon="-3.37726">
        <ele>2941.2</ele>
        <time>2021-08-06 18:44:06</time>
      </trkpt>
      <trkpt lat="37.07077" lon="-3.37727">
        <ele>2941</ele>
        <time>2021-08-06 18:44:07</time>
      </trkpt>
      <trkpt lat="37.07078" lon="-3.37727">
        <ele>2940.8</ele>
        <time>2021-08-06 18:44:08</time>
      </trkpt>
      <trkpt lat="37.07079" lon="-3.37728">
        <ele>2940.6</ele>
        <time>2021-08-06 18:44:09</time>
      </trkpt>
      <trkpt lat="37.07079" lon="-3.37728">
        <ele>2940.6</ele>
        <time>2021-08-06 18:44:10</time>
      </trkpt>
      <trkpt lat="37.0708" lon="-3.37727">
        <ele>2940.4</ele>
        <time>2021-08-06 18:44:11</time>
      </trkpt>
      <trkpt lat="37.07081" lon="-3.37727">
        <ele>2940.4</ele>
        <time>2021-08-06 18:44:12</time>
      </trkpt>
      <trkpt lat="37.07082" lon="-3.37727">
        <ele>2940.2</ele>
        <time>2021-08-06 18:44:13</time>
      </trkpt>
      <trkpt lat="37.07082" lon="-3.37727">
        <ele>2940.2</ele>
        <time>2021-08-06 18:44:14</time>
      </trkpt>
      <trkpt lat="37.07083" lon="-3.37727">
        <ele>2940.2</ele>
        <time>2021-08-06 18:44:15</time>
      </trkpt>
      <trkpt lat="37.07084" lon="-3.37727">
        <ele>2939.8</ele>
        <time>2021-08-06 18:44:16</time>
      </trkpt>
      <trkpt lat="37.07084" lon="-3.37727">
        <ele>2939.6</ele>
        <time>2021-08-06 18:44:17</time>
      </trkpt>
      <trkpt lat="37.07086" lon="-3.37725">
        <ele>2939.4</ele>
        <time>2021-08-06 18:44:18</time>
      </trkpt>
      <trkpt lat="37.07087" lon="-3.37724">
        <ele>2939</ele>
        <time>2021-08-06 18:44:19</time>
      </trkpt>
      <trkpt lat="37.07088" lon="-3.37724">
        <ele>2938.8</ele>
        <time>2021-08-06 18:44:20</time>
      </trkpt>
      <trkpt lat="37.07089" lon="-3.37722">
        <ele>2938.6</ele>
        <time>2021-08-06 18:44:21</time>
      </trkpt>
      <trkpt lat="37.0709" lon="-3.37722">
        <ele>2938.2</ele>
        <time>2021-08-06 18:44:22</time>
      </trkpt>
      <trkpt lat="37.07091" lon="-3.37723">
        <ele>2938</ele>
        <time>2021-08-06 18:44:23</time>
      </trkpt>
      <trkpt lat="37.07091" lon="-3.37723">
        <ele>2938</ele>
        <time>2021-08-06 18:44:24</time>
      </trkpt>
      <trkpt lat="37.07092" lon="-3.37724">
        <ele>2937.8</ele>
        <time>2021-08-06 18:44:25</time>
      </trkpt>
      <trkpt lat="37.07093" lon="-3.37725">
        <ele>2937.8</ele>
        <time>2021-08-06 18:44:26</time>
      </trkpt>
      <trkpt lat="37.07093" lon="-3.37726">
        <ele>2937.8</ele>
        <time>2021-08-06 18:44:27</time>
      </trkpt>
      <trkpt lat="37.07094" lon="-3.37727">
        <ele>2937.8</ele>
        <time>2021-08-06 18:44:28</time>
      </trkpt>
      <trkpt lat="37.07095" lon="-3.37728">
        <ele>2937.8</ele>
        <time>2021-08-06 18:44:29</time>
      </trkpt>
      <trkpt lat="37.07095" lon="-3.37728">
        <ele>2937.6</ele>
        <time>2021-08-06 18:44:30</time>
      </trkpt>
      <trkpt lat="37.07096" lon="-3.37728">
        <ele>2937.2</ele>
        <time>2021-08-06 18:44:31</time>
      </trkpt>
      <trkpt lat="37.07097" lon="-3.37728">
        <ele>2937</ele>
        <time>2021-08-06 18:44:32</time>
      </trkpt>
      <trkpt lat="37.07099" lon="-3.37727">
        <ele>2937</ele>
        <time>2021-08-06 18:44:33</time>
      </trkpt>
      <trkpt lat="37.071" lon="-3.37726">
        <ele>2937</ele>
        <time>2021-08-06 18:44:34</time>
      </trkpt>
      <trkpt lat="37.07101" lon="-3.37726">
        <ele>2937</ele>
        <time>2021-08-06 18:44:35</time>
      </trkpt>
      <trkpt lat="37.071" lon="-3.37727">
        <ele>2937</ele>
        <time>2021-08-06 18:44:36</time>
      </trkpt>
      <trkpt lat="37.071" lon="-3.37727">
        <ele>2937</ele>
        <time>2021-08-06 18:44:37</time>
      </trkpt>
      <trkpt lat="37.07101" lon="-3.37727">
        <ele>2937</ele>
        <time>2021-08-06 18:44:38</time>
      </trkpt>
      <trkpt lat="37.07102" lon="-3.3773">
        <ele>2936.8</ele>
        <time>2021-08-06 18:44:39</time>
      </trkpt>
      <trkpt lat="37.07103" lon="-3.37731">
        <ele>2936.6</ele>
        <time>2021-08-06 18:44:40</time>
      </trkpt>
      <trkpt lat="37.07104" lon="-3.37733">
        <ele>2936.2</ele>
        <time>2021-08-06 18:44:41</time>
      </trkpt>
      <trkpt lat="37.07104" lon="-3.37733">
        <ele>2935.8</ele>
        <time>2021-08-06 18:44:42</time>
      </trkpt>
      <trkpt lat="37.07105" lon="-3.37733">
        <ele>2935.4</ele>
        <time>2021-08-06 18:44:43</time>
      </trkpt>
      <trkpt lat="37.07106" lon="-3.37733">
        <ele>2935.4</ele>
        <time>2021-08-06 18:44:44</time>
      </trkpt>
      <trkpt lat="37.07106" lon="-3.37734">
        <ele>2935.2</ele>
        <time>2021-08-06 18:44:45</time>
      </trkpt>
      <trkpt lat="37.07107" lon="-3.37734">
        <ele>2935</ele>
        <time>2021-08-06 18:44:46</time>
      </trkpt>
      <trkpt lat="37.07108" lon="-3.37735">
        <ele>2934.8</ele>
        <time>2021-08-06 18:44:47</time>
      </trkpt>
      <trkpt lat="37.0711" lon="-3.37734">
        <ele>2934.8</ele>
        <time>2021-08-06 18:44:48</time>
      </trkpt>
      <trkpt lat="37.07111" lon="-3.37734">
        <ele>2934.2</ele>
        <time>2021-08-06 18:44:49</time>
      </trkpt>
      <trkpt lat="37.07112" lon="-3.37733">
        <ele>2934</ele>
        <time>2021-08-06 18:44:50</time>
      </trkpt>
      <trkpt lat="37.07113" lon="-3.37736">
        <ele>2934</ele>
        <time>2021-08-06 18:44:51</time>
      </trkpt>
      <trkpt lat="37.07114" lon="-3.37737">
        <ele>2933.8</ele>
        <time>2021-08-06 18:44:52</time>
      </trkpt>
      <trkpt lat="37.07114" lon="-3.37738">
        <ele>2933.6</ele>
        <time>2021-08-06 18:44:53</time>
      </trkpt>
      <trkpt lat="37.07115" lon="-3.37739">
        <ele>2933.4</ele>
        <time>2021-08-06 18:44:54</time>
      </trkpt>
      <trkpt lat="37.07116" lon="-3.37737">
        <ele>2932.8</ele>
        <time>2021-08-06 18:44:55</time>
      </trkpt>
      <trkpt lat="37.07117" lon="-3.37736">
        <ele>2932.2</ele>
        <time>2021-08-06 18:44:56</time>
      </trkpt>
      <trkpt lat="37.07119" lon="-3.37735">
        <ele>2931.8</ele>
        <time>2021-08-06 18:44:57</time>
      </trkpt>
      <trkpt lat="37.0712" lon="-3.37734">
        <ele>2931.6</ele>
        <time>2021-08-06 18:44:58</time>
      </trkpt>
      <trkpt lat="37.07121" lon="-3.37734">
        <ele>2931.6</ele>
        <time>2021-08-06 18:44:59</time>
      </trkpt>
      <trkpt lat="37.07122" lon="-3.37734">
        <ele>2931.8</ele>
        <time>2021-08-06 18:45:00</time>
      </trkpt>
      <trkpt lat="37.07124" lon="-3.37735">
        <ele>2932</ele>
        <time>2021-08-06 18:45:01</time>
      </trkpt>
      <trkpt lat="37.07126" lon="-3.37735">
        <ele>2932</ele>
        <time>2021-08-06 18:45:02</time>
      </trkpt>
      <trkpt lat="37.07127" lon="-3.37735">
        <ele>2932.2</ele>
        <time>2021-08-06 18:45:03</time>
      </trkpt>
      <trkpt lat="37.07128" lon="-3.37735">
        <ele>2932.2</ele>
        <time>2021-08-06 18:45:04</time>
      </trkpt>
      <trkpt lat="37.07129" lon="-3.37736">
        <ele>2932.2</ele>
        <time>2021-08-06 18:45:05</time>
      </trkpt>
      <trkpt lat="37.0713" lon="-3.37737">
        <ele>2932</ele>
        <time>2021-08-06 18:45:06</time>
      </trkpt>
      <trkpt lat="37.07131" lon="-3.37737">
        <ele>2931.6</ele>
        <time>2021-08-06 18:45:07</time>
      </trkpt>
      <trkpt lat="37.07132" lon="-3.37738">
        <ele>2931.6</ele>
        <time>2021-08-06 18:45:08</time>
      </trkpt>
      <trkpt lat="37.07133" lon="-3.37737">
        <ele>2931.4</ele>
        <time>2021-08-06 18:45:09</time>
      </trkpt>
      <trkpt lat="37.07134" lon="-3.37739">
        <ele>2931.4</ele>
        <time>2021-08-06 18:45:10</time>
      </trkpt>
      <trkpt lat="37.07134" lon="-3.3774">
        <ele>2931.4</ele>
        <time>2021-08-06 18:45:11</time>
      </trkpt>
      <trkpt lat="37.07135" lon="-3.3774">
        <ele>2931.2</ele>
        <time>2021-08-06 18:45:12</time>
      </trkpt>
      <trkpt lat="37.07136" lon="-3.3774">
        <ele>2930.8</ele>
        <time>2021-08-06 18:45:13</time>
      </trkpt>
      <trkpt lat="37.07136" lon="-3.3774">
        <ele>2930.4</ele>
        <time>2021-08-06 18:45:14</time>
      </trkpt>
      <trkpt lat="37.07136" lon="-3.3774">
        <ele>2930.2</ele>
        <time>2021-08-06 18:45:15</time>
      </trkpt>
      <trkpt lat="37.07136" lon="-3.3774">
        <ele>2930</ele>
        <time>2021-08-06 18:45:16</time>
      </trkpt>
      <trkpt lat="37.07137" lon="-3.3774">
        <ele>2930</ele>
        <time>2021-08-06 18:45:17</time>
      </trkpt>
      <trkpt lat="37.07138" lon="-3.3774">
        <ele>2930</ele>
        <time>2021-08-06 18:45:18</time>
      </trkpt>
      <trkpt lat="37.07138" lon="-3.37741">
        <ele>2929.8</ele>
        <time>2021-08-06 18:45:19</time>
      </trkpt>
      <trkpt lat="37.07139" lon="-3.37743">
        <ele>2929.4</ele>
        <time>2021-08-06 18:45:20</time>
      </trkpt>
      <trkpt lat="37.0714" lon="-3.37743">
        <ele>2929</ele>
        <time>2021-08-06 18:45:21</time>
      </trkpt>
      <trkpt lat="37.07141" lon="-3.37744">
        <ele>2928.8</ele>
        <time>2021-08-06 18:45:22</time>
      </trkpt>
      <trkpt lat="37.07142" lon="-3.37745">
        <ele>2928.8</ele>
        <time>2021-08-06 18:45:23</time>
      </trkpt>
      <trkpt lat="37.07143" lon="-3.37745">
        <ele>2928.6</ele>
        <time>2021-08-06 18:45:24</time>
      </trkpt>
      <trkpt lat="37.07144" lon="-3.37745">
        <ele>2928.6</ele>
        <time>2021-08-06 18:45:25</time>
      </trkpt>
      <trkpt lat="37.07145" lon="-3.37747">
        <ele>2928.6</ele>
        <time>2021-08-06 18:45:26</time>
      </trkpt>
      <trkpt lat="37.07146" lon="-3.37747">
        <ele>2928.6</ele>
        <time>2021-08-06 18:45:27</time>
      </trkpt>
      <trkpt lat="37.07148" lon="-3.37748">
        <ele>2928.6</ele>
        <time>2021-08-06 18:45:28</time>
      </trkpt>
      <trkpt lat="37.07149" lon="-3.37748">
        <ele>2928.8</ele>
        <time>2021-08-06 18:45:29</time>
      </trkpt>
      <trkpt lat="37.0715" lon="-3.37748">
        <ele>2928.8</ele>
        <time>2021-08-06 18:45:30</time>
      </trkpt>
      <trkpt lat="37.07152" lon="-3.37748">
        <ele>2928.8</ele>
        <time>2021-08-06 18:45:31</time>
      </trkpt>
      <trkpt lat="37.07153" lon="-3.37748">
        <ele>2928.8</ele>
        <time>2021-08-06 18:45:32</time>
      </trkpt>
      <trkpt lat="37.07154" lon="-3.37748">
        <ele>2929</ele>
        <time>2021-08-06 18:45:33</time>
      </trkpt>
      <trkpt lat="37.07155" lon="-3.37748">
        <ele>2929</ele>
        <time>2021-08-06 18:45:34</time>
      </trkpt>
      <trkpt lat="37.07156" lon="-3.37749">
        <ele>2929</ele>
        <time>2021-08-06 18:45:35</time>
      </trkpt>
      <trkpt lat="37.07156" lon="-3.37749">
        <ele>2929</ele>
        <time>2021-08-06 18:45:36</time>
      </trkpt>
      <trkpt lat="37.07157" lon="-3.3775">
        <ele>2929</ele>
        <time>2021-08-06 18:45:37</time>
      </trkpt>
      <trkpt lat="37.07158" lon="-3.37751">
        <ele>2929</ele>
        <time>2021-08-06 18:45:38</time>
      </trkpt>
      <trkpt lat="37.07159" lon="-3.37752">
        <ele>2929</ele>
        <time>2021-08-06 18:45:39</time>
      </trkpt>
      <trkpt lat="37.07159" lon="-3.37753">
        <ele>2929</ele>
        <time>2021-08-06 18:45:40</time>
      </trkpt>
      <trkpt lat="37.0716" lon="-3.37754">
        <ele>2929</ele>
        <time>2021-08-06 18:45:41</time>
      </trkpt>
      <trkpt lat="37.07161" lon="-3.37754">
        <ele>2928.8</ele>
        <time>2021-08-06 18:45:42</time>
      </trkpt>
      <trkpt lat="37.07161" lon="-3.37754">
        <ele>2929.2</ele>
        <time>2021-08-06 18:45:43</time>
      </trkpt>
      <trkpt lat="37.07161" lon="-3.37754">
        <ele>2929</ele>
        <time>2021-08-06 18:45:44</time>
      </trkpt>
      <trkpt lat="37.07162" lon="-3.37755">
        <ele>2928.8</ele>
        <time>2021-08-06 18:45:45</time>
      </trkpt>
      <trkpt lat="37.07163" lon="-3.37755">
        <ele>2929</ele>
        <time>2021-08-06 18:45:46</time>
      </trkpt>
      <trkpt lat="37.07165" lon="-3.37751">
        <ele>2929</ele>
        <time>2021-08-06 18:45:47</time>
      </trkpt>
      <trkpt lat="37.07166" lon="-3.37751">
        <ele>2929</ele>
        <time>2021-08-06 18:45:48</time>
      </trkpt>
      <trkpt lat="37.07166" lon="-3.37751">
        <ele>2929</ele>
        <time>2021-08-06 18:45:49</time>
      </trkpt>
      <trkpt lat="37.07167" lon="-3.37751">
        <ele>2929</ele>
        <time>2021-08-06 18:45:50</time>
      </trkpt>
      <trkpt lat="37.07168" lon="-3.37751">
        <ele>2929</ele>
        <time>2021-08-06 18:45:51</time>
      </trkpt>
      <trkpt lat="37.07168" lon="-3.37751">
        <ele>2929</ele>
        <time>2021-08-06 18:45:52</time>
      </trkpt>
      <trkpt lat="37.07169" lon="-3.37753">
        <ele>2929.6</ele>
        <time>2021-08-06 18:45:53</time>
      </trkpt>
      <trkpt lat="37.07169" lon="-3.37753">
        <ele>2929.8</ele>
        <time>2021-08-06 18:45:54</time>
      </trkpt>
      <trkpt lat="37.07169" lon="-3.37753">
        <ele>2930</ele>
        <time>2021-08-06 18:45:55</time>
      </trkpt>
      <trkpt lat="37.07169" lon="-3.37753">
        <ele>2930.2</ele>
        <time>2021-08-06 18:45:56</time>
      </trkpt>
      <trkpt lat="37.07169" lon="-3.37754">
        <ele>2930.2</ele>
        <time>2021-08-06 18:45:57</time>
      </trkpt>
      <trkpt lat="37.07169" lon="-3.37754">
        <ele>2930.2</ele>
        <time>2021-08-06 18:45:58</time>
      </trkpt>
      <trkpt lat="37.07169" lon="-3.37754">
        <ele>2930.2</ele>
        <time>2021-08-06 18:45:59</time>
      </trkpt>
      <trkpt lat="37.07168" lon="-3.37753">
        <ele>2930.2</ele>
        <time>2021-08-06 18:46:00</time>
      </trkpt>
      <trkpt lat="37.07168" lon="-3.37753">
        <ele>2930.2</ele>
        <time>2021-08-06 18:46:01</time>
      </trkpt>
      <trkpt lat="37.07168" lon="-3.37753">
        <ele>2930</ele>
        <time>2021-08-06 18:46:02</time>
      </trkpt>
      <trkpt lat="37.07168" lon="-3.37753">
        <ele>2930</ele>
        <time>2021-08-06 18:46:03</time>
      </trkpt>
      <trkpt lat="37.07168" lon="-3.37753">
        <ele>2929.8</ele>
        <time>2021-08-06 18:46:04</time>
      </trkpt>
      <trkpt lat="37.07168" lon="-3.37754">
        <ele>2929.8</ele>
        <time>2021-08-06 18:46:05</time>
      </trkpt>
      <trkpt lat="37.07168" lon="-3.37754">
        <ele>2929.8</ele>
        <time>2021-08-06 18:46:06</time>
      </trkpt>
      <trkpt lat="37.07168" lon="-3.37754">
        <ele>2929.8</ele>
        <time>2021-08-06 18:46:07</time>
      </trkpt>
      <trkpt lat="37.07168" lon="-3.37755">
        <ele>2929.8</ele>
        <time>2021-08-06 18:46:08</time>
      </trkpt>
      <trkpt lat="37.07168" lon="-3.37756">
        <ele>2929.8</ele>
        <time>2021-08-06 18:46:09</time>
      </trkpt>
      <trkpt lat="37.07167" lon="-3.37756">
        <ele>2929.8</ele>
        <time>2021-08-06 18:46:10</time>
      </trkpt>
      <trkpt lat="37.07167" lon="-3.37756">
        <ele>2929.8</ele>
        <time>2021-08-06 18:46:11</time>
      </trkpt>
      <trkpt lat="37.07167" lon="-3.37756">
        <ele>2929.8</ele>
        <time>2021-08-06 18:46:12</time>
      </trkpt>
      <trkpt lat="37.07168" lon="-3.37756">
        <ele>2929.8</ele>
        <time>2021-08-06 18:46:13</time>
      </trkpt>
      <trkpt lat="37.07168" lon="-3.37756">
        <ele>2929.8</ele>
        <time>2021-08-06 18:46:14</time>
      </trkpt>
      <trkpt lat="37.07168" lon="-3.37755">
        <ele>2929.8</ele>
        <time>2021-08-06 18:46:15</time>
      </trkpt>
      <trkpt lat="37.07168" lon="-3.37755">
        <ele>2929.8</ele>
        <time>2021-08-06 18:46:16</time>
      </trkpt>
      <trkpt lat="37.07168" lon="-3.37754">
        <ele>2929.8</ele>
        <time>2021-08-06 18:46:17</time>
      </trkpt>
      <trkpt lat="37.07168" lon="-3.37754">
        <ele>2929.8</ele>
        <time>2021-08-06 18:46:18</time>
      </trkpt>
      <trkpt lat="37.07168" lon="-3.37754">
        <ele>2929.8</ele>
        <time>2021-08-06 18:46:19</time>
      </trkpt>
      <trkpt lat="37.07168" lon="-3.37754">
        <ele>2929.8</ele>
        <time>2021-08-06 18:46:20</time>
      </trkpt>
      <trkpt lat="37.07168" lon="-3.37754">
        <ele>2929.8</ele>
        <time>2021-08-06 18:46:21</time>
      </trkpt>
      <trkpt lat="37.07168" lon="-3.37754">
        <ele>2929.6</ele>
        <time>2021-08-06 18:46:22</time>
      </trkpt>
      <trkpt lat="37.07168" lon="-3.37754">
        <ele>2929.6</ele>
        <time>2021-08-06 18:46:23</time>
      </trkpt>
      <trkpt lat="37.07167" lon="-3.37755">
        <ele>2929.6</ele>
        <time>2021-08-06 18:46:24</time>
      </trkpt>
      <trkpt lat="37.07167" lon="-3.37755">
        <ele>2929.4</ele>
        <time>2021-08-06 18:46:25</time>
      </trkpt>
      <trkpt lat="37.07166" lon="-3.37755">
        <ele>2929.6</ele>
        <time>2021-08-06 18:46:26</time>
      </trkpt>
      <trkpt lat="37.07166" lon="-3.37755">
        <ele>2929.6</ele>
        <time>2021-08-06 18:46:27</time>
      </trkpt>
      <trkpt lat="37.07166" lon="-3.37755">
        <ele>2929</ele>
        <time>2021-08-06 18:46:28</time>
      </trkpt>
      <trkpt lat="37.07165" lon="-3.37755">
        <ele>2929.2</ele>
        <time>2021-08-06 18:46:29</time>
      </trkpt>
      <trkpt lat="37.07165" lon="-3.37756">
        <ele>2929.2</ele>
        <time>2021-08-06 18:46:30</time>
      </trkpt>
      <trkpt lat="37.07166" lon="-3.37754">
        <ele>2929.2</ele>
        <time>2021-08-06 18:46:31</time>
      </trkpt>
      <trkpt lat="37.07166" lon="-3.37754">
        <ele>2929.4</ele>
        <time>2021-08-06 18:46:32</time>
      </trkpt>
      <trkpt lat="37.07166" lon="-3.37754">
        <ele>2929.4</ele>
        <time>2021-08-06 18:46:33</time>
      </trkpt>
      <trkpt lat="37.07166" lon="-3.37755">
        <ele>2929.4</ele>
        <time>2021-08-06 18:46:34</time>
      </trkpt>
      <trkpt lat="37.07167" lon="-3.37755">
        <ele>2929.4</ele>
        <time>2021-08-06 18:46:35</time>
      </trkpt>
      <trkpt lat="37.07168" lon="-3.37756">
        <ele>2929.4</ele>
        <time>2021-08-06 18:46:36</time>
      </trkpt>
      <trkpt lat="37.07168" lon="-3.37756">
        <ele>2929.4</ele>
        <time>2021-08-06 18:46:37</time>
      </trkpt>
      <trkpt lat="37.0717" lon="-3.37756">
        <ele>2929.4</ele>
        <time>2021-08-06 18:46:38</time>
      </trkpt>
      <trkpt lat="37.07171" lon="-3.37757">
        <ele>2929</ele>
        <time>2021-08-06 18:46:39</time>
      </trkpt>
      <trkpt lat="37.07172" lon="-3.37757">
        <ele>2928.8</ele>
        <time>2021-08-06 18:46:40</time>
      </trkpt>
      <trkpt lat="37.07173" lon="-3.37758">
        <ele>2928.6</ele>
        <time>2021-08-06 18:46:41</time>
      </trkpt>
      <trkpt lat="37.07174" lon="-3.37758">
        <ele>2928.4</ele>
        <time>2021-08-06 18:46:42</time>
      </trkpt>
      <trkpt lat="37.07175" lon="-3.37759">
        <ele>2928</ele>
        <time>2021-08-06 18:46:43</time>
      </trkpt>
      <trkpt lat="37.07176" lon="-3.3776">
        <ele>2927.8</ele>
        <time>2021-08-06 18:46:44</time>
      </trkpt>
      <trkpt lat="37.07177" lon="-3.3776">
        <ele>2927.6</ele>
        <time>2021-08-06 18:46:45</time>
      </trkpt>
      <trkpt lat="37.07178" lon="-3.37761">
        <ele>2927.6</ele>
        <time>2021-08-06 18:46:46</time>
      </trkpt>
      <trkpt lat="37.0718" lon="-3.37763">
        <ele>2927.6</ele>
        <time>2021-08-06 18:46:47</time>
      </trkpt>
      <trkpt lat="37.07181" lon="-3.37763">
        <ele>2927.6</ele>
        <time>2021-08-06 18:46:48</time>
      </trkpt>
      <trkpt lat="37.07181" lon="-3.37764">
        <ele>2927.6</ele>
        <time>2021-08-06 18:46:49</time>
      </trkpt>
      <trkpt lat="37.07182" lon="-3.37765">
        <ele>2927.6</ele>
        <time>2021-08-06 18:46:50</time>
      </trkpt>
      <trkpt lat="37.07183" lon="-3.37765">
        <ele>2927.8</ele>
        <time>2021-08-06 18:46:51</time>
      </trkpt>
      <trkpt lat="37.07184" lon="-3.37766">
        <ele>2928</ele>
        <time>2021-08-06 18:46:52</time>
      </trkpt>
      <trkpt lat="37.07184" lon="-3.37766">
        <ele>2928.2</ele>
        <time>2021-08-06 18:46:53</time>
      </trkpt>
      <trkpt lat="37.07185" lon="-3.37766">
        <ele>2928.2</ele>
        <time>2021-08-06 18:46:54</time>
      </trkpt>
      <trkpt lat="37.07186" lon="-3.37766">
        <ele>2928.2</ele>
        <time>2021-08-06 18:46:55</time>
      </trkpt>
      <trkpt lat="37.07187" lon="-3.37767">
        <ele>2927.6</ele>
        <time>2021-08-06 18:46:56</time>
      </trkpt>
      <trkpt lat="37.07188" lon="-3.37767">
        <ele>2927.8</ele>
        <time>2021-08-06 18:46:57</time>
      </trkpt>
      <trkpt lat="37.07189" lon="-3.37768">
        <ele>2928</ele>
        <time>2021-08-06 18:46:58</time>
      </trkpt>
      <trkpt lat="37.0719" lon="-3.37768">
        <ele>2928</ele>
        <time>2021-08-06 18:46:59</time>
      </trkpt>
      <trkpt lat="37.0719" lon="-3.37769">
        <ele>2928</ele>
        <time>2021-08-06 18:47:00</time>
      </trkpt>
      <trkpt lat="37.07191" lon="-3.37769">
        <ele>2927.6</ele>
        <time>2021-08-06 18:47:01</time>
      </trkpt>
      <trkpt lat="37.07192" lon="-3.37769">
        <ele>2927.2</ele>
        <time>2021-08-06 18:47:02</time>
      </trkpt>
      <trkpt lat="37.07193" lon="-3.37768">
        <ele>2927.8</ele>
        <time>2021-08-06 18:47:03</time>
      </trkpt>
      <trkpt lat="37.07194" lon="-3.37767">
        <ele>2927.8</ele>
        <time>2021-08-06 18:47:04</time>
      </trkpt>
      <trkpt lat="37.07195" lon="-3.37767">
        <ele>2927.8</ele>
        <time>2021-08-06 18:47:05</time>
      </trkpt>
      <trkpt lat="37.07196" lon="-3.37767">
        <ele>2928</ele>
        <time>2021-08-06 18:47:06</time>
      </trkpt>
      <trkpt lat="37.07197" lon="-3.37767">
        <ele>2928</ele>
        <time>2021-08-06 18:47:07</time>
      </trkpt>
      <trkpt lat="37.07198" lon="-3.37767">
        <ele>2927.8</ele>
        <time>2021-08-06 18:47:08</time>
      </trkpt>
      <trkpt lat="37.07199" lon="-3.37767">
        <ele>2927.8</ele>
        <time>2021-08-06 18:47:09</time>
      </trkpt>
      <trkpt lat="37.072" lon="-3.37767">
        <ele>2927.4</ele>
        <time>2021-08-06 18:47:10</time>
      </trkpt>
      <trkpt lat="37.07201" lon="-3.37767">
        <ele>2926.8</ele>
        <time>2021-08-06 18:47:11</time>
      </trkpt>
      <trkpt lat="37.07201" lon="-3.37771">
        <ele>2926.2</ele>
        <time>2021-08-06 18:47:12</time>
      </trkpt>
      <trkpt lat="37.07202" lon="-3.37771">
        <ele>2925.8</ele>
        <time>2021-08-06 18:47:13</time>
      </trkpt>
      <trkpt lat="37.07202" lon="-3.37771">
        <ele>2925.8</ele>
        <time>2021-08-06 18:47:14</time>
      </trkpt>
      <trkpt lat="37.07203" lon="-3.37772">
        <ele>2925.8</ele>
        <time>2021-08-06 18:47:15</time>
      </trkpt>
      <trkpt lat="37.07203" lon="-3.37772">
        <ele>2925.8</ele>
        <time>2021-08-06 18:47:16</time>
      </trkpt>
      <trkpt lat="37.07204" lon="-3.37772">
        <ele>2926</ele>
        <time>2021-08-06 18:47:17</time>
      </trkpt>
      <trkpt lat="37.07205" lon="-3.37772">
        <ele>2926</ele>
        <time>2021-08-06 18:47:18</time>
      </trkpt>
      <trkpt lat="37.07206" lon="-3.37772">
        <ele>2926.2</ele>
        <time>2021-08-06 18:47:19</time>
      </trkpt>
      <trkpt lat="37.07207" lon="-3.37772">
        <ele>2926.2</ele>
        <time>2021-08-06 18:47:20</time>
      </trkpt>
      <trkpt lat="37.07209" lon="-3.37767">
        <ele>2926.2</ele>
        <time>2021-08-06 18:47:21</time>
      </trkpt>
      <trkpt lat="37.0721" lon="-3.37766">
        <ele>2926</ele>
        <time>2021-08-06 18:47:22</time>
      </trkpt>
      <trkpt lat="37.07211" lon="-3.37766">
        <ele>2925.8</ele>
        <time>2021-08-06 18:47:23</time>
      </trkpt>
      <trkpt lat="37.07212" lon="-3.37767">
        <ele>2925.6</ele>
        <time>2021-08-06 18:47:24</time>
      </trkpt>
      <trkpt lat="37.07213" lon="-3.37768">
        <ele>2925.6</ele>
        <time>2021-08-06 18:47:25</time>
      </trkpt>
      <trkpt lat="37.07214" lon="-3.37768">
        <ele>2925.6</ele>
        <time>2021-08-06 18:47:26</time>
      </trkpt>
      <trkpt lat="37.07214" lon="-3.37768">
        <ele>2925.4</ele>
        <time>2021-08-06 18:47:27</time>
      </trkpt>
      <trkpt lat="37.07215" lon="-3.37769">
        <ele>2925.4</ele>
        <time>2021-08-06 18:47:28</time>
      </trkpt>
      <trkpt lat="37.07216" lon="-3.37769">
        <ele>2925.6</ele>
        <time>2021-08-06 18:47:29</time>
      </trkpt>
      <trkpt lat="37.07216" lon="-3.3777">
        <ele>2925.6</ele>
        <time>2021-08-06 18:47:30</time>
      </trkpt>
      <trkpt lat="37.07217" lon="-3.3777">
        <ele>2925.4</ele>
        <time>2021-08-06 18:47:31</time>
      </trkpt>
      <trkpt lat="37.07217" lon="-3.3777">
        <ele>2925.2</ele>
        <time>2021-08-06 18:47:32</time>
      </trkpt>
      <trkpt lat="37.07218" lon="-3.3777">
        <ele>2925.4</ele>
        <time>2021-08-06 18:47:33</time>
      </trkpt>
      <trkpt lat="37.07218" lon="-3.37771">
        <ele>2925.4</ele>
        <time>2021-08-06 18:47:34</time>
      </trkpt>
      <trkpt lat="37.07218" lon="-3.37772">
        <ele>2925.6</ele>
        <time>2021-08-06 18:47:35</time>
      </trkpt>
      <trkpt lat="37.07219" lon="-3.37772">
        <ele>2925.6</ele>
        <time>2021-08-06 18:47:36</time>
      </trkpt>
      <trkpt lat="37.0722" lon="-3.37771">
        <ele>2925.4</ele>
        <time>2021-08-06 18:47:37</time>
      </trkpt>
      <trkpt lat="37.0722" lon="-3.37771">
        <ele>2925.6</ele>
        <time>2021-08-06 18:47:38</time>
      </trkpt>
      <trkpt lat="37.07221" lon="-3.37772">
        <ele>2925.6</ele>
        <time>2021-08-06 18:47:39</time>
      </trkpt>
      <trkpt lat="37.07221" lon="-3.37774">
        <ele>2925.4</ele>
        <time>2021-08-06 18:47:40</time>
      </trkpt>
      <trkpt lat="37.07222" lon="-3.37774">
        <ele>2924.8</ele>
        <time>2021-08-06 18:47:41</time>
      </trkpt>
      <trkpt lat="37.07223" lon="-3.37775">
        <ele>2924.4</ele>
        <time>2021-08-06 18:47:42</time>
      </trkpt>
      <trkpt lat="37.07224" lon="-3.37775">
        <ele>2924.2</ele>
        <time>2021-08-06 18:47:43</time>
      </trkpt>
      <trkpt lat="37.07225" lon="-3.37776">
        <ele>2924</ele>
        <time>2021-08-06 18:47:44</time>
      </trkpt>
      <trkpt lat="37.07225" lon="-3.37776">
        <ele>2924</ele>
        <time>2021-08-06 18:47:45</time>
      </trkpt>
      <trkpt lat="37.07226" lon="-3.37777">
        <ele>2923.8</ele>
        <time>2021-08-06 18:47:46</time>
      </trkpt>
      <trkpt lat="37.07227" lon="-3.37778">
        <ele>2923.8</ele>
        <time>2021-08-06 18:47:47</time>
      </trkpt>
      <trkpt lat="37.07228" lon="-3.37778">
        <ele>2924</ele>
        <time>2021-08-06 18:47:48</time>
      </trkpt>
      <trkpt lat="37.07228" lon="-3.37778">
        <ele>2923.6</ele>
        <time>2021-08-06 18:47:49</time>
      </trkpt>
      <trkpt lat="37.07229" lon="-3.37778">
        <ele>2923.6</ele>
        <time>2021-08-06 18:47:50</time>
      </trkpt>
      <trkpt lat="37.0723" lon="-3.37778">
        <ele>2923.4</ele>
        <time>2021-08-06 18:47:51</time>
      </trkpt>
      <trkpt lat="37.07231" lon="-3.37777">
        <ele>2923.4</ele>
        <time>2021-08-06 18:47:52</time>
      </trkpt>
      <trkpt lat="37.07232" lon="-3.37777">
        <ele>2923.2</ele>
        <time>2021-08-06 18:47:53</time>
      </trkpt>
      <trkpt lat="37.07233" lon="-3.37777">
        <ele>2923.2</ele>
        <time>2021-08-06 18:47:54</time>
      </trkpt>
      <trkpt lat="37.07234" lon="-3.37777">
        <ele>2923</ele>
        <time>2021-08-06 18:47:55</time>
      </trkpt>
      <trkpt lat="37.07235" lon="-3.37776">
        <ele>2923</ele>
        <time>2021-08-06 18:47:56</time>
      </trkpt>
      <trkpt lat="37.07236" lon="-3.37776">
        <ele>2923</ele>
        <time>2021-08-06 18:47:57</time>
      </trkpt>
      <trkpt lat="37.07237" lon="-3.37776">
        <ele>2923.2</ele>
        <time>2021-08-06 18:47:58</time>
      </trkpt>
      <trkpt lat="37.07237" lon="-3.37776">
        <ele>2923.2</ele>
        <time>2021-08-06 18:47:59</time>
      </trkpt>
      <trkpt lat="37.07238" lon="-3.37776">
        <ele>2923.2</ele>
        <time>2021-08-06 18:48:00</time>
      </trkpt>
      <trkpt lat="37.07239" lon="-3.37776">
        <ele>2923.2</ele>
        <time>2021-08-06 18:48:01</time>
      </trkpt>
      <trkpt lat="37.0724" lon="-3.37776">
        <ele>2923.2</ele>
        <time>2021-08-06 18:48:02</time>
      </trkpt>
      <trkpt lat="37.0724" lon="-3.37778">
        <ele>2923.4</ele>
        <time>2021-08-06 18:48:03</time>
      </trkpt>
      <trkpt lat="37.07241" lon="-3.37779">
        <ele>2923.6</ele>
        <time>2021-08-06 18:48:04</time>
      </trkpt>
      <trkpt lat="37.07242" lon="-3.37779">
        <ele>2923.6</ele>
        <time>2021-08-06 18:48:05</time>
      </trkpt>
      <trkpt lat="37.07242" lon="-3.37781">
        <ele>2923.6</ele>
        <time>2021-08-06 18:48:06</time>
      </trkpt>
      <trkpt lat="37.07243" lon="-3.37782">
        <ele>2923.4</ele>
        <time>2021-08-06 18:48:07</time>
      </trkpt>
      <trkpt lat="37.07243" lon="-3.37783">
        <ele>2923.4</ele>
        <time>2021-08-06 18:48:08</time>
      </trkpt>
      <trkpt lat="37.07244" lon="-3.37785">
        <ele>2923.4</ele>
        <time>2021-08-06 18:48:09</time>
      </trkpt>
      <trkpt lat="37.07244" lon="-3.37786">
        <ele>2923.4</ele>
        <time>2021-08-06 18:48:10</time>
      </trkpt>
      <trkpt lat="37.07245" lon="-3.37786">
        <ele>2923.4</ele>
        <time>2021-08-06 18:48:11</time>
      </trkpt>
      <trkpt lat="37.07246" lon="-3.37786">
        <ele>2923.4</ele>
        <time>2021-08-06 18:48:12</time>
      </trkpt>
      <trkpt lat="37.07247" lon="-3.37786">
        <ele>2923.2</ele>
        <time>2021-08-06 18:48:13</time>
      </trkpt>
      <trkpt lat="37.07248" lon="-3.37787">
        <ele>2923</ele>
        <time>2021-08-06 18:48:14</time>
      </trkpt>
      <trkpt lat="37.07249" lon="-3.37788">
        <ele>2923</ele>
        <time>2021-08-06 18:48:15</time>
      </trkpt>
      <trkpt lat="37.0725" lon="-3.37788">
        <ele>2923</ele>
        <time>2021-08-06 18:48:16</time>
      </trkpt>
      <trkpt lat="37.07251" lon="-3.37789">
        <ele>2922.6</ele>
        <time>2021-08-06 18:48:17</time>
      </trkpt>
      <trkpt lat="37.07252" lon="-3.3779">
        <ele>2922.6</ele>
        <time>2021-08-06 18:48:18</time>
      </trkpt>
      <trkpt lat="37.07253" lon="-3.37791">
        <ele>2922.4</ele>
        <time>2021-08-06 18:48:19</time>
      </trkpt>
      <trkpt lat="37.07254" lon="-3.37792">
        <ele>2922.4</ele>
        <time>2021-08-06 18:48:20</time>
      </trkpt>
      <trkpt lat="37.07254" lon="-3.37793">
        <ele>2922.4</ele>
        <time>2021-08-06 18:48:21</time>
      </trkpt>
      <trkpt lat="37.07254" lon="-3.37795">
        <ele>2922.6</ele>
        <time>2021-08-06 18:48:22</time>
      </trkpt>
      <trkpt lat="37.07255" lon="-3.37796">
        <ele>2922.6</ele>
        <time>2021-08-06 18:48:23</time>
      </trkpt>
      <trkpt lat="37.07256" lon="-3.37797">
        <ele>2922.6</ele>
        <time>2021-08-06 18:48:24</time>
      </trkpt>
      <trkpt lat="37.07257" lon="-3.37798">
        <ele>2922.6</ele>
        <time>2021-08-06 18:48:25</time>
      </trkpt>
      <trkpt lat="37.07257" lon="-3.37799">
        <ele>2922.6</ele>
        <time>2021-08-06 18:48:26</time>
      </trkpt>
      <trkpt lat="37.07257" lon="-3.37801">
        <ele>2922.2</ele>
        <time>2021-08-06 18:48:27</time>
      </trkpt>
      <trkpt lat="37.07258" lon="-3.37803">
        <ele>2922</ele>
        <time>2021-08-06 18:48:28</time>
      </trkpt>
      <trkpt lat="37.07259" lon="-3.37804">
        <ele>2921.8</ele>
        <time>2021-08-06 18:48:29</time>
      </trkpt>
      <trkpt lat="37.07259" lon="-3.37805">
        <ele>2921.6</ele>
        <time>2021-08-06 18:48:30</time>
      </trkpt>
      <trkpt lat="37.07261" lon="-3.37802">
        <ele>2921.8</ele>
        <time>2021-08-06 18:48:31</time>
      </trkpt>
      <trkpt lat="37.07262" lon="-3.37801">
        <ele>2921.8</ele>
        <time>2021-08-06 18:48:32</time>
      </trkpt>
      <trkpt lat="37.07263" lon="-3.37801">
        <ele>2921.6</ele>
        <time>2021-08-06 18:48:33</time>
      </trkpt>
      <trkpt lat="37.07264" lon="-3.37802">
        <ele>2921.6</ele>
        <time>2021-08-06 18:48:34</time>
      </trkpt>
      <trkpt lat="37.07265" lon="-3.37802">
        <ele>2921.2</ele>
        <time>2021-08-06 18:48:35</time>
      </trkpt>
      <trkpt lat="37.07266" lon="-3.37802">
        <ele>2920.8</ele>
        <time>2021-08-06 18:48:36</time>
      </trkpt>
      <trkpt lat="37.07266" lon="-3.37802">
        <ele>2920.6</ele>
        <time>2021-08-06 18:48:37</time>
      </trkpt>
      <trkpt lat="37.07267" lon="-3.37802">
        <ele>2920.6</ele>
        <time>2021-08-06 18:48:38</time>
      </trkpt>
      <trkpt lat="37.07268" lon="-3.37802">
        <ele>2920.4</ele>
        <time>2021-08-06 18:48:39</time>
      </trkpt>
      <trkpt lat="37.07269" lon="-3.37802">
        <ele>2920.4</ele>
        <time>2021-08-06 18:48:40</time>
      </trkpt>
      <trkpt lat="37.0727" lon="-3.37802">
        <ele>2920.6</ele>
        <time>2021-08-06 18:48:41</time>
      </trkpt>
      <trkpt lat="37.0727" lon="-3.37802">
        <ele>2920.6</ele>
        <time>2021-08-06 18:48:42</time>
      </trkpt>
      <trkpt lat="37.07272" lon="-3.37799">
        <ele>2921.4</ele>
        <time>2021-08-06 18:48:43</time>
      </trkpt>
      <trkpt lat="37.07273" lon="-3.37799">
        <ele>2921.8</ele>
        <time>2021-08-06 18:48:44</time>
      </trkpt>
      <trkpt lat="37.07273" lon="-3.37799">
        <ele>2922</ele>
        <time>2021-08-06 18:48:45</time>
      </trkpt>
      <trkpt lat="37.07274" lon="-3.37799">
        <ele>2922</ele>
        <time>2021-08-06 18:48:46</time>
      </trkpt>
      <trkpt lat="37.07275" lon="-3.378">
        <ele>2921.4</ele>
        <time>2021-08-06 18:48:47</time>
      </trkpt>
      <trkpt lat="37.07275" lon="-3.37801">
        <ele>2920.8</ele>
        <time>2021-08-06 18:48:48</time>
      </trkpt>
      <trkpt lat="37.07276" lon="-3.37801">
        <ele>2920.4</ele>
        <time>2021-08-06 18:48:49</time>
      </trkpt>
      <trkpt lat="37.07277" lon="-3.37801">
        <ele>2920</ele>
        <time>2021-08-06 18:48:50</time>
      </trkpt>
      <trkpt lat="37.07278" lon="-3.37801">
        <ele>2919.6</ele>
        <time>2021-08-06 18:48:51</time>
      </trkpt>
      <trkpt lat="37.07279" lon="-3.37801">
        <ele>2919.4</ele>
        <time>2021-08-06 18:48:52</time>
      </trkpt>
      <trkpt lat="37.0728" lon="-3.37802">
        <ele>2919.2</ele>
        <time>2021-08-06 18:48:53</time>
      </trkpt>
      <trkpt lat="37.07281" lon="-3.37802">
        <ele>2919</ele>
        <time>2021-08-06 18:48:54</time>
      </trkpt>
      <trkpt lat="37.07282" lon="-3.37802">
        <ele>2919</ele>
        <time>2021-08-06 18:48:55</time>
      </trkpt>
      <trkpt lat="37.07283" lon="-3.37802">
        <ele>2919</ele>
        <time>2021-08-06 18:48:56</time>
      </trkpt>
      <trkpt lat="37.07283" lon="-3.37803">
        <ele>2918.8</ele>
        <time>2021-08-06 18:48:57</time>
      </trkpt>
      <trkpt lat="37.07284" lon="-3.37803">
        <ele>2918.6</ele>
        <time>2021-08-06 18:48:58</time>
      </trkpt>
      <trkpt lat="37.07284" lon="-3.37803">
        <ele>2918</ele>
        <time>2021-08-06 18:48:59</time>
      </trkpt>
      <trkpt lat="37.07284" lon="-3.37803">
        <ele>2917.6</ele>
        <time>2021-08-06 18:49:00</time>
      </trkpt>
      <trkpt lat="37.07284" lon="-3.37804">
        <ele>2917.4</ele>
        <time>2021-08-06 18:49:01</time>
      </trkpt>
      <trkpt lat="37.07284" lon="-3.37805">
        <ele>2917.2</ele>
        <time>2021-08-06 18:49:02</time>
      </trkpt>
      <trkpt lat="37.07285" lon="-3.37804">
        <ele>2917.4</ele>
        <time>2021-08-06 18:49:03</time>
      </trkpt>
      <trkpt lat="37.07286" lon="-3.37804">
        <ele>2917.4</ele>
        <time>2021-08-06 18:49:04</time>
      </trkpt>
      <trkpt lat="37.07286" lon="-3.37804">
        <ele>2917.4</ele>
        <time>2021-08-06 18:49:05</time>
      </trkpt>
      <trkpt lat="37.07287" lon="-3.37804">
        <ele>2917</ele>
        <time>2021-08-06 18:49:06</time>
      </trkpt>
      <trkpt lat="37.07288" lon="-3.37804">
        <ele>2917</ele>
        <time>2021-08-06 18:49:07</time>
      </trkpt>
      <trkpt lat="37.07289" lon="-3.37804">
        <ele>2917</ele>
        <time>2021-08-06 18:49:08</time>
      </trkpt>
      <trkpt lat="37.0729" lon="-3.37805">
        <ele>2917</ele>
        <time>2021-08-06 18:49:09</time>
      </trkpt>
      <trkpt lat="37.07291" lon="-3.37805">
        <ele>2917</ele>
        <time>2021-08-06 18:49:10</time>
      </trkpt>
      <trkpt lat="37.07291" lon="-3.37806">
        <ele>2917</ele>
        <time>2021-08-06 18:49:11</time>
      </trkpt>
      <trkpt lat="37.07293" lon="-3.37805">
        <ele>2917</ele>
        <time>2021-08-06 18:49:12</time>
      </trkpt>
      <trkpt lat="37.07294" lon="-3.37805">
        <ele>2917</ele>
        <time>2021-08-06 18:49:13</time>
      </trkpt>
      <trkpt lat="37.07294" lon="-3.37804">
        <ele>2916.8</ele>
        <time>2021-08-06 18:49:14</time>
      </trkpt>
      <trkpt lat="37.07296" lon="-3.37804">
        <ele>2916.8</ele>
        <time>2021-08-06 18:49:15</time>
      </trkpt>
      <trkpt lat="37.07297" lon="-3.37804">
        <ele>2916.4</ele>
        <time>2021-08-06 18:49:16</time>
      </trkpt>
      <trkpt lat="37.07298" lon="-3.37804">
        <ele>2916.4</ele>
        <time>2021-08-06 18:49:17</time>
      </trkpt>
      <trkpt lat="37.07299" lon="-3.37805">
        <ele>2916.2</ele>
        <time>2021-08-06 18:49:18</time>
      </trkpt>
      <trkpt lat="37.073" lon="-3.37806">
        <ele>2916.2</ele>
        <time>2021-08-06 18:49:19</time>
      </trkpt>
      <trkpt lat="37.07301" lon="-3.37807">
        <ele>2916.2</ele>
        <time>2021-08-06 18:49:20</time>
      </trkpt>
      <trkpt lat="37.07302" lon="-3.37808">
        <ele>2916.2</ele>
        <time>2021-08-06 18:49:21</time>
      </trkpt>
      <trkpt lat="37.07303" lon="-3.37809">
        <ele>2916.4</ele>
        <time>2021-08-06 18:49:22</time>
      </trkpt>
      <trkpt lat="37.07304" lon="-3.37809">
        <ele>2916.4</ele>
        <time>2021-08-06 18:49:23</time>
      </trkpt>
      <trkpt lat="37.07305" lon="-3.3781">
        <ele>2916.4</ele>
        <time>2021-08-06 18:49:24</time>
      </trkpt>
      <trkpt lat="37.07306" lon="-3.37809">
        <ele>2916.4</ele>
        <time>2021-08-06 18:49:25</time>
      </trkpt>
      <trkpt lat="37.07307" lon="-3.37809">
        <ele>2916.2</ele>
        <time>2021-08-06 18:49:26</time>
      </trkpt>
      <trkpt lat="37.07307" lon="-3.37809">
        <ele>2916.2</ele>
        <time>2021-08-06 18:49:27</time>
      </trkpt>
      <trkpt lat="37.07308" lon="-3.3781">
        <ele>2916</ele>
        <time>2021-08-06 18:49:28</time>
      </trkpt>
      <trkpt lat="37.07309" lon="-3.37809">
        <ele>2915.8</ele>
        <time>2021-08-06 18:49:29</time>
      </trkpt>
      <trkpt lat="37.0731" lon="-3.37809">
        <ele>2915.8</ele>
        <time>2021-08-06 18:49:30</time>
      </trkpt>
      <trkpt lat="37.0731" lon="-3.3781">
        <ele>2915.4</ele>
        <time>2021-08-06 18:49:31</time>
      </trkpt>
      <trkpt lat="37.07311" lon="-3.3781">
        <ele>2915.2</ele>
        <time>2021-08-06 18:49:32</time>
      </trkpt>
      <trkpt lat="37.07311" lon="-3.37809">
        <ele>2915</ele>
        <time>2021-08-06 18:49:33</time>
      </trkpt>
      <trkpt lat="37.07312" lon="-3.37809">
        <ele>2915</ele>
        <time>2021-08-06 18:49:34</time>
      </trkpt>
      <trkpt lat="37.07312" lon="-3.37808">
        <ele>2914.8</ele>
        <time>2021-08-06 18:49:35</time>
      </trkpt>
      <trkpt lat="37.07314" lon="-3.37808">
        <ele>2914.8</ele>
        <time>2021-08-06 18:49:36</time>
      </trkpt>
      <trkpt lat="37.07314" lon="-3.37808">
        <ele>2914.8</ele>
        <time>2021-08-06 18:49:37</time>
      </trkpt>
      <trkpt lat="37.07315" lon="-3.37808">
        <ele>2914.8</ele>
        <time>2021-08-06 18:49:38</time>
      </trkpt>
      <trkpt lat="37.07316" lon="-3.37808">
        <ele>2914.6</ele>
        <time>2021-08-06 18:49:39</time>
      </trkpt>
      <trkpt lat="37.07317" lon="-3.37807">
        <ele>2914.6</ele>
        <time>2021-08-06 18:49:40</time>
      </trkpt>
      <trkpt lat="37.07317" lon="-3.37807">
        <ele>2914.6</ele>
        <time>2021-08-06 18:49:41</time>
      </trkpt>
      <trkpt lat="37.07318" lon="-3.37806">
        <ele>2914.6</ele>
        <time>2021-08-06 18:49:42</time>
      </trkpt>
      <trkpt lat="37.0732" lon="-3.37806">
        <ele>2914.6</ele>
        <time>2021-08-06 18:49:43</time>
      </trkpt>
      <trkpt lat="37.07321" lon="-3.37806">
        <ele>2914.4</ele>
        <time>2021-08-06 18:49:44</time>
      </trkpt>
      <trkpt lat="37.07322" lon="-3.37805">
        <ele>2914.4</ele>
        <time>2021-08-06 18:49:45</time>
      </trkpt>
      <trkpt lat="37.07323" lon="-3.37805">
        <ele>2914.4</ele>
        <time>2021-08-06 18:49:46</time>
      </trkpt>
      <trkpt lat="37.07323" lon="-3.37805">
        <ele>2914.4</ele>
        <time>2021-08-06 18:49:47</time>
      </trkpt>
      <trkpt lat="37.07324" lon="-3.37805">
        <ele>2914.4</ele>
        <time>2021-08-06 18:49:48</time>
      </trkpt>
      <trkpt lat="37.07324" lon="-3.37805">
        <ele>2914.2</ele>
        <time>2021-08-06 18:49:49</time>
      </trkpt>
      <trkpt lat="37.07325" lon="-3.37804">
        <ele>2913.6</ele>
        <time>2021-08-06 18:49:50</time>
      </trkpt>
      <trkpt lat="37.07326" lon="-3.37803">
        <ele>2913.2</ele>
        <time>2021-08-06 18:49:51</time>
      </trkpt>
      <trkpt lat="37.07326" lon="-3.37803">
        <ele>2912.8</ele>
        <time>2021-08-06 18:49:52</time>
      </trkpt>
      <trkpt lat="37.07327" lon="-3.37803">
        <ele>2912.6</ele>
        <time>2021-08-06 18:49:53</time>
      </trkpt>
      <trkpt lat="37.07327" lon="-3.37802">
        <ele>2912.4</ele>
        <time>2021-08-06 18:49:54</time>
      </trkpt>
      <trkpt lat="37.07328" lon="-3.37802">
        <ele>2912.4</ele>
        <time>2021-08-06 18:49:55</time>
      </trkpt>
      <trkpt lat="37.07328" lon="-3.37802">
        <ele>2912.4</ele>
        <time>2021-08-06 18:49:56</time>
      </trkpt>
      <trkpt lat="37.07329" lon="-3.37802">
        <ele>2912.2</ele>
        <time>2021-08-06 18:49:57</time>
      </trkpt>
      <trkpt lat="37.0733" lon="-3.37802">
        <ele>2911.8</ele>
        <time>2021-08-06 18:49:58</time>
      </trkpt>
      <trkpt lat="37.0733" lon="-3.37802">
        <ele>2911.6</ele>
        <time>2021-08-06 18:49:59</time>
      </trkpt>
      <trkpt lat="37.07331" lon="-3.37802">
        <ele>2911.6</ele>
        <time>2021-08-06 18:50:00</time>
      </trkpt>
      <trkpt lat="37.07332" lon="-3.37802">
        <ele>2911.4</ele>
        <time>2021-08-06 18:50:01</time>
      </trkpt>
      <trkpt lat="37.07332" lon="-3.37802">
        <ele>2911.2</ele>
        <time>2021-08-06 18:50:02</time>
      </trkpt>
      <trkpt lat="37.07333" lon="-3.37802">
        <ele>2911.2</ele>
        <time>2021-08-06 18:50:03</time>
      </trkpt>
      <trkpt lat="37.07335" lon="-3.37802">
        <ele>2911.2</ele>
        <time>2021-08-06 18:50:04</time>
      </trkpt>
      <trkpt lat="37.07335" lon="-3.37802">
        <ele>2911.2</ele>
        <time>2021-08-06 18:50:05</time>
      </trkpt>
      <trkpt lat="37.07336" lon="-3.37802">
        <ele>2911.4</ele>
        <time>2021-08-06 18:50:06</time>
      </trkpt>
      <trkpt lat="37.07337" lon="-3.37802">
        <ele>2911.4</ele>
        <time>2021-08-06 18:50:07</time>
      </trkpt>
      <trkpt lat="37.07338" lon="-3.37802">
        <ele>2911.4</ele>
        <time>2021-08-06 18:50:08</time>
      </trkpt>
      <trkpt lat="37.07339" lon="-3.37802">
        <ele>2911.2</ele>
        <time>2021-08-06 18:50:09</time>
      </trkpt>
      <trkpt lat="37.0734" lon="-3.37802">
        <ele>2911.2</ele>
        <time>2021-08-06 18:50:10</time>
      </trkpt>
      <trkpt lat="37.0734" lon="-3.37802">
        <ele>2911.2</ele>
        <time>2021-08-06 18:50:11</time>
      </trkpt>
      <trkpt lat="37.07341" lon="-3.37802">
        <ele>2910.8</ele>
        <time>2021-08-06 18:50:12</time>
      </trkpt>
      <trkpt lat="37.07342" lon="-3.37803">
        <ele>2910.6</ele>
        <time>2021-08-06 18:50:13</time>
      </trkpt>
      <trkpt lat="37.07342" lon="-3.37803">
        <ele>2910.4</ele>
        <time>2021-08-06 18:50:14</time>
      </trkpt>
      <trkpt lat="37.07343" lon="-3.37803">
        <ele>2910.4</ele>
        <time>2021-08-06 18:50:15</time>
      </trkpt>
      <trkpt lat="37.07343" lon="-3.37803">
        <ele>2910.2</ele>
        <time>2021-08-06 18:50:16</time>
      </trkpt>
      <trkpt lat="37.07344" lon="-3.37804">
        <ele>2910.2</ele>
        <time>2021-08-06 18:50:17</time>
      </trkpt>
      <trkpt lat="37.07345" lon="-3.37804">
        <ele>2909.6</ele>
        <time>2021-08-06 18:50:18</time>
      </trkpt>
      <trkpt lat="37.07345" lon="-3.37804">
        <ele>2909.4</ele>
        <time>2021-08-06 18:50:19</time>
      </trkpt>
      <trkpt lat="37.07346" lon="-3.37804">
        <ele>2909.4</ele>
        <time>2021-08-06 18:50:20</time>
      </trkpt>
      <trkpt lat="37.07347" lon="-3.37804">
        <ele>2909.2</ele>
        <time>2021-08-06 18:50:21</time>
      </trkpt>
      <trkpt lat="37.07348" lon="-3.37805">
        <ele>2909.2</ele>
        <time>2021-08-06 18:50:22</time>
      </trkpt>
      <trkpt lat="37.07348" lon="-3.37805">
        <ele>2909.2</ele>
        <time>2021-08-06 18:50:23</time>
      </trkpt>
      <trkpt lat="37.07349" lon="-3.37804">
        <ele>2909.2</ele>
        <time>2021-08-06 18:50:24</time>
      </trkpt>
      <trkpt lat="37.07349" lon="-3.37804">
        <ele>2909.2</ele>
        <time>2021-08-06 18:50:25</time>
      </trkpt>
      <trkpt lat="37.0735" lon="-3.37804">
        <ele>2909</ele>
        <time>2021-08-06 18:50:26</time>
      </trkpt>
      <trkpt lat="37.07351" lon="-3.37804">
        <ele>2909</ele>
        <time>2021-08-06 18:50:27</time>
      </trkpt>
      <trkpt lat="37.07351" lon="-3.37804">
        <ele>2909</ele>
        <time>2021-08-06 18:50:28</time>
      </trkpt>
      <trkpt lat="37.07352" lon="-3.37804">
        <ele>2908.8</ele>
        <time>2021-08-06 18:50:29</time>
      </trkpt>
      <trkpt lat="37.07353" lon="-3.37804">
        <ele>2908.6</ele>
        <time>2021-08-06 18:50:30</time>
      </trkpt>
      <trkpt lat="37.07353" lon="-3.37804">
        <ele>2908.4</ele>
        <time>2021-08-06 18:50:31</time>
      </trkpt>
      <trkpt lat="37.07354" lon="-3.37804">
        <ele>2908.2</ele>
        <time>2021-08-06 18:50:32</time>
      </trkpt>
      <trkpt lat="37.07354" lon="-3.37803">
        <ele>2908</ele>
        <time>2021-08-06 18:50:33</time>
      </trkpt>
      <trkpt lat="37.07355" lon="-3.37802">
        <ele>2908</ele>
        <time>2021-08-06 18:50:34</time>
      </trkpt>
      <trkpt lat="37.07356" lon="-3.37802">
        <ele>2908</ele>
        <time>2021-08-06 18:50:35</time>
      </trkpt>
      <trkpt lat="37.07357" lon="-3.37801">
        <ele>2908</ele>
        <time>2021-08-06 18:50:36</time>
      </trkpt>
      <trkpt lat="37.07357" lon="-3.37801">
        <ele>2907.8</ele>
        <time>2021-08-06 18:50:37</time>
      </trkpt>
      <trkpt lat="37.07358" lon="-3.378">
        <ele>2907.6</ele>
        <time>2021-08-06 18:50:38</time>
      </trkpt>
      <trkpt lat="37.07358" lon="-3.37799">
        <ele>2907.4</ele>
        <time>2021-08-06 18:50:39</time>
      </trkpt>
      <trkpt lat="37.07359" lon="-3.37799">
        <ele>2907</ele>
        <time>2021-08-06 18:50:40</time>
      </trkpt>
      <trkpt lat="37.0736" lon="-3.37799">
        <ele>2906.8</ele>
        <time>2021-08-06 18:50:41</time>
      </trkpt>
      <trkpt lat="37.07361" lon="-3.37798">
        <ele>2906.6</ele>
        <time>2021-08-06 18:50:42</time>
      </trkpt>
      <trkpt lat="37.07361" lon="-3.37797">
        <ele>2906.6</ele>
        <time>2021-08-06 18:50:43</time>
      </trkpt>
      <trkpt lat="37.07362" lon="-3.37797">
        <ele>2906.8</ele>
        <time>2021-08-06 18:50:44</time>
      </trkpt>
      <trkpt lat="37.07362" lon="-3.37797">
        <ele>2906.8</ele>
        <time>2021-08-06 18:50:45</time>
      </trkpt>
      <trkpt lat="37.07363" lon="-3.37797">
        <ele>2906.8</ele>
        <time>2021-08-06 18:50:46</time>
      </trkpt>
      <trkpt lat="37.07364" lon="-3.37796">
        <ele>2906.8</ele>
        <time>2021-08-06 18:50:47</time>
      </trkpt>
      <trkpt lat="37.07364" lon="-3.37796">
        <ele>2906.8</ele>
        <time>2021-08-06 18:50:48</time>
      </trkpt>
      <trkpt lat="37.07365" lon="-3.37796">
        <ele>2906.8</ele>
        <time>2021-08-06 18:50:49</time>
      </trkpt>
      <trkpt lat="37.07365" lon="-3.37796">
        <ele>2906.8</ele>
        <time>2021-08-06 18:50:50</time>
      </trkpt>
      <trkpt lat="37.07365" lon="-3.37795">
        <ele>2906.8</ele>
        <time>2021-08-06 18:50:51</time>
      </trkpt>
      <trkpt lat="37.07366" lon="-3.37795">
        <ele>2906.8</ele>
        <time>2021-08-06 18:50:52</time>
      </trkpt>
      <trkpt lat="37.07367" lon="-3.37795">
        <ele>2906.8</ele>
        <time>2021-08-06 18:50:53</time>
      </trkpt>
      <trkpt lat="37.07368" lon="-3.37793">
        <ele>2906.8</ele>
        <time>2021-08-06 18:50:54</time>
      </trkpt>
      <trkpt lat="37.07369" lon="-3.37792">
        <ele>2906.8</ele>
        <time>2021-08-06 18:50:55</time>
      </trkpt>
      <trkpt lat="37.0737" lon="-3.37791">
        <ele>2906.8</ele>
        <time>2021-08-06 18:50:56</time>
      </trkpt>
      <trkpt lat="37.07372" lon="-3.37791">
        <ele>2906.8</ele>
        <time>2021-08-06 18:50:57</time>
      </trkpt>
      <trkpt lat="37.07373" lon="-3.3779">
        <ele>2906.4</ele>
        <time>2021-08-06 18:50:58</time>
      </trkpt>
      <trkpt lat="37.07373" lon="-3.3779">
        <ele>2906.2</ele>
        <time>2021-08-06 18:50:59</time>
      </trkpt>
      <trkpt lat="37.07374" lon="-3.3779">
        <ele>2906</ele>
        <time>2021-08-06 18:51:00</time>
      </trkpt>
      <trkpt lat="37.07375" lon="-3.3779">
        <ele>2905.8</ele>
        <time>2021-08-06 18:51:01</time>
      </trkpt>
      <trkpt lat="37.07375" lon="-3.3779">
        <ele>2905.6</ele>
        <time>2021-08-06 18:51:02</time>
      </trkpt>
      <trkpt lat="37.07376" lon="-3.3779">
        <ele>2905.4</ele>
        <time>2021-08-06 18:51:03</time>
      </trkpt>
      <trkpt lat="37.07377" lon="-3.37789">
        <ele>2905.4</ele>
        <time>2021-08-06 18:51:04</time>
      </trkpt>
      <trkpt lat="37.07378" lon="-3.37789">
        <ele>2905</ele>
        <time>2021-08-06 18:51:05</time>
      </trkpt>
      <trkpt lat="37.07378" lon="-3.37789">
        <ele>2904.8</ele>
        <time>2021-08-06 18:51:06</time>
      </trkpt>
      <trkpt lat="37.07379" lon="-3.37789">
        <ele>2904.6</ele>
        <time>2021-08-06 18:51:07</time>
      </trkpt>
      <trkpt lat="37.07379" lon="-3.37789">
        <ele>2904.6</ele>
        <time>2021-08-06 18:51:08</time>
      </trkpt>
      <trkpt lat="37.0738" lon="-3.37789">
        <ele>2904.6</ele>
        <time>2021-08-06 18:51:09</time>
      </trkpt>
      <trkpt lat="37.0738" lon="-3.3779">
        <ele>2904.6</ele>
        <time>2021-08-06 18:51:10</time>
      </trkpt>
      <trkpt lat="37.07381" lon="-3.3779">
        <ele>2904.4</ele>
        <time>2021-08-06 18:51:11</time>
      </trkpt>
      <trkpt lat="37.07381" lon="-3.37789">
        <ele>2904.4</ele>
        <time>2021-08-06 18:51:12</time>
      </trkpt>
      <trkpt lat="37.07382" lon="-3.37789">
        <ele>2904.4</ele>
        <time>2021-08-06 18:51:13</time>
      </trkpt>
      <trkpt lat="37.07383" lon="-3.37789">
        <ele>2904.2</ele>
        <time>2021-08-06 18:51:14</time>
      </trkpt>
      <trkpt lat="37.07383" lon="-3.37788">
        <ele>2904.2</ele>
        <time>2021-08-06 18:51:15</time>
      </trkpt>
      <trkpt lat="37.07383" lon="-3.37788">
        <ele>2904</ele>
        <time>2021-08-06 18:51:16</time>
      </trkpt>
      <trkpt lat="37.07384" lon="-3.37787">
        <ele>2904</ele>
        <time>2021-08-06 18:51:17</time>
      </trkpt>
      <trkpt lat="37.07384" lon="-3.37787">
        <ele>2903.8</ele>
        <time>2021-08-06 18:51:18</time>
      </trkpt>
      <trkpt lat="37.07385" lon="-3.37786">
        <ele>2903.6</ele>
        <time>2021-08-06 18:51:19</time>
      </trkpt>
      <trkpt lat="37.07385" lon="-3.37787">
        <ele>2903.4</ele>
        <time>2021-08-06 18:51:20</time>
      </trkpt>
      <trkpt lat="37.07387" lon="-3.37787">
        <ele>2903.2</ele>
        <time>2021-08-06 18:51:21</time>
      </trkpt>
      <trkpt lat="37.07388" lon="-3.37786">
        <ele>2903.2</ele>
        <time>2021-08-06 18:51:22</time>
      </trkpt>
      <trkpt lat="37.07389" lon="-3.37786">
        <ele>2903</ele>
        <time>2021-08-06 18:51:23</time>
      </trkpt>
      <trkpt lat="37.0739" lon="-3.37785">
        <ele>2903</ele>
        <time>2021-08-06 18:51:24</time>
      </trkpt>
      <trkpt lat="37.07391" lon="-3.37784">
        <ele>2902.8</ele>
        <time>2021-08-06 18:51:25</time>
      </trkpt>
      <trkpt lat="37.07392" lon="-3.37784">
        <ele>2902.8</ele>
        <time>2021-08-06 18:51:26</time>
      </trkpt>
      <trkpt lat="37.07393" lon="-3.37784">
        <ele>2902.6</ele>
        <time>2021-08-06 18:51:27</time>
      </trkpt>
      <trkpt lat="37.07393" lon="-3.37783">
        <ele>2902.4</ele>
        <time>2021-08-06 18:51:28</time>
      </trkpt>
      <trkpt lat="37.07395" lon="-3.37783">
        <ele>2902.2</ele>
        <time>2021-08-06 18:51:29</time>
      </trkpt>
      <trkpt lat="37.07396" lon="-3.37783">
        <ele>2902</ele>
        <time>2021-08-06 18:51:30</time>
      </trkpt>
      <trkpt lat="37.07396" lon="-3.37783">
        <ele>2901.6</ele>
        <time>2021-08-06 18:51:31</time>
      </trkpt>
      <trkpt lat="37.07397" lon="-3.37783">
        <ele>2901.4</ele>
        <time>2021-08-06 18:51:32</time>
      </trkpt>
      <trkpt lat="37.07398" lon="-3.37783">
        <ele>2901.2</ele>
        <time>2021-08-06 18:51:33</time>
      </trkpt>
      <trkpt lat="37.07399" lon="-3.37784">
        <ele>2901.2</ele>
        <time>2021-08-06 18:51:34</time>
      </trkpt>
      <trkpt lat="37.074" lon="-3.37784">
        <ele>2901.2</ele>
        <time>2021-08-06 18:51:35</time>
      </trkpt>
      <trkpt lat="37.07401" lon="-3.37785">
        <ele>2901</ele>
        <time>2021-08-06 18:51:36</time>
      </trkpt>
      <trkpt lat="37.07402" lon="-3.37786">
        <ele>2900.8</ele>
        <time>2021-08-06 18:51:37</time>
      </trkpt>
      <trkpt lat="37.07404" lon="-3.37786">
        <ele>2900.8</ele>
        <time>2021-08-06 18:51:38</time>
      </trkpt>
      <trkpt lat="37.07405" lon="-3.37786">
        <ele>2900.8</ele>
        <time>2021-08-06 18:51:39</time>
      </trkpt>
      <trkpt lat="37.07406" lon="-3.37787">
        <ele>2900.8</ele>
        <time>2021-08-06 18:51:40</time>
      </trkpt>
      <trkpt lat="37.07407" lon="-3.37787">
        <ele>2900.8</ele>
        <time>2021-08-06 18:51:41</time>
      </trkpt>
      <trkpt lat="37.07408" lon="-3.37787">
        <ele>2900.6</ele>
        <time>2021-08-06 18:51:42</time>
      </trkpt>
      <trkpt lat="37.07409" lon="-3.37787">
        <ele>2900.6</ele>
        <time>2021-08-06 18:51:43</time>
      </trkpt>
      <trkpt lat="37.07409" lon="-3.37788">
        <ele>2900.6</ele>
        <time>2021-08-06 18:51:44</time>
      </trkpt>
      <trkpt lat="37.0741" lon="-3.37788">
        <ele>2900.6</ele>
        <time>2021-08-06 18:51:45</time>
      </trkpt>
      <trkpt lat="37.07411" lon="-3.37789">
        <ele>2900.4</ele>
        <time>2021-08-06 18:51:46</time>
      </trkpt>
      <trkpt lat="37.07412" lon="-3.37789">
        <ele>2900</ele>
        <time>2021-08-06 18:51:47</time>
      </trkpt>
      <trkpt lat="37.07412" lon="-3.37789">
        <ele>2900</ele>
        <time>2021-08-06 18:51:48</time>
      </trkpt>
      <trkpt lat="37.07413" lon="-3.37789">
        <ele>2899.8</ele>
        <time>2021-08-06 18:51:49</time>
      </trkpt>
      <trkpt lat="37.07414" lon="-3.37789">
        <ele>2899.8</ele>
        <time>2021-08-06 18:51:50</time>
      </trkpt>
      <trkpt lat="37.07415" lon="-3.37789">
        <ele>2899.8</ele>
        <time>2021-08-06 18:51:51</time>
      </trkpt>
      <trkpt lat="37.07415" lon="-3.37789">
        <ele>2899.8</ele>
        <time>2021-08-06 18:51:52</time>
      </trkpt>
      <trkpt lat="37.07416" lon="-3.37789">
        <ele>2899.8</ele>
        <time>2021-08-06 18:51:53</time>
      </trkpt>
      <trkpt lat="37.07417" lon="-3.37789">
        <ele>2899.8</ele>
        <time>2021-08-06 18:51:54</time>
      </trkpt>
      <trkpt lat="37.07417" lon="-3.37789">
        <ele>2899.6</ele>
        <time>2021-08-06 18:51:55</time>
      </trkpt>
      <trkpt lat="37.07417" lon="-3.37788">
        <ele>2899.4</ele>
        <time>2021-08-06 18:51:56</time>
      </trkpt>
      <trkpt lat="37.07418" lon="-3.37788">
        <ele>2899.4</ele>
        <time>2021-08-06 18:51:57</time>
      </trkpt>
      <trkpt lat="37.07419" lon="-3.37788">
        <ele>2899.2</ele>
        <time>2021-08-06 18:51:58</time>
      </trkpt>
      <trkpt lat="37.0742" lon="-3.37788">
        <ele>2899.2</ele>
        <time>2021-08-06 18:51:59</time>
      </trkpt>
      <trkpt lat="37.07421" lon="-3.37787">
        <ele>2899.2</ele>
        <time>2021-08-06 18:52:00</time>
      </trkpt>
      <trkpt lat="37.07422" lon="-3.37787">
        <ele>2899.2</ele>
        <time>2021-08-06 18:52:01</time>
      </trkpt>
      <trkpt lat="37.07423" lon="-3.37787">
        <ele>2899.2</ele>
        <time>2021-08-06 18:52:02</time>
      </trkpt>
      <trkpt lat="37.07424" lon="-3.37787">
        <ele>2899</ele>
        <time>2021-08-06 18:52:03</time>
      </trkpt>
      <trkpt lat="37.07425" lon="-3.37786">
        <ele>2898.6</ele>
        <time>2021-08-06 18:52:04</time>
      </trkpt>
      <trkpt lat="37.07426" lon="-3.37786">
        <ele>2898.4</ele>
        <time>2021-08-06 18:52:05</time>
      </trkpt>
      <trkpt lat="37.07428" lon="-3.37785">
        <ele>2898.4</ele>
        <time>2021-08-06 18:52:06</time>
      </trkpt>
      <trkpt lat="37.07428" lon="-3.37785">
        <ele>2898.2</ele>
        <time>2021-08-06 18:52:07</time>
      </trkpt>
      <trkpt lat="37.07429" lon="-3.37785">
        <ele>2898.2</ele>
        <time>2021-08-06 18:52:08</time>
      </trkpt>
      <trkpt lat="37.07429" lon="-3.37785">
        <ele>2898.2</ele>
        <time>2021-08-06 18:52:09</time>
      </trkpt>
      <trkpt lat="37.07429" lon="-3.37785">
        <ele>2898.2</ele>
        <time>2021-08-06 18:52:10</time>
      </trkpt>
      <trkpt lat="37.07429" lon="-3.37785">
        <ele>2898.4</ele>
        <time>2021-08-06 18:52:11</time>
      </trkpt>
      <trkpt lat="37.07429" lon="-3.37785">
        <ele>2898.4</ele>
        <time>2021-08-06 18:52:12</time>
      </trkpt>
      <trkpt lat="37.0743" lon="-3.37785">
        <ele>2898.4</ele>
        <time>2021-08-06 18:52:13</time>
      </trkpt>
      <trkpt lat="37.0743" lon="-3.37785">
        <ele>2898.4</ele>
        <time>2021-08-06 18:52:14</time>
      </trkpt>
      <trkpt lat="37.0743" lon="-3.37784">
        <ele>2898.4</ele>
        <time>2021-08-06 18:52:15</time>
      </trkpt>
      <trkpt lat="37.0743" lon="-3.37784">
        <ele>2898.4</ele>
        <time>2021-08-06 18:52:16</time>
      </trkpt>
      <trkpt lat="37.0743" lon="-3.37784">
        <ele>2898.4</ele>
        <time>2021-08-06 18:52:17</time>
      </trkpt>
      <trkpt lat="37.0743" lon="-3.37784">
        <ele>2898.4</ele>
        <time>2021-08-06 18:52:18</time>
      </trkpt>
      <trkpt lat="37.07431" lon="-3.37784">
        <ele>2898.4</ele>
        <time>2021-08-06 18:52:19</time>
      </trkpt>
      <trkpt lat="37.07431" lon="-3.37784">
        <ele>2898.4</ele>
        <time>2021-08-06 18:52:20</time>
      </trkpt>
      <trkpt lat="37.07432" lon="-3.37784">
        <ele>2898.4</ele>
        <time>2021-08-06 18:52:21</time>
      </trkpt>
      <trkpt lat="37.07432" lon="-3.37784">
        <ele>2898.2</ele>
        <time>2021-08-06 18:52:22</time>
      </trkpt>
      <trkpt lat="37.07433" lon="-3.37784">
        <ele>2898.2</ele>
        <time>2021-08-06 18:52:23</time>
      </trkpt>
      <trkpt lat="37.07433" lon="-3.37784">
        <ele>2898</ele>
        <time>2021-08-06 18:52:24</time>
      </trkpt>
      <trkpt lat="37.07434" lon="-3.37784">
        <ele>2898</ele>
        <time>2021-08-06 18:52:25</time>
      </trkpt>
      <trkpt lat="37.07434" lon="-3.37783">
        <ele>2897.8</ele>
        <time>2021-08-06 18:52:26</time>
      </trkpt>
      <trkpt lat="37.07435" lon="-3.37783">
        <ele>2897.8</ele>
        <time>2021-08-06 18:52:27</time>
      </trkpt>
      <trkpt lat="37.07435" lon="-3.37783">
        <ele>2897.6</ele>
        <time>2021-08-06 18:52:28</time>
      </trkpt>
      <trkpt lat="37.07436" lon="-3.37782">
        <ele>2897.4</ele>
        <time>2021-08-06 18:52:29</time>
      </trkpt>
      <trkpt lat="37.07437" lon="-3.37781">
        <ele>2897.2</ele>
        <time>2021-08-06 18:52:30</time>
      </trkpt>
      <trkpt lat="37.07437" lon="-3.37781">
        <ele>2897</ele>
        <time>2021-08-06 18:52:31</time>
      </trkpt>
      <trkpt lat="37.07438" lon="-3.37782">
        <ele>2896.4</ele>
        <time>2021-08-06 18:52:32</time>
      </trkpt>
      <trkpt lat="37.07438" lon="-3.37782">
        <ele>2896</ele>
        <time>2021-08-06 18:52:33</time>
      </trkpt>
      <trkpt lat="37.07438" lon="-3.37782">
        <ele>2895.6</ele>
        <time>2021-08-06 18:52:34</time>
      </trkpt>
      <trkpt lat="37.07439" lon="-3.37781">
        <ele>2895.4</ele>
        <time>2021-08-06 18:52:35</time>
      </trkpt>
      <trkpt lat="37.0744" lon="-3.3778">
        <ele>2895.2</ele>
        <time>2021-08-06 18:52:36</time>
      </trkpt>
      <trkpt lat="37.07441" lon="-3.3778">
        <ele>2895</ele>
        <time>2021-08-06 18:52:37</time>
      </trkpt>
      <trkpt lat="37.07441" lon="-3.37781">
        <ele>2894.6</ele>
        <time>2021-08-06 18:52:38</time>
      </trkpt>
      <trkpt lat="37.07442" lon="-3.37781">
        <ele>2894.4</ele>
        <time>2021-08-06 18:52:39</time>
      </trkpt>
      <trkpt lat="37.07443" lon="-3.3778">
        <ele>2894.2</ele>
        <time>2021-08-06 18:52:40</time>
      </trkpt>
      <trkpt lat="37.07443" lon="-3.3778">
        <ele>2894.2</ele>
        <time>2021-08-06 18:52:41</time>
      </trkpt>
      <trkpt lat="37.07444" lon="-3.3778">
        <ele>2894.2</ele>
        <time>2021-08-06 18:52:42</time>
      </trkpt>
      <trkpt lat="37.07445" lon="-3.37779">
        <ele>2894.2</ele>
        <time>2021-08-06 18:52:43</time>
      </trkpt>
      <trkpt lat="37.07446" lon="-3.37779">
        <ele>2894.2</ele>
        <time>2021-08-06 18:52:44</time>
      </trkpt>
      <trkpt lat="37.07447" lon="-3.37778">
        <ele>2894.2</ele>
        <time>2021-08-06 18:52:45</time>
      </trkpt>
      <trkpt lat="37.07446" lon="-3.37784">
        <ele>2894.2</ele>
        <time>2021-08-06 18:52:46</time>
      </trkpt>
      <trkpt lat="37.07446" lon="-3.37784">
        <ele>2894.2</ele>
        <time>2021-08-06 18:52:47</time>
      </trkpt>
      <trkpt lat="37.07446" lon="-3.37784">
        <ele>2894.2</ele>
        <time>2021-08-06 18:52:48</time>
      </trkpt>
      <trkpt lat="37.07447" lon="-3.37784">
        <ele>2894</ele>
        <time>2021-08-06 18:52:49</time>
      </trkpt>
      <trkpt lat="37.07447" lon="-3.37784">
        <ele>2893.8</ele>
        <time>2021-08-06 18:52:50</time>
      </trkpt>
      <trkpt lat="37.07447" lon="-3.37784">
        <ele>2893.4</ele>
        <time>2021-08-06 18:52:51</time>
      </trkpt>
      <trkpt lat="37.07448" lon="-3.37784">
        <ele>2893.2</ele>
        <time>2021-08-06 18:52:52</time>
      </trkpt>
      <trkpt lat="37.07449" lon="-3.37783">
        <ele>2893</ele>
        <time>2021-08-06 18:52:53</time>
      </trkpt>
      <trkpt lat="37.0745" lon="-3.37782">
        <ele>2892.8</ele>
        <time>2021-08-06 18:52:54</time>
      </trkpt>
      <trkpt lat="37.07451" lon="-3.37782">
        <ele>2892.8</ele>
        <time>2021-08-06 18:52:55</time>
      </trkpt>
      <trkpt lat="37.07452" lon="-3.37781">
        <ele>2892.8</ele>
        <time>2021-08-06 18:52:56</time>
      </trkpt>
      <trkpt lat="37.07453" lon="-3.37781">
        <ele>2892.8</ele>
        <time>2021-08-06 18:52:57</time>
      </trkpt>
      <trkpt lat="37.07454" lon="-3.37781">
        <ele>2892.8</ele>
        <time>2021-08-06 18:52:58</time>
      </trkpt>
      <trkpt lat="37.07455" lon="-3.3778">
        <ele>2892.2</ele>
        <time>2021-08-06 18:52:59</time>
      </trkpt>
      <trkpt lat="37.07456" lon="-3.37781">
        <ele>2891.8</ele>
        <time>2021-08-06 18:53:00</time>
      </trkpt>
      <trkpt lat="37.07456" lon="-3.37782">
        <ele>2891.6</ele>
        <time>2021-08-06 18:53:01</time>
      </trkpt>
      <trkpt lat="37.07457" lon="-3.37783">
        <ele>2891.2</ele>
        <time>2021-08-06 18:53:02</time>
      </trkpt>
      <trkpt lat="37.07458" lon="-3.37783">
        <ele>2891.2</ele>
        <time>2021-08-06 18:53:03</time>
      </trkpt>
      <trkpt lat="37.07459" lon="-3.37782">
        <ele>2891.2</ele>
        <time>2021-08-06 18:53:04</time>
      </trkpt>
      <trkpt lat="37.07459" lon="-3.37782">
        <ele>2891.2</ele>
        <time>2021-08-06 18:53:05</time>
      </trkpt>
      <trkpt lat="37.0746" lon="-3.37784">
        <ele>2891</ele>
        <time>2021-08-06 18:53:06</time>
      </trkpt>
      <trkpt lat="37.07461" lon="-3.37783">
        <ele>2891</ele>
        <time>2021-08-06 18:53:07</time>
      </trkpt>
      <trkpt lat="37.07461" lon="-3.37783">
        <ele>2891</ele>
        <time>2021-08-06 18:53:08</time>
      </trkpt>
      <trkpt lat="37.07462" lon="-3.37782">
        <ele>2891</ele>
        <time>2021-08-06 18:53:09</time>
      </trkpt>
      <trkpt lat="37.07464" lon="-3.37775">
        <ele>2891</ele>
        <time>2021-08-06 18:53:10</time>
      </trkpt>
      <trkpt lat="37.07465" lon="-3.37774">
        <ele>2890.8</ele>
        <time>2021-08-06 18:53:11</time>
      </trkpt>
      <trkpt lat="37.07465" lon="-3.37774">
        <ele>2890.8</ele>
        <time>2021-08-06 18:53:12</time>
      </trkpt>
      <trkpt lat="37.07466" lon="-3.37773">
        <ele>2890.6</ele>
        <time>2021-08-06 18:53:13</time>
      </trkpt>
      <trkpt lat="37.07467" lon="-3.37773">
        <ele>2890.4</ele>
        <time>2021-08-06 18:53:14</time>
      </trkpt>
      <trkpt lat="37.07468" lon="-3.37773">
        <ele>2890.4</ele>
        <time>2021-08-06 18:53:15</time>
      </trkpt>
      <trkpt lat="37.07469" lon="-3.37773">
        <ele>2890</ele>
        <time>2021-08-06 18:53:16</time>
      </trkpt>
      <trkpt lat="37.07471" lon="-3.37774">
        <ele>2889.8</ele>
        <time>2021-08-06 18:53:17</time>
      </trkpt>
      <trkpt lat="37.0747" lon="-3.37775">
        <ele>2889.4</ele>
        <time>2021-08-06 18:53:18</time>
      </trkpt>
      <trkpt lat="37.0747" lon="-3.37776">
        <ele>2889</ele>
        <time>2021-08-06 18:53:19</time>
      </trkpt>
      <trkpt lat="37.07471" lon="-3.37777">
        <ele>2888.8</ele>
        <time>2021-08-06 18:53:20</time>
      </trkpt>
      <trkpt lat="37.07471" lon="-3.37777">
        <ele>2888.6</ele>
        <time>2021-08-06 18:53:21</time>
      </trkpt>
      <trkpt lat="37.07471" lon="-3.37779">
        <ele>2888.4</ele>
        <time>2021-08-06 18:53:22</time>
      </trkpt>
      <trkpt lat="37.07472" lon="-3.37779">
        <ele>2888.4</ele>
        <time>2021-08-06 18:53:23</time>
      </trkpt>
      <trkpt lat="37.07473" lon="-3.37779">
        <ele>2888.4</ele>
        <time>2021-08-06 18:53:24</time>
      </trkpt>
      <trkpt lat="37.07472" lon="-3.3778">
        <ele>2888.4</ele>
        <time>2021-08-06 18:53:25</time>
      </trkpt>
      <trkpt lat="37.07473" lon="-3.37781">
        <ele>2888.4</ele>
        <time>2021-08-06 18:53:26</time>
      </trkpt>
      <trkpt lat="37.07474" lon="-3.37781">
        <ele>2888.2</ele>
        <time>2021-08-06 18:53:27</time>
      </trkpt>
      <trkpt lat="37.07475" lon="-3.37782">
        <ele>2888.2</ele>
        <time>2021-08-06 18:53:28</time>
      </trkpt>
      <trkpt lat="37.07476" lon="-3.37782">
        <ele>2888</ele>
        <time>2021-08-06 18:53:29</time>
      </trkpt>
      <trkpt lat="37.07477" lon="-3.37781">
        <ele>2887.6</ele>
        <time>2021-08-06 18:53:30</time>
      </trkpt>
      <trkpt lat="37.07477" lon="-3.37782">
        <ele>2887.6</ele>
        <time>2021-08-06 18:53:31</time>
      </trkpt>
      <trkpt lat="37.07478" lon="-3.37782">
        <ele>2887.4</ele>
        <time>2021-08-06 18:53:32</time>
      </trkpt>
      <trkpt lat="37.07479" lon="-3.37782">
        <ele>2887</ele>
        <time>2021-08-06 18:53:33</time>
      </trkpt>
      <trkpt lat="37.0748" lon="-3.37781">
        <ele>2886.8</ele>
        <time>2021-08-06 18:53:34</time>
      </trkpt>
      <trkpt lat="37.0748" lon="-3.37781">
        <ele>2886.6</ele>
        <time>2021-08-06 18:53:35</time>
      </trkpt>
      <trkpt lat="37.07481" lon="-3.37781">
        <ele>2886.2</ele>
        <time>2021-08-06 18:53:36</time>
      </trkpt>
      <trkpt lat="37.07481" lon="-3.37777">
        <ele>2886.2</ele>
        <time>2021-08-06 18:53:37</time>
      </trkpt>
      <trkpt lat="37.07482" lon="-3.37776">
        <ele>2886</ele>
        <time>2021-08-06 18:53:38</time>
      </trkpt>
      <trkpt lat="37.07482" lon="-3.37774">
        <ele>2885.8</ele>
        <time>2021-08-06 18:53:39</time>
      </trkpt>
      <trkpt lat="37.07482" lon="-3.37773">
        <ele>2885.8</ele>
        <time>2021-08-06 18:53:40</time>
      </trkpt>
      <trkpt lat="37.07483" lon="-3.37775">
        <ele>2885.8</ele>
        <time>2021-08-06 18:53:41</time>
      </trkpt>
      <trkpt lat="37.07484" lon="-3.37777">
        <ele>2885.4</ele>
        <time>2021-08-06 18:53:42</time>
      </trkpt>
      <trkpt lat="37.07484" lon="-3.37777">
        <ele>2885.2</ele>
        <time>2021-08-06 18:53:43</time>
      </trkpt>
      <trkpt lat="37.07485" lon="-3.37777">
        <ele>2885</ele>
        <time>2021-08-06 18:53:44</time>
      </trkpt>
      <trkpt lat="37.07485" lon="-3.37779">
        <ele>2884.6</ele>
        <time>2021-08-06 18:53:45</time>
      </trkpt>
      <trkpt lat="37.07486" lon="-3.3778">
        <ele>2884.6</ele>
        <time>2021-08-06 18:53:46</time>
      </trkpt>
      <trkpt lat="37.07486" lon="-3.37782">
        <ele>2884.4</ele>
        <time>2021-08-06 18:53:47</time>
      </trkpt>
      <trkpt lat="37.07486" lon="-3.37782">
        <ele>2884.2</ele>
        <time>2021-08-06 18:53:48</time>
      </trkpt>
      <trkpt lat="37.07487" lon="-3.37782">
        <ele>2884</ele>
        <time>2021-08-06 18:53:49</time>
      </trkpt>
      <trkpt lat="37.07488" lon="-3.37782">
        <ele>2884</ele>
        <time>2021-08-06 18:53:50</time>
      </trkpt>
      <trkpt lat="37.07489" lon="-3.37782">
        <ele>2884</ele>
        <time>2021-08-06 18:53:51</time>
      </trkpt>
      <trkpt lat="37.0749" lon="-3.37782">
        <ele>2883.8</ele>
        <time>2021-08-06 18:53:52</time>
      </trkpt>
      <trkpt lat="37.07491" lon="-3.37783">
        <ele>2883.8</ele>
        <time>2021-08-06 18:53:53</time>
      </trkpt>
      <trkpt lat="37.07491" lon="-3.37783">
        <ele>2883.8</ele>
        <time>2021-08-06 18:53:54</time>
      </trkpt>
      <trkpt lat="37.07492" lon="-3.37784">
        <ele>2883.6</ele>
        <time>2021-08-06 18:53:55</time>
      </trkpt>
      <trkpt lat="37.07493" lon="-3.37785">
        <ele>2883.6</ele>
        <time>2021-08-06 18:53:56</time>
      </trkpt>
      <trkpt lat="37.07494" lon="-3.37785">
        <ele>2883.6</ele>
        <time>2021-08-06 18:53:57</time>
      </trkpt>
      <trkpt lat="37.07494" lon="-3.37785">
        <ele>2883.6</ele>
        <time>2021-08-06 18:53:58</time>
      </trkpt>
      <trkpt lat="37.07495" lon="-3.37785">
        <ele>2883.2</ele>
        <time>2021-08-06 18:53:59</time>
      </trkpt>
      <trkpt lat="37.07496" lon="-3.37785">
        <ele>2883</ele>
        <time>2021-08-06 18:54:00</time>
      </trkpt>
      <trkpt lat="37.07496" lon="-3.37785">
        <ele>2883</ele>
        <time>2021-08-06 18:54:01</time>
      </trkpt>
      <trkpt lat="37.07497" lon="-3.37783">
        <ele>2883</ele>
        <time>2021-08-06 18:54:02</time>
      </trkpt>
      <trkpt lat="37.07498" lon="-3.37784">
        <ele>2883</ele>
        <time>2021-08-06 18:54:03</time>
      </trkpt>
      <trkpt lat="37.07499" lon="-3.37785">
        <ele>2883</ele>
        <time>2021-08-06 18:54:04</time>
      </trkpt>
      <trkpt lat="37.075" lon="-3.37786">
        <ele>2883</ele>
        <time>2021-08-06 18:54:05</time>
      </trkpt>
      <trkpt lat="37.07501" lon="-3.37787">
        <ele>2883</ele>
        <time>2021-08-06 18:54:06</time>
      </trkpt>
      <trkpt lat="37.07502" lon="-3.37788">
        <ele>2883</ele>
        <time>2021-08-06 18:54:07</time>
      </trkpt>
      <trkpt lat="37.07502" lon="-3.37789">
        <ele>2883</ele>
        <time>2021-08-06 18:54:08</time>
      </trkpt>
      <trkpt lat="37.07503" lon="-3.37789">
        <ele>2882.4</ele>
        <time>2021-08-06 18:54:09</time>
      </trkpt>
      <trkpt lat="37.07503" lon="-3.3779">
        <ele>2882</ele>
        <time>2021-08-06 18:54:10</time>
      </trkpt>
      <trkpt lat="37.07504" lon="-3.37791">
        <ele>2882</ele>
        <time>2021-08-06 18:54:11</time>
      </trkpt>
      <trkpt lat="37.07504" lon="-3.37793">
        <ele>2881.8</ele>
        <time>2021-08-06 18:54:12</time>
      </trkpt>
      <trkpt lat="37.07505" lon="-3.37794">
        <ele>2881.8</ele>
        <time>2021-08-06 18:54:13</time>
      </trkpt>
      <trkpt lat="37.07505" lon="-3.37795">
        <ele>2881.8</ele>
        <time>2021-08-06 18:54:14</time>
      </trkpt>
      <trkpt lat="37.07506" lon="-3.37795">
        <ele>2881.8</ele>
        <time>2021-08-06 18:54:15</time>
      </trkpt>
      <trkpt lat="37.07506" lon="-3.37796">
        <ele>2882</ele>
        <time>2021-08-06 18:54:16</time>
      </trkpt>
      <trkpt lat="37.07507" lon="-3.37796">
        <ele>2881.6</ele>
        <time>2021-08-06 18:54:17</time>
      </trkpt>
      <trkpt lat="37.07508" lon="-3.37797">
        <ele>2881.2</ele>
        <time>2021-08-06 18:54:18</time>
      </trkpt>
      <trkpt lat="37.07508" lon="-3.37798">
        <ele>2881</ele>
        <time>2021-08-06 18:54:19</time>
      </trkpt>
      <trkpt lat="37.07509" lon="-3.37798">
        <ele>2880.6</ele>
        <time>2021-08-06 18:54:20</time>
      </trkpt>
      <trkpt lat="37.07509" lon="-3.37798">
        <ele>2880.4</ele>
        <time>2021-08-06 18:54:21</time>
      </trkpt>
      <trkpt lat="37.07509" lon="-3.37798">
        <ele>2880.2</ele>
        <time>2021-08-06 18:54:22</time>
      </trkpt>
      <trkpt lat="37.07509" lon="-3.37797">
        <ele>2880</ele>
        <time>2021-08-06 18:54:23</time>
      </trkpt>
      <trkpt lat="37.0751" lon="-3.37797">
        <ele>2880</ele>
        <time>2021-08-06 18:54:24</time>
      </trkpt>
      <trkpt lat="37.0751" lon="-3.37796">
        <ele>2879.8</ele>
        <time>2021-08-06 18:54:25</time>
      </trkpt>
      <trkpt lat="37.0751" lon="-3.37796">
        <ele>2879.6</ele>
        <time>2021-08-06 18:54:26</time>
      </trkpt>
      <trkpt lat="37.0751" lon="-3.37795">
        <ele>2879.6</ele>
        <time>2021-08-06 18:54:27</time>
      </trkpt>
      <trkpt lat="37.07511" lon="-3.37796">
        <ele>2879.4</ele>
        <time>2021-08-06 18:54:28</time>
      </trkpt>
      <trkpt lat="37.07511" lon="-3.37796">
        <ele>2879.2</ele>
        <time>2021-08-06 18:54:29</time>
      </trkpt>
      <trkpt lat="37.07511" lon="-3.37796">
        <ele>2879.2</ele>
        <time>2021-08-06 18:54:30</time>
      </trkpt>
      <trkpt lat="37.07512" lon="-3.37795">
        <ele>2879</ele>
        <time>2021-08-06 18:54:31</time>
      </trkpt>
      <trkpt lat="37.07513" lon="-3.37795">
        <ele>2879</ele>
        <time>2021-08-06 18:54:32</time>
      </trkpt>
      <trkpt lat="37.07513" lon="-3.37796">
        <ele>2878.8</ele>
        <time>2021-08-06 18:54:33</time>
      </trkpt>
      <trkpt lat="37.07513" lon="-3.37799">
        <ele>2878.6</ele>
        <time>2021-08-06 18:54:34</time>
      </trkpt>
      <trkpt lat="37.07514" lon="-3.37799">
        <ele>2878.4</ele>
        <time>2021-08-06 18:54:35</time>
      </trkpt>
      <trkpt lat="37.07515" lon="-3.37799">
        <ele>2878.2</ele>
        <time>2021-08-06 18:54:36</time>
      </trkpt>
      <trkpt lat="37.07515" lon="-3.37801">
        <ele>2878</ele>
        <time>2021-08-06 18:54:37</time>
      </trkpt>
      <trkpt lat="37.07516" lon="-3.37801">
        <ele>2878</ele>
        <time>2021-08-06 18:54:38</time>
      </trkpt>
      <trkpt lat="37.07516" lon="-3.37802">
        <ele>2878</ele>
        <time>2021-08-06 18:54:39</time>
      </trkpt>
      <trkpt lat="37.07517" lon="-3.37802">
        <ele>2877.8</ele>
        <time>2021-08-06 18:54:40</time>
      </trkpt>
      <trkpt lat="37.07518" lon="-3.37802">
        <ele>2877.6</ele>
        <time>2021-08-06 18:54:41</time>
      </trkpt>
      <trkpt lat="37.07519" lon="-3.37803">
        <ele>2877.4</ele>
        <time>2021-08-06 18:54:42</time>
      </trkpt>
      <trkpt lat="37.0752" lon="-3.37802">
        <ele>2877.4</ele>
        <time>2021-08-06 18:54:43</time>
      </trkpt>
      <trkpt lat="37.0752" lon="-3.37802">
        <ele>2877.4</ele>
        <time>2021-08-06 18:54:44</time>
      </trkpt>
      <trkpt lat="37.07521" lon="-3.37803">
        <ele>2877.2</ele>
        <time>2021-08-06 18:54:45</time>
      </trkpt>
      <trkpt lat="37.07522" lon="-3.37803">
        <ele>2877</ele>
        <time>2021-08-06 18:54:46</time>
      </trkpt>
      <trkpt lat="37.07522" lon="-3.37803">
        <ele>2876.8</ele>
        <time>2021-08-06 18:54:47</time>
      </trkpt>
      <trkpt lat="37.07523" lon="-3.37803">
        <ele>2876.6</ele>
        <time>2021-08-06 18:54:48</time>
      </trkpt>
      <trkpt lat="37.07524" lon="-3.37803">
        <ele>2876.6</ele>
        <time>2021-08-06 18:54:49</time>
      </trkpt>
      <trkpt lat="37.07524" lon="-3.37803">
        <ele>2876.2</ele>
        <time>2021-08-06 18:54:50</time>
      </trkpt>
      <trkpt lat="37.07525" lon="-3.37804">
        <ele>2876</ele>
        <time>2021-08-06 18:54:51</time>
      </trkpt>
      <trkpt lat="37.07525" lon="-3.37804">
        <ele>2876.2</ele>
        <time>2021-08-06 18:54:52</time>
      </trkpt>
      <trkpt lat="37.07526" lon="-3.37805">
        <ele>2876.2</ele>
        <time>2021-08-06 18:54:53</time>
      </trkpt>
      <trkpt lat="37.07526" lon="-3.37806">
        <ele>2876</ele>
        <time>2021-08-06 18:54:54</time>
      </trkpt>
      <trkpt lat="37.07527" lon="-3.37806">
        <ele>2875.8</ele>
        <time>2021-08-06 18:54:55</time>
      </trkpt>
      <trkpt lat="37.07527" lon="-3.37807">
        <ele>2875.6</ele>
        <time>2021-08-06 18:54:56</time>
      </trkpt>
      <trkpt lat="37.07527" lon="-3.37807">
        <ele>2875.6</ele>
        <time>2021-08-06 18:54:57</time>
      </trkpt>
      <trkpt lat="37.07527" lon="-3.37808">
        <ele>2875.4</ele>
        <time>2021-08-06 18:54:58</time>
      </trkpt>
      <trkpt lat="37.07527" lon="-3.37809">
        <ele>2875.2</ele>
        <time>2021-08-06 18:54:59</time>
      </trkpt>
      <trkpt lat="37.07528" lon="-3.37809">
        <ele>2875.2</ele>
        <time>2021-08-06 18:55:00</time>
      </trkpt>
      <trkpt lat="37.07528" lon="-3.3781">
        <ele>2875</ele>
        <time>2021-08-06 18:55:01</time>
      </trkpt>
      <trkpt lat="37.07528" lon="-3.37811">
        <ele>2875</ele>
        <time>2021-08-06 18:55:02</time>
      </trkpt>
      <trkpt lat="37.07529" lon="-3.37811">
        <ele>2874.8</ele>
        <time>2021-08-06 18:55:03</time>
      </trkpt>
      <trkpt lat="37.07529" lon="-3.37812">
        <ele>2874.8</ele>
        <time>2021-08-06 18:55:04</time>
      </trkpt>
      <trkpt lat="37.07529" lon="-3.37812">
        <ele>2874.6</ele>
        <time>2021-08-06 18:55:05</time>
      </trkpt>
      <trkpt lat="37.07529" lon="-3.37813">
        <ele>2874.6</ele>
        <time>2021-08-06 18:55:06</time>
      </trkpt>
      <trkpt lat="37.07528" lon="-3.37814">
        <ele>2874.6</ele>
        <time>2021-08-06 18:55:07</time>
      </trkpt>
      <trkpt lat="37.07528" lon="-3.37814">
        <ele>2874.4</ele>
        <time>2021-08-06 18:55:08</time>
      </trkpt>
      <trkpt lat="37.07528" lon="-3.37815">
        <ele>2874.4</ele>
        <time>2021-08-06 18:55:09</time>
      </trkpt>
      <trkpt lat="37.07528" lon="-3.37818">
        <ele>2874</ele>
        <time>2021-08-06 18:55:10</time>
      </trkpt>
      <trkpt lat="37.07528" lon="-3.37817">
        <ele>2873.8</ele>
        <time>2021-08-06 18:55:11</time>
      </trkpt>
      <trkpt lat="37.07529" lon="-3.37817">
        <ele>2873.6</ele>
        <time>2021-08-06 18:55:12</time>
      </trkpt>
      <trkpt lat="37.07529" lon="-3.37815">
        <ele>2873.4</ele>
        <time>2021-08-06 18:55:13</time>
      </trkpt>
      <trkpt lat="37.07529" lon="-3.37815">
        <ele>2873.2</ele>
        <time>2021-08-06 18:55:14</time>
      </trkpt>
      <trkpt lat="37.0753" lon="-3.37815">
        <ele>2873</ele>
        <time>2021-08-06 18:55:15</time>
      </trkpt>
      <trkpt lat="37.07531" lon="-3.37815">
        <ele>2872.2</ele>
        <time>2021-08-06 18:55:16</time>
      </trkpt>
      <trkpt lat="37.07531" lon="-3.37814">
        <ele>2871.8</ele>
        <time>2021-08-06 18:55:17</time>
      </trkpt>
      <trkpt lat="37.07532" lon="-3.37814">
        <ele>2871.6</ele>
        <time>2021-08-06 18:55:18</time>
      </trkpt>
      <trkpt lat="37.07532" lon="-3.37814">
        <ele>2871.4</ele>
        <time>2021-08-06 18:55:19</time>
      </trkpt>
      <trkpt lat="37.07532" lon="-3.37814">
        <ele>2871.4</ele>
        <time>2021-08-06 18:55:20</time>
      </trkpt>
      <trkpt lat="37.07532" lon="-3.37815">
        <ele>2871.2</ele>
        <time>2021-08-06 18:55:21</time>
      </trkpt>
      <trkpt lat="37.07532" lon="-3.37816">
        <ele>2871.2</ele>
        <time>2021-08-06 18:55:22</time>
      </trkpt>
      <trkpt lat="37.07532" lon="-3.37817">
        <ele>2871</ele>
        <time>2021-08-06 18:55:23</time>
      </trkpt>
      <trkpt lat="37.07533" lon="-3.37818">
        <ele>2871</ele>
        <time>2021-08-06 18:55:24</time>
      </trkpt>
      <trkpt lat="37.07533" lon="-3.37818">
        <ele>2871</ele>
        <time>2021-08-06 18:55:25</time>
      </trkpt>
      <trkpt lat="37.07533" lon="-3.37819">
        <ele>2870.8</ele>
        <time>2021-08-06 18:55:26</time>
      </trkpt>
      <trkpt lat="37.07533" lon="-3.37819">
        <ele>2870.8</ele>
        <time>2021-08-06 18:55:27</time>
      </trkpt>
      <trkpt lat="37.07534" lon="-3.37817">
        <ele>2870.6</ele>
        <time>2021-08-06 18:55:28</time>
      </trkpt>
      <trkpt lat="37.07535" lon="-3.37817">
        <ele>2870</ele>
        <time>2021-08-06 18:55:29</time>
      </trkpt>
      <trkpt lat="37.07535" lon="-3.37816">
        <ele>2869.6</ele>
        <time>2021-08-06 18:55:30</time>
      </trkpt>
      <trkpt lat="37.07537" lon="-3.37817">
        <ele>2869.4</ele>
        <time>2021-08-06 18:55:31</time>
      </trkpt>
      <trkpt lat="37.07537" lon="-3.37818">
        <ele>2869.4</ele>
        <time>2021-08-06 18:55:32</time>
      </trkpt>
      <trkpt lat="37.07538" lon="-3.37819">
        <ele>2869.2</ele>
        <time>2021-08-06 18:55:33</time>
      </trkpt>
      <trkpt lat="37.07538" lon="-3.37819">
        <ele>2869.2</ele>
        <time>2021-08-06 18:55:34</time>
      </trkpt>
      <trkpt lat="37.07539" lon="-3.37819">
        <ele>2869.2</ele>
        <time>2021-08-06 18:55:35</time>
      </trkpt>
      <trkpt lat="37.0754" lon="-3.37819">
        <ele>2868.8</ele>
        <time>2021-08-06 18:55:36</time>
      </trkpt>
      <trkpt lat="37.0754" lon="-3.37819">
        <ele>2868.4</ele>
        <time>2021-08-06 18:55:37</time>
      </trkpt>
      <trkpt lat="37.07542" lon="-3.37819">
        <ele>2868</ele>
        <time>2021-08-06 18:55:38</time>
      </trkpt>
      <trkpt lat="37.07542" lon="-3.37819">
        <ele>2867.8</ele>
        <time>2021-08-06 18:55:39</time>
      </trkpt>
      <trkpt lat="37.07542" lon="-3.3782">
        <ele>2867.6</ele>
        <time>2021-08-06 18:55:40</time>
      </trkpt>
      <trkpt lat="37.07543" lon="-3.37822">
        <ele>2867.4</ele>
        <time>2021-08-06 18:55:41</time>
      </trkpt>
      <trkpt lat="37.07544" lon="-3.37822">
        <ele>2867.4</ele>
        <time>2021-08-06 18:55:42</time>
      </trkpt>
      <trkpt lat="37.07545" lon="-3.37823">
        <ele>2867</ele>
        <time>2021-08-06 18:55:43</time>
      </trkpt>
      <trkpt lat="37.07546" lon="-3.37824">
        <ele>2867</ele>
        <time>2021-08-06 18:55:44</time>
      </trkpt>
      <trkpt lat="37.07546" lon="-3.37824">
        <ele>2866.8</ele>
        <time>2021-08-06 18:55:45</time>
      </trkpt>
      <trkpt lat="37.07546" lon="-3.37825">
        <ele>2866.8</ele>
        <time>2021-08-06 18:55:46</time>
      </trkpt>
      <trkpt lat="37.07547" lon="-3.37827">
        <ele>2866.6</ele>
        <time>2021-08-06 18:55:47</time>
      </trkpt>
      <trkpt lat="37.07547" lon="-3.37828">
        <ele>2866.6</ele>
        <time>2021-08-06 18:55:48</time>
      </trkpt>
      <trkpt lat="37.07548" lon="-3.37828">
        <ele>2866.4</ele>
        <time>2021-08-06 18:55:49</time>
      </trkpt>
      <trkpt lat="37.07549" lon="-3.37829">
        <ele>2866.2</ele>
        <time>2021-08-06 18:55:50</time>
      </trkpt>
      <trkpt lat="37.07549" lon="-3.3783">
        <ele>2866.2</ele>
        <time>2021-08-06 18:55:51</time>
      </trkpt>
      <trkpt lat="37.0755" lon="-3.3783">
        <ele>2866</ele>
        <time>2021-08-06 18:55:52</time>
      </trkpt>
      <trkpt lat="37.0755" lon="-3.37831">
        <ele>2865.8</ele>
        <time>2021-08-06 18:55:53</time>
      </trkpt>
      <trkpt lat="37.07551" lon="-3.37832">
        <ele>2865.6</ele>
        <time>2021-08-06 18:55:54</time>
      </trkpt>
      <trkpt lat="37.07551" lon="-3.37832">
        <ele>2865.4</ele>
        <time>2021-08-06 18:55:55</time>
      </trkpt>
      <trkpt lat="37.07552" lon="-3.37832">
        <ele>2865.2</ele>
        <time>2021-08-06 18:55:56</time>
      </trkpt>
      <trkpt lat="37.07552" lon="-3.37832">
        <ele>2865</ele>
        <time>2021-08-06 18:55:57</time>
      </trkpt>
      <trkpt lat="37.07552" lon="-3.37833">
        <ele>2864.6</ele>
        <time>2021-08-06 18:55:58</time>
      </trkpt>
      <trkpt lat="37.07552" lon="-3.37833">
        <ele>2864.6</ele>
        <time>2021-08-06 18:55:59</time>
      </trkpt>
      <trkpt lat="37.07553" lon="-3.37833">
        <ele>2864.4</ele>
        <time>2021-08-06 18:56:00</time>
      </trkpt>
      <trkpt lat="37.07553" lon="-3.37834">
        <ele>2864.4</ele>
        <time>2021-08-06 18:56:01</time>
      </trkpt>
      <trkpt lat="37.07554" lon="-3.37836">
        <ele>2864.4</ele>
        <time>2021-08-06 18:56:02</time>
      </trkpt>
      <trkpt lat="37.07554" lon="-3.37837">
        <ele>2864.2</ele>
        <time>2021-08-06 18:56:03</time>
      </trkpt>
      <trkpt lat="37.07555" lon="-3.37837">
        <ele>2864.2</ele>
        <time>2021-08-06 18:56:04</time>
      </trkpt>
      <trkpt lat="37.07556" lon="-3.37838">
        <ele>2864.2</ele>
        <time>2021-08-06 18:56:05</time>
      </trkpt>
      <trkpt lat="37.07557" lon="-3.37838">
        <ele>2864</ele>
        <time>2021-08-06 18:56:06</time>
      </trkpt>
      <trkpt lat="37.07557" lon="-3.37839">
        <ele>2864</ele>
        <time>2021-08-06 18:56:07</time>
      </trkpt>
      <trkpt lat="37.07558" lon="-3.37839">
        <ele>2863.8</ele>
        <time>2021-08-06 18:56:08</time>
      </trkpt>
      <trkpt lat="37.07559" lon="-3.3784">
        <ele>2863.6</ele>
        <time>2021-08-06 18:56:09</time>
      </trkpt>
      <trkpt lat="37.0756" lon="-3.3784">
        <ele>2863</ele>
        <time>2021-08-06 18:56:10</time>
      </trkpt>
      <trkpt lat="37.0756" lon="-3.3784">
        <ele>2862.8</ele>
        <time>2021-08-06 18:56:11</time>
      </trkpt>
      <trkpt lat="37.07561" lon="-3.3784">
        <ele>2862.8</ele>
        <time>2021-08-06 18:56:12</time>
      </trkpt>
      <trkpt lat="37.07561" lon="-3.37841">
        <ele>2862.6</ele>
        <time>2021-08-06 18:56:13</time>
      </trkpt>
      <trkpt lat="37.07562" lon="-3.37842">
        <ele>2862.2</ele>
        <time>2021-08-06 18:56:14</time>
      </trkpt>
      <trkpt lat="37.07562" lon="-3.37843">
        <ele>2862</ele>
        <time>2021-08-06 18:56:15</time>
      </trkpt>
      <trkpt lat="37.07562" lon="-3.37844">
        <ele>2861.8</ele>
        <time>2021-08-06 18:56:16</time>
      </trkpt>
      <trkpt lat="37.07562" lon="-3.37845">
        <ele>2861.8</ele>
        <time>2021-08-06 18:56:17</time>
      </trkpt>
      <trkpt lat="37.07563" lon="-3.37844">
        <ele>2861.6</ele>
        <time>2021-08-06 18:56:18</time>
      </trkpt>
      <trkpt lat="37.07563" lon="-3.37845">
        <ele>2861.4</ele>
        <time>2021-08-06 18:56:19</time>
      </trkpt>
      <trkpt lat="37.07564" lon="-3.37846">
        <ele>2861.4</ele>
        <time>2021-08-06 18:56:20</time>
      </trkpt>
      <trkpt lat="37.07565" lon="-3.37846">
        <ele>2861.4</ele>
        <time>2021-08-06 18:56:21</time>
      </trkpt>
      <trkpt lat="37.07566" lon="-3.37846">
        <ele>2861.4</ele>
        <time>2021-08-06 18:56:22</time>
      </trkpt>
      <trkpt lat="37.07566" lon="-3.37846">
        <ele>2861.2</ele>
        <time>2021-08-06 18:56:23</time>
      </trkpt>
      <trkpt lat="37.07567" lon="-3.37846">
        <ele>2861.2</ele>
        <time>2021-08-06 18:56:24</time>
      </trkpt>
      <trkpt lat="37.07568" lon="-3.37846">
        <ele>2861.2</ele>
        <time>2021-08-06 18:56:25</time>
      </trkpt>
      <trkpt lat="37.07568" lon="-3.37846">
        <ele>2861</ele>
        <time>2021-08-06 18:56:26</time>
      </trkpt>
      <trkpt lat="37.07569" lon="-3.37847">
        <ele>2861</ele>
        <time>2021-08-06 18:56:27</time>
      </trkpt>
      <trkpt lat="37.0757" lon="-3.37847">
        <ele>2861</ele>
        <time>2021-08-06 18:56:28</time>
      </trkpt>
      <trkpt lat="37.07571" lon="-3.37848">
        <ele>2860.6</ele>
        <time>2021-08-06 18:56:29</time>
      </trkpt>
      <trkpt lat="37.07572" lon="-3.37848">
        <ele>2860.2</ele>
        <time>2021-08-06 18:56:30</time>
      </trkpt>
      <trkpt lat="37.07572" lon="-3.37848">
        <ele>2860</ele>
        <time>2021-08-06 18:56:31</time>
      </trkpt>
      <trkpt lat="37.07573" lon="-3.37847">
        <ele>2859.8</ele>
        <time>2021-08-06 18:56:32</time>
      </trkpt>
      <trkpt lat="37.07574" lon="-3.37847">
        <ele>2859.6</ele>
        <time>2021-08-06 18:56:33</time>
      </trkpt>
      <trkpt lat="37.07574" lon="-3.37848">
        <ele>2859.4</ele>
        <time>2021-08-06 18:56:34</time>
      </trkpt>
      <trkpt lat="37.07575" lon="-3.37848">
        <ele>2859.4</ele>
        <time>2021-08-06 18:56:35</time>
      </trkpt>
      <trkpt lat="37.07576" lon="-3.37849">
        <ele>2859.4</ele>
        <time>2021-08-06 18:56:36</time>
      </trkpt>
      <trkpt lat="37.07576" lon="-3.37849">
        <ele>2859</ele>
        <time>2021-08-06 18:56:37</time>
      </trkpt>
      <trkpt lat="37.07577" lon="-3.37848">
        <ele>2858.8</ele>
        <time>2021-08-06 18:56:38</time>
      </trkpt>
      <trkpt lat="37.07578" lon="-3.37848">
        <ele>2858.8</ele>
        <time>2021-08-06 18:56:39</time>
      </trkpt>
      <trkpt lat="37.07578" lon="-3.37848">
        <ele>2858.8</ele>
        <time>2021-08-06 18:56:40</time>
      </trkpt>
      <trkpt lat="37.07578" lon="-3.37848">
        <ele>2858.8</ele>
        <time>2021-08-06 18:56:41</time>
      </trkpt>
      <trkpt lat="37.07579" lon="-3.37848">
        <ele>2858.6</ele>
        <time>2021-08-06 18:56:42</time>
      </trkpt>
      <trkpt lat="37.0758" lon="-3.37848">
        <ele>2858.2</ele>
        <time>2021-08-06 18:56:43</time>
      </trkpt>
      <trkpt lat="37.07581" lon="-3.37849">
        <ele>2858</ele>
        <time>2021-08-06 18:56:44</time>
      </trkpt>
      <trkpt lat="37.07581" lon="-3.37849">
        <ele>2857.8</ele>
        <time>2021-08-06 18:56:45</time>
      </trkpt>
      <trkpt lat="37.07582" lon="-3.3785">
        <ele>2857.8</ele>
        <time>2021-08-06 18:56:46</time>
      </trkpt>
      <trkpt lat="37.07582" lon="-3.3785">
        <ele>2857.8</ele>
        <time>2021-08-06 18:56:47</time>
      </trkpt>
      <trkpt lat="37.07583" lon="-3.37851">
        <ele>2857.6</ele>
        <time>2021-08-06 18:56:48</time>
      </trkpt>
      <trkpt lat="37.07584" lon="-3.37852">
        <ele>2857.4</ele>
        <time>2021-08-06 18:56:49</time>
      </trkpt>
      <trkpt lat="37.07584" lon="-3.37853">
        <ele>2857.2</ele>
        <time>2021-08-06 18:56:50</time>
      </trkpt>
      <trkpt lat="37.07585" lon="-3.37853">
        <ele>2857.2</ele>
        <time>2021-08-06 18:56:51</time>
      </trkpt>
      <trkpt lat="37.07586" lon="-3.37853">
        <ele>2857</ele>
        <time>2021-08-06 18:56:52</time>
      </trkpt>
      <trkpt lat="37.07586" lon="-3.37854">
        <ele>2857</ele>
        <time>2021-08-06 18:56:53</time>
      </trkpt>
      <trkpt lat="37.07587" lon="-3.37855">
        <ele>2857</ele>
        <time>2021-08-06 18:56:54</time>
      </trkpt>
      <trkpt lat="37.07588" lon="-3.37856">
        <ele>2856.8</ele>
        <time>2021-08-06 18:56:55</time>
      </trkpt>
      <trkpt lat="37.07588" lon="-3.37857">
        <ele>2856.8</ele>
        <time>2021-08-06 18:56:56</time>
      </trkpt>
      <trkpt lat="37.07588" lon="-3.37859">
        <ele>2856.6</ele>
        <time>2021-08-06 18:56:57</time>
      </trkpt>
      <trkpt lat="37.07589" lon="-3.3786">
        <ele>2856.4</ele>
        <time>2021-08-06 18:56:58</time>
      </trkpt>
      <trkpt lat="37.0759" lon="-3.37859">
        <ele>2856.4</ele>
        <time>2021-08-06 18:56:59</time>
      </trkpt>
      <trkpt lat="37.07591" lon="-3.37859">
        <ele>2856.2</ele>
        <time>2021-08-06 18:57:00</time>
      </trkpt>
      <trkpt lat="37.07592" lon="-3.37859">
        <ele>2856</ele>
        <time>2021-08-06 18:57:01</time>
      </trkpt>
      <trkpt lat="37.07593" lon="-3.37858">
        <ele>2855.8</ele>
        <time>2021-08-06 18:57:02</time>
      </trkpt>
      <trkpt lat="37.07594" lon="-3.37857">
        <ele>2855.6</ele>
        <time>2021-08-06 18:57:03</time>
      </trkpt>
      <trkpt lat="37.07595" lon="-3.37857">
        <ele>2855.4</ele>
        <time>2021-08-06 18:57:04</time>
      </trkpt>
      <trkpt lat="37.07595" lon="-3.37857">
        <ele>2855.2</ele>
        <time>2021-08-06 18:57:05</time>
      </trkpt>
      <trkpt lat="37.07596" lon="-3.37857">
        <ele>2854.8</ele>
        <time>2021-08-06 18:57:06</time>
      </trkpt>
      <trkpt lat="37.07596" lon="-3.37857">
        <ele>2854.6</ele>
        <time>2021-08-06 18:57:07</time>
      </trkpt>
      <trkpt lat="37.07597" lon="-3.37858">
        <ele>2854.2</ele>
        <time>2021-08-06 18:57:08</time>
      </trkpt>
      <trkpt lat="37.07598" lon="-3.37858">
        <ele>2854</ele>
        <time>2021-08-06 18:57:09</time>
      </trkpt>
      <trkpt lat="37.07598" lon="-3.37858">
        <ele>2854</ele>
        <time>2021-08-06 18:57:10</time>
      </trkpt>
      <trkpt lat="37.07599" lon="-3.37859">
        <ele>2854</ele>
        <time>2021-08-06 18:57:11</time>
      </trkpt>
      <trkpt lat="37.07599" lon="-3.37859">
        <ele>2853.8</ele>
        <time>2021-08-06 18:57:12</time>
      </trkpt>
      <trkpt lat="37.076" lon="-3.3786">
        <ele>2853.8</ele>
        <time>2021-08-06 18:57:13</time>
      </trkpt>
      <trkpt lat="37.07601" lon="-3.37861">
        <ele>2853.8</ele>
        <time>2021-08-06 18:57:14</time>
      </trkpt>
      <trkpt lat="37.07602" lon="-3.37862">
        <ele>2853.6</ele>
        <time>2021-08-06 18:57:15</time>
      </trkpt>
      <trkpt lat="37.07603" lon="-3.37862">
        <ele>2853.2</ele>
        <time>2021-08-06 18:57:16</time>
      </trkpt>
      <trkpt lat="37.07604" lon="-3.37863">
        <ele>2853</ele>
        <time>2021-08-06 18:57:17</time>
      </trkpt>
      <trkpt lat="37.07604" lon="-3.37864">
        <ele>2853</ele>
        <time>2021-08-06 18:57:18</time>
      </trkpt>
      <trkpt lat="37.07605" lon="-3.37865">
        <ele>2852.8</ele>
        <time>2021-08-06 18:57:19</time>
      </trkpt>
      <trkpt lat="37.07606" lon="-3.37867">
        <ele>2852.8</ele>
        <time>2021-08-06 18:57:20</time>
      </trkpt>
      <trkpt lat="37.07607" lon="-3.37867">
        <ele>2852.6</ele>
        <time>2021-08-06 18:57:21</time>
      </trkpt>
      <trkpt lat="37.07608" lon="-3.37868">
        <ele>2852.6</ele>
        <time>2021-08-06 18:57:22</time>
      </trkpt>
      <trkpt lat="37.07609" lon="-3.37868">
        <ele>2852.4</ele>
        <time>2021-08-06 18:57:23</time>
      </trkpt>
      <trkpt lat="37.0761" lon="-3.37869">
        <ele>2852.2</ele>
        <time>2021-08-06 18:57:24</time>
      </trkpt>
      <trkpt lat="37.0761" lon="-3.37872">
        <ele>2851.8</ele>
        <time>2021-08-06 18:57:25</time>
      </trkpt>
      <trkpt lat="37.0761" lon="-3.37873">
        <ele>2851.8</ele>
        <time>2021-08-06 18:57:26</time>
      </trkpt>
      <trkpt lat="37.07611" lon="-3.37874">
        <ele>2851.6</ele>
        <time>2021-08-06 18:57:27</time>
      </trkpt>
      <trkpt lat="37.07612" lon="-3.37873">
        <ele>2851.6</ele>
        <time>2021-08-06 18:57:28</time>
      </trkpt>
      <trkpt lat="37.07612" lon="-3.37874">
        <ele>2851.4</ele>
        <time>2021-08-06 18:57:29</time>
      </trkpt>
      <trkpt lat="37.07613" lon="-3.37875">
        <ele>2851.2</ele>
        <time>2021-08-06 18:57:30</time>
      </trkpt>
      <trkpt lat="37.07614" lon="-3.37875">
        <ele>2850.8</ele>
        <time>2021-08-06 18:57:31</time>
      </trkpt>
      <trkpt lat="37.07614" lon="-3.37875">
        <ele>2850.6</ele>
        <time>2021-08-06 18:57:32</time>
      </trkpt>
      <trkpt lat="37.07615" lon="-3.37875">
        <ele>2850.2</ele>
        <time>2021-08-06 18:57:33</time>
      </trkpt>
      <trkpt lat="37.07615" lon="-3.37875">
        <ele>2849.8</ele>
        <time>2021-08-06 18:57:34</time>
      </trkpt>
      <trkpt lat="37.07616" lon="-3.37874">
        <ele>2849.8</ele>
        <time>2021-08-06 18:57:35</time>
      </trkpt>
      <trkpt lat="37.07618" lon="-3.37873">
        <ele>2849.8</ele>
        <time>2021-08-06 18:57:36</time>
      </trkpt>
      <trkpt lat="37.07619" lon="-3.37873">
        <ele>2849.8</ele>
        <time>2021-08-06 18:57:37</time>
      </trkpt>
      <trkpt lat="37.07619" lon="-3.37873">
        <ele>2849.8</ele>
        <time>2021-08-06 18:57:38</time>
      </trkpt>
      <trkpt lat="37.0762" lon="-3.37873">
        <ele>2849.8</ele>
        <time>2021-08-06 18:57:39</time>
      </trkpt>
      <trkpt lat="37.07621" lon="-3.37873">
        <ele>2850</ele>
        <time>2021-08-06 18:57:40</time>
      </trkpt>
      <trkpt lat="37.07621" lon="-3.37873">
        <ele>2850</ele>
        <time>2021-08-06 18:57:41</time>
      </trkpt>
      <trkpt lat="37.07622" lon="-3.37873">
        <ele>2849.6</ele>
        <time>2021-08-06 18:57:42</time>
      </trkpt>
      <trkpt lat="37.07624" lon="-3.37872">
        <ele>2849.4</ele>
        <time>2021-08-06 18:57:43</time>
      </trkpt>
      <trkpt lat="37.07624" lon="-3.37872">
        <ele>2849.4</ele>
        <time>2021-08-06 18:57:44</time>
      </trkpt>
      <trkpt lat="37.07625" lon="-3.37872">
        <ele>2849.2</ele>
        <time>2021-08-06 18:57:45</time>
      </trkpt>
      <trkpt lat="37.07624" lon="-3.37871">
        <ele>2849</ele>
        <time>2021-08-06 18:57:46</time>
      </trkpt>
      <trkpt lat="37.07624" lon="-3.37871">
        <ele>2849</ele>
        <time>2021-08-06 18:57:47</time>
      </trkpt>
      <trkpt lat="37.07624" lon="-3.37871">
        <ele>2848.8</ele>
        <time>2021-08-06 18:57:48</time>
      </trkpt>
      <trkpt lat="37.07623" lon="-3.37871">
        <ele>2848.8</ele>
        <time>2021-08-06 18:57:49</time>
      </trkpt>
      <trkpt lat="37.07625" lon="-3.37873">
        <ele>2848.8</ele>
        <time>2021-08-06 18:57:50</time>
      </trkpt>
      <trkpt lat="37.07626" lon="-3.37874">
        <ele>2848.8</ele>
        <time>2021-08-06 18:57:51</time>
      </trkpt>
      <trkpt lat="37.07626" lon="-3.37876">
        <ele>2848.6</ele>
        <time>2021-08-06 18:57:52</time>
      </trkpt>
      <trkpt lat="37.07627" lon="-3.37877">
        <ele>2848.6</ele>
        <time>2021-08-06 18:57:53</time>
      </trkpt>
      <trkpt lat="37.07628" lon="-3.37878">
        <ele>2848.6</ele>
        <time>2021-08-06 18:57:54</time>
      </trkpt>
      <trkpt lat="37.07629" lon="-3.37878">
        <ele>2847.8</ele>
        <time>2021-08-06 18:57:55</time>
      </trkpt>
      <trkpt lat="37.0763" lon="-3.37878">
        <ele>2847.2</ele>
        <time>2021-08-06 18:57:56</time>
      </trkpt>
      <trkpt lat="37.07631" lon="-3.37879">
        <ele>2847</ele>
        <time>2021-08-06 18:57:57</time>
      </trkpt>
      <trkpt lat="37.07632" lon="-3.37879">
        <ele>2846.8</ele>
        <time>2021-08-06 18:57:58</time>
      </trkpt>
      <trkpt lat="37.07633" lon="-3.37879">
        <ele>2846.8</ele>
        <time>2021-08-06 18:57:59</time>
      </trkpt>
      <trkpt lat="37.07634" lon="-3.3788">
        <ele>2846.8</ele>
        <time>2021-08-06 18:58:00</time>
      </trkpt>
      <trkpt lat="37.07635" lon="-3.37882">
        <ele>2846.6</ele>
        <time>2021-08-06 18:58:01</time>
      </trkpt>
      <trkpt lat="37.07635" lon="-3.37882">
        <ele>2846.8</ele>
        <time>2021-08-06 18:58:02</time>
      </trkpt>
      <trkpt lat="37.07636" lon="-3.37883">
        <ele>2846.8</ele>
        <time>2021-08-06 18:58:03</time>
      </trkpt>
      <trkpt lat="37.07636" lon="-3.37884">
        <ele>2846.6</ele>
        <time>2021-08-06 18:58:04</time>
      </trkpt>
      <trkpt lat="37.07638" lon="-3.37882">
        <ele>2846.6</ele>
        <time>2021-08-06 18:58:05</time>
      </trkpt>
      <trkpt lat="37.07639" lon="-3.37882">
        <ele>2846.6</ele>
        <time>2021-08-06 18:58:06</time>
      </trkpt>
      <trkpt lat="37.0764" lon="-3.37883">
        <ele>2846.4</ele>
        <time>2021-08-06 18:58:07</time>
      </trkpt>
      <trkpt lat="37.07642" lon="-3.37882">
        <ele>2846.2</ele>
        <time>2021-08-06 18:58:08</time>
      </trkpt>
      <trkpt lat="37.07643" lon="-3.37882">
        <ele>2846</ele>
        <time>2021-08-06 18:58:09</time>
      </trkpt>
      <trkpt lat="37.07643" lon="-3.37882">
        <ele>2846</ele>
        <time>2021-08-06 18:58:10</time>
      </trkpt>
      <trkpt lat="37.07643" lon="-3.37884">
        <ele>2846</ele>
        <time>2021-08-06 18:58:11</time>
      </trkpt>
      <trkpt lat="37.07644" lon="-3.37884">
        <ele>2846</ele>
        <time>2021-08-06 18:58:12</time>
      </trkpt>
      <trkpt lat="37.07644" lon="-3.37885">
        <ele>2846</ele>
        <time>2021-08-06 18:58:13</time>
      </trkpt>
      <trkpt lat="37.07645" lon="-3.37885">
        <ele>2845.8</ele>
        <time>2021-08-06 18:58:14</time>
      </trkpt>
      <trkpt lat="37.07646" lon="-3.37885">
        <ele>2845.8</ele>
        <time>2021-08-06 18:58:15</time>
      </trkpt>
      <trkpt lat="37.07647" lon="-3.37885">
        <ele>2845.6</ele>
        <time>2021-08-06 18:58:16</time>
      </trkpt>
      <trkpt lat="37.07648" lon="-3.37885">
        <ele>2845.6</ele>
        <time>2021-08-06 18:58:17</time>
      </trkpt>
      <trkpt lat="37.07649" lon="-3.37885">
        <ele>2845.4</ele>
        <time>2021-08-06 18:58:18</time>
      </trkpt>
      <trkpt lat="37.0765" lon="-3.37885">
        <ele>2845.4</ele>
        <time>2021-08-06 18:58:19</time>
      </trkpt>
      <trkpt lat="37.07651" lon="-3.37885">
        <ele>2845.2</ele>
        <time>2021-08-06 18:58:20</time>
      </trkpt>
      <trkpt lat="37.07653" lon="-3.37886">
        <ele>2845.2</ele>
        <time>2021-08-06 18:58:21</time>
      </trkpt>
      <trkpt lat="37.07653" lon="-3.37886">
        <ele>2845.2</ele>
        <time>2021-08-06 18:58:22</time>
      </trkpt>
      <trkpt lat="37.07654" lon="-3.37887">
        <ele>2845</ele>
        <time>2021-08-06 18:58:23</time>
      </trkpt>
      <trkpt lat="37.07655" lon="-3.37886">
        <ele>2845</ele>
        <time>2021-08-06 18:58:24</time>
      </trkpt>
      <trkpt lat="37.07656" lon="-3.37886">
        <ele>2844.8</ele>
        <time>2021-08-06 18:58:25</time>
      </trkpt>
      <trkpt lat="37.07656" lon="-3.37887">
        <ele>2844.8</ele>
        <time>2021-08-06 18:58:26</time>
      </trkpt>
      <trkpt lat="37.07657" lon="-3.37887">
        <ele>2844.8</ele>
        <time>2021-08-06 18:58:27</time>
      </trkpt>
      <trkpt lat="37.07657" lon="-3.37888">
        <ele>2844.8</ele>
        <time>2021-08-06 18:58:28</time>
      </trkpt>
      <trkpt lat="37.07658" lon="-3.37888">
        <ele>2844.4</ele>
        <time>2021-08-06 18:58:29</time>
      </trkpt>
      <trkpt lat="37.07658" lon="-3.37888">
        <ele>2844.4</ele>
        <time>2021-08-06 18:58:30</time>
      </trkpt>
      <trkpt lat="37.07659" lon="-3.37888">
        <ele>2844.2</ele>
        <time>2021-08-06 18:58:31</time>
      </trkpt>
      <trkpt lat="37.0766" lon="-3.37889">
        <ele>2844</ele>
        <time>2021-08-06 18:58:32</time>
      </trkpt>
      <trkpt lat="37.0766" lon="-3.37889">
        <ele>2844.2</ele>
        <time>2021-08-06 18:58:33</time>
      </trkpt>
      <trkpt lat="37.07662" lon="-3.3789">
        <ele>2844</ele>
        <time>2021-08-06 18:58:34</time>
      </trkpt>
      <trkpt lat="37.07663" lon="-3.3789">
        <ele>2844</ele>
        <time>2021-08-06 18:58:35</time>
      </trkpt>
      <trkpt lat="37.07663" lon="-3.3789">
        <ele>2844</ele>
        <time>2021-08-06 18:58:36</time>
      </trkpt>
      <trkpt lat="37.07664" lon="-3.37891">
        <ele>2844</ele>
        <time>2021-08-06 18:58:37</time>
      </trkpt>
      <trkpt lat="37.07665" lon="-3.37891">
        <ele>2844</ele>
        <time>2021-08-06 18:58:38</time>
      </trkpt>
      <trkpt lat="37.07666" lon="-3.37891">
        <ele>2844</ele>
        <time>2021-08-06 18:58:39</time>
      </trkpt>
      <trkpt lat="37.07666" lon="-3.37891">
        <ele>2844</ele>
        <time>2021-08-06 18:58:40</time>
      </trkpt>
      <trkpt lat="37.07667" lon="-3.37892">
        <ele>2844</ele>
        <time>2021-08-06 18:58:41</time>
      </trkpt>
      <trkpt lat="37.07668" lon="-3.37892">
        <ele>2844.2</ele>
        <time>2021-08-06 18:58:42</time>
      </trkpt>
      <trkpt lat="37.07668" lon="-3.37893">
        <ele>2844.2</ele>
        <time>2021-08-06 18:58:43</time>
      </trkpt>
      <trkpt lat="37.07668" lon="-3.37893">
        <ele>2844.4</ele>
        <time>2021-08-06 18:58:44</time>
      </trkpt>
      <trkpt lat="37.07669" lon="-3.37894">
        <ele>2844.6</ele>
        <time>2021-08-06 18:58:45</time>
      </trkpt>
      <trkpt lat="37.0767" lon="-3.37893">
        <ele>2844.4</ele>
        <time>2021-08-06 18:58:46</time>
      </trkpt>
      <trkpt lat="37.07671" lon="-3.37893">
        <ele>2844.4</ele>
        <time>2021-08-06 18:58:47</time>
      </trkpt>
      <trkpt lat="37.07671" lon="-3.37894">
        <ele>2844.4</ele>
        <time>2021-08-06 18:58:48</time>
      </trkpt>
      <trkpt lat="37.07672" lon="-3.37894">
        <ele>2844.2</ele>
        <time>2021-08-06 18:58:49</time>
      </trkpt>
      <trkpt lat="37.07672" lon="-3.37895">
        <ele>2844</ele>
        <time>2021-08-06 18:58:50</time>
      </trkpt>
      <trkpt lat="37.07673" lon="-3.37895">
        <ele>2843.6</ele>
        <time>2021-08-06 18:58:51</time>
      </trkpt>
      <trkpt lat="37.07673" lon="-3.37895">
        <ele>2843.4</ele>
        <time>2021-08-06 18:58:52</time>
      </trkpt>
      <trkpt lat="37.07674" lon="-3.37896">
        <ele>2843.2</ele>
        <time>2021-08-06 18:58:53</time>
      </trkpt>
      <trkpt lat="37.07674" lon="-3.37896">
        <ele>2843.2</ele>
        <time>2021-08-06 18:58:54</time>
      </trkpt>
      <trkpt lat="37.07675" lon="-3.37897">
        <ele>2842.8</ele>
        <time>2021-08-06 18:58:55</time>
      </trkpt>
      <trkpt lat="37.07675" lon="-3.37898">
        <ele>2842.4</ele>
        <time>2021-08-06 18:58:56</time>
      </trkpt>
      <trkpt lat="37.07675" lon="-3.37898">
        <ele>2842.2</ele>
        <time>2021-08-06 18:58:57</time>
      </trkpt>
      <trkpt lat="37.07675" lon="-3.37898">
        <ele>2841.8</ele>
        <time>2021-08-06 18:58:58</time>
      </trkpt>
      <trkpt lat="37.07676" lon="-3.37898">
        <ele>2841.6</ele>
        <time>2021-08-06 18:58:59</time>
      </trkpt>
      <trkpt lat="37.07677" lon="-3.37899">
        <ele>2841.6</ele>
        <time>2021-08-06 18:59:00</time>
      </trkpt>
      <trkpt lat="37.07677" lon="-3.37899">
        <ele>2841.2</ele>
        <time>2021-08-06 18:59:01</time>
      </trkpt>
      <trkpt lat="37.07678" lon="-3.37899">
        <ele>2841</ele>
        <time>2021-08-06 18:59:02</time>
      </trkpt>
      <trkpt lat="37.07678" lon="-3.379">
        <ele>2840.6</ele>
        <time>2021-08-06 18:59:03</time>
      </trkpt>
      <trkpt lat="37.07679" lon="-3.37899">
        <ele>2840.6</ele>
        <time>2021-08-06 18:59:04</time>
      </trkpt>
      <trkpt lat="37.0768" lon="-3.37899">
        <ele>2840.4</ele>
        <time>2021-08-06 18:59:05</time>
      </trkpt>
      <trkpt lat="37.0768" lon="-3.37899">
        <ele>2840.4</ele>
        <time>2021-08-06 18:59:06</time>
      </trkpt>
      <trkpt lat="37.07681" lon="-3.379">
        <ele>2840.4</ele>
        <time>2021-08-06 18:59:07</time>
      </trkpt>
      <trkpt lat="37.07682" lon="-3.379">
        <ele>2840.2</ele>
        <time>2021-08-06 18:59:08</time>
      </trkpt>
      <trkpt lat="37.07683" lon="-3.379">
        <ele>2839.8</ele>
        <time>2021-08-06 18:59:09</time>
      </trkpt>
      <trkpt lat="37.07684" lon="-3.37899">
        <ele>2839.6</ele>
        <time>2021-08-06 18:59:10</time>
      </trkpt>
      <trkpt lat="37.07685" lon="-3.37899">
        <ele>2839.6</ele>
        <time>2021-08-06 18:59:11</time>
      </trkpt>
      <trkpt lat="37.07686" lon="-3.37899">
        <ele>2839.4</ele>
        <time>2021-08-06 18:59:12</time>
      </trkpt>
      <trkpt lat="37.07686" lon="-3.37899">
        <ele>2839.6</ele>
        <time>2021-08-06 18:59:13</time>
      </trkpt>
      <trkpt lat="37.07687" lon="-3.379">
        <ele>2839.6</ele>
        <time>2021-08-06 18:59:14</time>
      </trkpt>
      <trkpt lat="37.07688" lon="-3.379">
        <ele>2839.4</ele>
        <time>2021-08-06 18:59:15</time>
      </trkpt>
      <trkpt lat="37.07688" lon="-3.379">
        <ele>2839.4</ele>
        <time>2021-08-06 18:59:16</time>
      </trkpt>
      <trkpt lat="37.07689" lon="-3.379">
        <ele>2839.6</ele>
        <time>2021-08-06 18:59:17</time>
      </trkpt>
      <trkpt lat="37.0769" lon="-3.37901">
        <ele>2839.4</ele>
        <time>2021-08-06 18:59:18</time>
      </trkpt>
      <trkpt lat="37.07691" lon="-3.37901">
        <ele>2839.4</ele>
        <time>2021-08-06 18:59:19</time>
      </trkpt>
      <trkpt lat="37.07692" lon="-3.37901">
        <ele>2839.2</ele>
        <time>2021-08-06 18:59:20</time>
      </trkpt>
      <trkpt lat="37.07694" lon="-3.37902">
        <ele>2839.2</ele>
        <time>2021-08-06 18:59:21</time>
      </trkpt>
      <trkpt lat="37.07695" lon="-3.37903">
        <ele>2839</ele>
        <time>2021-08-06 18:59:22</time>
      </trkpt>
      <trkpt lat="37.07696" lon="-3.37903">
        <ele>2839</ele>
        <time>2021-08-06 18:59:23</time>
      </trkpt>
      <trkpt lat="37.07697" lon="-3.37904">
        <ele>2838.8</ele>
        <time>2021-08-06 18:59:24</time>
      </trkpt>
      <trkpt lat="37.07698" lon="-3.37905">
        <ele>2838.6</ele>
        <time>2021-08-06 18:59:25</time>
      </trkpt>
      <trkpt lat="37.07698" lon="-3.37905">
        <ele>2838.4</ele>
        <time>2021-08-06 18:59:26</time>
      </trkpt>
      <trkpt lat="37.07699" lon="-3.37905">
        <ele>2838</ele>
        <time>2021-08-06 18:59:27</time>
      </trkpt>
      <trkpt lat="37.07699" lon="-3.37905">
        <ele>2837.6</ele>
        <time>2021-08-06 18:59:28</time>
      </trkpt>
      <trkpt lat="37.07699" lon="-3.37905">
        <ele>2837.4</ele>
        <time>2021-08-06 18:59:29</time>
      </trkpt>
      <trkpt lat="37.077" lon="-3.37906">
        <ele>2837.2</ele>
        <time>2021-08-06 18:59:30</time>
      </trkpt>
      <trkpt lat="37.077" lon="-3.37906">
        <ele>2837.4</ele>
        <time>2021-08-06 18:59:31</time>
      </trkpt>
      <trkpt lat="37.07701" lon="-3.37907">
        <ele>2837.4</ele>
        <time>2021-08-06 18:59:32</time>
      </trkpt>
      <trkpt lat="37.07701" lon="-3.37907">
        <ele>2837.2</ele>
        <time>2021-08-06 18:59:33</time>
      </trkpt>
      <trkpt lat="37.07702" lon="-3.37908">
        <ele>2837.2</ele>
        <time>2021-08-06 18:59:34</time>
      </trkpt>
      <trkpt lat="37.07702" lon="-3.37908">
        <ele>2837</ele>
        <time>2021-08-06 18:59:35</time>
      </trkpt>
      <trkpt lat="37.07703" lon="-3.37909">
        <ele>2836.8</ele>
        <time>2021-08-06 18:59:36</time>
      </trkpt>
      <trkpt lat="37.07703" lon="-3.3791">
        <ele>2836.6</ele>
        <time>2021-08-06 18:59:37</time>
      </trkpt>
      <trkpt lat="37.07704" lon="-3.3791">
        <ele>2836.6</ele>
        <time>2021-08-06 18:59:38</time>
      </trkpt>
      <trkpt lat="37.07704" lon="-3.37911">
        <ele>2836.6</ele>
        <time>2021-08-06 18:59:39</time>
      </trkpt>
      <trkpt lat="37.07705" lon="-3.37911">
        <ele>2836.4</ele>
        <time>2021-08-06 18:59:40</time>
      </trkpt>
      <trkpt lat="37.07706" lon="-3.37911">
        <ele>2836.4</ele>
        <time>2021-08-06 18:59:41</time>
      </trkpt>
      <trkpt lat="37.07707" lon="-3.37912">
        <ele>2836.4</ele>
        <time>2021-08-06 18:59:42</time>
      </trkpt>
      <trkpt lat="37.07707" lon="-3.37911">
        <ele>2836.4</ele>
        <time>2021-08-06 18:59:43</time>
      </trkpt>
      <trkpt lat="37.07707" lon="-3.3791">
        <ele>2836.4</ele>
        <time>2021-08-06 18:59:44</time>
      </trkpt>
      <trkpt lat="37.07707" lon="-3.37911">
        <ele>2836.2</ele>
        <time>2021-08-06 18:59:45</time>
      </trkpt>
      <trkpt lat="37.07708" lon="-3.37911">
        <ele>2836.2</ele>
        <time>2021-08-06 18:59:46</time>
      </trkpt>
      <trkpt lat="37.07708" lon="-3.3791">
        <ele>2835.6</ele>
        <time>2021-08-06 18:59:47</time>
      </trkpt>
      <trkpt lat="37.07709" lon="-3.3791">
        <ele>2835.4</ele>
        <time>2021-08-06 18:59:48</time>
      </trkpt>
      <trkpt lat="37.07709" lon="-3.37909">
        <ele>2835.2</ele>
        <time>2021-08-06 18:59:49</time>
      </trkpt>
      <trkpt lat="37.07709" lon="-3.37908">
        <ele>2835</ele>
        <time>2021-08-06 18:59:50</time>
      </trkpt>
      <trkpt lat="37.0771" lon="-3.37908">
        <ele>2835</ele>
        <time>2021-08-06 18:59:51</time>
      </trkpt>
      <trkpt lat="37.0771" lon="-3.37909">
        <ele>2834.8</ele>
        <time>2021-08-06 18:59:52</time>
      </trkpt>
      <trkpt lat="37.07711" lon="-3.37909">
        <ele>2834.8</ele>
        <time>2021-08-06 18:59:53</time>
      </trkpt>
      <trkpt lat="37.07712" lon="-3.37909">
        <ele>2835</ele>
        <time>2021-08-06 18:59:54</time>
      </trkpt>
      <trkpt lat="37.07713" lon="-3.37909">
        <ele>2835</ele>
        <time>2021-08-06 18:59:55</time>
      </trkpt>
      <trkpt lat="37.07714" lon="-3.37909">
        <ele>2835</ele>
        <time>2021-08-06 18:59:56</time>
      </trkpt>
      <trkpt lat="37.07714" lon="-3.37909">
        <ele>2834.8</ele>
        <time>2021-08-06 18:59:57</time>
      </trkpt>
      <trkpt lat="37.07715" lon="-3.3791">
        <ele>2834.8</ele>
        <time>2021-08-06 18:59:58</time>
      </trkpt>
      <trkpt lat="37.07716" lon="-3.3791">
        <ele>2834.8</ele>
        <time>2021-08-06 18:59:59</time>
      </trkpt>
      <trkpt lat="37.07717" lon="-3.37911">
        <ele>2834.4</ele>
        <time>2021-08-06 19:00:00</time>
      </trkpt>
      <trkpt lat="37.07717" lon="-3.37912">
        <ele>2834.2</ele>
        <time>2021-08-06 19:00:01</time>
      </trkpt>
      <trkpt lat="37.07719" lon="-3.37912">
        <ele>2834</ele>
        <time>2021-08-06 19:00:02</time>
      </trkpt>
      <trkpt lat="37.07719" lon="-3.37913">
        <ele>2834</ele>
        <time>2021-08-06 19:00:03</time>
      </trkpt>
      <trkpt lat="37.07719" lon="-3.37913">
        <ele>2834</ele>
        <time>2021-08-06 19:00:04</time>
      </trkpt>
      <trkpt lat="37.0772" lon="-3.37913">
        <ele>2833.8</ele>
        <time>2021-08-06 19:00:05</time>
      </trkpt>
      <trkpt lat="37.0772" lon="-3.37913">
        <ele>2833.8</ele>
        <time>2021-08-06 19:00:06</time>
      </trkpt>
      <trkpt lat="37.0772" lon="-3.37912">
        <ele>2833.6</ele>
        <time>2021-08-06 19:00:07</time>
      </trkpt>
      <trkpt lat="37.0772" lon="-3.37912">
        <ele>2833.4</ele>
        <time>2021-08-06 19:00:08</time>
      </trkpt>
      <trkpt lat="37.0772" lon="-3.37912">
        <ele>2833</ele>
        <time>2021-08-06 19:00:09</time>
      </trkpt>
      <trkpt lat="37.0772" lon="-3.37913">
        <ele>2832.6</ele>
        <time>2021-08-06 19:00:10</time>
      </trkpt>
      <trkpt lat="37.0772" lon="-3.37913">
        <ele>2832.6</ele>
        <time>2021-08-06 19:00:11</time>
      </trkpt>
      <trkpt lat="37.0772" lon="-3.37913">
        <ele>2832.4</ele>
        <time>2021-08-06 19:00:12</time>
      </trkpt>
      <trkpt lat="37.0772" lon="-3.37912">
        <ele>2832.6</ele>
        <time>2021-08-06 19:00:13</time>
      </trkpt>
      <trkpt lat="37.0772" lon="-3.37913">
        <ele>2833</ele>
        <time>2021-08-06 19:00:14</time>
      </trkpt>
      <trkpt lat="37.0772" lon="-3.37913">
        <ele>2833</ele>
        <time>2021-08-06 19:00:15</time>
      </trkpt>
      <trkpt lat="37.07721" lon="-3.37914">
        <ele>2833.2</ele>
        <time>2021-08-06 19:00:16</time>
      </trkpt>
      <trkpt lat="37.07722" lon="-3.37915">
        <ele>2833.2</ele>
        <time>2021-08-06 19:00:17</time>
      </trkpt>
      <trkpt lat="37.07723" lon="-3.37915">
        <ele>2833.2</ele>
        <time>2021-08-06 19:00:18</time>
      </trkpt>
      <trkpt lat="37.07725" lon="-3.37915">
        <ele>2833.2</ele>
        <time>2021-08-06 19:00:19</time>
      </trkpt>
      <trkpt lat="37.07726" lon="-3.37917">
        <ele>2833.4</ele>
        <time>2021-08-06 19:00:20</time>
      </trkpt>
      <trkpt lat="37.07727" lon="-3.37917">
        <ele>2833.4</ele>
        <time>2021-08-06 19:00:21</time>
      </trkpt>
      <trkpt lat="37.07729" lon="-3.37916">
        <ele>2833.4</ele>
        <time>2021-08-06 19:00:22</time>
      </trkpt>
      <trkpt lat="37.0773" lon="-3.37916">
        <ele>2833.4</ele>
        <time>2021-08-06 19:00:23</time>
      </trkpt>
      <trkpt lat="37.07731" lon="-3.37916">
        <ele>2832.8</ele>
        <time>2021-08-06 19:00:24</time>
      </trkpt>
      <trkpt lat="37.07732" lon="-3.37917">
        <ele>2832.4</ele>
        <time>2021-08-06 19:00:25</time>
      </trkpt>
      <trkpt lat="37.07733" lon="-3.37917">
        <ele>2832.2</ele>
        <time>2021-08-06 19:00:26</time>
      </trkpt>
      <trkpt lat="37.07734" lon="-3.37918">
        <ele>2832</ele>
        <time>2021-08-06 19:00:27</time>
      </trkpt>
      <trkpt lat="37.07735" lon="-3.37919">
        <ele>2832.4</ele>
        <time>2021-08-06 19:00:28</time>
      </trkpt>
      <trkpt lat="37.07736" lon="-3.37919">
        <ele>2832.4</ele>
        <time>2021-08-06 19:00:29</time>
      </trkpt>
      <trkpt lat="37.07737" lon="-3.37919">
        <ele>2832.6</ele>
        <time>2021-08-06 19:00:30</time>
      </trkpt>
      <trkpt lat="37.07738" lon="-3.37919">
        <ele>2832.6</ele>
        <time>2021-08-06 19:00:31</time>
      </trkpt>
      <trkpt lat="37.07739" lon="-3.3792">
        <ele>2832.6</ele>
        <time>2021-08-06 19:00:32</time>
      </trkpt>
      <trkpt lat="37.0774" lon="-3.3792">
        <ele>2832.6</ele>
        <time>2021-08-06 19:00:33</time>
      </trkpt>
      <trkpt lat="37.0774" lon="-3.37922">
        <ele>2832.4</ele>
        <time>2021-08-06 19:00:34</time>
      </trkpt>
      <trkpt lat="37.07741" lon="-3.37923">
        <ele>2832.2</ele>
        <time>2021-08-06 19:00:35</time>
      </trkpt>
      <trkpt lat="37.07742" lon="-3.37923">
        <ele>2831.8</ele>
        <time>2021-08-06 19:00:36</time>
      </trkpt>
      <trkpt lat="37.07743" lon="-3.37923">
        <ele>2831.4</ele>
        <time>2021-08-06 19:00:37</time>
      </trkpt>
      <trkpt lat="37.07744" lon="-3.37923">
        <ele>2831.2</ele>
        <time>2021-08-06 19:00:38</time>
      </trkpt>
      <trkpt lat="37.07745" lon="-3.37924">
        <ele>2831.2</ele>
        <time>2021-08-06 19:00:39</time>
      </trkpt>
      <trkpt lat="37.07746" lon="-3.37923">
        <ele>2830.6</ele>
        <time>2021-08-06 19:00:40</time>
      </trkpt>
      <trkpt lat="37.07747" lon="-3.37923">
        <ele>2830.4</ele>
        <time>2021-08-06 19:00:41</time>
      </trkpt>
      <trkpt lat="37.07749" lon="-3.37923">
        <ele>2830.2</ele>
        <time>2021-08-06 19:00:42</time>
      </trkpt>
      <trkpt lat="37.0775" lon="-3.37923">
        <ele>2830.2</ele>
        <time>2021-08-06 19:00:43</time>
      </trkpt>
      <trkpt lat="37.07751" lon="-3.37923">
        <ele>2830.6</ele>
        <time>2021-08-06 19:00:44</time>
      </trkpt>
      <trkpt lat="37.07753" lon="-3.37923">
        <ele>2830.8</ele>
        <time>2021-08-06 19:00:45</time>
      </trkpt>
      <trkpt lat="37.07754" lon="-3.37924">
        <ele>2831</ele>
        <time>2021-08-06 19:00:46</time>
      </trkpt>
      <trkpt lat="37.07755" lon="-3.37924">
        <ele>2831</ele>
        <time>2021-08-06 19:00:47</time>
      </trkpt>
      <trkpt lat="37.07756" lon="-3.37924">
        <ele>2831</ele>
        <time>2021-08-06 19:00:48</time>
      </trkpt>
      <trkpt lat="37.07757" lon="-3.37924">
        <ele>2831</ele>
        <time>2021-08-06 19:00:49</time>
      </trkpt>
      <trkpt lat="37.07759" lon="-3.37924">
        <ele>2830.8</ele>
        <time>2021-08-06 19:00:50</time>
      </trkpt>
      <trkpt lat="37.0776" lon="-3.37924">
        <ele>2830.6</ele>
        <time>2021-08-06 19:00:51</time>
      </trkpt>
      <trkpt lat="37.07759" lon="-3.37924">
        <ele>2830.4</ele>
        <time>2021-08-06 19:00:52</time>
      </trkpt>
      <trkpt lat="37.07759" lon="-3.37924">
        <ele>2830.4</ele>
        <time>2021-08-06 19:00:53</time>
      </trkpt>
      <trkpt lat="37.0776" lon="-3.37924">
        <ele>2830.4</ele>
        <time>2021-08-06 19:00:54</time>
      </trkpt>
      <trkpt lat="37.07761" lon="-3.37924">
        <ele>2830.2</ele>
        <time>2021-08-06 19:00:55</time>
      </trkpt>
      <trkpt lat="37.07761" lon="-3.37925">
        <ele>2830.2</ele>
        <time>2021-08-06 19:00:56</time>
      </trkpt>
      <trkpt lat="37.07762" lon="-3.37925">
        <ele>2830.2</ele>
        <time>2021-08-06 19:00:57</time>
      </trkpt>
      <trkpt lat="37.07763" lon="-3.37925">
        <ele>2830.2</ele>
        <time>2021-08-06 19:00:58</time>
      </trkpt>
      <trkpt lat="37.07763" lon="-3.37925">
        <ele>2830.2</ele>
        <time>2021-08-06 19:00:59</time>
      </trkpt>
      <trkpt lat="37.07764" lon="-3.37925">
        <ele>2830</ele>
        <time>2021-08-06 19:01:00</time>
      </trkpt>
      <trkpt lat="37.07764" lon="-3.37925">
        <ele>2829.8</ele>
        <time>2021-08-06 19:01:01</time>
      </trkpt>
      <trkpt lat="37.07765" lon="-3.37925">
        <ele>2829.6</ele>
        <time>2021-08-06 19:01:02</time>
      </trkpt>
      <trkpt lat="37.07765" lon="-3.37925">
        <ele>2829.4</ele>
        <time>2021-08-06 19:01:03</time>
      </trkpt>
      <trkpt lat="37.07765" lon="-3.37925">
        <ele>2829.4</ele>
        <time>2021-08-06 19:01:04</time>
      </trkpt>
      <trkpt lat="37.07766" lon="-3.37925">
        <ele>2829.4</ele>
        <time>2021-08-06 19:01:05</time>
      </trkpt>
      <trkpt lat="37.07766" lon="-3.37925">
        <ele>2829.4</ele>
        <time>2021-08-06 19:01:06</time>
      </trkpt>
      <trkpt lat="37.07767" lon="-3.37925">
        <ele>2829.4</ele>
        <time>2021-08-06 19:01:07</time>
      </trkpt>
      <trkpt lat="37.07768" lon="-3.37926">
        <ele>2829.4</ele>
        <time>2021-08-06 19:01:08</time>
      </trkpt>
      <trkpt lat="37.07769" lon="-3.37926">
        <ele>2829.2</ele>
        <time>2021-08-06 19:01:09</time>
      </trkpt>
      <trkpt lat="37.0777" lon="-3.37926">
        <ele>2829.2</ele>
        <time>2021-08-06 19:01:10</time>
      </trkpt>
      <trkpt lat="37.07771" lon="-3.37926">
        <ele>2829.2</ele>
        <time>2021-08-06 19:01:11</time>
      </trkpt>
      <trkpt lat="37.07772" lon="-3.37927">
        <ele>2829.2</ele>
        <time>2021-08-06 19:01:12</time>
      </trkpt>
      <trkpt lat="37.07773" lon="-3.37927">
        <ele>2828.8</ele>
        <time>2021-08-06 19:01:13</time>
      </trkpt>
      <trkpt lat="37.07774" lon="-3.37927">
        <ele>2828.8</ele>
        <time>2021-08-06 19:01:14</time>
      </trkpt>
      <trkpt lat="37.07775" lon="-3.37927">
        <ele>2828.6</ele>
        <time>2021-08-06 19:01:15</time>
      </trkpt>
      <trkpt lat="37.07776" lon="-3.37928">
        <ele>2828.4</ele>
        <time>2021-08-06 19:01:16</time>
      </trkpt>
      <trkpt lat="37.07777" lon="-3.37929">
        <ele>2828.4</ele>
        <time>2021-08-06 19:01:17</time>
      </trkpt>
      <trkpt lat="37.07778" lon="-3.37929">
        <ele>2828.2</ele>
        <time>2021-08-06 19:01:18</time>
      </trkpt>
      <trkpt lat="37.07779" lon="-3.37929">
        <ele>2828</ele>
        <time>2021-08-06 19:01:19</time>
      </trkpt>
      <trkpt lat="37.07779" lon="-3.37929">
        <ele>2827.8</ele>
        <time>2021-08-06 19:01:20</time>
      </trkpt>
      <trkpt lat="37.0778" lon="-3.37929">
        <ele>2827.8</ele>
        <time>2021-08-06 19:01:21</time>
      </trkpt>
      <trkpt lat="37.07782" lon="-3.37928">
        <ele>2827.6</ele>
        <time>2021-08-06 19:01:22</time>
      </trkpt>
      <trkpt lat="37.07782" lon="-3.37928">
        <ele>2827.6</ele>
        <time>2021-08-06 19:01:23</time>
      </trkpt>
      <trkpt lat="37.07783" lon="-3.37928">
        <ele>2827.8</ele>
        <time>2021-08-06 19:01:24</time>
      </trkpt>
      <trkpt lat="37.07784" lon="-3.37928">
        <ele>2828</ele>
        <time>2021-08-06 19:01:25</time>
      </trkpt>
      <trkpt lat="37.07783" lon="-3.37928">
        <ele>2828</ele>
        <time>2021-08-06 19:01:26</time>
      </trkpt>
      <trkpt lat="37.07784" lon="-3.37928">
        <ele>2828</ele>
        <time>2021-08-06 19:01:27</time>
      </trkpt>
      <trkpt lat="37.07785" lon="-3.37928">
        <ele>2828</ele>
        <time>2021-08-06 19:01:28</time>
      </trkpt>
      <trkpt lat="37.07786" lon="-3.37928">
        <ele>2828</ele>
        <time>2021-08-06 19:01:29</time>
      </trkpt>
      <trkpt lat="37.07787" lon="-3.37928">
        <ele>2828</ele>
        <time>2021-08-06 19:01:30</time>
      </trkpt>
      <trkpt lat="37.07788" lon="-3.37929">
        <ele>2827.8</ele>
        <time>2021-08-06 19:01:31</time>
      </trkpt>
      <trkpt lat="37.07788" lon="-3.37928">
        <ele>2827.8</ele>
        <time>2021-08-06 19:01:32</time>
      </trkpt>
      <trkpt lat="37.07789" lon="-3.37928">
        <ele>2827.6</ele>
        <time>2021-08-06 19:01:33</time>
      </trkpt>
      <trkpt lat="37.0779" lon="-3.37928">
        <ele>2827.6</ele>
        <time>2021-08-06 19:01:34</time>
      </trkpt>
      <trkpt lat="37.07792" lon="-3.37929">
        <ele>2827.6</ele>
        <time>2021-08-06 19:01:35</time>
      </trkpt>
      <trkpt lat="37.07793" lon="-3.3793">
        <ele>2827.4</ele>
        <time>2021-08-06 19:01:36</time>
      </trkpt>
      <trkpt lat="37.07794" lon="-3.3793">
        <ele>2827.4</ele>
        <time>2021-08-06 19:01:37</time>
      </trkpt>
      <trkpt lat="37.07795" lon="-3.3793">
        <ele>2827.2</ele>
        <time>2021-08-06 19:01:38</time>
      </trkpt>
      <trkpt lat="37.07796" lon="-3.3793">
        <ele>2827.2</ele>
        <time>2021-08-06 19:01:39</time>
      </trkpt>
      <trkpt lat="37.07797" lon="-3.37931">
        <ele>2827.2</ele>
        <time>2021-08-06 19:01:40</time>
      </trkpt>
      <trkpt lat="37.07797" lon="-3.3793">
        <ele>2827</ele>
        <time>2021-08-06 19:01:41</time>
      </trkpt>
      <trkpt lat="37.07798" lon="-3.3793">
        <ele>2827</ele>
        <time>2021-08-06 19:01:42</time>
      </trkpt>
      <trkpt lat="37.078" lon="-3.3793">
        <ele>2827</ele>
        <time>2021-08-06 19:01:43</time>
      </trkpt>
      <trkpt lat="37.078" lon="-3.37931">
        <ele>2827</ele>
        <time>2021-08-06 19:01:44</time>
      </trkpt>
      <trkpt lat="37.07801" lon="-3.37931">
        <ele>2827</ele>
        <time>2021-08-06 19:01:45</time>
      </trkpt>
      <trkpt lat="37.07802" lon="-3.37932">
        <ele>2826.6</ele>
        <time>2021-08-06 19:01:46</time>
      </trkpt>
      <trkpt lat="37.07803" lon="-3.37932">
        <ele>2826.4</ele>
        <time>2021-08-06 19:01:47</time>
      </trkpt>
      <trkpt lat="37.07804" lon="-3.37933">
        <ele>2826.6</ele>
        <time>2021-08-06 19:01:48</time>
      </trkpt>
      <trkpt lat="37.07804" lon="-3.37933">
        <ele>2826.8</ele>
        <time>2021-08-06 19:01:49</time>
      </trkpt>
      <trkpt lat="37.07806" lon="-3.37934">
        <ele>2826.8</ele>
        <time>2021-08-06 19:01:50</time>
      </trkpt>
      <trkpt lat="37.07806" lon="-3.37935">
        <ele>2826.8</ele>
        <time>2021-08-06 19:01:51</time>
      </trkpt>
      <trkpt lat="37.07807" lon="-3.37935">
        <ele>2826.6</ele>
        <time>2021-08-06 19:01:52</time>
      </trkpt>
      <trkpt lat="37.07808" lon="-3.37935">
        <ele>2826.2</ele>
        <time>2021-08-06 19:01:53</time>
      </trkpt>
      <trkpt lat="37.07809" lon="-3.37935">
        <ele>2826</ele>
        <time>2021-08-06 19:01:54</time>
      </trkpt>
      <trkpt lat="37.0781" lon="-3.37936">
        <ele>2825.8</ele>
        <time>2021-08-06 19:01:55</time>
      </trkpt>
      <trkpt lat="37.07811" lon="-3.37937">
        <ele>2825.6</ele>
        <time>2021-08-06 19:01:56</time>
      </trkpt>
      <trkpt lat="37.07811" lon="-3.37937">
        <ele>2825.6</ele>
        <time>2021-08-06 19:01:57</time>
      </trkpt>
      <trkpt lat="37.07812" lon="-3.37938">
        <ele>2825.6</ele>
        <time>2021-08-06 19:01:58</time>
      </trkpt>
      <trkpt lat="37.07813" lon="-3.37938">
        <ele>2825.4</ele>
        <time>2021-08-06 19:01:59</time>
      </trkpt>
      <trkpt lat="37.07814" lon="-3.37938">
        <ele>2825</ele>
        <time>2021-08-06 19:02:00</time>
      </trkpt>
      <trkpt lat="37.07815" lon="-3.37938">
        <ele>2824.8</ele>
        <time>2021-08-06 19:02:01</time>
      </trkpt>
      <trkpt lat="37.07815" lon="-3.37938">
        <ele>2824.6</ele>
        <time>2021-08-06 19:02:02</time>
      </trkpt>
      <trkpt lat="37.07816" lon="-3.37939">
        <ele>2824.4</ele>
        <time>2021-08-06 19:02:03</time>
      </trkpt>
      <trkpt lat="37.07817" lon="-3.37939">
        <ele>2824.4</ele>
        <time>2021-08-06 19:02:04</time>
      </trkpt>
      <trkpt lat="37.07818" lon="-3.37938">
        <ele>2824.2</ele>
        <time>2021-08-06 19:02:05</time>
      </trkpt>
      <trkpt lat="37.07819" lon="-3.37938">
        <ele>2824.2</ele>
        <time>2021-08-06 19:02:06</time>
      </trkpt>
      <trkpt lat="37.0782" lon="-3.37938">
        <ele>2824.2</ele>
        <time>2021-08-06 19:02:07</time>
      </trkpt>
      <trkpt lat="37.0782" lon="-3.37937">
        <ele>2823.8</ele>
        <time>2021-08-06 19:02:08</time>
      </trkpt>
      <trkpt lat="37.07821" lon="-3.37937">
        <ele>2823.8</ele>
        <time>2021-08-06 19:02:09</time>
      </trkpt>
      <trkpt lat="37.07821" lon="-3.37938">
        <ele>2824</ele>
        <time>2021-08-06 19:02:10</time>
      </trkpt>
      <trkpt lat="37.07822" lon="-3.37937">
        <ele>2824</ele>
        <time>2021-08-06 19:02:11</time>
      </trkpt>
      <trkpt lat="37.07823" lon="-3.37938">
        <ele>2824.2</ele>
        <time>2021-08-06 19:02:12</time>
      </trkpt>
      <trkpt lat="37.07824" lon="-3.37938">
        <ele>2824.2</ele>
        <time>2021-08-06 19:02:13</time>
      </trkpt>
      <trkpt lat="37.07825" lon="-3.37938">
        <ele>2824.4</ele>
        <time>2021-08-06 19:02:14</time>
      </trkpt>
      <trkpt lat="37.07826" lon="-3.37938">
        <ele>2824.4</ele>
        <time>2021-08-06 19:02:15</time>
      </trkpt>
      <trkpt lat="37.07827" lon="-3.37938">
        <ele>2824.6</ele>
        <time>2021-08-06 19:02:16</time>
      </trkpt>
      <trkpt lat="37.07828" lon="-3.37937">
        <ele>2824.8</ele>
        <time>2021-08-06 19:02:17</time>
      </trkpt>
      <trkpt lat="37.07829" lon="-3.37937">
        <ele>2824.6</ele>
        <time>2021-08-06 19:02:18</time>
      </trkpt>
      <trkpt lat="37.0783" lon="-3.37937">
        <ele>2824.6</ele>
        <time>2021-08-06 19:02:19</time>
      </trkpt>
      <trkpt lat="37.07831" lon="-3.37936">
        <ele>2824.6</ele>
        <time>2021-08-06 19:02:20</time>
      </trkpt>
      <trkpt lat="37.07832" lon="-3.37936">
        <ele>2824.6</ele>
        <time>2021-08-06 19:02:21</time>
      </trkpt>
      <trkpt lat="37.07833" lon="-3.37935">
        <ele>2824.4</ele>
        <time>2021-08-06 19:02:22</time>
      </trkpt>
      <trkpt lat="37.07834" lon="-3.37934">
        <ele>2824.2</ele>
        <time>2021-08-06 19:02:23</time>
      </trkpt>
      <trkpt lat="37.07835" lon="-3.37935">
        <ele>2824</ele>
        <time>2021-08-06 19:02:24</time>
      </trkpt>
      <trkpt lat="37.07835" lon="-3.37935">
        <ele>2824</ele>
        <time>2021-08-06 19:02:25</time>
      </trkpt>
      <trkpt lat="37.07836" lon="-3.37935">
        <ele>2823.6</ele>
        <time>2021-08-06 19:02:26</time>
      </trkpt>
      <trkpt lat="37.07837" lon="-3.37935">
        <ele>2823.4</ele>
        <time>2021-08-06 19:02:27</time>
      </trkpt>
      <trkpt lat="37.07837" lon="-3.37936">
        <ele>2823.4</ele>
        <time>2021-08-06 19:02:28</time>
      </trkpt>
      <trkpt lat="37.07838" lon="-3.37936">
        <ele>2823.2</ele>
        <time>2021-08-06 19:02:29</time>
      </trkpt>
      <trkpt lat="37.07839" lon="-3.37936">
        <ele>2823.2</ele>
        <time>2021-08-06 19:02:30</time>
      </trkpt>
      <trkpt lat="37.0784" lon="-3.37936">
        <ele>2822.4</ele>
        <time>2021-08-06 19:02:31</time>
      </trkpt>
      <trkpt lat="37.0784" lon="-3.37936">
        <ele>2822.2</ele>
        <time>2021-08-06 19:02:32</time>
      </trkpt>
      <trkpt lat="37.07841" lon="-3.37937">
        <ele>2821.6</ele>
        <time>2021-08-06 19:02:33</time>
      </trkpt>
      <trkpt lat="37.07842" lon="-3.37937">
        <ele>2821.4</ele>
        <time>2021-08-06 19:02:34</time>
      </trkpt>
      <trkpt lat="37.07843" lon="-3.37937">
        <ele>2821.2</ele>
        <time>2021-08-06 19:02:35</time>
      </trkpt>
      <trkpt lat="37.07843" lon="-3.37937">
        <ele>2821.2</ele>
        <time>2021-08-06 19:02:36</time>
      </trkpt>
      <trkpt lat="37.07844" lon="-3.37937">
        <ele>2821.2</ele>
        <time>2021-08-06 19:02:37</time>
      </trkpt>
      <trkpt lat="37.07845" lon="-3.37937">
        <ele>2821.2</ele>
        <time>2021-08-06 19:02:38</time>
      </trkpt>
      <trkpt lat="37.07846" lon="-3.37937">
        <ele>2821.2</ele>
        <time>2021-08-06 19:02:39</time>
      </trkpt>
      <trkpt lat="37.07846" lon="-3.37937">
        <ele>2821</ele>
        <time>2021-08-06 19:02:40</time>
      </trkpt>
      <trkpt lat="37.07847" lon="-3.37938">
        <ele>2821</ele>
        <time>2021-08-06 19:02:41</time>
      </trkpt>
      <trkpt lat="37.07847" lon="-3.37938">
        <ele>2821</ele>
        <time>2021-08-06 19:02:42</time>
      </trkpt>
      <trkpt lat="37.07847" lon="-3.37939">
        <ele>2821</ele>
        <time>2021-08-06 19:02:43</time>
      </trkpt>
      <trkpt lat="37.07848" lon="-3.3794">
        <ele>2821</ele>
        <time>2021-08-06 19:02:44</time>
      </trkpt>
      <trkpt lat="37.07849" lon="-3.3794">
        <ele>2820.8</ele>
        <time>2021-08-06 19:02:45</time>
      </trkpt>
      <trkpt lat="37.07849" lon="-3.3794">
        <ele>2820.8</ele>
        <time>2021-08-06 19:02:46</time>
      </trkpt>
      <trkpt lat="37.0785" lon="-3.37939">
        <ele>2820.6</ele>
        <time>2021-08-06 19:02:47</time>
      </trkpt>
      <trkpt lat="37.07851" lon="-3.37939">
        <ele>2820.6</ele>
        <time>2021-08-06 19:02:48</time>
      </trkpt>
      <trkpt lat="37.07851" lon="-3.3794">
        <ele>2820.4</ele>
        <time>2021-08-06 19:02:49</time>
      </trkpt>
      <trkpt lat="37.07851" lon="-3.3794">
        <ele>2820.4</ele>
        <time>2021-08-06 19:02:50</time>
      </trkpt>
      <trkpt lat="37.07852" lon="-3.3794">
        <ele>2820.2</ele>
        <time>2021-08-06 19:02:51</time>
      </trkpt>
      <trkpt lat="37.07853" lon="-3.3794">
        <ele>2820</ele>
        <time>2021-08-06 19:02:52</time>
      </trkpt>
      <trkpt lat="37.07853" lon="-3.3794">
        <ele>2819.8</ele>
        <time>2021-08-06 19:02:53</time>
      </trkpt>
      <trkpt lat="37.07854" lon="-3.37941">
        <ele>2819.8</ele>
        <time>2021-08-06 19:02:54</time>
      </trkpt>
      <trkpt lat="37.07856" lon="-3.37941">
        <ele>2819.6</ele>
        <time>2021-08-06 19:02:55</time>
      </trkpt>
      <trkpt lat="37.07857" lon="-3.37941">
        <ele>2819.2</ele>
        <time>2021-08-06 19:02:56</time>
      </trkpt>
      <trkpt lat="37.07857" lon="-3.37941">
        <ele>2819.2</ele>
        <time>2021-08-06 19:02:57</time>
      </trkpt>
      <trkpt lat="37.07858" lon="-3.37942">
        <ele>2819</ele>
        <time>2021-08-06 19:02:58</time>
      </trkpt>
      <trkpt lat="37.07859" lon="-3.37942">
        <ele>2819</ele>
        <time>2021-08-06 19:02:59</time>
      </trkpt>
      <trkpt lat="37.0786" lon="-3.37943">
        <ele>2818.8</ele>
        <time>2021-08-06 19:03:00</time>
      </trkpt>
      <trkpt lat="37.07861" lon="-3.37942">
        <ele>2818.8</ele>
        <time>2021-08-06 19:03:01</time>
      </trkpt>
      <trkpt lat="37.07862" lon="-3.37943">
        <ele>2818.8</ele>
        <time>2021-08-06 19:03:02</time>
      </trkpt>
      <trkpt lat="37.07863" lon="-3.37943">
        <ele>2818.6</ele>
        <time>2021-08-06 19:03:03</time>
      </trkpt>
      <trkpt lat="37.07864" lon="-3.37943">
        <ele>2818.4</ele>
        <time>2021-08-06 19:03:04</time>
      </trkpt>
      <trkpt lat="37.07865" lon="-3.37944">
        <ele>2818.4</ele>
        <time>2021-08-06 19:03:05</time>
      </trkpt>
      <trkpt lat="37.07865" lon="-3.37944">
        <ele>2818.4</ele>
        <time>2021-08-06 19:03:06</time>
      </trkpt>
      <trkpt lat="37.07866" lon="-3.37945">
        <ele>2818.4</ele>
        <time>2021-08-06 19:03:07</time>
      </trkpt>
      <trkpt lat="37.07867" lon="-3.37945">
        <ele>2818.4</ele>
        <time>2021-08-06 19:03:08</time>
      </trkpt>
      <trkpt lat="37.07867" lon="-3.37945">
        <ele>2818.4</ele>
        <time>2021-08-06 19:03:09</time>
      </trkpt>
      <trkpt lat="37.07868" lon="-3.37945">
        <ele>2818.4</ele>
        <time>2021-08-06 19:03:10</time>
      </trkpt>
      <trkpt lat="37.07868" lon="-3.37946">
        <ele>2818.4</ele>
        <time>2021-08-06 19:03:11</time>
      </trkpt>
      <trkpt lat="37.07869" lon="-3.37946">
        <ele>2817.8</ele>
        <time>2021-08-06 19:03:12</time>
      </trkpt>
      <trkpt lat="37.0787" lon="-3.37946">
        <ele>2817.4</ele>
        <time>2021-08-06 19:03:13</time>
      </trkpt>
      <trkpt lat="37.07871" lon="-3.37947">
        <ele>2817.4</ele>
        <time>2021-08-06 19:03:14</time>
      </trkpt>
      <trkpt lat="37.07872" lon="-3.37947">
        <ele>2817.2</ele>
        <time>2021-08-06 19:03:15</time>
      </trkpt>
      <trkpt lat="37.07872" lon="-3.37947">
        <ele>2817</ele>
        <time>2021-08-06 19:03:16</time>
      </trkpt>
      <trkpt lat="37.07873" lon="-3.37947">
        <ele>2817</ele>
        <time>2021-08-06 19:03:17</time>
      </trkpt>
      <trkpt lat="37.07874" lon="-3.37947">
        <ele>2817</ele>
        <time>2021-08-06 19:03:18</time>
      </trkpt>
      <trkpt lat="37.07875" lon="-3.37947">
        <ele>2816.8</ele>
        <time>2021-08-06 19:03:19</time>
      </trkpt>
      <trkpt lat="37.07876" lon="-3.37947">
        <ele>2816.6</ele>
        <time>2021-08-06 19:03:20</time>
      </trkpt>
      <trkpt lat="37.07876" lon="-3.37947">
        <ele>2816.6</ele>
        <time>2021-08-06 19:03:21</time>
      </trkpt>
      <trkpt lat="37.07877" lon="-3.37947">
        <ele>2816.2</ele>
        <time>2021-08-06 19:03:22</time>
      </trkpt>
      <trkpt lat="37.07878" lon="-3.37947">
        <ele>2815.8</ele>
        <time>2021-08-06 19:03:23</time>
      </trkpt>
      <trkpt lat="37.07878" lon="-3.37947">
        <ele>2815.6</ele>
        <time>2021-08-06 19:03:24</time>
      </trkpt>
      <trkpt lat="37.07879" lon="-3.37947">
        <ele>2815.6</ele>
        <time>2021-08-06 19:03:25</time>
      </trkpt>
      <trkpt lat="37.07879" lon="-3.37947">
        <ele>2815.4</ele>
        <time>2021-08-06 19:03:26</time>
      </trkpt>
      <trkpt lat="37.0788" lon="-3.37947">
        <ele>2814.8</ele>
        <time>2021-08-06 19:03:27</time>
      </trkpt>
      <trkpt lat="37.07881" lon="-3.37948">
        <ele>2814.6</ele>
        <time>2021-08-06 19:03:28</time>
      </trkpt>
      <trkpt lat="37.07882" lon="-3.37948">
        <ele>2814.4</ele>
        <time>2021-08-06 19:03:29</time>
      </trkpt>
      <trkpt lat="37.07883" lon="-3.37949">
        <ele>2814.2</ele>
        <time>2021-08-06 19:03:30</time>
      </trkpt>
      <trkpt lat="37.07884" lon="-3.3795">
        <ele>2814</ele>
        <time>2021-08-06 19:03:31</time>
      </trkpt>
      <trkpt lat="37.07885" lon="-3.3795">
        <ele>2813.8</ele>
        <time>2021-08-06 19:03:32</time>
      </trkpt>
      <trkpt lat="37.07885" lon="-3.37951">
        <ele>2813.6</ele>
        <time>2021-08-06 19:03:33</time>
      </trkpt>
      <trkpt lat="37.07886" lon="-3.37952">
        <ele>2813.6</ele>
        <time>2021-08-06 19:03:34</time>
      </trkpt>
      <trkpt lat="37.07886" lon="-3.37952">
        <ele>2813.6</ele>
        <time>2021-08-06 19:03:35</time>
      </trkpt>
      <trkpt lat="37.07887" lon="-3.37953">
        <ele>2813.4</ele>
        <time>2021-08-06 19:03:36</time>
      </trkpt>
      <trkpt lat="37.07887" lon="-3.37955">
        <ele>2813.4</ele>
        <time>2021-08-06 19:03:37</time>
      </trkpt>
      <trkpt lat="37.07888" lon="-3.37955">
        <ele>2813.2</ele>
        <time>2021-08-06 19:03:38</time>
      </trkpt>
      <trkpt lat="37.07889" lon="-3.37956">
        <ele>2813.2</ele>
        <time>2021-08-06 19:03:39</time>
      </trkpt>
      <trkpt lat="37.0789" lon="-3.37958">
        <ele>2813</ele>
        <time>2021-08-06 19:03:40</time>
      </trkpt>
      <trkpt lat="37.0789" lon="-3.37958">
        <ele>2812.8</ele>
        <time>2021-08-06 19:03:41</time>
      </trkpt>
      <trkpt lat="37.07891" lon="-3.37959">
        <ele>2812.6</ele>
        <time>2021-08-06 19:03:42</time>
      </trkpt>
      <trkpt lat="37.07892" lon="-3.37959">
        <ele>2812.6</ele>
        <time>2021-08-06 19:03:43</time>
      </trkpt>
      <trkpt lat="37.07892" lon="-3.37958">
        <ele>2812.4</ele>
        <time>2021-08-06 19:03:44</time>
      </trkpt>
      <trkpt lat="37.07892" lon="-3.37959">
        <ele>2812.4</ele>
        <time>2021-08-06 19:03:45</time>
      </trkpt>
      <trkpt lat="37.07893" lon="-3.37959">
        <ele>2812.4</ele>
        <time>2021-08-06 19:03:46</time>
      </trkpt>
      <trkpt lat="37.07893" lon="-3.37959">
        <ele>2812.2</ele>
        <time>2021-08-06 19:03:47</time>
      </trkpt>
      <trkpt lat="37.07894" lon="-3.37959">
        <ele>2812</ele>
        <time>2021-08-06 19:03:48</time>
      </trkpt>
      <trkpt lat="37.07895" lon="-3.37959">
        <ele>2811.6</ele>
        <time>2021-08-06 19:03:49</time>
      </trkpt>
      <trkpt lat="37.07895" lon="-3.37959">
        <ele>2811.6</ele>
        <time>2021-08-06 19:03:50</time>
      </trkpt>
      <trkpt lat="37.07896" lon="-3.37959">
        <ele>2811.4</ele>
        <time>2021-08-06 19:03:51</time>
      </trkpt>
      <trkpt lat="37.07896" lon="-3.37959">
        <ele>2811.4</ele>
        <time>2021-08-06 19:03:52</time>
      </trkpt>
      <trkpt lat="37.07896" lon="-3.3796">
        <ele>2811.6</ele>
        <time>2021-08-06 19:03:53</time>
      </trkpt>
      <trkpt lat="37.07896" lon="-3.3796">
        <ele>2811.8</ele>
        <time>2021-08-06 19:03:54</time>
      </trkpt>
      <trkpt lat="37.07896" lon="-3.3796">
        <ele>2811.8</ele>
        <time>2021-08-06 19:03:55</time>
      </trkpt>
      <trkpt lat="37.07896" lon="-3.3796">
        <ele>2812</ele>
        <time>2021-08-06 19:03:56</time>
      </trkpt>
      <trkpt lat="37.07896" lon="-3.37959">
        <ele>2812</ele>
        <time>2021-08-06 19:03:57</time>
      </trkpt>
      <trkpt lat="37.07896" lon="-3.3796">
        <ele>2812.2</ele>
        <time>2021-08-06 19:03:58</time>
      </trkpt>
      <trkpt lat="37.07896" lon="-3.3796">
        <ele>2812</ele>
        <time>2021-08-06 19:03:59</time>
      </trkpt>
      <trkpt lat="37.07896" lon="-3.37961">
        <ele>2812</ele>
        <time>2021-08-06 19:04:00</time>
      </trkpt>
      <trkpt lat="37.07896" lon="-3.37961">
        <ele>2812.2</ele>
        <time>2021-08-06 19:04:01</time>
      </trkpt>
      <trkpt lat="37.07896" lon="-3.37962">
        <ele>2812.2</ele>
        <time>2021-08-06 19:04:02</time>
      </trkpt>
      <trkpt lat="37.07896" lon="-3.37962">
        <ele>2812.2</ele>
        <time>2021-08-06 19:04:03</time>
      </trkpt>
      <trkpt lat="37.07896" lon="-3.37963">
        <ele>2812.2</ele>
        <time>2021-08-06 19:04:04</time>
      </trkpt>
      <trkpt lat="37.07896" lon="-3.37963">
        <ele>2812.2</ele>
        <time>2021-08-06 19:04:05</time>
      </trkpt>
      <trkpt lat="37.07896" lon="-3.37963">
        <ele>2812.2</ele>
        <time>2021-08-06 19:04:06</time>
      </trkpt>
      <trkpt lat="37.07896" lon="-3.37963">
        <ele>2812</ele>
        <time>2021-08-06 19:04:07</time>
      </trkpt>
      <trkpt lat="37.07896" lon="-3.37963">
        <ele>2812</ele>
        <time>2021-08-06 19:04:08</time>
      </trkpt>
      <trkpt lat="37.07896" lon="-3.37963">
        <ele>2812</ele>
        <time>2021-08-06 19:04:09</time>
      </trkpt>
      <trkpt lat="37.07896" lon="-3.37962">
        <ele>2812</ele>
        <time>2021-08-06 19:04:10</time>
      </trkpt>
      <trkpt lat="37.07897" lon="-3.37962">
        <ele>2811.8</ele>
        <time>2021-08-06 19:04:11</time>
      </trkpt>
      <trkpt lat="37.07894" lon="-3.37963">
        <ele>2811.8</ele>
        <time>2021-08-06 19:04:12</time>
      </trkpt>
      <trkpt lat="37.07894" lon="-3.37963">
        <ele>2811.8</ele>
        <time>2021-08-06 19:04:13</time>
      </trkpt>
      <trkpt lat="37.07894" lon="-3.37963">
        <ele>2811.8</ele>
        <time>2021-08-06 19:04:14</time>
      </trkpt>
      <trkpt lat="37.07894" lon="-3.37962">
        <ele>2811.8</ele>
        <time>2021-08-06 19:04:15</time>
      </trkpt>
      <trkpt lat="37.07894" lon="-3.37961">
        <ele>2811.8</ele>
        <time>2021-08-06 19:04:16</time>
      </trkpt>
      <trkpt lat="37.07895" lon="-3.3796">
        <ele>2811.8</ele>
        <time>2021-08-06 19:04:17</time>
      </trkpt>
      <trkpt lat="37.07896" lon="-3.3796">
        <ele>2811.6</ele>
        <time>2021-08-06 19:04:18</time>
      </trkpt>
      <trkpt lat="37.07896" lon="-3.3796">
        <ele>2811.6</ele>
        <time>2021-08-06 19:04:19</time>
      </trkpt>
      <trkpt lat="37.07897" lon="-3.37961">
        <ele>2811.6</ele>
        <time>2021-08-06 19:04:20</time>
      </trkpt>
      <trkpt lat="37.07896" lon="-3.37961">
        <ele>2811.4</ele>
        <time>2021-08-06 19:04:21</time>
      </trkpt>
      <trkpt lat="37.07896" lon="-3.37961">
        <ele>2811.4</ele>
        <time>2021-08-06 19:04:22</time>
      </trkpt>
      <trkpt lat="37.07896" lon="-3.37959">
        <ele>2811.4</ele>
        <time>2021-08-06 19:04:23</time>
      </trkpt>
      <trkpt lat="37.07895" lon="-3.37961">
        <ele>2811.2</ele>
        <time>2021-08-06 19:04:24</time>
      </trkpt>
      <trkpt lat="37.07895" lon="-3.37961">
        <ele>2811.2</ele>
        <time>2021-08-06 19:04:25</time>
      </trkpt>
      <trkpt lat="37.07894" lon="-3.37961">
        <ele>2811</ele>
        <time>2021-08-06 19:04:26</time>
      </trkpt>
      <trkpt lat="37.07894" lon="-3.37961">
        <ele>2811</ele>
        <time>2021-08-06 19:04:27</time>
      </trkpt>
      <trkpt lat="37.07894" lon="-3.37962">
        <ele>2810.8</ele>
        <time>2021-08-06 19:04:28</time>
      </trkpt>
      <trkpt lat="37.07894" lon="-3.37962">
        <ele>2810.8</ele>
        <time>2021-08-06 19:04:29</time>
      </trkpt>
      <trkpt lat="37.07893" lon="-3.37962">
        <ele>2810.8</ele>
        <time>2021-08-06 19:04:30</time>
      </trkpt>
      <trkpt lat="37.07893" lon="-3.37962">
        <ele>2811</ele>
        <time>2021-08-06 19:04:31</time>
      </trkpt>
      <trkpt lat="37.07893" lon="-3.37962">
        <ele>2811.2</ele>
        <time>2021-08-06 19:04:32</time>
      </trkpt>
      <trkpt lat="37.07893" lon="-3.37962">
        <ele>2811.2</ele>
        <time>2021-08-06 19:04:33</time>
      </trkpt>
      <trkpt lat="37.07893" lon="-3.37962">
        <ele>2811.2</ele>
        <time>2021-08-06 19:04:34</time>
      </trkpt>
      <trkpt lat="37.07893" lon="-3.37962">
        <ele>2811.2</ele>
        <time>2021-08-06 19:04:35</time>
      </trkpt>
      <trkpt lat="37.07893" lon="-3.37962">
        <ele>2811</ele>
        <time>2021-08-06 19:04:36</time>
      </trkpt>
      <trkpt lat="37.07893" lon="-3.37962">
        <ele>2811</ele>
        <time>2021-08-06 19:04:37</time>
      </trkpt>
      <trkpt lat="37.07894" lon="-3.37962">
        <ele>2811</ele>
        <time>2021-08-06 19:04:38</time>
      </trkpt>
      <trkpt lat="37.07894" lon="-3.37962">
        <ele>2811</ele>
        <time>2021-08-06 19:04:39</time>
      </trkpt>
      <trkpt lat="37.07894" lon="-3.37962">
        <ele>2810.8</ele>
        <time>2021-08-06 19:04:40</time>
      </trkpt>
      <trkpt lat="37.07894" lon="-3.37962">
        <ele>2811</ele>
        <time>2021-08-06 19:04:41</time>
      </trkpt>
      <trkpt lat="37.07893" lon="-3.37962">
        <ele>2811</ele>
        <time>2021-08-06 19:04:42</time>
      </trkpt>
      <trkpt lat="37.07893" lon="-3.37962">
        <ele>2811</ele>
        <time>2021-08-06 19:04:43</time>
      </trkpt>
      <trkpt lat="37.07893" lon="-3.37962">
        <ele>2811</ele>
        <time>2021-08-06 19:04:44</time>
      </trkpt>
      <trkpt lat="37.07893" lon="-3.37962">
        <ele>2811</ele>
        <time>2021-08-06 19:04:45</time>
      </trkpt>
      <trkpt lat="37.07893" lon="-3.37962">
        <ele>2811</ele>
        <time>2021-08-06 19:04:46</time>
      </trkpt>
      <trkpt lat="37.07893" lon="-3.37962">
        <ele>2811</ele>
        <time>2021-08-06 19:04:47</time>
      </trkpt>
      <trkpt lat="37.07894" lon="-3.37962">
        <ele>2811</ele>
        <time>2021-08-06 19:04:48</time>
      </trkpt>
      <trkpt lat="37.07894" lon="-3.37962">
        <ele>2811</ele>
        <time>2021-08-06 19:04:49</time>
      </trkpt>
      <trkpt lat="37.07894" lon="-3.37962">
        <ele>2810.8</ele>
        <time>2021-08-06 19:04:50</time>
      </trkpt>
      <trkpt lat="37.07894" lon="-3.37962">
        <ele>2810.8</ele>
        <time>2021-08-06 19:04:51</time>
      </trkpt>
      <trkpt lat="37.07894" lon="-3.37962">
        <ele>2810.8</ele>
        <time>2021-08-06 19:04:52</time>
      </trkpt>
      <trkpt lat="37.07894" lon="-3.37962">
        <ele>2810.8</ele>
        <time>2021-08-06 19:04:53</time>
      </trkpt>
      <trkpt lat="37.07894" lon="-3.37962">
        <ele>2811</ele>
        <time>2021-08-06 19:04:54</time>
      </trkpt>
      <trkpt lat="37.07894" lon="-3.37962">
        <ele>2811</ele>
        <time>2021-08-06 19:04:55</time>
      </trkpt>
      <trkpt lat="37.07894" lon="-3.37962">
        <ele>2811</ele>
        <time>2021-08-06 19:04:56</time>
      </trkpt>
      <trkpt lat="37.07895" lon="-3.37961">
        <ele>2811</ele>
        <time>2021-08-06 19:04:57</time>
      </trkpt>
      <trkpt lat="37.07895" lon="-3.37961">
        <ele>2811.2</ele>
        <time>2021-08-06 19:04:58</time>
      </trkpt>
      <trkpt lat="37.07895" lon="-3.37961">
        <ele>2811</ele>
        <time>2021-08-06 19:04:59</time>
      </trkpt>
      <trkpt lat="37.07894" lon="-3.37961">
        <ele>2810.8</ele>
        <time>2021-08-06 19:05:00</time>
      </trkpt>
      <trkpt lat="37.07894" lon="-3.37961">
        <ele>2810.8</ele>
        <time>2021-08-06 19:05:01</time>
      </trkpt>
      <trkpt lat="37.07894" lon="-3.37961">
        <ele>2810.8</ele>
        <time>2021-08-06 19:05:02</time>
      </trkpt>
      <trkpt lat="37.07894" lon="-3.37961">
        <ele>2810.8</ele>
        <time>2021-08-06 19:05:03</time>
      </trkpt>
      <trkpt lat="37.07894" lon="-3.37961">
        <ele>2810.8</ele>
        <time>2021-08-06 19:05:04</time>
      </trkpt>
      <trkpt lat="37.07894" lon="-3.37961">
        <ele>2810.8</ele>
        <time>2021-08-06 19:05:05</time>
      </trkpt>
      <trkpt lat="37.07894" lon="-3.37961">
        <ele>2810.8</ele>
        <time>2021-08-06 19:05:06</time>
      </trkpt>
      <trkpt lat="37.07894" lon="-3.37961">
        <ele>2810.8</ele>
        <time>2021-08-06 19:05:07</time>
      </trkpt>
      <trkpt lat="37.07894" lon="-3.37961">
        <ele>2810.8</ele>
        <time>2021-08-06 19:05:08</time>
      </trkpt>
      <trkpt lat="37.07894" lon="-3.37961">
        <ele>2811</ele>
        <time>2021-08-06 19:05:09</time>
      </trkpt>
      <trkpt lat="37.07895" lon="-3.3796">
        <ele>2810.8</ele>
        <time>2021-08-06 19:05:10</time>
      </trkpt>
      <trkpt lat="37.07894" lon="-3.3796">
        <ele>2810.8</ele>
        <time>2021-08-06 19:05:11</time>
      </trkpt>
      <trkpt lat="37.07894" lon="-3.3796">
        <ele>2811</ele>
        <time>2021-08-06 19:05:12</time>
      </trkpt>
      <trkpt lat="37.07894" lon="-3.3796">
        <ele>2811</ele>
        <time>2021-08-06 19:05:13</time>
      </trkpt>
      <trkpt lat="37.07894" lon="-3.3796">
        <ele>2811.2</ele>
        <time>2021-08-06 19:05:14</time>
      </trkpt>
      <trkpt lat="37.07894" lon="-3.3796">
        <ele>2811.2</ele>
        <time>2021-08-06 19:05:15</time>
      </trkpt>
      <trkpt lat="37.07894" lon="-3.3796">
        <ele>2811.2</ele>
        <time>2021-08-06 19:05:16</time>
      </trkpt>
      <trkpt lat="37.07894" lon="-3.3796">
        <ele>2811.2</ele>
        <time>2021-08-06 19:05:17</time>
      </trkpt>
      <trkpt lat="37.07894" lon="-3.3796">
        <ele>2811.2</ele>
        <time>2021-08-06 19:05:18</time>
      </trkpt>
      <trkpt lat="37.07894" lon="-3.3796">
        <ele>2811.2</ele>
        <time>2021-08-06 19:05:19</time>
      </trkpt>
      <trkpt lat="37.07894" lon="-3.3796">
        <ele>2811.2</ele>
        <time>2021-08-06 19:05:20</time>
      </trkpt>
      <trkpt lat="37.07894" lon="-3.37961">
        <ele>2811.2</ele>
        <time>2021-08-06 19:05:21</time>
      </trkpt>
      <trkpt lat="37.07894" lon="-3.37961">
        <ele>2811.2</ele>
        <time>2021-08-06 19:05:22</time>
      </trkpt>
      <trkpt lat="37.07894" lon="-3.37961">
        <ele>2811.2</ele>
        <time>2021-08-06 19:05:23</time>
      </trkpt>
      <trkpt lat="37.07894" lon="-3.37961">
        <ele>2811.2</ele>
        <time>2021-08-06 19:05:24</time>
      </trkpt>
      <trkpt lat="37.07894" lon="-3.37962">
        <ele>2811.2</ele>
        <time>2021-08-06 19:05:25</time>
      </trkpt>
      <trkpt lat="37.07894" lon="-3.37962">
        <ele>2811.2</ele>
        <time>2021-08-06 19:05:26</time>
      </trkpt>
      <trkpt lat="37.07894" lon="-3.37962">
        <ele>2811.2</ele>
        <time>2021-08-06 19:05:27</time>
      </trkpt>
      <trkpt lat="37.07897" lon="-3.37962">
        <ele>2811.2</ele>
        <time>2021-08-06 19:05:28</time>
      </trkpt>
      <trkpt lat="37.07897" lon="-3.37962">
        <ele>2811.2</ele>
        <time>2021-08-06 19:05:29</time>
      </trkpt>
      <trkpt lat="37.07897" lon="-3.37962">
        <ele>2811.2</ele>
        <time>2021-08-06 19:05:30</time>
      </trkpt>
      <trkpt lat="37.07896" lon="-3.37961">
        <ele>2811.2</ele>
        <time>2021-08-06 19:05:31</time>
      </trkpt>
      <trkpt lat="37.07895" lon="-3.37961">
        <ele>2811.2</ele>
        <time>2021-08-06 19:05:32</time>
      </trkpt>
      <trkpt lat="37.07895" lon="-3.37961">
        <ele>2811.2</ele>
        <time>2021-08-06 19:05:33</time>
      </trkpt>
      <trkpt lat="37.07895" lon="-3.37961">
        <ele>2811.2</ele>
        <time>2021-08-06 19:05:34</time>
      </trkpt>
      <trkpt lat="37.07895" lon="-3.37961">
        <ele>2811.2</ele>
        <time>2021-08-06 19:05:35</time>
      </trkpt>
      <trkpt lat="37.07895" lon="-3.37961">
        <ele>2811.2</ele>
        <time>2021-08-06 19:05:36</time>
      </trkpt>
      <trkpt lat="37.07895" lon="-3.37961">
        <ele>2811.2</ele>
        <time>2021-08-06 19:05:37</time>
      </trkpt>
      <trkpt lat="37.07895" lon="-3.37961">
        <ele>2811.2</ele>
        <time>2021-08-06 19:05:38</time>
      </trkpt>
      <trkpt lat="37.07894" lon="-3.37961">
        <ele>2811.2</ele>
        <time>2021-08-06 19:05:39</time>
      </trkpt>
      <trkpt lat="37.07894" lon="-3.37961">
        <ele>2811.2</ele>
        <time>2021-08-06 19:05:40</time>
      </trkpt>
      <trkpt lat="37.07894" lon="-3.37961">
        <ele>2811.2</ele>
        <time>2021-08-06 19:05:41</time>
      </trkpt>
      <trkpt lat="37.07894" lon="-3.37962">
        <ele>2811.2</ele>
        <time>2021-08-06 19:05:42</time>
      </trkpt>
      <trkpt lat="37.07894" lon="-3.37962">
        <ele>2811.2</ele>
        <time>2021-08-06 19:05:43</time>
      </trkpt>
      <trkpt lat="37.07894" lon="-3.37962">
        <ele>2811.2</ele>
        <time>2021-08-06 19:05:44</time>
      </trkpt>
      <trkpt lat="37.07894" lon="-3.37962">
        <ele>2811.2</ele>
        <time>2021-08-06 19:05:45</time>
      </trkpt>
      <trkpt lat="37.07894" lon="-3.37962">
        <ele>2811.2</ele>
        <time>2021-08-06 19:05:46</time>
      </trkpt>
      <trkpt lat="37.07894" lon="-3.37962">
        <ele>2811.2</ele>
        <time>2021-08-06 19:05:47</time>
      </trkpt>
      <trkpt lat="37.07894" lon="-3.37961">
        <ele>2811.2</ele>
        <time>2021-08-06 19:05:48</time>
      </trkpt>
      <trkpt lat="37.07894" lon="-3.37961">
        <ele>2811.2</ele>
        <time>2021-08-06 19:05:49</time>
      </trkpt>
      <trkpt lat="37.07894" lon="-3.37961">
        <ele>2811.2</ele>
        <time>2021-08-06 19:05:50</time>
      </trkpt>
      <trkpt lat="37.07893" lon="-3.37961">
        <ele>2811.2</ele>
        <time>2021-08-06 19:05:51</time>
      </trkpt>
      <trkpt lat="37.07893" lon="-3.37961">
        <ele>2811.2</ele>
        <time>2021-08-06 19:05:52</time>
      </trkpt>
      <trkpt lat="37.07893" lon="-3.37961">
        <ele>2811.2</ele>
        <time>2021-08-06 19:05:53</time>
      </trkpt>
      <trkpt lat="37.07893" lon="-3.37962">
        <ele>2811.2</ele>
        <time>2021-08-06 19:05:54</time>
      </trkpt>
      <trkpt lat="37.07893" lon="-3.37962">
        <ele>2811.2</ele>
        <time>2021-08-06 19:05:55</time>
      </trkpt>
      <trkpt lat="37.07893" lon="-3.37962">
        <ele>2811.2</ele>
        <time>2021-08-06 19:05:56</time>
      </trkpt>
      <trkpt lat="37.07893" lon="-3.37962">
        <ele>2811.2</ele>
        <time>2021-08-06 19:05:57</time>
      </trkpt>
      <trkpt lat="37.07893" lon="-3.37963">
        <ele>2811.2</ele>
        <time>2021-08-06 19:05:58</time>
      </trkpt>
      <trkpt lat="37.07894" lon="-3.37963">
        <ele>2811.2</ele>
        <time>2021-08-06 19:05:59</time>
      </trkpt>
      <trkpt lat="37.07894" lon="-3.37963">
        <ele>2811.2</ele>
        <time>2021-08-06 19:06:00</time>
      </trkpt>
      <trkpt lat="37.07894" lon="-3.37963">
        <ele>2811.2</ele>
        <time>2021-08-06 19:06:01</time>
      </trkpt>
      <trkpt lat="37.07893" lon="-3.37963">
        <ele>2811.2</ele>
        <time>2021-08-06 19:06:02</time>
      </trkpt>
      <trkpt lat="37.07891" lon="-3.37963">
        <ele>2811.2</ele>
        <time>2021-08-06 19:06:03</time>
      </trkpt>
      <trkpt lat="37.07891" lon="-3.37963">
        <ele>2811.2</ele>
        <time>2021-08-06 19:06:04</time>
      </trkpt>
      <trkpt lat="37.07891" lon="-3.37963">
        <ele>2811.2</ele>
        <time>2021-08-06 19:06:05</time>
      </trkpt>
      <trkpt lat="37.07891" lon="-3.37963">
        <ele>2811.2</ele>
        <time>2021-08-06 19:06:06</time>
      </trkpt>
      <trkpt lat="37.07892" lon="-3.37962">
        <ele>2811.2</ele>
        <time>2021-08-06 19:06:07</time>
      </trkpt>
      <trkpt lat="37.07892" lon="-3.37962">
        <ele>2811.2</ele>
        <time>2021-08-06 19:06:08</time>
      </trkpt>
      <trkpt lat="37.07893" lon="-3.37962">
        <ele>2811.2</ele>
        <time>2021-08-06 19:06:09</time>
      </trkpt>
      <trkpt lat="37.07893" lon="-3.37962">
        <ele>2811.2</ele>
        <time>2021-08-06 19:06:10</time>
      </trkpt>
      <trkpt lat="37.07894" lon="-3.37962">
        <ele>2811.2</ele>
        <time>2021-08-06 19:06:11</time>
      </trkpt>
      <trkpt lat="37.07894" lon="-3.37962">
        <ele>2811.2</ele>
        <time>2021-08-06 19:06:12</time>
      </trkpt>
      <trkpt lat="37.07895" lon="-3.37962">
        <ele>2811.2</ele>
        <time>2021-08-06 19:06:13</time>
      </trkpt>
      <trkpt lat="37.07896" lon="-3.37962">
        <ele>2811.2</ele>
        <time>2021-08-06 19:06:14</time>
      </trkpt>
      <trkpt lat="37.07896" lon="-3.37962">
        <ele>2811.2</ele>
        <time>2021-08-06 19:06:15</time>
      </trkpt>
      <trkpt lat="37.07897" lon="-3.37962">
        <ele>2811.2</ele>
        <time>2021-08-06 19:06:16</time>
      </trkpt>
      <trkpt lat="37.07898" lon="-3.37962">
        <ele>2811.2</ele>
        <time>2021-08-06 19:06:17</time>
      </trkpt>
      <trkpt lat="37.07898" lon="-3.37961">
        <ele>2811.2</ele>
        <time>2021-08-06 19:06:18</time>
      </trkpt>
      <trkpt lat="37.07898" lon="-3.37961">
        <ele>2811.2</ele>
        <time>2021-08-06 19:06:19</time>
      </trkpt>
      <trkpt lat="37.07897" lon="-3.37962">
        <ele>2811.2</ele>
        <time>2021-08-06 19:06:20</time>
      </trkpt>
      <trkpt lat="37.07896" lon="-3.37962">
        <ele>2811.2</ele>
        <time>2021-08-06 19:06:21</time>
      </trkpt>
      <trkpt lat="37.07895" lon="-3.37962">
        <ele>2811.2</ele>
        <time>2021-08-06 19:06:22</time>
      </trkpt>
      <trkpt lat="37.07895" lon="-3.37962">
        <ele>2811.2</ele>
        <time>2021-08-06 19:06:23</time>
      </trkpt>
      <trkpt lat="37.07895" lon="-3.37962">
        <ele>2811.2</ele>
        <time>2021-08-06 19:06:24</time>
      </trkpt>
      <trkpt lat="37.07895" lon="-3.37962">
        <ele>2811.2</ele>
        <time>2021-08-06 19:06:25</time>
      </trkpt>
      <trkpt lat="37.07895" lon="-3.37962">
        <ele>2811.2</ele>
        <time>2021-08-06 19:06:26</time>
      </trkpt>
      <trkpt lat="37.07895" lon="-3.37961">
        <ele>2811.2</ele>
        <time>2021-08-06 19:06:27</time>
      </trkpt>
      <trkpt lat="37.07896" lon="-3.37961">
        <ele>2811.2</ele>
        <time>2021-08-06 19:06:28</time>
      </trkpt>
      <trkpt lat="37.07896" lon="-3.37961">
        <ele>2811.2</ele>
        <time>2021-08-06 19:06:29</time>
      </trkpt>
      <trkpt lat="37.07896" lon="-3.37961">
        <ele>2811.2</ele>
        <time>2021-08-06 19:06:30</time>
      </trkpt>
      <trkpt lat="37.07896" lon="-3.37961">
        <ele>2811.2</ele>
        <time>2021-08-06 19:06:31</time>
      </trkpt>
      <trkpt lat="37.07896" lon="-3.37961">
        <ele>2811.2</ele>
        <time>2021-08-06 19:06:32</time>
      </trkpt>
      <trkpt lat="37.07896" lon="-3.37961">
        <ele>2811.2</ele>
        <time>2021-08-06 19:06:33</time>
      </trkpt>
      <trkpt lat="37.07896" lon="-3.37961">
        <ele>2811.2</ele>
        <time>2021-08-06 19:06:34</time>
      </trkpt>
      <trkpt lat="37.07896" lon="-3.37961">
        <ele>2811.2</ele>
        <time>2021-08-06 19:06:35</time>
      </trkpt>
      <trkpt lat="37.07896" lon="-3.37961">
        <ele>2811.2</ele>
        <time>2021-08-06 19:06:36</time>
      </trkpt>
      <trkpt lat="37.07896" lon="-3.37961">
        <ele>2811.2</ele>
        <time>2021-08-06 19:06:37</time>
      </trkpt>
      <trkpt lat="37.07896" lon="-3.37961">
        <ele>2811.2</ele>
        <time>2021-08-06 19:06:38</time>
      </trkpt>
      <trkpt lat="37.07896" lon="-3.37961">
        <ele>2811.2</ele>
        <time>2021-08-06 19:06:39</time>
      </trkpt>
      <trkpt lat="37.07896" lon="-3.37961">
        <ele>2811.2</ele>
        <time>2021-08-06 19:06:40</time>
      </trkpt>
      <trkpt lat="37.07896" lon="-3.37961">
        <ele>2811.2</ele>
        <time>2021-08-06 19:06:41</time>
      </trkpt>
      <trkpt lat="37.07895" lon="-3.37961">
        <ele>2811.2</ele>
        <time>2021-08-06 19:06:42</time>
      </trkpt>
      <trkpt lat="37.07895" lon="-3.37961">
        <ele>2811.2</ele>
        <time>2021-08-06 19:06:43</time>
      </trkpt>
      <trkpt lat="37.07895" lon="-3.37961">
        <ele>2811.2</ele>
        <time>2021-08-06 19:06:44</time>
      </trkpt>
      <trkpt lat="37.07895" lon="-3.37961">
        <ele>2811.2</ele>
        <time>2021-08-06 19:06:45</time>
      </trkpt>
      <trkpt lat="37.07895" lon="-3.37961">
        <ele>2811.2</ele>
        <time>2021-08-06 19:06:46</time>
      </trkpt>
      <trkpt lat="37.07895" lon="-3.37961">
        <ele>2811.2</ele>
        <time>2021-08-06 19:06:47</time>
      </trkpt>
      <trkpt lat="37.07895" lon="-3.37961">
        <ele>2811.2</ele>
        <time>2021-08-06 19:06:48</time>
      </trkpt>
      <trkpt lat="37.07895" lon="-3.37961">
        <ele>2811.2</ele>
        <time>2021-08-06 19:06:49</time>
      </trkpt>
      <trkpt lat="37.07895" lon="-3.37961">
        <ele>2811.2</ele>
        <time>2021-08-06 19:06:50</time>
      </trkpt>
      <trkpt lat="37.07895" lon="-3.37961">
        <ele>2811.2</ele>
        <time>2021-08-06 19:06:51</time>
      </trkpt>
      <trkpt lat="37.07895" lon="-3.37961">
        <ele>2811.2</ele>
        <time>2021-08-06 19:06:52</time>
      </trkpt>
      <trkpt lat="37.07895" lon="-3.37961">
        <ele>2811.2</ele>
        <time>2021-08-06 19:06:53</time>
      </trkpt>
      <trkpt lat="37.07895" lon="-3.37961">
        <ele>2811.2</ele>
        <time>2021-08-06 19:06:54</time>
      </trkpt>
      <trkpt lat="37.07895" lon="-3.37961">
        <ele>2811.2</ele>
        <time>2021-08-06 19:06:55</time>
      </trkpt>
      <trkpt lat="37.07895" lon="-3.37961">
        <ele>2811.2</ele>
        <time>2021-08-06 19:06:56</time>
      </trkpt>
      <trkpt lat="37.07895" lon="-3.37961">
        <ele>2811.2</ele>
        <time>2021-08-06 19:06:57</time>
      </trkpt>
      <trkpt lat="37.07895" lon="-3.37961">
        <ele>2811.2</ele>
        <time>2021-08-06 19:06:58</time>
      </trkpt>
      <trkpt lat="37.07895" lon="-3.37961">
        <ele>2811.2</ele>
        <time>2021-08-06 19:06:59</time>
      </trkpt>
      <trkpt lat="37.07895" lon="-3.37961">
        <ele>2811.2</ele>
        <time>2021-08-06 19:07:00</time>
      </trkpt>
      <trkpt lat="37.07895" lon="-3.37961">
        <ele>2811.2</ele>
        <time>2021-08-06 19:07:01</time>
      </trkpt>
      <trkpt lat="37.07895" lon="-3.37961">
        <ele>2811.2</ele>
        <time>2021-08-06 19:07:02</time>
      </trkpt>
      <trkpt lat="37.07895" lon="-3.37961">
        <ele>2811.2</ele>
        <time>2021-08-06 19:07:03</time>
      </trkpt>
      <trkpt lat="37.07895" lon="-3.37961">
        <ele>2811.2</ele>
        <time>2021-08-06 19:07:04</time>
      </trkpt>
      <trkpt lat="37.07895" lon="-3.37961">
        <ele>2811.2</ele>
        <time>2021-08-06 19:07:05</time>
      </trkpt>
      <trkpt lat="37.07895" lon="-3.37961">
        <ele>2811.2</ele>
        <time>2021-08-06 19:07:06</time>
      </trkpt>
      <trkpt lat="37.07894" lon="-3.37961">
        <ele>2811.2</ele>
        <time>2021-08-06 19:07:07</time>
      </trkpt>
      <trkpt lat="37.07894" lon="-3.37961">
        <ele>2811.2</ele>
        <time>2021-08-06 19:07:08</time>
      </trkpt>
      <trkpt lat="37.07894" lon="-3.37961">
        <ele>2811.2</ele>
        <time>2021-08-06 19:07:09</time>
      </trkpt>
      <trkpt lat="37.07894" lon="-3.37961">
        <ele>2811.2</ele>
        <time>2021-08-06 19:07:10</time>
      </trkpt>
      <trkpt lat="37.07894" lon="-3.37961">
        <ele>2811.2</ele>
        <time>2021-08-06 19:07:11</time>
      </trkpt>
      <trkpt lat="37.07894" lon="-3.37961">
        <ele>2811.2</ele>
        <time>2021-08-06 19:07:12</time>
      </trkpt>
      <trkpt lat="37.07894" lon="-3.37961">
        <ele>2811.2</ele>
        <time>2021-08-06 19:07:13</time>
      </trkpt>
      <trkpt lat="37.07893" lon="-3.37961">
        <ele>2811.2</ele>
        <time>2021-08-06 19:07:14</time>
      </trkpt>
      <trkpt lat="37.07893" lon="-3.37961">
        <ele>2811.2</ele>
        <time>2021-08-06 19:07:15</time>
      </trkpt>
      <trkpt lat="37.07893" lon="-3.3796">
        <ele>2811.2</ele>
        <time>2021-08-06 19:07:16</time>
      </trkpt>
      <trkpt lat="37.07894" lon="-3.3796">
        <ele>2811.2</ele>
        <time>2021-08-06 19:07:17</time>
      </trkpt>
      <trkpt lat="37.07894" lon="-3.3796">
        <ele>2811.2</ele>
        <time>2021-08-06 19:07:18</time>
      </trkpt>
      <trkpt lat="37.07894" lon="-3.3796">
        <ele>2811.2</ele>
        <time>2021-08-06 19:07:19</time>
      </trkpt>
      <trkpt lat="37.07894" lon="-3.3796">
        <ele>2811.2</ele>
        <time>2021-08-06 19:07:20</time>
      </trkpt>
      <trkpt lat="37.07894" lon="-3.3796">
        <ele>2811.2</ele>
        <time>2021-08-06 19:07:21</time>
      </trkpt>
      <trkpt lat="37.07894" lon="-3.3796">
        <ele>2811.2</ele>
        <time>2021-08-06 19:07:22</time>
      </trkpt>
      <trkpt lat="37.07894" lon="-3.3796">
        <ele>2811.2</ele>
        <time>2021-08-06 19:07:23</time>
      </trkpt>
      <trkpt lat="37.07895" lon="-3.3796">
        <ele>2811.2</ele>
        <time>2021-08-06 19:07:24</time>
      </trkpt>
      <trkpt lat="37.07895" lon="-3.3796">
        <ele>2811.2</ele>
        <time>2021-08-06 19:07:25</time>
      </trkpt>
      <trkpt lat="37.07895" lon="-3.3796">
        <ele>2811.2</ele>
        <time>2021-08-06 19:07:26</time>
      </trkpt>
      <trkpt lat="37.07894" lon="-3.3796">
        <ele>2811.2</ele>
        <time>2021-08-06 19:07:27</time>
      </trkpt>
      <trkpt lat="37.07894" lon="-3.3796">
        <ele>2811.2</ele>
        <time>2021-08-06 19:07:28</time>
      </trkpt>
      <trkpt lat="37.07894" lon="-3.3796">
        <ele>2811.2</ele>
        <time>2021-08-06 19:07:29</time>
      </trkpt>
      <trkpt lat="37.07894" lon="-3.3796">
        <ele>2811.2</ele>
        <time>2021-08-06 19:07:30</time>
      </trkpt>
      <trkpt lat="37.07894" lon="-3.3796">
        <ele>2811.2</ele>
        <time>2021-08-06 19:07:31</time>
      </trkpt>
      <trkpt lat="37.07894" lon="-3.3796">
        <ele>2811.2</ele>
        <time>2021-08-06 19:07:32</time>
      </trkpt>
      <trkpt lat="37.07894" lon="-3.37961">
        <ele>2811.2</ele>
        <time>2021-08-06 19:07:33</time>
      </trkpt>
      <trkpt lat="37.07894" lon="-3.37961">
        <ele>2811.2</ele>
        <time>2021-08-06 19:07:34</time>
      </trkpt>
      <trkpt lat="37.07894" lon="-3.37961">
        <ele>2811.2</ele>
        <time>2021-08-06 19:07:35</time>
      </trkpt>
      <trkpt lat="37.07894" lon="-3.37961">
        <ele>2811.2</ele>
        <time>2021-08-06 19:07:36</time>
      </trkpt>
      <trkpt lat="37.07894" lon="-3.37961">
        <ele>2811.2</ele>
        <time>2021-08-06 19:07:37</time>
      </trkpt>
      <trkpt lat="37.07894" lon="-3.37961">
        <ele>2811.2</ele>
        <time>2021-08-06 19:07:38</time>
      </trkpt>
      <trkpt lat="37.07894" lon="-3.37961">
        <ele>2811.2</ele>
        <time>2021-08-06 19:07:39</time>
      </trkpt>
      <trkpt lat="37.07894" lon="-3.3796">
        <ele>2811.2</ele>
        <time>2021-08-06 19:07:40</time>
      </trkpt>
      <trkpt lat="37.07894" lon="-3.3796">
        <ele>2811.2</ele>
        <time>2021-08-06 19:07:41</time>
      </trkpt>
      <trkpt lat="37.07894" lon="-3.3796">
        <ele>2811.2</ele>
        <time>2021-08-06 19:07:42</time>
      </trkpt>
      <trkpt lat="37.07893" lon="-3.3796">
        <ele>2811.2</ele>
        <time>2021-08-06 19:07:43</time>
      </trkpt>
      <trkpt lat="37.07893" lon="-3.3796">
        <ele>2811.2</ele>
        <time>2021-08-06 19:07:44</time>
      </trkpt>
      <trkpt lat="37.07893" lon="-3.3796">
        <ele>2811.2</ele>
        <time>2021-08-06 19:07:45</time>
      </trkpt>
      <trkpt lat="37.07893" lon="-3.3796">
        <ele>2811.2</ele>
        <time>2021-08-06 19:07:46</time>
      </trkpt>
      <trkpt lat="37.07893" lon="-3.3796">
        <ele>2811.2</ele>
        <time>2021-08-06 19:07:47</time>
      </trkpt>
      <trkpt lat="37.07894" lon="-3.3796">
        <ele>2811.2</ele>
        <time>2021-08-06 19:07:48</time>
      </trkpt>
      <trkpt lat="37.07894" lon="-3.3796">
        <ele>2811.2</ele>
        <time>2021-08-06 19:07:49</time>
      </trkpt>
      <trkpt lat="37.07894" lon="-3.3796">
        <ele>2811.2</ele>
        <time>2021-08-06 19:07:50</time>
      </trkpt>
      <trkpt lat="37.07895" lon="-3.3796">
        <ele>2811.2</ele>
        <time>2021-08-06 19:07:51</time>
      </trkpt>
      <trkpt lat="37.07895" lon="-3.3796">
        <ele>2811.2</ele>
        <time>2021-08-06 19:07:52</time>
      </trkpt>
      <trkpt lat="37.07895" lon="-3.3796">
        <ele>2811.2</ele>
        <time>2021-08-06 19:07:53</time>
      </trkpt>
      <trkpt lat="37.07895" lon="-3.37961">
        <ele>2811.2</ele>
        <time>2021-08-06 19:07:54</time>
      </trkpt>
      <trkpt lat="37.07895" lon="-3.37961">
        <ele>2811.2</ele>
        <time>2021-08-06 19:07:55</time>
      </trkpt>
      <trkpt lat="37.07894" lon="-3.37961">
        <ele>2811.2</ele>
        <time>2021-08-06 19:07:56</time>
      </trkpt>
      <trkpt lat="37.07894" lon="-3.37961">
        <ele>2811.2</ele>
        <time>2021-08-06 19:07:57</time>
      </trkpt>
      <trkpt lat="37.07894" lon="-3.37961">
        <ele>2811.2</ele>
        <time>2021-08-06 19:07:58</time>
      </trkpt>
      <trkpt lat="37.07894" lon="-3.3796">
        <ele>2811.2</ele>
        <time>2021-08-06 19:07:59</time>
      </trkpt>
      <trkpt lat="37.07894" lon="-3.3796">
        <ele>2811.2</ele>
        <time>2021-08-06 19:08:00</time>
      </trkpt>
      <trkpt lat="37.07894" lon="-3.3796">
        <ele>2811.2</ele>
        <time>2021-08-06 19:08:01</time>
      </trkpt>
      <trkpt lat="37.07894" lon="-3.3796">
        <ele>2811.2</ele>
        <time>2021-08-06 19:08:02</time>
      </trkpt>
      <trkpt lat="37.07894" lon="-3.3796">
        <ele>2811.2</ele>
        <time>2021-08-06 19:08:03</time>
      </trkpt>
      <trkpt lat="37.07894" lon="-3.3796">
        <ele>2811.2</ele>
        <time>2021-08-06 19:08:04</time>
      </trkpt>
      <trkpt lat="37.07894" lon="-3.3796">
        <ele>2811.2</ele>
        <time>2021-08-06 19:08:05</time>
      </trkpt>
      <trkpt lat="37.07894" lon="-3.3796">
        <ele>2811.2</ele>
        <time>2021-08-06 19:08:06</time>
      </trkpt>
      <trkpt lat="37.07894" lon="-3.3796">
        <ele>2811.2</ele>
        <time>2021-08-06 19:08:07</time>
      </trkpt>
      <trkpt lat="37.07894" lon="-3.3796">
        <ele>2811.2</ele>
        <time>2021-08-06 19:08:08</time>
      </trkpt>
      <trkpt lat="37.07894" lon="-3.3796">
        <ele>2811.2</ele>
        <time>2021-08-06 19:08:09</time>
      </trkpt>
      <trkpt lat="37.07894" lon="-3.3796">
        <ele>2811.2</ele>
        <time>2021-08-06 19:08:10</time>
      </trkpt>
      <trkpt lat="37.07893" lon="-3.3796">
        <ele>2811.2</ele>
        <time>2021-08-06 19:08:11</time>
      </trkpt>
      <trkpt lat="37.07894" lon="-3.3796">
        <ele>2811.2</ele>
        <time>2021-08-06 19:08:12</time>
      </trkpt>
      <trkpt lat="37.07894" lon="-3.3796">
        <ele>2811.2</ele>
        <time>2021-08-06 19:08:13</time>
      </trkpt>
      <trkpt lat="37.07894" lon="-3.3796">
        <ele>2811.2</ele>
        <time>2021-08-06 19:08:14</time>
      </trkpt>
      <trkpt lat="37.07894" lon="-3.3796">
        <ele>2811.2</ele>
        <time>2021-08-06 19:08:15</time>
      </trkpt>
      <trkpt lat="37.07894" lon="-3.3796">
        <ele>2811.2</ele>
        <time>2021-08-06 19:08:16</time>
      </trkpt>
      <trkpt lat="37.07894" lon="-3.3796">
        <ele>2811.2</ele>
        <time>2021-08-06 19:08:17</time>
      </trkpt>
      <trkpt lat="37.07893" lon="-3.3796">
        <ele>2811.2</ele>
        <time>2021-08-06 19:08:18</time>
      </trkpt>
      <trkpt lat="37.07893" lon="-3.3796">
        <ele>2811.2</ele>
        <time>2021-08-06 19:08:19</time>
      </trkpt>
      <trkpt lat="37.07893" lon="-3.3796">
        <ele>2811.2</ele>
        <time>2021-08-06 19:08:20</time>
      </trkpt>
      <trkpt lat="37.07893" lon="-3.37961">
        <ele>2811.2</ele>
        <time>2021-08-06 19:08:21</time>
      </trkpt>
      <trkpt lat="37.07893" lon="-3.37961">
        <ele>2811.2</ele>
        <time>2021-08-06 19:08:22</time>
      </trkpt>
      <trkpt lat="37.07893" lon="-3.37961">
        <ele>2811.2</ele>
        <time>2021-08-06 19:08:23</time>
      </trkpt>
      <trkpt lat="37.07893" lon="-3.37961">
        <ele>2811.2</ele>
        <time>2021-08-06 19:08:24</time>
      </trkpt>
      <trkpt lat="37.07893" lon="-3.37961">
        <ele>2811.2</ele>
        <time>2021-08-06 19:08:25</time>
      </trkpt>
      <trkpt lat="37.07893" lon="-3.37961">
        <ele>2811.2</ele>
        <time>2021-08-06 19:08:26</time>
      </trkpt>
      <trkpt lat="37.07893" lon="-3.37961">
        <ele>2811.2</ele>
        <time>2021-08-06 19:08:27</time>
      </trkpt>
      <trkpt lat="37.07893" lon="-3.37961">
        <ele>2811.2</ele>
        <time>2021-08-06 19:08:28</time>
      </trkpt>
      <trkpt lat="37.07893" lon="-3.37961">
        <ele>2811.2</ele>
        <time>2021-08-06 19:08:29</time>
      </trkpt>
      <trkpt lat="37.07893" lon="-3.37961">
        <ele>2811.2</ele>
        <time>2021-08-06 19:08:30</time>
      </trkpt>
      <trkpt lat="37.07893" lon="-3.37961">
        <ele>2811.2</ele>
        <time>2021-08-06 19:08:31</time>
      </trkpt>
      <trkpt lat="37.07893" lon="-3.37961">
        <ele>2811.2</ele>
        <time>2021-08-06 19:08:32</time>
      </trkpt>
      <trkpt lat="37.07893" lon="-3.37961">
        <ele>2811.2</ele>
        <time>2021-08-06 19:08:33</time>
      </trkpt>
      <trkpt lat="37.07893" lon="-3.37961">
        <ele>2811.2</ele>
        <time>2021-08-06 19:08:34</time>
      </trkpt>
      <trkpt lat="37.07893" lon="-3.37961">
        <ele>2811.2</ele>
        <time>2021-08-06 19:08:35</time>
      </trkpt>
      <trkpt lat="37.07893" lon="-3.37961">
        <ele>2811.2</ele>
        <time>2021-08-06 19:08:36</time>
      </trkpt>
      <trkpt lat="37.07893" lon="-3.37961">
        <ele>2811.2</ele>
        <time>2021-08-06 19:08:37</time>
      </trkpt>
      <trkpt lat="37.07893" lon="-3.37961">
        <ele>2811.2</ele>
        <time>2021-08-06 19:08:38</time>
      </trkpt>
      <trkpt lat="37.07893" lon="-3.37961">
        <ele>2811.2</ele>
        <time>2021-08-06 19:08:39</time>
      </trkpt>
      <trkpt lat="37.07893" lon="-3.37961">
        <ele>2811.2</ele>
        <time>2021-08-06 19:08:40</time>
      </trkpt>
      <trkpt lat="37.07893" lon="-3.37961">
        <ele>2811.2</ele>
        <time>2021-08-06 19:08:41</time>
      </trkpt>
      <trkpt lat="37.07893" lon="-3.37961">
        <ele>2811.2</ele>
        <time>2021-08-06 19:08:42</time>
      </trkpt>
      <trkpt lat="37.07893" lon="-3.37961">
        <ele>2811.2</ele>
        <time>2021-08-06 19:08:43</time>
      </trkpt>
      <trkpt lat="37.07893" lon="-3.37961">
        <ele>2811.2</ele>
        <time>2021-08-06 19:08:44</time>
      </trkpt>
      <trkpt lat="37.07893" lon="-3.37961">
        <ele>2811.2</ele>
        <time>2021-08-06 19:08:45</time>
      </trkpt>
      <trkpt lat="37.07893" lon="-3.37961">
        <ele>2811.2</ele>
        <time>2021-08-06 19:08:46</time>
      </trkpt>
      <trkpt lat="37.07893" lon="-3.37961">
        <ele>2811.2</ele>
        <time>2021-08-06 19:08:47</time>
      </trkpt>
      <trkpt lat="37.07893" lon="-3.37961">
        <ele>2811.2</ele>
        <time>2021-08-06 19:08:48</time>
      </trkpt>
      <trkpt lat="37.07893" lon="-3.37961">
        <ele>2811.2</ele>
        <time>2021-08-06 19:08:49</time>
      </trkpt>
      <trkpt lat="37.07893" lon="-3.37961">
        <ele>2811.2</ele>
        <time>2021-08-06 19:08:50</time>
      </trkpt>
      <trkpt lat="37.07893" lon="-3.37961">
        <ele>2811.2</ele>
        <time>2021-08-06 19:08:51</time>
      </trkpt>
      <trkpt lat="37.07893" lon="-3.37961">
        <ele>2811.2</ele>
        <time>2021-08-06 19:08:52</time>
      </trkpt>
      <trkpt lat="37.07893" lon="-3.37961">
        <ele>2811.2</ele>
        <time>2021-08-06 19:08:53</time>
      </trkpt>
      <trkpt lat="37.07893" lon="-3.37961">
        <ele>2811.2</ele>
        <time>2021-08-06 19:08:54</time>
      </trkpt>
      <trkpt lat="37.07893" lon="-3.37961">
        <ele>2811.2</ele>
        <time>2021-08-06 19:08:55</time>
      </trkpt>
      <trkpt lat="37.07893" lon="-3.37961">
        <ele>2811.2</ele>
        <time>2021-08-06 19:08:56</time>
      </trkpt>
      <trkpt lat="37.07893" lon="-3.37961">
        <ele>2811.2</ele>
        <time>2021-08-06 19:08:57</time>
      </trkpt>
      <trkpt lat="37.07893" lon="-3.37961">
        <ele>2811.2</ele>
        <time>2021-08-06 19:08:58</time>
      </trkpt>
      <trkpt lat="37.07893" lon="-3.37961">
        <ele>2811.2</ele>
        <time>2021-08-06 19:08:59</time>
      </trkpt>
      <trkpt lat="37.07893" lon="-3.37961">
        <ele>2811.2</ele>
        <time>2021-08-06 19:09:00</time>
      </trkpt>
      <trkpt lat="37.07893" lon="-3.37961">
        <ele>2811.2</ele>
        <time>2021-08-06 19:09:01</time>
      </trkpt>
      <trkpt lat="37.07894" lon="-3.37961">
        <ele>2811.2</ele>
        <time>2021-08-06 19:09:02</time>
      </trkpt>
      <trkpt lat="37.07894" lon="-3.37961">
        <ele>2811.2</ele>
        <time>2021-08-06 19:09:03</time>
      </trkpt>
      <trkpt lat="37.07894" lon="-3.37961">
        <ele>2811.2</ele>
        <time>2021-08-06 19:09:04</time>
      </trkpt>
      <trkpt lat="37.07894" lon="-3.37961">
        <ele>2811.2</ele>
        <time>2021-08-06 19:09:05</time>
      </trkpt>
      <trkpt lat="37.07894" lon="-3.37961">
        <ele>2811.2</ele>
        <time>2021-08-06 19:09:06</time>
      </trkpt>
      <trkpt lat="37.07894" lon="-3.37961">
        <ele>2811.2</ele>
        <time>2021-08-06 19:09:07</time>
      </trkpt>
      <trkpt lat="37.07894" lon="-3.37961">
        <ele>2811.2</ele>
        <time>2021-08-06 19:09:08</time>
      </trkpt>
      <trkpt lat="37.07894" lon="-3.37961">
        <ele>2811.2</ele>
        <time>2021-08-06 19:09:09</time>
      </trkpt>
      <trkpt lat="37.07894" lon="-3.37961">
        <ele>2811.2</ele>
        <time>2021-08-06 19:09:10</time>
      </trkpt>
      <trkpt lat="37.07894" lon="-3.37961">
        <ele>2811.2</ele>
        <time>2021-08-06 19:09:11</time>
      </trkpt>
      <trkpt lat="37.07894" lon="-3.37961">
        <ele>2811.2</ele>
        <time>2021-08-06 19:09:12</time>
      </trkpt>
      <trkpt lat="37.07894" lon="-3.37961">
        <ele>2811.2</ele>
        <time>2021-08-06 19:09:13</time>
      </trkpt>
      <trkpt lat="37.07894" lon="-3.3796">
        <ele>2811.2</ele>
        <time>2021-08-06 19:09:14</time>
      </trkpt>
      <trkpt lat="37.07894" lon="-3.3796">
        <ele>2811.2</ele>
        <time>2021-08-06 19:09:15</time>
      </trkpt>
      <trkpt lat="37.07894" lon="-3.3796">
        <ele>2811.2</ele>
        <time>2021-08-06 19:09:16</time>
      </trkpt>
      <trkpt lat="37.07894" lon="-3.3796">
        <ele>2811.2</ele>
        <time>2021-08-06 19:09:17</time>
      </trkpt>
      <trkpt lat="37.07894" lon="-3.3796">
        <ele>2811.2</ele>
        <time>2021-08-06 19:09:18</time>
      </trkpt>
      <trkpt lat="37.07894" lon="-3.3796">
        <ele>2811.2</ele>
        <time>2021-08-06 19:09:19</time>
      </trkpt>
      <trkpt lat="37.07894" lon="-3.3796">
        <ele>2811.2</ele>
        <time>2021-08-06 19:09:20</time>
      </trkpt>
      <trkpt lat="37.07895" lon="-3.3796">
        <ele>2811.2</ele>
        <time>2021-08-06 19:09:21</time>
      </trkpt>
      <trkpt lat="37.07895" lon="-3.3796">
        <ele>2811.2</ele>
        <time>2021-08-06 19:09:22</time>
      </trkpt>
      <trkpt lat="37.07895" lon="-3.3796">
        <ele>2811.2</ele>
        <time>2021-08-06 19:09:23</time>
      </trkpt>
      <trkpt lat="37.07895" lon="-3.3796">
        <ele>2811.2</ele>
        <time>2021-08-06 19:09:24</time>
      </trkpt>
      <trkpt lat="37.07895" lon="-3.3796">
        <ele>2811.2</ele>
        <time>2021-08-06 19:09:25</time>
      </trkpt>
      <trkpt lat="37.07895" lon="-3.3796">
        <ele>2811.2</ele>
        <time>2021-08-06 19:09:26</time>
      </trkpt>
      <trkpt lat="37.07894" lon="-3.3796">
        <ele>2811.2</ele>
        <time>2021-08-06 19:09:27</time>
      </trkpt>
      <trkpt lat="37.07894" lon="-3.3796">
        <ele>2811.2</ele>
        <time>2021-08-06 19:09:28</time>
      </trkpt>
      <trkpt lat="37.07894" lon="-3.3796">
        <ele>2811.2</ele>
        <time>2021-08-06 19:09:29</time>
      </trkpt>
      <trkpt lat="37.07894" lon="-3.3796">
        <ele>2811.2</ele>
        <time>2021-08-06 19:09:30</time>
      </trkpt>
      <trkpt lat="37.07894" lon="-3.3796">
        <ele>2811.2</ele>
        <time>2021-08-06 19:09:31</time>
      </trkpt>
      <trkpt lat="37.07894" lon="-3.3796">
        <ele>2811.2</ele>
        <time>2021-08-06 19:09:32</time>
      </trkpt>
      <trkpt lat="37.07894" lon="-3.3796">
        <ele>2811.2</ele>
        <time>2021-08-06 19:09:33</time>
      </trkpt>
      <trkpt lat="37.07894" lon="-3.37961">
        <ele>2811.2</ele>
        <time>2021-08-06 19:09:34</time>
      </trkpt>
      <trkpt lat="37.07894" lon="-3.37961">
        <ele>2811.2</ele>
        <time>2021-08-06 19:09:35</time>
      </trkpt>
      <trkpt lat="37.07893" lon="-3.37961">
        <ele>2811.2</ele>
        <time>2021-08-06 19:09:36</time>
      </trkpt>
      <trkpt lat="37.07893" lon="-3.37961">
        <ele>2811.2</ele>
        <time>2021-08-06 19:09:37</time>
      </trkpt>
      <trkpt lat="37.07893" lon="-3.37961">
        <ele>2811.2</ele>
        <time>2021-08-06 19:09:38</time>
      </trkpt>
      <trkpt lat="37.07893" lon="-3.37961">
        <ele>2811.2</ele>
        <time>2021-08-06 19:09:39</time>
      </trkpt>
      <trkpt lat="37.07893" lon="-3.37961">
        <ele>2811.2</ele>
        <time>2021-08-06 19:09:40</time>
      </trkpt>
      <trkpt lat="37.07893" lon="-3.37961">
        <ele>2811.2</ele>
        <time>2021-08-06 19:09:41</time>
      </trkpt>
      <trkpt lat="37.07893" lon="-3.37961">
        <ele>2811.2</ele>
        <time>2021-08-06 19:09:42</time>
      </trkpt>
      <trkpt lat="37.07893" lon="-3.37961">
        <ele>2811.2</ele>
        <time>2021-08-06 19:09:43</time>
      </trkpt>
      <trkpt lat="37.07893" lon="-3.37961">
        <ele>2811.2</ele>
        <time>2021-08-06 19:09:44</time>
      </trkpt>
      <trkpt lat="37.07893" lon="-3.37961">
        <ele>2811.2</ele>
        <time>2021-08-06 19:09:45</time>
      </trkpt>
      <trkpt lat="37.07893" lon="-3.37961">
        <ele>2811.2</ele>
        <time>2021-08-06 19:09:46</time>
      </trkpt>
      <trkpt lat="37.07893" lon="-3.37961">
        <ele>2811.2</ele>
        <time>2021-08-06 19:09:47</time>
      </trkpt>
      <trkpt lat="37.07893" lon="-3.37961">
        <ele>2811.2</ele>
        <time>2021-08-06 19:09:48</time>
      </trkpt>
      <trkpt lat="37.07893" lon="-3.37961">
        <ele>2811.2</ele>
        <time>2021-08-06 19:09:49</time>
      </trkpt>
      <trkpt lat="37.07893" lon="-3.37961">
        <ele>2811.2</ele>
        <time>2021-08-06 19:09:50</time>
      </trkpt>
      <trkpt lat="37.07893" lon="-3.37961">
        <ele>2811.2</ele>
        <time>2021-08-06 19:09:51</time>
      </trkpt>
      <trkpt lat="37.07893" lon="-3.37961">
        <ele>2811.2</ele>
        <time>2021-08-06 19:09:52</time>
      </trkpt>
      <trkpt lat="37.07893" lon="-3.37961">
        <ele>2811.2</ele>
        <time>2021-08-06 19:09:53</time>
      </trkpt>
      <trkpt lat="37.07893" lon="-3.37961">
        <ele>2811.2</ele>
        <time>2021-08-06 19:09:54</time>
      </trkpt>
      <trkpt lat="37.07893" lon="-3.37961">
        <ele>2811.2</ele>
        <time>2021-08-06 19:09:55</time>
      </trkpt>
      <trkpt lat="37.07893" lon="-3.37961">
        <ele>2811.2</ele>
        <time>2021-08-06 19:09:56</time>
      </trkpt>
      <trkpt lat="37.07893" lon="-3.37961">
        <ele>2811.2</ele>
        <time>2021-08-06 19:09:57</time>
      </trkpt>
      <trkpt lat="37.07893" lon="-3.37961">
        <ele>2811.2</ele>
        <time>2021-08-06 19:09:58</time>
      </trkpt>
      <trkpt lat="37.07893" lon="-3.37961">
        <ele>2811.2</ele>
        <time>2021-08-06 19:09:59</time>
      </trkpt>
      <trkpt lat="37.07893" lon="-3.37961">
        <ele>2811.2</ele>
        <time>2021-08-06 19:10:00</time>
      </trkpt>
      <trkpt lat="37.07893" lon="-3.37961">
        <ele>2811.2</ele>
        <time>2021-08-06 19:10:01</time>
      </trkpt>
      <trkpt lat="37.07893" lon="-3.37961">
        <ele>2811.2</ele>
        <time>2021-08-06 19:10:02</time>
      </trkpt>
      <trkpt lat="37.07893" lon="-3.37961">
        <ele>2811.2</ele>
        <time>2021-08-06 19:10:03</time>
      </trkpt>
      <trkpt lat="37.07893" lon="-3.37961">
        <ele>2811.2</ele>
        <time>2021-08-06 19:10:04</time>
      </trkpt>
      <trkpt lat="37.07893" lon="-3.37961">
        <ele>2811.2</ele>
        <time>2021-08-06 19:10:05</time>
      </trkpt>
      <trkpt lat="37.07893" lon="-3.37961">
        <ele>2811.2</ele>
        <time>2021-08-06 19:10:06</time>
      </trkpt>
      <trkpt lat="37.07893" lon="-3.37961">
        <ele>2811.2</ele>
        <time>2021-08-06 19:10:07</time>
      </trkpt>
      <trkpt lat="37.07893" lon="-3.37961">
        <ele>2811.2</ele>
        <time>2021-08-06 19:10:08</time>
      </trkpt>
      <trkpt lat="37.07893" lon="-3.37961">
        <ele>2811.2</ele>
        <time>2021-08-06 19:10:09</time>
      </trkpt>
      <trkpt lat="37.07893" lon="-3.37961">
        <ele>2811.2</ele>
        <time>2021-08-06 19:10:10</time>
      </trkpt>
      <trkpt lat="37.07893" lon="-3.37961">
        <ele>2811.2</ele>
        <time>2021-08-06 19:10:11</time>
      </trkpt>
      <trkpt lat="37.07893" lon="-3.37961">
        <ele>2811.2</ele>
        <time>2021-08-06 19:10:12</time>
      </trkpt>
      <trkpt lat="37.07893" lon="-3.37961">
        <ele>2811.2</ele>
        <time>2021-08-06 19:10:13</time>
      </trkpt>
      <trkpt lat="37.07893" lon="-3.37961">
        <ele>2811.2</ele>
        <time>2021-08-06 19:10:14</time>
      </trkpt>
      <trkpt lat="37.07893" lon="-3.37961">
        <ele>2811.2</ele>
        <time>2021-08-06 19:10:15</time>
      </trkpt>
      <trkpt lat="37.07893" lon="-3.37961">
        <ele>2811.2</ele>
        <time>2021-08-06 19:10:16</time>
      </trkpt>
      <trkpt lat="37.07893" lon="-3.37961">
        <ele>2811.2</ele>
        <time>2021-08-06 19:10:17</time>
      </trkpt>
      <trkpt lat="37.07893" lon="-3.37961">
        <ele>2811.2</ele>
        <time>2021-08-06 19:10:18</time>
      </trkpt>
      <trkpt lat="37.07893" lon="-3.37961">
        <ele>2811.2</ele>
        <time>2021-08-06 19:10:19</time>
      </trkpt>
      <trkpt lat="37.07893" lon="-3.37961">
        <ele>2811.2</ele>
        <time>2021-08-06 19:10:20</time>
      </trkpt>
      <trkpt lat="37.07893" lon="-3.37961">
        <ele>2811.2</ele>
        <time>2021-08-06 19:10:21</time>
      </trkpt>
      <trkpt lat="37.07893" lon="-3.37961">
        <ele>2811.2</ele>
        <time>2021-08-06 19:10:22</time>
      </trkpt>
      <trkpt lat="37.07893" lon="-3.37961">
        <ele>2811.2</ele>
        <time>2021-08-06 19:10:23</time>
      </trkpt>
      <trkpt lat="37.07893" lon="-3.37961">
        <ele>2811.2</ele>
        <time>2021-08-06 19:10:24</time>
      </trkpt>
      <trkpt lat="37.07893" lon="-3.37961">
        <ele>2811.2</ele>
        <time>2021-08-06 19:10:25</time>
      </trkpt>
      <trkpt lat="37.07893" lon="-3.37961">
        <ele>2811.2</ele>
        <time>2021-08-06 19:10:26</time>
      </trkpt>
      <trkpt lat="37.07893" lon="-3.37961">
        <ele>2811.2</ele>
        <time>2021-08-06 19:10:27</time>
      </trkpt>
      <trkpt lat="37.07893" lon="-3.37961">
        <ele>2811.2</ele>
        <time>2021-08-06 19:10:28</time>
      </trkpt>
      <trkpt lat="37.07893" lon="-3.37961">
        <ele>2811.2</ele>
        <time>2021-08-06 19:10:29</time>
      </trkpt>
      <trkpt lat="37.07893" lon="-3.37961">
        <ele>2811.2</ele>
        <time>2021-08-06 19:10:30</time>
      </trkpt>
      <trkpt lat="37.07893" lon="-3.37961">
        <ele>2811.2</ele>
        <time>2021-08-06 19:10:31</time>
      </trkpt>
      <trkpt lat="37.07893" lon="-3.37961">
        <ele>2811.2</ele>
        <time>2021-08-06 19:10:32</time>
      </trkpt>
      <trkpt lat="37.07893" lon="-3.37961">
        <ele>2811.2</ele>
        <time>2021-08-06 19:10:33</time>
      </trkpt>
      <trkpt lat="37.07893" lon="-3.37961">
        <ele>2811.2</ele>
        <time>2021-08-06 19:10:34</time>
      </trkpt>
      <trkpt lat="37.07893" lon="-3.37961">
        <ele>2811.2</ele>
        <time>2021-08-06 19:10:35</time>
      </trkpt>
      <trkpt lat="37.07893" lon="-3.37961">
        <ele>2811.2</ele>
        <time>2021-08-06 19:10:36</time>
      </trkpt>
      <trkpt lat="37.07893" lon="-3.3796">
        <ele>2811.2</ele>
        <time>2021-08-06 19:10:37</time>
      </trkpt>
      <trkpt lat="37.07893" lon="-3.3796">
        <ele>2811.2</ele>
        <time>2021-08-06 19:10:38</time>
      </trkpt>
      <trkpt lat="37.07893" lon="-3.3796">
        <ele>2811.2</ele>
        <time>2021-08-06 19:10:39</time>
      </trkpt>
      <trkpt lat="37.07893" lon="-3.3796">
        <ele>2811.2</ele>
        <time>2021-08-06 19:10:40</time>
      </trkpt>
      <trkpt lat="37.07893" lon="-3.3796">
        <ele>2811.2</ele>
        <time>2021-08-06 19:10:41</time>
      </trkpt>
      <trkpt lat="37.07893" lon="-3.3796">
        <ele>2811.2</ele>
        <time>2021-08-06 19:10:42</time>
      </trkpt>
      <trkpt lat="37.07894" lon="-3.3796">
        <ele>2811.2</ele>
        <time>2021-08-06 19:10:43</time>
      </trkpt>
      <trkpt lat="37.07894" lon="-3.37961">
        <ele>2811.2</ele>
        <time>2021-08-06 19:10:44</time>
      </trkpt>
      <trkpt lat="37.07894" lon="-3.37961">
        <ele>2811.2</ele>
        <time>2021-08-06 19:10:45</time>
      </trkpt>
      <trkpt lat="37.07894" lon="-3.3796">
        <ele>2811.2</ele>
        <time>2021-08-06 19:10:46</time>
      </trkpt>
      <trkpt lat="37.07894" lon="-3.37961">
        <ele>2811.2</ele>
        <time>2021-08-06 19:10:47</time>
      </trkpt>
      <trkpt lat="37.07894" lon="-3.37961">
        <ele>2811.2</ele>
        <time>2021-08-06 19:10:48</time>
      </trkpt>
      <trkpt lat="37.07894" lon="-3.37961">
        <ele>2811.2</ele>
        <time>2021-08-06 19:10:49</time>
      </trkpt>
      <trkpt lat="37.07893" lon="-3.37961">
        <ele>2811.2</ele>
        <time>2021-08-06 19:10:50</time>
      </trkpt>
      <trkpt lat="37.07893" lon="-3.37961">
        <ele>2811.2</ele>
        <time>2021-08-06 19:10:51</time>
      </trkpt>
      <trkpt lat="37.07893" lon="-3.37961">
        <ele>2811.2</ele>
        <time>2021-08-06 19:10:52</time>
      </trkpt>
      <trkpt lat="37.07893" lon="-3.3796">
        <ele>2811.2</ele>
        <time>2021-08-06 19:10:53</time>
      </trkpt>
      <trkpt lat="37.07893" lon="-3.3796">
        <ele>2811.2</ele>
        <time>2021-08-06 19:10:54</time>
      </trkpt>
      <trkpt lat="37.07893" lon="-3.3796">
        <ele>2811.2</ele>
        <time>2021-08-06 19:10:55</time>
      </trkpt>
      <trkpt lat="37.07893" lon="-3.3796">
        <ele>2811.2</ele>
        <time>2021-08-06 19:10:56</time>
      </trkpt>
      <trkpt lat="37.07893" lon="-3.37961">
        <ele>2811.2</ele>
        <time>2021-08-06 19:10:57</time>
      </trkpt>
      <trkpt lat="37.07893" lon="-3.37961">
        <ele>2811.2</ele>
        <time>2021-08-06 19:10:58</time>
      </trkpt>
      <trkpt lat="37.07894" lon="-3.37961">
        <ele>2811.2</ele>
        <time>2021-08-06 19:10:59</time>
      </trkpt>
      <trkpt lat="37.07894" lon="-3.37961">
        <ele>2811.2</ele>
        <time>2021-08-06 19:11:00</time>
      </trkpt>
      <trkpt lat="37.07894" lon="-3.37961">
        <ele>2811.2</ele>
        <time>2021-08-06 19:11:01</time>
      </trkpt>
      <trkpt lat="37.07894" lon="-3.37961">
        <ele>2811.2</ele>
        <time>2021-08-06 19:11:02</time>
      </trkpt>
      <trkpt lat="37.07894" lon="-3.37961">
        <ele>2811.2</ele>
        <time>2021-08-06 19:11:03</time>
      </trkpt>
      <trkpt lat="37.07894" lon="-3.37961">
        <ele>2811.2</ele>
        <time>2021-08-06 19:11:04</time>
      </trkpt>
      <trkpt lat="37.07894" lon="-3.37962">
        <ele>2811.2</ele>
        <time>2021-08-06 19:11:05</time>
      </trkpt>
      <trkpt lat="37.07894" lon="-3.37962">
        <ele>2811.2</ele>
        <time>2021-08-06 19:11:06</time>
      </trkpt>
      <trkpt lat="37.07894" lon="-3.37962">
        <ele>2811.2</ele>
        <time>2021-08-06 19:11:07</time>
      </trkpt>
      <trkpt lat="37.07895" lon="-3.37962">
        <ele>2811.2</ele>
        <time>2021-08-06 19:11:08</time>
      </trkpt>
      <trkpt lat="37.07895" lon="-3.37962">
        <ele>2811.2</ele>
        <time>2021-08-06 19:11:09</time>
      </trkpt>
      <trkpt lat="37.07895" lon="-3.37962">
        <ele>2811.2</ele>
        <time>2021-08-06 19:11:10</time>
      </trkpt>
      <trkpt lat="37.07895" lon="-3.37961">
        <ele>2811.2</ele>
        <time>2021-08-06 19:11:11</time>
      </trkpt>
      <trkpt lat="37.07895" lon="-3.37961">
        <ele>2811.2</ele>
        <time>2021-08-06 19:11:12</time>
      </trkpt>
      <trkpt lat="37.07895" lon="-3.37961">
        <ele>2811.2</ele>
        <time>2021-08-06 19:11:13</time>
      </trkpt>
      <trkpt lat="37.07895" lon="-3.37961">
        <ele>2811.2</ele>
        <time>2021-08-06 19:11:14</time>
      </trkpt>
      <trkpt lat="37.07895" lon="-3.37961">
        <ele>2811.2</ele>
        <time>2021-08-06 19:11:15</time>
      </trkpt>
      <trkpt lat="37.07895" lon="-3.37961">
        <ele>2811.2</ele>
        <time>2021-08-06 19:11:16</time>
      </trkpt>
      <trkpt lat="37.07896" lon="-3.37961">
        <ele>2811.2</ele>
        <time>2021-08-06 19:11:17</time>
      </trkpt>
      <trkpt lat="37.07896" lon="-3.37961">
        <ele>2811.2</ele>
        <time>2021-08-06 19:11:18</time>
      </trkpt>
      <trkpt lat="37.07896" lon="-3.37961">
        <ele>2811.2</ele>
        <time>2021-08-06 19:11:19</time>
      </trkpt>
      <trkpt lat="37.07896" lon="-3.37961">
        <ele>2811.2</ele>
        <time>2021-08-06 19:11:20</time>
      </trkpt>
      <trkpt lat="37.07896" lon="-3.37961">
        <ele>2811.2</ele>
        <time>2021-08-06 19:11:21</time>
      </trkpt>
      <trkpt lat="37.07896" lon="-3.37961">
        <ele>2811.2</ele>
        <time>2021-08-06 19:11:22</time>
      </trkpt>
      <trkpt lat="37.07896" lon="-3.37961">
        <ele>2811.2</ele>
        <time>2021-08-06 19:11:23</time>
      </trkpt>
      <trkpt lat="37.07896" lon="-3.3796">
        <ele>2811.2</ele>
        <time>2021-08-06 19:11:24</time>
      </trkpt>
      <trkpt lat="37.07896" lon="-3.3796">
        <ele>2811.2</ele>
        <time>2021-08-06 19:11:25</time>
      </trkpt>
      <trkpt lat="37.07896" lon="-3.3796">
        <ele>2811.2</ele>
        <time>2021-08-06 19:11:26</time>
      </trkpt>
      <trkpt lat="37.07896" lon="-3.3796">
        <ele>2811.2</ele>
        <time>2021-08-06 19:11:27</time>
      </trkpt>
      <trkpt lat="37.07896" lon="-3.3796">
        <ele>2811.2</ele>
        <time>2021-08-06 19:11:28</time>
      </trkpt>
      <trkpt lat="37.07896" lon="-3.3796">
        <ele>2811.2</ele>
        <time>2021-08-06 19:11:29</time>
      </trkpt>
      <trkpt lat="37.07896" lon="-3.3796">
        <ele>2811.2</ele>
        <time>2021-08-06 19:11:30</time>
      </trkpt>
      <trkpt lat="37.07896" lon="-3.3796">
        <ele>2811.2</ele>
        <time>2021-08-06 19:11:31</time>
      </trkpt>
      <trkpt lat="37.07896" lon="-3.3796">
        <ele>2811.2</ele>
        <time>2021-08-06 19:11:32</time>
      </trkpt>
      <trkpt lat="37.07896" lon="-3.3796">
        <ele>2811.2</ele>
        <time>2021-08-06 19:11:33</time>
      </trkpt>
      <trkpt lat="37.07896" lon="-3.3796">
        <ele>2811.2</ele>
        <time>2021-08-06 19:11:34</time>
      </trkpt>
      <trkpt lat="37.07896" lon="-3.3796">
        <ele>2811.2</ele>
        <time>2021-08-06 19:11:35</time>
      </trkpt>
      <trkpt lat="37.07896" lon="-3.3796">
        <ele>2811.2</ele>
        <time>2021-08-06 19:11:36</time>
      </trkpt>
      <trkpt lat="37.07896" lon="-3.3796">
        <ele>2811.2</ele>
        <time>2021-08-06 19:11:37</time>
      </trkpt>
      <trkpt lat="37.07896" lon="-3.3796">
        <ele>2811.2</ele>
        <time>2021-08-06 19:11:38</time>
      </trkpt>
      <trkpt lat="37.07896" lon="-3.3796">
        <ele>2811.2</ele>
        <time>2021-08-06 19:11:39</time>
      </trkpt>
      <trkpt lat="37.07896" lon="-3.3796">
        <ele>2811.2</ele>
        <time>2021-08-06 19:11:40</time>
      </trkpt>
      <trkpt lat="37.07896" lon="-3.3796">
        <ele>2811.2</ele>
        <time>2021-08-06 19:11:41</time>
      </trkpt>
      <trkpt lat="37.07897" lon="-3.37961">
        <ele>2811.2</ele>
        <time>2021-08-06 19:11:42</time>
      </trkpt>
      <trkpt lat="37.07897" lon="-3.37961">
        <ele>2811.2</ele>
        <time>2021-08-06 19:11:43</time>
      </trkpt>
      <trkpt lat="37.07897" lon="-3.37961">
        <ele>2811.2</ele>
        <time>2021-08-06 19:11:44</time>
      </trkpt>
      <trkpt lat="37.07897" lon="-3.37961">
        <ele>2811.2</ele>
        <time>2021-08-06 19:11:45</time>
      </trkpt>
      <trkpt lat="37.07896" lon="-3.37961">
        <ele>2811.2</ele>
        <time>2021-08-06 19:11:46</time>
      </trkpt>
      <trkpt lat="37.07896" lon="-3.37961">
        <ele>2811.2</ele>
        <time>2021-08-06 19:11:47</time>
      </trkpt>
      <trkpt lat="37.07896" lon="-3.37961">
        <ele>2811.2</ele>
        <time>2021-08-06 19:11:48</time>
      </trkpt>
      <trkpt lat="37.07897" lon="-3.37961">
        <ele>2811.2</ele>
        <time>2021-08-06 19:11:49</time>
      </trkpt>
      <trkpt lat="37.07897" lon="-3.37961">
        <ele>2811.2</ele>
        <time>2021-08-06 19:11:50</time>
      </trkpt>
      <trkpt lat="37.07897" lon="-3.3796">
        <ele>2811.2</ele>
        <time>2021-08-06 19:11:51</time>
      </trkpt>
      <trkpt lat="37.07897" lon="-3.3796">
        <ele>2811.2</ele>
        <time>2021-08-06 19:11:52</time>
      </trkpt>
      <trkpt lat="37.07897" lon="-3.3796">
        <ele>2811.2</ele>
        <time>2021-08-06 19:11:53</time>
      </trkpt>
      <trkpt lat="37.07897" lon="-3.3796">
        <ele>2811.2</ele>
        <time>2021-08-06 19:11:54</time>
      </trkpt>
      <trkpt lat="37.07897" lon="-3.3796">
        <ele>2811.2</ele>
        <time>2021-08-06 19:11:55</time>
      </trkpt>
      <trkpt lat="37.07897" lon="-3.3796">
        <ele>2811.2</ele>
        <time>2021-08-06 19:11:56</time>
      </trkpt>
      <trkpt lat="37.07898" lon="-3.3796">
        <ele>2811.2</ele>
        <time>2021-08-06 19:11:57</time>
      </trkpt>
      <trkpt lat="37.07898" lon="-3.3796">
        <ele>2811.2</ele>
        <time>2021-08-06 19:11:58</time>
      </trkpt>
      <trkpt lat="37.07898" lon="-3.3796">
        <ele>2811.2</ele>
        <time>2021-08-06 19:11:59</time>
      </trkpt>
      <trkpt lat="37.07898" lon="-3.37959">
        <ele>2811.2</ele>
        <time>2021-08-06 19:12:00</time>
      </trkpt>
      <trkpt lat="37.07898" lon="-3.37959">
        <ele>2811.2</ele>
        <time>2021-08-06 19:12:01</time>
      </trkpt>
      <trkpt lat="37.07898" lon="-3.3796">
        <ele>2811.2</ele>
        <time>2021-08-06 19:12:02</time>
      </trkpt>
      <trkpt lat="37.07898" lon="-3.3796">
        <ele>2811.2</ele>
        <time>2021-08-06 19:12:03</time>
      </trkpt>
      <trkpt lat="37.07898" lon="-3.37959">
        <ele>2811.2</ele>
        <time>2021-08-06 19:12:04</time>
      </trkpt>
      <trkpt lat="37.07898" lon="-3.37959">
        <ele>2811.2</ele>
        <time>2021-08-06 19:12:05</time>
      </trkpt>
      <trkpt lat="37.07898" lon="-3.37959">
        <ele>2811.2</ele>
        <time>2021-08-06 19:12:06</time>
      </trkpt>
      <trkpt lat="37.07898" lon="-3.37959">
        <ele>2811.2</ele>
        <time>2021-08-06 19:12:07</time>
      </trkpt>
      <trkpt lat="37.07898" lon="-3.37959">
        <ele>2811.2</ele>
        <time>2021-08-06 19:12:08</time>
      </trkpt>
      <trkpt lat="37.07898" lon="-3.37959">
        <ele>2811.2</ele>
        <time>2021-08-06 19:12:09</time>
      </trkpt>
      <trkpt lat="37.07898" lon="-3.37959">
        <ele>2811.2</ele>
        <time>2021-08-06 19:12:10</time>
      </trkpt>
      <trkpt lat="37.07898" lon="-3.37959">
        <ele>2811.2</ele>
        <time>2021-08-06 19:12:11</time>
      </trkpt>
      <trkpt lat="37.07898" lon="-3.37958">
        <ele>2811.2</ele>
        <time>2021-08-06 19:12:12</time>
      </trkpt>
      <trkpt lat="37.07898" lon="-3.37958">
        <ele>2811.2</ele>
        <time>2021-08-06 19:12:13</time>
      </trkpt>
      <trkpt lat="37.07898" lon="-3.37958">
        <ele>2811.2</ele>
        <time>2021-08-06 19:12:14</time>
      </trkpt>
      <trkpt lat="37.07898" lon="-3.37958">
        <ele>2811.2</ele>
        <time>2021-08-06 19:12:15</time>
      </trkpt>
      <trkpt lat="37.07898" lon="-3.37958">
        <ele>2811.2</ele>
        <time>2021-08-06 19:12:16</time>
      </trkpt>
      <trkpt lat="37.07898" lon="-3.37958">
        <ele>2811.2</ele>
        <time>2021-08-06 19:12:17</time>
      </trkpt>
      <trkpt lat="37.07898" lon="-3.37955">
        <ele>2811.2</ele>
        <time>2021-08-06 19:12:18</time>
      </trkpt>
      <trkpt lat="37.07898" lon="-3.37954">
        <ele>2811.2</ele>
        <time>2021-08-06 19:12:19</time>
      </trkpt>
      <trkpt lat="37.07898" lon="-3.37954">
        <ele>2811.2</ele>
        <time>2021-08-06 19:12:20</time>
      </trkpt>
      <trkpt lat="37.07898" lon="-3.37953">
        <ele>2811.2</ele>
        <time>2021-08-06 19:12:21</time>
      </trkpt>
      <trkpt lat="37.07899" lon="-3.37954">
        <ele>2811.2</ele>
        <time>2021-08-06 19:12:22</time>
      </trkpt>
      <trkpt lat="37.07899" lon="-3.37954">
        <ele>2811.2</ele>
        <time>2021-08-06 19:12:23</time>
      </trkpt>
      <trkpt lat="37.07901" lon="-3.37955">
        <ele>2811.2</ele>
        <time>2021-08-06 19:12:24</time>
      </trkpt>
      <trkpt lat="37.07901" lon="-3.37956">
        <ele>2811.2</ele>
        <time>2021-08-06 19:12:25</time>
      </trkpt>
      <trkpt lat="37.07901" lon="-3.37956">
        <ele>2811.2</ele>
        <time>2021-08-06 19:12:26</time>
      </trkpt>
      <trkpt lat="37.07901" lon="-3.37956">
        <ele>2811.2</ele>
        <time>2021-08-06 19:12:27</time>
      </trkpt>
      <trkpt lat="37.07901" lon="-3.37956">
        <ele>2811.2</ele>
        <time>2021-08-06 19:12:28</time>
      </trkpt>
      <trkpt lat="37.07901" lon="-3.37955">
        <ele>2811.2</ele>
        <time>2021-08-06 19:12:29</time>
      </trkpt>
      <trkpt lat="37.07901" lon="-3.37955">
        <ele>2811.2</ele>
        <time>2021-08-06 19:12:30</time>
      </trkpt>
      <trkpt lat="37.07901" lon="-3.37955">
        <ele>2811.2</ele>
        <time>2021-08-06 19:12:31</time>
      </trkpt>
      <trkpt lat="37.079" lon="-3.37955">
        <ele>2811.2</ele>
        <time>2021-08-06 19:12:32</time>
      </trkpt>
      <trkpt lat="37.079" lon="-3.37957">
        <ele>2811.2</ele>
        <time>2021-08-06 19:12:33</time>
      </trkpt>
      <trkpt lat="37.079" lon="-3.37957">
        <ele>2811.2</ele>
        <time>2021-08-06 19:12:34</time>
      </trkpt>
      <trkpt lat="37.079" lon="-3.37957">
        <ele>2811.2</ele>
        <time>2021-08-06 19:12:35</time>
      </trkpt>
      <trkpt lat="37.07899" lon="-3.37959">
        <ele>2811.2</ele>
        <time>2021-08-06 19:12:36</time>
      </trkpt>
      <trkpt lat="37.07899" lon="-3.37959">
        <ele>2811.2</ele>
        <time>2021-08-06 19:12:37</time>
      </trkpt>
      <trkpt lat="37.07899" lon="-3.3796">
        <ele>2811.2</ele>
        <time>2021-08-06 19:12:38</time>
      </trkpt>
      <trkpt lat="37.07898" lon="-3.3796">
        <ele>2811.2</ele>
        <time>2021-08-06 19:12:39</time>
      </trkpt>
      <trkpt lat="37.07898" lon="-3.37961">
        <ele>2811.2</ele>
        <time>2021-08-06 19:12:40</time>
      </trkpt>
      <trkpt lat="37.07898" lon="-3.37961">
        <ele>2811.2</ele>
        <time>2021-08-06 19:12:41</time>
      </trkpt>
      <trkpt lat="37.07898" lon="-3.37961">
        <ele>2811.2</ele>
        <time>2021-08-06 19:12:42</time>
      </trkpt>
      <trkpt lat="37.07898" lon="-3.37961">
        <ele>2811.2</ele>
        <time>2021-08-06 19:12:43</time>
      </trkpt>
      <trkpt lat="37.07898" lon="-3.37961">
        <ele>2811.2</ele>
        <time>2021-08-06 19:12:44</time>
      </trkpt>
      <trkpt lat="37.07898" lon="-3.37962">
        <ele>2811.2</ele>
        <time>2021-08-06 19:12:45</time>
      </trkpt>
      <trkpt lat="37.07898" lon="-3.37962">
        <ele>2811.2</ele>
        <time>2021-08-06 19:12:46</time>
      </trkpt>
      <trkpt lat="37.07897" lon="-3.37962">
        <ele>2811.2</ele>
        <time>2021-08-06 19:12:47</time>
      </trkpt>
      <trkpt lat="37.07897" lon="-3.37962">
        <ele>2811.2</ele>
        <time>2021-08-06 19:12:48</time>
      </trkpt>
      <trkpt lat="37.07897" lon="-3.37962">
        <ele>2811.2</ele>
        <time>2021-08-06 19:12:49</time>
      </trkpt>
      <trkpt lat="37.07897" lon="-3.37962">
        <ele>2811.2</ele>
        <time>2021-08-06 19:12:50</time>
      </trkpt>
      <trkpt lat="37.07898" lon="-3.37962">
        <ele>2811.2</ele>
        <time>2021-08-06 19:12:51</time>
      </trkpt>
      <trkpt lat="37.07898" lon="-3.37962">
        <ele>2811.2</ele>
        <time>2021-08-06 19:12:52</time>
      </trkpt>
      <trkpt lat="37.07898" lon="-3.37963">
        <ele>2811.2</ele>
        <time>2021-08-06 19:12:53</time>
      </trkpt>
      <trkpt lat="37.07898" lon="-3.37963">
        <ele>2811.2</ele>
        <time>2021-08-06 19:12:54</time>
      </trkpt>
      <trkpt lat="37.07898" lon="-3.37963">
        <ele>2811.2</ele>
        <time>2021-08-06 19:12:55</time>
      </trkpt>
      <trkpt lat="37.07898" lon="-3.37963">
        <ele>2811.2</ele>
        <time>2021-08-06 19:12:56</time>
      </trkpt>
      <trkpt lat="37.07897" lon="-3.37963">
        <ele>2811.2</ele>
        <time>2021-08-06 19:12:57</time>
      </trkpt>
      <trkpt lat="37.07897" lon="-3.37962">
        <ele>2811.2</ele>
        <time>2021-08-06 19:12:58</time>
      </trkpt>
      <trkpt lat="37.07897" lon="-3.37962">
        <ele>2811.2</ele>
        <time>2021-08-06 19:12:59</time>
      </trkpt>
      <trkpt lat="37.07897" lon="-3.37961">
        <ele>2811.2</ele>
        <time>2021-08-06 19:13:00</time>
      </trkpt>
      <trkpt lat="37.07897" lon="-3.37961">
        <ele>2811.2</ele>
        <time>2021-08-06 19:13:01</time>
      </trkpt>
      <trkpt lat="37.07897" lon="-3.3796">
        <ele>2811.2</ele>
        <time>2021-08-06 19:13:02</time>
      </trkpt>
      <trkpt lat="37.07897" lon="-3.3796">
        <ele>2811.2</ele>
        <time>2021-08-06 19:13:03</time>
      </trkpt>
      <trkpt lat="37.07896" lon="-3.3796">
        <ele>2811.2</ele>
        <time>2021-08-06 19:13:04</time>
      </trkpt>
      <trkpt lat="37.07896" lon="-3.37961">
        <ele>2811.2</ele>
        <time>2021-08-06 19:13:05</time>
      </trkpt>
      <trkpt lat="37.07896" lon="-3.37961">
        <ele>2811.2</ele>
        <time>2021-08-06 19:13:06</time>
      </trkpt>
      <trkpt lat="37.07896" lon="-3.37961">
        <ele>2811.2</ele>
        <time>2021-08-06 19:13:07</time>
      </trkpt>
      <trkpt lat="37.07896" lon="-3.37962">
        <ele>2811.2</ele>
        <time>2021-08-06 19:13:08</time>
      </trkpt>
      <trkpt lat="37.07897" lon="-3.37962">
        <ele>2811.2</ele>
        <time>2021-08-06 19:13:09</time>
      </trkpt>
      <trkpt lat="37.07897" lon="-3.37963">
        <ele>2811.2</ele>
        <time>2021-08-06 19:13:10</time>
      </trkpt>
      <trkpt lat="37.07897" lon="-3.37963">
        <ele>2811.2</ele>
        <time>2021-08-06 19:13:11</time>
      </trkpt>
      <trkpt lat="37.07898" lon="-3.37963">
        <ele>2811.2</ele>
        <time>2021-08-06 19:13:12</time>
      </trkpt>
      <trkpt lat="37.07899" lon="-3.37964">
        <ele>2811.2</ele>
        <time>2021-08-06 19:13:13</time>
      </trkpt>
      <trkpt lat="37.07899" lon="-3.37964">
        <ele>2811.2</ele>
        <time>2021-08-06 19:13:14</time>
      </trkpt>
      <trkpt lat="37.079" lon="-3.37965">
        <ele>2811.2</ele>
        <time>2021-08-06 19:13:15</time>
      </trkpt>
      <trkpt lat="37.079" lon="-3.37965">
        <ele>2811.2</ele>
        <time>2021-08-06 19:13:16</time>
      </trkpt>
      <trkpt lat="37.07901" lon="-3.37965">
        <ele>2811.2</ele>
        <time>2021-08-06 19:13:17</time>
      </trkpt>
      <trkpt lat="37.07902" lon="-3.37965">
        <ele>2811.2</ele>
        <time>2021-08-06 19:13:18</time>
      </trkpt>
      <trkpt lat="37.07902" lon="-3.37965">
        <ele>2811.2</ele>
        <time>2021-08-06 19:13:19</time>
      </trkpt>
      <trkpt lat="37.07902" lon="-3.37965">
        <ele>2811.2</ele>
        <time>2021-08-06 19:13:20</time>
      </trkpt>
      <trkpt lat="37.07902" lon="-3.37967">
        <ele>2811.2</ele>
        <time>2021-08-06 19:13:21</time>
      </trkpt>
      <trkpt lat="37.07902" lon="-3.37967">
        <ele>2811.2</ele>
        <time>2021-08-06 19:13:22</time>
      </trkpt>
      <trkpt lat="37.07902" lon="-3.37967">
        <ele>2811.2</ele>
        <time>2021-08-06 19:13:23</time>
      </trkpt>
      <trkpt lat="37.07903" lon="-3.37965">
        <ele>2811.2</ele>
        <time>2021-08-06 19:13:24</time>
      </trkpt>
      <trkpt lat="37.07904" lon="-3.37963">
        <ele>2811.2</ele>
        <time>2021-08-06 19:13:25</time>
      </trkpt>
      <trkpt lat="37.07904" lon="-3.37962">
        <ele>2811</ele>
        <time>2021-08-06 19:13:26</time>
      </trkpt>
      <trkpt lat="37.07905" lon="-3.37959">
        <ele>2810.8</ele>
        <time>2021-08-06 19:13:27</time>
      </trkpt>
      <trkpt lat="37.07906" lon="-3.37959">
        <ele>2810.8</ele>
        <time>2021-08-06 19:13:28</time>
      </trkpt>
      <trkpt lat="37.07906" lon="-3.37959">
        <ele>2810.6</ele>
        <time>2021-08-06 19:13:29</time>
      </trkpt>
      <trkpt lat="37.07906" lon="-3.37962">
        <ele>2810.6</ele>
        <time>2021-08-06 19:13:30</time>
      </trkpt>
      <trkpt lat="37.07906" lon="-3.37962">
        <ele>2810.4</ele>
        <time>2021-08-06 19:13:31</time>
      </trkpt>
      <trkpt lat="37.07907" lon="-3.37963">
        <ele>2810.8</ele>
        <time>2021-08-06 19:13:32</time>
      </trkpt>
      <trkpt lat="37.07907" lon="-3.37962">
        <ele>2811.2</ele>
        <time>2021-08-06 19:13:33</time>
      </trkpt>
      <trkpt lat="37.07907" lon="-3.37963">
        <ele>2811.4</ele>
        <time>2021-08-06 19:13:34</time>
      </trkpt>
      <trkpt lat="37.07908" lon="-3.37963">
        <ele>2811.6</ele>
        <time>2021-08-06 19:13:35</time>
      </trkpt>
      <trkpt lat="37.07907" lon="-3.37966">
        <ele>2811.6</ele>
        <time>2021-08-06 19:13:36</time>
      </trkpt>
      <trkpt lat="37.07907" lon="-3.37966">
        <ele>2811.6</ele>
        <time>2021-08-06 19:13:37</time>
      </trkpt>
      <trkpt lat="37.07907" lon="-3.37967">
        <ele>2811.6</ele>
        <time>2021-08-06 19:13:38</time>
      </trkpt>
      <trkpt lat="37.07908" lon="-3.37966">
        <ele>2811.6</ele>
        <time>2021-08-06 19:13:39</time>
      </trkpt>
      <trkpt lat="37.07909" lon="-3.37967">
        <ele>2811.4</ele>
        <time>2021-08-06 19:13:40</time>
      </trkpt>
      <trkpt lat="37.0791" lon="-3.37967">
        <ele>2811.2</ele>
        <time>2021-08-06 19:13:41</time>
      </trkpt>
      <trkpt lat="37.07913" lon="-3.37962">
        <ele>2811.2</ele>
        <time>2021-08-06 19:13:42</time>
      </trkpt>
      <trkpt lat="37.07914" lon="-3.37962">
        <ele>2811</ele>
        <time>2021-08-06 19:13:43</time>
      </trkpt>
      <trkpt lat="37.07914" lon="-3.37963">
        <ele>2810.8</ele>
        <time>2021-08-06 19:13:44</time>
      </trkpt>
      <trkpt lat="37.07915" lon="-3.37965">
        <ele>2810.2</ele>
        <time>2021-08-06 19:13:45</time>
      </trkpt>
      <trkpt lat="37.07916" lon="-3.37966">
        <ele>2810</ele>
        <time>2021-08-06 19:13:46</time>
      </trkpt>
      <trkpt lat="37.07917" lon="-3.37967">
        <ele>2809.8</ele>
        <time>2021-08-06 19:13:47</time>
      </trkpt>
      <trkpt lat="37.07918" lon="-3.37968">
        <ele>2809.8</ele>
        <time>2021-08-06 19:13:48</time>
      </trkpt>
      <trkpt lat="37.07918" lon="-3.37969">
        <ele>2809.6</ele>
        <time>2021-08-06 19:13:49</time>
      </trkpt>
      <trkpt lat="37.07918" lon="-3.3797">
        <ele>2809.6</ele>
        <time>2021-08-06 19:13:50</time>
      </trkpt>
      <trkpt lat="37.07918" lon="-3.3797">
        <ele>2809.6</ele>
        <time>2021-08-06 19:13:51</time>
      </trkpt>
      <trkpt lat="37.07918" lon="-3.3797">
        <ele>2809</ele>
        <time>2021-08-06 19:13:52</time>
      </trkpt>
      <trkpt lat="37.07919" lon="-3.3797">
        <ele>2808.6</ele>
        <time>2021-08-06 19:13:53</time>
      </trkpt>
      <trkpt lat="37.07919" lon="-3.37972">
        <ele>2808.2</ele>
        <time>2021-08-06 19:13:54</time>
      </trkpt>
      <trkpt lat="37.07919" lon="-3.37972">
        <ele>2808</ele>
        <time>2021-08-06 19:13:55</time>
      </trkpt>
      <trkpt lat="37.0792" lon="-3.37972">
        <ele>2807.8</ele>
        <time>2021-08-06 19:13:56</time>
      </trkpt>
      <trkpt lat="37.07918" lon="-3.37977">
        <ele>2807.8</ele>
        <time>2021-08-06 19:13:57</time>
      </trkpt>
      <trkpt lat="37.07919" lon="-3.37977">
        <ele>2808</ele>
        <time>2021-08-06 19:13:58</time>
      </trkpt>
      <trkpt lat="37.07919" lon="-3.37978">
        <ele>2807.8</ele>
        <time>2021-08-06 19:13:59</time>
      </trkpt>
      <trkpt lat="37.07919" lon="-3.3798">
        <ele>2807.4</ele>
        <time>2021-08-06 19:14:00</time>
      </trkpt>
      <trkpt lat="37.0792" lon="-3.37979">
        <ele>2807.4</ele>
        <time>2021-08-06 19:14:01</time>
      </trkpt>
      <trkpt lat="37.0792" lon="-3.37979">
        <ele>2807.4</ele>
        <time>2021-08-06 19:14:02</time>
      </trkpt>
      <trkpt lat="37.07921" lon="-3.37978">
        <ele>2807.4</ele>
        <time>2021-08-06 19:14:03</time>
      </trkpt>
      <trkpt lat="37.07921" lon="-3.37978">
        <ele>2807</ele>
        <time>2021-08-06 19:14:04</time>
      </trkpt>
      <trkpt lat="37.07921" lon="-3.37979">
        <ele>2806.8</ele>
        <time>2021-08-06 19:14:05</time>
      </trkpt>
      <trkpt lat="37.07921" lon="-3.37979">
        <ele>2807.2</ele>
        <time>2021-08-06 19:14:06</time>
      </trkpt>
      <trkpt lat="37.07922" lon="-3.37979">
        <ele>2807.2</ele>
        <time>2021-08-06 19:14:07</time>
      </trkpt>
      <trkpt lat="37.07924" lon="-3.37979">
        <ele>2807</ele>
        <time>2021-08-06 19:14:08</time>
      </trkpt>
      <trkpt lat="37.07924" lon="-3.3798">
        <ele>2806.8</ele>
        <time>2021-08-06 19:14:09</time>
      </trkpt>
      <trkpt lat="37.07925" lon="-3.3798">
        <ele>2806.8</ele>
        <time>2021-08-06 19:14:10</time>
      </trkpt>
      <trkpt lat="37.07926" lon="-3.3798">
        <ele>2807</ele>
        <time>2021-08-06 19:14:11</time>
      </trkpt>
      <trkpt lat="37.07927" lon="-3.37981">
        <ele>2807</ele>
        <time>2021-08-06 19:14:12</time>
      </trkpt>
      <trkpt lat="37.07928" lon="-3.37981">
        <ele>2807</ele>
        <time>2021-08-06 19:14:13</time>
      </trkpt>
      <trkpt lat="37.07929" lon="-3.37982">
        <ele>2806.8</ele>
        <time>2021-08-06 19:14:14</time>
      </trkpt>
      <trkpt lat="37.0793" lon="-3.37982">
        <ele>2806.8</ele>
        <time>2021-08-06 19:14:15</time>
      </trkpt>
      <trkpt lat="37.07931" lon="-3.37982">
        <ele>2806.8</ele>
        <time>2021-08-06 19:14:16</time>
      </trkpt>
      <trkpt lat="37.07932" lon="-3.37983">
        <ele>2806.8</ele>
        <time>2021-08-06 19:14:17</time>
      </trkpt>
      <trkpt lat="37.07933" lon="-3.37983">
        <ele>2806</ele>
        <time>2021-08-06 19:14:18</time>
      </trkpt>
      <trkpt lat="37.07934" lon="-3.37984">
        <ele>2805.6</ele>
        <time>2021-08-06 19:14:19</time>
      </trkpt>
      <trkpt lat="37.07935" lon="-3.37984">
        <ele>2805.2</ele>
        <time>2021-08-06 19:14:20</time>
      </trkpt>
      <trkpt lat="37.07935" lon="-3.37985">
        <ele>2805.2</ele>
        <time>2021-08-06 19:14:21</time>
      </trkpt>
      <trkpt lat="37.07935" lon="-3.37985">
        <ele>2804.6</ele>
        <time>2021-08-06 19:14:22</time>
      </trkpt>
      <trkpt lat="37.07935" lon="-3.37986">
        <ele>2804.2</ele>
        <time>2021-08-06 19:14:23</time>
      </trkpt>
      <trkpt lat="37.07936" lon="-3.37986">
        <ele>2803.8</ele>
        <time>2021-08-06 19:14:24</time>
      </trkpt>
      <trkpt lat="37.07937" lon="-3.37986">
        <ele>2803.6</ele>
        <time>2021-08-06 19:14:25</time>
      </trkpt>
      <trkpt lat="37.07938" lon="-3.37987">
        <ele>2803.4</ele>
        <time>2021-08-06 19:14:26</time>
      </trkpt>
      <trkpt lat="37.07938" lon="-3.37987">
        <ele>2803.2</ele>
        <time>2021-08-06 19:14:27</time>
      </trkpt>
      <trkpt lat="37.07939" lon="-3.37987">
        <ele>2803.2</ele>
        <time>2021-08-06 19:14:28</time>
      </trkpt>
      <trkpt lat="37.0794" lon="-3.37988">
        <ele>2803</ele>
        <time>2021-08-06 19:14:29</time>
      </trkpt>
      <trkpt lat="37.07941" lon="-3.37988">
        <ele>2803</ele>
        <time>2021-08-06 19:14:30</time>
      </trkpt>
      <trkpt lat="37.07941" lon="-3.37988">
        <ele>2803</ele>
        <time>2021-08-06 19:14:31</time>
      </trkpt>
      <trkpt lat="37.07942" lon="-3.37988">
        <ele>2803.2</ele>
        <time>2021-08-06 19:14:32</time>
      </trkpt>
      <trkpt lat="37.07943" lon="-3.37988">
        <ele>2803.2</ele>
        <time>2021-08-06 19:14:33</time>
      </trkpt>
      <trkpt lat="37.07943" lon="-3.37989">
        <ele>2803.4</ele>
        <time>2021-08-06 19:14:34</time>
      </trkpt>
      <trkpt lat="37.07944" lon="-3.37989">
        <ele>2803.4</ele>
        <time>2021-08-06 19:14:35</time>
      </trkpt>
      <trkpt lat="37.07945" lon="-3.37989">
        <ele>2802.8</ele>
        <time>2021-08-06 19:14:36</time>
      </trkpt>
      <trkpt lat="37.07945" lon="-3.3799">
        <ele>2802.2</ele>
        <time>2021-08-06 19:14:37</time>
      </trkpt>
      <trkpt lat="37.07945" lon="-3.37991">
        <ele>2802</ele>
        <time>2021-08-06 19:14:38</time>
      </trkpt>
      <trkpt lat="37.07945" lon="-3.37992">
        <ele>2801.6</ele>
        <time>2021-08-06 19:14:39</time>
      </trkpt>
      <trkpt lat="37.07946" lon="-3.37992">
        <ele>2801</ele>
        <time>2021-08-06 19:14:40</time>
      </trkpt>
      <trkpt lat="37.07946" lon="-3.37992">
        <ele>2800.4</ele>
        <time>2021-08-06 19:14:41</time>
      </trkpt>
      <trkpt lat="37.07947" lon="-3.37992">
        <ele>2800</ele>
        <time>2021-08-06 19:14:42</time>
      </trkpt>
      <trkpt lat="37.07948" lon="-3.37991">
        <ele>2799.8</ele>
        <time>2021-08-06 19:14:43</time>
      </trkpt>
      <trkpt lat="37.07949" lon="-3.37992">
        <ele>2799.6</ele>
        <time>2021-08-06 19:14:44</time>
      </trkpt>
      <trkpt lat="37.0795" lon="-3.37994">
        <ele>2799.4</ele>
        <time>2021-08-06 19:14:45</time>
      </trkpt>
      <trkpt lat="37.07951" lon="-3.37995">
        <ele>2799.2</ele>
        <time>2021-08-06 19:14:46</time>
      </trkpt>
      <trkpt lat="37.0795" lon="-3.37996">
        <ele>2799.2</ele>
        <time>2021-08-06 19:14:47</time>
      </trkpt>
      <trkpt lat="37.07949" lon="-3.37997">
        <ele>2798.6</ele>
        <time>2021-08-06 19:14:48</time>
      </trkpt>
      <trkpt lat="37.07949" lon="-3.37998">
        <ele>2798.2</ele>
        <time>2021-08-06 19:14:49</time>
      </trkpt>
      <trkpt lat="37.07948" lon="-3.37999">
        <ele>2797.8</ele>
        <time>2021-08-06 19:14:50</time>
      </trkpt>
      <trkpt lat="37.07948" lon="-3.38">
        <ele>2797.6</ele>
        <time>2021-08-06 19:14:51</time>
      </trkpt>
      <trkpt lat="37.07948" lon="-3.38001">
        <ele>2797.4</ele>
        <time>2021-08-06 19:14:52</time>
      </trkpt>
      <trkpt lat="37.07948" lon="-3.38002">
        <ele>2797</ele>
        <time>2021-08-06 19:14:53</time>
      </trkpt>
      <trkpt lat="37.07948" lon="-3.38003">
        <ele>2796.8</ele>
        <time>2021-08-06 19:14:54</time>
      </trkpt>
      <trkpt lat="37.07948" lon="-3.38004">
        <ele>2796.6</ele>
        <time>2021-08-06 19:14:55</time>
      </trkpt>
      <trkpt lat="37.07948" lon="-3.38005">
        <ele>2796.6</ele>
        <time>2021-08-06 19:14:56</time>
      </trkpt>
      <trkpt lat="37.07949" lon="-3.38005">
        <ele>2796.6</ele>
        <time>2021-08-06 19:14:57</time>
      </trkpt>
      <trkpt lat="37.0795" lon="-3.38006">
        <ele>2796.6</ele>
        <time>2021-08-06 19:14:58</time>
      </trkpt>
      <trkpt lat="37.07951" lon="-3.38007">
        <ele>2796.6</ele>
        <time>2021-08-06 19:14:59</time>
      </trkpt>
      <trkpt lat="37.07952" lon="-3.38008">
        <ele>2796.8</ele>
        <time>2021-08-06 19:15:00</time>
      </trkpt>
      <trkpt lat="37.07952" lon="-3.38009">
        <ele>2797</ele>
        <time>2021-08-06 19:15:01</time>
      </trkpt>
      <trkpt lat="37.07953" lon="-3.38009">
        <ele>2797</ele>
        <time>2021-08-06 19:15:02</time>
      </trkpt>
      <trkpt lat="37.07954" lon="-3.38009">
        <ele>2797</ele>
        <time>2021-08-06 19:15:03</time>
      </trkpt>
      <trkpt lat="37.07955" lon="-3.38011">
        <ele>2797</ele>
        <time>2021-08-06 19:15:04</time>
      </trkpt>
      <trkpt lat="37.07955" lon="-3.3801">
        <ele>2796.8</ele>
        <time>2021-08-06 19:15:05</time>
      </trkpt>
      <trkpt lat="37.07955" lon="-3.38013">
        <ele>2796.4</ele>
        <time>2021-08-06 19:15:06</time>
      </trkpt>
      <trkpt lat="37.07954" lon="-3.38015">
        <ele>2796</ele>
        <time>2021-08-06 19:15:07</time>
      </trkpt>
      <trkpt lat="37.07955" lon="-3.38015">
        <ele>2795.6</ele>
        <time>2021-08-06 19:15:08</time>
      </trkpt>
      <trkpt lat="37.07956" lon="-3.38016">
        <ele>2795.2</ele>
        <time>2021-08-06 19:15:09</time>
      </trkpt>
      <trkpt lat="37.07957" lon="-3.38016">
        <ele>2795</ele>
        <time>2021-08-06 19:15:10</time>
      </trkpt>
      <trkpt lat="37.07957" lon="-3.38017">
        <ele>2795</ele>
        <time>2021-08-06 19:15:11</time>
      </trkpt>
      <trkpt lat="37.07958" lon="-3.38017">
        <ele>2794.2</ele>
        <time>2021-08-06 19:15:12</time>
      </trkpt>
      <trkpt lat="37.07958" lon="-3.38018">
        <ele>2794</ele>
        <time>2021-08-06 19:15:13</time>
      </trkpt>
      <trkpt lat="37.07958" lon="-3.38019">
        <ele>2793.8</ele>
        <time>2021-08-06 19:15:14</time>
      </trkpt>
      <trkpt lat="37.07959" lon="-3.38019">
        <ele>2793.6</ele>
        <time>2021-08-06 19:15:15</time>
      </trkpt>
      <trkpt lat="37.0796" lon="-3.3802">
        <ele>2793.6</ele>
        <time>2021-08-06 19:15:16</time>
      </trkpt>
      <trkpt lat="37.07961" lon="-3.3802">
        <ele>2793.4</ele>
        <time>2021-08-06 19:15:17</time>
      </trkpt>
      <trkpt lat="37.07962" lon="-3.38021">
        <ele>2793.4</ele>
        <time>2021-08-06 19:15:18</time>
      </trkpt>
      <trkpt lat="37.07963" lon="-3.38021">
        <ele>2793.4</ele>
        <time>2021-08-06 19:15:19</time>
      </trkpt>
      <trkpt lat="37.07964" lon="-3.38022">
        <ele>2793</ele>
        <time>2021-08-06 19:15:20</time>
      </trkpt>
      <trkpt lat="37.07965" lon="-3.38022">
        <ele>2792.8</ele>
        <time>2021-08-06 19:15:21</time>
      </trkpt>
      <trkpt lat="37.07966" lon="-3.38022">
        <ele>2792.8</ele>
        <time>2021-08-06 19:15:22</time>
      </trkpt>
      <trkpt lat="37.07966" lon="-3.38021">
        <ele>2792.6</ele>
        <time>2021-08-06 19:15:23</time>
      </trkpt>
      <trkpt lat="37.07968" lon="-3.38019">
        <ele>2792.4</ele>
        <time>2021-08-06 19:15:24</time>
      </trkpt>
      <trkpt lat="37.07968" lon="-3.38019">
        <ele>2792.2</ele>
        <time>2021-08-06 19:15:25</time>
      </trkpt>
      <trkpt lat="37.07969" lon="-3.38019">
        <ele>2792.2</ele>
        <time>2021-08-06 19:15:26</time>
      </trkpt>
      <trkpt lat="37.07969" lon="-3.38019">
        <ele>2792</ele>
        <time>2021-08-06 19:15:27</time>
      </trkpt>
      <trkpt lat="37.0797" lon="-3.38019">
        <ele>2792</ele>
        <time>2021-08-06 19:15:28</time>
      </trkpt>
      <trkpt lat="37.07971" lon="-3.38019">
        <ele>2792</ele>
        <time>2021-08-06 19:15:29</time>
      </trkpt>
      <trkpt lat="37.07973" lon="-3.38019">
        <ele>2791.8</ele>
        <time>2021-08-06 19:15:30</time>
      </trkpt>
      <trkpt lat="37.07973" lon="-3.38019">
        <ele>2791.6</ele>
        <time>2021-08-06 19:15:31</time>
      </trkpt>
      <trkpt lat="37.07974" lon="-3.38019">
        <ele>2791.4</ele>
        <time>2021-08-06 19:15:32</time>
      </trkpt>
      <trkpt lat="37.07973" lon="-3.38021">
        <ele>2791.2</ele>
        <time>2021-08-06 19:15:33</time>
      </trkpt>
      <trkpt lat="37.07973" lon="-3.38023">
        <ele>2791</ele>
        <time>2021-08-06 19:15:34</time>
      </trkpt>
      <trkpt lat="37.07973" lon="-3.38024">
        <ele>2791</ele>
        <time>2021-08-06 19:15:35</time>
      </trkpt>
      <trkpt lat="37.07973" lon="-3.38027">
        <ele>2790.8</ele>
        <time>2021-08-06 19:15:36</time>
      </trkpt>
      <trkpt lat="37.07974" lon="-3.38028">
        <ele>2790.6</ele>
        <time>2021-08-06 19:15:37</time>
      </trkpt>
      <trkpt lat="37.07974" lon="-3.38028">
        <ele>2790.4</ele>
        <time>2021-08-06 19:15:38</time>
      </trkpt>
      <trkpt lat="37.07974" lon="-3.38029">
        <ele>2790.2</ele>
        <time>2021-08-06 19:15:39</time>
      </trkpt>
      <trkpt lat="37.07975" lon="-3.38029">
        <ele>2790.2</ele>
        <time>2021-08-06 19:15:40</time>
      </trkpt>
      <trkpt lat="37.07975" lon="-3.38029">
        <ele>2790.2</ele>
        <time>2021-08-06 19:15:41</time>
      </trkpt>
      <trkpt lat="37.07975" lon="-3.38029">
        <ele>2790.2</ele>
        <time>2021-08-06 19:15:42</time>
      </trkpt>
      <trkpt lat="37.07975" lon="-3.38029">
        <ele>2790</ele>
        <time>2021-08-06 19:15:43</time>
      </trkpt>
      <trkpt lat="37.07976" lon="-3.38029">
        <ele>2790</ele>
        <time>2021-08-06 19:15:44</time>
      </trkpt>
      <trkpt lat="37.07977" lon="-3.38029">
        <ele>2789.8</ele>
        <time>2021-08-06 19:15:45</time>
      </trkpt>
      <trkpt lat="37.07978" lon="-3.38027">
        <ele>2789.6</ele>
        <time>2021-08-06 19:15:46</time>
      </trkpt>
      <trkpt lat="37.07978" lon="-3.38027">
        <ele>2789</ele>
        <time>2021-08-06 19:15:47</time>
      </trkpt>
      <trkpt lat="37.07979" lon="-3.38027">
        <ele>2788.8</ele>
        <time>2021-08-06 19:15:48</time>
      </trkpt>
      <trkpt lat="37.07979" lon="-3.38027">
        <ele>2788.8</ele>
        <time>2021-08-06 19:15:49</time>
      </trkpt>
      <trkpt lat="37.0798" lon="-3.38027">
        <ele>2788.6</ele>
        <time>2021-08-06 19:15:50</time>
      </trkpt>
      <trkpt lat="37.0798" lon="-3.38027">
        <ele>2788.4</ele>
        <time>2021-08-06 19:15:51</time>
      </trkpt>
      <trkpt lat="37.07981" lon="-3.38027">
        <ele>2788.4</ele>
        <time>2021-08-06 19:15:52</time>
      </trkpt>
      <trkpt lat="37.07981" lon="-3.38028">
        <ele>2788.4</ele>
        <time>2021-08-06 19:15:53</time>
      </trkpt>
      <trkpt lat="37.07982" lon="-3.38028">
        <ele>2788.4</ele>
        <time>2021-08-06 19:15:54</time>
      </trkpt>
      <trkpt lat="37.07982" lon="-3.38028">
        <ele>2788.2</ele>
        <time>2021-08-06 19:15:55</time>
      </trkpt>
      <trkpt lat="37.07984" lon="-3.38028">
        <ele>2788</ele>
        <time>2021-08-06 19:15:56</time>
      </trkpt>
      <trkpt lat="37.07984" lon="-3.38028">
        <ele>2788</ele>
        <time>2021-08-06 19:15:57</time>
      </trkpt>
      <trkpt lat="37.07985" lon="-3.38029">
        <ele>2787.8</ele>
        <time>2021-08-06 19:15:58</time>
      </trkpt>
      <trkpt lat="37.07986" lon="-3.38029">
        <ele>2787.2</ele>
        <time>2021-08-06 19:15:59</time>
      </trkpt>
      <trkpt lat="37.07987" lon="-3.38029">
        <ele>2787</ele>
        <time>2021-08-06 19:16:00</time>
      </trkpt>
      <trkpt lat="37.07988" lon="-3.38029">
        <ele>2786.6</ele>
        <time>2021-08-06 19:16:01</time>
      </trkpt>
      <trkpt lat="37.07989" lon="-3.38029">
        <ele>2786.4</ele>
        <time>2021-08-06 19:16:02</time>
      </trkpt>
      <trkpt lat="37.07989" lon="-3.38029">
        <ele>2786.2</ele>
        <time>2021-08-06 19:16:03</time>
      </trkpt>
      <trkpt lat="37.07991" lon="-3.3803">
        <ele>2786</ele>
        <time>2021-08-06 19:16:04</time>
      </trkpt>
      <trkpt lat="37.07992" lon="-3.38029">
        <ele>2786</ele>
        <time>2021-08-06 19:16:05</time>
      </trkpt>
      <trkpt lat="37.07993" lon="-3.3803">
        <ele>2785.8</ele>
        <time>2021-08-06 19:16:06</time>
      </trkpt>
      <trkpt lat="37.07994" lon="-3.3803">
        <ele>2785.6</ele>
        <time>2021-08-06 19:16:07</time>
      </trkpt>
      <trkpt lat="37.07995" lon="-3.38031">
        <ele>2785.6</ele>
        <time>2021-08-06 19:16:08</time>
      </trkpt>
      <trkpt lat="37.07995" lon="-3.38031">
        <ele>2785.4</ele>
        <time>2021-08-06 19:16:09</time>
      </trkpt>
      <trkpt lat="37.07996" lon="-3.38031">
        <ele>2785.6</ele>
        <time>2021-08-06 19:16:10</time>
      </trkpt>
      <trkpt lat="37.07997" lon="-3.38031">
        <ele>2785.6</ele>
        <time>2021-08-06 19:16:11</time>
      </trkpt>
      <trkpt lat="37.07998" lon="-3.38032">
        <ele>2785.6</ele>
        <time>2021-08-06 19:16:12</time>
      </trkpt>
      <trkpt lat="37.07999" lon="-3.38032">
        <ele>2785.6</ele>
        <time>2021-08-06 19:16:13</time>
      </trkpt>
      <trkpt lat="37.08" lon="-3.38032">
        <ele>2785.6</ele>
        <time>2021-08-06 19:16:14</time>
      </trkpt>
      <trkpt lat="37.08" lon="-3.38032">
        <ele>2785.6</ele>
        <time>2021-08-06 19:16:15</time>
      </trkpt>
      <trkpt lat="37.08001" lon="-3.38032">
        <ele>2785.6</ele>
        <time>2021-08-06 19:16:16</time>
      </trkpt>
      <trkpt lat="37.08002" lon="-3.38032">
        <ele>2785</ele>
        <time>2021-08-06 19:16:17</time>
      </trkpt>
      <trkpt lat="37.08003" lon="-3.38032">
        <ele>2784.8</ele>
        <time>2021-08-06 19:16:18</time>
      </trkpt>
      <trkpt lat="37.08003" lon="-3.38032">
        <ele>2784.4</ele>
        <time>2021-08-06 19:16:19</time>
      </trkpt>
      <trkpt lat="37.08004" lon="-3.38032">
        <ele>2784.2</ele>
        <time>2021-08-06 19:16:20</time>
      </trkpt>
      <trkpt lat="37.08005" lon="-3.38033">
        <ele>2784</ele>
        <time>2021-08-06 19:16:21</time>
      </trkpt>
      <trkpt lat="37.08005" lon="-3.38034">
        <ele>2783.8</ele>
        <time>2021-08-06 19:16:22</time>
      </trkpt>
      <trkpt lat="37.08005" lon="-3.38034">
        <ele>2783.8</ele>
        <time>2021-08-06 19:16:23</time>
      </trkpt>
      <trkpt lat="37.08006" lon="-3.38035">
        <ele>2783.6</ele>
        <time>2021-08-06 19:16:24</time>
      </trkpt>
      <trkpt lat="37.08006" lon="-3.38035">
        <ele>2783.4</ele>
        <time>2021-08-06 19:16:25</time>
      </trkpt>
      <trkpt lat="37.08007" lon="-3.38035">
        <ele>2783.4</ele>
        <time>2021-08-06 19:16:26</time>
      </trkpt>
      <trkpt lat="37.08007" lon="-3.38035">
        <ele>2783.4</ele>
        <time>2021-08-06 19:16:27</time>
      </trkpt>
      <trkpt lat="37.08007" lon="-3.38035">
        <ele>2783.2</ele>
        <time>2021-08-06 19:16:28</time>
      </trkpt>
      <trkpt lat="37.08007" lon="-3.38035">
        <ele>2783.2</ele>
        <time>2021-08-06 19:16:29</time>
      </trkpt>
      <trkpt lat="37.08007" lon="-3.38035">
        <ele>2783.2</ele>
        <time>2021-08-06 19:16:30</time>
      </trkpt>
      <trkpt lat="37.08007" lon="-3.38036">
        <ele>2783</ele>
        <time>2021-08-06 19:16:31</time>
      </trkpt>
      <trkpt lat="37.08008" lon="-3.38036">
        <ele>2782.8</ele>
        <time>2021-08-06 19:16:32</time>
      </trkpt>
      <trkpt lat="37.08008" lon="-3.38036">
        <ele>2782.6</ele>
        <time>2021-08-06 19:16:33</time>
      </trkpt>
      <trkpt lat="37.08009" lon="-3.38037">
        <ele>2782.6</ele>
        <time>2021-08-06 19:16:34</time>
      </trkpt>
      <trkpt lat="37.0801" lon="-3.38037">
        <ele>2782.4</ele>
        <time>2021-08-06 19:16:35</time>
      </trkpt>
      <trkpt lat="37.0801" lon="-3.38038">
        <ele>2782.4</ele>
        <time>2021-08-06 19:16:36</time>
      </trkpt>
      <trkpt lat="37.08011" lon="-3.38038">
        <ele>2782.4</ele>
        <time>2021-08-06 19:16:37</time>
      </trkpt>
      <trkpt lat="37.08011" lon="-3.38038">
        <ele>2782.4</ele>
        <time>2021-08-06 19:16:38</time>
      </trkpt>
      <trkpt lat="37.08012" lon="-3.38039">
        <ele>2782.4</ele>
        <time>2021-08-06 19:16:39</time>
      </trkpt>
      <trkpt lat="37.08012" lon="-3.38039">
        <ele>2782.6</ele>
        <time>2021-08-06 19:16:40</time>
      </trkpt>
      <trkpt lat="37.08012" lon="-3.3804">
        <ele>2782.8</ele>
        <time>2021-08-06 19:16:41</time>
      </trkpt>
      <trkpt lat="37.08012" lon="-3.3804">
        <ele>2782.6</ele>
        <time>2021-08-06 19:16:42</time>
      </trkpt>
      <trkpt lat="37.08013" lon="-3.3804">
        <ele>2782.4</ele>
        <time>2021-08-06 19:16:43</time>
      </trkpt>
      <trkpt lat="37.08014" lon="-3.3804">
        <ele>2782.4</ele>
        <time>2021-08-06 19:16:44</time>
      </trkpt>
      <trkpt lat="37.08015" lon="-3.38039">
        <ele>2782</ele>
        <time>2021-08-06 19:16:45</time>
      </trkpt>
      <trkpt lat="37.08016" lon="-3.38038">
        <ele>2781.4</ele>
        <time>2021-08-06 19:16:46</time>
      </trkpt>
      <trkpt lat="37.08017" lon="-3.38038">
        <ele>2781</ele>
        <time>2021-08-06 19:16:47</time>
      </trkpt>
      <trkpt lat="37.08018" lon="-3.38038">
        <ele>2781</ele>
        <time>2021-08-06 19:16:48</time>
      </trkpt>
      <trkpt lat="37.08018" lon="-3.38038">
        <ele>2780.8</ele>
        <time>2021-08-06 19:16:49</time>
      </trkpt>
      <trkpt lat="37.08019" lon="-3.38038">
        <ele>2780.6</ele>
        <time>2021-08-06 19:16:50</time>
      </trkpt>
      <trkpt lat="37.0802" lon="-3.38039">
        <ele>2780.2</ele>
        <time>2021-08-06 19:16:51</time>
      </trkpt>
      <trkpt lat="37.08021" lon="-3.38039">
        <ele>2780</ele>
        <time>2021-08-06 19:16:52</time>
      </trkpt>
      <trkpt lat="37.08021" lon="-3.38039">
        <ele>2779.8</ele>
        <time>2021-08-06 19:16:53</time>
      </trkpt>
      <trkpt lat="37.08022" lon="-3.3804">
        <ele>2779.2</ele>
        <time>2021-08-06 19:16:54</time>
      </trkpt>
      <trkpt lat="37.08023" lon="-3.38041">
        <ele>2778.8</ele>
        <time>2021-08-06 19:16:55</time>
      </trkpt>
      <trkpt lat="37.08023" lon="-3.38042">
        <ele>2778.6</ele>
        <time>2021-08-06 19:16:56</time>
      </trkpt>
      <trkpt lat="37.08024" lon="-3.38043">
        <ele>2778.6</ele>
        <time>2021-08-06 19:16:57</time>
      </trkpt>
      <trkpt lat="37.08025" lon="-3.38043">
        <ele>2778.6</ele>
        <time>2021-08-06 19:16:58</time>
      </trkpt>
      <trkpt lat="37.08026" lon="-3.38044">
        <ele>2778.2</ele>
        <time>2021-08-06 19:16:59</time>
      </trkpt>
      <trkpt lat="37.08027" lon="-3.38045">
        <ele>2778.2</ele>
        <time>2021-08-06 19:17:00</time>
      </trkpt>
      <trkpt lat="37.08027" lon="-3.38046">
        <ele>2778.2</ele>
        <time>2021-08-06 19:17:01</time>
      </trkpt>
      <trkpt lat="37.08028" lon="-3.38046">
        <ele>2778</ele>
        <time>2021-08-06 19:17:02</time>
      </trkpt>
      <trkpt lat="37.0803" lon="-3.38047">
        <ele>2777.8</ele>
        <time>2021-08-06 19:17:03</time>
      </trkpt>
      <trkpt lat="37.08031" lon="-3.38047">
        <ele>2777.6</ele>
        <time>2021-08-06 19:17:04</time>
      </trkpt>
      <trkpt lat="37.08032" lon="-3.38047">
        <ele>2777.6</ele>
        <time>2021-08-06 19:17:05</time>
      </trkpt>
      <trkpt lat="37.08033" lon="-3.38047">
        <ele>2777.2</ele>
        <time>2021-08-06 19:17:06</time>
      </trkpt>
      <trkpt lat="37.08033" lon="-3.38047">
        <ele>2777.6</ele>
        <time>2021-08-06 19:17:07</time>
      </trkpt>
      <trkpt lat="37.08034" lon="-3.38048">
        <ele>2777.6</ele>
        <time>2021-08-06 19:17:08</time>
      </trkpt>
      <trkpt lat="37.08035" lon="-3.38048">
        <ele>2777.6</ele>
        <time>2021-08-06 19:17:09</time>
      </trkpt>
      <trkpt lat="37.08036" lon="-3.38049">
        <ele>2777.6</ele>
        <time>2021-08-06 19:17:10</time>
      </trkpt>
      <trkpt lat="37.08037" lon="-3.38049">
        <ele>2777.8</ele>
        <time>2021-08-06 19:17:11</time>
      </trkpt>
      <trkpt lat="37.08038" lon="-3.3805">
        <ele>2777.6</ele>
        <time>2021-08-06 19:17:12</time>
      </trkpt>
      <trkpt lat="37.08038" lon="-3.3805">
        <ele>2777.6</ele>
        <time>2021-08-06 19:17:13</time>
      </trkpt>
      <trkpt lat="37.08039" lon="-3.38051">
        <ele>2777.6</ele>
        <time>2021-08-06 19:17:14</time>
      </trkpt>
      <trkpt lat="37.0804" lon="-3.38052">
        <ele>2777.4</ele>
        <time>2021-08-06 19:17:15</time>
      </trkpt>
      <trkpt lat="37.08042" lon="-3.38053">
        <ele>2777.2</ele>
        <time>2021-08-06 19:17:16</time>
      </trkpt>
      <trkpt lat="37.08043" lon="-3.38054">
        <ele>2777</ele>
        <time>2021-08-06 19:17:17</time>
      </trkpt>
      <trkpt lat="37.08044" lon="-3.38054">
        <ele>2776.8</ele>
        <time>2021-08-06 19:17:18</time>
      </trkpt>
      <trkpt lat="37.08045" lon="-3.38055">
        <ele>2776.4</ele>
        <time>2021-08-06 19:17:19</time>
      </trkpt>
      <trkpt lat="37.08046" lon="-3.38055">
        <ele>2776.2</ele>
        <time>2021-08-06 19:17:20</time>
      </trkpt>
      <trkpt lat="37.08048" lon="-3.38055">
        <ele>2775.8</ele>
        <time>2021-08-06 19:17:21</time>
      </trkpt>
      <trkpt lat="37.08049" lon="-3.38056">
        <ele>2775.2</ele>
        <time>2021-08-06 19:17:22</time>
      </trkpt>
      <trkpt lat="37.08049" lon="-3.38056">
        <ele>2774.8</ele>
        <time>2021-08-06 19:17:23</time>
      </trkpt>
      <trkpt lat="37.0805" lon="-3.38057">
        <ele>2774.6</ele>
        <time>2021-08-06 19:17:24</time>
      </trkpt>
      <trkpt lat="37.08051" lon="-3.38057">
        <ele>2774</ele>
        <time>2021-08-06 19:17:25</time>
      </trkpt>
      <trkpt lat="37.08052" lon="-3.38057">
        <ele>2773.6</ele>
        <time>2021-08-06 19:17:26</time>
      </trkpt>
      <trkpt lat="37.08052" lon="-3.38058">
        <ele>2773.4</ele>
        <time>2021-08-06 19:17:27</time>
      </trkpt>
      <trkpt lat="37.08054" lon="-3.38057">
        <ele>2773.4</ele>
        <time>2021-08-06 19:17:28</time>
      </trkpt>
      <trkpt lat="37.08055" lon="-3.38058">
        <ele>2773.4</ele>
        <time>2021-08-06 19:17:29</time>
      </trkpt>
      <trkpt lat="37.08056" lon="-3.38058">
        <ele>2773.4</ele>
        <time>2021-08-06 19:17:30</time>
      </trkpt>
      <trkpt lat="37.08057" lon="-3.38058">
        <ele>2773.4</ele>
        <time>2021-08-06 19:17:31</time>
      </trkpt>
      <trkpt lat="37.08058" lon="-3.38057">
        <ele>2773.2</ele>
        <time>2021-08-06 19:17:32</time>
      </trkpt>
      <trkpt lat="37.08059" lon="-3.38057">
        <ele>2773</ele>
        <time>2021-08-06 19:17:33</time>
      </trkpt>
      <trkpt lat="37.0806" lon="-3.38059">
        <ele>2772.6</ele>
        <time>2021-08-06 19:17:34</time>
      </trkpt>
      <trkpt lat="37.08061" lon="-3.38058">
        <ele>2772.4</ele>
        <time>2021-08-06 19:17:35</time>
      </trkpt>
      <trkpt lat="37.08063" lon="-3.38059">
        <ele>2772.2</ele>
        <time>2021-08-06 19:17:36</time>
      </trkpt>
      <trkpt lat="37.08064" lon="-3.38059">
        <ele>2772.2</ele>
        <time>2021-08-06 19:17:37</time>
      </trkpt>
      <trkpt lat="37.08065" lon="-3.38059">
        <ele>2771.8</ele>
        <time>2021-08-06 19:17:38</time>
      </trkpt>
      <trkpt lat="37.08066" lon="-3.38059">
        <ele>2771.2</ele>
        <time>2021-08-06 19:17:39</time>
      </trkpt>
      <trkpt lat="37.08067" lon="-3.3806">
        <ele>2771.2</ele>
        <time>2021-08-06 19:17:40</time>
      </trkpt>
      <trkpt lat="37.08067" lon="-3.38061">
        <ele>2771</ele>
        <time>2021-08-06 19:17:41</time>
      </trkpt>
      <trkpt lat="37.08068" lon="-3.38062">
        <ele>2770.6</ele>
        <time>2021-08-06 19:17:42</time>
      </trkpt>
      <trkpt lat="37.08069" lon="-3.38063">
        <ele>2770.4</ele>
        <time>2021-08-06 19:17:43</time>
      </trkpt>
      <trkpt lat="37.08071" lon="-3.38063">
        <ele>2770.2</ele>
        <time>2021-08-06 19:17:44</time>
      </trkpt>
      <trkpt lat="37.08072" lon="-3.38063">
        <ele>2770</ele>
        <time>2021-08-06 19:17:45</time>
      </trkpt>
      <trkpt lat="37.08073" lon="-3.38063">
        <ele>2770</ele>
        <time>2021-08-06 19:17:46</time>
      </trkpt>
      <trkpt lat="37.08076" lon="-3.38063">
        <ele>2769.8</ele>
        <time>2021-08-06 19:17:47</time>
      </trkpt>
      <trkpt lat="37.08077" lon="-3.38063">
        <ele>2769.8</ele>
        <time>2021-08-06 19:17:48</time>
      </trkpt>
      <trkpt lat="37.08078" lon="-3.38064">
        <ele>2769.4</ele>
        <time>2021-08-06 19:17:49</time>
      </trkpt>
      <trkpt lat="37.08079" lon="-3.38064">
        <ele>2769.2</ele>
        <time>2021-08-06 19:17:50</time>
      </trkpt>
      <trkpt lat="37.08081" lon="-3.38063">
        <ele>2769</ele>
        <time>2021-08-06 19:17:51</time>
      </trkpt>
      <trkpt lat="37.08081" lon="-3.38063">
        <ele>2769</ele>
        <time>2021-08-06 19:17:52</time>
      </trkpt>
      <trkpt lat="37.08082" lon="-3.38064">
        <ele>2768.4</ele>
        <time>2021-08-06 19:17:53</time>
      </trkpt>
      <trkpt lat="37.08082" lon="-3.38065">
        <ele>2768</ele>
        <time>2021-08-06 19:17:54</time>
      </trkpt>
      <trkpt lat="37.08083" lon="-3.38066">
        <ele>2767.8</ele>
        <time>2021-08-06 19:17:55</time>
      </trkpt>
      <trkpt lat="37.08083" lon="-3.38067">
        <ele>2767.8</ele>
        <time>2021-08-06 19:17:56</time>
      </trkpt>
      <trkpt lat="37.08084" lon="-3.38067">
        <ele>2767.6</ele>
        <time>2021-08-06 19:17:57</time>
      </trkpt>
      <trkpt lat="37.08084" lon="-3.38068">
        <ele>2767.6</ele>
        <time>2021-08-06 19:17:58</time>
      </trkpt>
      <trkpt lat="37.08085" lon="-3.38068">
        <ele>2767.6</ele>
        <time>2021-08-06 19:17:59</time>
      </trkpt>
      <trkpt lat="37.08085" lon="-3.3807">
        <ele>2767.6</ele>
        <time>2021-08-06 19:18:00</time>
      </trkpt>
      <trkpt lat="37.08085" lon="-3.3807">
        <ele>2767.4</ele>
        <time>2021-08-06 19:18:01</time>
      </trkpt>
      <trkpt lat="37.08085" lon="-3.38072">
        <ele>2767.4</ele>
        <time>2021-08-06 19:18:02</time>
      </trkpt>
      <trkpt lat="37.08085" lon="-3.38074">
        <ele>2767.2</ele>
        <time>2021-08-06 19:18:03</time>
      </trkpt>
      <trkpt lat="37.08086" lon="-3.38075">
        <ele>2767</ele>
        <time>2021-08-06 19:18:04</time>
      </trkpt>
      <trkpt lat="37.08087" lon="-3.38075">
        <ele>2766.8</ele>
        <time>2021-08-06 19:18:05</time>
      </trkpt>
      <trkpt lat="37.08087" lon="-3.38076">
        <ele>2766.8</ele>
        <time>2021-08-06 19:18:06</time>
      </trkpt>
      <trkpt lat="37.08088" lon="-3.38076">
        <ele>2766.8</ele>
        <time>2021-08-06 19:18:07</time>
      </trkpt>
      <trkpt lat="37.08089" lon="-3.38076">
        <ele>2766.2</ele>
        <time>2021-08-06 19:18:08</time>
      </trkpt>
      <trkpt lat="37.0809" lon="-3.38076">
        <ele>2766</ele>
        <time>2021-08-06 19:18:09</time>
      </trkpt>
      <trkpt lat="37.08091" lon="-3.38076">
        <ele>2765.6</ele>
        <time>2021-08-06 19:18:10</time>
      </trkpt>
      <trkpt lat="37.08091" lon="-3.38077">
        <ele>2765.4</ele>
        <time>2021-08-06 19:18:11</time>
      </trkpt>
      <trkpt lat="37.08092" lon="-3.38077">
        <ele>2765.4</ele>
        <time>2021-08-06 19:18:12</time>
      </trkpt>
      <trkpt lat="37.08092" lon="-3.38078">
        <ele>2765.2</ele>
        <time>2021-08-06 19:18:13</time>
      </trkpt>
      <trkpt lat="37.08092" lon="-3.38078">
        <ele>2765.2</ele>
        <time>2021-08-06 19:18:14</time>
      </trkpt>
      <trkpt lat="37.08093" lon="-3.38078">
        <ele>2765.2</ele>
        <time>2021-08-06 19:18:15</time>
      </trkpt>
      <trkpt lat="37.08094" lon="-3.38078">
        <ele>2765</ele>
        <time>2021-08-06 19:18:16</time>
      </trkpt>
      <trkpt lat="37.08094" lon="-3.38078">
        <ele>2765</ele>
        <time>2021-08-06 19:18:17</time>
      </trkpt>
      <trkpt lat="37.08095" lon="-3.38078">
        <ele>2764.8</ele>
        <time>2021-08-06 19:18:18</time>
      </trkpt>
      <trkpt lat="37.08095" lon="-3.38078">
        <ele>2764.8</ele>
        <time>2021-08-06 19:18:19</time>
      </trkpt>
      <trkpt lat="37.08096" lon="-3.38078">
        <ele>2764.6</ele>
        <time>2021-08-06 19:18:20</time>
      </trkpt>
      <trkpt lat="37.08097" lon="-3.38079">
        <ele>2764.4</ele>
        <time>2021-08-06 19:18:21</time>
      </trkpt>
      <trkpt lat="37.08098" lon="-3.38079">
        <ele>2764.4</ele>
        <time>2021-08-06 19:18:22</time>
      </trkpt>
      <trkpt lat="37.08099" lon="-3.3808">
        <ele>2764.2</ele>
        <time>2021-08-06 19:18:23</time>
      </trkpt>
      <trkpt lat="37.08099" lon="-3.3808">
        <ele>2763.8</ele>
        <time>2021-08-06 19:18:24</time>
      </trkpt>
      <trkpt lat="37.08099" lon="-3.38081">
        <ele>2763.6</ele>
        <time>2021-08-06 19:18:25</time>
      </trkpt>
      <trkpt lat="37.081" lon="-3.38081">
        <ele>2763.4</ele>
        <time>2021-08-06 19:18:26</time>
      </trkpt>
      <trkpt lat="37.081" lon="-3.38081">
        <ele>2763.2</ele>
        <time>2021-08-06 19:18:27</time>
      </trkpt>
      <trkpt lat="37.08099" lon="-3.38082">
        <ele>2763.2</ele>
        <time>2021-08-06 19:18:28</time>
      </trkpt>
      <trkpt lat="37.081" lon="-3.38082">
        <ele>2763.2</ele>
        <time>2021-08-06 19:18:29</time>
      </trkpt>
      <trkpt lat="37.081" lon="-3.38083">
        <ele>2763</ele>
        <time>2021-08-06 19:18:30</time>
      </trkpt>
      <trkpt lat="37.08101" lon="-3.38083">
        <ele>2762.8</ele>
        <time>2021-08-06 19:18:31</time>
      </trkpt>
      <trkpt lat="37.08101" lon="-3.38082">
        <ele>2762.8</ele>
        <time>2021-08-06 19:18:32</time>
      </trkpt>
      <trkpt lat="37.08102" lon="-3.38082">
        <ele>2762.8</ele>
        <time>2021-08-06 19:18:33</time>
      </trkpt>
      <trkpt lat="37.08103" lon="-3.38083">
        <ele>2762.6</ele>
        <time>2021-08-06 19:18:34</time>
      </trkpt>
      <trkpt lat="37.08103" lon="-3.38081">
        <ele>2762.4</ele>
        <time>2021-08-06 19:18:35</time>
      </trkpt>
      <trkpt lat="37.08104" lon="-3.38081">
        <ele>2762.4</ele>
        <time>2021-08-06 19:18:36</time>
      </trkpt>
      <trkpt lat="37.08105" lon="-3.38081">
        <ele>2762.2</ele>
        <time>2021-08-06 19:18:37</time>
      </trkpt>
      <trkpt lat="37.08106" lon="-3.3808">
        <ele>2762</ele>
        <time>2021-08-06 19:18:38</time>
      </trkpt>
      <trkpt lat="37.08107" lon="-3.3808">
        <ele>2761.8</ele>
        <time>2021-08-06 19:18:39</time>
      </trkpt>
      <trkpt lat="37.08109" lon="-3.3808">
        <ele>2761.6</ele>
        <time>2021-08-06 19:18:40</time>
      </trkpt>
      <trkpt lat="37.0811" lon="-3.38082">
        <ele>2761.4</ele>
        <time>2021-08-06 19:18:41</time>
      </trkpt>
      <trkpt lat="37.08111" lon="-3.38082">
        <ele>2761.2</ele>
        <time>2021-08-06 19:18:42</time>
      </trkpt>
      <trkpt lat="37.08112" lon="-3.38083">
        <ele>2761</ele>
        <time>2021-08-06 19:18:43</time>
      </trkpt>
      <trkpt lat="37.08113" lon="-3.38083">
        <ele>2761</ele>
        <time>2021-08-06 19:18:44</time>
      </trkpt>
      <trkpt lat="37.08113" lon="-3.38082">
        <ele>2760.6</ele>
        <time>2021-08-06 19:18:45</time>
      </trkpt>
      <trkpt lat="37.08113" lon="-3.38082">
        <ele>2760.4</ele>
        <time>2021-08-06 19:18:46</time>
      </trkpt>
      <trkpt lat="37.08114" lon="-3.38082">
        <ele>2760.2</ele>
        <time>2021-08-06 19:18:47</time>
      </trkpt>
      <trkpt lat="37.08114" lon="-3.38082">
        <ele>2760</ele>
        <time>2021-08-06 19:18:48</time>
      </trkpt>
      <trkpt lat="37.08114" lon="-3.38083">
        <ele>2760</ele>
        <time>2021-08-06 19:18:49</time>
      </trkpt>
      <trkpt lat="37.08115" lon="-3.38083">
        <ele>2759.8</ele>
        <time>2021-08-06 19:18:50</time>
      </trkpt>
      <trkpt lat="37.08115" lon="-3.38083">
        <ele>2759.8</ele>
        <time>2021-08-06 19:18:51</time>
      </trkpt>
      <trkpt lat="37.08116" lon="-3.38084">
        <ele>2759.6</ele>
        <time>2021-08-06 19:18:52</time>
      </trkpt>
      <trkpt lat="37.08117" lon="-3.38083">
        <ele>2759.4</ele>
        <time>2021-08-06 19:18:53</time>
      </trkpt>
      <trkpt lat="37.08118" lon="-3.38083">
        <ele>2759.2</ele>
        <time>2021-08-06 19:18:54</time>
      </trkpt>
      <trkpt lat="37.08119" lon="-3.38083">
        <ele>2759.2</ele>
        <time>2021-08-06 19:18:55</time>
      </trkpt>
      <trkpt lat="37.0812" lon="-3.38083">
        <ele>2759</ele>
        <time>2021-08-06 19:18:56</time>
      </trkpt>
      <trkpt lat="37.08121" lon="-3.38083">
        <ele>2759</ele>
        <time>2021-08-06 19:18:57</time>
      </trkpt>
      <trkpt lat="37.08122" lon="-3.38083">
        <ele>2758.8</ele>
        <time>2021-08-06 19:18:58</time>
      </trkpt>
      <trkpt lat="37.08123" lon="-3.38082">
        <ele>2758.6</ele>
        <time>2021-08-06 19:18:59</time>
      </trkpt>
      <trkpt lat="37.08124" lon="-3.38082">
        <ele>2758.2</ele>
        <time>2021-08-06 19:19:00</time>
      </trkpt>
      <trkpt lat="37.08125" lon="-3.38083">
        <ele>2758.2</ele>
        <time>2021-08-06 19:19:01</time>
      </trkpt>
      <trkpt lat="37.08125" lon="-3.38083">
        <ele>2757.8</ele>
        <time>2021-08-06 19:19:02</time>
      </trkpt>
      <trkpt lat="37.08126" lon="-3.38083">
        <ele>2757.6</ele>
        <time>2021-08-06 19:19:03</time>
      </trkpt>
      <trkpt lat="37.08127" lon="-3.38083">
        <ele>2757.4</ele>
        <time>2021-08-06 19:19:04</time>
      </trkpt>
      <trkpt lat="37.08127" lon="-3.38083">
        <ele>2757.2</ele>
        <time>2021-08-06 19:19:05</time>
      </trkpt>
      <trkpt lat="37.08128" lon="-3.38083">
        <ele>2757</ele>
        <time>2021-08-06 19:19:06</time>
      </trkpt>
      <trkpt lat="37.08129" lon="-3.38083">
        <ele>2757</ele>
        <time>2021-08-06 19:19:07</time>
      </trkpt>
      <trkpt lat="37.0813" lon="-3.38082">
        <ele>2757</ele>
        <time>2021-08-06 19:19:08</time>
      </trkpt>
      <trkpt lat="37.0813" lon="-3.38082">
        <ele>2756.4</ele>
        <time>2021-08-06 19:19:09</time>
      </trkpt>
      <trkpt lat="37.08131" lon="-3.38082">
        <ele>2756.2</ele>
        <time>2021-08-06 19:19:10</time>
      </trkpt>
      <trkpt lat="37.08131" lon="-3.38082">
        <ele>2756</ele>
        <time>2021-08-06 19:19:11</time>
      </trkpt>
      <trkpt lat="37.08132" lon="-3.38082">
        <ele>2756</ele>
        <time>2021-08-06 19:19:12</time>
      </trkpt>
      <trkpt lat="37.08133" lon="-3.38082">
        <ele>2755.8</ele>
        <time>2021-08-06 19:19:13</time>
      </trkpt>
      <trkpt lat="37.08133" lon="-3.38083">
        <ele>2755.6</ele>
        <time>2021-08-06 19:19:14</time>
      </trkpt>
      <trkpt lat="37.08134" lon="-3.38083">
        <ele>2755.4</ele>
        <time>2021-08-06 19:19:15</time>
      </trkpt>
      <trkpt lat="37.08135" lon="-3.38084">
        <ele>2755.2</ele>
        <time>2021-08-06 19:19:16</time>
      </trkpt>
      <trkpt lat="37.08135" lon="-3.38084">
        <ele>2755</ele>
        <time>2021-08-06 19:19:17</time>
      </trkpt>
      <trkpt lat="37.08135" lon="-3.38084">
        <ele>2754.6</ele>
        <time>2021-08-06 19:19:18</time>
      </trkpt>
      <trkpt lat="37.08136" lon="-3.38085">
        <ele>2754.4</ele>
        <time>2021-08-06 19:19:19</time>
      </trkpt>
      <trkpt lat="37.08137" lon="-3.38085">
        <ele>2754.2</ele>
        <time>2021-08-06 19:19:20</time>
      </trkpt>
      <trkpt lat="37.08138" lon="-3.38086">
        <ele>2754.2</ele>
        <time>2021-08-06 19:19:21</time>
      </trkpt>
      <trkpt lat="37.08139" lon="-3.38085">
        <ele>2754</ele>
        <time>2021-08-06 19:19:22</time>
      </trkpt>
      <trkpt lat="37.08139" lon="-3.38085">
        <ele>2754</ele>
        <time>2021-08-06 19:19:23</time>
      </trkpt>
      <trkpt lat="37.0814" lon="-3.38085">
        <ele>2753.8</ele>
        <time>2021-08-06 19:19:24</time>
      </trkpt>
      <trkpt lat="37.08141" lon="-3.38086">
        <ele>2753.8</ele>
        <time>2021-08-06 19:19:25</time>
      </trkpt>
      <trkpt lat="37.08142" lon="-3.38086">
        <ele>2753.6</ele>
        <time>2021-08-06 19:19:26</time>
      </trkpt>
      <trkpt lat="37.08142" lon="-3.38087">
        <ele>2753.6</ele>
        <time>2021-08-06 19:19:27</time>
      </trkpt>
      <trkpt lat="37.08143" lon="-3.38088">
        <ele>2753</ele>
        <time>2021-08-06 19:19:28</time>
      </trkpt>
      <trkpt lat="37.08144" lon="-3.38088">
        <ele>2752.8</ele>
        <time>2021-08-06 19:19:29</time>
      </trkpt>
      <trkpt lat="37.08145" lon="-3.38088">
        <ele>2752.6</ele>
        <time>2021-08-06 19:19:30</time>
      </trkpt>
      <trkpt lat="37.08145" lon="-3.38088">
        <ele>2752.6</ele>
        <time>2021-08-06 19:19:31</time>
      </trkpt>
      <trkpt lat="37.08145" lon="-3.38088">
        <ele>2752.4</ele>
        <time>2021-08-06 19:19:32</time>
      </trkpt>
      <trkpt lat="37.08145" lon="-3.38087">
        <ele>2752.4</ele>
        <time>2021-08-06 19:19:33</time>
      </trkpt>
      <trkpt lat="37.08146" lon="-3.38087">
        <ele>2752.4</ele>
        <time>2021-08-06 19:19:34</time>
      </trkpt>
      <trkpt lat="37.08146" lon="-3.38087">
        <ele>2752.4</ele>
        <time>2021-08-06 19:19:35</time>
      </trkpt>
      <trkpt lat="37.08148" lon="-3.38087">
        <ele>2752</ele>
        <time>2021-08-06 19:19:36</time>
      </trkpt>
      <trkpt lat="37.08149" lon="-3.38087">
        <ele>2751.8</ele>
        <time>2021-08-06 19:19:37</time>
      </trkpt>
      <trkpt lat="37.0815" lon="-3.38087">
        <ele>2751.6</ele>
        <time>2021-08-06 19:19:38</time>
      </trkpt>
      <trkpt lat="37.08151" lon="-3.38087">
        <ele>2751.6</ele>
        <time>2021-08-06 19:19:39</time>
      </trkpt>
      <trkpt lat="37.08151" lon="-3.38087">
        <ele>2751.4</ele>
        <time>2021-08-06 19:19:40</time>
      </trkpt>
      <trkpt lat="37.08152" lon="-3.38087">
        <ele>2751.4</ele>
        <time>2021-08-06 19:19:41</time>
      </trkpt>
      <trkpt lat="37.08154" lon="-3.38087">
        <ele>2751.2</ele>
        <time>2021-08-06 19:19:42</time>
      </trkpt>
      <trkpt lat="37.08156" lon="-3.38088">
        <ele>2751</ele>
        <time>2021-08-06 19:19:43</time>
      </trkpt>
      <trkpt lat="37.08157" lon="-3.38088">
        <ele>2750.6</ele>
        <time>2021-08-06 19:19:44</time>
      </trkpt>
      <trkpt lat="37.08158" lon="-3.38088">
        <ele>2750.4</ele>
        <time>2021-08-06 19:19:45</time>
      </trkpt>
      <trkpt lat="37.0816" lon="-3.38088">
        <ele>2750</ele>
        <time>2021-08-06 19:19:46</time>
      </trkpt>
      <trkpt lat="37.08161" lon="-3.38089">
        <ele>2749.8</ele>
        <time>2021-08-06 19:19:47</time>
      </trkpt>
      <trkpt lat="37.08164" lon="-3.38089">
        <ele>2749.6</ele>
        <time>2021-08-06 19:19:48</time>
      </trkpt>
      <trkpt lat="37.08162" lon="-3.38089">
        <ele>2749.6</ele>
        <time>2021-08-06 19:19:49</time>
      </trkpt>
      <trkpt lat="37.08162" lon="-3.38089">
        <ele>2749.4</ele>
        <time>2021-08-06 19:19:50</time>
      </trkpt>
      <trkpt lat="37.08162" lon="-3.38089">
        <ele>2749.2</ele>
        <time>2021-08-06 19:19:51</time>
      </trkpt>
      <trkpt lat="37.08162" lon="-3.38089">
        <ele>2749</ele>
        <time>2021-08-06 19:19:52</time>
      </trkpt>
      <trkpt lat="37.08163" lon="-3.38089">
        <ele>2748.6</ele>
        <time>2021-08-06 19:19:53</time>
      </trkpt>
      <trkpt lat="37.08163" lon="-3.38089">
        <ele>2748.2</ele>
        <time>2021-08-06 19:19:54</time>
      </trkpt>
      <trkpt lat="37.08163" lon="-3.38089">
        <ele>2748</ele>
        <time>2021-08-06 19:19:55</time>
      </trkpt>
      <trkpt lat="37.08163" lon="-3.3809">
        <ele>2747.8</ele>
        <time>2021-08-06 19:19:56</time>
      </trkpt>
      <trkpt lat="37.08163" lon="-3.38091">
        <ele>2747.6</ele>
        <time>2021-08-06 19:19:57</time>
      </trkpt>
      <trkpt lat="37.08165" lon="-3.3809">
        <ele>2747.4</ele>
        <time>2021-08-06 19:19:58</time>
      </trkpt>
      <trkpt lat="37.08165" lon="-3.38089">
        <ele>2747.2</ele>
        <time>2021-08-06 19:19:59</time>
      </trkpt>
      <trkpt lat="37.08166" lon="-3.38088">
        <ele>2747</ele>
        <time>2021-08-06 19:20:00</time>
      </trkpt>
      <trkpt lat="37.08167" lon="-3.38088">
        <ele>2746.6</ele>
        <time>2021-08-06 19:20:01</time>
      </trkpt>
      <trkpt lat="37.08168" lon="-3.38088">
        <ele>2746.2</ele>
        <time>2021-08-06 19:20:02</time>
      </trkpt>
      <trkpt lat="37.08169" lon="-3.38087">
        <ele>2746</ele>
        <time>2021-08-06 19:20:03</time>
      </trkpt>
      <trkpt lat="37.0817" lon="-3.38087">
        <ele>2746</ele>
        <time>2021-08-06 19:20:04</time>
      </trkpt>
      <trkpt lat="37.08171" lon="-3.38087">
        <ele>2745.6</ele>
        <time>2021-08-06 19:20:05</time>
      </trkpt>
      <trkpt lat="37.08172" lon="-3.38087">
        <ele>2745.6</ele>
        <time>2021-08-06 19:20:06</time>
      </trkpt>
      <trkpt lat="37.08173" lon="-3.38088">
        <ele>2745.4</ele>
        <time>2021-08-06 19:20:07</time>
      </trkpt>
      <trkpt lat="37.08173" lon="-3.38088">
        <ele>2745.2</ele>
        <time>2021-08-06 19:20:08</time>
      </trkpt>
      <trkpt lat="37.08174" lon="-3.38088">
        <ele>2745.2</ele>
        <time>2021-08-06 19:20:09</time>
      </trkpt>
      <trkpt lat="37.08174" lon="-3.38088">
        <ele>2745</ele>
        <time>2021-08-06 19:20:10</time>
      </trkpt>
      <trkpt lat="37.08175" lon="-3.38088">
        <ele>2745</ele>
        <time>2021-08-06 19:20:11</time>
      </trkpt>
      <trkpt lat="37.08176" lon="-3.38087">
        <ele>2745</ele>
        <time>2021-08-06 19:20:12</time>
      </trkpt>
      <trkpt lat="37.08176" lon="-3.38086">
        <ele>2744.8</ele>
        <time>2021-08-06 19:20:13</time>
      </trkpt>
      <trkpt lat="37.08177" lon="-3.38085">
        <ele>2744.6</ele>
        <time>2021-08-06 19:20:14</time>
      </trkpt>
      <trkpt lat="37.08177" lon="-3.38085">
        <ele>2744.4</ele>
        <time>2021-08-06 19:20:15</time>
      </trkpt>
      <trkpt lat="37.08178" lon="-3.38085">
        <ele>2744.2</ele>
        <time>2021-08-06 19:20:16</time>
      </trkpt>
      <trkpt lat="37.08178" lon="-3.38085">
        <ele>2744</ele>
        <time>2021-08-06 19:20:17</time>
      </trkpt>
      <trkpt lat="37.08179" lon="-3.38085">
        <ele>2743.6</ele>
        <time>2021-08-06 19:20:18</time>
      </trkpt>
      <trkpt lat="37.08179" lon="-3.38085">
        <ele>2743.2</ele>
        <time>2021-08-06 19:20:19</time>
      </trkpt>
      <trkpt lat="37.0818" lon="-3.38085">
        <ele>2743</ele>
        <time>2021-08-06 19:20:20</time>
      </trkpt>
      <trkpt lat="37.08181" lon="-3.38086">
        <ele>2743</ele>
        <time>2021-08-06 19:20:21</time>
      </trkpt>
      <trkpt lat="37.08181" lon="-3.38085">
        <ele>2742.6</ele>
        <time>2021-08-06 19:20:22</time>
      </trkpt>
      <trkpt lat="37.08182" lon="-3.38084">
        <ele>2742.4</ele>
        <time>2021-08-06 19:20:23</time>
      </trkpt>
      <trkpt lat="37.08182" lon="-3.38085">
        <ele>2742.2</ele>
        <time>2021-08-06 19:20:24</time>
      </trkpt>
      <trkpt lat="37.08183" lon="-3.38085">
        <ele>2742.2</ele>
        <time>2021-08-06 19:20:25</time>
      </trkpt>
      <trkpt lat="37.08184" lon="-3.38085">
        <ele>2741.4</ele>
        <time>2021-08-06 19:20:26</time>
      </trkpt>
      <trkpt lat="37.08186" lon="-3.38084">
        <ele>2741</ele>
        <time>2021-08-06 19:20:27</time>
      </trkpt>
      <trkpt lat="37.08187" lon="-3.38084">
        <ele>2741</ele>
        <time>2021-08-06 19:20:28</time>
      </trkpt>
      <trkpt lat="37.08189" lon="-3.38084">
        <ele>2740.8</ele>
        <time>2021-08-06 19:20:29</time>
      </trkpt>
      <trkpt lat="37.08189" lon="-3.38085">
        <ele>2740.8</ele>
        <time>2021-08-06 19:20:30</time>
      </trkpt>
      <trkpt lat="37.0819" lon="-3.38085">
        <ele>2740.6</ele>
        <time>2021-08-06 19:20:31</time>
      </trkpt>
      <trkpt lat="37.08191" lon="-3.38085">
        <ele>2740.4</ele>
        <time>2021-08-06 19:20:32</time>
      </trkpt>
      <trkpt lat="37.08192" lon="-3.38085">
        <ele>2740.4</ele>
        <time>2021-08-06 19:20:33</time>
      </trkpt>
      <trkpt lat="37.08193" lon="-3.38086">
        <ele>2740</ele>
        <time>2021-08-06 19:20:34</time>
      </trkpt>
      <trkpt lat="37.08194" lon="-3.38086">
        <ele>2739.8</ele>
        <time>2021-08-06 19:20:35</time>
      </trkpt>
      <trkpt lat="37.08195" lon="-3.38086">
        <ele>2739.6</ele>
        <time>2021-08-06 19:20:36</time>
      </trkpt>
      <trkpt lat="37.08196" lon="-3.38086">
        <ele>2739.6</ele>
        <time>2021-08-06 19:20:37</time>
      </trkpt>
      <trkpt lat="37.08197" lon="-3.38086">
        <ele>2739.6</ele>
        <time>2021-08-06 19:20:38</time>
      </trkpt>
      <trkpt lat="37.08198" lon="-3.38086">
        <ele>2739.4</ele>
        <time>2021-08-06 19:20:39</time>
      </trkpt>
      <trkpt lat="37.08198" lon="-3.38087">
        <ele>2739.4</ele>
        <time>2021-08-06 19:20:40</time>
      </trkpt>
      <trkpt lat="37.08199" lon="-3.38087">
        <ele>2739.4</ele>
        <time>2021-08-06 19:20:41</time>
      </trkpt>
      <trkpt lat="37.08199" lon="-3.38087">
        <ele>2739.2</ele>
        <time>2021-08-06 19:20:42</time>
      </trkpt>
      <trkpt lat="37.082" lon="-3.38087">
        <ele>2738.8</ele>
        <time>2021-08-06 19:20:43</time>
      </trkpt>
      <trkpt lat="37.082" lon="-3.38088">
        <ele>2738.6</ele>
        <time>2021-08-06 19:20:44</time>
      </trkpt>
      <trkpt lat="37.08201" lon="-3.38088">
        <ele>2738</ele>
        <time>2021-08-06 19:20:45</time>
      </trkpt>
      <trkpt lat="37.08201" lon="-3.38088">
        <ele>2737.8</ele>
        <time>2021-08-06 19:20:46</time>
      </trkpt>
      <trkpt lat="37.08201" lon="-3.38088">
        <ele>2737.6</ele>
        <time>2021-08-06 19:20:47</time>
      </trkpt>
      <trkpt lat="37.08201" lon="-3.38089">
        <ele>2737.2</ele>
        <time>2021-08-06 19:20:48</time>
      </trkpt>
      <trkpt lat="37.08201" lon="-3.38089">
        <ele>2737.2</ele>
        <time>2021-08-06 19:20:49</time>
      </trkpt>
      <trkpt lat="37.08202" lon="-3.38089">
        <ele>2737</ele>
        <time>2021-08-06 19:20:50</time>
      </trkpt>
      <trkpt lat="37.08202" lon="-3.38089">
        <ele>2737</ele>
        <time>2021-08-06 19:20:51</time>
      </trkpt>
      <trkpt lat="37.08203" lon="-3.38089">
        <ele>2736.8</ele>
        <time>2021-08-06 19:20:52</time>
      </trkpt>
      <trkpt lat="37.08204" lon="-3.38089">
        <ele>2736.6</ele>
        <time>2021-08-06 19:20:53</time>
      </trkpt>
      <trkpt lat="37.08204" lon="-3.3809">
        <ele>2736.6</ele>
        <time>2021-08-06 19:20:54</time>
      </trkpt>
      <trkpt lat="37.08204" lon="-3.3809">
        <ele>2736.6</ele>
        <time>2021-08-06 19:20:55</time>
      </trkpt>
      <trkpt lat="37.08206" lon="-3.3809">
        <ele>2736.6</ele>
        <time>2021-08-06 19:20:56</time>
      </trkpt>
      <trkpt lat="37.08207" lon="-3.38091">
        <ele>2736</ele>
        <time>2021-08-06 19:20:57</time>
      </trkpt>
      <trkpt lat="37.08207" lon="-3.38092">
        <ele>2735.8</ele>
        <time>2021-08-06 19:20:58</time>
      </trkpt>
      <trkpt lat="37.08208" lon="-3.38092">
        <ele>2735.4</ele>
        <time>2021-08-06 19:20:59</time>
      </trkpt>
      <trkpt lat="37.08209" lon="-3.38092">
        <ele>2735</ele>
        <time>2021-08-06 19:21:00</time>
      </trkpt>
      <trkpt lat="37.0821" lon="-3.38092">
        <ele>2735</ele>
        <time>2021-08-06 19:21:01</time>
      </trkpt>
      <trkpt lat="37.08211" lon="-3.38092">
        <ele>2734.8</ele>
        <time>2021-08-06 19:21:02</time>
      </trkpt>
      <trkpt lat="37.08212" lon="-3.38093">
        <ele>2734.8</ele>
        <time>2021-08-06 19:21:03</time>
      </trkpt>
      <trkpt lat="37.08213" lon="-3.38093">
        <ele>2734.8</ele>
        <time>2021-08-06 19:21:04</time>
      </trkpt>
      <trkpt lat="37.08213" lon="-3.38093">
        <ele>2734.8</ele>
        <time>2021-08-06 19:21:05</time>
      </trkpt>
      <trkpt lat="37.08213" lon="-3.38093">
        <ele>2734.6</ele>
        <time>2021-08-06 19:21:06</time>
      </trkpt>
      <trkpt lat="37.08212" lon="-3.38092">
        <ele>2734.2</ele>
        <time>2021-08-06 19:21:07</time>
      </trkpt>
      <trkpt lat="37.08212" lon="-3.38091">
        <ele>2734</ele>
        <time>2021-08-06 19:21:08</time>
      </trkpt>
      <trkpt lat="37.08213" lon="-3.38092">
        <ele>2733.6</ele>
        <time>2021-08-06 19:21:09</time>
      </trkpt>
      <trkpt lat="37.08214" lon="-3.38092">
        <ele>2733.4</ele>
        <time>2021-08-06 19:21:10</time>
      </trkpt>
      <trkpt lat="37.08214" lon="-3.38093">
        <ele>2733.2</ele>
        <time>2021-08-06 19:21:11</time>
      </trkpt>
      <trkpt lat="37.08215" lon="-3.38093">
        <ele>2733</ele>
        <time>2021-08-06 19:21:12</time>
      </trkpt>
      <trkpt lat="37.08216" lon="-3.38093">
        <ele>2733</ele>
        <time>2021-08-06 19:21:13</time>
      </trkpt>
      <trkpt lat="37.08217" lon="-3.38093">
        <ele>2733</ele>
        <time>2021-08-06 19:21:14</time>
      </trkpt>
      <trkpt lat="37.08218" lon="-3.38094">
        <ele>2732.8</ele>
        <time>2021-08-06 19:21:15</time>
      </trkpt>
      <trkpt lat="37.08219" lon="-3.38095">
        <ele>2732.8</ele>
        <time>2021-08-06 19:21:16</time>
      </trkpt>
      <trkpt lat="37.0822" lon="-3.38096">
        <ele>2732.6</ele>
        <time>2021-08-06 19:21:17</time>
      </trkpt>
      <trkpt lat="37.0822" lon="-3.38097">
        <ele>2732.4</ele>
        <time>2021-08-06 19:21:18</time>
      </trkpt>
      <trkpt lat="37.08221" lon="-3.38097">
        <ele>2732.4</ele>
        <time>2021-08-06 19:21:19</time>
      </trkpt>
      <trkpt lat="37.08222" lon="-3.38097">
        <ele>2732.2</ele>
        <time>2021-08-06 19:21:20</time>
      </trkpt>
      <trkpt lat="37.08223" lon="-3.38095">
        <ele>2731.6</ele>
        <time>2021-08-06 19:21:21</time>
      </trkpt>
      <trkpt lat="37.08224" lon="-3.38095">
        <ele>2731.4</ele>
        <time>2021-08-06 19:21:22</time>
      </trkpt>
      <trkpt lat="37.08225" lon="-3.38095">
        <ele>2731</ele>
        <time>2021-08-06 19:21:23</time>
      </trkpt>
      <trkpt lat="37.08226" lon="-3.38096">
        <ele>2730.8</ele>
        <time>2021-08-06 19:21:24</time>
      </trkpt>
      <trkpt lat="37.08227" lon="-3.38096">
        <ele>2730.6</ele>
        <time>2021-08-06 19:21:25</time>
      </trkpt>
      <trkpt lat="37.08227" lon="-3.38096">
        <ele>2730.6</ele>
        <time>2021-08-06 19:21:26</time>
      </trkpt>
      <trkpt lat="37.08229" lon="-3.38096">
        <ele>2730.6</ele>
        <time>2021-08-06 19:21:27</time>
      </trkpt>
      <trkpt lat="37.0823" lon="-3.38098">
        <ele>2730.4</ele>
        <time>2021-08-06 19:21:28</time>
      </trkpt>
      <trkpt lat="37.08231" lon="-3.38098">
        <ele>2730.2</ele>
        <time>2021-08-06 19:21:29</time>
      </trkpt>
      <trkpt lat="37.08232" lon="-3.38098">
        <ele>2729.8</ele>
        <time>2021-08-06 19:21:30</time>
      </trkpt>
      <trkpt lat="37.08233" lon="-3.38098">
        <ele>2729.6</ele>
        <time>2021-08-06 19:21:31</time>
      </trkpt>
      <trkpt lat="37.08233" lon="-3.38099">
        <ele>2729.2</ele>
        <time>2021-08-06 19:21:32</time>
      </trkpt>
      <trkpt lat="37.08234" lon="-3.38099">
        <ele>2728.8</ele>
        <time>2021-08-06 19:21:33</time>
      </trkpt>
      <trkpt lat="37.08235" lon="-3.381">
        <ele>2728.6</ele>
        <time>2021-08-06 19:21:34</time>
      </trkpt>
      <trkpt lat="37.08236" lon="-3.38098">
        <ele>2728.4</ele>
        <time>2021-08-06 19:21:35</time>
      </trkpt>
      <trkpt lat="37.08238" lon="-3.38099">
        <ele>2728.2</ele>
        <time>2021-08-06 19:21:36</time>
      </trkpt>
      <trkpt lat="37.08239" lon="-3.38099">
        <ele>2728.2</ele>
        <time>2021-08-06 19:21:37</time>
      </trkpt>
      <trkpt lat="37.08241" lon="-3.38099">
        <ele>2728</ele>
        <time>2021-08-06 19:21:38</time>
      </trkpt>
      <trkpt lat="37.08242" lon="-3.381">
        <ele>2728</ele>
        <time>2021-08-06 19:21:39</time>
      </trkpt>
      <trkpt lat="37.08243" lon="-3.381">
        <ele>2728</ele>
        <time>2021-08-06 19:21:40</time>
      </trkpt>
      <trkpt lat="37.08244" lon="-3.38102">
        <ele>2727.8</ele>
        <time>2021-08-06 19:21:41</time>
      </trkpt>
      <trkpt lat="37.08244" lon="-3.38102">
        <ele>2727.8</ele>
        <time>2021-08-06 19:21:42</time>
      </trkpt>
      <trkpt lat="37.08245" lon="-3.38102">
        <ele>2727.6</ele>
        <time>2021-08-06 19:21:43</time>
      </trkpt>
      <trkpt lat="37.08246" lon="-3.38103">
        <ele>2727.4</ele>
        <time>2021-08-06 19:21:44</time>
      </trkpt>
      <trkpt lat="37.08246" lon="-3.38103">
        <ele>2727.2</ele>
        <time>2021-08-06 19:21:45</time>
      </trkpt>
      <trkpt lat="37.08246" lon="-3.38103">
        <ele>2727</ele>
        <time>2021-08-06 19:21:46</time>
      </trkpt>
      <trkpt lat="37.08246" lon="-3.38104">
        <ele>2726.8</ele>
        <time>2021-08-06 19:21:47</time>
      </trkpt>
      <trkpt lat="37.08246" lon="-3.38104">
        <ele>2726.8</ele>
        <time>2021-08-06 19:21:48</time>
      </trkpt>
      <trkpt lat="37.08245" lon="-3.38103">
        <ele>2726.4</ele>
        <time>2021-08-06 19:21:49</time>
      </trkpt>
      <trkpt lat="37.08246" lon="-3.38103">
        <ele>2726.2</ele>
        <time>2021-08-06 19:21:50</time>
      </trkpt>
      <trkpt lat="37.08247" lon="-3.38102">
        <ele>2726</ele>
        <time>2021-08-06 19:21:51</time>
      </trkpt>
      <trkpt lat="37.08248" lon="-3.38102">
        <ele>2725.8</ele>
        <time>2021-08-06 19:21:52</time>
      </trkpt>
      <trkpt lat="37.08249" lon="-3.38102">
        <ele>2725.2</ele>
        <time>2021-08-06 19:21:53</time>
      </trkpt>
      <trkpt lat="37.0825" lon="-3.38102">
        <ele>2725</ele>
        <time>2021-08-06 19:21:54</time>
      </trkpt>
      <trkpt lat="37.08251" lon="-3.38102">
        <ele>2724.6</ele>
        <time>2021-08-06 19:21:55</time>
      </trkpt>
      <trkpt lat="37.08253" lon="-3.38103">
        <ele>2724.6</ele>
        <time>2021-08-06 19:21:56</time>
      </trkpt>
      <trkpt lat="37.08254" lon="-3.38103">
        <ele>2724.4</ele>
        <time>2021-08-06 19:21:57</time>
      </trkpt>
      <trkpt lat="37.08255" lon="-3.38103">
        <ele>2724.2</ele>
        <time>2021-08-06 19:21:58</time>
      </trkpt>
      <trkpt lat="37.08255" lon="-3.38104">
        <ele>2724.2</ele>
        <time>2021-08-06 19:21:59</time>
      </trkpt>
      <trkpt lat="37.08256" lon="-3.38104">
        <ele>2724.2</ele>
        <time>2021-08-06 19:22:00</time>
      </trkpt>
      <trkpt lat="37.08256" lon="-3.38104">
        <ele>2724.2</ele>
        <time>2021-08-06 19:22:01</time>
      </trkpt>
      <trkpt lat="37.08256" lon="-3.38104">
        <ele>2724</ele>
        <time>2021-08-06 19:22:02</time>
      </trkpt>
      <trkpt lat="37.08257" lon="-3.38104">
        <ele>2723.6</ele>
        <time>2021-08-06 19:22:03</time>
      </trkpt>
      <trkpt lat="37.08257" lon="-3.38105">
        <ele>2723.8</ele>
        <time>2021-08-06 19:22:04</time>
      </trkpt>
      <trkpt lat="37.08259" lon="-3.38106">
        <ele>2723.4</ele>
        <time>2021-08-06 19:22:05</time>
      </trkpt>
      <trkpt lat="37.08259" lon="-3.38107">
        <ele>2723.4</ele>
        <time>2021-08-06 19:22:06</time>
      </trkpt>
      <trkpt lat="37.0826" lon="-3.38107">
        <ele>2723.2</ele>
        <time>2021-08-06 19:22:07</time>
      </trkpt>
      <trkpt lat="37.0826" lon="-3.38107">
        <ele>2723.2</ele>
        <time>2021-08-06 19:22:08</time>
      </trkpt>
      <trkpt lat="37.08261" lon="-3.38107">
        <ele>2723.4</ele>
        <time>2021-08-06 19:22:09</time>
      </trkpt>
      <trkpt lat="37.08262" lon="-3.38107">
        <ele>2723.4</ele>
        <time>2021-08-06 19:22:10</time>
      </trkpt>
      <trkpt lat="37.08262" lon="-3.38107">
        <ele>2723.2</ele>
        <time>2021-08-06 19:22:11</time>
      </trkpt>
      <trkpt lat="37.08263" lon="-3.38106">
        <ele>2723.2</ele>
        <time>2021-08-06 19:22:12</time>
      </trkpt>
      <trkpt lat="37.08263" lon="-3.38106">
        <ele>2723</ele>
        <time>2021-08-06 19:22:13</time>
      </trkpt>
      <trkpt lat="37.08263" lon="-3.38106">
        <ele>2722.8</ele>
        <time>2021-08-06 19:22:14</time>
      </trkpt>
      <trkpt lat="37.08264" lon="-3.38106">
        <ele>2722.6</ele>
        <time>2021-08-06 19:22:15</time>
      </trkpt>
      <trkpt lat="37.08264" lon="-3.38107">
        <ele>2722.4</ele>
        <time>2021-08-06 19:22:16</time>
      </trkpt>
      <trkpt lat="37.08265" lon="-3.38107">
        <ele>2722.6</ele>
        <time>2021-08-06 19:22:17</time>
      </trkpt>
      <trkpt lat="37.08266" lon="-3.38106">
        <ele>2722.6</ele>
        <time>2021-08-06 19:22:18</time>
      </trkpt>
      <trkpt lat="37.08268" lon="-3.38106">
        <ele>2722.6</ele>
        <time>2021-08-06 19:22:19</time>
      </trkpt>
      <trkpt lat="37.08269" lon="-3.38106">
        <ele>2722.6</ele>
        <time>2021-08-06 19:22:20</time>
      </trkpt>
      <trkpt lat="37.08271" lon="-3.38106">
        <ele>2722.6</ele>
        <time>2021-08-06 19:22:21</time>
      </trkpt>
      <trkpt lat="37.08272" lon="-3.38105">
        <ele>2722.6</ele>
        <time>2021-08-06 19:22:22</time>
      </trkpt>
      <trkpt lat="37.08274" lon="-3.38103">
        <ele>2722.6</ele>
        <time>2021-08-06 19:22:23</time>
      </trkpt>
      <trkpt lat="37.08275" lon="-3.38102">
        <ele>2722.6</ele>
        <time>2021-08-06 19:22:24</time>
      </trkpt>
      <trkpt lat="37.08276" lon="-3.38103">
        <ele>2722.6</ele>
        <time>2021-08-06 19:22:25</time>
      </trkpt>
      <trkpt lat="37.08277" lon="-3.38103">
        <ele>2722</ele>
        <time>2021-08-06 19:22:26</time>
      </trkpt>
      <trkpt lat="37.08278" lon="-3.38103">
        <ele>2721.8</ele>
        <time>2021-08-06 19:22:27</time>
      </trkpt>
      <trkpt lat="37.08279" lon="-3.38103">
        <ele>2721.6</ele>
        <time>2021-08-06 19:22:28</time>
      </trkpt>
      <trkpt lat="37.0828" lon="-3.38103">
        <ele>2721.6</ele>
        <time>2021-08-06 19:22:29</time>
      </trkpt>
      <trkpt lat="37.08281" lon="-3.38103">
        <ele>2721.6</ele>
        <time>2021-08-06 19:22:30</time>
      </trkpt>
      <trkpt lat="37.08281" lon="-3.38104">
        <ele>2721.2</ele>
        <time>2021-08-06 19:22:31</time>
      </trkpt>
      <trkpt lat="37.08282" lon="-3.38104">
        <ele>2721</ele>
        <time>2021-08-06 19:22:32</time>
      </trkpt>
      <trkpt lat="37.08283" lon="-3.38104">
        <ele>2721</ele>
        <time>2021-08-06 19:22:33</time>
      </trkpt>
      <trkpt lat="37.08284" lon="-3.38104">
        <ele>2720.6</ele>
        <time>2021-08-06 19:22:34</time>
      </trkpt>
      <trkpt lat="37.08285" lon="-3.38104">
        <ele>2720.4</ele>
        <time>2021-08-06 19:22:35</time>
      </trkpt>
      <trkpt lat="37.08286" lon="-3.38104">
        <ele>2720.2</ele>
        <time>2021-08-06 19:22:36</time>
      </trkpt>
      <trkpt lat="37.08288" lon="-3.38104">
        <ele>2720.2</ele>
        <time>2021-08-06 19:22:37</time>
      </trkpt>
      <trkpt lat="37.08289" lon="-3.38104">
        <ele>2720.2</ele>
        <time>2021-08-06 19:22:38</time>
      </trkpt>
      <trkpt lat="37.0829" lon="-3.38104">
        <ele>2719.8</ele>
        <time>2021-08-06 19:22:39</time>
      </trkpt>
      <trkpt lat="37.08291" lon="-3.38104">
        <ele>2719.6</ele>
        <time>2021-08-06 19:22:40</time>
      </trkpt>
      <trkpt lat="37.08292" lon="-3.38104">
        <ele>2719.6</ele>
        <time>2021-08-06 19:22:41</time>
      </trkpt>
      <trkpt lat="37.08293" lon="-3.38104">
        <ele>2719.6</ele>
        <time>2021-08-06 19:22:42</time>
      </trkpt>
      <trkpt lat="37.08293" lon="-3.38104">
        <ele>2719.4</ele>
        <time>2021-08-06 19:22:43</time>
      </trkpt>
      <trkpt lat="37.08294" lon="-3.38104">
        <ele>2719.2</ele>
        <time>2021-08-06 19:22:44</time>
      </trkpt>
      <trkpt lat="37.08294" lon="-3.38104">
        <ele>2719.2</ele>
        <time>2021-08-06 19:22:45</time>
      </trkpt>
      <trkpt lat="37.08294" lon="-3.38104">
        <ele>2719.2</ele>
        <time>2021-08-06 19:22:46</time>
      </trkpt>
      <trkpt lat="37.08294" lon="-3.38104">
        <ele>2719</ele>
        <time>2021-08-06 19:22:47</time>
      </trkpt>
      <trkpt lat="37.08295" lon="-3.38104">
        <ele>2718.8</ele>
        <time>2021-08-06 19:22:48</time>
      </trkpt>
      <trkpt lat="37.08296" lon="-3.38104">
        <ele>2718.8</ele>
        <time>2021-08-06 19:22:49</time>
      </trkpt>
      <trkpt lat="37.08297" lon="-3.38105">
        <ele>2718.6</ele>
        <time>2021-08-06 19:22:50</time>
      </trkpt>
      <trkpt lat="37.08298" lon="-3.38105">
        <ele>2718.4</ele>
        <time>2021-08-06 19:22:51</time>
      </trkpt>
      <trkpt lat="37.08299" lon="-3.38106">
        <ele>2718.2</ele>
        <time>2021-08-06 19:22:52</time>
      </trkpt>
      <trkpt lat="37.083" lon="-3.38106">
        <ele>2718.2</ele>
        <time>2021-08-06 19:22:53</time>
      </trkpt>
      <trkpt lat="37.083" lon="-3.38105">
        <ele>2718.2</ele>
        <time>2021-08-06 19:22:54</time>
      </trkpt>
      <trkpt lat="37.08302" lon="-3.38105">
        <ele>2718.2</ele>
        <time>2021-08-06 19:22:55</time>
      </trkpt>
      <trkpt lat="37.08303" lon="-3.38105">
        <ele>2718.2</ele>
        <time>2021-08-06 19:22:56</time>
      </trkpt>
      <trkpt lat="37.08304" lon="-3.38105">
        <ele>2718.2</ele>
        <time>2021-08-06 19:22:57</time>
      </trkpt>
      <trkpt lat="37.08306" lon="-3.38106">
        <ele>2718.2</ele>
        <time>2021-08-06 19:22:58</time>
      </trkpt>
      <trkpt lat="37.08308" lon="-3.38106">
        <ele>2718.2</ele>
        <time>2021-08-06 19:22:59</time>
      </trkpt>
      <trkpt lat="37.08309" lon="-3.38107">
        <ele>2718</ele>
        <time>2021-08-06 19:23:00</time>
      </trkpt>
      <trkpt lat="37.0831" lon="-3.38107">
        <ele>2718</ele>
        <time>2021-08-06 19:23:01</time>
      </trkpt>
      <trkpt lat="37.08312" lon="-3.38108">
        <ele>2718</ele>
        <time>2021-08-06 19:23:02</time>
      </trkpt>
      <trkpt lat="37.08313" lon="-3.38106">
        <ele>2717.8</ele>
        <time>2021-08-06 19:23:03</time>
      </trkpt>
      <trkpt lat="37.08314" lon="-3.38106">
        <ele>2717.6</ele>
        <time>2021-08-06 19:23:04</time>
      </trkpt>
      <trkpt lat="37.08315" lon="-3.38106">
        <ele>2717.4</ele>
        <time>2021-08-06 19:23:05</time>
      </trkpt>
      <trkpt lat="37.08316" lon="-3.38106">
        <ele>2717.4</ele>
        <time>2021-08-06 19:23:06</time>
      </trkpt>
      <trkpt lat="37.08316" lon="-3.38106">
        <ele>2717.4</ele>
        <time>2021-08-06 19:23:07</time>
      </trkpt>
      <trkpt lat="37.08317" lon="-3.38106">
        <ele>2717.2</ele>
        <time>2021-08-06 19:23:08</time>
      </trkpt>
      <trkpt lat="37.08317" lon="-3.38106">
        <ele>2717</ele>
        <time>2021-08-06 19:23:09</time>
      </trkpt>
      <trkpt lat="37.08318" lon="-3.38107">
        <ele>2716.8</ele>
        <time>2021-08-06 19:23:10</time>
      </trkpt>
      <trkpt lat="37.08318" lon="-3.38107">
        <ele>2716.6</ele>
        <time>2021-08-06 19:23:11</time>
      </trkpt>
      <trkpt lat="37.08319" lon="-3.38107">
        <ele>2716.6</ele>
        <time>2021-08-06 19:23:12</time>
      </trkpt>
      <trkpt lat="37.0832" lon="-3.38108">
        <ele>2716.6</ele>
        <time>2021-08-06 19:23:13</time>
      </trkpt>
      <trkpt lat="37.08321" lon="-3.38108">
        <ele>2716.6</ele>
        <time>2021-08-06 19:23:14</time>
      </trkpt>
      <trkpt lat="37.08321" lon="-3.38108">
        <ele>2716.4</ele>
        <time>2021-08-06 19:23:15</time>
      </trkpt>
      <trkpt lat="37.08322" lon="-3.38108">
        <ele>2716.2</ele>
        <time>2021-08-06 19:23:16</time>
      </trkpt>
      <trkpt lat="37.08324" lon="-3.38109">
        <ele>2716.2</ele>
        <time>2021-08-06 19:23:17</time>
      </trkpt>
      <trkpt lat="37.08325" lon="-3.38109">
        <ele>2716.4</ele>
        <time>2021-08-06 19:23:18</time>
      </trkpt>
      <trkpt lat="37.08325" lon="-3.3811">
        <ele>2716.6</ele>
        <time>2021-08-06 19:23:19</time>
      </trkpt>
      <trkpt lat="37.08326" lon="-3.3811">
        <ele>2716.6</ele>
        <time>2021-08-06 19:23:20</time>
      </trkpt>
      <trkpt lat="37.08327" lon="-3.38111">
        <ele>2716.4</ele>
        <time>2021-08-06 19:23:21</time>
      </trkpt>
      <trkpt lat="37.08327" lon="-3.38112">
        <ele>2716.4</ele>
        <time>2021-08-06 19:23:22</time>
      </trkpt>
      <trkpt lat="37.08327" lon="-3.38114">
        <ele>2716.4</ele>
        <time>2021-08-06 19:23:23</time>
      </trkpt>
      <trkpt lat="37.08327" lon="-3.38115">
        <ele>2716.2</ele>
        <time>2021-08-06 19:23:24</time>
      </trkpt>
      <trkpt lat="37.08328" lon="-3.38116">
        <ele>2715.8</ele>
        <time>2021-08-06 19:23:25</time>
      </trkpt>
      <trkpt lat="37.08329" lon="-3.38116">
        <ele>2715.6</ele>
        <time>2021-08-06 19:23:26</time>
      </trkpt>
      <trkpt lat="37.08329" lon="-3.38117">
        <ele>2715.4</ele>
        <time>2021-08-06 19:23:27</time>
      </trkpt>
      <trkpt lat="37.0833" lon="-3.38117">
        <ele>2715.2</ele>
        <time>2021-08-06 19:23:28</time>
      </trkpt>
      <trkpt lat="37.08331" lon="-3.38118">
        <ele>2715.2</ele>
        <time>2021-08-06 19:23:29</time>
      </trkpt>
      <trkpt lat="37.08332" lon="-3.38119">
        <ele>2715</ele>
        <time>2021-08-06 19:23:30</time>
      </trkpt>
      <trkpt lat="37.08332" lon="-3.3812">
        <ele>2715</ele>
        <time>2021-08-06 19:23:31</time>
      </trkpt>
      <trkpt lat="37.08333" lon="-3.3812">
        <ele>2715</ele>
        <time>2021-08-06 19:23:32</time>
      </trkpt>
      <trkpt lat="37.08335" lon="-3.38117">
        <ele>2715</ele>
        <time>2021-08-06 19:23:33</time>
      </trkpt>
      <trkpt lat="37.08336" lon="-3.38117">
        <ele>2715</ele>
        <time>2021-08-06 19:23:34</time>
      </trkpt>
      <trkpt lat="37.08337" lon="-3.38117">
        <ele>2714.8</ele>
        <time>2021-08-06 19:23:35</time>
      </trkpt>
      <trkpt lat="37.08338" lon="-3.38117">
        <ele>2715</ele>
        <time>2021-08-06 19:23:36</time>
      </trkpt>
      <trkpt lat="37.08339" lon="-3.38118">
        <ele>2715</ele>
        <time>2021-08-06 19:23:37</time>
      </trkpt>
      <trkpt lat="37.08339" lon="-3.38119">
        <ele>2715</ele>
        <time>2021-08-06 19:23:38</time>
      </trkpt>
      <trkpt lat="37.0834" lon="-3.3812">
        <ele>2714.8</ele>
        <time>2021-08-06 19:23:39</time>
      </trkpt>
      <trkpt lat="37.0834" lon="-3.3812">
        <ele>2714.6</ele>
        <time>2021-08-06 19:23:40</time>
      </trkpt>
      <trkpt lat="37.0834" lon="-3.38122">
        <ele>2714.4</ele>
        <time>2021-08-06 19:23:41</time>
      </trkpt>
      <trkpt lat="37.08341" lon="-3.38123">
        <ele>2714.2</ele>
        <time>2021-08-06 19:23:42</time>
      </trkpt>
      <trkpt lat="37.08342" lon="-3.38124">
        <ele>2714</ele>
        <time>2021-08-06 19:23:43</time>
      </trkpt>
      <trkpt lat="37.08342" lon="-3.38125">
        <ele>2714</ele>
        <time>2021-08-06 19:23:44</time>
      </trkpt>
      <trkpt lat="37.08342" lon="-3.38125">
        <ele>2714.2</ele>
        <time>2021-08-06 19:23:45</time>
      </trkpt>
      <trkpt lat="37.08343" lon="-3.38125">
        <ele>2714</ele>
        <time>2021-08-06 19:23:46</time>
      </trkpt>
      <trkpt lat="37.08344" lon="-3.38126">
        <ele>2714</ele>
        <time>2021-08-06 19:23:47</time>
      </trkpt>
      <trkpt lat="37.08345" lon="-3.38126">
        <ele>2713.8</ele>
        <time>2021-08-06 19:23:48</time>
      </trkpt>
      <trkpt lat="37.08346" lon="-3.38126">
        <ele>2713.8</ele>
        <time>2021-08-06 19:23:49</time>
      </trkpt>
      <trkpt lat="37.08348" lon="-3.38126">
        <ele>2713.8</ele>
        <time>2021-08-06 19:23:50</time>
      </trkpt>
      <trkpt lat="37.0835" lon="-3.38124">
        <ele>2713.6</ele>
        <time>2021-08-06 19:23:51</time>
      </trkpt>
      <trkpt lat="37.08352" lon="-3.38125">
        <ele>2713.6</ele>
        <time>2021-08-06 19:23:52</time>
      </trkpt>
      <trkpt lat="37.08352" lon="-3.38126">
        <ele>2713.4</ele>
        <time>2021-08-06 19:23:53</time>
      </trkpt>
      <trkpt lat="37.08353" lon="-3.38128">
        <ele>2713.2</ele>
        <time>2021-08-06 19:23:54</time>
      </trkpt>
      <trkpt lat="37.08356" lon="-3.38126">
        <ele>2713.2</ele>
        <time>2021-08-06 19:23:55</time>
      </trkpt>
      <trkpt lat="37.08359" lon="-3.38126">
        <ele>2713</ele>
        <time>2021-08-06 19:23:56</time>
      </trkpt>
      <trkpt lat="37.08363" lon="-3.38125">
        <ele>2713</ele>
        <time>2021-08-06 19:23:57</time>
      </trkpt>
      <trkpt lat="37.08365" lon="-3.38125">
        <ele>2713</ele>
        <time>2021-08-06 19:23:58</time>
      </trkpt>
      <trkpt lat="37.08367" lon="-3.38125">
        <ele>2713</ele>
        <time>2021-08-06 19:23:59</time>
      </trkpt>
      <trkpt lat="37.08368" lon="-3.38125">
        <ele>2713.2</ele>
        <time>2021-08-06 19:24:00</time>
      </trkpt>
      <trkpt lat="37.08367" lon="-3.38126">
        <ele>2713.2</ele>
        <time>2021-08-06 19:24:01</time>
      </trkpt>
      <trkpt lat="37.08367" lon="-3.38127">
        <ele>2713.2</ele>
        <time>2021-08-06 19:24:02</time>
      </trkpt>
      <trkpt lat="37.08367" lon="-3.38129">
        <ele>2713.2</ele>
        <time>2021-08-06 19:24:03</time>
      </trkpt>
      <trkpt lat="37.08367" lon="-3.38129">
        <ele>2713</ele>
        <time>2021-08-06 19:24:04</time>
      </trkpt>
      <trkpt lat="37.08368" lon="-3.38129">
        <ele>2712.4</ele>
        <time>2021-08-06 19:24:05</time>
      </trkpt>
      <trkpt lat="37.08369" lon="-3.38129">
        <ele>2712</ele>
        <time>2021-08-06 19:24:06</time>
      </trkpt>
      <trkpt lat="37.08369" lon="-3.38129">
        <ele>2711.6</ele>
        <time>2021-08-06 19:24:07</time>
      </trkpt>
      <trkpt lat="37.0837" lon="-3.3813">
        <ele>2711.4</ele>
        <time>2021-08-06 19:24:08</time>
      </trkpt>
      <trkpt lat="37.08371" lon="-3.3813">
        <ele>2711.4</ele>
        <time>2021-08-06 19:24:09</time>
      </trkpt>
      <trkpt lat="37.08371" lon="-3.3813">
        <ele>2711.2</ele>
        <time>2021-08-06 19:24:10</time>
      </trkpt>
      <trkpt lat="37.08371" lon="-3.3813">
        <ele>2711.2</ele>
        <time>2021-08-06 19:24:11</time>
      </trkpt>
      <trkpt lat="37.08372" lon="-3.3813">
        <ele>2711.2</ele>
        <time>2021-08-06 19:24:12</time>
      </trkpt>
      <trkpt lat="37.08372" lon="-3.3813">
        <ele>2711.2</ele>
        <time>2021-08-06 19:24:13</time>
      </trkpt>
      <trkpt lat="37.08372" lon="-3.3813">
        <ele>2711.2</ele>
        <time>2021-08-06 19:24:14</time>
      </trkpt>
      <trkpt lat="37.08372" lon="-3.3813">
        <ele>2711</ele>
        <time>2021-08-06 19:24:15</time>
      </trkpt>
      <trkpt lat="37.08373" lon="-3.3813">
        <ele>2711</ele>
        <time>2021-08-06 19:24:16</time>
      </trkpt>
      <trkpt lat="37.08373" lon="-3.3813">
        <ele>2710.6</ele>
        <time>2021-08-06 19:24:17</time>
      </trkpt>
      <trkpt lat="37.08374" lon="-3.38131">
        <ele>2710.4</ele>
        <time>2021-08-06 19:24:18</time>
      </trkpt>
      <trkpt lat="37.08375" lon="-3.38131">
        <ele>2710</ele>
        <time>2021-08-06 19:24:19</time>
      </trkpt>
      <trkpt lat="37.08375" lon="-3.38131">
        <ele>2709.8</ele>
        <time>2021-08-06 19:24:20</time>
      </trkpt>
      <trkpt lat="37.08376" lon="-3.38131">
        <ele>2709.6</ele>
        <time>2021-08-06 19:24:21</time>
      </trkpt>
      <trkpt lat="37.08376" lon="-3.3813">
        <ele>2709.6</ele>
        <time>2021-08-06 19:24:22</time>
      </trkpt>
      <trkpt lat="37.08377" lon="-3.3813">
        <ele>2709.4</ele>
        <time>2021-08-06 19:24:23</time>
      </trkpt>
      <trkpt lat="37.08377" lon="-3.3813">
        <ele>2709</ele>
        <time>2021-08-06 19:24:24</time>
      </trkpt>
      <trkpt lat="37.08378" lon="-3.3813">
        <ele>2708.6</ele>
        <time>2021-08-06 19:24:25</time>
      </trkpt>
      <trkpt lat="37.08379" lon="-3.38131">
        <ele>2708.6</ele>
        <time>2021-08-06 19:24:26</time>
      </trkpt>
      <trkpt lat="37.08379" lon="-3.38131">
        <ele>2708.6</ele>
        <time>2021-08-06 19:24:27</time>
      </trkpt>
      <trkpt lat="37.0838" lon="-3.38131">
        <ele>2708.4</ele>
        <time>2021-08-06 19:24:28</time>
      </trkpt>
      <trkpt lat="37.08381" lon="-3.3813">
        <ele>2708.4</ele>
        <time>2021-08-06 19:24:29</time>
      </trkpt>
      <trkpt lat="37.08382" lon="-3.3813">
        <ele>2708.6</ele>
        <time>2021-08-06 19:24:30</time>
      </trkpt>
      <trkpt lat="37.08382" lon="-3.3813">
        <ele>2708.8</ele>
        <time>2021-08-06 19:24:31</time>
      </trkpt>
      <trkpt lat="37.08383" lon="-3.3813">
        <ele>2708.8</ele>
        <time>2021-08-06 19:24:32</time>
      </trkpt>
      <trkpt lat="37.08385" lon="-3.38131">
        <ele>2708.6</ele>
        <time>2021-08-06 19:24:33</time>
      </trkpt>
      <trkpt lat="37.08385" lon="-3.38131">
        <ele>2708.6</ele>
        <time>2021-08-06 19:24:34</time>
      </trkpt>
      <trkpt lat="37.08386" lon="-3.38131">
        <ele>2708.6</ele>
        <time>2021-08-06 19:24:35</time>
      </trkpt>
      <trkpt lat="37.08387" lon="-3.38131">
        <ele>2708.2</ele>
        <time>2021-08-06 19:24:36</time>
      </trkpt>
      <trkpt lat="37.08387" lon="-3.38131">
        <ele>2707.8</ele>
        <time>2021-08-06 19:24:37</time>
      </trkpt>
      <trkpt lat="37.08388" lon="-3.38132">
        <ele>2707.6</ele>
        <time>2021-08-06 19:24:38</time>
      </trkpt>
      <trkpt lat="37.08388" lon="-3.38133">
        <ele>2707.4</ele>
        <time>2021-08-06 19:24:39</time>
      </trkpt>
      <trkpt lat="37.08389" lon="-3.38134">
        <ele>2707.4</ele>
        <time>2021-08-06 19:24:40</time>
      </trkpt>
      <trkpt lat="37.08389" lon="-3.38135">
        <ele>2707.4</ele>
        <time>2021-08-06 19:24:41</time>
      </trkpt>
      <trkpt lat="37.08389" lon="-3.38135">
        <ele>2707.2</ele>
        <time>2021-08-06 19:24:42</time>
      </trkpt>
      <trkpt lat="37.0839" lon="-3.38135">
        <ele>2707</ele>
        <time>2021-08-06 19:24:43</time>
      </trkpt>
      <trkpt lat="37.08391" lon="-3.38135">
        <ele>2707</ele>
        <time>2021-08-06 19:24:44</time>
      </trkpt>
      <trkpt lat="37.08391" lon="-3.38136">
        <ele>2707</ele>
        <time>2021-08-06 19:24:45</time>
      </trkpt>
      <trkpt lat="37.08392" lon="-3.38137">
        <ele>2707</ele>
        <time>2021-08-06 19:24:46</time>
      </trkpt>
      <trkpt lat="37.08393" lon="-3.38138">
        <ele>2707</ele>
        <time>2021-08-06 19:24:47</time>
      </trkpt>
      <trkpt lat="37.08394" lon="-3.38138">
        <ele>2707</ele>
        <time>2021-08-06 19:24:48</time>
      </trkpt>
      <trkpt lat="37.08395" lon="-3.38139">
        <ele>2707.2</ele>
        <time>2021-08-06 19:24:49</time>
      </trkpt>
      <trkpt lat="37.08396" lon="-3.38139">
        <ele>2707.4</ele>
        <time>2021-08-06 19:24:50</time>
      </trkpt>
      <trkpt lat="37.08397" lon="-3.3814">
        <ele>2707.4</ele>
        <time>2021-08-06 19:24:51</time>
      </trkpt>
      <trkpt lat="37.08398" lon="-3.3814">
        <ele>2707.6</ele>
        <time>2021-08-06 19:24:52</time>
      </trkpt>
      <trkpt lat="37.08398" lon="-3.3814">
        <ele>2707.6</ele>
        <time>2021-08-06 19:24:53</time>
      </trkpt>
      <trkpt lat="37.08399" lon="-3.3814">
        <ele>2707.4</ele>
        <time>2021-08-06 19:24:54</time>
      </trkpt>
      <trkpt lat="37.084" lon="-3.38139">
        <ele>2707.2</ele>
        <time>2021-08-06 19:24:55</time>
      </trkpt>
      <trkpt lat="37.08401" lon="-3.38138">
        <ele>2707</ele>
        <time>2021-08-06 19:24:56</time>
      </trkpt>
      <trkpt lat="37.08402" lon="-3.38138">
        <ele>2707</ele>
        <time>2021-08-06 19:24:57</time>
      </trkpt>
      <trkpt lat="37.08403" lon="-3.38138">
        <ele>2707</ele>
        <time>2021-08-06 19:24:58</time>
      </trkpt>
      <trkpt lat="37.08404" lon="-3.38137">
        <ele>2707</ele>
        <time>2021-08-06 19:24:59</time>
      </trkpt>
      <trkpt lat="37.08403" lon="-3.38134">
        <ele>2707</ele>
        <time>2021-08-06 19:25:00</time>
      </trkpt>
      <trkpt lat="37.08404" lon="-3.38133">
        <ele>2707</ele>
        <time>2021-08-06 19:25:01</time>
      </trkpt>
      <trkpt lat="37.08405" lon="-3.38132">
        <ele>2707</ele>
        <time>2021-08-06 19:25:02</time>
      </trkpt>
      <trkpt lat="37.08405" lon="-3.38132">
        <ele>2707</ele>
        <time>2021-08-06 19:25:03</time>
      </trkpt>
      <trkpt lat="37.08407" lon="-3.38133">
        <ele>2706.6</ele>
        <time>2021-08-06 19:25:04</time>
      </trkpt>
      <trkpt lat="37.08408" lon="-3.38133">
        <ele>2706.6</ele>
        <time>2021-08-06 19:25:05</time>
      </trkpt>
      <trkpt lat="37.08409" lon="-3.38134">
        <ele>2706.4</ele>
        <time>2021-08-06 19:25:06</time>
      </trkpt>
      <trkpt lat="37.0841" lon="-3.38133">
        <ele>2706.4</ele>
        <time>2021-08-06 19:25:07</time>
      </trkpt>
      <trkpt lat="37.08411" lon="-3.38133">
        <ele>2706.2</ele>
        <time>2021-08-06 19:25:08</time>
      </trkpt>
      <trkpt lat="37.08411" lon="-3.38132">
        <ele>2706.2</ele>
        <time>2021-08-06 19:25:09</time>
      </trkpt>
      <trkpt lat="37.08412" lon="-3.38132">
        <ele>2706.2</ele>
        <time>2021-08-06 19:25:10</time>
      </trkpt>
      <trkpt lat="37.08413" lon="-3.38131">
        <ele>2706.2</ele>
        <time>2021-08-06 19:25:11</time>
      </trkpt>
      <trkpt lat="37.08414" lon="-3.3813">
        <ele>2705.8</ele>
        <time>2021-08-06 19:25:12</time>
      </trkpt>
      <trkpt lat="37.08416" lon="-3.3813">
        <ele>2705.6</ele>
        <time>2021-08-06 19:25:13</time>
      </trkpt>
      <trkpt lat="37.08416" lon="-3.38129">
        <ele>2705.6</ele>
        <time>2021-08-06 19:25:14</time>
      </trkpt>
      <trkpt lat="37.08417" lon="-3.38128">
        <ele>2705.6</ele>
        <time>2021-08-06 19:25:15</time>
      </trkpt>
      <trkpt lat="37.08418" lon="-3.38127">
        <ele>2705.4</ele>
        <time>2021-08-06 19:25:16</time>
      </trkpt>
      <trkpt lat="37.08419" lon="-3.38127">
        <ele>2705.2</ele>
        <time>2021-08-06 19:25:17</time>
      </trkpt>
      <trkpt lat="37.08419" lon="-3.38126">
        <ele>2705.4</ele>
        <time>2021-08-06 19:25:18</time>
      </trkpt>
      <trkpt lat="37.0842" lon="-3.38125">
        <ele>2705.2</ele>
        <time>2021-08-06 19:25:19</time>
      </trkpt>
      <trkpt lat="37.08421" lon="-3.38124">
        <ele>2705.4</ele>
        <time>2021-08-06 19:25:20</time>
      </trkpt>
      <trkpt lat="37.08422" lon="-3.38123">
        <ele>2705.2</ele>
        <time>2021-08-06 19:25:21</time>
      </trkpt>
      <trkpt lat="37.08422" lon="-3.38123">
        <ele>2705.2</ele>
        <time>2021-08-06 19:25:22</time>
      </trkpt>
      <trkpt lat="37.08424" lon="-3.38122">
        <ele>2705.2</ele>
        <time>2021-08-06 19:25:23</time>
      </trkpt>
      <trkpt lat="37.08425" lon="-3.38122">
        <ele>2705.4</ele>
        <time>2021-08-06 19:25:24</time>
      </trkpt>
      <trkpt lat="37.08426" lon="-3.38122">
        <ele>2705.2</ele>
        <time>2021-08-06 19:25:25</time>
      </trkpt>
      <trkpt lat="37.08427" lon="-3.38121">
        <ele>2705.2</ele>
        <time>2021-08-06 19:25:26</time>
      </trkpt>
      <trkpt lat="37.08427" lon="-3.3812">
        <ele>2705.2</ele>
        <time>2021-08-06 19:25:27</time>
      </trkpt>
      <trkpt lat="37.08429" lon="-3.3812">
        <ele>2705</ele>
        <time>2021-08-06 19:25:28</time>
      </trkpt>
      <trkpt lat="37.0843" lon="-3.38119">
        <ele>2705</ele>
        <time>2021-08-06 19:25:29</time>
      </trkpt>
      <trkpt lat="37.0843" lon="-3.38118">
        <ele>2705</ele>
        <time>2021-08-06 19:25:30</time>
      </trkpt>
      <trkpt lat="37.08431" lon="-3.38118">
        <ele>2704.8</ele>
        <time>2021-08-06 19:25:31</time>
      </trkpt>
      <trkpt lat="37.08432" lon="-3.38117">
        <ele>2704.6</ele>
        <time>2021-08-06 19:25:32</time>
      </trkpt>
      <trkpt lat="37.08432" lon="-3.38117">
        <ele>2704.6</ele>
        <time>2021-08-06 19:25:33</time>
      </trkpt>
      <trkpt lat="37.08433" lon="-3.38116">
        <ele>2704.6</ele>
        <time>2021-08-06 19:25:34</time>
      </trkpt>
      <trkpt lat="37.08433" lon="-3.38116">
        <ele>2704.4</ele>
        <time>2021-08-06 19:25:35</time>
      </trkpt>
      <trkpt lat="37.08435" lon="-3.38115">
        <ele>2704.4</ele>
        <time>2021-08-06 19:25:36</time>
      </trkpt>
      <trkpt lat="37.08436" lon="-3.38115">
        <ele>2704.4</ele>
        <time>2021-08-06 19:25:37</time>
      </trkpt>
      <trkpt lat="37.08437" lon="-3.38115">
        <ele>2704.4</ele>
        <time>2021-08-06 19:25:38</time>
      </trkpt>
      <trkpt lat="37.08438" lon="-3.38115">
        <ele>2704.4</ele>
        <time>2021-08-06 19:25:39</time>
      </trkpt>
      <trkpt lat="37.08439" lon="-3.38115">
        <ele>2704.8</ele>
        <time>2021-08-06 19:25:40</time>
      </trkpt>
      <trkpt lat="37.0844" lon="-3.38115">
        <ele>2705</ele>
        <time>2021-08-06 19:25:41</time>
      </trkpt>
      <trkpt lat="37.08441" lon="-3.38115">
        <ele>2705</ele>
        <time>2021-08-06 19:25:42</time>
      </trkpt>
      <trkpt lat="37.08442" lon="-3.38115">
        <ele>2705</ele>
        <time>2021-08-06 19:25:43</time>
      </trkpt>
      <trkpt lat="37.08443" lon="-3.38115">
        <ele>2705</ele>
        <time>2021-08-06 19:25:44</time>
      </trkpt>
      <trkpt lat="37.08444" lon="-3.38115">
        <ele>2705</ele>
        <time>2021-08-06 19:25:45</time>
      </trkpt>
      <trkpt lat="37.08445" lon="-3.38115">
        <ele>2705.2</ele>
        <time>2021-08-06 19:25:46</time>
      </trkpt>
      <trkpt lat="37.08446" lon="-3.38115">
        <ele>2705</ele>
        <time>2021-08-06 19:25:47</time>
      </trkpt>
      <trkpt lat="37.08447" lon="-3.38115">
        <ele>2704.8</ele>
        <time>2021-08-06 19:25:48</time>
      </trkpt>
      <trkpt lat="37.08448" lon="-3.38115">
        <ele>2705</ele>
        <time>2021-08-06 19:25:49</time>
      </trkpt>
      <trkpt lat="37.08449" lon="-3.38115">
        <ele>2705</ele>
        <time>2021-08-06 19:25:50</time>
      </trkpt>
      <trkpt lat="37.0845" lon="-3.38115">
        <ele>2704.8</ele>
        <time>2021-08-06 19:25:51</time>
      </trkpt>
      <trkpt lat="37.08451" lon="-3.38115">
        <ele>2704.6</ele>
        <time>2021-08-06 19:25:52</time>
      </trkpt>
      <trkpt lat="37.08452" lon="-3.38115">
        <ele>2704.6</ele>
        <time>2021-08-06 19:25:53</time>
      </trkpt>
      <trkpt lat="37.08452" lon="-3.38115">
        <ele>2704.4</ele>
        <time>2021-08-06 19:25:54</time>
      </trkpt>
      <trkpt lat="37.08453" lon="-3.38116">
        <ele>2704.6</ele>
        <time>2021-08-06 19:25:55</time>
      </trkpt>
      <trkpt lat="37.08454" lon="-3.38116">
        <ele>2704.6</ele>
        <time>2021-08-06 19:25:56</time>
      </trkpt>
      <trkpt lat="37.08455" lon="-3.38118">
        <ele>2704.4</ele>
        <time>2021-08-06 19:25:57</time>
      </trkpt>
      <trkpt lat="37.08456" lon="-3.38118">
        <ele>2704.4</ele>
        <time>2021-08-06 19:25:58</time>
      </trkpt>
      <trkpt lat="37.08457" lon="-3.38118">
        <ele>2704.6</ele>
        <time>2021-08-06 19:25:59</time>
      </trkpt>
      <trkpt lat="37.08458" lon="-3.38118">
        <ele>2704.8</ele>
        <time>2021-08-06 19:26:00</time>
      </trkpt>
      <trkpt lat="37.0846" lon="-3.38118">
        <ele>2704.6</ele>
        <time>2021-08-06 19:26:01</time>
      </trkpt>
      <trkpt lat="37.08461" lon="-3.38118">
        <ele>2704.6</ele>
        <time>2021-08-06 19:26:02</time>
      </trkpt>
      <trkpt lat="37.08462" lon="-3.38118">
        <ele>2704.6</ele>
        <time>2021-08-06 19:26:03</time>
      </trkpt>
      <trkpt lat="37.08463" lon="-3.38118">
        <ele>2704.6</ele>
        <time>2021-08-06 19:26:04</time>
      </trkpt>
      <trkpt lat="37.08463" lon="-3.38117">
        <ele>2704.6</ele>
        <time>2021-08-06 19:26:05</time>
      </trkpt>
      <trkpt lat="37.08464" lon="-3.38118">
        <ele>2704.6</ele>
        <time>2021-08-06 19:26:06</time>
      </trkpt>
      <trkpt lat="37.08465" lon="-3.38118">
        <ele>2704.6</ele>
        <time>2021-08-06 19:26:07</time>
      </trkpt>
      <trkpt lat="37.08466" lon="-3.38119">
        <ele>2704</ele>
        <time>2021-08-06 19:26:08</time>
      </trkpt>
      <trkpt lat="37.08467" lon="-3.3812">
        <ele>2703.4</ele>
        <time>2021-08-06 19:26:09</time>
      </trkpt>
      <trkpt lat="37.08468" lon="-3.3812">
        <ele>2703.4</ele>
        <time>2021-08-06 19:26:10</time>
      </trkpt>
      <trkpt lat="37.08469" lon="-3.3812">
        <ele>2703.4</ele>
        <time>2021-08-06 19:26:11</time>
      </trkpt>
      <trkpt lat="37.0847" lon="-3.38121">
        <ele>2703.4</ele>
        <time>2021-08-06 19:26:12</time>
      </trkpt>
      <trkpt lat="37.08471" lon="-3.3812">
        <ele>2703.2</ele>
        <time>2021-08-06 19:26:13</time>
      </trkpt>
      <trkpt lat="37.08472" lon="-3.38121">
        <ele>2703.2</ele>
        <time>2021-08-06 19:26:14</time>
      </trkpt>
      <trkpt lat="37.08473" lon="-3.38122">
        <ele>2703.2</ele>
        <time>2021-08-06 19:26:15</time>
      </trkpt>
      <trkpt lat="37.08474" lon="-3.38122">
        <ele>2703.6</ele>
        <time>2021-08-06 19:26:16</time>
      </trkpt>
      <trkpt lat="37.08475" lon="-3.38123">
        <ele>2703.8</ele>
        <time>2021-08-06 19:26:17</time>
      </trkpt>
      <trkpt lat="37.08476" lon="-3.38124">
        <ele>2703.8</ele>
        <time>2021-08-06 19:26:18</time>
      </trkpt>
      <trkpt lat="37.08476" lon="-3.38124">
        <ele>2703.4</ele>
        <time>2021-08-06 19:26:19</time>
      </trkpt>
      <trkpt lat="37.08477" lon="-3.38125">
        <ele>2703.4</ele>
        <time>2021-08-06 19:26:20</time>
      </trkpt>
      <trkpt lat="37.08478" lon="-3.38125">
        <ele>2703.2</ele>
        <time>2021-08-06 19:26:21</time>
      </trkpt>
      <trkpt lat="37.08478" lon="-3.38127">
        <ele>2703.2</ele>
        <time>2021-08-06 19:26:22</time>
      </trkpt>
      <trkpt lat="37.08479" lon="-3.38128">
        <ele>2703</ele>
        <time>2021-08-06 19:26:23</time>
      </trkpt>
      <trkpt lat="37.0848" lon="-3.38129">
        <ele>2703</ele>
        <time>2021-08-06 19:26:24</time>
      </trkpt>
      <trkpt lat="37.0848" lon="-3.38131">
        <ele>2703</ele>
        <time>2021-08-06 19:26:25</time>
      </trkpt>
      <trkpt lat="37.08481" lon="-3.38132">
        <ele>2703</ele>
        <time>2021-08-06 19:26:26</time>
      </trkpt>
      <trkpt lat="37.08481" lon="-3.38134">
        <ele>2703</ele>
        <time>2021-08-06 19:26:27</time>
      </trkpt>
      <trkpt lat="37.08482" lon="-3.38136">
        <ele>2703</ele>
        <time>2021-08-06 19:26:28</time>
      </trkpt>
      <trkpt lat="37.08483" lon="-3.38137">
        <ele>2702.8</ele>
        <time>2021-08-06 19:26:29</time>
      </trkpt>
      <trkpt lat="37.08484" lon="-3.38137">
        <ele>2702.8</ele>
        <time>2021-08-06 19:26:30</time>
      </trkpt>
      <trkpt lat="37.08486" lon="-3.38136">
        <ele>2702.4</ele>
        <time>2021-08-06 19:26:31</time>
      </trkpt>
      <trkpt lat="37.08487" lon="-3.38137">
        <ele>2701.8</ele>
        <time>2021-08-06 19:26:32</time>
      </trkpt>
      <trkpt lat="37.08488" lon="-3.38137">
        <ele>2701.4</ele>
        <time>2021-08-06 19:26:33</time>
      </trkpt>
      <trkpt lat="37.08489" lon="-3.38137">
        <ele>2701.4</ele>
        <time>2021-08-06 19:26:34</time>
      </trkpt>
      <trkpt lat="37.0849" lon="-3.38137">
        <ele>2701.4</ele>
        <time>2021-08-06 19:26:35</time>
      </trkpt>
      <trkpt lat="37.0849" lon="-3.38138">
        <ele>2701.4</ele>
        <time>2021-08-06 19:26:36</time>
      </trkpt>
      <trkpt lat="37.08491" lon="-3.38139">
        <ele>2701.6</ele>
        <time>2021-08-06 19:26:37</time>
      </trkpt>
      <trkpt lat="37.08493" lon="-3.38137">
        <ele>2702</ele>
        <time>2021-08-06 19:26:38</time>
      </trkpt>
      <trkpt lat="37.08493" lon="-3.38139">
        <ele>2702.2</ele>
        <time>2021-08-06 19:26:39</time>
      </trkpt>
      <trkpt lat="37.08493" lon="-3.38141">
        <ele>2702.6</ele>
        <time>2021-08-06 19:26:40</time>
      </trkpt>
      <trkpt lat="37.08494" lon="-3.38142">
        <ele>2702.6</ele>
        <time>2021-08-06 19:26:41</time>
      </trkpt>
      <trkpt lat="37.08494" lon="-3.38143">
        <ele>2702.8</ele>
        <time>2021-08-06 19:26:42</time>
      </trkpt>
      <trkpt lat="37.08495" lon="-3.38144">
        <ele>2702.8</ele>
        <time>2021-08-06 19:26:43</time>
      </trkpt>
      <trkpt lat="37.08495" lon="-3.38145">
        <ele>2702.6</ele>
        <time>2021-08-06 19:26:44</time>
      </trkpt>
      <trkpt lat="37.08494" lon="-3.38148">
        <ele>2702.4</ele>
        <time>2021-08-06 19:26:45</time>
      </trkpt>
      <trkpt lat="37.08495" lon="-3.38149">
        <ele>2702.2</ele>
        <time>2021-08-06 19:26:46</time>
      </trkpt>
      <trkpt lat="37.08495" lon="-3.38151">
        <ele>2702.2</ele>
        <time>2021-08-06 19:26:47</time>
      </trkpt>
      <trkpt lat="37.08495" lon="-3.38152">
        <ele>2702.2</ele>
        <time>2021-08-06 19:26:48</time>
      </trkpt>
      <trkpt lat="37.08496" lon="-3.38153">
        <ele>2702.2</ele>
        <time>2021-08-06 19:26:49</time>
      </trkpt>
      <trkpt lat="37.08496" lon="-3.38154">
        <ele>2702</ele>
        <time>2021-08-06 19:26:50</time>
      </trkpt>
      <trkpt lat="37.08497" lon="-3.38155">
        <ele>2701.6</ele>
        <time>2021-08-06 19:26:51</time>
      </trkpt>
      <trkpt lat="37.08497" lon="-3.38158">
        <ele>2701.4</ele>
        <time>2021-08-06 19:26:52</time>
      </trkpt>
      <trkpt lat="37.08498" lon="-3.38159">
        <ele>2701.4</ele>
        <time>2021-08-06 19:26:53</time>
      </trkpt>
      <trkpt lat="37.08498" lon="-3.38161">
        <ele>2701.2</ele>
        <time>2021-08-06 19:26:54</time>
      </trkpt>
      <trkpt lat="37.085" lon="-3.38163">
        <ele>2701.2</ele>
        <time>2021-08-06 19:26:55</time>
      </trkpt>
      <trkpt lat="37.085" lon="-3.38165">
        <ele>2701</ele>
        <time>2021-08-06 19:26:56</time>
      </trkpt>
      <trkpt lat="37.08501" lon="-3.38166">
        <ele>2700.6</ele>
        <time>2021-08-06 19:26:57</time>
      </trkpt>
      <trkpt lat="37.08502" lon="-3.38168">
        <ele>2700.6</ele>
        <time>2021-08-06 19:26:58</time>
      </trkpt>
      <trkpt lat="37.08503" lon="-3.38169">
        <ele>2700.4</ele>
        <time>2021-08-06 19:26:59</time>
      </trkpt>
      <trkpt lat="37.08504" lon="-3.38169">
        <ele>2700.4</ele>
        <time>2021-08-06 19:27:00</time>
      </trkpt>
      <trkpt lat="37.08505" lon="-3.3817">
        <ele>2700.2</ele>
        <time>2021-08-06 19:27:01</time>
      </trkpt>
      <trkpt lat="37.08506" lon="-3.38171">
        <ele>2700</ele>
        <time>2021-08-06 19:27:02</time>
      </trkpt>
      <trkpt lat="37.08507" lon="-3.38172">
        <ele>2699.6</ele>
        <time>2021-08-06 19:27:03</time>
      </trkpt>
      <trkpt lat="37.08508" lon="-3.38174">
        <ele>2699.4</ele>
        <time>2021-08-06 19:27:04</time>
      </trkpt>
      <trkpt lat="37.08508" lon="-3.38175">
        <ele>2699</ele>
        <time>2021-08-06 19:27:05</time>
      </trkpt>
      <trkpt lat="37.08509" lon="-3.38174">
        <ele>2698.8</ele>
        <time>2021-08-06 19:27:06</time>
      </trkpt>
      <trkpt lat="37.0851" lon="-3.38174">
        <ele>2698.8</ele>
        <time>2021-08-06 19:27:07</time>
      </trkpt>
      <trkpt lat="37.0851" lon="-3.38171">
        <ele>2698.8</ele>
        <time>2021-08-06 19:27:08</time>
      </trkpt>
      <trkpt lat="37.08511" lon="-3.38171">
        <ele>2698.4</ele>
        <time>2021-08-06 19:27:09</time>
      </trkpt>
      <trkpt lat="37.08511" lon="-3.38171">
        <ele>2698.2</ele>
        <time>2021-08-06 19:27:10</time>
      </trkpt>
      <trkpt lat="37.08512" lon="-3.38171">
        <ele>2698.2</ele>
        <time>2021-08-06 19:27:11</time>
      </trkpt>
      <trkpt lat="37.08513" lon="-3.38171">
        <ele>2698.2</ele>
        <time>2021-08-06 19:27:12</time>
      </trkpt>
      <trkpt lat="37.08514" lon="-3.38171">
        <ele>2698.4</ele>
        <time>2021-08-06 19:27:13</time>
      </trkpt>
      <trkpt lat="37.08515" lon="-3.38169">
        <ele>2698.4</ele>
        <time>2021-08-06 19:27:14</time>
      </trkpt>
      <trkpt lat="37.08516" lon="-3.38168">
        <ele>2698.2</ele>
        <time>2021-08-06 19:27:15</time>
      </trkpt>
      <trkpt lat="37.08517" lon="-3.38169">
        <ele>2698.2</ele>
        <time>2021-08-06 19:27:16</time>
      </trkpt>
      <trkpt lat="37.08518" lon="-3.3817">
        <ele>2698</ele>
        <time>2021-08-06 19:27:17</time>
      </trkpt>
      <trkpt lat="37.08519" lon="-3.38171">
        <ele>2697.6</ele>
        <time>2021-08-06 19:27:18</time>
      </trkpt>
      <trkpt lat="37.0852" lon="-3.38172">
        <ele>2697.6</ele>
        <time>2021-08-06 19:27:19</time>
      </trkpt>
      <trkpt lat="37.08519" lon="-3.38173">
        <ele>2697.4</ele>
        <time>2021-08-06 19:27:20</time>
      </trkpt>
      <trkpt lat="37.0852" lon="-3.38174">
        <ele>2697.4</ele>
        <time>2021-08-06 19:27:21</time>
      </trkpt>
      <trkpt lat="37.0852" lon="-3.38174">
        <ele>2697.4</ele>
        <time>2021-08-06 19:27:22</time>
      </trkpt>
      <trkpt lat="37.0852" lon="-3.38177">
        <ele>2697.4</ele>
        <time>2021-08-06 19:27:23</time>
      </trkpt>
      <trkpt lat="37.0852" lon="-3.38178">
        <ele>2697.8</ele>
        <time>2021-08-06 19:27:24</time>
      </trkpt>
      <trkpt lat="37.08521" lon="-3.38178">
        <ele>2698</ele>
        <time>2021-08-06 19:27:25</time>
      </trkpt>
      <trkpt lat="37.08521" lon="-3.38179">
        <ele>2698.2</ele>
        <time>2021-08-06 19:27:26</time>
      </trkpt>
      <trkpt lat="37.08521" lon="-3.3818">
        <ele>2698.4</ele>
        <time>2021-08-06 19:27:27</time>
      </trkpt>
      <trkpt lat="37.08522" lon="-3.3818">
        <ele>2698.2</ele>
        <time>2021-08-06 19:27:28</time>
      </trkpt>
      <trkpt lat="37.08522" lon="-3.3818">
        <ele>2698.2</ele>
        <time>2021-08-06 19:27:29</time>
      </trkpt>
      <trkpt lat="37.08521" lon="-3.38179">
        <ele>2698</ele>
        <time>2021-08-06 19:27:30</time>
      </trkpt>
      <trkpt lat="37.08523" lon="-3.38179">
        <ele>2697.8</ele>
        <time>2021-08-06 19:27:31</time>
      </trkpt>
      <trkpt lat="37.08527" lon="-3.3818">
        <ele>2697.6</ele>
        <time>2021-08-06 19:27:32</time>
      </trkpt>
      <trkpt lat="37.08529" lon="-3.3818">
        <ele>2697.6</ele>
        <time>2021-08-06 19:27:33</time>
      </trkpt>
      <trkpt lat="37.08529" lon="-3.3818">
        <ele>2697.4</ele>
        <time>2021-08-06 19:27:34</time>
      </trkpt>
      <trkpt lat="37.0853" lon="-3.38179">
        <ele>2697.4</ele>
        <time>2021-08-06 19:27:35</time>
      </trkpt>
      <trkpt lat="37.08532" lon="-3.38179">
        <ele>2697.2</ele>
        <time>2021-08-06 19:27:36</time>
      </trkpt>
      <trkpt lat="37.08532" lon="-3.38178">
        <ele>2697</ele>
        <time>2021-08-06 19:27:37</time>
      </trkpt>
      <trkpt lat="37.08533" lon="-3.38177">
        <ele>2696.6</ele>
        <time>2021-08-06 19:27:38</time>
      </trkpt>
      <trkpt lat="37.08533" lon="-3.38177">
        <ele>2696.4</ele>
        <time>2021-08-06 19:27:39</time>
      </trkpt>
      <trkpt lat="37.08534" lon="-3.38176">
        <ele>2696.2</ele>
        <time>2021-08-06 19:27:40</time>
      </trkpt>
      <trkpt lat="37.08534" lon="-3.38176">
        <ele>2696</ele>
        <time>2021-08-06 19:27:41</time>
      </trkpt>
      <trkpt lat="37.08533" lon="-3.38175">
        <ele>2696</ele>
        <time>2021-08-06 19:27:42</time>
      </trkpt>
      <trkpt lat="37.08534" lon="-3.38174">
        <ele>2695.8</ele>
        <time>2021-08-06 19:27:43</time>
      </trkpt>
      <trkpt lat="37.08534" lon="-3.38173">
        <ele>2695.8</ele>
        <time>2021-08-06 19:27:44</time>
      </trkpt>
      <trkpt lat="37.08533" lon="-3.38172">
        <ele>2695.6</ele>
        <time>2021-08-06 19:27:45</time>
      </trkpt>
      <trkpt lat="37.08533" lon="-3.38171">
        <ele>2695.6</ele>
        <time>2021-08-06 19:27:46</time>
      </trkpt>
      <trkpt lat="37.08534" lon="-3.38171">
        <ele>2695.4</ele>
        <time>2021-08-06 19:27:47</time>
      </trkpt>
      <trkpt lat="37.08535" lon="-3.3817">
        <ele>2695.4</ele>
        <time>2021-08-06 19:27:48</time>
      </trkpt>
      <trkpt lat="37.08535" lon="-3.38169">
        <ele>2695.4</ele>
        <time>2021-08-06 19:27:49</time>
      </trkpt>
      <trkpt lat="37.08535" lon="-3.38168">
        <ele>2695.2</ele>
        <time>2021-08-06 19:27:50</time>
      </trkpt>
      <trkpt lat="37.08535" lon="-3.38167">
        <ele>2695.2</ele>
        <time>2021-08-06 19:27:51</time>
      </trkpt>
      <trkpt lat="37.08535" lon="-3.38166">
        <ele>2695.2</ele>
        <time>2021-08-06 19:27:52</time>
      </trkpt>
      <trkpt lat="37.08536" lon="-3.38165">
        <ele>2695.2</ele>
        <time>2021-08-06 19:27:53</time>
      </trkpt>
      <trkpt lat="37.08535" lon="-3.38164">
        <ele>2695.4</ele>
        <time>2021-08-06 19:27:54</time>
      </trkpt>
      <trkpt lat="37.08536" lon="-3.38163">
        <ele>2695.2</ele>
        <time>2021-08-06 19:27:55</time>
      </trkpt>
      <trkpt lat="37.08537" lon="-3.38163">
        <ele>2695.2</ele>
        <time>2021-08-06 19:27:56</time>
      </trkpt>
      <trkpt lat="37.08538" lon="-3.38163">
        <ele>2695.2</ele>
        <time>2021-08-06 19:27:57</time>
      </trkpt>
      <trkpt lat="37.08538" lon="-3.38163">
        <ele>2695.2</ele>
        <time>2021-08-06 19:27:58</time>
      </trkpt>
      <trkpt lat="37.08539" lon="-3.38163">
        <ele>2695</ele>
        <time>2021-08-06 19:27:59</time>
      </trkpt>
      <trkpt lat="37.0854" lon="-3.38163">
        <ele>2694.8</ele>
        <time>2021-08-06 19:28:00</time>
      </trkpt>
      <trkpt lat="37.0854" lon="-3.38163">
        <ele>2694.6</ele>
        <time>2021-08-06 19:28:01</time>
      </trkpt>
      <trkpt lat="37.08541" lon="-3.38163">
        <ele>2694.4</ele>
        <time>2021-08-06 19:28:02</time>
      </trkpt>
      <trkpt lat="37.08542" lon="-3.38164">
        <ele>2694.4</ele>
        <time>2021-08-06 19:28:03</time>
      </trkpt>
      <trkpt lat="37.08544" lon="-3.38165">
        <ele>2694.2</ele>
        <time>2021-08-06 19:28:04</time>
      </trkpt>
      <trkpt lat="37.08544" lon="-3.38167">
        <ele>2694.2</ele>
        <time>2021-08-06 19:28:05</time>
      </trkpt>
      <trkpt lat="37.08545" lon="-3.38167">
        <ele>2694</ele>
        <time>2021-08-06 19:28:06</time>
      </trkpt>
      <trkpt lat="37.08546" lon="-3.38168">
        <ele>2693.8</ele>
        <time>2021-08-06 19:28:07</time>
      </trkpt>
      <trkpt lat="37.08547" lon="-3.38168">
        <ele>2693.8</ele>
        <time>2021-08-06 19:28:08</time>
      </trkpt>
      <trkpt lat="37.08548" lon="-3.38168">
        <ele>2693.6</ele>
        <time>2021-08-06 19:28:09</time>
      </trkpt>
      <trkpt lat="37.08548" lon="-3.38167">
        <ele>2693.4</ele>
        <time>2021-08-06 19:28:10</time>
      </trkpt>
      <trkpt lat="37.08549" lon="-3.38168">
        <ele>2693.4</ele>
        <time>2021-08-06 19:28:11</time>
      </trkpt>
      <trkpt lat="37.08549" lon="-3.38168">
        <ele>2693.2</ele>
        <time>2021-08-06 19:28:12</time>
      </trkpt>
      <trkpt lat="37.08551" lon="-3.38166">
        <ele>2693.2</ele>
        <time>2021-08-06 19:28:13</time>
      </trkpt>
      <trkpt lat="37.08551" lon="-3.38166">
        <ele>2693.2</ele>
        <time>2021-08-06 19:28:14</time>
      </trkpt>
      <trkpt lat="37.08553" lon="-3.38167">
        <ele>2693</ele>
        <time>2021-08-06 19:28:15</time>
      </trkpt>
      <trkpt lat="37.08553" lon="-3.38169">
        <ele>2693.2</ele>
        <time>2021-08-06 19:28:16</time>
      </trkpt>
      <trkpt lat="37.08553" lon="-3.3817">
        <ele>2693</ele>
        <time>2021-08-06 19:28:17</time>
      </trkpt>
      <trkpt lat="37.08553" lon="-3.3817">
        <ele>2693</ele>
        <time>2021-08-06 19:28:18</time>
      </trkpt>
      <trkpt lat="37.08554" lon="-3.3817">
        <ele>2692.8</ele>
        <time>2021-08-06 19:28:19</time>
      </trkpt>
      <trkpt lat="37.08555" lon="-3.3817">
        <ele>2692.8</ele>
        <time>2021-08-06 19:28:20</time>
      </trkpt>
      <trkpt lat="37.08556" lon="-3.38171">
        <ele>2692.6</ele>
        <time>2021-08-06 19:28:21</time>
      </trkpt>
      <trkpt lat="37.08556" lon="-3.38171">
        <ele>2692.2</ele>
        <time>2021-08-06 19:28:22</time>
      </trkpt>
      <trkpt lat="37.08557" lon="-3.38171">
        <ele>2692</ele>
        <time>2021-08-06 19:28:23</time>
      </trkpt>
      <trkpt lat="37.08555" lon="-3.38172">
        <ele>2691.4</ele>
        <time>2021-08-06 19:28:24</time>
      </trkpt>
      <trkpt lat="37.08555" lon="-3.38172">
        <ele>2691.2</ele>
        <time>2021-08-06 19:28:25</time>
      </trkpt>
      <trkpt lat="37.08555" lon="-3.38173">
        <ele>2691.2</ele>
        <time>2021-08-06 19:28:26</time>
      </trkpt>
      <trkpt lat="37.08556" lon="-3.38173">
        <ele>2691</ele>
        <time>2021-08-06 19:28:27</time>
      </trkpt>
      <trkpt lat="37.08557" lon="-3.38174">
        <ele>2691</ele>
        <time>2021-08-06 19:28:28</time>
      </trkpt>
      <trkpt lat="37.08558" lon="-3.38174">
        <ele>2691</ele>
        <time>2021-08-06 19:28:29</time>
      </trkpt>
      <trkpt lat="37.08558" lon="-3.38174">
        <ele>2690.6</ele>
        <time>2021-08-06 19:28:30</time>
      </trkpt>
      <trkpt lat="37.08558" lon="-3.38174">
        <ele>2689.6</ele>
        <time>2021-08-06 19:28:31</time>
      </trkpt>
      <trkpt lat="37.08559" lon="-3.38174">
        <ele>2689</ele>
        <time>2021-08-06 19:28:32</time>
      </trkpt>
      <trkpt lat="37.08561" lon="-3.38174">
        <ele>2688.6</ele>
        <time>2021-08-06 19:28:33</time>
      </trkpt>
      <trkpt lat="37.08561" lon="-3.38174">
        <ele>2688.4</ele>
        <time>2021-08-06 19:28:34</time>
      </trkpt>
      <trkpt lat="37.08561" lon="-3.38174">
        <ele>2688.4</ele>
        <time>2021-08-06 19:28:35</time>
      </trkpt>
      <trkpt lat="37.08562" lon="-3.38174">
        <ele>2688</ele>
        <time>2021-08-06 19:28:36</time>
      </trkpt>
      <trkpt lat="37.08564" lon="-3.38173">
        <ele>2687.8</ele>
        <time>2021-08-06 19:28:37</time>
      </trkpt>
      <trkpt lat="37.08565" lon="-3.38173">
        <ele>2688</ele>
        <time>2021-08-06 19:28:38</time>
      </trkpt>
      <trkpt lat="37.08566" lon="-3.38172">
        <ele>2688.4</ele>
        <time>2021-08-06 19:28:39</time>
      </trkpt>
      <trkpt lat="37.08569" lon="-3.38173">
        <ele>2688.2</ele>
        <time>2021-08-06 19:28:40</time>
      </trkpt>
      <trkpt lat="37.0857" lon="-3.38173">
        <ele>2687.8</ele>
        <time>2021-08-06 19:28:41</time>
      </trkpt>
      <trkpt lat="37.08572" lon="-3.38173">
        <ele>2688</ele>
        <time>2021-08-06 19:28:42</time>
      </trkpt>
      <trkpt lat="37.08574" lon="-3.38174">
        <ele>2688.2</ele>
        <time>2021-08-06 19:28:43</time>
      </trkpt>
      <trkpt lat="37.08575" lon="-3.38174">
        <ele>2688.4</ele>
        <time>2021-08-06 19:28:44</time>
      </trkpt>
      <trkpt lat="37.08575" lon="-3.38175">
        <ele>2688.4</ele>
        <time>2021-08-06 19:28:45</time>
      </trkpt>
      <trkpt lat="37.08576" lon="-3.38175">
        <ele>2688.4</ele>
        <time>2021-08-06 19:28:46</time>
      </trkpt>
      <trkpt lat="37.08577" lon="-3.38175">
        <ele>2688.4</ele>
        <time>2021-08-06 19:28:47</time>
      </trkpt>
      <trkpt lat="37.08578" lon="-3.38175">
        <ele>2688.4</ele>
        <time>2021-08-06 19:28:48</time>
      </trkpt>
      <trkpt lat="37.08578" lon="-3.38175">
        <ele>2688.4</ele>
        <time>2021-08-06 19:28:49</time>
      </trkpt>
      <trkpt lat="37.08578" lon="-3.38175">
        <ele>2688.4</ele>
        <time>2021-08-06 19:28:50</time>
      </trkpt>
      <trkpt lat="37.08579" lon="-3.38176">
        <ele>2688.2</ele>
        <time>2021-08-06 19:28:51</time>
      </trkpt>
      <trkpt lat="37.0858" lon="-3.38176">
        <ele>2688</ele>
        <time>2021-08-06 19:28:52</time>
      </trkpt>
      <trkpt lat="37.08581" lon="-3.38177">
        <ele>2688</ele>
        <time>2021-08-06 19:28:53</time>
      </trkpt>
      <trkpt lat="37.08581" lon="-3.38178">
        <ele>2687.8</ele>
        <time>2021-08-06 19:28:54</time>
      </trkpt>
      <trkpt lat="37.08582" lon="-3.38179">
        <ele>2687.6</ele>
        <time>2021-08-06 19:28:55</time>
      </trkpt>
      <trkpt lat="37.08584" lon="-3.38179">
        <ele>2687.6</ele>
        <time>2021-08-06 19:28:56</time>
      </trkpt>
      <trkpt lat="37.08586" lon="-3.38177">
        <ele>2687.6</ele>
        <time>2021-08-06 19:28:57</time>
      </trkpt>
      <trkpt lat="37.08588" lon="-3.38177">
        <ele>2687.2</ele>
        <time>2021-08-06 19:28:58</time>
      </trkpt>
      <trkpt lat="37.08589" lon="-3.38177">
        <ele>2687.2</ele>
        <time>2021-08-06 19:28:59</time>
      </trkpt>
      <trkpt lat="37.08589" lon="-3.38178">
        <ele>2687</ele>
        <time>2021-08-06 19:29:00</time>
      </trkpt>
      <trkpt lat="37.08589" lon="-3.38179">
        <ele>2687</ele>
        <time>2021-08-06 19:29:01</time>
      </trkpt>
      <trkpt lat="37.08589" lon="-3.3818">
        <ele>2686.8</ele>
        <time>2021-08-06 19:29:02</time>
      </trkpt>
      <trkpt lat="37.0859" lon="-3.3818">
        <ele>2686.8</ele>
        <time>2021-08-06 19:29:03</time>
      </trkpt>
      <trkpt lat="37.0859" lon="-3.38181">
        <ele>2686.6</ele>
        <time>2021-08-06 19:29:04</time>
      </trkpt>
      <trkpt lat="37.0859" lon="-3.38182">
        <ele>2686.6</ele>
        <time>2021-08-06 19:29:05</time>
      </trkpt>
      <trkpt lat="37.08591" lon="-3.38183">
        <ele>2686.6</ele>
        <time>2021-08-06 19:29:06</time>
      </trkpt>
      <trkpt lat="37.08591" lon="-3.38184">
        <ele>2686.4</ele>
        <time>2021-08-06 19:29:07</time>
      </trkpt>
      <trkpt lat="37.08592" lon="-3.38185">
        <ele>2686.6</ele>
        <time>2021-08-06 19:29:08</time>
      </trkpt>
      <trkpt lat="37.08593" lon="-3.38186">
        <ele>2686.6</ele>
        <time>2021-08-06 19:29:09</time>
      </trkpt>
      <trkpt lat="37.08593" lon="-3.38187">
        <ele>2686.4</ele>
        <time>2021-08-06 19:29:10</time>
      </trkpt>
      <trkpt lat="37.08594" lon="-3.38189">
        <ele>2686.4</ele>
        <time>2021-08-06 19:29:11</time>
      </trkpt>
      <trkpt lat="37.08595" lon="-3.38189">
        <ele>2686.4</ele>
        <time>2021-08-06 19:29:12</time>
      </trkpt>
      <trkpt lat="37.08596" lon="-3.3819">
        <ele>2686.2</ele>
        <time>2021-08-06 19:29:13</time>
      </trkpt>
      <trkpt lat="37.08597" lon="-3.38191">
        <ele>2686.2</ele>
        <time>2021-08-06 19:29:14</time>
      </trkpt>
      <trkpt lat="37.08597" lon="-3.38192">
        <ele>2686</ele>
        <time>2021-08-06 19:29:15</time>
      </trkpt>
      <trkpt lat="37.08597" lon="-3.38193">
        <ele>2685.8</ele>
        <time>2021-08-06 19:29:16</time>
      </trkpt>
      <trkpt lat="37.08597" lon="-3.38194">
        <ele>2685.8</ele>
        <time>2021-08-06 19:29:17</time>
      </trkpt>
      <trkpt lat="37.08597" lon="-3.38195">
        <ele>2685.6</ele>
        <time>2021-08-06 19:29:18</time>
      </trkpt>
      <trkpt lat="37.08597" lon="-3.38196">
        <ele>2685.8</ele>
        <time>2021-08-06 19:29:19</time>
      </trkpt>
      <trkpt lat="37.08598" lon="-3.38197">
        <ele>2685.6</ele>
        <time>2021-08-06 19:29:20</time>
      </trkpt>
      <trkpt lat="37.08599" lon="-3.38197">
        <ele>2685.8</ele>
        <time>2021-08-06 19:29:21</time>
      </trkpt>
      <trkpt lat="37.08599" lon="-3.38198">
        <ele>2685.8</ele>
        <time>2021-08-06 19:29:22</time>
      </trkpt>
      <trkpt lat="37.08599" lon="-3.38199">
        <ele>2685.8</ele>
        <time>2021-08-06 19:29:23</time>
      </trkpt>
      <trkpt lat="37.08599" lon="-3.382">
        <ele>2685.8</ele>
        <time>2021-08-06 19:29:24</time>
      </trkpt>
      <trkpt lat="37.08599" lon="-3.38202">
        <ele>2685.6</ele>
        <time>2021-08-06 19:29:25</time>
      </trkpt>
      <trkpt lat="37.08599" lon="-3.38204">
        <ele>2685.6</ele>
        <time>2021-08-06 19:29:26</time>
      </trkpt>
      <trkpt lat="37.08599" lon="-3.38206">
        <ele>2685.4</ele>
        <time>2021-08-06 19:29:27</time>
      </trkpt>
      <trkpt lat="37.086" lon="-3.38205">
        <ele>2685.2</ele>
        <time>2021-08-06 19:29:28</time>
      </trkpt>
      <trkpt lat="37.08601" lon="-3.38206">
        <ele>2685.2</ele>
        <time>2021-08-06 19:29:29</time>
      </trkpt>
      <trkpt lat="37.08601" lon="-3.38206">
        <ele>2685</ele>
        <time>2021-08-06 19:29:30</time>
      </trkpt>
      <trkpt lat="37.08602" lon="-3.38206">
        <ele>2684.8</ele>
        <time>2021-08-06 19:29:31</time>
      </trkpt>
      <trkpt lat="37.08604" lon="-3.38206">
        <ele>2684.8</ele>
        <time>2021-08-06 19:29:32</time>
      </trkpt>
      <trkpt lat="37.08605" lon="-3.38206">
        <ele>2684.6</ele>
        <time>2021-08-06 19:29:33</time>
      </trkpt>
      <trkpt lat="37.08606" lon="-3.38206">
        <ele>2684.2</ele>
        <time>2021-08-06 19:29:34</time>
      </trkpt>
      <trkpt lat="37.08606" lon="-3.38208">
        <ele>2684</ele>
        <time>2021-08-06 19:29:35</time>
      </trkpt>
      <trkpt lat="37.08607" lon="-3.3821">
        <ele>2683.8</ele>
        <time>2021-08-06 19:29:36</time>
      </trkpt>
      <trkpt lat="37.08607" lon="-3.3821">
        <ele>2683.6</ele>
        <time>2021-08-06 19:29:37</time>
      </trkpt>
      <trkpt lat="37.08608" lon="-3.3821">
        <ele>2683.4</ele>
        <time>2021-08-06 19:29:38</time>
      </trkpt>
      <trkpt lat="37.08609" lon="-3.38209">
        <ele>2683.2</ele>
        <time>2021-08-06 19:29:39</time>
      </trkpt>
      <trkpt lat="37.0861" lon="-3.38208">
        <ele>2683</ele>
        <time>2021-08-06 19:29:40</time>
      </trkpt>
      <trkpt lat="37.08613" lon="-3.38204">
        <ele>2683</ele>
        <time>2021-08-06 19:29:41</time>
      </trkpt>
      <trkpt lat="37.08614" lon="-3.38205">
        <ele>2682.8</ele>
        <time>2021-08-06 19:29:42</time>
      </trkpt>
      <trkpt lat="37.08615" lon="-3.38205">
        <ele>2682.4</ele>
        <time>2021-08-06 19:29:43</time>
      </trkpt>
      <trkpt lat="37.08616" lon="-3.38206">
        <ele>2682.2</ele>
        <time>2021-08-06 19:29:44</time>
      </trkpt>
      <trkpt lat="37.08616" lon="-3.38206">
        <ele>2682.2</ele>
        <time>2021-08-06 19:29:45</time>
      </trkpt>
      <trkpt lat="37.08616" lon="-3.38207">
        <ele>2682</ele>
        <time>2021-08-06 19:29:46</time>
      </trkpt>
      <trkpt lat="37.08616" lon="-3.38207">
        <ele>2682</ele>
        <time>2021-08-06 19:29:47</time>
      </trkpt>
      <trkpt lat="37.08617" lon="-3.38208">
        <ele>2682</ele>
        <time>2021-08-06 19:29:48</time>
      </trkpt>
      <trkpt lat="37.08617" lon="-3.38209">
        <ele>2681.8</ele>
        <time>2021-08-06 19:29:49</time>
      </trkpt>
      <trkpt lat="37.08618" lon="-3.38209">
        <ele>2681.6</ele>
        <time>2021-08-06 19:29:50</time>
      </trkpt>
      <trkpt lat="37.08619" lon="-3.3821">
        <ele>2681.4</ele>
        <time>2021-08-06 19:29:51</time>
      </trkpt>
      <trkpt lat="37.08619" lon="-3.3821">
        <ele>2681.2</ele>
        <time>2021-08-06 19:29:52</time>
      </trkpt>
      <trkpt lat="37.08619" lon="-3.38211">
        <ele>2681</ele>
        <time>2021-08-06 19:29:53</time>
      </trkpt>
      <trkpt lat="37.0862" lon="-3.38212">
        <ele>2680.8</ele>
        <time>2021-08-06 19:29:54</time>
      </trkpt>
      <trkpt lat="37.0862" lon="-3.38212">
        <ele>2680.8</ele>
        <time>2021-08-06 19:29:55</time>
      </trkpt>
      <trkpt lat="37.08621" lon="-3.38213">
        <ele>2680.6</ele>
        <time>2021-08-06 19:29:56</time>
      </trkpt>
      <trkpt lat="37.08621" lon="-3.38214">
        <ele>2680.4</ele>
        <time>2021-08-06 19:29:57</time>
      </trkpt>
      <trkpt lat="37.08623" lon="-3.38215">
        <ele>2680.4</ele>
        <time>2021-08-06 19:29:58</time>
      </trkpt>
      <trkpt lat="37.08624" lon="-3.38216">
        <ele>2680.4</ele>
        <time>2021-08-06 19:29:59</time>
      </trkpt>
      <trkpt lat="37.08624" lon="-3.38217">
        <ele>2680.2</ele>
        <time>2021-08-06 19:30:00</time>
      </trkpt>
      <trkpt lat="37.08625" lon="-3.38217">
        <ele>2680.2</ele>
        <time>2021-08-06 19:30:01</time>
      </trkpt>
      <trkpt lat="37.08627" lon="-3.38218">
        <ele>2680.2</ele>
        <time>2021-08-06 19:30:02</time>
      </trkpt>
      <trkpt lat="37.08627" lon="-3.3822">
        <ele>2679.8</ele>
        <time>2021-08-06 19:30:03</time>
      </trkpt>
      <trkpt lat="37.08627" lon="-3.38222">
        <ele>2679.8</ele>
        <time>2021-08-06 19:30:04</time>
      </trkpt>
      <trkpt lat="37.08628" lon="-3.38223">
        <ele>2680</ele>
        <time>2021-08-06 19:30:05</time>
      </trkpt>
      <trkpt lat="37.08629" lon="-3.38224">
        <ele>2679.6</ele>
        <time>2021-08-06 19:30:06</time>
      </trkpt>
      <trkpt lat="37.08629" lon="-3.38224">
        <ele>2679.4</ele>
        <time>2021-08-06 19:30:07</time>
      </trkpt>
      <trkpt lat="37.08631" lon="-3.38223">
        <ele>2679.2</ele>
        <time>2021-08-06 19:30:08</time>
      </trkpt>
      <trkpt lat="37.08631" lon="-3.38224">
        <ele>2678.6</ele>
        <time>2021-08-06 19:30:09</time>
      </trkpt>
      <trkpt lat="37.08632" lon="-3.38224">
        <ele>2678.2</ele>
        <time>2021-08-06 19:30:10</time>
      </trkpt>
      <trkpt lat="37.08632" lon="-3.38225">
        <ele>2677.6</ele>
        <time>2021-08-06 19:30:11</time>
      </trkpt>
      <trkpt lat="37.08632" lon="-3.38225">
        <ele>2677.2</ele>
        <time>2021-08-06 19:30:12</time>
      </trkpt>
      <trkpt lat="37.08632" lon="-3.38226">
        <ele>2677</ele>
        <time>2021-08-06 19:30:13</time>
      </trkpt>
      <trkpt lat="37.08632" lon="-3.38227">
        <ele>2676.8</ele>
        <time>2021-08-06 19:30:14</time>
      </trkpt>
      <trkpt lat="37.08632" lon="-3.38229">
        <ele>2676.8</ele>
        <time>2021-08-06 19:30:15</time>
      </trkpt>
      <trkpt lat="37.08633" lon="-3.38229">
        <ele>2676.6</ele>
        <time>2021-08-06 19:30:16</time>
      </trkpt>
      <trkpt lat="37.08633" lon="-3.3823">
        <ele>2676.6</ele>
        <time>2021-08-06 19:30:17</time>
      </trkpt>
      <trkpt lat="37.08635" lon="-3.38228">
        <ele>2676.6</ele>
        <time>2021-08-06 19:30:18</time>
      </trkpt>
      <trkpt lat="37.08636" lon="-3.38228">
        <ele>2676.6</ele>
        <time>2021-08-06 19:30:19</time>
      </trkpt>
      <trkpt lat="37.08636" lon="-3.38228">
        <ele>2676.4</ele>
        <time>2021-08-06 19:30:20</time>
      </trkpt>
      <trkpt lat="37.08638" lon="-3.38228">
        <ele>2676.2</ele>
        <time>2021-08-06 19:30:21</time>
      </trkpt>
      <trkpt lat="37.08638" lon="-3.38228">
        <ele>2675.8</ele>
        <time>2021-08-06 19:30:22</time>
      </trkpt>
      <trkpt lat="37.0864" lon="-3.38229">
        <ele>2675.4</ele>
        <time>2021-08-06 19:30:23</time>
      </trkpt>
      <trkpt lat="37.08641" lon="-3.38228">
        <ele>2674.8</ele>
        <time>2021-08-06 19:30:24</time>
      </trkpt>
      <trkpt lat="37.08642" lon="-3.38229">
        <ele>2674.4</ele>
        <time>2021-08-06 19:30:25</time>
      </trkpt>
      <trkpt lat="37.08644" lon="-3.38229">
        <ele>2674.2</ele>
        <time>2021-08-06 19:30:26</time>
      </trkpt>
      <trkpt lat="37.08646" lon="-3.38229">
        <ele>2674.2</ele>
        <time>2021-08-06 19:30:27</time>
      </trkpt>
      <trkpt lat="37.08647" lon="-3.3823">
        <ele>2674.2</ele>
        <time>2021-08-06 19:30:28</time>
      </trkpt>
      <trkpt lat="37.08648" lon="-3.38231">
        <ele>2674</ele>
        <time>2021-08-06 19:30:29</time>
      </trkpt>
      <trkpt lat="37.08649" lon="-3.38232">
        <ele>2674</ele>
        <time>2021-08-06 19:30:30</time>
      </trkpt>
      <trkpt lat="37.0865" lon="-3.38233">
        <ele>2673.6</ele>
        <time>2021-08-06 19:30:31</time>
      </trkpt>
      <trkpt lat="37.0865" lon="-3.38233">
        <ele>2673</ele>
        <time>2021-08-06 19:30:32</time>
      </trkpt>
      <trkpt lat="37.08651" lon="-3.38234">
        <ele>2672.4</ele>
        <time>2021-08-06 19:30:33</time>
      </trkpt>
      <trkpt lat="37.08651" lon="-3.38235">
        <ele>2672.2</ele>
        <time>2021-08-06 19:30:34</time>
      </trkpt>
      <trkpt lat="37.08652" lon="-3.38235">
        <ele>2672</ele>
        <time>2021-08-06 19:30:35</time>
      </trkpt>
      <trkpt lat="37.08653" lon="-3.38235">
        <ele>2672</ele>
        <time>2021-08-06 19:30:36</time>
      </trkpt>
      <trkpt lat="37.08653" lon="-3.38235">
        <ele>2671.6</ele>
        <time>2021-08-06 19:30:37</time>
      </trkpt>
      <trkpt lat="37.08654" lon="-3.38236">
        <ele>2671.6</ele>
        <time>2021-08-06 19:30:38</time>
      </trkpt>
      <trkpt lat="37.08655" lon="-3.38237">
        <ele>2671.8</ele>
        <time>2021-08-06 19:30:39</time>
      </trkpt>
      <trkpt lat="37.08656" lon="-3.38237">
        <ele>2671.8</ele>
        <time>2021-08-06 19:30:40</time>
      </trkpt>
      <trkpt lat="37.08657" lon="-3.38238">
        <ele>2671.6</ele>
        <time>2021-08-06 19:30:41</time>
      </trkpt>
      <trkpt lat="37.08657" lon="-3.38238">
        <ele>2671.4</ele>
        <time>2021-08-06 19:30:42</time>
      </trkpt>
      <trkpt lat="37.08657" lon="-3.3824">
        <ele>2671.2</ele>
        <time>2021-08-06 19:30:43</time>
      </trkpt>
      <trkpt lat="37.08658" lon="-3.38241">
        <ele>2671.2</ele>
        <time>2021-08-06 19:30:44</time>
      </trkpt>
      <trkpt lat="37.08659" lon="-3.38242">
        <ele>2671.2</ele>
        <time>2021-08-06 19:30:45</time>
      </trkpt>
      <trkpt lat="37.08659" lon="-3.38243">
        <ele>2671</ele>
        <time>2021-08-06 19:30:46</time>
      </trkpt>
      <trkpt lat="37.0866" lon="-3.38243">
        <ele>2671</ele>
        <time>2021-08-06 19:30:47</time>
      </trkpt>
      <trkpt lat="37.08661" lon="-3.38244">
        <ele>2670.8</ele>
        <time>2021-08-06 19:30:48</time>
      </trkpt>
      <trkpt lat="37.08661" lon="-3.38244">
        <ele>2670.6</ele>
        <time>2021-08-06 19:30:49</time>
      </trkpt>
      <trkpt lat="37.08662" lon="-3.38245">
        <ele>2670.2</ele>
        <time>2021-08-06 19:30:50</time>
      </trkpt>
      <trkpt lat="37.08663" lon="-3.38246">
        <ele>2670</ele>
        <time>2021-08-06 19:30:51</time>
      </trkpt>
      <trkpt lat="37.08664" lon="-3.38246">
        <ele>2669.6</ele>
        <time>2021-08-06 19:30:52</time>
      </trkpt>
      <trkpt lat="37.08665" lon="-3.38247">
        <ele>2669.2</ele>
        <time>2021-08-06 19:30:53</time>
      </trkpt>
      <trkpt lat="37.08666" lon="-3.38247">
        <ele>2668.6</ele>
        <time>2021-08-06 19:30:54</time>
      </trkpt>
      <trkpt lat="37.08667" lon="-3.38248">
        <ele>2668</ele>
        <time>2021-08-06 19:30:55</time>
      </trkpt>
      <trkpt lat="37.08667" lon="-3.3825">
        <ele>2667.8</ele>
        <time>2021-08-06 19:30:56</time>
      </trkpt>
      <trkpt lat="37.08668" lon="-3.38251">
        <ele>2667.6</ele>
        <time>2021-08-06 19:30:57</time>
      </trkpt>
      <trkpt lat="37.0867" lon="-3.38251">
        <ele>2667.6</ele>
        <time>2021-08-06 19:30:58</time>
      </trkpt>
      <trkpt lat="37.0867" lon="-3.38252">
        <ele>2667.6</ele>
        <time>2021-08-06 19:30:59</time>
      </trkpt>
      <trkpt lat="37.08671" lon="-3.38253">
        <ele>2667.6</ele>
        <time>2021-08-06 19:31:00</time>
      </trkpt>
      <trkpt lat="37.08672" lon="-3.38254">
        <ele>2667.8</ele>
        <time>2021-08-06 19:31:01</time>
      </trkpt>
      <trkpt lat="37.08672" lon="-3.38254">
        <ele>2668.2</ele>
        <time>2021-08-06 19:31:02</time>
      </trkpt>
      <trkpt lat="37.08673" lon="-3.38256">
        <ele>2668.4</ele>
        <time>2021-08-06 19:31:03</time>
      </trkpt>
      <trkpt lat="37.08673" lon="-3.38257">
        <ele>2668.6</ele>
        <time>2021-08-06 19:31:04</time>
      </trkpt>
      <trkpt lat="37.08674" lon="-3.38257">
        <ele>2668.8</ele>
        <time>2021-08-06 19:31:05</time>
      </trkpt>
      <trkpt lat="37.08675" lon="-3.38259">
        <ele>2668.8</ele>
        <time>2021-08-06 19:31:06</time>
      </trkpt>
      <trkpt lat="37.08675" lon="-3.38261">
        <ele>2669</ele>
        <time>2021-08-06 19:31:07</time>
      </trkpt>
      <trkpt lat="37.08676" lon="-3.38262">
        <ele>2669</ele>
        <time>2021-08-06 19:31:08</time>
      </trkpt>
      <trkpt lat="37.08677" lon="-3.38262">
        <ele>2668.8</ele>
        <time>2021-08-06 19:31:09</time>
      </trkpt>
      <trkpt lat="37.08677" lon="-3.38262">
        <ele>2668.8</ele>
        <time>2021-08-06 19:31:10</time>
      </trkpt>
      <trkpt lat="37.08677" lon="-3.38263">
        <ele>2668.6</ele>
        <time>2021-08-06 19:31:11</time>
      </trkpt>
      <trkpt lat="37.08679" lon="-3.38265">
        <ele>2668.6</ele>
        <time>2021-08-06 19:31:12</time>
      </trkpt>
      <trkpt lat="37.08679" lon="-3.38267">
        <ele>2668.2</ele>
        <time>2021-08-06 19:31:13</time>
      </trkpt>
      <trkpt lat="37.08679" lon="-3.38269">
        <ele>2668</ele>
        <time>2021-08-06 19:31:14</time>
      </trkpt>
      <trkpt lat="37.08679" lon="-3.3827">
        <ele>2667.6</ele>
        <time>2021-08-06 19:31:15</time>
      </trkpt>
      <trkpt lat="37.0868" lon="-3.38271">
        <ele>2667.2</ele>
        <time>2021-08-06 19:31:16</time>
      </trkpt>
      <trkpt lat="37.0868" lon="-3.38272">
        <ele>2667.2</ele>
        <time>2021-08-06 19:31:17</time>
      </trkpt>
      <trkpt lat="37.08681" lon="-3.38272">
        <ele>2666.8</ele>
        <time>2021-08-06 19:31:18</time>
      </trkpt>
      <trkpt lat="37.08682" lon="-3.38273">
        <ele>2666.6</ele>
        <time>2021-08-06 19:31:19</time>
      </trkpt>
      <trkpt lat="37.08682" lon="-3.38273">
        <ele>2666.6</ele>
        <time>2021-08-06 19:31:20</time>
      </trkpt>
      <trkpt lat="37.08683" lon="-3.38273">
        <ele>2666.8</ele>
        <time>2021-08-06 19:31:21</time>
      </trkpt>
      <trkpt lat="37.08684" lon="-3.38274">
        <ele>2666.6</ele>
        <time>2021-08-06 19:31:22</time>
      </trkpt>
      <trkpt lat="37.08684" lon="-3.38274">
        <ele>2666.4</ele>
        <time>2021-08-06 19:31:23</time>
      </trkpt>
      <trkpt lat="37.08685" lon="-3.38275">
        <ele>2666.4</ele>
        <time>2021-08-06 19:31:24</time>
      </trkpt>
      <trkpt lat="37.08685" lon="-3.38276">
        <ele>2666.2</ele>
        <time>2021-08-06 19:31:25</time>
      </trkpt>
      <trkpt lat="37.08685" lon="-3.38277">
        <ele>2665.6</ele>
        <time>2021-08-06 19:31:26</time>
      </trkpt>
      <trkpt lat="37.08686" lon="-3.38278">
        <ele>2665.4</ele>
        <time>2021-08-06 19:31:27</time>
      </trkpt>
      <trkpt lat="37.08686" lon="-3.38278">
        <ele>2665.4</ele>
        <time>2021-08-06 19:31:28</time>
      </trkpt>
      <trkpt lat="37.08687" lon="-3.38279">
        <ele>2665.4</ele>
        <time>2021-08-06 19:31:29</time>
      </trkpt>
      <trkpt lat="37.08687" lon="-3.38279">
        <ele>2665.4</ele>
        <time>2021-08-06 19:31:30</time>
      </trkpt>
      <trkpt lat="37.08688" lon="-3.38279">
        <ele>2665.6</ele>
        <time>2021-08-06 19:31:31</time>
      </trkpt>
      <trkpt lat="37.08689" lon="-3.3828">
        <ele>2665.6</ele>
        <time>2021-08-06 19:31:32</time>
      </trkpt>
      <trkpt lat="37.0869" lon="-3.38279">
        <ele>2665.6</ele>
        <time>2021-08-06 19:31:33</time>
      </trkpt>
      <trkpt lat="37.08691" lon="-3.3828">
        <ele>2666.2</ele>
        <time>2021-08-06 19:31:34</time>
      </trkpt>
      <trkpt lat="37.08691" lon="-3.3828">
        <ele>2666.6</ele>
        <time>2021-08-06 19:31:35</time>
      </trkpt>
      <trkpt lat="37.08692" lon="-3.3828">
        <ele>2666.6</ele>
        <time>2021-08-06 19:31:36</time>
      </trkpt>
      <trkpt lat="37.08692" lon="-3.38281">
        <ele>2666.4</ele>
        <time>2021-08-06 19:31:37</time>
      </trkpt>
      <trkpt lat="37.08693" lon="-3.38281">
        <ele>2666.2</ele>
        <time>2021-08-06 19:31:38</time>
      </trkpt>
      <trkpt lat="37.08693" lon="-3.38282">
        <ele>2666.4</ele>
        <time>2021-08-06 19:31:39</time>
      </trkpt>
      <trkpt lat="37.08694" lon="-3.38283">
        <ele>2666.2</ele>
        <time>2021-08-06 19:31:40</time>
      </trkpt>
      <trkpt lat="37.08695" lon="-3.38284">
        <ele>2666.2</ele>
        <time>2021-08-06 19:31:41</time>
      </trkpt>
      <trkpt lat="37.08695" lon="-3.38284">
        <ele>2665.8</ele>
        <time>2021-08-06 19:31:42</time>
      </trkpt>
      <trkpt lat="37.08696" lon="-3.38284">
        <ele>2665.6</ele>
        <time>2021-08-06 19:31:43</time>
      </trkpt>
      <trkpt lat="37.08697" lon="-3.38285">
        <ele>2664.4</ele>
        <time>2021-08-06 19:31:44</time>
      </trkpt>
      <trkpt lat="37.08698" lon="-3.38285">
        <ele>2663.8</ele>
        <time>2021-08-06 19:31:45</time>
      </trkpt>
      <trkpt lat="37.08699" lon="-3.38285">
        <ele>2663.2</ele>
        <time>2021-08-06 19:31:46</time>
      </trkpt>
      <trkpt lat="37.08699" lon="-3.38286">
        <ele>2663</ele>
        <time>2021-08-06 19:31:47</time>
      </trkpt>
      <trkpt lat="37.087" lon="-3.38286">
        <ele>2663</ele>
        <time>2021-08-06 19:31:48</time>
      </trkpt>
      <trkpt lat="37.08701" lon="-3.38287">
        <ele>2662.6</ele>
        <time>2021-08-06 19:31:49</time>
      </trkpt>
      <trkpt lat="37.08702" lon="-3.38288">
        <ele>2662.4</ele>
        <time>2021-08-06 19:31:50</time>
      </trkpt>
      <trkpt lat="37.08702" lon="-3.38288">
        <ele>2662</ele>
        <time>2021-08-06 19:31:51</time>
      </trkpt>
      <trkpt lat="37.08703" lon="-3.38289">
        <ele>2661.8</ele>
        <time>2021-08-06 19:31:52</time>
      </trkpt>
      <trkpt lat="37.08704" lon="-3.3829">
        <ele>2661.8</ele>
        <time>2021-08-06 19:31:53</time>
      </trkpt>
      <trkpt lat="37.08704" lon="-3.38291">
        <ele>2661.8</ele>
        <time>2021-08-06 19:31:54</time>
      </trkpt>
      <trkpt lat="37.08705" lon="-3.38291">
        <ele>2661.8</ele>
        <time>2021-08-06 19:31:55</time>
      </trkpt>
      <trkpt lat="37.08705" lon="-3.38291">
        <ele>2661.8</ele>
        <time>2021-08-06 19:31:56</time>
      </trkpt>
      <trkpt lat="37.08706" lon="-3.38292">
        <ele>2661.8</ele>
        <time>2021-08-06 19:31:57</time>
      </trkpt>
      <trkpt lat="37.08707" lon="-3.38292">
        <ele>2661.8</ele>
        <time>2021-08-06 19:31:58</time>
      </trkpt>
      <trkpt lat="37.08709" lon="-3.38295">
        <ele>2661.8</ele>
        <time>2021-08-06 19:31:59</time>
      </trkpt>
      <trkpt lat="37.0871" lon="-3.38295">
        <ele>2661.8</ele>
        <time>2021-08-06 19:32:00</time>
      </trkpt>
      <trkpt lat="37.08711" lon="-3.38296">
        <ele>2661.8</ele>
        <time>2021-08-06 19:32:01</time>
      </trkpt>
      <trkpt lat="37.08712" lon="-3.38298">
        <ele>2661.6</ele>
        <time>2021-08-06 19:32:02</time>
      </trkpt>
      <trkpt lat="37.08713" lon="-3.38298">
        <ele>2661.6</ele>
        <time>2021-08-06 19:32:03</time>
      </trkpt>
      <trkpt lat="37.08714" lon="-3.38298">
        <ele>2661</ele>
        <time>2021-08-06 19:32:04</time>
      </trkpt>
      <trkpt lat="37.08715" lon="-3.38298">
        <ele>2660.8</ele>
        <time>2021-08-06 19:32:05</time>
      </trkpt>
      <trkpt lat="37.08716" lon="-3.38298">
        <ele>2660.6</ele>
        <time>2021-08-06 19:32:06</time>
      </trkpt>
      <trkpt lat="37.08717" lon="-3.38297">
        <ele>2660.8</ele>
        <time>2021-08-06 19:32:07</time>
      </trkpt>
      <trkpt lat="37.08718" lon="-3.38297">
        <ele>2660.8</ele>
        <time>2021-08-06 19:32:08</time>
      </trkpt>
      <trkpt lat="37.08718" lon="-3.38299">
        <ele>2660.6</ele>
        <time>2021-08-06 19:32:09</time>
      </trkpt>
      <trkpt lat="37.08719" lon="-3.38301">
        <ele>2660.4</ele>
        <time>2021-08-06 19:32:10</time>
      </trkpt>
      <trkpt lat="37.08719" lon="-3.38302">
        <ele>2660.2</ele>
        <time>2021-08-06 19:32:11</time>
      </trkpt>
      <trkpt lat="37.0872" lon="-3.38302">
        <ele>2659.8</ele>
        <time>2021-08-06 19:32:12</time>
      </trkpt>
      <trkpt lat="37.08722" lon="-3.38302">
        <ele>2659.4</ele>
        <time>2021-08-06 19:32:13</time>
      </trkpt>
      <trkpt lat="37.08723" lon="-3.38302">
        <ele>2659</ele>
        <time>2021-08-06 19:32:14</time>
      </trkpt>
      <trkpt lat="37.08724" lon="-3.38303">
        <ele>2658.8</ele>
        <time>2021-08-06 19:32:15</time>
      </trkpt>
      <trkpt lat="37.08725" lon="-3.38303">
        <ele>2658.8</ele>
        <time>2021-08-06 19:32:16</time>
      </trkpt>
      <trkpt lat="37.08726" lon="-3.38304">
        <ele>2658.8</ele>
        <time>2021-08-06 19:32:17</time>
      </trkpt>
      <trkpt lat="37.08726" lon="-3.38305">
        <ele>2658.8</ele>
        <time>2021-08-06 19:32:18</time>
      </trkpt>
      <trkpt lat="37.08727" lon="-3.38306">
        <ele>2658.8</ele>
        <time>2021-08-06 19:32:19</time>
      </trkpt>
      <trkpt lat="37.08729" lon="-3.38305">
        <ele>2658.8</ele>
        <time>2021-08-06 19:32:20</time>
      </trkpt>
      <trkpt lat="37.0873" lon="-3.38305">
        <ele>2658.6</ele>
        <time>2021-08-06 19:32:21</time>
      </trkpt>
      <trkpt lat="37.08731" lon="-3.38306">
        <ele>2658.6</ele>
        <time>2021-08-06 19:32:22</time>
      </trkpt>
      <trkpt lat="37.08731" lon="-3.38306">
        <ele>2658.4</ele>
        <time>2021-08-06 19:32:23</time>
      </trkpt>
      <trkpt lat="37.08731" lon="-3.38309">
        <ele>2658.2</ele>
        <time>2021-08-06 19:32:24</time>
      </trkpt>
      <trkpt lat="37.08732" lon="-3.3831">
        <ele>2658.2</ele>
        <time>2021-08-06 19:32:25</time>
      </trkpt>
      <trkpt lat="37.08733" lon="-3.38311">
        <ele>2658.2</ele>
        <time>2021-08-06 19:32:26</time>
      </trkpt>
      <trkpt lat="37.08734" lon="-3.38311">
        <ele>2658.4</ele>
        <time>2021-08-06 19:32:27</time>
      </trkpt>
      <trkpt lat="37.08735" lon="-3.38312">
        <ele>2658.6</ele>
        <time>2021-08-06 19:32:28</time>
      </trkpt>
      <trkpt lat="37.08735" lon="-3.38312">
        <ele>2658.4</ele>
        <time>2021-08-06 19:32:29</time>
      </trkpt>
      <trkpt lat="37.08737" lon="-3.38312">
        <ele>2658.4</ele>
        <time>2021-08-06 19:32:30</time>
      </trkpt>
      <trkpt lat="37.08738" lon="-3.38312">
        <ele>2658</ele>
        <time>2021-08-06 19:32:31</time>
      </trkpt>
      <trkpt lat="37.08738" lon="-3.38313">
        <ele>2657.8</ele>
        <time>2021-08-06 19:32:32</time>
      </trkpt>
      <trkpt lat="37.08739" lon="-3.38313">
        <ele>2657.4</ele>
        <time>2021-08-06 19:32:33</time>
      </trkpt>
      <trkpt lat="37.0874" lon="-3.38313">
        <ele>2657.2</ele>
        <time>2021-08-06 19:32:34</time>
      </trkpt>
      <trkpt lat="37.08741" lon="-3.38313">
        <ele>2657</ele>
        <time>2021-08-06 19:32:35</time>
      </trkpt>
      <trkpt lat="37.08742" lon="-3.38314">
        <ele>2657</ele>
        <time>2021-08-06 19:32:36</time>
      </trkpt>
      <trkpt lat="37.08743" lon="-3.38313">
        <ele>2657</ele>
        <time>2021-08-06 19:32:37</time>
      </trkpt>
      <trkpt lat="37.08744" lon="-3.38313">
        <ele>2657</ele>
        <time>2021-08-06 19:32:38</time>
      </trkpt>
      <trkpt lat="37.08745" lon="-3.38313">
        <ele>2657.2</ele>
        <time>2021-08-06 19:32:39</time>
      </trkpt>
      <trkpt lat="37.08746" lon="-3.38313">
        <ele>2657.4</ele>
        <time>2021-08-06 19:32:40</time>
      </trkpt>
      <trkpt lat="37.08747" lon="-3.38313">
        <ele>2657.2</ele>
        <time>2021-08-06 19:32:41</time>
      </trkpt>
      <trkpt lat="37.08748" lon="-3.38312">
        <ele>2657.2</ele>
        <time>2021-08-06 19:32:42</time>
      </trkpt>
      <trkpt lat="37.0875" lon="-3.38311">
        <ele>2657.2</ele>
        <time>2021-08-06 19:32:43</time>
      </trkpt>
      <trkpt lat="37.08751" lon="-3.38311">
        <ele>2657</ele>
        <time>2021-08-06 19:32:44</time>
      </trkpt>
      <trkpt lat="37.08752" lon="-3.38312">
        <ele>2656.6</ele>
        <time>2021-08-06 19:32:45</time>
      </trkpt>
      <trkpt lat="37.08753" lon="-3.38312">
        <ele>2656.2</ele>
        <time>2021-08-06 19:32:46</time>
      </trkpt>
      <trkpt lat="37.08753" lon="-3.38312">
        <ele>2656.2</ele>
        <time>2021-08-06 19:32:47</time>
      </trkpt>
      <trkpt lat="37.08754" lon="-3.38312">
        <ele>2656</ele>
        <time>2021-08-06 19:32:48</time>
      </trkpt>
      <trkpt lat="37.08753" lon="-3.38313">
        <ele>2655.8</ele>
        <time>2021-08-06 19:32:49</time>
      </trkpt>
      <trkpt lat="37.08753" lon="-3.38313">
        <ele>2655.8</ele>
        <time>2021-08-06 19:32:50</time>
      </trkpt>
      <trkpt lat="37.08754" lon="-3.38313">
        <ele>2655.8</ele>
        <time>2021-08-06 19:32:51</time>
      </trkpt>
      <trkpt lat="37.08754" lon="-3.38313">
        <ele>2655.8</ele>
        <time>2021-08-06 19:32:52</time>
      </trkpt>
      <trkpt lat="37.08755" lon="-3.38313">
        <ele>2655.8</ele>
        <time>2021-08-06 19:32:53</time>
      </trkpt>
      <trkpt lat="37.08756" lon="-3.38313">
        <ele>2655.8</ele>
        <time>2021-08-06 19:32:54</time>
      </trkpt>
      <trkpt lat="37.08756" lon="-3.38313">
        <ele>2655.4</ele>
        <time>2021-08-06 19:32:55</time>
      </trkpt>
      <trkpt lat="37.08757" lon="-3.38313">
        <ele>2655</ele>
        <time>2021-08-06 19:32:56</time>
      </trkpt>
      <trkpt lat="37.08757" lon="-3.38313">
        <ele>2654.8</ele>
        <time>2021-08-06 19:32:57</time>
      </trkpt>
      <trkpt lat="37.08758" lon="-3.38312">
        <ele>2654.6</ele>
        <time>2021-08-06 19:32:58</time>
      </trkpt>
      <trkpt lat="37.08759" lon="-3.38312">
        <ele>2654.6</ele>
        <time>2021-08-06 19:32:59</time>
      </trkpt>
      <trkpt lat="37.0876" lon="-3.38313">
        <ele>2654.4</ele>
        <time>2021-08-06 19:33:00</time>
      </trkpt>
      <trkpt lat="37.08761" lon="-3.38313">
        <ele>2654.4</ele>
        <time>2021-08-06 19:33:01</time>
      </trkpt>
      <trkpt lat="37.08762" lon="-3.38313">
        <ele>2654.2</ele>
        <time>2021-08-06 19:33:02</time>
      </trkpt>
      <trkpt lat="37.08762" lon="-3.38314">
        <ele>2654.2</ele>
        <time>2021-08-06 19:33:03</time>
      </trkpt>
      <trkpt lat="37.08763" lon="-3.38314">
        <ele>2654.2</ele>
        <time>2021-08-06 19:33:04</time>
      </trkpt>
      <trkpt lat="37.08763" lon="-3.38314">
        <ele>2654</ele>
        <time>2021-08-06 19:33:05</time>
      </trkpt>
      <trkpt lat="37.08765" lon="-3.38314">
        <ele>2653.6</ele>
        <time>2021-08-06 19:33:06</time>
      </trkpt>
      <trkpt lat="37.08767" lon="-3.38315">
        <ele>2652.8</ele>
        <time>2021-08-06 19:33:07</time>
      </trkpt>
      <trkpt lat="37.08768" lon="-3.38315">
        <ele>2652.2</ele>
        <time>2021-08-06 19:33:08</time>
      </trkpt>
      <trkpt lat="37.08769" lon="-3.38315">
        <ele>2652</ele>
        <time>2021-08-06 19:33:09</time>
      </trkpt>
      <trkpt lat="37.0877" lon="-3.38315">
        <ele>2652</ele>
        <time>2021-08-06 19:33:10</time>
      </trkpt>
      <trkpt lat="37.08771" lon="-3.38315">
        <ele>2652</ele>
        <time>2021-08-06 19:33:11</time>
      </trkpt>
      <trkpt lat="37.08772" lon="-3.38315">
        <ele>2652.2</ele>
        <time>2021-08-06 19:33:12</time>
      </trkpt>
      <trkpt lat="37.08774" lon="-3.38315">
        <ele>2652.4</ele>
        <time>2021-08-06 19:33:13</time>
      </trkpt>
      <trkpt lat="37.08774" lon="-3.38315">
        <ele>2652.4</ele>
        <time>2021-08-06 19:33:14</time>
      </trkpt>
      <trkpt lat="37.08775" lon="-3.38315">
        <ele>2652.4</ele>
        <time>2021-08-06 19:33:15</time>
      </trkpt>
      <trkpt lat="37.08776" lon="-3.38315">
        <ele>2652.2</ele>
        <time>2021-08-06 19:33:16</time>
      </trkpt>
      <trkpt lat="37.08777" lon="-3.38314">
        <ele>2651.8</ele>
        <time>2021-08-06 19:33:17</time>
      </trkpt>
      <trkpt lat="37.08778" lon="-3.38314">
        <ele>2651.4</ele>
        <time>2021-08-06 19:33:18</time>
      </trkpt>
      <trkpt lat="37.08779" lon="-3.38315">
        <ele>2651</ele>
        <time>2021-08-06 19:33:19</time>
      </trkpt>
      <trkpt lat="37.0878" lon="-3.38315">
        <ele>2650.8</ele>
        <time>2021-08-06 19:33:20</time>
      </trkpt>
      <trkpt lat="37.08781" lon="-3.38315">
        <ele>2650.6</ele>
        <time>2021-08-06 19:33:21</time>
      </trkpt>
      <trkpt lat="37.08782" lon="-3.38315">
        <ele>2650.4</ele>
        <time>2021-08-06 19:33:22</time>
      </trkpt>
      <trkpt lat="37.08783" lon="-3.38315">
        <ele>2650.4</ele>
        <time>2021-08-06 19:33:23</time>
      </trkpt>
      <trkpt lat="37.08784" lon="-3.38315">
        <ele>2650.4</ele>
        <time>2021-08-06 19:33:24</time>
      </trkpt>
      <trkpt lat="37.08785" lon="-3.38315">
        <ele>2650.4</ele>
        <time>2021-08-06 19:33:25</time>
      </trkpt>
      <trkpt lat="37.08786" lon="-3.38316">
        <ele>2650.2</ele>
        <time>2021-08-06 19:33:26</time>
      </trkpt>
      <trkpt lat="37.08787" lon="-3.38317">
        <ele>2650.2</ele>
        <time>2021-08-06 19:33:27</time>
      </trkpt>
      <trkpt lat="37.08788" lon="-3.38317">
        <ele>2650.4</ele>
        <time>2021-08-06 19:33:28</time>
      </trkpt>
      <trkpt lat="37.08789" lon="-3.38318">
        <ele>2650.2</ele>
        <time>2021-08-06 19:33:29</time>
      </trkpt>
      <trkpt lat="37.0879" lon="-3.38319">
        <ele>2650.2</ele>
        <time>2021-08-06 19:33:30</time>
      </trkpt>
      <trkpt lat="37.08792" lon="-3.38319">
        <ele>2650.6</ele>
        <time>2021-08-06 19:33:31</time>
      </trkpt>
      <trkpt lat="37.08793" lon="-3.3832">
        <ele>2650.2</ele>
        <time>2021-08-06 19:33:32</time>
      </trkpt>
      <trkpt lat="37.08794" lon="-3.3832">
        <ele>2650.4</ele>
        <time>2021-08-06 19:33:33</time>
      </trkpt>
      <trkpt lat="37.08795" lon="-3.3832">
        <ele>2650.2</ele>
        <time>2021-08-06 19:33:34</time>
      </trkpt>
      <trkpt lat="37.08796" lon="-3.3832">
        <ele>2650.2</ele>
        <time>2021-08-06 19:33:35</time>
      </trkpt>
      <trkpt lat="37.08797" lon="-3.3832">
        <ele>2650</ele>
        <time>2021-08-06 19:33:36</time>
      </trkpt>
      <trkpt lat="37.08798" lon="-3.3832">
        <ele>2650</ele>
        <time>2021-08-06 19:33:37</time>
      </trkpt>
      <trkpt lat="37.08799" lon="-3.3832">
        <ele>2650</ele>
        <time>2021-08-06 19:33:38</time>
      </trkpt>
      <trkpt lat="37.088" lon="-3.38321">
        <ele>2649.8</ele>
        <time>2021-08-06 19:33:39</time>
      </trkpt>
      <trkpt lat="37.08801" lon="-3.38321">
        <ele>2649.6</ele>
        <time>2021-08-06 19:33:40</time>
      </trkpt>
      <trkpt lat="37.08802" lon="-3.38322">
        <ele>2649.4</ele>
        <time>2021-08-06 19:33:41</time>
      </trkpt>
      <trkpt lat="37.08803" lon="-3.38323">
        <ele>2649.4</ele>
        <time>2021-08-06 19:33:42</time>
      </trkpt>
      <trkpt lat="37.08804" lon="-3.38323">
        <ele>2649</ele>
        <time>2021-08-06 19:33:43</time>
      </trkpt>
      <trkpt lat="37.08805" lon="-3.38323">
        <ele>2649</ele>
        <time>2021-08-06 19:33:44</time>
      </trkpt>
      <trkpt lat="37.08806" lon="-3.38322">
        <ele>2648.8</ele>
        <time>2021-08-06 19:33:45</time>
      </trkpt>
      <trkpt lat="37.08807" lon="-3.38322">
        <ele>2648.8</ele>
        <time>2021-08-06 19:33:46</time>
      </trkpt>
      <trkpt lat="37.08807" lon="-3.38323">
        <ele>2648.8</ele>
        <time>2021-08-06 19:33:47</time>
      </trkpt>
      <trkpt lat="37.08808" lon="-3.38323">
        <ele>2648.8</ele>
        <time>2021-08-06 19:33:48</time>
      </trkpt>
      <trkpt lat="37.08809" lon="-3.38323">
        <ele>2648.6</ele>
        <time>2021-08-06 19:33:49</time>
      </trkpt>
      <trkpt lat="37.0881" lon="-3.38324">
        <ele>2648.6</ele>
        <time>2021-08-06 19:33:50</time>
      </trkpt>
      <trkpt lat="37.08811" lon="-3.38324">
        <ele>2648.4</ele>
        <time>2021-08-06 19:33:51</time>
      </trkpt>
      <trkpt lat="37.08812" lon="-3.38324">
        <ele>2648.4</ele>
        <time>2021-08-06 19:33:52</time>
      </trkpt>
      <trkpt lat="37.08813" lon="-3.38325">
        <ele>2648.4</ele>
        <time>2021-08-06 19:33:53</time>
      </trkpt>
      <trkpt lat="37.08814" lon="-3.38325">
        <ele>2648.4</ele>
        <time>2021-08-06 19:33:54</time>
      </trkpt>
      <trkpt lat="37.08815" lon="-3.38326">
        <ele>2648.2</ele>
        <time>2021-08-06 19:33:55</time>
      </trkpt>
      <trkpt lat="37.08816" lon="-3.38326">
        <ele>2648</ele>
        <time>2021-08-06 19:33:56</time>
      </trkpt>
      <trkpt lat="37.08817" lon="-3.38327">
        <ele>2648</ele>
        <time>2021-08-06 19:33:57</time>
      </trkpt>
      <trkpt lat="37.08817" lon="-3.38328">
        <ele>2647.8</ele>
        <time>2021-08-06 19:33:58</time>
      </trkpt>
      <trkpt lat="37.08818" lon="-3.38328">
        <ele>2647.8</ele>
        <time>2021-08-06 19:33:59</time>
      </trkpt>
      <trkpt lat="37.08819" lon="-3.38328">
        <ele>2647.8</ele>
        <time>2021-08-06 19:34:00</time>
      </trkpt>
      <trkpt lat="37.0882" lon="-3.38329">
        <ele>2647.8</ele>
        <time>2021-08-06 19:34:01</time>
      </trkpt>
      <trkpt lat="37.08821" lon="-3.3833">
        <ele>2648</ele>
        <time>2021-08-06 19:34:02</time>
      </trkpt>
      <trkpt lat="37.08821" lon="-3.3833">
        <ele>2648</ele>
        <time>2021-08-06 19:34:03</time>
      </trkpt>
      <trkpt lat="37.08821" lon="-3.38331">
        <ele>2647.8</ele>
        <time>2021-08-06 19:34:04</time>
      </trkpt>
      <trkpt lat="37.08822" lon="-3.38332">
        <ele>2648</ele>
        <time>2021-08-06 19:34:05</time>
      </trkpt>
      <trkpt lat="37.08823" lon="-3.38332">
        <ele>2648</ele>
        <time>2021-08-06 19:34:06</time>
      </trkpt>
      <trkpt lat="37.08823" lon="-3.38332">
        <ele>2648</ele>
        <time>2021-08-06 19:34:07</time>
      </trkpt>
      <trkpt lat="37.08823" lon="-3.38333">
        <ele>2648</ele>
        <time>2021-08-06 19:34:08</time>
      </trkpt>
      <trkpt lat="37.08824" lon="-3.38333">
        <ele>2647.6</ele>
        <time>2021-08-06 19:34:09</time>
      </trkpt>
      <trkpt lat="37.08825" lon="-3.38334">
        <ele>2647.8</ele>
        <time>2021-08-06 19:34:10</time>
      </trkpt>
      <trkpt lat="37.08826" lon="-3.38334">
        <ele>2648.2</ele>
        <time>2021-08-06 19:34:11</time>
      </trkpt>
      <trkpt lat="37.08826" lon="-3.38335">
        <ele>2648.2</ele>
        <time>2021-08-06 19:34:12</time>
      </trkpt>
      <trkpt lat="37.08827" lon="-3.38335">
        <ele>2648.4</ele>
        <time>2021-08-06 19:34:13</time>
      </trkpt>
      <trkpt lat="37.08828" lon="-3.38336">
        <ele>2648.4</ele>
        <time>2021-08-06 19:34:14</time>
      </trkpt>
      <trkpt lat="37.08829" lon="-3.38337">
        <ele>2648.4</ele>
        <time>2021-08-06 19:34:15</time>
      </trkpt>
      <trkpt lat="37.0883" lon="-3.38337">
        <ele>2648.4</ele>
        <time>2021-08-06 19:34:16</time>
      </trkpt>
      <trkpt lat="37.08831" lon="-3.38338">
        <ele>2648.2</ele>
        <time>2021-08-06 19:34:17</time>
      </trkpt>
      <trkpt lat="37.08832" lon="-3.38338">
        <ele>2648</ele>
        <time>2021-08-06 19:34:18</time>
      </trkpt>
      <trkpt lat="37.08833" lon="-3.38338">
        <ele>2648</ele>
        <time>2021-08-06 19:34:19</time>
      </trkpt>
      <trkpt lat="37.08834" lon="-3.38338">
        <ele>2647.6</ele>
        <time>2021-08-06 19:34:20</time>
      </trkpt>
      <trkpt lat="37.08835" lon="-3.38338">
        <ele>2647.6</ele>
        <time>2021-08-06 19:34:21</time>
      </trkpt>
      <trkpt lat="37.08835" lon="-3.38338">
        <ele>2647.4</ele>
        <time>2021-08-06 19:34:22</time>
      </trkpt>
      <trkpt lat="37.08836" lon="-3.38338">
        <ele>2647.6</ele>
        <time>2021-08-06 19:34:23</time>
      </trkpt>
      <trkpt lat="37.08837" lon="-3.38338">
        <ele>2647.6</ele>
        <time>2021-08-06 19:34:24</time>
      </trkpt>
      <trkpt lat="37.08838" lon="-3.38338">
        <ele>2647.4</ele>
        <time>2021-08-06 19:34:25</time>
      </trkpt>
      <trkpt lat="37.08838" lon="-3.38339">
        <ele>2647.2</ele>
        <time>2021-08-06 19:34:26</time>
      </trkpt>
      <trkpt lat="37.08839" lon="-3.38339">
        <ele>2647</ele>
        <time>2021-08-06 19:34:27</time>
      </trkpt>
      <trkpt lat="37.0884" lon="-3.38339">
        <ele>2647</ele>
        <time>2021-08-06 19:34:28</time>
      </trkpt>
      <trkpt lat="37.08841" lon="-3.38339">
        <ele>2646.8</ele>
        <time>2021-08-06 19:34:29</time>
      </trkpt>
      <trkpt lat="37.08842" lon="-3.38339">
        <ele>2646.6</ele>
        <time>2021-08-06 19:34:30</time>
      </trkpt>
      <trkpt lat="37.08843" lon="-3.38339">
        <ele>2646.2</ele>
        <time>2021-08-06 19:34:31</time>
      </trkpt>
      <trkpt lat="37.08844" lon="-3.38339">
        <ele>2646</ele>
        <time>2021-08-06 19:34:32</time>
      </trkpt>
      <trkpt lat="37.08845" lon="-3.38339">
        <ele>2645.8</ele>
        <time>2021-08-06 19:34:33</time>
      </trkpt>
      <trkpt lat="37.08846" lon="-3.38339">
        <ele>2645.8</ele>
        <time>2021-08-06 19:34:34</time>
      </trkpt>
      <trkpt lat="37.08847" lon="-3.38339">
        <ele>2645.4</ele>
        <time>2021-08-06 19:34:35</time>
      </trkpt>
      <trkpt lat="37.08848" lon="-3.38339">
        <ele>2645.6</ele>
        <time>2021-08-06 19:34:36</time>
      </trkpt>
      <trkpt lat="37.08849" lon="-3.38339">
        <ele>2645</ele>
        <time>2021-08-06 19:34:37</time>
      </trkpt>
      <trkpt lat="37.0885" lon="-3.38338">
        <ele>2644.6</ele>
        <time>2021-08-06 19:34:38</time>
      </trkpt>
      <trkpt lat="37.08851" lon="-3.38338">
        <ele>2644.6</ele>
        <time>2021-08-06 19:34:39</time>
      </trkpt>
      <trkpt lat="37.08852" lon="-3.38338">
        <ele>2644.6</ele>
        <time>2021-08-06 19:34:40</time>
      </trkpt>
      <trkpt lat="37.08853" lon="-3.38338">
        <ele>2644.6</ele>
        <time>2021-08-06 19:34:41</time>
      </trkpt>
      <trkpt lat="37.08853" lon="-3.38339">
        <ele>2644.6</ele>
        <time>2021-08-06 19:34:42</time>
      </trkpt>
      <trkpt lat="37.08854" lon="-3.38339">
        <ele>2644.8</ele>
        <time>2021-08-06 19:34:43</time>
      </trkpt>
      <trkpt lat="37.08855" lon="-3.38339">
        <ele>2644.8</ele>
        <time>2021-08-06 19:34:44</time>
      </trkpt>
      <trkpt lat="37.08856" lon="-3.3834">
        <ele>2644.8</ele>
        <time>2021-08-06 19:34:45</time>
      </trkpt>
      <trkpt lat="37.08857" lon="-3.3834">
        <ele>2644.6</ele>
        <time>2021-08-06 19:34:46</time>
      </trkpt>
      <trkpt lat="37.08858" lon="-3.38341">
        <ele>2644.4</ele>
        <time>2021-08-06 19:34:47</time>
      </trkpt>
      <trkpt lat="37.08859" lon="-3.38342">
        <ele>2644.4</ele>
        <time>2021-08-06 19:34:48</time>
      </trkpt>
      <trkpt lat="37.0886" lon="-3.38342">
        <ele>2644.2</ele>
        <time>2021-08-06 19:34:49</time>
      </trkpt>
      <trkpt lat="37.08861" lon="-3.38343">
        <ele>2644.2</ele>
        <time>2021-08-06 19:34:50</time>
      </trkpt>
      <trkpt lat="37.08862" lon="-3.38344">
        <ele>2644.2</ele>
        <time>2021-08-06 19:34:51</time>
      </trkpt>
      <trkpt lat="37.08863" lon="-3.38344">
        <ele>2644</ele>
        <time>2021-08-06 19:34:52</time>
      </trkpt>
      <trkpt lat="37.08864" lon="-3.38345">
        <ele>2644</ele>
        <time>2021-08-06 19:34:53</time>
      </trkpt>
      <trkpt lat="37.08865" lon="-3.38346">
        <ele>2643.8</ele>
        <time>2021-08-06 19:34:54</time>
      </trkpt>
      <trkpt lat="37.08866" lon="-3.38347">
        <ele>2643.6</ele>
        <time>2021-08-06 19:34:55</time>
      </trkpt>
      <trkpt lat="37.08868" lon="-3.38347">
        <ele>2643.6</ele>
        <time>2021-08-06 19:34:56</time>
      </trkpt>
      <trkpt lat="37.08869" lon="-3.38348">
        <ele>2643.6</ele>
        <time>2021-08-06 19:34:57</time>
      </trkpt>
      <trkpt lat="37.0887" lon="-3.38348">
        <ele>2643</ele>
        <time>2021-08-06 19:34:58</time>
      </trkpt>
      <trkpt lat="37.0887" lon="-3.38348">
        <ele>2642.8</ele>
        <time>2021-08-06 19:34:59</time>
      </trkpt>
      <trkpt lat="37.08871" lon="-3.38347">
        <ele>2642.6</ele>
        <time>2021-08-06 19:35:00</time>
      </trkpt>
      <trkpt lat="37.08872" lon="-3.38348">
        <ele>2642.4</ele>
        <time>2021-08-06 19:35:01</time>
      </trkpt>
      <trkpt lat="37.08872" lon="-3.38349">
        <ele>2642.2</ele>
        <time>2021-08-06 19:35:02</time>
      </trkpt>
      <trkpt lat="37.08873" lon="-3.38351">
        <ele>2642.2</ele>
        <time>2021-08-06 19:35:03</time>
      </trkpt>
      <trkpt lat="37.08874" lon="-3.38351">
        <ele>2642.2</ele>
        <time>2021-08-06 19:35:04</time>
      </trkpt>
      <trkpt lat="37.08874" lon="-3.38353">
        <ele>2642.2</ele>
        <time>2021-08-06 19:35:05</time>
      </trkpt>
      <trkpt lat="37.08874" lon="-3.38354">
        <ele>2641.8</ele>
        <time>2021-08-06 19:35:06</time>
      </trkpt>
      <trkpt lat="37.08874" lon="-3.38356">
        <ele>2641.6</ele>
        <time>2021-08-06 19:35:07</time>
      </trkpt>
      <trkpt lat="37.08874" lon="-3.38358">
        <ele>2642</ele>
        <time>2021-08-06 19:35:08</time>
      </trkpt>
      <trkpt lat="37.08874" lon="-3.3836">
        <ele>2642.2</ele>
        <time>2021-08-06 19:35:09</time>
      </trkpt>
      <trkpt lat="37.08874" lon="-3.38361">
        <ele>2642.2</ele>
        <time>2021-08-06 19:35:10</time>
      </trkpt>
      <trkpt lat="37.08874" lon="-3.38362">
        <ele>2642.2</ele>
        <time>2021-08-06 19:35:11</time>
      </trkpt>
      <trkpt lat="37.08875" lon="-3.38363">
        <ele>2642</ele>
        <time>2021-08-06 19:35:12</time>
      </trkpt>
      <trkpt lat="37.08876" lon="-3.38363">
        <ele>2641.8</ele>
        <time>2021-08-06 19:35:13</time>
      </trkpt>
      <trkpt lat="37.08877" lon="-3.38363">
        <ele>2641.8</ele>
        <time>2021-08-06 19:35:14</time>
      </trkpt>
      <trkpt lat="37.08878" lon="-3.38363">
        <ele>2641.6</ele>
        <time>2021-08-06 19:35:15</time>
      </trkpt>
      <trkpt lat="37.08878" lon="-3.38364">
        <ele>2641.6</ele>
        <time>2021-08-06 19:35:16</time>
      </trkpt>
      <trkpt lat="37.08879" lon="-3.38365">
        <ele>2641.6</ele>
        <time>2021-08-06 19:35:17</time>
      </trkpt>
      <trkpt lat="37.0888" lon="-3.38366">
        <ele>2641.6</ele>
        <time>2021-08-06 19:35:18</time>
      </trkpt>
      <trkpt lat="37.0888" lon="-3.38367">
        <ele>2641.4</ele>
        <time>2021-08-06 19:35:19</time>
      </trkpt>
      <trkpt lat="37.08881" lon="-3.38368">
        <ele>2641.4</ele>
        <time>2021-08-06 19:35:20</time>
      </trkpt>
      <trkpt lat="37.08882" lon="-3.38365">
        <ele>2641.4</ele>
        <time>2021-08-06 19:35:21</time>
      </trkpt>
      <trkpt lat="37.08883" lon="-3.38366">
        <ele>2641.2</ele>
        <time>2021-08-06 19:35:22</time>
      </trkpt>
      <trkpt lat="37.08884" lon="-3.38367">
        <ele>2641.2</ele>
        <time>2021-08-06 19:35:23</time>
      </trkpt>
      <trkpt lat="37.08885" lon="-3.38368">
        <ele>2641.4</ele>
        <time>2021-08-06 19:35:24</time>
      </trkpt>
      <trkpt lat="37.08885" lon="-3.38369">
        <ele>2641.4</ele>
        <time>2021-08-06 19:35:25</time>
      </trkpt>
      <trkpt lat="37.08886" lon="-3.3837">
        <ele>2641.6</ele>
        <time>2021-08-06 19:35:26</time>
      </trkpt>
      <trkpt lat="37.08887" lon="-3.38371">
        <ele>2641.6</ele>
        <time>2021-08-06 19:35:27</time>
      </trkpt>
      <trkpt lat="37.08888" lon="-3.38372">
        <ele>2641.6</ele>
        <time>2021-08-06 19:35:28</time>
      </trkpt>
      <trkpt lat="37.08889" lon="-3.38372">
        <ele>2641.8</ele>
        <time>2021-08-06 19:35:29</time>
      </trkpt>
      <trkpt lat="37.0889" lon="-3.38373">
        <ele>2641.8</ele>
        <time>2021-08-06 19:35:30</time>
      </trkpt>
      <trkpt lat="37.08891" lon="-3.38374">
        <ele>2641.6</ele>
        <time>2021-08-06 19:35:31</time>
      </trkpt>
      <trkpt lat="37.08892" lon="-3.38374">
        <ele>2641.6</ele>
        <time>2021-08-06 19:35:32</time>
      </trkpt>
      <trkpt lat="37.08893" lon="-3.38375">
        <ele>2641.8</ele>
        <time>2021-08-06 19:35:33</time>
      </trkpt>
      <trkpt lat="37.08893" lon="-3.38375">
        <ele>2641.8</ele>
        <time>2021-08-06 19:35:34</time>
      </trkpt>
      <trkpt lat="37.08894" lon="-3.38376">
        <ele>2642</ele>
        <time>2021-08-06 19:35:35</time>
      </trkpt>
      <trkpt lat="37.08895" lon="-3.38376">
        <ele>2641.6</ele>
        <time>2021-08-06 19:35:36</time>
      </trkpt>
      <trkpt lat="37.08896" lon="-3.38377">
        <ele>2641.8</ele>
        <time>2021-08-06 19:35:37</time>
      </trkpt>
      <trkpt lat="37.08896" lon="-3.38378">
        <ele>2641.8</ele>
        <time>2021-08-06 19:35:38</time>
      </trkpt>
      <trkpt lat="37.08897" lon="-3.38378">
        <ele>2641.8</ele>
        <time>2021-08-06 19:35:39</time>
      </trkpt>
      <trkpt lat="37.08898" lon="-3.38379">
        <ele>2641.8</ele>
        <time>2021-08-06 19:35:40</time>
      </trkpt>
      <trkpt lat="37.08899" lon="-3.38379">
        <ele>2641.6</ele>
        <time>2021-08-06 19:35:41</time>
      </trkpt>
      <trkpt lat="37.08899" lon="-3.38379">
        <ele>2641.6</ele>
        <time>2021-08-06 19:35:42</time>
      </trkpt>
      <trkpt lat="37.08901" lon="-3.38378">
        <ele>2641.6</ele>
        <time>2021-08-06 19:35:43</time>
      </trkpt>
      <trkpt lat="37.08901" lon="-3.38378">
        <ele>2640.8</ele>
        <time>2021-08-06 19:35:44</time>
      </trkpt>
      <trkpt lat="37.08902" lon="-3.38378">
        <ele>2639.8</ele>
        <time>2021-08-06 19:35:45</time>
      </trkpt>
      <trkpt lat="37.08903" lon="-3.38379">
        <ele>2639.2</ele>
        <time>2021-08-06 19:35:46</time>
      </trkpt>
      <trkpt lat="37.08903" lon="-3.38379">
        <ele>2638.6</ele>
        <time>2021-08-06 19:35:47</time>
      </trkpt>
      <trkpt lat="37.08904" lon="-3.38379">
        <ele>2638</ele>
        <time>2021-08-06 19:35:48</time>
      </trkpt>
      <trkpt lat="37.08905" lon="-3.38379">
        <ele>2637.8</ele>
        <time>2021-08-06 19:35:49</time>
      </trkpt>
      <trkpt lat="37.08906" lon="-3.3838">
        <ele>2637.6</ele>
        <time>2021-08-06 19:35:50</time>
      </trkpt>
      <trkpt lat="37.08906" lon="-3.38381">
        <ele>2637.6</ele>
        <time>2021-08-06 19:35:51</time>
      </trkpt>
      <trkpt lat="37.08907" lon="-3.38382">
        <ele>2637.2</ele>
        <time>2021-08-06 19:35:52</time>
      </trkpt>
      <trkpt lat="37.08908" lon="-3.38382">
        <ele>2637</ele>
        <time>2021-08-06 19:35:53</time>
      </trkpt>
      <trkpt lat="37.08909" lon="-3.38383">
        <ele>2636.8</ele>
        <time>2021-08-06 19:35:54</time>
      </trkpt>
      <trkpt lat="37.0891" lon="-3.38383">
        <ele>2636.8</ele>
        <time>2021-08-06 19:35:55</time>
      </trkpt>
      <trkpt lat="37.08911" lon="-3.38384">
        <ele>2636.6</ele>
        <time>2021-08-06 19:35:56</time>
      </trkpt>
      <trkpt lat="37.08912" lon="-3.38384">
        <ele>2636.6</ele>
        <time>2021-08-06 19:35:57</time>
      </trkpt>
      <trkpt lat="37.08913" lon="-3.38384">
        <ele>2636.6</ele>
        <time>2021-08-06 19:35:58</time>
      </trkpt>
      <trkpt lat="37.08914" lon="-3.38385">
        <ele>2636.6</ele>
        <time>2021-08-06 19:35:59</time>
      </trkpt>
      <trkpt lat="37.08915" lon="-3.38384">
        <ele>2636.6</ele>
        <time>2021-08-06 19:36:00</time>
      </trkpt>
      <trkpt lat="37.08917" lon="-3.38385">
        <ele>2636.6</ele>
        <time>2021-08-06 19:36:01</time>
      </trkpt>
      <trkpt lat="37.08918" lon="-3.38384">
        <ele>2636.6</ele>
        <time>2021-08-06 19:36:02</time>
      </trkpt>
      <trkpt lat="37.08919" lon="-3.38384">
        <ele>2636.6</ele>
        <time>2021-08-06 19:36:03</time>
      </trkpt>
      <trkpt lat="37.0892" lon="-3.38384">
        <ele>2636.6</ele>
        <time>2021-08-06 19:36:04</time>
      </trkpt>
      <trkpt lat="37.08921" lon="-3.38384">
        <ele>2636.6</ele>
        <time>2021-08-06 19:36:05</time>
      </trkpt>
      <trkpt lat="37.08921" lon="-3.38385">
        <ele>2637</ele>
        <time>2021-08-06 19:36:06</time>
      </trkpt>
      <trkpt lat="37.08922" lon="-3.38386">
        <ele>2637.4</ele>
        <time>2021-08-06 19:36:07</time>
      </trkpt>
      <trkpt lat="37.08923" lon="-3.38386">
        <ele>2637.4</ele>
        <time>2021-08-06 19:36:08</time>
      </trkpt>
      <trkpt lat="37.08923" lon="-3.38386">
        <ele>2637.6</ele>
        <time>2021-08-06 19:36:09</time>
      </trkpt>
      <trkpt lat="37.08924" lon="-3.38388">
        <ele>2637.4</ele>
        <time>2021-08-06 19:36:10</time>
      </trkpt>
      <trkpt lat="37.08924" lon="-3.38389">
        <ele>2637.2</ele>
        <time>2021-08-06 19:36:11</time>
      </trkpt>
      <trkpt lat="37.08925" lon="-3.38388">
        <ele>2637.2</ele>
        <time>2021-08-06 19:36:12</time>
      </trkpt>
      <trkpt lat="37.08926" lon="-3.38388">
        <ele>2637.2</ele>
        <time>2021-08-06 19:36:13</time>
      </trkpt>
      <trkpt lat="37.08927" lon="-3.38389">
        <ele>2637</ele>
        <time>2021-08-06 19:36:14</time>
      </trkpt>
      <trkpt lat="37.08927" lon="-3.3839">
        <ele>2636.8</ele>
        <time>2021-08-06 19:36:15</time>
      </trkpt>
      <trkpt lat="37.08928" lon="-3.3839">
        <ele>2636.6</ele>
        <time>2021-08-06 19:36:16</time>
      </trkpt>
      <trkpt lat="37.08929" lon="-3.3839">
        <ele>2636.4</ele>
        <time>2021-08-06 19:36:17</time>
      </trkpt>
      <trkpt lat="37.0893" lon="-3.38391">
        <ele>2636.4</ele>
        <time>2021-08-06 19:36:18</time>
      </trkpt>
      <trkpt lat="37.08931" lon="-3.38391">
        <ele>2636.2</ele>
        <time>2021-08-06 19:36:19</time>
      </trkpt>
      <trkpt lat="37.08932" lon="-3.38391">
        <ele>2636.2</ele>
        <time>2021-08-06 19:36:20</time>
      </trkpt>
      <trkpt lat="37.08933" lon="-3.38391">
        <ele>2636.2</ele>
        <time>2021-08-06 19:36:21</time>
      </trkpt>
      <trkpt lat="37.08933" lon="-3.38392">
        <ele>2636</ele>
        <time>2021-08-06 19:36:22</time>
      </trkpt>
      <trkpt lat="37.08934" lon="-3.38393">
        <ele>2635.8</ele>
        <time>2021-08-06 19:36:23</time>
      </trkpt>
      <trkpt lat="37.08935" lon="-3.38393">
        <ele>2635.8</ele>
        <time>2021-08-06 19:36:24</time>
      </trkpt>
      <trkpt lat="37.08936" lon="-3.38393">
        <ele>2635.6</ele>
        <time>2021-08-06 19:36:25</time>
      </trkpt>
      <trkpt lat="37.08937" lon="-3.38393">
        <ele>2635.6</ele>
        <time>2021-08-06 19:36:26</time>
      </trkpt>
      <trkpt lat="37.08937" lon="-3.38394">
        <ele>2635.6</ele>
        <time>2021-08-06 19:36:27</time>
      </trkpt>
      <trkpt lat="37.08938" lon="-3.38395">
        <ele>2635.6</ele>
        <time>2021-08-06 19:36:28</time>
      </trkpt>
      <trkpt lat="37.08939" lon="-3.38395">
        <ele>2635.6</ele>
        <time>2021-08-06 19:36:29</time>
      </trkpt>
      <trkpt lat="37.0894" lon="-3.38396">
        <ele>2635.6</ele>
        <time>2021-08-06 19:36:30</time>
      </trkpt>
      <trkpt lat="37.08941" lon="-3.38396">
        <ele>2635.2</ele>
        <time>2021-08-06 19:36:31</time>
      </trkpt>
      <trkpt lat="37.08942" lon="-3.38397">
        <ele>2634.8</ele>
        <time>2021-08-06 19:36:32</time>
      </trkpt>
      <trkpt lat="37.08943" lon="-3.38397">
        <ele>2634.8</ele>
        <time>2021-08-06 19:36:33</time>
      </trkpt>
      <trkpt lat="37.08943" lon="-3.38398">
        <ele>2634.6</ele>
        <time>2021-08-06 19:36:34</time>
      </trkpt>
      <trkpt lat="37.08944" lon="-3.38399">
        <ele>2634.4</ele>
        <time>2021-08-06 19:36:35</time>
      </trkpt>
      <trkpt lat="37.08945" lon="-3.384">
        <ele>2634</ele>
        <time>2021-08-06 19:36:36</time>
      </trkpt>
      <trkpt lat="37.08945" lon="-3.384">
        <ele>2634.2</ele>
        <time>2021-08-06 19:36:37</time>
      </trkpt>
      <trkpt lat="37.08946" lon="-3.384">
        <ele>2634.4</ele>
        <time>2021-08-06 19:36:38</time>
      </trkpt>
      <trkpt lat="37.08947" lon="-3.38401">
        <ele>2634.4</ele>
        <time>2021-08-06 19:36:39</time>
      </trkpt>
      <trkpt lat="37.08948" lon="-3.38401">
        <ele>2634.4</ele>
        <time>2021-08-06 19:36:40</time>
      </trkpt>
      <trkpt lat="37.08949" lon="-3.38402">
        <ele>2634.6</ele>
        <time>2021-08-06 19:36:41</time>
      </trkpt>
      <trkpt lat="37.0895" lon="-3.38402">
        <ele>2634.6</ele>
        <time>2021-08-06 19:36:42</time>
      </trkpt>
      <trkpt lat="37.0895" lon="-3.38402">
        <ele>2634.6</ele>
        <time>2021-08-06 19:36:43</time>
      </trkpt>
      <trkpt lat="37.08951" lon="-3.38402">
        <ele>2634.8</ele>
        <time>2021-08-06 19:36:44</time>
      </trkpt>
      <trkpt lat="37.08952" lon="-3.38403">
        <ele>2634.6</ele>
        <time>2021-08-06 19:36:45</time>
      </trkpt>
      <trkpt lat="37.08953" lon="-3.38404">
        <ele>2634</ele>
        <time>2021-08-06 19:36:46</time>
      </trkpt>
      <trkpt lat="37.08954" lon="-3.38404">
        <ele>2633.6</ele>
        <time>2021-08-06 19:36:47</time>
      </trkpt>
      <trkpt lat="37.08955" lon="-3.38404">
        <ele>2633.4</ele>
        <time>2021-08-06 19:36:48</time>
      </trkpt>
      <trkpt lat="37.08956" lon="-3.38404">
        <ele>2633.4</ele>
        <time>2021-08-06 19:36:49</time>
      </trkpt>
      <trkpt lat="37.08957" lon="-3.38405">
        <ele>2633.4</ele>
        <time>2021-08-06 19:36:50</time>
      </trkpt>
      <trkpt lat="37.08957" lon="-3.38405">
        <ele>2633.4</ele>
        <time>2021-08-06 19:36:51</time>
      </trkpt>
      <trkpt lat="37.08958" lon="-3.38406">
        <ele>2633.4</ele>
        <time>2021-08-06 19:36:52</time>
      </trkpt>
      <trkpt lat="37.08959" lon="-3.38407">
        <ele>2632.8</ele>
        <time>2021-08-06 19:36:53</time>
      </trkpt>
      <trkpt lat="37.0896" lon="-3.38407">
        <ele>2632.6</ele>
        <time>2021-08-06 19:36:54</time>
      </trkpt>
      <trkpt lat="37.08961" lon="-3.38408">
        <ele>2632.4</ele>
        <time>2021-08-06 19:36:55</time>
      </trkpt>
      <trkpt lat="37.08961" lon="-3.38409">
        <ele>2632.4</ele>
        <time>2021-08-06 19:36:56</time>
      </trkpt>
      <trkpt lat="37.08962" lon="-3.38409">
        <ele>2632.2</ele>
        <time>2021-08-06 19:36:57</time>
      </trkpt>
      <trkpt lat="37.08963" lon="-3.38409">
        <ele>2632.2</ele>
        <time>2021-08-06 19:36:58</time>
      </trkpt>
      <trkpt lat="37.08964" lon="-3.3841">
        <ele>2632.2</ele>
        <time>2021-08-06 19:36:59</time>
      </trkpt>
      <trkpt lat="37.08965" lon="-3.3841">
        <ele>2632.2</ele>
        <time>2021-08-06 19:37:00</time>
      </trkpt>
      <trkpt lat="37.08966" lon="-3.3841">
        <ele>2632.2</ele>
        <time>2021-08-06 19:37:01</time>
      </trkpt>
      <trkpt lat="37.08966" lon="-3.38411">
        <ele>2631.8</ele>
        <time>2021-08-06 19:37:02</time>
      </trkpt>
      <trkpt lat="37.08967" lon="-3.38411">
        <ele>2631.6</ele>
        <time>2021-08-06 19:37:03</time>
      </trkpt>
      <trkpt lat="37.08968" lon="-3.38411">
        <ele>2631</ele>
        <time>2021-08-06 19:37:04</time>
      </trkpt>
      <trkpt lat="37.08969" lon="-3.38411">
        <ele>2630.8</ele>
        <time>2021-08-06 19:37:05</time>
      </trkpt>
      <trkpt lat="37.0897" lon="-3.38412">
        <ele>2631</ele>
        <time>2021-08-06 19:37:06</time>
      </trkpt>
      <trkpt lat="37.08971" lon="-3.38412">
        <ele>2630.8</ele>
        <time>2021-08-06 19:37:07</time>
      </trkpt>
      <trkpt lat="37.08972" lon="-3.38413">
        <ele>2630.8</ele>
        <time>2021-08-06 19:37:08</time>
      </trkpt>
      <trkpt lat="37.08972" lon="-3.38413">
        <ele>2630.6</ele>
        <time>2021-08-06 19:37:09</time>
      </trkpt>
      <trkpt lat="37.08973" lon="-3.38413">
        <ele>2630.6</ele>
        <time>2021-08-06 19:37:10</time>
      </trkpt>
      <trkpt lat="37.08974" lon="-3.38414">
        <ele>2630.8</ele>
        <time>2021-08-06 19:37:11</time>
      </trkpt>
      <trkpt lat="37.08975" lon="-3.38415">
        <ele>2631</ele>
        <time>2021-08-06 19:37:12</time>
      </trkpt>
      <trkpt lat="37.08975" lon="-3.38415">
        <ele>2630.8</ele>
        <time>2021-08-06 19:37:13</time>
      </trkpt>
      <trkpt lat="37.08976" lon="-3.38415">
        <ele>2630.8</ele>
        <time>2021-08-06 19:37:14</time>
      </trkpt>
      <trkpt lat="37.08977" lon="-3.38416">
        <ele>2631</ele>
        <time>2021-08-06 19:37:15</time>
      </trkpt>
      <trkpt lat="37.08978" lon="-3.38416">
        <ele>2631.2</ele>
        <time>2021-08-06 19:37:16</time>
      </trkpt>
      <trkpt lat="37.08979" lon="-3.38416">
        <ele>2631</ele>
        <time>2021-08-06 19:37:17</time>
      </trkpt>
      <trkpt lat="37.0898" lon="-3.38417">
        <ele>2630.8</ele>
        <time>2021-08-06 19:37:18</time>
      </trkpt>
      <trkpt lat="37.08981" lon="-3.38417">
        <ele>2630.8</ele>
        <time>2021-08-06 19:37:19</time>
      </trkpt>
      <trkpt lat="37.08982" lon="-3.38418">
        <ele>2630</ele>
        <time>2021-08-06 19:37:20</time>
      </trkpt>
      <trkpt lat="37.08983" lon="-3.38419">
        <ele>2629.6</ele>
        <time>2021-08-06 19:37:21</time>
      </trkpt>
      <trkpt lat="37.08984" lon="-3.38419">
        <ele>2629.4</ele>
        <time>2021-08-06 19:37:22</time>
      </trkpt>
      <trkpt lat="37.08985" lon="-3.3842">
        <ele>2629.2</ele>
        <time>2021-08-06 19:37:23</time>
      </trkpt>
      <trkpt lat="37.08985" lon="-3.3842">
        <ele>2629.2</ele>
        <time>2021-08-06 19:37:24</time>
      </trkpt>
      <trkpt lat="37.08986" lon="-3.38421">
        <ele>2629.2</ele>
        <time>2021-08-06 19:37:25</time>
      </trkpt>
      <trkpt lat="37.08987" lon="-3.38422">
        <ele>2629.2</ele>
        <time>2021-08-06 19:37:26</time>
      </trkpt>
      <trkpt lat="37.08987" lon="-3.38422">
        <ele>2629.2</ele>
        <time>2021-08-06 19:37:27</time>
      </trkpt>
      <trkpt lat="37.08988" lon="-3.38423">
        <ele>2629.2</ele>
        <time>2021-08-06 19:37:28</time>
      </trkpt>
      <trkpt lat="37.08989" lon="-3.38423">
        <ele>2629.4</ele>
        <time>2021-08-06 19:37:29</time>
      </trkpt>
      <trkpt lat="37.0899" lon="-3.38423">
        <ele>2629.4</ele>
        <time>2021-08-06 19:37:30</time>
      </trkpt>
      <trkpt lat="37.08991" lon="-3.38424">
        <ele>2629.6</ele>
        <time>2021-08-06 19:37:31</time>
      </trkpt>
      <trkpt lat="37.08992" lon="-3.38424">
        <ele>2629.6</ele>
        <time>2021-08-06 19:37:32</time>
      </trkpt>
      <trkpt lat="37.08993" lon="-3.38424">
        <ele>2629.4</ele>
        <time>2021-08-06 19:37:33</time>
      </trkpt>
      <trkpt lat="37.08994" lon="-3.38424">
        <ele>2629.4</ele>
        <time>2021-08-06 19:37:34</time>
      </trkpt>
      <trkpt lat="37.08994" lon="-3.38424">
        <ele>2629.6</ele>
        <time>2021-08-06 19:37:35</time>
      </trkpt>
      <trkpt lat="37.08995" lon="-3.38425">
        <ele>2629.6</ele>
        <time>2021-08-06 19:37:36</time>
      </trkpt>
      <trkpt lat="37.08997" lon="-3.38425">
        <ele>2629.4</ele>
        <time>2021-08-06 19:37:37</time>
      </trkpt>
      <trkpt lat="37.08998" lon="-3.38426">
        <ele>2629.4</ele>
        <time>2021-08-06 19:37:38</time>
      </trkpt>
      <trkpt lat="37.08999" lon="-3.38426">
        <ele>2629.2</ele>
        <time>2021-08-06 19:37:39</time>
      </trkpt>
      <trkpt lat="37.09" lon="-3.38426">
        <ele>2629</ele>
        <time>2021-08-06 19:37:40</time>
      </trkpt>
      <trkpt lat="37.09001" lon="-3.38427">
        <ele>2628.8</ele>
        <time>2021-08-06 19:37:41</time>
      </trkpt>
      <trkpt lat="37.09002" lon="-3.38427">
        <ele>2628.8</ele>
        <time>2021-08-06 19:37:42</time>
      </trkpt>
      <trkpt lat="37.09003" lon="-3.38427">
        <ele>2628.8</ele>
        <time>2021-08-06 19:37:43</time>
      </trkpt>
      <trkpt lat="37.09004" lon="-3.38427">
        <ele>2628.6</ele>
        <time>2021-08-06 19:37:44</time>
      </trkpt>
      <trkpt lat="37.09005" lon="-3.38427">
        <ele>2628</ele>
        <time>2021-08-06 19:37:45</time>
      </trkpt>
      <trkpt lat="37.09006" lon="-3.38428">
        <ele>2627.8</ele>
        <time>2021-08-06 19:37:46</time>
      </trkpt>
      <trkpt lat="37.09007" lon="-3.38427">
        <ele>2627.8</ele>
        <time>2021-08-06 19:37:47</time>
      </trkpt>
      <trkpt lat="37.09008" lon="-3.38427">
        <ele>2627.6</ele>
        <time>2021-08-06 19:37:48</time>
      </trkpt>
      <trkpt lat="37.09008" lon="-3.38427">
        <ele>2627.6</ele>
        <time>2021-08-06 19:37:49</time>
      </trkpt>
      <trkpt lat="37.09009" lon="-3.38427">
        <ele>2627.6</ele>
        <time>2021-08-06 19:37:50</time>
      </trkpt>
      <trkpt lat="37.0901" lon="-3.38426">
        <ele>2627.6</ele>
        <time>2021-08-06 19:37:51</time>
      </trkpt>
      <trkpt lat="37.09011" lon="-3.38426">
        <ele>2627.8</ele>
        <time>2021-08-06 19:37:52</time>
      </trkpt>
      <trkpt lat="37.09011" lon="-3.38426">
        <ele>2627.6</ele>
        <time>2021-08-06 19:37:53</time>
      </trkpt>
      <trkpt lat="37.09012" lon="-3.38426">
        <ele>2627.6</ele>
        <time>2021-08-06 19:37:54</time>
      </trkpt>
      <trkpt lat="37.09013" lon="-3.38425">
        <ele>2627.4</ele>
        <time>2021-08-06 19:37:55</time>
      </trkpt>
      <trkpt lat="37.09014" lon="-3.38425">
        <ele>2627.2</ele>
        <time>2021-08-06 19:37:56</time>
      </trkpt>
      <trkpt lat="37.09014" lon="-3.38425">
        <ele>2627</ele>
        <time>2021-08-06 19:37:57</time>
      </trkpt>
      <trkpt lat="37.09015" lon="-3.38425">
        <ele>2626.8</ele>
        <time>2021-08-06 19:37:58</time>
      </trkpt>
      <trkpt lat="37.09016" lon="-3.38425">
        <ele>2626.8</ele>
        <time>2021-08-06 19:37:59</time>
      </trkpt>
      <trkpt lat="37.09017" lon="-3.38425">
        <ele>2626.8</ele>
        <time>2021-08-06 19:38:00</time>
      </trkpt>
      <trkpt lat="37.09018" lon="-3.38425">
        <ele>2626.8</ele>
        <time>2021-08-06 19:38:01</time>
      </trkpt>
      <trkpt lat="37.09019" lon="-3.38425">
        <ele>2626.6</ele>
        <time>2021-08-06 19:38:02</time>
      </trkpt>
      <trkpt lat="37.09021" lon="-3.38425">
        <ele>2626.4</ele>
        <time>2021-08-06 19:38:03</time>
      </trkpt>
      <trkpt lat="37.09022" lon="-3.38425">
        <ele>2626.4</ele>
        <time>2021-08-06 19:38:04</time>
      </trkpt>
      <trkpt lat="37.09023" lon="-3.38425">
        <ele>2626.2</ele>
        <time>2021-08-06 19:38:05</time>
      </trkpt>
      <trkpt lat="37.09024" lon="-3.38424">
        <ele>2626.2</ele>
        <time>2021-08-06 19:38:06</time>
      </trkpt>
      <trkpt lat="37.09025" lon="-3.38424">
        <ele>2626.2</ele>
        <time>2021-08-06 19:38:07</time>
      </trkpt>
      <trkpt lat="37.09026" lon="-3.38424">
        <ele>2626.2</ele>
        <time>2021-08-06 19:38:08</time>
      </trkpt>
      <trkpt lat="37.09027" lon="-3.38423">
        <ele>2626.4</ele>
        <time>2021-08-06 19:38:09</time>
      </trkpt>
      <trkpt lat="37.09028" lon="-3.38423">
        <ele>2626.4</ele>
        <time>2021-08-06 19:38:10</time>
      </trkpt>
      <trkpt lat="37.09029" lon="-3.38423">
        <ele>2626.6</ele>
        <time>2021-08-06 19:38:11</time>
      </trkpt>
      <trkpt lat="37.0903" lon="-3.38422">
        <ele>2626.6</ele>
        <time>2021-08-06 19:38:12</time>
      </trkpt>
      <trkpt lat="37.09032" lon="-3.38422">
        <ele>2626.6</ele>
        <time>2021-08-06 19:38:13</time>
      </trkpt>
      <trkpt lat="37.09033" lon="-3.38422">
        <ele>2626.4</ele>
        <time>2021-08-06 19:38:14</time>
      </trkpt>
      <trkpt lat="37.09034" lon="-3.38422">
        <ele>2626.4</ele>
        <time>2021-08-06 19:38:15</time>
      </trkpt>
      <trkpt lat="37.09035" lon="-3.38422">
        <ele>2626.2</ele>
        <time>2021-08-06 19:38:16</time>
      </trkpt>
      <trkpt lat="37.09036" lon="-3.38422">
        <ele>2626</ele>
        <time>2021-08-06 19:38:17</time>
      </trkpt>
      <trkpt lat="37.09037" lon="-3.38422">
        <ele>2625.8</ele>
        <time>2021-08-06 19:38:18</time>
      </trkpt>
      <trkpt lat="37.09038" lon="-3.38422">
        <ele>2625.6</ele>
        <time>2021-08-06 19:38:19</time>
      </trkpt>
      <trkpt lat="37.09038" lon="-3.38422">
        <ele>2625.6</ele>
        <time>2021-08-06 19:38:20</time>
      </trkpt>
      <trkpt lat="37.09039" lon="-3.38422">
        <ele>2625.4</ele>
        <time>2021-08-06 19:38:21</time>
      </trkpt>
      <trkpt lat="37.0904" lon="-3.38421">
        <ele>2625.2</ele>
        <time>2021-08-06 19:38:22</time>
      </trkpt>
      <trkpt lat="37.09041" lon="-3.3842">
        <ele>2625</ele>
        <time>2021-08-06 19:38:23</time>
      </trkpt>
      <trkpt lat="37.09042" lon="-3.38419">
        <ele>2625</ele>
        <time>2021-08-06 19:38:24</time>
      </trkpt>
      <trkpt lat="37.09043" lon="-3.38419">
        <ele>2625</ele>
        <time>2021-08-06 19:38:25</time>
      </trkpt>
      <trkpt lat="37.09044" lon="-3.38419">
        <ele>2625</ele>
        <time>2021-08-06 19:38:26</time>
      </trkpt>
      <trkpt lat="37.09046" lon="-3.38419">
        <ele>2625</ele>
        <time>2021-08-06 19:38:27</time>
      </trkpt>
      <trkpt lat="37.09047" lon="-3.38418">
        <ele>2625</ele>
        <time>2021-08-06 19:38:28</time>
      </trkpt>
      <trkpt lat="37.09048" lon="-3.38418">
        <ele>2625</ele>
        <time>2021-08-06 19:38:29</time>
      </trkpt>
      <trkpt lat="37.09049" lon="-3.38418">
        <ele>2625</ele>
        <time>2021-08-06 19:38:30</time>
      </trkpt>
      <trkpt lat="37.09051" lon="-3.38418">
        <ele>2625</ele>
        <time>2021-08-06 19:38:31</time>
      </trkpt>
      <trkpt lat="37.09052" lon="-3.38418">
        <ele>2625</ele>
        <time>2021-08-06 19:38:32</time>
      </trkpt>
      <trkpt lat="37.09053" lon="-3.38418">
        <ele>2624.8</ele>
        <time>2021-08-06 19:38:33</time>
      </trkpt>
      <trkpt lat="37.09054" lon="-3.38418">
        <ele>2624.8</ele>
        <time>2021-08-06 19:38:34</time>
      </trkpt>
      <trkpt lat="37.09055" lon="-3.38418">
        <ele>2624.8</ele>
        <time>2021-08-06 19:38:35</time>
      </trkpt>
      <trkpt lat="37.09056" lon="-3.38419">
        <ele>2624.8</ele>
        <time>2021-08-06 19:38:36</time>
      </trkpt>
      <trkpt lat="37.09057" lon="-3.38419">
        <ele>2624.8</ele>
        <time>2021-08-06 19:38:37</time>
      </trkpt>
      <trkpt lat="37.09058" lon="-3.38419">
        <ele>2624.8</ele>
        <time>2021-08-06 19:38:38</time>
      </trkpt>
      <trkpt lat="37.09059" lon="-3.3842">
        <ele>2624.6</ele>
        <time>2021-08-06 19:38:39</time>
      </trkpt>
      <trkpt lat="37.09059" lon="-3.3842">
        <ele>2624.4</ele>
        <time>2021-08-06 19:38:40</time>
      </trkpt>
      <trkpt lat="37.0906" lon="-3.3842">
        <ele>2624</ele>
        <time>2021-08-06 19:38:41</time>
      </trkpt>
      <trkpt lat="37.09061" lon="-3.3842">
        <ele>2624</ele>
        <time>2021-08-06 19:38:42</time>
      </trkpt>
      <trkpt lat="37.09062" lon="-3.38421">
        <ele>2623.8</ele>
        <time>2021-08-06 19:38:43</time>
      </trkpt>
      <trkpt lat="37.09063" lon="-3.38422">
        <ele>2623.8</ele>
        <time>2021-08-06 19:38:44</time>
      </trkpt>
      <trkpt lat="37.09064" lon="-3.38422">
        <ele>2623.8</ele>
        <time>2021-08-06 19:38:45</time>
      </trkpt>
      <trkpt lat="37.09065" lon="-3.38423">
        <ele>2623.8</ele>
        <time>2021-08-06 19:38:46</time>
      </trkpt>
      <trkpt lat="37.09066" lon="-3.38423">
        <ele>2623.8</ele>
        <time>2021-08-06 19:38:47</time>
      </trkpt>
      <trkpt lat="37.09067" lon="-3.38423">
        <ele>2623.8</ele>
        <time>2021-08-06 19:38:48</time>
      </trkpt>
      <trkpt lat="37.09068" lon="-3.38423">
        <ele>2623.6</ele>
        <time>2021-08-06 19:38:49</time>
      </trkpt>
      <trkpt lat="37.09069" lon="-3.38423">
        <ele>2623.6</ele>
        <time>2021-08-06 19:38:50</time>
      </trkpt>
      <trkpt lat="37.0907" lon="-3.38424">
        <ele>2623.4</ele>
        <time>2021-08-06 19:38:51</time>
      </trkpt>
      <trkpt lat="37.09071" lon="-3.38424">
        <ele>2623.4</ele>
        <time>2021-08-06 19:38:52</time>
      </trkpt>
      <trkpt lat="37.09072" lon="-3.38424">
        <ele>2623.4</ele>
        <time>2021-08-06 19:38:53</time>
      </trkpt>
      <trkpt lat="37.09072" lon="-3.38424">
        <ele>2623.4</ele>
        <time>2021-08-06 19:38:54</time>
      </trkpt>
      <trkpt lat="37.09073" lon="-3.38425">
        <ele>2623.2</ele>
        <time>2021-08-06 19:38:55</time>
      </trkpt>
      <trkpt lat="37.09074" lon="-3.38425">
        <ele>2623.2</ele>
        <time>2021-08-06 19:38:56</time>
      </trkpt>
      <trkpt lat="37.09075" lon="-3.38424">
        <ele>2623</ele>
        <time>2021-08-06 19:38:57</time>
      </trkpt>
      <trkpt lat="37.09076" lon="-3.38424">
        <ele>2622.8</ele>
        <time>2021-08-06 19:38:58</time>
      </trkpt>
      <trkpt lat="37.09077" lon="-3.38424">
        <ele>2622.6</ele>
        <time>2021-08-06 19:38:59</time>
      </trkpt>
      <trkpt lat="37.09078" lon="-3.38425">
        <ele>2622.6</ele>
        <time>2021-08-06 19:39:00</time>
      </trkpt>
      <trkpt lat="37.09079" lon="-3.38425">
        <ele>2622.4</ele>
        <time>2021-08-06 19:39:01</time>
      </trkpt>
      <trkpt lat="37.0908" lon="-3.38425">
        <ele>2622.4</ele>
        <time>2021-08-06 19:39:02</time>
      </trkpt>
      <trkpt lat="37.09081" lon="-3.38426">
        <ele>2622.2</ele>
        <time>2021-08-06 19:39:03</time>
      </trkpt>
      <trkpt lat="37.09082" lon="-3.38426">
        <ele>2621.8</ele>
        <time>2021-08-06 19:39:04</time>
      </trkpt>
      <trkpt lat="37.09083" lon="-3.38426">
        <ele>2621.4</ele>
        <time>2021-08-06 19:39:05</time>
      </trkpt>
      <trkpt lat="37.09083" lon="-3.38426">
        <ele>2621.2</ele>
        <time>2021-08-06 19:39:06</time>
      </trkpt>
      <trkpt lat="37.09084" lon="-3.38426">
        <ele>2621.2</ele>
        <time>2021-08-06 19:39:07</time>
      </trkpt>
      <trkpt lat="37.09084" lon="-3.38426">
        <ele>2621.2</ele>
        <time>2021-08-06 19:39:08</time>
      </trkpt>
      <trkpt lat="37.09085" lon="-3.38426">
        <ele>2621.2</ele>
        <time>2021-08-06 19:39:09</time>
      </trkpt>
      <trkpt lat="37.09085" lon="-3.38426">
        <ele>2621.2</ele>
        <time>2021-08-06 19:39:10</time>
      </trkpt>
      <trkpt lat="37.09085" lon="-3.38426">
        <ele>2621.2</ele>
        <time>2021-08-06 19:39:11</time>
      </trkpt>
      <trkpt lat="37.09085" lon="-3.38426">
        <ele>2621.2</ele>
        <time>2021-08-06 19:39:12</time>
      </trkpt>
      <trkpt lat="37.09086" lon="-3.38426">
        <ele>2621</ele>
        <time>2021-08-06 19:39:13</time>
      </trkpt>
      <trkpt lat="37.09086" lon="-3.38426">
        <ele>2621</ele>
        <time>2021-08-06 19:39:14</time>
      </trkpt>
      <trkpt lat="37.09087" lon="-3.38428">
        <ele>2620.8</ele>
        <time>2021-08-06 19:39:15</time>
      </trkpt>
      <trkpt lat="37.09087" lon="-3.38429">
        <ele>2620.8</ele>
        <time>2021-08-06 19:39:16</time>
      </trkpt>
      <trkpt lat="37.09088" lon="-3.38429">
        <ele>2620.6</ele>
        <time>2021-08-06 19:39:17</time>
      </trkpt>
      <trkpt lat="37.09089" lon="-3.38429">
        <ele>2620.8</ele>
        <time>2021-08-06 19:39:18</time>
      </trkpt>
      <trkpt lat="37.0909" lon="-3.38429">
        <ele>2620.8</ele>
        <time>2021-08-06 19:39:19</time>
      </trkpt>
      <trkpt lat="37.0909" lon="-3.38429">
        <ele>2620.6</ele>
        <time>2021-08-06 19:39:20</time>
      </trkpt>
      <trkpt lat="37.09091" lon="-3.38429">
        <ele>2620</ele>
        <time>2021-08-06 19:39:21</time>
      </trkpt>
      <trkpt lat="37.09092" lon="-3.38428">
        <ele>2619.4</ele>
        <time>2021-08-06 19:39:22</time>
      </trkpt>
      <trkpt lat="37.09092" lon="-3.38428">
        <ele>2619.2</ele>
        <time>2021-08-06 19:39:23</time>
      </trkpt>
      <trkpt lat="37.09093" lon="-3.38428">
        <ele>2619</ele>
        <time>2021-08-06 19:39:24</time>
      </trkpt>
      <trkpt lat="37.09094" lon="-3.38429">
        <ele>2619</ele>
        <time>2021-08-06 19:39:25</time>
      </trkpt>
      <trkpt lat="37.09095" lon="-3.38429">
        <ele>2618.8</ele>
        <time>2021-08-06 19:39:26</time>
      </trkpt>
      <trkpt lat="37.09095" lon="-3.38429">
        <ele>2618.8</ele>
        <time>2021-08-06 19:39:27</time>
      </trkpt>
      <trkpt lat="37.09096" lon="-3.38429">
        <ele>2618.8</ele>
        <time>2021-08-06 19:39:28</time>
      </trkpt>
      <trkpt lat="37.09097" lon="-3.38428">
        <ele>2618.8</ele>
        <time>2021-08-06 19:39:29</time>
      </trkpt>
      <trkpt lat="37.09098" lon="-3.38428">
        <ele>2618.8</ele>
        <time>2021-08-06 19:39:30</time>
      </trkpt>
      <trkpt lat="37.09099" lon="-3.38427">
        <ele>2619</ele>
        <time>2021-08-06 19:39:31</time>
      </trkpt>
      <trkpt lat="37.091" lon="-3.38427">
        <ele>2619</ele>
        <time>2021-08-06 19:39:32</time>
      </trkpt>
      <trkpt lat="37.09101" lon="-3.38427">
        <ele>2619</ele>
        <time>2021-08-06 19:39:33</time>
      </trkpt>
      <trkpt lat="37.09102" lon="-3.38427">
        <ele>2618.8</ele>
        <time>2021-08-06 19:39:34</time>
      </trkpt>
      <trkpt lat="37.09102" lon="-3.38426">
        <ele>2618.8</ele>
        <time>2021-08-06 19:39:35</time>
      </trkpt>
      <trkpt lat="37.09103" lon="-3.38426">
        <ele>2618.8</ele>
        <time>2021-08-06 19:39:36</time>
      </trkpt>
      <trkpt lat="37.09104" lon="-3.38426">
        <ele>2618.8</ele>
        <time>2021-08-06 19:39:37</time>
      </trkpt>
      <trkpt lat="37.09105" lon="-3.38425">
        <ele>2618.4</ele>
        <time>2021-08-06 19:39:38</time>
      </trkpt>
      <trkpt lat="37.09106" lon="-3.38426">
        <ele>2618.6</ele>
        <time>2021-08-06 19:39:39</time>
      </trkpt>
      <trkpt lat="37.09106" lon="-3.38426">
        <ele>2618.6</ele>
        <time>2021-08-06 19:39:40</time>
      </trkpt>
      <trkpt lat="37.09107" lon="-3.38427">
        <ele>2618.8</ele>
        <time>2021-08-06 19:39:41</time>
      </trkpt>
      <trkpt lat="37.09108" lon="-3.38428">
        <ele>2618.8</ele>
        <time>2021-08-06 19:39:42</time>
      </trkpt>
      <trkpt lat="37.09109" lon="-3.38428">
        <ele>2618.4</ele>
        <time>2021-08-06 19:39:43</time>
      </trkpt>
      <trkpt lat="37.09111" lon="-3.38429">
        <ele>2618.6</ele>
        <time>2021-08-06 19:39:44</time>
      </trkpt>
      <trkpt lat="37.09112" lon="-3.3843">
        <ele>2618.6</ele>
        <time>2021-08-06 19:39:45</time>
      </trkpt>
      <trkpt lat="37.09113" lon="-3.3843">
        <ele>2618.4</ele>
        <time>2021-08-06 19:39:46</time>
      </trkpt>
      <trkpt lat="37.09114" lon="-3.38431">
        <ele>2618.2</ele>
        <time>2021-08-06 19:39:47</time>
      </trkpt>
      <trkpt lat="37.09115" lon="-3.38431">
        <ele>2618</ele>
        <time>2021-08-06 19:39:48</time>
      </trkpt>
      <trkpt lat="37.09116" lon="-3.38432">
        <ele>2617.8</ele>
        <time>2021-08-06 19:39:49</time>
      </trkpt>
      <trkpt lat="37.09117" lon="-3.38433">
        <ele>2617.6</ele>
        <time>2021-08-06 19:39:50</time>
      </trkpt>
      <trkpt lat="37.09118" lon="-3.38434">
        <ele>2617.4</ele>
        <time>2021-08-06 19:39:51</time>
      </trkpt>
      <trkpt lat="37.09119" lon="-3.38435">
        <ele>2617</ele>
        <time>2021-08-06 19:39:52</time>
      </trkpt>
      <trkpt lat="37.09119" lon="-3.38435">
        <ele>2616.8</ele>
        <time>2021-08-06 19:39:53</time>
      </trkpt>
      <trkpt lat="37.0912" lon="-3.38436">
        <ele>2616.8</ele>
        <time>2021-08-06 19:39:54</time>
      </trkpt>
      <trkpt lat="37.09122" lon="-3.38434">
        <ele>2617</ele>
        <time>2021-08-06 19:39:55</time>
      </trkpt>
      <trkpt lat="37.09123" lon="-3.38433">
        <ele>2617.2</ele>
        <time>2021-08-06 19:39:56</time>
      </trkpt>
      <trkpt lat="37.09123" lon="-3.38434">
        <ele>2617.2</ele>
        <time>2021-08-06 19:39:57</time>
      </trkpt>
      <trkpt lat="37.09123" lon="-3.38434">
        <ele>2617.4</ele>
        <time>2021-08-06 19:39:58</time>
      </trkpt>
      <trkpt lat="37.09123" lon="-3.38434">
        <ele>2617.4</ele>
        <time>2021-08-06 19:39:59</time>
      </trkpt>
      <trkpt lat="37.09124" lon="-3.38435">
        <ele>2617.4</ele>
        <time>2021-08-06 19:40:00</time>
      </trkpt>
      <trkpt lat="37.09125" lon="-3.38436">
        <ele>2617.2</ele>
        <time>2021-08-06 19:40:01</time>
      </trkpt>
      <trkpt lat="37.09125" lon="-3.38436">
        <ele>2617.2</ele>
        <time>2021-08-06 19:40:02</time>
      </trkpt>
      <trkpt lat="37.09126" lon="-3.38437">
        <ele>2617.2</ele>
        <time>2021-08-06 19:40:03</time>
      </trkpt>
      <trkpt lat="37.09127" lon="-3.38437">
        <ele>2617</ele>
        <time>2021-08-06 19:40:04</time>
      </trkpt>
      <trkpt lat="37.09128" lon="-3.38437">
        <ele>2617</ele>
        <time>2021-08-06 19:40:05</time>
      </trkpt>
      <trkpt lat="37.09128" lon="-3.38438">
        <ele>2617</ele>
        <time>2021-08-06 19:40:06</time>
      </trkpt>
      <trkpt lat="37.09129" lon="-3.38439">
        <ele>2617.2</ele>
        <time>2021-08-06 19:40:07</time>
      </trkpt>
      <trkpt lat="37.0913" lon="-3.38439">
        <ele>2617.2</ele>
        <time>2021-08-06 19:40:08</time>
      </trkpt>
      <trkpt lat="37.0913" lon="-3.3844">
        <ele>2617</ele>
        <time>2021-08-06 19:40:09</time>
      </trkpt>
      <trkpt lat="37.09131" lon="-3.3844">
        <ele>2616.8</ele>
        <time>2021-08-06 19:40:10</time>
      </trkpt>
      <trkpt lat="37.09131" lon="-3.3844">
        <ele>2616.8</ele>
        <time>2021-08-06 19:40:11</time>
      </trkpt>
      <trkpt lat="37.09132" lon="-3.38441">
        <ele>2615.8</ele>
        <time>2021-08-06 19:40:12</time>
      </trkpt>
      <trkpt lat="37.09132" lon="-3.38441">
        <ele>2615.4</ele>
        <time>2021-08-06 19:40:13</time>
      </trkpt>
      <trkpt lat="37.09133" lon="-3.38442">
        <ele>2615</ele>
        <time>2021-08-06 19:40:14</time>
      </trkpt>
      <trkpt lat="37.09133" lon="-3.38442">
        <ele>2614.4</ele>
        <time>2021-08-06 19:40:15</time>
      </trkpt>
      <trkpt lat="37.09134" lon="-3.38442">
        <ele>2614.2</ele>
        <time>2021-08-06 19:40:16</time>
      </trkpt>
      <trkpt lat="37.09135" lon="-3.38442">
        <ele>2614.4</ele>
        <time>2021-08-06 19:40:17</time>
      </trkpt>
      <trkpt lat="37.09135" lon="-3.38441">
        <ele>2614.6</ele>
        <time>2021-08-06 19:40:18</time>
      </trkpt>
      <trkpt lat="37.09135" lon="-3.38441">
        <ele>2615.4</ele>
        <time>2021-08-06 19:40:19</time>
      </trkpt>
      <trkpt lat="37.09136" lon="-3.38442">
        <ele>2615.8</ele>
        <time>2021-08-06 19:40:20</time>
      </trkpt>
      <trkpt lat="37.09137" lon="-3.38442">
        <ele>2616</ele>
        <time>2021-08-06 19:40:21</time>
      </trkpt>
      <trkpt lat="37.09137" lon="-3.38442">
        <ele>2616.2</ele>
        <time>2021-08-06 19:40:22</time>
      </trkpt>
      <trkpt lat="37.09138" lon="-3.38444">
        <ele>2615.4</ele>
        <time>2021-08-06 19:40:23</time>
      </trkpt>
      <trkpt lat="37.09139" lon="-3.38444">
        <ele>2615</ele>
        <time>2021-08-06 19:40:24</time>
      </trkpt>
      <trkpt lat="37.0914" lon="-3.38445">
        <ele>2614.6</ele>
        <time>2021-08-06 19:40:25</time>
      </trkpt>
      <trkpt lat="37.0914" lon="-3.38446">
        <ele>2614</ele>
        <time>2021-08-06 19:40:26</time>
      </trkpt>
      <trkpt lat="37.0914" lon="-3.38446">
        <ele>2613.8</ele>
        <time>2021-08-06 19:40:27</time>
      </trkpt>
      <trkpt lat="37.09141" lon="-3.38446">
        <ele>2613.2</ele>
        <time>2021-08-06 19:40:28</time>
      </trkpt>
      <trkpt lat="37.09141" lon="-3.38447">
        <ele>2612.8</ele>
        <time>2021-08-06 19:40:29</time>
      </trkpt>
      <trkpt lat="37.09142" lon="-3.38448">
        <ele>2612.6</ele>
        <time>2021-08-06 19:40:30</time>
      </trkpt>
      <trkpt lat="37.09142" lon="-3.38448">
        <ele>2612.4</ele>
        <time>2021-08-06 19:40:31</time>
      </trkpt>
      <trkpt lat="37.09143" lon="-3.38449">
        <ele>2612</ele>
        <time>2021-08-06 19:40:32</time>
      </trkpt>
      <trkpt lat="37.09143" lon="-3.38449">
        <ele>2611.8</ele>
        <time>2021-08-06 19:40:33</time>
      </trkpt>
      <trkpt lat="37.09144" lon="-3.3845">
        <ele>2611.8</ele>
        <time>2021-08-06 19:40:34</time>
      </trkpt>
      <trkpt lat="37.09144" lon="-3.38451">
        <ele>2611.6</ele>
        <time>2021-08-06 19:40:35</time>
      </trkpt>
      <trkpt lat="37.09145" lon="-3.38451">
        <ele>2611.6</ele>
        <time>2021-08-06 19:40:36</time>
      </trkpt>
      <trkpt lat="37.09146" lon="-3.38452">
        <ele>2611.6</ele>
        <time>2021-08-06 19:40:37</time>
      </trkpt>
      <trkpt lat="37.09146" lon="-3.38452">
        <ele>2611.6</ele>
        <time>2021-08-06 19:40:38</time>
      </trkpt>
      <trkpt lat="37.09147" lon="-3.38453">
        <ele>2611.4</ele>
        <time>2021-08-06 19:40:39</time>
      </trkpt>
      <trkpt lat="37.09148" lon="-3.38453">
        <ele>2611.2</ele>
        <time>2021-08-06 19:40:40</time>
      </trkpt>
      <trkpt lat="37.09148" lon="-3.38453">
        <ele>2611.2</ele>
        <time>2021-08-06 19:40:41</time>
      </trkpt>
      <trkpt lat="37.09148" lon="-3.38453">
        <ele>2611.4</ele>
        <time>2021-08-06 19:40:42</time>
      </trkpt>
      <trkpt lat="37.09149" lon="-3.38453">
        <ele>2611.6</ele>
        <time>2021-08-06 19:40:43</time>
      </trkpt>
      <trkpt lat="37.09149" lon="-3.38452">
        <ele>2612</ele>
        <time>2021-08-06 19:40:44</time>
      </trkpt>
      <trkpt lat="37.09149" lon="-3.38452">
        <ele>2612</ele>
        <time>2021-08-06 19:40:45</time>
      </trkpt>
      <trkpt lat="37.09149" lon="-3.38451">
        <ele>2612.2</ele>
        <time>2021-08-06 19:40:46</time>
      </trkpt>
      <trkpt lat="37.09149" lon="-3.38451">
        <ele>2612.2</ele>
        <time>2021-08-06 19:40:47</time>
      </trkpt>
      <trkpt lat="37.09149" lon="-3.38451">
        <ele>2612.2</ele>
        <time>2021-08-06 19:40:48</time>
      </trkpt>
      <trkpt lat="37.0915" lon="-3.38452">
        <ele>2612</ele>
        <time>2021-08-06 19:40:49</time>
      </trkpt>
      <trkpt lat="37.09151" lon="-3.38452">
        <ele>2611.8</ele>
        <time>2021-08-06 19:40:50</time>
      </trkpt>
      <trkpt lat="37.09151" lon="-3.38452">
        <ele>2611.2</ele>
        <time>2021-08-06 19:40:51</time>
      </trkpt>
      <trkpt lat="37.09152" lon="-3.38453">
        <ele>2610.4</ele>
        <time>2021-08-06 19:40:52</time>
      </trkpt>
      <trkpt lat="37.09153" lon="-3.38453">
        <ele>2610</ele>
        <time>2021-08-06 19:40:53</time>
      </trkpt>
      <trkpt lat="37.09153" lon="-3.38453">
        <ele>2609.8</ele>
        <time>2021-08-06 19:40:54</time>
      </trkpt>
      <trkpt lat="37.09154" lon="-3.38453">
        <ele>2609.8</ele>
        <time>2021-08-06 19:40:55</time>
      </trkpt>
      <trkpt lat="37.09155" lon="-3.38453">
        <ele>2609.8</ele>
        <time>2021-08-06 19:40:56</time>
      </trkpt>
      <trkpt lat="37.09155" lon="-3.38453">
        <ele>2609.6</ele>
        <time>2021-08-06 19:40:57</time>
      </trkpt>
      <trkpt lat="37.09156" lon="-3.38453">
        <ele>2609.6</ele>
        <time>2021-08-06 19:40:58</time>
      </trkpt>
      <trkpt lat="37.09156" lon="-3.38454">
        <ele>2609.6</ele>
        <time>2021-08-06 19:40:59</time>
      </trkpt>
      <trkpt lat="37.09157" lon="-3.38455">
        <ele>2609.4</ele>
        <time>2021-08-06 19:41:00</time>
      </trkpt>
      <trkpt lat="37.09158" lon="-3.38455">
        <ele>2609.4</ele>
        <time>2021-08-06 19:41:01</time>
      </trkpt>
      <trkpt lat="37.09159" lon="-3.38455">
        <ele>2609.2</ele>
        <time>2021-08-06 19:41:02</time>
      </trkpt>
      <trkpt lat="37.09159" lon="-3.38456">
        <ele>2608.8</ele>
        <time>2021-08-06 19:41:03</time>
      </trkpt>
      <trkpt lat="37.0916" lon="-3.38456">
        <ele>2608.6</ele>
        <time>2021-08-06 19:41:04</time>
      </trkpt>
      <trkpt lat="37.09161" lon="-3.38456">
        <ele>2608.6</ele>
        <time>2021-08-06 19:41:05</time>
      </trkpt>
      <trkpt lat="37.09162" lon="-3.38457">
        <ele>2608.4</ele>
        <time>2021-08-06 19:41:06</time>
      </trkpt>
      <trkpt lat="37.09163" lon="-3.38457">
        <ele>2608.4</ele>
        <time>2021-08-06 19:41:07</time>
      </trkpt>
      <trkpt lat="37.09164" lon="-3.38457">
        <ele>2608.4</ele>
        <time>2021-08-06 19:41:08</time>
      </trkpt>
      <trkpt lat="37.09164" lon="-3.38457">
        <ele>2608</ele>
        <time>2021-08-06 19:41:09</time>
      </trkpt>
      <trkpt lat="37.09165" lon="-3.38458">
        <ele>2608</ele>
        <time>2021-08-06 19:41:10</time>
      </trkpt>
      <trkpt lat="37.09166" lon="-3.38458">
        <ele>2607.8</ele>
        <time>2021-08-06 19:41:11</time>
      </trkpt>
      <trkpt lat="37.09167" lon="-3.38459">
        <ele>2607.8</ele>
        <time>2021-08-06 19:41:12</time>
      </trkpt>
      <trkpt lat="37.09168" lon="-3.38459">
        <ele>2607.6</ele>
        <time>2021-08-06 19:41:13</time>
      </trkpt>
      <trkpt lat="37.09169" lon="-3.38459">
        <ele>2607.6</ele>
        <time>2021-08-06 19:41:14</time>
      </trkpt>
      <trkpt lat="37.0917" lon="-3.38459">
        <ele>2607.6</ele>
        <time>2021-08-06 19:41:15</time>
      </trkpt>
      <trkpt lat="37.0917" lon="-3.3846">
        <ele>2607.4</ele>
        <time>2021-08-06 19:41:16</time>
      </trkpt>
      <trkpt lat="37.09171" lon="-3.3846">
        <ele>2607.4</ele>
        <time>2021-08-06 19:41:17</time>
      </trkpt>
      <trkpt lat="37.09172" lon="-3.38461">
        <ele>2607.2</ele>
        <time>2021-08-06 19:41:18</time>
      </trkpt>
      <trkpt lat="37.09172" lon="-3.38462">
        <ele>2607.2</ele>
        <time>2021-08-06 19:41:19</time>
      </trkpt>
      <trkpt lat="37.09173" lon="-3.38462">
        <ele>2607</ele>
        <time>2021-08-06 19:41:20</time>
      </trkpt>
      <trkpt lat="37.09174" lon="-3.38463">
        <ele>2607</ele>
        <time>2021-08-06 19:41:21</time>
      </trkpt>
      <trkpt lat="37.09174" lon="-3.38463">
        <ele>2606.8</ele>
        <time>2021-08-06 19:41:22</time>
      </trkpt>
      <trkpt lat="37.09175" lon="-3.38464">
        <ele>2606.4</ele>
        <time>2021-08-06 19:41:23</time>
      </trkpt>
      <trkpt lat="37.09176" lon="-3.38465">
        <ele>2606</ele>
        <time>2021-08-06 19:41:24</time>
      </trkpt>
      <trkpt lat="37.09176" lon="-3.38465">
        <ele>2605.8</ele>
        <time>2021-08-06 19:41:25</time>
      </trkpt>
      <trkpt lat="37.09177" lon="-3.38466">
        <ele>2605.6</ele>
        <time>2021-08-06 19:41:26</time>
      </trkpt>
      <trkpt lat="37.09178" lon="-3.38466">
        <ele>2605.4</ele>
        <time>2021-08-06 19:41:27</time>
      </trkpt>
      <trkpt lat="37.09179" lon="-3.38467">
        <ele>2605</ele>
        <time>2021-08-06 19:41:28</time>
      </trkpt>
      <trkpt lat="37.0918" lon="-3.38468">
        <ele>2604.8</ele>
        <time>2021-08-06 19:41:29</time>
      </trkpt>
      <trkpt lat="37.0918" lon="-3.38468">
        <ele>2604.6</ele>
        <time>2021-08-06 19:41:30</time>
      </trkpt>
      <trkpt lat="37.09181" lon="-3.38469">
        <ele>2604.4</ele>
        <time>2021-08-06 19:41:31</time>
      </trkpt>
      <trkpt lat="37.09181" lon="-3.3847">
        <ele>2604.4</ele>
        <time>2021-08-06 19:41:32</time>
      </trkpt>
      <trkpt lat="37.09182" lon="-3.38471">
        <ele>2604.2</ele>
        <time>2021-08-06 19:41:33</time>
      </trkpt>
      <trkpt lat="37.09183" lon="-3.38471">
        <ele>2604.2</ele>
        <time>2021-08-06 19:41:34</time>
      </trkpt>
      <trkpt lat="37.09184" lon="-3.38472">
        <ele>2604.2</ele>
        <time>2021-08-06 19:41:35</time>
      </trkpt>
      <trkpt lat="37.09184" lon="-3.38472">
        <ele>2604.2</ele>
        <time>2021-08-06 19:41:36</time>
      </trkpt>
      <trkpt lat="37.09185" lon="-3.38473">
        <ele>2604.2</ele>
        <time>2021-08-06 19:41:37</time>
      </trkpt>
      <trkpt lat="37.09186" lon="-3.38473">
        <ele>2603.8</ele>
        <time>2021-08-06 19:41:38</time>
      </trkpt>
      <trkpt lat="37.09186" lon="-3.38473">
        <ele>2602.8</ele>
        <time>2021-08-06 19:41:39</time>
      </trkpt>
      <trkpt lat="37.09187" lon="-3.38474">
        <ele>2602.2</ele>
        <time>2021-08-06 19:41:40</time>
      </trkpt>
      <trkpt lat="37.09188" lon="-3.38474">
        <ele>2602</ele>
        <time>2021-08-06 19:41:41</time>
      </trkpt>
      <trkpt lat="37.09188" lon="-3.38475">
        <ele>2601.8</ele>
        <time>2021-08-06 19:41:42</time>
      </trkpt>
      <trkpt lat="37.09189" lon="-3.38476">
        <ele>2601.8</ele>
        <time>2021-08-06 19:41:43</time>
      </trkpt>
      <trkpt lat="37.0919" lon="-3.38476">
        <ele>2601.6</ele>
        <time>2021-08-06 19:41:44</time>
      </trkpt>
      <trkpt lat="37.0919" lon="-3.38476">
        <ele>2601.4</ele>
        <time>2021-08-06 19:41:45</time>
      </trkpt>
      <trkpt lat="37.09191" lon="-3.38477">
        <ele>2601.2</ele>
        <time>2021-08-06 19:41:46</time>
      </trkpt>
      <trkpt lat="37.09192" lon="-3.38477">
        <ele>2601</ele>
        <time>2021-08-06 19:41:47</time>
      </trkpt>
      <trkpt lat="37.09192" lon="-3.38478">
        <ele>2600.8</ele>
        <time>2021-08-06 19:41:48</time>
      </trkpt>
      <trkpt lat="37.09193" lon="-3.38478">
        <ele>2600.6</ele>
        <time>2021-08-06 19:41:49</time>
      </trkpt>
      <trkpt lat="37.09193" lon="-3.38479">
        <ele>2600.4</ele>
        <time>2021-08-06 19:41:50</time>
      </trkpt>
      <trkpt lat="37.09194" lon="-3.38479">
        <ele>2600.2</ele>
        <time>2021-08-06 19:41:51</time>
      </trkpt>
      <trkpt lat="37.09194" lon="-3.38479">
        <ele>2600.2</ele>
        <time>2021-08-06 19:41:52</time>
      </trkpt>
      <trkpt lat="37.09195" lon="-3.3848">
        <ele>2600</ele>
        <time>2021-08-06 19:41:53</time>
      </trkpt>
      <trkpt lat="37.09195" lon="-3.38481">
        <ele>2600</ele>
        <time>2021-08-06 19:41:54</time>
      </trkpt>
      <trkpt lat="37.09196" lon="-3.38482">
        <ele>2600</ele>
        <time>2021-08-06 19:41:55</time>
      </trkpt>
      <trkpt lat="37.09197" lon="-3.38482">
        <ele>2599.8</ele>
        <time>2021-08-06 19:41:56</time>
      </trkpt>
      <trkpt lat="37.09197" lon="-3.38483">
        <ele>2599.8</ele>
        <time>2021-08-06 19:41:57</time>
      </trkpt>
      <trkpt lat="37.09198" lon="-3.38483">
        <ele>2599.8</ele>
        <time>2021-08-06 19:41:58</time>
      </trkpt>
      <trkpt lat="37.09199" lon="-3.38484">
        <ele>2599.8</ele>
        <time>2021-08-06 19:41:59</time>
      </trkpt>
      <trkpt lat="37.092" lon="-3.38484">
        <ele>2599.6</ele>
        <time>2021-08-06 19:42:00</time>
      </trkpt>
      <trkpt lat="37.09201" lon="-3.38485">
        <ele>2599.4</ele>
        <time>2021-08-06 19:42:01</time>
      </trkpt>
      <trkpt lat="37.09202" lon="-3.38486">
        <ele>2599</ele>
        <time>2021-08-06 19:42:02</time>
      </trkpt>
      <trkpt lat="37.09203" lon="-3.38486">
        <ele>2599</ele>
        <time>2021-08-06 19:42:03</time>
      </trkpt>
      <trkpt lat="37.09204" lon="-3.38487">
        <ele>2598.8</ele>
        <time>2021-08-06 19:42:04</time>
      </trkpt>
      <trkpt lat="37.09205" lon="-3.38487">
        <ele>2598.8</ele>
        <time>2021-08-06 19:42:05</time>
      </trkpt>
      <trkpt lat="37.09206" lon="-3.38488">
        <ele>2598.6</ele>
        <time>2021-08-06 19:42:06</time>
      </trkpt>
      <trkpt lat="37.09206" lon="-3.38488">
        <ele>2598.4</ele>
        <time>2021-08-06 19:42:07</time>
      </trkpt>
      <trkpt lat="37.09207" lon="-3.38488">
        <ele>2598.4</ele>
        <time>2021-08-06 19:42:08</time>
      </trkpt>
      <trkpt lat="37.09207" lon="-3.38489">
        <ele>2598</ele>
        <time>2021-08-06 19:42:09</time>
      </trkpt>
      <trkpt lat="37.09208" lon="-3.38489">
        <ele>2597.8</ele>
        <time>2021-08-06 19:42:10</time>
      </trkpt>
      <trkpt lat="37.09208" lon="-3.3849">
        <ele>2597.6</ele>
        <time>2021-08-06 19:42:11</time>
      </trkpt>
      <trkpt lat="37.09208" lon="-3.3849">
        <ele>2597.4</ele>
        <time>2021-08-06 19:42:12</time>
      </trkpt>
      <trkpt lat="37.09209" lon="-3.38491">
        <ele>2597</ele>
        <time>2021-08-06 19:42:13</time>
      </trkpt>
      <trkpt lat="37.0921" lon="-3.38491">
        <ele>2596.8</ele>
        <time>2021-08-06 19:42:14</time>
      </trkpt>
      <trkpt lat="37.0921" lon="-3.38492">
        <ele>2596.2</ele>
        <time>2021-08-06 19:42:15</time>
      </trkpt>
      <trkpt lat="37.09211" lon="-3.38492">
        <ele>2595.8</ele>
        <time>2021-08-06 19:42:16</time>
      </trkpt>
      <trkpt lat="37.09211" lon="-3.38493">
        <ele>2595.6</ele>
        <time>2021-08-06 19:42:17</time>
      </trkpt>
      <trkpt lat="37.09212" lon="-3.38493">
        <ele>2595.4</ele>
        <time>2021-08-06 19:42:18</time>
      </trkpt>
      <trkpt lat="37.09212" lon="-3.38494">
        <ele>2595.2</ele>
        <time>2021-08-06 19:42:19</time>
      </trkpt>
      <trkpt lat="37.09212" lon="-3.38495">
        <ele>2595</ele>
        <time>2021-08-06 19:42:20</time>
      </trkpt>
      <trkpt lat="37.09213" lon="-3.38496">
        <ele>2594.6</ele>
        <time>2021-08-06 19:42:21</time>
      </trkpt>
      <trkpt lat="37.09213" lon="-3.38497">
        <ele>2594.6</ele>
        <time>2021-08-06 19:42:22</time>
      </trkpt>
      <trkpt lat="37.09213" lon="-3.38498">
        <ele>2594.6</ele>
        <time>2021-08-06 19:42:23</time>
      </trkpt>
      <trkpt lat="37.09213" lon="-3.38498">
        <ele>2594.6</ele>
        <time>2021-08-06 19:42:24</time>
      </trkpt>
      <trkpt lat="37.09213" lon="-3.38498">
        <ele>2594.6</ele>
        <time>2021-08-06 19:42:25</time>
      </trkpt>
      <trkpt lat="37.09214" lon="-3.38498">
        <ele>2594.8</ele>
        <time>2021-08-06 19:42:26</time>
      </trkpt>
      <trkpt lat="37.09214" lon="-3.38498">
        <ele>2595</ele>
        <time>2021-08-06 19:42:27</time>
      </trkpt>
      <trkpt lat="37.09215" lon="-3.38498">
        <ele>2595.2</ele>
        <time>2021-08-06 19:42:28</time>
      </trkpt>
      <trkpt lat="37.09216" lon="-3.38498">
        <ele>2595</ele>
        <time>2021-08-06 19:42:29</time>
      </trkpt>
      <trkpt lat="37.09217" lon="-3.38499">
        <ele>2594.4</ele>
        <time>2021-08-06 19:42:30</time>
      </trkpt>
      <trkpt lat="37.09218" lon="-3.38499">
        <ele>2594</ele>
        <time>2021-08-06 19:42:31</time>
      </trkpt>
      <trkpt lat="37.09219" lon="-3.385">
        <ele>2593.6</ele>
        <time>2021-08-06 19:42:32</time>
      </trkpt>
      <trkpt lat="37.09219" lon="-3.385">
        <ele>2593.4</ele>
        <time>2021-08-06 19:42:33</time>
      </trkpt>
      <trkpt lat="37.0922" lon="-3.385">
        <ele>2593.2</ele>
        <time>2021-08-06 19:42:34</time>
      </trkpt>
      <trkpt lat="37.09221" lon="-3.385">
        <ele>2593.2</ele>
        <time>2021-08-06 19:42:35</time>
      </trkpt>
      <trkpt lat="37.09221" lon="-3.385">
        <ele>2593.2</ele>
        <time>2021-08-06 19:42:36</time>
      </trkpt>
      <trkpt lat="37.09222" lon="-3.38501">
        <ele>2593.2</ele>
        <time>2021-08-06 19:42:37</time>
      </trkpt>
      <trkpt lat="37.09223" lon="-3.38501">
        <ele>2593.2</ele>
        <time>2021-08-06 19:42:38</time>
      </trkpt>
      <trkpt lat="37.09224" lon="-3.38501">
        <ele>2593.2</ele>
        <time>2021-08-06 19:42:39</time>
      </trkpt>
      <trkpt lat="37.09224" lon="-3.38502">
        <ele>2593.2</ele>
        <time>2021-08-06 19:42:40</time>
      </trkpt>
      <trkpt lat="37.09225" lon="-3.38503">
        <ele>2593.4</ele>
        <time>2021-08-06 19:42:41</time>
      </trkpt>
      <trkpt lat="37.09226" lon="-3.38503">
        <ele>2593.6</ele>
        <time>2021-08-06 19:42:42</time>
      </trkpt>
      <trkpt lat="37.09226" lon="-3.38504">
        <ele>2593.6</ele>
        <time>2021-08-06 19:42:43</time>
      </trkpt>
      <trkpt lat="37.09227" lon="-3.38505">
        <ele>2593.6</ele>
        <time>2021-08-06 19:42:44</time>
      </trkpt>
      <trkpt lat="37.09227" lon="-3.38505">
        <ele>2593.6</ele>
        <time>2021-08-06 19:42:45</time>
      </trkpt>
      <trkpt lat="37.09228" lon="-3.38506">
        <ele>2593.2</ele>
        <time>2021-08-06 19:42:46</time>
      </trkpt>
      <trkpt lat="37.09228" lon="-3.38506">
        <ele>2593</ele>
        <time>2021-08-06 19:42:47</time>
      </trkpt>
      <trkpt lat="37.09229" lon="-3.38506">
        <ele>2592.6</ele>
        <time>2021-08-06 19:42:48</time>
      </trkpt>
      <trkpt lat="37.09229" lon="-3.38507">
        <ele>2592.2</ele>
        <time>2021-08-06 19:42:49</time>
      </trkpt>
      <trkpt lat="37.0923" lon="-3.38507">
        <ele>2592</ele>
        <time>2021-08-06 19:42:50</time>
      </trkpt>
      <trkpt lat="37.09231" lon="-3.38508">
        <ele>2591.8</ele>
        <time>2021-08-06 19:42:51</time>
      </trkpt>
      <trkpt lat="37.09231" lon="-3.38508">
        <ele>2591.8</ele>
        <time>2021-08-06 19:42:52</time>
      </trkpt>
      <trkpt lat="37.09232" lon="-3.38509">
        <ele>2591.8</ele>
        <time>2021-08-06 19:42:53</time>
      </trkpt>
      <trkpt lat="37.09232" lon="-3.38509">
        <ele>2591.6</ele>
        <time>2021-08-06 19:42:54</time>
      </trkpt>
      <trkpt lat="37.09233" lon="-3.3851">
        <ele>2591.2</ele>
        <time>2021-08-06 19:42:55</time>
      </trkpt>
      <trkpt lat="37.09234" lon="-3.3851">
        <ele>2591.2</ele>
        <time>2021-08-06 19:42:56</time>
      </trkpt>
      <trkpt lat="37.09234" lon="-3.3851">
        <ele>2591</ele>
        <time>2021-08-06 19:42:57</time>
      </trkpt>
      <trkpt lat="37.09235" lon="-3.3851">
        <ele>2591</ele>
        <time>2021-08-06 19:42:58</time>
      </trkpt>
      <trkpt lat="37.09236" lon="-3.38511">
        <ele>2591</ele>
        <time>2021-08-06 19:42:59</time>
      </trkpt>
      <trkpt lat="37.09237" lon="-3.38511">
        <ele>2590.8</ele>
        <time>2021-08-06 19:43:00</time>
      </trkpt>
      <trkpt lat="37.09237" lon="-3.38512">
        <ele>2590.6</ele>
        <time>2021-08-06 19:43:01</time>
      </trkpt>
      <trkpt lat="37.09237" lon="-3.38512">
        <ele>2590.2</ele>
        <time>2021-08-06 19:43:02</time>
      </trkpt>
      <trkpt lat="37.09238" lon="-3.38513">
        <ele>2590</ele>
        <time>2021-08-06 19:43:03</time>
      </trkpt>
      <trkpt lat="37.09238" lon="-3.38513">
        <ele>2590</ele>
        <time>2021-08-06 19:43:04</time>
      </trkpt>
      <trkpt lat="37.09239" lon="-3.38513">
        <ele>2589.8</ele>
        <time>2021-08-06 19:43:05</time>
      </trkpt>
      <trkpt lat="37.0924" lon="-3.38514">
        <ele>2589.6</ele>
        <time>2021-08-06 19:43:06</time>
      </trkpt>
      <trkpt lat="37.0924" lon="-3.38514">
        <ele>2589.4</ele>
        <time>2021-08-06 19:43:07</time>
      </trkpt>
      <trkpt lat="37.09241" lon="-3.38514">
        <ele>2589.4</ele>
        <time>2021-08-06 19:43:08</time>
      </trkpt>
      <trkpt lat="37.09242" lon="-3.38515">
        <ele>2589.4</ele>
        <time>2021-08-06 19:43:09</time>
      </trkpt>
      <trkpt lat="37.09243" lon="-3.38515">
        <ele>2589.2</ele>
        <time>2021-08-06 19:43:10</time>
      </trkpt>
      <trkpt lat="37.09243" lon="-3.38515">
        <ele>2589</ele>
        <time>2021-08-06 19:43:11</time>
      </trkpt>
      <trkpt lat="37.09244" lon="-3.38515">
        <ele>2588.8</ele>
        <time>2021-08-06 19:43:12</time>
      </trkpt>
      <trkpt lat="37.09244" lon="-3.38516">
        <ele>2588.6</ele>
        <time>2021-08-06 19:43:13</time>
      </trkpt>
      <trkpt lat="37.09245" lon="-3.38516">
        <ele>2588.6</ele>
        <time>2021-08-06 19:43:14</time>
      </trkpt>
      <trkpt lat="37.09246" lon="-3.38516">
        <ele>2588.4</ele>
        <time>2021-08-06 19:43:15</time>
      </trkpt>
      <trkpt lat="37.09247" lon="-3.38517">
        <ele>2588.2</ele>
        <time>2021-08-06 19:43:16</time>
      </trkpt>
      <trkpt lat="37.09247" lon="-3.38517">
        <ele>2588</ele>
        <time>2021-08-06 19:43:17</time>
      </trkpt>
      <trkpt lat="37.09248" lon="-3.38518">
        <ele>2587.8</ele>
        <time>2021-08-06 19:43:18</time>
      </trkpt>
      <trkpt lat="37.09248" lon="-3.38519">
        <ele>2587.6</ele>
        <time>2021-08-06 19:43:19</time>
      </trkpt>
      <trkpt lat="37.09249" lon="-3.3852">
        <ele>2587.6</ele>
        <time>2021-08-06 19:43:20</time>
      </trkpt>
      <trkpt lat="37.0925" lon="-3.38521">
        <ele>2587.4</ele>
        <time>2021-08-06 19:43:21</time>
      </trkpt>
      <trkpt lat="37.0925" lon="-3.38522">
        <ele>2587</ele>
        <time>2021-08-06 19:43:22</time>
      </trkpt>
      <trkpt lat="37.0925" lon="-3.38524">
        <ele>2586.8</ele>
        <time>2021-08-06 19:43:23</time>
      </trkpt>
      <trkpt lat="37.0925" lon="-3.38525">
        <ele>2586.4</ele>
        <time>2021-08-06 19:43:24</time>
      </trkpt>
      <trkpt lat="37.09251" lon="-3.38526">
        <ele>2586.2</ele>
        <time>2021-08-06 19:43:25</time>
      </trkpt>
      <trkpt lat="37.09252" lon="-3.38527">
        <ele>2586</ele>
        <time>2021-08-06 19:43:26</time>
      </trkpt>
      <trkpt lat="37.09252" lon="-3.38528">
        <ele>2585.8</ele>
        <time>2021-08-06 19:43:27</time>
      </trkpt>
      <trkpt lat="37.09253" lon="-3.38529">
        <ele>2585.6</ele>
        <time>2021-08-06 19:43:28</time>
      </trkpt>
      <trkpt lat="37.09253" lon="-3.38529">
        <ele>2585.4</ele>
        <time>2021-08-06 19:43:29</time>
      </trkpt>
      <trkpt lat="37.09254" lon="-3.3853">
        <ele>2585</ele>
        <time>2021-08-06 19:43:30</time>
      </trkpt>
      <trkpt lat="37.09254" lon="-3.38531">
        <ele>2584.8</ele>
        <time>2021-08-06 19:43:31</time>
      </trkpt>
      <trkpt lat="37.09255" lon="-3.38532">
        <ele>2584.6</ele>
        <time>2021-08-06 19:43:32</time>
      </trkpt>
      <trkpt lat="37.09256" lon="-3.38532">
        <ele>2584.4</ele>
        <time>2021-08-06 19:43:33</time>
      </trkpt>
      <trkpt lat="37.09256" lon="-3.38533">
        <ele>2584.4</ele>
        <time>2021-08-06 19:43:34</time>
      </trkpt>
      <trkpt lat="37.09257" lon="-3.38534">
        <ele>2584.2</ele>
        <time>2021-08-06 19:43:35</time>
      </trkpt>
      <trkpt lat="37.09258" lon="-3.38534">
        <ele>2584.2</ele>
        <time>2021-08-06 19:43:36</time>
      </trkpt>
      <trkpt lat="37.09258" lon="-3.38535">
        <ele>2584.2</ele>
        <time>2021-08-06 19:43:37</time>
      </trkpt>
      <trkpt lat="37.09259" lon="-3.38535">
        <ele>2584.2</ele>
        <time>2021-08-06 19:43:38</time>
      </trkpt>
      <trkpt lat="37.0926" lon="-3.38536">
        <ele>2584</ele>
        <time>2021-08-06 19:43:39</time>
      </trkpt>
      <trkpt lat="37.09261" lon="-3.38536">
        <ele>2583.8</ele>
        <time>2021-08-06 19:43:40</time>
      </trkpt>
      <trkpt lat="37.09262" lon="-3.38536">
        <ele>2583.6</ele>
        <time>2021-08-06 19:43:41</time>
      </trkpt>
      <trkpt lat="37.09263" lon="-3.38535">
        <ele>2583.4</ele>
        <time>2021-08-06 19:43:42</time>
      </trkpt>
      <trkpt lat="37.09264" lon="-3.38535">
        <ele>2583.2</ele>
        <time>2021-08-06 19:43:43</time>
      </trkpt>
      <trkpt lat="37.09265" lon="-3.38536">
        <ele>2583</ele>
        <time>2021-08-06 19:43:44</time>
      </trkpt>
      <trkpt lat="37.09266" lon="-3.38537">
        <ele>2582.8</ele>
        <time>2021-08-06 19:43:45</time>
      </trkpt>
      <trkpt lat="37.09267" lon="-3.38538">
        <ele>2582.8</ele>
        <time>2021-08-06 19:43:46</time>
      </trkpt>
      <trkpt lat="37.09268" lon="-3.38538">
        <ele>2582.6</ele>
        <time>2021-08-06 19:43:47</time>
      </trkpt>
      <trkpt lat="37.09269" lon="-3.38539">
        <ele>2582.4</ele>
        <time>2021-08-06 19:43:48</time>
      </trkpt>
      <trkpt lat="37.09269" lon="-3.3854">
        <ele>2582.2</ele>
        <time>2021-08-06 19:43:49</time>
      </trkpt>
      <trkpt lat="37.0927" lon="-3.38541">
        <ele>2582.2</ele>
        <time>2021-08-06 19:43:50</time>
      </trkpt>
      <trkpt lat="37.09271" lon="-3.38541">
        <ele>2582.2</ele>
        <time>2021-08-06 19:43:51</time>
      </trkpt>
      <trkpt lat="37.09272" lon="-3.38542">
        <ele>2582.2</ele>
        <time>2021-08-06 19:43:52</time>
      </trkpt>
      <trkpt lat="37.09272" lon="-3.38543">
        <ele>2582.2</ele>
        <time>2021-08-06 19:43:53</time>
      </trkpt>
      <trkpt lat="37.09272" lon="-3.38543">
        <ele>2582.2</ele>
        <time>2021-08-06 19:43:54</time>
      </trkpt>
      <trkpt lat="37.09272" lon="-3.38544">
        <ele>2582.2</ele>
        <time>2021-08-06 19:43:55</time>
      </trkpt>
      <trkpt lat="37.09273" lon="-3.38544">
        <ele>2582.4</ele>
        <time>2021-08-06 19:43:56</time>
      </trkpt>
      <trkpt lat="37.09273" lon="-3.38544">
        <ele>2582.6</ele>
        <time>2021-08-06 19:43:57</time>
      </trkpt>
      <trkpt lat="37.09273" lon="-3.38543">
        <ele>2582.6</ele>
        <time>2021-08-06 19:43:58</time>
      </trkpt>
      <trkpt lat="37.09273" lon="-3.38543">
        <ele>2582.6</ele>
        <time>2021-08-06 19:43:59</time>
      </trkpt>
      <trkpt lat="37.09273" lon="-3.38542">
        <ele>2582.6</ele>
        <time>2021-08-06 19:44:00</time>
      </trkpt>
      <trkpt lat="37.09274" lon="-3.38542">
        <ele>2582.4</ele>
        <time>2021-08-06 19:44:01</time>
      </trkpt>
      <trkpt lat="37.09274" lon="-3.38541">
        <ele>2582.4</ele>
        <time>2021-08-06 19:44:02</time>
      </trkpt>
      <trkpt lat="37.09275" lon="-3.38541">
        <ele>2582.4</ele>
        <time>2021-08-06 19:44:03</time>
      </trkpt>
      <trkpt lat="37.09275" lon="-3.3854">
        <ele>2582.2</ele>
        <time>2021-08-06 19:44:04</time>
      </trkpt>
      <trkpt lat="37.09276" lon="-3.38541">
        <ele>2582.2</ele>
        <time>2021-08-06 19:44:05</time>
      </trkpt>
      <trkpt lat="37.09277" lon="-3.38541">
        <ele>2582.2</ele>
        <time>2021-08-06 19:44:06</time>
      </trkpt>
      <trkpt lat="37.09279" lon="-3.38541">
        <ele>2582.2</ele>
        <time>2021-08-06 19:44:07</time>
      </trkpt>
      <trkpt lat="37.09279" lon="-3.38542">
        <ele>2582</ele>
        <time>2021-08-06 19:44:08</time>
      </trkpt>
      <trkpt lat="37.0928" lon="-3.38543">
        <ele>2582</ele>
        <time>2021-08-06 19:44:09</time>
      </trkpt>
      <trkpt lat="37.09281" lon="-3.38543">
        <ele>2581.8</ele>
        <time>2021-08-06 19:44:10</time>
      </trkpt>
      <trkpt lat="37.09281" lon="-3.38544">
        <ele>2581.4</ele>
        <time>2021-08-06 19:44:11</time>
      </trkpt>
      <trkpt lat="37.09282" lon="-3.38545">
        <ele>2581.2</ele>
        <time>2021-08-06 19:44:12</time>
      </trkpt>
      <trkpt lat="37.09282" lon="-3.38545">
        <ele>2581.2</ele>
        <time>2021-08-06 19:44:13</time>
      </trkpt>
      <trkpt lat="37.09283" lon="-3.38546">
        <ele>2580.8</ele>
        <time>2021-08-06 19:44:14</time>
      </trkpt>
      <trkpt lat="37.09283" lon="-3.38546">
        <ele>2580.4</ele>
        <time>2021-08-06 19:44:15</time>
      </trkpt>
      <trkpt lat="37.09284" lon="-3.38547">
        <ele>2580.2</ele>
        <time>2021-08-06 19:44:16</time>
      </trkpt>
      <trkpt lat="37.09285" lon="-3.38547">
        <ele>2580</ele>
        <time>2021-08-06 19:44:17</time>
      </trkpt>
      <trkpt lat="37.09285" lon="-3.38548">
        <ele>2579.4</ele>
        <time>2021-08-06 19:44:18</time>
      </trkpt>
      <trkpt lat="37.09286" lon="-3.38548">
        <ele>2579</ele>
        <time>2021-08-06 19:44:19</time>
      </trkpt>
      <trkpt lat="37.09287" lon="-3.38548">
        <ele>2578.8</ele>
        <time>2021-08-06 19:44:20</time>
      </trkpt>
      <trkpt lat="37.09288" lon="-3.38549">
        <ele>2578.8</ele>
        <time>2021-08-06 19:44:21</time>
      </trkpt>
      <trkpt lat="37.09289" lon="-3.38549">
        <ele>2578.8</ele>
        <time>2021-08-06 19:44:22</time>
      </trkpt>
      <trkpt lat="37.09289" lon="-3.3855">
        <ele>2578.6</ele>
        <time>2021-08-06 19:44:23</time>
      </trkpt>
      <trkpt lat="37.0929" lon="-3.38551">
        <ele>2578.6</ele>
        <time>2021-08-06 19:44:24</time>
      </trkpt>
      <trkpt lat="37.09291" lon="-3.38551">
        <ele>2578.6</ele>
        <time>2021-08-06 19:44:25</time>
      </trkpt>
      <trkpt lat="37.09292" lon="-3.38552">
        <ele>2578.6</ele>
        <time>2021-08-06 19:44:26</time>
      </trkpt>
      <trkpt lat="37.09292" lon="-3.38553">
        <ele>2578.4</ele>
        <time>2021-08-06 19:44:27</time>
      </trkpt>
      <trkpt lat="37.09292" lon="-3.38554">
        <ele>2578.4</ele>
        <time>2021-08-06 19:44:28</time>
      </trkpt>
      <trkpt lat="37.09292" lon="-3.38555">
        <ele>2578.4</ele>
        <time>2021-08-06 19:44:29</time>
      </trkpt>
      <trkpt lat="37.09292" lon="-3.38556">
        <ele>2578.4</ele>
        <time>2021-08-06 19:44:30</time>
      </trkpt>
      <trkpt lat="37.09292" lon="-3.38557">
        <ele>2578</ele>
        <time>2021-08-06 19:44:31</time>
      </trkpt>
      <trkpt lat="37.09293" lon="-3.38558">
        <ele>2578</ele>
        <time>2021-08-06 19:44:32</time>
      </trkpt>
      <trkpt lat="37.09293" lon="-3.38559">
        <ele>2577.8</ele>
        <time>2021-08-06 19:44:33</time>
      </trkpt>
      <trkpt lat="37.09294" lon="-3.3856">
        <ele>2577.6</ele>
        <time>2021-08-06 19:44:34</time>
      </trkpt>
      <trkpt lat="37.09294" lon="-3.38561">
        <ele>2577.4</ele>
        <time>2021-08-06 19:44:35</time>
      </trkpt>
      <trkpt lat="37.09294" lon="-3.38563">
        <ele>2577</ele>
        <time>2021-08-06 19:44:36</time>
      </trkpt>
      <trkpt lat="37.09295" lon="-3.38564">
        <ele>2576.6</ele>
        <time>2021-08-06 19:44:37</time>
      </trkpt>
      <trkpt lat="37.09295" lon="-3.38565">
        <ele>2576.4</ele>
        <time>2021-08-06 19:44:38</time>
      </trkpt>
      <trkpt lat="37.09295" lon="-3.38566">
        <ele>2576.2</ele>
        <time>2021-08-06 19:44:39</time>
      </trkpt>
      <trkpt lat="37.09296" lon="-3.38567">
        <ele>2576.2</ele>
        <time>2021-08-06 19:44:40</time>
      </trkpt>
      <trkpt lat="37.09296" lon="-3.38568">
        <ele>2576</ele>
        <time>2021-08-06 19:44:41</time>
      </trkpt>
      <trkpt lat="37.09297" lon="-3.38569">
        <ele>2575.4</ele>
        <time>2021-08-06 19:44:42</time>
      </trkpt>
      <trkpt lat="37.09297" lon="-3.3857">
        <ele>2575</ele>
        <time>2021-08-06 19:44:43</time>
      </trkpt>
      <trkpt lat="37.09297" lon="-3.3857">
        <ele>2575</ele>
        <time>2021-08-06 19:44:44</time>
      </trkpt>
      <trkpt lat="37.09298" lon="-3.38571">
        <ele>2575</ele>
        <time>2021-08-06 19:44:45</time>
      </trkpt>
      <trkpt lat="37.09299" lon="-3.38571">
        <ele>2575</ele>
        <time>2021-08-06 19:44:46</time>
      </trkpt>
      <trkpt lat="37.093" lon="-3.38572">
        <ele>2575</ele>
        <time>2021-08-06 19:44:47</time>
      </trkpt>
      <trkpt lat="37.093" lon="-3.38572">
        <ele>2575</ele>
        <time>2021-08-06 19:44:48</time>
      </trkpt>
      <trkpt lat="37.09301" lon="-3.38573">
        <ele>2575</ele>
        <time>2021-08-06 19:44:49</time>
      </trkpt>
      <trkpt lat="37.09301" lon="-3.38573">
        <ele>2575</ele>
        <time>2021-08-06 19:44:50</time>
      </trkpt>
      <trkpt lat="37.09302" lon="-3.38573">
        <ele>2574.6</ele>
        <time>2021-08-06 19:44:51</time>
      </trkpt>
      <trkpt lat="37.09303" lon="-3.38574">
        <ele>2574.6</ele>
        <time>2021-08-06 19:44:52</time>
      </trkpt>
      <trkpt lat="37.09304" lon="-3.38574">
        <ele>2574.4</ele>
        <time>2021-08-06 19:44:53</time>
      </trkpt>
      <trkpt lat="37.09305" lon="-3.38574">
        <ele>2574.2</ele>
        <time>2021-08-06 19:44:54</time>
      </trkpt>
      <trkpt lat="37.09305" lon="-3.38574">
        <ele>2574</ele>
        <time>2021-08-06 19:44:55</time>
      </trkpt>
      <trkpt lat="37.09306" lon="-3.38575">
        <ele>2573.6</ele>
        <time>2021-08-06 19:44:56</time>
      </trkpt>
      <trkpt lat="37.09307" lon="-3.38575">
        <ele>2573.4</ele>
        <time>2021-08-06 19:44:57</time>
      </trkpt>
      <trkpt lat="37.09308" lon="-3.38576">
        <ele>2573.4</ele>
        <time>2021-08-06 19:44:58</time>
      </trkpt>
      <trkpt lat="37.09308" lon="-3.38577">
        <ele>2573.2</ele>
        <time>2021-08-06 19:44:59</time>
      </trkpt>
      <trkpt lat="37.09308" lon="-3.38577">
        <ele>2573.2</ele>
        <time>2021-08-06 19:45:00</time>
      </trkpt>
      <trkpt lat="37.09309" lon="-3.38578">
        <ele>2573</ele>
        <time>2021-08-06 19:45:01</time>
      </trkpt>
      <trkpt lat="37.09309" lon="-3.38578">
        <ele>2573</ele>
        <time>2021-08-06 19:45:02</time>
      </trkpt>
      <trkpt lat="37.0931" lon="-3.38578">
        <ele>2573</ele>
        <time>2021-08-06 19:45:03</time>
      </trkpt>
      <trkpt lat="37.0931" lon="-3.38579">
        <ele>2573</ele>
        <time>2021-08-06 19:45:04</time>
      </trkpt>
      <trkpt lat="37.0931" lon="-3.3858">
        <ele>2573</ele>
        <time>2021-08-06 19:45:05</time>
      </trkpt>
      <trkpt lat="37.09311" lon="-3.3858">
        <ele>2573</ele>
        <time>2021-08-06 19:45:06</time>
      </trkpt>
      <trkpt lat="37.09312" lon="-3.38581">
        <ele>2572.8</ele>
        <time>2021-08-06 19:45:07</time>
      </trkpt>
      <trkpt lat="37.09312" lon="-3.38581">
        <ele>2572.6</ele>
        <time>2021-08-06 19:45:08</time>
      </trkpt>
      <trkpt lat="37.09313" lon="-3.38582">
        <ele>2572.2</ele>
        <time>2021-08-06 19:45:09</time>
      </trkpt>
      <trkpt lat="37.09314" lon="-3.38582">
        <ele>2571.6</ele>
        <time>2021-08-06 19:45:10</time>
      </trkpt>
      <trkpt lat="37.09314" lon="-3.38582">
        <ele>2571.4</ele>
        <time>2021-08-06 19:45:11</time>
      </trkpt>
      <trkpt lat="37.09315" lon="-3.38582">
        <ele>2571.4</ele>
        <time>2021-08-06 19:45:12</time>
      </trkpt>
      <trkpt lat="37.09316" lon="-3.38583">
        <ele>2571.2</ele>
        <time>2021-08-06 19:45:13</time>
      </trkpt>
      <trkpt lat="37.09316" lon="-3.38583">
        <ele>2571.2</ele>
        <time>2021-08-06 19:45:14</time>
      </trkpt>
      <trkpt lat="37.09317" lon="-3.38584">
        <ele>2571.2</ele>
        <time>2021-08-06 19:45:15</time>
      </trkpt>
      <trkpt lat="37.09318" lon="-3.38584">
        <ele>2571.2</ele>
        <time>2021-08-06 19:45:16</time>
      </trkpt>
      <trkpt lat="37.09318" lon="-3.38585">
        <ele>2571.2</ele>
        <time>2021-08-06 19:45:17</time>
      </trkpt>
      <trkpt lat="37.09319" lon="-3.38585">
        <ele>2571</ele>
        <time>2021-08-06 19:45:18</time>
      </trkpt>
      <trkpt lat="37.09319" lon="-3.38586">
        <ele>2570.6</ele>
        <time>2021-08-06 19:45:19</time>
      </trkpt>
      <trkpt lat="37.0932" lon="-3.38586">
        <ele>2570.4</ele>
        <time>2021-08-06 19:45:20</time>
      </trkpt>
      <trkpt lat="37.09321" lon="-3.38587">
        <ele>2570.4</ele>
        <time>2021-08-06 19:45:21</time>
      </trkpt>
      <trkpt lat="37.09321" lon="-3.38588">
        <ele>2570.2</ele>
        <time>2021-08-06 19:45:22</time>
      </trkpt>
      <trkpt lat="37.09321" lon="-3.38588">
        <ele>2570.2</ele>
        <time>2021-08-06 19:45:23</time>
      </trkpt>
      <trkpt lat="37.09322" lon="-3.38589">
        <ele>2570.2</ele>
        <time>2021-08-06 19:45:24</time>
      </trkpt>
      <trkpt lat="37.09322" lon="-3.3859">
        <ele>2570</ele>
        <time>2021-08-06 19:45:25</time>
      </trkpt>
      <trkpt lat="37.09322" lon="-3.38591">
        <ele>2569.6</ele>
        <time>2021-08-06 19:45:26</time>
      </trkpt>
      <trkpt lat="37.09323" lon="-3.38592">
        <ele>2569.4</ele>
        <time>2021-08-06 19:45:27</time>
      </trkpt>
      <trkpt lat="37.09324" lon="-3.38593">
        <ele>2569.2</ele>
        <time>2021-08-06 19:45:28</time>
      </trkpt>
      <trkpt lat="37.09324" lon="-3.38594">
        <ele>2569.2</ele>
        <time>2021-08-06 19:45:29</time>
      </trkpt>
      <trkpt lat="37.09325" lon="-3.38595">
        <ele>2569</ele>
        <time>2021-08-06 19:45:30</time>
      </trkpt>
      <trkpt lat="37.09326" lon="-3.38595">
        <ele>2568.8</ele>
        <time>2021-08-06 19:45:31</time>
      </trkpt>
      <trkpt lat="37.09326" lon="-3.38597">
        <ele>2568.6</ele>
        <time>2021-08-06 19:45:32</time>
      </trkpt>
      <trkpt lat="37.09327" lon="-3.38598">
        <ele>2568.6</ele>
        <time>2021-08-06 19:45:33</time>
      </trkpt>
      <trkpt lat="37.09328" lon="-3.38599">
        <ele>2568.4</ele>
        <time>2021-08-06 19:45:34</time>
      </trkpt>
      <trkpt lat="37.09328" lon="-3.38599">
        <ele>2568</ele>
        <time>2021-08-06 19:45:35</time>
      </trkpt>
      <trkpt lat="37.09329" lon="-3.38601">
        <ele>2567.6</ele>
        <time>2021-08-06 19:45:36</time>
      </trkpt>
      <trkpt lat="37.0933" lon="-3.38602">
        <ele>2567.4</ele>
        <time>2021-08-06 19:45:37</time>
      </trkpt>
      <trkpt lat="37.0933" lon="-3.38603">
        <ele>2567.4</ele>
        <time>2021-08-06 19:45:38</time>
      </trkpt>
      <trkpt lat="37.09331" lon="-3.38604">
        <ele>2567.4</ele>
        <time>2021-08-06 19:45:39</time>
      </trkpt>
      <trkpt lat="37.09331" lon="-3.38605">
        <ele>2567</ele>
        <time>2021-08-06 19:45:40</time>
      </trkpt>
      <trkpt lat="37.09332" lon="-3.38606">
        <ele>2566.8</ele>
        <time>2021-08-06 19:45:41</time>
      </trkpt>
      <trkpt lat="37.09333" lon="-3.38607">
        <ele>2566.4</ele>
        <time>2021-08-06 19:45:42</time>
      </trkpt>
      <trkpt lat="37.09333" lon="-3.38608">
        <ele>2566.2</ele>
        <time>2021-08-06 19:45:43</time>
      </trkpt>
      <trkpt lat="37.09334" lon="-3.38608">
        <ele>2566</ele>
        <time>2021-08-06 19:45:44</time>
      </trkpt>
      <trkpt lat="37.09334" lon="-3.38609">
        <ele>2565.8</ele>
        <time>2021-08-06 19:45:45</time>
      </trkpt>
      <trkpt lat="37.09335" lon="-3.38609">
        <ele>2565.6</ele>
        <time>2021-08-06 19:45:46</time>
      </trkpt>
      <trkpt lat="37.09336" lon="-3.3861">
        <ele>2565.4</ele>
        <time>2021-08-06 19:45:47</time>
      </trkpt>
      <trkpt lat="37.09337" lon="-3.3861">
        <ele>2565.4</ele>
        <time>2021-08-06 19:45:48</time>
      </trkpt>
      <trkpt lat="37.09337" lon="-3.38611">
        <ele>2565.2</ele>
        <time>2021-08-06 19:45:49</time>
      </trkpt>
      <trkpt lat="37.09338" lon="-3.38611">
        <ele>2564.8</ele>
        <time>2021-08-06 19:45:50</time>
      </trkpt>
      <trkpt lat="37.09339" lon="-3.38612">
        <ele>2564.8</ele>
        <time>2021-08-06 19:45:51</time>
      </trkpt>
      <trkpt lat="37.0934" lon="-3.38612">
        <ele>2564.6</ele>
        <time>2021-08-06 19:45:52</time>
      </trkpt>
      <trkpt lat="37.0934" lon="-3.38613">
        <ele>2564.4</ele>
        <time>2021-08-06 19:45:53</time>
      </trkpt>
      <trkpt lat="37.09341" lon="-3.38614">
        <ele>2564.2</ele>
        <time>2021-08-06 19:45:54</time>
      </trkpt>
      <trkpt lat="37.09342" lon="-3.38614">
        <ele>2564.2</ele>
        <time>2021-08-06 19:45:55</time>
      </trkpt>
      <trkpt lat="37.09343" lon="-3.38615">
        <ele>2564</ele>
        <time>2021-08-06 19:45:56</time>
      </trkpt>
      <trkpt lat="37.09344" lon="-3.38616">
        <ele>2564</ele>
        <time>2021-08-06 19:45:57</time>
      </trkpt>
      <trkpt lat="37.09344" lon="-3.38616">
        <ele>2563.4</ele>
        <time>2021-08-06 19:45:58</time>
      </trkpt>
      <trkpt lat="37.09345" lon="-3.38616">
        <ele>2563.2</ele>
        <time>2021-08-06 19:45:59</time>
      </trkpt>
      <trkpt lat="37.09346" lon="-3.38617">
        <ele>2562.8</ele>
        <time>2021-08-06 19:46:00</time>
      </trkpt>
      <trkpt lat="37.09346" lon="-3.38618">
        <ele>2562.4</ele>
        <time>2021-08-06 19:46:01</time>
      </trkpt>
      <trkpt lat="37.09347" lon="-3.38618">
        <ele>2562.2</ele>
        <time>2021-08-06 19:46:02</time>
      </trkpt>
      <trkpt lat="37.09347" lon="-3.38619">
        <ele>2562.2</ele>
        <time>2021-08-06 19:46:03</time>
      </trkpt>
      <trkpt lat="37.09348" lon="-3.3862">
        <ele>2562</ele>
        <time>2021-08-06 19:46:04</time>
      </trkpt>
      <trkpt lat="37.09349" lon="-3.38621">
        <ele>2562</ele>
        <time>2021-08-06 19:46:05</time>
      </trkpt>
      <trkpt lat="37.09349" lon="-3.38621">
        <ele>2562.2</ele>
        <time>2021-08-06 19:46:06</time>
      </trkpt>
      <trkpt lat="37.0935" lon="-3.38622">
        <ele>2562.4</ele>
        <time>2021-08-06 19:46:07</time>
      </trkpt>
      <trkpt lat="37.09351" lon="-3.38623">
        <ele>2562.6</ele>
        <time>2021-08-06 19:46:08</time>
      </trkpt>
      <trkpt lat="37.09351" lon="-3.38623">
        <ele>2562.2</ele>
        <time>2021-08-06 19:46:09</time>
      </trkpt>
      <trkpt lat="37.09352" lon="-3.38624">
        <ele>2562</ele>
        <time>2021-08-06 19:46:10</time>
      </trkpt>
      <trkpt lat="37.09353" lon="-3.38625">
        <ele>2562</ele>
        <time>2021-08-06 19:46:11</time>
      </trkpt>
      <trkpt lat="37.09353" lon="-3.38626">
        <ele>2562</ele>
        <time>2021-08-06 19:46:12</time>
      </trkpt>
      <trkpt lat="37.09354" lon="-3.38626">
        <ele>2562</ele>
        <time>2021-08-06 19:46:13</time>
      </trkpt>
      <trkpt lat="37.09354" lon="-3.38626">
        <ele>2562</ele>
        <time>2021-08-06 19:46:14</time>
      </trkpt>
      <trkpt lat="37.09355" lon="-3.38627">
        <ele>2562</ele>
        <time>2021-08-06 19:46:15</time>
      </trkpt>
      <trkpt lat="37.09356" lon="-3.38628">
        <ele>2562</ele>
        <time>2021-08-06 19:46:16</time>
      </trkpt>
      <trkpt lat="37.09356" lon="-3.38629">
        <ele>2562</ele>
        <time>2021-08-06 19:46:17</time>
      </trkpt>
      <trkpt lat="37.09357" lon="-3.3863">
        <ele>2561.8</ele>
        <time>2021-08-06 19:46:18</time>
      </trkpt>
      <trkpt lat="37.09358" lon="-3.38631">
        <ele>2561.6</ele>
        <time>2021-08-06 19:46:19</time>
      </trkpt>
      <trkpt lat="37.09359" lon="-3.38632">
        <ele>2561.4</ele>
        <time>2021-08-06 19:46:20</time>
      </trkpt>
      <trkpt lat="37.0936" lon="-3.38632">
        <ele>2561.4</ele>
        <time>2021-08-06 19:46:21</time>
      </trkpt>
      <trkpt lat="37.09361" lon="-3.38632">
        <ele>2561.4</ele>
        <time>2021-08-06 19:46:22</time>
      </trkpt>
      <trkpt lat="37.09362" lon="-3.38633">
        <ele>2561.4</ele>
        <time>2021-08-06 19:46:23</time>
      </trkpt>
      <trkpt lat="37.09363" lon="-3.38635">
        <ele>2561.2</ele>
        <time>2021-08-06 19:46:24</time>
      </trkpt>
      <trkpt lat="37.09364" lon="-3.38635">
        <ele>2561.2</ele>
        <time>2021-08-06 19:46:25</time>
      </trkpt>
      <trkpt lat="37.09365" lon="-3.38636">
        <ele>2561.2</ele>
        <time>2021-08-06 19:46:26</time>
      </trkpt>
      <trkpt lat="37.09366" lon="-3.38637">
        <ele>2561.2</ele>
        <time>2021-08-06 19:46:27</time>
      </trkpt>
      <trkpt lat="37.09367" lon="-3.38638">
        <ele>2561</ele>
        <time>2021-08-06 19:46:28</time>
      </trkpt>
      <trkpt lat="37.09367" lon="-3.38641">
        <ele>2561</ele>
        <time>2021-08-06 19:46:29</time>
      </trkpt>
      <trkpt lat="37.09368" lon="-3.38642">
        <ele>2561</ele>
        <time>2021-08-06 19:46:30</time>
      </trkpt>
      <trkpt lat="37.09368" lon="-3.38642">
        <ele>2561</ele>
        <time>2021-08-06 19:46:31</time>
      </trkpt>
      <trkpt lat="37.09368" lon="-3.38641">
        <ele>2561</ele>
        <time>2021-08-06 19:46:32</time>
      </trkpt>
      <trkpt lat="37.09368" lon="-3.38642">
        <ele>2561</ele>
        <time>2021-08-06 19:46:33</time>
      </trkpt>
      <trkpt lat="37.09368" lon="-3.38643">
        <ele>2560.6</ele>
        <time>2021-08-06 19:46:34</time>
      </trkpt>
      <trkpt lat="37.09369" lon="-3.38643">
        <ele>2560.6</ele>
        <time>2021-08-06 19:46:35</time>
      </trkpt>
      <trkpt lat="37.0937" lon="-3.38644">
        <ele>2560.4</ele>
        <time>2021-08-06 19:46:36</time>
      </trkpt>
      <trkpt lat="37.09371" lon="-3.38645">
        <ele>2560.4</ele>
        <time>2021-08-06 19:46:37</time>
      </trkpt>
      <trkpt lat="37.09373" lon="-3.38646">
        <ele>2560.6</ele>
        <time>2021-08-06 19:46:38</time>
      </trkpt>
      <trkpt lat="37.09374" lon="-3.38646">
        <ele>2560.6</ele>
        <time>2021-08-06 19:46:39</time>
      </trkpt>
      <trkpt lat="37.09375" lon="-3.38647">
        <ele>2560.6</ele>
        <time>2021-08-06 19:46:40</time>
      </trkpt>
      <trkpt lat="37.09376" lon="-3.38647">
        <ele>2560.6</ele>
        <time>2021-08-06 19:46:41</time>
      </trkpt>
      <trkpt lat="37.09378" lon="-3.38648">
        <ele>2560.6</ele>
        <time>2021-08-06 19:46:42</time>
      </trkpt>
      <trkpt lat="37.09379" lon="-3.38649">
        <ele>2560.6</ele>
        <time>2021-08-06 19:46:43</time>
      </trkpt>
      <trkpt lat="37.0938" lon="-3.3865">
        <ele>2560.6</ele>
        <time>2021-08-06 19:46:44</time>
      </trkpt>
      <trkpt lat="37.0938" lon="-3.38651">
        <ele>2560.6</ele>
        <time>2021-08-06 19:46:45</time>
      </trkpt>
      <trkpt lat="37.09381" lon="-3.38652">
        <ele>2560.6</ele>
        <time>2021-08-06 19:46:46</time>
      </trkpt>
      <trkpt lat="37.09382" lon="-3.38653">
        <ele>2560.6</ele>
        <time>2021-08-06 19:46:47</time>
      </trkpt>
      <trkpt lat="37.09382" lon="-3.38654">
        <ele>2560.4</ele>
        <time>2021-08-06 19:46:48</time>
      </trkpt>
      <trkpt lat="37.09383" lon="-3.38654">
        <ele>2560.4</ele>
        <time>2021-08-06 19:46:49</time>
      </trkpt>
      <trkpt lat="37.09384" lon="-3.38655">
        <ele>2560.2</ele>
        <time>2021-08-06 19:46:50</time>
      </trkpt>
      <trkpt lat="37.09385" lon="-3.38656">
        <ele>2560</ele>
        <time>2021-08-06 19:46:51</time>
      </trkpt>
      <trkpt lat="37.09386" lon="-3.38656">
        <ele>2560</ele>
        <time>2021-08-06 19:46:52</time>
      </trkpt>
      <trkpt lat="37.09386" lon="-3.38657">
        <ele>2560</ele>
        <time>2021-08-06 19:46:53</time>
      </trkpt>
      <trkpt lat="37.09386" lon="-3.38657">
        <ele>2560</ele>
        <time>2021-08-06 19:46:54</time>
      </trkpt>
      <trkpt lat="37.09386" lon="-3.38658">
        <ele>2560.2</ele>
        <time>2021-08-06 19:46:55</time>
      </trkpt>
      <trkpt lat="37.09385" lon="-3.38659">
        <ele>2560.4</ele>
        <time>2021-08-06 19:46:56</time>
      </trkpt>
      <trkpt lat="37.09384" lon="-3.3866">
        <ele>2560.6</ele>
        <time>2021-08-06 19:46:57</time>
      </trkpt>
      <trkpt lat="37.09384" lon="-3.38661">
        <ele>2560.8</ele>
        <time>2021-08-06 19:46:58</time>
      </trkpt>
      <trkpt lat="37.09383" lon="-3.38661">
        <ele>2560.8</ele>
        <time>2021-08-06 19:46:59</time>
      </trkpt>
      <trkpt lat="37.09384" lon="-3.38662">
        <ele>2560.6</ele>
        <time>2021-08-06 19:47:00</time>
      </trkpt>
      <trkpt lat="37.09385" lon="-3.38662">
        <ele>2560.6</ele>
        <time>2021-08-06 19:47:01</time>
      </trkpt>
      <trkpt lat="37.09386" lon="-3.38662">
        <ele>2560.4</ele>
        <time>2021-08-06 19:47:02</time>
      </trkpt>
      <trkpt lat="37.09387" lon="-3.38663">
        <ele>2560.4</ele>
        <time>2021-08-06 19:47:03</time>
      </trkpt>
      <trkpt lat="37.09388" lon="-3.38664">
        <ele>2560.2</ele>
        <time>2021-08-06 19:47:04</time>
      </trkpt>
      <trkpt lat="37.09389" lon="-3.38665">
        <ele>2560</ele>
        <time>2021-08-06 19:47:05</time>
      </trkpt>
      <trkpt lat="37.09389" lon="-3.38666">
        <ele>2560</ele>
        <time>2021-08-06 19:47:06</time>
      </trkpt>
    </trkseg>
  </trk>
</gpx>
